<?xml version="1.0" encoding="UTF-8" standalone="no" ?>
<gpx xmlns="http://www.topografix.com/GPX/1/1" xmlns:xsi="http://www.w3.org/2001/XMLSchema-instance" xsi:schemaLocation="http://www.topografix.com/GPX/1/1 http://www.topografix.com/GPX/1/1/gpx.xsd" version="1.1" creator="VisuGPX - https://www.visugpx.com">
  <metadata>
    <name>Tour des monts d'Aubrac en 8 jours</name>
    <desc><![CDATA[
]]></desc>
  </metadata>
  <trk>
    <name><![CDATA[Saint-Rémy-de-Chaudes-Aigues - Noalhac]]></name>
    <trkseg>
      <trkpt lat="44.77257" lon="3.04505">
        <ele>1004.2</ele>
        <time>2022-07-31T08:50:10Z</time>
      </trkpt>
      <trkpt lat="44.7725" lon="3.04506">
        <ele>1003.1</ele>
        <time>2022-07-31T08:50:16Z</time>
      </trkpt>
      <trkpt lat="44.77264" lon="3.04509">
        <ele>1006</ele>
        <time>2022-07-31T08:50:22Z</time>
      </trkpt>
      <trkpt lat="44.77268" lon="3.04509">
        <ele>1006.7</ele>
        <time>2022-07-31T08:50:29Z</time>
      </trkpt>
      <trkpt lat="44.77268" lon="3.04512">
        <ele>1006.9</ele>
        <time>2022-07-31T08:50:39Z</time>
      </trkpt>
      <trkpt lat="44.77268" lon="3.04511">
        <ele>1006.8</ele>
        <time>2022-07-31T08:50:44Z</time>
      </trkpt>
      <trkpt lat="44.77274" lon="3.0451">
        <ele>1007.7</ele>
        <time>2022-07-31T08:50:50Z</time>
      </trkpt>
      <trkpt lat="44.77277" lon="3.04505">
        <ele>1008.1</ele>
        <time>2022-07-31T08:50:56Z</time>
      </trkpt>
      <trkpt lat="44.77277" lon="3.04499">
        <ele>1008</ele>
        <time>2022-07-31T08:51:00Z</time>
      </trkpt>
      <trkpt lat="44.77276" lon="3.04495">
        <ele>1008</ele>
        <time>2022-07-31T08:51:02Z</time>
      </trkpt>
      <trkpt lat="44.77277" lon="3.04494">
        <ele>1008.2</ele>
        <time>2022-07-31T08:51:03Z</time>
      </trkpt>
      <trkpt lat="44.7728" lon="3.04491">
        <ele>1009.3</ele>
        <time>2022-07-31T08:51:07Z</time>
      </trkpt>
      <trkpt lat="44.77282" lon="3.04491">
        <ele>1009.7</ele>
        <time>2022-07-31T08:51:08Z</time>
      </trkpt>
      <trkpt lat="44.77287" lon="3.04486">
        <ele>1011</ele>
        <time>2022-07-31T08:51:15Z</time>
      </trkpt>
      <trkpt lat="44.77288" lon="3.04485">
        <ele>1011.3</ele>
        <time>2022-07-31T08:51:17Z</time>
      </trkpt>
      <trkpt lat="44.77291" lon="3.04484">
        <ele>1012.1</ele>
        <time>2022-07-31T08:51:20Z</time>
      </trkpt>
      <trkpt lat="44.77292" lon="3.04484">
        <ele>1012.3</ele>
        <time>2022-07-31T08:51:21Z</time>
      </trkpt>
      <trkpt lat="44.77298" lon="3.04485">
        <ele>1013.6</ele>
        <time>2022-07-31T08:51:26Z</time>
      </trkpt>
      <trkpt lat="44.773" lon="3.04486">
        <ele>1014.1</ele>
        <time>2022-07-31T08:51:27Z</time>
      </trkpt>
      <trkpt lat="44.77302" lon="3.04486">
        <ele>1014.7</ele>
        <time>2022-07-31T08:51:29Z</time>
      </trkpt>
      <trkpt lat="44.77304" lon="3.04486">
        <ele>1015.2</ele>
        <time>2022-07-31T08:51:31Z</time>
      </trkpt>
      <trkpt lat="44.77306" lon="3.04486">
        <ele>1015.5</ele>
        <time>2022-07-31T08:51:34Z</time>
      </trkpt>
      <trkpt lat="44.77308" lon="3.04485">
        <ele>1015.4</ele>
        <time>2022-07-31T08:51:36Z</time>
      </trkpt>
      <trkpt lat="44.7731" lon="3.04484">
        <ele>1015.2</ele>
        <time>2022-07-31T08:51:39Z</time>
      </trkpt>
      <trkpt lat="44.77316" lon="3.04482">
        <ele>1015</ele>
        <time>2022-07-31T08:51:44Z</time>
      </trkpt>
      <trkpt lat="44.77318" lon="3.04483">
        <ele>1015.1</ele>
        <time>2022-07-31T08:51:47Z</time>
      </trkpt>
      <trkpt lat="44.77319" lon="3.04483">
        <ele>1015.1</ele>
        <time>2022-07-31T08:51:48Z</time>
      </trkpt>
      <trkpt lat="44.7732" lon="3.04484">
        <ele>1015.2</ele>
        <time>2022-07-31T08:51:52Z</time>
      </trkpt>
      <trkpt lat="44.7732" lon="3.04484">
        <ele>1015.3</ele>
        <time>2022-07-31T08:51:54Z</time>
      </trkpt>
      <trkpt lat="44.77321" lon="3.04485">
        <ele>1015.3</ele>
        <time>2022-07-31T08:51:55Z</time>
      </trkpt>
      <trkpt lat="44.77323" lon="3.0449">
        <ele>1015.9</ele>
        <time>2022-07-31T08:52:01Z</time>
      </trkpt>
      <trkpt lat="44.77326" lon="3.04496">
        <ele>1016.6</ele>
        <time>2022-07-31T08:52:08Z</time>
      </trkpt>
      <trkpt lat="44.77326" lon="3.04496">
        <ele>1016.6</ele>
        <time>2022-07-31T08:52:09Z</time>
      </trkpt>
      <trkpt lat="44.77331" lon="3.04501">
        <ele>1017.1</ele>
        <time>2022-07-31T08:52:19Z</time>
      </trkpt>
      <trkpt lat="44.77332" lon="3.04508">
        <ele>1017.5</ele>
        <time>2022-07-31T08:52:25Z</time>
      </trkpt>
      <trkpt lat="44.7733" lon="3.04508">
        <ele>1017.4</ele>
        <time>2022-07-31T08:52:33Z</time>
      </trkpt>
      <trkpt lat="44.7733" lon="3.04511">
        <ele>1017.6</ele>
        <time>2022-07-31T08:52:41Z</time>
      </trkpt>
      <trkpt lat="44.77332" lon="3.04522">
        <ele>1018.4</ele>
        <time>2022-07-31T08:52:48Z</time>
      </trkpt>
      <trkpt lat="44.7733" lon="3.0453">
        <ele>1018.8</ele>
        <time>2022-07-31T08:52:54Z</time>
      </trkpt>
      <trkpt lat="44.7733" lon="3.04532">
        <ele>1019</ele>
        <time>2022-07-31T08:52:55Z</time>
      </trkpt>
      <trkpt lat="44.77332" lon="3.04539">
        <ele>1020.3</ele>
        <time>2022-07-31T08:53:01Z</time>
      </trkpt>
      <trkpt lat="44.77332" lon="3.0454">
        <ele>1020.6</ele>
        <time>2022-07-31T08:53:02Z</time>
      </trkpt>
      <trkpt lat="44.77335" lon="3.04549">
        <ele>1021.9</ele>
        <time>2022-07-31T08:53:08Z</time>
      </trkpt>
      <trkpt lat="44.77335" lon="3.0455">
        <ele>1022.2</ele>
        <time>2022-07-31T08:53:09Z</time>
      </trkpt>
      <trkpt lat="44.77335" lon="3.04552">
        <ele>1022.4</ele>
        <time>2022-07-31T08:53:10Z</time>
      </trkpt>
      <trkpt lat="44.77337" lon="3.04557">
        <ele>1023.1</ele>
        <time>2022-07-31T08:53:14Z</time>
      </trkpt>
      <trkpt lat="44.77337" lon="3.04559">
        <ele>1023.3</ele>
        <time>2022-07-31T08:53:15Z</time>
      </trkpt>
      <trkpt lat="44.77337" lon="3.04561">
        <ele>1023.7</ele>
        <time>2022-07-31T08:53:17Z</time>
      </trkpt>
      <trkpt lat="44.77336" lon="3.04566">
        <ele>1024.5</ele>
        <time>2022-07-31T08:53:21Z</time>
      </trkpt>
      <trkpt lat="44.77336" lon="3.04574">
        <ele>1025.7</ele>
        <time>2022-07-31T08:53:27Z</time>
      </trkpt>
      <trkpt lat="44.77335" lon="3.04575">
        <ele>1025.8</ele>
        <time>2022-07-31T08:53:28Z</time>
      </trkpt>
      <trkpt lat="44.7733" lon="3.04587">
        <ele>1027.3</ele>
        <time>2022-07-31T08:53:37Z</time>
      </trkpt>
      <trkpt lat="44.77326" lon="3.04594">
        <ele>1028.4</ele>
        <time>2022-07-31T08:53:43Z</time>
      </trkpt>
      <trkpt lat="44.77326" lon="3.04596">
        <ele>1028.6</ele>
        <time>2022-07-31T08:53:44Z</time>
      </trkpt>
      <trkpt lat="44.77326" lon="3.04598">
        <ele>1029</ele>
        <time>2022-07-31T08:53:46Z</time>
      </trkpt>
      <trkpt lat="44.77325" lon="3.04601">
        <ele>1029.4</ele>
        <time>2022-07-31T08:53:49Z</time>
      </trkpt>
      <trkpt lat="44.77323" lon="3.04604">
        <ele>1029.6</ele>
        <time>2022-07-31T08:53:52Z</time>
      </trkpt>
      <trkpt lat="44.77322" lon="3.04605">
        <ele>1029.7</ele>
        <time>2022-07-31T08:53:53Z</time>
      </trkpt>
      <trkpt lat="44.77321" lon="3.04609">
        <ele>1030.2</ele>
        <time>2022-07-31T08:53:57Z</time>
      </trkpt>
      <trkpt lat="44.77321" lon="3.04611">
        <ele>1030.6</ele>
        <time>2022-07-31T08:53:59Z</time>
      </trkpt>
      <trkpt lat="44.7732" lon="3.04613">
        <ele>1031</ele>
        <time>2022-07-31T08:54:00Z</time>
      </trkpt>
      <trkpt lat="44.7732" lon="3.04614">
        <ele>1031.2</ele>
        <time>2022-07-31T08:54:01Z</time>
      </trkpt>
      <trkpt lat="44.77319" lon="3.04616">
        <ele>1031.5</ele>
        <time>2022-07-31T08:54:04Z</time>
      </trkpt>
      <trkpt lat="44.77319" lon="3.04616">
        <ele>1031.6</ele>
        <time>2022-07-31T08:54:05Z</time>
      </trkpt>
      <trkpt lat="44.77318" lon="3.04617">
        <ele>1031.8</ele>
        <time>2022-07-31T08:54:07Z</time>
      </trkpt>
      <trkpt lat="44.77318" lon="3.04618">
        <ele>1032</ele>
        <time>2022-07-31T08:54:08Z</time>
      </trkpt>
      <trkpt lat="44.77317" lon="3.04623">
        <ele>1033</ele>
        <time>2022-07-31T08:54:12Z</time>
      </trkpt>
      <trkpt lat="44.77316" lon="3.04627">
        <ele>1033.7</ele>
        <time>2022-07-31T08:54:15Z</time>
      </trkpt>
      <trkpt lat="44.77315" lon="3.04629">
        <ele>1034.1</ele>
        <time>2022-07-31T08:54:17Z</time>
      </trkpt>
      <trkpt lat="44.7731" lon="3.04638">
        <ele>1035.5</ele>
        <time>2022-07-31T08:54:24Z</time>
      </trkpt>
      <trkpt lat="44.7731" lon="3.04639">
        <ele>1035.5</ele>
        <time>2022-07-31T08:54:25Z</time>
      </trkpt>
      <trkpt lat="44.77305" lon="3.04645">
        <ele>1036.6</ele>
        <time>2022-07-31T08:54:32Z</time>
      </trkpt>
      <trkpt lat="44.77304" lon="3.04648">
        <ele>1037</ele>
        <time>2022-07-31T08:54:34Z</time>
      </trkpt>
      <trkpt lat="44.77299" lon="3.04655">
        <ele>1037.8</ele>
        <time>2022-07-31T08:54:39Z</time>
      </trkpt>
      <trkpt lat="44.77298" lon="3.04656">
        <ele>1037.7</ele>
        <time>2022-07-31T08:54:40Z</time>
      </trkpt>
      <trkpt lat="44.77298" lon="3.04657">
        <ele>1037.9</ele>
        <time>2022-07-31T08:54:41Z</time>
      </trkpt>
      <trkpt lat="44.77297" lon="3.04658">
        <ele>1038</ele>
        <time>2022-07-31T08:54:42Z</time>
      </trkpt>
      <trkpt lat="44.77294" lon="3.04662">
        <ele>1038.5</ele>
        <time>2022-07-31T08:54:46Z</time>
      </trkpt>
      <trkpt lat="44.77293" lon="3.04664">
        <ele>1038.7</ele>
        <time>2022-07-31T08:54:48Z</time>
      </trkpt>
      <trkpt lat="44.77292" lon="3.04666">
        <ele>1038.7</ele>
        <time>2022-07-31T08:54:49Z</time>
      </trkpt>
      <trkpt lat="44.77284" lon="3.04671">
        <ele>1038.6</ele>
        <time>2022-07-31T08:54:58Z</time>
      </trkpt>
      <trkpt lat="44.77282" lon="3.04674">
        <ele>1038.9</ele>
        <time>2022-07-31T08:55:02Z</time>
      </trkpt>
      <trkpt lat="44.77279" lon="3.04676">
        <ele>1039.1</ele>
        <time>2022-07-31T08:55:04Z</time>
      </trkpt>
      <trkpt lat="44.77277" lon="3.04678">
        <ele>1039.2</ele>
        <time>2022-07-31T08:55:06Z</time>
      </trkpt>
      <trkpt lat="44.77273" lon="3.0468">
        <ele>1039.2</ele>
        <time>2022-07-31T08:55:09Z</time>
      </trkpt>
      <trkpt lat="44.7727" lon="3.04682">
        <ele>1039.4</ele>
        <time>2022-07-31T08:55:12Z</time>
      </trkpt>
      <trkpt lat="44.77264" lon="3.04688">
        <ele>1039.8</ele>
        <time>2022-07-31T08:55:18Z</time>
      </trkpt>
      <trkpt lat="44.77262" lon="3.04689">
        <ele>1039.9</ele>
        <time>2022-07-31T08:55:20Z</time>
      </trkpt>
      <trkpt lat="44.77253" lon="3.04696">
        <ele>1040.1</ele>
        <time>2022-07-31T08:55:29Z</time>
      </trkpt>
      <trkpt lat="44.77245" lon="3.04706">
        <ele>1041.1</ele>
        <time>2022-07-31T08:55:39Z</time>
      </trkpt>
      <trkpt lat="44.77245" lon="3.04708">
        <ele>1041.6</ele>
        <time>2022-07-31T08:55:41Z</time>
      </trkpt>
      <trkpt lat="44.77246" lon="3.04708">
        <ele>1041.8</ele>
        <time>2022-07-31T08:55:43Z</time>
      </trkpt>
      <trkpt lat="44.77246" lon="3.04708">
        <ele>1041.8</ele>
        <time>2022-07-31T08:55:44Z</time>
      </trkpt>
      <trkpt lat="44.77242" lon="3.04713">
        <ele>1042.2</ele>
        <time>2022-07-31T08:55:49Z</time>
      </trkpt>
      <trkpt lat="44.77241" lon="3.04714">
        <ele>1042.3</ele>
        <time>2022-07-31T08:55:50Z</time>
      </trkpt>
      <trkpt lat="44.77235" lon="3.04718">
        <ele>1042.4</ele>
        <time>2022-07-31T08:55:55Z</time>
      </trkpt>
      <trkpt lat="44.77234" lon="3.0472">
        <ele>1042.6</ele>
        <time>2022-07-31T08:55:57Z</time>
      </trkpt>
      <trkpt lat="44.77233" lon="3.04722">
        <ele>1042.8</ele>
        <time>2022-07-31T08:55:58Z</time>
      </trkpt>
      <trkpt lat="44.77228" lon="3.0473">
        <ele>1043.3</ele>
        <time>2022-07-31T08:56:06Z</time>
      </trkpt>
      <trkpt lat="44.7722" lon="3.04739">
        <ele>1043.7</ele>
        <time>2022-07-31T08:56:16Z</time>
      </trkpt>
      <trkpt lat="44.77218" lon="3.0474">
        <ele>1043.7</ele>
        <time>2022-07-31T08:56:17Z</time>
      </trkpt>
      <trkpt lat="44.77217" lon="3.04741">
        <ele>1043.7</ele>
        <time>2022-07-31T08:56:18Z</time>
      </trkpt>
      <trkpt lat="44.77213" lon="3.04748">
        <ele>1044.6</ele>
        <time>2022-07-31T08:56:23Z</time>
      </trkpt>
      <trkpt lat="44.77207" lon="3.04758">
        <ele>1045.6</ele>
        <time>2022-07-31T08:56:32Z</time>
      </trkpt>
      <trkpt lat="44.77205" lon="3.0476">
        <ele>1045.6</ele>
        <time>2022-07-31T08:56:35Z</time>
      </trkpt>
      <trkpt lat="44.77204" lon="3.04761">
        <ele>1045.6</ele>
        <time>2022-07-31T08:56:38Z</time>
      </trkpt>
      <trkpt lat="44.77205" lon="3.04761">
        <ele>1045.6</ele>
        <time>2022-07-31T08:56:41Z</time>
      </trkpt>
      <trkpt lat="44.77204" lon="3.0476">
        <ele>1045.5</ele>
        <time>2022-07-31T08:56:50Z</time>
      </trkpt>
      <trkpt lat="44.77199" lon="3.04766">
        <ele>1045.8</ele>
        <time>2022-07-31T08:57:00Z</time>
      </trkpt>
      <trkpt lat="44.77198" lon="3.04767">
        <ele>1045.8</ele>
        <time>2022-07-31T08:57:02Z</time>
      </trkpt>
      <trkpt lat="44.77197" lon="3.04768">
        <ele>1045.8</ele>
        <time>2022-07-31T08:57:05Z</time>
      </trkpt>
      <trkpt lat="44.77193" lon="3.04773">
        <ele>1046.1</ele>
        <time>2022-07-31T08:57:10Z</time>
      </trkpt>
      <trkpt lat="44.77185" lon="3.04783">
        <ele>1046.3</ele>
        <time>2022-07-31T08:57:19Z</time>
      </trkpt>
      <trkpt lat="44.77184" lon="3.04784">
        <ele>1046.4</ele>
        <time>2022-07-31T08:57:20Z</time>
      </trkpt>
      <trkpt lat="44.77178" lon="3.04793">
        <ele>1046.9</ele>
        <time>2022-07-31T08:57:28Z</time>
      </trkpt>
      <trkpt lat="44.77173" lon="3.048">
        <ele>1047.5</ele>
        <time>2022-07-31T08:57:34Z</time>
      </trkpt>
      <trkpt lat="44.77171" lon="3.04808">
        <ele>1048.4</ele>
        <time>2022-07-31T08:57:39Z</time>
      </trkpt>
      <trkpt lat="44.77169" lon="3.04813">
        <ele>1048.8</ele>
        <time>2022-07-31T08:57:42Z</time>
      </trkpt>
      <trkpt lat="44.77169" lon="3.04814">
        <ele>1048.8</ele>
        <time>2022-07-31T08:57:43Z</time>
      </trkpt>
      <trkpt lat="44.77166" lon="3.04825">
        <ele>1049.4</ele>
        <time>2022-07-31T08:57:50Z</time>
      </trkpt>
      <trkpt lat="44.77166" lon="3.04827">
        <ele>1049.5</ele>
        <time>2022-07-31T08:57:51Z</time>
      </trkpt>
      <trkpt lat="44.77166" lon="3.04832">
        <ele>1049.9</ele>
        <time>2022-07-31T08:57:55Z</time>
      </trkpt>
      <trkpt lat="44.77166" lon="3.04833">
        <ele>1049.9</ele>
        <time>2022-07-31T08:57:57Z</time>
      </trkpt>
      <trkpt lat="44.77166" lon="3.04836">
        <ele>1050.3</ele>
        <time>2022-07-31T08:58:00Z</time>
      </trkpt>
      <trkpt lat="44.77166" lon="3.04841">
        <ele>1050.7</ele>
        <time>2022-07-31T08:58:03Z</time>
      </trkpt>
      <trkpt lat="44.77165" lon="3.04848">
        <ele>1051.3</ele>
        <time>2022-07-31T08:58:07Z</time>
      </trkpt>
      <trkpt lat="44.77164" lon="3.04853">
        <ele>1051.9</ele>
        <time>2022-07-31T08:58:11Z</time>
      </trkpt>
      <trkpt lat="44.77164" lon="3.04855">
        <ele>1052</ele>
        <time>2022-07-31T08:58:12Z</time>
      </trkpt>
      <trkpt lat="44.77163" lon="3.0486">
        <ele>1052.5</ele>
        <time>2022-07-31T08:58:16Z</time>
      </trkpt>
      <trkpt lat="44.77163" lon="3.04871">
        <ele>1053.3</ele>
        <time>2022-07-31T08:58:23Z</time>
      </trkpt>
      <trkpt lat="44.77163" lon="3.04879">
        <ele>1053.9</ele>
        <time>2022-07-31T08:58:28Z</time>
      </trkpt>
      <trkpt lat="44.77165" lon="3.04891">
        <ele>1054.8</ele>
        <time>2022-07-31T08:58:35Z</time>
      </trkpt>
      <trkpt lat="44.77166" lon="3.04896">
        <ele>1054.9</ele>
        <time>2022-07-31T08:58:38Z</time>
      </trkpt>
      <trkpt lat="44.77167" lon="3.04899">
        <ele>1055</ele>
        <time>2022-07-31T08:58:40Z</time>
      </trkpt>
      <trkpt lat="44.77168" lon="3.04903">
        <ele>1055.2</ele>
        <time>2022-07-31T08:58:43Z</time>
      </trkpt>
      <trkpt lat="44.7717" lon="3.0491">
        <ele>1055.4</ele>
        <time>2022-07-31T08:58:48Z</time>
      </trkpt>
      <trkpt lat="44.77171" lon="3.04915">
        <ele>1055.6</ele>
        <time>2022-07-31T08:58:51Z</time>
      </trkpt>
      <trkpt lat="44.77172" lon="3.04931">
        <ele>1056.4</ele>
        <time>2022-07-31T08:59:00Z</time>
      </trkpt>
      <trkpt lat="44.77172" lon="3.04932">
        <ele>1056.5</ele>
        <time>2022-07-31T08:59:01Z</time>
      </trkpt>
      <trkpt lat="44.77174" lon="3.04945">
        <ele>1057.2</ele>
        <time>2022-07-31T08:59:09Z</time>
      </trkpt>
      <trkpt lat="44.77174" lon="3.04954">
        <ele>1057.6</ele>
        <time>2022-07-31T08:59:15Z</time>
      </trkpt>
      <trkpt lat="44.77174" lon="3.04956">
        <ele>1057.6</ele>
        <time>2022-07-31T08:59:16Z</time>
      </trkpt>
      <trkpt lat="44.77175" lon="3.04959">
        <ele>1057.8</ele>
        <time>2022-07-31T08:59:18Z</time>
      </trkpt>
      <trkpt lat="44.77178" lon="3.04973">
        <ele>1058.6</ele>
        <time>2022-07-31T08:59:27Z</time>
      </trkpt>
      <trkpt lat="44.77179" lon="3.04978">
        <ele>1058.8</ele>
        <time>2022-07-31T08:59:30Z</time>
      </trkpt>
      <trkpt lat="44.7718" lon="3.04981">
        <ele>1058.9</ele>
        <time>2022-07-31T08:59:32Z</time>
      </trkpt>
      <trkpt lat="44.77181" lon="3.04984">
        <ele>1059</ele>
        <time>2022-07-31T08:59:34Z</time>
      </trkpt>
      <trkpt lat="44.77183" lon="3.04989">
        <ele>1059.3</ele>
        <time>2022-07-31T08:59:37Z</time>
      </trkpt>
      <trkpt lat="44.77183" lon="3.04997">
        <ele>1059.4</ele>
        <time>2022-07-31T08:59:42Z</time>
      </trkpt>
      <trkpt lat="44.77185" lon="3.05004">
        <ele>1059.6</ele>
        <time>2022-07-31T08:59:47Z</time>
      </trkpt>
      <trkpt lat="44.77185" lon="3.05007">
        <ele>1059.6</ele>
        <time>2022-07-31T08:59:49Z</time>
      </trkpt>
      <trkpt lat="44.77187" lon="3.0502">
        <ele>1059.8</ele>
        <time>2022-07-31T08:59:57Z</time>
      </trkpt>
      <trkpt lat="44.77188" lon="3.05024">
        <ele>1059.8</ele>
        <time>2022-07-31T08:59:59Z</time>
      </trkpt>
      <trkpt lat="44.77191" lon="3.05036">
        <ele>1059.6</ele>
        <time>2022-07-31T09:00:06Z</time>
      </trkpt>
      <trkpt lat="44.77194" lon="3.05046">
        <ele>1058.9</ele>
        <time>2022-07-31T09:00:13Z</time>
      </trkpt>
      <trkpt lat="44.77195" lon="3.05048">
        <ele>1058.9</ele>
        <time>2022-07-31T09:00:14Z</time>
      </trkpt>
      <trkpt lat="44.77199" lon="3.05056">
        <ele>1058.8</ele>
        <time>2022-07-31T09:00:20Z</time>
      </trkpt>
      <trkpt lat="44.77201" lon="3.05059">
        <ele>1058.9</ele>
        <time>2022-07-31T09:00:22Z</time>
      </trkpt>
      <trkpt lat="44.77203" lon="3.05064">
        <ele>1059</ele>
        <time>2022-07-31T09:00:29Z</time>
      </trkpt>
      <trkpt lat="44.77203" lon="3.05064">
        <ele>1059</ele>
        <time>2022-07-31T09:00:30Z</time>
      </trkpt>
      <trkpt lat="44.77205" lon="3.05067">
        <ele>1059.1</ele>
        <time>2022-07-31T09:00:36Z</time>
      </trkpt>
      <trkpt lat="44.77212" lon="3.05079">
        <ele>1059.4</ele>
        <time>2022-07-31T09:00:45Z</time>
      </trkpt>
      <trkpt lat="44.77219" lon="3.05092">
        <ele>1059.6</ele>
        <time>2022-07-31T09:00:54Z</time>
      </trkpt>
      <trkpt lat="44.77224" lon="3.051">
        <ele>1059.4</ele>
        <time>2022-07-31T09:01:01Z</time>
      </trkpt>
      <trkpt lat="44.77226" lon="3.05104">
        <ele>1059.2</ele>
        <time>2022-07-31T09:01:06Z</time>
      </trkpt>
      <trkpt lat="44.77233" lon="3.05113">
        <ele>1058.9</ele>
        <time>2022-07-31T09:01:14Z</time>
      </trkpt>
      <trkpt lat="44.77245" lon="3.05121">
        <ele>1059.1</ele>
        <time>2022-07-31T09:01:26Z</time>
      </trkpt>
      <trkpt lat="44.7726" lon="3.05128">
        <ele>1059.3</ele>
        <time>2022-07-31T09:01:37Z</time>
      </trkpt>
      <trkpt lat="44.77261" lon="3.05128">
        <ele>1059.3</ele>
        <time>2022-07-31T09:01:39Z</time>
      </trkpt>
      <trkpt lat="44.77267" lon="3.05131">
        <ele>1059.3</ele>
        <time>2022-07-31T09:01:43Z</time>
      </trkpt>
      <trkpt lat="44.7727" lon="3.05131">
        <ele>1059.6</ele>
        <time>2022-07-31T09:01:47Z</time>
      </trkpt>
      <trkpt lat="44.77276" lon="3.05131">
        <ele>1060</ele>
        <time>2022-07-31T09:01:52Z</time>
      </trkpt>
      <trkpt lat="44.77279" lon="3.0513">
        <ele>1060.5</ele>
        <time>2022-07-31T09:01:55Z</time>
      </trkpt>
      <trkpt lat="44.77286" lon="3.0513">
        <ele>1061.6</ele>
        <time>2022-07-31T09:02:01Z</time>
      </trkpt>
      <trkpt lat="44.77291" lon="3.05132">
        <ele>1062.1</ele>
        <time>2022-07-31T09:02:05Z</time>
      </trkpt>
      <trkpt lat="44.77299" lon="3.05136">
        <ele>1063.1</ele>
        <time>2022-07-31T09:02:13Z</time>
      </trkpt>
      <trkpt lat="44.77304" lon="3.0514">
        <ele>1063.5</ele>
        <time>2022-07-31T09:02:18Z</time>
      </trkpt>
      <trkpt lat="44.7731" lon="3.05143">
        <ele>1063.8</ele>
        <time>2022-07-31T09:02:23Z</time>
      </trkpt>
      <trkpt lat="44.77318" lon="3.0515">
        <ele>1063.4</ele>
        <time>2022-07-31T09:02:31Z</time>
      </trkpt>
      <trkpt lat="44.77322" lon="3.05152">
        <ele>1063.7</ele>
        <time>2022-07-31T09:02:38Z</time>
      </trkpt>
      <trkpt lat="44.77323" lon="3.05152">
        <ele>1063.8</ele>
        <time>2022-07-31T09:02:41Z</time>
      </trkpt>
      <trkpt lat="44.77324" lon="3.05154">
        <ele>1063.6</ele>
        <time>2022-07-31T09:02:43Z</time>
      </trkpt>
      <trkpt lat="44.77327" lon="3.05158">
        <ele>1063.4</ele>
        <time>2022-07-31T09:02:46Z</time>
      </trkpt>
      <trkpt lat="44.77328" lon="3.05161">
        <ele>1063.2</ele>
        <time>2022-07-31T09:02:48Z</time>
      </trkpt>
      <trkpt lat="44.77332" lon="3.05174">
        <ele>1062.1</ele>
        <time>2022-07-31T09:02:56Z</time>
      </trkpt>
      <trkpt lat="44.77332" lon="3.05177">
        <ele>1061.8</ele>
        <time>2022-07-31T09:02:58Z</time>
      </trkpt>
      <trkpt lat="44.77332" lon="3.05178">
        <ele>1061.7</ele>
        <time>2022-07-31T09:02:59Z</time>
      </trkpt>
      <trkpt lat="44.77333" lon="3.05179">
        <ele>1061.6</ele>
        <time>2022-07-31T09:03:00Z</time>
      </trkpt>
      <trkpt lat="44.77332" lon="3.05183">
        <ele>1061.2</ele>
        <time>2022-07-31T09:03:02Z</time>
      </trkpt>
      <trkpt lat="44.77331" lon="3.05189">
        <ele>1060.4</ele>
        <time>2022-07-31T09:03:06Z</time>
      </trkpt>
      <trkpt lat="44.77331" lon="3.05192">
        <ele>1060.1</ele>
        <time>2022-07-31T09:03:08Z</time>
      </trkpt>
      <trkpt lat="44.77332" lon="3.05194">
        <ele>1060</ele>
        <time>2022-07-31T09:03:09Z</time>
      </trkpt>
      <trkpt lat="44.77329" lon="3.05203">
        <ele>1059.8</ele>
        <time>2022-07-31T09:03:14Z</time>
      </trkpt>
      <trkpt lat="44.7733" lon="3.05225">
        <ele>1060</ele>
        <time>2022-07-31T09:03:25Z</time>
      </trkpt>
      <trkpt lat="44.7733" lon="3.05235">
        <ele>1060.4</ele>
        <time>2022-07-31T09:03:31Z</time>
      </trkpt>
      <trkpt lat="44.77328" lon="3.05251">
        <ele>1061</ele>
        <time>2022-07-31T09:03:42Z</time>
      </trkpt>
      <trkpt lat="44.77325" lon="3.0526">
        <ele>1061.3</ele>
        <time>2022-07-31T09:03:48Z</time>
      </trkpt>
      <trkpt lat="44.77325" lon="3.05262">
        <ele>1061.4</ele>
        <time>2022-07-31T09:03:49Z</time>
      </trkpt>
      <trkpt lat="44.77325" lon="3.05266">
        <ele>1061.6</ele>
        <time>2022-07-31T09:03:51Z</time>
      </trkpt>
      <trkpt lat="44.77325" lon="3.05283">
        <ele>1062.3</ele>
        <time>2022-07-31T09:04:01Z</time>
      </trkpt>
      <trkpt lat="44.77325" lon="3.05285">
        <ele>1062.5</ele>
        <time>2022-07-31T09:04:02Z</time>
      </trkpt>
      <trkpt lat="44.77325" lon="3.05291">
        <ele>1063</ele>
        <time>2022-07-31T09:04:07Z</time>
      </trkpt>
      <trkpt lat="44.77326" lon="3.05294">
        <ele>1063.2</ele>
        <time>2022-07-31T09:04:09Z</time>
      </trkpt>
      <trkpt lat="44.77328" lon="3.05301">
        <ele>1063.7</ele>
        <time>2022-07-31T09:04:14Z</time>
      </trkpt>
      <trkpt lat="44.77329" lon="3.05303">
        <ele>1063.8</ele>
        <time>2022-07-31T09:04:16Z</time>
      </trkpt>
      <trkpt lat="44.77331" lon="3.05307">
        <ele>1064.2</ele>
        <time>2022-07-31T09:04:20Z</time>
      </trkpt>
      <trkpt lat="44.77333" lon="3.05309">
        <ele>1064.4</ele>
        <time>2022-07-31T09:04:24Z</time>
      </trkpt>
      <trkpt lat="44.77335" lon="3.05309">
        <ele>1064.4</ele>
        <time>2022-07-31T09:04:26Z</time>
      </trkpt>
      <trkpt lat="44.77341" lon="3.05314">
        <ele>1064.7</ele>
        <time>2022-07-31T09:04:32Z</time>
      </trkpt>
      <trkpt lat="44.77344" lon="3.05318">
        <ele>1065</ele>
        <time>2022-07-31T09:04:37Z</time>
      </trkpt>
      <trkpt lat="44.77345" lon="3.05319">
        <ele>1065.1</ele>
        <time>2022-07-31T09:04:38Z</time>
      </trkpt>
      <trkpt lat="44.77344" lon="3.05321">
        <ele>1065.3</ele>
        <time>2022-07-31T09:04:40Z</time>
      </trkpt>
      <trkpt lat="44.77345" lon="3.05323">
        <ele>1065.5</ele>
        <time>2022-07-31T09:04:42Z</time>
      </trkpt>
      <trkpt lat="44.77348" lon="3.05323">
        <ele>1065.4</ele>
        <time>2022-07-31T09:04:47Z</time>
      </trkpt>
      <trkpt lat="44.77356" lon="3.05332">
        <ele>1066</ele>
        <time>2022-07-31T09:04:55Z</time>
      </trkpt>
      <trkpt lat="44.77358" lon="3.05335">
        <ele>1066.2</ele>
        <time>2022-07-31T09:04:58Z</time>
      </trkpt>
      <trkpt lat="44.77356" lon="3.05341">
        <ele>1066.7</ele>
        <time>2022-07-31T09:05:02Z</time>
      </trkpt>
      <trkpt lat="44.77351" lon="3.05348">
        <ele>1067.4</ele>
        <time>2022-07-31T09:05:08Z</time>
      </trkpt>
      <trkpt lat="44.7735" lon="3.05349">
        <ele>1067.5</ele>
        <time>2022-07-31T09:05:10Z</time>
      </trkpt>
      <trkpt lat="44.77349" lon="3.05349">
        <ele>1067.6</ele>
        <time>2022-07-31T09:05:11Z</time>
      </trkpt>
      <trkpt lat="44.7735" lon="3.0535">
        <ele>1067.6</ele>
        <time>2022-07-31T09:05:12Z</time>
      </trkpt>
      <trkpt lat="44.7735" lon="3.05349">
        <ele>1067.5</ele>
        <time>2022-07-31T09:05:13Z</time>
      </trkpt>
      <trkpt lat="44.77351" lon="3.05348">
        <ele>1067.4</ele>
        <time>2022-07-31T09:05:14Z</time>
      </trkpt>
      <trkpt lat="44.77355" lon="3.05344">
        <ele>1067</ele>
        <time>2022-07-31T09:05:19Z</time>
      </trkpt>
      <trkpt lat="44.77365" lon="3.0534">
        <ele>1066.3</ele>
        <time>2022-07-31T09:05:25Z</time>
      </trkpt>
      <trkpt lat="44.77372" lon="3.05342">
        <ele>1066.1</ele>
        <time>2022-07-31T09:05:31Z</time>
      </trkpt>
      <trkpt lat="44.77381" lon="3.05348">
        <ele>1066.4</ele>
        <time>2022-07-31T09:05:39Z</time>
      </trkpt>
      <trkpt lat="44.77389" lon="3.05354">
        <ele>1067</ele>
        <time>2022-07-31T09:05:47Z</time>
      </trkpt>
      <trkpt lat="44.77398" lon="3.05358">
        <ele>1066.9</ele>
        <time>2022-07-31T09:05:56Z</time>
      </trkpt>
      <trkpt lat="44.77398" lon="3.05358">
        <ele>1066.9</ele>
        <time>2022-07-31T09:05:57Z</time>
      </trkpt>
      <trkpt lat="44.77399" lon="3.05358">
        <ele>1066.8</ele>
        <time>2022-07-31T09:05:59Z</time>
      </trkpt>
      <trkpt lat="44.77399" lon="3.05357">
        <ele>1066.8</ele>
        <time>2022-07-31T09:06:01Z</time>
      </trkpt>
      <trkpt lat="44.77397" lon="3.05357">
        <ele>1066.9</ele>
        <time>2022-07-31T09:06:04Z</time>
      </trkpt>
      <trkpt lat="44.77399" lon="3.05358">
        <ele>1066.9</ele>
        <time>2022-07-31T09:06:11Z</time>
      </trkpt>
      <trkpt lat="44.774" lon="3.05357">
        <ele>1066.7</ele>
        <time>2022-07-31T09:06:23Z</time>
      </trkpt>
      <trkpt lat="44.77394" lon="3.05357">
        <ele>1067</ele>
        <time>2022-07-31T09:07:06Z</time>
      </trkpt>
      <trkpt lat="44.77379" lon="3.05351">
        <ele>1066.7</ele>
        <time>2022-07-31T09:07:14Z</time>
      </trkpt>
      <trkpt lat="44.77373" lon="3.05344">
        <ele>1066.3</ele>
        <time>2022-07-31T09:07:20Z</time>
      </trkpt>
      <trkpt lat="44.77369" lon="3.05341">
        <ele>1066.2</ele>
        <time>2022-07-31T09:07:23Z</time>
      </trkpt>
      <trkpt lat="44.77357" lon="3.05339">
        <ele>1066.5</ele>
        <time>2022-07-31T09:07:32Z</time>
      </trkpt>
      <trkpt lat="44.77357" lon="3.0534">
        <ele>1066.6</ele>
        <time>2022-07-31T09:07:33Z</time>
      </trkpt>
      <trkpt lat="44.77345" lon="3.05358">
        <ele>1068.3</ele>
        <time>2022-07-31T09:07:44Z</time>
      </trkpt>
      <trkpt lat="44.77344" lon="3.05361">
        <ele>1068.6</ele>
        <time>2022-07-31T09:07:47Z</time>
      </trkpt>
      <trkpt lat="44.77345" lon="3.05361">
        <ele>1068.6</ele>
        <time>2022-07-31T09:07:48Z</time>
      </trkpt>
      <trkpt lat="44.77345" lon="3.0536">
        <ele>1068.5</ele>
        <time>2022-07-31T09:07:49Z</time>
      </trkpt>
      <trkpt lat="44.77346" lon="3.0536">
        <ele>1068.5</ele>
        <time>2022-07-31T09:07:55Z</time>
      </trkpt>
      <trkpt lat="44.77346" lon="3.0536">
        <ele>1068.5</ele>
        <time>2022-07-31T09:08:15Z</time>
      </trkpt>
      <trkpt lat="44.7735" lon="3.05351">
        <ele>1067.7</ele>
        <time>2022-07-31T09:08:35Z</time>
      </trkpt>
      <trkpt lat="44.77351" lon="3.05349">
        <ele>1067.5</ele>
        <time>2022-07-31T09:08:36Z</time>
      </trkpt>
      <trkpt lat="44.77359" lon="3.05338">
        <ele>1066.4</ele>
        <time>2022-07-31T09:08:42Z</time>
      </trkpt>
      <trkpt lat="44.77363" lon="3.05334">
        <ele>1065.9</ele>
        <time>2022-07-31T09:08:46Z</time>
      </trkpt>
      <trkpt lat="44.77364" lon="3.05334">
        <ele>1065.8</ele>
        <time>2022-07-31T09:08:47Z</time>
      </trkpt>
      <trkpt lat="44.77364" lon="3.05333">
        <ele>1065.8</ele>
        <time>2022-07-31T09:08:49Z</time>
      </trkpt>
      <trkpt lat="44.77364" lon="3.05332">
        <ele>1065.7</ele>
        <time>2022-07-31T09:08:50Z</time>
      </trkpt>
      <trkpt lat="44.77363" lon="3.05333">
        <ele>1065.7</ele>
        <time>2022-07-31T09:08:52Z</time>
      </trkpt>
      <trkpt lat="44.77363" lon="3.05334">
        <ele>1065.9</ele>
        <time>2022-07-31T09:08:59Z</time>
      </trkpt>
      <trkpt lat="44.77369" lon="3.05337">
        <ele>1065.8</ele>
        <time>2022-07-31T09:09:05Z</time>
      </trkpt>
      <trkpt lat="44.77378" lon="3.05341">
        <ele>1065.7</ele>
        <time>2022-07-31T09:09:12Z</time>
      </trkpt>
      <trkpt lat="44.77386" lon="3.05347">
        <ele>1066</ele>
        <time>2022-07-31T09:09:19Z</time>
      </trkpt>
      <trkpt lat="44.77388" lon="3.05349">
        <ele>1066.2</ele>
        <time>2022-07-31T09:09:21Z</time>
      </trkpt>
      <trkpt lat="44.77397" lon="3.05355">
        <ele>1066.5</ele>
        <time>2022-07-31T09:09:28Z</time>
      </trkpt>
      <trkpt lat="44.77401" lon="3.05358">
        <ele>1066.6</ele>
        <time>2022-07-31T09:09:31Z</time>
      </trkpt>
      <trkpt lat="44.7741" lon="3.05362">
        <ele>1066.6</ele>
        <time>2022-07-31T09:09:38Z</time>
      </trkpt>
      <trkpt lat="44.77419" lon="3.05364">
        <ele>1066.5</ele>
        <time>2022-07-31T09:09:45Z</time>
      </trkpt>
      <trkpt lat="44.7742" lon="3.05364">
        <ele>1066.6</ele>
        <time>2022-07-31T09:09:46Z</time>
      </trkpt>
      <trkpt lat="44.77432" lon="3.05366">
        <ele>1067.2</ele>
        <time>2022-07-31T09:09:56Z</time>
      </trkpt>
      <trkpt lat="44.7744" lon="3.05367">
        <ele>1067.7</ele>
        <time>2022-07-31T09:10:03Z</time>
      </trkpt>
      <trkpt lat="44.77441" lon="3.05367">
        <ele>1067.7</ele>
        <time>2022-07-31T09:10:05Z</time>
      </trkpt>
      <trkpt lat="44.77443" lon="3.05364">
        <ele>1067.4</ele>
        <time>2022-07-31T09:10:11Z</time>
      </trkpt>
      <trkpt lat="44.7745" lon="3.05363">
        <ele>1067.5</ele>
        <time>2022-07-31T09:10:17Z</time>
      </trkpt>
      <trkpt lat="44.77463" lon="3.05363">
        <ele>1068</ele>
        <time>2022-07-31T09:10:25Z</time>
      </trkpt>
      <trkpt lat="44.77466" lon="3.05363">
        <ele>1068.1</ele>
        <time>2022-07-31T09:10:28Z</time>
      </trkpt>
      <trkpt lat="44.7747" lon="3.05363">
        <ele>1068.2</ele>
        <time>2022-07-31T09:10:31Z</time>
      </trkpt>
      <trkpt lat="44.77471" lon="3.05363">
        <ele>1068.2</ele>
        <time>2022-07-31T09:10:32Z</time>
      </trkpt>
      <trkpt lat="44.77473" lon="3.05363">
        <ele>1068.3</ele>
        <time>2022-07-31T09:10:33Z</time>
      </trkpt>
      <trkpt lat="44.77479" lon="3.05365">
        <ele>1069.2</ele>
        <time>2022-07-31T09:10:39Z</time>
      </trkpt>
      <trkpt lat="44.7748" lon="3.05365">
        <ele>1069.3</ele>
        <time>2022-07-31T09:10:40Z</time>
      </trkpt>
      <trkpt lat="44.77488" lon="3.05367">
        <ele>1070.3</ele>
        <time>2022-07-31T09:10:47Z</time>
      </trkpt>
      <trkpt lat="44.77498" lon="3.05371">
        <ele>1071.5</ele>
        <time>2022-07-31T09:10:55Z</time>
      </trkpt>
      <trkpt lat="44.77502" lon="3.05373">
        <ele>1071.9</ele>
        <time>2022-07-31T09:10:59Z</time>
      </trkpt>
      <trkpt lat="44.77505" lon="3.05372">
        <ele>1071.9</ele>
        <time>2022-07-31T09:11:02Z</time>
      </trkpt>
      <trkpt lat="44.77507" lon="3.05373">
        <ele>1072</ele>
        <time>2022-07-31T09:11:04Z</time>
      </trkpt>
      <trkpt lat="44.77508" lon="3.05374">
        <ele>1072.1</ele>
        <time>2022-07-31T09:11:06Z</time>
      </trkpt>
      <trkpt lat="44.77509" lon="3.05374">
        <ele>1072.1</ele>
        <time>2022-07-31T09:11:07Z</time>
      </trkpt>
      <trkpt lat="44.77509" lon="3.05374">
        <ele>1072.1</ele>
        <time>2022-07-31T09:11:08Z</time>
      </trkpt>
      <trkpt lat="44.77511" lon="3.05375">
        <ele>1072.2</ele>
        <time>2022-07-31T09:11:10Z</time>
      </trkpt>
      <trkpt lat="44.77513" lon="3.05377">
        <ele>1072.3</ele>
        <time>2022-07-31T09:11:12Z</time>
      </trkpt>
      <trkpt lat="44.77516" lon="3.05378">
        <ele>1072.5</ele>
        <time>2022-07-31T09:11:14Z</time>
      </trkpt>
      <trkpt lat="44.77519" lon="3.0538">
        <ele>1072.6</ele>
        <time>2022-07-31T09:11:17Z</time>
      </trkpt>
      <trkpt lat="44.77523" lon="3.05382">
        <ele>1072.7</ele>
        <time>2022-07-31T09:11:20Z</time>
      </trkpt>
      <trkpt lat="44.77523" lon="3.05384">
        <ele>1072.8</ele>
        <time>2022-07-31T09:11:24Z</time>
      </trkpt>
      <trkpt lat="44.77522" lon="3.05385">
        <ele>1072.8</ele>
        <time>2022-07-31T09:11:25Z</time>
      </trkpt>
      <trkpt lat="44.77521" lon="3.05389">
        <ele>1073</ele>
        <time>2022-07-31T09:11:29Z</time>
      </trkpt>
      <trkpt lat="44.77521" lon="3.05391">
        <ele>1073.1</ele>
        <time>2022-07-31T09:11:31Z</time>
      </trkpt>
      <trkpt lat="44.77521" lon="3.05391">
        <ele>1073.1</ele>
        <time>2022-07-31T09:11:32Z</time>
      </trkpt>
      <trkpt lat="44.77521" lon="3.05391">
        <ele>1073.1</ele>
        <time>2022-07-31T09:11:33Z</time>
      </trkpt>
      <trkpt lat="44.77524" lon="3.05393">
        <ele>1073.1</ele>
        <time>2022-07-31T09:11:38Z</time>
      </trkpt>
      <trkpt lat="44.77529" lon="3.05395">
        <ele>1073.1</ele>
        <time>2022-07-31T09:11:45Z</time>
      </trkpt>
      <trkpt lat="44.7753" lon="3.05397">
        <ele>1073.2</ele>
        <time>2022-07-31T09:11:50Z</time>
      </trkpt>
      <trkpt lat="44.7753" lon="3.05396">
        <ele>1073.1</ele>
        <time>2022-07-31T09:11:55Z</time>
      </trkpt>
      <trkpt lat="44.7753" lon="3.05397">
        <ele>1073.2</ele>
        <time>2022-07-31T09:12:01Z</time>
      </trkpt>
      <trkpt lat="44.77528" lon="3.05395">
        <ele>1073.2</ele>
        <time>2022-07-31T09:12:07Z</time>
      </trkpt>
      <trkpt lat="44.77528" lon="3.05395">
        <ele>1073.2</ele>
        <time>2022-07-31T09:12:15Z</time>
      </trkpt>
      <trkpt lat="44.77531" lon="3.05403">
        <ele>1073.3</ele>
        <time>2022-07-31T09:12:58Z</time>
      </trkpt>
      <trkpt lat="44.77531" lon="3.05403">
        <ele>1073.3</ele>
        <time>2022-07-31T09:13:24Z</time>
      </trkpt>
      <trkpt lat="44.77531" lon="3.05403">
        <ele>1073.3</ele>
        <time>2022-07-31T09:13:47Z</time>
      </trkpt>
      <trkpt lat="44.77531" lon="3.05402">
        <ele>1073.3</ele>
        <time>2022-07-31T09:13:52Z</time>
      </trkpt>
      <trkpt lat="44.77532" lon="3.05401">
        <ele>1073.2</ele>
        <time>2022-07-31T09:14:05Z</time>
      </trkpt>
      <trkpt lat="44.77533" lon="3.05401">
        <ele>1073.1</ele>
        <time>2022-07-31T09:14:23Z</time>
      </trkpt>
      <trkpt lat="44.77531" lon="3.05397">
        <ele>1073.1</ele>
        <time>2022-07-31T09:14:49Z</time>
      </trkpt>
      <trkpt lat="44.7753" lon="3.05397">
        <ele>1073.2</ele>
        <time>2022-07-31T09:14:54Z</time>
      </trkpt>
      <trkpt lat="44.7753" lon="3.05397">
        <ele>1073.2</ele>
        <time>2022-07-31T09:15:55Z</time>
      </trkpt>
      <trkpt lat="44.7753" lon="3.05397">
        <ele>1073.2</ele>
        <time>2022-07-31T09:16:09Z</time>
      </trkpt>
      <trkpt lat="44.77525" lon="3.05395">
        <ele>1073.2</ele>
        <time>2022-07-31T09:16:37Z</time>
      </trkpt>
      <trkpt lat="44.77523" lon="3.05393">
        <ele>1073.2</ele>
        <time>2022-07-31T09:16:39Z</time>
      </trkpt>
      <trkpt lat="44.77523" lon="3.05389">
        <ele>1073</ele>
        <time>2022-07-31T09:16:42Z</time>
      </trkpt>
      <trkpt lat="44.77524" lon="3.05388">
        <ele>1073</ele>
        <time>2022-07-31T09:16:43Z</time>
      </trkpt>
      <trkpt lat="44.77526" lon="3.05388">
        <ele>1073</ele>
        <time>2022-07-31T09:16:44Z</time>
      </trkpt>
      <trkpt lat="44.77533" lon="3.05389">
        <ele>1072.6</ele>
        <time>2022-07-31T09:16:50Z</time>
      </trkpt>
      <trkpt lat="44.77544" lon="3.05392">
        <ele>1072</ele>
        <time>2022-07-31T09:17:01Z</time>
      </trkpt>
      <trkpt lat="44.77546" lon="3.05393">
        <ele>1071.9</ele>
        <time>2022-07-31T09:17:05Z</time>
      </trkpt>
      <trkpt lat="44.77545" lon="3.05392">
        <ele>1071.9</ele>
        <time>2022-07-31T09:17:06Z</time>
      </trkpt>
      <trkpt lat="44.77549" lon="3.05393">
        <ele>1071.7</ele>
        <time>2022-07-31T09:17:10Z</time>
      </trkpt>
      <trkpt lat="44.7755" lon="3.05393">
        <ele>1071.7</ele>
        <time>2022-07-31T09:17:11Z</time>
      </trkpt>
      <trkpt lat="44.77558" lon="3.05396">
        <ele>1071.4</ele>
        <time>2022-07-31T09:17:19Z</time>
      </trkpt>
      <trkpt lat="44.7757" lon="3.054">
        <ele>1071.1</ele>
        <time>2022-07-31T09:17:29Z</time>
      </trkpt>
      <trkpt lat="44.77579" lon="3.05402">
        <ele>1070.7</ele>
        <time>2022-07-31T09:17:37Z</time>
      </trkpt>
      <trkpt lat="44.77591" lon="3.05405">
        <ele>1070.4</ele>
        <time>2022-07-31T09:17:47Z</time>
      </trkpt>
      <trkpt lat="44.77601" lon="3.05408">
        <ele>1070.3</ele>
        <time>2022-07-31T09:17:56Z</time>
      </trkpt>
      <trkpt lat="44.77616" lon="3.05412">
        <ele>1070.2</ele>
        <time>2022-07-31T09:18:07Z</time>
      </trkpt>
      <trkpt lat="44.7763" lon="3.05418">
        <ele>1069.7</ele>
        <time>2022-07-31T09:18:19Z</time>
      </trkpt>
      <trkpt lat="44.77646" lon="3.05422">
        <ele>1068.7</ele>
        <time>2022-07-31T09:18:32Z</time>
      </trkpt>
      <trkpt lat="44.7766" lon="3.05424">
        <ele>1067.7</ele>
        <time>2022-07-31T09:18:42Z</time>
      </trkpt>
      <trkpt lat="44.77673" lon="3.0542">
        <ele>1066.9</ele>
        <time>2022-07-31T09:18:52Z</time>
      </trkpt>
      <trkpt lat="44.77675" lon="3.0542">
        <ele>1066.8</ele>
        <time>2022-07-31T09:18:54Z</time>
      </trkpt>
      <trkpt lat="44.77678" lon="3.05419">
        <ele>1066.7</ele>
        <time>2022-07-31T09:18:56Z</time>
      </trkpt>
      <trkpt lat="44.77689" lon="3.05417">
        <ele>1066.2</ele>
        <time>2022-07-31T09:19:05Z</time>
      </trkpt>
      <trkpt lat="44.77701" lon="3.05415">
        <ele>1065.7</ele>
        <time>2022-07-31T09:19:14Z</time>
      </trkpt>
      <trkpt lat="44.77715" lon="3.0541">
        <ele>1065</ele>
        <time>2022-07-31T09:19:26Z</time>
      </trkpt>
      <trkpt lat="44.77728" lon="3.05407">
        <ele>1064.5</ele>
        <time>2022-07-31T09:19:35Z</time>
      </trkpt>
      <trkpt lat="44.77735" lon="3.05408">
        <ele>1064.4</ele>
        <time>2022-07-31T09:19:41Z</time>
      </trkpt>
      <trkpt lat="44.77739" lon="3.05407">
        <ele>1064.3</ele>
        <time>2022-07-31T09:19:44Z</time>
      </trkpt>
      <trkpt lat="44.77751" lon="3.05407">
        <ele>1063.9</ele>
        <time>2022-07-31T09:19:53Z</time>
      </trkpt>
      <trkpt lat="44.77752" lon="3.05406">
        <ele>1063.8</ele>
        <time>2022-07-31T09:19:54Z</time>
      </trkpt>
      <trkpt lat="44.77761" lon="3.05403">
        <ele>1063</ele>
        <time>2022-07-31T09:20:01Z</time>
      </trkpt>
      <trkpt lat="44.77768" lon="3.05398">
        <ele>1062.5</ele>
        <time>2022-07-31T09:20:07Z</time>
      </trkpt>
      <trkpt lat="44.77769" lon="3.05397">
        <ele>1062.5</ele>
        <time>2022-07-31T09:20:08Z</time>
      </trkpt>
      <trkpt lat="44.7778" lon="3.05395">
        <ele>1061.6</ele>
        <time>2022-07-31T09:20:16Z</time>
      </trkpt>
      <trkpt lat="44.77783" lon="3.05395">
        <ele>1061.4</ele>
        <time>2022-07-31T09:20:19Z</time>
      </trkpt>
      <trkpt lat="44.77788" lon="3.05395">
        <ele>1061</ele>
        <time>2022-07-31T09:20:23Z</time>
      </trkpt>
      <trkpt lat="44.77793" lon="3.05394">
        <ele>1060.6</ele>
        <time>2022-07-31T09:20:27Z</time>
      </trkpt>
      <trkpt lat="44.77799" lon="3.05395">
        <ele>1060.2</ele>
        <time>2022-07-31T09:20:31Z</time>
      </trkpt>
      <trkpt lat="44.77802" lon="3.05393">
        <ele>1059.9</ele>
        <time>2022-07-31T09:20:35Z</time>
      </trkpt>
      <trkpt lat="44.77805" lon="3.05393">
        <ele>1059.8</ele>
        <time>2022-07-31T09:20:37Z</time>
      </trkpt>
      <trkpt lat="44.77806" lon="3.05392">
        <ele>1059.8</ele>
        <time>2022-07-31T09:20:38Z</time>
      </trkpt>
      <trkpt lat="44.77815" lon="3.05391">
        <ele>1059.5</ele>
        <time>2022-07-31T09:20:45Z</time>
      </trkpt>
      <trkpt lat="44.77827" lon="3.0539">
        <ele>1059.1</ele>
        <time>2022-07-31T09:20:54Z</time>
      </trkpt>
      <trkpt lat="44.77829" lon="3.05391">
        <ele>1058.9</ele>
        <time>2022-07-31T09:20:55Z</time>
      </trkpt>
      <trkpt lat="44.77836" lon="3.05389">
        <ele>1059</ele>
        <time>2022-07-31T09:21:02Z</time>
      </trkpt>
      <trkpt lat="44.77838" lon="3.05388">
        <ele>1059</ele>
        <time>2022-07-31T09:21:03Z</time>
      </trkpt>
      <trkpt lat="44.77841" lon="3.05383">
        <ele>1058.8</ele>
        <time>2022-07-31T09:21:07Z</time>
      </trkpt>
      <trkpt lat="44.77843" lon="3.05381">
        <ele>1058.7</ele>
        <time>2022-07-31T09:21:09Z</time>
      </trkpt>
      <trkpt lat="44.77848" lon="3.05377">
        <ele>1058.6</ele>
        <time>2022-07-31T09:21:13Z</time>
      </trkpt>
      <trkpt lat="44.77857" lon="3.05365">
        <ele>1058.2</ele>
        <time>2022-07-31T09:21:22Z</time>
      </trkpt>
      <trkpt lat="44.77858" lon="3.05364">
        <ele>1058.1</ele>
        <time>2022-07-31T09:21:23Z</time>
      </trkpt>
      <trkpt lat="44.77865" lon="3.05355">
        <ele>1058.1</ele>
        <time>2022-07-31T09:21:30Z</time>
      </trkpt>
      <trkpt lat="44.77872" lon="3.05345">
        <ele>1057.7</ele>
        <time>2022-07-31T09:21:38Z</time>
      </trkpt>
      <trkpt lat="44.77873" lon="3.05344">
        <ele>1057.6</ele>
        <time>2022-07-31T09:21:39Z</time>
      </trkpt>
      <trkpt lat="44.77875" lon="3.05342">
        <ele>1057.4</ele>
        <time>2022-07-31T09:21:41Z</time>
      </trkpt>
      <trkpt lat="44.77878" lon="3.05337">
        <ele>1056.6</ele>
        <time>2022-07-31T09:21:45Z</time>
      </trkpt>
      <trkpt lat="44.77878" lon="3.05335">
        <ele>1056.3</ele>
        <time>2022-07-31T09:21:46Z</time>
      </trkpt>
      <trkpt lat="44.7788" lon="3.05332">
        <ele>1055.9</ele>
        <time>2022-07-31T09:21:48Z</time>
      </trkpt>
      <trkpt lat="44.77881" lon="3.0533">
        <ele>1055.6</ele>
        <time>2022-07-31T09:21:50Z</time>
      </trkpt>
      <trkpt lat="44.77883" lon="3.05327">
        <ele>1055.2</ele>
        <time>2022-07-31T09:21:52Z</time>
      </trkpt>
      <trkpt lat="44.77884" lon="3.05324">
        <ele>1055</ele>
        <time>2022-07-31T09:21:54Z</time>
      </trkpt>
      <trkpt lat="44.77885" lon="3.05323">
        <ele>1054.8</ele>
        <time>2022-07-31T09:21:55Z</time>
      </trkpt>
      <trkpt lat="44.77887" lon="3.05316">
        <ele>1054.1</ele>
        <time>2022-07-31T09:21:59Z</time>
      </trkpt>
      <trkpt lat="44.77889" lon="3.05308">
        <ele>1053.3</ele>
        <time>2022-07-31T09:22:03Z</time>
      </trkpt>
      <trkpt lat="44.77891" lon="3.05301">
        <ele>1052.6</ele>
        <time>2022-07-31T09:22:07Z</time>
      </trkpt>
      <trkpt lat="44.77891" lon="3.05299">
        <ele>1052.5</ele>
        <time>2022-07-31T09:22:08Z</time>
      </trkpt>
      <trkpt lat="44.77895" lon="3.0529">
        <ele>1051.6</ele>
        <time>2022-07-31T09:22:14Z</time>
      </trkpt>
      <trkpt lat="44.77896" lon="3.05289">
        <ele>1051.5</ele>
        <time>2022-07-31T09:22:15Z</time>
      </trkpt>
      <trkpt lat="44.77897" lon="3.05285">
        <ele>1051.1</ele>
        <time>2022-07-31T09:22:17Z</time>
      </trkpt>
      <trkpt lat="44.77899" lon="3.05281">
        <ele>1050.8</ele>
        <time>2022-07-31T09:22:20Z</time>
      </trkpt>
      <trkpt lat="44.77903" lon="3.05276">
        <ele>1050.2</ele>
        <time>2022-07-31T09:22:24Z</time>
      </trkpt>
      <trkpt lat="44.77904" lon="3.05275">
        <ele>1050</ele>
        <time>2022-07-31T09:22:25Z</time>
      </trkpt>
      <trkpt lat="44.77905" lon="3.05274">
        <ele>1049.9</ele>
        <time>2022-07-31T09:22:26Z</time>
      </trkpt>
      <trkpt lat="44.77915" lon="3.05266">
        <ele>1048.8</ele>
        <time>2022-07-31T09:22:35Z</time>
      </trkpt>
      <trkpt lat="44.77919" lon="3.05261">
        <ele>1048</ele>
        <time>2022-07-31T09:22:39Z</time>
      </trkpt>
      <trkpt lat="44.77921" lon="3.05256">
        <ele>1047.3</ele>
        <time>2022-07-31T09:22:42Z</time>
      </trkpt>
      <trkpt lat="44.77923" lon="3.05256">
        <ele>1047.3</ele>
        <time>2022-07-31T09:22:43Z</time>
      </trkpt>
      <trkpt lat="44.77924" lon="3.05255">
        <ele>1047.2</ele>
        <time>2022-07-31T09:22:44Z</time>
      </trkpt>
      <trkpt lat="44.77927" lon="3.05251">
        <ele>1046.9</ele>
        <time>2022-07-31T09:22:47Z</time>
      </trkpt>
      <trkpt lat="44.77927" lon="3.0525">
        <ele>1046.7</ele>
        <time>2022-07-31T09:22:48Z</time>
      </trkpt>
      <trkpt lat="44.77929" lon="3.05247">
        <ele>1046.4</ele>
        <time>2022-07-31T09:22:50Z</time>
      </trkpt>
      <trkpt lat="44.77934" lon="3.05243">
        <ele>1046</ele>
        <time>2022-07-31T09:22:54Z</time>
      </trkpt>
      <trkpt lat="44.77935" lon="3.0524">
        <ele>1045.7</ele>
        <time>2022-07-31T09:22:56Z</time>
      </trkpt>
      <trkpt lat="44.7794" lon="3.05238">
        <ele>1045.5</ele>
        <time>2022-07-31T09:23:00Z</time>
      </trkpt>
      <trkpt lat="44.77954" lon="3.05239">
        <ele>1044.7</ele>
        <time>2022-07-31T09:23:10Z</time>
      </trkpt>
      <trkpt lat="44.77956" lon="3.05239">
        <ele>1044.5</ele>
        <time>2022-07-31T09:23:12Z</time>
      </trkpt>
      <trkpt lat="44.77961" lon="3.05239">
        <ele>1043.9</ele>
        <time>2022-07-31T09:23:17Z</time>
      </trkpt>
      <trkpt lat="44.77962" lon="3.05239">
        <ele>1043.7</ele>
        <time>2022-07-31T09:23:18Z</time>
      </trkpt>
      <trkpt lat="44.77969" lon="3.0524">
        <ele>1042.9</ele>
        <time>2022-07-31T09:23:23Z</time>
      </trkpt>
      <trkpt lat="44.77974" lon="3.05241">
        <ele>1042.4</ele>
        <time>2022-07-31T09:23:28Z</time>
      </trkpt>
      <trkpt lat="44.77975" lon="3.05241">
        <ele>1042.3</ele>
        <time>2022-07-31T09:23:29Z</time>
      </trkpt>
      <trkpt lat="44.77976" lon="3.05242">
        <ele>1042.3</ele>
        <time>2022-07-31T09:23:31Z</time>
      </trkpt>
      <trkpt lat="44.7798" lon="3.05246">
        <ele>1042</ele>
        <time>2022-07-31T09:23:35Z</time>
      </trkpt>
      <trkpt lat="44.77982" lon="3.05246">
        <ele>1041.6</ele>
        <time>2022-07-31T09:23:37Z</time>
      </trkpt>
      <trkpt lat="44.77986" lon="3.05245">
        <ele>1040.9</ele>
        <time>2022-07-31T09:23:40Z</time>
      </trkpt>
      <trkpt lat="44.77987" lon="3.05245">
        <ele>1040.7</ele>
        <time>2022-07-31T09:23:41Z</time>
      </trkpt>
      <trkpt lat="44.77988" lon="3.05245">
        <ele>1040.6</ele>
        <time>2022-07-31T09:23:42Z</time>
      </trkpt>
      <trkpt lat="44.7799" lon="3.05243">
        <ele>1040</ele>
        <time>2022-07-31T09:23:45Z</time>
      </trkpt>
      <trkpt lat="44.77997" lon="3.05245">
        <ele>1039</ele>
        <time>2022-07-31T09:23:49Z</time>
      </trkpt>
      <trkpt lat="44.78001" lon="3.05247">
        <ele>1038.6</ele>
        <time>2022-07-31T09:23:52Z</time>
      </trkpt>
      <trkpt lat="44.78006" lon="3.05249">
        <ele>1037.6</ele>
        <time>2022-07-31T09:23:56Z</time>
      </trkpt>
      <trkpt lat="44.78008" lon="3.05249">
        <ele>1037.3</ele>
        <time>2022-07-31T09:23:57Z</time>
      </trkpt>
      <trkpt lat="44.78011" lon="3.05255">
        <ele>1036.4</ele>
        <time>2022-07-31T09:24:02Z</time>
      </trkpt>
      <trkpt lat="44.78011" lon="3.05256">
        <ele>1036.4</ele>
        <time>2022-07-31T09:24:04Z</time>
      </trkpt>
      <trkpt lat="44.78009" lon="3.05253">
        <ele>1036.9</ele>
        <time>2022-07-31T09:24:07Z</time>
      </trkpt>
      <trkpt lat="44.7801" lon="3.05251">
        <ele>1036.8</ele>
        <time>2022-07-31T09:24:09Z</time>
      </trkpt>
      <trkpt lat="44.78013" lon="3.0525">
        <ele>1036.2</ele>
        <time>2022-07-31T09:24:13Z</time>
      </trkpt>
      <trkpt lat="44.78014" lon="3.05249">
        <ele>1036</ele>
        <time>2022-07-31T09:24:14Z</time>
      </trkpt>
      <trkpt lat="44.78017" lon="3.05248">
        <ele>1035.3</ele>
        <time>2022-07-31T09:24:17Z</time>
      </trkpt>
      <trkpt lat="44.78019" lon="3.05246">
        <ele>1034.9</ele>
        <time>2022-07-31T09:24:19Z</time>
      </trkpt>
      <trkpt lat="44.7802" lon="3.05246">
        <ele>1034.7</ele>
        <time>2022-07-31T09:24:20Z</time>
      </trkpt>
      <trkpt lat="44.78021" lon="3.05246">
        <ele>1034.3</ele>
        <time>2022-07-31T09:24:22Z</time>
      </trkpt>
      <trkpt lat="44.78023" lon="3.05246">
        <ele>1034</ele>
        <time>2022-07-31T09:24:25Z</time>
      </trkpt>
      <trkpt lat="44.78026" lon="3.05247">
        <ele>1033.4</ele>
        <time>2022-07-31T09:24:27Z</time>
      </trkpt>
      <trkpt lat="44.78028" lon="3.05246">
        <ele>1033</ele>
        <time>2022-07-31T09:24:29Z</time>
      </trkpt>
      <trkpt lat="44.78033" lon="3.05247">
        <ele>1031.9</ele>
        <time>2022-07-31T09:24:33Z</time>
      </trkpt>
      <trkpt lat="44.78036" lon="3.05246">
        <ele>1031.1</ele>
        <time>2022-07-31T09:24:37Z</time>
      </trkpt>
      <trkpt lat="44.78041" lon="3.05246">
        <ele>1030</ele>
        <time>2022-07-31T09:24:42Z</time>
      </trkpt>
      <trkpt lat="44.78043" lon="3.05244">
        <ele>1029.8</ele>
        <time>2022-07-31T09:24:45Z</time>
      </trkpt>
      <trkpt lat="44.78045" lon="3.05243">
        <ele>1029.4</ele>
        <time>2022-07-31T09:24:47Z</time>
      </trkpt>
      <trkpt lat="44.78046" lon="3.05245">
        <ele>1028.9</ele>
        <time>2022-07-31T09:24:50Z</time>
      </trkpt>
      <trkpt lat="44.78046" lon="3.05246">
        <ele>1028.9</ele>
        <time>2022-07-31T09:24:51Z</time>
      </trkpt>
      <trkpt lat="44.78046" lon="3.05246">
        <ele>1028.8</ele>
        <time>2022-07-31T09:24:52Z</time>
      </trkpt>
      <trkpt lat="44.78046" lon="3.05247">
        <ele>1028.7</ele>
        <time>2022-07-31T09:24:54Z</time>
      </trkpt>
      <trkpt lat="44.78048" lon="3.05247">
        <ele>1028.3</ele>
        <time>2022-07-31T09:24:57Z</time>
      </trkpt>
      <trkpt lat="44.78049" lon="3.05247">
        <ele>1028.1</ele>
        <time>2022-07-31T09:24:59Z</time>
      </trkpt>
      <trkpt lat="44.7805" lon="3.05247">
        <ele>1027.9</ele>
        <time>2022-07-31T09:25:00Z</time>
      </trkpt>
      <trkpt lat="44.78054" lon="3.05247">
        <ele>1027.1</ele>
        <time>2022-07-31T09:25:03Z</time>
      </trkpt>
      <trkpt lat="44.78057" lon="3.05246">
        <ele>1026.5</ele>
        <time>2022-07-31T09:25:05Z</time>
      </trkpt>
      <trkpt lat="44.78058" lon="3.05247">
        <ele>1026.2</ele>
        <time>2022-07-31T09:25:06Z</time>
      </trkpt>
      <trkpt lat="44.78067" lon="3.05248">
        <ele>1024.8</ele>
        <time>2022-07-31T09:25:12Z</time>
      </trkpt>
      <trkpt lat="44.7807" lon="3.05249">
        <ele>1024.2</ele>
        <time>2022-07-31T09:25:15Z</time>
      </trkpt>
      <trkpt lat="44.7807" lon="3.05249">
        <ele>1024.1</ele>
        <time>2022-07-31T09:25:16Z</time>
      </trkpt>
      <trkpt lat="44.78075" lon="3.05251">
        <ele>1023</ele>
        <time>2022-07-31T09:25:22Z</time>
      </trkpt>
      <trkpt lat="44.78081" lon="3.05253">
        <ele>1022</ele>
        <time>2022-07-31T09:25:28Z</time>
      </trkpt>
      <trkpt lat="44.78082" lon="3.05254">
        <ele>1021.8</ele>
        <time>2022-07-31T09:25:29Z</time>
      </trkpt>
      <trkpt lat="44.78084" lon="3.05256">
        <ele>1021.2</ele>
        <time>2022-07-31T09:25:33Z</time>
      </trkpt>
      <trkpt lat="44.78085" lon="3.05257">
        <ele>1021</ele>
        <time>2022-07-31T09:25:36Z</time>
      </trkpt>
      <trkpt lat="44.78089" lon="3.05266">
        <ele>1019.5</ele>
        <time>2022-07-31T09:25:44Z</time>
      </trkpt>
      <trkpt lat="44.78089" lon="3.05266">
        <ele>1019.5</ele>
        <time>2022-07-31T09:25:45Z</time>
      </trkpt>
      <trkpt lat="44.78091" lon="3.05273">
        <ele>1018.3</ele>
        <time>2022-07-31T09:25:50Z</time>
      </trkpt>
      <trkpt lat="44.78092" lon="3.05276">
        <ele>1018</ele>
        <time>2022-07-31T09:25:51Z</time>
      </trkpt>
      <trkpt lat="44.7809" lon="3.05283">
        <ele>1017.6</ele>
        <time>2022-07-31T09:25:55Z</time>
      </trkpt>
      <trkpt lat="44.78082" lon="3.05297">
        <ele>1017.9</ele>
        <time>2022-07-31T09:26:05Z</time>
      </trkpt>
      <trkpt lat="44.78076" lon="3.05309">
        <ele>1018.2</ele>
        <time>2022-07-31T09:26:14Z</time>
      </trkpt>
      <trkpt lat="44.78071" lon="3.05327">
        <ele>1018.9</ele>
        <time>2022-07-31T09:26:25Z</time>
      </trkpt>
      <trkpt lat="44.78069" lon="3.05337">
        <ele>1019</ele>
        <time>2022-07-31T09:26:34Z</time>
      </trkpt>
      <trkpt lat="44.78075" lon="3.05337">
        <ele>1017.6</ele>
        <time>2022-07-31T09:26:41Z</time>
      </trkpt>
      <trkpt lat="44.78074" lon="3.05335">
        <ele>1018</ele>
        <time>2022-07-31T09:26:51Z</time>
      </trkpt>
      <trkpt lat="44.78074" lon="3.05335">
        <ele>1017.9</ele>
        <time>2022-07-31T09:27:00Z</time>
      </trkpt>
      <trkpt lat="44.78074" lon="3.05335">
        <ele>1017.9</ele>
        <time>2022-07-31T09:27:07Z</time>
      </trkpt>
      <trkpt lat="44.78068" lon="3.0534">
        <ele>1019.1</ele>
        <time>2022-07-31T09:27:49Z</time>
      </trkpt>
      <trkpt lat="44.78067" lon="3.0535">
        <ele>1019</ele>
        <time>2022-07-31T09:27:57Z</time>
      </trkpt>
      <trkpt lat="44.78062" lon="3.05371">
        <ele>1019.9</ele>
        <time>2022-07-31T09:28:10Z</time>
      </trkpt>
      <trkpt lat="44.78061" lon="3.05385">
        <ele>1019.8</ele>
        <time>2022-07-31T09:28:18Z</time>
      </trkpt>
      <trkpt lat="44.7806" lon="3.05399">
        <ele>1020.5</ele>
        <time>2022-07-31T09:28:26Z</time>
      </trkpt>
      <trkpt lat="44.78062" lon="3.05414">
        <ele>1020.7</ele>
        <time>2022-07-31T09:28:35Z</time>
      </trkpt>
      <trkpt lat="44.78063" lon="3.05417">
        <ele>1020.7</ele>
        <time>2022-07-31T09:28:37Z</time>
      </trkpt>
      <trkpt lat="44.78069" lon="3.05431">
        <ele>1021.9</ele>
        <time>2022-07-31T09:28:47Z</time>
      </trkpt>
      <trkpt lat="44.78071" lon="3.05434">
        <ele>1022.2</ele>
        <time>2022-07-31T09:28:49Z</time>
      </trkpt>
      <trkpt lat="44.78078" lon="3.0544">
        <ele>1023.5</ele>
        <time>2022-07-31T09:28:56Z</time>
      </trkpt>
      <trkpt lat="44.78079" lon="3.05441">
        <ele>1023.7</ele>
        <time>2022-07-31T09:28:57Z</time>
      </trkpt>
      <trkpt lat="44.78083" lon="3.05443">
        <ele>1024.6</ele>
        <time>2022-07-31T09:29:00Z</time>
      </trkpt>
      <trkpt lat="44.78085" lon="3.05444">
        <ele>1025</ele>
        <time>2022-07-31T09:29:02Z</time>
      </trkpt>
      <trkpt lat="44.78086" lon="3.05445">
        <ele>1025.3</ele>
        <time>2022-07-31T09:29:03Z</time>
      </trkpt>
      <trkpt lat="44.78097" lon="3.05441">
        <ele>1025</ele>
        <time>2022-07-31T09:29:13Z</time>
      </trkpt>
      <trkpt lat="44.78099" lon="3.05441">
        <ele>1025.1</ele>
        <time>2022-07-31T09:29:15Z</time>
      </trkpt>
      <trkpt lat="44.78107" lon="3.0544">
        <ele>1025.3</ele>
        <time>2022-07-31T09:29:23Z</time>
      </trkpt>
      <trkpt lat="44.78111" lon="3.0544">
        <ele>1025.6</ele>
        <time>2022-07-31T09:29:26Z</time>
      </trkpt>
      <trkpt lat="44.78117" lon="3.05442">
        <ele>1026.4</ele>
        <time>2022-07-31T09:29:31Z</time>
      </trkpt>
      <trkpt lat="44.78126" lon="3.05441">
        <ele>1026.7</ele>
        <time>2022-07-31T09:29:39Z</time>
      </trkpt>
      <trkpt lat="44.7813" lon="3.05441">
        <ele>1026.8</ele>
        <time>2022-07-31T09:29:42Z</time>
      </trkpt>
      <trkpt lat="44.7814" lon="3.05441">
        <ele>1027.3</ele>
        <time>2022-07-31T09:29:50Z</time>
      </trkpt>
      <trkpt lat="44.78142" lon="3.05441">
        <ele>1027.3</ele>
        <time>2022-07-31T09:29:52Z</time>
      </trkpt>
      <trkpt lat="44.78151" lon="3.05441">
        <ele>1028.1</ele>
        <time>2022-07-31T09:29:59Z</time>
      </trkpt>
      <trkpt lat="44.78161" lon="3.05443">
        <ele>1029.2</ele>
        <time>2022-07-31T09:30:08Z</time>
      </trkpt>
      <trkpt lat="44.78162" lon="3.05442">
        <ele>1029.2</ele>
        <time>2022-07-31T09:30:09Z</time>
      </trkpt>
      <trkpt lat="44.78172" lon="3.05443">
        <ele>1029.8</ele>
        <time>2022-07-31T09:30:18Z</time>
      </trkpt>
      <trkpt lat="44.7818" lon="3.05445">
        <ele>1030.5</ele>
        <time>2022-07-31T09:30:25Z</time>
      </trkpt>
      <trkpt lat="44.78184" lon="3.05445">
        <ele>1030.8</ele>
        <time>2022-07-31T09:30:29Z</time>
      </trkpt>
      <trkpt lat="44.78192" lon="3.05447">
        <ele>1031.4</ele>
        <time>2022-07-31T09:30:36Z</time>
      </trkpt>
      <trkpt lat="44.78194" lon="3.05448">
        <ele>1031.7</ele>
        <time>2022-07-31T09:30:38Z</time>
      </trkpt>
      <trkpt lat="44.78203" lon="3.05448">
        <ele>1032.3</ele>
        <time>2022-07-31T09:30:46Z</time>
      </trkpt>
      <trkpt lat="44.78208" lon="3.0545">
        <ele>1033.1</ele>
        <time>2022-07-31T09:30:50Z</time>
      </trkpt>
      <trkpt lat="44.78218" lon="3.05451">
        <ele>1033.8</ele>
        <time>2022-07-31T09:30:58Z</time>
      </trkpt>
      <trkpt lat="44.78222" lon="3.05451">
        <ele>1034.1</ele>
        <time>2022-07-31T09:31:01Z</time>
      </trkpt>
      <trkpt lat="44.78235" lon="3.05452">
        <ele>1035.1</ele>
        <time>2022-07-31T09:31:11Z</time>
      </trkpt>
      <trkpt lat="44.7824" lon="3.05452">
        <ele>1035.4</ele>
        <time>2022-07-31T09:31:15Z</time>
      </trkpt>
      <trkpt lat="44.78245" lon="3.05452">
        <ele>1035.8</ele>
        <time>2022-07-31T09:31:20Z</time>
      </trkpt>
      <trkpt lat="44.7825" lon="3.05453">
        <ele>1036.1</ele>
        <time>2022-07-31T09:31:24Z</time>
      </trkpt>
      <trkpt lat="44.78253" lon="3.05454">
        <ele>1036.2</ele>
        <time>2022-07-31T09:31:27Z</time>
      </trkpt>
      <trkpt lat="44.78256" lon="3.05455">
        <ele>1036.3</ele>
        <time>2022-07-31T09:31:30Z</time>
      </trkpt>
      <trkpt lat="44.78261" lon="3.05455">
        <ele>1036.3</ele>
        <time>2022-07-31T09:31:34Z</time>
      </trkpt>
      <trkpt lat="44.78265" lon="3.05458">
        <ele>1036.6</ele>
        <time>2022-07-31T09:31:38Z</time>
      </trkpt>
      <trkpt lat="44.78266" lon="3.05458">
        <ele>1036.7</ele>
        <time>2022-07-31T09:31:39Z</time>
      </trkpt>
      <trkpt lat="44.78268" lon="3.05459">
        <ele>1036.7</ele>
        <time>2022-07-31T09:31:41Z</time>
      </trkpt>
      <trkpt lat="44.78277" lon="3.05465">
        <ele>1037.7</ele>
        <time>2022-07-31T09:31:49Z</time>
      </trkpt>
      <trkpt lat="44.78278" lon="3.05466">
        <ele>1037.9</ele>
        <time>2022-07-31T09:31:50Z</time>
      </trkpt>
      <trkpt lat="44.78282" lon="3.05471">
        <ele>1038.4</ele>
        <time>2022-07-31T09:31:56Z</time>
      </trkpt>
      <trkpt lat="44.78283" lon="3.05472">
        <ele>1038.5</ele>
        <time>2022-07-31T09:31:58Z</time>
      </trkpt>
      <trkpt lat="44.78283" lon="3.05472">
        <ele>1038.5</ele>
        <time>2022-07-31T09:31:59Z</time>
      </trkpt>
      <trkpt lat="44.78283" lon="3.05472">
        <ele>1038.5</ele>
        <time>2022-07-31T09:32:00Z</time>
      </trkpt>
      <trkpt lat="44.78287" lon="3.05476">
        <ele>1038.9</ele>
        <time>2022-07-31T09:32:10Z</time>
      </trkpt>
      <trkpt lat="44.78292" lon="3.05489">
        <ele>1040.7</ele>
        <time>2022-07-31T09:32:18Z</time>
      </trkpt>
      <trkpt lat="44.78296" lon="3.05498">
        <ele>1041.4</ele>
        <time>2022-07-31T09:32:25Z</time>
      </trkpt>
      <trkpt lat="44.78296" lon="3.055">
        <ele>1041.8</ele>
        <time>2022-07-31T09:32:27Z</time>
      </trkpt>
      <trkpt lat="44.78295" lon="3.05502">
        <ele>1042.1</ele>
        <time>2022-07-31T09:32:30Z</time>
      </trkpt>
      <trkpt lat="44.78296" lon="3.05503">
        <ele>1042</ele>
        <time>2022-07-31T09:32:46Z</time>
      </trkpt>
      <trkpt lat="44.78299" lon="3.05514">
        <ele>1042.9</ele>
        <time>2022-07-31T09:32:52Z</time>
      </trkpt>
      <trkpt lat="44.783" lon="3.05518">
        <ele>1043.1</ele>
        <time>2022-07-31T09:32:54Z</time>
      </trkpt>
      <trkpt lat="44.78303" lon="3.05526">
        <ele>1043.5</ele>
        <time>2022-07-31T09:33:00Z</time>
      </trkpt>
      <trkpt lat="44.78306" lon="3.05538">
        <ele>1044.1</ele>
        <time>2022-07-31T09:33:08Z</time>
      </trkpt>
      <trkpt lat="44.78307" lon="3.05541">
        <ele>1044.3</ele>
        <time>2022-07-31T09:33:10Z</time>
      </trkpt>
      <trkpt lat="44.78309" lon="3.05549">
        <ele>1044.8</ele>
        <time>2022-07-31T09:33:15Z</time>
      </trkpt>
      <trkpt lat="44.78311" lon="3.05558">
        <ele>1045.5</ele>
        <time>2022-07-31T09:33:21Z</time>
      </trkpt>
      <trkpt lat="44.78311" lon="3.0556">
        <ele>1045.6</ele>
        <time>2022-07-31T09:33:22Z</time>
      </trkpt>
      <trkpt lat="44.7831" lon="3.05572">
        <ele>1047</ele>
        <time>2022-07-31T09:33:31Z</time>
      </trkpt>
      <trkpt lat="44.7831" lon="3.05573">
        <ele>1047.2</ele>
        <time>2022-07-31T09:33:32Z</time>
      </trkpt>
      <trkpt lat="44.78308" lon="3.05575">
        <ele>1047.8</ele>
        <time>2022-07-31T09:33:35Z</time>
      </trkpt>
      <trkpt lat="44.78307" lon="3.05576">
        <ele>1048</ele>
        <time>2022-07-31T09:33:36Z</time>
      </trkpt>
      <trkpt lat="44.78303" lon="3.05577">
        <ele>1048.8</ele>
        <time>2022-07-31T09:33:40Z</time>
      </trkpt>
      <trkpt lat="44.78301" lon="3.05576">
        <ele>1049.1</ele>
        <time>2022-07-31T09:33:42Z</time>
      </trkpt>
      <trkpt lat="44.78296" lon="3.05574">
        <ele>1050.2</ele>
        <time>2022-07-31T09:33:48Z</time>
      </trkpt>
      <trkpt lat="44.78295" lon="3.05574">
        <ele>1050.3</ele>
        <time>2022-07-31T09:33:49Z</time>
      </trkpt>
      <trkpt lat="44.78289" lon="3.0557">
        <ele>1051.2</ele>
        <time>2022-07-31T09:33:56Z</time>
      </trkpt>
      <trkpt lat="44.78285" lon="3.05567">
        <ele>1051.7</ele>
        <time>2022-07-31T09:34:00Z</time>
      </trkpt>
      <trkpt lat="44.78283" lon="3.05567">
        <ele>1052</ele>
        <time>2022-07-31T09:34:02Z</time>
      </trkpt>
      <trkpt lat="44.78277" lon="3.05569">
        <ele>1053.5</ele>
        <time>2022-07-31T09:34:09Z</time>
      </trkpt>
      <trkpt lat="44.78272" lon="3.05578">
        <ele>1054.7</ele>
        <time>2022-07-31T09:34:18Z</time>
      </trkpt>
      <trkpt lat="44.78271" lon="3.05579">
        <ele>1054.8</ele>
        <time>2022-07-31T09:34:19Z</time>
      </trkpt>
      <trkpt lat="44.78267" lon="3.05586">
        <ele>1055.7</ele>
        <time>2022-07-31T09:34:25Z</time>
      </trkpt>
      <trkpt lat="44.78263" lon="3.05593">
        <ele>1057</ele>
        <time>2022-07-31T09:34:32Z</time>
      </trkpt>
      <trkpt lat="44.78256" lon="3.05603">
        <ele>1059.1</ele>
        <time>2022-07-31T09:34:42Z</time>
      </trkpt>
      <trkpt lat="44.78254" lon="3.05605">
        <ele>1059.5</ele>
        <time>2022-07-31T09:34:44Z</time>
      </trkpt>
      <trkpt lat="44.78249" lon="3.0561">
        <ele>1060.8</ele>
        <time>2022-07-31T09:34:50Z</time>
      </trkpt>
      <trkpt lat="44.78245" lon="3.05614">
        <ele>1061.4</ele>
        <time>2022-07-31T09:34:56Z</time>
      </trkpt>
      <trkpt lat="44.78244" lon="3.05615">
        <ele>1061.6</ele>
        <time>2022-07-31T09:34:57Z</time>
      </trkpt>
      <trkpt lat="44.78239" lon="3.05619">
        <ele>1062.3</ele>
        <time>2022-07-31T09:35:03Z</time>
      </trkpt>
      <trkpt lat="44.78235" lon="3.05623">
        <ele>1063.2</ele>
        <time>2022-07-31T09:35:09Z</time>
      </trkpt>
      <trkpt lat="44.7823" lon="3.05628">
        <ele>1064.3</ele>
        <time>2022-07-31T09:35:16Z</time>
      </trkpt>
      <trkpt lat="44.78228" lon="3.0563">
        <ele>1064.9</ele>
        <time>2022-07-31T09:35:19Z</time>
      </trkpt>
      <trkpt lat="44.78226" lon="3.05633">
        <ele>1065.5</ele>
        <time>2022-07-31T09:35:22Z</time>
      </trkpt>
      <trkpt lat="44.78222" lon="3.05637">
        <ele>1066.7</ele>
        <time>2022-07-31T09:35:28Z</time>
      </trkpt>
      <trkpt lat="44.7822" lon="3.0564">
        <ele>1067.1</ele>
        <time>2022-07-31T09:35:31Z</time>
      </trkpt>
      <trkpt lat="44.78219" lon="3.0564">
        <ele>1067.2</ele>
        <time>2022-07-31T09:35:32Z</time>
      </trkpt>
      <trkpt lat="44.78217" lon="3.05643">
        <ele>1067.6</ele>
        <time>2022-07-31T09:35:35Z</time>
      </trkpt>
      <trkpt lat="44.78213" lon="3.05649">
        <ele>1068.6</ele>
        <time>2022-07-31T09:35:41Z</time>
      </trkpt>
      <trkpt lat="44.78213" lon="3.0565">
        <ele>1068.8</ele>
        <time>2022-07-31T09:35:42Z</time>
      </trkpt>
      <trkpt lat="44.7821" lon="3.05654">
        <ele>1069.4</ele>
        <time>2022-07-31T09:35:49Z</time>
      </trkpt>
      <trkpt lat="44.7821" lon="3.05655">
        <ele>1069.5</ele>
        <time>2022-07-31T09:35:50Z</time>
      </trkpt>
      <trkpt lat="44.78209" lon="3.05655">
        <ele>1069.5</ele>
        <time>2022-07-31T09:36:00Z</time>
      </trkpt>
      <trkpt lat="44.78205" lon="3.05656">
        <ele>1069.9</ele>
        <time>2022-07-31T09:36:53Z</time>
      </trkpt>
      <trkpt lat="44.78201" lon="3.05663">
        <ele>1071.1</ele>
        <time>2022-07-31T09:36:58Z</time>
      </trkpt>
      <trkpt lat="44.78199" lon="3.05665">
        <ele>1071.6</ele>
        <time>2022-07-31T09:37:02Z</time>
      </trkpt>
      <trkpt lat="44.78198" lon="3.05666">
        <ele>1071.7</ele>
        <time>2022-07-31T09:37:03Z</time>
      </trkpt>
      <trkpt lat="44.78196" lon="3.0567">
        <ele>1072.6</ele>
        <time>2022-07-31T09:37:07Z</time>
      </trkpt>
      <trkpt lat="44.78193" lon="3.05675">
        <ele>1073.5</ele>
        <time>2022-07-31T09:37:12Z</time>
      </trkpt>
      <trkpt lat="44.78193" lon="3.05676">
        <ele>1073.7</ele>
        <time>2022-07-31T09:37:13Z</time>
      </trkpt>
      <trkpt lat="44.7819" lon="3.05682">
        <ele>1074.5</ele>
        <time>2022-07-31T09:37:18Z</time>
      </trkpt>
      <trkpt lat="44.78187" lon="3.05688">
        <ele>1075.6</ele>
        <time>2022-07-31T09:37:24Z</time>
      </trkpt>
      <trkpt lat="44.78187" lon="3.05689">
        <ele>1075.7</ele>
        <time>2022-07-31T09:37:25Z</time>
      </trkpt>
      <trkpt lat="44.78185" lon="3.05695">
        <ele>1076.7</ele>
        <time>2022-07-31T09:37:30Z</time>
      </trkpt>
      <trkpt lat="44.78184" lon="3.05699">
        <ele>1077.3</ele>
        <time>2022-07-31T09:37:33Z</time>
      </trkpt>
      <trkpt lat="44.78183" lon="3.05702">
        <ele>1077.6</ele>
        <time>2022-07-31T09:37:36Z</time>
      </trkpt>
      <trkpt lat="44.78181" lon="3.05708">
        <ele>1078.4</ele>
        <time>2022-07-31T09:37:42Z</time>
      </trkpt>
      <trkpt lat="44.7818" lon="3.05711">
        <ele>1078.8</ele>
        <time>2022-07-31T09:37:45Z</time>
      </trkpt>
      <trkpt lat="44.78178" lon="3.05719">
        <ele>1079.9</ele>
        <time>2022-07-31T09:37:52Z</time>
      </trkpt>
      <trkpt lat="44.78177" lon="3.05721">
        <ele>1080.3</ele>
        <time>2022-07-31T09:37:54Z</time>
      </trkpt>
      <trkpt lat="44.78175" lon="3.0573">
        <ele>1081.6</ele>
        <time>2022-07-31T09:38:01Z</time>
      </trkpt>
      <trkpt lat="44.78173" lon="3.05738">
        <ele>1082.9</ele>
        <time>2022-07-31T09:38:08Z</time>
      </trkpt>
      <trkpt lat="44.78173" lon="3.05739">
        <ele>1083.1</ele>
        <time>2022-07-31T09:38:09Z</time>
      </trkpt>
      <trkpt lat="44.78172" lon="3.05741">
        <ele>1083.4</ele>
        <time>2022-07-31T09:38:11Z</time>
      </trkpt>
      <trkpt lat="44.7817" lon="3.05747">
        <ele>1084.5</ele>
        <time>2022-07-31T09:38:18Z</time>
      </trkpt>
      <trkpt lat="44.78169" lon="3.05748">
        <ele>1084.6</ele>
        <time>2022-07-31T09:38:19Z</time>
      </trkpt>
      <trkpt lat="44.78166" lon="3.05759">
        <ele>1085.9</ele>
        <time>2022-07-31T09:38:28Z</time>
      </trkpt>
      <trkpt lat="44.78165" lon="3.05761">
        <ele>1086.2</ele>
        <time>2022-07-31T09:38:30Z</time>
      </trkpt>
      <trkpt lat="44.7816" lon="3.05771">
        <ele>1087.2</ele>
        <time>2022-07-31T09:38:39Z</time>
      </trkpt>
      <trkpt lat="44.7816" lon="3.05772">
        <ele>1087.3</ele>
        <time>2022-07-31T09:38:40Z</time>
      </trkpt>
      <trkpt lat="44.78156" lon="3.0578">
        <ele>1088.3</ele>
        <time>2022-07-31T09:38:47Z</time>
      </trkpt>
      <trkpt lat="44.78154" lon="3.05783">
        <ele>1088.8</ele>
        <time>2022-07-31T09:38:50Z</time>
      </trkpt>
      <trkpt lat="44.78152" lon="3.05786">
        <ele>1089.3</ele>
        <time>2022-07-31T09:38:53Z</time>
      </trkpt>
      <trkpt lat="44.78149" lon="3.05791">
        <ele>1090.2</ele>
        <time>2022-07-31T09:38:59Z</time>
      </trkpt>
      <trkpt lat="44.78148" lon="3.05793">
        <ele>1090.5</ele>
        <time>2022-07-31T09:39:01Z</time>
      </trkpt>
      <trkpt lat="44.78143" lon="3.05797">
        <ele>1091.3</ele>
        <time>2022-07-31T09:39:07Z</time>
      </trkpt>
      <trkpt lat="44.78132" lon="3.05805">
        <ele>1093</ele>
        <time>2022-07-31T09:39:19Z</time>
      </trkpt>
      <trkpt lat="44.7813" lon="3.05805">
        <ele>1093</ele>
        <time>2022-07-31T09:39:23Z</time>
      </trkpt>
      <trkpt lat="44.7813" lon="3.05805">
        <ele>1092.9</ele>
        <time>2022-07-31T09:39:25Z</time>
      </trkpt>
      <trkpt lat="44.78129" lon="3.05805">
        <ele>1092.9</ele>
        <time>2022-07-31T09:39:33Z</time>
      </trkpt>
      <trkpt lat="44.7813" lon="3.05805">
        <ele>1092.8</ele>
        <time>2022-07-31T09:39:41Z</time>
      </trkpt>
      <trkpt lat="44.7813" lon="3.05805">
        <ele>1092.8</ele>
        <time>2022-07-31T09:39:43Z</time>
      </trkpt>
      <trkpt lat="44.7813" lon="3.05805">
        <ele>1092.8</ele>
        <time>2022-07-31T09:39:46Z</time>
      </trkpt>
      <trkpt lat="44.7813" lon="3.05804">
        <ele>1092.8</ele>
        <time>2022-07-31T09:40:08Z</time>
      </trkpt>
      <trkpt lat="44.7813" lon="3.05804">
        <ele>1092.7</ele>
        <time>2022-07-31T09:40:39Z</time>
      </trkpt>
      <trkpt lat="44.7813" lon="3.05803">
        <ele>1092.6</ele>
        <time>2022-07-31T09:40:45Z</time>
      </trkpt>
      <trkpt lat="44.7813" lon="3.05803">
        <ele>1092.6</ele>
        <time>2022-07-31T09:40:53Z</time>
      </trkpt>
      <trkpt lat="44.78128" lon="3.05806">
        <ele>1093</ele>
        <time>2022-07-31T09:41:13Z</time>
      </trkpt>
      <trkpt lat="44.78121" lon="3.05808">
        <ele>1093.3</ele>
        <time>2022-07-31T09:41:40Z</time>
      </trkpt>
      <trkpt lat="44.78113" lon="3.05812">
        <ele>1093.9</ele>
        <time>2022-07-31T09:41:46Z</time>
      </trkpt>
      <trkpt lat="44.78103" lon="3.05818">
        <ele>1094.7</ele>
        <time>2022-07-31T09:41:56Z</time>
      </trkpt>
      <trkpt lat="44.78097" lon="3.05821">
        <ele>1095</ele>
        <time>2022-07-31T09:42:01Z</time>
      </trkpt>
      <trkpt lat="44.78091" lon="3.05825">
        <ele>1095.5</ele>
        <time>2022-07-31T09:42:07Z</time>
      </trkpt>
      <trkpt lat="44.78082" lon="3.0583">
        <ele>1096.3</ele>
        <time>2022-07-31T09:42:16Z</time>
      </trkpt>
      <trkpt lat="44.7807" lon="3.05834">
        <ele>1096.6</ele>
        <time>2022-07-31T09:42:28Z</time>
      </trkpt>
      <trkpt lat="44.78068" lon="3.05835">
        <ele>1096.7</ele>
        <time>2022-07-31T09:42:29Z</time>
      </trkpt>
      <trkpt lat="44.7806" lon="3.05839">
        <ele>1096.9</ele>
        <time>2022-07-31T09:42:38Z</time>
      </trkpt>
      <trkpt lat="44.78057" lon="3.05841">
        <ele>1097.1</ele>
        <time>2022-07-31T09:42:41Z</time>
      </trkpt>
      <trkpt lat="44.78048" lon="3.05844">
        <ele>1097.3</ele>
        <time>2022-07-31T09:42:52Z</time>
      </trkpt>
      <trkpt lat="44.78048" lon="3.05844">
        <ele>1097.3</ele>
        <time>2022-07-31T09:42:53Z</time>
      </trkpt>
      <trkpt lat="44.78044" lon="3.05845">
        <ele>1097.3</ele>
        <time>2022-07-31T09:43:00Z</time>
      </trkpt>
      <trkpt lat="44.78043" lon="3.05846">
        <ele>1097.4</ele>
        <time>2022-07-31T09:43:01Z</time>
      </trkpt>
      <trkpt lat="44.78041" lon="3.05847">
        <ele>1097.5</ele>
        <time>2022-07-31T09:43:03Z</time>
      </trkpt>
      <trkpt lat="44.78037" lon="3.05849">
        <ele>1097.6</ele>
        <time>2022-07-31T09:43:08Z</time>
      </trkpt>
      <trkpt lat="44.78037" lon="3.0585">
        <ele>1097.6</ele>
        <time>2022-07-31T09:43:10Z</time>
      </trkpt>
      <trkpt lat="44.78036" lon="3.0585">
        <ele>1097.7</ele>
        <time>2022-07-31T09:43:13Z</time>
      </trkpt>
      <trkpt lat="44.78036" lon="3.05851">
        <ele>1097.8</ele>
        <time>2022-07-31T09:43:17Z</time>
      </trkpt>
      <trkpt lat="44.78034" lon="3.05853">
        <ele>1098</ele>
        <time>2022-07-31T09:43:23Z</time>
      </trkpt>
      <trkpt lat="44.78033" lon="3.05854">
        <ele>1098.2</ele>
        <time>2022-07-31T09:43:24Z</time>
      </trkpt>
      <trkpt lat="44.78032" lon="3.05859">
        <ele>1098.9</ele>
        <time>2022-07-31T09:43:31Z</time>
      </trkpt>
      <trkpt lat="44.78032" lon="3.05861">
        <ele>1099.1</ele>
        <time>2022-07-31T09:43:35Z</time>
      </trkpt>
      <trkpt lat="44.78032" lon="3.05861">
        <ele>1099.1</ele>
        <time>2022-07-31T09:43:37Z</time>
      </trkpt>
      <trkpt lat="44.78033" lon="3.05867">
        <ele>1099.9</ele>
        <time>2022-07-31T09:43:43Z</time>
      </trkpt>
      <trkpt lat="44.78034" lon="3.0587">
        <ele>1100.3</ele>
        <time>2022-07-31T09:43:46Z</time>
      </trkpt>
      <trkpt lat="44.78034" lon="3.05874">
        <ele>1100.8</ele>
        <time>2022-07-31T09:43:50Z</time>
      </trkpt>
      <trkpt lat="44.78034" lon="3.05877">
        <ele>1101.2</ele>
        <time>2022-07-31T09:43:52Z</time>
      </trkpt>
      <trkpt lat="44.78035" lon="3.05883">
        <ele>1102.1</ele>
        <time>2022-07-31T09:43:57Z</time>
      </trkpt>
      <trkpt lat="44.78036" lon="3.05888">
        <ele>1102.7</ele>
        <time>2022-07-31T09:44:01Z</time>
      </trkpt>
      <trkpt lat="44.78036" lon="3.05891">
        <ele>1103.7</ele>
        <time>2022-07-31T09:44:08Z</time>
      </trkpt>
      <trkpt lat="44.78036" lon="3.05892">
        <ele>1104.4</ele>
        <time>2022-07-31T09:44:12Z</time>
      </trkpt>
      <trkpt lat="44.78036" lon="3.05896">
        <ele>1105.7</ele>
        <time>2022-07-31T09:44:14Z</time>
      </trkpt>
      <trkpt lat="44.78032" lon="3.05901">
        <ele>1107.6</ele>
        <time>2022-07-31T09:44:20Z</time>
      </trkpt>
      <trkpt lat="44.7803" lon="3.05902">
        <ele>1108.1</ele>
        <time>2022-07-31T09:44:23Z</time>
      </trkpt>
      <trkpt lat="44.78027" lon="3.05904">
        <ele>1108.1</ele>
        <time>2022-07-31T09:44:27Z</time>
      </trkpt>
      <trkpt lat="44.78022" lon="3.05907">
        <ele>1108.2</ele>
        <time>2022-07-31T09:44:33Z</time>
      </trkpt>
      <trkpt lat="44.78022" lon="3.05907">
        <ele>1108.1</ele>
        <time>2022-07-31T09:44:34Z</time>
      </trkpt>
      <trkpt lat="44.78022" lon="3.05907">
        <ele>1108.1</ele>
        <time>2022-07-31T09:44:35Z</time>
      </trkpt>
      <trkpt lat="44.78022" lon="3.05906">
        <ele>1107.9</ele>
        <time>2022-07-31T09:44:41Z</time>
      </trkpt>
      <trkpt lat="44.78021" lon="3.05906">
        <ele>1107.7</ele>
        <time>2022-07-31T09:45:07Z</time>
      </trkpt>
      <trkpt lat="44.78021" lon="3.0591">
        <ele>1109.1</ele>
        <time>2022-07-31T09:45:19Z</time>
      </trkpt>
      <trkpt lat="44.78022" lon="3.05919">
        <ele>1111.9</ele>
        <time>2022-07-31T09:45:24Z</time>
      </trkpt>
      <trkpt lat="44.78022" lon="3.05921">
        <ele>1111.9</ele>
        <time>2022-07-31T09:45:25Z</time>
      </trkpt>
      <trkpt lat="44.78023" lon="3.05932">
        <ele>1112.1</ele>
        <time>2022-07-31T09:45:30Z</time>
      </trkpt>
      <trkpt lat="44.78023" lon="3.05937">
        <ele>1112.4</ele>
        <time>2022-07-31T09:45:34Z</time>
      </trkpt>
      <trkpt lat="44.78024" lon="3.05938">
        <ele>1112.6</ele>
        <time>2022-07-31T09:45:37Z</time>
      </trkpt>
      <trkpt lat="44.78024" lon="3.05941">
        <ele>1112.7</ele>
        <time>2022-07-31T09:45:41Z</time>
      </trkpt>
      <trkpt lat="44.78025" lon="3.05941">
        <ele>1112.9</ele>
        <time>2022-07-31T09:45:42Z</time>
      </trkpt>
      <trkpt lat="44.78028" lon="3.05943">
        <ele>1114.2</ele>
        <time>2022-07-31T09:45:49Z</time>
      </trkpt>
      <trkpt lat="44.78029" lon="3.05943">
        <ele>1114.4</ele>
        <time>2022-07-31T09:45:50Z</time>
      </trkpt>
      <trkpt lat="44.78031" lon="3.05943">
        <ele>1114.9</ele>
        <time>2022-07-31T09:45:53Z</time>
      </trkpt>
      <trkpt lat="44.78031" lon="3.05943">
        <ele>1115.1</ele>
        <time>2022-07-31T09:45:54Z</time>
      </trkpt>
      <trkpt lat="44.78034" lon="3.05943">
        <ele>1116.1</ele>
        <time>2022-07-31T09:45:59Z</time>
      </trkpt>
      <trkpt lat="44.78036" lon="3.05942">
        <ele>1116.5</ele>
        <time>2022-07-31T09:46:03Z</time>
      </trkpt>
      <trkpt lat="44.78038" lon="3.05944">
        <ele>1117.4</ele>
        <time>2022-07-31T09:46:09Z</time>
      </trkpt>
      <trkpt lat="44.78039" lon="3.05944">
        <ele>1117.7</ele>
        <time>2022-07-31T09:46:10Z</time>
      </trkpt>
      <trkpt lat="44.78042" lon="3.05946">
        <ele>1118.2</ele>
        <time>2022-07-31T09:46:15Z</time>
      </trkpt>
      <trkpt lat="44.78046" lon="3.05947">
        <ele>1119.2</ele>
        <time>2022-07-31T09:46:20Z</time>
      </trkpt>
      <trkpt lat="44.78047" lon="3.05946">
        <ele>1120</ele>
        <time>2022-07-31T09:46:26Z</time>
      </trkpt>
      <trkpt lat="44.78047" lon="3.05946">
        <ele>1120</ele>
        <time>2022-07-31T09:46:28Z</time>
      </trkpt>
      <trkpt lat="44.78048" lon="3.05945">
        <ele>1120.3</ele>
        <time>2022-07-31T09:46:41Z</time>
      </trkpt>
      <trkpt lat="44.78047" lon="3.05947">
        <ele>1119.8</ele>
        <time>2022-07-31T09:46:50Z</time>
      </trkpt>
      <trkpt lat="44.78052" lon="3.05946">
        <ele>1121.5</ele>
        <time>2022-07-31T09:47:34Z</time>
      </trkpt>
      <trkpt lat="44.78053" lon="3.05945">
        <ele>1122.1</ele>
        <time>2022-07-31T09:47:36Z</time>
      </trkpt>
      <trkpt lat="44.78054" lon="3.05945">
        <ele>1122.6</ele>
        <time>2022-07-31T09:47:44Z</time>
      </trkpt>
      <trkpt lat="44.78059" lon="3.05948">
        <ele>1122.7</ele>
        <time>2022-07-31T09:47:53Z</time>
      </trkpt>
      <trkpt lat="44.78069" lon="3.05947">
        <ele>1123.6</ele>
        <time>2022-07-31T09:48:03Z</time>
      </trkpt>
      <trkpt lat="44.78076" lon="3.05948">
        <ele>1124</ele>
        <time>2022-07-31T09:48:11Z</time>
      </trkpt>
      <trkpt lat="44.78076" lon="3.05948">
        <ele>1124</ele>
        <time>2022-07-31T09:48:12Z</time>
      </trkpt>
      <trkpt lat="44.78077" lon="3.05949">
        <ele>1124</ele>
        <time>2022-07-31T09:48:16Z</time>
      </trkpt>
      <trkpt lat="44.78077" lon="3.05951">
        <ele>1123.7</ele>
        <time>2022-07-31T09:48:18Z</time>
      </trkpt>
      <trkpt lat="44.78078" lon="3.05955">
        <ele>1123.4</ele>
        <time>2022-07-31T09:48:25Z</time>
      </trkpt>
      <trkpt lat="44.78078" lon="3.05955">
        <ele>1123.4</ele>
        <time>2022-07-31T09:48:31Z</time>
      </trkpt>
      <trkpt lat="44.78078" lon="3.05955">
        <ele>1123.4</ele>
        <time>2022-07-31T09:48:45Z</time>
      </trkpt>
      <trkpt lat="44.7808" lon="3.05954">
        <ele>1123.6</ele>
        <time>2022-07-31T09:48:52Z</time>
      </trkpt>
      <trkpt lat="44.7808" lon="3.05954">
        <ele>1123.7</ele>
        <time>2022-07-31T09:48:53Z</time>
      </trkpt>
      <trkpt lat="44.78081" lon="3.05953">
        <ele>1123.8</ele>
        <time>2022-07-31T09:48:54Z</time>
      </trkpt>
      <trkpt lat="44.78081" lon="3.05953">
        <ele>1123.9</ele>
        <time>2022-07-31T09:48:55Z</time>
      </trkpt>
      <trkpt lat="44.78084" lon="3.0595">
        <ele>1124.4</ele>
        <time>2022-07-31T09:49:02Z</time>
      </trkpt>
      <trkpt lat="44.78086" lon="3.05945">
        <ele>1125</ele>
        <time>2022-07-31T09:49:06Z</time>
      </trkpt>
      <trkpt lat="44.78088" lon="3.05943">
        <ele>1125.1</ele>
        <time>2022-07-31T09:49:08Z</time>
      </trkpt>
      <trkpt lat="44.78089" lon="3.0594">
        <ele>1125</ele>
        <time>2022-07-31T09:49:12Z</time>
      </trkpt>
      <trkpt lat="44.78089" lon="3.05939">
        <ele>1124.9</ele>
        <time>2022-07-31T09:49:13Z</time>
      </trkpt>
      <trkpt lat="44.78089" lon="3.05937">
        <ele>1124.9</ele>
        <time>2022-07-31T09:49:15Z</time>
      </trkpt>
      <trkpt lat="44.78093" lon="3.05937">
        <ele>1125</ele>
        <time>2022-07-31T09:49:19Z</time>
      </trkpt>
      <trkpt lat="44.781" lon="3.05937">
        <ele>1125.2</ele>
        <time>2022-07-31T09:49:25Z</time>
      </trkpt>
      <trkpt lat="44.78105" lon="3.05935">
        <ele>1125.1</ele>
        <time>2022-07-31T09:49:30Z</time>
      </trkpt>
      <trkpt lat="44.78107" lon="3.05931">
        <ele>1125</ele>
        <time>2022-07-31T09:49:33Z</time>
      </trkpt>
      <trkpt lat="44.78112" lon="3.05927">
        <ele>1124.8</ele>
        <time>2022-07-31T09:49:38Z</time>
      </trkpt>
      <trkpt lat="44.78115" lon="3.05927">
        <ele>1124.9</ele>
        <time>2022-07-31T09:49:40Z</time>
      </trkpt>
      <trkpt lat="44.78125" lon="3.05926">
        <ele>1125.3</ele>
        <time>2022-07-31T09:49:48Z</time>
      </trkpt>
      <trkpt lat="44.78131" lon="3.05922">
        <ele>1125.6</ele>
        <time>2022-07-31T09:49:56Z</time>
      </trkpt>
      <trkpt lat="44.78134" lon="3.05919">
        <ele>1125.6</ele>
        <time>2022-07-31T09:49:59Z</time>
      </trkpt>
      <trkpt lat="44.78135" lon="3.05914">
        <ele>1125.5</ele>
        <time>2022-07-31T09:50:03Z</time>
      </trkpt>
      <trkpt lat="44.78135" lon="3.05913">
        <ele>1125.3</ele>
        <time>2022-07-31T09:50:04Z</time>
      </trkpt>
      <trkpt lat="44.78135" lon="3.05909">
        <ele>1124.9</ele>
        <time>2022-07-31T09:50:06Z</time>
      </trkpt>
      <trkpt lat="44.78136" lon="3.05903">
        <ele>1124.3</ele>
        <time>2022-07-31T09:50:10Z</time>
      </trkpt>
      <trkpt lat="44.78136" lon="3.059">
        <ele>1123.9</ele>
        <time>2022-07-31T09:50:12Z</time>
      </trkpt>
      <trkpt lat="44.78136" lon="3.05894">
        <ele>1123.4</ele>
        <time>2022-07-31T09:50:17Z</time>
      </trkpt>
      <trkpt lat="44.78135" lon="3.05891">
        <ele>1122.7</ele>
        <time>2022-07-31T09:50:22Z</time>
      </trkpt>
      <trkpt lat="44.78135" lon="3.05891">
        <ele>1122.7</ele>
        <time>2022-07-31T09:50:23Z</time>
      </trkpt>
      <trkpt lat="44.78136" lon="3.0589">
        <ele>1122.8</ele>
        <time>2022-07-31T09:50:26Z</time>
      </trkpt>
      <trkpt lat="44.78135" lon="3.0589">
        <ele>1122.7</ele>
        <time>2022-07-31T09:50:31Z</time>
      </trkpt>
      <trkpt lat="44.78135" lon="3.0589">
        <ele>1122.7</ele>
        <time>2022-07-31T09:50:33Z</time>
      </trkpt>
      <trkpt lat="44.78135" lon="3.05891">
        <ele>1122.8</ele>
        <time>2022-07-31T09:50:56Z</time>
      </trkpt>
      <trkpt lat="44.78135" lon="3.05891">
        <ele>1122.8</ele>
        <time>2022-07-31T09:50:59Z</time>
      </trkpt>
      <trkpt lat="44.78136" lon="3.05891">
        <ele>1123</ele>
        <time>2022-07-31T09:51:05Z</time>
      </trkpt>
      <trkpt lat="44.78136" lon="3.05892">
        <ele>1123</ele>
        <time>2022-07-31T09:51:08Z</time>
      </trkpt>
      <trkpt lat="44.78136" lon="3.05892">
        <ele>1123.1</ele>
        <time>2022-07-31T09:51:12Z</time>
      </trkpt>
      <trkpt lat="44.78136" lon="3.05892">
        <ele>1123.1</ele>
        <time>2022-07-31T09:51:20Z</time>
      </trkpt>
      <trkpt lat="44.78136" lon="3.05892">
        <ele>1123.1</ele>
        <time>2022-07-31T09:51:24Z</time>
      </trkpt>
      <trkpt lat="44.78136" lon="3.05892">
        <ele>1123.1</ele>
        <time>2022-07-31T09:51:25Z</time>
      </trkpt>
      <trkpt lat="44.78136" lon="3.05892">
        <ele>1123.1</ele>
        <time>2022-07-31T09:51:27Z</time>
      </trkpt>
      <trkpt lat="44.78136" lon="3.05892">
        <ele>1123.1</ele>
        <time>2022-07-31T09:51:28Z</time>
      </trkpt>
      <trkpt lat="44.78136" lon="3.05892">
        <ele>1123.1</ele>
        <time>2022-07-31T09:51:29Z</time>
      </trkpt>
      <trkpt lat="44.78136" lon="3.05892">
        <ele>1123.2</ele>
        <time>2022-07-31T09:51:30Z</time>
      </trkpt>
      <trkpt lat="44.78136" lon="3.05892">
        <ele>1123.2</ele>
        <time>2022-07-31T09:51:31Z</time>
      </trkpt>
      <trkpt lat="44.78136" lon="3.05892">
        <ele>1123.2</ele>
        <time>2022-07-31T09:51:32Z</time>
      </trkpt>
      <trkpt lat="44.78136" lon="3.05892">
        <ele>1123.2</ele>
        <time>2022-07-31T09:51:33Z</time>
      </trkpt>
      <trkpt lat="44.78136" lon="3.05892">
        <ele>1123.2</ele>
        <time>2022-07-31T09:51:34Z</time>
      </trkpt>
      <trkpt lat="44.78136" lon="3.05892">
        <ele>1123.2</ele>
        <time>2022-07-31T09:51:35Z</time>
      </trkpt>
      <trkpt lat="44.78136" lon="3.05893">
        <ele>1123.2</ele>
        <time>2022-07-31T09:51:37Z</time>
      </trkpt>
      <trkpt lat="44.78136" lon="3.05893">
        <ele>1123.2</ele>
        <time>2022-07-31T09:51:38Z</time>
      </trkpt>
      <trkpt lat="44.78136" lon="3.05894">
        <ele>1123.4</ele>
        <time>2022-07-31T09:51:39Z</time>
      </trkpt>
      <trkpt lat="44.78137" lon="3.05899">
        <ele>1124.1</ele>
        <time>2022-07-31T09:51:41Z</time>
      </trkpt>
      <trkpt lat="44.78137" lon="3.05902">
        <ele>1124.4</ele>
        <time>2022-07-31T09:51:42Z</time>
      </trkpt>
      <trkpt lat="44.78137" lon="3.05904">
        <ele>1124.7</ele>
        <time>2022-07-31T09:51:43Z</time>
      </trkpt>
      <trkpt lat="44.78137" lon="3.05907">
        <ele>1124.9</ele>
        <time>2022-07-31T09:51:44Z</time>
      </trkpt>
      <trkpt lat="44.78137" lon="3.05909">
        <ele>1125.1</ele>
        <time>2022-07-31T09:51:45Z</time>
      </trkpt>
      <trkpt lat="44.78137" lon="3.05912">
        <ele>1125.3</ele>
        <time>2022-07-31T09:51:46Z</time>
      </trkpt>
      <trkpt lat="44.78136" lon="3.05916">
        <ele>1125.7</ele>
        <time>2022-07-31T09:51:48Z</time>
      </trkpt>
      <trkpt lat="44.78135" lon="3.05917">
        <ele>1125.7</ele>
        <time>2022-07-31T09:51:51Z</time>
      </trkpt>
      <trkpt lat="44.78135" lon="3.05917">
        <ele>1125.7</ele>
        <time>2022-07-31T09:51:53Z</time>
      </trkpt>
      <trkpt lat="44.78135" lon="3.05917">
        <ele>1125.7</ele>
        <time>2022-07-31T09:51:58Z</time>
      </trkpt>
      <trkpt lat="44.78136" lon="3.05917">
        <ele>1125.8</ele>
        <time>2022-07-31T09:52:05Z</time>
      </trkpt>
      <trkpt lat="44.78136" lon="3.05917">
        <ele>1125.8</ele>
        <time>2022-07-31T09:52:06Z</time>
      </trkpt>
      <trkpt lat="44.78135" lon="3.05918">
        <ele>1125.8</ele>
        <time>2022-07-31T09:52:08Z</time>
      </trkpt>
      <trkpt lat="44.78134" lon="3.05919">
        <ele>1125.7</ele>
        <time>2022-07-31T09:52:09Z</time>
      </trkpt>
      <trkpt lat="44.78126" lon="3.05924">
        <ele>1125.3</ele>
        <time>2022-07-31T09:52:16Z</time>
      </trkpt>
      <trkpt lat="44.78122" lon="3.05927">
        <ele>1125.2</ele>
        <time>2022-07-31T09:52:20Z</time>
      </trkpt>
      <trkpt lat="44.78115" lon="3.05928">
        <ele>1125</ele>
        <time>2022-07-31T09:52:26Z</time>
      </trkpt>
      <trkpt lat="44.78106" lon="3.05935">
        <ele>1125.2</ele>
        <time>2022-07-31T09:52:35Z</time>
      </trkpt>
      <trkpt lat="44.78103" lon="3.05938">
        <ele>1125.3</ele>
        <time>2022-07-31T09:52:38Z</time>
      </trkpt>
      <trkpt lat="44.78097" lon="3.05938">
        <ele>1125.1</ele>
        <time>2022-07-31T09:52:43Z</time>
      </trkpt>
      <trkpt lat="44.78095" lon="3.0594">
        <ele>1125.2</ele>
        <time>2022-07-31T09:52:46Z</time>
      </trkpt>
      <trkpt lat="44.78093" lon="3.05944">
        <ele>1125.3</ele>
        <time>2022-07-31T09:52:49Z</time>
      </trkpt>
      <trkpt lat="44.78089" lon="3.05949">
        <ele>1124.7</ele>
        <time>2022-07-31T09:52:54Z</time>
      </trkpt>
      <trkpt lat="44.78089" lon="3.05949">
        <ele>1124.7</ele>
        <time>2022-07-31T09:52:55Z</time>
      </trkpt>
      <trkpt lat="44.78089" lon="3.05948">
        <ele>1124.8</ele>
        <time>2022-07-31T09:52:56Z</time>
      </trkpt>
      <trkpt lat="44.78088" lon="3.05946">
        <ele>1125</ele>
        <time>2022-07-31T09:52:58Z</time>
      </trkpt>
      <trkpt lat="44.78088" lon="3.05945">
        <ele>1125.1</ele>
        <time>2022-07-31T09:52:59Z</time>
      </trkpt>
      <trkpt lat="44.78086" lon="3.05944">
        <ele>1125.1</ele>
        <time>2022-07-31T09:53:03Z</time>
      </trkpt>
      <trkpt lat="44.78085" lon="3.05951">
        <ele>1124.3</ele>
        <time>2022-07-31T09:53:11Z</time>
      </trkpt>
      <trkpt lat="44.78085" lon="3.05952">
        <ele>1124.2</ele>
        <time>2022-07-31T09:53:38Z</time>
      </trkpt>
      <trkpt lat="44.78085" lon="3.05952">
        <ele>1124.2</ele>
        <time>2022-07-31T09:53:46Z</time>
      </trkpt>
      <trkpt lat="44.78083" lon="3.05951">
        <ele>1124.2</ele>
        <time>2022-07-31T09:53:51Z</time>
      </trkpt>
      <trkpt lat="44.78082" lon="3.05951">
        <ele>1124.2</ele>
        <time>2022-07-31T09:53:52Z</time>
      </trkpt>
      <trkpt lat="44.78078" lon="3.0595">
        <ele>1123.9</ele>
        <time>2022-07-31T09:53:54Z</time>
      </trkpt>
      <trkpt lat="44.78073" lon="3.05949">
        <ele>1123.7</ele>
        <time>2022-07-31T09:53:57Z</time>
      </trkpt>
      <trkpt lat="44.78069" lon="3.05949">
        <ele>1123.4</ele>
        <time>2022-07-31T09:54:00Z</time>
      </trkpt>
      <trkpt lat="44.78068" lon="3.05949">
        <ele>1123.2</ele>
        <time>2022-07-31T09:54:01Z</time>
      </trkpt>
      <trkpt lat="44.78067" lon="3.05949">
        <ele>1123.1</ele>
        <time>2022-07-31T09:54:02Z</time>
      </trkpt>
      <trkpt lat="44.78067" lon="3.0595">
        <ele>1122.9</ele>
        <time>2022-07-31T09:54:03Z</time>
      </trkpt>
      <trkpt lat="44.78067" lon="3.05951">
        <ele>1122.9</ele>
        <time>2022-07-31T09:54:04Z</time>
      </trkpt>
      <trkpt lat="44.78068" lon="3.05952">
        <ele>1122.8</ele>
        <time>2022-07-31T09:54:05Z</time>
      </trkpt>
      <trkpt lat="44.78068" lon="3.05953">
        <ele>1122.7</ele>
        <time>2022-07-31T09:54:06Z</time>
      </trkpt>
      <trkpt lat="44.78069" lon="3.05953">
        <ele>1122.7</ele>
        <time>2022-07-31T09:54:07Z</time>
      </trkpt>
      <trkpt lat="44.7807" lon="3.05954">
        <ele>1122.7</ele>
        <time>2022-07-31T09:54:08Z</time>
      </trkpt>
      <trkpt lat="44.7807" lon="3.05954">
        <ele>1122.7</ele>
        <time>2022-07-31T09:54:09Z</time>
      </trkpt>
      <trkpt lat="44.7807" lon="3.05954">
        <ele>1122.7</ele>
        <time>2022-07-31T09:54:10Z</time>
      </trkpt>
      <trkpt lat="44.78071" lon="3.05954">
        <ele>1122.8</ele>
        <time>2022-07-31T09:54:11Z</time>
      </trkpt>
      <trkpt lat="44.78071" lon="3.05954">
        <ele>1122.8</ele>
        <time>2022-07-31T09:54:12Z</time>
      </trkpt>
      <trkpt lat="44.78071" lon="3.05954">
        <ele>1122.8</ele>
        <time>2022-07-31T09:54:13Z</time>
      </trkpt>
      <trkpt lat="44.78071" lon="3.05954">
        <ele>1122.8</ele>
        <time>2022-07-31T09:54:14Z</time>
      </trkpt>
      <trkpt lat="44.78071" lon="3.05954">
        <ele>1122.8</ele>
        <time>2022-07-31T09:54:16Z</time>
      </trkpt>
      <trkpt lat="44.78065" lon="3.05951">
        <ele>1122.7</ele>
        <time>2022-07-31T09:54:22Z</time>
      </trkpt>
      <trkpt lat="44.78061" lon="3.05949">
        <ele>1122.6</ele>
        <time>2022-07-31T09:54:25Z</time>
      </trkpt>
      <trkpt lat="44.78059" lon="3.05948">
        <ele>1122.6</ele>
        <time>2022-07-31T09:54:29Z</time>
      </trkpt>
      <trkpt lat="44.78058" lon="3.05949">
        <ele>1122.5</ele>
        <time>2022-07-31T09:54:33Z</time>
      </trkpt>
      <trkpt lat="44.78058" lon="3.05949">
        <ele>1122.4</ele>
        <time>2022-07-31T09:54:35Z</time>
      </trkpt>
      <trkpt lat="44.78056" lon="3.05948">
        <ele>1122.4</ele>
        <time>2022-07-31T09:54:37Z</time>
      </trkpt>
      <trkpt lat="44.78052" lon="3.05947">
        <ele>1121.3</ele>
        <time>2022-07-31T09:54:42Z</time>
      </trkpt>
      <trkpt lat="44.78047" lon="3.05947">
        <ele>1119.6</ele>
        <time>2022-07-31T09:54:50Z</time>
      </trkpt>
      <trkpt lat="44.78047" lon="3.05947">
        <ele>1119.5</ele>
        <time>2022-07-31T09:54:55Z</time>
      </trkpt>
      <trkpt lat="44.78046" lon="3.05947">
        <ele>1119.4</ele>
        <time>2022-07-31T09:54:56Z</time>
      </trkpt>
      <trkpt lat="44.78046" lon="3.05947">
        <ele>1119.4</ele>
        <time>2022-07-31T09:54:57Z</time>
      </trkpt>
      <trkpt lat="44.78046" lon="3.05947">
        <ele>1119.4</ele>
        <time>2022-07-31T09:54:58Z</time>
      </trkpt>
      <trkpt lat="44.78046" lon="3.05947">
        <ele>1119.4</ele>
        <time>2022-07-31T09:54:59Z</time>
      </trkpt>
      <trkpt lat="44.78046" lon="3.05947">
        <ele>1119.4</ele>
        <time>2022-07-31T09:55:00Z</time>
      </trkpt>
      <trkpt lat="44.78046" lon="3.05947">
        <ele>1119.4</ele>
        <time>2022-07-31T09:55:01Z</time>
      </trkpt>
      <trkpt lat="44.78046" lon="3.05947">
        <ele>1119.4</ele>
        <time>2022-07-31T09:55:02Z</time>
      </trkpt>
      <trkpt lat="44.78046" lon="3.05947">
        <ele>1119.4</ele>
        <time>2022-07-31T09:55:11Z</time>
      </trkpt>
      <trkpt lat="44.78046" lon="3.05947">
        <ele>1119.3</ele>
        <time>2022-07-31T09:55:23Z</time>
      </trkpt>
      <trkpt lat="44.78046" lon="3.05947">
        <ele>1119.3</ele>
        <time>2022-07-31T09:55:31Z</time>
      </trkpt>
      <trkpt lat="44.78046" lon="3.05947">
        <ele>1119.3</ele>
        <time>2022-07-31T09:55:32Z</time>
      </trkpt>
      <trkpt lat="44.78046" lon="3.05947">
        <ele>1119.3</ele>
        <time>2022-07-31T09:55:43Z</time>
      </trkpt>
      <trkpt lat="44.78046" lon="3.05948">
        <ele>1119.2</ele>
        <time>2022-07-31T09:55:49Z</time>
      </trkpt>
      <trkpt lat="44.78046" lon="3.05948">
        <ele>1119.2</ele>
        <time>2022-07-31T09:55:54Z</time>
      </trkpt>
      <trkpt lat="44.78046" lon="3.05948">
        <ele>1119.2</ele>
        <time>2022-07-31T09:55:57Z</time>
      </trkpt>
      <trkpt lat="44.78046" lon="3.05948">
        <ele>1119.2</ele>
        <time>2022-07-31T09:56:00Z</time>
      </trkpt>
      <trkpt lat="44.78046" lon="3.05948">
        <ele>1119.2</ele>
        <time>2022-07-31T09:56:01Z</time>
      </trkpt>
      <trkpt lat="44.78046" lon="3.05948">
        <ele>1119.2</ele>
        <time>2022-07-31T09:56:03Z</time>
      </trkpt>
      <trkpt lat="44.78046" lon="3.05947">
        <ele>1119.3</ele>
        <time>2022-07-31T09:56:09Z</time>
      </trkpt>
      <trkpt lat="44.78046" lon="3.05947">
        <ele>1119.3</ele>
        <time>2022-07-31T09:56:11Z</time>
      </trkpt>
      <trkpt lat="44.78046" lon="3.05947">
        <ele>1119.3</ele>
        <time>2022-07-31T09:56:13Z</time>
      </trkpt>
      <trkpt lat="44.78046" lon="3.05947">
        <ele>1119.3</ele>
        <time>2022-07-31T09:56:15Z</time>
      </trkpt>
      <trkpt lat="44.78046" lon="3.05947">
        <ele>1119.3</ele>
        <time>2022-07-31T09:56:17Z</time>
      </trkpt>
      <trkpt lat="44.78046" lon="3.05947">
        <ele>1119.3</ele>
        <time>2022-07-31T09:56:19Z</time>
      </trkpt>
      <trkpt lat="44.78046" lon="3.05947">
        <ele>1119.3</ele>
        <time>2022-07-31T09:56:22Z</time>
      </trkpt>
      <trkpt lat="44.78046" lon="3.05947">
        <ele>1119.3</ele>
        <time>2022-07-31T09:56:24Z</time>
      </trkpt>
      <trkpt lat="44.78046" lon="3.05947">
        <ele>1119.4</ele>
        <time>2022-07-31T09:56:27Z</time>
      </trkpt>
      <trkpt lat="44.78046" lon="3.05947">
        <ele>1119.4</ele>
        <time>2022-07-31T09:56:29Z</time>
      </trkpt>
      <trkpt lat="44.78046" lon="3.05947">
        <ele>1119.4</ele>
        <time>2022-07-31T09:56:30Z</time>
      </trkpt>
      <trkpt lat="44.78046" lon="3.05947">
        <ele>1119.4</ele>
        <time>2022-07-31T09:56:31Z</time>
      </trkpt>
      <trkpt lat="44.78046" lon="3.05947">
        <ele>1119.4</ele>
        <time>2022-07-31T09:56:32Z</time>
      </trkpt>
      <trkpt lat="44.78047" lon="3.05947">
        <ele>1119.5</ele>
        <time>2022-07-31T09:56:33Z</time>
      </trkpt>
      <trkpt lat="44.78047" lon="3.05947">
        <ele>1119.8</ele>
        <time>2022-07-31T09:56:35Z</time>
      </trkpt>
      <trkpt lat="44.78048" lon="3.05947">
        <ele>1120.2</ele>
        <time>2022-07-31T09:56:37Z</time>
      </trkpt>
      <trkpt lat="44.78049" lon="3.05947">
        <ele>1120.4</ele>
        <time>2022-07-31T09:56:39Z</time>
      </trkpt>
      <trkpt lat="44.78049" lon="3.05947">
        <ele>1120.5</ele>
        <time>2022-07-31T09:56:40Z</time>
      </trkpt>
      <trkpt lat="44.78049" lon="3.05946">
        <ele>1120.5</ele>
        <time>2022-07-31T09:56:41Z</time>
      </trkpt>
      <trkpt lat="44.78049" lon="3.05946">
        <ele>1120.6</ele>
        <time>2022-07-31T09:56:42Z</time>
      </trkpt>
      <trkpt lat="44.78049" lon="3.05946">
        <ele>1120.6</ele>
        <time>2022-07-31T09:56:43Z</time>
      </trkpt>
      <trkpt lat="44.78049" lon="3.05946">
        <ele>1120.6</ele>
        <time>2022-07-31T09:56:44Z</time>
      </trkpt>
      <trkpt lat="44.78049" lon="3.05946">
        <ele>1120.6</ele>
        <time>2022-07-31T09:56:45Z</time>
      </trkpt>
      <trkpt lat="44.78049" lon="3.05946">
        <ele>1120.6</ele>
        <time>2022-07-31T09:56:47Z</time>
      </trkpt>
      <trkpt lat="44.78049" lon="3.05946">
        <ele>1120.6</ele>
        <time>2022-07-31T09:56:49Z</time>
      </trkpt>
      <trkpt lat="44.78049" lon="3.05946">
        <ele>1120.6</ele>
        <time>2022-07-31T09:56:51Z</time>
      </trkpt>
      <trkpt lat="44.78049" lon="3.05946">
        <ele>1120.6</ele>
        <time>2022-07-31T09:56:53Z</time>
      </trkpt>
      <trkpt lat="44.78049" lon="3.05946">
        <ele>1120.6</ele>
        <time>2022-07-31T09:56:54Z</time>
      </trkpt>
      <trkpt lat="44.78049" lon="3.05946">
        <ele>1120.5</ele>
        <time>2022-07-31T09:56:56Z</time>
      </trkpt>
      <trkpt lat="44.78049" lon="3.05946">
        <ele>1120.4</ele>
        <time>2022-07-31T09:56:57Z</time>
      </trkpt>
      <trkpt lat="44.78049" lon="3.05946">
        <ele>1120.4</ele>
        <time>2022-07-31T09:56:58Z</time>
      </trkpt>
      <trkpt lat="44.78048" lon="3.05946">
        <ele>1120.4</ele>
        <time>2022-07-31T09:56:59Z</time>
      </trkpt>
      <trkpt lat="44.78048" lon="3.05946">
        <ele>1120.3</ele>
        <time>2022-07-31T09:57:01Z</time>
      </trkpt>
      <trkpt lat="44.78048" lon="3.05946">
        <ele>1120.3</ele>
        <time>2022-07-31T09:57:04Z</time>
      </trkpt>
      <trkpt lat="44.78048" lon="3.05946">
        <ele>1120.3</ele>
        <time>2022-07-31T09:57:07Z</time>
      </trkpt>
      <trkpt lat="44.78048" lon="3.05946">
        <ele>1120.3</ele>
        <time>2022-07-31T09:57:09Z</time>
      </trkpt>
      <trkpt lat="44.78048" lon="3.05946">
        <ele>1120.2</ele>
        <time>2022-07-31T09:57:11Z</time>
      </trkpt>
      <trkpt lat="44.78048" lon="3.05946">
        <ele>1120.2</ele>
        <time>2022-07-31T09:57:12Z</time>
      </trkpt>
      <trkpt lat="44.78048" lon="3.05946">
        <ele>1120.2</ele>
        <time>2022-07-31T09:57:13Z</time>
      </trkpt>
      <trkpt lat="44.78048" lon="3.05946">
        <ele>1120.2</ele>
        <time>2022-07-31T09:57:14Z</time>
      </trkpt>
      <trkpt lat="44.78048" lon="3.05946">
        <ele>1120.2</ele>
        <time>2022-07-31T09:57:16Z</time>
      </trkpt>
      <trkpt lat="44.78048" lon="3.05946">
        <ele>1120.2</ele>
        <time>2022-07-31T09:57:17Z</time>
      </trkpt>
      <trkpt lat="44.78048" lon="3.05946">
        <ele>1120.2</ele>
        <time>2022-07-31T09:57:18Z</time>
      </trkpt>
      <trkpt lat="44.78048" lon="3.05946">
        <ele>1120.1</ele>
        <time>2022-07-31T09:57:20Z</time>
      </trkpt>
      <trkpt lat="44.78048" lon="3.05946">
        <ele>1120.1</ele>
        <time>2022-07-31T09:57:22Z</time>
      </trkpt>
      <trkpt lat="44.78047" lon="3.05946">
        <ele>1119.9</ele>
        <time>2022-07-31T09:57:25Z</time>
      </trkpt>
      <trkpt lat="44.78046" lon="3.05946">
        <ele>1119.6</ele>
        <time>2022-07-31T09:57:27Z</time>
      </trkpt>
      <trkpt lat="44.78044" lon="3.05946">
        <ele>1118.7</ele>
        <time>2022-07-31T09:57:33Z</time>
      </trkpt>
      <trkpt lat="44.78043" lon="3.05946">
        <ele>1118.4</ele>
        <time>2022-07-31T09:57:35Z</time>
      </trkpt>
      <trkpt lat="44.78038" lon="3.05945">
        <ele>1116.9</ele>
        <time>2022-07-31T09:57:47Z</time>
      </trkpt>
      <trkpt lat="44.78038" lon="3.05945">
        <ele>1116.9</ele>
        <time>2022-07-31T09:57:48Z</time>
      </trkpt>
      <trkpt lat="44.78037" lon="3.05945">
        <ele>1116.9</ele>
        <time>2022-07-31T09:57:49Z</time>
      </trkpt>
      <trkpt lat="44.78037" lon="3.05945">
        <ele>1116.8</ele>
        <time>2022-07-31T09:57:50Z</time>
      </trkpt>
      <trkpt lat="44.78037" lon="3.05945">
        <ele>1116.8</ele>
        <time>2022-07-31T09:57:51Z</time>
      </trkpt>
      <trkpt lat="44.78037" lon="3.05945">
        <ele>1116.8</ele>
        <time>2022-07-31T09:57:52Z</time>
      </trkpt>
      <trkpt lat="44.78037" lon="3.05945">
        <ele>1116.7</ele>
        <time>2022-07-31T09:57:53Z</time>
      </trkpt>
      <trkpt lat="44.78037" lon="3.05945">
        <ele>1116.7</ele>
        <time>2022-07-31T09:57:55Z</time>
      </trkpt>
      <trkpt lat="44.78036" lon="3.05945">
        <ele>1116.6</ele>
        <time>2022-07-31T09:57:57Z</time>
      </trkpt>
      <trkpt lat="44.78036" lon="3.05945">
        <ele>1116.6</ele>
        <time>2022-07-31T09:57:58Z</time>
      </trkpt>
      <trkpt lat="44.78036" lon="3.05945">
        <ele>1116.6</ele>
        <time>2022-07-31T09:57:59Z</time>
      </trkpt>
      <trkpt lat="44.78036" lon="3.05945">
        <ele>1116.6</ele>
        <time>2022-07-31T09:58:00Z</time>
      </trkpt>
      <trkpt lat="44.78036" lon="3.05945">
        <ele>1116.5</ele>
        <time>2022-07-31T09:58:01Z</time>
      </trkpt>
      <trkpt lat="44.78035" lon="3.05944">
        <ele>1116.4</ele>
        <time>2022-07-31T09:58:03Z</time>
      </trkpt>
      <trkpt lat="44.78035" lon="3.05944">
        <ele>1116.3</ele>
        <time>2022-07-31T09:58:05Z</time>
      </trkpt>
      <trkpt lat="44.78034" lon="3.05944">
        <ele>1116.1</ele>
        <time>2022-07-31T09:58:12Z</time>
      </trkpt>
      <trkpt lat="44.78034" lon="3.05944">
        <ele>1116.1</ele>
        <time>2022-07-31T09:58:14Z</time>
      </trkpt>
      <trkpt lat="44.78034" lon="3.05944">
        <ele>1116.1</ele>
        <time>2022-07-31T09:58:20Z</time>
      </trkpt>
      <trkpt lat="44.78034" lon="3.05944">
        <ele>1116.1</ele>
        <time>2022-07-31T09:58:21Z</time>
      </trkpt>
      <trkpt lat="44.78034" lon="3.05944">
        <ele>1116.1</ele>
        <time>2022-07-31T09:58:22Z</time>
      </trkpt>
      <trkpt lat="44.78034" lon="3.05944">
        <ele>1116.1</ele>
        <time>2022-07-31T09:58:23Z</time>
      </trkpt>
      <trkpt lat="44.78034" lon="3.05944">
        <ele>1116.1</ele>
        <time>2022-07-31T09:58:25Z</time>
      </trkpt>
      <trkpt lat="44.78034" lon="3.05944">
        <ele>1116.1</ele>
        <time>2022-07-31T09:58:31Z</time>
      </trkpt>
      <trkpt lat="44.78034" lon="3.05944">
        <ele>1116.1</ele>
        <time>2022-07-31T09:58:36Z</time>
      </trkpt>
      <trkpt lat="44.78034" lon="3.05944">
        <ele>1116.1</ele>
        <time>2022-07-31T09:58:38Z</time>
      </trkpt>
      <trkpt lat="44.78034" lon="3.05944">
        <ele>1116</ele>
        <time>2022-07-31T09:58:46Z</time>
      </trkpt>
      <trkpt lat="44.78034" lon="3.05944">
        <ele>1116</ele>
        <time>2022-07-31T09:58:47Z</time>
      </trkpt>
      <trkpt lat="44.78034" lon="3.05944">
        <ele>1116</ele>
        <time>2022-07-31T09:58:48Z</time>
      </trkpt>
      <trkpt lat="44.78034" lon="3.05944">
        <ele>1116</ele>
        <time>2022-07-31T09:58:49Z</time>
      </trkpt>
      <trkpt lat="44.78034" lon="3.05944">
        <ele>1116</ele>
        <time>2022-07-31T09:58:51Z</time>
      </trkpt>
      <trkpt lat="44.78034" lon="3.05944">
        <ele>1116</ele>
        <time>2022-07-31T09:58:54Z</time>
      </trkpt>
      <trkpt lat="44.78034" lon="3.05944">
        <ele>1116</ele>
        <time>2022-07-31T09:58:55Z</time>
      </trkpt>
      <trkpt lat="44.78034" lon="3.05944">
        <ele>1116</ele>
        <time>2022-07-31T09:58:56Z</time>
      </trkpt>
      <trkpt lat="44.78034" lon="3.05944">
        <ele>1116</ele>
        <time>2022-07-31T09:58:57Z</time>
      </trkpt>
      <trkpt lat="44.78034" lon="3.05944">
        <ele>1116</ele>
        <time>2022-07-31T09:58:59Z</time>
      </trkpt>
      <trkpt lat="44.78034" lon="3.05944">
        <ele>1116</ele>
        <time>2022-07-31T09:59:01Z</time>
      </trkpt>
      <trkpt lat="44.78034" lon="3.05944">
        <ele>1116</ele>
        <time>2022-07-31T09:59:02Z</time>
      </trkpt>
      <trkpt lat="44.78034" lon="3.05944">
        <ele>1116</ele>
        <time>2022-07-31T09:59:05Z</time>
      </trkpt>
      <trkpt lat="44.78034" lon="3.05944">
        <ele>1116</ele>
        <time>2022-07-31T09:59:19Z</time>
      </trkpt>
      <trkpt lat="44.78034" lon="3.05944">
        <ele>1116</ele>
        <time>2022-07-31T09:59:22Z</time>
      </trkpt>
      <trkpt lat="44.78034" lon="3.05944">
        <ele>1116</ele>
        <time>2022-07-31T09:59:25Z</time>
      </trkpt>
      <trkpt lat="44.78031" lon="3.05939">
        <ele>1114.9</ele>
        <time>2022-07-31T09:59:39Z</time>
      </trkpt>
      <trkpt lat="44.7803" lon="3.05936">
        <ele>1114.5</ele>
        <time>2022-07-31T09:59:40Z</time>
      </trkpt>
      <trkpt lat="44.78028" lon="3.05934">
        <ele>1114.1</ele>
        <time>2022-07-31T09:59:41Z</time>
      </trkpt>
      <trkpt lat="44.78027" lon="3.05931">
        <ele>1113.8</ele>
        <time>2022-07-31T09:59:42Z</time>
      </trkpt>
      <trkpt lat="44.78026" lon="3.0593">
        <ele>1113.2</ele>
        <time>2022-07-31T09:59:43Z</time>
      </trkpt>
      <trkpt lat="44.78023" lon="3.05925">
        <ele>1112.1</ele>
        <time>2022-07-31T09:59:45Z</time>
      </trkpt>
      <trkpt lat="44.7802" lon="3.0592">
        <ele>1111.1</ele>
        <time>2022-07-31T09:59:47Z</time>
      </trkpt>
      <trkpt lat="44.7802" lon="3.05919">
        <ele>1111.2</ele>
        <time>2022-07-31T09:59:48Z</time>
      </trkpt>
      <trkpt lat="44.7802" lon="3.05918">
        <ele>1111.3</ele>
        <time>2022-07-31T09:59:49Z</time>
      </trkpt>
      <trkpt lat="44.78021" lon="3.05918">
        <ele>1111.5</ele>
        <time>2022-07-31T09:59:50Z</time>
      </trkpt>
      <trkpt lat="44.78021" lon="3.05918">
        <ele>1111.6</ele>
        <time>2022-07-31T09:59:51Z</time>
      </trkpt>
      <trkpt lat="44.78021" lon="3.05918">
        <ele>1111.7</ele>
        <time>2022-07-31T09:59:53Z</time>
      </trkpt>
      <trkpt lat="44.78022" lon="3.05917">
        <ele>1111.8</ele>
        <time>2022-07-31T09:59:59Z</time>
      </trkpt>
      <trkpt lat="44.78022" lon="3.05917">
        <ele>1112</ele>
        <time>2022-07-31T10:00:01Z</time>
      </trkpt>
      <trkpt lat="44.78021" lon="3.05916">
        <ele>1111.4</ele>
        <time>2022-07-31T10:00:03Z</time>
      </trkpt>
      <trkpt lat="44.78021" lon="3.05915">
        <ele>1110.9</ele>
        <time>2022-07-31T10:00:04Z</time>
      </trkpt>
      <trkpt lat="44.78021" lon="3.05914">
        <ele>1110.4</ele>
        <time>2022-07-31T10:00:05Z</time>
      </trkpt>
      <trkpt lat="44.78021" lon="3.05913">
        <ele>1110.3</ele>
        <time>2022-07-31T10:00:06Z</time>
      </trkpt>
      <trkpt lat="44.78021" lon="3.05912">
        <ele>1109.9</ele>
        <time>2022-07-31T10:00:07Z</time>
      </trkpt>
      <trkpt lat="44.78021" lon="3.05911">
        <ele>1109.5</ele>
        <time>2022-07-31T10:00:08Z</time>
      </trkpt>
      <trkpt lat="44.78021" lon="3.0591">
        <ele>1109</ele>
        <time>2022-07-31T10:00:09Z</time>
      </trkpt>
      <trkpt lat="44.7802" lon="3.05908">
        <ele>1108.3</ele>
        <time>2022-07-31T10:00:10Z</time>
      </trkpt>
      <trkpt lat="44.7802" lon="3.05907">
        <ele>1107.7</ele>
        <time>2022-07-31T10:00:11Z</time>
      </trkpt>
      <trkpt lat="44.7802" lon="3.05905">
        <ele>1107.1</ele>
        <time>2022-07-31T10:00:12Z</time>
      </trkpt>
      <trkpt lat="44.7802" lon="3.05903">
        <ele>1106.2</ele>
        <time>2022-07-31T10:00:13Z</time>
      </trkpt>
      <trkpt lat="44.7802" lon="3.05901">
        <ele>1105.5</ele>
        <time>2022-07-31T10:00:14Z</time>
      </trkpt>
      <trkpt lat="44.78021" lon="3.059">
        <ele>1105.6</ele>
        <time>2022-07-31T10:00:15Z</time>
      </trkpt>
      <trkpt lat="44.78021" lon="3.059">
        <ele>1105.5</ele>
        <time>2022-07-31T10:00:16Z</time>
      </trkpt>
      <trkpt lat="44.78021" lon="3.05899">
        <ele>1105.3</ele>
        <time>2022-07-31T10:00:18Z</time>
      </trkpt>
      <trkpt lat="44.78021" lon="3.05899">
        <ele>1105.2</ele>
        <time>2022-07-31T10:00:19Z</time>
      </trkpt>
      <trkpt lat="44.78022" lon="3.05899">
        <ele>1105.3</ele>
        <time>2022-07-31T10:00:20Z</time>
      </trkpt>
      <trkpt lat="44.78023" lon="3.05899">
        <ele>1105.7</ele>
        <time>2022-07-31T10:00:22Z</time>
      </trkpt>
      <trkpt lat="44.78025" lon="3.05899">
        <ele>1105.8</ele>
        <time>2022-07-31T10:00:24Z</time>
      </trkpt>
      <trkpt lat="44.78026" lon="3.05898">
        <ele>1105.8</ele>
        <time>2022-07-31T10:00:25Z</time>
      </trkpt>
      <trkpt lat="44.7803" lon="3.05896">
        <ele>1105.4</ele>
        <time>2022-07-31T10:00:31Z</time>
      </trkpt>
      <trkpt lat="44.78031" lon="3.05896">
        <ele>1105.3</ele>
        <time>2022-07-31T10:00:32Z</time>
      </trkpt>
      <trkpt lat="44.78031" lon="3.05895">
        <ele>1105.1</ele>
        <time>2022-07-31T10:00:33Z</time>
      </trkpt>
      <trkpt lat="44.78032" lon="3.05894">
        <ele>1104.6</ele>
        <time>2022-07-31T10:00:34Z</time>
      </trkpt>
      <trkpt lat="44.78033" lon="3.05892">
        <ele>1103.8</ele>
        <time>2022-07-31T10:00:36Z</time>
      </trkpt>
      <trkpt lat="44.78034" lon="3.05889">
        <ele>1102.9</ele>
        <time>2022-07-31T10:00:38Z</time>
      </trkpt>
      <trkpt lat="44.78034" lon="3.05888">
        <ele>1102.6</ele>
        <time>2022-07-31T10:00:39Z</time>
      </trkpt>
      <trkpt lat="44.78034" lon="3.05887">
        <ele>1102.4</ele>
        <time>2022-07-31T10:00:40Z</time>
      </trkpt>
      <trkpt lat="44.78033" lon="3.05886">
        <ele>1102.2</ele>
        <time>2022-07-31T10:00:41Z</time>
      </trkpt>
      <trkpt lat="44.78033" lon="3.05884">
        <ele>1102</ele>
        <time>2022-07-31T10:00:42Z</time>
      </trkpt>
      <trkpt lat="44.78032" lon="3.05883">
        <ele>1101.8</ele>
        <time>2022-07-31T10:00:43Z</time>
      </trkpt>
      <trkpt lat="44.78032" lon="3.05883">
        <ele>1101.7</ele>
        <time>2022-07-31T10:00:44Z</time>
      </trkpt>
      <trkpt lat="44.78031" lon="3.05881">
        <ele>1101.5</ele>
        <time>2022-07-31T10:00:45Z</time>
      </trkpt>
      <trkpt lat="44.78031" lon="3.0588">
        <ele>1101.3</ele>
        <time>2022-07-31T10:00:46Z</time>
      </trkpt>
      <trkpt lat="44.78031" lon="3.05878">
        <ele>1101.1</ele>
        <time>2022-07-31T10:00:47Z</time>
      </trkpt>
      <trkpt lat="44.78032" lon="3.05877">
        <ele>1101</ele>
        <time>2022-07-31T10:00:48Z</time>
      </trkpt>
      <trkpt lat="44.78032" lon="3.05876">
        <ele>1100.9</ele>
        <time>2022-07-31T10:00:49Z</time>
      </trkpt>
      <trkpt lat="44.78032" lon="3.05875">
        <ele>1100.8</ele>
        <time>2022-07-31T10:00:50Z</time>
      </trkpt>
      <trkpt lat="44.78032" lon="3.05873">
        <ele>1100.6</ele>
        <time>2022-07-31T10:00:51Z</time>
      </trkpt>
      <trkpt lat="44.78033" lon="3.05872">
        <ele>1100.4</ele>
        <time>2022-07-31T10:00:52Z</time>
      </trkpt>
      <trkpt lat="44.78033" lon="3.05871">
        <ele>1100.3</ele>
        <time>2022-07-31T10:00:53Z</time>
      </trkpt>
      <trkpt lat="44.78033" lon="3.05868">
        <ele>1100.1</ele>
        <time>2022-07-31T10:00:55Z</time>
      </trkpt>
      <trkpt lat="44.78033" lon="3.05865">
        <ele>1099.6</ele>
        <time>2022-07-31T10:00:58Z</time>
      </trkpt>
      <trkpt lat="44.78033" lon="3.05863">
        <ele>1099.4</ele>
        <time>2022-07-31T10:00:59Z</time>
      </trkpt>
      <trkpt lat="44.78032" lon="3.05862">
        <ele>1099.3</ele>
        <time>2022-07-31T10:01:00Z</time>
      </trkpt>
      <trkpt lat="44.78031" lon="3.05861">
        <ele>1099</ele>
        <time>2022-07-31T10:01:02Z</time>
      </trkpt>
      <trkpt lat="44.7803" lon="3.0586">
        <ele>1098.9</ele>
        <time>2022-07-31T10:01:03Z</time>
      </trkpt>
      <trkpt lat="44.78029" lon="3.05859">
        <ele>1098.7</ele>
        <time>2022-07-31T10:01:04Z</time>
      </trkpt>
      <trkpt lat="44.78028" lon="3.05858">
        <ele>1098.6</ele>
        <time>2022-07-31T10:01:05Z</time>
      </trkpt>
      <trkpt lat="44.78027" lon="3.05858">
        <ele>1098.4</ele>
        <time>2022-07-31T10:01:06Z</time>
      </trkpt>
      <trkpt lat="44.78026" lon="3.05857">
        <ele>1098.3</ele>
        <time>2022-07-31T10:01:07Z</time>
      </trkpt>
      <trkpt lat="44.78025" lon="3.05856">
        <ele>1098.1</ele>
        <time>2022-07-31T10:01:08Z</time>
      </trkpt>
      <trkpt lat="44.78019" lon="3.05855">
        <ele>1097.5</ele>
        <time>2022-07-31T10:01:13Z</time>
      </trkpt>
      <trkpt lat="44.78016" lon="3.05855">
        <ele>1097.2</ele>
        <time>2022-07-31T10:01:15Z</time>
      </trkpt>
      <trkpt lat="44.78015" lon="3.05855">
        <ele>1097.1</ele>
        <time>2022-07-31T10:01:17Z</time>
      </trkpt>
      <trkpt lat="44.78015" lon="3.05854">
        <ele>1097.1</ele>
        <time>2022-07-31T10:01:18Z</time>
      </trkpt>
      <trkpt lat="44.78016" lon="3.05854">
        <ele>1097.1</ele>
        <time>2022-07-31T10:01:19Z</time>
      </trkpt>
      <trkpt lat="44.78015" lon="3.05856">
        <ele>1097.3</ele>
        <time>2022-07-31T10:01:21Z</time>
      </trkpt>
      <trkpt lat="44.78013" lon="3.05856">
        <ele>1097.3</ele>
        <time>2022-07-31T10:01:22Z</time>
      </trkpt>
      <trkpt lat="44.78005" lon="3.05859">
        <ele>1097</ele>
        <time>2022-07-31T10:01:29Z</time>
      </trkpt>
      <trkpt lat="44.78001" lon="3.0586">
        <ele>1096.8</ele>
        <time>2022-07-31T10:01:32Z</time>
      </trkpt>
      <trkpt lat="44.78" lon="3.0586">
        <ele>1096.8</ele>
        <time>2022-07-31T10:01:33Z</time>
      </trkpt>
      <trkpt lat="44.77996" lon="3.05861">
        <ele>1096.5</ele>
        <time>2022-07-31T10:01:36Z</time>
      </trkpt>
      <trkpt lat="44.77991" lon="3.05865">
        <ele>1096.1</ele>
        <time>2022-07-31T10:01:41Z</time>
      </trkpt>
      <trkpt lat="44.77987" lon="3.05868">
        <ele>1095.9</ele>
        <time>2022-07-31T10:01:44Z</time>
      </trkpt>
      <trkpt lat="44.77985" lon="3.05869">
        <ele>1095.9</ele>
        <time>2022-07-31T10:01:46Z</time>
      </trkpt>
      <trkpt lat="44.77984" lon="3.0587">
        <ele>1095.8</ele>
        <time>2022-07-31T10:01:47Z</time>
      </trkpt>
      <trkpt lat="44.77982" lon="3.05872">
        <ele>1095.8</ele>
        <time>2022-07-31T10:01:49Z</time>
      </trkpt>
      <trkpt lat="44.7798" lon="3.05874">
        <ele>1095.8</ele>
        <time>2022-07-31T10:01:51Z</time>
      </trkpt>
      <trkpt lat="44.77975" lon="3.05878">
        <ele>1095.9</ele>
        <time>2022-07-31T10:01:55Z</time>
      </trkpt>
      <trkpt lat="44.7797" lon="3.05885">
        <ele>1096.1</ele>
        <time>2022-07-31T10:02:01Z</time>
      </trkpt>
      <trkpt lat="44.77969" lon="3.05886">
        <ele>1096.1</ele>
        <time>2022-07-31T10:02:02Z</time>
      </trkpt>
      <trkpt lat="44.77967" lon="3.05889">
        <ele>1096.1</ele>
        <time>2022-07-31T10:02:04Z</time>
      </trkpt>
      <trkpt lat="44.77967" lon="3.0589">
        <ele>1096.1</ele>
        <time>2022-07-31T10:02:05Z</time>
      </trkpt>
      <trkpt lat="44.77966" lon="3.05891">
        <ele>1096</ele>
        <time>2022-07-31T10:02:06Z</time>
      </trkpt>
      <trkpt lat="44.77964" lon="3.05893">
        <ele>1095.8</ele>
        <time>2022-07-31T10:02:08Z</time>
      </trkpt>
      <trkpt lat="44.77962" lon="3.05897">
        <ele>1095.6</ele>
        <time>2022-07-31T10:02:11Z</time>
      </trkpt>
      <trkpt lat="44.77959" lon="3.05901">
        <ele>1095.3</ele>
        <time>2022-07-31T10:02:14Z</time>
      </trkpt>
      <trkpt lat="44.77955" lon="3.05908">
        <ele>1094.8</ele>
        <time>2022-07-31T10:02:19Z</time>
      </trkpt>
      <trkpt lat="44.7795" lon="3.05917">
        <ele>1094.3</ele>
        <time>2022-07-31T10:02:25Z</time>
      </trkpt>
      <trkpt lat="44.77948" lon="3.0592">
        <ele>1094.2</ele>
        <time>2022-07-31T10:02:28Z</time>
      </trkpt>
      <trkpt lat="44.77941" lon="3.05929">
        <ele>1093.8</ele>
        <time>2022-07-31T10:02:35Z</time>
      </trkpt>
      <trkpt lat="44.77934" lon="3.05937">
        <ele>1093.3</ele>
        <time>2022-07-31T10:02:43Z</time>
      </trkpt>
      <trkpt lat="44.77931" lon="3.05941">
        <ele>1093</ele>
        <time>2022-07-31T10:02:50Z</time>
      </trkpt>
      <trkpt lat="44.7793" lon="3.05943">
        <ele>1092.9</ele>
        <time>2022-07-31T10:02:54Z</time>
      </trkpt>
      <trkpt lat="44.7793" lon="3.05944">
        <ele>1092.8</ele>
        <time>2022-07-31T10:02:55Z</time>
      </trkpt>
      <trkpt lat="44.77923" lon="3.05955">
        <ele>1092.2</ele>
        <time>2022-07-31T10:03:03Z</time>
      </trkpt>
      <trkpt lat="44.77921" lon="3.05957">
        <ele>1092.1</ele>
        <time>2022-07-31T10:03:05Z</time>
      </trkpt>
      <trkpt lat="44.7792" lon="3.05956">
        <ele>1091.9</ele>
        <time>2022-07-31T10:03:07Z</time>
      </trkpt>
      <trkpt lat="44.7792" lon="3.0596">
        <ele>1092.2</ele>
        <time>2022-07-31T10:03:09Z</time>
      </trkpt>
      <trkpt lat="44.7792" lon="3.05961">
        <ele>1092.2</ele>
        <time>2022-07-31T10:03:10Z</time>
      </trkpt>
      <trkpt lat="44.77915" lon="3.05969">
        <ele>1092.2</ele>
        <time>2022-07-31T10:03:16Z</time>
      </trkpt>
      <trkpt lat="44.77914" lon="3.0597">
        <ele>1092.2</ele>
        <time>2022-07-31T10:03:17Z</time>
      </trkpt>
      <trkpt lat="44.77908" lon="3.05982">
        <ele>1091.1</ele>
        <time>2022-07-31T10:03:25Z</time>
      </trkpt>
      <trkpt lat="44.77906" lon="3.05988">
        <ele>1090.5</ele>
        <time>2022-07-31T10:03:29Z</time>
      </trkpt>
      <trkpt lat="44.77905" lon="3.05991">
        <ele>1090.1</ele>
        <time>2022-07-31T10:03:31Z</time>
      </trkpt>
      <trkpt lat="44.77903" lon="3.05999">
        <ele>1089.6</ele>
        <time>2022-07-31T10:03:36Z</time>
      </trkpt>
      <trkpt lat="44.779" lon="3.06013">
        <ele>1089.3</ele>
        <time>2022-07-31T10:03:44Z</time>
      </trkpt>
      <trkpt lat="44.77899" lon="3.06015">
        <ele>1089.2</ele>
        <time>2022-07-31T10:03:46Z</time>
      </trkpt>
      <trkpt lat="44.77897" lon="3.06019">
        <ele>1089.1</ele>
        <time>2022-07-31T10:03:48Z</time>
      </trkpt>
      <trkpt lat="44.77894" lon="3.06028">
        <ele>1088.9</ele>
        <time>2022-07-31T10:03:54Z</time>
      </trkpt>
      <trkpt lat="44.77887" lon="3.06042">
        <ele>1088.6</ele>
        <time>2022-07-31T10:04:04Z</time>
      </trkpt>
      <trkpt lat="44.77878" lon="3.06055">
        <ele>1088</ele>
        <time>2022-07-31T10:04:13Z</time>
      </trkpt>
      <trkpt lat="44.77867" lon="3.06068">
        <ele>1087.6</ele>
        <time>2022-07-31T10:04:24Z</time>
      </trkpt>
      <trkpt lat="44.77856" lon="3.06076">
        <ele>1087.3</ele>
        <time>2022-07-31T10:04:34Z</time>
      </trkpt>
      <trkpt lat="44.77846" lon="3.06081">
        <ele>1086.4</ele>
        <time>2022-07-31T10:04:43Z</time>
      </trkpt>
      <trkpt lat="44.77844" lon="3.06082">
        <ele>1086.3</ele>
        <time>2022-07-31T10:04:45Z</time>
      </trkpt>
      <trkpt lat="44.77835" lon="3.06087">
        <ele>1085.7</ele>
        <time>2022-07-31T10:04:53Z</time>
      </trkpt>
      <trkpt lat="44.77834" lon="3.06088">
        <ele>1085.7</ele>
        <time>2022-07-31T10:04:54Z</time>
      </trkpt>
      <trkpt lat="44.77832" lon="3.0609">
        <ele>1085.6</ele>
        <time>2022-07-31T10:04:56Z</time>
      </trkpt>
      <trkpt lat="44.77828" lon="3.06095">
        <ele>1085.5</ele>
        <time>2022-07-31T10:05:00Z</time>
      </trkpt>
      <trkpt lat="44.77825" lon="3.061">
        <ele>1085.7</ele>
        <time>2022-07-31T10:05:04Z</time>
      </trkpt>
      <trkpt lat="44.77823" lon="3.06104">
        <ele>1085.9</ele>
        <time>2022-07-31T10:05:07Z</time>
      </trkpt>
      <trkpt lat="44.77822" lon="3.06107">
        <ele>1086</ele>
        <time>2022-07-31T10:05:09Z</time>
      </trkpt>
      <trkpt lat="44.77817" lon="3.06118">
        <ele>1086.2</ele>
        <time>2022-07-31T10:05:16Z</time>
      </trkpt>
      <trkpt lat="44.77811" lon="3.0613">
        <ele>1086.2</ele>
        <time>2022-07-31T10:05:25Z</time>
      </trkpt>
      <trkpt lat="44.778" lon="3.06139">
        <ele>1085.6</ele>
        <time>2022-07-31T10:05:35Z</time>
      </trkpt>
      <trkpt lat="44.77789" lon="3.06141">
        <ele>1085.1</ele>
        <time>2022-07-31T10:05:44Z</time>
      </trkpt>
      <trkpt lat="44.77779" lon="3.06138">
        <ele>1084</ele>
        <time>2022-07-31T10:05:53Z</time>
      </trkpt>
      <trkpt lat="44.77776" lon="3.06137">
        <ele>1083.5</ele>
        <time>2022-07-31T10:05:55Z</time>
      </trkpt>
      <trkpt lat="44.77773" lon="3.06138">
        <ele>1083.2</ele>
        <time>2022-07-31T10:05:57Z</time>
      </trkpt>
      <trkpt lat="44.77771" lon="3.06138">
        <ele>1082.9</ele>
        <time>2022-07-31T10:05:59Z</time>
      </trkpt>
      <trkpt lat="44.77766" lon="3.06139">
        <ele>1082.4</ele>
        <time>2022-07-31T10:06:03Z</time>
      </trkpt>
      <trkpt lat="44.77762" lon="3.0614">
        <ele>1081.8</ele>
        <time>2022-07-31T10:06:07Z</time>
      </trkpt>
      <trkpt lat="44.77758" lon="3.0614">
        <ele>1081.3</ele>
        <time>2022-07-31T10:06:10Z</time>
      </trkpt>
      <trkpt lat="44.77757" lon="3.0614">
        <ele>1081.1</ele>
        <time>2022-07-31T10:06:12Z</time>
      </trkpt>
      <trkpt lat="44.77754" lon="3.0614">
        <ele>1080.7</ele>
        <time>2022-07-31T10:06:15Z</time>
      </trkpt>
      <trkpt lat="44.7775" lon="3.0614">
        <ele>1080.2</ele>
        <time>2022-07-31T10:06:18Z</time>
      </trkpt>
      <trkpt lat="44.77749" lon="3.0614">
        <ele>1080</ele>
        <time>2022-07-31T10:06:21Z</time>
      </trkpt>
      <trkpt lat="44.77749" lon="3.06139">
        <ele>1079.9</ele>
        <time>2022-07-31T10:06:23Z</time>
      </trkpt>
      <trkpt lat="44.77744" lon="3.06139">
        <ele>1079.2</ele>
        <time>2022-07-31T10:06:28Z</time>
      </trkpt>
      <trkpt lat="44.77739" lon="3.06141">
        <ele>1078.7</ele>
        <time>2022-07-31T10:06:32Z</time>
      </trkpt>
      <trkpt lat="44.77736" lon="3.06142">
        <ele>1078.5</ele>
        <time>2022-07-31T10:06:35Z</time>
      </trkpt>
      <trkpt lat="44.77728" lon="3.06144">
        <ele>1077.7</ele>
        <time>2022-07-31T10:06:43Z</time>
      </trkpt>
      <trkpt lat="44.77718" lon="3.06143">
        <ele>1076.1</ele>
        <time>2022-07-31T10:06:52Z</time>
      </trkpt>
      <trkpt lat="44.7771" lon="3.06146">
        <ele>1075.1</ele>
        <time>2022-07-31T10:06:59Z</time>
      </trkpt>
      <trkpt lat="44.77708" lon="3.06148">
        <ele>1075</ele>
        <time>2022-07-31T10:07:02Z</time>
      </trkpt>
      <trkpt lat="44.77703" lon="3.06154">
        <ele>1074.9</ele>
        <time>2022-07-31T10:07:08Z</time>
      </trkpt>
      <trkpt lat="44.77702" lon="3.06154">
        <ele>1074.7</ele>
        <time>2022-07-31T10:07:09Z</time>
      </trkpt>
      <trkpt lat="44.77701" lon="3.06153">
        <ele>1074.4</ele>
        <time>2022-07-31T10:07:11Z</time>
      </trkpt>
      <trkpt lat="44.777" lon="3.06154">
        <ele>1074.3</ele>
        <time>2022-07-31T10:07:13Z</time>
      </trkpt>
      <trkpt lat="44.777" lon="3.06154">
        <ele>1074.3</ele>
        <time>2022-07-31T10:07:14Z</time>
      </trkpt>
      <trkpt lat="44.777" lon="3.06153">
        <ele>1074.1</ele>
        <time>2022-07-31T10:07:18Z</time>
      </trkpt>
      <trkpt lat="44.77699" lon="3.06153">
        <ele>1074</ele>
        <time>2022-07-31T10:07:20Z</time>
      </trkpt>
      <trkpt lat="44.777" lon="3.06153">
        <ele>1074.1</ele>
        <time>2022-07-31T10:07:25Z</time>
      </trkpt>
      <trkpt lat="44.777" lon="3.06153">
        <ele>1074.1</ele>
        <time>2022-07-31T10:07:30Z</time>
      </trkpt>
      <trkpt lat="44.77697" lon="3.06159">
        <ele>1074.3</ele>
        <time>2022-07-31T10:07:34Z</time>
      </trkpt>
      <trkpt lat="44.77692" lon="3.06167">
        <ele>1074.5</ele>
        <time>2022-07-31T10:07:39Z</time>
      </trkpt>
      <trkpt lat="44.7769" lon="3.06175">
        <ele>1074.7</ele>
        <time>2022-07-31T10:07:44Z</time>
      </trkpt>
      <trkpt lat="44.77686" lon="3.06191">
        <ele>1075.1</ele>
        <time>2022-07-31T10:07:54Z</time>
      </trkpt>
      <trkpt lat="44.77686" lon="3.06193">
        <ele>1075.2</ele>
        <time>2022-07-31T10:07:55Z</time>
      </trkpt>
      <trkpt lat="44.77686" lon="3.06195">
        <ele>1075.3</ele>
        <time>2022-07-31T10:07:56Z</time>
      </trkpt>
      <trkpt lat="44.77686" lon="3.06196">
        <ele>1075.4</ele>
        <time>2022-07-31T10:07:57Z</time>
      </trkpt>
      <trkpt lat="44.77685" lon="3.062">
        <ele>1075.5</ele>
        <time>2022-07-31T10:07:59Z</time>
      </trkpt>
      <trkpt lat="44.77685" lon="3.06203">
        <ele>1075.5</ele>
        <time>2022-07-31T10:08:01Z</time>
      </trkpt>
      <trkpt lat="44.77684" lon="3.06206">
        <ele>1075.6</ele>
        <time>2022-07-31T10:08:03Z</time>
      </trkpt>
      <trkpt lat="44.77684" lon="3.06209">
        <ele>1075.7</ele>
        <time>2022-07-31T10:08:05Z</time>
      </trkpt>
      <trkpt lat="44.77683" lon="3.06211">
        <ele>1075.8</ele>
        <time>2022-07-31T10:08:06Z</time>
      </trkpt>
      <trkpt lat="44.77683" lon="3.06213">
        <ele>1076</ele>
        <time>2022-07-31T10:08:07Z</time>
      </trkpt>
      <trkpt lat="44.77683" lon="3.06216">
        <ele>1076.1</ele>
        <time>2022-07-31T10:08:09Z</time>
      </trkpt>
      <trkpt lat="44.77682" lon="3.06218">
        <ele>1076</ele>
        <time>2022-07-31T10:08:10Z</time>
      </trkpt>
      <trkpt lat="44.77681" lon="3.06221">
        <ele>1076.1</ele>
        <time>2022-07-31T10:08:12Z</time>
      </trkpt>
      <trkpt lat="44.77681" lon="3.06224">
        <ele>1076.3</ele>
        <time>2022-07-31T10:08:14Z</time>
      </trkpt>
      <trkpt lat="44.7768" lon="3.06227">
        <ele>1076.4</ele>
        <time>2022-07-31T10:08:16Z</time>
      </trkpt>
      <trkpt lat="44.7768" lon="3.06228">
        <ele>1076.5</ele>
        <time>2022-07-31T10:08:17Z</time>
      </trkpt>
      <trkpt lat="44.7768" lon="3.0623">
        <ele>1076.5</ele>
        <time>2022-07-31T10:08:18Z</time>
      </trkpt>
      <trkpt lat="44.7768" lon="3.06233">
        <ele>1076.9</ele>
        <time>2022-07-31T10:08:20Z</time>
      </trkpt>
      <trkpt lat="44.77679" lon="3.06235">
        <ele>1077</ele>
        <time>2022-07-31T10:08:21Z</time>
      </trkpt>
      <trkpt lat="44.77679" lon="3.06236">
        <ele>1077</ele>
        <time>2022-07-31T10:08:22Z</time>
      </trkpt>
      <trkpt lat="44.77678" lon="3.06237">
        <ele>1077</ele>
        <time>2022-07-31T10:08:23Z</time>
      </trkpt>
      <trkpt lat="44.77678" lon="3.06241">
        <ele>1077.2</ele>
        <time>2022-07-31T10:08:25Z</time>
      </trkpt>
      <trkpt lat="44.77677" lon="3.06243">
        <ele>1077.3</ele>
        <time>2022-07-31T10:08:27Z</time>
      </trkpt>
      <trkpt lat="44.77677" lon="3.06246">
        <ele>1077.4</ele>
        <time>2022-07-31T10:08:30Z</time>
      </trkpt>
      <trkpt lat="44.77676" lon="3.06246">
        <ele>1077.3</ele>
        <time>2022-07-31T10:08:31Z</time>
      </trkpt>
      <trkpt lat="44.77676" lon="3.06246">
        <ele>1077.3</ele>
        <time>2022-07-31T10:08:32Z</time>
      </trkpt>
      <trkpt lat="44.77676" lon="3.0625">
        <ele>1077.5</ele>
        <time>2022-07-31T10:08:37Z</time>
      </trkpt>
      <trkpt lat="44.77675" lon="3.06251">
        <ele>1077.6</ele>
        <time>2022-07-31T10:08:38Z</time>
      </trkpt>
      <trkpt lat="44.77674" lon="3.06258">
        <ele>1077.6</ele>
        <time>2022-07-31T10:08:42Z</time>
      </trkpt>
      <trkpt lat="44.77674" lon="3.0626">
        <ele>1077.7</ele>
        <time>2022-07-31T10:08:43Z</time>
      </trkpt>
      <trkpt lat="44.77674" lon="3.06262">
        <ele>1077.8</ele>
        <time>2022-07-31T10:08:44Z</time>
      </trkpt>
      <trkpt lat="44.77673" lon="3.06263">
        <ele>1077.8</ele>
        <time>2022-07-31T10:08:45Z</time>
      </trkpt>
      <trkpt lat="44.77673" lon="3.06265">
        <ele>1077.9</ele>
        <time>2022-07-31T10:08:46Z</time>
      </trkpt>
      <trkpt lat="44.77673" lon="3.06266">
        <ele>1077.9</ele>
        <time>2022-07-31T10:08:47Z</time>
      </trkpt>
      <trkpt lat="44.77673" lon="3.06269">
        <ele>1078.1</ele>
        <time>2022-07-31T10:08:49Z</time>
      </trkpt>
      <trkpt lat="44.77673" lon="3.06272">
        <ele>1078.3</ele>
        <time>2022-07-31T10:08:51Z</time>
      </trkpt>
      <trkpt lat="44.77674" lon="3.06275">
        <ele>1078.7</ele>
        <time>2022-07-31T10:08:53Z</time>
      </trkpt>
      <trkpt lat="44.77675" lon="3.06277">
        <ele>1079.1</ele>
        <time>2022-07-31T10:08:57Z</time>
      </trkpt>
      <trkpt lat="44.77675" lon="3.06277">
        <ele>1079.1</ele>
        <time>2022-07-31T10:08:58Z</time>
      </trkpt>
      <trkpt lat="44.77675" lon="3.06276">
        <ele>1079.1</ele>
        <time>2022-07-31T10:08:59Z</time>
      </trkpt>
      <trkpt lat="44.77675" lon="3.06276">
        <ele>1079</ele>
        <time>2022-07-31T10:09:00Z</time>
      </trkpt>
      <trkpt lat="44.77675" lon="3.06276">
        <ele>1078.9</ele>
        <time>2022-07-31T10:09:02Z</time>
      </trkpt>
      <trkpt lat="44.77675" lon="3.06276">
        <ele>1078.9</ele>
        <time>2022-07-31T10:09:03Z</time>
      </trkpt>
      <trkpt lat="44.77674" lon="3.06276">
        <ele>1078.8</ele>
        <time>2022-07-31T10:09:04Z</time>
      </trkpt>
      <trkpt lat="44.77674" lon="3.06276">
        <ele>1078.8</ele>
        <time>2022-07-31T10:09:05Z</time>
      </trkpt>
      <trkpt lat="44.77674" lon="3.06276">
        <ele>1078.8</ele>
        <time>2022-07-31T10:09:06Z</time>
      </trkpt>
      <trkpt lat="44.77674" lon="3.06276">
        <ele>1078.8</ele>
        <time>2022-07-31T10:09:07Z</time>
      </trkpt>
      <trkpt lat="44.77674" lon="3.06276">
        <ele>1078.8</ele>
        <time>2022-07-31T10:09:08Z</time>
      </trkpt>
      <trkpt lat="44.77674" lon="3.06276">
        <ele>1078.8</ele>
        <time>2022-07-31T10:09:09Z</time>
      </trkpt>
      <trkpt lat="44.77674" lon="3.06276">
        <ele>1078.8</ele>
        <time>2022-07-31T10:09:10Z</time>
      </trkpt>
      <trkpt lat="44.77674" lon="3.06276">
        <ele>1078.8</ele>
        <time>2022-07-31T10:09:11Z</time>
      </trkpt>
      <trkpt lat="44.77674" lon="3.06276">
        <ele>1078.8</ele>
        <time>2022-07-31T10:09:18Z</time>
      </trkpt>
      <trkpt lat="44.77674" lon="3.06276">
        <ele>1078.8</ele>
        <time>2022-07-31T10:09:23Z</time>
      </trkpt>
      <trkpt lat="44.77674" lon="3.06276">
        <ele>1078.8</ele>
        <time>2022-07-31T10:09:25Z</time>
      </trkpt>
      <trkpt lat="44.77672" lon="3.06276">
        <ele>1078.3</ele>
        <time>2022-07-31T10:09:29Z</time>
      </trkpt>
      <trkpt lat="44.77674" lon="3.06268">
        <ele>1078.3</ele>
        <time>2022-07-31T10:09:35Z</time>
      </trkpt>
      <trkpt lat="44.77674" lon="3.06267">
        <ele>1078.2</ele>
        <time>2022-07-31T10:09:36Z</time>
      </trkpt>
      <trkpt lat="44.77673" lon="3.06266">
        <ele>1077.9</ele>
        <time>2022-07-31T10:09:37Z</time>
      </trkpt>
      <trkpt lat="44.77673" lon="3.06263">
        <ele>1077.5</ele>
        <time>2022-07-31T10:09:39Z</time>
      </trkpt>
      <trkpt lat="44.77673" lon="3.06265">
        <ele>1077.7</ele>
        <time>2022-07-31T10:09:46Z</time>
      </trkpt>
      <trkpt lat="44.77673" lon="3.06267">
        <ele>1077.8</ele>
        <time>2022-07-31T10:09:47Z</time>
      </trkpt>
      <trkpt lat="44.77673" lon="3.06272">
        <ele>1078.2</ele>
        <time>2022-07-31T10:09:49Z</time>
      </trkpt>
      <trkpt lat="44.77671" lon="3.06279">
        <ele>1078.3</ele>
        <time>2022-07-31T10:09:54Z</time>
      </trkpt>
      <trkpt lat="44.77671" lon="3.06281">
        <ele>1078.3</ele>
        <time>2022-07-31T10:09:55Z</time>
      </trkpt>
      <trkpt lat="44.7767" lon="3.06283">
        <ele>1078.2</ele>
        <time>2022-07-31T10:09:56Z</time>
      </trkpt>
      <trkpt lat="44.7767" lon="3.06286">
        <ele>1078.3</ele>
        <time>2022-07-31T10:09:57Z</time>
      </trkpt>
      <trkpt lat="44.77669" lon="3.06288">
        <ele>1078.3</ele>
        <time>2022-07-31T10:09:58Z</time>
      </trkpt>
      <trkpt lat="44.77669" lon="3.06289">
        <ele>1078.3</ele>
        <time>2022-07-31T10:09:59Z</time>
      </trkpt>
      <trkpt lat="44.77668" lon="3.06291">
        <ele>1078.3</ele>
        <time>2022-07-31T10:10:00Z</time>
      </trkpt>
      <trkpt lat="44.77668" lon="3.06293">
        <ele>1078.4</ele>
        <time>2022-07-31T10:10:01Z</time>
      </trkpt>
      <trkpt lat="44.77668" lon="3.06294">
        <ele>1078.5</ele>
        <time>2022-07-31T10:10:02Z</time>
      </trkpt>
      <trkpt lat="44.77668" lon="3.06296">
        <ele>1078.5</ele>
        <time>2022-07-31T10:10:03Z</time>
      </trkpt>
      <trkpt lat="44.77668" lon="3.06298">
        <ele>1078.7</ele>
        <time>2022-07-31T10:10:04Z</time>
      </trkpt>
      <trkpt lat="44.77668" lon="3.063">
        <ele>1078.8</ele>
        <time>2022-07-31T10:10:05Z</time>
      </trkpt>
      <trkpt lat="44.77668" lon="3.06301">
        <ele>1078.9</ele>
        <time>2022-07-31T10:10:06Z</time>
      </trkpt>
      <trkpt lat="44.77667" lon="3.06303">
        <ele>1079</ele>
        <time>2022-07-31T10:10:07Z</time>
      </trkpt>
      <trkpt lat="44.77667" lon="3.06305">
        <ele>1079</ele>
        <time>2022-07-31T10:10:08Z</time>
      </trkpt>
      <trkpt lat="44.77667" lon="3.06306">
        <ele>1079.2</ele>
        <time>2022-07-31T10:10:09Z</time>
      </trkpt>
      <trkpt lat="44.77668" lon="3.06308">
        <ele>1079.3</ele>
        <time>2022-07-31T10:10:10Z</time>
      </trkpt>
      <trkpt lat="44.77668" lon="3.0631">
        <ele>1079.4</ele>
        <time>2022-07-31T10:10:11Z</time>
      </trkpt>
      <trkpt lat="44.77668" lon="3.06312">
        <ele>1079.5</ele>
        <time>2022-07-31T10:10:12Z</time>
      </trkpt>
      <trkpt lat="44.77669" lon="3.06313">
        <ele>1079.7</ele>
        <time>2022-07-31T10:10:13Z</time>
      </trkpt>
      <trkpt lat="44.77669" lon="3.06315">
        <ele>1079.8</ele>
        <time>2022-07-31T10:10:14Z</time>
      </trkpt>
      <trkpt lat="44.77669" lon="3.06317">
        <ele>1080</ele>
        <time>2022-07-31T10:10:15Z</time>
      </trkpt>
      <trkpt lat="44.7767" lon="3.06319">
        <ele>1080.1</ele>
        <time>2022-07-31T10:10:16Z</time>
      </trkpt>
      <trkpt lat="44.77671" lon="3.06321">
        <ele>1080.3</ele>
        <time>2022-07-31T10:10:17Z</time>
      </trkpt>
      <trkpt lat="44.77672" lon="3.06325">
        <ele>1080.7</ele>
        <time>2022-07-31T10:10:19Z</time>
      </trkpt>
      <trkpt lat="44.77673" lon="3.06328">
        <ele>1081</ele>
        <time>2022-07-31T10:10:21Z</time>
      </trkpt>
      <trkpt lat="44.77673" lon="3.06332">
        <ele>1081.1</ele>
        <time>2022-07-31T10:10:23Z</time>
      </trkpt>
      <trkpt lat="44.77673" lon="3.06334">
        <ele>1081.2</ele>
        <time>2022-07-31T10:10:24Z</time>
      </trkpt>
      <trkpt lat="44.77673" lon="3.06335">
        <ele>1081.1</ele>
        <time>2022-07-31T10:10:25Z</time>
      </trkpt>
      <trkpt lat="44.77672" lon="3.06337">
        <ele>1081.1</ele>
        <time>2022-07-31T10:10:26Z</time>
      </trkpt>
      <trkpt lat="44.77672" lon="3.06339">
        <ele>1081.1</ele>
        <time>2022-07-31T10:10:27Z</time>
      </trkpt>
      <trkpt lat="44.77671" lon="3.06341">
        <ele>1080.9</ele>
        <time>2022-07-31T10:10:29Z</time>
      </trkpt>
      <trkpt lat="44.77669" lon="3.06343">
        <ele>1080.8</ele>
        <time>2022-07-31T10:10:30Z</time>
      </trkpt>
      <trkpt lat="44.77668" lon="3.06346">
        <ele>1080.6</ele>
        <time>2022-07-31T10:10:32Z</time>
      </trkpt>
      <trkpt lat="44.77667" lon="3.06348">
        <ele>1080.5</ele>
        <time>2022-07-31T10:10:33Z</time>
      </trkpt>
      <trkpt lat="44.77666" lon="3.06349">
        <ele>1080.5</ele>
        <time>2022-07-31T10:10:34Z</time>
      </trkpt>
      <trkpt lat="44.77665" lon="3.0635">
        <ele>1080.5</ele>
        <time>2022-07-31T10:10:35Z</time>
      </trkpt>
      <trkpt lat="44.77662" lon="3.06353">
        <ele>1080.4</ele>
        <time>2022-07-31T10:10:38Z</time>
      </trkpt>
      <trkpt lat="44.7766" lon="3.06357">
        <ele>1080.3</ele>
        <time>2022-07-31T10:10:41Z</time>
      </trkpt>
      <trkpt lat="44.77659" lon="3.06358">
        <ele>1080.3</ele>
        <time>2022-07-31T10:10:42Z</time>
      </trkpt>
      <trkpt lat="44.77658" lon="3.06359">
        <ele>1080.3</ele>
        <time>2022-07-31T10:10:43Z</time>
      </trkpt>
      <trkpt lat="44.77657" lon="3.0636">
        <ele>1080.3</ele>
        <time>2022-07-31T10:10:44Z</time>
      </trkpt>
      <trkpt lat="44.77656" lon="3.06362">
        <ele>1080.3</ele>
        <time>2022-07-31T10:10:45Z</time>
      </trkpt>
      <trkpt lat="44.77655" lon="3.06363">
        <ele>1080.2</ele>
        <time>2022-07-31T10:10:46Z</time>
      </trkpt>
      <trkpt lat="44.77654" lon="3.06364">
        <ele>1080.2</ele>
        <time>2022-07-31T10:10:47Z</time>
      </trkpt>
      <trkpt lat="44.77652" lon="3.06367">
        <ele>1080.2</ele>
        <time>2022-07-31T10:10:49Z</time>
      </trkpt>
      <trkpt lat="44.77651" lon="3.06368">
        <ele>1080.2</ele>
        <time>2022-07-31T10:10:50Z</time>
      </trkpt>
      <trkpt lat="44.7764" lon="3.06378">
        <ele>1080.2</ele>
        <time>2022-07-31T10:11:00Z</time>
      </trkpt>
      <trkpt lat="44.7763" lon="3.06387">
        <ele>1080.8</ele>
        <time>2022-07-31T10:11:09Z</time>
      </trkpt>
      <trkpt lat="44.7762" lon="3.06395">
        <ele>1081.5</ele>
        <time>2022-07-31T10:11:17Z</time>
      </trkpt>
      <trkpt lat="44.77612" lon="3.06403">
        <ele>1082</ele>
        <time>2022-07-31T10:11:24Z</time>
      </trkpt>
      <trkpt lat="44.77602" lon="3.06415">
        <ele>1082.6</ele>
        <time>2022-07-31T10:11:34Z</time>
      </trkpt>
      <trkpt lat="44.77593" lon="3.06424">
        <ele>1083.1</ele>
        <time>2022-07-31T10:11:44Z</time>
      </trkpt>
      <trkpt lat="44.77583" lon="3.06438">
        <ele>1084.3</ele>
        <time>2022-07-31T10:11:56Z</time>
      </trkpt>
      <trkpt lat="44.77581" lon="3.06447">
        <ele>1085.1</ele>
        <time>2022-07-31T10:12:02Z</time>
      </trkpt>
      <trkpt lat="44.77581" lon="3.06448">
        <ele>1085.3</ele>
        <time>2022-07-31T10:12:03Z</time>
      </trkpt>
      <trkpt lat="44.77581" lon="3.06452">
        <ele>1085.5</ele>
        <time>2022-07-31T10:12:05Z</time>
      </trkpt>
      <trkpt lat="44.77582" lon="3.06459">
        <ele>1086</ele>
        <time>2022-07-31T10:12:10Z</time>
      </trkpt>
      <trkpt lat="44.77582" lon="3.0646">
        <ele>1086.1</ele>
        <time>2022-07-31T10:12:11Z</time>
      </trkpt>
      <trkpt lat="44.77582" lon="3.06464">
        <ele>1086.4</ele>
        <time>2022-07-31T10:12:14Z</time>
      </trkpt>
      <trkpt lat="44.77582" lon="3.06464">
        <ele>1086.4</ele>
        <time>2022-07-31T10:12:16Z</time>
      </trkpt>
      <trkpt lat="44.77582" lon="3.06465">
        <ele>1086.4</ele>
        <time>2022-07-31T10:12:17Z</time>
      </trkpt>
      <trkpt lat="44.77583" lon="3.06465">
        <ele>1086.5</ele>
        <time>2022-07-31T10:12:19Z</time>
      </trkpt>
      <trkpt lat="44.77582" lon="3.06471">
        <ele>1086.8</ele>
        <time>2022-07-31T10:12:23Z</time>
      </trkpt>
      <trkpt lat="44.77582" lon="3.06472">
        <ele>1087</ele>
        <time>2022-07-31T10:12:24Z</time>
      </trkpt>
      <trkpt lat="44.77582" lon="3.06481">
        <ele>1087.6</ele>
        <time>2022-07-31T10:12:29Z</time>
      </trkpt>
      <trkpt lat="44.77582" lon="3.06482">
        <ele>1087.7</ele>
        <time>2022-07-31T10:12:30Z</time>
      </trkpt>
      <trkpt lat="44.77581" lon="3.06489">
        <ele>1088.1</ele>
        <time>2022-07-31T10:12:34Z</time>
      </trkpt>
      <trkpt lat="44.77581" lon="3.06493">
        <ele>1088.4</ele>
        <time>2022-07-31T10:12:37Z</time>
      </trkpt>
      <trkpt lat="44.77582" lon="3.06505">
        <ele>1089.1</ele>
        <time>2022-07-31T10:12:44Z</time>
      </trkpt>
      <trkpt lat="44.77583" lon="3.06507">
        <ele>1089.2</ele>
        <time>2022-07-31T10:12:45Z</time>
      </trkpt>
      <trkpt lat="44.77584" lon="3.06521">
        <ele>1089.8</ele>
        <time>2022-07-31T10:12:54Z</time>
      </trkpt>
      <trkpt lat="44.77584" lon="3.06523">
        <ele>1089.8</ele>
        <time>2022-07-31T10:12:55Z</time>
      </trkpt>
      <trkpt lat="44.77583" lon="3.06532">
        <ele>1090.2</ele>
        <time>2022-07-31T10:13:01Z</time>
      </trkpt>
      <trkpt lat="44.77582" lon="3.06536">
        <ele>1090.3</ele>
        <time>2022-07-31T10:13:04Z</time>
      </trkpt>
      <trkpt lat="44.77576" lon="3.06553">
        <ele>1090.9</ele>
        <time>2022-07-31T10:13:16Z</time>
      </trkpt>
      <trkpt lat="44.77575" lon="3.06554">
        <ele>1090.9</ele>
        <time>2022-07-31T10:13:17Z</time>
      </trkpt>
      <trkpt lat="44.77572" lon="3.0656">
        <ele>1091.2</ele>
        <time>2022-07-31T10:13:25Z</time>
      </trkpt>
      <trkpt lat="44.77572" lon="3.06561">
        <ele>1091.3</ele>
        <time>2022-07-31T10:13:27Z</time>
      </trkpt>
      <trkpt lat="44.77571" lon="3.06564">
        <ele>1091.4</ele>
        <time>2022-07-31T10:13:34Z</time>
      </trkpt>
      <trkpt lat="44.77569" lon="3.06568">
        <ele>1091.7</ele>
        <time>2022-07-31T10:13:38Z</time>
      </trkpt>
      <trkpt lat="44.77567" lon="3.06572">
        <ele>1091.9</ele>
        <time>2022-07-31T10:13:41Z</time>
      </trkpt>
      <trkpt lat="44.77565" lon="3.06577">
        <ele>1092.3</ele>
        <time>2022-07-31T10:13:45Z</time>
      </trkpt>
      <trkpt lat="44.7756" lon="3.06586">
        <ele>1092.7</ele>
        <time>2022-07-31T10:13:52Z</time>
      </trkpt>
      <trkpt lat="44.77555" lon="3.06597">
        <ele>1092.5</ele>
        <time>2022-07-31T10:14:00Z</time>
      </trkpt>
      <trkpt lat="44.77546" lon="3.06615">
        <ele>1092.8</ele>
        <time>2022-07-31T10:14:13Z</time>
      </trkpt>
      <trkpt lat="44.77544" lon="3.06625">
        <ele>1093.4</ele>
        <time>2022-07-31T10:14:21Z</time>
      </trkpt>
      <trkpt lat="44.77538" lon="3.06636">
        <ele>1094.1</ele>
        <time>2022-07-31T10:14:29Z</time>
      </trkpt>
      <trkpt lat="44.77532" lon="3.0665">
        <ele>1094.7</ele>
        <time>2022-07-31T10:14:39Z</time>
      </trkpt>
      <trkpt lat="44.77527" lon="3.06662">
        <ele>1095.1</ele>
        <time>2022-07-31T10:14:48Z</time>
      </trkpt>
      <trkpt lat="44.77525" lon="3.06666">
        <ele>1095.3</ele>
        <time>2022-07-31T10:14:51Z</time>
      </trkpt>
      <trkpt lat="44.77521" lon="3.06673">
        <ele>1096.1</ele>
        <time>2022-07-31T10:14:56Z</time>
      </trkpt>
      <trkpt lat="44.77518" lon="3.06683">
        <ele>1097</ele>
        <time>2022-07-31T10:15:02Z</time>
      </trkpt>
      <trkpt lat="44.77518" lon="3.06684">
        <ele>1097.1</ele>
        <time>2022-07-31T10:15:03Z</time>
      </trkpt>
      <trkpt lat="44.77512" lon="3.06698">
        <ele>1098.2</ele>
        <time>2022-07-31T10:15:13Z</time>
      </trkpt>
      <trkpt lat="44.77508" lon="3.06709">
        <ele>1098.6</ele>
        <time>2022-07-31T10:15:21Z</time>
      </trkpt>
      <trkpt lat="44.77504" lon="3.06719">
        <ele>1098.8</ele>
        <time>2022-07-31T10:15:28Z</time>
      </trkpt>
      <trkpt lat="44.77502" lon="3.06725">
        <ele>1099.2</ele>
        <time>2022-07-31T10:15:32Z</time>
      </trkpt>
      <trkpt lat="44.77501" lon="3.06727">
        <ele>1099.5</ele>
        <time>2022-07-31T10:15:34Z</time>
      </trkpt>
      <trkpt lat="44.77501" lon="3.06729">
        <ele>1099.7</ele>
        <time>2022-07-31T10:15:35Z</time>
      </trkpt>
      <trkpt lat="44.775" lon="3.06731">
        <ele>1099.9</ele>
        <time>2022-07-31T10:15:37Z</time>
      </trkpt>
      <trkpt lat="44.77499" lon="3.06734">
        <ele>1100.3</ele>
        <time>2022-07-31T10:15:40Z</time>
      </trkpt>
      <trkpt lat="44.77497" lon="3.06744">
        <ele>1101.5</ele>
        <time>2022-07-31T10:15:47Z</time>
      </trkpt>
      <trkpt lat="44.77497" lon="3.06745">
        <ele>1101.7</ele>
        <time>2022-07-31T10:15:48Z</time>
      </trkpt>
      <trkpt lat="44.77496" lon="3.06747">
        <ele>1101.8</ele>
        <time>2022-07-31T10:15:49Z</time>
      </trkpt>
      <trkpt lat="44.77496" lon="3.06748">
        <ele>1102</ele>
        <time>2022-07-31T10:15:50Z</time>
      </trkpt>
      <trkpt lat="44.77495" lon="3.06749">
        <ele>1102.1</ele>
        <time>2022-07-31T10:15:51Z</time>
      </trkpt>
      <trkpt lat="44.77495" lon="3.06751">
        <ele>1102.2</ele>
        <time>2022-07-31T10:15:52Z</time>
      </trkpt>
      <trkpt lat="44.77494" lon="3.06752">
        <ele>1102.3</ele>
        <time>2022-07-31T10:15:53Z</time>
      </trkpt>
      <trkpt lat="44.77494" lon="3.06754">
        <ele>1102.4</ele>
        <time>2022-07-31T10:15:54Z</time>
      </trkpt>
      <trkpt lat="44.77493" lon="3.06755">
        <ele>1102.4</ele>
        <time>2022-07-31T10:15:55Z</time>
      </trkpt>
      <trkpt lat="44.77492" lon="3.06756">
        <ele>1102.5</ele>
        <time>2022-07-31T10:15:56Z</time>
      </trkpt>
      <trkpt lat="44.77492" lon="3.06758">
        <ele>1102.6</ele>
        <time>2022-07-31T10:15:57Z</time>
      </trkpt>
      <trkpt lat="44.77491" lon="3.06759">
        <ele>1102.6</ele>
        <time>2022-07-31T10:15:58Z</time>
      </trkpt>
      <trkpt lat="44.7749" lon="3.0676">
        <ele>1102.7</ele>
        <time>2022-07-31T10:15:59Z</time>
      </trkpt>
      <trkpt lat="44.7749" lon="3.06761">
        <ele>1102.8</ele>
        <time>2022-07-31T10:16:00Z</time>
      </trkpt>
      <trkpt lat="44.7749" lon="3.06761">
        <ele>1102.8</ele>
        <time>2022-07-31T10:16:02Z</time>
      </trkpt>
      <trkpt lat="44.7749" lon="3.06761">
        <ele>1102.8</ele>
        <time>2022-07-31T10:16:03Z</time>
      </trkpt>
      <trkpt lat="44.7749" lon="3.06761">
        <ele>1102.8</ele>
        <time>2022-07-31T10:16:04Z</time>
      </trkpt>
      <trkpt lat="44.7749" lon="3.06761">
        <ele>1102.8</ele>
        <time>2022-07-31T10:16:05Z</time>
      </trkpt>
      <trkpt lat="44.7749" lon="3.06761">
        <ele>1102.8</ele>
        <time>2022-07-31T10:16:06Z</time>
      </trkpt>
      <trkpt lat="44.7749" lon="3.06761">
        <ele>1102.8</ele>
        <time>2022-07-31T10:16:07Z</time>
      </trkpt>
      <trkpt lat="44.7749" lon="3.06761">
        <ele>1102.7</ele>
        <time>2022-07-31T10:16:08Z</time>
      </trkpt>
      <trkpt lat="44.7749" lon="3.06762">
        <ele>1102.8</ele>
        <time>2022-07-31T10:16:10Z</time>
      </trkpt>
      <trkpt lat="44.7749" lon="3.06762">
        <ele>1102.8</ele>
        <time>2022-07-31T10:16:11Z</time>
      </trkpt>
      <trkpt lat="44.7749" lon="3.06762">
        <ele>1102.8</ele>
        <time>2022-07-31T10:16:12Z</time>
      </trkpt>
      <trkpt lat="44.7749" lon="3.06762">
        <ele>1102.8</ele>
        <time>2022-07-31T10:16:13Z</time>
      </trkpt>
      <trkpt lat="44.7749" lon="3.06762">
        <ele>1102.8</ele>
        <time>2022-07-31T10:16:14Z</time>
      </trkpt>
      <trkpt lat="44.7749" lon="3.06762">
        <ele>1102.8</ele>
        <time>2022-07-31T10:16:15Z</time>
      </trkpt>
      <trkpt lat="44.7749" lon="3.06762">
        <ele>1102.8</ele>
        <time>2022-07-31T10:16:18Z</time>
      </trkpt>
      <trkpt lat="44.77489" lon="3.06763">
        <ele>1102.8</ele>
        <time>2022-07-31T10:16:19Z</time>
      </trkpt>
      <trkpt lat="44.77488" lon="3.06765">
        <ele>1102.9</ele>
        <time>2022-07-31T10:16:20Z</time>
      </trkpt>
      <trkpt lat="44.77487" lon="3.06766">
        <ele>1103</ele>
        <time>2022-07-31T10:16:21Z</time>
      </trkpt>
      <trkpt lat="44.77487" lon="3.06768">
        <ele>1103.1</ele>
        <time>2022-07-31T10:16:22Z</time>
      </trkpt>
      <trkpt lat="44.77486" lon="3.0677">
        <ele>1103.2</ele>
        <time>2022-07-31T10:16:23Z</time>
      </trkpt>
      <trkpt lat="44.77485" lon="3.06772">
        <ele>1103.3</ele>
        <time>2022-07-31T10:16:24Z</time>
      </trkpt>
      <trkpt lat="44.77484" lon="3.06774">
        <ele>1103.4</ele>
        <time>2022-07-31T10:16:25Z</time>
      </trkpt>
      <trkpt lat="44.77484" lon="3.06776">
        <ele>1103.5</ele>
        <time>2022-07-31T10:16:26Z</time>
      </trkpt>
      <trkpt lat="44.77483" lon="3.06778">
        <ele>1103.6</ele>
        <time>2022-07-31T10:16:27Z</time>
      </trkpt>
      <trkpt lat="44.77482" lon="3.0678">
        <ele>1103.8</ele>
        <time>2022-07-31T10:16:28Z</time>
      </trkpt>
      <trkpt lat="44.77481" lon="3.06781">
        <ele>1103.8</ele>
        <time>2022-07-31T10:16:29Z</time>
      </trkpt>
      <trkpt lat="44.77481" lon="3.06782">
        <ele>1104</ele>
        <time>2022-07-31T10:16:30Z</time>
      </trkpt>
      <trkpt lat="44.7748" lon="3.06783">
        <ele>1104</ele>
        <time>2022-07-31T10:16:31Z</time>
      </trkpt>
      <trkpt lat="44.7748" lon="3.06784">
        <ele>1104.1</ele>
        <time>2022-07-31T10:16:32Z</time>
      </trkpt>
      <trkpt lat="44.77479" lon="3.06786">
        <ele>1104.3</ele>
        <time>2022-07-31T10:16:33Z</time>
      </trkpt>
      <trkpt lat="44.77478" lon="3.06787">
        <ele>1104.4</ele>
        <time>2022-07-31T10:16:34Z</time>
      </trkpt>
      <trkpt lat="44.77478" lon="3.06788">
        <ele>1104.5</ele>
        <time>2022-07-31T10:16:35Z</time>
      </trkpt>
      <trkpt lat="44.77477" lon="3.0679">
        <ele>1104.6</ele>
        <time>2022-07-31T10:16:36Z</time>
      </trkpt>
      <trkpt lat="44.77477" lon="3.06791">
        <ele>1104.7</ele>
        <time>2022-07-31T10:16:37Z</time>
      </trkpt>
      <trkpt lat="44.77477" lon="3.06793">
        <ele>1104.8</ele>
        <time>2022-07-31T10:16:38Z</time>
      </trkpt>
      <trkpt lat="44.77477" lon="3.06794">
        <ele>1104.9</ele>
        <time>2022-07-31T10:16:39Z</time>
      </trkpt>
      <trkpt lat="44.77476" lon="3.06796">
        <ele>1105.1</ele>
        <time>2022-07-31T10:16:40Z</time>
      </trkpt>
      <trkpt lat="44.77475" lon="3.06797">
        <ele>1105.2</ele>
        <time>2022-07-31T10:16:41Z</time>
      </trkpt>
      <trkpt lat="44.77475" lon="3.06798">
        <ele>1105.3</ele>
        <time>2022-07-31T10:16:42Z</time>
      </trkpt>
      <trkpt lat="44.77474" lon="3.06799">
        <ele>1105.4</ele>
        <time>2022-07-31T10:16:43Z</time>
      </trkpt>
      <trkpt lat="44.77474" lon="3.068">
        <ele>1105.5</ele>
        <time>2022-07-31T10:16:44Z</time>
      </trkpt>
      <trkpt lat="44.77473" lon="3.06802">
        <ele>1105.6</ele>
        <time>2022-07-31T10:16:45Z</time>
      </trkpt>
      <trkpt lat="44.77473" lon="3.06803">
        <ele>1105.7</ele>
        <time>2022-07-31T10:16:46Z</time>
      </trkpt>
      <trkpt lat="44.77473" lon="3.06805">
        <ele>1105.9</ele>
        <time>2022-07-31T10:16:47Z</time>
      </trkpt>
      <trkpt lat="44.77473" lon="3.06806">
        <ele>1106</ele>
        <time>2022-07-31T10:16:48Z</time>
      </trkpt>
      <trkpt lat="44.77472" lon="3.06809">
        <ele>1106.3</ele>
        <time>2022-07-31T10:16:50Z</time>
      </trkpt>
      <trkpt lat="44.77471" lon="3.06813">
        <ele>1106.6</ele>
        <time>2022-07-31T10:16:52Z</time>
      </trkpt>
      <trkpt lat="44.77471" lon="3.06814">
        <ele>1106.7</ele>
        <time>2022-07-31T10:16:53Z</time>
      </trkpt>
      <trkpt lat="44.7747" lon="3.06816">
        <ele>1106.8</ele>
        <time>2022-07-31T10:16:54Z</time>
      </trkpt>
      <trkpt lat="44.7747" lon="3.06817">
        <ele>1106.9</ele>
        <time>2022-07-31T10:16:55Z</time>
      </trkpt>
      <trkpt lat="44.7747" lon="3.06818">
        <ele>1107</ele>
        <time>2022-07-31T10:16:56Z</time>
      </trkpt>
      <trkpt lat="44.77469" lon="3.06822">
        <ele>1107.2</ele>
        <time>2022-07-31T10:16:58Z</time>
      </trkpt>
      <trkpt lat="44.77468" lon="3.06826">
        <ele>1107.5</ele>
        <time>2022-07-31T10:17:01Z</time>
      </trkpt>
      <trkpt lat="44.77465" lon="3.06847">
        <ele>1108.1</ele>
        <time>2022-07-31T10:17:14Z</time>
      </trkpt>
      <trkpt lat="44.77462" lon="3.06862">
        <ele>1108.4</ele>
        <time>2022-07-31T10:17:23Z</time>
      </trkpt>
      <trkpt lat="44.77461" lon="3.06872">
        <ele>1108.7</ele>
        <time>2022-07-31T10:17:29Z</time>
      </trkpt>
      <trkpt lat="44.7746" lon="3.06875">
        <ele>1108.9</ele>
        <time>2022-07-31T10:17:31Z</time>
      </trkpt>
      <trkpt lat="44.77459" lon="3.0688">
        <ele>1109.1</ele>
        <time>2022-07-31T10:17:34Z</time>
      </trkpt>
      <trkpt lat="44.77456" lon="3.06891">
        <ele>1109.8</ele>
        <time>2022-07-31T10:17:41Z</time>
      </trkpt>
      <trkpt lat="44.77453" lon="3.06903">
        <ele>1110.4</ele>
        <time>2022-07-31T10:17:49Z</time>
      </trkpt>
      <trkpt lat="44.77452" lon="3.06904">
        <ele>1110.5</ele>
        <time>2022-07-31T10:17:50Z</time>
      </trkpt>
      <trkpt lat="44.77446" lon="3.06918">
        <ele>1111</ele>
        <time>2022-07-31T10:18:01Z</time>
      </trkpt>
      <trkpt lat="44.77444" lon="3.06921">
        <ele>1111.2</ele>
        <time>2022-07-31T10:18:03Z</time>
      </trkpt>
      <trkpt lat="44.77439" lon="3.0693">
        <ele>1111.8</ele>
        <time>2022-07-31T10:18:10Z</time>
      </trkpt>
      <trkpt lat="44.77436" lon="3.06937">
        <ele>1112.1</ele>
        <time>2022-07-31T10:18:15Z</time>
      </trkpt>
      <trkpt lat="44.77433" lon="3.06941">
        <ele>1112.4</ele>
        <time>2022-07-31T10:18:19Z</time>
      </trkpt>
      <trkpt lat="44.77426" lon="3.06955">
        <ele>1113</ele>
        <time>2022-07-31T10:18:29Z</time>
      </trkpt>
      <trkpt lat="44.77425" lon="3.06959">
        <ele>1113.2</ele>
        <time>2022-07-31T10:18:32Z</time>
      </trkpt>
      <trkpt lat="44.77422" lon="3.06968">
        <ele>1113.7</ele>
        <time>2022-07-31T10:18:38Z</time>
      </trkpt>
      <trkpt lat="44.7742" lon="3.06971">
        <ele>1113.8</ele>
        <time>2022-07-31T10:18:43Z</time>
      </trkpt>
      <trkpt lat="44.7742" lon="3.06971">
        <ele>1113.8</ele>
        <time>2022-07-31T10:18:44Z</time>
      </trkpt>
      <trkpt lat="44.7742" lon="3.06972">
        <ele>1113.9</ele>
        <time>2022-07-31T10:18:52Z</time>
      </trkpt>
      <trkpt lat="44.77417" lon="3.0698">
        <ele>1114</ele>
        <time>2022-07-31T10:19:05Z</time>
      </trkpt>
      <trkpt lat="44.7741" lon="3.06998">
        <ele>1114.7</ele>
        <time>2022-07-31T10:19:15Z</time>
      </trkpt>
      <trkpt lat="44.77405" lon="3.07012">
        <ele>1115.5</ele>
        <time>2022-07-31T10:19:25Z</time>
      </trkpt>
      <trkpt lat="44.77404" lon="3.07017">
        <ele>1115.7</ele>
        <time>2022-07-31T10:19:28Z</time>
      </trkpt>
      <trkpt lat="44.774" lon="3.07026">
        <ele>1116.2</ele>
        <time>2022-07-31T10:19:34Z</time>
      </trkpt>
      <trkpt lat="44.77392" lon="3.07045">
        <ele>1117.4</ele>
        <time>2022-07-31T10:19:47Z</time>
      </trkpt>
      <trkpt lat="44.77388" lon="3.07057">
        <ele>1118.1</ele>
        <time>2022-07-31T10:19:56Z</time>
      </trkpt>
      <trkpt lat="44.77383" lon="3.07071">
        <ele>1118.7</ele>
        <time>2022-07-31T10:20:05Z</time>
      </trkpt>
      <trkpt lat="44.77382" lon="3.07075">
        <ele>1118.9</ele>
        <time>2022-07-31T10:20:08Z</time>
      </trkpt>
      <trkpt lat="44.77379" lon="3.07084">
        <ele>1119.4</ele>
        <time>2022-07-31T10:20:15Z</time>
      </trkpt>
      <trkpt lat="44.77379" lon="3.07087">
        <ele>1119.5</ele>
        <time>2022-07-31T10:20:17Z</time>
      </trkpt>
      <trkpt lat="44.77377" lon="3.07095">
        <ele>1119.9</ele>
        <time>2022-07-31T10:20:23Z</time>
      </trkpt>
      <trkpt lat="44.77375" lon="3.07101">
        <ele>1120.1</ele>
        <time>2022-07-31T10:20:30Z</time>
      </trkpt>
      <trkpt lat="44.77375" lon="3.07104">
        <ele>1120.2</ele>
        <time>2022-07-31T10:20:37Z</time>
      </trkpt>
      <trkpt lat="44.77373" lon="3.07114">
        <ele>1120.5</ele>
        <time>2022-07-31T10:20:44Z</time>
      </trkpt>
      <trkpt lat="44.77371" lon="3.07128">
        <ele>1120.7</ele>
        <time>2022-07-31T10:20:52Z</time>
      </trkpt>
      <trkpt lat="44.77371" lon="3.07129">
        <ele>1120.8</ele>
        <time>2022-07-31T10:20:53Z</time>
      </trkpt>
      <trkpt lat="44.77369" lon="3.07137">
        <ele>1121</ele>
        <time>2022-07-31T10:20:58Z</time>
      </trkpt>
      <trkpt lat="44.77369" lon="3.07139">
        <ele>1121</ele>
        <time>2022-07-31T10:20:59Z</time>
      </trkpt>
      <trkpt lat="44.77366" lon="3.07149">
        <ele>1121.6</ele>
        <time>2022-07-31T10:21:06Z</time>
      </trkpt>
      <trkpt lat="44.77363" lon="3.07158">
        <ele>1122.3</ele>
        <time>2022-07-31T10:21:12Z</time>
      </trkpt>
      <trkpt lat="44.77361" lon="3.07164">
        <ele>1122.8</ele>
        <time>2022-07-31T10:21:15Z</time>
      </trkpt>
      <trkpt lat="44.77359" lon="3.07174">
        <ele>1123.2</ele>
        <time>2022-07-31T10:21:23Z</time>
      </trkpt>
      <trkpt lat="44.77351" lon="3.07195">
        <ele>1124</ele>
        <time>2022-07-31T10:21:38Z</time>
      </trkpt>
      <trkpt lat="44.77345" lon="3.07208">
        <ele>1124.5</ele>
        <time>2022-07-31T10:21:47Z</time>
      </trkpt>
      <trkpt lat="44.77339" lon="3.0722">
        <ele>1124.9</ele>
        <time>2022-07-31T10:21:56Z</time>
      </trkpt>
      <trkpt lat="44.77331" lon="3.07231">
        <ele>1125.3</ele>
        <time>2022-07-31T10:22:05Z</time>
      </trkpt>
      <trkpt lat="44.77324" lon="3.07245">
        <ele>1125.8</ele>
        <time>2022-07-31T10:22:15Z</time>
      </trkpt>
      <trkpt lat="44.77319" lon="3.07256">
        <ele>1126.3</ele>
        <time>2022-07-31T10:22:23Z</time>
      </trkpt>
      <trkpt lat="44.77313" lon="3.07268">
        <ele>1126.8</ele>
        <time>2022-07-31T10:22:31Z</time>
      </trkpt>
      <trkpt lat="44.77305" lon="3.07284">
        <ele>1127.5</ele>
        <time>2022-07-31T10:22:43Z</time>
      </trkpt>
      <trkpt lat="44.77294" lon="3.07299">
        <ele>1128.2</ele>
        <time>2022-07-31T10:22:55Z</time>
      </trkpt>
      <trkpt lat="44.77287" lon="3.07307">
        <ele>1128.4</ele>
        <time>2022-07-31T10:23:04Z</time>
      </trkpt>
      <trkpt lat="44.77286" lon="3.07307">
        <ele>1128.4</ele>
        <time>2022-07-31T10:23:05Z</time>
      </trkpt>
      <trkpt lat="44.77287" lon="3.07306">
        <ele>1128.3</ele>
        <time>2022-07-31T10:23:12Z</time>
      </trkpt>
      <trkpt lat="44.77282" lon="3.0731">
        <ele>1128.5</ele>
        <time>2022-07-31T10:23:23Z</time>
      </trkpt>
      <trkpt lat="44.77271" lon="3.07324">
        <ele>1129.3</ele>
        <time>2022-07-31T10:23:34Z</time>
      </trkpt>
      <trkpt lat="44.77269" lon="3.07327">
        <ele>1129.5</ele>
        <time>2022-07-31T10:23:37Z</time>
      </trkpt>
      <trkpt lat="44.77269" lon="3.07327">
        <ele>1129.6</ele>
        <time>2022-07-31T10:23:38Z</time>
      </trkpt>
      <trkpt lat="44.77268" lon="3.07327">
        <ele>1129.6</ele>
        <time>2022-07-31T10:23:40Z</time>
      </trkpt>
      <trkpt lat="44.77265" lon="3.07334">
        <ele>1130</ele>
        <time>2022-07-31T10:23:54Z</time>
      </trkpt>
      <trkpt lat="44.77258" lon="3.07345">
        <ele>1130.7</ele>
        <time>2022-07-31T10:24:03Z</time>
      </trkpt>
      <trkpt lat="44.77252" lon="3.07351">
        <ele>1131.3</ele>
        <time>2022-07-31T10:24:10Z</time>
      </trkpt>
      <trkpt lat="44.77251" lon="3.07351">
        <ele>1131.3</ele>
        <time>2022-07-31T10:24:12Z</time>
      </trkpt>
      <trkpt lat="44.77249" lon="3.07356">
        <ele>1131.6</ele>
        <time>2022-07-31T10:24:21Z</time>
      </trkpt>
      <trkpt lat="44.77241" lon="3.07372">
        <ele>1132.2</ele>
        <time>2022-07-31T10:24:33Z</time>
      </trkpt>
      <trkpt lat="44.77239" lon="3.07376">
        <ele>1132.4</ele>
        <time>2022-07-31T10:24:36Z</time>
      </trkpt>
      <trkpt lat="44.77233" lon="3.07391">
        <ele>1133</ele>
        <time>2022-07-31T10:24:46Z</time>
      </trkpt>
      <trkpt lat="44.77231" lon="3.07394">
        <ele>1133.1</ele>
        <time>2022-07-31T10:24:48Z</time>
      </trkpt>
      <trkpt lat="44.77228" lon="3.07408">
        <ele>1133.1</ele>
        <time>2022-07-31T10:24:57Z</time>
      </trkpt>
      <trkpt lat="44.77225" lon="3.07417">
        <ele>1133.1</ele>
        <time>2022-07-31T10:25:04Z</time>
      </trkpt>
      <trkpt lat="44.77222" lon="3.07428">
        <ele>1133.4</ele>
        <time>2022-07-31T10:25:12Z</time>
      </trkpt>
      <trkpt lat="44.77222" lon="3.0743">
        <ele>1133.4</ele>
        <time>2022-07-31T10:25:16Z</time>
      </trkpt>
      <trkpt lat="44.77222" lon="3.0743">
        <ele>1133.4</ele>
        <time>2022-07-31T10:25:17Z</time>
      </trkpt>
      <trkpt lat="44.77222" lon="3.0743">
        <ele>1133.4</ele>
        <time>2022-07-31T10:25:18Z</time>
      </trkpt>
      <trkpt lat="44.77222" lon="3.0743">
        <ele>1133.5</ele>
        <time>2022-07-31T10:25:20Z</time>
      </trkpt>
      <trkpt lat="44.77222" lon="3.07432">
        <ele>1133.6</ele>
        <time>2022-07-31T10:25:26Z</time>
      </trkpt>
      <trkpt lat="44.77222" lon="3.07435">
        <ele>1133.6</ele>
        <time>2022-07-31T10:25:33Z</time>
      </trkpt>
      <trkpt lat="44.77222" lon="3.07434">
        <ele>1133.6</ele>
        <time>2022-07-31T10:25:40Z</time>
      </trkpt>
      <trkpt lat="44.77221" lon="3.07435">
        <ele>1133.6</ele>
        <time>2022-07-31T10:26:13Z</time>
      </trkpt>
      <trkpt lat="44.77224" lon="3.07447">
        <ele>1134.2</ele>
        <time>2022-07-31T10:26:20Z</time>
      </trkpt>
      <trkpt lat="44.77228" lon="3.07457">
        <ele>1134.8</ele>
        <time>2022-07-31T10:26:26Z</time>
      </trkpt>
      <trkpt lat="44.77228" lon="3.07465">
        <ele>1135.2</ele>
        <time>2022-07-31T10:26:31Z</time>
      </trkpt>
      <trkpt lat="44.77227" lon="3.07466">
        <ele>1135.1</ele>
        <time>2022-07-31T10:26:32Z</time>
      </trkpt>
      <trkpt lat="44.77226" lon="3.07466">
        <ele>1135</ele>
        <time>2022-07-31T10:26:34Z</time>
      </trkpt>
      <trkpt lat="44.77227" lon="3.07466">
        <ele>1135.1</ele>
        <time>2022-07-31T10:26:36Z</time>
      </trkpt>
      <trkpt lat="44.77228" lon="3.07469">
        <ele>1135.3</ele>
        <time>2022-07-31T10:26:38Z</time>
      </trkpt>
      <trkpt lat="44.77231" lon="3.07482">
        <ele>1135.8</ele>
        <time>2022-07-31T10:26:45Z</time>
      </trkpt>
      <trkpt lat="44.77235" lon="3.07495">
        <ele>1136.3</ele>
        <time>2022-07-31T10:26:52Z</time>
      </trkpt>
      <trkpt lat="44.77237" lon="3.07498">
        <ele>1136.5</ele>
        <time>2022-07-31T10:26:54Z</time>
      </trkpt>
      <trkpt lat="44.77239" lon="3.07507">
        <ele>1136.9</ele>
        <time>2022-07-31T10:27:00Z</time>
      </trkpt>
      <trkpt lat="44.77239" lon="3.07507">
        <ele>1136.9</ele>
        <time>2022-07-31T10:27:01Z</time>
      </trkpt>
      <trkpt lat="44.7724" lon="3.07511">
        <ele>1137.1</ele>
        <time>2022-07-31T10:27:03Z</time>
      </trkpt>
      <trkpt lat="44.77239" lon="3.07516">
        <ele>1137</ele>
        <time>2022-07-31T10:27:08Z</time>
      </trkpt>
      <trkpt lat="44.77239" lon="3.07516">
        <ele>1137</ele>
        <time>2022-07-31T10:27:09Z</time>
      </trkpt>
      <trkpt lat="44.77239" lon="3.07517">
        <ele>1137</ele>
        <time>2022-07-31T10:27:10Z</time>
      </trkpt>
      <trkpt lat="44.77242" lon="3.07525">
        <ele>1137.4</ele>
        <time>2022-07-31T10:27:16Z</time>
      </trkpt>
      <trkpt lat="44.77244" lon="3.07533">
        <ele>1137.6</ele>
        <time>2022-07-31T10:27:22Z</time>
      </trkpt>
      <trkpt lat="44.77245" lon="3.07546">
        <ele>1138</ele>
        <time>2022-07-31T10:27:30Z</time>
      </trkpt>
      <trkpt lat="44.77246" lon="3.07549">
        <ele>1138.3</ele>
        <time>2022-07-31T10:27:33Z</time>
      </trkpt>
      <trkpt lat="44.77248" lon="3.07552">
        <ele>1138.7</ele>
        <time>2022-07-31T10:27:35Z</time>
      </trkpt>
      <trkpt lat="44.77252" lon="3.07563">
        <ele>1139.2</ele>
        <time>2022-07-31T10:27:41Z</time>
      </trkpt>
      <trkpt lat="44.77252" lon="3.07573">
        <ele>1139.2</ele>
        <time>2022-07-31T10:27:48Z</time>
      </trkpt>
      <trkpt lat="44.77254" lon="3.07583">
        <ele>1139.4</ele>
        <time>2022-07-31T10:27:55Z</time>
      </trkpt>
      <trkpt lat="44.77255" lon="3.07596">
        <ele>1139.9</ele>
        <time>2022-07-31T10:28:03Z</time>
      </trkpt>
      <trkpt lat="44.77256" lon="3.07601">
        <ele>1140.2</ele>
        <time>2022-07-31T10:28:06Z</time>
      </trkpt>
      <trkpt lat="44.77257" lon="3.07608">
        <ele>1140.4</ele>
        <time>2022-07-31T10:28:10Z</time>
      </trkpt>
      <trkpt lat="44.77257" lon="3.0761">
        <ele>1140.5</ele>
        <time>2022-07-31T10:28:12Z</time>
      </trkpt>
      <trkpt lat="44.77256" lon="3.07615">
        <ele>1140.4</ele>
        <time>2022-07-31T10:28:15Z</time>
      </trkpt>
      <trkpt lat="44.77256" lon="3.07623">
        <ele>1140.6</ele>
        <time>2022-07-31T10:28:20Z</time>
      </trkpt>
      <trkpt lat="44.77257" lon="3.07628">
        <ele>1140.7</ele>
        <time>2022-07-31T10:28:23Z</time>
      </trkpt>
      <trkpt lat="44.77257" lon="3.07631">
        <ele>1140.7</ele>
        <time>2022-07-31T10:28:25Z</time>
      </trkpt>
      <trkpt lat="44.77258" lon="3.07632">
        <ele>1140.8</ele>
        <time>2022-07-31T10:28:26Z</time>
      </trkpt>
      <trkpt lat="44.77258" lon="3.07636">
        <ele>1140.9</ele>
        <time>2022-07-31T10:28:29Z</time>
      </trkpt>
      <trkpt lat="44.77258" lon="3.07638">
        <ele>1140.9</ele>
        <time>2022-07-31T10:28:30Z</time>
      </trkpt>
      <trkpt lat="44.77259" lon="3.07647">
        <ele>1141.2</ele>
        <time>2022-07-31T10:28:35Z</time>
      </trkpt>
      <trkpt lat="44.7726" lon="3.07652">
        <ele>1141.5</ele>
        <time>2022-07-31T10:28:38Z</time>
      </trkpt>
      <trkpt lat="44.7726" lon="3.07653">
        <ele>1141.5</ele>
        <time>2022-07-31T10:28:39Z</time>
      </trkpt>
      <trkpt lat="44.77263" lon="3.07664">
        <ele>1142.3</ele>
        <time>2022-07-31T10:28:46Z</time>
      </trkpt>
      <trkpt lat="44.77264" lon="3.07669">
        <ele>1142.6</ele>
        <time>2022-07-31T10:28:49Z</time>
      </trkpt>
      <trkpt lat="44.77265" lon="3.07677">
        <ele>1143</ele>
        <time>2022-07-31T10:28:54Z</time>
      </trkpt>
      <trkpt lat="44.77267" lon="3.07697">
        <ele>1143.9</ele>
        <time>2022-07-31T10:29:06Z</time>
      </trkpt>
      <trkpt lat="44.77268" lon="3.07702">
        <ele>1144.2</ele>
        <time>2022-07-31T10:29:10Z</time>
      </trkpt>
      <trkpt lat="44.77269" lon="3.07712">
        <ele>1144.5</ele>
        <time>2022-07-31T10:29:16Z</time>
      </trkpt>
      <trkpt lat="44.7727" lon="3.07717">
        <ele>1144.7</ele>
        <time>2022-07-31T10:29:19Z</time>
      </trkpt>
      <trkpt lat="44.7727" lon="3.07724">
        <ele>1144.9</ele>
        <time>2022-07-31T10:29:24Z</time>
      </trkpt>
      <trkpt lat="44.7727" lon="3.07724">
        <ele>1144.9</ele>
        <time>2022-07-31T10:29:25Z</time>
      </trkpt>
      <trkpt lat="44.7727" lon="3.07724">
        <ele>1145</ele>
        <time>2022-07-31T10:29:27Z</time>
      </trkpt>
      <trkpt lat="44.7727" lon="3.07723">
        <ele>1144.9</ele>
        <time>2022-07-31T10:29:34Z</time>
      </trkpt>
      <trkpt lat="44.77271" lon="3.07732">
        <ele>1145.4</ele>
        <time>2022-07-31T10:29:41Z</time>
      </trkpt>
      <trkpt lat="44.77271" lon="3.07739">
        <ele>1145.8</ele>
        <time>2022-07-31T10:29:48Z</time>
      </trkpt>
      <trkpt lat="44.77272" lon="3.07747">
        <ele>1146.2</ele>
        <time>2022-07-31T10:29:54Z</time>
      </trkpt>
      <trkpt lat="44.77272" lon="3.0775">
        <ele>1146.4</ele>
        <time>2022-07-31T10:29:56Z</time>
      </trkpt>
      <trkpt lat="44.77274" lon="3.07761">
        <ele>1147</ele>
        <time>2022-07-31T10:30:03Z</time>
      </trkpt>
      <trkpt lat="44.77276" lon="3.07767">
        <ele>1147.4</ele>
        <time>2022-07-31T10:30:07Z</time>
      </trkpt>
      <trkpt lat="44.77278" lon="3.07774">
        <ele>1147.8</ele>
        <time>2022-07-31T10:30:11Z</time>
      </trkpt>
      <trkpt lat="44.77279" lon="3.07778">
        <ele>1148.1</ele>
        <time>2022-07-31T10:30:14Z</time>
      </trkpt>
      <trkpt lat="44.77282" lon="3.07789">
        <ele>1148.7</ele>
        <time>2022-07-31T10:30:21Z</time>
      </trkpt>
      <trkpt lat="44.77282" lon="3.07794">
        <ele>1148.9</ele>
        <time>2022-07-31T10:30:24Z</time>
      </trkpt>
      <trkpt lat="44.77284" lon="3.07808">
        <ele>1149.5</ele>
        <time>2022-07-31T10:30:33Z</time>
      </trkpt>
      <trkpt lat="44.77285" lon="3.07812">
        <ele>1149.8</ele>
        <time>2022-07-31T10:30:36Z</time>
      </trkpt>
      <trkpt lat="44.77286" lon="3.07817">
        <ele>1150</ele>
        <time>2022-07-31T10:30:39Z</time>
      </trkpt>
      <trkpt lat="44.77286" lon="3.07819">
        <ele>1150.1</ele>
        <time>2022-07-31T10:30:40Z</time>
      </trkpt>
      <trkpt lat="44.77288" lon="3.07825">
        <ele>1150.4</ele>
        <time>2022-07-31T10:30:44Z</time>
      </trkpt>
      <trkpt lat="44.77288" lon="3.07827">
        <ele>1150.5</ele>
        <time>2022-07-31T10:30:45Z</time>
      </trkpt>
      <trkpt lat="44.77291" lon="3.07843">
        <ele>1151.3</ele>
        <time>2022-07-31T10:30:55Z</time>
      </trkpt>
      <trkpt lat="44.77291" lon="3.07847">
        <ele>1151.4</ele>
        <time>2022-07-31T10:30:57Z</time>
      </trkpt>
      <trkpt lat="44.77293" lon="3.07857">
        <ele>1151.9</ele>
        <time>2022-07-31T10:31:03Z</time>
      </trkpt>
      <trkpt lat="44.77295" lon="3.07867">
        <ele>1152.3</ele>
        <time>2022-07-31T10:31:09Z</time>
      </trkpt>
      <trkpt lat="44.77299" lon="3.07892">
        <ele>1153.3</ele>
        <time>2022-07-31T10:31:24Z</time>
      </trkpt>
      <trkpt lat="44.77302" lon="3.07905">
        <ele>1153.6</ele>
        <time>2022-07-31T10:31:32Z</time>
      </trkpt>
      <trkpt lat="44.77303" lon="3.07921">
        <ele>1153.9</ele>
        <time>2022-07-31T10:31:41Z</time>
      </trkpt>
      <trkpt lat="44.77304" lon="3.07923">
        <ele>1154</ele>
        <time>2022-07-31T10:31:42Z</time>
      </trkpt>
      <trkpt lat="44.77305" lon="3.07928">
        <ele>1154.4</ele>
        <time>2022-07-31T10:31:48Z</time>
      </trkpt>
      <trkpt lat="44.77305" lon="3.07929">
        <ele>1154.3</ele>
        <time>2022-07-31T10:31:52Z</time>
      </trkpt>
      <trkpt lat="44.77304" lon="3.07929">
        <ele>1154.3</ele>
        <time>2022-07-31T10:31:55Z</time>
      </trkpt>
      <trkpt lat="44.77305" lon="3.07932">
        <ele>1154.5</ele>
        <time>2022-07-31T10:32:06Z</time>
      </trkpt>
      <trkpt lat="44.77307" lon="3.07948">
        <ele>1155.1</ele>
        <time>2022-07-31T10:32:14Z</time>
      </trkpt>
      <trkpt lat="44.77308" lon="3.07956">
        <ele>1155.1</ele>
        <time>2022-07-31T10:32:21Z</time>
      </trkpt>
      <trkpt lat="44.77308" lon="3.07955">
        <ele>1155.1</ele>
        <time>2022-07-31T10:32:22Z</time>
      </trkpt>
      <trkpt lat="44.77308" lon="3.07954">
        <ele>1155.1</ele>
        <time>2022-07-31T10:32:23Z</time>
      </trkpt>
      <trkpt lat="44.77308" lon="3.07951">
        <ele>1155.1</ele>
        <time>2022-07-31T10:32:28Z</time>
      </trkpt>
      <trkpt lat="44.77309" lon="3.07954">
        <ele>1155.2</ele>
        <time>2022-07-31T10:32:32Z</time>
      </trkpt>
      <trkpt lat="44.77309" lon="3.07955">
        <ele>1155.2</ele>
        <time>2022-07-31T10:32:33Z</time>
      </trkpt>
      <trkpt lat="44.77311" lon="3.07962">
        <ele>1155.3</ele>
        <time>2022-07-31T10:32:37Z</time>
      </trkpt>
      <trkpt lat="44.77312" lon="3.07963">
        <ele>1155.4</ele>
        <time>2022-07-31T10:32:38Z</time>
      </trkpt>
      <trkpt lat="44.77314" lon="3.07972">
        <ele>1155.6</ele>
        <time>2022-07-31T10:32:43Z</time>
      </trkpt>
      <trkpt lat="44.77315" lon="3.07976">
        <ele>1155.8</ele>
        <time>2022-07-31T10:32:45Z</time>
      </trkpt>
      <trkpt lat="44.77316" lon="3.07979">
        <ele>1155.9</ele>
        <time>2022-07-31T10:32:47Z</time>
      </trkpt>
      <trkpt lat="44.77317" lon="3.07983">
        <ele>1156.1</ele>
        <time>2022-07-31T10:32:50Z</time>
      </trkpt>
      <trkpt lat="44.77318" lon="3.07988">
        <ele>1156.2</ele>
        <time>2022-07-31T10:32:52Z</time>
      </trkpt>
      <trkpt lat="44.77322" lon="3.07995">
        <ele>1156.5</ele>
        <time>2022-07-31T10:32:57Z</time>
      </trkpt>
      <trkpt lat="44.77323" lon="3.08">
        <ele>1156.6</ele>
        <time>2022-07-31T10:33:00Z</time>
      </trkpt>
      <trkpt lat="44.77321" lon="3.08008">
        <ele>1156.6</ele>
        <time>2022-07-31T10:33:05Z</time>
      </trkpt>
      <trkpt lat="44.77321" lon="3.08011">
        <ele>1156.6</ele>
        <time>2022-07-31T10:33:06Z</time>
      </trkpt>
      <trkpt lat="44.77322" lon="3.08016">
        <ele>1156.6</ele>
        <time>2022-07-31T10:33:10Z</time>
      </trkpt>
      <trkpt lat="44.77324" lon="3.0803">
        <ele>1156.6</ele>
        <time>2022-07-31T10:33:18Z</time>
      </trkpt>
      <trkpt lat="44.77326" lon="3.08042">
        <ele>1156.6</ele>
        <time>2022-07-31T10:33:25Z</time>
      </trkpt>
      <trkpt lat="44.77326" lon="3.08043">
        <ele>1156.6</ele>
        <time>2022-07-31T10:33:26Z</time>
      </trkpt>
      <trkpt lat="44.77329" lon="3.08059">
        <ele>1156.6</ele>
        <time>2022-07-31T10:33:35Z</time>
      </trkpt>
      <trkpt lat="44.77329" lon="3.08063">
        <ele>1156.5</ele>
        <time>2022-07-31T10:33:37Z</time>
      </trkpt>
      <trkpt lat="44.77332" lon="3.08077">
        <ele>1156.2</ele>
        <time>2022-07-31T10:33:46Z</time>
      </trkpt>
      <trkpt lat="44.77334" lon="3.08091">
        <ele>1156.3</ele>
        <time>2022-07-31T10:33:54Z</time>
      </trkpt>
      <trkpt lat="44.77335" lon="3.08106">
        <ele>1156.9</ele>
        <time>2022-07-31T10:34:03Z</time>
      </trkpt>
      <trkpt lat="44.77337" lon="3.08112">
        <ele>1157.2</ele>
        <time>2022-07-31T10:34:07Z</time>
      </trkpt>
      <trkpt lat="44.77337" lon="3.08116">
        <ele>1157.3</ele>
        <time>2022-07-31T10:34:10Z</time>
      </trkpt>
      <trkpt lat="44.77337" lon="3.08116">
        <ele>1157.3</ele>
        <time>2022-07-31T10:34:12Z</time>
      </trkpt>
      <trkpt lat="44.77338" lon="3.08119">
        <ele>1157.4</ele>
        <time>2022-07-31T10:34:14Z</time>
      </trkpt>
      <trkpt lat="44.77338" lon="3.0812">
        <ele>1157.5</ele>
        <time>2022-07-31T10:34:15Z</time>
      </trkpt>
      <trkpt lat="44.77339" lon="3.08127">
        <ele>1157.8</ele>
        <time>2022-07-31T10:34:19Z</time>
      </trkpt>
      <trkpt lat="44.7734" lon="3.08133">
        <ele>1158</ele>
        <time>2022-07-31T10:34:23Z</time>
      </trkpt>
      <trkpt lat="44.7734" lon="3.08135">
        <ele>1158.1</ele>
        <time>2022-07-31T10:34:24Z</time>
      </trkpt>
      <trkpt lat="44.77342" lon="3.08149">
        <ele>1158.6</ele>
        <time>2022-07-31T10:34:32Z</time>
      </trkpt>
      <trkpt lat="44.77342" lon="3.08154">
        <ele>1158.7</ele>
        <time>2022-07-31T10:34:35Z</time>
      </trkpt>
      <trkpt lat="44.77345" lon="3.08165">
        <ele>1159</ele>
        <time>2022-07-31T10:34:42Z</time>
      </trkpt>
      <trkpt lat="44.77345" lon="3.08166">
        <ele>1159</ele>
        <time>2022-07-31T10:34:43Z</time>
      </trkpt>
      <trkpt lat="44.77347" lon="3.08174">
        <ele>1159.3</ele>
        <time>2022-07-31T10:34:48Z</time>
      </trkpt>
      <trkpt lat="44.77348" lon="3.08182">
        <ele>1159.6</ele>
        <time>2022-07-31T10:34:53Z</time>
      </trkpt>
      <trkpt lat="44.77349" lon="3.08187">
        <ele>1159.7</ele>
        <time>2022-07-31T10:34:56Z</time>
      </trkpt>
      <trkpt lat="44.77352" lon="3.08201">
        <ele>1160.2</ele>
        <time>2022-07-31T10:35:05Z</time>
      </trkpt>
      <trkpt lat="44.77355" lon="3.08213">
        <ele>1160.7</ele>
        <time>2022-07-31T10:35:13Z</time>
      </trkpt>
      <trkpt lat="44.77355" lon="3.08217">
        <ele>1160.8</ele>
        <time>2022-07-31T10:35:15Z</time>
      </trkpt>
      <trkpt lat="44.77356" lon="3.08223">
        <ele>1161</ele>
        <time>2022-07-31T10:35:19Z</time>
      </trkpt>
      <trkpt lat="44.77359" lon="3.08236">
        <ele>1161.5</ele>
        <time>2022-07-31T10:35:27Z</time>
      </trkpt>
      <trkpt lat="44.77361" lon="3.08247">
        <ele>1161.9</ele>
        <time>2022-07-31T10:35:34Z</time>
      </trkpt>
      <trkpt lat="44.77362" lon="3.0825">
        <ele>1162</ele>
        <time>2022-07-31T10:35:36Z</time>
      </trkpt>
      <trkpt lat="44.77363" lon="3.08258">
        <ele>1162.9</ele>
        <time>2022-07-31T10:35:41Z</time>
      </trkpt>
      <trkpt lat="44.77363" lon="3.0826">
        <ele>1163.1</ele>
        <time>2022-07-31T10:35:42Z</time>
      </trkpt>
      <trkpt lat="44.77364" lon="3.08263">
        <ele>1163.4</ele>
        <time>2022-07-31T10:35:44Z</time>
      </trkpt>
      <trkpt lat="44.77367" lon="3.08278">
        <ele>1164.8</ele>
        <time>2022-07-31T10:35:54Z</time>
      </trkpt>
      <trkpt lat="44.77369" lon="3.08292">
        <ele>1165.2</ele>
        <time>2022-07-31T10:36:03Z</time>
      </trkpt>
      <trkpt lat="44.77369" lon="3.08296">
        <ele>1165.4</ele>
        <time>2022-07-31T10:36:05Z</time>
      </trkpt>
      <trkpt lat="44.77367" lon="3.08315">
        <ele>1166.1</ele>
        <time>2022-07-31T10:36:16Z</time>
      </trkpt>
      <trkpt lat="44.77365" lon="3.08326">
        <ele>1166.6</ele>
        <time>2022-07-31T10:36:23Z</time>
      </trkpt>
      <trkpt lat="44.7736" lon="3.0834">
        <ele>1167</ele>
        <time>2022-07-31T10:36:32Z</time>
      </trkpt>
      <trkpt lat="44.77355" lon="3.08356">
        <ele>1167</ele>
        <time>2022-07-31T10:36:43Z</time>
      </trkpt>
      <trkpt lat="44.77351" lon="3.08369">
        <ele>1167.3</ele>
        <time>2022-07-31T10:36:51Z</time>
      </trkpt>
      <trkpt lat="44.77349" lon="3.08377">
        <ele>1167.6</ele>
        <time>2022-07-31T10:36:56Z</time>
      </trkpt>
      <trkpt lat="44.77349" lon="3.08382">
        <ele>1167.7</ele>
        <time>2022-07-31T10:36:59Z</time>
      </trkpt>
      <trkpt lat="44.77348" lon="3.08384">
        <ele>1167.8</ele>
        <time>2022-07-31T10:37:01Z</time>
      </trkpt>
      <trkpt lat="44.77344" lon="3.084">
        <ele>1168</ele>
        <time>2022-07-31T10:37:10Z</time>
      </trkpt>
      <trkpt lat="44.77344" lon="3.08402">
        <ele>1168</ele>
        <time>2022-07-31T10:37:11Z</time>
      </trkpt>
      <trkpt lat="44.77343" lon="3.08414">
        <ele>1168</ele>
        <time>2022-07-31T10:37:18Z</time>
      </trkpt>
      <trkpt lat="44.77342" lon="3.08421">
        <ele>1167.9</ele>
        <time>2022-07-31T10:37:22Z</time>
      </trkpt>
      <trkpt lat="44.77342" lon="3.08426">
        <ele>1167.7</ele>
        <time>2022-07-31T10:37:25Z</time>
      </trkpt>
      <trkpt lat="44.7734" lon="3.08442">
        <ele>1167.1</ele>
        <time>2022-07-31T10:37:34Z</time>
      </trkpt>
      <trkpt lat="44.77339" lon="3.08454">
        <ele>1166.6</ele>
        <time>2022-07-31T10:37:43Z</time>
      </trkpt>
      <trkpt lat="44.77339" lon="3.08454">
        <ele>1166.7</ele>
        <time>2022-07-31T10:37:44Z</time>
      </trkpt>
      <trkpt lat="44.77339" lon="3.08454">
        <ele>1166.7</ele>
        <time>2022-07-31T10:37:45Z</time>
      </trkpt>
      <trkpt lat="44.77338" lon="3.08453">
        <ele>1166.7</ele>
        <time>2022-07-31T10:37:50Z</time>
      </trkpt>
      <trkpt lat="44.77338" lon="3.08457">
        <ele>1166.6</ele>
        <time>2022-07-31T10:38:06Z</time>
      </trkpt>
      <trkpt lat="44.77336" lon="3.08469">
        <ele>1166.1</ele>
        <time>2022-07-31T10:38:12Z</time>
      </trkpt>
      <trkpt lat="44.77335" lon="3.08474">
        <ele>1166</ele>
        <time>2022-07-31T10:38:14Z</time>
      </trkpt>
      <trkpt lat="44.77334" lon="3.08487">
        <ele>1166</ele>
        <time>2022-07-31T10:38:22Z</time>
      </trkpt>
      <trkpt lat="44.77334" lon="3.08492">
        <ele>1166</ele>
        <time>2022-07-31T10:38:25Z</time>
      </trkpt>
      <trkpt lat="44.77335" lon="3.08502">
        <ele>1165.9</ele>
        <time>2022-07-31T10:38:30Z</time>
      </trkpt>
      <trkpt lat="44.77336" lon="3.08505">
        <ele>1165.7</ele>
        <time>2022-07-31T10:38:32Z</time>
      </trkpt>
      <trkpt lat="44.77339" lon="3.0851">
        <ele>1165.4</ele>
        <time>2022-07-31T10:38:35Z</time>
      </trkpt>
      <trkpt lat="44.77346" lon="3.08514">
        <ele>1165</ele>
        <time>2022-07-31T10:38:42Z</time>
      </trkpt>
      <trkpt lat="44.77354" lon="3.08508">
        <ele>1165</ele>
        <time>2022-07-31T10:38:51Z</time>
      </trkpt>
      <trkpt lat="44.77363" lon="3.08506">
        <ele>1164.7</ele>
        <time>2022-07-31T10:38:59Z</time>
      </trkpt>
      <trkpt lat="44.77364" lon="3.08506">
        <ele>1164.7</ele>
        <time>2022-07-31T10:39:00Z</time>
      </trkpt>
      <trkpt lat="44.77375" lon="3.08506">
        <ele>1164.3</ele>
        <time>2022-07-31T10:39:08Z</time>
      </trkpt>
      <trkpt lat="44.77387" lon="3.08505">
        <ele>1163.9</ele>
        <time>2022-07-31T10:39:17Z</time>
      </trkpt>
      <trkpt lat="44.77389" lon="3.08505">
        <ele>1163.8</ele>
        <time>2022-07-31T10:39:18Z</time>
      </trkpt>
      <trkpt lat="44.77402" lon="3.08504">
        <ele>1163.5</ele>
        <time>2022-07-31T10:39:29Z</time>
      </trkpt>
      <trkpt lat="44.77417" lon="3.08501">
        <ele>1163</ele>
        <time>2022-07-31T10:39:41Z</time>
      </trkpt>
      <trkpt lat="44.7743" lon="3.08501">
        <ele>1163</ele>
        <time>2022-07-31T10:39:51Z</time>
      </trkpt>
      <trkpt lat="44.77437" lon="3.08499">
        <ele>1163</ele>
        <time>2022-07-31T10:39:57Z</time>
      </trkpt>
      <trkpt lat="44.77439" lon="3.08499">
        <ele>1163</ele>
        <time>2022-07-31T10:39:59Z</time>
      </trkpt>
      <trkpt lat="44.77448" lon="3.08498">
        <ele>1162.9</ele>
        <time>2022-07-31T10:40:07Z</time>
      </trkpt>
      <trkpt lat="44.77463" lon="3.08499">
        <ele>1162.3</ele>
        <time>2022-07-31T10:40:19Z</time>
      </trkpt>
      <trkpt lat="44.77474" lon="3.08502">
        <ele>1162</ele>
        <time>2022-07-31T10:40:28Z</time>
      </trkpt>
      <trkpt lat="44.77486" lon="3.08502">
        <ele>1162</ele>
        <time>2022-07-31T10:40:38Z</time>
      </trkpt>
      <trkpt lat="44.77489" lon="3.08503">
        <ele>1162</ele>
        <time>2022-07-31T10:40:40Z</time>
      </trkpt>
      <trkpt lat="44.77492" lon="3.08504">
        <ele>1162</ele>
        <time>2022-07-31T10:40:42Z</time>
      </trkpt>
      <trkpt lat="44.77496" lon="3.08505">
        <ele>1162</ele>
        <time>2022-07-31T10:40:46Z</time>
      </trkpt>
      <trkpt lat="44.77497" lon="3.08505">
        <ele>1162</ele>
        <time>2022-07-31T10:40:48Z</time>
      </trkpt>
      <trkpt lat="44.77499" lon="3.08505">
        <ele>1162</ele>
        <time>2022-07-31T10:40:49Z</time>
      </trkpt>
      <trkpt lat="44.77502" lon="3.08507">
        <ele>1161.9</ele>
        <time>2022-07-31T10:40:52Z</time>
      </trkpt>
      <trkpt lat="44.77507" lon="3.08509">
        <ele>1161.8</ele>
        <time>2022-07-31T10:40:56Z</time>
      </trkpt>
      <trkpt lat="44.7751" lon="3.0851">
        <ele>1161.6</ele>
        <time>2022-07-31T10:40:59Z</time>
      </trkpt>
      <trkpt lat="44.77512" lon="3.0851">
        <ele>1161.6</ele>
        <time>2022-07-31T10:41:01Z</time>
      </trkpt>
      <trkpt lat="44.77513" lon="3.08511">
        <ele>1161.5</ele>
        <time>2022-07-31T10:41:02Z</time>
      </trkpt>
      <trkpt lat="44.77514" lon="3.08511">
        <ele>1161.5</ele>
        <time>2022-07-31T10:41:03Z</time>
      </trkpt>
      <trkpt lat="44.7752" lon="3.08512">
        <ele>1161.3</ele>
        <time>2022-07-31T10:41:08Z</time>
      </trkpt>
      <trkpt lat="44.77522" lon="3.08514">
        <ele>1161.2</ele>
        <time>2022-07-31T10:41:11Z</time>
      </trkpt>
      <trkpt lat="44.77525" lon="3.08515">
        <ele>1161.1</ele>
        <time>2022-07-31T10:41:15Z</time>
      </trkpt>
      <trkpt lat="44.77526" lon="3.08515">
        <ele>1161.1</ele>
        <time>2022-07-31T10:41:17Z</time>
      </trkpt>
      <trkpt lat="44.77529" lon="3.08519">
        <ele>1161</ele>
        <time>2022-07-31T10:41:19Z</time>
      </trkpt>
      <trkpt lat="44.77534" lon="3.08522">
        <ele>1160.8</ele>
        <time>2022-07-31T10:41:22Z</time>
      </trkpt>
      <trkpt lat="44.77538" lon="3.08523">
        <ele>1160.6</ele>
        <time>2022-07-31T10:41:27Z</time>
      </trkpt>
      <trkpt lat="44.77544" lon="3.08525">
        <ele>1160.4</ele>
        <time>2022-07-31T10:41:33Z</time>
      </trkpt>
      <trkpt lat="44.77545" lon="3.08526">
        <ele>1160.4</ele>
        <time>2022-07-31T10:41:34Z</time>
      </trkpt>
      <trkpt lat="44.77554" lon="3.08527">
        <ele>1160.1</ele>
        <time>2022-07-31T10:41:41Z</time>
      </trkpt>
      <trkpt lat="44.77564" lon="3.08533">
        <ele>1159.4</ele>
        <time>2022-07-31T10:41:47Z</time>
      </trkpt>
      <trkpt lat="44.77569" lon="3.08538">
        <ele>1159.1</ele>
        <time>2022-07-31T10:41:51Z</time>
      </trkpt>
      <trkpt lat="44.77572" lon="3.08539">
        <ele>1158.8</ele>
        <time>2022-07-31T10:41:53Z</time>
      </trkpt>
      <trkpt lat="44.77575" lon="3.08539">
        <ele>1158.6</ele>
        <time>2022-07-31T10:41:55Z</time>
      </trkpt>
      <trkpt lat="44.77577" lon="3.0854">
        <ele>1158.5</ele>
        <time>2022-07-31T10:41:56Z</time>
      </trkpt>
      <trkpt lat="44.77578" lon="3.08541">
        <ele>1158.4</ele>
        <time>2022-07-31T10:41:57Z</time>
      </trkpt>
      <trkpt lat="44.77585" lon="3.0854">
        <ele>1157.9</ele>
        <time>2022-07-31T10:42:02Z</time>
      </trkpt>
      <trkpt lat="44.77586" lon="3.0854">
        <ele>1157.8</ele>
        <time>2022-07-31T10:42:03Z</time>
      </trkpt>
      <trkpt lat="44.77595" lon="3.08535">
        <ele>1157.2</ele>
        <time>2022-07-31T10:42:10Z</time>
      </trkpt>
      <trkpt lat="44.77605" lon="3.08533">
        <ele>1156.4</ele>
        <time>2022-07-31T10:42:19Z</time>
      </trkpt>
      <trkpt lat="44.77609" lon="3.08532">
        <ele>1156.2</ele>
        <time>2022-07-31T10:42:22Z</time>
      </trkpt>
      <trkpt lat="44.7761" lon="3.08531">
        <ele>1156.1</ele>
        <time>2022-07-31T10:42:24Z</time>
      </trkpt>
      <trkpt lat="44.77613" lon="3.08532">
        <ele>1155.8</ele>
        <time>2022-07-31T10:42:26Z</time>
      </trkpt>
      <trkpt lat="44.77616" lon="3.08534">
        <ele>1155.5</ele>
        <time>2022-07-31T10:42:28Z</time>
      </trkpt>
      <trkpt lat="44.77616" lon="3.08534">
        <ele>1155.4</ele>
        <time>2022-07-31T10:42:29Z</time>
      </trkpt>
      <trkpt lat="44.77622" lon="3.08535">
        <ele>1154.8</ele>
        <time>2022-07-31T10:42:34Z</time>
      </trkpt>
      <trkpt lat="44.77627" lon="3.08534">
        <ele>1154.3</ele>
        <time>2022-07-31T10:42:38Z</time>
      </trkpt>
      <trkpt lat="44.77628" lon="3.08535">
        <ele>1154.2</ele>
        <time>2022-07-31T10:42:39Z</time>
      </trkpt>
      <trkpt lat="44.7763" lon="3.08537">
        <ele>1154</ele>
        <time>2022-07-31T10:42:41Z</time>
      </trkpt>
      <trkpt lat="44.77631" lon="3.08537">
        <ele>1153.9</ele>
        <time>2022-07-31T10:42:42Z</time>
      </trkpt>
      <trkpt lat="44.77641" lon="3.08537">
        <ele>1152.9</ele>
        <time>2022-07-31T10:42:50Z</time>
      </trkpt>
      <trkpt lat="44.77644" lon="3.08536">
        <ele>1152.7</ele>
        <time>2022-07-31T10:42:53Z</time>
      </trkpt>
      <trkpt lat="44.77649" lon="3.08538">
        <ele>1152.4</ele>
        <time>2022-07-31T10:42:57Z</time>
      </trkpt>
      <trkpt lat="44.77652" lon="3.08537">
        <ele>1152.2</ele>
        <time>2022-07-31T10:43:00Z</time>
      </trkpt>
      <trkpt lat="44.77656" lon="3.08536">
        <ele>1151.9</ele>
        <time>2022-07-31T10:43:03Z</time>
      </trkpt>
      <trkpt lat="44.77663" lon="3.08535">
        <ele>1151.5</ele>
        <time>2022-07-31T10:43:07Z</time>
      </trkpt>
      <trkpt lat="44.77665" lon="3.08536">
        <ele>1151.4</ele>
        <time>2022-07-31T10:43:09Z</time>
      </trkpt>
      <trkpt lat="44.77668" lon="3.08539">
        <ele>1151.3</ele>
        <time>2022-07-31T10:43:11Z</time>
      </trkpt>
      <trkpt lat="44.77668" lon="3.08539">
        <ele>1151.3</ele>
        <time>2022-07-31T10:43:12Z</time>
      </trkpt>
      <trkpt lat="44.77669" lon="3.08538">
        <ele>1151.2</ele>
        <time>2022-07-31T10:43:13Z</time>
      </trkpt>
      <trkpt lat="44.77671" lon="3.08539">
        <ele>1151.1</ele>
        <time>2022-07-31T10:43:15Z</time>
      </trkpt>
      <trkpt lat="44.77673" lon="3.08541">
        <ele>1150.9</ele>
        <time>2022-07-31T10:43:17Z</time>
      </trkpt>
      <trkpt lat="44.77676" lon="3.08543">
        <ele>1150.7</ele>
        <time>2022-07-31T10:43:19Z</time>
      </trkpt>
      <trkpt lat="44.77681" lon="3.08546">
        <ele>1150.3</ele>
        <time>2022-07-31T10:43:22Z</time>
      </trkpt>
      <trkpt lat="44.77681" lon="3.08546">
        <ele>1150.3</ele>
        <time>2022-07-31T10:43:23Z</time>
      </trkpt>
      <trkpt lat="44.77681" lon="3.08545">
        <ele>1150.3</ele>
        <time>2022-07-31T10:43:24Z</time>
      </trkpt>
      <trkpt lat="44.77679" lon="3.08546">
        <ele>1150.4</ele>
        <time>2022-07-31T10:43:25Z</time>
      </trkpt>
      <trkpt lat="44.77679" lon="3.08545">
        <ele>1150.4</ele>
        <time>2022-07-31T10:43:29Z</time>
      </trkpt>
      <trkpt lat="44.77679" lon="3.08545">
        <ele>1150.4</ele>
        <time>2022-07-31T10:43:31Z</time>
      </trkpt>
      <trkpt lat="44.7768" lon="3.08545">
        <ele>1150.4</ele>
        <time>2022-07-31T10:43:32Z</time>
      </trkpt>
      <trkpt lat="44.77681" lon="3.08546">
        <ele>1150.3</ele>
        <time>2022-07-31T10:43:33Z</time>
      </trkpt>
      <trkpt lat="44.77684" lon="3.08547">
        <ele>1150</ele>
        <time>2022-07-31T10:43:37Z</time>
      </trkpt>
      <trkpt lat="44.77682" lon="3.08547">
        <ele>1150.2</ele>
        <time>2022-07-31T10:43:43Z</time>
      </trkpt>
      <trkpt lat="44.77682" lon="3.08548">
        <ele>1150.2</ele>
        <time>2022-07-31T10:43:44Z</time>
      </trkpt>
      <trkpt lat="44.77683" lon="3.08553">
        <ele>1150.2</ele>
        <time>2022-07-31T10:43:48Z</time>
      </trkpt>
      <trkpt lat="44.77683" lon="3.08554">
        <ele>1150.2</ele>
        <time>2022-07-31T10:43:50Z</time>
      </trkpt>
      <trkpt lat="44.77684" lon="3.08555">
        <ele>1150.2</ele>
        <time>2022-07-31T10:43:52Z</time>
      </trkpt>
      <trkpt lat="44.77684" lon="3.08555">
        <ele>1150.2</ele>
        <time>2022-07-31T10:43:53Z</time>
      </trkpt>
      <trkpt lat="44.77684" lon="3.08555">
        <ele>1150.2</ele>
        <time>2022-07-31T10:43:54Z</time>
      </trkpt>
      <trkpt lat="44.77684" lon="3.08556">
        <ele>1150.2</ele>
        <time>2022-07-31T10:43:55Z</time>
      </trkpt>
      <trkpt lat="44.77683" lon="3.08556">
        <ele>1150.2</ele>
        <time>2022-07-31T10:43:56Z</time>
      </trkpt>
      <trkpt lat="44.77683" lon="3.08556">
        <ele>1150.2</ele>
        <time>2022-07-31T10:43:57Z</time>
      </trkpt>
      <trkpt lat="44.77683" lon="3.08556">
        <ele>1150.2</ele>
        <time>2022-07-31T10:43:58Z</time>
      </trkpt>
      <trkpt lat="44.77684" lon="3.08555">
        <ele>1150.2</ele>
        <time>2022-07-31T10:43:59Z</time>
      </trkpt>
      <trkpt lat="44.77684" lon="3.08556">
        <ele>1150.1</ele>
        <time>2022-07-31T10:44:00Z</time>
      </trkpt>
      <trkpt lat="44.77685" lon="3.08556">
        <ele>1150</ele>
        <time>2022-07-31T10:44:01Z</time>
      </trkpt>
      <trkpt lat="44.77686" lon="3.08558">
        <ele>1149.9</ele>
        <time>2022-07-31T10:44:02Z</time>
      </trkpt>
      <trkpt lat="44.77687" lon="3.08558">
        <ele>1149.9</ele>
        <time>2022-07-31T10:44:03Z</time>
      </trkpt>
      <trkpt lat="44.77687" lon="3.08559">
        <ele>1149.8</ele>
        <time>2022-07-31T10:44:04Z</time>
      </trkpt>
      <trkpt lat="44.77687" lon="3.0856">
        <ele>1149.8</ele>
        <time>2022-07-31T10:44:05Z</time>
      </trkpt>
      <trkpt lat="44.77687" lon="3.0856">
        <ele>1149.8</ele>
        <time>2022-07-31T10:44:06Z</time>
      </trkpt>
      <trkpt lat="44.77687" lon="3.0856">
        <ele>1149.8</ele>
        <time>2022-07-31T10:44:07Z</time>
      </trkpt>
      <trkpt lat="44.77688" lon="3.0856">
        <ele>1149.8</ele>
        <time>2022-07-31T10:44:08Z</time>
      </trkpt>
      <trkpt lat="44.77688" lon="3.0856">
        <ele>1149.7</ele>
        <time>2022-07-31T10:44:09Z</time>
      </trkpt>
      <trkpt lat="44.77688" lon="3.08559">
        <ele>1149.7</ele>
        <time>2022-07-31T10:44:10Z</time>
      </trkpt>
      <trkpt lat="44.77688" lon="3.08559">
        <ele>1149.7</ele>
        <time>2022-07-31T10:44:11Z</time>
      </trkpt>
      <trkpt lat="44.77688" lon="3.08558">
        <ele>1149.8</ele>
        <time>2022-07-31T10:44:12Z</time>
      </trkpt>
      <trkpt lat="44.77687" lon="3.08558">
        <ele>1149.8</ele>
        <time>2022-07-31T10:44:13Z</time>
      </trkpt>
      <trkpt lat="44.77687" lon="3.0856">
        <ele>1149.8</ele>
        <time>2022-07-31T10:44:14Z</time>
      </trkpt>
      <trkpt lat="44.77687" lon="3.08562">
        <ele>1149.8</ele>
        <time>2022-07-31T10:44:16Z</time>
      </trkpt>
      <trkpt lat="44.77687" lon="3.08562">
        <ele>1149.9</ele>
        <time>2022-07-31T10:44:17Z</time>
      </trkpt>
      <trkpt lat="44.77687" lon="3.08561">
        <ele>1149.8</ele>
        <time>2022-07-31T10:44:18Z</time>
      </trkpt>
      <trkpt lat="44.77687" lon="3.08561">
        <ele>1149.8</ele>
        <time>2022-07-31T10:44:19Z</time>
      </trkpt>
      <trkpt lat="44.77688" lon="3.08561">
        <ele>1149.8</ele>
        <time>2022-07-31T10:44:20Z</time>
      </trkpt>
      <trkpt lat="44.77688" lon="3.08561">
        <ele>1149.7</ele>
        <time>2022-07-31T10:44:21Z</time>
      </trkpt>
      <trkpt lat="44.77689" lon="3.08562">
        <ele>1149.6</ele>
        <time>2022-07-31T10:44:22Z</time>
      </trkpt>
      <trkpt lat="44.7769" lon="3.08562">
        <ele>1149.5</ele>
        <time>2022-07-31T10:44:23Z</time>
      </trkpt>
      <trkpt lat="44.77691" lon="3.08564">
        <ele>1149.4</ele>
        <time>2022-07-31T10:44:24Z</time>
      </trkpt>
      <trkpt lat="44.77691" lon="3.08565">
        <ele>1149.3</ele>
        <time>2022-07-31T10:44:25Z</time>
      </trkpt>
      <trkpt lat="44.77692" lon="3.08566">
        <ele>1149.2</ele>
        <time>2022-07-31T10:44:26Z</time>
      </trkpt>
      <trkpt lat="44.77693" lon="3.08568">
        <ele>1149.1</ele>
        <time>2022-07-31T10:44:27Z</time>
      </trkpt>
      <trkpt lat="44.77694" lon="3.08571">
        <ele>1149</ele>
        <time>2022-07-31T10:44:29Z</time>
      </trkpt>
      <trkpt lat="44.77695" lon="3.08573">
        <ele>1148.9</ele>
        <time>2022-07-31T10:44:30Z</time>
      </trkpt>
      <trkpt lat="44.77696" lon="3.08575">
        <ele>1148.8</ele>
        <time>2022-07-31T10:44:31Z</time>
      </trkpt>
      <trkpt lat="44.77697" lon="3.08576">
        <ele>1148.7</ele>
        <time>2022-07-31T10:44:32Z</time>
      </trkpt>
      <trkpt lat="44.77698" lon="3.08578">
        <ele>1148.6</ele>
        <time>2022-07-31T10:44:33Z</time>
      </trkpt>
      <trkpt lat="44.777" lon="3.0858">
        <ele>1148.5</ele>
        <time>2022-07-31T10:44:34Z</time>
      </trkpt>
      <trkpt lat="44.77701" lon="3.08582">
        <ele>1148.3</ele>
        <time>2022-07-31T10:44:35Z</time>
      </trkpt>
      <trkpt lat="44.77702" lon="3.08585">
        <ele>1148.2</ele>
        <time>2022-07-31T10:44:36Z</time>
      </trkpt>
      <trkpt lat="44.77703" lon="3.08587">
        <ele>1148.1</ele>
        <time>2022-07-31T10:44:37Z</time>
      </trkpt>
      <trkpt lat="44.77704" lon="3.08589">
        <ele>1148</ele>
        <time>2022-07-31T10:44:38Z</time>
      </trkpt>
      <trkpt lat="44.77705" lon="3.08593">
        <ele>1147.8</ele>
        <time>2022-07-31T10:44:40Z</time>
      </trkpt>
      <trkpt lat="44.77706" lon="3.08596">
        <ele>1147.7</ele>
        <time>2022-07-31T10:44:42Z</time>
      </trkpt>
      <trkpt lat="44.77706" lon="3.08598">
        <ele>1147.7</ele>
        <time>2022-07-31T10:44:43Z</time>
      </trkpt>
      <trkpt lat="44.77709" lon="3.08605">
        <ele>1147.5</ele>
        <time>2022-07-31T10:44:47Z</time>
      </trkpt>
      <trkpt lat="44.77709" lon="3.08608">
        <ele>1147.4</ele>
        <time>2022-07-31T10:44:49Z</time>
      </trkpt>
      <trkpt lat="44.77714" lon="3.08614">
        <ele>1146.8</ele>
        <time>2022-07-31T10:44:55Z</time>
      </trkpt>
      <trkpt lat="44.77715" lon="3.08615">
        <ele>1146.7</ele>
        <time>2022-07-31T10:44:57Z</time>
      </trkpt>
      <trkpt lat="44.77721" lon="3.08613">
        <ele>1146.1</ele>
        <time>2022-07-31T10:45:01Z</time>
      </trkpt>
      <trkpt lat="44.77724" lon="3.08613">
        <ele>1145.9</ele>
        <time>2022-07-31T10:45:04Z</time>
      </trkpt>
      <trkpt lat="44.77727" lon="3.08614">
        <ele>1145.6</ele>
        <time>2022-07-31T10:45:07Z</time>
      </trkpt>
      <trkpt lat="44.77734" lon="3.08615">
        <ele>1145.2</ele>
        <time>2022-07-31T10:45:12Z</time>
      </trkpt>
      <trkpt lat="44.77739" lon="3.08613">
        <ele>1144.8</ele>
        <time>2022-07-31T10:45:16Z</time>
      </trkpt>
      <trkpt lat="44.7774" lon="3.08613">
        <ele>1144.8</ele>
        <time>2022-07-31T10:45:17Z</time>
      </trkpt>
      <trkpt lat="44.77741" lon="3.08612">
        <ele>1144.7</ele>
        <time>2022-07-31T10:45:18Z</time>
      </trkpt>
      <trkpt lat="44.77743" lon="3.08611">
        <ele>1144.5</ele>
        <time>2022-07-31T10:45:20Z</time>
      </trkpt>
      <trkpt lat="44.77746" lon="3.0861">
        <ele>1144.3</ele>
        <time>2022-07-31T10:45:22Z</time>
      </trkpt>
      <trkpt lat="44.77748" lon="3.08611">
        <ele>1144.1</ele>
        <time>2022-07-31T10:45:24Z</time>
      </trkpt>
      <trkpt lat="44.77749" lon="3.08611">
        <ele>1144.1</ele>
        <time>2022-07-31T10:45:25Z</time>
      </trkpt>
      <trkpt lat="44.77755" lon="3.0861">
        <ele>1143.8</ele>
        <time>2022-07-31T10:45:29Z</time>
      </trkpt>
      <trkpt lat="44.77758" lon="3.08609">
        <ele>1143.7</ele>
        <time>2022-07-31T10:45:32Z</time>
      </trkpt>
      <trkpt lat="44.77762" lon="3.08609">
        <ele>1143.5</ele>
        <time>2022-07-31T10:45:35Z</time>
      </trkpt>
      <trkpt lat="44.77774" lon="3.08607">
        <ele>1143</ele>
        <time>2022-07-31T10:45:44Z</time>
      </trkpt>
      <trkpt lat="44.77784" lon="3.08606">
        <ele>1142.6</ele>
        <time>2022-07-31T10:45:52Z</time>
      </trkpt>
      <trkpt lat="44.77791" lon="3.08604">
        <ele>1142.3</ele>
        <time>2022-07-31T10:45:58Z</time>
      </trkpt>
      <trkpt lat="44.77797" lon="3.08603">
        <ele>1142</ele>
        <time>2022-07-31T10:46:03Z</time>
      </trkpt>
      <trkpt lat="44.77801" lon="3.08602">
        <ele>1141.9</ele>
        <time>2022-07-31T10:46:06Z</time>
      </trkpt>
      <trkpt lat="44.77804" lon="3.08601">
        <ele>1141.7</ele>
        <time>2022-07-31T10:46:09Z</time>
      </trkpt>
      <trkpt lat="44.77807" lon="3.086">
        <ele>1141.5</ele>
        <time>2022-07-31T10:46:12Z</time>
      </trkpt>
      <trkpt lat="44.77809" lon="3.08599">
        <ele>1141.5</ele>
        <time>2022-07-31T10:46:13Z</time>
      </trkpt>
      <trkpt lat="44.77814" lon="3.08598">
        <ele>1141.2</ele>
        <time>2022-07-31T10:46:18Z</time>
      </trkpt>
      <trkpt lat="44.77826" lon="3.08594">
        <ele>1140.6</ele>
        <time>2022-07-31T10:46:28Z</time>
      </trkpt>
      <trkpt lat="44.77842" lon="3.0859">
        <ele>1139.7</ele>
        <time>2022-07-31T10:46:41Z</time>
      </trkpt>
      <trkpt lat="44.77848" lon="3.0859">
        <ele>1139.3</ele>
        <time>2022-07-31T10:46:46Z</time>
      </trkpt>
      <trkpt lat="44.77853" lon="3.0859">
        <ele>1139</ele>
        <time>2022-07-31T10:46:50Z</time>
      </trkpt>
      <trkpt lat="44.77865" lon="3.08588">
        <ele>1138.1</ele>
        <time>2022-07-31T10:47:00Z</time>
      </trkpt>
      <trkpt lat="44.77867" lon="3.08588">
        <ele>1137.9</ele>
        <time>2022-07-31T10:47:02Z</time>
      </trkpt>
      <trkpt lat="44.77869" lon="3.08586">
        <ele>1137.6</ele>
        <time>2022-07-31T10:47:04Z</time>
      </trkpt>
      <trkpt lat="44.77871" lon="3.08586">
        <ele>1137.4</ele>
        <time>2022-07-31T10:47:06Z</time>
      </trkpt>
      <trkpt lat="44.77874" lon="3.08585">
        <ele>1137.2</ele>
        <time>2022-07-31T10:47:08Z</time>
      </trkpt>
      <trkpt lat="44.77882" lon="3.0858">
        <ele>1136.4</ele>
        <time>2022-07-31T10:47:17Z</time>
      </trkpt>
      <trkpt lat="44.77883" lon="3.08579">
        <ele>1136.3</ele>
        <time>2022-07-31T10:47:19Z</time>
      </trkpt>
      <trkpt lat="44.77884" lon="3.08578">
        <ele>1136.2</ele>
        <time>2022-07-31T10:47:20Z</time>
      </trkpt>
      <trkpt lat="44.77885" lon="3.08578">
        <ele>1136.1</ele>
        <time>2022-07-31T10:47:21Z</time>
      </trkpt>
      <trkpt lat="44.77886" lon="3.08577">
        <ele>1136</ele>
        <time>2022-07-31T10:47:22Z</time>
      </trkpt>
      <trkpt lat="44.77887" lon="3.08576">
        <ele>1135.9</ele>
        <time>2022-07-31T10:47:23Z</time>
      </trkpt>
      <trkpt lat="44.77891" lon="3.08573">
        <ele>1135.6</ele>
        <time>2022-07-31T10:47:26Z</time>
      </trkpt>
      <trkpt lat="44.77892" lon="3.0857">
        <ele>1135.4</ele>
        <time>2022-07-31T10:47:28Z</time>
      </trkpt>
      <trkpt lat="44.77893" lon="3.08569">
        <ele>1135.4</ele>
        <time>2022-07-31T10:47:29Z</time>
      </trkpt>
      <trkpt lat="44.77894" lon="3.08566">
        <ele>1135.2</ele>
        <time>2022-07-31T10:47:31Z</time>
      </trkpt>
      <trkpt lat="44.77895" lon="3.08562">
        <ele>1135</ele>
        <time>2022-07-31T10:47:33Z</time>
      </trkpt>
      <trkpt lat="44.77897" lon="3.08559">
        <ele>1134.8</ele>
        <time>2022-07-31T10:47:35Z</time>
      </trkpt>
      <trkpt lat="44.77898" lon="3.08559">
        <ele>1134.8</ele>
        <time>2022-07-31T10:47:36Z</time>
      </trkpt>
      <trkpt lat="44.77898" lon="3.08559">
        <ele>1134.8</ele>
        <time>2022-07-31T10:47:37Z</time>
      </trkpt>
      <trkpt lat="44.779" lon="3.08558">
        <ele>1134.7</ele>
        <time>2022-07-31T10:47:38Z</time>
      </trkpt>
      <trkpt lat="44.77901" lon="3.08559">
        <ele>1134.7</ele>
        <time>2022-07-31T10:47:39Z</time>
      </trkpt>
      <trkpt lat="44.77906" lon="3.08555">
        <ele>1134.4</ele>
        <time>2022-07-31T10:47:43Z</time>
      </trkpt>
      <trkpt lat="44.7791" lon="3.08549">
        <ele>1134.1</ele>
        <time>2022-07-31T10:47:48Z</time>
      </trkpt>
      <trkpt lat="44.77911" lon="3.08547">
        <ele>1134</ele>
        <time>2022-07-31T10:47:49Z</time>
      </trkpt>
      <trkpt lat="44.77912" lon="3.08545">
        <ele>1133.8</ele>
        <time>2022-07-31T10:47:51Z</time>
      </trkpt>
      <trkpt lat="44.77914" lon="3.08543">
        <ele>1133.7</ele>
        <time>2022-07-31T10:47:53Z</time>
      </trkpt>
      <trkpt lat="44.77916" lon="3.0854">
        <ele>1133.5</ele>
        <time>2022-07-31T10:47:55Z</time>
      </trkpt>
      <trkpt lat="44.77917" lon="3.08539">
        <ele>1133.4</ele>
        <time>2022-07-31T10:47:56Z</time>
      </trkpt>
      <trkpt lat="44.77917" lon="3.08538">
        <ele>1133.3</ele>
        <time>2022-07-31T10:47:57Z</time>
      </trkpt>
      <trkpt lat="44.77919" lon="3.08536">
        <ele>1133.1</ele>
        <time>2022-07-31T10:48:00Z</time>
      </trkpt>
      <trkpt lat="44.77921" lon="3.08535">
        <ele>1133</ele>
        <time>2022-07-31T10:48:02Z</time>
      </trkpt>
      <trkpt lat="44.77923" lon="3.08534">
        <ele>1132.8</ele>
        <time>2022-07-31T10:48:04Z</time>
      </trkpt>
      <trkpt lat="44.77928" lon="3.08532">
        <ele>1132.3</ele>
        <time>2022-07-31T10:48:08Z</time>
      </trkpt>
      <trkpt lat="44.7793" lon="3.08528">
        <ele>1132.1</ele>
        <time>2022-07-31T10:48:10Z</time>
      </trkpt>
      <trkpt lat="44.77931" lon="3.08527">
        <ele>1132</ele>
        <time>2022-07-31T10:48:11Z</time>
      </trkpt>
      <trkpt lat="44.77936" lon="3.08521">
        <ele>1131.9</ele>
        <time>2022-07-31T10:48:15Z</time>
      </trkpt>
      <trkpt lat="44.7794" lon="3.08518">
        <ele>1131.7</ele>
        <time>2022-07-31T10:48:18Z</time>
      </trkpt>
      <trkpt lat="44.77941" lon="3.08517">
        <ele>1131.6</ele>
        <time>2022-07-31T10:48:19Z</time>
      </trkpt>
      <trkpt lat="44.77942" lon="3.08517">
        <ele>1131.5</ele>
        <time>2022-07-31T10:48:20Z</time>
      </trkpt>
      <trkpt lat="44.77946" lon="3.08514">
        <ele>1131.4</ele>
        <time>2022-07-31T10:48:23Z</time>
      </trkpt>
      <trkpt lat="44.77948" lon="3.08512">
        <ele>1131.3</ele>
        <time>2022-07-31T10:48:25Z</time>
      </trkpt>
      <trkpt lat="44.77949" lon="3.08511">
        <ele>1131.2</ele>
        <time>2022-07-31T10:48:26Z</time>
      </trkpt>
      <trkpt lat="44.7795" lon="3.08509">
        <ele>1131.2</ele>
        <time>2022-07-31T10:48:27Z</time>
      </trkpt>
      <trkpt lat="44.7795" lon="3.08508">
        <ele>1131.1</ele>
        <time>2022-07-31T10:48:28Z</time>
      </trkpt>
      <trkpt lat="44.77951" lon="3.08507">
        <ele>1131.1</ele>
        <time>2022-07-31T10:48:29Z</time>
      </trkpt>
      <trkpt lat="44.77954" lon="3.08506">
        <ele>1130.9</ele>
        <time>2022-07-31T10:48:31Z</time>
      </trkpt>
      <trkpt lat="44.77955" lon="3.08504">
        <ele>1130.8</ele>
        <time>2022-07-31T10:48:33Z</time>
      </trkpt>
      <trkpt lat="44.77957" lon="3.08498">
        <ele>1130.7</ele>
        <time>2022-07-31T10:48:37Z</time>
      </trkpt>
      <trkpt lat="44.77965" lon="3.08488">
        <ele>1130.2</ele>
        <time>2022-07-31T10:48:43Z</time>
      </trkpt>
      <trkpt lat="44.7797" lon="3.08482">
        <ele>1129.9</ele>
        <time>2022-07-31T10:48:48Z</time>
      </trkpt>
      <trkpt lat="44.77971" lon="3.08482">
        <ele>1129.8</ele>
        <time>2022-07-31T10:48:49Z</time>
      </trkpt>
      <trkpt lat="44.77972" lon="3.0848">
        <ele>1129.7</ele>
        <time>2022-07-31T10:48:51Z</time>
      </trkpt>
      <trkpt lat="44.77974" lon="3.08479">
        <ele>1129.5</ele>
        <time>2022-07-31T10:48:53Z</time>
      </trkpt>
      <trkpt lat="44.77975" lon="3.08478">
        <ele>1129.4</ele>
        <time>2022-07-31T10:48:54Z</time>
      </trkpt>
      <trkpt lat="44.77976" lon="3.08478">
        <ele>1129.2</ele>
        <time>2022-07-31T10:48:55Z</time>
      </trkpt>
      <trkpt lat="44.77978" lon="3.08475">
        <ele>1129</ele>
        <time>2022-07-31T10:48:57Z</time>
      </trkpt>
      <trkpt lat="44.7798" lon="3.08469">
        <ele>1128.9</ele>
        <time>2022-07-31T10:49:00Z</time>
      </trkpt>
      <trkpt lat="44.77981" lon="3.08468">
        <ele>1128.7</ele>
        <time>2022-07-31T10:49:01Z</time>
      </trkpt>
      <trkpt lat="44.77983" lon="3.08464">
        <ele>1128.6</ele>
        <time>2022-07-31T10:49:04Z</time>
      </trkpt>
      <trkpt lat="44.77986" lon="3.08458">
        <ele>1128.3</ele>
        <time>2022-07-31T10:49:08Z</time>
      </trkpt>
      <trkpt lat="44.77992" lon="3.08449">
        <ele>1127.8</ele>
        <time>2022-07-31T10:49:15Z</time>
      </trkpt>
      <trkpt lat="44.77993" lon="3.08447">
        <ele>1127.7</ele>
        <time>2022-07-31T10:49:16Z</time>
      </trkpt>
      <trkpt lat="44.77999" lon="3.08435">
        <ele>1127.1</ele>
        <time>2022-07-31T10:49:22Z</time>
      </trkpt>
      <trkpt lat="44.78004" lon="3.08428">
        <ele>1126.9</ele>
        <time>2022-07-31T10:49:29Z</time>
      </trkpt>
      <trkpt lat="44.78006" lon="3.08426">
        <ele>1126.8</ele>
        <time>2022-07-31T10:49:31Z</time>
      </trkpt>
      <trkpt lat="44.78009" lon="3.08424">
        <ele>1126.7</ele>
        <time>2022-07-31T10:49:35Z</time>
      </trkpt>
      <trkpt lat="44.7801" lon="3.08423">
        <ele>1126.6</ele>
        <time>2022-07-31T10:49:37Z</time>
      </trkpt>
      <trkpt lat="44.78013" lon="3.0842">
        <ele>1126.5</ele>
        <time>2022-07-31T10:49:40Z</time>
      </trkpt>
      <trkpt lat="44.78014" lon="3.0842">
        <ele>1126.5</ele>
        <time>2022-07-31T10:49:41Z</time>
      </trkpt>
      <trkpt lat="44.78018" lon="3.08418">
        <ele>1126.3</ele>
        <time>2022-07-31T10:49:45Z</time>
      </trkpt>
      <trkpt lat="44.78022" lon="3.08417">
        <ele>1126.2</ele>
        <time>2022-07-31T10:49:48Z</time>
      </trkpt>
      <trkpt lat="44.78033" lon="3.08414">
        <ele>1125.5</ele>
        <time>2022-07-31T10:49:58Z</time>
      </trkpt>
      <trkpt lat="44.78035" lon="3.08414">
        <ele>1125.4</ele>
        <time>2022-07-31T10:50:00Z</time>
      </trkpt>
      <trkpt lat="44.78038" lon="3.08413">
        <ele>1125.2</ele>
        <time>2022-07-31T10:50:02Z</time>
      </trkpt>
      <trkpt lat="44.78042" lon="3.08413">
        <ele>1124.9</ele>
        <time>2022-07-31T10:50:05Z</time>
      </trkpt>
      <trkpt lat="44.78052" lon="3.08412">
        <ele>1124.2</ele>
        <time>2022-07-31T10:50:13Z</time>
      </trkpt>
      <trkpt lat="44.78054" lon="3.08412">
        <ele>1124.1</ele>
        <time>2022-07-31T10:50:14Z</time>
      </trkpt>
      <trkpt lat="44.78056" lon="3.08412">
        <ele>1124</ele>
        <time>2022-07-31T10:50:15Z</time>
      </trkpt>
      <trkpt lat="44.78058" lon="3.08411">
        <ele>1123.9</ele>
        <time>2022-07-31T10:50:17Z</time>
      </trkpt>
      <trkpt lat="44.78059" lon="3.0841">
        <ele>1123.9</ele>
        <time>2022-07-31T10:50:18Z</time>
      </trkpt>
      <trkpt lat="44.78061" lon="3.08406">
        <ele>1123.8</ele>
        <time>2022-07-31T10:50:21Z</time>
      </trkpt>
      <trkpt lat="44.78062" lon="3.08405">
        <ele>1123.8</ele>
        <time>2022-07-31T10:50:22Z</time>
      </trkpt>
      <trkpt lat="44.78068" lon="3.08402">
        <ele>1123.5</ele>
        <time>2022-07-31T10:50:28Z</time>
      </trkpt>
      <trkpt lat="44.78069" lon="3.08401">
        <ele>1123.5</ele>
        <time>2022-07-31T10:50:29Z</time>
      </trkpt>
      <trkpt lat="44.78071" lon="3.084">
        <ele>1123.5</ele>
        <time>2022-07-31T10:50:31Z</time>
      </trkpt>
      <trkpt lat="44.78075" lon="3.08396">
        <ele>1123.3</ele>
        <time>2022-07-31T10:50:34Z</time>
      </trkpt>
      <trkpt lat="44.78076" lon="3.08395">
        <ele>1123.3</ele>
        <time>2022-07-31T10:50:35Z</time>
      </trkpt>
      <trkpt lat="44.78078" lon="3.08394">
        <ele>1123.2</ele>
        <time>2022-07-31T10:50:36Z</time>
      </trkpt>
      <trkpt lat="44.78087" lon="3.08383">
        <ele>1123</ele>
        <time>2022-07-31T10:50:44Z</time>
      </trkpt>
      <trkpt lat="44.7809" lon="3.08379">
        <ele>1122.9</ele>
        <time>2022-07-31T10:50:47Z</time>
      </trkpt>
      <trkpt lat="44.78093" lon="3.08375">
        <ele>1122.8</ele>
        <time>2022-07-31T10:50:50Z</time>
      </trkpt>
      <trkpt lat="44.78094" lon="3.08374">
        <ele>1122.8</ele>
        <time>2022-07-31T10:50:51Z</time>
      </trkpt>
      <trkpt lat="44.78097" lon="3.08372">
        <ele>1122.7</ele>
        <time>2022-07-31T10:50:55Z</time>
      </trkpt>
      <trkpt lat="44.78099" lon="3.08372">
        <ele>1122.7</ele>
        <time>2022-07-31T10:50:57Z</time>
      </trkpt>
      <trkpt lat="44.78103" lon="3.0837">
        <ele>1122.5</ele>
        <time>2022-07-31T10:51:01Z</time>
      </trkpt>
      <trkpt lat="44.7811" lon="3.08366">
        <ele>1122.2</ele>
        <time>2022-07-31T10:51:06Z</time>
      </trkpt>
      <trkpt lat="44.78113" lon="3.08362">
        <ele>1122</ele>
        <time>2022-07-31T10:51:09Z</time>
      </trkpt>
      <trkpt lat="44.78115" lon="3.08358">
        <ele>1122</ele>
        <time>2022-07-31T10:51:12Z</time>
      </trkpt>
      <trkpt lat="44.78116" lon="3.08357">
        <ele>1122</ele>
        <time>2022-07-31T10:51:13Z</time>
      </trkpt>
      <trkpt lat="44.78121" lon="3.08355">
        <ele>1121.9</ele>
        <time>2022-07-31T10:51:18Z</time>
      </trkpt>
      <trkpt lat="44.78124" lon="3.08353">
        <ele>1121.9</ele>
        <time>2022-07-31T10:51:20Z</time>
      </trkpt>
      <trkpt lat="44.78126" lon="3.08349">
        <ele>1121.8</ele>
        <time>2022-07-31T10:51:22Z</time>
      </trkpt>
      <trkpt lat="44.7813" lon="3.08343">
        <ele>1121.6</ele>
        <time>2022-07-31T10:51:26Z</time>
      </trkpt>
      <trkpt lat="44.78137" lon="3.08336">
        <ele>1121.1</ele>
        <time>2022-07-31T10:51:33Z</time>
      </trkpt>
      <trkpt lat="44.78138" lon="3.08333">
        <ele>1121</ele>
        <time>2022-07-31T10:51:35Z</time>
      </trkpt>
      <trkpt lat="44.78142" lon="3.08329">
        <ele>1121</ele>
        <time>2022-07-31T10:51:39Z</time>
      </trkpt>
      <trkpt lat="44.78143" lon="3.08328">
        <ele>1121</ele>
        <time>2022-07-31T10:51:40Z</time>
      </trkpt>
      <trkpt lat="44.78147" lon="3.08324">
        <ele>1121</ele>
        <time>2022-07-31T10:51:44Z</time>
      </trkpt>
      <trkpt lat="44.78149" lon="3.08322">
        <ele>1121</ele>
        <time>2022-07-31T10:51:46Z</time>
      </trkpt>
      <trkpt lat="44.78151" lon="3.08319">
        <ele>1121</ele>
        <time>2022-07-31T10:51:49Z</time>
      </trkpt>
      <trkpt lat="44.78154" lon="3.08313">
        <ele>1121</ele>
        <time>2022-07-31T10:51:53Z</time>
      </trkpt>
      <trkpt lat="44.78159" lon="3.08304">
        <ele>1120.9</ele>
        <time>2022-07-31T10:52:00Z</time>
      </trkpt>
      <trkpt lat="44.7816" lon="3.08302">
        <ele>1120.9</ele>
        <time>2022-07-31T10:52:02Z</time>
      </trkpt>
      <trkpt lat="44.78161" lon="3.08301">
        <ele>1120.8</ele>
        <time>2022-07-31T10:52:03Z</time>
      </trkpt>
      <trkpt lat="44.78162" lon="3.08299">
        <ele>1120.8</ele>
        <time>2022-07-31T10:52:05Z</time>
      </trkpt>
      <trkpt lat="44.78164" lon="3.08297">
        <ele>1120.7</ele>
        <time>2022-07-31T10:52:07Z</time>
      </trkpt>
      <trkpt lat="44.78166" lon="3.08295">
        <ele>1120.6</ele>
        <time>2022-07-31T10:52:09Z</time>
      </trkpt>
      <trkpt lat="44.78168" lon="3.08294">
        <ele>1120.6</ele>
        <time>2022-07-31T10:52:10Z</time>
      </trkpt>
      <trkpt lat="44.78169" lon="3.08292">
        <ele>1120.5</ele>
        <time>2022-07-31T10:52:12Z</time>
      </trkpt>
      <trkpt lat="44.7817" lon="3.08289">
        <ele>1120.3</ele>
        <time>2022-07-31T10:52:13Z</time>
      </trkpt>
      <trkpt lat="44.78175" lon="3.08284">
        <ele>1120.2</ele>
        <time>2022-07-31T10:52:18Z</time>
      </trkpt>
      <trkpt lat="44.78178" lon="3.0828">
        <ele>1120</ele>
        <time>2022-07-31T10:52:21Z</time>
      </trkpt>
      <trkpt lat="44.78182" lon="3.08274">
        <ele>1120</ele>
        <time>2022-07-31T10:52:25Z</time>
      </trkpt>
      <trkpt lat="44.78184" lon="3.08271">
        <ele>1120</ele>
        <time>2022-07-31T10:52:27Z</time>
      </trkpt>
      <trkpt lat="44.78185" lon="3.08268">
        <ele>1120</ele>
        <time>2022-07-31T10:52:29Z</time>
      </trkpt>
      <trkpt lat="44.78189" lon="3.08264">
        <ele>1120</ele>
        <time>2022-07-31T10:52:34Z</time>
      </trkpt>
      <trkpt lat="44.7819" lon="3.08263">
        <ele>1120</ele>
        <time>2022-07-31T10:52:36Z</time>
      </trkpt>
      <trkpt lat="44.78194" lon="3.08255">
        <ele>1120</ele>
        <time>2022-07-31T10:52:41Z</time>
      </trkpt>
      <trkpt lat="44.78198" lon="3.0825">
        <ele>1119.9</ele>
        <time>2022-07-31T10:52:45Z</time>
      </trkpt>
      <trkpt lat="44.782" lon="3.08246">
        <ele>1120</ele>
        <time>2022-07-31T10:52:48Z</time>
      </trkpt>
      <trkpt lat="44.78204" lon="3.0824">
        <ele>1120</ele>
        <time>2022-07-31T10:52:53Z</time>
      </trkpt>
      <trkpt lat="44.78205" lon="3.08238">
        <ele>1120</ele>
        <time>2022-07-31T10:52:54Z</time>
      </trkpt>
      <trkpt lat="44.78206" lon="3.08237">
        <ele>1120.1</ele>
        <time>2022-07-31T10:52:56Z</time>
      </trkpt>
      <trkpt lat="44.78208" lon="3.08234">
        <ele>1120.1</ele>
        <time>2022-07-31T10:52:58Z</time>
      </trkpt>
      <trkpt lat="44.78209" lon="3.08232">
        <ele>1120.1</ele>
        <time>2022-07-31T10:52:59Z</time>
      </trkpt>
      <trkpt lat="44.78213" lon="3.08228">
        <ele>1120.1</ele>
        <time>2022-07-31T10:53:03Z</time>
      </trkpt>
      <trkpt lat="44.78219" lon="3.0822">
        <ele>1120.2</ele>
        <time>2022-07-31T10:53:12Z</time>
      </trkpt>
      <trkpt lat="44.7822" lon="3.08218">
        <ele>1120.2</ele>
        <time>2022-07-31T10:53:14Z</time>
      </trkpt>
      <trkpt lat="44.78224" lon="3.08211">
        <ele>1120.3</ele>
        <time>2022-07-31T10:53:19Z</time>
      </trkpt>
      <trkpt lat="44.78226" lon="3.08207">
        <ele>1120.4</ele>
        <time>2022-07-31T10:53:21Z</time>
      </trkpt>
      <trkpt lat="44.78229" lon="3.08204">
        <ele>1120.4</ele>
        <time>2022-07-31T10:53:23Z</time>
      </trkpt>
      <trkpt lat="44.78233" lon="3.08199">
        <ele>1120.5</ele>
        <time>2022-07-31T10:53:27Z</time>
      </trkpt>
      <trkpt lat="44.78234" lon="3.08197">
        <ele>1120.5</ele>
        <time>2022-07-31T10:53:28Z</time>
      </trkpt>
      <trkpt lat="44.78235" lon="3.08196">
        <ele>1120.5</ele>
        <time>2022-07-31T10:53:29Z</time>
      </trkpt>
      <trkpt lat="44.78237" lon="3.08193">
        <ele>1120.5</ele>
        <time>2022-07-31T10:53:32Z</time>
      </trkpt>
      <trkpt lat="44.7824" lon="3.08191">
        <ele>1120.3</ele>
        <time>2022-07-31T10:53:35Z</time>
      </trkpt>
      <trkpt lat="44.78246" lon="3.08186">
        <ele>1120.2</ele>
        <time>2022-07-31T10:53:41Z</time>
      </trkpt>
      <trkpt lat="44.78247" lon="3.08184">
        <ele>1120.1</ele>
        <time>2022-07-31T10:53:43Z</time>
      </trkpt>
      <trkpt lat="44.78251" lon="3.08182">
        <ele>1120</ele>
        <time>2022-07-31T10:53:46Z</time>
      </trkpt>
      <trkpt lat="44.78252" lon="3.08181">
        <ele>1119.9</ele>
        <time>2022-07-31T10:53:48Z</time>
      </trkpt>
      <trkpt lat="44.78254" lon="3.0818">
        <ele>1119.9</ele>
        <time>2022-07-31T10:53:50Z</time>
      </trkpt>
      <trkpt lat="44.78254" lon="3.0818">
        <ele>1119.9</ele>
        <time>2022-07-31T10:53:52Z</time>
      </trkpt>
      <trkpt lat="44.78253" lon="3.08184">
        <ele>1119.9</ele>
        <time>2022-07-31T10:53:55Z</time>
      </trkpt>
      <trkpt lat="44.78252" lon="3.08185">
        <ele>1119.9</ele>
        <time>2022-07-31T10:53:56Z</time>
      </trkpt>
      <trkpt lat="44.78251" lon="3.08186">
        <ele>1119.9</ele>
        <time>2022-07-31T10:53:57Z</time>
      </trkpt>
      <trkpt lat="44.78248" lon="3.08191">
        <ele>1120.1</ele>
        <time>2022-07-31T10:54:01Z</time>
      </trkpt>
      <trkpt lat="44.78247" lon="3.08197">
        <ele>1120</ele>
        <time>2022-07-31T10:54:05Z</time>
      </trkpt>
      <trkpt lat="44.78245" lon="3.08205">
        <ele>1119.8</ele>
        <time>2022-07-31T10:54:09Z</time>
      </trkpt>
      <trkpt lat="44.78244" lon="3.08211">
        <ele>1119.6</ele>
        <time>2022-07-31T10:54:13Z</time>
      </trkpt>
      <trkpt lat="44.78243" lon="3.08214">
        <ele>1119.5</ele>
        <time>2022-07-31T10:54:15Z</time>
      </trkpt>
      <trkpt lat="44.78243" lon="3.08222">
        <ele>1119.3</ele>
        <time>2022-07-31T10:54:19Z</time>
      </trkpt>
      <trkpt lat="44.78243" lon="3.08224">
        <ele>1119.2</ele>
        <time>2022-07-31T10:54:20Z</time>
      </trkpt>
      <trkpt lat="44.78242" lon="3.08226">
        <ele>1119.1</ele>
        <time>2022-07-31T10:54:21Z</time>
      </trkpt>
      <trkpt lat="44.7824" lon="3.08231">
        <ele>1119</ele>
        <time>2022-07-31T10:54:24Z</time>
      </trkpt>
      <trkpt lat="44.7824" lon="3.08233">
        <ele>1119</ele>
        <time>2022-07-31T10:54:25Z</time>
      </trkpt>
      <trkpt lat="44.78239" lon="3.08237">
        <ele>1118.9</ele>
        <time>2022-07-31T10:54:28Z</time>
      </trkpt>
      <trkpt lat="44.78239" lon="3.08236">
        <ele>1118.9</ele>
        <time>2022-07-31T10:54:30Z</time>
      </trkpt>
      <trkpt lat="44.78238" lon="3.08237">
        <ele>1118.9</ele>
        <time>2022-07-31T10:54:31Z</time>
      </trkpt>
      <trkpt lat="44.78238" lon="3.08237">
        <ele>1118.9</ele>
        <time>2022-07-31T10:54:32Z</time>
      </trkpt>
      <trkpt lat="44.78239" lon="3.08238">
        <ele>1118.8</ele>
        <time>2022-07-31T10:54:34Z</time>
      </trkpt>
      <trkpt lat="44.78238" lon="3.08242">
        <ele>1118.7</ele>
        <time>2022-07-31T10:54:36Z</time>
      </trkpt>
      <trkpt lat="44.78239" lon="3.08244">
        <ele>1118.6</ele>
        <time>2022-07-31T10:54:37Z</time>
      </trkpt>
      <trkpt lat="44.78237" lon="3.08247">
        <ele>1118.6</ele>
        <time>2022-07-31T10:54:39Z</time>
      </trkpt>
      <trkpt lat="44.78237" lon="3.08253">
        <ele>1118.3</ele>
        <time>2022-07-31T10:54:42Z</time>
      </trkpt>
      <trkpt lat="44.78236" lon="3.08256">
        <ele>1118.2</ele>
        <time>2022-07-31T10:54:44Z</time>
      </trkpt>
      <trkpt lat="44.78233" lon="3.08264">
        <ele>1117.9</ele>
        <time>2022-07-31T10:54:49Z</time>
      </trkpt>
      <trkpt lat="44.78233" lon="3.08266">
        <ele>1117.8</ele>
        <time>2022-07-31T10:54:50Z</time>
      </trkpt>
      <trkpt lat="44.78232" lon="3.08267">
        <ele>1117.8</ele>
        <time>2022-07-31T10:54:51Z</time>
      </trkpt>
      <trkpt lat="44.78231" lon="3.08271">
        <ele>1117.7</ele>
        <time>2022-07-31T10:54:53Z</time>
      </trkpt>
      <trkpt lat="44.78231" lon="3.08273">
        <ele>1117.6</ele>
        <time>2022-07-31T10:54:55Z</time>
      </trkpt>
      <trkpt lat="44.78226" lon="3.08282">
        <ele>1117.5</ele>
        <time>2022-07-31T10:55:02Z</time>
      </trkpt>
      <trkpt lat="44.78222" lon="3.08292">
        <ele>1117.5</ele>
        <time>2022-07-31T10:55:09Z</time>
      </trkpt>
      <trkpt lat="44.78222" lon="3.08294">
        <ele>1117.5</ele>
        <time>2022-07-31T10:55:10Z</time>
      </trkpt>
      <trkpt lat="44.78221" lon="3.08297">
        <ele>1117.4</ele>
        <time>2022-07-31T10:55:13Z</time>
      </trkpt>
      <trkpt lat="44.78221" lon="3.08298">
        <ele>1117.4</ele>
        <time>2022-07-31T10:55:14Z</time>
      </trkpt>
      <trkpt lat="44.7822" lon="3.08304">
        <ele>1117.3</ele>
        <time>2022-07-31T10:55:17Z</time>
      </trkpt>
      <trkpt lat="44.78216" lon="3.08314">
        <ele>1117.3</ele>
        <time>2022-07-31T10:55:23Z</time>
      </trkpt>
      <trkpt lat="44.78212" lon="3.08326">
        <ele>1117.4</ele>
        <time>2022-07-31T10:55:29Z</time>
      </trkpt>
      <trkpt lat="44.7821" lon="3.08329">
        <ele>1117.5</ele>
        <time>2022-07-31T10:55:32Z</time>
      </trkpt>
      <trkpt lat="44.7821" lon="3.0833">
        <ele>1117.5</ele>
        <time>2022-07-31T10:55:34Z</time>
      </trkpt>
      <trkpt lat="44.7821" lon="3.08331">
        <ele>1117.4</ele>
        <time>2022-07-31T10:55:35Z</time>
      </trkpt>
      <trkpt lat="44.7821" lon="3.08332">
        <ele>1117.4</ele>
        <time>2022-07-31T10:55:36Z</time>
      </trkpt>
      <trkpt lat="44.78208" lon="3.08337">
        <ele>1117.4</ele>
        <time>2022-07-31T10:55:39Z</time>
      </trkpt>
      <trkpt lat="44.78208" lon="3.08339">
        <ele>1117.4</ele>
        <time>2022-07-31T10:55:40Z</time>
      </trkpt>
      <trkpt lat="44.78205" lon="3.0835">
        <ele>1117.5</ele>
        <time>2022-07-31T10:55:47Z</time>
      </trkpt>
      <trkpt lat="44.78205" lon="3.08352">
        <ele>1117.4</ele>
        <time>2022-07-31T10:55:48Z</time>
      </trkpt>
      <trkpt lat="44.78205" lon="3.08362">
        <ele>1117.2</ele>
        <time>2022-07-31T10:55:53Z</time>
      </trkpt>
      <trkpt lat="44.78204" lon="3.08364">
        <ele>1117.2</ele>
        <time>2022-07-31T10:55:54Z</time>
      </trkpt>
      <trkpt lat="44.78201" lon="3.08372">
        <ele>1117.2</ele>
        <time>2022-07-31T10:55:59Z</time>
      </trkpt>
      <trkpt lat="44.78201" lon="3.08377">
        <ele>1117.1</ele>
        <time>2022-07-31T10:56:02Z</time>
      </trkpt>
      <trkpt lat="44.78201" lon="3.08379">
        <ele>1117</ele>
        <time>2022-07-31T10:56:03Z</time>
      </trkpt>
      <trkpt lat="44.78201" lon="3.08381">
        <ele>1117</ele>
        <time>2022-07-31T10:56:04Z</time>
      </trkpt>
      <trkpt lat="44.782" lon="3.08386">
        <ele>1116.9</ele>
        <time>2022-07-31T10:56:07Z</time>
      </trkpt>
      <trkpt lat="44.782" lon="3.0839">
        <ele>1116.8</ele>
        <time>2022-07-31T10:56:11Z</time>
      </trkpt>
      <trkpt lat="44.782" lon="3.08392">
        <ele>1116.8</ele>
        <time>2022-07-31T10:56:12Z</time>
      </trkpt>
      <trkpt lat="44.78199" lon="3.08394">
        <ele>1116.8</ele>
        <time>2022-07-31T10:56:15Z</time>
      </trkpt>
      <trkpt lat="44.78199" lon="3.08396">
        <ele>1116.8</ele>
        <time>2022-07-31T10:56:16Z</time>
      </trkpt>
      <trkpt lat="44.78198" lon="3.08398">
        <ele>1116.9</ele>
        <time>2022-07-31T10:56:17Z</time>
      </trkpt>
      <trkpt lat="44.78198" lon="3.084">
        <ele>1116.9</ele>
        <time>2022-07-31T10:56:18Z</time>
      </trkpt>
      <trkpt lat="44.78197" lon="3.08405">
        <ele>1116.9</ele>
        <time>2022-07-31T10:56:21Z</time>
      </trkpt>
      <trkpt lat="44.78198" lon="3.08417">
        <ele>1116.9</ele>
        <time>2022-07-31T10:56:27Z</time>
      </trkpt>
      <trkpt lat="44.78198" lon="3.08419">
        <ele>1116.9</ele>
        <time>2022-07-31T10:56:28Z</time>
      </trkpt>
      <trkpt lat="44.78196" lon="3.08426">
        <ele>1116.9</ele>
        <time>2022-07-31T10:56:32Z</time>
      </trkpt>
      <trkpt lat="44.78196" lon="3.08427">
        <ele>1116.9</ele>
        <time>2022-07-31T10:56:33Z</time>
      </trkpt>
      <trkpt lat="44.78197" lon="3.08429">
        <ele>1116.9</ele>
        <time>2022-07-31T10:56:34Z</time>
      </trkpt>
      <trkpt lat="44.78197" lon="3.08432">
        <ele>1116.9</ele>
        <time>2022-07-31T10:56:36Z</time>
      </trkpt>
      <trkpt lat="44.78197" lon="3.08434">
        <ele>1116.9</ele>
        <time>2022-07-31T10:56:37Z</time>
      </trkpt>
      <trkpt lat="44.78197" lon="3.08437">
        <ele>1116.9</ele>
        <time>2022-07-31T10:56:39Z</time>
      </trkpt>
      <trkpt lat="44.78195" lon="3.08449">
        <ele>1116.8</ele>
        <time>2022-07-31T10:56:46Z</time>
      </trkpt>
      <trkpt lat="44.78196" lon="3.08452">
        <ele>1116.7</ele>
        <time>2022-07-31T10:56:48Z</time>
      </trkpt>
      <trkpt lat="44.78198" lon="3.08459">
        <ele>1116.4</ele>
        <time>2022-07-31T10:56:51Z</time>
      </trkpt>
      <trkpt lat="44.78199" lon="3.08464">
        <ele>1116.2</ele>
        <time>2022-07-31T10:56:54Z</time>
      </trkpt>
      <trkpt lat="44.78199" lon="3.08468">
        <ele>1116.1</ele>
        <time>2022-07-31T10:56:56Z</time>
      </trkpt>
      <trkpt lat="44.78197" lon="3.08475">
        <ele>1115.9</ele>
        <time>2022-07-31T10:57:00Z</time>
      </trkpt>
      <trkpt lat="44.78197" lon="3.08478">
        <ele>1115.8</ele>
        <time>2022-07-31T10:57:02Z</time>
      </trkpt>
      <trkpt lat="44.78198" lon="3.08482">
        <ele>1115.6</ele>
        <time>2022-07-31T10:57:05Z</time>
      </trkpt>
      <trkpt lat="44.78198" lon="3.08484">
        <ele>1115.6</ele>
        <time>2022-07-31T10:57:06Z</time>
      </trkpt>
      <trkpt lat="44.78197" lon="3.0849">
        <ele>1115.4</ele>
        <time>2022-07-31T10:57:09Z</time>
      </trkpt>
      <trkpt lat="44.78197" lon="3.08493">
        <ele>1115.3</ele>
        <time>2022-07-31T10:57:11Z</time>
      </trkpt>
      <trkpt lat="44.78198" lon="3.08495">
        <ele>1115.2</ele>
        <time>2022-07-31T10:57:12Z</time>
      </trkpt>
      <trkpt lat="44.78198" lon="3.08496">
        <ele>1115.1</ele>
        <time>2022-07-31T10:57:13Z</time>
      </trkpt>
      <trkpt lat="44.78198" lon="3.08501">
        <ele>1114.9</ele>
        <time>2022-07-31T10:57:16Z</time>
      </trkpt>
      <trkpt lat="44.78197" lon="3.08506">
        <ele>1114.8</ele>
        <time>2022-07-31T10:57:19Z</time>
      </trkpt>
      <trkpt lat="44.782" lon="3.08518">
        <ele>1114.2</ele>
        <time>2022-07-31T10:57:26Z</time>
      </trkpt>
      <trkpt lat="44.78201" lon="3.0852">
        <ele>1114.1</ele>
        <time>2022-07-31T10:57:27Z</time>
      </trkpt>
      <trkpt lat="44.78202" lon="3.08523">
        <ele>1114</ele>
        <time>2022-07-31T10:57:29Z</time>
      </trkpt>
      <trkpt lat="44.78203" lon="3.08527">
        <ele>1113.7</ele>
        <time>2022-07-31T10:57:32Z</time>
      </trkpt>
      <trkpt lat="44.78203" lon="3.0853">
        <ele>1113.5</ele>
        <time>2022-07-31T10:57:34Z</time>
      </trkpt>
      <trkpt lat="44.78205" lon="3.08537">
        <ele>1112.7</ele>
        <time>2022-07-31T10:57:38Z</time>
      </trkpt>
      <trkpt lat="44.78205" lon="3.0854">
        <ele>1112.4</ele>
        <time>2022-07-31T10:57:40Z</time>
      </trkpt>
      <trkpt lat="44.78206" lon="3.08548">
        <ele>1111.5</ele>
        <time>2022-07-31T10:57:45Z</time>
      </trkpt>
      <trkpt lat="44.78206" lon="3.08551">
        <ele>1111.2</ele>
        <time>2022-07-31T10:57:47Z</time>
      </trkpt>
      <trkpt lat="44.78206" lon="3.08554">
        <ele>1110.9</ele>
        <time>2022-07-31T10:57:49Z</time>
      </trkpt>
      <trkpt lat="44.78205" lon="3.0856">
        <ele>1110.3</ele>
        <time>2022-07-31T10:57:52Z</time>
      </trkpt>
      <trkpt lat="44.78206" lon="3.08563">
        <ele>1109.8</ele>
        <time>2022-07-31T10:57:54Z</time>
      </trkpt>
      <trkpt lat="44.78204" lon="3.08569">
        <ele>1109.2</ele>
        <time>2022-07-31T10:57:57Z</time>
      </trkpt>
      <trkpt lat="44.78201" lon="3.08576">
        <ele>1108.6</ele>
        <time>2022-07-31T10:58:01Z</time>
      </trkpt>
      <trkpt lat="44.782" lon="3.08578">
        <ele>1108.3</ele>
        <time>2022-07-31T10:58:02Z</time>
      </trkpt>
      <trkpt lat="44.78198" lon="3.08583">
        <ele>1107.7</ele>
        <time>2022-07-31T10:58:05Z</time>
      </trkpt>
      <trkpt lat="44.78195" lon="3.08589">
        <ele>1107.6</ele>
        <time>2022-07-31T10:58:08Z</time>
      </trkpt>
      <trkpt lat="44.78194" lon="3.08592">
        <ele>1107.5</ele>
        <time>2022-07-31T10:58:10Z</time>
      </trkpt>
      <trkpt lat="44.78193" lon="3.08594">
        <ele>1107.4</ele>
        <time>2022-07-31T10:58:12Z</time>
      </trkpt>
      <trkpt lat="44.78191" lon="3.086">
        <ele>1107.2</ele>
        <time>2022-07-31T10:58:16Z</time>
      </trkpt>
      <trkpt lat="44.78189" lon="3.08607">
        <ele>1106.7</ele>
        <time>2022-07-31T10:58:21Z</time>
      </trkpt>
      <trkpt lat="44.78188" lon="3.08611">
        <ele>1106.5</ele>
        <time>2022-07-31T10:58:23Z</time>
      </trkpt>
      <trkpt lat="44.78186" lon="3.08622">
        <ele>1106.5</ele>
        <time>2022-07-31T10:58:30Z</time>
      </trkpt>
      <trkpt lat="44.78187" lon="3.08637">
        <ele>1106.3</ele>
        <time>2022-07-31T10:58:39Z</time>
      </trkpt>
      <trkpt lat="44.7819" lon="3.08647">
        <ele>1106.2</ele>
        <time>2022-07-31T10:58:45Z</time>
      </trkpt>
      <trkpt lat="44.78192" lon="3.08651">
        <ele>1106.1</ele>
        <time>2022-07-31T10:58:48Z</time>
      </trkpt>
      <trkpt lat="44.78192" lon="3.08652">
        <ele>1106.1</ele>
        <time>2022-07-31T10:58:51Z</time>
      </trkpt>
      <trkpt lat="44.78192" lon="3.08652">
        <ele>1106.1</ele>
        <time>2022-07-31T10:58:52Z</time>
      </trkpt>
      <trkpt lat="44.78189" lon="3.0865">
        <ele>1106.2</ele>
        <time>2022-07-31T10:58:59Z</time>
      </trkpt>
      <trkpt lat="44.78187" lon="3.08642">
        <ele>1106.3</ele>
        <time>2022-07-31T10:59:06Z</time>
      </trkpt>
      <trkpt lat="44.78187" lon="3.08642">
        <ele>1106.3</ele>
        <time>2022-07-31T10:59:07Z</time>
      </trkpt>
      <trkpt lat="44.78187" lon="3.08641">
        <ele>1106.3</ele>
        <time>2022-07-31T10:59:10Z</time>
      </trkpt>
      <trkpt lat="44.78187" lon="3.08641">
        <ele>1106.3</ele>
        <time>2022-07-31T10:59:12Z</time>
      </trkpt>
      <trkpt lat="44.78187" lon="3.0864">
        <ele>1106.3</ele>
        <time>2022-07-31T10:59:14Z</time>
      </trkpt>
      <trkpt lat="44.78185" lon="3.08639">
        <ele>1106.3</ele>
        <time>2022-07-31T10:59:17Z</time>
      </trkpt>
      <trkpt lat="44.78185" lon="3.08638">
        <ele>1106.4</ele>
        <time>2022-07-31T10:59:20Z</time>
      </trkpt>
      <trkpt lat="44.78184" lon="3.08636">
        <ele>1106.4</ele>
        <time>2022-07-31T10:59:23Z</time>
      </trkpt>
      <trkpt lat="44.78184" lon="3.08636">
        <ele>1106.4</ele>
        <time>2022-07-31T10:59:25Z</time>
      </trkpt>
      <trkpt lat="44.78184" lon="3.08636">
        <ele>1106.4</ele>
        <time>2022-07-31T10:59:26Z</time>
      </trkpt>
      <trkpt lat="44.78184" lon="3.08635">
        <ele>1106.4</ele>
        <time>2022-07-31T10:59:29Z</time>
      </trkpt>
      <trkpt lat="44.78184" lon="3.08634">
        <ele>1106.4</ele>
        <time>2022-07-31T10:59:31Z</time>
      </trkpt>
      <trkpt lat="44.78184" lon="3.08635">
        <ele>1106.4</ele>
        <time>2022-07-31T10:59:37Z</time>
      </trkpt>
      <trkpt lat="44.78184" lon="3.08635">
        <ele>1106.4</ele>
        <time>2022-07-31T10:59:43Z</time>
      </trkpt>
      <trkpt lat="44.78183" lon="3.08636">
        <ele>1106.5</ele>
        <time>2022-07-31T11:00:07Z</time>
      </trkpt>
      <trkpt lat="44.78183" lon="3.08636">
        <ele>1106.5</ele>
        <time>2022-07-31T11:00:08Z</time>
      </trkpt>
      <trkpt lat="44.78183" lon="3.08636">
        <ele>1106.5</ele>
        <time>2022-07-31T11:00:10Z</time>
      </trkpt>
      <trkpt lat="44.78183" lon="3.08637">
        <ele>1106.5</ele>
        <time>2022-07-31T11:00:12Z</time>
      </trkpt>
      <trkpt lat="44.78183" lon="3.08637">
        <ele>1106.5</ele>
        <time>2022-07-31T11:00:14Z</time>
      </trkpt>
      <trkpt lat="44.78183" lon="3.08637">
        <ele>1106.5</ele>
        <time>2022-07-31T11:00:16Z</time>
      </trkpt>
      <trkpt lat="44.78183" lon="3.08637">
        <ele>1106.5</ele>
        <time>2022-07-31T11:00:19Z</time>
      </trkpt>
      <trkpt lat="44.78184" lon="3.08638">
        <ele>1106.4</ele>
        <time>2022-07-31T11:00:35Z</time>
      </trkpt>
      <trkpt lat="44.78184" lon="3.08638">
        <ele>1106.4</ele>
        <time>2022-07-31T11:00:39Z</time>
      </trkpt>
      <trkpt lat="44.78184" lon="3.08636">
        <ele>1106.4</ele>
        <time>2022-07-31T11:00:50Z</time>
      </trkpt>
      <trkpt lat="44.78184" lon="3.08636">
        <ele>1106.4</ele>
        <time>2022-07-31T11:00:51Z</time>
      </trkpt>
      <trkpt lat="44.78184" lon="3.08636">
        <ele>1106.4</ele>
        <time>2022-07-31T11:00:52Z</time>
      </trkpt>
      <trkpt lat="44.78184" lon="3.08636">
        <ele>1106.4</ele>
        <time>2022-07-31T11:00:53Z</time>
      </trkpt>
      <trkpt lat="44.78184" lon="3.08636">
        <ele>1106.4</ele>
        <time>2022-07-31T11:00:55Z</time>
      </trkpt>
      <trkpt lat="44.78184" lon="3.08636">
        <ele>1106.4</ele>
        <time>2022-07-31T11:00:58Z</time>
      </trkpt>
      <trkpt lat="44.78184" lon="3.08636">
        <ele>1106.4</ele>
        <time>2022-07-31T11:01:07Z</time>
      </trkpt>
      <trkpt lat="44.78185" lon="3.08636">
        <ele>1106.4</ele>
        <time>2022-07-31T11:01:08Z</time>
      </trkpt>
      <trkpt lat="44.78185" lon="3.08636">
        <ele>1106.4</ele>
        <time>2022-07-31T11:01:09Z</time>
      </trkpt>
      <trkpt lat="44.78185" lon="3.08636">
        <ele>1106.4</ele>
        <time>2022-07-31T11:01:10Z</time>
      </trkpt>
      <trkpt lat="44.78185" lon="3.08637">
        <ele>1106.4</ele>
        <time>2022-07-31T11:01:11Z</time>
      </trkpt>
      <trkpt lat="44.78185" lon="3.08637">
        <ele>1106.4</ele>
        <time>2022-07-31T11:01:12Z</time>
      </trkpt>
      <trkpt lat="44.78185" lon="3.08637">
        <ele>1106.4</ele>
        <time>2022-07-31T11:01:13Z</time>
      </trkpt>
      <trkpt lat="44.78184" lon="3.08637">
        <ele>1106.4</ele>
        <time>2022-07-31T11:01:15Z</time>
      </trkpt>
      <trkpt lat="44.78185" lon="3.08638">
        <ele>1106.3</ele>
        <time>2022-07-31T11:01:52Z</time>
      </trkpt>
      <trkpt lat="44.78186" lon="3.08638">
        <ele>1106.3</ele>
        <time>2022-07-31T11:01:54Z</time>
      </trkpt>
      <trkpt lat="44.78186" lon="3.08638">
        <ele>1106.3</ele>
        <time>2022-07-31T11:01:58Z</time>
      </trkpt>
      <trkpt lat="44.78186" lon="3.08638">
        <ele>1106.3</ele>
        <time>2022-07-31T11:02:00Z</time>
      </trkpt>
      <trkpt lat="44.78186" lon="3.08638">
        <ele>1106.3</ele>
        <time>2022-07-31T11:02:08Z</time>
      </trkpt>
      <trkpt lat="44.78186" lon="3.08638">
        <ele>1106.3</ele>
        <time>2022-07-31T11:02:12Z</time>
      </trkpt>
      <trkpt lat="44.78186" lon="3.08638">
        <ele>1106.3</ele>
        <time>2022-07-31T11:02:15Z</time>
      </trkpt>
      <trkpt lat="44.78186" lon="3.08638">
        <ele>1106.3</ele>
        <time>2022-07-31T11:02:18Z</time>
      </trkpt>
      <trkpt lat="44.78186" lon="3.08638">
        <ele>1106.3</ele>
        <time>2022-07-31T11:02:21Z</time>
      </trkpt>
      <trkpt lat="44.78186" lon="3.08638">
        <ele>1106.3</ele>
        <time>2022-07-31T11:02:29Z</time>
      </trkpt>
      <trkpt lat="44.78187" lon="3.08639">
        <ele>1106.3</ele>
        <time>2022-07-31T11:02:30Z</time>
      </trkpt>
      <trkpt lat="44.78187" lon="3.0864">
        <ele>1106.3</ele>
        <time>2022-07-31T11:02:31Z</time>
      </trkpt>
      <trkpt lat="44.78187" lon="3.08641">
        <ele>1106.3</ele>
        <time>2022-07-31T11:02:32Z</time>
      </trkpt>
      <trkpt lat="44.78187" lon="3.08642">
        <ele>1106.3</ele>
        <time>2022-07-31T11:02:33Z</time>
      </trkpt>
      <trkpt lat="44.78188" lon="3.08643">
        <ele>1106.2</ele>
        <time>2022-07-31T11:02:34Z</time>
      </trkpt>
      <trkpt lat="44.78188" lon="3.08643">
        <ele>1106.2</ele>
        <time>2022-07-31T11:02:35Z</time>
      </trkpt>
      <trkpt lat="44.78189" lon="3.08645">
        <ele>1106.2</ele>
        <time>2022-07-31T11:02:36Z</time>
      </trkpt>
      <trkpt lat="44.7819" lon="3.08651">
        <ele>1106.1</ele>
        <time>2022-07-31T11:02:42Z</time>
      </trkpt>
      <trkpt lat="44.7819" lon="3.08652">
        <ele>1106.2</ele>
        <time>2022-07-31T11:02:43Z</time>
      </trkpt>
      <trkpt lat="44.78192" lon="3.08654">
        <ele>1106.1</ele>
        <time>2022-07-31T11:02:47Z</time>
      </trkpt>
      <trkpt lat="44.78195" lon="3.08658">
        <ele>1106</ele>
        <time>2022-07-31T11:02:50Z</time>
      </trkpt>
      <trkpt lat="44.78199" lon="3.0867">
        <ele>1105.6</ele>
        <time>2022-07-31T11:02:58Z</time>
      </trkpt>
      <trkpt lat="44.782" lon="3.08673">
        <ele>1105.5</ele>
        <time>2022-07-31T11:03:00Z</time>
      </trkpt>
      <trkpt lat="44.782" lon="3.08675">
        <ele>1105.4</ele>
        <time>2022-07-31T11:03:01Z</time>
      </trkpt>
      <trkpt lat="44.782" lon="3.08677">
        <ele>1105.4</ele>
        <time>2022-07-31T11:03:02Z</time>
      </trkpt>
      <trkpt lat="44.78201" lon="3.08678">
        <ele>1105.3</ele>
        <time>2022-07-31T11:03:03Z</time>
      </trkpt>
      <trkpt lat="44.78201" lon="3.08682">
        <ele>1105.2</ele>
        <time>2022-07-31T11:03:06Z</time>
      </trkpt>
      <trkpt lat="44.78202" lon="3.08687">
        <ele>1105.1</ele>
        <time>2022-07-31T11:03:09Z</time>
      </trkpt>
      <trkpt lat="44.78202" lon="3.08689">
        <ele>1105.1</ele>
        <time>2022-07-31T11:03:10Z</time>
      </trkpt>
      <trkpt lat="44.78204" lon="3.08693">
        <ele>1105</ele>
        <time>2022-07-31T11:03:13Z</time>
      </trkpt>
      <trkpt lat="44.78204" lon="3.08694">
        <ele>1105</ele>
        <time>2022-07-31T11:03:14Z</time>
      </trkpt>
      <trkpt lat="44.78205" lon="3.08696">
        <ele>1105.2</ele>
        <time>2022-07-31T11:03:15Z</time>
      </trkpt>
      <trkpt lat="44.78206" lon="3.08697">
        <ele>1105.3</ele>
        <time>2022-07-31T11:03:16Z</time>
      </trkpt>
      <trkpt lat="44.78208" lon="3.08699">
        <ele>1105.5</ele>
        <time>2022-07-31T11:03:18Z</time>
      </trkpt>
      <trkpt lat="44.7821" lon="3.08701">
        <ele>1105.8</ele>
        <time>2022-07-31T11:03:20Z</time>
      </trkpt>
      <trkpt lat="44.78214" lon="3.08704">
        <ele>1106.1</ele>
        <time>2022-07-31T11:03:24Z</time>
      </trkpt>
      <trkpt lat="44.78215" lon="3.08705">
        <ele>1106.2</ele>
        <time>2022-07-31T11:03:25Z</time>
      </trkpt>
      <trkpt lat="44.78216" lon="3.08705">
        <ele>1106.3</ele>
        <time>2022-07-31T11:03:26Z</time>
      </trkpt>
      <trkpt lat="44.78217" lon="3.08706">
        <ele>1106.4</ele>
        <time>2022-07-31T11:03:27Z</time>
      </trkpt>
      <trkpt lat="44.7822" lon="3.08707">
        <ele>1106.4</ele>
        <time>2022-07-31T11:03:30Z</time>
      </trkpt>
      <trkpt lat="44.78221" lon="3.08707">
        <ele>1106.4</ele>
        <time>2022-07-31T11:03:32Z</time>
      </trkpt>
      <trkpt lat="44.78221" lon="3.08707">
        <ele>1106.3</ele>
        <time>2022-07-31T11:03:33Z</time>
      </trkpt>
      <trkpt lat="44.78222" lon="3.08707">
        <ele>1106.3</ele>
        <time>2022-07-31T11:03:35Z</time>
      </trkpt>
      <trkpt lat="44.78223" lon="3.08706">
        <ele>1106.3</ele>
        <time>2022-07-31T11:03:36Z</time>
      </trkpt>
      <trkpt lat="44.78222" lon="3.08706">
        <ele>1106.2</ele>
        <time>2022-07-31T11:03:37Z</time>
      </trkpt>
      <trkpt lat="44.78222" lon="3.08706">
        <ele>1106.2</ele>
        <time>2022-07-31T11:03:38Z</time>
      </trkpt>
      <trkpt lat="44.78222" lon="3.08706">
        <ele>1106.3</ele>
        <time>2022-07-31T11:03:40Z</time>
      </trkpt>
      <trkpt lat="44.78222" lon="3.08707">
        <ele>1106.3</ele>
        <time>2022-07-31T11:03:42Z</time>
      </trkpt>
      <trkpt lat="44.78221" lon="3.08705">
        <ele>1106.2</ele>
        <time>2022-07-31T11:03:46Z</time>
      </trkpt>
      <trkpt lat="44.78219" lon="3.08704">
        <ele>1106.1</ele>
        <time>2022-07-31T11:03:48Z</time>
      </trkpt>
      <trkpt lat="44.78219" lon="3.08704">
        <ele>1106.1</ele>
        <time>2022-07-31T11:03:49Z</time>
      </trkpt>
      <trkpt lat="44.78226" lon="3.08705">
        <ele>1106.1</ele>
        <time>2022-07-31T11:03:54Z</time>
      </trkpt>
      <trkpt lat="44.78227" lon="3.08705">
        <ele>1106.1</ele>
        <time>2022-07-31T11:03:55Z</time>
      </trkpt>
      <trkpt lat="44.78237" lon="3.08703">
        <ele>1105.7</ele>
        <time>2022-07-31T11:04:02Z</time>
      </trkpt>
      <trkpt lat="44.78253" lon="3.08709">
        <ele>1106.6</ele>
        <time>2022-07-31T11:04:12Z</time>
      </trkpt>
      <trkpt lat="44.78258" lon="3.08713">
        <ele>1107</ele>
        <time>2022-07-31T11:04:16Z</time>
      </trkpt>
      <trkpt lat="44.78259" lon="3.08713">
        <ele>1107.1</ele>
        <time>2022-07-31T11:04:17Z</time>
      </trkpt>
      <trkpt lat="44.7826" lon="3.08714">
        <ele>1107.2</ele>
        <time>2022-07-31T11:04:18Z</time>
      </trkpt>
      <trkpt lat="44.78262" lon="3.08716">
        <ele>1107.4</ele>
        <time>2022-07-31T11:04:20Z</time>
      </trkpt>
      <trkpt lat="44.78263" lon="3.08717">
        <ele>1107.5</ele>
        <time>2022-07-31T11:04:21Z</time>
      </trkpt>
      <trkpt lat="44.78263" lon="3.08717">
        <ele>1107.5</ele>
        <time>2022-07-31T11:04:22Z</time>
      </trkpt>
      <trkpt lat="44.78267" lon="3.08721">
        <ele>1108.2</ele>
        <time>2022-07-31T11:04:25Z</time>
      </trkpt>
      <trkpt lat="44.7827" lon="3.08725">
        <ele>1108.5</ele>
        <time>2022-07-31T11:04:28Z</time>
      </trkpt>
      <trkpt lat="44.78273" lon="3.0873">
        <ele>1108.7</ele>
        <time>2022-07-31T11:04:32Z</time>
      </trkpt>
      <trkpt lat="44.78278" lon="3.08738">
        <ele>1109</ele>
        <time>2022-07-31T11:04:38Z</time>
      </trkpt>
      <trkpt lat="44.78279" lon="3.08739">
        <ele>1109</ele>
        <time>2022-07-31T11:04:39Z</time>
      </trkpt>
      <trkpt lat="44.78287" lon="3.08747">
        <ele>1108.8</ele>
        <time>2022-07-31T11:04:46Z</time>
      </trkpt>
      <trkpt lat="44.78289" lon="3.08749">
        <ele>1108.8</ele>
        <time>2022-07-31T11:04:48Z</time>
      </trkpt>
      <trkpt lat="44.78295" lon="3.0876">
        <ele>1108.8</ele>
        <time>2022-07-31T11:04:56Z</time>
      </trkpt>
      <trkpt lat="44.78302" lon="3.08769">
        <ele>1108.7</ele>
        <time>2022-07-31T11:05:04Z</time>
      </trkpt>
      <trkpt lat="44.78303" lon="3.08771">
        <ele>1108.8</ele>
        <time>2022-07-31T11:05:05Z</time>
      </trkpt>
      <trkpt lat="44.7831" lon="3.08779">
        <ele>1108.8</ele>
        <time>2022-07-31T11:05:12Z</time>
      </trkpt>
      <trkpt lat="44.7831" lon="3.08779">
        <ele>1108.8</ele>
        <time>2022-07-31T11:05:13Z</time>
      </trkpt>
      <trkpt lat="44.78311" lon="3.08781">
        <ele>1108.9</ele>
        <time>2022-07-31T11:05:14Z</time>
      </trkpt>
      <trkpt lat="44.78312" lon="3.08782">
        <ele>1109</ele>
        <time>2022-07-31T11:05:15Z</time>
      </trkpt>
      <trkpt lat="44.78313" lon="3.08785">
        <ele>1109.2</ele>
        <time>2022-07-31T11:05:17Z</time>
      </trkpt>
      <trkpt lat="44.78315" lon="3.08788">
        <ele>1109.3</ele>
        <time>2022-07-31T11:05:19Z</time>
      </trkpt>
      <trkpt lat="44.78317" lon="3.08789">
        <ele>1109.3</ele>
        <time>2022-07-31T11:05:20Z</time>
      </trkpt>
      <trkpt lat="44.7832" lon="3.08793">
        <ele>1109.3</ele>
        <time>2022-07-31T11:05:23Z</time>
      </trkpt>
      <trkpt lat="44.78323" lon="3.08798">
        <ele>1109.5</ele>
        <time>2022-07-31T11:05:27Z</time>
      </trkpt>
      <trkpt lat="44.78324" lon="3.088">
        <ele>1109.5</ele>
        <time>2022-07-31T11:05:28Z</time>
      </trkpt>
      <trkpt lat="44.78325" lon="3.08803">
        <ele>1109.7</ele>
        <time>2022-07-31T11:05:30Z</time>
      </trkpt>
      <trkpt lat="44.78326" lon="3.08805">
        <ele>1109.7</ele>
        <time>2022-07-31T11:05:31Z</time>
      </trkpt>
      <trkpt lat="44.78329" lon="3.08811">
        <ele>1109.8</ele>
        <time>2022-07-31T11:05:36Z</time>
      </trkpt>
      <trkpt lat="44.78333" lon="3.08817">
        <ele>1109.8</ele>
        <time>2022-07-31T11:05:39Z</time>
      </trkpt>
      <trkpt lat="44.78334" lon="3.08822">
        <ele>1110.1</ele>
        <time>2022-07-31T11:05:42Z</time>
      </trkpt>
      <trkpt lat="44.78335" lon="3.08825">
        <ele>1110.2</ele>
        <time>2022-07-31T11:05:44Z</time>
      </trkpt>
      <trkpt lat="44.78336" lon="3.08828">
        <ele>1110.3</ele>
        <time>2022-07-31T11:05:46Z</time>
      </trkpt>
      <trkpt lat="44.78336" lon="3.0883">
        <ele>1110.3</ele>
        <time>2022-07-31T11:05:47Z</time>
      </trkpt>
      <trkpt lat="44.78338" lon="3.08833">
        <ele>1110.3</ele>
        <time>2022-07-31T11:05:49Z</time>
      </trkpt>
      <trkpt lat="44.78338" lon="3.0884">
        <ele>1110.1</ele>
        <time>2022-07-31T11:05:54Z</time>
      </trkpt>
      <trkpt lat="44.78338" lon="3.08842">
        <ele>1110</ele>
        <time>2022-07-31T11:05:55Z</time>
      </trkpt>
      <trkpt lat="44.78338" lon="3.08843">
        <ele>1110</ele>
        <time>2022-07-31T11:05:56Z</time>
      </trkpt>
      <trkpt lat="44.78338" lon="3.08851">
        <ele>1109.8</ele>
        <time>2022-07-31T11:06:01Z</time>
      </trkpt>
      <trkpt lat="44.78338" lon="3.08855">
        <ele>1109.7</ele>
        <time>2022-07-31T11:06:03Z</time>
      </trkpt>
      <trkpt lat="44.78336" lon="3.08863">
        <ele>1109.6</ele>
        <time>2022-07-31T11:06:08Z</time>
      </trkpt>
      <trkpt lat="44.78333" lon="3.08871">
        <ele>1109</ele>
        <time>2022-07-31T11:06:13Z</time>
      </trkpt>
      <trkpt lat="44.78325" lon="3.08884">
        <ele>1108.9</ele>
        <time>2022-07-31T11:06:23Z</time>
      </trkpt>
      <trkpt lat="44.78324" lon="3.08885">
        <ele>1108.9</ele>
        <time>2022-07-31T11:06:24Z</time>
      </trkpt>
      <trkpt lat="44.78322" lon="3.08888">
        <ele>1108.8</ele>
        <time>2022-07-31T11:06:28Z</time>
      </trkpt>
      <trkpt lat="44.78321" lon="3.08889">
        <ele>1108.8</ele>
        <time>2022-07-31T11:06:29Z</time>
      </trkpt>
      <trkpt lat="44.78319" lon="3.08894">
        <ele>1108.6</ele>
        <time>2022-07-31T11:06:32Z</time>
      </trkpt>
      <trkpt lat="44.78319" lon="3.089">
        <ele>1108.1</ele>
        <time>2022-07-31T11:06:35Z</time>
      </trkpt>
      <trkpt lat="44.78319" lon="3.08903">
        <ele>1107.8</ele>
        <time>2022-07-31T11:06:37Z</time>
      </trkpt>
      <trkpt lat="44.78318" lon="3.08905">
        <ele>1107.8</ele>
        <time>2022-07-31T11:06:39Z</time>
      </trkpt>
      <trkpt lat="44.78317" lon="3.08908">
        <ele>1107.5</ele>
        <time>2022-07-31T11:06:41Z</time>
      </trkpt>
      <trkpt lat="44.78318" lon="3.08911">
        <ele>1107.3</ele>
        <time>2022-07-31T11:06:42Z</time>
      </trkpt>
      <trkpt lat="44.78317" lon="3.08914">
        <ele>1107</ele>
        <time>2022-07-31T11:06:44Z</time>
      </trkpt>
      <trkpt lat="44.78318" lon="3.08916">
        <ele>1106.8</ele>
        <time>2022-07-31T11:06:45Z</time>
      </trkpt>
      <trkpt lat="44.78319" lon="3.08916">
        <ele>1106.7</ele>
        <time>2022-07-31T11:06:47Z</time>
      </trkpt>
      <trkpt lat="44.78319" lon="3.08916">
        <ele>1106.6</ele>
        <time>2022-07-31T11:06:48Z</time>
      </trkpt>
      <trkpt lat="44.78319" lon="3.08918">
        <ele>1106.5</ele>
        <time>2022-07-31T11:06:50Z</time>
      </trkpt>
      <trkpt lat="44.78319" lon="3.08918">
        <ele>1106.6</ele>
        <time>2022-07-31T11:06:52Z</time>
      </trkpt>
      <trkpt lat="44.78319" lon="3.0892">
        <ele>1106.6</ele>
        <time>2022-07-31T11:06:56Z</time>
      </trkpt>
      <trkpt lat="44.78318" lon="3.0892">
        <ele>1106.7</ele>
        <time>2022-07-31T11:06:59Z</time>
      </trkpt>
      <trkpt lat="44.78317" lon="3.08918">
        <ele>1106.7</ele>
        <time>2022-07-31T11:07:03Z</time>
      </trkpt>
      <trkpt lat="44.78317" lon="3.08918">
        <ele>1106.8</ele>
        <time>2022-07-31T11:07:04Z</time>
      </trkpt>
      <trkpt lat="44.78318" lon="3.08918">
        <ele>1106.7</ele>
        <time>2022-07-31T11:07:09Z</time>
      </trkpt>
      <trkpt lat="44.78318" lon="3.08919">
        <ele>1106.7</ele>
        <time>2022-07-31T11:07:10Z</time>
      </trkpt>
      <trkpt lat="44.78318" lon="3.08928">
        <ele>1106.7</ele>
        <time>2022-07-31T11:07:16Z</time>
      </trkpt>
      <trkpt lat="44.78315" lon="3.08938">
        <ele>1106.9</ele>
        <time>2022-07-31T11:07:23Z</time>
      </trkpt>
      <trkpt lat="44.78315" lon="3.08943">
        <ele>1107</ele>
        <time>2022-07-31T11:07:26Z</time>
      </trkpt>
      <trkpt lat="44.78312" lon="3.0895">
        <ele>1107.6</ele>
        <time>2022-07-31T11:07:30Z</time>
      </trkpt>
      <trkpt lat="44.7831" lon="3.08961">
        <ele>1108.2</ele>
        <time>2022-07-31T11:07:36Z</time>
      </trkpt>
      <trkpt lat="44.7831" lon="3.08962">
        <ele>1108.3</ele>
        <time>2022-07-31T11:07:37Z</time>
      </trkpt>
      <trkpt lat="44.78308" lon="3.08964">
        <ele>1108.5</ele>
        <time>2022-07-31T11:07:39Z</time>
      </trkpt>
      <trkpt lat="44.78307" lon="3.08967">
        <ele>1108.7</ele>
        <time>2022-07-31T11:07:42Z</time>
      </trkpt>
      <trkpt lat="44.7831" lon="3.08974">
        <ele>1108.8</ele>
        <time>2022-07-31T11:07:48Z</time>
      </trkpt>
      <trkpt lat="44.78311" lon="3.08977">
        <ele>1109</ele>
        <time>2022-07-31T11:07:50Z</time>
      </trkpt>
      <trkpt lat="44.78313" lon="3.0898">
        <ele>1109.3</ele>
        <time>2022-07-31T11:07:53Z</time>
      </trkpt>
      <trkpt lat="44.78314" lon="3.08983">
        <ele>1109.4</ele>
        <time>2022-07-31T11:07:56Z</time>
      </trkpt>
      <trkpt lat="44.78315" lon="3.08984">
        <ele>1109.5</ele>
        <time>2022-07-31T11:07:57Z</time>
      </trkpt>
      <trkpt lat="44.78316" lon="3.08986">
        <ele>1109.5</ele>
        <time>2022-07-31T11:07:58Z</time>
      </trkpt>
      <trkpt lat="44.78316" lon="3.08987">
        <ele>1109.7</ele>
        <time>2022-07-31T11:07:59Z</time>
      </trkpt>
      <trkpt lat="44.78317" lon="3.08991">
        <ele>1109.9</ele>
        <time>2022-07-31T11:08:02Z</time>
      </trkpt>
      <trkpt lat="44.78319" lon="3.08994">
        <ele>1110</ele>
        <time>2022-07-31T11:08:04Z</time>
      </trkpt>
      <trkpt lat="44.78319" lon="3.08998">
        <ele>1110.4</ele>
        <time>2022-07-31T11:08:07Z</time>
      </trkpt>
      <trkpt lat="44.78318" lon="3.09">
        <ele>1110.7</ele>
        <time>2022-07-31T11:08:09Z</time>
      </trkpt>
      <trkpt lat="44.78318" lon="3.09003">
        <ele>1110.8</ele>
        <time>2022-07-31T11:08:11Z</time>
      </trkpt>
      <trkpt lat="44.78321" lon="3.09006">
        <ele>1110.8</ele>
        <time>2022-07-31T11:08:13Z</time>
      </trkpt>
      <trkpt lat="44.78322" lon="3.09007">
        <ele>1110.8</ele>
        <time>2022-07-31T11:08:14Z</time>
      </trkpt>
      <trkpt lat="44.78323" lon="3.09008">
        <ele>1110.7</ele>
        <time>2022-07-31T11:08:15Z</time>
      </trkpt>
      <trkpt lat="44.78325" lon="3.09011">
        <ele>1110.7</ele>
        <time>2022-07-31T11:08:17Z</time>
      </trkpt>
      <trkpt lat="44.78325" lon="3.09012">
        <ele>1110.8</ele>
        <time>2022-07-31T11:08:18Z</time>
      </trkpt>
      <trkpt lat="44.78325" lon="3.09015">
        <ele>1111</ele>
        <time>2022-07-31T11:08:21Z</time>
      </trkpt>
      <trkpt lat="44.78325" lon="3.09017">
        <ele>1111.1</ele>
        <time>2022-07-31T11:08:22Z</time>
      </trkpt>
      <trkpt lat="44.78325" lon="3.09021">
        <ele>1111.4</ele>
        <time>2022-07-31T11:08:24Z</time>
      </trkpt>
      <trkpt lat="44.78325" lon="3.09024">
        <ele>1111.6</ele>
        <time>2022-07-31T11:08:26Z</time>
      </trkpt>
      <trkpt lat="44.78325" lon="3.09026">
        <ele>1111.8</ele>
        <time>2022-07-31T11:08:27Z</time>
      </trkpt>
      <trkpt lat="44.78327" lon="3.09035">
        <ele>1111.9</ele>
        <time>2022-07-31T11:08:32Z</time>
      </trkpt>
      <trkpt lat="44.78327" lon="3.09036">
        <ele>1112</ele>
        <time>2022-07-31T11:08:33Z</time>
      </trkpt>
      <trkpt lat="44.7833" lon="3.09049">
        <ele>1112.2</ele>
        <time>2022-07-31T11:08:39Z</time>
      </trkpt>
      <trkpt lat="44.78331" lon="3.09052">
        <ele>1112.1</ele>
        <time>2022-07-31T11:08:42Z</time>
      </trkpt>
      <trkpt lat="44.78333" lon="3.09056">
        <ele>1112.1</ele>
        <time>2022-07-31T11:08:45Z</time>
      </trkpt>
      <trkpt lat="44.78334" lon="3.09061">
        <ele>1112.1</ele>
        <time>2022-07-31T11:08:48Z</time>
      </trkpt>
      <trkpt lat="44.78334" lon="3.09063">
        <ele>1112.2</ele>
        <time>2022-07-31T11:08:50Z</time>
      </trkpt>
      <trkpt lat="44.78334" lon="3.09067">
        <ele>1112.3</ele>
        <time>2022-07-31T11:08:52Z</time>
      </trkpt>
      <trkpt lat="44.78334" lon="3.09072">
        <ele>1112.5</ele>
        <time>2022-07-31T11:08:54Z</time>
      </trkpt>
      <trkpt lat="44.78334" lon="3.09074">
        <ele>1112.6</ele>
        <time>2022-07-31T11:08:55Z</time>
      </trkpt>
      <trkpt lat="44.78336" lon="3.09077">
        <ele>1112.5</ele>
        <time>2022-07-31T11:08:57Z</time>
      </trkpt>
      <trkpt lat="44.78338" lon="3.09084">
        <ele>1112.5</ele>
        <time>2022-07-31T11:09:01Z</time>
      </trkpt>
      <trkpt lat="44.78339" lon="3.09086">
        <ele>1112.5</ele>
        <time>2022-07-31T11:09:02Z</time>
      </trkpt>
      <trkpt lat="44.78341" lon="3.09093">
        <ele>1112.6</ele>
        <time>2022-07-31T11:09:06Z</time>
      </trkpt>
      <trkpt lat="44.7834" lon="3.09096">
        <ele>1112.7</ele>
        <time>2022-07-31T11:09:07Z</time>
      </trkpt>
      <trkpt lat="44.78341" lon="3.09104">
        <ele>1112.9</ele>
        <time>2022-07-31T11:09:11Z</time>
      </trkpt>
      <trkpt lat="44.78342" lon="3.09109">
        <ele>1113</ele>
        <time>2022-07-31T11:09:14Z</time>
      </trkpt>
      <trkpt lat="44.78342" lon="3.09114">
        <ele>1113.1</ele>
        <time>2022-07-31T11:09:17Z</time>
      </trkpt>
      <trkpt lat="44.78343" lon="3.09115">
        <ele>1113.1</ele>
        <time>2022-07-31T11:09:18Z</time>
      </trkpt>
      <trkpt lat="44.78344" lon="3.09117">
        <ele>1113.1</ele>
        <time>2022-07-31T11:09:19Z</time>
      </trkpt>
      <trkpt lat="44.78345" lon="3.09118">
        <ele>1113.1</ele>
        <time>2022-07-31T11:09:20Z</time>
      </trkpt>
      <trkpt lat="44.78347" lon="3.09128">
        <ele>1113.2</ele>
        <time>2022-07-31T11:09:26Z</time>
      </trkpt>
      <trkpt lat="44.78348" lon="3.0913">
        <ele>1113.1</ele>
        <time>2022-07-31T11:09:27Z</time>
      </trkpt>
      <trkpt lat="44.78349" lon="3.09135">
        <ele>1113.1</ele>
        <time>2022-07-31T11:09:30Z</time>
      </trkpt>
      <trkpt lat="44.78355" lon="3.09148">
        <ele>1113</ele>
        <time>2022-07-31T11:09:38Z</time>
      </trkpt>
      <trkpt lat="44.78356" lon="3.09158">
        <ele>1113.2</ele>
        <time>2022-07-31T11:09:45Z</time>
      </trkpt>
      <trkpt lat="44.78356" lon="3.0916">
        <ele>1113.3</ele>
        <time>2022-07-31T11:09:46Z</time>
      </trkpt>
      <trkpt lat="44.78357" lon="3.09164">
        <ele>1113.4</ele>
        <time>2022-07-31T11:09:49Z</time>
      </trkpt>
      <trkpt lat="44.78357" lon="3.09167">
        <ele>1113.5</ele>
        <time>2022-07-31T11:09:51Z</time>
      </trkpt>
      <trkpt lat="44.78357" lon="3.0917">
        <ele>1113.5</ele>
        <time>2022-07-31T11:09:52Z</time>
      </trkpt>
      <trkpt lat="44.78358" lon="3.09171">
        <ele>1113.5</ele>
        <time>2022-07-31T11:09:53Z</time>
      </trkpt>
      <trkpt lat="44.78359" lon="3.09175">
        <ele>1113.5</ele>
        <time>2022-07-31T11:09:55Z</time>
      </trkpt>
      <trkpt lat="44.7836" lon="3.09177">
        <ele>1113.5</ele>
        <time>2022-07-31T11:09:57Z</time>
      </trkpt>
      <trkpt lat="44.78362" lon="3.0918">
        <ele>1113.4</ele>
        <time>2022-07-31T11:10:00Z</time>
      </trkpt>
      <trkpt lat="44.78365" lon="3.09184">
        <ele>1113.5</ele>
        <time>2022-07-31T11:10:03Z</time>
      </trkpt>
      <trkpt lat="44.78366" lon="3.09192">
        <ele>1113.7</ele>
        <time>2022-07-31T11:10:09Z</time>
      </trkpt>
      <trkpt lat="44.78366" lon="3.09194">
        <ele>1113.8</ele>
        <time>2022-07-31T11:10:10Z</time>
      </trkpt>
      <trkpt lat="44.78367" lon="3.09195">
        <ele>1113.8</ele>
        <time>2022-07-31T11:10:11Z</time>
      </trkpt>
      <trkpt lat="44.78368" lon="3.09196">
        <ele>1113.9</ele>
        <time>2022-07-31T11:10:12Z</time>
      </trkpt>
      <trkpt lat="44.78368" lon="3.09198">
        <ele>1114</ele>
        <time>2022-07-31T11:10:14Z</time>
      </trkpt>
      <trkpt lat="44.78368" lon="3.09199">
        <ele>1114</ele>
        <time>2022-07-31T11:10:15Z</time>
      </trkpt>
      <trkpt lat="44.78369" lon="3.092">
        <ele>1114.1</ele>
        <time>2022-07-31T11:10:16Z</time>
      </trkpt>
      <trkpt lat="44.78368" lon="3.09203">
        <ele>1114.3</ele>
        <time>2022-07-31T11:10:18Z</time>
      </trkpt>
      <trkpt lat="44.78369" lon="3.09206">
        <ele>1114.5</ele>
        <time>2022-07-31T11:10:20Z</time>
      </trkpt>
      <trkpt lat="44.7837" lon="3.09213">
        <ele>1114.8</ele>
        <time>2022-07-31T11:10:23Z</time>
      </trkpt>
      <trkpt lat="44.78373" lon="3.09221">
        <ele>1115.1</ele>
        <time>2022-07-31T11:10:27Z</time>
      </trkpt>
      <trkpt lat="44.78375" lon="3.09223">
        <ele>1115.1</ele>
        <time>2022-07-31T11:10:29Z</time>
      </trkpt>
      <trkpt lat="44.78376" lon="3.09229">
        <ele>1115.3</ele>
        <time>2022-07-31T11:10:33Z</time>
      </trkpt>
      <trkpt lat="44.78377" lon="3.09233">
        <ele>1115.4</ele>
        <time>2022-07-31T11:10:35Z</time>
      </trkpt>
      <trkpt lat="44.78378" lon="3.09236">
        <ele>1115.5</ele>
        <time>2022-07-31T11:10:38Z</time>
      </trkpt>
      <trkpt lat="44.78376" lon="3.09238">
        <ele>1115.8</ele>
        <time>2022-07-31T11:10:42Z</time>
      </trkpt>
      <trkpt lat="44.78375" lon="3.0924">
        <ele>1115.9</ele>
        <time>2022-07-31T11:10:44Z</time>
      </trkpt>
      <trkpt lat="44.78372" lon="3.09248">
        <ele>1116.8</ele>
        <time>2022-07-31T11:10:50Z</time>
      </trkpt>
      <trkpt lat="44.78368" lon="3.09258">
        <ele>1117.4</ele>
        <time>2022-07-31T11:10:57Z</time>
      </trkpt>
      <trkpt lat="44.78366" lon="3.09262">
        <ele>1117.6</ele>
        <time>2022-07-31T11:11:00Z</time>
      </trkpt>
      <trkpt lat="44.78364" lon="3.09266">
        <ele>1118</ele>
        <time>2022-07-31T11:11:03Z</time>
      </trkpt>
      <trkpt lat="44.78361" lon="3.09272">
        <ele>1118.8</ele>
        <time>2022-07-31T11:11:08Z</time>
      </trkpt>
      <trkpt lat="44.7836" lon="3.09273">
        <ele>1118.9</ele>
        <time>2022-07-31T11:11:09Z</time>
      </trkpt>
      <trkpt lat="44.78359" lon="3.09278">
        <ele>1119.1</ele>
        <time>2022-07-31T11:11:13Z</time>
      </trkpt>
      <trkpt lat="44.78358" lon="3.09281">
        <ele>1118.7</ele>
        <time>2022-07-31T11:11:15Z</time>
      </trkpt>
      <trkpt lat="44.78357" lon="3.09285">
        <ele>1118.2</ele>
        <time>2022-07-31T11:11:18Z</time>
      </trkpt>
      <trkpt lat="44.78355" lon="3.0929">
        <ele>1117.7</ele>
        <time>2022-07-31T11:11:22Z</time>
      </trkpt>
      <trkpt lat="44.78355" lon="3.09291">
        <ele>1117.5</ele>
        <time>2022-07-31T11:11:23Z</time>
      </trkpt>
      <trkpt lat="44.78354" lon="3.09296">
        <ele>1117</ele>
        <time>2022-07-31T11:11:26Z</time>
      </trkpt>
      <trkpt lat="44.78354" lon="3.09298">
        <ele>1116.7</ele>
        <time>2022-07-31T11:11:28Z</time>
      </trkpt>
      <trkpt lat="44.78352" lon="3.09305">
        <ele>1116.1</ele>
        <time>2022-07-31T11:11:33Z</time>
      </trkpt>
      <trkpt lat="44.78347" lon="3.09314">
        <ele>1115.3</ele>
        <time>2022-07-31T11:11:40Z</time>
      </trkpt>
      <trkpt lat="44.78338" lon="3.09322">
        <ele>1115.1</ele>
        <time>2022-07-31T11:11:45Z</time>
      </trkpt>
      <trkpt lat="44.78337" lon="3.09323">
        <ele>1115</ele>
        <time>2022-07-31T11:11:46Z</time>
      </trkpt>
      <trkpt lat="44.78336" lon="3.09324">
        <ele>1115</ele>
        <time>2022-07-31T11:11:47Z</time>
      </trkpt>
      <trkpt lat="44.78335" lon="3.09325">
        <ele>1115.1</ele>
        <time>2022-07-31T11:11:48Z</time>
      </trkpt>
      <trkpt lat="44.78334" lon="3.09327">
        <ele>1114.9</ele>
        <time>2022-07-31T11:11:50Z</time>
      </trkpt>
      <trkpt lat="44.78333" lon="3.09328">
        <ele>1114.7</ele>
        <time>2022-07-31T11:11:51Z</time>
      </trkpt>
      <trkpt lat="44.78331" lon="3.0933">
        <ele>1114.8</ele>
        <time>2022-07-31T11:11:53Z</time>
      </trkpt>
      <trkpt lat="44.78328" lon="3.09334">
        <ele>1114.8</ele>
        <time>2022-07-31T11:11:59Z</time>
      </trkpt>
      <trkpt lat="44.78325" lon="3.09335">
        <ele>1115</ele>
        <time>2022-07-31T11:12:01Z</time>
      </trkpt>
      <trkpt lat="44.7832" lon="3.09337">
        <ele>1115.3</ele>
        <time>2022-07-31T11:12:04Z</time>
      </trkpt>
      <trkpt lat="44.7831" lon="3.09345">
        <ele>1115.3</ele>
        <time>2022-07-31T11:12:13Z</time>
      </trkpt>
      <trkpt lat="44.78307" lon="3.09349">
        <ele>1115.1</ele>
        <time>2022-07-31T11:12:16Z</time>
      </trkpt>
      <trkpt lat="44.78306" lon="3.09349">
        <ele>1115.1</ele>
        <time>2022-07-31T11:12:17Z</time>
      </trkpt>
      <trkpt lat="44.78305" lon="3.09348">
        <ele>1115.4</ele>
        <time>2022-07-31T11:12:20Z</time>
      </trkpt>
      <trkpt lat="44.78303" lon="3.09351">
        <ele>1115.1</ele>
        <time>2022-07-31T11:12:22Z</time>
      </trkpt>
      <trkpt lat="44.78301" lon="3.09353">
        <ele>1114.9</ele>
        <time>2022-07-31T11:12:24Z</time>
      </trkpt>
      <trkpt lat="44.78299" lon="3.09354">
        <ele>1114.9</ele>
        <time>2022-07-31T11:12:25Z</time>
      </trkpt>
      <trkpt lat="44.78298" lon="3.09357">
        <ele>1114.6</ele>
        <time>2022-07-31T11:12:28Z</time>
      </trkpt>
      <trkpt lat="44.78296" lon="3.09358">
        <ele>1114.5</ele>
        <time>2022-07-31T11:12:29Z</time>
      </trkpt>
      <trkpt lat="44.78294" lon="3.09361">
        <ele>1114.3</ele>
        <time>2022-07-31T11:12:31Z</time>
      </trkpt>
      <trkpt lat="44.78292" lon="3.09363">
        <ele>1114.2</ele>
        <time>2022-07-31T11:12:32Z</time>
      </trkpt>
      <trkpt lat="44.7829" lon="3.09365">
        <ele>1114.1</ele>
        <time>2022-07-31T11:12:34Z</time>
      </trkpt>
      <trkpt lat="44.78287" lon="3.09367">
        <ele>1114</ele>
        <time>2022-07-31T11:12:36Z</time>
      </trkpt>
      <trkpt lat="44.78282" lon="3.09371">
        <ele>1113.9</ele>
        <time>2022-07-31T11:12:40Z</time>
      </trkpt>
      <trkpt lat="44.7828" lon="3.09372">
        <ele>1113.8</ele>
        <time>2022-07-31T11:12:42Z</time>
      </trkpt>
      <trkpt lat="44.78277" lon="3.09375">
        <ele>1113.6</ele>
        <time>2022-07-31T11:12:45Z</time>
      </trkpt>
      <trkpt lat="44.78274" lon="3.09378">
        <ele>1113.3</ele>
        <time>2022-07-31T11:12:47Z</time>
      </trkpt>
      <trkpt lat="44.78272" lon="3.09379">
        <ele>1113.3</ele>
        <time>2022-07-31T11:12:48Z</time>
      </trkpt>
      <trkpt lat="44.78269" lon="3.0938">
        <ele>1113.2</ele>
        <time>2022-07-31T11:12:50Z</time>
      </trkpt>
      <trkpt lat="44.78262" lon="3.09384">
        <ele>1113</ele>
        <time>2022-07-31T11:12:54Z</time>
      </trkpt>
      <trkpt lat="44.7826" lon="3.09385">
        <ele>1112.9</ele>
        <time>2022-07-31T11:12:55Z</time>
      </trkpt>
      <trkpt lat="44.78257" lon="3.09386">
        <ele>1113.1</ele>
        <time>2022-07-31T11:12:57Z</time>
      </trkpt>
      <trkpt lat="44.78256" lon="3.09387">
        <ele>1113</ele>
        <time>2022-07-31T11:12:59Z</time>
      </trkpt>
      <trkpt lat="44.78253" lon="3.09388">
        <ele>1113</ele>
        <time>2022-07-31T11:13:01Z</time>
      </trkpt>
      <trkpt lat="44.78246" lon="3.09391">
        <ele>1113.3</ele>
        <time>2022-07-31T11:13:06Z</time>
      </trkpt>
      <trkpt lat="44.78244" lon="3.09392">
        <ele>1113.6</ele>
        <time>2022-07-31T11:13:09Z</time>
      </trkpt>
      <trkpt lat="44.78242" lon="3.09392">
        <ele>1113.8</ele>
        <time>2022-07-31T11:13:11Z</time>
      </trkpt>
      <trkpt lat="44.78239" lon="3.09394">
        <ele>1113.9</ele>
        <time>2022-07-31T11:13:14Z</time>
      </trkpt>
      <trkpt lat="44.78237" lon="3.09396">
        <ele>1113.9</ele>
        <time>2022-07-31T11:13:16Z</time>
      </trkpt>
      <trkpt lat="44.78236" lon="3.09397">
        <ele>1113.9</ele>
        <time>2022-07-31T11:13:18Z</time>
      </trkpt>
      <trkpt lat="44.78233" lon="3.09399">
        <ele>1114</ele>
        <time>2022-07-31T11:13:22Z</time>
      </trkpt>
      <trkpt lat="44.78229" lon="3.09396">
        <ele>1114.9</ele>
        <time>2022-07-31T11:13:29Z</time>
      </trkpt>
      <trkpt lat="44.78228" lon="3.09397">
        <ele>1114.8</ele>
        <time>2022-07-31T11:13:34Z</time>
      </trkpt>
      <trkpt lat="44.78227" lon="3.094">
        <ele>1114.5</ele>
        <time>2022-07-31T11:13:37Z</time>
      </trkpt>
      <trkpt lat="44.78227" lon="3.09401">
        <ele>1114.4</ele>
        <time>2022-07-31T11:13:38Z</time>
      </trkpt>
      <trkpt lat="44.78224" lon="3.09405">
        <ele>1114</ele>
        <time>2022-07-31T11:13:43Z</time>
      </trkpt>
      <trkpt lat="44.78217" lon="3.09411">
        <ele>1113.7</ele>
        <time>2022-07-31T11:13:48Z</time>
      </trkpt>
      <trkpt lat="44.78216" lon="3.09412">
        <ele>1113.7</ele>
        <time>2022-07-31T11:13:49Z</time>
      </trkpt>
      <trkpt lat="44.78213" lon="3.09415">
        <ele>1113.5</ele>
        <time>2022-07-31T11:13:52Z</time>
      </trkpt>
      <trkpt lat="44.78212" lon="3.09418">
        <ele>1113.4</ele>
        <time>2022-07-31T11:13:54Z</time>
      </trkpt>
      <trkpt lat="44.78211" lon="3.0942">
        <ele>1113.5</ele>
        <time>2022-07-31T11:13:55Z</time>
      </trkpt>
      <trkpt lat="44.7821" lon="3.0942">
        <ele>1113.6</ele>
        <time>2022-07-31T11:13:56Z</time>
      </trkpt>
      <trkpt lat="44.78209" lon="3.09421">
        <ele>1113.7</ele>
        <time>2022-07-31T11:13:57Z</time>
      </trkpt>
      <trkpt lat="44.78208" lon="3.09421">
        <ele>1113.8</ele>
        <time>2022-07-31T11:13:58Z</time>
      </trkpt>
      <trkpt lat="44.78206" lon="3.09423">
        <ele>1113.9</ele>
        <time>2022-07-31T11:14:00Z</time>
      </trkpt>
      <trkpt lat="44.78205" lon="3.09424">
        <ele>1114</ele>
        <time>2022-07-31T11:14:01Z</time>
      </trkpt>
      <trkpt lat="44.78203" lon="3.09425">
        <ele>1114.2</ele>
        <time>2022-07-31T11:14:04Z</time>
      </trkpt>
      <trkpt lat="44.78202" lon="3.09425">
        <ele>1114.4</ele>
        <time>2022-07-31T11:14:06Z</time>
      </trkpt>
      <trkpt lat="44.78201" lon="3.09425">
        <ele>1114.5</ele>
        <time>2022-07-31T11:14:07Z</time>
      </trkpt>
      <trkpt lat="44.782" lon="3.09425">
        <ele>1114.7</ele>
        <time>2022-07-31T11:14:08Z</time>
      </trkpt>
      <trkpt lat="44.78193" lon="3.09429">
        <ele>1115.3</ele>
        <time>2022-07-31T11:14:12Z</time>
      </trkpt>
      <trkpt lat="44.78191" lon="3.0943">
        <ele>1115.3</ele>
        <time>2022-07-31T11:14:14Z</time>
      </trkpt>
      <trkpt lat="44.78189" lon="3.09432">
        <ele>1115.4</ele>
        <time>2022-07-31T11:14:17Z</time>
      </trkpt>
      <trkpt lat="44.78186" lon="3.09435">
        <ele>1115.4</ele>
        <time>2022-07-31T11:14:20Z</time>
      </trkpt>
      <trkpt lat="44.78177" lon="3.09445">
        <ele>1115.2</ele>
        <time>2022-07-31T11:14:29Z</time>
      </trkpt>
      <trkpt lat="44.78173" lon="3.09448">
        <ele>1115.4</ele>
        <time>2022-07-31T11:14:36Z</time>
      </trkpt>
      <trkpt lat="44.78169" lon="3.09453">
        <ele>1115.5</ele>
        <time>2022-07-31T11:14:40Z</time>
      </trkpt>
      <trkpt lat="44.78168" lon="3.09453">
        <ele>1115.6</ele>
        <time>2022-07-31T11:14:41Z</time>
      </trkpt>
      <trkpt lat="44.78163" lon="3.0946">
        <ele>1115.6</ele>
        <time>2022-07-31T11:14:45Z</time>
      </trkpt>
      <trkpt lat="44.7816" lon="3.09464">
        <ele>1115.7</ele>
        <time>2022-07-31T11:14:50Z</time>
      </trkpt>
      <trkpt lat="44.78157" lon="3.09467">
        <ele>1115.8</ele>
        <time>2022-07-31T11:14:53Z</time>
      </trkpt>
      <trkpt lat="44.78156" lon="3.0947">
        <ele>1115.8</ele>
        <time>2022-07-31T11:14:55Z</time>
      </trkpt>
      <trkpt lat="44.78153" lon="3.09478">
        <ele>1115.8</ele>
        <time>2022-07-31T11:15:01Z</time>
      </trkpt>
      <trkpt lat="44.78153" lon="3.09479">
        <ele>1115.9</ele>
        <time>2022-07-31T11:15:02Z</time>
      </trkpt>
      <trkpt lat="44.78151" lon="3.09481">
        <ele>1116</ele>
        <time>2022-07-31T11:15:04Z</time>
      </trkpt>
      <trkpt lat="44.7815" lon="3.09484">
        <ele>1116</ele>
        <time>2022-07-31T11:15:06Z</time>
      </trkpt>
      <trkpt lat="44.7815" lon="3.09486">
        <ele>1116</ele>
        <time>2022-07-31T11:15:08Z</time>
      </trkpt>
      <trkpt lat="44.78148" lon="3.09491">
        <ele>1116.1</ele>
        <time>2022-07-31T11:15:11Z</time>
      </trkpt>
      <trkpt lat="44.78145" lon="3.09493">
        <ele>1116.4</ele>
        <time>2022-07-31T11:15:13Z</time>
      </trkpt>
      <trkpt lat="44.78144" lon="3.09494">
        <ele>1116.5</ele>
        <time>2022-07-31T11:15:15Z</time>
      </trkpt>
      <trkpt lat="44.78139" lon="3.09502">
        <ele>1116.9</ele>
        <time>2022-07-31T11:15:22Z</time>
      </trkpt>
      <trkpt lat="44.7813" lon="3.09513">
        <ele>1116.6</ele>
        <time>2022-07-31T11:15:31Z</time>
      </trkpt>
      <trkpt lat="44.7813" lon="3.09515">
        <ele>1116.6</ele>
        <time>2022-07-31T11:15:32Z</time>
      </trkpt>
      <trkpt lat="44.78128" lon="3.0952">
        <ele>1116.5</ele>
        <time>2022-07-31T11:15:35Z</time>
      </trkpt>
      <trkpt lat="44.78128" lon="3.09522">
        <ele>1116.4</ele>
        <time>2022-07-31T11:15:36Z</time>
      </trkpt>
      <trkpt lat="44.78127" lon="3.09525">
        <ele>1116.4</ele>
        <time>2022-07-31T11:15:38Z</time>
      </trkpt>
      <trkpt lat="44.78127" lon="3.09528">
        <ele>1116.3</ele>
        <time>2022-07-31T11:15:40Z</time>
      </trkpt>
      <trkpt lat="44.78127" lon="3.0953">
        <ele>1116.4</ele>
        <time>2022-07-31T11:15:41Z</time>
      </trkpt>
      <trkpt lat="44.78124" lon="3.09535">
        <ele>1117.1</ele>
        <time>2022-07-31T11:15:47Z</time>
      </trkpt>
      <trkpt lat="44.78122" lon="3.09539">
        <ele>1117.5</ele>
        <time>2022-07-31T11:15:50Z</time>
      </trkpt>
      <trkpt lat="44.78122" lon="3.0954">
        <ele>1117.6</ele>
        <time>2022-07-31T11:15:51Z</time>
      </trkpt>
      <trkpt lat="44.78121" lon="3.09541">
        <ele>1117.8</ele>
        <time>2022-07-31T11:15:52Z</time>
      </trkpt>
      <trkpt lat="44.78119" lon="3.09544">
        <ele>1118.1</ele>
        <time>2022-07-31T11:15:55Z</time>
      </trkpt>
      <trkpt lat="44.78118" lon="3.09547">
        <ele>1118.3</ele>
        <time>2022-07-31T11:15:57Z</time>
      </trkpt>
      <trkpt lat="44.78116" lon="3.09552">
        <ele>1118.6</ele>
        <time>2022-07-31T11:16:01Z</time>
      </trkpt>
      <trkpt lat="44.78116" lon="3.09554">
        <ele>1118.7</ele>
        <time>2022-07-31T11:16:02Z</time>
      </trkpt>
      <trkpt lat="44.78116" lon="3.09556">
        <ele>1118.8</ele>
        <time>2022-07-31T11:16:03Z</time>
      </trkpt>
      <trkpt lat="44.78117" lon="3.09559">
        <ele>1119</ele>
        <time>2022-07-31T11:16:07Z</time>
      </trkpt>
      <trkpt lat="44.78118" lon="3.09561">
        <ele>1119</ele>
        <time>2022-07-31T11:16:08Z</time>
      </trkpt>
      <trkpt lat="44.78117" lon="3.09563">
        <ele>1119.2</ele>
        <time>2022-07-31T11:16:10Z</time>
      </trkpt>
      <trkpt lat="44.78116" lon="3.09567">
        <ele>1119.4</ele>
        <time>2022-07-31T11:16:12Z</time>
      </trkpt>
      <trkpt lat="44.78115" lon="3.09568">
        <ele>1119.4</ele>
        <time>2022-07-31T11:16:13Z</time>
      </trkpt>
      <trkpt lat="44.78115" lon="3.09569">
        <ele>1119.5</ele>
        <time>2022-07-31T11:16:14Z</time>
      </trkpt>
      <trkpt lat="44.7811" lon="3.0957">
        <ele>1119.6</ele>
        <time>2022-07-31T11:16:21Z</time>
      </trkpt>
      <trkpt lat="44.78108" lon="3.09566">
        <ele>1119.6</ele>
        <time>2022-07-31T11:16:24Z</time>
      </trkpt>
      <trkpt lat="44.78108" lon="3.09565">
        <ele>1119.6</ele>
        <time>2022-07-31T11:16:25Z</time>
      </trkpt>
      <trkpt lat="44.78108" lon="3.09563">
        <ele>1119.5</ele>
        <time>2022-07-31T11:16:29Z</time>
      </trkpt>
      <trkpt lat="44.78109" lon="3.09563">
        <ele>1119.4</ele>
        <time>2022-07-31T11:16:34Z</time>
      </trkpt>
      <trkpt lat="44.78106" lon="3.09578">
        <ele>1120.3</ele>
        <time>2022-07-31T11:16:41Z</time>
      </trkpt>
      <trkpt lat="44.78106" lon="3.09579">
        <ele>1120.4</ele>
        <time>2022-07-31T11:16:43Z</time>
      </trkpt>
      <trkpt lat="44.78105" lon="3.09582">
        <ele>1120.6</ele>
        <time>2022-07-31T11:16:48Z</time>
      </trkpt>
      <trkpt lat="44.78103" lon="3.09587">
        <ele>1121.4</ele>
        <time>2022-07-31T11:16:54Z</time>
      </trkpt>
      <trkpt lat="44.78101" lon="3.09589">
        <ele>1121.7</ele>
        <time>2022-07-31T11:16:55Z</time>
      </trkpt>
      <trkpt lat="44.781" lon="3.0959">
        <ele>1121.9</ele>
        <time>2022-07-31T11:16:56Z</time>
      </trkpt>
      <trkpt lat="44.78098" lon="3.09592">
        <ele>1122.3</ele>
        <time>2022-07-31T11:16:58Z</time>
      </trkpt>
      <trkpt lat="44.78095" lon="3.09593">
        <ele>1122.7</ele>
        <time>2022-07-31T11:17:00Z</time>
      </trkpt>
      <trkpt lat="44.78095" lon="3.09593">
        <ele>1122.8</ele>
        <time>2022-07-31T11:17:01Z</time>
      </trkpt>
      <trkpt lat="44.78094" lon="3.09593">
        <ele>1123</ele>
        <time>2022-07-31T11:17:02Z</time>
      </trkpt>
      <trkpt lat="44.7809" lon="3.09594">
        <ele>1123.4</ele>
        <time>2022-07-31T11:17:06Z</time>
      </trkpt>
      <trkpt lat="44.78089" lon="3.09595">
        <ele>1123.6</ele>
        <time>2022-07-31T11:17:07Z</time>
      </trkpt>
      <trkpt lat="44.78077" lon="3.09595">
        <ele>1124.9</ele>
        <time>2022-07-31T11:17:17Z</time>
      </trkpt>
      <trkpt lat="44.78075" lon="3.09596">
        <ele>1125.2</ele>
        <time>2022-07-31T11:17:20Z</time>
      </trkpt>
      <trkpt lat="44.7807" lon="3.09598">
        <ele>1126</ele>
        <time>2022-07-31T11:17:25Z</time>
      </trkpt>
      <trkpt lat="44.78068" lon="3.096">
        <ele>1126.4</ele>
        <time>2022-07-31T11:17:27Z</time>
      </trkpt>
      <trkpt lat="44.78063" lon="3.096">
        <ele>1127</ele>
        <time>2022-07-31T11:17:31Z</time>
      </trkpt>
      <trkpt lat="44.78061" lon="3.09599">
        <ele>1127.1</ele>
        <time>2022-07-31T11:17:33Z</time>
      </trkpt>
      <trkpt lat="44.78054" lon="3.09601">
        <ele>1128.1</ele>
        <time>2022-07-31T11:17:40Z</time>
      </trkpt>
      <trkpt lat="44.78047" lon="3.09606">
        <ele>1129.1</ele>
        <time>2022-07-31T11:17:46Z</time>
      </trkpt>
      <trkpt lat="44.78039" lon="3.09607">
        <ele>1129.8</ele>
        <time>2022-07-31T11:17:54Z</time>
      </trkpt>
      <trkpt lat="44.78035" lon="3.09606">
        <ele>1130.1</ele>
        <time>2022-07-31T11:17:56Z</time>
      </trkpt>
      <trkpt lat="44.78032" lon="3.09606">
        <ele>1130.3</ele>
        <time>2022-07-31T11:18:01Z</time>
      </trkpt>
      <trkpt lat="44.7803" lon="3.09607">
        <ele>1130.5</ele>
        <time>2022-07-31T11:18:03Z</time>
      </trkpt>
      <trkpt lat="44.78024" lon="3.09607">
        <ele>1130.9</ele>
        <time>2022-07-31T11:18:07Z</time>
      </trkpt>
      <trkpt lat="44.78021" lon="3.09606">
        <ele>1131.1</ele>
        <time>2022-07-31T11:18:10Z</time>
      </trkpt>
      <trkpt lat="44.78018" lon="3.09606">
        <ele>1131.4</ele>
        <time>2022-07-31T11:18:15Z</time>
      </trkpt>
      <trkpt lat="44.78015" lon="3.09606">
        <ele>1131.5</ele>
        <time>2022-07-31T11:18:17Z</time>
      </trkpt>
      <trkpt lat="44.78008" lon="3.09605">
        <ele>1132</ele>
        <time>2022-07-31T11:18:26Z</time>
      </trkpt>
      <trkpt lat="44.78007" lon="3.09607">
        <ele>1132.2</ele>
        <time>2022-07-31T11:18:28Z</time>
      </trkpt>
      <trkpt lat="44.78004" lon="3.09609">
        <ele>1132.6</ele>
        <time>2022-07-31T11:18:32Z</time>
      </trkpt>
      <trkpt lat="44.78004" lon="3.0961">
        <ele>1132.7</ele>
        <time>2022-07-31T11:18:33Z</time>
      </trkpt>
      <trkpt lat="44.78003" lon="3.09611">
        <ele>1132.8</ele>
        <time>2022-07-31T11:18:34Z</time>
      </trkpt>
      <trkpt lat="44.78004" lon="3.09611">
        <ele>1132.6</ele>
        <time>2022-07-31T11:18:37Z</time>
      </trkpt>
      <trkpt lat="44.78006" lon="3.09609">
        <ele>1132.4</ele>
        <time>2022-07-31T11:18:40Z</time>
      </trkpt>
      <trkpt lat="44.78005" lon="3.09609">
        <ele>1132.5</ele>
        <time>2022-07-31T11:18:42Z</time>
      </trkpt>
      <trkpt lat="44.78005" lon="3.09609">
        <ele>1132.5</ele>
        <time>2022-07-31T11:18:46Z</time>
      </trkpt>
      <trkpt lat="44.78004" lon="3.09609">
        <ele>1132.5</ele>
        <time>2022-07-31T11:18:55Z</time>
      </trkpt>
      <trkpt lat="44.78004" lon="3.09609">
        <ele>1132.5</ele>
        <time>2022-07-31T11:19:01Z</time>
      </trkpt>
      <trkpt lat="44.78005" lon="3.09609">
        <ele>1132.5</ele>
        <time>2022-07-31T11:19:10Z</time>
      </trkpt>
      <trkpt lat="44.78005" lon="3.0961">
        <ele>1132.5</ele>
        <time>2022-07-31T11:19:13Z</time>
      </trkpt>
      <trkpt lat="44.78006" lon="3.0961">
        <ele>1132.5</ele>
        <time>2022-07-31T11:19:16Z</time>
      </trkpt>
      <trkpt lat="44.78006" lon="3.09611">
        <ele>1132.5</ele>
        <time>2022-07-31T11:19:18Z</time>
      </trkpt>
      <trkpt lat="44.78006" lon="3.09611">
        <ele>1132.5</ele>
        <time>2022-07-31T11:19:21Z</time>
      </trkpt>
      <trkpt lat="44.78006" lon="3.09611">
        <ele>1132.5</ele>
        <time>2022-07-31T11:19:25Z</time>
      </trkpt>
      <trkpt lat="44.78008" lon="3.09613">
        <ele>1132.5</ele>
        <time>2022-07-31T11:19:45Z</time>
      </trkpt>
      <trkpt lat="44.7801" lon="3.09613">
        <ele>1132.4</ele>
        <time>2022-07-31T11:19:54Z</time>
      </trkpt>
      <trkpt lat="44.7801" lon="3.09613">
        <ele>1132.4</ele>
        <time>2022-07-31T11:19:57Z</time>
      </trkpt>
      <trkpt lat="44.78011" lon="3.09613">
        <ele>1132.4</ele>
        <time>2022-07-31T11:20:01Z</time>
      </trkpt>
      <trkpt lat="44.78011" lon="3.09613">
        <ele>1132.4</ele>
        <time>2022-07-31T11:20:08Z</time>
      </trkpt>
      <trkpt lat="44.78011" lon="3.09613">
        <ele>1132.4</ele>
        <time>2022-07-31T11:20:09Z</time>
      </trkpt>
      <trkpt lat="44.78011" lon="3.09617">
        <ele>1132.7</ele>
        <time>2022-07-31T11:20:12Z</time>
      </trkpt>
      <trkpt lat="44.78012" lon="3.09618">
        <ele>1132.8</ele>
        <time>2022-07-31T11:20:13Z</time>
      </trkpt>
      <trkpt lat="44.78012" lon="3.0962">
        <ele>1132.9</ele>
        <time>2022-07-31T11:20:14Z</time>
      </trkpt>
      <trkpt lat="44.78012" lon="3.09622">
        <ele>1133</ele>
        <time>2022-07-31T11:20:15Z</time>
      </trkpt>
      <trkpt lat="44.78013" lon="3.09623">
        <ele>1133.1</ele>
        <time>2022-07-31T11:20:16Z</time>
      </trkpt>
      <trkpt lat="44.78013" lon="3.09623">
        <ele>1133.2</ele>
        <time>2022-07-31T11:20:17Z</time>
      </trkpt>
      <trkpt lat="44.78013" lon="3.09624">
        <ele>1133.2</ele>
        <time>2022-07-31T11:20:18Z</time>
      </trkpt>
      <trkpt lat="44.78012" lon="3.09624">
        <ele>1133.3</ele>
        <time>2022-07-31T11:20:20Z</time>
      </trkpt>
      <trkpt lat="44.78011" lon="3.09624">
        <ele>1133.3</ele>
        <time>2022-07-31T11:20:21Z</time>
      </trkpt>
      <trkpt lat="44.78011" lon="3.09625">
        <ele>1133.4</ele>
        <time>2022-07-31T11:20:26Z</time>
      </trkpt>
      <trkpt lat="44.7801" lon="3.09626">
        <ele>1133.5</ele>
        <time>2022-07-31T11:20:28Z</time>
      </trkpt>
      <trkpt lat="44.78006" lon="3.09627">
        <ele>1133.8</ele>
        <time>2022-07-31T11:20:31Z</time>
      </trkpt>
      <trkpt lat="44.78006" lon="3.09627">
        <ele>1133.8</ele>
        <time>2022-07-31T11:20:32Z</time>
      </trkpt>
      <trkpt lat="44.78006" lon="3.09627">
        <ele>1133.8</ele>
        <time>2022-07-31T11:20:33Z</time>
      </trkpt>
      <trkpt lat="44.78006" lon="3.09627">
        <ele>1133.8</ele>
        <time>2022-07-31T11:20:40Z</time>
      </trkpt>
      <trkpt lat="44.78006" lon="3.09627">
        <ele>1133.8</ele>
        <time>2022-07-31T11:20:41Z</time>
      </trkpt>
      <trkpt lat="44.78007" lon="3.09627">
        <ele>1133.8</ele>
        <time>2022-07-31T11:20:42Z</time>
      </trkpt>
      <trkpt lat="44.78007" lon="3.09626">
        <ele>1133.7</ele>
        <time>2022-07-31T11:20:44Z</time>
      </trkpt>
      <trkpt lat="44.78008" lon="3.09626">
        <ele>1133.6</ele>
        <time>2022-07-31T11:20:48Z</time>
      </trkpt>
      <trkpt lat="44.78008" lon="3.09626">
        <ele>1133.6</ele>
        <time>2022-07-31T11:20:50Z</time>
      </trkpt>
      <trkpt lat="44.78008" lon="3.09626">
        <ele>1133.6</ele>
        <time>2022-07-31T11:20:52Z</time>
      </trkpt>
      <trkpt lat="44.78008" lon="3.09626">
        <ele>1133.6</ele>
        <time>2022-07-31T11:20:54Z</time>
      </trkpt>
      <trkpt lat="44.78008" lon="3.09626">
        <ele>1133.6</ele>
        <time>2022-07-31T11:20:57Z</time>
      </trkpt>
      <trkpt lat="44.78008" lon="3.09626">
        <ele>1133.6</ele>
        <time>2022-07-31T11:20:59Z</time>
      </trkpt>
      <trkpt lat="44.78008" lon="3.09626">
        <ele>1133.6</ele>
        <time>2022-07-31T11:21:01Z</time>
      </trkpt>
      <trkpt lat="44.78008" lon="3.09626">
        <ele>1133.7</ele>
        <time>2022-07-31T11:21:06Z</time>
      </trkpt>
      <trkpt lat="44.78008" lon="3.09626">
        <ele>1133.7</ele>
        <time>2022-07-31T11:21:07Z</time>
      </trkpt>
      <trkpt lat="44.78008" lon="3.09627">
        <ele>1133.7</ele>
        <time>2022-07-31T11:21:13Z</time>
      </trkpt>
      <trkpt lat="44.78008" lon="3.09627">
        <ele>1133.7</ele>
        <time>2022-07-31T11:21:14Z</time>
      </trkpt>
      <trkpt lat="44.78008" lon="3.09627">
        <ele>1133.7</ele>
        <time>2022-07-31T11:21:15Z</time>
      </trkpt>
      <trkpt lat="44.78008" lon="3.09627">
        <ele>1133.7</ele>
        <time>2022-07-31T11:21:17Z</time>
      </trkpt>
      <trkpt lat="44.78008" lon="3.09627">
        <ele>1133.8</ele>
        <time>2022-07-31T11:21:20Z</time>
      </trkpt>
      <trkpt lat="44.78008" lon="3.09628">
        <ele>1133.8</ele>
        <time>2022-07-31T11:21:23Z</time>
      </trkpt>
      <trkpt lat="44.78008" lon="3.09628">
        <ele>1133.8</ele>
        <time>2022-07-31T11:21:28Z</time>
      </trkpt>
      <trkpt lat="44.78007" lon="3.09628">
        <ele>1133.8</ele>
        <time>2022-07-31T11:21:35Z</time>
      </trkpt>
      <trkpt lat="44.78007" lon="3.09628">
        <ele>1133.8</ele>
        <time>2022-07-31T11:21:36Z</time>
      </trkpt>
      <trkpt lat="44.78009" lon="3.0963">
        <ele>1133.9</ele>
        <time>2022-07-31T11:21:48Z</time>
      </trkpt>
      <trkpt lat="44.78011" lon="3.09631">
        <ele>1133.9</ele>
        <time>2022-07-31T11:21:50Z</time>
      </trkpt>
      <trkpt lat="44.78012" lon="3.09632">
        <ele>1133.9</ele>
        <time>2022-07-31T11:21:51Z</time>
      </trkpt>
      <trkpt lat="44.78014" lon="3.09632">
        <ele>1133.9</ele>
        <time>2022-07-31T11:21:52Z</time>
      </trkpt>
      <trkpt lat="44.78016" lon="3.09633">
        <ele>1133.8</ele>
        <time>2022-07-31T11:21:53Z</time>
      </trkpt>
      <trkpt lat="44.78018" lon="3.09635">
        <ele>1133.9</ele>
        <time>2022-07-31T11:21:55Z</time>
      </trkpt>
      <trkpt lat="44.78019" lon="3.09636">
        <ele>1134</ele>
        <time>2022-07-31T11:21:56Z</time>
      </trkpt>
      <trkpt lat="44.78019" lon="3.09637">
        <ele>1134.1</ele>
        <time>2022-07-31T11:21:57Z</time>
      </trkpt>
      <trkpt lat="44.7802" lon="3.09638">
        <ele>1134.2</ele>
        <time>2022-07-31T11:21:58Z</time>
      </trkpt>
      <trkpt lat="44.78021" lon="3.09639">
        <ele>1134.3</ele>
        <time>2022-07-31T11:21:59Z</time>
      </trkpt>
      <trkpt lat="44.78023" lon="3.0964">
        <ele>1134.3</ele>
        <time>2022-07-31T11:22:01Z</time>
      </trkpt>
      <trkpt lat="44.78025" lon="3.09643">
        <ele>1134.4</ele>
        <time>2022-07-31T11:22:04Z</time>
      </trkpt>
      <trkpt lat="44.78025" lon="3.09643">
        <ele>1134.4</ele>
        <time>2022-07-31T11:22:05Z</time>
      </trkpt>
      <trkpt lat="44.78026" lon="3.09647">
        <ele>1134.7</ele>
        <time>2022-07-31T11:22:07Z</time>
      </trkpt>
      <trkpt lat="44.78029" lon="3.09655">
        <ele>1135.1</ele>
        <time>2022-07-31T11:22:13Z</time>
      </trkpt>
      <trkpt lat="44.78029" lon="3.09659">
        <ele>1135.3</ele>
        <time>2022-07-31T11:22:16Z</time>
      </trkpt>
      <trkpt lat="44.78029" lon="3.0966">
        <ele>1135.4</ele>
        <time>2022-07-31T11:22:17Z</time>
      </trkpt>
      <trkpt lat="44.7803" lon="3.09661">
        <ele>1135.4</ele>
        <time>2022-07-31T11:22:18Z</time>
      </trkpt>
      <trkpt lat="44.7803" lon="3.09662">
        <ele>1135.5</ele>
        <time>2022-07-31T11:22:19Z</time>
      </trkpt>
      <trkpt lat="44.7803" lon="3.09664">
        <ele>1135.6</ele>
        <time>2022-07-31T11:22:20Z</time>
      </trkpt>
      <trkpt lat="44.78031" lon="3.09666">
        <ele>1135.7</ele>
        <time>2022-07-31T11:22:22Z</time>
      </trkpt>
      <trkpt lat="44.78035" lon="3.09671">
        <ele>1135.8</ele>
        <time>2022-07-31T11:22:26Z</time>
      </trkpt>
      <trkpt lat="44.78036" lon="3.09673">
        <ele>1135.9</ele>
        <time>2022-07-31T11:22:27Z</time>
      </trkpt>
      <trkpt lat="44.78036" lon="3.09674">
        <ele>1135.9</ele>
        <time>2022-07-31T11:22:28Z</time>
      </trkpt>
      <trkpt lat="44.78035" lon="3.09676">
        <ele>1136.1</ele>
        <time>2022-07-31T11:22:30Z</time>
      </trkpt>
      <trkpt lat="44.78035" lon="3.09677">
        <ele>1136.2</ele>
        <time>2022-07-31T11:22:31Z</time>
      </trkpt>
      <trkpt lat="44.78036" lon="3.09679">
        <ele>1136.3</ele>
        <time>2022-07-31T11:22:32Z</time>
      </trkpt>
      <trkpt lat="44.78037" lon="3.0968">
        <ele>1136.3</ele>
        <time>2022-07-31T11:22:33Z</time>
      </trkpt>
      <trkpt lat="44.78036" lon="3.09681">
        <ele>1136.4</ele>
        <time>2022-07-31T11:22:34Z</time>
      </trkpt>
      <trkpt lat="44.78037" lon="3.09682">
        <ele>1136.5</ele>
        <time>2022-07-31T11:22:35Z</time>
      </trkpt>
      <trkpt lat="44.78036" lon="3.09684">
        <ele>1136.6</ele>
        <time>2022-07-31T11:22:36Z</time>
      </trkpt>
      <trkpt lat="44.78037" lon="3.0969">
        <ele>1137</ele>
        <time>2022-07-31T11:22:41Z</time>
      </trkpt>
      <trkpt lat="44.78038" lon="3.09693">
        <ele>1137.1</ele>
        <time>2022-07-31T11:22:42Z</time>
      </trkpt>
      <trkpt lat="44.78038" lon="3.09696">
        <ele>1137.4</ele>
        <time>2022-07-31T11:22:45Z</time>
      </trkpt>
      <trkpt lat="44.78039" lon="3.09698">
        <ele>1137.5</ele>
        <time>2022-07-31T11:22:47Z</time>
      </trkpt>
      <trkpt lat="44.78041" lon="3.09702">
        <ele>1137.7</ele>
        <time>2022-07-31T11:22:50Z</time>
      </trkpt>
      <trkpt lat="44.78042" lon="3.09704">
        <ele>1137.8</ele>
        <time>2022-07-31T11:22:52Z</time>
      </trkpt>
      <trkpt lat="44.78042" lon="3.09707">
        <ele>1138.1</ele>
        <time>2022-07-31T11:22:54Z</time>
      </trkpt>
      <trkpt lat="44.78042" lon="3.09708">
        <ele>1138.2</ele>
        <time>2022-07-31T11:22:55Z</time>
      </trkpt>
      <trkpt lat="44.78043" lon="3.09709">
        <ele>1138.2</ele>
        <time>2022-07-31T11:22:56Z</time>
      </trkpt>
      <trkpt lat="44.78046" lon="3.09711">
        <ele>1138.1</ele>
        <time>2022-07-31T11:22:58Z</time>
      </trkpt>
      <trkpt lat="44.78047" lon="3.09713">
        <ele>1138.2</ele>
        <time>2022-07-31T11:22:59Z</time>
      </trkpt>
      <trkpt lat="44.78048" lon="3.09719">
        <ele>1138.5</ele>
        <time>2022-07-31T11:23:02Z</time>
      </trkpt>
      <trkpt lat="44.78049" lon="3.09721">
        <ele>1138.5</ele>
        <time>2022-07-31T11:23:05Z</time>
      </trkpt>
      <trkpt lat="44.78052" lon="3.09724">
        <ele>1138.6</ele>
        <time>2022-07-31T11:23:07Z</time>
      </trkpt>
      <trkpt lat="44.78054" lon="3.09732">
        <ele>1138.8</ele>
        <time>2022-07-31T11:23:12Z</time>
      </trkpt>
      <trkpt lat="44.78054" lon="3.09733">
        <ele>1138.9</ele>
        <time>2022-07-31T11:23:13Z</time>
      </trkpt>
      <trkpt lat="44.78055" lon="3.09734">
        <ele>1139</ele>
        <time>2022-07-31T11:23:14Z</time>
      </trkpt>
      <trkpt lat="44.78055" lon="3.09735">
        <ele>1139</ele>
        <time>2022-07-31T11:23:15Z</time>
      </trkpt>
      <trkpt lat="44.78057" lon="3.09738">
        <ele>1139</ele>
        <time>2022-07-31T11:23:17Z</time>
      </trkpt>
      <trkpt lat="44.78057" lon="3.0974">
        <ele>1139.2</ele>
        <time>2022-07-31T11:23:19Z</time>
      </trkpt>
      <trkpt lat="44.78057" lon="3.09741">
        <ele>1139.2</ele>
        <time>2022-07-31T11:23:20Z</time>
      </trkpt>
      <trkpt lat="44.78058" lon="3.09742">
        <ele>1139.2</ele>
        <time>2022-07-31T11:23:21Z</time>
      </trkpt>
      <trkpt lat="44.78061" lon="3.09746">
        <ele>1139.2</ele>
        <time>2022-07-31T11:23:24Z</time>
      </trkpt>
      <trkpt lat="44.78062" lon="3.09749">
        <ele>1139.2</ele>
        <time>2022-07-31T11:23:27Z</time>
      </trkpt>
      <trkpt lat="44.78064" lon="3.09755">
        <ele>1139.4</ele>
        <time>2022-07-31T11:23:32Z</time>
      </trkpt>
      <trkpt lat="44.78068" lon="3.09763">
        <ele>1139.6</ele>
        <time>2022-07-31T11:23:39Z</time>
      </trkpt>
      <trkpt lat="44.78069" lon="3.09769">
        <ele>1140</ele>
        <time>2022-07-31T11:23:42Z</time>
      </trkpt>
      <trkpt lat="44.78069" lon="3.0977">
        <ele>1140</ele>
        <time>2022-07-31T11:23:43Z</time>
      </trkpt>
      <trkpt lat="44.78071" lon="3.09773">
        <ele>1140</ele>
        <time>2022-07-31T11:23:45Z</time>
      </trkpt>
      <trkpt lat="44.78072" lon="3.09774">
        <ele>1139.9</ele>
        <time>2022-07-31T11:23:46Z</time>
      </trkpt>
      <trkpt lat="44.78072" lon="3.09775">
        <ele>1140</ele>
        <time>2022-07-31T11:23:47Z</time>
      </trkpt>
      <trkpt lat="44.78073" lon="3.09776">
        <ele>1140</ele>
        <time>2022-07-31T11:23:48Z</time>
      </trkpt>
      <trkpt lat="44.78075" lon="3.09779">
        <ele>1140</ele>
        <time>2022-07-31T11:23:51Z</time>
      </trkpt>
      <trkpt lat="44.78076" lon="3.0978">
        <ele>1140</ele>
        <time>2022-07-31T11:23:52Z</time>
      </trkpt>
      <trkpt lat="44.78076" lon="3.09782">
        <ele>1140.1</ele>
        <time>2022-07-31T11:23:53Z</time>
      </trkpt>
      <trkpt lat="44.78076" lon="3.09785">
        <ele>1140.3</ele>
        <time>2022-07-31T11:23:56Z</time>
      </trkpt>
      <trkpt lat="44.78077" lon="3.09788">
        <ele>1140.4</ele>
        <time>2022-07-31T11:23:59Z</time>
      </trkpt>
      <trkpt lat="44.78081" lon="3.09791">
        <ele>1140.2</ele>
        <time>2022-07-31T11:24:03Z</time>
      </trkpt>
      <trkpt lat="44.78087" lon="3.09794">
        <ele>1140.5</ele>
        <time>2022-07-31T11:24:09Z</time>
      </trkpt>
      <trkpt lat="44.78087" lon="3.09795">
        <ele>1140.5</ele>
        <time>2022-07-31T11:24:10Z</time>
      </trkpt>
      <trkpt lat="44.78088" lon="3.09795">
        <ele>1140.6</ele>
        <time>2022-07-31T11:24:11Z</time>
      </trkpt>
      <trkpt lat="44.78089" lon="3.09795">
        <ele>1140.7</ele>
        <time>2022-07-31T11:24:12Z</time>
      </trkpt>
      <trkpt lat="44.78089" lon="3.09795">
        <ele>1140.7</ele>
        <time>2022-07-31T11:24:13Z</time>
      </trkpt>
      <trkpt lat="44.78094" lon="3.09794">
        <ele>1141</ele>
        <time>2022-07-31T11:24:16Z</time>
      </trkpt>
      <trkpt lat="44.78099" lon="3.09794">
        <ele>1141.3</ele>
        <time>2022-07-31T11:24:19Z</time>
      </trkpt>
      <trkpt lat="44.78101" lon="3.09791">
        <ele>1141.2</ele>
        <time>2022-07-31T11:24:23Z</time>
      </trkpt>
      <trkpt lat="44.78104" lon="3.0979">
        <ele>1141.3</ele>
        <time>2022-07-31T11:24:27Z</time>
      </trkpt>
      <trkpt lat="44.78107" lon="3.09789">
        <ele>1141.3</ele>
        <time>2022-07-31T11:24:30Z</time>
      </trkpt>
      <trkpt lat="44.78108" lon="3.09788">
        <ele>1141.2</ele>
        <time>2022-07-31T11:24:31Z</time>
      </trkpt>
      <trkpt lat="44.78109" lon="3.09787">
        <ele>1141.2</ele>
        <time>2022-07-31T11:24:33Z</time>
      </trkpt>
      <trkpt lat="44.7811" lon="3.09787">
        <ele>1141.2</ele>
        <time>2022-07-31T11:24:34Z</time>
      </trkpt>
      <trkpt lat="44.78111" lon="3.09786">
        <ele>1141.2</ele>
        <time>2022-07-31T11:24:35Z</time>
      </trkpt>
      <trkpt lat="44.78112" lon="3.09786">
        <ele>1141.2</ele>
        <time>2022-07-31T11:24:37Z</time>
      </trkpt>
      <trkpt lat="44.78112" lon="3.09785">
        <ele>1141.1</ele>
        <time>2022-07-31T11:24:38Z</time>
      </trkpt>
      <trkpt lat="44.78116" lon="3.09782">
        <ele>1140.9</ele>
        <time>2022-07-31T11:24:42Z</time>
      </trkpt>
      <trkpt lat="44.78116" lon="3.09779">
        <ele>1140.5</ele>
        <time>2022-07-31T11:24:44Z</time>
      </trkpt>
      <trkpt lat="44.78119" lon="3.09775">
        <ele>1140.1</ele>
        <time>2022-07-31T11:24:48Z</time>
      </trkpt>
      <trkpt lat="44.78128" lon="3.0977">
        <ele>1140.2</ele>
        <time>2022-07-31T11:24:55Z</time>
      </trkpt>
      <trkpt lat="44.78129" lon="3.0977">
        <ele>1140.2</ele>
        <time>2022-07-31T11:24:57Z</time>
      </trkpt>
      <trkpt lat="44.7813" lon="3.0977">
        <ele>1140.2</ele>
        <time>2022-07-31T11:25:00Z</time>
      </trkpt>
      <trkpt lat="44.7813" lon="3.0977">
        <ele>1140.2</ele>
        <time>2022-07-31T11:25:01Z</time>
      </trkpt>
      <trkpt lat="44.78129" lon="3.09771">
        <ele>1140.3</ele>
        <time>2022-07-31T11:25:04Z</time>
      </trkpt>
      <trkpt lat="44.78128" lon="3.09771">
        <ele>1140.2</ele>
        <time>2022-07-31T11:25:05Z</time>
      </trkpt>
      <trkpt lat="44.78128" lon="3.09771">
        <ele>1140.2</ele>
        <time>2022-07-31T11:25:06Z</time>
      </trkpt>
      <trkpt lat="44.78127" lon="3.09771">
        <ele>1140.1</ele>
        <time>2022-07-31T11:25:07Z</time>
      </trkpt>
      <trkpt lat="44.78128" lon="3.09769">
        <ele>1140</ele>
        <time>2022-07-31T11:25:09Z</time>
      </trkpt>
      <trkpt lat="44.78128" lon="3.09767">
        <ele>1139.7</ele>
        <time>2022-07-31T11:25:12Z</time>
      </trkpt>
      <trkpt lat="44.78129" lon="3.09767">
        <ele>1139.7</ele>
        <time>2022-07-31T11:25:13Z</time>
      </trkpt>
      <trkpt lat="44.7813" lon="3.09766">
        <ele>1139.7</ele>
        <time>2022-07-31T11:25:14Z</time>
      </trkpt>
      <trkpt lat="44.78132" lon="3.09766">
        <ele>1139.8</ele>
        <time>2022-07-31T11:25:15Z</time>
      </trkpt>
      <trkpt lat="44.78137" lon="3.09766">
        <ele>1140.2</ele>
        <time>2022-07-31T11:25:19Z</time>
      </trkpt>
      <trkpt lat="44.7814" lon="3.09765">
        <ele>1140.2</ele>
        <time>2022-07-31T11:25:22Z</time>
      </trkpt>
      <trkpt lat="44.78142" lon="3.09764">
        <ele>1140.2</ele>
        <time>2022-07-31T11:25:24Z</time>
      </trkpt>
      <trkpt lat="44.78147" lon="3.09761">
        <ele>1140</ele>
        <time>2022-07-31T11:25:30Z</time>
      </trkpt>
      <trkpt lat="44.78151" lon="3.0976">
        <ele>1140.2</ele>
        <time>2022-07-31T11:25:33Z</time>
      </trkpt>
      <trkpt lat="44.78153" lon="3.0976">
        <ele>1140.3</ele>
        <time>2022-07-31T11:25:34Z</time>
      </trkpt>
      <trkpt lat="44.78157" lon="3.09758">
        <ele>1140.3</ele>
        <time>2022-07-31T11:25:38Z</time>
      </trkpt>
      <trkpt lat="44.78158" lon="3.09757">
        <ele>1140.2</ele>
        <time>2022-07-31T11:25:40Z</time>
      </trkpt>
      <trkpt lat="44.7816" lon="3.09756">
        <ele>1140.2</ele>
        <time>2022-07-31T11:25:41Z</time>
      </trkpt>
      <trkpt lat="44.78162" lon="3.09754">
        <ele>1140.1</ele>
        <time>2022-07-31T11:25:44Z</time>
      </trkpt>
      <trkpt lat="44.78163" lon="3.09754">
        <ele>1140.1</ele>
        <time>2022-07-31T11:25:45Z</time>
      </trkpt>
      <trkpt lat="44.78164" lon="3.09753">
        <ele>1140.1</ele>
        <time>2022-07-31T11:25:46Z</time>
      </trkpt>
      <trkpt lat="44.78167" lon="3.09751">
        <ele>1140.2</ele>
        <time>2022-07-31T11:25:49Z</time>
      </trkpt>
      <trkpt lat="44.78174" lon="3.0975">
        <ele>1140</ele>
        <time>2022-07-31T11:25:55Z</time>
      </trkpt>
      <trkpt lat="44.78176" lon="3.09749">
        <ele>1139.8</ele>
        <time>2022-07-31T11:25:57Z</time>
      </trkpt>
      <trkpt lat="44.78183" lon="3.0975">
        <ele>1139.9</ele>
        <time>2022-07-31T11:26:02Z</time>
      </trkpt>
      <trkpt lat="44.78191" lon="3.0975">
        <ele>1139.9</ele>
        <time>2022-07-31T11:26:09Z</time>
      </trkpt>
      <trkpt lat="44.78195" lon="3.09751">
        <ele>1140.1</ele>
        <time>2022-07-31T11:26:12Z</time>
      </trkpt>
      <trkpt lat="44.78204" lon="3.09757">
        <ele>1140</ele>
        <time>2022-07-31T11:26:18Z</time>
      </trkpt>
      <trkpt lat="44.78208" lon="3.09758">
        <ele>1139.9</ele>
        <time>2022-07-31T11:26:20Z</time>
      </trkpt>
      <trkpt lat="44.78209" lon="3.09758">
        <ele>1139.8</ele>
        <time>2022-07-31T11:26:21Z</time>
      </trkpt>
      <trkpt lat="44.78213" lon="3.09758">
        <ele>1139.5</ele>
        <time>2022-07-31T11:26:24Z</time>
      </trkpt>
      <trkpt lat="44.78217" lon="3.09759">
        <ele>1139.4</ele>
        <time>2022-07-31T11:26:26Z</time>
      </trkpt>
      <trkpt lat="44.78225" lon="3.0976">
        <ele>1139.4</ele>
        <time>2022-07-31T11:26:33Z</time>
      </trkpt>
      <trkpt lat="44.78231" lon="3.09759">
        <ele>1139.9</ele>
        <time>2022-07-31T11:26:38Z</time>
      </trkpt>
      <trkpt lat="44.78232" lon="3.09759">
        <ele>1140</ele>
        <time>2022-07-31T11:26:41Z</time>
      </trkpt>
      <trkpt lat="44.78233" lon="3.09759">
        <ele>1140.1</ele>
        <time>2022-07-31T11:26:42Z</time>
      </trkpt>
      <trkpt lat="44.78237" lon="3.09757">
        <ele>1140.4</ele>
        <time>2022-07-31T11:26:46Z</time>
      </trkpt>
      <trkpt lat="44.78238" lon="3.09757">
        <ele>1140.4</ele>
        <time>2022-07-31T11:26:47Z</time>
      </trkpt>
      <trkpt lat="44.78247" lon="3.0975">
        <ele>1140.6</ele>
        <time>2022-07-31T11:26:56Z</time>
      </trkpt>
      <trkpt lat="44.78247" lon="3.0975">
        <ele>1140.7</ele>
        <time>2022-07-31T11:26:57Z</time>
      </trkpt>
      <trkpt lat="44.78248" lon="3.09749">
        <ele>1140.7</ele>
        <time>2022-07-31T11:26:58Z</time>
      </trkpt>
      <trkpt lat="44.78251" lon="3.09747">
        <ele>1140.9</ele>
        <time>2022-07-31T11:27:01Z</time>
      </trkpt>
      <trkpt lat="44.78252" lon="3.09747">
        <ele>1141</ele>
        <time>2022-07-31T11:27:02Z</time>
      </trkpt>
      <trkpt lat="44.78257" lon="3.09745">
        <ele>1141.4</ele>
        <time>2022-07-31T11:27:06Z</time>
      </trkpt>
      <trkpt lat="44.78259" lon="3.09744">
        <ele>1141.5</ele>
        <time>2022-07-31T11:27:08Z</time>
      </trkpt>
      <trkpt lat="44.78261" lon="3.09743">
        <ele>1141.6</ele>
        <time>2022-07-31T11:27:10Z</time>
      </trkpt>
      <trkpt lat="44.78266" lon="3.09737">
        <ele>1141.5</ele>
        <time>2022-07-31T11:27:16Z</time>
      </trkpt>
      <trkpt lat="44.78267" lon="3.09736">
        <ele>1141.5</ele>
        <time>2022-07-31T11:27:17Z</time>
      </trkpt>
      <trkpt lat="44.78269" lon="3.09734">
        <ele>1141.5</ele>
        <time>2022-07-31T11:27:19Z</time>
      </trkpt>
      <trkpt lat="44.78271" lon="3.09733">
        <ele>1141.6</ele>
        <time>2022-07-31T11:27:21Z</time>
      </trkpt>
      <trkpt lat="44.78272" lon="3.09733">
        <ele>1141.6</ele>
        <time>2022-07-31T11:27:22Z</time>
      </trkpt>
      <trkpt lat="44.78273" lon="3.09733">
        <ele>1141.7</ele>
        <time>2022-07-31T11:27:23Z</time>
      </trkpt>
      <trkpt lat="44.78275" lon="3.09732">
        <ele>1141.8</ele>
        <time>2022-07-31T11:27:24Z</time>
      </trkpt>
      <trkpt lat="44.78276" lon="3.09732">
        <ele>1141.9</ele>
        <time>2022-07-31T11:27:26Z</time>
      </trkpt>
      <trkpt lat="44.78278" lon="3.0973">
        <ele>1141.9</ele>
        <time>2022-07-31T11:27:28Z</time>
      </trkpt>
      <trkpt lat="44.78278" lon="3.0973">
        <ele>1141.9</ele>
        <time>2022-07-31T11:27:29Z</time>
      </trkpt>
      <trkpt lat="44.78281" lon="3.09729">
        <ele>1141.9</ele>
        <time>2022-07-31T11:27:30Z</time>
      </trkpt>
      <trkpt lat="44.78282" lon="3.09729">
        <ele>1142</ele>
        <time>2022-07-31T11:27:31Z</time>
      </trkpt>
      <trkpt lat="44.78292" lon="3.09727">
        <ele>1142.6</ele>
        <time>2022-07-31T11:27:40Z</time>
      </trkpt>
      <trkpt lat="44.78295" lon="3.09726">
        <ele>1142.6</ele>
        <time>2022-07-31T11:27:42Z</time>
      </trkpt>
      <trkpt lat="44.78297" lon="3.09725">
        <ele>1142.7</ele>
        <time>2022-07-31T11:27:44Z</time>
      </trkpt>
      <trkpt lat="44.78299" lon="3.09725">
        <ele>1142.8</ele>
        <time>2022-07-31T11:27:46Z</time>
      </trkpt>
      <trkpt lat="44.78301" lon="3.09724">
        <ele>1142.9</ele>
        <time>2022-07-31T11:27:48Z</time>
      </trkpt>
      <trkpt lat="44.78306" lon="3.09725">
        <ele>1143.3</ele>
        <time>2022-07-31T11:27:52Z</time>
      </trkpt>
      <trkpt lat="44.78307" lon="3.09725">
        <ele>1143.4</ele>
        <time>2022-07-31T11:27:53Z</time>
      </trkpt>
      <trkpt lat="44.7831" lon="3.09725">
        <ele>1143.5</ele>
        <time>2022-07-31T11:27:55Z</time>
      </trkpt>
      <trkpt lat="44.78318" lon="3.09725">
        <ele>1144.1</ele>
        <time>2022-07-31T11:28:01Z</time>
      </trkpt>
      <trkpt lat="44.78319" lon="3.09724">
        <ele>1144.2</ele>
        <time>2022-07-31T11:28:02Z</time>
      </trkpt>
      <trkpt lat="44.78322" lon="3.09725">
        <ele>1144.4</ele>
        <time>2022-07-31T11:28:04Z</time>
      </trkpt>
      <trkpt lat="44.7833" lon="3.09725">
        <ele>1144.9</ele>
        <time>2022-07-31T11:28:10Z</time>
      </trkpt>
      <trkpt lat="44.78332" lon="3.09726">
        <ele>1145.2</ele>
        <time>2022-07-31T11:28:12Z</time>
      </trkpt>
      <trkpt lat="44.78336" lon="3.09726">
        <ele>1145.4</ele>
        <time>2022-07-31T11:28:15Z</time>
      </trkpt>
      <trkpt lat="44.78337" lon="3.09726">
        <ele>1145.5</ele>
        <time>2022-07-31T11:28:16Z</time>
      </trkpt>
      <trkpt lat="44.78338" lon="3.09727">
        <ele>1145.7</ele>
        <time>2022-07-31T11:28:17Z</time>
      </trkpt>
      <trkpt lat="44.7834" lon="3.09728">
        <ele>1145.8</ele>
        <time>2022-07-31T11:28:19Z</time>
      </trkpt>
      <trkpt lat="44.78341" lon="3.09728">
        <ele>1145.9</ele>
        <time>2022-07-31T11:28:20Z</time>
      </trkpt>
      <trkpt lat="44.78341" lon="3.09728">
        <ele>1145.9</ele>
        <time>2022-07-31T11:28:21Z</time>
      </trkpt>
      <trkpt lat="44.78345" lon="3.09728">
        <ele>1146.2</ele>
        <time>2022-07-31T11:28:24Z</time>
      </trkpt>
      <trkpt lat="44.78346" lon="3.09728">
        <ele>1146.3</ele>
        <time>2022-07-31T11:28:25Z</time>
      </trkpt>
      <trkpt lat="44.78353" lon="3.09731">
        <ele>1146.8</ele>
        <time>2022-07-31T11:28:29Z</time>
      </trkpt>
      <trkpt lat="44.78357" lon="3.09731">
        <ele>1147.1</ele>
        <time>2022-07-31T11:28:31Z</time>
      </trkpt>
      <trkpt lat="44.78359" lon="3.09731">
        <ele>1147.2</ele>
        <time>2022-07-31T11:28:32Z</time>
      </trkpt>
      <trkpt lat="44.78362" lon="3.09733">
        <ele>1147.4</ele>
        <time>2022-07-31T11:28:34Z</time>
      </trkpt>
      <trkpt lat="44.78366" lon="3.09735">
        <ele>1147.6</ele>
        <time>2022-07-31T11:28:36Z</time>
      </trkpt>
      <trkpt lat="44.78367" lon="3.09736">
        <ele>1147.7</ele>
        <time>2022-07-31T11:28:37Z</time>
      </trkpt>
      <trkpt lat="44.78369" lon="3.09738">
        <ele>1147.8</ele>
        <time>2022-07-31T11:28:40Z</time>
      </trkpt>
      <trkpt lat="44.78372" lon="3.09739">
        <ele>1148</ele>
        <time>2022-07-31T11:28:42Z</time>
      </trkpt>
      <trkpt lat="44.78373" lon="3.0974">
        <ele>1148.1</ele>
        <time>2022-07-31T11:28:43Z</time>
      </trkpt>
      <trkpt lat="44.78375" lon="3.09741">
        <ele>1148.2</ele>
        <time>2022-07-31T11:28:45Z</time>
      </trkpt>
      <trkpt lat="44.78377" lon="3.09743">
        <ele>1148.3</ele>
        <time>2022-07-31T11:28:48Z</time>
      </trkpt>
      <trkpt lat="44.78377" lon="3.09744">
        <ele>1148.4</ele>
        <time>2022-07-31T11:28:49Z</time>
      </trkpt>
      <trkpt lat="44.78378" lon="3.09745">
        <ele>1148.4</ele>
        <time>2022-07-31T11:28:50Z</time>
      </trkpt>
      <trkpt lat="44.7838" lon="3.09746">
        <ele>1148.5</ele>
        <time>2022-07-31T11:28:52Z</time>
      </trkpt>
      <trkpt lat="44.78381" lon="3.09747">
        <ele>1148.6</ele>
        <time>2022-07-31T11:28:53Z</time>
      </trkpt>
      <trkpt lat="44.78382" lon="3.09748">
        <ele>1148.7</ele>
        <time>2022-07-31T11:28:54Z</time>
      </trkpt>
      <trkpt lat="44.78384" lon="3.09749">
        <ele>1148.8</ele>
        <time>2022-07-31T11:28:55Z</time>
      </trkpt>
      <trkpt lat="44.78387" lon="3.0975">
        <ele>1148.9</ele>
        <time>2022-07-31T11:28:57Z</time>
      </trkpt>
      <trkpt lat="44.7839" lon="3.09752">
        <ele>1149.1</ele>
        <time>2022-07-31T11:28:59Z</time>
      </trkpt>
      <trkpt lat="44.78395" lon="3.09753">
        <ele>1149.1</ele>
        <time>2022-07-31T11:29:02Z</time>
      </trkpt>
      <trkpt lat="44.784" lon="3.09755">
        <ele>1149.2</ele>
        <time>2022-07-31T11:29:05Z</time>
      </trkpt>
      <trkpt lat="44.78401" lon="3.09757">
        <ele>1149.3</ele>
        <time>2022-07-31T11:29:07Z</time>
      </trkpt>
      <trkpt lat="44.78402" lon="3.0976">
        <ele>1149.4</ele>
        <time>2022-07-31T11:29:09Z</time>
      </trkpt>
      <trkpt lat="44.78403" lon="3.09762">
        <ele>1149.4</ele>
        <time>2022-07-31T11:29:11Z</time>
      </trkpt>
      <trkpt lat="44.78404" lon="3.09764">
        <ele>1149.5</ele>
        <time>2022-07-31T11:29:13Z</time>
      </trkpt>
      <trkpt lat="44.78413" lon="3.09772">
        <ele>1149.8</ele>
        <time>2022-07-31T11:29:21Z</time>
      </trkpt>
      <trkpt lat="44.78415" lon="3.09774">
        <ele>1149.8</ele>
        <time>2022-07-31T11:29:23Z</time>
      </trkpt>
      <trkpt lat="44.7842" lon="3.09777">
        <ele>1150</ele>
        <time>2022-07-31T11:29:26Z</time>
      </trkpt>
      <trkpt lat="44.78421" lon="3.09779">
        <ele>1150</ele>
        <time>2022-07-31T11:29:27Z</time>
      </trkpt>
      <trkpt lat="44.78422" lon="3.09779">
        <ele>1150</ele>
        <time>2022-07-31T11:29:28Z</time>
      </trkpt>
      <trkpt lat="44.78427" lon="3.09784">
        <ele>1150</ele>
        <time>2022-07-31T11:29:33Z</time>
      </trkpt>
      <trkpt lat="44.78433" lon="3.09793">
        <ele>1150</ele>
        <time>2022-07-31T11:29:41Z</time>
      </trkpt>
      <trkpt lat="44.78434" lon="3.09794">
        <ele>1150</ele>
        <time>2022-07-31T11:29:42Z</time>
      </trkpt>
      <trkpt lat="44.78438" lon="3.09797">
        <ele>1150</ele>
        <time>2022-07-31T11:29:45Z</time>
      </trkpt>
      <trkpt lat="44.78441" lon="3.09802">
        <ele>1150</ele>
        <time>2022-07-31T11:29:49Z</time>
      </trkpt>
      <trkpt lat="44.7845" lon="3.0981">
        <ele>1150</ele>
        <time>2022-07-31T11:29:58Z</time>
      </trkpt>
      <trkpt lat="44.78457" lon="3.09818">
        <ele>1150</ele>
        <time>2022-07-31T11:30:05Z</time>
      </trkpt>
      <trkpt lat="44.78459" lon="3.09819">
        <ele>1150</ele>
        <time>2022-07-31T11:30:07Z</time>
      </trkpt>
      <trkpt lat="44.78468" lon="3.09827">
        <ele>1150</ele>
        <time>2022-07-31T11:30:16Z</time>
      </trkpt>
      <trkpt lat="44.78475" lon="3.09834">
        <ele>1149.9</ele>
        <time>2022-07-31T11:30:24Z</time>
      </trkpt>
      <trkpt lat="44.78476" lon="3.09835">
        <ele>1149.9</ele>
        <time>2022-07-31T11:30:25Z</time>
      </trkpt>
      <trkpt lat="44.78481" lon="3.0984">
        <ele>1149.8</ele>
        <time>2022-07-31T11:30:30Z</time>
      </trkpt>
      <trkpt lat="44.78485" lon="3.09843">
        <ele>1149.7</ele>
        <time>2022-07-31T11:30:34Z</time>
      </trkpt>
      <trkpt lat="44.78493" lon="3.0985">
        <ele>1149.7</ele>
        <time>2022-07-31T11:30:42Z</time>
      </trkpt>
      <trkpt lat="44.78495" lon="3.09852">
        <ele>1149.7</ele>
        <time>2022-07-31T11:30:44Z</time>
      </trkpt>
      <trkpt lat="44.78496" lon="3.09853">
        <ele>1149.7</ele>
        <time>2022-07-31T11:30:45Z</time>
      </trkpt>
      <trkpt lat="44.78505" lon="3.09858">
        <ele>1149.7</ele>
        <time>2022-07-31T11:30:52Z</time>
      </trkpt>
      <trkpt lat="44.78507" lon="3.0986">
        <ele>1149.7</ele>
        <time>2022-07-31T11:30:54Z</time>
      </trkpt>
      <trkpt lat="44.78508" lon="3.0986">
        <ele>1149.7</ele>
        <time>2022-07-31T11:30:58Z</time>
      </trkpt>
      <trkpt lat="44.78507" lon="3.0986">
        <ele>1149.7</ele>
        <time>2022-07-31T11:31:00Z</time>
      </trkpt>
      <trkpt lat="44.78507" lon="3.09861">
        <ele>1149.8</ele>
        <time>2022-07-31T11:31:03Z</time>
      </trkpt>
      <trkpt lat="44.78506" lon="3.09861">
        <ele>1149.8</ele>
        <time>2022-07-31T11:31:05Z</time>
      </trkpt>
      <trkpt lat="44.78506" lon="3.0986">
        <ele>1149.7</ele>
        <time>2022-07-31T11:31:11Z</time>
      </trkpt>
      <trkpt lat="44.78506" lon="3.0986">
        <ele>1149.7</ele>
        <time>2022-07-31T11:31:13Z</time>
      </trkpt>
      <trkpt lat="44.78511" lon="3.09863">
        <ele>1149.6</ele>
        <time>2022-07-31T11:31:19Z</time>
      </trkpt>
      <trkpt lat="44.78514" lon="3.09865">
        <ele>1149.6</ele>
        <time>2022-07-31T11:31:21Z</time>
      </trkpt>
      <trkpt lat="44.78526" lon="3.09873">
        <ele>1149.4</ele>
        <time>2022-07-31T11:31:29Z</time>
      </trkpt>
      <trkpt lat="44.78537" lon="3.09877">
        <ele>1149.4</ele>
        <time>2022-07-31T11:31:38Z</time>
      </trkpt>
      <trkpt lat="44.7855" lon="3.09882">
        <ele>1149.5</ele>
        <time>2022-07-31T11:31:47Z</time>
      </trkpt>
      <trkpt lat="44.78552" lon="3.09883">
        <ele>1149.6</ele>
        <time>2022-07-31T11:31:49Z</time>
      </trkpt>
      <trkpt lat="44.78562" lon="3.09885">
        <ele>1149.8</ele>
        <time>2022-07-31T11:31:56Z</time>
      </trkpt>
      <trkpt lat="44.78563" lon="3.09886">
        <ele>1149.8</ele>
        <time>2022-07-31T11:31:57Z</time>
      </trkpt>
      <trkpt lat="44.78569" lon="3.09889">
        <ele>1150</ele>
        <time>2022-07-31T11:32:02Z</time>
      </trkpt>
      <trkpt lat="44.78575" lon="3.09891">
        <ele>1150.1</ele>
        <time>2022-07-31T11:32:06Z</time>
      </trkpt>
      <trkpt lat="44.78583" lon="3.09894">
        <ele>1150.3</ele>
        <time>2022-07-31T11:32:13Z</time>
      </trkpt>
      <trkpt lat="44.78585" lon="3.09894">
        <ele>1150.5</ele>
        <time>2022-07-31T11:32:15Z</time>
      </trkpt>
      <trkpt lat="44.78586" lon="3.09894">
        <ele>1150.6</ele>
        <time>2022-07-31T11:32:16Z</time>
      </trkpt>
      <trkpt lat="44.78591" lon="3.09893">
        <ele>1150.8</ele>
        <time>2022-07-31T11:32:20Z</time>
      </trkpt>
      <trkpt lat="44.78592" lon="3.09893">
        <ele>1150.9</ele>
        <time>2022-07-31T11:32:22Z</time>
      </trkpt>
      <trkpt lat="44.78593" lon="3.09892">
        <ele>1150.9</ele>
        <time>2022-07-31T11:32:23Z</time>
      </trkpt>
      <trkpt lat="44.78593" lon="3.09892">
        <ele>1151</ele>
        <time>2022-07-31T11:32:24Z</time>
      </trkpt>
      <trkpt lat="44.78595" lon="3.09892">
        <ele>1151</ele>
        <time>2022-07-31T11:32:26Z</time>
      </trkpt>
      <trkpt lat="44.78596" lon="3.09891">
        <ele>1151</ele>
        <time>2022-07-31T11:32:28Z</time>
      </trkpt>
      <trkpt lat="44.78599" lon="3.0989">
        <ele>1151.2</ele>
        <time>2022-07-31T11:32:30Z</time>
      </trkpt>
      <trkpt lat="44.786" lon="3.0989">
        <ele>1151.2</ele>
        <time>2022-07-31T11:32:31Z</time>
      </trkpt>
      <trkpt lat="44.78604" lon="3.09888">
        <ele>1151.5</ele>
        <time>2022-07-31T11:32:36Z</time>
      </trkpt>
      <trkpt lat="44.78608" lon="3.09887">
        <ele>1151.7</ele>
        <time>2022-07-31T11:32:39Z</time>
      </trkpt>
      <trkpt lat="44.78609" lon="3.09887">
        <ele>1151.9</ele>
        <time>2022-07-31T11:32:41Z</time>
      </trkpt>
      <trkpt lat="44.78614" lon="3.09885">
        <ele>1152.2</ele>
        <time>2022-07-31T11:32:45Z</time>
      </trkpt>
      <trkpt lat="44.78615" lon="3.09884">
        <ele>1152.2</ele>
        <time>2022-07-31T11:32:46Z</time>
      </trkpt>
      <trkpt lat="44.78616" lon="3.09883">
        <ele>1152.3</ele>
        <time>2022-07-31T11:32:47Z</time>
      </trkpt>
      <trkpt lat="44.78618" lon="3.09881">
        <ele>1152.4</ele>
        <time>2022-07-31T11:32:49Z</time>
      </trkpt>
      <trkpt lat="44.78622" lon="3.09878">
        <ele>1152.6</ele>
        <time>2022-07-31T11:32:51Z</time>
      </trkpt>
      <trkpt lat="44.78622" lon="3.09878">
        <ele>1152.6</ele>
        <time>2022-07-31T11:32:52Z</time>
      </trkpt>
      <trkpt lat="44.78623" lon="3.09878">
        <ele>1152.7</ele>
        <time>2022-07-31T11:32:53Z</time>
      </trkpt>
      <trkpt lat="44.78625" lon="3.09879">
        <ele>1152.8</ele>
        <time>2022-07-31T11:32:55Z</time>
      </trkpt>
      <trkpt lat="44.78626" lon="3.09879">
        <ele>1152.8</ele>
        <time>2022-07-31T11:32:56Z</time>
      </trkpt>
      <trkpt lat="44.78626" lon="3.09879">
        <ele>1152.9</ele>
        <time>2022-07-31T11:32:57Z</time>
      </trkpt>
      <trkpt lat="44.78629" lon="3.09876">
        <ele>1153</ele>
        <time>2022-07-31T11:33:00Z</time>
      </trkpt>
      <trkpt lat="44.7863" lon="3.09876">
        <ele>1153</ele>
        <time>2022-07-31T11:33:03Z</time>
      </trkpt>
      <trkpt lat="44.7863" lon="3.09875">
        <ele>1153</ele>
        <time>2022-07-31T11:33:04Z</time>
      </trkpt>
      <trkpt lat="44.78631" lon="3.09874">
        <ele>1153.1</ele>
        <time>2022-07-31T11:33:05Z</time>
      </trkpt>
      <trkpt lat="44.78635" lon="3.09874">
        <ele>1153.3</ele>
        <time>2022-07-31T11:33:08Z</time>
      </trkpt>
      <trkpt lat="44.78641" lon="3.09873">
        <ele>1153.5</ele>
        <time>2022-07-31T11:33:12Z</time>
      </trkpt>
      <trkpt lat="44.78642" lon="3.09873">
        <ele>1153.5</ele>
        <time>2022-07-31T11:33:13Z</time>
      </trkpt>
      <trkpt lat="44.78644" lon="3.09871">
        <ele>1153.5</ele>
        <time>2022-07-31T11:33:16Z</time>
      </trkpt>
      <trkpt lat="44.78645" lon="3.0987">
        <ele>1153.5</ele>
        <time>2022-07-31T11:33:17Z</time>
      </trkpt>
      <trkpt lat="44.78652" lon="3.09869">
        <ele>1153.7</ele>
        <time>2022-07-31T11:33:23Z</time>
      </trkpt>
      <trkpt lat="44.78652" lon="3.09869">
        <ele>1153.8</ele>
        <time>2022-07-31T11:33:24Z</time>
      </trkpt>
      <trkpt lat="44.78657" lon="3.09868">
        <ele>1153.9</ele>
        <time>2022-07-31T11:33:28Z</time>
      </trkpt>
      <trkpt lat="44.7866" lon="3.09866">
        <ele>1153.9</ele>
        <time>2022-07-31T11:33:31Z</time>
      </trkpt>
      <trkpt lat="44.78667" lon="3.09864">
        <ele>1154.1</ele>
        <time>2022-07-31T11:33:38Z</time>
      </trkpt>
      <trkpt lat="44.78677" lon="3.09864">
        <ele>1153.4</ele>
        <time>2022-07-31T11:33:46Z</time>
      </trkpt>
      <trkpt lat="44.78682" lon="3.09864">
        <ele>1153</ele>
        <time>2022-07-31T11:33:49Z</time>
      </trkpt>
      <trkpt lat="44.78683" lon="3.09863">
        <ele>1152.9</ele>
        <time>2022-07-31T11:33:51Z</time>
      </trkpt>
      <trkpt lat="44.78686" lon="3.09863">
        <ele>1152.7</ele>
        <time>2022-07-31T11:33:53Z</time>
      </trkpt>
      <trkpt lat="44.78688" lon="3.09862">
        <ele>1152.4</ele>
        <time>2022-07-31T11:33:55Z</time>
      </trkpt>
      <trkpt lat="44.78689" lon="3.09861">
        <ele>1152.3</ele>
        <time>2022-07-31T11:33:56Z</time>
      </trkpt>
      <trkpt lat="44.78691" lon="3.0986">
        <ele>1152.2</ele>
        <time>2022-07-31T11:33:57Z</time>
      </trkpt>
      <trkpt lat="44.78691" lon="3.09859">
        <ele>1152.1</ele>
        <time>2022-07-31T11:33:58Z</time>
      </trkpt>
      <trkpt lat="44.78693" lon="3.09858">
        <ele>1152</ele>
        <time>2022-07-31T11:33:59Z</time>
      </trkpt>
      <trkpt lat="44.78696" lon="3.09855">
        <ele>1151.7</ele>
        <time>2022-07-31T11:34:02Z</time>
      </trkpt>
      <trkpt lat="44.78697" lon="3.09855">
        <ele>1151.7</ele>
        <time>2022-07-31T11:34:03Z</time>
      </trkpt>
      <trkpt lat="44.78699" lon="3.09852">
        <ele>1151.5</ele>
        <time>2022-07-31T11:34:06Z</time>
      </trkpt>
      <trkpt lat="44.78701" lon="3.09852">
        <ele>1151.4</ele>
        <time>2022-07-31T11:34:07Z</time>
      </trkpt>
      <trkpt lat="44.78707" lon="3.09849">
        <ele>1150.9</ele>
        <time>2022-07-31T11:34:12Z</time>
      </trkpt>
      <trkpt lat="44.78708" lon="3.09849">
        <ele>1150.8</ele>
        <time>2022-07-31T11:34:13Z</time>
      </trkpt>
      <trkpt lat="44.78709" lon="3.09847">
        <ele>1150.7</ele>
        <time>2022-07-31T11:34:14Z</time>
      </trkpt>
      <trkpt lat="44.78717" lon="3.09842">
        <ele>1149.9</ele>
        <time>2022-07-31T11:34:19Z</time>
      </trkpt>
      <trkpt lat="44.78719" lon="3.09841">
        <ele>1149.8</ele>
        <time>2022-07-31T11:34:21Z</time>
      </trkpt>
      <trkpt lat="44.78725" lon="3.09837">
        <ele>1149.1</ele>
        <time>2022-07-31T11:34:27Z</time>
      </trkpt>
      <trkpt lat="44.78726" lon="3.09837">
        <ele>1149.1</ele>
        <time>2022-07-31T11:34:28Z</time>
      </trkpt>
      <trkpt lat="44.78741" lon="3.09831">
        <ele>1148.2</ele>
        <time>2022-07-31T11:34:40Z</time>
      </trkpt>
      <trkpt lat="44.78747" lon="3.0983">
        <ele>1147.9</ele>
        <time>2022-07-31T11:34:45Z</time>
      </trkpt>
      <trkpt lat="44.7875" lon="3.09829">
        <ele>1147.7</ele>
        <time>2022-07-31T11:34:47Z</time>
      </trkpt>
      <trkpt lat="44.78755" lon="3.09829">
        <ele>1147.7</ele>
        <time>2022-07-31T11:34:51Z</time>
      </trkpt>
      <trkpt lat="44.7876" lon="3.09828">
        <ele>1147.6</ele>
        <time>2022-07-31T11:34:54Z</time>
      </trkpt>
      <trkpt lat="44.78761" lon="3.09828">
        <ele>1147.6</ele>
        <time>2022-07-31T11:34:55Z</time>
      </trkpt>
      <trkpt lat="44.78762" lon="3.09828">
        <ele>1147.6</ele>
        <time>2022-07-31T11:34:56Z</time>
      </trkpt>
      <trkpt lat="44.78769" lon="3.09827">
        <ele>1147.5</ele>
        <time>2022-07-31T11:35:00Z</time>
      </trkpt>
      <trkpt lat="44.78771" lon="3.09826">
        <ele>1147.5</ele>
        <time>2022-07-31T11:35:02Z</time>
      </trkpt>
      <trkpt lat="44.78772" lon="3.09826">
        <ele>1147.5</ele>
        <time>2022-07-31T11:35:03Z</time>
      </trkpt>
      <trkpt lat="44.7878" lon="3.09827">
        <ele>1147.6</ele>
        <time>2022-07-31T11:35:08Z</time>
      </trkpt>
      <trkpt lat="44.78782" lon="3.09827">
        <ele>1147.6</ele>
        <time>2022-07-31T11:35:09Z</time>
      </trkpt>
      <trkpt lat="44.78783" lon="3.09827">
        <ele>1147.6</ele>
        <time>2022-07-31T11:35:10Z</time>
      </trkpt>
      <trkpt lat="44.78785" lon="3.09828">
        <ele>1147.6</ele>
        <time>2022-07-31T11:35:12Z</time>
      </trkpt>
      <trkpt lat="44.78786" lon="3.09827">
        <ele>1147.6</ele>
        <time>2022-07-31T11:35:13Z</time>
      </trkpt>
      <trkpt lat="44.78787" lon="3.09827">
        <ele>1147.6</ele>
        <time>2022-07-31T11:35:14Z</time>
      </trkpt>
      <trkpt lat="44.78789" lon="3.09825">
        <ele>1147.5</ele>
        <time>2022-07-31T11:35:16Z</time>
      </trkpt>
      <trkpt lat="44.78796" lon="3.09822">
        <ele>1147.5</ele>
        <time>2022-07-31T11:35:23Z</time>
      </trkpt>
      <trkpt lat="44.78801" lon="3.09821">
        <ele>1147.5</ele>
        <time>2022-07-31T11:35:27Z</time>
      </trkpt>
      <trkpt lat="44.78809" lon="3.09821">
        <ele>1147.6</ele>
        <time>2022-07-31T11:35:31Z</time>
      </trkpt>
      <trkpt lat="44.78812" lon="3.09821">
        <ele>1147.6</ele>
        <time>2022-07-31T11:35:34Z</time>
      </trkpt>
      <trkpt lat="44.78814" lon="3.09821">
        <ele>1147.5</ele>
        <time>2022-07-31T11:35:36Z</time>
      </trkpt>
      <trkpt lat="44.78815" lon="3.0982">
        <ele>1147.5</ele>
        <time>2022-07-31T11:35:37Z</time>
      </trkpt>
      <trkpt lat="44.78816" lon="3.0982">
        <ele>1147.5</ele>
        <time>2022-07-31T11:35:38Z</time>
      </trkpt>
      <trkpt lat="44.7882" lon="3.09818">
        <ele>1147.5</ele>
        <time>2022-07-31T11:35:42Z</time>
      </trkpt>
      <trkpt lat="44.78824" lon="3.09817">
        <ele>1147.4</ele>
        <time>2022-07-31T11:35:45Z</time>
      </trkpt>
      <trkpt lat="44.78826" lon="3.09816">
        <ele>1147.4</ele>
        <time>2022-07-31T11:35:47Z</time>
      </trkpt>
      <trkpt lat="44.78827" lon="3.09815">
        <ele>1147.3</ele>
        <time>2022-07-31T11:35:49Z</time>
      </trkpt>
      <trkpt lat="44.78829" lon="3.09814">
        <ele>1147.3</ele>
        <time>2022-07-31T11:35:51Z</time>
      </trkpt>
      <trkpt lat="44.78831" lon="3.09814">
        <ele>1147.3</ele>
        <time>2022-07-31T11:35:52Z</time>
      </trkpt>
      <trkpt lat="44.78836" lon="3.09811">
        <ele>1147.3</ele>
        <time>2022-07-31T11:35:56Z</time>
      </trkpt>
      <trkpt lat="44.78839" lon="3.0981">
        <ele>1147.3</ele>
        <time>2022-07-31T11:35:59Z</time>
      </trkpt>
      <trkpt lat="44.7884" lon="3.09809">
        <ele>1147.3</ele>
        <time>2022-07-31T11:36:00Z</time>
      </trkpt>
      <trkpt lat="44.78842" lon="3.09807">
        <ele>1147.4</ele>
        <time>2022-07-31T11:36:03Z</time>
      </trkpt>
      <trkpt lat="44.78845" lon="3.09806">
        <ele>1147.5</ele>
        <time>2022-07-31T11:36:06Z</time>
      </trkpt>
      <trkpt lat="44.78853" lon="3.09805">
        <ele>1147.7</ele>
        <time>2022-07-31T11:36:12Z</time>
      </trkpt>
      <trkpt lat="44.78856" lon="3.09803">
        <ele>1147.7</ele>
        <time>2022-07-31T11:36:15Z</time>
      </trkpt>
      <trkpt lat="44.7886" lon="3.09799">
        <ele>1147.5</ele>
        <time>2022-07-31T11:36:20Z</time>
      </trkpt>
      <trkpt lat="44.78861" lon="3.09798">
        <ele>1147.4</ele>
        <time>2022-07-31T11:36:22Z</time>
      </trkpt>
      <trkpt lat="44.78864" lon="3.09797">
        <ele>1147.4</ele>
        <time>2022-07-31T11:36:24Z</time>
      </trkpt>
      <trkpt lat="44.78868" lon="3.09795">
        <ele>1147.3</ele>
        <time>2022-07-31T11:36:27Z</time>
      </trkpt>
      <trkpt lat="44.78871" lon="3.09793">
        <ele>1147.1</ele>
        <time>2022-07-31T11:36:30Z</time>
      </trkpt>
      <trkpt lat="44.78872" lon="3.09793">
        <ele>1147.1</ele>
        <time>2022-07-31T11:36:31Z</time>
      </trkpt>
      <trkpt lat="44.78874" lon="3.09792">
        <ele>1147</ele>
        <time>2022-07-31T11:36:33Z</time>
      </trkpt>
      <trkpt lat="44.7888" lon="3.09791">
        <ele>1146.9</ele>
        <time>2022-07-31T11:36:37Z</time>
      </trkpt>
      <trkpt lat="44.78882" lon="3.0979">
        <ele>1146.9</ele>
        <time>2022-07-31T11:36:39Z</time>
      </trkpt>
      <trkpt lat="44.78891" lon="3.09789">
        <ele>1146.9</ele>
        <time>2022-07-31T11:36:45Z</time>
      </trkpt>
      <trkpt lat="44.78892" lon="3.09789">
        <ele>1146.9</ele>
        <time>2022-07-31T11:36:46Z</time>
      </trkpt>
      <trkpt lat="44.78896" lon="3.09788">
        <ele>1147</ele>
        <time>2022-07-31T11:36:49Z</time>
      </trkpt>
      <trkpt lat="44.789" lon="3.09787">
        <ele>1147.1</ele>
        <time>2022-07-31T11:36:52Z</time>
      </trkpt>
      <trkpt lat="44.78902" lon="3.09786">
        <ele>1147.1</ele>
        <time>2022-07-31T11:36:54Z</time>
      </trkpt>
      <trkpt lat="44.78904" lon="3.09785">
        <ele>1147.1</ele>
        <time>2022-07-31T11:36:56Z</time>
      </trkpt>
      <trkpt lat="44.78912" lon="3.09783">
        <ele>1147.2</ele>
        <time>2022-07-31T11:37:02Z</time>
      </trkpt>
      <trkpt lat="44.78913" lon="3.09783">
        <ele>1147.2</ele>
        <time>2022-07-31T11:37:03Z</time>
      </trkpt>
      <trkpt lat="44.78919" lon="3.09781">
        <ele>1147.2</ele>
        <time>2022-07-31T11:37:08Z</time>
      </trkpt>
      <trkpt lat="44.78921" lon="3.0978">
        <ele>1147.1</ele>
        <time>2022-07-31T11:37:10Z</time>
      </trkpt>
      <trkpt lat="44.78924" lon="3.09778">
        <ele>1147</ele>
        <time>2022-07-31T11:37:13Z</time>
      </trkpt>
      <trkpt lat="44.78929" lon="3.09776">
        <ele>1146.9</ele>
        <time>2022-07-31T11:37:18Z</time>
      </trkpt>
      <trkpt lat="44.78933" lon="3.09774">
        <ele>1146.8</ele>
        <time>2022-07-31T11:37:21Z</time>
      </trkpt>
      <trkpt lat="44.78935" lon="3.09774">
        <ele>1146.8</ele>
        <time>2022-07-31T11:37:23Z</time>
      </trkpt>
      <trkpt lat="44.78941" lon="3.09772">
        <ele>1146.8</ele>
        <time>2022-07-31T11:37:27Z</time>
      </trkpt>
      <trkpt lat="44.78947" lon="3.0977">
        <ele>1146.8</ele>
        <time>2022-07-31T11:37:32Z</time>
      </trkpt>
      <trkpt lat="44.78948" lon="3.0977">
        <ele>1146.8</ele>
        <time>2022-07-31T11:37:33Z</time>
      </trkpt>
      <trkpt lat="44.78952" lon="3.09769">
        <ele>1146.9</ele>
        <time>2022-07-31T11:37:36Z</time>
      </trkpt>
      <trkpt lat="44.78953" lon="3.09768">
        <ele>1146.9</ele>
        <time>2022-07-31T11:37:37Z</time>
      </trkpt>
      <trkpt lat="44.78957" lon="3.09767">
        <ele>1146.9</ele>
        <time>2022-07-31T11:37:40Z</time>
      </trkpt>
      <trkpt lat="44.78964" lon="3.09766">
        <ele>1147</ele>
        <time>2022-07-31T11:37:44Z</time>
      </trkpt>
      <trkpt lat="44.78966" lon="3.09765">
        <ele>1147</ele>
        <time>2022-07-31T11:37:46Z</time>
      </trkpt>
      <trkpt lat="44.78968" lon="3.09765">
        <ele>1147</ele>
        <time>2022-07-31T11:37:48Z</time>
      </trkpt>
      <trkpt lat="44.78976" lon="3.0976">
        <ele>1146.7</ele>
        <time>2022-07-31T11:37:52Z</time>
      </trkpt>
      <trkpt lat="44.78979" lon="3.09759">
        <ele>1146.7</ele>
        <time>2022-07-31T11:37:55Z</time>
      </trkpt>
      <trkpt lat="44.78983" lon="3.09758">
        <ele>1146.6</ele>
        <time>2022-07-31T11:37:58Z</time>
      </trkpt>
      <trkpt lat="44.78983" lon="3.09758">
        <ele>1146.6</ele>
        <time>2022-07-31T11:37:59Z</time>
      </trkpt>
      <trkpt lat="44.78984" lon="3.09758">
        <ele>1146.6</ele>
        <time>2022-07-31T11:38:00Z</time>
      </trkpt>
      <trkpt lat="44.78985" lon="3.09758">
        <ele>1146.6</ele>
        <time>2022-07-31T11:38:01Z</time>
      </trkpt>
      <trkpt lat="44.78987" lon="3.09758">
        <ele>1146.6</ele>
        <time>2022-07-31T11:38:03Z</time>
      </trkpt>
      <trkpt lat="44.7899" lon="3.09758">
        <ele>1146.6</ele>
        <time>2022-07-31T11:38:06Z</time>
      </trkpt>
      <trkpt lat="44.78991" lon="3.09758">
        <ele>1146.5</ele>
        <time>2022-07-31T11:38:07Z</time>
      </trkpt>
      <trkpt lat="44.79" lon="3.09756">
        <ele>1146.4</ele>
        <time>2022-07-31T11:38:15Z</time>
      </trkpt>
      <trkpt lat="44.79006" lon="3.09758">
        <ele>1146.3</ele>
        <time>2022-07-31T11:38:20Z</time>
      </trkpt>
      <trkpt lat="44.79009" lon="3.09759">
        <ele>1146.2</ele>
        <time>2022-07-31T11:38:23Z</time>
      </trkpt>
      <trkpt lat="44.7902" lon="3.0976">
        <ele>1145.8</ele>
        <time>2022-07-31T11:38:33Z</time>
      </trkpt>
      <trkpt lat="44.79026" lon="3.09762">
        <ele>1145.5</ele>
        <time>2022-07-31T11:38:39Z</time>
      </trkpt>
      <trkpt lat="44.79027" lon="3.09763">
        <ele>1145.5</ele>
        <time>2022-07-31T11:38:40Z</time>
      </trkpt>
      <trkpt lat="44.79029" lon="3.09763">
        <ele>1145.4</ele>
        <time>2022-07-31T11:38:41Z</time>
      </trkpt>
      <trkpt lat="44.79033" lon="3.09763">
        <ele>1145</ele>
        <time>2022-07-31T11:38:45Z</time>
      </trkpt>
      <trkpt lat="44.79038" lon="3.09766">
        <ele>1144.7</ele>
        <time>2022-07-31T11:38:49Z</time>
      </trkpt>
      <trkpt lat="44.79043" lon="3.09766">
        <ele>1144.3</ele>
        <time>2022-07-31T11:38:52Z</time>
      </trkpt>
      <trkpt lat="44.79051" lon="3.09768">
        <ele>1143.7</ele>
        <time>2022-07-31T11:38:58Z</time>
      </trkpt>
      <trkpt lat="44.79052" lon="3.09768">
        <ele>1143.7</ele>
        <time>2022-07-31T11:38:59Z</time>
      </trkpt>
      <trkpt lat="44.79053" lon="3.09769">
        <ele>1143.6</ele>
        <time>2022-07-31T11:39:00Z</time>
      </trkpt>
      <trkpt lat="44.79054" lon="3.09768">
        <ele>1143.5</ele>
        <time>2022-07-31T11:39:01Z</time>
      </trkpt>
      <trkpt lat="44.79056" lon="3.09769">
        <ele>1143.3</ele>
        <time>2022-07-31T11:39:03Z</time>
      </trkpt>
      <trkpt lat="44.79057" lon="3.09768">
        <ele>1143.2</ele>
        <time>2022-07-31T11:39:04Z</time>
      </trkpt>
      <trkpt lat="44.79059" lon="3.09768">
        <ele>1143</ele>
        <time>2022-07-31T11:39:06Z</time>
      </trkpt>
      <trkpt lat="44.79064" lon="3.0977">
        <ele>1142.8</ele>
        <time>2022-07-31T11:39:09Z</time>
      </trkpt>
      <trkpt lat="44.79068" lon="3.09769">
        <ele>1142.4</ele>
        <time>2022-07-31T11:39:11Z</time>
      </trkpt>
      <trkpt lat="44.79074" lon="3.09768">
        <ele>1142</ele>
        <time>2022-07-31T11:39:15Z</time>
      </trkpt>
      <trkpt lat="44.79084" lon="3.09767">
        <ele>1141.2</ele>
        <time>2022-07-31T11:39:22Z</time>
      </trkpt>
      <trkpt lat="44.79094" lon="3.09769">
        <ele>1140.7</ele>
        <time>2022-07-31T11:39:29Z</time>
      </trkpt>
      <trkpt lat="44.79096" lon="3.09769">
        <ele>1140.6</ele>
        <time>2022-07-31T11:39:31Z</time>
      </trkpt>
      <trkpt lat="44.79099" lon="3.09768">
        <ele>1140.4</ele>
        <time>2022-07-31T11:39:34Z</time>
      </trkpt>
      <trkpt lat="44.79101" lon="3.09768">
        <ele>1140.2</ele>
        <time>2022-07-31T11:39:37Z</time>
      </trkpt>
      <trkpt lat="44.79106" lon="3.09768">
        <ele>1139.9</ele>
        <time>2022-07-31T11:39:42Z</time>
      </trkpt>
      <trkpt lat="44.79107" lon="3.09768">
        <ele>1139.9</ele>
        <time>2022-07-31T11:39:43Z</time>
      </trkpt>
      <trkpt lat="44.79109" lon="3.09768">
        <ele>1139.8</ele>
        <time>2022-07-31T11:39:45Z</time>
      </trkpt>
      <trkpt lat="44.79112" lon="3.09768">
        <ele>1139.6</ele>
        <time>2022-07-31T11:39:47Z</time>
      </trkpt>
      <trkpt lat="44.79122" lon="3.09771">
        <ele>1139.3</ele>
        <time>2022-07-31T11:39:54Z</time>
      </trkpt>
      <trkpt lat="44.79124" lon="3.09771">
        <ele>1139.2</ele>
        <time>2022-07-31T11:39:56Z</time>
      </trkpt>
      <trkpt lat="44.79127" lon="3.09771">
        <ele>1139</ele>
        <time>2022-07-31T11:39:58Z</time>
      </trkpt>
      <trkpt lat="44.79128" lon="3.09771">
        <ele>1139</ele>
        <time>2022-07-31T11:39:59Z</time>
      </trkpt>
      <trkpt lat="44.79131" lon="3.0977">
        <ele>1138.8</ele>
        <time>2022-07-31T11:40:01Z</time>
      </trkpt>
      <trkpt lat="44.79133" lon="3.09769">
        <ele>1138.7</ele>
        <time>2022-07-31T11:40:02Z</time>
      </trkpt>
      <trkpt lat="44.79136" lon="3.09769">
        <ele>1138.5</ele>
        <time>2022-07-31T11:40:05Z</time>
      </trkpt>
      <trkpt lat="44.7914" lon="3.0977">
        <ele>1138.3</ele>
        <time>2022-07-31T11:40:08Z</time>
      </trkpt>
      <trkpt lat="44.79142" lon="3.0977">
        <ele>1138.2</ele>
        <time>2022-07-31T11:40:10Z</time>
      </trkpt>
      <trkpt lat="44.79151" lon="3.09773">
        <ele>1137.4</ele>
        <time>2022-07-31T11:40:19Z</time>
      </trkpt>
      <trkpt lat="44.79156" lon="3.09775">
        <ele>1137</ele>
        <time>2022-07-31T11:40:23Z</time>
      </trkpt>
      <trkpt lat="44.79161" lon="3.09776">
        <ele>1136.6</ele>
        <time>2022-07-31T11:40:25Z</time>
      </trkpt>
      <trkpt lat="44.79167" lon="3.09776">
        <ele>1136</ele>
        <time>2022-07-31T11:40:29Z</time>
      </trkpt>
      <trkpt lat="44.79169" lon="3.09777">
        <ele>1135.8</ele>
        <time>2022-07-31T11:40:31Z</time>
      </trkpt>
      <trkpt lat="44.79176" lon="3.0978">
        <ele>1135.5</ele>
        <time>2022-07-31T11:40:34Z</time>
      </trkpt>
      <trkpt lat="44.79182" lon="3.09783">
        <ele>1135.2</ele>
        <time>2022-07-31T11:40:38Z</time>
      </trkpt>
      <trkpt lat="44.79184" lon="3.09784">
        <ele>1135.2</ele>
        <time>2022-07-31T11:40:39Z</time>
      </trkpt>
      <trkpt lat="44.79184" lon="3.09785">
        <ele>1135.2</ele>
        <time>2022-07-31T11:40:40Z</time>
      </trkpt>
      <trkpt lat="44.79187" lon="3.09787">
        <ele>1135.1</ele>
        <time>2022-07-31T11:40:42Z</time>
      </trkpt>
      <trkpt lat="44.79188" lon="3.09788">
        <ele>1134.9</ele>
        <time>2022-07-31T11:40:43Z</time>
      </trkpt>
      <trkpt lat="44.79191" lon="3.09789">
        <ele>1134.8</ele>
        <time>2022-07-31T11:40:45Z</time>
      </trkpt>
      <trkpt lat="44.79193" lon="3.09792">
        <ele>1134.6</ele>
        <time>2022-07-31T11:40:48Z</time>
      </trkpt>
      <trkpt lat="44.79197" lon="3.09794">
        <ele>1134.4</ele>
        <time>2022-07-31T11:40:51Z</time>
      </trkpt>
      <trkpt lat="44.79199" lon="3.09796">
        <ele>1134.3</ele>
        <time>2022-07-31T11:40:53Z</time>
      </trkpt>
      <trkpt lat="44.792" lon="3.09797">
        <ele>1134.2</ele>
        <time>2022-07-31T11:40:54Z</time>
      </trkpt>
      <trkpt lat="44.79201" lon="3.09798">
        <ele>1134.2</ele>
        <time>2022-07-31T11:40:55Z</time>
      </trkpt>
      <trkpt lat="44.79204" lon="3.09799">
        <ele>1134</ele>
        <time>2022-07-31T11:40:57Z</time>
      </trkpt>
      <trkpt lat="44.79206" lon="3.098">
        <ele>1133.9</ele>
        <time>2022-07-31T11:40:59Z</time>
      </trkpt>
      <trkpt lat="44.79206" lon="3.09801">
        <ele>1133.9</ele>
        <time>2022-07-31T11:41:00Z</time>
      </trkpt>
      <trkpt lat="44.7921" lon="3.09804">
        <ele>1133.8</ele>
        <time>2022-07-31T11:41:05Z</time>
      </trkpt>
      <trkpt lat="44.79212" lon="3.09804">
        <ele>1133.7</ele>
        <time>2022-07-31T11:41:06Z</time>
      </trkpt>
      <trkpt lat="44.79217" lon="3.09806">
        <ele>1133.5</ele>
        <time>2022-07-31T11:41:09Z</time>
      </trkpt>
      <trkpt lat="44.79218" lon="3.09807">
        <ele>1133.4</ele>
        <time>2022-07-31T11:41:10Z</time>
      </trkpt>
      <trkpt lat="44.79223" lon="3.09811">
        <ele>1133.2</ele>
        <time>2022-07-31T11:41:14Z</time>
      </trkpt>
      <trkpt lat="44.79227" lon="3.09814">
        <ele>1132.9</ele>
        <time>2022-07-31T11:41:16Z</time>
      </trkpt>
      <trkpt lat="44.79231" lon="3.09817">
        <ele>1132.5</ele>
        <time>2022-07-31T11:41:18Z</time>
      </trkpt>
      <trkpt lat="44.79234" lon="3.09819">
        <ele>1132.3</ele>
        <time>2022-07-31T11:41:20Z</time>
      </trkpt>
      <trkpt lat="44.79238" lon="3.09823">
        <ele>1131.9</ele>
        <time>2022-07-31T11:41:23Z</time>
      </trkpt>
      <trkpt lat="44.79244" lon="3.09829">
        <ele>1131</ele>
        <time>2022-07-31T11:41:28Z</time>
      </trkpt>
      <trkpt lat="44.79246" lon="3.09832">
        <ele>1130.7</ele>
        <time>2022-07-31T11:41:30Z</time>
      </trkpt>
      <trkpt lat="44.79247" lon="3.09833">
        <ele>1130.6</ele>
        <time>2022-07-31T11:41:31Z</time>
      </trkpt>
      <trkpt lat="44.79251" lon="3.09835">
        <ele>1130.1</ele>
        <time>2022-07-31T11:41:34Z</time>
      </trkpt>
      <trkpt lat="44.79252" lon="3.09838">
        <ele>1130.1</ele>
        <time>2022-07-31T11:41:37Z</time>
      </trkpt>
      <trkpt lat="44.79255" lon="3.09843">
        <ele>1130.3</ele>
        <time>2022-07-31T11:41:41Z</time>
      </trkpt>
      <trkpt lat="44.79257" lon="3.09845">
        <ele>1130.3</ele>
        <time>2022-07-31T11:41:43Z</time>
      </trkpt>
      <trkpt lat="44.79258" lon="3.09846">
        <ele>1130.2</ele>
        <time>2022-07-31T11:41:44Z</time>
      </trkpt>
      <trkpt lat="44.79263" lon="3.09849">
        <ele>1129.8</ele>
        <time>2022-07-31T11:41:49Z</time>
      </trkpt>
      <trkpt lat="44.79266" lon="3.0985">
        <ele>1129.6</ele>
        <time>2022-07-31T11:41:51Z</time>
      </trkpt>
      <trkpt lat="44.79267" lon="3.09851">
        <ele>1129.5</ele>
        <time>2022-07-31T11:41:52Z</time>
      </trkpt>
      <trkpt lat="44.7927" lon="3.09853">
        <ele>1129.1</ele>
        <time>2022-07-31T11:41:54Z</time>
      </trkpt>
      <trkpt lat="44.79274" lon="3.09856">
        <ele>1129</ele>
        <time>2022-07-31T11:41:57Z</time>
      </trkpt>
      <trkpt lat="44.79276" lon="3.09859">
        <ele>1129</ele>
        <time>2022-07-31T11:41:59Z</time>
      </trkpt>
      <trkpt lat="44.79284" lon="3.09864">
        <ele>1128.7</ele>
        <time>2022-07-31T11:42:07Z</time>
      </trkpt>
      <trkpt lat="44.79285" lon="3.09865">
        <ele>1128.7</ele>
        <time>2022-07-31T11:42:08Z</time>
      </trkpt>
      <trkpt lat="44.79293" lon="3.09873">
        <ele>1128.6</ele>
        <time>2022-07-31T11:42:15Z</time>
      </trkpt>
      <trkpt lat="44.79294" lon="3.09873">
        <ele>1128.6</ele>
        <time>2022-07-31T11:42:16Z</time>
      </trkpt>
      <trkpt lat="44.79298" lon="3.09878">
        <ele>1128.6</ele>
        <time>2022-07-31T11:42:22Z</time>
      </trkpt>
      <trkpt lat="44.79299" lon="3.09879">
        <ele>1128.6</ele>
        <time>2022-07-31T11:42:24Z</time>
      </trkpt>
      <trkpt lat="44.79301" lon="3.09879">
        <ele>1128.5</ele>
        <time>2022-07-31T11:42:25Z</time>
      </trkpt>
      <trkpt lat="44.79303" lon="3.0988">
        <ele>1128.3</ele>
        <time>2022-07-31T11:42:27Z</time>
      </trkpt>
      <trkpt lat="44.79304" lon="3.09881">
        <ele>1128.3</ele>
        <time>2022-07-31T11:42:28Z</time>
      </trkpt>
      <trkpt lat="44.79306" lon="3.09882">
        <ele>1128.2</ele>
        <time>2022-07-31T11:42:29Z</time>
      </trkpt>
      <trkpt lat="44.79307" lon="3.09883">
        <ele>1128.2</ele>
        <time>2022-07-31T11:42:30Z</time>
      </trkpt>
      <trkpt lat="44.79309" lon="3.09885">
        <ele>1128.1</ele>
        <time>2022-07-31T11:42:32Z</time>
      </trkpt>
      <trkpt lat="44.79311" lon="3.09887">
        <ele>1128.1</ele>
        <time>2022-07-31T11:42:34Z</time>
      </trkpt>
      <trkpt lat="44.79312" lon="3.09888">
        <ele>1128</ele>
        <time>2022-07-31T11:42:35Z</time>
      </trkpt>
      <trkpt lat="44.79315" lon="3.09891">
        <ele>1127.9</ele>
        <time>2022-07-31T11:42:38Z</time>
      </trkpt>
      <trkpt lat="44.79315" lon="3.09892">
        <ele>1127.8</ele>
        <time>2022-07-31T11:42:39Z</time>
      </trkpt>
      <trkpt lat="44.79317" lon="3.09894">
        <ele>1127.7</ele>
        <time>2022-07-31T11:42:41Z</time>
      </trkpt>
      <trkpt lat="44.7932" lon="3.09896">
        <ele>1127.4</ele>
        <time>2022-07-31T11:42:43Z</time>
      </trkpt>
      <trkpt lat="44.79321" lon="3.09897">
        <ele>1127.3</ele>
        <time>2022-07-31T11:42:45Z</time>
      </trkpt>
      <trkpt lat="44.79321" lon="3.09897">
        <ele>1127.3</ele>
        <time>2022-07-31T11:42:46Z</time>
      </trkpt>
      <trkpt lat="44.79321" lon="3.09898">
        <ele>1127.4</ele>
        <time>2022-07-31T11:42:47Z</time>
      </trkpt>
      <trkpt lat="44.79321" lon="3.099">
        <ele>1127.6</ele>
        <time>2022-07-31T11:42:49Z</time>
      </trkpt>
      <trkpt lat="44.79322" lon="3.09903">
        <ele>1127.6</ele>
        <time>2022-07-31T11:42:51Z</time>
      </trkpt>
      <trkpt lat="44.79323" lon="3.09905">
        <ele>1127.5</ele>
        <time>2022-07-31T11:42:53Z</time>
      </trkpt>
      <trkpt lat="44.79327" lon="3.09907">
        <ele>1126.9</ele>
        <time>2022-07-31T11:42:55Z</time>
      </trkpt>
      <trkpt lat="44.79328" lon="3.09908">
        <ele>1126.8</ele>
        <time>2022-07-31T11:42:56Z</time>
      </trkpt>
      <trkpt lat="44.79328" lon="3.09909">
        <ele>1126.7</ele>
        <time>2022-07-31T11:42:57Z</time>
      </trkpt>
      <trkpt lat="44.79329" lon="3.09911">
        <ele>1126.6</ele>
        <time>2022-07-31T11:42:58Z</time>
      </trkpt>
      <trkpt lat="44.79333" lon="3.09912">
        <ele>1126</ele>
        <time>2022-07-31T11:43:00Z</time>
      </trkpt>
      <trkpt lat="44.79335" lon="3.09914">
        <ele>1125.6</ele>
        <time>2022-07-31T11:43:02Z</time>
      </trkpt>
      <trkpt lat="44.79341" lon="3.09927">
        <ele>1124.9</ele>
        <time>2022-07-31T11:43:10Z</time>
      </trkpt>
      <trkpt lat="44.79343" lon="3.09931">
        <ele>1124.6</ele>
        <time>2022-07-31T11:43:13Z</time>
      </trkpt>
      <trkpt lat="44.79347" lon="3.09934">
        <ele>1124</ele>
        <time>2022-07-31T11:43:16Z</time>
      </trkpt>
      <trkpt lat="44.79357" lon="3.09945">
        <ele>1122.6</ele>
        <time>2022-07-31T11:43:25Z</time>
      </trkpt>
      <trkpt lat="44.79357" lon="3.09948">
        <ele>1122.6</ele>
        <time>2022-07-31T11:43:27Z</time>
      </trkpt>
      <trkpt lat="44.79357" lon="3.09951">
        <ele>1122.6</ele>
        <time>2022-07-31T11:43:29Z</time>
      </trkpt>
      <trkpt lat="44.79357" lon="3.09954">
        <ele>1122.6</ele>
        <time>2022-07-31T11:43:31Z</time>
      </trkpt>
      <trkpt lat="44.79359" lon="3.09958">
        <ele>1122.2</ele>
        <time>2022-07-31T11:43:34Z</time>
      </trkpt>
      <trkpt lat="44.79361" lon="3.09958">
        <ele>1122.1</ele>
        <time>2022-07-31T11:43:35Z</time>
      </trkpt>
      <trkpt lat="44.79362" lon="3.09959">
        <ele>1121.9</ele>
        <time>2022-07-31T11:43:36Z</time>
      </trkpt>
      <trkpt lat="44.79362" lon="3.0996">
        <ele>1121.8</ele>
        <time>2022-07-31T11:43:37Z</time>
      </trkpt>
      <trkpt lat="44.79364" lon="3.09962">
        <ele>1121.6</ele>
        <time>2022-07-31T11:43:39Z</time>
      </trkpt>
      <trkpt lat="44.79368" lon="3.09964">
        <ele>1121</ele>
        <time>2022-07-31T11:43:42Z</time>
      </trkpt>
      <trkpt lat="44.79371" lon="3.09966">
        <ele>1120.5</ele>
        <time>2022-07-31T11:43:44Z</time>
      </trkpt>
      <trkpt lat="44.79374" lon="3.09968">
        <ele>1120.2</ele>
        <time>2022-07-31T11:43:46Z</time>
      </trkpt>
      <trkpt lat="44.79378" lon="3.09968">
        <ele>1119.5</ele>
        <time>2022-07-31T11:43:48Z</time>
      </trkpt>
      <trkpt lat="44.79382" lon="3.09972">
        <ele>1119</ele>
        <time>2022-07-31T11:43:51Z</time>
      </trkpt>
      <trkpt lat="44.79384" lon="3.09975">
        <ele>1118.8</ele>
        <time>2022-07-31T11:43:53Z</time>
      </trkpt>
      <trkpt lat="44.79385" lon="3.09977">
        <ele>1118.7</ele>
        <time>2022-07-31T11:43:55Z</time>
      </trkpt>
      <trkpt lat="44.79387" lon="3.09981">
        <ele>1118.6</ele>
        <time>2022-07-31T11:43:58Z</time>
      </trkpt>
      <trkpt lat="44.79388" lon="3.09984">
        <ele>1118.6</ele>
        <time>2022-07-31T11:44:00Z</time>
      </trkpt>
      <trkpt lat="44.7939" lon="3.09989">
        <ele>1118.6</ele>
        <time>2022-07-31T11:44:03Z</time>
      </trkpt>
      <trkpt lat="44.79391" lon="3.09992">
        <ele>1118.6</ele>
        <time>2022-07-31T11:44:05Z</time>
      </trkpt>
      <trkpt lat="44.79392" lon="3.09993">
        <ele>1118.7</ele>
        <time>2022-07-31T11:44:06Z</time>
      </trkpt>
      <trkpt lat="44.79395" lon="3.09998">
        <ele>1118.7</ele>
        <time>2022-07-31T11:44:10Z</time>
      </trkpt>
      <trkpt lat="44.79396" lon="3.1">
        <ele>1118.7</ele>
        <time>2022-07-31T11:44:12Z</time>
      </trkpt>
      <trkpt lat="44.79397" lon="3.10001">
        <ele>1118.7</ele>
        <time>2022-07-31T11:44:13Z</time>
      </trkpt>
      <trkpt lat="44.794" lon="3.10003">
        <ele>1118.6</ele>
        <time>2022-07-31T11:44:17Z</time>
      </trkpt>
      <trkpt lat="44.79403" lon="3.10003">
        <ele>1118.5</ele>
        <time>2022-07-31T11:44:20Z</time>
      </trkpt>
      <trkpt lat="44.79409" lon="3.10002">
        <ele>1118.3</ele>
        <time>2022-07-31T11:44:24Z</time>
      </trkpt>
      <trkpt lat="44.7941" lon="3.09993">
        <ele>1118</ele>
        <time>2022-07-31T11:44:30Z</time>
      </trkpt>
      <trkpt lat="44.7941" lon="3.09992">
        <ele>1118</ele>
        <time>2022-07-31T11:44:31Z</time>
      </trkpt>
      <trkpt lat="44.79411" lon="3.09992">
        <ele>1117.9</ele>
        <time>2022-07-31T11:44:32Z</time>
      </trkpt>
      <trkpt lat="44.79411" lon="3.09991">
        <ele>1117.9</ele>
        <time>2022-07-31T11:44:33Z</time>
      </trkpt>
      <trkpt lat="44.79412" lon="3.09991">
        <ele>1117.8</ele>
        <time>2022-07-31T11:44:34Z</time>
      </trkpt>
      <trkpt lat="44.79413" lon="3.0999">
        <ele>1117.8</ele>
        <time>2022-07-31T11:44:35Z</time>
      </trkpt>
      <trkpt lat="44.79415" lon="3.09989">
        <ele>1117.7</ele>
        <time>2022-07-31T11:44:36Z</time>
      </trkpt>
      <trkpt lat="44.79417" lon="3.09988">
        <ele>1117.6</ele>
        <time>2022-07-31T11:44:37Z</time>
      </trkpt>
      <trkpt lat="44.79418" lon="3.09987">
        <ele>1117.5</ele>
        <time>2022-07-31T11:44:38Z</time>
      </trkpt>
      <trkpt lat="44.79419" lon="3.09984">
        <ele>1117.4</ele>
        <time>2022-07-31T11:44:40Z</time>
      </trkpt>
      <trkpt lat="44.7942" lon="3.09983">
        <ele>1117.3</ele>
        <time>2022-07-31T11:44:42Z</time>
      </trkpt>
      <trkpt lat="44.79421" lon="3.09981">
        <ele>1117.2</ele>
        <time>2022-07-31T11:44:44Z</time>
      </trkpt>
      <trkpt lat="44.79422" lon="3.09979">
        <ele>1117.1</ele>
        <time>2022-07-31T11:44:45Z</time>
      </trkpt>
      <trkpt lat="44.79425" lon="3.09978">
        <ele>1117</ele>
        <time>2022-07-31T11:44:49Z</time>
      </trkpt>
      <trkpt lat="44.79425" lon="3.09978">
        <ele>1117</ele>
        <time>2022-07-31T11:44:50Z</time>
      </trkpt>
      <trkpt lat="44.79428" lon="3.09976">
        <ele>1116.8</ele>
        <time>2022-07-31T11:44:53Z</time>
      </trkpt>
      <trkpt lat="44.79429" lon="3.09973">
        <ele>1116.6</ele>
        <time>2022-07-31T11:44:55Z</time>
      </trkpt>
      <trkpt lat="44.79433" lon="3.09968">
        <ele>1116.3</ele>
        <time>2022-07-31T11:44:59Z</time>
      </trkpt>
      <trkpt lat="44.79435" lon="3.09965">
        <ele>1116.1</ele>
        <time>2022-07-31T11:45:01Z</time>
      </trkpt>
      <trkpt lat="44.79439" lon="3.09964">
        <ele>1115.9</ele>
        <time>2022-07-31T11:45:04Z</time>
      </trkpt>
      <trkpt lat="44.79442" lon="3.09962">
        <ele>1115.7</ele>
        <time>2022-07-31T11:45:06Z</time>
      </trkpt>
      <trkpt lat="44.79443" lon="3.09961">
        <ele>1115.6</ele>
        <time>2022-07-31T11:45:07Z</time>
      </trkpt>
      <trkpt lat="44.79447" lon="3.09957">
        <ele>1115.5</ele>
        <time>2022-07-31T11:45:11Z</time>
      </trkpt>
      <trkpt lat="44.79453" lon="3.09955">
        <ele>1115.6</ele>
        <time>2022-07-31T11:45:15Z</time>
      </trkpt>
      <trkpt lat="44.79457" lon="3.09951">
        <ele>1115.5</ele>
        <time>2022-07-31T11:45:19Z</time>
      </trkpt>
      <trkpt lat="44.7946" lon="3.0995">
        <ele>1115.4</ele>
        <time>2022-07-31T11:45:22Z</time>
      </trkpt>
      <trkpt lat="44.79466" lon="3.09948">
        <ele>1115.3</ele>
        <time>2022-07-31T11:45:28Z</time>
      </trkpt>
      <trkpt lat="44.79472" lon="3.09948">
        <ele>1115.4</ele>
        <time>2022-07-31T11:45:31Z</time>
      </trkpt>
      <trkpt lat="44.79475" lon="3.09947">
        <ele>1115.1</ele>
        <time>2022-07-31T11:45:34Z</time>
      </trkpt>
      <trkpt lat="44.79476" lon="3.09946">
        <ele>1115</ele>
        <time>2022-07-31T11:45:35Z</time>
      </trkpt>
      <trkpt lat="44.79478" lon="3.09946">
        <ele>1115</ele>
        <time>2022-07-31T11:45:36Z</time>
      </trkpt>
      <trkpt lat="44.79481" lon="3.09946">
        <ele>1114.8</ele>
        <time>2022-07-31T11:45:38Z</time>
      </trkpt>
      <trkpt lat="44.79483" lon="3.09945">
        <ele>1114.7</ele>
        <time>2022-07-31T11:45:40Z</time>
      </trkpt>
      <trkpt lat="44.79486" lon="3.09946">
        <ele>1114.6</ele>
        <time>2022-07-31T11:45:43Z</time>
      </trkpt>
      <trkpt lat="44.79487" lon="3.09947">
        <ele>1114.7</ele>
        <time>2022-07-31T11:45:45Z</time>
      </trkpt>
      <trkpt lat="44.79487" lon="3.09946">
        <ele>1114.6</ele>
        <time>2022-07-31T11:45:46Z</time>
      </trkpt>
      <trkpt lat="44.79487" lon="3.09946">
        <ele>1114.6</ele>
        <time>2022-07-31T11:45:47Z</time>
      </trkpt>
      <trkpt lat="44.79486" lon="3.09946">
        <ele>1114.7</ele>
        <time>2022-07-31T11:45:49Z</time>
      </trkpt>
      <trkpt lat="44.79484" lon="3.09947">
        <ele>1114.8</ele>
        <time>2022-07-31T11:45:51Z</time>
      </trkpt>
      <trkpt lat="44.79483" lon="3.09947">
        <ele>1114.8</ele>
        <time>2022-07-31T11:45:53Z</time>
      </trkpt>
      <trkpt lat="44.79482" lon="3.09945">
        <ele>1114.7</ele>
        <time>2022-07-31T11:45:58Z</time>
      </trkpt>
      <trkpt lat="44.79482" lon="3.09945">
        <ele>1114.7</ele>
        <time>2022-07-31T11:45:59Z</time>
      </trkpt>
      <trkpt lat="44.79482" lon="3.09945">
        <ele>1114.7</ele>
        <time>2022-07-31T11:46:04Z</time>
      </trkpt>
      <trkpt lat="44.79481" lon="3.09945">
        <ele>1114.8</ele>
        <time>2022-07-31T11:46:22Z</time>
      </trkpt>
      <trkpt lat="44.79481" lon="3.09945">
        <ele>1114.8</ele>
        <time>2022-07-31T11:46:29Z</time>
      </trkpt>
      <trkpt lat="44.79481" lon="3.09946">
        <ele>1114.8</ele>
        <time>2022-07-31T11:46:38Z</time>
      </trkpt>
      <trkpt lat="44.79489" lon="3.09946">
        <ele>1114.5</ele>
        <time>2022-07-31T11:46:51Z</time>
      </trkpt>
      <trkpt lat="44.79495" lon="3.09946">
        <ele>1114.3</ele>
        <time>2022-07-31T11:46:57Z</time>
      </trkpt>
      <trkpt lat="44.79505" lon="3.09945">
        <ele>1113.5</ele>
        <time>2022-07-31T11:47:05Z</time>
      </trkpt>
      <trkpt lat="44.79514" lon="3.09948">
        <ele>1112.7</ele>
        <time>2022-07-31T11:47:11Z</time>
      </trkpt>
      <trkpt lat="44.7952" lon="3.0995">
        <ele>1112.1</ele>
        <time>2022-07-31T11:47:16Z</time>
      </trkpt>
      <trkpt lat="44.79531" lon="3.09953">
        <ele>1111</ele>
        <time>2022-07-31T11:47:25Z</time>
      </trkpt>
      <trkpt lat="44.79532" lon="3.09953">
        <ele>1111</ele>
        <time>2022-07-31T11:47:28Z</time>
      </trkpt>
      <trkpt lat="44.79533" lon="3.09953">
        <ele>1111</ele>
        <time>2022-07-31T11:47:29Z</time>
      </trkpt>
      <trkpt lat="44.79534" lon="3.09953">
        <ele>1110.9</ele>
        <time>2022-07-31T11:47:30Z</time>
      </trkpt>
      <trkpt lat="44.79538" lon="3.09952">
        <ele>1110.6</ele>
        <time>2022-07-31T11:47:33Z</time>
      </trkpt>
      <trkpt lat="44.79539" lon="3.09951">
        <ele>1110.5</ele>
        <time>2022-07-31T11:47:34Z</time>
      </trkpt>
      <trkpt lat="44.79545" lon="3.0995">
        <ele>1110</ele>
        <time>2022-07-31T11:47:37Z</time>
      </trkpt>
      <trkpt lat="44.7955" lon="3.0995">
        <ele>1109.6</ele>
        <time>2022-07-31T11:47:40Z</time>
      </trkpt>
      <trkpt lat="44.7956" lon="3.0995">
        <ele>1109.2</ele>
        <time>2022-07-31T11:47:48Z</time>
      </trkpt>
      <trkpt lat="44.79563" lon="3.0995">
        <ele>1109.1</ele>
        <time>2022-07-31T11:47:50Z</time>
      </trkpt>
      <trkpt lat="44.79564" lon="3.0995">
        <ele>1109.1</ele>
        <time>2022-07-31T11:47:51Z</time>
      </trkpt>
      <trkpt lat="44.79568" lon="3.09947">
        <ele>1109.1</ele>
        <time>2022-07-31T11:47:54Z</time>
      </trkpt>
      <trkpt lat="44.7957" lon="3.09947">
        <ele>1109</ele>
        <time>2022-07-31T11:47:55Z</time>
      </trkpt>
      <trkpt lat="44.79575" lon="3.09945">
        <ele>1109</ele>
        <time>2022-07-31T11:47:59Z</time>
      </trkpt>
      <trkpt lat="44.79576" lon="3.09944">
        <ele>1109</ele>
        <time>2022-07-31T11:48:00Z</time>
      </trkpt>
      <trkpt lat="44.79577" lon="3.09943">
        <ele>1108.9</ele>
        <time>2022-07-31T11:48:01Z</time>
      </trkpt>
      <trkpt lat="44.79578" lon="3.09942">
        <ele>1108.9</ele>
        <time>2022-07-31T11:48:02Z</time>
      </trkpt>
      <trkpt lat="44.79579" lon="3.09941">
        <ele>1108.9</ele>
        <time>2022-07-31T11:48:03Z</time>
      </trkpt>
      <trkpt lat="44.79582" lon="3.09939">
        <ele>1108.8</ele>
        <time>2022-07-31T11:48:06Z</time>
      </trkpt>
      <trkpt lat="44.79585" lon="3.09938">
        <ele>1108.8</ele>
        <time>2022-07-31T11:48:08Z</time>
      </trkpt>
      <trkpt lat="44.79587" lon="3.09936">
        <ele>1108.7</ele>
        <time>2022-07-31T11:48:10Z</time>
      </trkpt>
      <trkpt lat="44.7959" lon="3.09935">
        <ele>1108.6</ele>
        <time>2022-07-31T11:48:13Z</time>
      </trkpt>
      <trkpt lat="44.79599" lon="3.09931">
        <ele>1108.5</ele>
        <time>2022-07-31T11:48:20Z</time>
      </trkpt>
      <trkpt lat="44.796" lon="3.09929">
        <ele>1108.4</ele>
        <time>2022-07-31T11:48:21Z</time>
      </trkpt>
      <trkpt lat="44.79603" lon="3.09925">
        <ele>1108.3</ele>
        <time>2022-07-31T11:48:24Z</time>
      </trkpt>
      <trkpt lat="44.79606" lon="3.09925">
        <ele>1108.3</ele>
        <time>2022-07-31T11:48:26Z</time>
      </trkpt>
      <trkpt lat="44.7961" lon="3.09923">
        <ele>1108.2</ele>
        <time>2022-07-31T11:48:29Z</time>
      </trkpt>
      <trkpt lat="44.79613" lon="3.09922">
        <ele>1108.2</ele>
        <time>2022-07-31T11:48:31Z</time>
      </trkpt>
      <trkpt lat="44.79617" lon="3.0992">
        <ele>1108.3</ele>
        <time>2022-07-31T11:48:34Z</time>
      </trkpt>
      <trkpt lat="44.79617" lon="3.09919">
        <ele>1108.3</ele>
        <time>2022-07-31T11:48:35Z</time>
      </trkpt>
      <trkpt lat="44.79623" lon="3.0991">
        <ele>1108.3</ele>
        <time>2022-07-31T11:48:42Z</time>
      </trkpt>
      <trkpt lat="44.79628" lon="3.09906">
        <ele>1108.5</ele>
        <time>2022-07-31T11:48:47Z</time>
      </trkpt>
      <trkpt lat="44.79629" lon="3.09905">
        <ele>1108.5</ele>
        <time>2022-07-31T11:48:48Z</time>
      </trkpt>
      <trkpt lat="44.79636" lon="3.09899">
        <ele>1108.8</ele>
        <time>2022-07-31T11:48:54Z</time>
      </trkpt>
      <trkpt lat="44.79637" lon="3.09898">
        <ele>1108.9</ele>
        <time>2022-07-31T11:48:55Z</time>
      </trkpt>
      <trkpt lat="44.79638" lon="3.09897">
        <ele>1108.9</ele>
        <time>2022-07-31T11:48:56Z</time>
      </trkpt>
      <trkpt lat="44.79644" lon="3.09894">
        <ele>1109.5</ele>
        <time>2022-07-31T11:49:01Z</time>
      </trkpt>
      <trkpt lat="44.7965" lon="3.09888">
        <ele>1110.2</ele>
        <time>2022-07-31T11:49:07Z</time>
      </trkpt>
      <trkpt lat="44.79651" lon="3.09886">
        <ele>1110.2</ele>
        <time>2022-07-31T11:49:09Z</time>
      </trkpt>
      <trkpt lat="44.79656" lon="3.09882">
        <ele>1110.4</ele>
        <time>2022-07-31T11:49:13Z</time>
      </trkpt>
      <trkpt lat="44.79657" lon="3.09881">
        <ele>1110.5</ele>
        <time>2022-07-31T11:49:14Z</time>
      </trkpt>
      <trkpt lat="44.7966" lon="3.09877">
        <ele>1110.6</ele>
        <time>2022-07-31T11:49:18Z</time>
      </trkpt>
      <trkpt lat="44.79661" lon="3.09876">
        <ele>1110.5</ele>
        <time>2022-07-31T11:49:19Z</time>
      </trkpt>
      <trkpt lat="44.79666" lon="3.09869">
        <ele>1110.5</ele>
        <time>2022-07-31T11:49:24Z</time>
      </trkpt>
      <trkpt lat="44.79667" lon="3.09866">
        <ele>1110.4</ele>
        <time>2022-07-31T11:49:26Z</time>
      </trkpt>
      <trkpt lat="44.79671" lon="3.09862">
        <ele>1110.4</ele>
        <time>2022-07-31T11:49:30Z</time>
      </trkpt>
      <trkpt lat="44.79672" lon="3.0986">
        <ele>1110.5</ele>
        <time>2022-07-31T11:49:32Z</time>
      </trkpt>
      <trkpt lat="44.79672" lon="3.09858">
        <ele>1110.6</ele>
        <time>2022-07-31T11:49:33Z</time>
      </trkpt>
      <trkpt lat="44.79673" lon="3.09855">
        <ele>1110.7</ele>
        <time>2022-07-31T11:49:35Z</time>
      </trkpt>
      <trkpt lat="44.79675" lon="3.09851">
        <ele>1110.9</ele>
        <time>2022-07-31T11:49:38Z</time>
      </trkpt>
      <trkpt lat="44.79677" lon="3.09848">
        <ele>1111.1</ele>
        <time>2022-07-31T11:49:40Z</time>
      </trkpt>
      <trkpt lat="44.79678" lon="3.09845">
        <ele>1111.2</ele>
        <time>2022-07-31T11:49:42Z</time>
      </trkpt>
      <trkpt lat="44.79679" lon="3.09842">
        <ele>1111.3</ele>
        <time>2022-07-31T11:49:44Z</time>
      </trkpt>
      <trkpt lat="44.79679" lon="3.0984">
        <ele>1111.4</ele>
        <time>2022-07-31T11:49:45Z</time>
      </trkpt>
      <trkpt lat="44.79682" lon="3.09834">
        <ele>1111.7</ele>
        <time>2022-07-31T11:49:49Z</time>
      </trkpt>
      <trkpt lat="44.79687" lon="3.09823">
        <ele>1112.2</ele>
        <time>2022-07-31T11:49:56Z</time>
      </trkpt>
      <trkpt lat="44.79688" lon="3.09821">
        <ele>1112.3</ele>
        <time>2022-07-31T11:49:57Z</time>
      </trkpt>
      <trkpt lat="44.79688" lon="3.09818">
        <ele>1112.3</ele>
        <time>2022-07-31T11:49:59Z</time>
      </trkpt>
      <trkpt lat="44.7969" lon="3.09812">
        <ele>1112.5</ele>
        <time>2022-07-31T11:50:02Z</time>
      </trkpt>
      <trkpt lat="44.7969" lon="3.09811">
        <ele>1112.5</ele>
        <time>2022-07-31T11:50:03Z</time>
      </trkpt>
      <trkpt lat="44.79692" lon="3.09804">
        <ele>1112.7</ele>
        <time>2022-07-31T11:50:07Z</time>
      </trkpt>
      <trkpt lat="44.79697" lon="3.09794">
        <ele>1112.8</ele>
        <time>2022-07-31T11:50:14Z</time>
      </trkpt>
      <trkpt lat="44.79698" lon="3.09793">
        <ele>1112.8</ele>
        <time>2022-07-31T11:50:15Z</time>
      </trkpt>
      <trkpt lat="44.79699" lon="3.09788">
        <ele>1112.8</ele>
        <time>2022-07-31T11:50:18Z</time>
      </trkpt>
      <trkpt lat="44.79702" lon="3.09782">
        <ele>1112.9</ele>
        <time>2022-07-31T11:50:23Z</time>
      </trkpt>
      <trkpt lat="44.7971" lon="3.0977">
        <ele>1113.6</ele>
        <time>2022-07-31T11:50:32Z</time>
      </trkpt>
      <trkpt lat="44.79714" lon="3.09761">
        <ele>1113.9</ele>
        <time>2022-07-31T11:50:38Z</time>
      </trkpt>
      <trkpt lat="44.79715" lon="3.09758">
        <ele>1113.9</ele>
        <time>2022-07-31T11:50:40Z</time>
      </trkpt>
      <trkpt lat="44.79722" lon="3.09749">
        <ele>1114</ele>
        <time>2022-07-31T11:50:48Z</time>
      </trkpt>
      <trkpt lat="44.79728" lon="3.09738">
        <ele>1114.8</ele>
        <time>2022-07-31T11:50:56Z</time>
      </trkpt>
      <trkpt lat="44.79733" lon="3.09731">
        <ele>1115.5</ele>
        <time>2022-07-31T11:51:02Z</time>
      </trkpt>
      <trkpt lat="44.79735" lon="3.09727">
        <ele>1115.8</ele>
        <time>2022-07-31T11:51:05Z</time>
      </trkpt>
      <trkpt lat="44.79736" lon="3.09725">
        <ele>1115.8</ele>
        <time>2022-07-31T11:51:06Z</time>
      </trkpt>
      <trkpt lat="44.7974" lon="3.09718">
        <ele>1116.2</ele>
        <time>2022-07-31T11:51:11Z</time>
      </trkpt>
      <trkpt lat="44.79747" lon="3.09708">
        <ele>1116.3</ele>
        <time>2022-07-31T11:51:19Z</time>
      </trkpt>
      <trkpt lat="44.7975" lon="3.09703">
        <ele>1116.3</ele>
        <time>2022-07-31T11:51:23Z</time>
      </trkpt>
      <trkpt lat="44.79754" lon="3.09694">
        <ele>1116.1</ele>
        <time>2022-07-31T11:51:29Z</time>
      </trkpt>
      <trkpt lat="44.79755" lon="3.09693">
        <ele>1116.2</ele>
        <time>2022-07-31T11:51:30Z</time>
      </trkpt>
      <trkpt lat="44.79757" lon="3.09691">
        <ele>1116.2</ele>
        <time>2022-07-31T11:51:32Z</time>
      </trkpt>
      <trkpt lat="44.79766" lon="3.09682">
        <ele>1116.1</ele>
        <time>2022-07-31T11:51:41Z</time>
      </trkpt>
      <trkpt lat="44.79774" lon="3.09677">
        <ele>1115.8</ele>
        <time>2022-07-31T11:51:48Z</time>
      </trkpt>
      <trkpt lat="44.79777" lon="3.09675">
        <ele>1115.6</ele>
        <time>2022-07-31T11:51:51Z</time>
      </trkpt>
      <trkpt lat="44.79782" lon="3.09674">
        <ele>1115.3</ele>
        <time>2022-07-31T11:51:57Z</time>
      </trkpt>
      <trkpt lat="44.79783" lon="3.09674">
        <ele>1115.4</ele>
        <time>2022-07-31T11:51:59Z</time>
      </trkpt>
      <trkpt lat="44.79783" lon="3.09674">
        <ele>1115.3</ele>
        <time>2022-07-31T11:52:02Z</time>
      </trkpt>
      <trkpt lat="44.79784" lon="3.09672">
        <ele>1115.1</ele>
        <time>2022-07-31T11:52:11Z</time>
      </trkpt>
      <trkpt lat="44.79786" lon="3.09671">
        <ele>1115</ele>
        <time>2022-07-31T11:52:13Z</time>
      </trkpt>
      <trkpt lat="44.79795" lon="3.09669">
        <ele>1114.6</ele>
        <time>2022-07-31T11:52:19Z</time>
      </trkpt>
      <trkpt lat="44.79807" lon="3.09668">
        <ele>1114</ele>
        <time>2022-07-31T11:52:28Z</time>
      </trkpt>
      <trkpt lat="44.79817" lon="3.09667">
        <ele>1113.2</ele>
        <time>2022-07-31T11:52:35Z</time>
      </trkpt>
      <trkpt lat="44.79819" lon="3.09667">
        <ele>1113.1</ele>
        <time>2022-07-31T11:52:36Z</time>
      </trkpt>
      <trkpt lat="44.7982" lon="3.09667">
        <ele>1113</ele>
        <time>2022-07-31T11:52:38Z</time>
      </trkpt>
      <trkpt lat="44.79825" lon="3.09668">
        <ele>1112.7</ele>
        <time>2022-07-31T11:52:42Z</time>
      </trkpt>
      <trkpt lat="44.79827" lon="3.09669">
        <ele>1112.6</ele>
        <time>2022-07-31T11:52:44Z</time>
      </trkpt>
      <trkpt lat="44.79835" lon="3.09669">
        <ele>1112.1</ele>
        <time>2022-07-31T11:52:50Z</time>
      </trkpt>
      <trkpt lat="44.7984" lon="3.09669">
        <ele>1111.9</ele>
        <time>2022-07-31T11:52:56Z</time>
      </trkpt>
      <trkpt lat="44.79843" lon="3.09669">
        <ele>1111.9</ele>
        <time>2022-07-31T11:52:58Z</time>
      </trkpt>
      <trkpt lat="44.79859" lon="3.09672">
        <ele>1111.4</ele>
        <time>2022-07-31T11:53:09Z</time>
      </trkpt>
      <trkpt lat="44.79862" lon="3.09672">
        <ele>1111.4</ele>
        <time>2022-07-31T11:53:11Z</time>
      </trkpt>
      <trkpt lat="44.79872" lon="3.09673">
        <ele>1111.4</ele>
        <time>2022-07-31T11:53:18Z</time>
      </trkpt>
      <trkpt lat="44.79879" lon="3.09673">
        <ele>1111.3</ele>
        <time>2022-07-31T11:53:23Z</time>
      </trkpt>
      <trkpt lat="44.7988" lon="3.09673">
        <ele>1111.3</ele>
        <time>2022-07-31T11:53:24Z</time>
      </trkpt>
      <trkpt lat="44.79889" lon="3.09673">
        <ele>1111.2</ele>
        <time>2022-07-31T11:53:32Z</time>
      </trkpt>
      <trkpt lat="44.79896" lon="3.09673">
        <ele>1111</ele>
        <time>2022-07-31T11:53:39Z</time>
      </trkpt>
      <trkpt lat="44.79899" lon="3.09673">
        <ele>1110.8</ele>
        <time>2022-07-31T11:53:41Z</time>
      </trkpt>
      <trkpt lat="44.79912" lon="3.09674">
        <ele>1110.4</ele>
        <time>2022-07-31T11:53:51Z</time>
      </trkpt>
      <trkpt lat="44.79913" lon="3.09674">
        <ele>1110.4</ele>
        <time>2022-07-31T11:53:52Z</time>
      </trkpt>
      <trkpt lat="44.79918" lon="3.09677">
        <ele>1110.3</ele>
        <time>2022-07-31T11:53:56Z</time>
      </trkpt>
      <trkpt lat="44.79921" lon="3.09677">
        <ele>1110.3</ele>
        <time>2022-07-31T11:53:59Z</time>
      </trkpt>
      <trkpt lat="44.79923" lon="3.09677">
        <ele>1110.2</ele>
        <time>2022-07-31T11:54:01Z</time>
      </trkpt>
      <trkpt lat="44.79931" lon="3.09678">
        <ele>1110.1</ele>
        <time>2022-07-31T11:54:07Z</time>
      </trkpt>
      <trkpt lat="44.79932" lon="3.09678">
        <ele>1110.1</ele>
        <time>2022-07-31T11:54:08Z</time>
      </trkpt>
      <trkpt lat="44.79943" lon="3.09681">
        <ele>1110</ele>
        <time>2022-07-31T11:54:17Z</time>
      </trkpt>
      <trkpt lat="44.79951" lon="3.09683">
        <ele>1109.9</ele>
        <time>2022-07-31T11:54:24Z</time>
      </trkpt>
      <trkpt lat="44.79964" lon="3.09686">
        <ele>1109.7</ele>
        <time>2022-07-31T11:54:35Z</time>
      </trkpt>
      <trkpt lat="44.79976" lon="3.09688">
        <ele>1109.5</ele>
        <time>2022-07-31T11:54:44Z</time>
      </trkpt>
      <trkpt lat="44.79985" lon="3.09691">
        <ele>1109.3</ele>
        <time>2022-07-31T11:54:52Z</time>
      </trkpt>
      <trkpt lat="44.79995" lon="3.09694">
        <ele>1109.2</ele>
        <time>2022-07-31T11:55:01Z</time>
      </trkpt>
      <trkpt lat="44.80005" lon="3.09697">
        <ele>1109</ele>
        <time>2022-07-31T11:55:10Z</time>
      </trkpt>
      <trkpt lat="44.8001" lon="3.09696">
        <ele>1108.7</ele>
        <time>2022-07-31T11:55:14Z</time>
      </trkpt>
      <trkpt lat="44.80015" lon="3.09697">
        <ele>1108.7</ele>
        <time>2022-07-31T11:55:18Z</time>
      </trkpt>
      <trkpt lat="44.80027" lon="3.09698">
        <ele>1108.3</ele>
        <time>2022-07-31T11:55:26Z</time>
      </trkpt>
      <trkpt lat="44.80028" lon="3.09698">
        <ele>1108.2</ele>
        <time>2022-07-31T11:55:27Z</time>
      </trkpt>
      <trkpt lat="44.80039" lon="3.09701">
        <ele>1108</ele>
        <time>2022-07-31T11:55:36Z</time>
      </trkpt>
      <trkpt lat="44.8004" lon="3.09702">
        <ele>1108</ele>
        <time>2022-07-31T11:55:38Z</time>
      </trkpt>
      <trkpt lat="44.80046" lon="3.09704">
        <ele>1107.8</ele>
        <time>2022-07-31T11:55:42Z</time>
      </trkpt>
      <trkpt lat="44.80048" lon="3.09704">
        <ele>1107.7</ele>
        <time>2022-07-31T11:55:44Z</time>
      </trkpt>
      <trkpt lat="44.80053" lon="3.09705">
        <ele>1107.5</ele>
        <time>2022-07-31T11:55:48Z</time>
      </trkpt>
      <trkpt lat="44.80062" lon="3.09706">
        <ele>1107.2</ele>
        <time>2022-07-31T11:55:55Z</time>
      </trkpt>
      <trkpt lat="44.80068" lon="3.09707">
        <ele>1107</ele>
        <time>2022-07-31T11:55:59Z</time>
      </trkpt>
      <trkpt lat="44.80074" lon="3.09708">
        <ele>1106.9</ele>
        <time>2022-07-31T11:56:04Z</time>
      </trkpt>
      <trkpt lat="44.80085" lon="3.09713">
        <ele>1106.6</ele>
        <time>2022-07-31T11:56:14Z</time>
      </trkpt>
      <trkpt lat="44.80103" lon="3.09718">
        <ele>1106.1</ele>
        <time>2022-07-31T11:56:26Z</time>
      </trkpt>
      <trkpt lat="44.80104" lon="3.09719">
        <ele>1106.1</ele>
        <time>2022-07-31T11:56:27Z</time>
      </trkpt>
      <trkpt lat="44.80115" lon="3.09725">
        <ele>1106</ele>
        <time>2022-07-31T11:56:37Z</time>
      </trkpt>
      <trkpt lat="44.80118" lon="3.09729">
        <ele>1106</ele>
        <time>2022-07-31T11:56:41Z</time>
      </trkpt>
      <trkpt lat="44.80124" lon="3.09732">
        <ele>1106</ele>
        <time>2022-07-31T11:56:46Z</time>
      </trkpt>
      <trkpt lat="44.80136" lon="3.09725">
        <ele>1106</ele>
        <time>2022-07-31T11:56:56Z</time>
      </trkpt>
      <trkpt lat="44.80141" lon="3.09722">
        <ele>1106</ele>
        <time>2022-07-31T11:57:00Z</time>
      </trkpt>
      <trkpt lat="44.80148" lon="3.09718">
        <ele>1105.8</ele>
        <time>2022-07-31T11:57:06Z</time>
      </trkpt>
      <trkpt lat="44.80159" lon="3.09712">
        <ele>1105.6</ele>
        <time>2022-07-31T11:57:15Z</time>
      </trkpt>
      <trkpt lat="44.80169" lon="3.09705">
        <ele>1105.4</ele>
        <time>2022-07-31T11:57:23Z</time>
      </trkpt>
      <trkpt lat="44.80179" lon="3.09699">
        <ele>1105.5</ele>
        <time>2022-07-31T11:57:32Z</time>
      </trkpt>
      <trkpt lat="44.80191" lon="3.09692">
        <ele>1105.8</ele>
        <time>2022-07-31T11:57:42Z</time>
      </trkpt>
      <trkpt lat="44.802" lon="3.09688">
        <ele>1106</ele>
        <time>2022-07-31T11:57:51Z</time>
      </trkpt>
      <trkpt lat="44.80202" lon="3.09687">
        <ele>1106.1</ele>
        <time>2022-07-31T11:57:53Z</time>
      </trkpt>
      <trkpt lat="44.80218" lon="3.0968">
        <ele>1106.8</ele>
        <time>2022-07-31T11:58:05Z</time>
      </trkpt>
      <trkpt lat="44.80227" lon="3.09677">
        <ele>1107.3</ele>
        <time>2022-07-31T11:58:13Z</time>
      </trkpt>
      <trkpt lat="44.8024" lon="3.0967">
        <ele>1108.3</ele>
        <time>2022-07-31T11:58:24Z</time>
      </trkpt>
      <trkpt lat="44.80244" lon="3.09667">
        <ele>1108.5</ele>
        <time>2022-07-31T11:58:27Z</time>
      </trkpt>
      <trkpt lat="44.8025" lon="3.09661">
        <ele>1108.8</ele>
        <time>2022-07-31T11:58:33Z</time>
      </trkpt>
      <trkpt lat="44.80255" lon="3.09655">
        <ele>1108.9</ele>
        <time>2022-07-31T11:58:39Z</time>
      </trkpt>
      <trkpt lat="44.80256" lon="3.09654">
        <ele>1108.9</ele>
        <time>2022-07-31T11:58:40Z</time>
      </trkpt>
      <trkpt lat="44.80256" lon="3.09653">
        <ele>1108.9</ele>
        <time>2022-07-31T11:58:41Z</time>
      </trkpt>
      <trkpt lat="44.80257" lon="3.09651">
        <ele>1109</ele>
        <time>2022-07-31T11:58:42Z</time>
      </trkpt>
      <trkpt lat="44.80264" lon="3.09644">
        <ele>1109.5</ele>
        <time>2022-07-31T11:58:49Z</time>
      </trkpt>
      <trkpt lat="44.80269" lon="3.09638">
        <ele>1110.1</ele>
        <time>2022-07-31T11:58:55Z</time>
      </trkpt>
      <trkpt lat="44.80271" lon="3.09636">
        <ele>1110.3</ele>
        <time>2022-07-31T11:58:57Z</time>
      </trkpt>
      <trkpt lat="44.80281" lon="3.09628">
        <ele>1111.2</ele>
        <time>2022-07-31T11:59:06Z</time>
      </trkpt>
      <trkpt lat="44.8029" lon="3.0962">
        <ele>1111.9</ele>
        <time>2022-07-31T11:59:15Z</time>
      </trkpt>
      <trkpt lat="44.80293" lon="3.09618">
        <ele>1112.1</ele>
        <time>2022-07-31T11:59:17Z</time>
      </trkpt>
      <trkpt lat="44.80299" lon="3.09612">
        <ele>1112.5</ele>
        <time>2022-07-31T11:59:23Z</time>
      </trkpt>
      <trkpt lat="44.803" lon="3.09612">
        <ele>1112.6</ele>
        <time>2022-07-31T11:59:24Z</time>
      </trkpt>
      <trkpt lat="44.80307" lon="3.09606">
        <ele>1113.2</ele>
        <time>2022-07-31T11:59:31Z</time>
      </trkpt>
      <trkpt lat="44.80308" lon="3.09605">
        <ele>1113.4</ele>
        <time>2022-07-31T11:59:32Z</time>
      </trkpt>
      <trkpt lat="44.8031" lon="3.09604">
        <ele>1113.6</ele>
        <time>2022-07-31T11:59:33Z</time>
      </trkpt>
      <trkpt lat="44.80311" lon="3.09602">
        <ele>1113.8</ele>
        <time>2022-07-31T11:59:35Z</time>
      </trkpt>
      <trkpt lat="44.80312" lon="3.09601">
        <ele>1114</ele>
        <time>2022-07-31T11:59:36Z</time>
      </trkpt>
      <trkpt lat="44.80315" lon="3.096">
        <ele>1114.3</ele>
        <time>2022-07-31T11:59:38Z</time>
      </trkpt>
      <trkpt lat="44.80317" lon="3.09599">
        <ele>1114.7</ele>
        <time>2022-07-31T11:59:40Z</time>
      </trkpt>
      <trkpt lat="44.80322" lon="3.09594">
        <ele>1115.4</ele>
        <time>2022-07-31T11:59:46Z</time>
      </trkpt>
      <trkpt lat="44.80327" lon="3.09591">
        <ele>1116.1</ele>
        <time>2022-07-31T11:59:51Z</time>
      </trkpt>
      <trkpt lat="44.8033" lon="3.09587">
        <ele>1116.6</ele>
        <time>2022-07-31T11:59:55Z</time>
      </trkpt>
      <trkpt lat="44.80342" lon="3.09582">
        <ele>1117.9</ele>
        <time>2022-07-31T12:00:06Z</time>
      </trkpt>
      <trkpt lat="44.80343" lon="3.09581">
        <ele>1118</ele>
        <time>2022-07-31T12:00:07Z</time>
      </trkpt>
      <trkpt lat="44.80352" lon="3.09575">
        <ele>1119</ele>
        <time>2022-07-31T12:00:16Z</time>
      </trkpt>
      <trkpt lat="44.80359" lon="3.09566">
        <ele>1119.8</ele>
        <time>2022-07-31T12:00:25Z</time>
      </trkpt>
      <trkpt lat="44.8036" lon="3.09566">
        <ele>1119.9</ele>
        <time>2022-07-31T12:00:26Z</time>
      </trkpt>
      <trkpt lat="44.80366" lon="3.0956">
        <ele>1120.4</ele>
        <time>2022-07-31T12:00:32Z</time>
      </trkpt>
      <trkpt lat="44.80374" lon="3.09554">
        <ele>1120.9</ele>
        <time>2022-07-31T12:00:38Z</time>
      </trkpt>
      <trkpt lat="44.80376" lon="3.09552">
        <ele>1121</ele>
        <time>2022-07-31T12:00:40Z</time>
      </trkpt>
      <trkpt lat="44.80378" lon="3.09549">
        <ele>1121.2</ele>
        <time>2022-07-31T12:00:43Z</time>
      </trkpt>
      <trkpt lat="44.80382" lon="3.09547">
        <ele>1121.5</ele>
        <time>2022-07-31T12:00:46Z</time>
      </trkpt>
      <trkpt lat="44.80385" lon="3.09544">
        <ele>1121.7</ele>
        <time>2022-07-31T12:00:49Z</time>
      </trkpt>
      <trkpt lat="44.80387" lon="3.09543">
        <ele>1121.9</ele>
        <time>2022-07-31T12:00:51Z</time>
      </trkpt>
      <trkpt lat="44.80396" lon="3.09536">
        <ele>1122.6</ele>
        <time>2022-07-31T12:00:59Z</time>
      </trkpt>
      <trkpt lat="44.80409" lon="3.09531">
        <ele>1123.5</ele>
        <time>2022-07-31T12:01:07Z</time>
      </trkpt>
      <trkpt lat="44.80413" lon="3.09527">
        <ele>1123.7</ele>
        <time>2022-07-31T12:01:11Z</time>
      </trkpt>
      <trkpt lat="44.80415" lon="3.09527">
        <ele>1123.8</ele>
        <time>2022-07-31T12:01:12Z</time>
      </trkpt>
      <trkpt lat="44.80417" lon="3.09525">
        <ele>1123.9</ele>
        <time>2022-07-31T12:01:15Z</time>
      </trkpt>
      <trkpt lat="44.80424" lon="3.09521">
        <ele>1124</ele>
        <time>2022-07-31T12:01:21Z</time>
      </trkpt>
      <trkpt lat="44.80427" lon="3.09518">
        <ele>1124</ele>
        <time>2022-07-31T12:01:24Z</time>
      </trkpt>
      <trkpt lat="44.80438" lon="3.09514">
        <ele>1124.3</ele>
        <time>2022-07-31T12:01:33Z</time>
      </trkpt>
      <trkpt lat="44.80443" lon="3.09513">
        <ele>1124.4</ele>
        <time>2022-07-31T12:01:37Z</time>
      </trkpt>
      <trkpt lat="44.80444" lon="3.09511">
        <ele>1124.4</ele>
        <time>2022-07-31T12:01:39Z</time>
      </trkpt>
      <trkpt lat="44.80448" lon="3.09509">
        <ele>1124.1</ele>
        <time>2022-07-31T12:01:44Z</time>
      </trkpt>
      <trkpt lat="44.80449" lon="3.09509">
        <ele>1124</ele>
        <time>2022-07-31T12:01:45Z</time>
      </trkpt>
      <trkpt lat="44.80451" lon="3.09508">
        <ele>1123.9</ele>
        <time>2022-07-31T12:01:47Z</time>
      </trkpt>
      <trkpt lat="44.80452" lon="3.09508">
        <ele>1123.8</ele>
        <time>2022-07-31T12:01:48Z</time>
      </trkpt>
      <trkpt lat="44.80452" lon="3.09507">
        <ele>1123.8</ele>
        <time>2022-07-31T12:01:49Z</time>
      </trkpt>
      <trkpt lat="44.80454" lon="3.09507">
        <ele>1123.7</ele>
        <time>2022-07-31T12:01:52Z</time>
      </trkpt>
      <trkpt lat="44.80454" lon="3.09507">
        <ele>1123.6</ele>
        <time>2022-07-31T12:01:55Z</time>
      </trkpt>
      <trkpt lat="44.80455" lon="3.09507">
        <ele>1123.6</ele>
        <time>2022-07-31T12:01:57Z</time>
      </trkpt>
      <trkpt lat="44.80455" lon="3.09507">
        <ele>1123.6</ele>
        <time>2022-07-31T12:01:59Z</time>
      </trkpt>
      <trkpt lat="44.80455" lon="3.09507">
        <ele>1123.6</ele>
        <time>2022-07-31T12:02:17Z</time>
      </trkpt>
      <trkpt lat="44.80455" lon="3.09507">
        <ele>1123.6</ele>
        <time>2022-07-31T12:02:23Z</time>
      </trkpt>
      <trkpt lat="44.8046" lon="3.09508">
        <ele>1123.3</ele>
        <time>2022-07-31T12:02:26Z</time>
      </trkpt>
      <trkpt lat="44.80468" lon="3.09508">
        <ele>1122.8</ele>
        <time>2022-07-31T12:02:30Z</time>
      </trkpt>
      <trkpt lat="44.80474" lon="3.09508">
        <ele>1122.4</ele>
        <time>2022-07-31T12:02:34Z</time>
      </trkpt>
      <trkpt lat="44.80478" lon="3.09509">
        <ele>1122</ele>
        <time>2022-07-31T12:02:37Z</time>
      </trkpt>
      <trkpt lat="44.80483" lon="3.09509">
        <ele>1121.4</ele>
        <time>2022-07-31T12:02:41Z</time>
      </trkpt>
      <trkpt lat="44.80484" lon="3.09509">
        <ele>1121.3</ele>
        <time>2022-07-31T12:02:42Z</time>
      </trkpt>
      <trkpt lat="44.8049" lon="3.0951">
        <ele>1120.6</ele>
        <time>2022-07-31T12:02:49Z</time>
      </trkpt>
      <trkpt lat="44.80491" lon="3.09509">
        <ele>1120.3</ele>
        <time>2022-07-31T12:02:51Z</time>
      </trkpt>
      <trkpt lat="44.80498" lon="3.0951">
        <ele>1119.7</ele>
        <time>2022-07-31T12:02:57Z</time>
      </trkpt>
      <trkpt lat="44.80502" lon="3.0951">
        <ele>1119.3</ele>
        <time>2022-07-31T12:03:00Z</time>
      </trkpt>
      <trkpt lat="44.80514" lon="3.09509">
        <ele>1117.4</ele>
        <time>2022-07-31T12:03:10Z</time>
      </trkpt>
      <trkpt lat="44.80531" lon="3.09506">
        <ele>1115</ele>
        <time>2022-07-31T12:03:23Z</time>
      </trkpt>
      <trkpt lat="44.80546" lon="3.09505">
        <ele>1114.2</ele>
        <time>2022-07-31T12:03:34Z</time>
      </trkpt>
      <trkpt lat="44.80548" lon="3.09505">
        <ele>1114</ele>
        <time>2022-07-31T12:03:36Z</time>
      </trkpt>
      <trkpt lat="44.80554" lon="3.09505">
        <ele>1113.8</ele>
        <time>2022-07-31T12:03:40Z</time>
      </trkpt>
      <trkpt lat="44.80562" lon="3.09505">
        <ele>1113.4</ele>
        <time>2022-07-31T12:03:46Z</time>
      </trkpt>
      <trkpt lat="44.8057" lon="3.09505">
        <ele>1113.2</ele>
        <time>2022-07-31T12:03:52Z</time>
      </trkpt>
      <trkpt lat="44.80577" lon="3.09505">
        <ele>1113</ele>
        <time>2022-07-31T12:03:58Z</time>
      </trkpt>
      <trkpt lat="44.80585" lon="3.09504">
        <ele>1112.5</ele>
        <time>2022-07-31T12:04:05Z</time>
      </trkpt>
      <trkpt lat="44.80586" lon="3.09503">
        <ele>1112.3</ele>
        <time>2022-07-31T12:04:06Z</time>
      </trkpt>
      <trkpt lat="44.80588" lon="3.09502">
        <ele>1112</ele>
        <time>2022-07-31T12:04:08Z</time>
      </trkpt>
      <trkpt lat="44.80592" lon="3.09501">
        <ele>1111.5</ele>
        <time>2022-07-31T12:04:11Z</time>
      </trkpt>
      <trkpt lat="44.80598" lon="3.09498">
        <ele>1110.7</ele>
        <time>2022-07-31T12:04:16Z</time>
      </trkpt>
      <trkpt lat="44.80601" lon="3.09497">
        <ele>1110.3</ele>
        <time>2022-07-31T12:04:18Z</time>
      </trkpt>
      <trkpt lat="44.80609" lon="3.09496">
        <ele>1109.5</ele>
        <time>2022-07-31T12:04:24Z</time>
      </trkpt>
      <trkpt lat="44.80612" lon="3.09495">
        <ele>1109.2</ele>
        <time>2022-07-31T12:04:26Z</time>
      </trkpt>
      <trkpt lat="44.80618" lon="3.09489">
        <ele>1108.5</ele>
        <time>2022-07-31T12:04:32Z</time>
      </trkpt>
      <trkpt lat="44.80624" lon="3.09486">
        <ele>1108</ele>
        <time>2022-07-31T12:04:36Z</time>
      </trkpt>
      <trkpt lat="44.80627" lon="3.09484">
        <ele>1107.5</ele>
        <time>2022-07-31T12:04:39Z</time>
      </trkpt>
      <trkpt lat="44.80627" lon="3.09483">
        <ele>1107.3</ele>
        <time>2022-07-31T12:04:40Z</time>
      </trkpt>
      <trkpt lat="44.80636" lon="3.09475">
        <ele>1105.6</ele>
        <time>2022-07-31T12:04:49Z</time>
      </trkpt>
      <trkpt lat="44.80637" lon="3.09474">
        <ele>1105.3</ele>
        <time>2022-07-31T12:04:50Z</time>
      </trkpt>
      <trkpt lat="44.80646" lon="3.09466">
        <ele>1104.1</ele>
        <time>2022-07-31T12:04:59Z</time>
      </trkpt>
      <trkpt lat="44.80647" lon="3.09466">
        <ele>1104</ele>
        <time>2022-07-31T12:05:00Z</time>
      </trkpt>
      <trkpt lat="44.80651" lon="3.09463">
        <ele>1103.7</ele>
        <time>2022-07-31T12:05:04Z</time>
      </trkpt>
      <trkpt lat="44.80659" lon="3.0946">
        <ele>1103.3</ele>
        <time>2022-07-31T12:05:11Z</time>
      </trkpt>
      <trkpt lat="44.80661" lon="3.09459">
        <ele>1103.1</ele>
        <time>2022-07-31T12:05:14Z</time>
      </trkpt>
      <trkpt lat="44.80664" lon="3.09458">
        <ele>1102.9</ele>
        <time>2022-07-31T12:05:17Z</time>
      </trkpt>
      <trkpt lat="44.80666" lon="3.09458">
        <ele>1102.9</ele>
        <time>2022-07-31T12:05:19Z</time>
      </trkpt>
      <trkpt lat="44.80667" lon="3.09457">
        <ele>1102.8</ele>
        <time>2022-07-31T12:05:20Z</time>
      </trkpt>
      <trkpt lat="44.80671" lon="3.09456">
        <ele>1102.4</ele>
        <time>2022-07-31T12:05:23Z</time>
      </trkpt>
      <trkpt lat="44.80674" lon="3.09455">
        <ele>1102</ele>
        <time>2022-07-31T12:05:26Z</time>
      </trkpt>
      <trkpt lat="44.80675" lon="3.09455">
        <ele>1101.9</ele>
        <time>2022-07-31T12:05:27Z</time>
      </trkpt>
      <trkpt lat="44.8068" lon="3.09455">
        <ele>1101.5</ele>
        <time>2022-07-31T12:05:31Z</time>
      </trkpt>
      <trkpt lat="44.80684" lon="3.09455">
        <ele>1101.2</ele>
        <time>2022-07-31T12:05:35Z</time>
      </trkpt>
      <trkpt lat="44.80685" lon="3.09455">
        <ele>1101.1</ele>
        <time>2022-07-31T12:05:36Z</time>
      </trkpt>
      <trkpt lat="44.80689" lon="3.09454">
        <ele>1100.8</ele>
        <time>2022-07-31T12:05:39Z</time>
      </trkpt>
      <trkpt lat="44.80692" lon="3.09453">
        <ele>1100.4</ele>
        <time>2022-07-31T12:05:41Z</time>
      </trkpt>
      <trkpt lat="44.80699" lon="3.0945">
        <ele>1099.5</ele>
        <time>2022-07-31T12:05:46Z</time>
      </trkpt>
      <trkpt lat="44.807" lon="3.09449">
        <ele>1099.3</ele>
        <time>2022-07-31T12:05:47Z</time>
      </trkpt>
      <trkpt lat="44.80703" lon="3.09447">
        <ele>1098.8</ele>
        <time>2022-07-31T12:05:49Z</time>
      </trkpt>
      <trkpt lat="44.80706" lon="3.09445">
        <ele>1098.3</ele>
        <time>2022-07-31T12:05:51Z</time>
      </trkpt>
      <trkpt lat="44.80708" lon="3.09443">
        <ele>1097.8</ele>
        <time>2022-07-31T12:05:54Z</time>
      </trkpt>
      <trkpt lat="44.80708" lon="3.09442">
        <ele>1097.7</ele>
        <time>2022-07-31T12:05:55Z</time>
      </trkpt>
      <trkpt lat="44.80715" lon="3.09439">
        <ele>1096.9</ele>
        <time>2022-07-31T12:06:00Z</time>
      </trkpt>
      <trkpt lat="44.80719" lon="3.09438">
        <ele>1096.5</ele>
        <time>2022-07-31T12:06:03Z</time>
      </trkpt>
      <trkpt lat="44.80725" lon="3.09438">
        <ele>1095.9</ele>
        <time>2022-07-31T12:06:06Z</time>
      </trkpt>
      <trkpt lat="44.80731" lon="3.09437">
        <ele>1095</ele>
        <time>2022-07-31T12:06:11Z</time>
      </trkpt>
      <trkpt lat="44.80732" lon="3.09437">
        <ele>1094.9</ele>
        <time>2022-07-31T12:06:12Z</time>
      </trkpt>
      <trkpt lat="44.80743" lon="3.09438">
        <ele>1093.5</ele>
        <time>2022-07-31T12:06:19Z</time>
      </trkpt>
      <trkpt lat="44.80744" lon="3.09439">
        <ele>1093.4</ele>
        <time>2022-07-31T12:06:20Z</time>
      </trkpt>
      <trkpt lat="44.80749" lon="3.09439">
        <ele>1092.8</ele>
        <time>2022-07-31T12:06:25Z</time>
      </trkpt>
      <trkpt lat="44.80754" lon="3.09439">
        <ele>1092</ele>
        <time>2022-07-31T12:06:28Z</time>
      </trkpt>
      <trkpt lat="44.80757" lon="3.09439">
        <ele>1091.6</ele>
        <time>2022-07-31T12:06:30Z</time>
      </trkpt>
      <trkpt lat="44.80759" lon="3.09439">
        <ele>1091.3</ele>
        <time>2022-07-31T12:06:32Z</time>
      </trkpt>
      <trkpt lat="44.8076" lon="3.09439">
        <ele>1091.2</ele>
        <time>2022-07-31T12:06:33Z</time>
      </trkpt>
      <trkpt lat="44.80765" lon="3.09439">
        <ele>1090.4</ele>
        <time>2022-07-31T12:06:38Z</time>
      </trkpt>
      <trkpt lat="44.80769" lon="3.09439">
        <ele>1089.9</ele>
        <time>2022-07-31T12:06:41Z</time>
      </trkpt>
      <trkpt lat="44.8077" lon="3.09439">
        <ele>1089.7</ele>
        <time>2022-07-31T12:06:42Z</time>
      </trkpt>
      <trkpt lat="44.80771" lon="3.09438">
        <ele>1089.5</ele>
        <time>2022-07-31T12:06:44Z</time>
      </trkpt>
      <trkpt lat="44.80775" lon="3.09438">
        <ele>1088.9</ele>
        <time>2022-07-31T12:06:48Z</time>
      </trkpt>
      <trkpt lat="44.80777" lon="3.09439">
        <ele>1088.7</ele>
        <time>2022-07-31T12:06:50Z</time>
      </trkpt>
      <trkpt lat="44.80781" lon="3.09439">
        <ele>1088.4</ele>
        <time>2022-07-31T12:06:52Z</time>
      </trkpt>
      <trkpt lat="44.80786" lon="3.0944">
        <ele>1088</ele>
        <time>2022-07-31T12:06:56Z</time>
      </trkpt>
      <trkpt lat="44.80789" lon="3.09438">
        <ele>1087.6</ele>
        <time>2022-07-31T12:06:59Z</time>
      </trkpt>
      <trkpt lat="44.8079" lon="3.09438">
        <ele>1087.5</ele>
        <time>2022-07-31T12:07:00Z</time>
      </trkpt>
      <trkpt lat="44.80797" lon="3.09437">
        <ele>1086.9</ele>
        <time>2022-07-31T12:07:04Z</time>
      </trkpt>
      <trkpt lat="44.80803" lon="3.09437">
        <ele>1086.4</ele>
        <time>2022-07-31T12:07:07Z</time>
      </trkpt>
      <trkpt lat="44.80807" lon="3.09436">
        <ele>1086</ele>
        <time>2022-07-31T12:07:10Z</time>
      </trkpt>
      <trkpt lat="44.80817" lon="3.09433">
        <ele>1085.3</ele>
        <time>2022-07-31T12:07:16Z</time>
      </trkpt>
      <trkpt lat="44.8083" lon="3.0943">
        <ele>1084.5</ele>
        <time>2022-07-31T12:07:26Z</time>
      </trkpt>
      <trkpt lat="44.80839" lon="3.09428">
        <ele>1084.1</ele>
        <time>2022-07-31T12:07:32Z</time>
      </trkpt>
      <trkpt lat="44.80845" lon="3.09427">
        <ele>1083.9</ele>
        <time>2022-07-31T12:07:35Z</time>
      </trkpt>
      <trkpt lat="44.80849" lon="3.09427">
        <ele>1083.9</ele>
        <time>2022-07-31T12:07:38Z</time>
      </trkpt>
      <trkpt lat="44.80854" lon="3.09428">
        <ele>1083.9</ele>
        <time>2022-07-31T12:07:41Z</time>
      </trkpt>
      <trkpt lat="44.80866" lon="3.0943">
        <ele>1083.6</ele>
        <time>2022-07-31T12:07:48Z</time>
      </trkpt>
      <trkpt lat="44.80872" lon="3.09431">
        <ele>1083.2</ele>
        <time>2022-07-31T12:07:51Z</time>
      </trkpt>
      <trkpt lat="44.80874" lon="3.09432">
        <ele>1083.2</ele>
        <time>2022-07-31T12:07:53Z</time>
      </trkpt>
      <trkpt lat="44.80876" lon="3.09432">
        <ele>1083</ele>
        <time>2022-07-31T12:07:56Z</time>
      </trkpt>
      <trkpt lat="44.80879" lon="3.09432">
        <ele>1082.7</ele>
        <time>2022-07-31T12:07:58Z</time>
      </trkpt>
      <trkpt lat="44.80882" lon="3.09432">
        <ele>1082.5</ele>
        <time>2022-07-31T12:08:00Z</time>
      </trkpt>
      <trkpt lat="44.80884" lon="3.09432">
        <ele>1082.4</ele>
        <time>2022-07-31T12:08:02Z</time>
      </trkpt>
      <trkpt lat="44.80887" lon="3.09432">
        <ele>1082.2</ele>
        <time>2022-07-31T12:08:04Z</time>
      </trkpt>
      <trkpt lat="44.80888" lon="3.09432">
        <ele>1082</ele>
        <time>2022-07-31T12:08:05Z</time>
      </trkpt>
      <trkpt lat="44.8089" lon="3.09432">
        <ele>1081.9</ele>
        <time>2022-07-31T12:08:06Z</time>
      </trkpt>
      <trkpt lat="44.80895" lon="3.09431">
        <ele>1081.3</ele>
        <time>2022-07-31T12:08:11Z</time>
      </trkpt>
      <trkpt lat="44.80896" lon="3.0943">
        <ele>1081.2</ele>
        <time>2022-07-31T12:08:12Z</time>
      </trkpt>
      <trkpt lat="44.80899" lon="3.09429">
        <ele>1080.7</ele>
        <time>2022-07-31T12:08:15Z</time>
      </trkpt>
      <trkpt lat="44.80909" lon="3.09422">
        <ele>1079.2</ele>
        <time>2022-07-31T12:08:24Z</time>
      </trkpt>
      <trkpt lat="44.80915" lon="3.09418">
        <ele>1078.2</ele>
        <time>2022-07-31T12:08:28Z</time>
      </trkpt>
      <trkpt lat="44.80919" lon="3.09416">
        <ele>1077.6</ele>
        <time>2022-07-31T12:08:31Z</time>
      </trkpt>
      <trkpt lat="44.80924" lon="3.09413">
        <ele>1077</ele>
        <time>2022-07-31T12:08:35Z</time>
      </trkpt>
      <trkpt lat="44.80927" lon="3.0941">
        <ele>1076.5</ele>
        <time>2022-07-31T12:08:38Z</time>
      </trkpt>
      <trkpt lat="44.80929" lon="3.0941">
        <ele>1076.3</ele>
        <time>2022-07-31T12:08:39Z</time>
      </trkpt>
      <trkpt lat="44.80936" lon="3.09406">
        <ele>1075.2</ele>
        <time>2022-07-31T12:08:46Z</time>
      </trkpt>
      <trkpt lat="44.80939" lon="3.09404">
        <ele>1074.9</ele>
        <time>2022-07-31T12:08:48Z</time>
      </trkpt>
      <trkpt lat="44.80944" lon="3.09402">
        <ele>1074.1</ele>
        <time>2022-07-31T12:08:52Z</time>
      </trkpt>
      <trkpt lat="44.80949" lon="3.09399">
        <ele>1073.3</ele>
        <time>2022-07-31T12:08:56Z</time>
      </trkpt>
      <trkpt lat="44.80952" lon="3.09397">
        <ele>1072.6</ele>
        <time>2022-07-31T12:08:59Z</time>
      </trkpt>
      <trkpt lat="44.80959" lon="3.09391">
        <ele>1071.5</ele>
        <time>2022-07-31T12:09:04Z</time>
      </trkpt>
      <trkpt lat="44.80961" lon="3.0939">
        <ele>1071</ele>
        <time>2022-07-31T12:09:06Z</time>
      </trkpt>
      <trkpt lat="44.80968" lon="3.09388">
        <ele>1069.8</ele>
        <time>2022-07-31T12:09:10Z</time>
      </trkpt>
      <trkpt lat="44.80972" lon="3.09386">
        <ele>1069</ele>
        <time>2022-07-31T12:09:14Z</time>
      </trkpt>
      <trkpt lat="44.80973" lon="3.09386">
        <ele>1068.8</ele>
        <time>2022-07-31T12:09:15Z</time>
      </trkpt>
      <trkpt lat="44.80975" lon="3.09384">
        <ele>1068.5</ele>
        <time>2022-07-31T12:09:17Z</time>
      </trkpt>
      <trkpt lat="44.80976" lon="3.09383">
        <ele>1068.3</ele>
        <time>2022-07-31T12:09:19Z</time>
      </trkpt>
      <trkpt lat="44.8098" lon="3.0938">
        <ele>1067.8</ele>
        <time>2022-07-31T12:09:21Z</time>
      </trkpt>
      <trkpt lat="44.80983" lon="3.0938">
        <ele>1067.6</ele>
        <time>2022-07-31T12:09:23Z</time>
      </trkpt>
      <trkpt lat="44.80987" lon="3.09379">
        <ele>1067</ele>
        <time>2022-07-31T12:09:27Z</time>
      </trkpt>
      <trkpt lat="44.80993" lon="3.09378">
        <ele>1066.3</ele>
        <time>2022-07-31T12:09:31Z</time>
      </trkpt>
      <trkpt lat="44.80995" lon="3.09377">
        <ele>1066.2</ele>
        <time>2022-07-31T12:09:32Z</time>
      </trkpt>
      <trkpt lat="44.81006" lon="3.09373">
        <ele>1064.8</ele>
        <time>2022-07-31T12:09:41Z</time>
      </trkpt>
      <trkpt lat="44.81019" lon="3.09376">
        <ele>1063.4</ele>
        <time>2022-07-31T12:09:49Z</time>
      </trkpt>
      <trkpt lat="44.81028" lon="3.09378">
        <ele>1062.4</ele>
        <time>2022-07-31T12:09:56Z</time>
      </trkpt>
      <trkpt lat="44.81031" lon="3.0938">
        <ele>1062.1</ele>
        <time>2022-07-31T12:09:58Z</time>
      </trkpt>
      <trkpt lat="44.81035" lon="3.09382">
        <ele>1061.8</ele>
        <time>2022-07-31T12:10:01Z</time>
      </trkpt>
      <trkpt lat="44.81036" lon="3.09382">
        <ele>1061.7</ele>
        <time>2022-07-31T12:10:02Z</time>
      </trkpt>
      <trkpt lat="44.81038" lon="3.09385">
        <ele>1061.4</ele>
        <time>2022-07-31T12:10:05Z</time>
      </trkpt>
      <trkpt lat="44.81039" lon="3.09385">
        <ele>1061.3</ele>
        <time>2022-07-31T12:10:07Z</time>
      </trkpt>
      <trkpt lat="44.8104" lon="3.09386">
        <ele>1061.2</ele>
        <time>2022-07-31T12:10:08Z</time>
      </trkpt>
      <trkpt lat="44.81041" lon="3.09387">
        <ele>1061.1</ele>
        <time>2022-07-31T12:10:09Z</time>
      </trkpt>
      <trkpt lat="44.81049" lon="3.09388">
        <ele>1060.5</ele>
        <time>2022-07-31T12:10:15Z</time>
      </trkpt>
      <trkpt lat="44.81052" lon="3.09389">
        <ele>1060.3</ele>
        <time>2022-07-31T12:10:17Z</time>
      </trkpt>
      <trkpt lat="44.81053" lon="3.0939">
        <ele>1060.1</ele>
        <time>2022-07-31T12:10:18Z</time>
      </trkpt>
      <trkpt lat="44.81057" lon="3.0939">
        <ele>1059.9</ele>
        <time>2022-07-31T12:10:20Z</time>
      </trkpt>
      <trkpt lat="44.81061" lon="3.0939">
        <ele>1059.7</ele>
        <time>2022-07-31T12:10:23Z</time>
      </trkpt>
      <trkpt lat="44.81062" lon="3.09389">
        <ele>1059.8</ele>
        <time>2022-07-31T12:10:24Z</time>
      </trkpt>
      <trkpt lat="44.81067" lon="3.09389">
        <ele>1059.6</ele>
        <time>2022-07-31T12:10:28Z</time>
      </trkpt>
      <trkpt lat="44.81069" lon="3.09389">
        <ele>1059.5</ele>
        <time>2022-07-31T12:10:29Z</time>
      </trkpt>
      <trkpt lat="44.8107" lon="3.09389">
        <ele>1059.5</ele>
        <time>2022-07-31T12:10:30Z</time>
      </trkpt>
      <trkpt lat="44.81073" lon="3.09389">
        <ele>1059.4</ele>
        <time>2022-07-31T12:10:32Z</time>
      </trkpt>
      <trkpt lat="44.81075" lon="3.09389">
        <ele>1059.3</ele>
        <time>2022-07-31T12:10:33Z</time>
      </trkpt>
      <trkpt lat="44.8108" lon="3.09389">
        <ele>1059.1</ele>
        <time>2022-07-31T12:10:37Z</time>
      </trkpt>
      <trkpt lat="44.81081" lon="3.09389">
        <ele>1059.1</ele>
        <time>2022-07-31T12:10:38Z</time>
      </trkpt>
      <trkpt lat="44.81084" lon="3.09389">
        <ele>1058.8</ele>
        <time>2022-07-31T12:10:40Z</time>
      </trkpt>
      <trkpt lat="44.81089" lon="3.09386">
        <ele>1057.9</ele>
        <time>2022-07-31T12:10:43Z</time>
      </trkpt>
      <trkpt lat="44.8109" lon="3.09383">
        <ele>1057.7</ele>
        <time>2022-07-31T12:10:45Z</time>
      </trkpt>
      <trkpt lat="44.81092" lon="3.0938">
        <ele>1057.3</ele>
        <time>2022-07-31T12:10:47Z</time>
      </trkpt>
      <trkpt lat="44.81094" lon="3.0938">
        <ele>1057.1</ele>
        <time>2022-07-31T12:10:48Z</time>
      </trkpt>
      <trkpt lat="44.81096" lon="3.0938">
        <ele>1056.5</ele>
        <time>2022-07-31T12:10:51Z</time>
      </trkpt>
      <trkpt lat="44.81098" lon="3.09378">
        <ele>1056.1</ele>
        <time>2022-07-31T12:10:54Z</time>
      </trkpt>
      <trkpt lat="44.81104" lon="3.09373">
        <ele>1054.8</ele>
        <time>2022-07-31T12:10:59Z</time>
      </trkpt>
      <trkpt lat="44.81107" lon="3.09368">
        <ele>1054.1</ele>
        <time>2022-07-31T12:11:03Z</time>
      </trkpt>
      <trkpt lat="44.81108" lon="3.09365">
        <ele>1053.7</ele>
        <time>2022-07-31T12:11:05Z</time>
      </trkpt>
      <trkpt lat="44.81111" lon="3.0936">
        <ele>1053</ele>
        <time>2022-07-31T12:11:08Z</time>
      </trkpt>
      <trkpt lat="44.81113" lon="3.09359">
        <ele>1052.6</ele>
        <time>2022-07-31T12:11:09Z</time>
      </trkpt>
      <trkpt lat="44.81115" lon="3.09358">
        <ele>1052.3</ele>
        <time>2022-07-31T12:11:10Z</time>
      </trkpt>
      <trkpt lat="44.81125" lon="3.09355">
        <ele>1050.8</ele>
        <time>2022-07-31T12:11:16Z</time>
      </trkpt>
      <trkpt lat="44.81128" lon="3.09353">
        <ele>1050.3</ele>
        <time>2022-07-31T12:11:18Z</time>
      </trkpt>
      <trkpt lat="44.81136" lon="3.09348">
        <ele>1049</ele>
        <time>2022-07-31T12:11:24Z</time>
      </trkpt>
      <trkpt lat="44.8114" lon="3.09344">
        <ele>1048.2</ele>
        <time>2022-07-31T12:11:28Z</time>
      </trkpt>
      <trkpt lat="44.81142" lon="3.09342">
        <ele>1048</ele>
        <time>2022-07-31T12:11:30Z</time>
      </trkpt>
      <trkpt lat="44.81146" lon="3.09339">
        <ele>1047.5</ele>
        <time>2022-07-31T12:11:33Z</time>
      </trkpt>
      <trkpt lat="44.81148" lon="3.09337">
        <ele>1047.2</ele>
        <time>2022-07-31T12:11:35Z</time>
      </trkpt>
      <trkpt lat="44.81152" lon="3.09335">
        <ele>1046.7</ele>
        <time>2022-07-31T12:11:38Z</time>
      </trkpt>
      <trkpt lat="44.81153" lon="3.09333">
        <ele>1046.5</ele>
        <time>2022-07-31T12:11:39Z</time>
      </trkpt>
      <trkpt lat="44.81161" lon="3.09326">
        <ele>1045.3</ele>
        <time>2022-07-31T12:11:47Z</time>
      </trkpt>
      <trkpt lat="44.81164" lon="3.09324">
        <ele>1044.9</ele>
        <time>2022-07-31T12:11:49Z</time>
      </trkpt>
      <trkpt lat="44.81166" lon="3.09323">
        <ele>1044.7</ele>
        <time>2022-07-31T12:11:50Z</time>
      </trkpt>
      <trkpt lat="44.81171" lon="3.09319">
        <ele>1044.2</ele>
        <time>2022-07-31T12:11:54Z</time>
      </trkpt>
      <trkpt lat="44.81173" lon="3.09318">
        <ele>1043.9</ele>
        <time>2022-07-31T12:11:56Z</time>
      </trkpt>
      <trkpt lat="44.81175" lon="3.09317">
        <ele>1043.8</ele>
        <time>2022-07-31T12:11:57Z</time>
      </trkpt>
      <trkpt lat="44.81178" lon="3.09315">
        <ele>1043.5</ele>
        <time>2022-07-31T12:11:59Z</time>
      </trkpt>
      <trkpt lat="44.8118" lon="3.09314">
        <ele>1043.4</ele>
        <time>2022-07-31T12:12:00Z</time>
      </trkpt>
      <trkpt lat="44.81185" lon="3.09311">
        <ele>1042.9</ele>
        <time>2022-07-31T12:12:04Z</time>
      </trkpt>
      <trkpt lat="44.8119" lon="3.09305">
        <ele>1042.3</ele>
        <time>2022-07-31T12:12:08Z</time>
      </trkpt>
      <trkpt lat="44.81192" lon="3.09303">
        <ele>1042</ele>
        <time>2022-07-31T12:12:10Z</time>
      </trkpt>
      <trkpt lat="44.81196" lon="3.09302">
        <ele>1041.5</ele>
        <time>2022-07-31T12:12:13Z</time>
      </trkpt>
      <trkpt lat="44.81196" lon="3.09302">
        <ele>1041.5</ele>
        <time>2022-07-31T12:12:14Z</time>
      </trkpt>
      <trkpt lat="44.812" lon="3.09302">
        <ele>1041.2</ele>
        <time>2022-07-31T12:12:15Z</time>
      </trkpt>
      <trkpt lat="44.81202" lon="3.09301">
        <ele>1040.9</ele>
        <time>2022-07-31T12:12:16Z</time>
      </trkpt>
      <trkpt lat="44.81214" lon="3.09296">
        <ele>1039.4</ele>
        <time>2022-07-31T12:12:24Z</time>
      </trkpt>
      <trkpt lat="44.81215" lon="3.09295">
        <ele>1039.3</ele>
        <time>2022-07-31T12:12:25Z</time>
      </trkpt>
      <trkpt lat="44.81225" lon="3.09289">
        <ele>1038.2</ele>
        <time>2022-07-31T12:12:33Z</time>
      </trkpt>
      <trkpt lat="44.81234" lon="3.09286">
        <ele>1037.4</ele>
        <time>2022-07-31T12:12:40Z</time>
      </trkpt>
      <trkpt lat="44.81236" lon="3.09285">
        <ele>1037.3</ele>
        <time>2022-07-31T12:12:41Z</time>
      </trkpt>
      <trkpt lat="44.81247" lon="3.09283">
        <ele>1036.4</ele>
        <time>2022-07-31T12:12:50Z</time>
      </trkpt>
      <trkpt lat="44.81247" lon="3.09283">
        <ele>1036.4</ele>
        <time>2022-07-31T12:12:51Z</time>
      </trkpt>
      <trkpt lat="44.81247" lon="3.09284">
        <ele>1036.4</ele>
        <time>2022-07-31T12:12:54Z</time>
      </trkpt>
      <trkpt lat="44.81248" lon="3.09282">
        <ele>1036.3</ele>
        <time>2022-07-31T12:12:58Z</time>
      </trkpt>
      <trkpt lat="44.81249" lon="3.09281">
        <ele>1036.2</ele>
        <time>2022-07-31T12:12:59Z</time>
      </trkpt>
      <trkpt lat="44.81252" lon="3.0928">
        <ele>1036.1</ele>
        <time>2022-07-31T12:13:02Z</time>
      </trkpt>
      <trkpt lat="44.81258" lon="3.09279">
        <ele>1036</ele>
        <time>2022-07-31T12:13:06Z</time>
      </trkpt>
      <trkpt lat="44.81266" lon="3.09275">
        <ele>1035.9</ele>
        <time>2022-07-31T12:13:12Z</time>
      </trkpt>
      <trkpt lat="44.81269" lon="3.09274">
        <ele>1035.8</ele>
        <time>2022-07-31T12:13:15Z</time>
      </trkpt>
      <trkpt lat="44.81276" lon="3.09273">
        <ele>1035.6</ele>
        <time>2022-07-31T12:13:19Z</time>
      </trkpt>
      <trkpt lat="44.81281" lon="3.09269">
        <ele>1035.4</ele>
        <time>2022-07-31T12:13:23Z</time>
      </trkpt>
      <trkpt lat="44.81282" lon="3.09269">
        <ele>1035.4</ele>
        <time>2022-07-31T12:13:24Z</time>
      </trkpt>
      <trkpt lat="44.81293" lon="3.09265">
        <ele>1035.3</ele>
        <time>2022-07-31T12:13:33Z</time>
      </trkpt>
      <trkpt lat="44.81304" lon="3.0926">
        <ele>1035.3</ele>
        <time>2022-07-31T12:13:42Z</time>
      </trkpt>
      <trkpt lat="44.81307" lon="3.0926">
        <ele>1035.4</ele>
        <time>2022-07-31T12:13:44Z</time>
      </trkpt>
      <trkpt lat="44.81317" lon="3.09258">
        <ele>1035.6</ele>
        <time>2022-07-31T12:13:51Z</time>
      </trkpt>
      <trkpt lat="44.8132" lon="3.09258">
        <ele>1035.7</ele>
        <time>2022-07-31T12:13:53Z</time>
      </trkpt>
      <trkpt lat="44.81325" lon="3.09258">
        <ele>1035.8</ele>
        <time>2022-07-31T12:13:57Z</time>
      </trkpt>
      <trkpt lat="44.81331" lon="3.09256">
        <ele>1035.9</ele>
        <time>2022-07-31T12:14:01Z</time>
      </trkpt>
      <trkpt lat="44.81346" lon="3.09254">
        <ele>1035.1</ele>
        <time>2022-07-31T12:14:11Z</time>
      </trkpt>
      <trkpt lat="44.81347" lon="3.09253">
        <ele>1035</ele>
        <time>2022-07-31T12:14:12Z</time>
      </trkpt>
      <trkpt lat="44.81359" lon="3.09253">
        <ele>1034.1</ele>
        <time>2022-07-31T12:14:22Z</time>
      </trkpt>
      <trkpt lat="44.8136" lon="3.09253">
        <ele>1034.1</ele>
        <time>2022-07-31T12:14:23Z</time>
      </trkpt>
      <trkpt lat="44.81369" lon="3.09252">
        <ele>1033.2</ele>
        <time>2022-07-31T12:14:31Z</time>
      </trkpt>
      <trkpt lat="44.81369" lon="3.09253">
        <ele>1033.2</ele>
        <time>2022-07-31T12:14:32Z</time>
      </trkpt>
      <trkpt lat="44.81369" lon="3.09253">
        <ele>1033.2</ele>
        <time>2022-07-31T12:14:34Z</time>
      </trkpt>
      <trkpt lat="44.81371" lon="3.09254">
        <ele>1033</ele>
        <time>2022-07-31T12:14:36Z</time>
      </trkpt>
      <trkpt lat="44.81373" lon="3.09259">
        <ele>1032.9</ele>
        <time>2022-07-31T12:14:40Z</time>
      </trkpt>
      <trkpt lat="44.81375" lon="3.09261">
        <ele>1032.7</ele>
        <time>2022-07-31T12:14:42Z</time>
      </trkpt>
      <trkpt lat="44.81377" lon="3.09263">
        <ele>1032.6</ele>
        <time>2022-07-31T12:14:45Z</time>
      </trkpt>
      <trkpt lat="44.81376" lon="3.09265">
        <ele>1032.7</ele>
        <time>2022-07-31T12:14:47Z</time>
      </trkpt>
      <trkpt lat="44.81376" lon="3.09265">
        <ele>1032.7</ele>
        <time>2022-07-31T12:14:51Z</time>
      </trkpt>
      <trkpt lat="44.81376" lon="3.09265">
        <ele>1032.7</ele>
        <time>2022-07-31T12:14:52Z</time>
      </trkpt>
      <trkpt lat="44.81376" lon="3.09265">
        <ele>1032.7</ele>
        <time>2022-07-31T12:14:55Z</time>
      </trkpt>
      <trkpt lat="44.81376" lon="3.09265">
        <ele>1032.7</ele>
        <time>2022-07-31T12:14:56Z</time>
      </trkpt>
      <trkpt lat="44.81395" lon="3.09254">
        <ele>1030.5</ele>
        <time>2022-07-31T13:04:59Z</time>
      </trkpt>
      <trkpt lat="44.81391" lon="3.09244">
        <ele>1030.7</ele>
        <time>2022-07-31T13:05:01Z</time>
      </trkpt>
      <trkpt lat="44.81388" lon="3.09241">
        <ele>1031.1</ele>
        <time>2022-07-31T13:05:07Z</time>
      </trkpt>
      <trkpt lat="44.81392" lon="3.09236">
        <ele>1030.7</ele>
        <time>2022-07-31T13:05:12Z</time>
      </trkpt>
      <trkpt lat="44.81397" lon="3.09232">
        <ele>1030.1</ele>
        <time>2022-07-31T13:05:18Z</time>
      </trkpt>
      <trkpt lat="44.81402" lon="3.09223">
        <ele>1029.6</ele>
        <time>2022-07-31T13:05:25Z</time>
      </trkpt>
      <trkpt lat="44.81407" lon="3.0922">
        <ele>1029.1</ele>
        <time>2022-07-31T13:05:29Z</time>
      </trkpt>
      <trkpt lat="44.8141" lon="3.09216">
        <ele>1028.8</ele>
        <time>2022-07-31T13:05:33Z</time>
      </trkpt>
      <trkpt lat="44.81411" lon="3.09215">
        <ele>1028.6</ele>
        <time>2022-07-31T13:05:34Z</time>
      </trkpt>
      <trkpt lat="44.81415" lon="3.09213">
        <ele>1028.2</ele>
        <time>2022-07-31T13:05:38Z</time>
      </trkpt>
      <trkpt lat="44.81424" lon="3.09211">
        <ele>1027.5</ele>
        <time>2022-07-31T13:05:46Z</time>
      </trkpt>
      <trkpt lat="44.81429" lon="3.09208">
        <ele>1027.1</ele>
        <time>2022-07-31T13:05:50Z</time>
      </trkpt>
      <trkpt lat="44.81433" lon="3.09205">
        <ele>1026.8</ele>
        <time>2022-07-31T13:05:54Z</time>
      </trkpt>
      <trkpt lat="44.81435" lon="3.09203">
        <ele>1026.7</ele>
        <time>2022-07-31T13:05:56Z</time>
      </trkpt>
      <trkpt lat="44.81437" lon="3.092">
        <ele>1026.5</ele>
        <time>2022-07-31T13:05:59Z</time>
      </trkpt>
      <trkpt lat="44.81438" lon="3.09199">
        <ele>1026.5</ele>
        <time>2022-07-31T13:06:00Z</time>
      </trkpt>
      <trkpt lat="44.81439" lon="3.09199">
        <ele>1026.4</ele>
        <time>2022-07-31T13:06:02Z</time>
      </trkpt>
      <trkpt lat="44.8144" lon="3.09198">
        <ele>1026.3</ele>
        <time>2022-07-31T13:06:04Z</time>
      </trkpt>
      <trkpt lat="44.8145" lon="3.0919">
        <ele>1025.6</ele>
        <time>2022-07-31T13:06:14Z</time>
      </trkpt>
      <trkpt lat="44.81452" lon="3.09189">
        <ele>1025.5</ele>
        <time>2022-07-31T13:06:18Z</time>
      </trkpt>
      <trkpt lat="44.81451" lon="3.09189">
        <ele>1025.6</ele>
        <time>2022-07-31T13:06:20Z</time>
      </trkpt>
      <trkpt lat="44.81454" lon="3.0919">
        <ele>1025.4</ele>
        <time>2022-07-31T13:06:26Z</time>
      </trkpt>
      <trkpt lat="44.81454" lon="3.0919">
        <ele>1025.4</ele>
        <time>2022-07-31T13:06:31Z</time>
      </trkpt>
      <trkpt lat="44.81454" lon="3.09189">
        <ele>1025.4</ele>
        <time>2022-07-31T13:06:48Z</time>
      </trkpt>
      <trkpt lat="44.81455" lon="3.09189">
        <ele>1025.3</ele>
        <time>2022-07-31T13:06:53Z</time>
      </trkpt>
      <trkpt lat="44.81455" lon="3.0919">
        <ele>1025.3</ele>
        <time>2022-07-31T13:07:55Z</time>
      </trkpt>
      <trkpt lat="44.81459" lon="3.09185">
        <ele>1025.2</ele>
        <time>2022-07-31T13:08:05Z</time>
      </trkpt>
      <trkpt lat="44.81469" lon="3.09171">
        <ele>1025</ele>
        <time>2022-07-31T13:08:14Z</time>
      </trkpt>
      <trkpt lat="44.81477" lon="3.09158">
        <ele>1024.8</ele>
        <time>2022-07-31T13:08:23Z</time>
      </trkpt>
      <trkpt lat="44.81484" lon="3.09143">
        <ele>1024.6</ele>
        <time>2022-07-31T13:08:33Z</time>
      </trkpt>
      <trkpt lat="44.81484" lon="3.09139">
        <ele>1024.6</ele>
        <time>2022-07-31T13:08:35Z</time>
      </trkpt>
      <trkpt lat="44.81485" lon="3.09135">
        <ele>1024.4</ele>
        <time>2022-07-31T13:08:36Z</time>
      </trkpt>
      <trkpt lat="44.81486" lon="3.0913">
        <ele>1024.2</ele>
        <time>2022-07-31T13:08:40Z</time>
      </trkpt>
      <trkpt lat="44.81487" lon="3.09119">
        <ele>1023.8</ele>
        <time>2022-07-31T13:08:46Z</time>
      </trkpt>
      <trkpt lat="44.81489" lon="3.09107">
        <ele>1023.2</ele>
        <time>2022-07-31T13:08:53Z</time>
      </trkpt>
      <trkpt lat="44.8149" lon="3.09097">
        <ele>1022.9</ele>
        <time>2022-07-31T13:08:58Z</time>
      </trkpt>
      <trkpt lat="44.8149" lon="3.09092">
        <ele>1022.6</ele>
        <time>2022-07-31T13:09:01Z</time>
      </trkpt>
      <trkpt lat="44.81491" lon="3.09084">
        <ele>1022.3</ele>
        <time>2022-07-31T13:09:05Z</time>
      </trkpt>
      <trkpt lat="44.81493" lon="3.09079">
        <ele>1021.8</ele>
        <time>2022-07-31T13:09:08Z</time>
      </trkpt>
      <trkpt lat="44.81496" lon="3.09072">
        <ele>1020.9</ele>
        <time>2022-07-31T13:09:12Z</time>
      </trkpt>
      <trkpt lat="44.815" lon="3.09065">
        <ele>1020.1</ele>
        <time>2022-07-31T13:09:16Z</time>
      </trkpt>
      <trkpt lat="44.81501" lon="3.09064">
        <ele>1019.9</ele>
        <time>2022-07-31T13:09:17Z</time>
      </trkpt>
      <trkpt lat="44.81507" lon="3.09057">
        <ele>1018.9</ele>
        <time>2022-07-31T13:09:22Z</time>
      </trkpt>
      <trkpt lat="44.81509" lon="3.09054">
        <ele>1018.5</ele>
        <time>2022-07-31T13:09:24Z</time>
      </trkpt>
      <trkpt lat="44.81512" lon="3.0905">
        <ele>1017.8</ele>
        <time>2022-07-31T13:09:27Z</time>
      </trkpt>
      <trkpt lat="44.81514" lon="3.0905">
        <ele>1017.6</ele>
        <time>2022-07-31T13:09:29Z</time>
      </trkpt>
      <trkpt lat="44.81521" lon="3.09046">
        <ele>1016.9</ele>
        <time>2022-07-31T13:09:35Z</time>
      </trkpt>
      <trkpt lat="44.81523" lon="3.09046">
        <ele>1016.8</ele>
        <time>2022-07-31T13:09:36Z</time>
      </trkpt>
      <trkpt lat="44.81524" lon="3.09045">
        <ele>1016.6</ele>
        <time>2022-07-31T13:09:37Z</time>
      </trkpt>
      <trkpt lat="44.81533" lon="3.09042">
        <ele>1016</ele>
        <time>2022-07-31T13:09:44Z</time>
      </trkpt>
      <trkpt lat="44.81534" lon="3.09042">
        <ele>1016</ele>
        <time>2022-07-31T13:09:45Z</time>
      </trkpt>
      <trkpt lat="44.81544" lon="3.09036">
        <ele>1015.2</ele>
        <time>2022-07-31T13:09:52Z</time>
      </trkpt>
      <trkpt lat="44.81552" lon="3.09031">
        <ele>1014.4</ele>
        <time>2022-07-31T13:09:58Z</time>
      </trkpt>
      <trkpt lat="44.81553" lon="3.0903">
        <ele>1014.4</ele>
        <time>2022-07-31T13:09:59Z</time>
      </trkpt>
      <trkpt lat="44.81565" lon="3.09027">
        <ele>1013.5</ele>
        <time>2022-07-31T13:10:07Z</time>
      </trkpt>
      <trkpt lat="44.81569" lon="3.09028">
        <ele>1013.5</ele>
        <time>2022-07-31T13:10:10Z</time>
      </trkpt>
      <trkpt lat="44.81573" lon="3.09028">
        <ele>1013.3</ele>
        <time>2022-07-31T13:10:13Z</time>
      </trkpt>
      <trkpt lat="44.81577" lon="3.09027">
        <ele>1013.1</ele>
        <time>2022-07-31T13:10:16Z</time>
      </trkpt>
      <trkpt lat="44.81583" lon="3.09028">
        <ele>1013.1</ele>
        <time>2022-07-31T13:10:19Z</time>
      </trkpt>
      <trkpt lat="44.81584" lon="3.09028">
        <ele>1013</ele>
        <time>2022-07-31T13:10:20Z</time>
      </trkpt>
      <trkpt lat="44.81594" lon="3.09026">
        <ele>1012.4</ele>
        <time>2022-07-31T13:10:27Z</time>
      </trkpt>
      <trkpt lat="44.81595" lon="3.09025">
        <ele>1012.3</ele>
        <time>2022-07-31T13:10:28Z</time>
      </trkpt>
      <trkpt lat="44.81596" lon="3.09026">
        <ele>1012.3</ele>
        <time>2022-07-31T13:10:29Z</time>
      </trkpt>
      <trkpt lat="44.816" lon="3.09026">
        <ele>1012.2</ele>
        <time>2022-07-31T13:10:32Z</time>
      </trkpt>
      <trkpt lat="44.81613" lon="3.09022">
        <ele>1011.6</ele>
        <time>2022-07-31T13:10:40Z</time>
      </trkpt>
      <trkpt lat="44.81614" lon="3.09021">
        <ele>1011.5</ele>
        <time>2022-07-31T13:10:41Z</time>
      </trkpt>
      <trkpt lat="44.81618" lon="3.09018">
        <ele>1011.3</ele>
        <time>2022-07-31T13:10:44Z</time>
      </trkpt>
      <trkpt lat="44.81621" lon="3.09016">
        <ele>1011.1</ele>
        <time>2022-07-31T13:10:47Z</time>
      </trkpt>
      <trkpt lat="44.81624" lon="3.09015">
        <ele>1011.1</ele>
        <time>2022-07-31T13:10:49Z</time>
      </trkpt>
      <trkpt lat="44.81629" lon="3.09012">
        <ele>1010.9</ele>
        <time>2022-07-31T13:10:53Z</time>
      </trkpt>
      <trkpt lat="44.81636" lon="3.09007">
        <ele>1010.5</ele>
        <time>2022-07-31T13:10:59Z</time>
      </trkpt>
      <trkpt lat="44.81638" lon="3.09005">
        <ele>1010.3</ele>
        <time>2022-07-31T13:11:01Z</time>
      </trkpt>
      <trkpt lat="44.81649" lon="3.09003">
        <ele>1010.2</ele>
        <time>2022-07-31T13:11:08Z</time>
      </trkpt>
      <trkpt lat="44.81651" lon="3.09002">
        <ele>1010.1</ele>
        <time>2022-07-31T13:11:09Z</time>
      </trkpt>
      <trkpt lat="44.81654" lon="3.09001">
        <ele>1010.1</ele>
        <time>2022-07-31T13:11:11Z</time>
      </trkpt>
      <trkpt lat="44.81658" lon="3.09">
        <ele>1010</ele>
        <time>2022-07-31T13:11:14Z</time>
      </trkpt>
      <trkpt lat="44.81664" lon="3.08999">
        <ele>1010</ele>
        <time>2022-07-31T13:11:18Z</time>
      </trkpt>
      <trkpt lat="44.81667" lon="3.09001">
        <ele>1010</ele>
        <time>2022-07-31T13:11:20Z</time>
      </trkpt>
      <trkpt lat="44.81682" lon="3.09008">
        <ele>1009.7</ele>
        <time>2022-07-31T13:11:30Z</time>
      </trkpt>
      <trkpt lat="44.81691" lon="3.09016">
        <ele>1009.7</ele>
        <time>2022-07-31T13:11:37Z</time>
      </trkpt>
      <trkpt lat="44.81702" lon="3.09022">
        <ele>1009.1</ele>
        <time>2022-07-31T13:11:44Z</time>
      </trkpt>
      <trkpt lat="44.81706" lon="3.09023">
        <ele>1008.7</ele>
        <time>2022-07-31T13:11:47Z</time>
      </trkpt>
      <trkpt lat="44.81711" lon="3.09023">
        <ele>1008.3</ele>
        <time>2022-07-31T13:11:50Z</time>
      </trkpt>
      <trkpt lat="44.81712" lon="3.09023">
        <ele>1008.1</ele>
        <time>2022-07-31T13:11:51Z</time>
      </trkpt>
      <trkpt lat="44.81721" lon="3.09024">
        <ele>1007.3</ele>
        <time>2022-07-31T13:11:57Z</time>
      </trkpt>
      <trkpt lat="44.81722" lon="3.09024">
        <ele>1007.2</ele>
        <time>2022-07-31T13:11:58Z</time>
      </trkpt>
      <trkpt lat="44.81731" lon="3.09022">
        <ele>1006.2</ele>
        <time>2022-07-31T13:12:04Z</time>
      </trkpt>
      <trkpt lat="44.81733" lon="3.09022">
        <ele>1006.1</ele>
        <time>2022-07-31T13:12:05Z</time>
      </trkpt>
      <trkpt lat="44.81739" lon="3.09021">
        <ele>1005.5</ele>
        <time>2022-07-31T13:12:10Z</time>
      </trkpt>
      <trkpt lat="44.8174" lon="3.0902">
        <ele>1005.4</ele>
        <time>2022-07-31T13:12:11Z</time>
      </trkpt>
      <trkpt lat="44.81745" lon="3.09018">
        <ele>1004.9</ele>
        <time>2022-07-31T13:12:15Z</time>
      </trkpt>
      <trkpt lat="44.81751" lon="3.09016">
        <ele>1004.3</ele>
        <time>2022-07-31T13:12:19Z</time>
      </trkpt>
      <trkpt lat="44.81757" lon="3.09013">
        <ele>1003.3</ele>
        <time>2022-07-31T13:12:26Z</time>
      </trkpt>
      <trkpt lat="44.81758" lon="3.09013">
        <ele>1003.3</ele>
        <time>2022-07-31T13:12:27Z</time>
      </trkpt>
      <trkpt lat="44.81767" lon="3.09007">
        <ele>1002.1</ele>
        <time>2022-07-31T13:12:35Z</time>
      </trkpt>
      <trkpt lat="44.81769" lon="3.09005">
        <ele>1002</ele>
        <time>2022-07-31T13:12:36Z</time>
      </trkpt>
      <trkpt lat="44.8177" lon="3.09005">
        <ele>1001.8</ele>
        <time>2022-07-31T13:12:38Z</time>
      </trkpt>
      <trkpt lat="44.81774" lon="3.09004">
        <ele>1001.3</ele>
        <time>2022-07-31T13:12:41Z</time>
      </trkpt>
      <trkpt lat="44.81775" lon="3.09004">
        <ele>1001.1</ele>
        <time>2022-07-31T13:12:42Z</time>
      </trkpt>
      <trkpt lat="44.81776" lon="3.09003">
        <ele>1001</ele>
        <time>2022-07-31T13:12:43Z</time>
      </trkpt>
      <trkpt lat="44.81783" lon="3.08997">
        <ele>1000.7</ele>
        <time>2022-07-31T13:12:49Z</time>
      </trkpt>
      <trkpt lat="44.81783" lon="3.08996">
        <ele>1000.7</ele>
        <time>2022-07-31T13:12:50Z</time>
      </trkpt>
      <trkpt lat="44.81794" lon="3.08989">
        <ele>999.7</ele>
        <time>2022-07-31T13:12:59Z</time>
      </trkpt>
      <trkpt lat="44.81803" lon="3.08979">
        <ele>998.4</ele>
        <time>2022-07-31T13:13:08Z</time>
      </trkpt>
      <trkpt lat="44.81806" lon="3.08974">
        <ele>997.9</ele>
        <time>2022-07-31T13:13:12Z</time>
      </trkpt>
      <trkpt lat="44.81809" lon="3.08972">
        <ele>997.6</ele>
        <time>2022-07-31T13:13:15Z</time>
      </trkpt>
      <trkpt lat="44.81811" lon="3.0897">
        <ele>997.3</ele>
        <time>2022-07-31T13:13:17Z</time>
      </trkpt>
      <trkpt lat="44.8182" lon="3.08963">
        <ele>996.3</ele>
        <time>2022-07-31T13:13:24Z</time>
      </trkpt>
      <trkpt lat="44.81821" lon="3.08961">
        <ele>996.1</ele>
        <time>2022-07-31T13:13:26Z</time>
      </trkpt>
      <trkpt lat="44.81823" lon="3.08961">
        <ele>995.9</ele>
        <time>2022-07-31T13:13:27Z</time>
      </trkpt>
      <trkpt lat="44.81827" lon="3.08958">
        <ele>995.1</ele>
        <time>2022-07-31T13:13:31Z</time>
      </trkpt>
      <trkpt lat="44.81828" lon="3.08957">
        <ele>995</ele>
        <time>2022-07-31T13:13:32Z</time>
      </trkpt>
      <trkpt lat="44.81829" lon="3.08956">
        <ele>994.8</ele>
        <time>2022-07-31T13:13:33Z</time>
      </trkpt>
      <trkpt lat="44.81833" lon="3.08953">
        <ele>994.1</ele>
        <time>2022-07-31T13:13:37Z</time>
      </trkpt>
      <trkpt lat="44.81839" lon="3.08945">
        <ele>993.1</ele>
        <time>2022-07-31T13:13:44Z</time>
      </trkpt>
      <trkpt lat="44.81841" lon="3.08943">
        <ele>992.9</ele>
        <time>2022-07-31T13:13:46Z</time>
      </trkpt>
      <trkpt lat="44.81842" lon="3.08942">
        <ele>992.8</ele>
        <time>2022-07-31T13:13:47Z</time>
      </trkpt>
      <trkpt lat="44.81843" lon="3.08941">
        <ele>992.7</ele>
        <time>2022-07-31T13:13:51Z</time>
      </trkpt>
      <trkpt lat="44.81845" lon="3.08936">
        <ele>992.3</ele>
        <time>2022-07-31T13:13:57Z</time>
      </trkpt>
      <trkpt lat="44.81851" lon="3.0893">
        <ele>991.4</ele>
        <time>2022-07-31T13:14:03Z</time>
      </trkpt>
      <trkpt lat="44.81854" lon="3.08926">
        <ele>991</ele>
        <time>2022-07-31T13:14:06Z</time>
      </trkpt>
      <trkpt lat="44.81859" lon="3.08922">
        <ele>990.3</ele>
        <time>2022-07-31T13:14:11Z</time>
      </trkpt>
      <trkpt lat="44.81863" lon="3.08918">
        <ele>989.8</ele>
        <time>2022-07-31T13:14:15Z</time>
      </trkpt>
      <trkpt lat="44.81865" lon="3.08914">
        <ele>989.6</ele>
        <time>2022-07-31T13:14:18Z</time>
      </trkpt>
      <trkpt lat="44.81868" lon="3.08912">
        <ele>989.3</ele>
        <time>2022-07-31T13:14:20Z</time>
      </trkpt>
      <trkpt lat="44.81869" lon="3.08912">
        <ele>989.1</ele>
        <time>2022-07-31T13:14:21Z</time>
      </trkpt>
      <trkpt lat="44.81871" lon="3.08909">
        <ele>989</ele>
        <time>2022-07-31T13:14:23Z</time>
      </trkpt>
      <trkpt lat="44.81876" lon="3.08904">
        <ele>988.4</ele>
        <time>2022-07-31T13:14:28Z</time>
      </trkpt>
      <trkpt lat="44.81878" lon="3.08898">
        <ele>988.2</ele>
        <time>2022-07-31T13:14:31Z</time>
      </trkpt>
      <trkpt lat="44.81881" lon="3.08894">
        <ele>987.9</ele>
        <time>2022-07-31T13:14:34Z</time>
      </trkpt>
      <trkpt lat="44.81889" lon="3.08884">
        <ele>987.1</ele>
        <time>2022-07-31T13:14:42Z</time>
      </trkpt>
      <trkpt lat="44.81898" lon="3.08871">
        <ele>986.7</ele>
        <time>2022-07-31T13:14:51Z</time>
      </trkpt>
      <trkpt lat="44.81901" lon="3.08867">
        <ele>986.5</ele>
        <time>2022-07-31T13:14:55Z</time>
      </trkpt>
      <trkpt lat="44.81904" lon="3.08864">
        <ele>986.3</ele>
        <time>2022-07-31T13:14:58Z</time>
      </trkpt>
      <trkpt lat="44.81906" lon="3.08862">
        <ele>986.1</ele>
        <time>2022-07-31T13:15:00Z</time>
      </trkpt>
      <trkpt lat="44.81911" lon="3.08857">
        <ele>985.7</ele>
        <time>2022-07-31T13:15:05Z</time>
      </trkpt>
      <trkpt lat="44.81916" lon="3.08854">
        <ele>985.3</ele>
        <time>2022-07-31T13:15:09Z</time>
      </trkpt>
      <trkpt lat="44.81918" lon="3.08853">
        <ele>985.1</ele>
        <time>2022-07-31T13:15:11Z</time>
      </trkpt>
      <trkpt lat="44.81919" lon="3.08851">
        <ele>985.1</ele>
        <time>2022-07-31T13:15:12Z</time>
      </trkpt>
      <trkpt lat="44.81927" lon="3.08848">
        <ele>984.3</ele>
        <time>2022-07-31T13:15:18Z</time>
      </trkpt>
      <trkpt lat="44.8193" lon="3.08847">
        <ele>984.1</ele>
        <time>2022-07-31T13:15:20Z</time>
      </trkpt>
      <trkpt lat="44.81936" lon="3.08843">
        <ele>983.6</ele>
        <time>2022-07-31T13:15:26Z</time>
      </trkpt>
      <trkpt lat="44.81937" lon="3.08841">
        <ele>983.5</ele>
        <time>2022-07-31T13:15:28Z</time>
      </trkpt>
      <trkpt lat="44.81946" lon="3.08837">
        <ele>982.7</ele>
        <time>2022-07-31T13:15:35Z</time>
      </trkpt>
      <trkpt lat="44.81949" lon="3.08836">
        <ele>982.6</ele>
        <time>2022-07-31T13:15:37Z</time>
      </trkpt>
      <trkpt lat="44.81957" lon="3.08834">
        <ele>982.1</ele>
        <time>2022-07-31T13:15:43Z</time>
      </trkpt>
      <trkpt lat="44.81966" lon="3.08828">
        <ele>981.5</ele>
        <time>2022-07-31T13:15:51Z</time>
      </trkpt>
      <trkpt lat="44.81967" lon="3.08827">
        <ele>981.5</ele>
        <time>2022-07-31T13:15:52Z</time>
      </trkpt>
      <trkpt lat="44.81968" lon="3.08826">
        <ele>981.4</ele>
        <time>2022-07-31T13:15:53Z</time>
      </trkpt>
      <trkpt lat="44.81972" lon="3.08823">
        <ele>981</ele>
        <time>2022-07-31T13:15:57Z</time>
      </trkpt>
      <trkpt lat="44.81976" lon="3.0882">
        <ele>980.7</ele>
        <time>2022-07-31T13:16:00Z</time>
      </trkpt>
      <trkpt lat="44.81983" lon="3.08816">
        <ele>980</ele>
        <time>2022-07-31T13:16:06Z</time>
      </trkpt>
      <trkpt lat="44.81987" lon="3.08814">
        <ele>979.6</ele>
        <time>2022-07-31T13:16:09Z</time>
      </trkpt>
      <trkpt lat="44.81988" lon="3.08813">
        <ele>979.5</ele>
        <time>2022-07-31T13:16:10Z</time>
      </trkpt>
      <trkpt lat="44.81991" lon="3.0881">
        <ele>979.1</ele>
        <time>2022-07-31T13:16:13Z</time>
      </trkpt>
      <trkpt lat="44.81997" lon="3.08803">
        <ele>978.4</ele>
        <time>2022-07-31T13:16:19Z</time>
      </trkpt>
      <trkpt lat="44.81999" lon="3.088">
        <ele>978.3</ele>
        <time>2022-07-31T13:16:21Z</time>
      </trkpt>
      <trkpt lat="44.82007" lon="3.08794">
        <ele>977.5</ele>
        <time>2022-07-31T13:16:28Z</time>
      </trkpt>
      <trkpt lat="44.82012" lon="3.08793">
        <ele>977</ele>
        <time>2022-07-31T13:16:32Z</time>
      </trkpt>
      <trkpt lat="44.82016" lon="3.08796">
        <ele>976.4</ele>
        <time>2022-07-31T13:16:35Z</time>
      </trkpt>
      <trkpt lat="44.82018" lon="3.08797">
        <ele>976.2</ele>
        <time>2022-07-31T13:16:39Z</time>
      </trkpt>
      <trkpt lat="44.82018" lon="3.08796">
        <ele>976.2</ele>
        <time>2022-07-31T13:16:41Z</time>
      </trkpt>
      <trkpt lat="44.82017" lon="3.08797">
        <ele>976.3</ele>
        <time>2022-07-31T13:16:48Z</time>
      </trkpt>
      <trkpt lat="44.82017" lon="3.08797">
        <ele>976.3</ele>
        <time>2022-07-31T13:16:49Z</time>
      </trkpt>
      <trkpt lat="44.82022" lon="3.08799">
        <ele>975.6</ele>
        <time>2022-07-31T13:16:59Z</time>
      </trkpt>
      <trkpt lat="44.82032" lon="3.08806">
        <ele>974.7</ele>
        <time>2022-07-31T13:17:07Z</time>
      </trkpt>
      <trkpt lat="44.82039" lon="3.08812">
        <ele>974.3</ele>
        <time>2022-07-31T13:17:13Z</time>
      </trkpt>
      <trkpt lat="44.82044" lon="3.08816">
        <ele>974</ele>
        <time>2022-07-31T13:17:17Z</time>
      </trkpt>
      <trkpt lat="44.82047" lon="3.08819">
        <ele>973.7</ele>
        <time>2022-07-31T13:17:20Z</time>
      </trkpt>
      <trkpt lat="44.82053" lon="3.08826">
        <ele>973.2</ele>
        <time>2022-07-31T13:17:26Z</time>
      </trkpt>
      <trkpt lat="44.82062" lon="3.08834">
        <ele>972.5</ele>
        <time>2022-07-31T13:17:33Z</time>
      </trkpt>
      <trkpt lat="44.82068" lon="3.08839">
        <ele>972.1</ele>
        <time>2022-07-31T13:17:38Z</time>
      </trkpt>
      <trkpt lat="44.82075" lon="3.08845">
        <ele>971.6</ele>
        <time>2022-07-31T13:17:47Z</time>
      </trkpt>
      <trkpt lat="44.8208" lon="3.08847">
        <ele>971.3</ele>
        <time>2022-07-31T13:17:51Z</time>
      </trkpt>
      <trkpt lat="44.82088" lon="3.08848">
        <ele>970.7</ele>
        <time>2022-07-31T13:17:58Z</time>
      </trkpt>
      <trkpt lat="44.82095" lon="3.08847">
        <ele>970.1</ele>
        <time>2022-07-31T13:18:04Z</time>
      </trkpt>
      <trkpt lat="44.82098" lon="3.08846">
        <ele>969.9</ele>
        <time>2022-07-31T13:18:07Z</time>
      </trkpt>
      <trkpt lat="44.82102" lon="3.08845">
        <ele>969.6</ele>
        <time>2022-07-31T13:18:10Z</time>
      </trkpt>
      <trkpt lat="44.82109" lon="3.08845">
        <ele>969.2</ele>
        <time>2022-07-31T13:18:15Z</time>
      </trkpt>
      <trkpt lat="44.82119" lon="3.08843">
        <ele>968.4</ele>
        <time>2022-07-31T13:18:23Z</time>
      </trkpt>
      <trkpt lat="44.82128" lon="3.08842">
        <ele>967.8</ele>
        <time>2022-07-31T13:18:30Z</time>
      </trkpt>
      <trkpt lat="44.82137" lon="3.0884">
        <ele>967.2</ele>
        <time>2022-07-31T13:18:36Z</time>
      </trkpt>
      <trkpt lat="44.82138" lon="3.08839">
        <ele>967.1</ele>
        <time>2022-07-31T13:18:38Z</time>
      </trkpt>
      <trkpt lat="44.82154" lon="3.08837">
        <ele>965.8</ele>
        <time>2022-07-31T13:18:50Z</time>
      </trkpt>
      <trkpt lat="44.82158" lon="3.08838">
        <ele>965.4</ele>
        <time>2022-07-31T13:18:53Z</time>
      </trkpt>
      <trkpt lat="44.8217" lon="3.08838">
        <ele>964.5</ele>
        <time>2022-07-31T13:19:02Z</time>
      </trkpt>
      <trkpt lat="44.8218" lon="3.08836">
        <ele>964.4</ele>
        <time>2022-07-31T13:19:10Z</time>
      </trkpt>
      <trkpt lat="44.82181" lon="3.08836">
        <ele>964.4</ele>
        <time>2022-07-31T13:19:13Z</time>
      </trkpt>
      <trkpt lat="44.82181" lon="3.08836">
        <ele>964.4</ele>
        <time>2022-07-31T13:19:14Z</time>
      </trkpt>
      <trkpt lat="44.82187" lon="3.08834">
        <ele>964.3</ele>
        <time>2022-07-31T13:19:21Z</time>
      </trkpt>
      <trkpt lat="44.82196" lon="3.08832">
        <ele>964</ele>
        <time>2022-07-31T13:19:28Z</time>
      </trkpt>
      <trkpt lat="44.82197" lon="3.08832">
        <ele>963.9</ele>
        <time>2022-07-31T13:19:29Z</time>
      </trkpt>
      <trkpt lat="44.82207" lon="3.08832">
        <ele>963.6</ele>
        <time>2022-07-31T13:19:37Z</time>
      </trkpt>
      <trkpt lat="44.82219" lon="3.08827">
        <ele>963.1</ele>
        <time>2022-07-31T13:19:47Z</time>
      </trkpt>
      <trkpt lat="44.82229" lon="3.08828">
        <ele>962.6</ele>
        <time>2022-07-31T13:19:56Z</time>
      </trkpt>
      <trkpt lat="44.8224" lon="3.08825">
        <ele>961.9</ele>
        <time>2022-07-31T13:20:05Z</time>
      </trkpt>
      <trkpt lat="44.82243" lon="3.08824">
        <ele>961.7</ele>
        <time>2022-07-31T13:20:08Z</time>
      </trkpt>
      <trkpt lat="44.82244" lon="3.08825">
        <ele>961.7</ele>
        <time>2022-07-31T13:20:10Z</time>
      </trkpt>
      <trkpt lat="44.82244" lon="3.08825">
        <ele>961.7</ele>
        <time>2022-07-31T13:20:11Z</time>
      </trkpt>
      <trkpt lat="44.82248" lon="3.08822">
        <ele>961.5</ele>
        <time>2022-07-31T13:20:19Z</time>
      </trkpt>
      <trkpt lat="44.82256" lon="3.08819">
        <ele>961.3</ele>
        <time>2022-07-31T13:20:26Z</time>
      </trkpt>
      <trkpt lat="44.8227" lon="3.08815">
        <ele>960.9</ele>
        <time>2022-07-31T13:20:37Z</time>
      </trkpt>
      <trkpt lat="44.82278" lon="3.08812">
        <ele>960.7</ele>
        <time>2022-07-31T13:20:44Z</time>
      </trkpt>
      <trkpt lat="44.82289" lon="3.0881">
        <ele>960.5</ele>
        <time>2022-07-31T13:20:52Z</time>
      </trkpt>
      <trkpt lat="44.82299" lon="3.08809">
        <ele>960.2</ele>
        <time>2022-07-31T13:21:00Z</time>
      </trkpt>
      <trkpt lat="44.82301" lon="3.08809">
        <ele>960.2</ele>
        <time>2022-07-31T13:21:01Z</time>
      </trkpt>
      <trkpt lat="44.82308" lon="3.08808">
        <ele>960</ele>
        <time>2022-07-31T13:21:07Z</time>
      </trkpt>
      <trkpt lat="44.82318" lon="3.08808">
        <ele>960</ele>
        <time>2022-07-31T13:21:14Z</time>
      </trkpt>
      <trkpt lat="44.82329" lon="3.08809">
        <ele>959.9</ele>
        <time>2022-07-31T13:21:23Z</time>
      </trkpt>
      <trkpt lat="44.82337" lon="3.0881">
        <ele>959.7</ele>
        <time>2022-07-31T13:21:31Z</time>
      </trkpt>
      <trkpt lat="44.82338" lon="3.0881">
        <ele>959.7</ele>
        <time>2022-07-31T13:21:33Z</time>
      </trkpt>
      <trkpt lat="44.8234" lon="3.0881">
        <ele>959.7</ele>
        <time>2022-07-31T13:21:36Z</time>
      </trkpt>
      <trkpt lat="44.82341" lon="3.0881">
        <ele>959.6</ele>
        <time>2022-07-31T13:21:38Z</time>
      </trkpt>
      <trkpt lat="44.82344" lon="3.0881">
        <ele>959.5</ele>
        <time>2022-07-31T13:21:41Z</time>
      </trkpt>
      <trkpt lat="44.82348" lon="3.08809">
        <ele>959.4</ele>
        <time>2022-07-31T13:21:44Z</time>
      </trkpt>
      <trkpt lat="44.82357" lon="3.08809">
        <ele>959.1</ele>
        <time>2022-07-31T13:21:52Z</time>
      </trkpt>
      <trkpt lat="44.82366" lon="3.08809">
        <ele>958.6</ele>
        <time>2022-07-31T13:22:00Z</time>
      </trkpt>
      <trkpt lat="44.82373" lon="3.08809">
        <ele>958.1</ele>
        <time>2022-07-31T13:22:06Z</time>
      </trkpt>
      <trkpt lat="44.82378" lon="3.08809">
        <ele>957.7</ele>
        <time>2022-07-31T13:22:11Z</time>
      </trkpt>
      <trkpt lat="44.82389" lon="3.08812">
        <ele>956.7</ele>
        <time>2022-07-31T13:22:19Z</time>
      </trkpt>
      <trkpt lat="44.8239" lon="3.08813">
        <ele>956.6</ele>
        <time>2022-07-31T13:22:20Z</time>
      </trkpt>
      <trkpt lat="44.82395" lon="3.08812">
        <ele>956.3</ele>
        <time>2022-07-31T13:22:24Z</time>
      </trkpt>
      <trkpt lat="44.824" lon="3.08813">
        <ele>955.9</ele>
        <time>2022-07-31T13:22:29Z</time>
      </trkpt>
      <trkpt lat="44.8241" lon="3.08813">
        <ele>955</ele>
        <time>2022-07-31T13:22:36Z</time>
      </trkpt>
      <trkpt lat="44.82413" lon="3.08814">
        <ele>954.7</ele>
        <time>2022-07-31T13:22:40Z</time>
      </trkpt>
      <trkpt lat="44.82418" lon="3.08814">
        <ele>954.3</ele>
        <time>2022-07-31T13:22:45Z</time>
      </trkpt>
      <trkpt lat="44.82419" lon="3.08814">
        <ele>954.3</ele>
        <time>2022-07-31T13:22:46Z</time>
      </trkpt>
      <trkpt lat="44.82428" lon="3.08817">
        <ele>953.5</ele>
        <time>2022-07-31T13:22:53Z</time>
      </trkpt>
      <trkpt lat="44.8243" lon="3.08818">
        <ele>953.4</ele>
        <time>2022-07-31T13:22:54Z</time>
      </trkpt>
      <trkpt lat="44.82441" lon="3.08821">
        <ele>952.6</ele>
        <time>2022-07-31T13:23:03Z</time>
      </trkpt>
      <trkpt lat="44.82443" lon="3.08822">
        <ele>952.5</ele>
        <time>2022-07-31T13:23:04Z</time>
      </trkpt>
      <trkpt lat="44.82452" lon="3.08825">
        <ele>951.5</ele>
        <time>2022-07-31T13:23:12Z</time>
      </trkpt>
      <trkpt lat="44.82453" lon="3.08826">
        <ele>951.3</ele>
        <time>2022-07-31T13:23:13Z</time>
      </trkpt>
      <trkpt lat="44.82459" lon="3.08829">
        <ele>950.6</ele>
        <time>2022-07-31T13:23:18Z</time>
      </trkpt>
      <trkpt lat="44.82461" lon="3.08831">
        <ele>950.3</ele>
        <time>2022-07-31T13:23:21Z</time>
      </trkpt>
      <trkpt lat="44.82462" lon="3.08832">
        <ele>950.2</ele>
        <time>2022-07-31T13:23:22Z</time>
      </trkpt>
      <trkpt lat="44.82462" lon="3.08832">
        <ele>950.1</ele>
        <time>2022-07-31T13:23:24Z</time>
      </trkpt>
      <trkpt lat="44.82463" lon="3.08833">
        <ele>950.1</ele>
        <time>2022-07-31T13:23:27Z</time>
      </trkpt>
      <trkpt lat="44.82463" lon="3.08831">
        <ele>950.1</ele>
        <time>2022-07-31T13:23:37Z</time>
      </trkpt>
      <trkpt lat="44.82465" lon="3.08825">
        <ele>950.1</ele>
        <time>2022-07-31T13:23:44Z</time>
      </trkpt>
      <trkpt lat="44.82465" lon="3.08825">
        <ele>950.1</ele>
        <time>2022-07-31T13:23:51Z</time>
      </trkpt>
      <trkpt lat="44.82468" lon="3.08817">
        <ele>950</ele>
        <time>2022-07-31T13:23:58Z</time>
      </trkpt>
      <trkpt lat="44.82474" lon="3.08805">
        <ele>950</ele>
        <time>2022-07-31T13:24:06Z</time>
      </trkpt>
      <trkpt lat="44.82476" lon="3.0879">
        <ele>949.4</ele>
        <time>2022-07-31T13:24:15Z</time>
      </trkpt>
      <trkpt lat="44.82478" lon="3.08775">
        <ele>948.8</ele>
        <time>2022-07-31T13:24:24Z</time>
      </trkpt>
      <trkpt lat="44.82479" lon="3.08771">
        <ele>948.5</ele>
        <time>2022-07-31T13:24:26Z</time>
      </trkpt>
      <trkpt lat="44.82478" lon="3.08761">
        <ele>947.6</ele>
        <time>2022-07-31T13:24:33Z</time>
      </trkpt>
      <trkpt lat="44.82478" lon="3.08758">
        <ele>947.3</ele>
        <time>2022-07-31T13:24:35Z</time>
      </trkpt>
      <trkpt lat="44.82478" lon="3.08754">
        <ele>947.1</ele>
        <time>2022-07-31T13:24:36Z</time>
      </trkpt>
      <trkpt lat="44.82478" lon="3.0874">
        <ele>946.1</ele>
        <time>2022-07-31T13:24:45Z</time>
      </trkpt>
      <trkpt lat="44.82477" lon="3.08734">
        <ele>945.8</ele>
        <time>2022-07-31T13:24:48Z</time>
      </trkpt>
      <trkpt lat="44.82477" lon="3.08723">
        <ele>945.2</ele>
        <time>2022-07-31T13:24:56Z</time>
      </trkpt>
      <trkpt lat="44.82477" lon="3.08723">
        <ele>945.2</ele>
        <time>2022-07-31T13:24:57Z</time>
      </trkpt>
      <trkpt lat="44.82477" lon="3.08719">
        <ele>945.5</ele>
        <time>2022-07-31T13:25:03Z</time>
      </trkpt>
      <trkpt lat="44.82478" lon="3.08712">
        <ele>945.3</ele>
        <time>2022-07-31T13:25:07Z</time>
      </trkpt>
      <trkpt lat="44.82482" lon="3.08698">
        <ele>944.8</ele>
        <time>2022-07-31T13:25:17Z</time>
      </trkpt>
      <trkpt lat="44.82482" lon="3.08699">
        <ele>944.7</ele>
        <time>2022-07-31T13:25:18Z</time>
      </trkpt>
      <trkpt lat="44.82481" lon="3.08699">
        <ele>944.9</ele>
        <time>2022-07-31T13:25:25Z</time>
      </trkpt>
      <trkpt lat="44.82484" lon="3.08692">
        <ele>944.5</ele>
        <time>2022-07-31T13:25:38Z</time>
      </trkpt>
      <trkpt lat="44.82489" lon="3.08682">
        <ele>944.1</ele>
        <time>2022-07-31T13:25:44Z</time>
      </trkpt>
      <trkpt lat="44.82492" lon="3.08677">
        <ele>943.9</ele>
        <time>2022-07-31T13:25:49Z</time>
      </trkpt>
      <trkpt lat="44.82493" lon="3.08677">
        <ele>943.6</ele>
        <time>2022-07-31T13:25:50Z</time>
      </trkpt>
      <trkpt lat="44.82499" lon="3.08676">
        <ele>941.8</ele>
        <time>2022-07-31T13:25:56Z</time>
      </trkpt>
      <trkpt lat="44.82505" lon="3.08674">
        <ele>940.4</ele>
        <time>2022-07-31T13:26:04Z</time>
      </trkpt>
      <trkpt lat="44.82506" lon="3.08673">
        <ele>940.2</ele>
        <time>2022-07-31T13:26:05Z</time>
      </trkpt>
      <trkpt lat="44.82509" lon="3.08671">
        <ele>939.6</ele>
        <time>2022-07-31T13:26:10Z</time>
      </trkpt>
      <trkpt lat="44.82509" lon="3.08671">
        <ele>939.6</ele>
        <time>2022-07-31T13:26:11Z</time>
      </trkpt>
      <trkpt lat="44.82509" lon="3.08671">
        <ele>939.5</ele>
        <time>2022-07-31T13:26:12Z</time>
      </trkpt>
      <trkpt lat="44.8251" lon="3.08671">
        <ele>939.5</ele>
        <time>2022-07-31T13:26:21Z</time>
      </trkpt>
      <trkpt lat="44.8251" lon="3.0867">
        <ele>939.5</ele>
        <time>2022-07-31T13:26:24Z</time>
      </trkpt>
      <trkpt lat="44.82512" lon="3.08668">
        <ele>939.3</ele>
        <time>2022-07-31T13:26:36Z</time>
      </trkpt>
      <trkpt lat="44.82515" lon="3.08667">
        <ele>938.7</ele>
        <time>2022-07-31T13:26:39Z</time>
      </trkpt>
      <trkpt lat="44.82518" lon="3.08664">
        <ele>937.8</ele>
        <time>2022-07-31T13:26:45Z</time>
      </trkpt>
      <trkpt lat="44.82518" lon="3.08665">
        <ele>937.7</ele>
        <time>2022-07-31T13:26:53Z</time>
      </trkpt>
      <trkpt lat="44.82518" lon="3.08666">
        <ele>937.5</ele>
        <time>2022-07-31T13:27:30Z</time>
      </trkpt>
      <trkpt lat="44.82519" lon="3.08665">
        <ele>937.4</ele>
        <time>2022-07-31T13:27:45Z</time>
      </trkpt>
      <trkpt lat="44.82519" lon="3.08667">
        <ele>937.1</ele>
        <time>2022-07-31T13:28:29Z</time>
      </trkpt>
      <trkpt lat="44.82521" lon="3.08659">
        <ele>937.2</ele>
        <time>2022-07-31T13:29:11Z</time>
      </trkpt>
      <trkpt lat="44.82523" lon="3.08655">
        <ele>937.1</ele>
        <time>2022-07-31T13:29:19Z</time>
      </trkpt>
      <trkpt lat="44.82523" lon="3.08654">
        <ele>937.1</ele>
        <time>2022-07-31T13:29:40Z</time>
      </trkpt>
      <trkpt lat="44.82527" lon="3.08656">
        <ele>935.5</ele>
        <time>2022-07-31T13:30:11Z</time>
      </trkpt>
      <trkpt lat="44.82525" lon="3.08655">
        <ele>936.4</ele>
        <time>2022-07-31T13:31:50Z</time>
      </trkpt>
      <trkpt lat="44.82525" lon="3.08655">
        <ele>936.4</ele>
        <time>2022-07-31T13:31:54Z</time>
      </trkpt>
      <trkpt lat="44.8252" lon="3.0866">
        <ele>937.5</ele>
        <time>2022-07-31T13:31:58Z</time>
      </trkpt>
      <trkpt lat="44.82508" lon="3.08671">
        <ele>940.2</ele>
        <time>2022-07-31T13:32:08Z</time>
      </trkpt>
      <trkpt lat="44.82503" lon="3.08677">
        <ele>940.4</ele>
        <time>2022-07-31T13:32:13Z</time>
      </trkpt>
      <trkpt lat="44.82499" lon="3.08682">
        <ele>940.6</ele>
        <time>2022-07-31T13:32:17Z</time>
      </trkpt>
      <trkpt lat="44.82491" lon="3.0869">
        <ele>941.6</ele>
        <time>2022-07-31T13:32:25Z</time>
      </trkpt>
      <trkpt lat="44.82485" lon="3.08704">
        <ele>942.8</ele>
        <time>2022-07-31T13:32:34Z</time>
      </trkpt>
      <trkpt lat="44.82485" lon="3.08705">
        <ele>943</ele>
        <time>2022-07-31T13:32:35Z</time>
      </trkpt>
      <trkpt lat="44.82483" lon="3.08717">
        <ele>943</ele>
        <time>2022-07-31T13:32:42Z</time>
      </trkpt>
      <trkpt lat="44.82482" lon="3.08724">
        <ele>943.2</ele>
        <time>2022-07-31T13:32:46Z</time>
      </trkpt>
      <trkpt lat="44.82481" lon="3.08738">
        <ele>944.9</ele>
        <time>2022-07-31T13:32:54Z</time>
      </trkpt>
      <trkpt lat="44.82482" lon="3.08743">
        <ele>945.2</ele>
        <time>2022-07-31T13:32:57Z</time>
      </trkpt>
      <trkpt lat="44.82482" lon="3.08754">
        <ele>946.2</ele>
        <time>2022-07-31T13:33:03Z</time>
      </trkpt>
      <trkpt lat="44.82483" lon="3.08761">
        <ele>947</ele>
        <time>2022-07-31T13:33:07Z</time>
      </trkpt>
      <trkpt lat="44.82483" lon="3.0877">
        <ele>948</ele>
        <time>2022-07-31T13:33:12Z</time>
      </trkpt>
      <trkpt lat="44.82483" lon="3.08773">
        <ele>948.5</ele>
        <time>2022-07-31T13:33:14Z</time>
      </trkpt>
      <trkpt lat="44.82483" lon="3.0878">
        <ele>949.1</ele>
        <time>2022-07-31T13:33:17Z</time>
      </trkpt>
      <trkpt lat="44.82483" lon="3.08781">
        <ele>949.1</ele>
        <time>2022-07-31T13:33:18Z</time>
      </trkpt>
      <trkpt lat="44.82483" lon="3.08795">
        <ele>949.6</ele>
        <time>2022-07-31T13:33:25Z</time>
      </trkpt>
      <trkpt lat="44.82482" lon="3.08802">
        <ele>949.9</ele>
        <time>2022-07-31T13:33:29Z</time>
      </trkpt>
      <trkpt lat="44.82482" lon="3.08806">
        <ele>950</ele>
        <time>2022-07-31T13:33:32Z</time>
      </trkpt>
      <trkpt lat="44.82481" lon="3.08808">
        <ele>950</ele>
        <time>2022-07-31T13:33:33Z</time>
      </trkpt>
      <trkpt lat="44.8248" lon="3.08815">
        <ele>949.9</ele>
        <time>2022-07-31T13:33:37Z</time>
      </trkpt>
      <trkpt lat="44.82479" lon="3.0882">
        <ele>949.7</ele>
        <time>2022-07-31T13:33:40Z</time>
      </trkpt>
      <trkpt lat="44.82477" lon="3.08823">
        <ele>949.6</ele>
        <time>2022-07-31T13:33:43Z</time>
      </trkpt>
      <trkpt lat="44.82477" lon="3.08824">
        <ele>949.6</ele>
        <time>2022-07-31T13:33:45Z</time>
      </trkpt>
      <trkpt lat="44.82477" lon="3.08825">
        <ele>949.5</ele>
        <time>2022-07-31T13:33:46Z</time>
      </trkpt>
      <trkpt lat="44.82477" lon="3.08825">
        <ele>949.5</ele>
        <time>2022-07-31T13:33:47Z</time>
      </trkpt>
      <trkpt lat="44.82472" lon="3.08837">
        <ele>949.1</ele>
        <time>2022-07-31T13:33:54Z</time>
      </trkpt>
      <trkpt lat="44.8247" lon="3.08844">
        <ele>949.5</ele>
        <time>2022-07-31T13:33:59Z</time>
      </trkpt>
      <trkpt lat="44.82466" lon="3.08852">
        <ele>949.7</ele>
        <time>2022-07-31T13:34:05Z</time>
      </trkpt>
      <trkpt lat="44.82454" lon="3.08867">
        <ele>949</ele>
        <time>2022-07-31T13:34:17Z</time>
      </trkpt>
      <trkpt lat="44.82445" lon="3.0888">
        <ele>947</ele>
        <time>2022-07-31T13:34:27Z</time>
      </trkpt>
      <trkpt lat="44.82438" lon="3.08891">
        <ele>945.4</ele>
        <time>2022-07-31T13:34:35Z</time>
      </trkpt>
      <trkpt lat="44.82436" lon="3.08896">
        <ele>944.8</ele>
        <time>2022-07-31T13:34:38Z</time>
      </trkpt>
      <trkpt lat="44.82426" lon="3.08916">
        <ele>944.8</ele>
        <time>2022-07-31T13:34:51Z</time>
      </trkpt>
      <trkpt lat="44.82419" lon="3.08931">
        <ele>946.4</ele>
        <time>2022-07-31T13:35:01Z</time>
      </trkpt>
      <trkpt lat="44.82416" lon="3.08941">
        <ele>947</ele>
        <time>2022-07-31T13:35:07Z</time>
      </trkpt>
      <trkpt lat="44.82413" lon="3.08953">
        <ele>946.6</ele>
        <time>2022-07-31T13:35:14Z</time>
      </trkpt>
      <trkpt lat="44.82411" lon="3.08967">
        <ele>946.3</ele>
        <time>2022-07-31T13:35:22Z</time>
      </trkpt>
      <trkpt lat="44.82406" lon="3.08988">
        <ele>946.9</ele>
        <time>2022-07-31T13:35:33Z</time>
      </trkpt>
      <trkpt lat="44.82406" lon="3.09">
        <ele>947.4</ele>
        <time>2022-07-31T13:35:40Z</time>
      </trkpt>
      <trkpt lat="44.82406" lon="3.09015">
        <ele>948.5</ele>
        <time>2022-07-31T13:35:48Z</time>
      </trkpt>
      <trkpt lat="44.82407" lon="3.09019">
        <ele>948.7</ele>
        <time>2022-07-31T13:35:50Z</time>
      </trkpt>
      <trkpt lat="44.82408" lon="3.09034">
        <ele>949.7</ele>
        <time>2022-07-31T13:35:58Z</time>
      </trkpt>
      <trkpt lat="44.82409" lon="3.09049">
        <ele>950.8</ele>
        <time>2022-07-31T13:36:06Z</time>
      </trkpt>
      <trkpt lat="44.82409" lon="3.0905">
        <ele>950.9</ele>
        <time>2022-07-31T13:36:07Z</time>
      </trkpt>
      <trkpt lat="44.82411" lon="3.09063">
        <ele>951.5</ele>
        <time>2022-07-31T13:36:14Z</time>
      </trkpt>
      <trkpt lat="44.8241" lon="3.09077">
        <ele>952</ele>
        <time>2022-07-31T13:36:22Z</time>
      </trkpt>
      <trkpt lat="44.8241" lon="3.09079">
        <ele>952.1</ele>
        <time>2022-07-31T13:36:23Z</time>
      </trkpt>
      <trkpt lat="44.8241" lon="3.09088">
        <ele>952.6</ele>
        <time>2022-07-31T13:36:28Z</time>
      </trkpt>
      <trkpt lat="44.8241" lon="3.0909">
        <ele>952.7</ele>
        <time>2022-07-31T13:36:29Z</time>
      </trkpt>
      <trkpt lat="44.82408" lon="3.091">
        <ele>953.5</ele>
        <time>2022-07-31T13:36:35Z</time>
      </trkpt>
      <trkpt lat="44.82408" lon="3.09109">
        <ele>954.2</ele>
        <time>2022-07-31T13:36:40Z</time>
      </trkpt>
      <trkpt lat="44.82407" lon="3.09116">
        <ele>954.5</ele>
        <time>2022-07-31T13:36:44Z</time>
      </trkpt>
      <trkpt lat="44.82404" lon="3.09131">
        <ele>955.2</ele>
        <time>2022-07-31T13:36:53Z</time>
      </trkpt>
      <trkpt lat="44.82403" lon="3.09133">
        <ele>955.3</ele>
        <time>2022-07-31T13:36:54Z</time>
      </trkpt>
      <trkpt lat="44.82399" lon="3.09145">
        <ele>956.1</ele>
        <time>2022-07-31T13:37:01Z</time>
      </trkpt>
      <trkpt lat="44.82396" lon="3.09161">
        <ele>957.5</ele>
        <time>2022-07-31T13:37:10Z</time>
      </trkpt>
      <trkpt lat="44.82391" lon="3.09175">
        <ele>958.6</ele>
        <time>2022-07-31T13:37:19Z</time>
      </trkpt>
      <trkpt lat="44.82386" lon="3.09189">
        <ele>960.1</ele>
        <time>2022-07-31T13:37:28Z</time>
      </trkpt>
      <trkpt lat="44.82382" lon="3.092">
        <ele>961.1</ele>
        <time>2022-07-31T13:37:35Z</time>
      </trkpt>
      <trkpt lat="44.82379" lon="3.09206">
        <ele>961.6</ele>
        <time>2022-07-31T13:37:39Z</time>
      </trkpt>
      <trkpt lat="44.82378" lon="3.09208">
        <ele>961.7</ele>
        <time>2022-07-31T13:37:40Z</time>
      </trkpt>
      <trkpt lat="44.82378" lon="3.09216">
        <ele>961.7</ele>
        <time>2022-07-31T13:37:46Z</time>
      </trkpt>
      <trkpt lat="44.82379" lon="3.09216">
        <ele>961.7</ele>
        <time>2022-07-31T13:37:50Z</time>
      </trkpt>
      <trkpt lat="44.82379" lon="3.09217">
        <ele>961.7</ele>
        <time>2022-07-31T13:37:51Z</time>
      </trkpt>
      <trkpt lat="44.8238" lon="3.09216">
        <ele>961.6</ele>
        <time>2022-07-31T13:37:55Z</time>
      </trkpt>
      <trkpt lat="44.82382" lon="3.09214">
        <ele>961.4</ele>
        <time>2022-07-31T13:37:59Z</time>
      </trkpt>
      <trkpt lat="44.82382" lon="3.09213">
        <ele>961.3</ele>
        <time>2022-07-31T13:38:00Z</time>
      </trkpt>
      <trkpt lat="44.82384" lon="3.09212">
        <ele>961.2</ele>
        <time>2022-07-31T13:38:05Z</time>
      </trkpt>
      <trkpt lat="44.82388" lon="3.09213">
        <ele>960.7</ele>
        <time>2022-07-31T13:38:57Z</time>
      </trkpt>
      <trkpt lat="44.824" lon="3.09213">
        <ele>960.3</ele>
        <time>2022-07-31T13:39:05Z</time>
      </trkpt>
      <trkpt lat="44.82416" lon="3.09209">
        <ele>959.6</ele>
        <time>2022-07-31T13:39:17Z</time>
      </trkpt>
      <trkpt lat="44.82425" lon="3.09202">
        <ele>958.8</ele>
        <time>2022-07-31T13:39:25Z</time>
      </trkpt>
      <trkpt lat="44.82434" lon="3.09198">
        <ele>957.9</ele>
        <time>2022-07-31T13:39:33Z</time>
      </trkpt>
      <trkpt lat="44.82446" lon="3.09199">
        <ele>957.4</ele>
        <time>2022-07-31T13:39:42Z</time>
      </trkpt>
      <trkpt lat="44.82449" lon="3.092">
        <ele>957.5</ele>
        <time>2022-07-31T13:39:44Z</time>
      </trkpt>
      <trkpt lat="44.82457" lon="3.09201">
        <ele>957.9</ele>
        <time>2022-07-31T13:39:50Z</time>
      </trkpt>
      <trkpt lat="44.82458" lon="3.09202">
        <ele>958</ele>
        <time>2022-07-31T13:39:51Z</time>
      </trkpt>
      <trkpt lat="44.82462" lon="3.09205">
        <ele>958.4</ele>
        <time>2022-07-31T13:39:55Z</time>
      </trkpt>
      <trkpt lat="44.82469" lon="3.0921">
        <ele>959</ele>
        <time>2022-07-31T13:40:02Z</time>
      </trkpt>
      <trkpt lat="44.8247" lon="3.0921">
        <ele>959.1</ele>
        <time>2022-07-31T13:40:03Z</time>
      </trkpt>
      <trkpt lat="44.82473" lon="3.09211">
        <ele>959.2</ele>
        <time>2022-07-31T13:40:07Z</time>
      </trkpt>
      <trkpt lat="44.82473" lon="3.09212">
        <ele>959.3</ele>
        <time>2022-07-31T13:40:09Z</time>
      </trkpt>
      <trkpt lat="44.82473" lon="3.09213">
        <ele>959.3</ele>
        <time>2022-07-31T13:40:12Z</time>
      </trkpt>
      <trkpt lat="44.82473" lon="3.09213">
        <ele>959.4</ele>
        <time>2022-07-31T13:40:13Z</time>
      </trkpt>
      <trkpt lat="44.82474" lon="3.09214">
        <ele>959.4</ele>
        <time>2022-07-31T13:40:16Z</time>
      </trkpt>
      <trkpt lat="44.82478" lon="3.09218">
        <ele>959.8</ele>
        <time>2022-07-31T13:40:20Z</time>
      </trkpt>
      <trkpt lat="44.82482" lon="3.09221">
        <ele>959.9</ele>
        <time>2022-07-31T13:40:25Z</time>
      </trkpt>
      <trkpt lat="44.82484" lon="3.09224">
        <ele>960.1</ele>
        <time>2022-07-31T13:40:28Z</time>
      </trkpt>
      <trkpt lat="44.82486" lon="3.09225">
        <ele>960.1</ele>
        <time>2022-07-31T13:40:29Z</time>
      </trkpt>
      <trkpt lat="44.82493" lon="3.09234">
        <ele>960.4</ele>
        <time>2022-07-31T13:40:36Z</time>
      </trkpt>
      <trkpt lat="44.82494" lon="3.09236">
        <ele>960.5</ele>
        <time>2022-07-31T13:40:38Z</time>
      </trkpt>
      <trkpt lat="44.82501" lon="3.09248">
        <ele>960.9</ele>
        <time>2022-07-31T13:40:48Z</time>
      </trkpt>
      <trkpt lat="44.82504" lon="3.09254">
        <ele>960.9</ele>
        <time>2022-07-31T13:40:52Z</time>
      </trkpt>
      <trkpt lat="44.82504" lon="3.09256">
        <ele>960.9</ele>
        <time>2022-07-31T13:40:56Z</time>
      </trkpt>
      <trkpt lat="44.82506" lon="3.09264">
        <ele>961.2</ele>
        <time>2022-07-31T13:41:02Z</time>
      </trkpt>
      <trkpt lat="44.82511" lon="3.09275">
        <ele>961.2</ele>
        <time>2022-07-31T13:41:09Z</time>
      </trkpt>
      <trkpt lat="44.82512" lon="3.09278">
        <ele>961.3</ele>
        <time>2022-07-31T13:41:11Z</time>
      </trkpt>
      <trkpt lat="44.82514" lon="3.09284">
        <ele>961.3</ele>
        <time>2022-07-31T13:41:15Z</time>
      </trkpt>
      <trkpt lat="44.82516" lon="3.09289">
        <ele>961.3</ele>
        <time>2022-07-31T13:41:17Z</time>
      </trkpt>
      <trkpt lat="44.82517" lon="3.09292">
        <ele>961.4</ele>
        <time>2022-07-31T13:41:20Z</time>
      </trkpt>
      <trkpt lat="44.82519" lon="3.09296">
        <ele>961.4</ele>
        <time>2022-07-31T13:41:23Z</time>
      </trkpt>
      <trkpt lat="44.82519" lon="3.09298">
        <ele>961.4</ele>
        <time>2022-07-31T13:41:24Z</time>
      </trkpt>
      <trkpt lat="44.82521" lon="3.09303">
        <ele>961.5</ele>
        <time>2022-07-31T13:41:27Z</time>
      </trkpt>
      <trkpt lat="44.82522" lon="3.09305">
        <ele>961.5</ele>
        <time>2022-07-31T13:41:28Z</time>
      </trkpt>
      <trkpt lat="44.82527" lon="3.09313">
        <ele>961.4</ele>
        <time>2022-07-31T13:41:33Z</time>
      </trkpt>
      <trkpt lat="44.82528" lon="3.09317">
        <ele>961.4</ele>
        <time>2022-07-31T13:41:35Z</time>
      </trkpt>
      <trkpt lat="44.82529" lon="3.0932">
        <ele>961.5</ele>
        <time>2022-07-31T13:41:37Z</time>
      </trkpt>
      <trkpt lat="44.82529" lon="3.09321">
        <ele>961.6</ele>
        <time>2022-07-31T13:41:38Z</time>
      </trkpt>
      <trkpt lat="44.8253" lon="3.09326">
        <ele>961.8</ele>
        <time>2022-07-31T13:41:41Z</time>
      </trkpt>
      <trkpt lat="44.82531" lon="3.09328">
        <ele>961.8</ele>
        <time>2022-07-31T13:41:42Z</time>
      </trkpt>
      <trkpt lat="44.82531" lon="3.09329">
        <ele>961.9</ele>
        <time>2022-07-31T13:41:43Z</time>
      </trkpt>
      <trkpt lat="44.82531" lon="3.09332">
        <ele>962</ele>
        <time>2022-07-31T13:41:45Z</time>
      </trkpt>
      <trkpt lat="44.82531" lon="3.09334">
        <ele>962</ele>
        <time>2022-07-31T13:41:46Z</time>
      </trkpt>
      <trkpt lat="44.82531" lon="3.09338">
        <ele>961.9</ele>
        <time>2022-07-31T13:41:48Z</time>
      </trkpt>
      <trkpt lat="44.82533" lon="3.09349">
        <ele>961.5</ele>
        <time>2022-07-31T13:41:54Z</time>
      </trkpt>
      <trkpt lat="44.82533" lon="3.09354">
        <ele>961.3</ele>
        <time>2022-07-31T13:41:57Z</time>
      </trkpt>
      <trkpt lat="44.82534" lon="3.09358">
        <ele>960.9</ele>
        <time>2022-07-31T13:42:00Z</time>
      </trkpt>
      <trkpt lat="44.82535" lon="3.09359">
        <ele>960.9</ele>
        <time>2022-07-31T13:42:01Z</time>
      </trkpt>
      <trkpt lat="44.82535" lon="3.09361">
        <ele>960.7</ele>
        <time>2022-07-31T13:42:02Z</time>
      </trkpt>
      <trkpt lat="44.82536" lon="3.09368">
        <ele>960.4</ele>
        <time>2022-07-31T13:42:06Z</time>
      </trkpt>
      <trkpt lat="44.82538" lon="3.09379">
        <ele>960</ele>
        <time>2022-07-31T13:42:13Z</time>
      </trkpt>
      <trkpt lat="44.82538" lon="3.09383">
        <ele>959.7</ele>
        <time>2022-07-31T13:42:15Z</time>
      </trkpt>
      <trkpt lat="44.8254" lon="3.09392">
        <ele>959.1</ele>
        <time>2022-07-31T13:42:20Z</time>
      </trkpt>
      <trkpt lat="44.8254" lon="3.09395">
        <ele>959.1</ele>
        <time>2022-07-31T13:42:22Z</time>
      </trkpt>
      <trkpt lat="44.8254" lon="3.09403">
        <ele>959.1</ele>
        <time>2022-07-31T13:42:26Z</time>
      </trkpt>
      <trkpt lat="44.8254" lon="3.09406">
        <ele>959.4</ele>
        <time>2022-07-31T13:42:28Z</time>
      </trkpt>
      <trkpt lat="44.82538" lon="3.09416">
        <ele>959.9</ele>
        <time>2022-07-31T13:42:33Z</time>
      </trkpt>
      <trkpt lat="44.82538" lon="3.09419">
        <ele>960</ele>
        <time>2022-07-31T13:42:35Z</time>
      </trkpt>
      <trkpt lat="44.82538" lon="3.09423">
        <ele>959.9</ele>
        <time>2022-07-31T13:42:37Z</time>
      </trkpt>
      <trkpt lat="44.82538" lon="3.0943">
        <ele>959.9</ele>
        <time>2022-07-31T13:42:41Z</time>
      </trkpt>
      <trkpt lat="44.82539" lon="3.09434">
        <ele>959.7</ele>
        <time>2022-07-31T13:42:43Z</time>
      </trkpt>
      <trkpt lat="44.82537" lon="3.09446">
        <ele>960</ele>
        <time>2022-07-31T13:42:50Z</time>
      </trkpt>
      <trkpt lat="44.82536" lon="3.09447">
        <ele>960.1</ele>
        <time>2022-07-31T13:42:51Z</time>
      </trkpt>
      <trkpt lat="44.82535" lon="3.09451">
        <ele>960.2</ele>
        <time>2022-07-31T13:42:54Z</time>
      </trkpt>
      <trkpt lat="44.82534" lon="3.09451">
        <ele>960.3</ele>
        <time>2022-07-31T13:42:55Z</time>
      </trkpt>
      <trkpt lat="44.82534" lon="3.0945">
        <ele>960.4</ele>
        <time>2022-07-31T13:42:56Z</time>
      </trkpt>
      <trkpt lat="44.82533" lon="3.09453">
        <ele>960.4</ele>
        <time>2022-07-31T13:43:07Z</time>
      </trkpt>
      <trkpt lat="44.82534" lon="3.09457">
        <ele>960.1</ele>
        <time>2022-07-31T13:43:09Z</time>
      </trkpt>
      <trkpt lat="44.82534" lon="3.09464">
        <ele>959.8</ele>
        <time>2022-07-31T13:43:13Z</time>
      </trkpt>
      <trkpt lat="44.8253" lon="3.09478">
        <ele>959.8</ele>
        <time>2022-07-31T13:43:20Z</time>
      </trkpt>
      <trkpt lat="44.8253" lon="3.09481">
        <ele>959.7</ele>
        <time>2022-07-31T13:43:22Z</time>
      </trkpt>
      <trkpt lat="44.8253" lon="3.09487">
        <ele>959.8</ele>
        <time>2022-07-31T13:43:25Z</time>
      </trkpt>
      <trkpt lat="44.8253" lon="3.09488">
        <ele>959.8</ele>
        <time>2022-07-31T13:43:26Z</time>
      </trkpt>
      <trkpt lat="44.82526" lon="3.09502">
        <ele>960.1</ele>
        <time>2022-07-31T13:43:34Z</time>
      </trkpt>
      <trkpt lat="44.82524" lon="3.09514">
        <ele>960</ele>
        <time>2022-07-31T13:43:41Z</time>
      </trkpt>
      <trkpt lat="44.82523" lon="3.09528">
        <ele>959.6</ele>
        <time>2022-07-31T13:43:49Z</time>
      </trkpt>
      <trkpt lat="44.82523" lon="3.09538">
        <ele>959.6</ele>
        <time>2022-07-31T13:43:56Z</time>
      </trkpt>
      <trkpt lat="44.82524" lon="3.09543">
        <ele>959.5</ele>
        <time>2022-07-31T13:43:59Z</time>
      </trkpt>
      <trkpt lat="44.82524" lon="3.09547">
        <ele>959.4</ele>
        <time>2022-07-31T13:44:01Z</time>
      </trkpt>
      <trkpt lat="44.82525" lon="3.0955">
        <ele>959.4</ele>
        <time>2022-07-31T13:44:03Z</time>
      </trkpt>
      <trkpt lat="44.82526" lon="3.09561">
        <ele>959</ele>
        <time>2022-07-31T13:44:10Z</time>
      </trkpt>
      <trkpt lat="44.82525" lon="3.09564">
        <ele>959</ele>
        <time>2022-07-31T13:44:12Z</time>
      </trkpt>
      <trkpt lat="44.82524" lon="3.09569">
        <ele>958.9</ele>
        <time>2022-07-31T13:44:15Z</time>
      </trkpt>
      <trkpt lat="44.82524" lon="3.09572">
        <ele>958.8</ele>
        <time>2022-07-31T13:44:17Z</time>
      </trkpt>
      <trkpt lat="44.82524" lon="3.09578">
        <ele>958.5</ele>
        <time>2022-07-31T13:44:20Z</time>
      </trkpt>
      <trkpt lat="44.82523" lon="3.09585">
        <ele>958.3</ele>
        <time>2022-07-31T13:44:23Z</time>
      </trkpt>
      <trkpt lat="44.82523" lon="3.09586">
        <ele>958.2</ele>
        <time>2022-07-31T13:44:26Z</time>
      </trkpt>
      <trkpt lat="44.82523" lon="3.09585">
        <ele>958.3</ele>
        <time>2022-07-31T13:44:28Z</time>
      </trkpt>
      <trkpt lat="44.82521" lon="3.09592">
        <ele>958.1</ele>
        <time>2022-07-31T13:44:34Z</time>
      </trkpt>
      <trkpt lat="44.82518" lon="3.09604">
        <ele>957.7</ele>
        <time>2022-07-31T13:44:42Z</time>
      </trkpt>
      <trkpt lat="44.82517" lon="3.09608">
        <ele>957.6</ele>
        <time>2022-07-31T13:44:44Z</time>
      </trkpt>
      <trkpt lat="44.82516" lon="3.09612">
        <ele>957.3</ele>
        <time>2022-07-31T13:44:47Z</time>
      </trkpt>
      <trkpt lat="44.82514" lon="3.09618">
        <ele>956.7</ele>
        <time>2022-07-31T13:44:51Z</time>
      </trkpt>
      <trkpt lat="44.82512" lon="3.09622">
        <ele>956.4</ele>
        <time>2022-07-31T13:44:54Z</time>
      </trkpt>
      <trkpt lat="44.82512" lon="3.09622">
        <ele>956.3</ele>
        <time>2022-07-31T13:44:55Z</time>
      </trkpt>
      <trkpt lat="44.82512" lon="3.09623">
        <ele>956.3</ele>
        <time>2022-07-31T13:44:56Z</time>
      </trkpt>
      <trkpt lat="44.82509" lon="3.0963">
        <ele>955.4</ele>
        <time>2022-07-31T13:45:00Z</time>
      </trkpt>
      <trkpt lat="44.8251" lon="3.09638">
        <ele>954.5</ele>
        <time>2022-07-31T13:45:05Z</time>
      </trkpt>
      <trkpt lat="44.82511" lon="3.09641">
        <ele>954.3</ele>
        <time>2022-07-31T13:45:07Z</time>
      </trkpt>
      <trkpt lat="44.82512" lon="3.09643">
        <ele>954.1</ele>
        <time>2022-07-31T13:45:08Z</time>
      </trkpt>
      <trkpt lat="44.82513" lon="3.09644">
        <ele>954</ele>
        <time>2022-07-31T13:45:09Z</time>
      </trkpt>
      <trkpt lat="44.82515" lon="3.09647">
        <ele>953.8</ele>
        <time>2022-07-31T13:45:11Z</time>
      </trkpt>
      <trkpt lat="44.82516" lon="3.0965">
        <ele>953.5</ele>
        <time>2022-07-31T13:45:13Z</time>
      </trkpt>
      <trkpt lat="44.82516" lon="3.09654">
        <ele>953.1</ele>
        <time>2022-07-31T13:45:15Z</time>
      </trkpt>
      <trkpt lat="44.82517" lon="3.09656">
        <ele>952.9</ele>
        <time>2022-07-31T13:45:16Z</time>
      </trkpt>
      <trkpt lat="44.82518" lon="3.09665">
        <ele>951.9</ele>
        <time>2022-07-31T13:45:22Z</time>
      </trkpt>
      <trkpt lat="44.82518" lon="3.0967">
        <ele>951.8</ele>
        <time>2022-07-31T13:45:26Z</time>
      </trkpt>
      <trkpt lat="44.82517" lon="3.0967">
        <ele>951.9</ele>
        <time>2022-07-31T13:45:28Z</time>
      </trkpt>
      <trkpt lat="44.82516" lon="3.0967">
        <ele>951.9</ele>
        <time>2022-07-31T13:45:30Z</time>
      </trkpt>
      <trkpt lat="44.82517" lon="3.09672">
        <ele>951.9</ele>
        <time>2022-07-31T13:45:33Z</time>
      </trkpt>
      <trkpt lat="44.82517" lon="3.09673">
        <ele>951.9</ele>
        <time>2022-07-31T13:45:34Z</time>
      </trkpt>
      <trkpt lat="44.82518" lon="3.09676">
        <ele>951.9</ele>
        <time>2022-07-31T13:45:36Z</time>
      </trkpt>
      <trkpt lat="44.8252" lon="3.09681">
        <ele>951.9</ele>
        <time>2022-07-31T13:45:40Z</time>
      </trkpt>
      <trkpt lat="44.82527" lon="3.0969">
        <ele>951.9</ele>
        <time>2022-07-31T13:45:50Z</time>
      </trkpt>
      <trkpt lat="44.82533" lon="3.09699">
        <ele>952</ele>
        <time>2022-07-31T13:45:59Z</time>
      </trkpt>
      <trkpt lat="44.82536" lon="3.09702">
        <ele>952</ele>
        <time>2022-07-31T13:46:02Z</time>
      </trkpt>
      <trkpt lat="44.82537" lon="3.09703">
        <ele>952</ele>
        <time>2022-07-31T13:46:03Z</time>
      </trkpt>
      <trkpt lat="44.82539" lon="3.09705">
        <ele>952.1</ele>
        <time>2022-07-31T13:46:05Z</time>
      </trkpt>
      <trkpt lat="44.82541" lon="3.09707">
        <ele>952.2</ele>
        <time>2022-07-31T13:46:07Z</time>
      </trkpt>
      <trkpt lat="44.82548" lon="3.09714">
        <ele>952.5</ele>
        <time>2022-07-31T13:46:15Z</time>
      </trkpt>
      <trkpt lat="44.82553" lon="3.0972">
        <ele>952.8</ele>
        <time>2022-07-31T13:46:21Z</time>
      </trkpt>
      <trkpt lat="44.82557" lon="3.09724">
        <ele>953.2</ele>
        <time>2022-07-31T13:46:25Z</time>
      </trkpt>
      <trkpt lat="44.82559" lon="3.09726">
        <ele>953.6</ele>
        <time>2022-07-31T13:46:28Z</time>
      </trkpt>
      <trkpt lat="44.82563" lon="3.09729">
        <ele>954</ele>
        <time>2022-07-31T13:46:33Z</time>
      </trkpt>
      <trkpt lat="44.82569" lon="3.0973">
        <ele>954.1</ele>
        <time>2022-07-31T13:46:41Z</time>
      </trkpt>
      <trkpt lat="44.8257" lon="3.09731">
        <ele>954.2</ele>
        <time>2022-07-31T13:46:42Z</time>
      </trkpt>
      <trkpt lat="44.82571" lon="3.09731">
        <ele>954.2</ele>
        <time>2022-07-31T13:46:43Z</time>
      </trkpt>
      <trkpt lat="44.82573" lon="3.09731">
        <ele>954.3</ele>
        <time>2022-07-31T13:46:44Z</time>
      </trkpt>
      <trkpt lat="44.82578" lon="3.09734">
        <ele>954.7</ele>
        <time>2022-07-31T13:46:49Z</time>
      </trkpt>
      <trkpt lat="44.82579" lon="3.09736">
        <ele>954.9</ele>
        <time>2022-07-31T13:46:51Z</time>
      </trkpt>
      <trkpt lat="44.82582" lon="3.09739">
        <ele>955.4</ele>
        <time>2022-07-31T13:46:54Z</time>
      </trkpt>
      <trkpt lat="44.82584" lon="3.09742">
        <ele>955.8</ele>
        <time>2022-07-31T13:46:57Z</time>
      </trkpt>
      <trkpt lat="44.82586" lon="3.09743">
        <ele>955.9</ele>
        <time>2022-07-31T13:46:59Z</time>
      </trkpt>
      <trkpt lat="44.82587" lon="3.09744">
        <ele>956</ele>
        <time>2022-07-31T13:47:00Z</time>
      </trkpt>
      <trkpt lat="44.82592" lon="3.0975">
        <ele>956.7</ele>
        <time>2022-07-31T13:47:07Z</time>
      </trkpt>
      <trkpt lat="44.82592" lon="3.09751">
        <ele>956.8</ele>
        <time>2022-07-31T13:47:08Z</time>
      </trkpt>
      <trkpt lat="44.82594" lon="3.09753">
        <ele>956.9</ele>
        <time>2022-07-31T13:47:10Z</time>
      </trkpt>
      <trkpt lat="44.82595" lon="3.09756">
        <ele>957.1</ele>
        <time>2022-07-31T13:47:12Z</time>
      </trkpt>
      <trkpt lat="44.82596" lon="3.09757">
        <ele>957.2</ele>
        <time>2022-07-31T13:47:13Z</time>
      </trkpt>
      <trkpt lat="44.82599" lon="3.09764">
        <ele>957.7</ele>
        <time>2022-07-31T13:47:19Z</time>
      </trkpt>
      <trkpt lat="44.82601" lon="3.09767">
        <ele>958</ele>
        <time>2022-07-31T13:47:22Z</time>
      </trkpt>
      <trkpt lat="44.82603" lon="3.09771">
        <ele>958.4</ele>
        <time>2022-07-31T13:47:26Z</time>
      </trkpt>
      <trkpt lat="44.82606" lon="3.09776">
        <ele>958.8</ele>
        <time>2022-07-31T13:47:30Z</time>
      </trkpt>
      <trkpt lat="44.82611" lon="3.09782">
        <ele>959.3</ele>
        <time>2022-07-31T13:47:36Z</time>
      </trkpt>
      <trkpt lat="44.82611" lon="3.09783">
        <ele>959.4</ele>
        <time>2022-07-31T13:47:37Z</time>
      </trkpt>
      <trkpt lat="44.82611" lon="3.09786">
        <ele>959.6</ele>
        <time>2022-07-31T13:47:40Z</time>
      </trkpt>
      <trkpt lat="44.82613" lon="3.0979">
        <ele>959.9</ele>
        <time>2022-07-31T13:47:43Z</time>
      </trkpt>
      <trkpt lat="44.82614" lon="3.09792">
        <ele>960</ele>
        <time>2022-07-31T13:47:45Z</time>
      </trkpt>
      <trkpt lat="44.82614" lon="3.09793">
        <ele>960.1</ele>
        <time>2022-07-31T13:47:46Z</time>
      </trkpt>
      <trkpt lat="44.82615" lon="3.09796">
        <ele>960.3</ele>
        <time>2022-07-31T13:47:48Z</time>
      </trkpt>
      <trkpt lat="44.82616" lon="3.098">
        <ele>960.6</ele>
        <time>2022-07-31T13:47:52Z</time>
      </trkpt>
      <trkpt lat="44.82618" lon="3.09803">
        <ele>960.8</ele>
        <time>2022-07-31T13:47:55Z</time>
      </trkpt>
      <trkpt lat="44.82618" lon="3.09803">
        <ele>960.8</ele>
        <time>2022-07-31T13:47:56Z</time>
      </trkpt>
      <trkpt lat="44.82619" lon="3.09806">
        <ele>961.1</ele>
        <time>2022-07-31T13:47:59Z</time>
      </trkpt>
      <trkpt lat="44.82619" lon="3.09808">
        <ele>961.2</ele>
        <time>2022-07-31T13:48:01Z</time>
      </trkpt>
      <trkpt lat="44.82621" lon="3.09812">
        <ele>961.5</ele>
        <time>2022-07-31T13:48:05Z</time>
      </trkpt>
      <trkpt lat="44.82622" lon="3.09813">
        <ele>961.5</ele>
        <time>2022-07-31T13:48:06Z</time>
      </trkpt>
      <trkpt lat="44.82623" lon="3.09822">
        <ele>962</ele>
        <time>2022-07-31T13:48:13Z</time>
      </trkpt>
      <trkpt lat="44.82623" lon="3.09828">
        <ele>962.3</ele>
        <time>2022-07-31T13:48:19Z</time>
      </trkpt>
      <trkpt lat="44.82625" lon="3.09836">
        <ele>962.5</ele>
        <time>2022-07-31T13:48:28Z</time>
      </trkpt>
      <trkpt lat="44.82626" lon="3.09841">
        <ele>962.6</ele>
        <time>2022-07-31T13:48:32Z</time>
      </trkpt>
      <trkpt lat="44.82627" lon="3.09842">
        <ele>962.6</ele>
        <time>2022-07-31T13:48:34Z</time>
      </trkpt>
      <trkpt lat="44.82627" lon="3.0985">
        <ele>962.9</ele>
        <time>2022-07-31T13:48:42Z</time>
      </trkpt>
      <trkpt lat="44.82626" lon="3.09851">
        <ele>962.9</ele>
        <time>2022-07-31T13:48:43Z</time>
      </trkpt>
      <trkpt lat="44.82626" lon="3.09855">
        <ele>963.2</ele>
        <time>2022-07-31T13:48:47Z</time>
      </trkpt>
      <trkpt lat="44.82626" lon="3.09859">
        <ele>963.2</ele>
        <time>2022-07-31T13:48:50Z</time>
      </trkpt>
      <trkpt lat="44.82627" lon="3.09861">
        <ele>963.2</ele>
        <time>2022-07-31T13:48:52Z</time>
      </trkpt>
      <trkpt lat="44.82627" lon="3.09867">
        <ele>963.2</ele>
        <time>2022-07-31T13:48:56Z</time>
      </trkpt>
      <trkpt lat="44.82628" lon="3.0987">
        <ele>963.1</ele>
        <time>2022-07-31T13:48:58Z</time>
      </trkpt>
      <trkpt lat="44.82627" lon="3.09874">
        <ele>963.4</ele>
        <time>2022-07-31T13:49:00Z</time>
      </trkpt>
      <trkpt lat="44.82627" lon="3.09875">
        <ele>963.4</ele>
        <time>2022-07-31T13:49:01Z</time>
      </trkpt>
      <trkpt lat="44.82626" lon="3.0988">
        <ele>963.6</ele>
        <time>2022-07-31T13:49:05Z</time>
      </trkpt>
      <trkpt lat="44.82627" lon="3.09882">
        <ele>963.4</ele>
        <time>2022-07-31T13:49:07Z</time>
      </trkpt>
      <trkpt lat="44.82629" lon="3.09893">
        <ele>963.3</ele>
        <time>2022-07-31T13:49:14Z</time>
      </trkpt>
      <trkpt lat="44.82629" lon="3.09895">
        <ele>963.5</ele>
        <time>2022-07-31T13:49:15Z</time>
      </trkpt>
      <trkpt lat="44.82628" lon="3.09898">
        <ele>963.8</ele>
        <time>2022-07-31T13:49:17Z</time>
      </trkpt>
      <trkpt lat="44.82628" lon="3.09902">
        <ele>964.1</ele>
        <time>2022-07-31T13:49:19Z</time>
      </trkpt>
      <trkpt lat="44.82627" lon="3.09903">
        <ele>964.3</ele>
        <time>2022-07-31T13:49:20Z</time>
      </trkpt>
      <trkpt lat="44.82627" lon="3.09905">
        <ele>964.4</ele>
        <time>2022-07-31T13:49:21Z</time>
      </trkpt>
      <trkpt lat="44.82626" lon="3.09908">
        <ele>964.7</ele>
        <time>2022-07-31T13:49:23Z</time>
      </trkpt>
      <trkpt lat="44.82625" lon="3.09909">
        <ele>965</ele>
        <time>2022-07-31T13:49:24Z</time>
      </trkpt>
      <trkpt lat="44.82624" lon="3.09912">
        <ele>965.6</ele>
        <time>2022-07-31T13:49:27Z</time>
      </trkpt>
      <trkpt lat="44.82623" lon="3.09916">
        <ele>966</ele>
        <time>2022-07-31T13:49:30Z</time>
      </trkpt>
      <trkpt lat="44.82624" lon="3.0992">
        <ele>966</ele>
        <time>2022-07-31T13:49:33Z</time>
      </trkpt>
      <trkpt lat="44.82624" lon="3.09926">
        <ele>966</ele>
        <time>2022-07-31T13:49:37Z</time>
      </trkpt>
      <trkpt lat="44.82624" lon="3.09931">
        <ele>966.3</ele>
        <time>2022-07-31T13:49:40Z</time>
      </trkpt>
      <trkpt lat="44.82623" lon="3.09938">
        <ele>966.7</ele>
        <time>2022-07-31T13:49:46Z</time>
      </trkpt>
      <trkpt lat="44.82623" lon="3.0994">
        <ele>966.9</ele>
        <time>2022-07-31T13:49:48Z</time>
      </trkpt>
      <trkpt lat="44.82622" lon="3.09946">
        <ele>967.2</ele>
        <time>2022-07-31T13:49:52Z</time>
      </trkpt>
      <trkpt lat="44.82622" lon="3.09948">
        <ele>967.3</ele>
        <time>2022-07-31T13:49:53Z</time>
      </trkpt>
      <trkpt lat="44.8262" lon="3.09958">
        <ele>968.1</ele>
        <time>2022-07-31T13:50:00Z</time>
      </trkpt>
      <trkpt lat="44.82619" lon="3.09961">
        <ele>968.3</ele>
        <time>2022-07-31T13:50:03Z</time>
      </trkpt>
      <trkpt lat="44.82618" lon="3.09963">
        <ele>968.6</ele>
        <time>2022-07-31T13:50:05Z</time>
      </trkpt>
      <trkpt lat="44.82618" lon="3.09964">
        <ele>968.6</ele>
        <time>2022-07-31T13:50:06Z</time>
      </trkpt>
      <trkpt lat="44.82618" lon="3.09968">
        <ele>968.7</ele>
        <time>2022-07-31T13:50:10Z</time>
      </trkpt>
      <trkpt lat="44.82618" lon="3.0997">
        <ele>968.8</ele>
        <time>2022-07-31T13:50:11Z</time>
      </trkpt>
      <trkpt lat="44.82618" lon="3.09972">
        <ele>968.8</ele>
        <time>2022-07-31T13:50:13Z</time>
      </trkpt>
      <trkpt lat="44.82618" lon="3.09975">
        <ele>968.8</ele>
        <time>2022-07-31T13:50:15Z</time>
      </trkpt>
      <trkpt lat="44.82618" lon="3.09976">
        <ele>968.9</ele>
        <time>2022-07-31T13:50:16Z</time>
      </trkpt>
      <trkpt lat="44.82616" lon="3.09981">
        <ele>969.4</ele>
        <time>2022-07-31T13:50:20Z</time>
      </trkpt>
      <trkpt lat="44.82616" lon="3.09982">
        <ele>969.5</ele>
        <time>2022-07-31T13:50:21Z</time>
      </trkpt>
      <trkpt lat="44.82615" lon="3.09983">
        <ele>969.6</ele>
        <time>2022-07-31T13:50:22Z</time>
      </trkpt>
      <trkpt lat="44.82614" lon="3.09984">
        <ele>969.9</ele>
        <time>2022-07-31T13:50:23Z</time>
      </trkpt>
      <trkpt lat="44.82614" lon="3.09987">
        <ele>970.1</ele>
        <time>2022-07-31T13:50:25Z</time>
      </trkpt>
      <trkpt lat="44.82613" lon="3.09989">
        <ele>970.3</ele>
        <time>2022-07-31T13:50:27Z</time>
      </trkpt>
      <trkpt lat="44.82612" lon="3.0999">
        <ele>970.4</ele>
        <time>2022-07-31T13:50:28Z</time>
      </trkpt>
      <trkpt lat="44.82611" lon="3.09991">
        <ele>970.7</ele>
        <time>2022-07-31T13:50:29Z</time>
      </trkpt>
      <trkpt lat="44.82611" lon="3.09992">
        <ele>970.8</ele>
        <time>2022-07-31T13:50:30Z</time>
      </trkpt>
      <trkpt lat="44.8261" lon="3.09993">
        <ele>970.9</ele>
        <time>2022-07-31T13:50:31Z</time>
      </trkpt>
      <trkpt lat="44.82609" lon="3.09995">
        <ele>971</ele>
        <time>2022-07-31T13:50:33Z</time>
      </trkpt>
      <trkpt lat="44.82609" lon="3.09996">
        <ele>971.1</ele>
        <time>2022-07-31T13:50:34Z</time>
      </trkpt>
      <trkpt lat="44.82609" lon="3.09997">
        <ele>971.1</ele>
        <time>2022-07-31T13:50:35Z</time>
      </trkpt>
      <trkpt lat="44.82608" lon="3.1">
        <ele>971.3</ele>
        <time>2022-07-31T13:50:39Z</time>
      </trkpt>
      <trkpt lat="44.82609" lon="3.10001">
        <ele>971.3</ele>
        <time>2022-07-31T13:50:40Z</time>
      </trkpt>
      <trkpt lat="44.82608" lon="3.10004">
        <ele>971.5</ele>
        <time>2022-07-31T13:50:42Z</time>
      </trkpt>
      <trkpt lat="44.82607" lon="3.10006">
        <ele>971.7</ele>
        <time>2022-07-31T13:50:44Z</time>
      </trkpt>
      <trkpt lat="44.82606" lon="3.10008">
        <ele>971.8</ele>
        <time>2022-07-31T13:50:46Z</time>
      </trkpt>
      <trkpt lat="44.82606" lon="3.10008">
        <ele>971.9</ele>
        <time>2022-07-31T13:50:47Z</time>
      </trkpt>
      <trkpt lat="44.82606" lon="3.10009">
        <ele>971.9</ele>
        <time>2022-07-31T13:50:48Z</time>
      </trkpt>
      <trkpt lat="44.82607" lon="3.10011">
        <ele>971.9</ele>
        <time>2022-07-31T13:50:50Z</time>
      </trkpt>
      <trkpt lat="44.82607" lon="3.10013">
        <ele>971.9</ele>
        <time>2022-07-31T13:50:52Z</time>
      </trkpt>
      <trkpt lat="44.82607" lon="3.10016">
        <ele>972</ele>
        <time>2022-07-31T13:50:55Z</time>
      </trkpt>
      <trkpt lat="44.82608" lon="3.10018">
        <ele>972</ele>
        <time>2022-07-31T13:50:57Z</time>
      </trkpt>
      <trkpt lat="44.82608" lon="3.10019">
        <ele>972</ele>
        <time>2022-07-31T13:50:58Z</time>
      </trkpt>
      <trkpt lat="44.82608" lon="3.1002">
        <ele>972</ele>
        <time>2022-07-31T13:50:59Z</time>
      </trkpt>
      <trkpt lat="44.82609" lon="3.10021">
        <ele>972</ele>
        <time>2022-07-31T13:51:00Z</time>
      </trkpt>
      <trkpt lat="44.82609" lon="3.10023">
        <ele>972.1</ele>
        <time>2022-07-31T13:51:01Z</time>
      </trkpt>
      <trkpt lat="44.82609" lon="3.10024">
        <ele>972.1</ele>
        <time>2022-07-31T13:51:02Z</time>
      </trkpt>
      <trkpt lat="44.82609" lon="3.10025">
        <ele>972.1</ele>
        <time>2022-07-31T13:51:03Z</time>
      </trkpt>
      <trkpt lat="44.82609" lon="3.10026">
        <ele>972.2</ele>
        <time>2022-07-31T13:51:04Z</time>
      </trkpt>
      <trkpt lat="44.82609" lon="3.10027">
        <ele>972.3</ele>
        <time>2022-07-31T13:51:05Z</time>
      </trkpt>
      <trkpt lat="44.82609" lon="3.10029">
        <ele>972.3</ele>
        <time>2022-07-31T13:51:06Z</time>
      </trkpt>
      <trkpt lat="44.82609" lon="3.1003">
        <ele>972.3</ele>
        <time>2022-07-31T13:51:07Z</time>
      </trkpt>
      <trkpt lat="44.82609" lon="3.10031">
        <ele>972.4</ele>
        <time>2022-07-31T13:51:08Z</time>
      </trkpt>
      <trkpt lat="44.82609" lon="3.10033">
        <ele>972.4</ele>
        <time>2022-07-31T13:51:10Z</time>
      </trkpt>
      <trkpt lat="44.82609" lon="3.10035">
        <ele>972.5</ele>
        <time>2022-07-31T13:51:11Z</time>
      </trkpt>
      <trkpt lat="44.82609" lon="3.10037">
        <ele>972.5</ele>
        <time>2022-07-31T13:51:13Z</time>
      </trkpt>
      <trkpt lat="44.8261" lon="3.10037">
        <ele>972.5</ele>
        <time>2022-07-31T13:51:14Z</time>
      </trkpt>
      <trkpt lat="44.8261" lon="3.10038">
        <ele>972.5</ele>
        <time>2022-07-31T13:51:15Z</time>
      </trkpt>
      <trkpt lat="44.8261" lon="3.10039">
        <ele>972.5</ele>
        <time>2022-07-31T13:51:16Z</time>
      </trkpt>
      <trkpt lat="44.8261" lon="3.1004">
        <ele>972.6</ele>
        <time>2022-07-31T13:51:17Z</time>
      </trkpt>
      <trkpt lat="44.8261" lon="3.10041">
        <ele>972.6</ele>
        <time>2022-07-31T13:51:18Z</time>
      </trkpt>
      <trkpt lat="44.8261" lon="3.10042">
        <ele>972.6</ele>
        <time>2022-07-31T13:51:19Z</time>
      </trkpt>
      <trkpt lat="44.8261" lon="3.10044">
        <ele>972.7</ele>
        <time>2022-07-31T13:51:20Z</time>
      </trkpt>
      <trkpt lat="44.8261" lon="3.10045">
        <ele>972.8</ele>
        <time>2022-07-31T13:51:21Z</time>
      </trkpt>
      <trkpt lat="44.82609" lon="3.10046">
        <ele>972.8</ele>
        <time>2022-07-31T13:51:22Z</time>
      </trkpt>
      <trkpt lat="44.8261" lon="3.10047">
        <ele>972.8</ele>
        <time>2022-07-31T13:51:23Z</time>
      </trkpt>
      <trkpt lat="44.82611" lon="3.10048">
        <ele>972.8</ele>
        <time>2022-07-31T13:51:24Z</time>
      </trkpt>
      <trkpt lat="44.82611" lon="3.10049">
        <ele>972.8</ele>
        <time>2022-07-31T13:51:25Z</time>
      </trkpt>
      <trkpt lat="44.82612" lon="3.10051">
        <ele>972.6</ele>
        <time>2022-07-31T13:51:26Z</time>
      </trkpt>
      <trkpt lat="44.82613" lon="3.10052">
        <ele>972.6</ele>
        <time>2022-07-31T13:51:27Z</time>
      </trkpt>
      <trkpt lat="44.82613" lon="3.10054">
        <ele>972.6</ele>
        <time>2022-07-31T13:51:28Z</time>
      </trkpt>
      <trkpt lat="44.82613" lon="3.10056">
        <ele>972.7</ele>
        <time>2022-07-31T13:51:29Z</time>
      </trkpt>
      <trkpt lat="44.82612" lon="3.10057">
        <ele>972.8</ele>
        <time>2022-07-31T13:51:30Z</time>
      </trkpt>
      <trkpt lat="44.82613" lon="3.10059">
        <ele>972.8</ele>
        <time>2022-07-31T13:51:31Z</time>
      </trkpt>
      <trkpt lat="44.82613" lon="3.1006">
        <ele>972.8</ele>
        <time>2022-07-31T13:51:32Z</time>
      </trkpt>
      <trkpt lat="44.82613" lon="3.10062">
        <ele>972.9</ele>
        <time>2022-07-31T13:51:33Z</time>
      </trkpt>
      <trkpt lat="44.82614" lon="3.10064">
        <ele>972.9</ele>
        <time>2022-07-31T13:51:35Z</time>
      </trkpt>
      <trkpt lat="44.82614" lon="3.10066">
        <ele>972.9</ele>
        <time>2022-07-31T13:51:36Z</time>
      </trkpt>
      <trkpt lat="44.82614" lon="3.10068">
        <ele>973</ele>
        <time>2022-07-31T13:51:37Z</time>
      </trkpt>
      <trkpt lat="44.82614" lon="3.10071">
        <ele>973.1</ele>
        <time>2022-07-31T13:51:39Z</time>
      </trkpt>
      <trkpt lat="44.82615" lon="3.10072">
        <ele>973.1</ele>
        <time>2022-07-31T13:51:40Z</time>
      </trkpt>
      <trkpt lat="44.82615" lon="3.10074">
        <ele>973.1</ele>
        <time>2022-07-31T13:51:41Z</time>
      </trkpt>
      <trkpt lat="44.82615" lon="3.10076">
        <ele>973.2</ele>
        <time>2022-07-31T13:51:42Z</time>
      </trkpt>
      <trkpt lat="44.82615" lon="3.10078">
        <ele>973.3</ele>
        <time>2022-07-31T13:51:43Z</time>
      </trkpt>
      <trkpt lat="44.82615" lon="3.10079">
        <ele>973.4</ele>
        <time>2022-07-31T13:51:44Z</time>
      </trkpt>
      <trkpt lat="44.82616" lon="3.10082">
        <ele>973.4</ele>
        <time>2022-07-31T13:51:46Z</time>
      </trkpt>
      <trkpt lat="44.82617" lon="3.10085">
        <ele>973.5</ele>
        <time>2022-07-31T13:51:48Z</time>
      </trkpt>
      <trkpt lat="44.82618" lon="3.10087">
        <ele>973.5</ele>
        <time>2022-07-31T13:51:49Z</time>
      </trkpt>
      <trkpt lat="44.82618" lon="3.10088">
        <ele>973.5</ele>
        <time>2022-07-31T13:51:50Z</time>
      </trkpt>
      <trkpt lat="44.82619" lon="3.1009">
        <ele>973.5</ele>
        <time>2022-07-31T13:51:51Z</time>
      </trkpt>
      <trkpt lat="44.8262" lon="3.10092">
        <ele>973.6</ele>
        <time>2022-07-31T13:51:53Z</time>
      </trkpt>
      <trkpt lat="44.8262" lon="3.10094">
        <ele>973.6</ele>
        <time>2022-07-31T13:51:54Z</time>
      </trkpt>
      <trkpt lat="44.82621" lon="3.10097">
        <ele>973.8</ele>
        <time>2022-07-31T13:51:56Z</time>
      </trkpt>
      <trkpt lat="44.82621" lon="3.10099">
        <ele>973.9</ele>
        <time>2022-07-31T13:51:57Z</time>
      </trkpt>
      <trkpt lat="44.82621" lon="3.101">
        <ele>973.9</ele>
        <time>2022-07-31T13:51:58Z</time>
      </trkpt>
      <trkpt lat="44.82622" lon="3.10101">
        <ele>974</ele>
        <time>2022-07-31T13:51:59Z</time>
      </trkpt>
      <trkpt lat="44.82622" lon="3.10102">
        <ele>974</ele>
        <time>2022-07-31T13:52:00Z</time>
      </trkpt>
      <trkpt lat="44.82623" lon="3.10103">
        <ele>974</ele>
        <time>2022-07-31T13:52:01Z</time>
      </trkpt>
      <trkpt lat="44.82625" lon="3.10105">
        <ele>974.1</ele>
        <time>2022-07-31T13:52:03Z</time>
      </trkpt>
      <trkpt lat="44.82626" lon="3.10107">
        <ele>974.2</ele>
        <time>2022-07-31T13:52:05Z</time>
      </trkpt>
      <trkpt lat="44.82627" lon="3.10108">
        <ele>974.2</ele>
        <time>2022-07-31T13:52:06Z</time>
      </trkpt>
      <trkpt lat="44.82627" lon="3.10109">
        <ele>974.3</ele>
        <time>2022-07-31T13:52:07Z</time>
      </trkpt>
      <trkpt lat="44.82628" lon="3.1011">
        <ele>974.3</ele>
        <time>2022-07-31T13:52:08Z</time>
      </trkpt>
      <trkpt lat="44.82629" lon="3.10111">
        <ele>974.3</ele>
        <time>2022-07-31T13:52:09Z</time>
      </trkpt>
      <trkpt lat="44.8263" lon="3.10112">
        <ele>974.4</ele>
        <time>2022-07-31T13:52:10Z</time>
      </trkpt>
      <trkpt lat="44.8263" lon="3.10113">
        <ele>974.4</ele>
        <time>2022-07-31T13:52:11Z</time>
      </trkpt>
      <trkpt lat="44.82631" lon="3.10114">
        <ele>974.5</ele>
        <time>2022-07-31T13:52:12Z</time>
      </trkpt>
      <trkpt lat="44.82632" lon="3.10115">
        <ele>974.5</ele>
        <time>2022-07-31T13:52:13Z</time>
      </trkpt>
      <trkpt lat="44.82632" lon="3.10117">
        <ele>974.6</ele>
        <time>2022-07-31T13:52:14Z</time>
      </trkpt>
      <trkpt lat="44.82633" lon="3.10117">
        <ele>974.7</ele>
        <time>2022-07-31T13:52:15Z</time>
      </trkpt>
      <trkpt lat="44.82634" lon="3.10119">
        <ele>974.7</ele>
        <time>2022-07-31T13:52:16Z</time>
      </trkpt>
      <trkpt lat="44.82635" lon="3.1012">
        <ele>974.8</ele>
        <time>2022-07-31T13:52:17Z</time>
      </trkpt>
      <trkpt lat="44.82636" lon="3.10121">
        <ele>974.8</ele>
        <time>2022-07-31T13:52:18Z</time>
      </trkpt>
      <trkpt lat="44.82637" lon="3.10122">
        <ele>974.8</ele>
        <time>2022-07-31T13:52:19Z</time>
      </trkpt>
      <trkpt lat="44.82637" lon="3.10123">
        <ele>974.9</ele>
        <time>2022-07-31T13:52:20Z</time>
      </trkpt>
      <trkpt lat="44.82637" lon="3.10123">
        <ele>974.9</ele>
        <time>2022-07-31T13:52:21Z</time>
      </trkpt>
      <trkpt lat="44.82637" lon="3.10123">
        <ele>974.9</ele>
        <time>2022-07-31T13:52:24Z</time>
      </trkpt>
      <trkpt lat="44.82637" lon="3.10123">
        <ele>974.9</ele>
        <time>2022-07-31T13:52:25Z</time>
      </trkpt>
      <trkpt lat="44.82637" lon="3.10123">
        <ele>974.9</ele>
        <time>2022-07-31T13:52:26Z</time>
      </trkpt>
      <trkpt lat="44.82637" lon="3.10124">
        <ele>974.9</ele>
        <time>2022-07-31T13:52:27Z</time>
      </trkpt>
      <trkpt lat="44.82638" lon="3.10124">
        <ele>975</ele>
        <time>2022-07-31T13:52:28Z</time>
      </trkpt>
      <trkpt lat="44.82639" lon="3.10125">
        <ele>975</ele>
        <time>2022-07-31T13:52:30Z</time>
      </trkpt>
      <trkpt lat="44.82639" lon="3.10125">
        <ele>975</ele>
        <time>2022-07-31T13:52:31Z</time>
      </trkpt>
      <trkpt lat="44.82639" lon="3.10125">
        <ele>975</ele>
        <time>2022-07-31T13:52:39Z</time>
      </trkpt>
      <trkpt lat="44.82638" lon="3.10125">
        <ele>975</ele>
        <time>2022-07-31T13:52:41Z</time>
      </trkpt>
      <trkpt lat="44.82638" lon="3.10125">
        <ele>975.1</ele>
        <time>2022-07-31T13:52:46Z</time>
      </trkpt>
      <trkpt lat="44.82638" lon="3.10125">
        <ele>975.1</ele>
        <time>2022-07-31T13:52:48Z</time>
      </trkpt>
      <trkpt lat="44.82641" lon="3.1013">
        <ele>975.2</ele>
        <time>2022-07-31T13:52:52Z</time>
      </trkpt>
      <trkpt lat="44.82648" lon="3.10139">
        <ele>975.4</ele>
        <time>2022-07-31T13:52:59Z</time>
      </trkpt>
      <trkpt lat="44.82647" lon="3.10139">
        <ele>975.4</ele>
        <time>2022-07-31T13:53:02Z</time>
      </trkpt>
      <trkpt lat="44.8265" lon="3.10141">
        <ele>975.2</ele>
        <time>2022-07-31T13:53:05Z</time>
      </trkpt>
      <trkpt lat="44.82651" lon="3.10142">
        <ele>975.2</ele>
        <time>2022-07-31T13:53:06Z</time>
      </trkpt>
      <trkpt lat="44.82655" lon="3.10151">
        <ele>974.8</ele>
        <time>2022-07-31T13:53:12Z</time>
      </trkpt>
      <trkpt lat="44.82655" lon="3.10152">
        <ele>974.7</ele>
        <time>2022-07-31T13:53:17Z</time>
      </trkpt>
      <trkpt lat="44.82655" lon="3.10152">
        <ele>974.7</ele>
        <time>2022-07-31T13:53:20Z</time>
      </trkpt>
      <trkpt lat="44.82655" lon="3.10152">
        <ele>974.8</ele>
        <time>2022-07-31T13:53:22Z</time>
      </trkpt>
      <trkpt lat="44.82654" lon="3.10152">
        <ele>974.8</ele>
        <time>2022-07-31T13:53:23Z</time>
      </trkpt>
      <trkpt lat="44.82655" lon="3.10152">
        <ele>974.7</ele>
        <time>2022-07-31T13:53:25Z</time>
      </trkpt>
      <trkpt lat="44.82655" lon="3.10152">
        <ele>974.7</ele>
        <time>2022-07-31T13:53:26Z</time>
      </trkpt>
      <trkpt lat="44.82655" lon="3.10152">
        <ele>974.7</ele>
        <time>2022-07-31T13:53:27Z</time>
      </trkpt>
      <trkpt lat="44.82655" lon="3.10152">
        <ele>974.7</ele>
        <time>2022-07-31T13:53:29Z</time>
      </trkpt>
      <trkpt lat="44.82656" lon="3.10155">
        <ele>974.5</ele>
        <time>2022-07-31T13:53:32Z</time>
      </trkpt>
      <trkpt lat="44.82657" lon="3.10156">
        <ele>974.4</ele>
        <time>2022-07-31T13:53:33Z</time>
      </trkpt>
      <trkpt lat="44.82657" lon="3.10158">
        <ele>974.3</ele>
        <time>2022-07-31T13:53:34Z</time>
      </trkpt>
      <trkpt lat="44.82659" lon="3.10162">
        <ele>973.9</ele>
        <time>2022-07-31T13:53:36Z</time>
      </trkpt>
      <trkpt lat="44.8266" lon="3.10164">
        <ele>973.6</ele>
        <time>2022-07-31T13:53:37Z</time>
      </trkpt>
      <trkpt lat="44.82661" lon="3.10169">
        <ele>973.3</ele>
        <time>2022-07-31T13:53:38Z</time>
      </trkpt>
      <trkpt lat="44.82662" lon="3.10176">
        <ele>972.7</ele>
        <time>2022-07-31T13:53:43Z</time>
      </trkpt>
      <trkpt lat="44.82663" lon="3.10183">
        <ele>972.3</ele>
        <time>2022-07-31T13:53:47Z</time>
      </trkpt>
      <trkpt lat="44.82663" lon="3.10185">
        <ele>972.3</ele>
        <time>2022-07-31T13:53:48Z</time>
      </trkpt>
      <trkpt lat="44.82663" lon="3.10189">
        <ele>972.2</ele>
        <time>2022-07-31T13:53:50Z</time>
      </trkpt>
      <trkpt lat="44.82663" lon="3.1019">
        <ele>972.1</ele>
        <time>2022-07-31T13:53:51Z</time>
      </trkpt>
      <trkpt lat="44.82663" lon="3.10191">
        <ele>971.9</ele>
        <time>2022-07-31T13:53:52Z</time>
      </trkpt>
      <trkpt lat="44.82664" lon="3.10193">
        <ele>971.7</ele>
        <time>2022-07-31T13:53:53Z</time>
      </trkpt>
      <trkpt lat="44.82665" lon="3.10194">
        <ele>971.5</ele>
        <time>2022-07-31T13:53:54Z</time>
      </trkpt>
      <trkpt lat="44.82666" lon="3.10198">
        <ele>971.3</ele>
        <time>2022-07-31T13:53:56Z</time>
      </trkpt>
      <trkpt lat="44.82667" lon="3.10201">
        <ele>971.2</ele>
        <time>2022-07-31T13:53:58Z</time>
      </trkpt>
      <trkpt lat="44.82667" lon="3.10202">
        <ele>971.1</ele>
        <time>2022-07-31T13:53:59Z</time>
      </trkpt>
      <trkpt lat="44.82668" lon="3.10203">
        <ele>971</ele>
        <time>2022-07-31T13:54:00Z</time>
      </trkpt>
      <trkpt lat="44.82669" lon="3.10205">
        <ele>970.8</ele>
        <time>2022-07-31T13:54:01Z</time>
      </trkpt>
      <trkpt lat="44.8267" lon="3.10206">
        <ele>970.7</ele>
        <time>2022-07-31T13:54:02Z</time>
      </trkpt>
      <trkpt lat="44.82671" lon="3.10207">
        <ele>970.5</ele>
        <time>2022-07-31T13:54:03Z</time>
      </trkpt>
      <trkpt lat="44.82672" lon="3.10209">
        <ele>970.4</ele>
        <time>2022-07-31T13:54:04Z</time>
      </trkpt>
      <trkpt lat="44.82673" lon="3.1021">
        <ele>970.3</ele>
        <time>2022-07-31T13:54:05Z</time>
      </trkpt>
      <trkpt lat="44.82674" lon="3.10213">
        <ele>970.1</ele>
        <time>2022-07-31T13:54:07Z</time>
      </trkpt>
      <trkpt lat="44.82676" lon="3.10215">
        <ele>969.8</ele>
        <time>2022-07-31T13:54:09Z</time>
      </trkpt>
      <trkpt lat="44.82678" lon="3.10217">
        <ele>969.6</ele>
        <time>2022-07-31T13:54:11Z</time>
      </trkpt>
      <trkpt lat="44.82681" lon="3.1022">
        <ele>969.2</ele>
        <time>2022-07-31T13:54:14Z</time>
      </trkpt>
      <trkpt lat="44.82682" lon="3.10222">
        <ele>969.2</ele>
        <time>2022-07-31T13:54:15Z</time>
      </trkpt>
      <trkpt lat="44.82683" lon="3.10223">
        <ele>969.1</ele>
        <time>2022-07-31T13:54:16Z</time>
      </trkpt>
      <trkpt lat="44.82685" lon="3.10224">
        <ele>969.1</ele>
        <time>2022-07-31T13:54:17Z</time>
      </trkpt>
      <trkpt lat="44.82686" lon="3.10225">
        <ele>969</ele>
        <time>2022-07-31T13:54:18Z</time>
      </trkpt>
      <trkpt lat="44.82687" lon="3.10226">
        <ele>969</ele>
        <time>2022-07-31T13:54:19Z</time>
      </trkpt>
      <trkpt lat="44.82689" lon="3.10228">
        <ele>969.1</ele>
        <time>2022-07-31T13:54:21Z</time>
      </trkpt>
      <trkpt lat="44.8269" lon="3.1023">
        <ele>969.1</ele>
        <time>2022-07-31T13:54:22Z</time>
      </trkpt>
      <trkpt lat="44.82691" lon="3.10231">
        <ele>969.1</ele>
        <time>2022-07-31T13:54:23Z</time>
      </trkpt>
      <trkpt lat="44.82693" lon="3.10233">
        <ele>969.1</ele>
        <time>2022-07-31T13:54:25Z</time>
      </trkpt>
      <trkpt lat="44.82693" lon="3.10234">
        <ele>969.1</ele>
        <time>2022-07-31T13:54:26Z</time>
      </trkpt>
      <trkpt lat="44.82694" lon="3.10236">
        <ele>969</ele>
        <time>2022-07-31T13:54:27Z</time>
      </trkpt>
      <trkpt lat="44.82696" lon="3.10238">
        <ele>969</ele>
        <time>2022-07-31T13:54:29Z</time>
      </trkpt>
      <trkpt lat="44.82699" lon="3.10241">
        <ele>968.8</ele>
        <time>2022-07-31T13:54:32Z</time>
      </trkpt>
      <trkpt lat="44.82702" lon="3.10244">
        <ele>968.5</ele>
        <time>2022-07-31T13:54:35Z</time>
      </trkpt>
      <trkpt lat="44.82703" lon="3.10247">
        <ele>968.6</ele>
        <time>2022-07-31T13:54:37Z</time>
      </trkpt>
      <trkpt lat="44.82704" lon="3.10248">
        <ele>968.7</ele>
        <time>2022-07-31T13:54:38Z</time>
      </trkpt>
      <trkpt lat="44.82705" lon="3.10251">
        <ele>968.9</ele>
        <time>2022-07-31T13:54:40Z</time>
      </trkpt>
      <trkpt lat="44.82706" lon="3.10252">
        <ele>968.9</ele>
        <time>2022-07-31T13:54:41Z</time>
      </trkpt>
      <trkpt lat="44.82707" lon="3.10254">
        <ele>969</ele>
        <time>2022-07-31T13:54:43Z</time>
      </trkpt>
      <trkpt lat="44.82711" lon="3.10261">
        <ele>969.1</ele>
        <time>2022-07-31T13:54:48Z</time>
      </trkpt>
      <trkpt lat="44.82713" lon="3.10268">
        <ele>969.3</ele>
        <time>2022-07-31T13:54:52Z</time>
      </trkpt>
      <trkpt lat="44.82713" lon="3.10269">
        <ele>969.6</ele>
        <time>2022-07-31T13:54:55Z</time>
      </trkpt>
      <trkpt lat="44.82714" lon="3.1027">
        <ele>969.2</ele>
        <time>2022-07-31T13:54:57Z</time>
      </trkpt>
      <trkpt lat="44.82718" lon="3.10276">
        <ele>968.6</ele>
        <time>2022-07-31T13:55:01Z</time>
      </trkpt>
      <trkpt lat="44.8272" lon="3.10278">
        <ele>967.9</ele>
        <time>2022-07-31T13:55:03Z</time>
      </trkpt>
      <trkpt lat="44.82722" lon="3.10281">
        <ele>967.7</ele>
        <time>2022-07-31T13:55:06Z</time>
      </trkpt>
      <trkpt lat="44.82724" lon="3.10287">
        <ele>967.8</ele>
        <time>2022-07-31T13:55:10Z</time>
      </trkpt>
      <trkpt lat="44.82724" lon="3.10288">
        <ele>967.7</ele>
        <time>2022-07-31T13:55:11Z</time>
      </trkpt>
      <trkpt lat="44.82729" lon="3.10297">
        <ele>967.2</ele>
        <time>2022-07-31T13:55:17Z</time>
      </trkpt>
      <trkpt lat="44.82731" lon="3.10302">
        <ele>967</ele>
        <time>2022-07-31T13:55:20Z</time>
      </trkpt>
      <trkpt lat="44.82733" lon="3.10308">
        <ele>966.6</ele>
        <time>2022-07-31T13:55:24Z</time>
      </trkpt>
      <trkpt lat="44.82734" lon="3.10312">
        <ele>966.4</ele>
        <time>2022-07-31T13:55:26Z</time>
      </trkpt>
      <trkpt lat="44.82734" lon="3.10315">
        <ele>966.4</ele>
        <time>2022-07-31T13:55:28Z</time>
      </trkpt>
      <trkpt lat="44.82736" lon="3.1032">
        <ele>965.8</ele>
        <time>2022-07-31T13:55:31Z</time>
      </trkpt>
      <trkpt lat="44.82737" lon="3.10324">
        <ele>965.2</ele>
        <time>2022-07-31T13:55:33Z</time>
      </trkpt>
      <trkpt lat="44.82739" lon="3.10333">
        <ele>964.7</ele>
        <time>2022-07-31T13:55:40Z</time>
      </trkpt>
      <trkpt lat="44.82739" lon="3.10333">
        <ele>964.7</ele>
        <time>2022-07-31T13:55:42Z</time>
      </trkpt>
      <trkpt lat="44.82739" lon="3.10333">
        <ele>964.7</ele>
        <time>2022-07-31T13:55:43Z</time>
      </trkpt>
      <trkpt lat="44.82739" lon="3.10334">
        <ele>964.6</ele>
        <time>2022-07-31T13:55:44Z</time>
      </trkpt>
      <trkpt lat="44.82739" lon="3.10336">
        <ele>964.6</ele>
        <time>2022-07-31T13:55:46Z</time>
      </trkpt>
      <trkpt lat="44.82739" lon="3.10338">
        <ele>964.7</ele>
        <time>2022-07-31T13:55:48Z</time>
      </trkpt>
      <trkpt lat="44.82739" lon="3.10343">
        <ele>964.6</ele>
        <time>2022-07-31T13:55:50Z</time>
      </trkpt>
      <trkpt lat="44.82743" lon="3.10351">
        <ele>962.8</ele>
        <time>2022-07-31T13:55:55Z</time>
      </trkpt>
      <trkpt lat="44.82744" lon="3.10356">
        <ele>962</ele>
        <time>2022-07-31T13:55:58Z</time>
      </trkpt>
      <trkpt lat="44.82746" lon="3.1036">
        <ele>961.1</ele>
        <time>2022-07-31T13:56:01Z</time>
      </trkpt>
      <trkpt lat="44.82746" lon="3.10362">
        <ele>961.1</ele>
        <time>2022-07-31T13:56:02Z</time>
      </trkpt>
      <trkpt lat="44.82751" lon="3.10374">
        <ele>960.3</ele>
        <time>2022-07-31T13:56:09Z</time>
      </trkpt>
      <trkpt lat="44.82755" lon="3.10384">
        <ele>960.4</ele>
        <time>2022-07-31T13:56:17Z</time>
      </trkpt>
      <trkpt lat="44.82755" lon="3.10385">
        <ele>960.5</ele>
        <time>2022-07-31T13:56:18Z</time>
      </trkpt>
      <trkpt lat="44.82755" lon="3.10386">
        <ele>960.6</ele>
        <time>2022-07-31T13:56:20Z</time>
      </trkpt>
      <trkpt lat="44.82757" lon="3.1039">
        <ele>960.6</ele>
        <time>2022-07-31T13:56:23Z</time>
      </trkpt>
      <trkpt lat="44.82758" lon="3.10391">
        <ele>960.5</ele>
        <time>2022-07-31T13:56:25Z</time>
      </trkpt>
      <trkpt lat="44.8276" lon="3.10392">
        <ele>960.2</ele>
        <time>2022-07-31T13:56:27Z</time>
      </trkpt>
      <trkpt lat="44.82761" lon="3.10393">
        <ele>960.1</ele>
        <time>2022-07-31T13:56:28Z</time>
      </trkpt>
      <trkpt lat="44.82765" lon="3.10396">
        <ele>959.5</ele>
        <time>2022-07-31T13:56:32Z</time>
      </trkpt>
      <trkpt lat="44.82772" lon="3.10402">
        <ele>958.5</ele>
        <time>2022-07-31T13:56:36Z</time>
      </trkpt>
      <trkpt lat="44.82774" lon="3.10405">
        <ele>958</ele>
        <time>2022-07-31T13:56:40Z</time>
      </trkpt>
      <trkpt lat="44.82776" lon="3.10407">
        <ele>957.8</ele>
        <time>2022-07-31T13:56:42Z</time>
      </trkpt>
      <trkpt lat="44.82778" lon="3.1041">
        <ele>957.6</ele>
        <time>2022-07-31T13:56:44Z</time>
      </trkpt>
      <trkpt lat="44.82785" lon="3.10418">
        <ele>956.3</ele>
        <time>2022-07-31T13:56:50Z</time>
      </trkpt>
      <trkpt lat="44.82786" lon="3.1042">
        <ele>956.1</ele>
        <time>2022-07-31T13:56:52Z</time>
      </trkpt>
      <trkpt lat="44.82787" lon="3.10424">
        <ele>956.1</ele>
        <time>2022-07-31T13:56:54Z</time>
      </trkpt>
      <trkpt lat="44.82788" lon="3.10427">
        <ele>955.9</ele>
        <time>2022-07-31T13:56:56Z</time>
      </trkpt>
      <trkpt lat="44.82789" lon="3.10428">
        <ele>955.8</ele>
        <time>2022-07-31T13:56:57Z</time>
      </trkpt>
      <trkpt lat="44.8279" lon="3.1043">
        <ele>955.8</ele>
        <time>2022-07-31T13:56:58Z</time>
      </trkpt>
      <trkpt lat="44.8279" lon="3.10432">
        <ele>955.7</ele>
        <time>2022-07-31T13:56:59Z</time>
      </trkpt>
      <trkpt lat="44.82791" lon="3.10433">
        <ele>955.5</ele>
        <time>2022-07-31T13:57:01Z</time>
      </trkpt>
      <trkpt lat="44.82791" lon="3.10436">
        <ele>955.6</ele>
        <time>2022-07-31T13:57:03Z</time>
      </trkpt>
      <trkpt lat="44.82791" lon="3.10437">
        <ele>955.8</ele>
        <time>2022-07-31T13:57:04Z</time>
      </trkpt>
      <trkpt lat="44.82791" lon="3.10438">
        <ele>955.8</ele>
        <time>2022-07-31T13:57:05Z</time>
      </trkpt>
      <trkpt lat="44.82791" lon="3.1044">
        <ele>955.9</ele>
        <time>2022-07-31T13:57:06Z</time>
      </trkpt>
      <trkpt lat="44.82791" lon="3.10445">
        <ele>956.2</ele>
        <time>2022-07-31T13:57:09Z</time>
      </trkpt>
      <trkpt lat="44.82791" lon="3.10451">
        <ele>955.9</ele>
        <time>2022-07-31T13:57:12Z</time>
      </trkpt>
      <trkpt lat="44.82791" lon="3.10453">
        <ele>955.8</ele>
        <time>2022-07-31T13:57:13Z</time>
      </trkpt>
      <trkpt lat="44.82791" lon="3.10458">
        <ele>955.7</ele>
        <time>2022-07-31T13:57:16Z</time>
      </trkpt>
      <trkpt lat="44.8279" lon="3.10462">
        <ele>955.8</ele>
        <time>2022-07-31T13:57:18Z</time>
      </trkpt>
      <trkpt lat="44.82789" lon="3.10474">
        <ele>955.7</ele>
        <time>2022-07-31T13:57:24Z</time>
      </trkpt>
      <trkpt lat="44.82788" lon="3.10483">
        <ele>955.9</ele>
        <time>2022-07-31T13:57:29Z</time>
      </trkpt>
      <trkpt lat="44.82789" lon="3.10484">
        <ele>955.6</ele>
        <time>2022-07-31T13:57:30Z</time>
      </trkpt>
      <trkpt lat="44.82789" lon="3.10486">
        <ele>955.4</ele>
        <time>2022-07-31T13:57:31Z</time>
      </trkpt>
      <trkpt lat="44.82789" lon="3.10492">
        <ele>955.4</ele>
        <time>2022-07-31T13:57:35Z</time>
      </trkpt>
      <trkpt lat="44.82788" lon="3.10495">
        <ele>955.4</ele>
        <time>2022-07-31T13:57:36Z</time>
      </trkpt>
      <trkpt lat="44.82788" lon="3.10498">
        <ele>955.4</ele>
        <time>2022-07-31T13:57:38Z</time>
      </trkpt>
      <trkpt lat="44.82788" lon="3.10502">
        <ele>955.2</ele>
        <time>2022-07-31T13:57:40Z</time>
      </trkpt>
      <trkpt lat="44.82789" lon="3.10503">
        <ele>955.1</ele>
        <time>2022-07-31T13:57:41Z</time>
      </trkpt>
      <trkpt lat="44.82789" lon="3.10506">
        <ele>954.8</ele>
        <time>2022-07-31T13:57:43Z</time>
      </trkpt>
      <trkpt lat="44.82787" lon="3.10521">
        <ele>954.4</ele>
        <time>2022-07-31T13:57:52Z</time>
      </trkpt>
      <trkpt lat="44.82786" lon="3.10541">
        <ele>953.4</ele>
        <time>2022-07-31T13:58:04Z</time>
      </trkpt>
      <trkpt lat="44.82784" lon="3.10548">
        <ele>953.1</ele>
        <time>2022-07-31T13:58:08Z</time>
      </trkpt>
      <trkpt lat="44.82785" lon="3.10559">
        <ele>952.2</ele>
        <time>2022-07-31T13:58:14Z</time>
      </trkpt>
      <trkpt lat="44.82785" lon="3.1057">
        <ele>951.5</ele>
        <time>2022-07-31T13:58:20Z</time>
      </trkpt>
      <trkpt lat="44.82786" lon="3.10572">
        <ele>951.2</ele>
        <time>2022-07-31T13:58:21Z</time>
      </trkpt>
      <trkpt lat="44.82787" lon="3.10574">
        <ele>951</ele>
        <time>2022-07-31T13:58:22Z</time>
      </trkpt>
      <trkpt lat="44.82785" lon="3.10581">
        <ele>950.8</ele>
        <time>2022-07-31T13:58:27Z</time>
      </trkpt>
      <trkpt lat="44.82784" lon="3.10586">
        <ele>950.7</ele>
        <time>2022-07-31T13:58:30Z</time>
      </trkpt>
      <trkpt lat="44.82784" lon="3.10592">
        <ele>950.4</ele>
        <time>2022-07-31T13:58:34Z</time>
      </trkpt>
      <trkpt lat="44.82784" lon="3.10593">
        <ele>950.4</ele>
        <time>2022-07-31T13:58:35Z</time>
      </trkpt>
      <trkpt lat="44.82783" lon="3.10594">
        <ele>950.5</ele>
        <time>2022-07-31T13:58:36Z</time>
      </trkpt>
      <trkpt lat="44.82783" lon="3.10594">
        <ele>950.5</ele>
        <time>2022-07-31T13:58:38Z</time>
      </trkpt>
      <trkpt lat="44.82783" lon="3.10594">
        <ele>950.5</ele>
        <time>2022-07-31T13:58:39Z</time>
      </trkpt>
      <trkpt lat="44.82783" lon="3.10594">
        <ele>950.5</ele>
        <time>2022-07-31T13:58:40Z</time>
      </trkpt>
      <trkpt lat="44.82783" lon="3.10593">
        <ele>950.6</ele>
        <time>2022-07-31T13:58:42Z</time>
      </trkpt>
      <trkpt lat="44.82783" lon="3.10594">
        <ele>950.5</ele>
        <time>2022-07-31T13:58:45Z</time>
      </trkpt>
      <trkpt lat="44.82783" lon="3.10594">
        <ele>950.5</ele>
        <time>2022-07-31T13:58:50Z</time>
      </trkpt>
      <trkpt lat="44.82782" lon="3.10601">
        <ele>950.2</ele>
        <time>2022-07-31T13:59:15Z</time>
      </trkpt>
      <trkpt lat="44.82778" lon="3.1061">
        <ele>950</ele>
        <time>2022-07-31T13:59:20Z</time>
      </trkpt>
      <trkpt lat="44.82776" lon="3.10615">
        <ele>950</ele>
        <time>2022-07-31T13:59:24Z</time>
      </trkpt>
      <trkpt lat="44.82776" lon="3.10617">
        <ele>949.9</ele>
        <time>2022-07-31T13:59:25Z</time>
      </trkpt>
      <trkpt lat="44.82777" lon="3.10618">
        <ele>949.9</ele>
        <time>2022-07-31T13:59:26Z</time>
      </trkpt>
      <trkpt lat="44.82778" lon="3.10628">
        <ele>949.4</ele>
        <time>2022-07-31T13:59:32Z</time>
      </trkpt>
      <trkpt lat="44.82778" lon="3.10636">
        <ele>949.1</ele>
        <time>2022-07-31T13:59:37Z</time>
      </trkpt>
      <trkpt lat="44.82779" lon="3.10638">
        <ele>949</ele>
        <time>2022-07-31T13:59:38Z</time>
      </trkpt>
      <trkpt lat="44.82779" lon="3.1064">
        <ele>948.9</ele>
        <time>2022-07-31T13:59:39Z</time>
      </trkpt>
      <trkpt lat="44.82779" lon="3.10643">
        <ele>948.8</ele>
        <time>2022-07-31T13:59:41Z</time>
      </trkpt>
      <trkpt lat="44.82779" lon="3.10645">
        <ele>948.7</ele>
        <time>2022-07-31T13:59:42Z</time>
      </trkpt>
      <trkpt lat="44.82779" lon="3.10648">
        <ele>948.6</ele>
        <time>2022-07-31T13:59:44Z</time>
      </trkpt>
      <trkpt lat="44.82779" lon="3.10649">
        <ele>948.6</ele>
        <time>2022-07-31T13:59:45Z</time>
      </trkpt>
      <trkpt lat="44.8278" lon="3.10651">
        <ele>948.5</ele>
        <time>2022-07-31T13:59:46Z</time>
      </trkpt>
      <trkpt lat="44.82781" lon="3.10653">
        <ele>948.4</ele>
        <time>2022-07-31T13:59:47Z</time>
      </trkpt>
      <trkpt lat="44.82781" lon="3.10655">
        <ele>948.3</ele>
        <time>2022-07-31T13:59:48Z</time>
      </trkpt>
      <trkpt lat="44.8278" lon="3.10656">
        <ele>948.3</ele>
        <time>2022-07-31T13:59:49Z</time>
      </trkpt>
      <trkpt lat="44.8278" lon="3.1066">
        <ele>948.2</ele>
        <time>2022-07-31T13:59:51Z</time>
      </trkpt>
      <trkpt lat="44.82781" lon="3.10661">
        <ele>948.2</ele>
        <time>2022-07-31T13:59:52Z</time>
      </trkpt>
      <trkpt lat="44.82782" lon="3.10662">
        <ele>948.1</ele>
        <time>2022-07-31T13:59:53Z</time>
      </trkpt>
      <trkpt lat="44.82782" lon="3.10664">
        <ele>948.1</ele>
        <time>2022-07-31T13:59:54Z</time>
      </trkpt>
      <trkpt lat="44.82783" lon="3.10669">
        <ele>947.9</ele>
        <time>2022-07-31T13:59:57Z</time>
      </trkpt>
      <trkpt lat="44.82783" lon="3.10675">
        <ele>947.6</ele>
        <time>2022-07-31T14:00:01Z</time>
      </trkpt>
      <trkpt lat="44.82782" lon="3.10678">
        <ele>947.5</ele>
        <time>2022-07-31T14:00:03Z</time>
      </trkpt>
      <trkpt lat="44.82782" lon="3.10679">
        <ele>947.3</ele>
        <time>2022-07-31T14:00:04Z</time>
      </trkpt>
      <trkpt lat="44.82781" lon="3.10681">
        <ele>947.2</ele>
        <time>2022-07-31T14:00:05Z</time>
      </trkpt>
      <trkpt lat="44.82781" lon="3.10681">
        <ele>947.2</ele>
        <time>2022-07-31T14:00:06Z</time>
      </trkpt>
      <trkpt lat="44.82779" lon="3.10685">
        <ele>946.8</ele>
        <time>2022-07-31T14:00:08Z</time>
      </trkpt>
      <trkpt lat="44.82777" lon="3.10687">
        <ele>946.5</ele>
        <time>2022-07-31T14:00:10Z</time>
      </trkpt>
      <trkpt lat="44.82776" lon="3.10689">
        <ele>946.5</ele>
        <time>2022-07-31T14:00:11Z</time>
      </trkpt>
      <trkpt lat="44.82775" lon="3.1069">
        <ele>946.4</ele>
        <time>2022-07-31T14:00:12Z</time>
      </trkpt>
      <trkpt lat="44.82774" lon="3.10693">
        <ele>946.3</ele>
        <time>2022-07-31T14:00:14Z</time>
      </trkpt>
      <trkpt lat="44.82771" lon="3.10702">
        <ele>946.1</ele>
        <time>2022-07-31T14:00:20Z</time>
      </trkpt>
      <trkpt lat="44.82769" lon="3.10705">
        <ele>946</ele>
        <time>2022-07-31T14:00:22Z</time>
      </trkpt>
      <trkpt lat="44.82769" lon="3.10706">
        <ele>945.9</ele>
        <time>2022-07-31T14:00:23Z</time>
      </trkpt>
      <trkpt lat="44.82768" lon="3.1071">
        <ele>945.8</ele>
        <time>2022-07-31T14:00:25Z</time>
      </trkpt>
      <trkpt lat="44.82768" lon="3.10711">
        <ele>945.7</ele>
        <time>2022-07-31T14:00:26Z</time>
      </trkpt>
      <trkpt lat="44.82766" lon="3.10715">
        <ele>945.5</ele>
        <time>2022-07-31T14:00:28Z</time>
      </trkpt>
      <trkpt lat="44.82765" lon="3.10717">
        <ele>945.3</ele>
        <time>2022-07-31T14:00:30Z</time>
      </trkpt>
      <trkpt lat="44.82763" lon="3.1072">
        <ele>945.1</ele>
        <time>2022-07-31T14:00:33Z</time>
      </trkpt>
      <trkpt lat="44.82763" lon="3.10721">
        <ele>945</ele>
        <time>2022-07-31T14:00:35Z</time>
      </trkpt>
      <trkpt lat="44.82762" lon="3.10722">
        <ele>944.9</ele>
        <time>2022-07-31T14:00:36Z</time>
      </trkpt>
      <trkpt lat="44.82761" lon="3.10723">
        <ele>944.8</ele>
        <time>2022-07-31T14:00:38Z</time>
      </trkpt>
      <trkpt lat="44.8276" lon="3.10724">
        <ele>944.6</ele>
        <time>2022-07-31T14:00:39Z</time>
      </trkpt>
      <trkpt lat="44.82758" lon="3.10727">
        <ele>944.4</ele>
        <time>2022-07-31T14:00:41Z</time>
      </trkpt>
      <trkpt lat="44.82756" lon="3.10729">
        <ele>944.1</ele>
        <time>2022-07-31T14:00:43Z</time>
      </trkpt>
      <trkpt lat="44.82755" lon="3.1073">
        <ele>944</ele>
        <time>2022-07-31T14:00:44Z</time>
      </trkpt>
      <trkpt lat="44.82754" lon="3.10731">
        <ele>943.9</ele>
        <time>2022-07-31T14:00:45Z</time>
      </trkpt>
      <trkpt lat="44.8275" lon="3.10734">
        <ele>943.6</ele>
        <time>2022-07-31T14:00:48Z</time>
      </trkpt>
      <trkpt lat="44.82748" lon="3.10736">
        <ele>943.3</ele>
        <time>2022-07-31T14:00:50Z</time>
      </trkpt>
      <trkpt lat="44.82744" lon="3.10738">
        <ele>942.9</ele>
        <time>2022-07-31T14:00:53Z</time>
      </trkpt>
      <trkpt lat="44.82743" lon="3.10738">
        <ele>942.7</ele>
        <time>2022-07-31T14:00:54Z</time>
      </trkpt>
      <trkpt lat="44.82736" lon="3.10742">
        <ele>941.8</ele>
        <time>2022-07-31T14:01:00Z</time>
      </trkpt>
      <trkpt lat="44.82732" lon="3.10745">
        <ele>940.9</ele>
        <time>2022-07-31T14:01:04Z</time>
      </trkpt>
      <trkpt lat="44.82724" lon="3.10748">
        <ele>939.6</ele>
        <time>2022-07-31T14:01:10Z</time>
      </trkpt>
      <trkpt lat="44.82723" lon="3.10749">
        <ele>939.4</ele>
        <time>2022-07-31T14:01:11Z</time>
      </trkpt>
      <trkpt lat="44.82722" lon="3.10749">
        <ele>939.1</ele>
        <time>2022-07-31T14:01:12Z</time>
      </trkpt>
      <trkpt lat="44.82714" lon="3.10754">
        <ele>938.1</ele>
        <time>2022-07-31T14:01:19Z</time>
      </trkpt>
      <trkpt lat="44.8271" lon="3.10757">
        <ele>937.6</ele>
        <time>2022-07-31T14:01:22Z</time>
      </trkpt>
      <trkpt lat="44.82707" lon="3.10758">
        <ele>937.4</ele>
        <time>2022-07-31T14:01:25Z</time>
      </trkpt>
      <trkpt lat="44.82701" lon="3.10762">
        <ele>936.7</ele>
        <time>2022-07-31T14:01:30Z</time>
      </trkpt>
      <trkpt lat="44.82698" lon="3.10764">
        <ele>936.4</ele>
        <time>2022-07-31T14:01:33Z</time>
      </trkpt>
      <trkpt lat="44.82693" lon="3.10767">
        <ele>936</ele>
        <time>2022-07-31T14:01:37Z</time>
      </trkpt>
      <trkpt lat="44.82691" lon="3.10768">
        <ele>935.9</ele>
        <time>2022-07-31T14:01:39Z</time>
      </trkpt>
      <trkpt lat="44.82689" lon="3.10771">
        <ele>935.6</ele>
        <time>2022-07-31T14:01:41Z</time>
      </trkpt>
      <trkpt lat="44.82688" lon="3.10772">
        <ele>935.5</ele>
        <time>2022-07-31T14:01:42Z</time>
      </trkpt>
      <trkpt lat="44.82684" lon="3.10775">
        <ele>935.2</ele>
        <time>2022-07-31T14:01:46Z</time>
      </trkpt>
      <trkpt lat="44.8268" lon="3.10777">
        <ele>935.2</ele>
        <time>2022-07-31T14:01:49Z</time>
      </trkpt>
      <trkpt lat="44.82677" lon="3.10777">
        <ele>935.4</ele>
        <time>2022-07-31T14:01:52Z</time>
      </trkpt>
      <trkpt lat="44.82676" lon="3.10776">
        <ele>935.6</ele>
        <time>2022-07-31T14:01:54Z</time>
      </trkpt>
      <trkpt lat="44.82676" lon="3.10777">
        <ele>935.5</ele>
        <time>2022-07-31T14:01:55Z</time>
      </trkpt>
      <trkpt lat="44.82676" lon="3.10777">
        <ele>935.5</ele>
        <time>2022-07-31T14:01:56Z</time>
      </trkpt>
      <trkpt lat="44.82675" lon="3.10778">
        <ele>935.4</ele>
        <time>2022-07-31T14:01:57Z</time>
      </trkpt>
      <trkpt lat="44.82674" lon="3.10778">
        <ele>935.5</ele>
        <time>2022-07-31T14:01:58Z</time>
      </trkpt>
      <trkpt lat="44.82672" lon="3.10779">
        <ele>935.4</ele>
        <time>2022-07-31T14:01:59Z</time>
      </trkpt>
      <trkpt lat="44.8267" lon="3.1078">
        <ele>935.4</ele>
        <time>2022-07-31T14:02:01Z</time>
      </trkpt>
      <trkpt lat="44.82669" lon="3.10781">
        <ele>935.4</ele>
        <time>2022-07-31T14:02:02Z</time>
      </trkpt>
      <trkpt lat="44.82667" lon="3.10782">
        <ele>935.4</ele>
        <time>2022-07-31T14:02:04Z</time>
      </trkpt>
      <trkpt lat="44.82663" lon="3.10785">
        <ele>935.7</ele>
        <time>2022-07-31T14:02:08Z</time>
      </trkpt>
      <trkpt lat="44.8266" lon="3.10787">
        <ele>935.8</ele>
        <time>2022-07-31T14:02:10Z</time>
      </trkpt>
      <trkpt lat="44.82657" lon="3.1079">
        <ele>936</ele>
        <time>2022-07-31T14:02:13Z</time>
      </trkpt>
      <trkpt lat="44.8265" lon="3.10798">
        <ele>936.2</ele>
        <time>2022-07-31T14:02:20Z</time>
      </trkpt>
      <trkpt lat="44.82645" lon="3.10802">
        <ele>936.4</ele>
        <time>2022-07-31T14:02:25Z</time>
      </trkpt>
      <trkpt lat="44.82642" lon="3.10805">
        <ele>936.5</ele>
        <time>2022-07-31T14:02:27Z</time>
      </trkpt>
      <trkpt lat="44.82634" lon="3.1081">
        <ele>937.4</ele>
        <time>2022-07-31T14:02:35Z</time>
      </trkpt>
      <trkpt lat="44.82633" lon="3.10811">
        <ele>937.4</ele>
        <time>2022-07-31T14:02:36Z</time>
      </trkpt>
      <trkpt lat="44.82623" lon="3.10817">
        <ele>938.4</ele>
        <time>2022-07-31T14:02:45Z</time>
      </trkpt>
      <trkpt lat="44.8262" lon="3.10818">
        <ele>938.7</ele>
        <time>2022-07-31T14:02:47Z</time>
      </trkpt>
      <trkpt lat="44.82619" lon="3.10818">
        <ele>938.8</ele>
        <time>2022-07-31T14:02:48Z</time>
      </trkpt>
      <trkpt lat="44.82615" lon="3.10822">
        <ele>938.8</ele>
        <time>2022-07-31T14:02:53Z</time>
      </trkpt>
      <trkpt lat="44.82615" lon="3.10822">
        <ele>938.9</ele>
        <time>2022-07-31T14:02:54Z</time>
      </trkpt>
      <trkpt lat="44.82615" lon="3.10821">
        <ele>938.9</ele>
        <time>2022-07-31T14:02:55Z</time>
      </trkpt>
      <trkpt lat="44.82616" lon="3.10821">
        <ele>938.9</ele>
        <time>2022-07-31T14:02:57Z</time>
      </trkpt>
      <trkpt lat="44.82616" lon="3.10821">
        <ele>938.8</ele>
        <time>2022-07-31T14:02:58Z</time>
      </trkpt>
      <trkpt lat="44.82617" lon="3.10822">
        <ele>938.4</ele>
        <time>2022-07-31T14:03:00Z</time>
      </trkpt>
      <trkpt lat="44.82614" lon="3.10824">
        <ele>938.6</ele>
        <time>2022-07-31T14:03:02Z</time>
      </trkpt>
      <trkpt lat="44.82611" lon="3.10825">
        <ele>938.9</ele>
        <time>2022-07-31T14:03:04Z</time>
      </trkpt>
      <trkpt lat="44.82607" lon="3.10826">
        <ele>939.2</ele>
        <time>2022-07-31T14:03:07Z</time>
      </trkpt>
      <trkpt lat="44.82606" lon="3.10827">
        <ele>939.2</ele>
        <time>2022-07-31T14:03:08Z</time>
      </trkpt>
      <trkpt lat="44.82599" lon="3.10833">
        <ele>939</ele>
        <time>2022-07-31T14:03:14Z</time>
      </trkpt>
      <trkpt lat="44.82597" lon="3.10833">
        <ele>939</ele>
        <time>2022-07-31T14:03:15Z</time>
      </trkpt>
      <trkpt lat="44.82596" lon="3.10834">
        <ele>939.1</ele>
        <time>2022-07-31T14:03:16Z</time>
      </trkpt>
      <trkpt lat="44.82594" lon="3.10836">
        <ele>939</ele>
        <time>2022-07-31T14:03:18Z</time>
      </trkpt>
      <trkpt lat="44.82589" lon="3.10839">
        <ele>939.3</ele>
        <time>2022-07-31T14:03:22Z</time>
      </trkpt>
      <trkpt lat="44.82584" lon="3.10845">
        <ele>938.8</ele>
        <time>2022-07-31T14:03:30Z</time>
      </trkpt>
      <trkpt lat="44.82583" lon="3.10846">
        <ele>938.7</ele>
        <time>2022-07-31T14:03:31Z</time>
      </trkpt>
      <trkpt lat="44.82581" lon="3.1085">
        <ele>938.3</ele>
        <time>2022-07-31T14:03:35Z</time>
      </trkpt>
      <trkpt lat="44.8258" lon="3.10853">
        <ele>938</ele>
        <time>2022-07-31T14:03:37Z</time>
      </trkpt>
      <trkpt lat="44.82578" lon="3.10855">
        <ele>937.6</ele>
        <time>2022-07-31T14:03:39Z</time>
      </trkpt>
      <trkpt lat="44.82578" lon="3.10857">
        <ele>937.4</ele>
        <time>2022-07-31T14:03:40Z</time>
      </trkpt>
      <trkpt lat="44.82576" lon="3.10859">
        <ele>937</ele>
        <time>2022-07-31T14:03:42Z</time>
      </trkpt>
      <trkpt lat="44.82574" lon="3.10861">
        <ele>936.7</ele>
        <time>2022-07-31T14:03:44Z</time>
      </trkpt>
      <trkpt lat="44.82572" lon="3.10863">
        <ele>936.6</ele>
        <time>2022-07-31T14:03:45Z</time>
      </trkpt>
      <trkpt lat="44.82571" lon="3.10865">
        <ele>936.6</ele>
        <time>2022-07-31T14:03:46Z</time>
      </trkpt>
      <trkpt lat="44.82568" lon="3.10867">
        <ele>936.6</ele>
        <time>2022-07-31T14:03:48Z</time>
      </trkpt>
      <trkpt lat="44.82567" lon="3.10867">
        <ele>936.7</ele>
        <time>2022-07-31T14:03:51Z</time>
      </trkpt>
      <trkpt lat="44.82567" lon="3.10865">
        <ele>936.8</ele>
        <time>2022-07-31T14:03:52Z</time>
      </trkpt>
      <trkpt lat="44.82566" lon="3.10866">
        <ele>936.8</ele>
        <time>2022-07-31T14:03:55Z</time>
      </trkpt>
      <trkpt lat="44.82564" lon="3.10867">
        <ele>936.8</ele>
        <time>2022-07-31T14:03:57Z</time>
      </trkpt>
      <trkpt lat="44.82564" lon="3.10868">
        <ele>936.8</ele>
        <time>2022-07-31T14:04:00Z</time>
      </trkpt>
      <trkpt lat="44.82564" lon="3.10868">
        <ele>936.8</ele>
        <time>2022-07-31T14:04:03Z</time>
      </trkpt>
      <trkpt lat="44.82565" lon="3.10867">
        <ele>936.7</ele>
        <time>2022-07-31T14:04:05Z</time>
      </trkpt>
      <trkpt lat="44.82564" lon="3.10867">
        <ele>936.8</ele>
        <time>2022-07-31T14:04:11Z</time>
      </trkpt>
      <trkpt lat="44.82558" lon="3.10865">
        <ele>937.4</ele>
        <time>2022-07-31T14:04:18Z</time>
      </trkpt>
      <trkpt lat="44.82558" lon="3.10865">
        <ele>937.4</ele>
        <time>2022-07-31T14:04:19Z</time>
      </trkpt>
      <trkpt lat="44.82558" lon="3.10863">
        <ele>937.6</ele>
        <time>2022-07-31T14:04:22Z</time>
      </trkpt>
      <trkpt lat="44.82557" lon="3.10865">
        <ele>937.5</ele>
        <time>2022-07-31T14:04:25Z</time>
      </trkpt>
      <trkpt lat="44.82556" lon="3.10866">
        <ele>937.5</ele>
        <time>2022-07-31T14:04:26Z</time>
      </trkpt>
      <trkpt lat="44.8255" lon="3.10867">
        <ele>938.4</ele>
        <time>2022-07-31T14:04:30Z</time>
      </trkpt>
      <trkpt lat="44.82547" lon="3.10869">
        <ele>938.6</ele>
        <time>2022-07-31T14:04:32Z</time>
      </trkpt>
      <trkpt lat="44.82545" lon="3.1087">
        <ele>938.9</ele>
        <time>2022-07-31T14:04:34Z</time>
      </trkpt>
      <trkpt lat="44.82543" lon="3.10871">
        <ele>939</ele>
        <time>2022-07-31T14:04:36Z</time>
      </trkpt>
      <trkpt lat="44.82538" lon="3.10877">
        <ele>938.7</ele>
        <time>2022-07-31T14:04:40Z</time>
      </trkpt>
      <trkpt lat="44.82533" lon="3.10883">
        <ele>937.9</ele>
        <time>2022-07-31T14:04:45Z</time>
      </trkpt>
      <trkpt lat="44.82532" lon="3.10886">
        <ele>937.5</ele>
        <time>2022-07-31T14:04:47Z</time>
      </trkpt>
      <trkpt lat="44.82529" lon="3.10889">
        <ele>936.9</ele>
        <time>2022-07-31T14:04:50Z</time>
      </trkpt>
      <trkpt lat="44.82523" lon="3.10895">
        <ele>937.1</ele>
        <time>2022-07-31T14:04:55Z</time>
      </trkpt>
      <trkpt lat="44.82519" lon="3.10899">
        <ele>937.1</ele>
        <time>2022-07-31T14:04:58Z</time>
      </trkpt>
      <trkpt lat="44.82506" lon="3.10901">
        <ele>937.9</ele>
        <time>2022-07-31T14:05:06Z</time>
      </trkpt>
      <trkpt lat="44.82502" lon="3.10902">
        <ele>937.9</ele>
        <time>2022-07-31T14:05:10Z</time>
      </trkpt>
      <trkpt lat="44.82498" lon="3.10904">
        <ele>937.7</ele>
        <time>2022-07-31T14:05:13Z</time>
      </trkpt>
      <trkpt lat="44.82495" lon="3.10904">
        <ele>937.6</ele>
        <time>2022-07-31T14:05:16Z</time>
      </trkpt>
      <trkpt lat="44.82489" lon="3.10902">
        <ele>937.9</ele>
        <time>2022-07-31T14:05:20Z</time>
      </trkpt>
      <trkpt lat="44.82488" lon="3.10902">
        <ele>937.9</ele>
        <time>2022-07-31T14:05:21Z</time>
      </trkpt>
      <trkpt lat="44.82479" lon="3.10899">
        <ele>938.4</ele>
        <time>2022-07-31T14:05:28Z</time>
      </trkpt>
      <trkpt lat="44.8247" lon="3.10901">
        <ele>937.7</ele>
        <time>2022-07-31T14:05:34Z</time>
      </trkpt>
      <trkpt lat="44.82469" lon="3.10899">
        <ele>938</ele>
        <time>2022-07-31T14:05:36Z</time>
      </trkpt>
      <trkpt lat="44.82468" lon="3.10898">
        <ele>938.2</ele>
        <time>2022-07-31T14:05:38Z</time>
      </trkpt>
      <trkpt lat="44.82467" lon="3.10897">
        <ele>938.2</ele>
        <time>2022-07-31T14:05:39Z</time>
      </trkpt>
      <trkpt lat="44.82465" lon="3.10898">
        <ele>938</ele>
        <time>2022-07-31T14:05:42Z</time>
      </trkpt>
      <trkpt lat="44.82464" lon="3.10897">
        <ele>938</ele>
        <time>2022-07-31T14:05:43Z</time>
      </trkpt>
      <trkpt lat="44.82459" lon="3.1089">
        <ele>938.9</ele>
        <time>2022-07-31T14:05:50Z</time>
      </trkpt>
      <trkpt lat="44.82454" lon="3.10886">
        <ele>939.6</ele>
        <time>2022-07-31T14:05:55Z</time>
      </trkpt>
      <trkpt lat="44.82452" lon="3.10883">
        <ele>940.9</ele>
        <time>2022-07-31T14:05:58Z</time>
      </trkpt>
      <trkpt lat="44.82448" lon="3.10879">
        <ele>942</ele>
        <time>2022-07-31T14:06:04Z</time>
      </trkpt>
      <trkpt lat="44.82443" lon="3.10874">
        <ele>943.3</ele>
        <time>2022-07-31T14:06:11Z</time>
      </trkpt>
      <trkpt lat="44.82444" lon="3.10873">
        <ele>943.6</ele>
        <time>2022-07-31T14:06:12Z</time>
      </trkpt>
      <trkpt lat="44.82444" lon="3.10874">
        <ele>943.5</ele>
        <time>2022-07-31T14:06:13Z</time>
      </trkpt>
      <trkpt lat="44.8244" lon="3.10873">
        <ele>943.2</ele>
        <time>2022-07-31T14:06:18Z</time>
      </trkpt>
      <trkpt lat="44.82437" lon="3.10872">
        <ele>943.3</ele>
        <time>2022-07-31T14:06:20Z</time>
      </trkpt>
      <trkpt lat="44.82433" lon="3.10871">
        <ele>943.3</ele>
        <time>2022-07-31T14:06:24Z</time>
      </trkpt>
      <trkpt lat="44.82432" lon="3.10871">
        <ele>943.1</ele>
        <time>2022-07-31T14:06:25Z</time>
      </trkpt>
      <trkpt lat="44.82424" lon="3.10867">
        <ele>943.2</ele>
        <time>2022-07-31T14:06:33Z</time>
      </trkpt>
      <trkpt lat="44.82417" lon="3.10865">
        <ele>942.9</ele>
        <time>2022-07-31T14:06:39Z</time>
      </trkpt>
      <trkpt lat="44.82406" lon="3.10865">
        <ele>942.2</ele>
        <time>2022-07-31T14:06:47Z</time>
      </trkpt>
      <trkpt lat="44.82404" lon="3.10865">
        <ele>942.2</ele>
        <time>2022-07-31T14:06:49Z</time>
      </trkpt>
      <trkpt lat="44.82403" lon="3.10865">
        <ele>942.1</ele>
        <time>2022-07-31T14:06:50Z</time>
      </trkpt>
      <trkpt lat="44.824" lon="3.10864">
        <ele>942</ele>
        <time>2022-07-31T14:06:53Z</time>
      </trkpt>
      <trkpt lat="44.824" lon="3.10863">
        <ele>942.2</ele>
        <time>2022-07-31T14:06:55Z</time>
      </trkpt>
      <trkpt lat="44.824" lon="3.10863">
        <ele>942.3</ele>
        <time>2022-07-31T14:06:56Z</time>
      </trkpt>
      <trkpt lat="44.82402" lon="3.10861">
        <ele>942.9</ele>
        <time>2022-07-31T14:06:59Z</time>
      </trkpt>
      <trkpt lat="44.82403" lon="3.10863">
        <ele>942.5</ele>
        <time>2022-07-31T14:07:00Z</time>
      </trkpt>
      <trkpt lat="44.82405" lon="3.10863">
        <ele>942.6</ele>
        <time>2022-07-31T14:07:02Z</time>
      </trkpt>
      <trkpt lat="44.82399" lon="3.10864">
        <ele>942.1</ele>
        <time>2022-07-31T14:07:06Z</time>
      </trkpt>
      <trkpt lat="44.82397" lon="3.10861">
        <ele>942.6</ele>
        <time>2022-07-31T14:07:13Z</time>
      </trkpt>
      <trkpt lat="44.82398" lon="3.1086">
        <ele>943.3</ele>
        <time>2022-07-31T14:07:54Z</time>
      </trkpt>
      <trkpt lat="44.82398" lon="3.1086">
        <ele>943.3</ele>
        <time>2022-07-31T14:07:55Z</time>
      </trkpt>
      <trkpt lat="44.824" lon="3.10859">
        <ele>943.7</ele>
        <time>2022-07-31T14:08:08Z</time>
      </trkpt>
      <trkpt lat="44.82401" lon="3.10859">
        <ele>943.7</ele>
        <time>2022-07-31T14:08:09Z</time>
      </trkpt>
      <trkpt lat="44.82401" lon="3.10859">
        <ele>943.8</ele>
        <time>2022-07-31T14:08:10Z</time>
      </trkpt>
      <trkpt lat="44.82402" lon="3.10859">
        <ele>943.8</ele>
        <time>2022-07-31T14:08:13Z</time>
      </trkpt>
      <trkpt lat="44.82406" lon="3.10856">
        <ele>945.4</ele>
        <time>2022-07-31T14:08:37Z</time>
      </trkpt>
      <trkpt lat="44.82401" lon="3.10857">
        <ele>944.8</ele>
        <time>2022-07-31T14:08:48Z</time>
      </trkpt>
      <trkpt lat="44.82396" lon="3.10857">
        <ele>944.4</ele>
        <time>2022-07-31T14:08:53Z</time>
      </trkpt>
      <trkpt lat="44.82395" lon="3.10857">
        <ele>944.1</ele>
        <time>2022-07-31T14:08:57Z</time>
      </trkpt>
      <trkpt lat="44.82396" lon="3.10858">
        <ele>943.9</ele>
        <time>2022-07-31T14:08:58Z</time>
      </trkpt>
      <trkpt lat="44.82397" lon="3.10859">
        <ele>943.7</ele>
        <time>2022-07-31T14:08:59Z</time>
      </trkpt>
      <trkpt lat="44.82398" lon="3.10856">
        <ele>944.8</ele>
        <time>2022-07-31T14:09:01Z</time>
      </trkpt>
      <trkpt lat="44.82398" lon="3.10856">
        <ele>944.9</ele>
        <time>2022-07-31T14:09:02Z</time>
      </trkpt>
      <trkpt lat="44.82397" lon="3.10854">
        <ele>945.7</ele>
        <time>2022-07-31T14:09:05Z</time>
      </trkpt>
      <trkpt lat="44.82397" lon="3.10854">
        <ele>945.8</ele>
        <time>2022-07-31T14:09:06Z</time>
      </trkpt>
      <trkpt lat="44.82394" lon="3.10855">
        <ele>945.3</ele>
        <time>2022-07-31T14:09:09Z</time>
      </trkpt>
      <trkpt lat="44.82392" lon="3.10854">
        <ele>945.4</ele>
        <time>2022-07-31T14:09:11Z</time>
      </trkpt>
      <trkpt lat="44.82389" lon="3.10854">
        <ele>945.3</ele>
        <time>2022-07-31T14:09:14Z</time>
      </trkpt>
      <trkpt lat="44.82388" lon="3.10853">
        <ele>945.4</ele>
        <time>2022-07-31T14:09:15Z</time>
      </trkpt>
      <trkpt lat="44.82387" lon="3.10853">
        <ele>945.4</ele>
        <time>2022-07-31T14:09:16Z</time>
      </trkpt>
      <trkpt lat="44.82384" lon="3.10855">
        <ele>944.8</ele>
        <time>2022-07-31T14:09:20Z</time>
      </trkpt>
      <trkpt lat="44.82382" lon="3.10855">
        <ele>944.6</ele>
        <time>2022-07-31T14:09:21Z</time>
      </trkpt>
      <trkpt lat="44.82377" lon="3.10855">
        <ele>944.5</ele>
        <time>2022-07-31T14:09:26Z</time>
      </trkpt>
      <trkpt lat="44.82376" lon="3.10855">
        <ele>944.5</ele>
        <time>2022-07-31T14:09:27Z</time>
      </trkpt>
      <trkpt lat="44.82376" lon="3.10852">
        <ele>945.6</ele>
        <time>2022-07-31T14:09:32Z</time>
      </trkpt>
      <trkpt lat="44.82374" lon="3.10853">
        <ele>945.6</ele>
        <time>2022-07-31T14:09:37Z</time>
      </trkpt>
      <trkpt lat="44.82375" lon="3.10852">
        <ele>945.9</ele>
        <time>2022-07-31T14:09:38Z</time>
      </trkpt>
      <trkpt lat="44.82375" lon="3.10852">
        <ele>946</ele>
        <time>2022-07-31T14:09:39Z</time>
      </trkpt>
      <trkpt lat="44.82376" lon="3.10851">
        <ele>946.2</ele>
        <time>2022-07-31T14:09:41Z</time>
      </trkpt>
      <trkpt lat="44.82373" lon="3.10852">
        <ele>945.8</ele>
        <time>2022-07-31T14:09:46Z</time>
      </trkpt>
      <trkpt lat="44.82369" lon="3.10853">
        <ele>945.4</ele>
        <time>2022-07-31T14:09:49Z</time>
      </trkpt>
      <trkpt lat="44.82368" lon="3.10853">
        <ele>945.4</ele>
        <time>2022-07-31T14:09:50Z</time>
      </trkpt>
      <trkpt lat="44.82366" lon="3.10853">
        <ele>945.3</ele>
        <time>2022-07-31T14:09:52Z</time>
      </trkpt>
      <trkpt lat="44.82363" lon="3.10853">
        <ele>945.1</ele>
        <time>2022-07-31T14:09:54Z</time>
      </trkpt>
      <trkpt lat="44.82361" lon="3.10853">
        <ele>945.3</ele>
        <time>2022-07-31T14:09:56Z</time>
      </trkpt>
      <trkpt lat="44.82359" lon="3.10853">
        <ele>945.3</ele>
        <time>2022-07-31T14:09:57Z</time>
      </trkpt>
      <trkpt lat="44.82355" lon="3.10853">
        <ele>945.3</ele>
        <time>2022-07-31T14:10:01Z</time>
      </trkpt>
      <trkpt lat="44.82353" lon="3.10854">
        <ele>945</ele>
        <time>2022-07-31T14:10:03Z</time>
      </trkpt>
      <trkpt lat="44.82347" lon="3.10853">
        <ele>945.9</ele>
        <time>2022-07-31T14:10:07Z</time>
      </trkpt>
      <trkpt lat="44.82345" lon="3.10851">
        <ele>946.6</ele>
        <time>2022-07-31T14:10:10Z</time>
      </trkpt>
      <trkpt lat="44.82343" lon="3.10851">
        <ele>946.8</ele>
        <time>2022-07-31T14:10:12Z</time>
      </trkpt>
      <trkpt lat="44.82337" lon="3.1085">
        <ele>947.2</ele>
        <time>2022-07-31T14:10:17Z</time>
      </trkpt>
      <trkpt lat="44.82335" lon="3.1085">
        <ele>947.5</ele>
        <time>2022-07-31T14:10:19Z</time>
      </trkpt>
      <trkpt lat="44.8233" lon="3.1085">
        <ele>947.6</ele>
        <time>2022-07-31T14:10:23Z</time>
      </trkpt>
      <trkpt lat="44.82329" lon="3.10851">
        <ele>947.3</ele>
        <time>2022-07-31T14:10:24Z</time>
      </trkpt>
      <trkpt lat="44.82327" lon="3.10852">
        <ele>947.1</ele>
        <time>2022-07-31T14:10:25Z</time>
      </trkpt>
      <trkpt lat="44.82326" lon="3.10853">
        <ele>946.9</ele>
        <time>2022-07-31T14:10:26Z</time>
      </trkpt>
      <trkpt lat="44.82322" lon="3.10853">
        <ele>947.5</ele>
        <time>2022-07-31T14:10:29Z</time>
      </trkpt>
      <trkpt lat="44.8232" lon="3.10853">
        <ele>947.5</ele>
        <time>2022-07-31T14:10:31Z</time>
      </trkpt>
      <trkpt lat="44.82319" lon="3.10854">
        <ele>947.4</ele>
        <time>2022-07-31T14:10:32Z</time>
      </trkpt>
      <trkpt lat="44.82317" lon="3.10854">
        <ele>947.4</ele>
        <time>2022-07-31T14:10:33Z</time>
      </trkpt>
      <trkpt lat="44.82312" lon="3.10853">
        <ele>948.3</ele>
        <time>2022-07-31T14:10:36Z</time>
      </trkpt>
      <trkpt lat="44.8231" lon="3.10852">
        <ele>949</ele>
        <time>2022-07-31T14:10:39Z</time>
      </trkpt>
      <trkpt lat="44.82299" lon="3.10851">
        <ele>950.3</ele>
        <time>2022-07-31T14:10:47Z</time>
      </trkpt>
      <trkpt lat="44.82297" lon="3.10851">
        <ele>950.5</ele>
        <time>2022-07-31T14:10:49Z</time>
      </trkpt>
      <trkpt lat="44.82293" lon="3.10851">
        <ele>951</ele>
        <time>2022-07-31T14:10:52Z</time>
      </trkpt>
      <trkpt lat="44.82292" lon="3.10851">
        <ele>951.1</ele>
        <time>2022-07-31T14:10:53Z</time>
      </trkpt>
      <trkpt lat="44.82286" lon="3.10855">
        <ele>950.5</ele>
        <time>2022-07-31T14:10:57Z</time>
      </trkpt>
      <trkpt lat="44.82281" lon="3.10856">
        <ele>950.6</ele>
        <time>2022-07-31T14:11:01Z</time>
      </trkpt>
      <trkpt lat="44.8228" lon="3.10855">
        <ele>951.2</ele>
        <time>2022-07-31T14:11:03Z</time>
      </trkpt>
      <trkpt lat="44.82278" lon="3.10855">
        <ele>951.1</ele>
        <time>2022-07-31T14:11:04Z</time>
      </trkpt>
      <trkpt lat="44.82271" lon="3.10859">
        <ele>950.8</ele>
        <time>2022-07-31T14:11:10Z</time>
      </trkpt>
      <trkpt lat="44.82265" lon="3.10862">
        <ele>950.7</ele>
        <time>2022-07-31T14:11:16Z</time>
      </trkpt>
      <trkpt lat="44.82256" lon="3.10863">
        <ele>951.7</ele>
        <time>2022-07-31T14:11:24Z</time>
      </trkpt>
      <trkpt lat="44.82255" lon="3.10863">
        <ele>952</ele>
        <time>2022-07-31T14:11:25Z</time>
      </trkpt>
      <trkpt lat="44.82253" lon="3.10863">
        <ele>952.1</ele>
        <time>2022-07-31T14:11:26Z</time>
      </trkpt>
      <trkpt lat="44.8225" lon="3.10864">
        <ele>952.2</ele>
        <time>2022-07-31T14:11:29Z</time>
      </trkpt>
      <trkpt lat="44.82246" lon="3.10865">
        <ele>952</ele>
        <time>2022-07-31T14:11:33Z</time>
      </trkpt>
      <trkpt lat="44.82245" lon="3.10865">
        <ele>952.2</ele>
        <time>2022-07-31T14:11:34Z</time>
      </trkpt>
      <trkpt lat="44.82242" lon="3.10862">
        <ele>953</ele>
        <time>2022-07-31T14:11:40Z</time>
      </trkpt>
      <trkpt lat="44.82243" lon="3.10861">
        <ele>953.2</ele>
        <time>2022-07-31T14:11:41Z</time>
      </trkpt>
      <trkpt lat="44.82243" lon="3.10858">
        <ele>954.5</ele>
        <time>2022-07-31T14:11:44Z</time>
      </trkpt>
      <trkpt lat="44.82244" lon="3.10857">
        <ele>955</ele>
        <time>2022-07-31T14:11:49Z</time>
      </trkpt>
      <trkpt lat="44.82244" lon="3.10856">
        <ele>955.3</ele>
        <time>2022-07-31T14:11:51Z</time>
      </trkpt>
      <trkpt lat="44.82245" lon="3.10855">
        <ele>955.8</ele>
        <time>2022-07-31T14:11:56Z</time>
      </trkpt>
      <trkpt lat="44.82246" lon="3.10856">
        <ele>955.6</ele>
        <time>2022-07-31T14:11:59Z</time>
      </trkpt>
      <trkpt lat="44.82243" lon="3.10858">
        <ele>954.8</ele>
        <time>2022-07-31T14:12:07Z</time>
      </trkpt>
      <trkpt lat="44.82241" lon="3.10859">
        <ele>954.4</ele>
        <time>2022-07-31T14:12:08Z</time>
      </trkpt>
      <trkpt lat="44.82237" lon="3.1086">
        <ele>953.8</ele>
        <time>2022-07-31T14:12:11Z</time>
      </trkpt>
      <trkpt lat="44.8223" lon="3.10862">
        <ele>953.6</ele>
        <time>2022-07-31T14:12:15Z</time>
      </trkpt>
      <trkpt lat="44.82221" lon="3.10863">
        <ele>953.6</ele>
        <time>2022-07-31T14:12:21Z</time>
      </trkpt>
      <trkpt lat="44.8222" lon="3.10863">
        <ele>953.6</ele>
        <time>2022-07-31T14:12:22Z</time>
      </trkpt>
      <trkpt lat="44.82219" lon="3.10863">
        <ele>953.6</ele>
        <time>2022-07-31T14:12:23Z</time>
      </trkpt>
      <trkpt lat="44.82215" lon="3.10863">
        <ele>953.7</ele>
        <time>2022-07-31T14:12:26Z</time>
      </trkpt>
      <trkpt lat="44.82209" lon="3.10864">
        <ele>953.7</ele>
        <time>2022-07-31T14:12:31Z</time>
      </trkpt>
      <trkpt lat="44.82208" lon="3.10864">
        <ele>953.6</ele>
        <time>2022-07-31T14:12:32Z</time>
      </trkpt>
      <trkpt lat="44.82196" lon="3.10862">
        <ele>954.6</ele>
        <time>2022-07-31T14:12:40Z</time>
      </trkpt>
      <trkpt lat="44.8219" lon="3.10862">
        <ele>954.7</ele>
        <time>2022-07-31T14:12:45Z</time>
      </trkpt>
      <trkpt lat="44.82185" lon="3.10864">
        <ele>954.1</ele>
        <time>2022-07-31T14:12:49Z</time>
      </trkpt>
      <trkpt lat="44.82177" lon="3.10865">
        <ele>953.9</ele>
        <time>2022-07-31T14:12:56Z</time>
      </trkpt>
      <trkpt lat="44.82167" lon="3.10863">
        <ele>954.6</ele>
        <time>2022-07-31T14:13:04Z</time>
      </trkpt>
      <trkpt lat="44.82158" lon="3.10861">
        <ele>954.5</ele>
        <time>2022-07-31T14:13:11Z</time>
      </trkpt>
      <trkpt lat="44.82145" lon="3.10859">
        <ele>954.1</ele>
        <time>2022-07-31T14:13:21Z</time>
      </trkpt>
      <trkpt lat="44.82144" lon="3.10859">
        <ele>954.1</ele>
        <time>2022-07-31T14:13:22Z</time>
      </trkpt>
      <trkpt lat="44.8214" lon="3.10857">
        <ele>954.1</ele>
        <time>2022-07-31T14:13:25Z</time>
      </trkpt>
      <trkpt lat="44.82133" lon="3.10858">
        <ele>953.9</ele>
        <time>2022-07-31T14:13:29Z</time>
      </trkpt>
      <trkpt lat="44.82131" lon="3.10859">
        <ele>953.7</ele>
        <time>2022-07-31T14:13:30Z</time>
      </trkpt>
      <trkpt lat="44.82128" lon="3.1086">
        <ele>953.4</ele>
        <time>2022-07-31T14:13:33Z</time>
      </trkpt>
      <trkpt lat="44.82124" lon="3.10859">
        <ele>953.5</ele>
        <time>2022-07-31T14:13:36Z</time>
      </trkpt>
      <trkpt lat="44.8212" lon="3.10858">
        <ele>953.7</ele>
        <time>2022-07-31T14:13:40Z</time>
      </trkpt>
      <trkpt lat="44.82116" lon="3.10858">
        <ele>953.9</ele>
        <time>2022-07-31T14:13:44Z</time>
      </trkpt>
      <trkpt lat="44.82108" lon="3.10857">
        <ele>954</ele>
        <time>2022-07-31T14:13:51Z</time>
      </trkpt>
      <trkpt lat="44.82107" lon="3.10856">
        <ele>954</ele>
        <time>2022-07-31T14:13:52Z</time>
      </trkpt>
      <trkpt lat="44.82094" lon="3.10856">
        <ele>953.4</ele>
        <time>2022-07-31T14:14:02Z</time>
      </trkpt>
      <trkpt lat="44.82091" lon="3.10855">
        <ele>953.4</ele>
        <time>2022-07-31T14:14:05Z</time>
      </trkpt>
      <trkpt lat="44.82087" lon="3.10854">
        <ele>953.4</ele>
        <time>2022-07-31T14:14:08Z</time>
      </trkpt>
      <trkpt lat="44.82085" lon="3.10855">
        <ele>953.3</ele>
        <time>2022-07-31T14:14:09Z</time>
      </trkpt>
      <trkpt lat="44.82083" lon="3.10855">
        <ele>953.1</ele>
        <time>2022-07-31T14:14:11Z</time>
      </trkpt>
      <trkpt lat="44.82079" lon="3.10853">
        <ele>953</ele>
        <time>2022-07-31T14:14:14Z</time>
      </trkpt>
      <trkpt lat="44.82075" lon="3.10851">
        <ele>953</ele>
        <time>2022-07-31T14:14:18Z</time>
      </trkpt>
      <trkpt lat="44.82072" lon="3.10848">
        <ele>953.2</ele>
        <time>2022-07-31T14:14:21Z</time>
      </trkpt>
      <trkpt lat="44.82064" lon="3.10842">
        <ele>953.2</ele>
        <time>2022-07-31T14:14:30Z</time>
      </trkpt>
      <trkpt lat="44.82064" lon="3.1084">
        <ele>953.2</ele>
        <time>2022-07-31T14:14:32Z</time>
      </trkpt>
      <trkpt lat="44.82063" lon="3.10839">
        <ele>953.4</ele>
        <time>2022-07-31T14:14:34Z</time>
      </trkpt>
      <trkpt lat="44.82063" lon="3.1084">
        <ele>953.2</ele>
        <time>2022-07-31T14:14:36Z</time>
      </trkpt>
      <trkpt lat="44.82063" lon="3.1084">
        <ele>953.2</ele>
        <time>2022-07-31T14:14:38Z</time>
      </trkpt>
      <trkpt lat="44.82061" lon="3.10839">
        <ele>953.1</ele>
        <time>2022-07-31T14:14:40Z</time>
      </trkpt>
      <trkpt lat="44.82061" lon="3.10839">
        <ele>953.1</ele>
        <time>2022-07-31T14:14:42Z</time>
      </trkpt>
      <trkpt lat="44.82061" lon="3.10839">
        <ele>953.2</ele>
        <time>2022-07-31T14:14:45Z</time>
      </trkpt>
      <trkpt lat="44.82057" lon="3.10836">
        <ele>952.8</ele>
        <time>2022-07-31T14:15:08Z</time>
      </trkpt>
      <trkpt lat="44.82053" lon="3.10835">
        <ele>952.5</ele>
        <time>2022-07-31T14:15:13Z</time>
      </trkpt>
      <trkpt lat="44.82052" lon="3.10835">
        <ele>952.5</ele>
        <time>2022-07-31T14:15:15Z</time>
      </trkpt>
      <trkpt lat="44.82056" lon="3.10833">
        <ele>953</ele>
        <time>2022-07-31T14:15:22Z</time>
      </trkpt>
      <trkpt lat="44.82056" lon="3.10834">
        <ele>952.9</ele>
        <time>2022-07-31T14:15:24Z</time>
      </trkpt>
      <trkpt lat="44.82056" lon="3.10835">
        <ele>952.9</ele>
        <time>2022-07-31T14:15:27Z</time>
      </trkpt>
      <trkpt lat="44.82056" lon="3.10837">
        <ele>952.7</ele>
        <time>2022-07-31T14:15:38Z</time>
      </trkpt>
      <trkpt lat="44.82057" lon="3.1084">
        <ele>952.5</ele>
        <time>2022-07-31T14:15:44Z</time>
      </trkpt>
      <trkpt lat="44.82057" lon="3.10839">
        <ele>952.5</ele>
        <time>2022-07-31T14:15:46Z</time>
      </trkpt>
      <trkpt lat="44.82059" lon="3.10839">
        <ele>952.8</ele>
        <time>2022-07-31T14:15:50Z</time>
      </trkpt>
      <trkpt lat="44.82057" lon="3.10841">
        <ele>952.5</ele>
        <time>2022-07-31T14:15:56Z</time>
      </trkpt>
      <trkpt lat="44.82056" lon="3.10839">
        <ele>952.5</ele>
        <time>2022-07-31T14:16:00Z</time>
      </trkpt>
      <trkpt lat="44.82055" lon="3.10838">
        <ele>952.4</ele>
        <time>2022-07-31T14:16:02Z</time>
      </trkpt>
      <trkpt lat="44.82051" lon="3.10836">
        <ele>952.3</ele>
        <time>2022-07-31T14:16:07Z</time>
      </trkpt>
      <trkpt lat="44.82051" lon="3.10835">
        <ele>952.4</ele>
        <time>2022-07-31T14:16:09Z</time>
      </trkpt>
      <trkpt lat="44.82052" lon="3.10833">
        <ele>952.6</ele>
        <time>2022-07-31T14:16:16Z</time>
      </trkpt>
      <trkpt lat="44.82052" lon="3.10833">
        <ele>952.6</ele>
        <time>2022-07-31T14:16:32Z</time>
      </trkpt>
      <trkpt lat="44.82052" lon="3.10833">
        <ele>952.6</ele>
        <time>2022-07-31T14:16:34Z</time>
      </trkpt>
      <trkpt lat="44.82052" lon="3.10832">
        <ele>952.6</ele>
        <time>2022-07-31T14:16:36Z</time>
      </trkpt>
      <trkpt lat="44.82052" lon="3.10832">
        <ele>952.6</ele>
        <time>2022-07-31T14:16:38Z</time>
      </trkpt>
      <trkpt lat="44.82052" lon="3.1083">
        <ele>952.6</ele>
        <time>2022-07-31T14:16:42Z</time>
      </trkpt>
      <trkpt lat="44.82052" lon="3.1083">
        <ele>952.6</ele>
        <time>2022-07-31T14:16:44Z</time>
      </trkpt>
      <trkpt lat="44.82052" lon="3.1083">
        <ele>952.6</ele>
        <time>2022-07-31T14:16:47Z</time>
      </trkpt>
      <trkpt lat="44.82052" lon="3.1083">
        <ele>952.6</ele>
        <time>2022-07-31T14:16:53Z</time>
      </trkpt>
      <trkpt lat="44.82054" lon="3.10832">
        <ele>952.9</ele>
        <time>2022-07-31T14:16:58Z</time>
      </trkpt>
      <trkpt lat="44.82055" lon="3.10832">
        <ele>952.9</ele>
        <time>2022-07-31T14:16:59Z</time>
      </trkpt>
      <trkpt lat="44.82055" lon="3.10832">
        <ele>952.9</ele>
        <time>2022-07-31T14:17:00Z</time>
      </trkpt>
      <trkpt lat="44.82055" lon="3.10833">
        <ele>952.9</ele>
        <time>2022-07-31T14:17:02Z</time>
      </trkpt>
      <trkpt lat="44.82055" lon="3.10833">
        <ele>952.9</ele>
        <time>2022-07-31T14:17:07Z</time>
      </trkpt>
      <trkpt lat="44.82055" lon="3.10833">
        <ele>952.9</ele>
        <time>2022-07-31T14:17:14Z</time>
      </trkpt>
      <trkpt lat="44.82053" lon="3.10836">
        <ele>952.5</ele>
        <time>2022-07-31T14:17:29Z</time>
      </trkpt>
      <trkpt lat="44.82053" lon="3.10837">
        <ele>952.3</ele>
        <time>2022-07-31T14:17:32Z</time>
      </trkpt>
      <trkpt lat="44.82054" lon="3.1084">
        <ele>952.2</ele>
        <time>2022-07-31T14:17:53Z</time>
      </trkpt>
      <trkpt lat="44.82055" lon="3.1084">
        <ele>952.2</ele>
        <time>2022-07-31T14:17:59Z</time>
      </trkpt>
      <trkpt lat="44.82057" lon="3.10842">
        <ele>952.2</ele>
        <time>2022-07-31T14:18:13Z</time>
      </trkpt>
      <trkpt lat="44.82057" lon="3.10842">
        <ele>952.2</ele>
        <time>2022-07-31T14:18:29Z</time>
      </trkpt>
      <trkpt lat="44.82057" lon="3.10842">
        <ele>952.2</ele>
        <time>2022-07-31T14:18:31Z</time>
      </trkpt>
      <trkpt lat="44.82057" lon="3.10842">
        <ele>952.2</ele>
        <time>2022-07-31T14:18:33Z</time>
      </trkpt>
      <trkpt lat="44.82056" lon="3.10841">
        <ele>952.3</ele>
        <time>2022-07-31T14:18:36Z</time>
      </trkpt>
      <trkpt lat="44.82056" lon="3.1084">
        <ele>952.4</ele>
        <time>2022-07-31T14:18:52Z</time>
      </trkpt>
      <trkpt lat="44.82056" lon="3.1084">
        <ele>952.4</ele>
        <time>2022-07-31T14:18:57Z</time>
      </trkpt>
      <trkpt lat="44.82059" lon="3.1084">
        <ele>952.7</ele>
        <time>2022-07-31T14:19:08Z</time>
      </trkpt>
      <trkpt lat="44.82059" lon="3.1084">
        <ele>952.7</ele>
        <time>2022-07-31T14:19:09Z</time>
      </trkpt>
      <trkpt lat="44.8206" lon="3.1084">
        <ele>952.8</ele>
        <time>2022-07-31T14:19:13Z</time>
      </trkpt>
      <trkpt lat="44.82061" lon="3.1084">
        <ele>952.9</ele>
        <time>2022-07-31T14:19:16Z</time>
      </trkpt>
      <trkpt lat="44.82061" lon="3.10841">
        <ele>952.8</ele>
        <time>2022-07-31T14:19:17Z</time>
      </trkpt>
      <trkpt lat="44.82053" lon="3.10841">
        <ele>952</ele>
        <time>2022-07-31T14:19:21Z</time>
      </trkpt>
      <trkpt lat="44.82049" lon="3.10843">
        <ele>951.5</ele>
        <time>2022-07-31T14:19:23Z</time>
      </trkpt>
      <trkpt lat="44.82046" lon="3.10847">
        <ele>951.2</ele>
        <time>2022-07-31T14:19:25Z</time>
      </trkpt>
      <trkpt lat="44.82044" lon="3.10848">
        <ele>951</ele>
        <time>2022-07-31T14:19:26Z</time>
      </trkpt>
      <trkpt lat="44.82043" lon="3.10849">
        <ele>951</ele>
        <time>2022-07-31T14:19:27Z</time>
      </trkpt>
      <trkpt lat="44.82042" lon="3.1085">
        <ele>950.9</ele>
        <time>2022-07-31T14:19:28Z</time>
      </trkpt>
      <trkpt lat="44.82042" lon="3.10851">
        <ele>950.9</ele>
        <time>2022-07-31T14:19:29Z</time>
      </trkpt>
      <trkpt lat="44.82041" lon="3.10852">
        <ele>950.8</ele>
        <time>2022-07-31T14:19:30Z</time>
      </trkpt>
      <trkpt lat="44.82041" lon="3.10851">
        <ele>950.8</ele>
        <time>2022-07-31T14:19:31Z</time>
      </trkpt>
      <trkpt lat="44.82041" lon="3.10851">
        <ele>950.9</ele>
        <time>2022-07-31T14:19:32Z</time>
      </trkpt>
      <trkpt lat="44.82041" lon="3.10851">
        <ele>950.9</ele>
        <time>2022-07-31T14:19:33Z</time>
      </trkpt>
      <trkpt lat="44.82041" lon="3.10851">
        <ele>950.9</ele>
        <time>2022-07-31T14:19:34Z</time>
      </trkpt>
      <trkpt lat="44.82041" lon="3.1085">
        <ele>950.9</ele>
        <time>2022-07-31T14:19:42Z</time>
      </trkpt>
      <trkpt lat="44.82041" lon="3.1085">
        <ele>950.9</ele>
        <time>2022-07-31T14:19:43Z</time>
      </trkpt>
      <trkpt lat="44.82041" lon="3.1085">
        <ele>950.9</ele>
        <time>2022-07-31T14:19:44Z</time>
      </trkpt>
      <trkpt lat="44.82041" lon="3.10849">
        <ele>950.9</ele>
        <time>2022-07-31T14:19:45Z</time>
      </trkpt>
      <trkpt lat="44.82041" lon="3.10849">
        <ele>950.9</ele>
        <time>2022-07-31T14:19:48Z</time>
      </trkpt>
      <trkpt lat="44.8204" lon="3.10851">
        <ele>950.8</ele>
        <time>2022-07-31T14:19:49Z</time>
      </trkpt>
      <trkpt lat="44.82039" lon="3.10852">
        <ele>950.8</ele>
        <time>2022-07-31T14:19:50Z</time>
      </trkpt>
      <trkpt lat="44.82038" lon="3.10853">
        <ele>950.8</ele>
        <time>2022-07-31T14:19:51Z</time>
      </trkpt>
      <trkpt lat="44.82034" lon="3.10858">
        <ele>950.8</ele>
        <time>2022-07-31T14:19:55Z</time>
      </trkpt>
      <trkpt lat="44.82029" lon="3.10863">
        <ele>950.7</ele>
        <time>2022-07-31T14:20:00Z</time>
      </trkpt>
      <trkpt lat="44.82026" lon="3.10867">
        <ele>950.3</ele>
        <time>2022-07-31T14:20:03Z</time>
      </trkpt>
      <trkpt lat="44.82024" lon="3.10869">
        <ele>949.9</ele>
        <time>2022-07-31T14:20:05Z</time>
      </trkpt>
      <trkpt lat="44.82023" lon="3.1087">
        <ele>949.8</ele>
        <time>2022-07-31T14:20:06Z</time>
      </trkpt>
      <trkpt lat="44.82022" lon="3.10871">
        <ele>949.6</ele>
        <time>2022-07-31T14:20:07Z</time>
      </trkpt>
      <trkpt lat="44.82021" lon="3.10872">
        <ele>949.5</ele>
        <time>2022-07-31T14:20:08Z</time>
      </trkpt>
      <trkpt lat="44.82021" lon="3.10873">
        <ele>949.4</ele>
        <time>2022-07-31T14:20:09Z</time>
      </trkpt>
      <trkpt lat="44.8202" lon="3.10874">
        <ele>949.3</ele>
        <time>2022-07-31T14:20:10Z</time>
      </trkpt>
      <trkpt lat="44.82019" lon="3.10875">
        <ele>949.2</ele>
        <time>2022-07-31T14:20:11Z</time>
      </trkpt>
      <trkpt lat="44.82018" lon="3.10876">
        <ele>949.1</ele>
        <time>2022-07-31T14:20:12Z</time>
      </trkpt>
      <trkpt lat="44.82017" lon="3.10877">
        <ele>949</ele>
        <time>2022-07-31T14:20:13Z</time>
      </trkpt>
      <trkpt lat="44.82015" lon="3.1088">
        <ele>948.9</ele>
        <time>2022-07-31T14:20:15Z</time>
      </trkpt>
      <trkpt lat="44.82015" lon="3.10881">
        <ele>948.8</ele>
        <time>2022-07-31T14:20:16Z</time>
      </trkpt>
      <trkpt lat="44.82014" lon="3.10882">
        <ele>948.8</ele>
        <time>2022-07-31T14:20:17Z</time>
      </trkpt>
      <trkpt lat="44.82012" lon="3.10884">
        <ele>948.7</ele>
        <time>2022-07-31T14:20:19Z</time>
      </trkpt>
      <trkpt lat="44.8201" lon="3.10888">
        <ele>948.7</ele>
        <time>2022-07-31T14:20:22Z</time>
      </trkpt>
      <trkpt lat="44.82009" lon="3.10889">
        <ele>948.7</ele>
        <time>2022-07-31T14:20:23Z</time>
      </trkpt>
      <trkpt lat="44.82008" lon="3.1089">
        <ele>948.8</ele>
        <time>2022-07-31T14:20:24Z</time>
      </trkpt>
      <trkpt lat="44.82006" lon="3.10892">
        <ele>949</ele>
        <time>2022-07-31T14:20:26Z</time>
      </trkpt>
      <trkpt lat="44.82004" lon="3.10895">
        <ele>949.2</ele>
        <time>2022-07-31T14:20:28Z</time>
      </trkpt>
      <trkpt lat="44.82003" lon="3.10896">
        <ele>949.3</ele>
        <time>2022-07-31T14:20:29Z</time>
      </trkpt>
      <trkpt lat="44.82002" lon="3.10897">
        <ele>949.4</ele>
        <time>2022-07-31T14:20:30Z</time>
      </trkpt>
      <trkpt lat="44.82001" lon="3.10898">
        <ele>949.6</ele>
        <time>2022-07-31T14:20:31Z</time>
      </trkpt>
      <trkpt lat="44.82" lon="3.10899">
        <ele>949.7</ele>
        <time>2022-07-31T14:20:32Z</time>
      </trkpt>
      <trkpt lat="44.81999" lon="3.109">
        <ele>949.8</ele>
        <time>2022-07-31T14:20:33Z</time>
      </trkpt>
      <trkpt lat="44.81999" lon="3.10901">
        <ele>949.8</ele>
        <time>2022-07-31T14:20:34Z</time>
      </trkpt>
      <trkpt lat="44.81997" lon="3.10903">
        <ele>950</ele>
        <time>2022-07-31T14:20:36Z</time>
      </trkpt>
      <trkpt lat="44.81995" lon="3.10904">
        <ele>950</ele>
        <time>2022-07-31T14:20:39Z</time>
      </trkpt>
      <trkpt lat="44.81995" lon="3.10905">
        <ele>950</ele>
        <time>2022-07-31T14:20:40Z</time>
      </trkpt>
      <trkpt lat="44.81992" lon="3.10907">
        <ele>950.1</ele>
        <time>2022-07-31T14:20:46Z</time>
      </trkpt>
      <trkpt lat="44.81992" lon="3.10906">
        <ele>950.1</ele>
        <time>2022-07-31T14:20:47Z</time>
      </trkpt>
      <trkpt lat="44.81992" lon="3.10906">
        <ele>950.1</ele>
        <time>2022-07-31T14:20:48Z</time>
      </trkpt>
      <trkpt lat="44.81992" lon="3.10906">
        <ele>950.1</ele>
        <time>2022-07-31T14:20:50Z</time>
      </trkpt>
      <trkpt lat="44.81992" lon="3.10908">
        <ele>950.2</ele>
        <time>2022-07-31T14:20:52Z</time>
      </trkpt>
      <trkpt lat="44.81992" lon="3.10908">
        <ele>950.2</ele>
        <time>2022-07-31T14:20:53Z</time>
      </trkpt>
      <trkpt lat="44.81992" lon="3.10909">
        <ele>950.2</ele>
        <time>2022-07-31T14:20:54Z</time>
      </trkpt>
      <trkpt lat="44.81991" lon="3.1091">
        <ele>950.3</ele>
        <time>2022-07-31T14:20:55Z</time>
      </trkpt>
      <trkpt lat="44.8199" lon="3.10911">
        <ele>950.3</ele>
        <time>2022-07-31T14:20:56Z</time>
      </trkpt>
      <trkpt lat="44.81987" lon="3.10915">
        <ele>950.4</ele>
        <time>2022-07-31T14:20:59Z</time>
      </trkpt>
      <trkpt lat="44.81985" lon="3.10916">
        <ele>950.4</ele>
        <time>2022-07-31T14:21:02Z</time>
      </trkpt>
      <trkpt lat="44.81985" lon="3.10915">
        <ele>950.4</ele>
        <time>2022-07-31T14:21:09Z</time>
      </trkpt>
      <trkpt lat="44.81985" lon="3.10915">
        <ele>950.4</ele>
        <time>2022-07-31T14:21:11Z</time>
      </trkpt>
      <trkpt lat="44.81984" lon="3.10914">
        <ele>950.3</ele>
        <time>2022-07-31T14:21:14Z</time>
      </trkpt>
      <trkpt lat="44.81984" lon="3.10913">
        <ele>950.2</ele>
        <time>2022-07-31T14:21:17Z</time>
      </trkpt>
      <trkpt lat="44.81984" lon="3.10913">
        <ele>950.2</ele>
        <time>2022-07-31T14:21:20Z</time>
      </trkpt>
      <trkpt lat="44.81984" lon="3.10913">
        <ele>950.2</ele>
        <time>2022-07-31T14:21:24Z</time>
      </trkpt>
      <trkpt lat="44.81984" lon="3.10913">
        <ele>950.2</ele>
        <time>2022-07-31T14:21:25Z</time>
      </trkpt>
      <trkpt lat="44.81984" lon="3.10913">
        <ele>950.3</ele>
        <time>2022-07-31T14:21:26Z</time>
      </trkpt>
      <trkpt lat="44.81984" lon="3.10914">
        <ele>950.3</ele>
        <time>2022-07-31T14:21:27Z</time>
      </trkpt>
      <trkpt lat="44.81984" lon="3.10914">
        <ele>950.3</ele>
        <time>2022-07-31T14:21:29Z</time>
      </trkpt>
      <trkpt lat="44.81984" lon="3.10914">
        <ele>950.3</ele>
        <time>2022-07-31T14:21:33Z</time>
      </trkpt>
      <trkpt lat="44.81984" lon="3.10914">
        <ele>950.3</ele>
        <time>2022-07-31T14:21:34Z</time>
      </trkpt>
      <trkpt lat="44.81983" lon="3.10915">
        <ele>950.3</ele>
        <time>2022-07-31T14:21:37Z</time>
      </trkpt>
      <trkpt lat="44.81982" lon="3.10915">
        <ele>950.3</ele>
        <time>2022-07-31T14:21:39Z</time>
      </trkpt>
      <trkpt lat="44.81982" lon="3.10915">
        <ele>950.3</ele>
        <time>2022-07-31T14:21:41Z</time>
      </trkpt>
      <trkpt lat="44.81982" lon="3.10915">
        <ele>950.3</ele>
        <time>2022-07-31T14:21:43Z</time>
      </trkpt>
      <trkpt lat="44.81982" lon="3.10917">
        <ele>950.5</ele>
        <time>2022-07-31T14:21:47Z</time>
      </trkpt>
      <trkpt lat="44.81982" lon="3.10917">
        <ele>950.5</ele>
        <time>2022-07-31T14:21:48Z</time>
      </trkpt>
      <trkpt lat="44.81983" lon="3.10916">
        <ele>950.4</ele>
        <time>2022-07-31T14:21:49Z</time>
      </trkpt>
      <trkpt lat="44.81984" lon="3.10915">
        <ele>950.3</ele>
        <time>2022-07-31T14:21:50Z</time>
      </trkpt>
      <trkpt lat="44.81984" lon="3.10914">
        <ele>950.3</ele>
        <time>2022-07-31T14:21:51Z</time>
      </trkpt>
      <trkpt lat="44.81984" lon="3.10913">
        <ele>950.3</ele>
        <time>2022-07-31T14:21:52Z</time>
      </trkpt>
      <trkpt lat="44.81984" lon="3.10914">
        <ele>950.3</ele>
        <time>2022-07-31T14:21:53Z</time>
      </trkpt>
      <trkpt lat="44.81984" lon="3.10914">
        <ele>950.3</ele>
        <time>2022-07-31T14:21:54Z</time>
      </trkpt>
      <trkpt lat="44.81984" lon="3.10914">
        <ele>950.3</ele>
        <time>2022-07-31T14:21:55Z</time>
      </trkpt>
      <trkpt lat="44.81984" lon="3.10914">
        <ele>950.3</ele>
        <time>2022-07-31T14:21:58Z</time>
      </trkpt>
      <trkpt lat="44.81984" lon="3.10914">
        <ele>950.3</ele>
        <time>2022-07-31T14:22:00Z</time>
      </trkpt>
      <trkpt lat="44.81982" lon="3.10918">
        <ele>950.6</ele>
        <time>2022-07-31T14:22:03Z</time>
      </trkpt>
      <trkpt lat="44.81981" lon="3.1092">
        <ele>950.8</ele>
        <time>2022-07-31T14:22:04Z</time>
      </trkpt>
      <trkpt lat="44.81979" lon="3.10923">
        <ele>951.3</ele>
        <time>2022-07-31T14:22:06Z</time>
      </trkpt>
      <trkpt lat="44.81977" lon="3.10926">
        <ele>951.8</ele>
        <time>2022-07-31T14:22:08Z</time>
      </trkpt>
      <trkpt lat="44.81976" lon="3.10928">
        <ele>952.1</ele>
        <time>2022-07-31T14:22:09Z</time>
      </trkpt>
      <trkpt lat="44.81975" lon="3.10929">
        <ele>952.3</ele>
        <time>2022-07-31T14:22:10Z</time>
      </trkpt>
      <trkpt lat="44.81974" lon="3.1093">
        <ele>952.5</ele>
        <time>2022-07-31T14:22:11Z</time>
      </trkpt>
      <trkpt lat="44.81973" lon="3.10931">
        <ele>952.7</ele>
        <time>2022-07-31T14:22:12Z</time>
      </trkpt>
      <trkpt lat="44.81971" lon="3.10934">
        <ele>953</ele>
        <time>2022-07-31T14:22:14Z</time>
      </trkpt>
      <trkpt lat="44.81968" lon="3.10938">
        <ele>953.3</ele>
        <time>2022-07-31T14:22:17Z</time>
      </trkpt>
      <trkpt lat="44.81967" lon="3.1094">
        <ele>953.6</ele>
        <time>2022-07-31T14:22:19Z</time>
      </trkpt>
      <trkpt lat="44.81966" lon="3.10941">
        <ele>953.7</ele>
        <time>2022-07-31T14:22:20Z</time>
      </trkpt>
      <trkpt lat="44.81965" lon="3.10943">
        <ele>953.8</ele>
        <time>2022-07-31T14:22:22Z</time>
      </trkpt>
      <trkpt lat="44.81965" lon="3.10943">
        <ele>953.7</ele>
        <time>2022-07-31T14:22:23Z</time>
      </trkpt>
      <trkpt lat="44.81965" lon="3.10943">
        <ele>953.7</ele>
        <time>2022-07-31T14:22:24Z</time>
      </trkpt>
      <trkpt lat="44.81962" lon="3.10949">
        <ele>954.3</ele>
        <time>2022-07-31T14:22:30Z</time>
      </trkpt>
      <trkpt lat="44.81961" lon="3.10951">
        <ele>954.3</ele>
        <time>2022-07-31T14:22:31Z</time>
      </trkpt>
      <trkpt lat="44.81961" lon="3.10952">
        <ele>954.4</ele>
        <time>2022-07-31T14:22:32Z</time>
      </trkpt>
      <trkpt lat="44.8196" lon="3.10954">
        <ele>954.5</ele>
        <time>2022-07-31T14:22:33Z</time>
      </trkpt>
      <trkpt lat="44.81959" lon="3.10955">
        <ele>954.6</ele>
        <time>2022-07-31T14:22:34Z</time>
      </trkpt>
      <trkpt lat="44.81958" lon="3.10956">
        <ele>954.7</ele>
        <time>2022-07-31T14:22:35Z</time>
      </trkpt>
      <trkpt lat="44.81958" lon="3.10958">
        <ele>954.8</ele>
        <time>2022-07-31T14:22:36Z</time>
      </trkpt>
      <trkpt lat="44.81956" lon="3.10961">
        <ele>955.1</ele>
        <time>2022-07-31T14:22:37Z</time>
      </trkpt>
      <trkpt lat="44.81956" lon="3.10961">
        <ele>955.1</ele>
        <time>2022-07-31T14:22:38Z</time>
      </trkpt>
      <trkpt lat="44.81956" lon="3.10963">
        <ele>955.2</ele>
        <time>2022-07-31T14:22:39Z</time>
      </trkpt>
      <trkpt lat="44.81955" lon="3.10964">
        <ele>955.3</ele>
        <time>2022-07-31T14:22:40Z</time>
      </trkpt>
      <trkpt lat="44.81953" lon="3.10966">
        <ele>955.3</ele>
        <time>2022-07-31T14:22:41Z</time>
      </trkpt>
      <trkpt lat="44.81952" lon="3.10969">
        <ele>955.5</ele>
        <time>2022-07-31T14:22:43Z</time>
      </trkpt>
      <trkpt lat="44.8195" lon="3.10971">
        <ele>955.6</ele>
        <time>2022-07-31T14:22:45Z</time>
      </trkpt>
      <trkpt lat="44.81949" lon="3.10974">
        <ele>955.8</ele>
        <time>2022-07-31T14:22:47Z</time>
      </trkpt>
      <trkpt lat="44.81947" lon="3.10977">
        <ele>955.9</ele>
        <time>2022-07-31T14:22:49Z</time>
      </trkpt>
      <trkpt lat="44.81946" lon="3.10978">
        <ele>956</ele>
        <time>2022-07-31T14:22:50Z</time>
      </trkpt>
      <trkpt lat="44.81946" lon="3.10979">
        <ele>956.1</ele>
        <time>2022-07-31T14:22:51Z</time>
      </trkpt>
      <trkpt lat="44.81945" lon="3.1098">
        <ele>956.2</ele>
        <time>2022-07-31T14:22:52Z</time>
      </trkpt>
      <trkpt lat="44.81945" lon="3.10982">
        <ele>956.4</ele>
        <time>2022-07-31T14:22:53Z</time>
      </trkpt>
      <trkpt lat="44.81944" lon="3.10983">
        <ele>956.5</ele>
        <time>2022-07-31T14:22:54Z</time>
      </trkpt>
      <trkpt lat="44.81943" lon="3.10985">
        <ele>956.7</ele>
        <time>2022-07-31T14:22:55Z</time>
      </trkpt>
      <trkpt lat="44.81942" lon="3.10988">
        <ele>957.1</ele>
        <time>2022-07-31T14:22:57Z</time>
      </trkpt>
      <trkpt lat="44.81941" lon="3.10989">
        <ele>957.2</ele>
        <time>2022-07-31T14:22:58Z</time>
      </trkpt>
      <trkpt lat="44.81941" lon="3.10991">
        <ele>957.4</ele>
        <time>2022-07-31T14:22:59Z</time>
      </trkpt>
      <trkpt lat="44.81939" lon="3.10994">
        <ele>957.7</ele>
        <time>2022-07-31T14:23:01Z</time>
      </trkpt>
      <trkpt lat="44.81937" lon="3.10997">
        <ele>958.1</ele>
        <time>2022-07-31T14:23:04Z</time>
      </trkpt>
      <trkpt lat="44.81933" lon="3.11002">
        <ele>958.4</ele>
        <time>2022-07-31T14:23:08Z</time>
      </trkpt>
      <trkpt lat="44.8193" lon="3.11006">
        <ele>958.7</ele>
        <time>2022-07-31T14:23:12Z</time>
      </trkpt>
      <trkpt lat="44.81928" lon="3.11009">
        <ele>958.8</ele>
        <time>2022-07-31T14:23:14Z</time>
      </trkpt>
      <trkpt lat="44.81925" lon="3.11012">
        <ele>958.9</ele>
        <time>2022-07-31T14:23:17Z</time>
      </trkpt>
      <trkpt lat="44.81922" lon="3.11015">
        <ele>959</ele>
        <time>2022-07-31T14:23:24Z</time>
      </trkpt>
      <trkpt lat="44.81921" lon="3.11016">
        <ele>959.1</ele>
        <time>2022-07-31T14:23:27Z</time>
      </trkpt>
      <trkpt lat="44.8192" lon="3.11018">
        <ele>959.2</ele>
        <time>2022-07-31T14:23:29Z</time>
      </trkpt>
      <trkpt lat="44.81919" lon="3.11019">
        <ele>959.2</ele>
        <time>2022-07-31T14:23:30Z</time>
      </trkpt>
      <trkpt lat="44.81916" lon="3.11021">
        <ele>959.3</ele>
        <time>2022-07-31T14:23:33Z</time>
      </trkpt>
      <trkpt lat="44.81912" lon="3.11023">
        <ele>959.6</ele>
        <time>2022-07-31T14:23:36Z</time>
      </trkpt>
      <trkpt lat="44.81909" lon="3.11024">
        <ele>959.7</ele>
        <time>2022-07-31T14:23:38Z</time>
      </trkpt>
      <trkpt lat="44.81907" lon="3.11025">
        <ele>960</ele>
        <time>2022-07-31T14:23:40Z</time>
      </trkpt>
      <trkpt lat="44.81905" lon="3.11026">
        <ele>960.2</ele>
        <time>2022-07-31T14:23:42Z</time>
      </trkpt>
      <trkpt lat="44.819" lon="3.11029">
        <ele>960.7</ele>
        <time>2022-07-31T14:23:45Z</time>
      </trkpt>
      <trkpt lat="44.81899" lon="3.1103">
        <ele>961</ele>
        <time>2022-07-31T14:23:46Z</time>
      </trkpt>
      <trkpt lat="44.81897" lon="3.11031">
        <ele>961.4</ele>
        <time>2022-07-31T14:23:48Z</time>
      </trkpt>
      <trkpt lat="44.81894" lon="3.11032">
        <ele>961.8</ele>
        <time>2022-07-31T14:23:50Z</time>
      </trkpt>
      <trkpt lat="44.8189" lon="3.11034">
        <ele>962.3</ele>
        <time>2022-07-31T14:23:53Z</time>
      </trkpt>
      <trkpt lat="44.81884" lon="3.11035">
        <ele>962.3</ele>
        <time>2022-07-31T14:23:58Z</time>
      </trkpt>
      <trkpt lat="44.81883" lon="3.11035">
        <ele>962.2</ele>
        <time>2022-07-31T14:24:00Z</time>
      </trkpt>
      <trkpt lat="44.81883" lon="3.11036">
        <ele>962.2</ele>
        <time>2022-07-31T14:24:01Z</time>
      </trkpt>
      <trkpt lat="44.81882" lon="3.11036">
        <ele>962.3</ele>
        <time>2022-07-31T14:24:02Z</time>
      </trkpt>
      <trkpt lat="44.81881" lon="3.11038">
        <ele>962.4</ele>
        <time>2022-07-31T14:24:04Z</time>
      </trkpt>
      <trkpt lat="44.8188" lon="3.11038">
        <ele>962.4</ele>
        <time>2022-07-31T14:24:05Z</time>
      </trkpt>
      <trkpt lat="44.81879" lon="3.11039">
        <ele>962.5</ele>
        <time>2022-07-31T14:24:06Z</time>
      </trkpt>
      <trkpt lat="44.81878" lon="3.1104">
        <ele>962.6</ele>
        <time>2022-07-31T14:24:07Z</time>
      </trkpt>
      <trkpt lat="44.81876" lon="3.1104">
        <ele>962.6</ele>
        <time>2022-07-31T14:24:08Z</time>
      </trkpt>
      <trkpt lat="44.81874" lon="3.11041">
        <ele>962.6</ele>
        <time>2022-07-31T14:24:10Z</time>
      </trkpt>
      <trkpt lat="44.81872" lon="3.11042">
        <ele>962.6</ele>
        <time>2022-07-31T14:24:12Z</time>
      </trkpt>
      <trkpt lat="44.8187" lon="3.11044">
        <ele>962.7</ele>
        <time>2022-07-31T14:24:15Z</time>
      </trkpt>
      <trkpt lat="44.81865" lon="3.11047">
        <ele>962.8</ele>
        <time>2022-07-31T14:24:20Z</time>
      </trkpt>
      <trkpt lat="44.81861" lon="3.1105">
        <ele>963</ele>
        <time>2022-07-31T14:24:26Z</time>
      </trkpt>
      <trkpt lat="44.8186" lon="3.1105">
        <ele>963.1</ele>
        <time>2022-07-31T14:24:27Z</time>
      </trkpt>
      <trkpt lat="44.81859" lon="3.11051">
        <ele>963.1</ele>
        <time>2022-07-31T14:24:31Z</time>
      </trkpt>
      <trkpt lat="44.8186" lon="3.11051">
        <ele>963.2</ele>
        <time>2022-07-31T14:24:35Z</time>
      </trkpt>
      <trkpt lat="44.8186" lon="3.11051">
        <ele>963.1</ele>
        <time>2022-07-31T14:24:37Z</time>
      </trkpt>
      <trkpt lat="44.8186" lon="3.11051">
        <ele>963.1</ele>
        <time>2022-07-31T14:24:41Z</time>
      </trkpt>
      <trkpt lat="44.81859" lon="3.11051">
        <ele>963.2</ele>
        <time>2022-07-31T14:24:51Z</time>
      </trkpt>
      <trkpt lat="44.81847" lon="3.11062">
        <ele>964.4</ele>
        <time>2022-07-31T14:25:01Z</time>
      </trkpt>
      <trkpt lat="44.81842" lon="3.11068">
        <ele>964.8</ele>
        <time>2022-07-31T14:25:06Z</time>
      </trkpt>
      <trkpt lat="44.81839" lon="3.1107">
        <ele>964.9</ele>
        <time>2022-07-31T14:25:09Z</time>
      </trkpt>
      <trkpt lat="44.81838" lon="3.1107">
        <ele>964.9</ele>
        <time>2022-07-31T14:25:10Z</time>
      </trkpt>
      <trkpt lat="44.81839" lon="3.11071">
        <ele>965</ele>
        <time>2022-07-31T14:25:12Z</time>
      </trkpt>
      <trkpt lat="44.8184" lon="3.11071">
        <ele>965.1</ele>
        <time>2022-07-31T14:25:15Z</time>
      </trkpt>
      <trkpt lat="44.81839" lon="3.11075">
        <ele>965.5</ele>
        <time>2022-07-31T14:25:22Z</time>
      </trkpt>
      <trkpt lat="44.81837" lon="3.11076">
        <ele>965.5</ele>
        <time>2022-07-31T14:25:23Z</time>
      </trkpt>
      <trkpt lat="44.81834" lon="3.1108">
        <ele>965.6</ele>
        <time>2022-07-31T14:25:26Z</time>
      </trkpt>
      <trkpt lat="44.8183" lon="3.11085">
        <ele>965.9</ele>
        <time>2022-07-31T14:25:31Z</time>
      </trkpt>
      <trkpt lat="44.81823" lon="3.11095">
        <ele>966.5</ele>
        <time>2022-07-31T14:25:38Z</time>
      </trkpt>
      <trkpt lat="44.81823" lon="3.11096">
        <ele>966.7</ele>
        <time>2022-07-31T14:25:39Z</time>
      </trkpt>
      <trkpt lat="44.8182" lon="3.11103">
        <ele>967.3</ele>
        <time>2022-07-31T14:25:46Z</time>
      </trkpt>
      <trkpt lat="44.81819" lon="3.11104">
        <ele>967.4</ele>
        <time>2022-07-31T14:25:47Z</time>
      </trkpt>
      <trkpt lat="44.81819" lon="3.11106">
        <ele>967.7</ele>
        <time>2022-07-31T14:25:50Z</time>
      </trkpt>
      <trkpt lat="44.8182" lon="3.11106">
        <ele>967.8</ele>
        <time>2022-07-31T14:25:51Z</time>
      </trkpt>
      <trkpt lat="44.8182" lon="3.11106">
        <ele>967.8</ele>
        <time>2022-07-31T14:25:53Z</time>
      </trkpt>
      <trkpt lat="44.81819" lon="3.11105">
        <ele>967.6</ele>
        <time>2022-07-31T14:25:54Z</time>
      </trkpt>
      <trkpt lat="44.81819" lon="3.11105">
        <ele>967.6</ele>
        <time>2022-07-31T14:25:55Z</time>
      </trkpt>
      <trkpt lat="44.81819" lon="3.11105">
        <ele>967.6</ele>
        <time>2022-07-31T14:25:56Z</time>
      </trkpt>
      <trkpt lat="44.81819" lon="3.11105">
        <ele>967.6</ele>
        <time>2022-07-31T14:25:58Z</time>
      </trkpt>
      <trkpt lat="44.81819" lon="3.11106">
        <ele>967.7</ele>
        <time>2022-07-31T14:26:00Z</time>
      </trkpt>
      <trkpt lat="44.81818" lon="3.11107">
        <ele>967.8</ele>
        <time>2022-07-31T14:26:01Z</time>
      </trkpt>
      <trkpt lat="44.81817" lon="3.1111">
        <ele>968</ele>
        <time>2022-07-31T14:26:03Z</time>
      </trkpt>
      <trkpt lat="44.81815" lon="3.11113">
        <ele>968.2</ele>
        <time>2022-07-31T14:26:05Z</time>
      </trkpt>
      <trkpt lat="44.81814" lon="3.11115">
        <ele>968.3</ele>
        <time>2022-07-31T14:26:06Z</time>
      </trkpt>
      <trkpt lat="44.81812" lon="3.11117">
        <ele>968.4</ele>
        <time>2022-07-31T14:26:08Z</time>
      </trkpt>
      <trkpt lat="44.81811" lon="3.11119">
        <ele>968.4</ele>
        <time>2022-07-31T14:26:09Z</time>
      </trkpt>
      <trkpt lat="44.8181" lon="3.11121">
        <ele>968.5</ele>
        <time>2022-07-31T14:26:11Z</time>
      </trkpt>
      <trkpt lat="44.81809" lon="3.11124">
        <ele>968.7</ele>
        <time>2022-07-31T14:26:13Z</time>
      </trkpt>
      <trkpt lat="44.81808" lon="3.11125">
        <ele>968.8</ele>
        <time>2022-07-31T14:26:14Z</time>
      </trkpt>
      <trkpt lat="44.81806" lon="3.11129">
        <ele>969</ele>
        <time>2022-07-31T14:26:16Z</time>
      </trkpt>
      <trkpt lat="44.81806" lon="3.11129">
        <ele>969</ele>
        <time>2022-07-31T14:26:17Z</time>
      </trkpt>
      <trkpt lat="44.81805" lon="3.11132">
        <ele>969.2</ele>
        <time>2022-07-31T14:26:18Z</time>
      </trkpt>
      <trkpt lat="44.81804" lon="3.11134">
        <ele>969.4</ele>
        <time>2022-07-31T14:26:20Z</time>
      </trkpt>
      <trkpt lat="44.81801" lon="3.1114">
        <ele>969.9</ele>
        <time>2022-07-31T14:26:24Z</time>
      </trkpt>
      <trkpt lat="44.818" lon="3.11141">
        <ele>970</ele>
        <time>2022-07-31T14:26:25Z</time>
      </trkpt>
      <trkpt lat="44.81796" lon="3.11155">
        <ele>971.2</ele>
        <time>2022-07-31T14:26:34Z</time>
      </trkpt>
      <trkpt lat="44.81796" lon="3.11156">
        <ele>971.3</ele>
        <time>2022-07-31T14:26:35Z</time>
      </trkpt>
      <trkpt lat="44.81792" lon="3.11171">
        <ele>972.1</ele>
        <time>2022-07-31T14:26:45Z</time>
      </trkpt>
      <trkpt lat="44.81792" lon="3.11175">
        <ele>972.1</ele>
        <time>2022-07-31T14:26:47Z</time>
      </trkpt>
      <trkpt lat="44.81792" lon="3.11176">
        <ele>972.2</ele>
        <time>2022-07-31T14:26:48Z</time>
      </trkpt>
      <trkpt lat="44.81791" lon="3.11179">
        <ele>972.2</ele>
        <time>2022-07-31T14:26:50Z</time>
      </trkpt>
      <trkpt lat="44.8179" lon="3.11183">
        <ele>972.1</ele>
        <time>2022-07-31T14:26:52Z</time>
      </trkpt>
      <trkpt lat="44.8179" lon="3.11185">
        <ele>972.1</ele>
        <time>2022-07-31T14:26:53Z</time>
      </trkpt>
      <trkpt lat="44.8179" lon="3.11186">
        <ele>972.1</ele>
        <time>2022-07-31T14:26:54Z</time>
      </trkpt>
      <trkpt lat="44.81789" lon="3.11188">
        <ele>972.1</ele>
        <time>2022-07-31T14:26:55Z</time>
      </trkpt>
      <trkpt lat="44.81788" lon="3.11191">
        <ele>972.1</ele>
        <time>2022-07-31T14:26:57Z</time>
      </trkpt>
      <trkpt lat="44.81788" lon="3.11196">
        <ele>972</ele>
        <time>2022-07-31T14:27:00Z</time>
      </trkpt>
      <trkpt lat="44.81787" lon="3.11201">
        <ele>971.6</ele>
        <time>2022-07-31T14:27:03Z</time>
      </trkpt>
      <trkpt lat="44.81787" lon="3.11203">
        <ele>971.5</ele>
        <time>2022-07-31T14:27:04Z</time>
      </trkpt>
      <trkpt lat="44.81786" lon="3.11205">
        <ele>971.3</ele>
        <time>2022-07-31T14:27:06Z</time>
      </trkpt>
      <trkpt lat="44.81786" lon="3.11209">
        <ele>971</ele>
        <time>2022-07-31T14:27:08Z</time>
      </trkpt>
      <trkpt lat="44.81785" lon="3.11214">
        <ele>970.5</ele>
        <time>2022-07-31T14:27:12Z</time>
      </trkpt>
      <trkpt lat="44.81784" lon="3.11214">
        <ele>970.4</ele>
        <time>2022-07-31T14:27:15Z</time>
      </trkpt>
      <trkpt lat="44.81784" lon="3.11214">
        <ele>970.4</ele>
        <time>2022-07-31T14:27:17Z</time>
      </trkpt>
      <trkpt lat="44.81784" lon="3.11215">
        <ele>970.3</ele>
        <time>2022-07-31T14:27:19Z</time>
      </trkpt>
      <trkpt lat="44.81783" lon="3.11216">
        <ele>970.2</ele>
        <time>2022-07-31T14:27:22Z</time>
      </trkpt>
      <trkpt lat="44.81782" lon="3.1122">
        <ele>969.8</ele>
        <time>2022-07-31T14:27:28Z</time>
      </trkpt>
      <trkpt lat="44.81781" lon="3.11222">
        <ele>969.5</ele>
        <time>2022-07-31T14:27:30Z</time>
      </trkpt>
      <trkpt lat="44.81779" lon="3.11228">
        <ele>968.7</ele>
        <time>2022-07-31T14:27:34Z</time>
      </trkpt>
      <trkpt lat="44.81778" lon="3.11229">
        <ele>968.5</ele>
        <time>2022-07-31T14:27:35Z</time>
      </trkpt>
      <trkpt lat="44.81777" lon="3.11232">
        <ele>968.3</ele>
        <time>2022-07-31T14:27:37Z</time>
      </trkpt>
      <trkpt lat="44.81776" lon="3.11235">
        <ele>968.3</ele>
        <time>2022-07-31T14:27:39Z</time>
      </trkpt>
      <trkpt lat="44.81773" lon="3.11238">
        <ele>968.2</ele>
        <time>2022-07-31T14:27:42Z</time>
      </trkpt>
      <trkpt lat="44.81773" lon="3.1124">
        <ele>968.1</ele>
        <time>2022-07-31T14:27:45Z</time>
      </trkpt>
      <trkpt lat="44.81773" lon="3.1124">
        <ele>968.1</ele>
        <time>2022-07-31T14:27:46Z</time>
      </trkpt>
      <trkpt lat="44.81773" lon="3.1124">
        <ele>968.1</ele>
        <time>2022-07-31T14:27:47Z</time>
      </trkpt>
      <trkpt lat="44.81772" lon="3.11241">
        <ele>968.1</ele>
        <time>2022-07-31T14:27:48Z</time>
      </trkpt>
      <trkpt lat="44.81773" lon="3.11241">
        <ele>968.1</ele>
        <time>2022-07-31T14:27:49Z</time>
      </trkpt>
      <trkpt lat="44.81773" lon="3.1124">
        <ele>968.1</ele>
        <time>2022-07-31T14:27:50Z</time>
      </trkpt>
      <trkpt lat="44.81772" lon="3.1124">
        <ele>968.1</ele>
        <time>2022-07-31T14:27:51Z</time>
      </trkpt>
      <trkpt lat="44.81772" lon="3.1124">
        <ele>968.1</ele>
        <time>2022-07-31T14:27:52Z</time>
      </trkpt>
      <trkpt lat="44.81772" lon="3.11241">
        <ele>968</ele>
        <time>2022-07-31T14:27:53Z</time>
      </trkpt>
      <trkpt lat="44.81771" lon="3.11243">
        <ele>967.9</ele>
        <time>2022-07-31T14:27:55Z</time>
      </trkpt>
      <trkpt lat="44.8177" lon="3.11248">
        <ele>967.5</ele>
        <time>2022-07-31T14:27:58Z</time>
      </trkpt>
      <trkpt lat="44.81768" lon="3.11251">
        <ele>967.1</ele>
        <time>2022-07-31T14:28:01Z</time>
      </trkpt>
      <trkpt lat="44.81768" lon="3.11252">
        <ele>966.8</ele>
        <time>2022-07-31T14:28:02Z</time>
      </trkpt>
      <trkpt lat="44.81767" lon="3.11253">
        <ele>966.6</ele>
        <time>2022-07-31T14:28:03Z</time>
      </trkpt>
      <trkpt lat="44.81765" lon="3.11254">
        <ele>966.4</ele>
        <time>2022-07-31T14:28:04Z</time>
      </trkpt>
      <trkpt lat="44.81764" lon="3.11256">
        <ele>966.2</ele>
        <time>2022-07-31T14:28:05Z</time>
      </trkpt>
      <trkpt lat="44.81763" lon="3.11257">
        <ele>966</ele>
        <time>2022-07-31T14:28:06Z</time>
      </trkpt>
      <trkpt lat="44.8176" lon="3.11259">
        <ele>965.7</ele>
        <time>2022-07-31T14:28:08Z</time>
      </trkpt>
      <trkpt lat="44.81756" lon="3.11262">
        <ele>965.4</ele>
        <time>2022-07-31T14:28:11Z</time>
      </trkpt>
      <trkpt lat="44.81753" lon="3.11264">
        <ele>965.2</ele>
        <time>2022-07-31T14:28:14Z</time>
      </trkpt>
      <trkpt lat="44.81751" lon="3.11266">
        <ele>964.9</ele>
        <time>2022-07-31T14:28:16Z</time>
      </trkpt>
      <trkpt lat="44.81748" lon="3.11269">
        <ele>965</ele>
        <time>2022-07-31T14:28:19Z</time>
      </trkpt>
      <trkpt lat="44.81739" lon="3.11276">
        <ele>965</ele>
        <time>2022-07-31T14:28:26Z</time>
      </trkpt>
      <trkpt lat="44.81736" lon="3.11277">
        <ele>965.2</ele>
        <time>2022-07-31T14:28:28Z</time>
      </trkpt>
      <trkpt lat="44.81733" lon="3.11278">
        <ele>965.5</ele>
        <time>2022-07-31T14:28:31Z</time>
      </trkpt>
      <trkpt lat="44.81732" lon="3.11278">
        <ele>965.5</ele>
        <time>2022-07-31T14:28:32Z</time>
      </trkpt>
      <trkpt lat="44.81732" lon="3.11279">
        <ele>965.4</ele>
        <time>2022-07-31T14:28:33Z</time>
      </trkpt>
      <trkpt lat="44.81732" lon="3.11279">
        <ele>965.4</ele>
        <time>2022-07-31T14:28:34Z</time>
      </trkpt>
      <trkpt lat="44.81731" lon="3.11279">
        <ele>965.4</ele>
        <time>2022-07-31T14:28:36Z</time>
      </trkpt>
      <trkpt lat="44.81725" lon="3.11285">
        <ele>964.7</ele>
        <time>2022-07-31T14:28:42Z</time>
      </trkpt>
      <trkpt lat="44.81725" lon="3.11286">
        <ele>964.6</ele>
        <time>2022-07-31T14:28:43Z</time>
      </trkpt>
      <trkpt lat="44.81724" lon="3.11287">
        <ele>964.4</ele>
        <time>2022-07-31T14:28:44Z</time>
      </trkpt>
      <trkpt lat="44.81721" lon="3.11291">
        <ele>963.8</ele>
        <time>2022-07-31T14:28:48Z</time>
      </trkpt>
      <trkpt lat="44.8172" lon="3.11292">
        <ele>963.7</ele>
        <time>2022-07-31T14:28:49Z</time>
      </trkpt>
      <trkpt lat="44.81714" lon="3.11301">
        <ele>962.6</ele>
        <time>2022-07-31T14:28:57Z</time>
      </trkpt>
      <trkpt lat="44.81714" lon="3.11302">
        <ele>962.3</ele>
        <time>2022-07-31T14:28:58Z</time>
      </trkpt>
      <trkpt lat="44.81709" lon="3.11308">
        <ele>961.6</ele>
        <time>2022-07-31T14:29:03Z</time>
      </trkpt>
      <trkpt lat="44.81707" lon="3.1131">
        <ele>961.7</ele>
        <time>2022-07-31T14:29:05Z</time>
      </trkpt>
      <trkpt lat="44.81703" lon="3.11317">
        <ele>961.3</ele>
        <time>2022-07-31T14:29:11Z</time>
      </trkpt>
      <trkpt lat="44.81698" lon="3.11325">
        <ele>960.8</ele>
        <time>2022-07-31T14:29:18Z</time>
      </trkpt>
      <trkpt lat="44.81697" lon="3.11325">
        <ele>960.9</ele>
        <time>2022-07-31T14:29:19Z</time>
      </trkpt>
      <trkpt lat="44.81697" lon="3.11325">
        <ele>961</ele>
        <time>2022-07-31T14:29:20Z</time>
      </trkpt>
      <trkpt lat="44.81696" lon="3.11324">
        <ele>961.1</ele>
        <time>2022-07-31T14:29:23Z</time>
      </trkpt>
      <trkpt lat="44.81696" lon="3.11324">
        <ele>961.1</ele>
        <time>2022-07-31T14:29:25Z</time>
      </trkpt>
      <trkpt lat="44.81695" lon="3.11327">
        <ele>960.8</ele>
        <time>2022-07-31T14:29:28Z</time>
      </trkpt>
      <trkpt lat="44.81692" lon="3.11338">
        <ele>959.8</ele>
        <time>2022-07-31T14:29:35Z</time>
      </trkpt>
      <trkpt lat="44.81688" lon="3.11358">
        <ele>958.5</ele>
        <time>2022-07-31T14:29:47Z</time>
      </trkpt>
      <trkpt lat="44.81687" lon="3.11367">
        <ele>958.1</ele>
        <time>2022-07-31T14:29:53Z</time>
      </trkpt>
      <trkpt lat="44.81684" lon="3.11377">
        <ele>957.8</ele>
        <time>2022-07-31T14:29:59Z</time>
      </trkpt>
      <trkpt lat="44.81685" lon="3.11379">
        <ele>957.7</ele>
        <time>2022-07-31T14:30:00Z</time>
      </trkpt>
      <trkpt lat="44.81685" lon="3.1138">
        <ele>957.6</ele>
        <time>2022-07-31T14:30:01Z</time>
      </trkpt>
      <trkpt lat="44.81685" lon="3.11384">
        <ele>957.5</ele>
        <time>2022-07-31T14:30:03Z</time>
      </trkpt>
      <trkpt lat="44.81686" lon="3.11387">
        <ele>957.4</ele>
        <time>2022-07-31T14:30:05Z</time>
      </trkpt>
      <trkpt lat="44.81685" lon="3.114">
        <ele>957.3</ele>
        <time>2022-07-31T14:30:12Z</time>
      </trkpt>
      <trkpt lat="44.81685" lon="3.11401">
        <ele>957.3</ele>
        <time>2022-07-31T14:30:13Z</time>
      </trkpt>
      <trkpt lat="44.81685" lon="3.11413">
        <ele>957.3</ele>
        <time>2022-07-31T14:30:19Z</time>
      </trkpt>
      <trkpt lat="44.81685" lon="3.11417">
        <ele>957.3</ele>
        <time>2022-07-31T14:30:21Z</time>
      </trkpt>
      <trkpt lat="44.81685" lon="3.11425">
        <ele>957.2</ele>
        <time>2022-07-31T14:30:25Z</time>
      </trkpt>
      <trkpt lat="44.81687" lon="3.11434">
        <ele>957.1</ele>
        <time>2022-07-31T14:30:30Z</time>
      </trkpt>
      <trkpt lat="44.81686" lon="3.11441">
        <ele>957</ele>
        <time>2022-07-31T14:30:37Z</time>
      </trkpt>
      <trkpt lat="44.81687" lon="3.11443">
        <ele>957</ele>
        <time>2022-07-31T14:30:40Z</time>
      </trkpt>
      <trkpt lat="44.81687" lon="3.11448">
        <ele>957</ele>
        <time>2022-07-31T14:30:43Z</time>
      </trkpt>
      <trkpt lat="44.81686" lon="3.11449">
        <ele>957</ele>
        <time>2022-07-31T14:30:44Z</time>
      </trkpt>
      <trkpt lat="44.81687" lon="3.11451">
        <ele>957</ele>
        <time>2022-07-31T14:30:48Z</time>
      </trkpt>
      <trkpt lat="44.81686" lon="3.11451">
        <ele>957</ele>
        <time>2022-07-31T14:30:49Z</time>
      </trkpt>
      <trkpt lat="44.81686" lon="3.11451">
        <ele>957</ele>
        <time>2022-07-31T14:30:50Z</time>
      </trkpt>
      <trkpt lat="44.81686" lon="3.11451">
        <ele>957</ele>
        <time>2022-07-31T14:30:59Z</time>
      </trkpt>
      <trkpt lat="44.81686" lon="3.11451">
        <ele>957</ele>
        <time>2022-07-31T14:31:02Z</time>
      </trkpt>
      <trkpt lat="44.81685" lon="3.11458">
        <ele>957</ele>
        <time>2022-07-31T14:31:06Z</time>
      </trkpt>
      <trkpt lat="44.81687" lon="3.11474">
        <ele>957</ele>
        <time>2022-07-31T14:31:13Z</time>
      </trkpt>
      <trkpt lat="44.81687" lon="3.11478">
        <ele>957</ele>
        <time>2022-07-31T14:31:15Z</time>
      </trkpt>
      <trkpt lat="44.81688" lon="3.11493">
        <ele>957.2</ele>
        <time>2022-07-31T14:31:24Z</time>
      </trkpt>
      <trkpt lat="44.8169" lon="3.11507">
        <ele>957.2</ele>
        <time>2022-07-31T14:31:32Z</time>
      </trkpt>
      <trkpt lat="44.81691" lon="3.11516">
        <ele>957.1</ele>
        <time>2022-07-31T14:31:37Z</time>
      </trkpt>
      <trkpt lat="44.81692" lon="3.11523">
        <ele>957.1</ele>
        <time>2022-07-31T14:31:41Z</time>
      </trkpt>
      <trkpt lat="44.81693" lon="3.11531">
        <ele>957.1</ele>
        <time>2022-07-31T14:31:46Z</time>
      </trkpt>
      <trkpt lat="44.81692" lon="3.11532">
        <ele>957.1</ele>
        <time>2022-07-31T14:31:48Z</time>
      </trkpt>
      <trkpt lat="44.81692" lon="3.11533">
        <ele>957.1</ele>
        <time>2022-07-31T14:31:49Z</time>
      </trkpt>
      <trkpt lat="44.81691" lon="3.11536">
        <ele>957.2</ele>
        <time>2022-07-31T14:31:51Z</time>
      </trkpt>
      <trkpt lat="44.8169" lon="3.11542">
        <ele>957.2</ele>
        <time>2022-07-31T14:31:55Z</time>
      </trkpt>
      <trkpt lat="44.81691" lon="3.11545">
        <ele>957.2</ele>
        <time>2022-07-31T14:31:57Z</time>
      </trkpt>
      <trkpt lat="44.81694" lon="3.11554">
        <ele>957</ele>
        <time>2022-07-31T14:32:03Z</time>
      </trkpt>
      <trkpt lat="44.81695" lon="3.11559">
        <ele>957.1</ele>
        <time>2022-07-31T14:32:06Z</time>
      </trkpt>
      <trkpt lat="44.81693" lon="3.11564">
        <ele>957.4</ele>
        <time>2022-07-31T14:32:10Z</time>
      </trkpt>
      <trkpt lat="44.81692" lon="3.11564">
        <ele>957.4</ele>
        <time>2022-07-31T14:32:11Z</time>
      </trkpt>
      <trkpt lat="44.81686" lon="3.11571">
        <ele>957.8</ele>
        <time>2022-07-31T14:32:18Z</time>
      </trkpt>
      <trkpt lat="44.81684" lon="3.11574">
        <ele>957.9</ele>
        <time>2022-07-31T14:32:21Z</time>
      </trkpt>
      <trkpt lat="44.81679" lon="3.11581">
        <ele>958</ele>
        <time>2022-07-31T14:32:30Z</time>
      </trkpt>
      <trkpt lat="44.81679" lon="3.11581">
        <ele>958</ele>
        <time>2022-07-31T14:32:31Z</time>
      </trkpt>
      <trkpt lat="44.8168" lon="3.11581">
        <ele>958</ele>
        <time>2022-07-31T14:32:33Z</time>
      </trkpt>
      <trkpt lat="44.81679" lon="3.11583">
        <ele>958</ele>
        <time>2022-07-31T14:32:38Z</time>
      </trkpt>
      <trkpt lat="44.81674" lon="3.11586">
        <ele>958.1</ele>
        <time>2022-07-31T14:32:44Z</time>
      </trkpt>
      <trkpt lat="44.81672" lon="3.11586">
        <ele>958.1</ele>
        <time>2022-07-31T14:32:46Z</time>
      </trkpt>
      <trkpt lat="44.81668" lon="3.11585">
        <ele>958.1</ele>
        <time>2022-07-31T14:32:49Z</time>
      </trkpt>
      <trkpt lat="44.8173" lon="3.11739">
        <ele>959.7</ele>
        <time>2022-08-01T07:20:23Z</time>
      </trkpt>
      <trkpt lat="44.81733" lon="3.11753">
        <ele>959.6</ele>
        <time>2022-08-01T07:20:29Z</time>
      </trkpt>
      <trkpt lat="44.81744" lon="3.11756">
        <ele>959.2</ele>
        <time>2022-08-01T07:20:37Z</time>
      </trkpt>
      <trkpt lat="44.81749" lon="3.11767">
        <ele>959</ele>
        <time>2022-08-01T07:20:45Z</time>
      </trkpt>
      <trkpt lat="44.81755" lon="3.11775">
        <ele>958.8</ele>
        <time>2022-08-01T07:20:52Z</time>
      </trkpt>
      <trkpt lat="44.81757" lon="3.1178">
        <ele>958.7</ele>
        <time>2022-08-01T07:20:55Z</time>
      </trkpt>
      <trkpt lat="44.81762" lon="3.11785">
        <ele>958.5</ele>
        <time>2022-08-01T07:20:59Z</time>
      </trkpt>
      <trkpt lat="44.81766" lon="3.11789">
        <ele>958.5</ele>
        <time>2022-08-01T07:21:02Z</time>
      </trkpt>
      <trkpt lat="44.81767" lon="3.11791">
        <ele>958.5</ele>
        <time>2022-08-01T07:21:04Z</time>
      </trkpt>
      <trkpt lat="44.81768" lon="3.11793">
        <ele>958.5</ele>
        <time>2022-08-01T07:21:05Z</time>
      </trkpt>
      <trkpt lat="44.81771" lon="3.11797">
        <ele>958.6</ele>
        <time>2022-08-01T07:21:08Z</time>
      </trkpt>
      <trkpt lat="44.81774" lon="3.11801">
        <ele>958.7</ele>
        <time>2022-08-01T07:21:11Z</time>
      </trkpt>
      <trkpt lat="44.81778" lon="3.11807">
        <ele>959</ele>
        <time>2022-08-01T07:21:15Z</time>
      </trkpt>
      <trkpt lat="44.81778" lon="3.11808">
        <ele>959</ele>
        <time>2022-08-01T07:21:16Z</time>
      </trkpt>
      <trkpt lat="44.81779" lon="3.1181">
        <ele>959</ele>
        <time>2022-08-01T07:21:19Z</time>
      </trkpt>
      <trkpt lat="44.8178" lon="3.11814">
        <ele>959</ele>
        <time>2022-08-01T07:21:22Z</time>
      </trkpt>
      <trkpt lat="44.81782" lon="3.11818">
        <ele>959</ele>
        <time>2022-08-01T07:21:24Z</time>
      </trkpt>
      <trkpt lat="44.81784" lon="3.11825">
        <ele>959</ele>
        <time>2022-08-01T07:21:29Z</time>
      </trkpt>
      <trkpt lat="44.81786" lon="3.11828">
        <ele>959</ele>
        <time>2022-08-01T07:21:31Z</time>
      </trkpt>
      <trkpt lat="44.81786" lon="3.11831">
        <ele>959</ele>
        <time>2022-08-01T07:21:33Z</time>
      </trkpt>
      <trkpt lat="44.81787" lon="3.11835">
        <ele>959</ele>
        <time>2022-08-01T07:21:36Z</time>
      </trkpt>
      <trkpt lat="44.81785" lon="3.11835">
        <ele>959</ele>
        <time>2022-08-01T07:21:38Z</time>
      </trkpt>
      <trkpt lat="44.81785" lon="3.11835">
        <ele>959</ele>
        <time>2022-08-01T07:21:40Z</time>
      </trkpt>
      <trkpt lat="44.81785" lon="3.11835">
        <ele>959</ele>
        <time>2022-08-01T07:21:41Z</time>
      </trkpt>
      <trkpt lat="44.81782" lon="3.11837">
        <ele>959</ele>
        <time>2022-08-01T07:21:45Z</time>
      </trkpt>
      <trkpt lat="44.81781" lon="3.11837">
        <ele>959</ele>
        <time>2022-08-01T07:21:46Z</time>
      </trkpt>
      <trkpt lat="44.81779" lon="3.11839">
        <ele>959</ele>
        <time>2022-08-01T07:21:52Z</time>
      </trkpt>
      <trkpt lat="44.81778" lon="3.11838">
        <ele>959</ele>
        <time>2022-08-01T07:21:57Z</time>
      </trkpt>
      <trkpt lat="44.81778" lon="3.11839">
        <ele>959</ele>
        <time>2022-08-01T07:22:05Z</time>
      </trkpt>
      <trkpt lat="44.81782" lon="3.11849">
        <ele>959</ele>
        <time>2022-08-01T07:23:35Z</time>
      </trkpt>
      <trkpt lat="44.81786" lon="3.11862">
        <ele>959</ele>
        <time>2022-08-01T07:23:42Z</time>
      </trkpt>
      <trkpt lat="44.81793" lon="3.11876">
        <ele>959</ele>
        <time>2022-08-01T07:23:52Z</time>
      </trkpt>
      <trkpt lat="44.81799" lon="3.11889">
        <ele>959</ele>
        <time>2022-08-01T07:24:00Z</time>
      </trkpt>
      <trkpt lat="44.81804" lon="3.11901">
        <ele>959.4</ele>
        <time>2022-08-01T07:24:08Z</time>
      </trkpt>
      <trkpt lat="44.81808" lon="3.11912">
        <ele>959.8</ele>
        <time>2022-08-01T07:24:15Z</time>
      </trkpt>
      <trkpt lat="44.81809" lon="3.11921">
        <ele>959.9</ele>
        <time>2022-08-01T07:24:20Z</time>
      </trkpt>
      <trkpt lat="44.81809" lon="3.11924">
        <ele>959.9</ele>
        <time>2022-08-01T07:24:22Z</time>
      </trkpt>
      <trkpt lat="44.81811" lon="3.1194">
        <ele>960</ele>
        <time>2022-08-01T07:24:31Z</time>
      </trkpt>
      <trkpt lat="44.81811" lon="3.11947">
        <ele>960</ele>
        <time>2022-08-01T07:24:35Z</time>
      </trkpt>
      <trkpt lat="44.8181" lon="3.11952">
        <ele>960</ele>
        <time>2022-08-01T07:24:38Z</time>
      </trkpt>
      <trkpt lat="44.81807" lon="3.11968">
        <ele>960</ele>
        <time>2022-08-01T07:24:47Z</time>
      </trkpt>
      <trkpt lat="44.81802" lon="3.11984">
        <ele>960.4</ele>
        <time>2022-08-01T07:24:57Z</time>
      </trkpt>
      <trkpt lat="44.81794" lon="3.12">
        <ele>960.6</ele>
        <time>2022-08-01T07:25:07Z</time>
      </trkpt>
      <trkpt lat="44.81794" lon="3.12002">
        <ele>960.6</ele>
        <time>2022-08-01T07:25:08Z</time>
      </trkpt>
      <trkpt lat="44.81792" lon="3.12005">
        <ele>960.5</ele>
        <time>2022-08-01T07:25:10Z</time>
      </trkpt>
      <trkpt lat="44.81786" lon="3.12015">
        <ele>960.5</ele>
        <time>2022-08-01T07:25:18Z</time>
      </trkpt>
      <trkpt lat="44.81784" lon="3.12018">
        <ele>960.6</ele>
        <time>2022-08-01T07:25:20Z</time>
      </trkpt>
      <trkpt lat="44.81783" lon="3.12019">
        <ele>960.6</ele>
        <time>2022-08-01T07:25:21Z</time>
      </trkpt>
      <trkpt lat="44.81781" lon="3.12023">
        <ele>960.8</ele>
        <time>2022-08-01T07:25:24Z</time>
      </trkpt>
      <trkpt lat="44.81774" lon="3.12034">
        <ele>961.2</ele>
        <time>2022-08-01T07:25:32Z</time>
      </trkpt>
      <trkpt lat="44.81762" lon="3.12045">
        <ele>961.3</ele>
        <time>2022-08-01T07:25:43Z</time>
      </trkpt>
      <trkpt lat="44.81752" lon="3.1205">
        <ele>961.1</ele>
        <time>2022-08-01T07:25:51Z</time>
      </trkpt>
      <trkpt lat="44.81748" lon="3.12052">
        <ele>961</ele>
        <time>2022-08-01T07:25:54Z</time>
      </trkpt>
      <trkpt lat="44.8174" lon="3.12056">
        <ele>961</ele>
        <time>2022-08-01T07:26:00Z</time>
      </trkpt>
      <trkpt lat="44.81731" lon="3.12058">
        <ele>961</ele>
        <time>2022-08-01T07:26:09Z</time>
      </trkpt>
      <trkpt lat="44.81719" lon="3.12062">
        <ele>961.1</ele>
        <time>2022-08-01T07:26:18Z</time>
      </trkpt>
      <trkpt lat="44.8171" lon="3.12069">
        <ele>961.4</ele>
        <time>2022-08-01T07:26:27Z</time>
      </trkpt>
      <trkpt lat="44.81702" lon="3.12078">
        <ele>961.7</ele>
        <time>2022-08-01T07:26:37Z</time>
      </trkpt>
      <trkpt lat="44.817" lon="3.1208">
        <ele>961.8</ele>
        <time>2022-08-01T07:26:39Z</time>
      </trkpt>
      <trkpt lat="44.81696" lon="3.12085">
        <ele>962</ele>
        <time>2022-08-01T07:26:44Z</time>
      </trkpt>
      <trkpt lat="44.81694" lon="3.12088">
        <ele>962</ele>
        <time>2022-08-01T07:26:46Z</time>
      </trkpt>
      <trkpt lat="44.81688" lon="3.12096">
        <ele>962</ele>
        <time>2022-08-01T07:26:53Z</time>
      </trkpt>
      <trkpt lat="44.81684" lon="3.12104">
        <ele>962</ele>
        <time>2022-08-01T07:27:01Z</time>
      </trkpt>
      <trkpt lat="44.81684" lon="3.12104">
        <ele>962</ele>
        <time>2022-08-01T07:27:02Z</time>
      </trkpt>
      <trkpt lat="44.81685" lon="3.12104">
        <ele>962</ele>
        <time>2022-08-01T07:27:06Z</time>
      </trkpt>
      <trkpt lat="44.81685" lon="3.12106">
        <ele>962</ele>
        <time>2022-08-01T07:27:11Z</time>
      </trkpt>
      <trkpt lat="44.81684" lon="3.12113">
        <ele>962</ele>
        <time>2022-08-01T07:27:19Z</time>
      </trkpt>
      <trkpt lat="44.81685" lon="3.12113">
        <ele>962</ele>
        <time>2022-08-01T07:27:21Z</time>
      </trkpt>
      <trkpt lat="44.81684" lon="3.12113">
        <ele>962</ele>
        <time>2022-08-01T07:27:28Z</time>
      </trkpt>
      <trkpt lat="44.81684" lon="3.12112">
        <ele>962</ele>
        <time>2022-08-01T07:27:30Z</time>
      </trkpt>
      <trkpt lat="44.81683" lon="3.1212">
        <ele>962.1</ele>
        <time>2022-08-01T07:27:41Z</time>
      </trkpt>
      <trkpt lat="44.81683" lon="3.12143">
        <ele>962.5</ele>
        <time>2022-08-01T07:27:52Z</time>
      </trkpt>
      <trkpt lat="44.81683" lon="3.12144">
        <ele>962.5</ele>
        <time>2022-08-01T07:27:53Z</time>
      </trkpt>
      <trkpt lat="44.81683" lon="3.12151">
        <ele>962.6</ele>
        <time>2022-08-01T07:28:00Z</time>
      </trkpt>
      <trkpt lat="44.81683" lon="3.12152">
        <ele>962.6</ele>
        <time>2022-08-01T07:28:01Z</time>
      </trkpt>
      <trkpt lat="44.81683" lon="3.12152">
        <ele>962.6</ele>
        <time>2022-08-01T07:28:02Z</time>
      </trkpt>
      <trkpt lat="44.81684" lon="3.12151">
        <ele>962.6</ele>
        <time>2022-08-01T07:28:22Z</time>
      </trkpt>
      <trkpt lat="44.81681" lon="3.12155">
        <ele>962.8</ele>
        <time>2022-08-01T07:30:06Z</time>
      </trkpt>
      <trkpt lat="44.81679" lon="3.1217">
        <ele>963</ele>
        <time>2022-08-01T07:30:14Z</time>
      </trkpt>
      <trkpt lat="44.81677" lon="3.12177">
        <ele>962.9</ele>
        <time>2022-08-01T07:30:18Z</time>
      </trkpt>
      <trkpt lat="44.81677" lon="3.12182">
        <ele>962.8</ele>
        <time>2022-08-01T07:30:22Z</time>
      </trkpt>
      <trkpt lat="44.81677" lon="3.12185">
        <ele>962.7</ele>
        <time>2022-08-01T07:30:25Z</time>
      </trkpt>
      <trkpt lat="44.81676" lon="3.1219">
        <ele>962.5</ele>
        <time>2022-08-01T07:30:28Z</time>
      </trkpt>
      <trkpt lat="44.81677" lon="3.12207">
        <ele>962.9</ele>
        <time>2022-08-01T07:30:38Z</time>
      </trkpt>
      <trkpt lat="44.81679" lon="3.1222">
        <ele>963.5</ele>
        <time>2022-08-01T07:30:45Z</time>
      </trkpt>
      <trkpt lat="44.81677" lon="3.12233">
        <ele>963.6</ele>
        <time>2022-08-01T07:30:53Z</time>
      </trkpt>
      <trkpt lat="44.81678" lon="3.12245">
        <ele>963.6</ele>
        <time>2022-08-01T07:31:02Z</time>
      </trkpt>
      <trkpt lat="44.8168" lon="3.1226">
        <ele>963.5</ele>
        <time>2022-08-01T07:31:12Z</time>
      </trkpt>
      <trkpt lat="44.81679" lon="3.12264">
        <ele>963.6</ele>
        <time>2022-08-01T07:31:17Z</time>
      </trkpt>
      <trkpt lat="44.81679" lon="3.12264">
        <ele>963.5</ele>
        <time>2022-08-01T07:31:18Z</time>
      </trkpt>
      <trkpt lat="44.81679" lon="3.12262">
        <ele>963.5</ele>
        <time>2022-08-01T07:31:31Z</time>
      </trkpt>
      <trkpt lat="44.81678" lon="3.12261">
        <ele>963.6</ele>
        <time>2022-08-01T07:31:54Z</time>
      </trkpt>
      <trkpt lat="44.81678" lon="3.1226">
        <ele>963.6</ele>
        <time>2022-08-01T07:31:58Z</time>
      </trkpt>
      <trkpt lat="44.81678" lon="3.1226">
        <ele>963.6</ele>
        <time>2022-08-01T07:32:17Z</time>
      </trkpt>
      <trkpt lat="44.81678" lon="3.1226">
        <ele>963.6</ele>
        <time>2022-08-01T07:32:20Z</time>
      </trkpt>
      <trkpt lat="44.81677" lon="3.12271">
        <ele>963.6</ele>
        <time>2022-08-01T07:33:28Z</time>
      </trkpt>
      <trkpt lat="44.81672" lon="3.12283">
        <ele>964.1</ele>
        <time>2022-08-01T07:33:34Z</time>
      </trkpt>
      <trkpt lat="44.81672" lon="3.12293">
        <ele>964.6</ele>
        <time>2022-08-01T07:33:40Z</time>
      </trkpt>
      <trkpt lat="44.8167" lon="3.12295">
        <ele>964.7</ele>
        <time>2022-08-01T07:33:42Z</time>
      </trkpt>
      <trkpt lat="44.8167" lon="3.12297">
        <ele>964.8</ele>
        <time>2022-08-01T07:33:43Z</time>
      </trkpt>
      <trkpt lat="44.8167" lon="3.12298">
        <ele>964.9</ele>
        <time>2022-08-01T07:33:44Z</time>
      </trkpt>
      <trkpt lat="44.8167" lon="3.12306">
        <ele>965.3</ele>
        <time>2022-08-01T07:33:49Z</time>
      </trkpt>
      <trkpt lat="44.8167" lon="3.12311">
        <ele>965.8</ele>
        <time>2022-08-01T07:33:52Z</time>
      </trkpt>
      <trkpt lat="44.8167" lon="3.12316">
        <ele>966.3</ele>
        <time>2022-08-01T07:33:56Z</time>
      </trkpt>
      <trkpt lat="44.81669" lon="3.12319">
        <ele>966.6</ele>
        <time>2022-08-01T07:33:58Z</time>
      </trkpt>
      <trkpt lat="44.81667" lon="3.12327">
        <ele>967.3</ele>
        <time>2022-08-01T07:34:03Z</time>
      </trkpt>
      <trkpt lat="44.81663" lon="3.12334">
        <ele>968.1</ele>
        <time>2022-08-01T07:34:09Z</time>
      </trkpt>
      <trkpt lat="44.81662" lon="3.12335">
        <ele>968.2</ele>
        <time>2022-08-01T07:34:10Z</time>
      </trkpt>
      <trkpt lat="44.81652" lon="3.12336">
        <ele>968.4</ele>
        <time>2022-08-01T07:34:18Z</time>
      </trkpt>
      <trkpt lat="44.81643" lon="3.12334">
        <ele>968</ele>
        <time>2022-08-01T07:34:26Z</time>
      </trkpt>
      <trkpt lat="44.81636" lon="3.12333">
        <ele>967.9</ele>
        <time>2022-08-01T07:34:31Z</time>
      </trkpt>
      <trkpt lat="44.81635" lon="3.12333">
        <ele>967.8</ele>
        <time>2022-08-01T07:34:32Z</time>
      </trkpt>
      <trkpt lat="44.81629" lon="3.12332">
        <ele>967.5</ele>
        <time>2022-08-01T07:34:38Z</time>
      </trkpt>
      <trkpt lat="44.81629" lon="3.12332">
        <ele>967.5</ele>
        <time>2022-08-01T07:34:39Z</time>
      </trkpt>
      <trkpt lat="44.81628" lon="3.12332">
        <ele>967.5</ele>
        <time>2022-08-01T07:34:43Z</time>
      </trkpt>
      <trkpt lat="44.81628" lon="3.12333">
        <ele>967.5</ele>
        <time>2022-08-01T07:34:44Z</time>
      </trkpt>
      <trkpt lat="44.81627" lon="3.12332">
        <ele>967.4</ele>
        <time>2022-08-01T07:34:56Z</time>
      </trkpt>
      <trkpt lat="44.81627" lon="3.12334">
        <ele>967.6</ele>
        <time>2022-08-01T07:35:12Z</time>
      </trkpt>
      <trkpt lat="44.81627" lon="3.12335">
        <ele>967.8</ele>
        <time>2022-08-01T07:35:17Z</time>
      </trkpt>
      <trkpt lat="44.81618" lon="3.12339">
        <ele>968.2</ele>
        <time>2022-08-01T07:35:38Z</time>
      </trkpt>
      <trkpt lat="44.81617" lon="3.12339">
        <ele>968.2</ele>
        <time>2022-08-01T07:35:39Z</time>
      </trkpt>
      <trkpt lat="44.81615" lon="3.12341">
        <ele>968.4</ele>
        <time>2022-08-01T07:35:41Z</time>
      </trkpt>
      <trkpt lat="44.8161" lon="3.12343">
        <ele>968.7</ele>
        <time>2022-08-01T07:35:45Z</time>
      </trkpt>
      <trkpt lat="44.81602" lon="3.12348">
        <ele>969.6</ele>
        <time>2022-08-01T07:35:53Z</time>
      </trkpt>
      <trkpt lat="44.81595" lon="3.1235">
        <ele>970.1</ele>
        <time>2022-08-01T07:36:00Z</time>
      </trkpt>
      <trkpt lat="44.81591" lon="3.12351">
        <ele>970.2</ele>
        <time>2022-08-01T07:36:03Z</time>
      </trkpt>
      <trkpt lat="44.81579" lon="3.12352">
        <ele>970.4</ele>
        <time>2022-08-01T07:36:13Z</time>
      </trkpt>
      <trkpt lat="44.81576" lon="3.12352">
        <ele>970.4</ele>
        <time>2022-08-01T07:36:15Z</time>
      </trkpt>
      <trkpt lat="44.81569" lon="3.12353">
        <ele>970.5</ele>
        <time>2022-08-01T07:36:21Z</time>
      </trkpt>
      <trkpt lat="44.81555" lon="3.12354">
        <ele>970.7</ele>
        <time>2022-08-01T07:36:31Z</time>
      </trkpt>
      <trkpt lat="44.81551" lon="3.12355">
        <ele>970.8</ele>
        <time>2022-08-01T07:36:34Z</time>
      </trkpt>
      <trkpt lat="44.81546" lon="3.12357">
        <ele>970.9</ele>
        <time>2022-08-01T07:36:38Z</time>
      </trkpt>
      <trkpt lat="44.81537" lon="3.12357">
        <ele>970.6</ele>
        <time>2022-08-01T07:36:43Z</time>
      </trkpt>
      <trkpt lat="44.81532" lon="3.12359">
        <ele>970.7</ele>
        <time>2022-08-01T07:36:48Z</time>
      </trkpt>
      <trkpt lat="44.8153" lon="3.12358">
        <ele>970.5</ele>
        <time>2022-08-01T07:36:50Z</time>
      </trkpt>
      <trkpt lat="44.81525" lon="3.12359">
        <ele>970.6</ele>
        <time>2022-08-01T07:36:54Z</time>
      </trkpt>
      <trkpt lat="44.81523" lon="3.12359">
        <ele>970.6</ele>
        <time>2022-08-01T07:36:57Z</time>
      </trkpt>
      <trkpt lat="44.81523" lon="3.12359">
        <ele>970.6</ele>
        <time>2022-08-01T07:36:59Z</time>
      </trkpt>
      <trkpt lat="44.81526" lon="3.12359">
        <ele>970.6</ele>
        <time>2022-08-01T07:37:06Z</time>
      </trkpt>
      <trkpt lat="44.81523" lon="3.12359">
        <ele>970.5</ele>
        <time>2022-08-01T07:37:16Z</time>
      </trkpt>
      <trkpt lat="44.81521" lon="3.12359">
        <ele>970.7</ele>
        <time>2022-08-01T07:37:17Z</time>
      </trkpt>
      <trkpt lat="44.81517" lon="3.12361">
        <ele>971.1</ele>
        <time>2022-08-01T07:37:19Z</time>
      </trkpt>
      <trkpt lat="44.81512" lon="3.12362">
        <ele>971.1</ele>
        <time>2022-08-01T07:37:22Z</time>
      </trkpt>
      <trkpt lat="44.81502" lon="3.12363">
        <ele>971.7</ele>
        <time>2022-08-01T07:37:29Z</time>
      </trkpt>
      <trkpt lat="44.81497" lon="3.12365">
        <ele>972.1</ele>
        <time>2022-08-01T07:37:32Z</time>
      </trkpt>
      <trkpt lat="44.81493" lon="3.12364">
        <ele>971.6</ele>
        <time>2022-08-01T07:37:35Z</time>
      </trkpt>
      <trkpt lat="44.8148" lon="3.12367">
        <ele>972.3</ele>
        <time>2022-08-01T07:37:44Z</time>
      </trkpt>
      <trkpt lat="44.81467" lon="3.12365">
        <ele>971.6</ele>
        <time>2022-08-01T07:37:52Z</time>
      </trkpt>
      <trkpt lat="44.81456" lon="3.12363">
        <ele>971.3</ele>
        <time>2022-08-01T07:38:00Z</time>
      </trkpt>
      <trkpt lat="44.81456" lon="3.12363">
        <ele>971.2</ele>
        <time>2022-08-01T07:38:01Z</time>
      </trkpt>
      <trkpt lat="44.81455" lon="3.12362">
        <ele>971.1</ele>
        <time>2022-08-01T07:38:02Z</time>
      </trkpt>
      <trkpt lat="44.81448" lon="3.12362">
        <ele>971.3</ele>
        <time>2022-08-01T07:38:06Z</time>
      </trkpt>
      <trkpt lat="44.8144" lon="3.12359">
        <ele>971</ele>
        <time>2022-08-01T07:38:11Z</time>
      </trkpt>
      <trkpt lat="44.81437" lon="3.12357">
        <ele>971.1</ele>
        <time>2022-08-01T07:38:14Z</time>
      </trkpt>
      <trkpt lat="44.8143" lon="3.12358">
        <ele>971.5</ele>
        <time>2022-08-01T07:38:19Z</time>
      </trkpt>
      <trkpt lat="44.81421" lon="3.12357">
        <ele>972</ele>
        <time>2022-08-01T07:38:26Z</time>
      </trkpt>
      <trkpt lat="44.81419" lon="3.12358">
        <ele>972.4</ele>
        <time>2022-08-01T07:38:28Z</time>
      </trkpt>
      <trkpt lat="44.81413" lon="3.12359">
        <ele>972.5</ele>
        <time>2022-08-01T07:38:32Z</time>
      </trkpt>
      <trkpt lat="44.81408" lon="3.12359">
        <ele>972.6</ele>
        <time>2022-08-01T07:38:36Z</time>
      </trkpt>
      <trkpt lat="44.81406" lon="3.12358">
        <ele>972.5</ele>
        <time>2022-08-01T07:38:38Z</time>
      </trkpt>
      <trkpt lat="44.81405" lon="3.1236">
        <ele>972.7</ele>
        <time>2022-08-01T07:38:39Z</time>
      </trkpt>
      <trkpt lat="44.81404" lon="3.12361">
        <ele>972.9</ele>
        <time>2022-08-01T07:38:40Z</time>
      </trkpt>
      <trkpt lat="44.814" lon="3.12365">
        <ele>974.1</ele>
        <time>2022-08-01T07:38:44Z</time>
      </trkpt>
      <trkpt lat="44.81397" lon="3.12367">
        <ele>974.9</ele>
        <time>2022-08-01T07:38:46Z</time>
      </trkpt>
      <trkpt lat="44.81396" lon="3.12368">
        <ele>975</ele>
        <time>2022-08-01T07:38:47Z</time>
      </trkpt>
      <trkpt lat="44.81394" lon="3.12368">
        <ele>975</ele>
        <time>2022-08-01T07:38:49Z</time>
      </trkpt>
      <trkpt lat="44.81391" lon="3.12368">
        <ele>975.1</ele>
        <time>2022-08-01T07:38:51Z</time>
      </trkpt>
      <trkpt lat="44.81388" lon="3.12369">
        <ele>975</ele>
        <time>2022-08-01T07:38:53Z</time>
      </trkpt>
      <trkpt lat="44.81383" lon="3.12371">
        <ele>975.1</ele>
        <time>2022-08-01T07:38:57Z</time>
      </trkpt>
      <trkpt lat="44.81374" lon="3.12374">
        <ele>975.1</ele>
        <time>2022-08-01T07:39:04Z</time>
      </trkpt>
      <trkpt lat="44.81373" lon="3.12375">
        <ele>975.3</ele>
        <time>2022-08-01T07:39:05Z</time>
      </trkpt>
      <trkpt lat="44.81368" lon="3.12377">
        <ele>975.4</ele>
        <time>2022-08-01T07:39:08Z</time>
      </trkpt>
      <trkpt lat="44.81367" lon="3.12379">
        <ele>975.7</ele>
        <time>2022-08-01T07:39:10Z</time>
      </trkpt>
      <trkpt lat="44.81365" lon="3.12379">
        <ele>975.7</ele>
        <time>2022-08-01T07:39:11Z</time>
      </trkpt>
      <trkpt lat="44.81362" lon="3.12383">
        <ele>976.2</ele>
        <time>2022-08-01T07:39:15Z</time>
      </trkpt>
      <trkpt lat="44.8136" lon="3.12389">
        <ele>977.6</ele>
        <time>2022-08-01T07:39:18Z</time>
      </trkpt>
      <trkpt lat="44.81358" lon="3.12392">
        <ele>978.1</ele>
        <time>2022-08-01T07:39:22Z</time>
      </trkpt>
      <trkpt lat="44.81357" lon="3.12393">
        <ele>978.2</ele>
        <time>2022-08-01T07:39:24Z</time>
      </trkpt>
      <trkpt lat="44.81354" lon="3.124">
        <ele>979.5</ele>
        <time>2022-08-01T07:39:28Z</time>
      </trkpt>
      <trkpt lat="44.81352" lon="3.12404">
        <ele>980.3</ele>
        <time>2022-08-01T07:39:31Z</time>
      </trkpt>
      <trkpt lat="44.8135" lon="3.12411">
        <ele>981.9</ele>
        <time>2022-08-01T07:39:35Z</time>
      </trkpt>
      <trkpt lat="44.81347" lon="3.12413">
        <ele>982.1</ele>
        <time>2022-08-01T07:39:37Z</time>
      </trkpt>
      <trkpt lat="44.81345" lon="3.12416">
        <ele>982.3</ele>
        <time>2022-08-01T07:39:40Z</time>
      </trkpt>
      <trkpt lat="44.81344" lon="3.12418">
        <ele>983</ele>
        <time>2022-08-01T07:39:41Z</time>
      </trkpt>
      <trkpt lat="44.81343" lon="3.1242">
        <ele>983.3</ele>
        <time>2022-08-01T07:39:42Z</time>
      </trkpt>
      <trkpt lat="44.81341" lon="3.1242">
        <ele>983.2</ele>
        <time>2022-08-01T07:39:44Z</time>
      </trkpt>
      <trkpt lat="44.8134" lon="3.12422">
        <ele>983.4</ele>
        <time>2022-08-01T07:39:46Z</time>
      </trkpt>
      <trkpt lat="44.81337" lon="3.1242">
        <ele>982.6</ele>
        <time>2022-08-01T07:39:48Z</time>
      </trkpt>
      <trkpt lat="44.81336" lon="3.1242">
        <ele>982.2</ele>
        <time>2022-08-01T07:39:49Z</time>
      </trkpt>
      <trkpt lat="44.81335" lon="3.1242">
        <ele>982.1</ele>
        <time>2022-08-01T07:39:50Z</time>
      </trkpt>
      <trkpt lat="44.8133" lon="3.12422">
        <ele>981.9</ele>
        <time>2022-08-01T07:39:54Z</time>
      </trkpt>
      <trkpt lat="44.81329" lon="3.12421">
        <ele>981.7</ele>
        <time>2022-08-01T07:39:55Z</time>
      </trkpt>
      <trkpt lat="44.81328" lon="3.12421">
        <ele>981.4</ele>
        <time>2022-08-01T07:39:56Z</time>
      </trkpt>
      <trkpt lat="44.81328" lon="3.12421">
        <ele>981.3</ele>
        <time>2022-08-01T07:39:57Z</time>
      </trkpt>
      <trkpt lat="44.81327" lon="3.12424">
        <ele>982.2</ele>
        <time>2022-08-01T07:40:01Z</time>
      </trkpt>
      <trkpt lat="44.81322" lon="3.12429">
        <ele>983</ele>
        <time>2022-08-01T07:40:07Z</time>
      </trkpt>
      <trkpt lat="44.81322" lon="3.1243">
        <ele>983.1</ele>
        <time>2022-08-01T07:40:08Z</time>
      </trkpt>
      <trkpt lat="44.81317" lon="3.12432">
        <ele>983.2</ele>
        <time>2022-08-01T07:40:13Z</time>
      </trkpt>
      <trkpt lat="44.81316" lon="3.12433">
        <ele>983.3</ele>
        <time>2022-08-01T07:40:14Z</time>
      </trkpt>
      <trkpt lat="44.81315" lon="3.12436">
        <ele>983.9</ele>
        <time>2022-08-01T07:40:16Z</time>
      </trkpt>
      <trkpt lat="44.81312" lon="3.12441">
        <ele>984.9</ele>
        <time>2022-08-01T07:40:20Z</time>
      </trkpt>
      <trkpt lat="44.81309" lon="3.12443">
        <ele>985</ele>
        <time>2022-08-01T07:40:24Z</time>
      </trkpt>
      <trkpt lat="44.81309" lon="3.12444">
        <ele>985.3</ele>
        <time>2022-08-01T07:40:26Z</time>
      </trkpt>
      <trkpt lat="44.81308" lon="3.12446">
        <ele>985.6</ele>
        <time>2022-08-01T07:40:28Z</time>
      </trkpt>
      <trkpt lat="44.81308" lon="3.12447">
        <ele>986</ele>
        <time>2022-08-01T07:40:30Z</time>
      </trkpt>
      <trkpt lat="44.81308" lon="3.12449">
        <ele>986.5</ele>
        <time>2022-08-01T07:40:31Z</time>
      </trkpt>
      <trkpt lat="44.81307" lon="3.1245">
        <ele>987</ele>
        <time>2022-08-01T07:40:32Z</time>
      </trkpt>
      <trkpt lat="44.81307" lon="3.12454">
        <ele>988.1</ele>
        <time>2022-08-01T07:40:36Z</time>
      </trkpt>
      <trkpt lat="44.81307" lon="3.12455">
        <ele>988.2</ele>
        <time>2022-08-01T07:40:37Z</time>
      </trkpt>
      <trkpt lat="44.81307" lon="3.12455">
        <ele>988.3</ele>
        <time>2022-08-01T07:40:38Z</time>
      </trkpt>
      <trkpt lat="44.81306" lon="3.12457">
        <ele>988.7</ele>
        <time>2022-08-01T07:40:41Z</time>
      </trkpt>
      <trkpt lat="44.81302" lon="3.12464">
        <ele>990.1</ele>
        <time>2022-08-01T07:40:46Z</time>
      </trkpt>
      <trkpt lat="44.81302" lon="3.12465">
        <ele>990.5</ele>
        <time>2022-08-01T07:40:47Z</time>
      </trkpt>
      <trkpt lat="44.81302" lon="3.12468">
        <ele>991.5</ele>
        <time>2022-08-01T07:40:50Z</time>
      </trkpt>
      <trkpt lat="44.81296" lon="3.12472">
        <ele>991.9</ele>
        <time>2022-08-01T07:40:57Z</time>
      </trkpt>
      <trkpt lat="44.81291" lon="3.12475">
        <ele>992.5</ele>
        <time>2022-08-01T07:41:03Z</time>
      </trkpt>
      <trkpt lat="44.81289" lon="3.12477">
        <ele>992.9</ele>
        <time>2022-08-01T07:41:11Z</time>
      </trkpt>
      <trkpt lat="44.81288" lon="3.12478">
        <ele>993.1</ele>
        <time>2022-08-01T07:41:12Z</time>
      </trkpt>
      <trkpt lat="44.81283" lon="3.12483">
        <ele>994</ele>
        <time>2022-08-01T07:41:18Z</time>
      </trkpt>
      <trkpt lat="44.81279" lon="3.12487">
        <ele>994.9</ele>
        <time>2022-08-01T07:41:25Z</time>
      </trkpt>
      <trkpt lat="44.81278" lon="3.12488">
        <ele>995</ele>
        <time>2022-08-01T07:41:26Z</time>
      </trkpt>
      <trkpt lat="44.81274" lon="3.12489">
        <ele>995.1</ele>
        <time>2022-08-01T07:41:30Z</time>
      </trkpt>
      <trkpt lat="44.8127" lon="3.12493">
        <ele>995.9</ele>
        <time>2022-08-01T07:41:37Z</time>
      </trkpt>
      <trkpt lat="44.81271" lon="3.12492">
        <ele>995.8</ele>
        <time>2022-08-01T07:41:38Z</time>
      </trkpt>
      <trkpt lat="44.81266" lon="3.12495">
        <ele>996.2</ele>
        <time>2022-08-01T07:41:46Z</time>
      </trkpt>
      <trkpt lat="44.8126" lon="3.125">
        <ele>997.2</ele>
        <time>2022-08-01T07:41:53Z</time>
      </trkpt>
      <trkpt lat="44.81259" lon="3.12501">
        <ele>997.2</ele>
        <time>2022-08-01T07:41:54Z</time>
      </trkpt>
      <trkpt lat="44.81254" lon="3.12506">
        <ele>997.8</ele>
        <time>2022-08-01T07:42:01Z</time>
      </trkpt>
      <trkpt lat="44.81251" lon="3.12508">
        <ele>998.1</ele>
        <time>2022-08-01T07:42:04Z</time>
      </trkpt>
      <trkpt lat="44.81247" lon="3.1251">
        <ele>998.6</ele>
        <time>2022-08-01T07:42:10Z</time>
      </trkpt>
      <trkpt lat="44.81245" lon="3.12513">
        <ele>999.2</ele>
        <time>2022-08-01T07:42:13Z</time>
      </trkpt>
      <trkpt lat="44.81242" lon="3.12517">
        <ele>1000.2</ele>
        <time>2022-08-01T07:42:17Z</time>
      </trkpt>
      <trkpt lat="44.81239" lon="3.1252">
        <ele>1000.9</ele>
        <time>2022-08-01T07:42:21Z</time>
      </trkpt>
      <trkpt lat="44.81239" lon="3.12523">
        <ele>1001.5</ele>
        <time>2022-08-01T07:42:23Z</time>
      </trkpt>
      <trkpt lat="44.81238" lon="3.12523">
        <ele>1001.6</ele>
        <time>2022-08-01T07:42:24Z</time>
      </trkpt>
      <trkpt lat="44.81234" lon="3.12526">
        <ele>1002</ele>
        <time>2022-08-01T07:42:29Z</time>
      </trkpt>
      <trkpt lat="44.81232" lon="3.12526">
        <ele>1002.1</ele>
        <time>2022-08-01T07:42:32Z</time>
      </trkpt>
      <trkpt lat="44.81228" lon="3.12531">
        <ele>1003</ele>
        <time>2022-08-01T07:42:37Z</time>
      </trkpt>
      <trkpt lat="44.81224" lon="3.12534">
        <ele>1003.4</ele>
        <time>2022-08-01T07:42:41Z</time>
      </trkpt>
      <trkpt lat="44.8122" lon="3.12535">
        <ele>1003.4</ele>
        <time>2022-08-01T07:42:46Z</time>
      </trkpt>
      <trkpt lat="44.81217" lon="3.12537">
        <ele>1003.6</ele>
        <time>2022-08-01T07:42:48Z</time>
      </trkpt>
      <trkpt lat="44.81214" lon="3.12538">
        <ele>1003.8</ele>
        <time>2022-08-01T07:42:52Z</time>
      </trkpt>
      <trkpt lat="44.81212" lon="3.1254">
        <ele>1003.9</ele>
        <time>2022-08-01T07:42:54Z</time>
      </trkpt>
      <trkpt lat="44.81202" lon="3.12546">
        <ele>1004.8</ele>
        <time>2022-08-01T07:43:04Z</time>
      </trkpt>
      <trkpt lat="44.812" lon="3.12548">
        <ele>1005.2</ele>
        <time>2022-08-01T07:43:07Z</time>
      </trkpt>
      <trkpt lat="44.81193" lon="3.12553">
        <ele>1006.3</ele>
        <time>2022-08-01T07:43:14Z</time>
      </trkpt>
      <trkpt lat="44.81188" lon="3.12556">
        <ele>1006.6</ele>
        <time>2022-08-01T07:43:19Z</time>
      </trkpt>
      <trkpt lat="44.81186" lon="3.12557">
        <ele>1006.7</ele>
        <time>2022-08-01T07:43:22Z</time>
      </trkpt>
      <trkpt lat="44.81186" lon="3.12557">
        <ele>1006.7</ele>
        <time>2022-08-01T07:43:24Z</time>
      </trkpt>
      <trkpt lat="44.81186" lon="3.12558">
        <ele>1006.7</ele>
        <time>2022-08-01T07:43:27Z</time>
      </trkpt>
      <trkpt lat="44.81186" lon="3.12558">
        <ele>1006.8</ele>
        <time>2022-08-01T07:43:28Z</time>
      </trkpt>
      <trkpt lat="44.81186" lon="3.12559">
        <ele>1006.9</ele>
        <time>2022-08-01T07:43:30Z</time>
      </trkpt>
      <trkpt lat="44.81183" lon="3.12561">
        <ele>1007.1</ele>
        <time>2022-08-01T07:43:35Z</time>
      </trkpt>
      <trkpt lat="44.81178" lon="3.12562">
        <ele>1007.1</ele>
        <time>2022-08-01T07:43:40Z</time>
      </trkpt>
      <trkpt lat="44.81176" lon="3.12563">
        <ele>1007.2</ele>
        <time>2022-08-01T07:43:42Z</time>
      </trkpt>
      <trkpt lat="44.81171" lon="3.12566">
        <ele>1007.8</ele>
        <time>2022-08-01T07:43:48Z</time>
      </trkpt>
      <trkpt lat="44.81169" lon="3.1257">
        <ele>1008.6</ele>
        <time>2022-08-01T07:43:52Z</time>
      </trkpt>
      <trkpt lat="44.81164" lon="3.12575">
        <ele>1010</ele>
        <time>2022-08-01T07:43:58Z</time>
      </trkpt>
      <trkpt lat="44.81163" lon="3.12577">
        <ele>1010.6</ele>
        <time>2022-08-01T07:44:01Z</time>
      </trkpt>
      <trkpt lat="44.8116" lon="3.12581">
        <ele>1011.7</ele>
        <time>2022-08-01T07:44:06Z</time>
      </trkpt>
      <trkpt lat="44.81158" lon="3.12582">
        <ele>1012.1</ele>
        <time>2022-08-01T07:44:08Z</time>
      </trkpt>
      <trkpt lat="44.81156" lon="3.12587">
        <ele>1012.9</ele>
        <time>2022-08-01T07:44:13Z</time>
      </trkpt>
      <trkpt lat="44.81155" lon="3.12588">
        <ele>1013</ele>
        <time>2022-08-01T07:44:14Z</time>
      </trkpt>
      <trkpt lat="44.81154" lon="3.12589">
        <ele>1013.2</ele>
        <time>2022-08-01T07:44:16Z</time>
      </trkpt>
      <trkpt lat="44.81154" lon="3.1259">
        <ele>1013.4</ele>
        <time>2022-08-01T07:44:17Z</time>
      </trkpt>
      <trkpt lat="44.81148" lon="3.12595">
        <ele>1014.1</ele>
        <time>2022-08-01T07:44:24Z</time>
      </trkpt>
      <trkpt lat="44.81144" lon="3.12603">
        <ele>1015.1</ele>
        <time>2022-08-01T07:44:32Z</time>
      </trkpt>
      <trkpt lat="44.81138" lon="3.12607">
        <ele>1015.6</ele>
        <time>2022-08-01T07:44:39Z</time>
      </trkpt>
      <trkpt lat="44.81133" lon="3.12609">
        <ele>1016.1</ele>
        <time>2022-08-01T07:44:45Z</time>
      </trkpt>
      <trkpt lat="44.81132" lon="3.12609">
        <ele>1016.3</ele>
        <time>2022-08-01T07:44:47Z</time>
      </trkpt>
      <trkpt lat="44.81124" lon="3.12611">
        <ele>1017.1</ele>
        <time>2022-08-01T07:44:55Z</time>
      </trkpt>
      <trkpt lat="44.81124" lon="3.12611">
        <ele>1017.1</ele>
        <time>2022-08-01T07:44:56Z</time>
      </trkpt>
      <trkpt lat="44.81124" lon="3.12611">
        <ele>1017.1</ele>
        <time>2022-08-01T07:44:58Z</time>
      </trkpt>
      <trkpt lat="44.81123" lon="3.1261">
        <ele>1017</ele>
        <time>2022-08-01T07:45:02Z</time>
      </trkpt>
      <trkpt lat="44.81124" lon="3.12611">
        <ele>1017.1</ele>
        <time>2022-08-01T07:45:11Z</time>
      </trkpt>
      <trkpt lat="44.81124" lon="3.12611">
        <ele>1017.1</ele>
        <time>2022-08-01T07:45:24Z</time>
      </trkpt>
      <trkpt lat="44.81119" lon="3.12616">
        <ele>1017.9</ele>
        <time>2022-08-01T07:45:32Z</time>
      </trkpt>
      <trkpt lat="44.81118" lon="3.12616">
        <ele>1018.1</ele>
        <time>2022-08-01T07:45:33Z</time>
      </trkpt>
      <trkpt lat="44.81109" lon="3.12621">
        <ele>1019.2</ele>
        <time>2022-08-01T07:45:40Z</time>
      </trkpt>
      <trkpt lat="44.81106" lon="3.12623">
        <ele>1019.6</ele>
        <time>2022-08-01T07:45:43Z</time>
      </trkpt>
      <trkpt lat="44.811" lon="3.12627">
        <ele>1020.2</ele>
        <time>2022-08-01T07:45:49Z</time>
      </trkpt>
      <trkpt lat="44.8109" lon="3.12632">
        <ele>1021.2</ele>
        <time>2022-08-01T07:45:58Z</time>
      </trkpt>
      <trkpt lat="44.8109" lon="3.12633">
        <ele>1021.3</ele>
        <time>2022-08-01T07:45:59Z</time>
      </trkpt>
      <trkpt lat="44.81086" lon="3.12638">
        <ele>1021.8</ele>
        <time>2022-08-01T07:46:05Z</time>
      </trkpt>
      <trkpt lat="44.81085" lon="3.12639">
        <ele>1021.9</ele>
        <time>2022-08-01T07:46:06Z</time>
      </trkpt>
      <trkpt lat="44.81085" lon="3.12639">
        <ele>1022</ele>
        <time>2022-08-01T07:46:07Z</time>
      </trkpt>
      <trkpt lat="44.81084" lon="3.1264">
        <ele>1022.1</ele>
        <time>2022-08-01T07:46:09Z</time>
      </trkpt>
      <trkpt lat="44.81084" lon="3.12639">
        <ele>1021.9</ele>
        <time>2022-08-01T07:46:12Z</time>
      </trkpt>
      <trkpt lat="44.81085" lon="3.12638">
        <ele>1021.9</ele>
        <time>2022-08-01T07:46:13Z</time>
      </trkpt>
      <trkpt lat="44.81084" lon="3.1264">
        <ele>1022.1</ele>
        <time>2022-08-01T07:46:15Z</time>
      </trkpt>
      <trkpt lat="44.81081" lon="3.12645">
        <ele>1022.6</ele>
        <time>2022-08-01T07:46:19Z</time>
      </trkpt>
      <trkpt lat="44.81079" lon="3.1265">
        <ele>1023</ele>
        <time>2022-08-01T07:46:23Z</time>
      </trkpt>
      <trkpt lat="44.81075" lon="3.12657">
        <ele>1023.5</ele>
        <time>2022-08-01T07:46:28Z</time>
      </trkpt>
      <trkpt lat="44.8107" lon="3.12665">
        <ele>1023.9</ele>
        <time>2022-08-01T07:46:35Z</time>
      </trkpt>
      <trkpt lat="44.8107" lon="3.12665">
        <ele>1023.9</ele>
        <time>2022-08-01T07:46:36Z</time>
      </trkpt>
      <trkpt lat="44.8107" lon="3.12664">
        <ele>1023.8</ele>
        <time>2022-08-01T07:46:38Z</time>
      </trkpt>
      <trkpt lat="44.81069" lon="3.1267">
        <ele>1024.2</ele>
        <time>2022-08-01T07:46:49Z</time>
      </trkpt>
      <trkpt lat="44.81063" lon="3.1268">
        <ele>1024.5</ele>
        <time>2022-08-01T07:46:58Z</time>
      </trkpt>
      <trkpt lat="44.81062" lon="3.12681">
        <ele>1024.4</ele>
        <time>2022-08-01T07:47:04Z</time>
      </trkpt>
      <trkpt lat="44.81061" lon="3.1268">
        <ele>1024.4</ele>
        <time>2022-08-01T07:47:07Z</time>
      </trkpt>
      <trkpt lat="44.81061" lon="3.1268">
        <ele>1024.3</ele>
        <time>2022-08-01T07:47:11Z</time>
      </trkpt>
      <trkpt lat="44.8106" lon="3.12686">
        <ele>1024.7</ele>
        <time>2022-08-01T07:48:50Z</time>
      </trkpt>
      <trkpt lat="44.81057" lon="3.12705">
        <ele>1025.5</ele>
        <time>2022-08-01T07:48:59Z</time>
      </trkpt>
      <trkpt lat="44.81055" lon="3.12723">
        <ele>1026</ele>
        <time>2022-08-01T07:49:09Z</time>
      </trkpt>
      <trkpt lat="44.81052" lon="3.12739">
        <ele>1027</ele>
        <time>2022-08-01T07:49:18Z</time>
      </trkpt>
      <trkpt lat="44.81052" lon="3.12742">
        <ele>1027.1</ele>
        <time>2022-08-01T07:49:20Z</time>
      </trkpt>
      <trkpt lat="44.81049" lon="3.12755">
        <ele>1028.1</ele>
        <time>2022-08-01T07:49:27Z</time>
      </trkpt>
      <trkpt lat="44.81043" lon="3.12767">
        <ele>1029.3</ele>
        <time>2022-08-01T07:49:36Z</time>
      </trkpt>
      <trkpt lat="44.81039" lon="3.12775">
        <ele>1029.9</ele>
        <time>2022-08-01T07:49:42Z</time>
      </trkpt>
      <trkpt lat="44.81034" lon="3.12784">
        <ele>1030.3</ele>
        <time>2022-08-01T07:49:49Z</time>
      </trkpt>
      <trkpt lat="44.81028" lon="3.12792">
        <ele>1030.6</ele>
        <time>2022-08-01T07:49:56Z</time>
      </trkpt>
      <trkpt lat="44.81022" lon="3.128">
        <ele>1031.9</ele>
        <time>2022-08-01T07:50:04Z</time>
      </trkpt>
      <trkpt lat="44.81017" lon="3.12806">
        <ele>1032.8</ele>
        <time>2022-08-01T07:50:11Z</time>
      </trkpt>
      <trkpt lat="44.81016" lon="3.12808">
        <ele>1033</ele>
        <time>2022-08-01T07:50:13Z</time>
      </trkpt>
      <trkpt lat="44.81013" lon="3.12812">
        <ele>1033.3</ele>
        <time>2022-08-01T07:50:17Z</time>
      </trkpt>
      <trkpt lat="44.8101" lon="3.12816">
        <ele>1033.5</ele>
        <time>2022-08-01T07:50:21Z</time>
      </trkpt>
      <trkpt lat="44.81009" lon="3.12818">
        <ele>1033.7</ele>
        <time>2022-08-01T07:50:24Z</time>
      </trkpt>
      <trkpt lat="44.81006" lon="3.12823">
        <ele>1033.9</ele>
        <time>2022-08-01T07:50:29Z</time>
      </trkpt>
      <trkpt lat="44.81" lon="3.12829">
        <ele>1034</ele>
        <time>2022-08-01T07:50:35Z</time>
      </trkpt>
      <trkpt lat="44.80999" lon="3.12831">
        <ele>1034.1</ele>
        <time>2022-08-01T07:50:38Z</time>
      </trkpt>
      <trkpt lat="44.80995" lon="3.12835">
        <ele>1034.7</ele>
        <time>2022-08-01T07:50:41Z</time>
      </trkpt>
      <trkpt lat="44.80989" lon="3.12842">
        <ele>1035.7</ele>
        <time>2022-08-01T07:50:47Z</time>
      </trkpt>
      <trkpt lat="44.80985" lon="3.12845">
        <ele>1036.2</ele>
        <time>2022-08-01T07:50:52Z</time>
      </trkpt>
      <trkpt lat="44.80985" lon="3.12848">
        <ele>1036.4</ele>
        <time>2022-08-01T07:50:54Z</time>
      </trkpt>
      <trkpt lat="44.80978" lon="3.12855">
        <ele>1037.3</ele>
        <time>2022-08-01T07:51:01Z</time>
      </trkpt>
      <trkpt lat="44.80975" lon="3.12859">
        <ele>1037.7</ele>
        <time>2022-08-01T07:51:04Z</time>
      </trkpt>
      <trkpt lat="44.8097" lon="3.12864">
        <ele>1038.3</ele>
        <time>2022-08-01T07:51:10Z</time>
      </trkpt>
      <trkpt lat="44.80968" lon="3.12867">
        <ele>1038.6</ele>
        <time>2022-08-01T07:51:12Z</time>
      </trkpt>
      <trkpt lat="44.80965" lon="3.12872">
        <ele>1039.1</ele>
        <time>2022-08-01T07:51:16Z</time>
      </trkpt>
      <trkpt lat="44.80964" lon="3.12875">
        <ele>1039.3</ele>
        <time>2022-08-01T07:51:18Z</time>
      </trkpt>
      <trkpt lat="44.8096" lon="3.12879">
        <ele>1039.8</ele>
        <time>2022-08-01T07:51:23Z</time>
      </trkpt>
      <trkpt lat="44.80959" lon="3.12881">
        <ele>1040</ele>
        <time>2022-08-01T07:51:24Z</time>
      </trkpt>
      <trkpt lat="44.80956" lon="3.12885">
        <ele>1040.6</ele>
        <time>2022-08-01T07:51:30Z</time>
      </trkpt>
      <trkpt lat="44.80954" lon="3.12884">
        <ele>1040.7</ele>
        <time>2022-08-01T07:51:33Z</time>
      </trkpt>
      <trkpt lat="44.80952" lon="3.12886">
        <ele>1041</ele>
        <time>2022-08-01T07:51:36Z</time>
      </trkpt>
      <trkpt lat="44.8095" lon="3.12886">
        <ele>1041.2</ele>
        <time>2022-08-01T07:51:42Z</time>
      </trkpt>
      <trkpt lat="44.80949" lon="3.12892">
        <ele>1041.7</ele>
        <time>2022-08-01T07:51:47Z</time>
      </trkpt>
      <trkpt lat="44.80945" lon="3.12898">
        <ele>1042.3</ele>
        <time>2022-08-01T07:51:53Z</time>
      </trkpt>
      <trkpt lat="44.80944" lon="3.12898">
        <ele>1042.3</ele>
        <time>2022-08-01T07:51:57Z</time>
      </trkpt>
      <trkpt lat="44.80944" lon="3.12899">
        <ele>1042.4</ele>
        <time>2022-08-01T07:51:59Z</time>
      </trkpt>
      <trkpt lat="44.8094" lon="3.12907">
        <ele>1042.7</ele>
        <time>2022-08-01T07:52:05Z</time>
      </trkpt>
      <trkpt lat="44.80939" lon="3.12914">
        <ele>1043.1</ele>
        <time>2022-08-01T07:52:11Z</time>
      </trkpt>
      <trkpt lat="44.80938" lon="3.12917">
        <ele>1043.3</ele>
        <time>2022-08-01T07:52:14Z</time>
      </trkpt>
      <trkpt lat="44.80935" lon="3.12921">
        <ele>1043.5</ele>
        <time>2022-08-01T07:52:18Z</time>
      </trkpt>
      <trkpt lat="44.80934" lon="3.12927">
        <ele>1043.8</ele>
        <time>2022-08-01T07:52:22Z</time>
      </trkpt>
      <trkpt lat="44.8093" lon="3.12936">
        <ele>1044.2</ele>
        <time>2022-08-01T07:52:30Z</time>
      </trkpt>
      <trkpt lat="44.80929" lon="3.12938">
        <ele>1044.3</ele>
        <time>2022-08-01T07:52:32Z</time>
      </trkpt>
      <trkpt lat="44.80928" lon="3.12941">
        <ele>1044.5</ele>
        <time>2022-08-01T07:52:34Z</time>
      </trkpt>
      <trkpt lat="44.80927" lon="3.12943">
        <ele>1044.6</ele>
        <time>2022-08-01T07:52:36Z</time>
      </trkpt>
      <trkpt lat="44.80922" lon="3.12952">
        <ele>1045.4</ele>
        <time>2022-08-01T07:52:44Z</time>
      </trkpt>
      <trkpt lat="44.80921" lon="3.12953">
        <ele>1045.5</ele>
        <time>2022-08-01T07:52:45Z</time>
      </trkpt>
      <trkpt lat="44.80919" lon="3.12956">
        <ele>1045.8</ele>
        <time>2022-08-01T07:52:48Z</time>
      </trkpt>
      <trkpt lat="44.80916" lon="3.12963">
        <ele>1046.3</ele>
        <time>2022-08-01T07:52:54Z</time>
      </trkpt>
      <trkpt lat="44.80914" lon="3.12967">
        <ele>1046.5</ele>
        <time>2022-08-01T07:52:58Z</time>
      </trkpt>
      <trkpt lat="44.80912" lon="3.1297">
        <ele>1046.6</ele>
        <time>2022-08-01T07:53:00Z</time>
      </trkpt>
      <trkpt lat="44.80912" lon="3.12971">
        <ele>1046.7</ele>
        <time>2022-08-01T07:53:01Z</time>
      </trkpt>
      <trkpt lat="44.80906" lon="3.1298">
        <ele>1047.1</ele>
        <time>2022-08-01T07:53:09Z</time>
      </trkpt>
      <trkpt lat="44.80906" lon="3.12983">
        <ele>1047.2</ele>
        <time>2022-08-01T07:53:11Z</time>
      </trkpt>
      <trkpt lat="44.80905" lon="3.12986">
        <ele>1047.4</ele>
        <time>2022-08-01T07:53:15Z</time>
      </trkpt>
      <trkpt lat="44.80905" lon="3.12987">
        <ele>1047.4</ele>
        <time>2022-08-01T07:53:17Z</time>
      </trkpt>
      <trkpt lat="44.80905" lon="3.12988">
        <ele>1047.5</ele>
        <time>2022-08-01T07:53:19Z</time>
      </trkpt>
      <trkpt lat="44.80906" lon="3.12988">
        <ele>1047.5</ele>
        <time>2022-08-01T07:53:21Z</time>
      </trkpt>
      <trkpt lat="44.80906" lon="3.12989">
        <ele>1047.6</ele>
        <time>2022-08-01T07:53:22Z</time>
      </trkpt>
      <trkpt lat="44.80904" lon="3.12996">
        <ele>1047.8</ele>
        <time>2022-08-01T07:53:28Z</time>
      </trkpt>
      <trkpt lat="44.80899" lon="3.13002">
        <ele>1047.8</ele>
        <time>2022-08-01T07:53:35Z</time>
      </trkpt>
      <trkpt lat="44.80897" lon="3.13006">
        <ele>1048</ele>
        <time>2022-08-01T07:53:39Z</time>
      </trkpt>
      <trkpt lat="44.80895" lon="3.13008">
        <ele>1048</ele>
        <time>2022-08-01T07:53:41Z</time>
      </trkpt>
      <trkpt lat="44.8089" lon="3.13014">
        <ele>1048.1</ele>
        <time>2022-08-01T07:53:46Z</time>
      </trkpt>
      <trkpt lat="44.80886" lon="3.13021">
        <ele>1047.8</ele>
        <time>2022-08-01T07:53:51Z</time>
      </trkpt>
      <trkpt lat="44.80883" lon="3.13025">
        <ele>1047.6</ele>
        <time>2022-08-01T07:53:54Z</time>
      </trkpt>
      <trkpt lat="44.80878" lon="3.13033">
        <ele>1046.8</ele>
        <time>2022-08-01T07:54:00Z</time>
      </trkpt>
      <trkpt lat="44.80874" lon="3.13041">
        <ele>1046.5</ele>
        <time>2022-08-01T07:54:06Z</time>
      </trkpt>
      <trkpt lat="44.80871" lon="3.13047">
        <ele>1046.4</ele>
        <time>2022-08-01T07:54:10Z</time>
      </trkpt>
      <trkpt lat="44.80866" lon="3.13054">
        <ele>1046.4</ele>
        <time>2022-08-01T07:54:16Z</time>
      </trkpt>
      <trkpt lat="44.80865" lon="3.13056">
        <ele>1046.4</ele>
        <time>2022-08-01T07:54:17Z</time>
      </trkpt>
      <trkpt lat="44.8086" lon="3.13063">
        <ele>1046.5</ele>
        <time>2022-08-01T07:54:23Z</time>
      </trkpt>
      <trkpt lat="44.80858" lon="3.13066">
        <ele>1046.4</ele>
        <time>2022-08-01T07:54:25Z</time>
      </trkpt>
      <trkpt lat="44.80853" lon="3.13075">
        <ele>1046.4</ele>
        <time>2022-08-01T07:54:32Z</time>
      </trkpt>
      <trkpt lat="44.80852" lon="3.13078">
        <ele>1046.5</ele>
        <time>2022-08-01T07:54:34Z</time>
      </trkpt>
      <trkpt lat="44.80851" lon="3.13082">
        <ele>1046.6</ele>
        <time>2022-08-01T07:54:37Z</time>
      </trkpt>
      <trkpt lat="44.8085" lon="3.13083">
        <ele>1046.5</ele>
        <time>2022-08-01T07:54:38Z</time>
      </trkpt>
      <trkpt lat="44.80845" lon="3.13092">
        <ele>1046.4</ele>
        <time>2022-08-01T07:54:45Z</time>
      </trkpt>
      <trkpt lat="44.80845" lon="3.13093">
        <ele>1046.6</ele>
        <time>2022-08-01T07:54:46Z</time>
      </trkpt>
      <trkpt lat="44.80842" lon="3.13099">
        <ele>1046.5</ele>
        <time>2022-08-01T07:54:51Z</time>
      </trkpt>
      <trkpt lat="44.80829" lon="3.13106">
        <ele>1045.4</ele>
        <time>2022-08-01T07:55:01Z</time>
      </trkpt>
      <trkpt lat="44.80827" lon="3.13107">
        <ele>1045.5</ele>
        <time>2022-08-01T07:55:06Z</time>
      </trkpt>
      <trkpt lat="44.80828" lon="3.13107">
        <ele>1045.5</ele>
        <time>2022-08-01T07:55:07Z</time>
      </trkpt>
      <trkpt lat="44.8083" lon="3.13105">
        <ele>1045.3</ele>
        <time>2022-08-01T07:55:09Z</time>
      </trkpt>
      <trkpt lat="44.80831" lon="3.13105">
        <ele>1045.4</ele>
        <time>2022-08-01T07:55:12Z</time>
      </trkpt>
      <trkpt lat="44.80831" lon="3.13105">
        <ele>1045.4</ele>
        <time>2022-08-01T07:55:14Z</time>
      </trkpt>
      <trkpt lat="44.80823" lon="3.13108">
        <ele>1045.6</ele>
        <time>2022-08-01T07:55:36Z</time>
      </trkpt>
      <trkpt lat="44.8081" lon="3.1311">
        <ele>1045.8</ele>
        <time>2022-08-01T07:55:44Z</time>
      </trkpt>
      <trkpt lat="44.80795" lon="3.13115">
        <ele>1047.3</ele>
        <time>2022-08-01T07:55:54Z</time>
      </trkpt>
      <trkpt lat="44.80784" lon="3.13117">
        <ele>1048.7</ele>
        <time>2022-08-01T07:56:02Z</time>
      </trkpt>
      <trkpt lat="44.8078" lon="3.13116">
        <ele>1049.2</ele>
        <time>2022-08-01T07:56:07Z</time>
      </trkpt>
      <trkpt lat="44.80778" lon="3.13115">
        <ele>1049.3</ele>
        <time>2022-08-01T07:56:09Z</time>
      </trkpt>
      <trkpt lat="44.80777" lon="3.13115">
        <ele>1049.5</ele>
        <time>2022-08-01T07:56:10Z</time>
      </trkpt>
      <trkpt lat="44.80774" lon="3.13115">
        <ele>1049.9</ele>
        <time>2022-08-01T07:56:13Z</time>
      </trkpt>
      <trkpt lat="44.80772" lon="3.13114">
        <ele>1050.1</ele>
        <time>2022-08-01T07:56:15Z</time>
      </trkpt>
      <trkpt lat="44.80771" lon="3.13113">
        <ele>1050.2</ele>
        <time>2022-08-01T07:56:16Z</time>
      </trkpt>
      <trkpt lat="44.8077" lon="3.13113">
        <ele>1050.3</ele>
        <time>2022-08-01T07:56:17Z</time>
      </trkpt>
      <trkpt lat="44.80767" lon="3.13114">
        <ele>1050.8</ele>
        <time>2022-08-01T07:56:19Z</time>
      </trkpt>
      <trkpt lat="44.80765" lon="3.13113">
        <ele>1051</ele>
        <time>2022-08-01T07:56:21Z</time>
      </trkpt>
      <trkpt lat="44.8076" lon="3.13112">
        <ele>1051.7</ele>
        <time>2022-08-01T07:56:26Z</time>
      </trkpt>
      <trkpt lat="44.80759" lon="3.13112">
        <ele>1051.8</ele>
        <time>2022-08-01T07:56:27Z</time>
      </trkpt>
      <trkpt lat="44.80756" lon="3.13112">
        <ele>1052.2</ele>
        <time>2022-08-01T07:56:29Z</time>
      </trkpt>
      <trkpt lat="44.80751" lon="3.1311">
        <ele>1052.8</ele>
        <time>2022-08-01T07:56:33Z</time>
      </trkpt>
      <trkpt lat="44.80748" lon="3.13109">
        <ele>1053</ele>
        <time>2022-08-01T07:56:36Z</time>
      </trkpt>
      <trkpt lat="44.80743" lon="3.13107">
        <ele>1053</ele>
        <time>2022-08-01T07:56:41Z</time>
      </trkpt>
      <trkpt lat="44.80741" lon="3.13106">
        <ele>1053.1</ele>
        <time>2022-08-01T07:56:44Z</time>
      </trkpt>
      <trkpt lat="44.80735" lon="3.13104">
        <ele>1053.4</ele>
        <time>2022-08-01T07:56:50Z</time>
      </trkpt>
      <trkpt lat="44.8073" lon="3.13108">
        <ele>1054.1</ele>
        <time>2022-08-01T07:56:54Z</time>
      </trkpt>
      <trkpt lat="44.80724" lon="3.13109">
        <ele>1054.7</ele>
        <time>2022-08-01T07:57:00Z</time>
      </trkpt>
      <trkpt lat="44.80721" lon="3.1311">
        <ele>1054.9</ele>
        <time>2022-08-01T07:57:02Z</time>
      </trkpt>
      <trkpt lat="44.80718" lon="3.1311">
        <ele>1055.2</ele>
        <time>2022-08-01T07:57:06Z</time>
      </trkpt>
      <trkpt lat="44.80714" lon="3.13111">
        <ele>1055.6</ele>
        <time>2022-08-01T07:57:09Z</time>
      </trkpt>
      <trkpt lat="44.80705" lon="3.13115">
        <ele>1056.6</ele>
        <time>2022-08-01T07:57:18Z</time>
      </trkpt>
      <trkpt lat="44.80703" lon="3.13116">
        <ele>1056.9</ele>
        <time>2022-08-01T07:57:20Z</time>
      </trkpt>
      <trkpt lat="44.80697" lon="3.13117">
        <ele>1057.4</ele>
        <time>2022-08-01T07:57:27Z</time>
      </trkpt>
      <trkpt lat="44.80696" lon="3.13117">
        <ele>1057.6</ele>
        <time>2022-08-01T07:57:28Z</time>
      </trkpt>
      <trkpt lat="44.80689" lon="3.13121">
        <ele>1058.5</ele>
        <time>2022-08-01T07:57:36Z</time>
      </trkpt>
      <trkpt lat="44.80687" lon="3.13121">
        <ele>1058.7</ele>
        <time>2022-08-01T07:57:38Z</time>
      </trkpt>
      <trkpt lat="44.80681" lon="3.13122">
        <ele>1059.3</ele>
        <time>2022-08-01T07:57:45Z</time>
      </trkpt>
      <trkpt lat="44.80676" lon="3.13124">
        <ele>1060</ele>
        <time>2022-08-01T07:57:49Z</time>
      </trkpt>
      <trkpt lat="44.80672" lon="3.13128">
        <ele>1060.9</ele>
        <time>2022-08-01T07:57:54Z</time>
      </trkpt>
      <trkpt lat="44.80669" lon="3.1313">
        <ele>1061.5</ele>
        <time>2022-08-01T07:57:58Z</time>
      </trkpt>
      <trkpt lat="44.80665" lon="3.13131">
        <ele>1062.1</ele>
        <time>2022-08-01T07:58:03Z</time>
      </trkpt>
      <trkpt lat="44.80664" lon="3.13132">
        <ele>1062.4</ele>
        <time>2022-08-01T07:58:05Z</time>
      </trkpt>
      <trkpt lat="44.80663" lon="3.13134">
        <ele>1062.8</ele>
        <time>2022-08-01T07:58:06Z</time>
      </trkpt>
      <trkpt lat="44.80662" lon="3.13135">
        <ele>1063.2</ele>
        <time>2022-08-01T07:58:07Z</time>
      </trkpt>
      <trkpt lat="44.80656" lon="3.13136">
        <ele>1064.2</ele>
        <time>2022-08-01T07:58:13Z</time>
      </trkpt>
      <trkpt lat="44.80653" lon="3.13136">
        <ele>1064.7</ele>
        <time>2022-08-01T07:58:16Z</time>
      </trkpt>
      <trkpt lat="44.80651" lon="3.13135">
        <ele>1064.8</ele>
        <time>2022-08-01T07:58:17Z</time>
      </trkpt>
      <trkpt lat="44.80646" lon="3.13135">
        <ele>1065.5</ele>
        <time>2022-08-01T07:58:21Z</time>
      </trkpt>
      <trkpt lat="44.80641" lon="3.13136">
        <ele>1066.3</ele>
        <time>2022-08-01T07:58:24Z</time>
      </trkpt>
      <trkpt lat="44.8064" lon="3.13136">
        <ele>1066.6</ele>
        <time>2022-08-01T07:58:25Z</time>
      </trkpt>
      <trkpt lat="44.80638" lon="3.13136">
        <ele>1066.8</ele>
        <time>2022-08-01T07:58:27Z</time>
      </trkpt>
      <trkpt lat="44.80637" lon="3.13135">
        <ele>1067</ele>
        <time>2022-08-01T07:58:29Z</time>
      </trkpt>
      <trkpt lat="44.80635" lon="3.13134">
        <ele>1067.2</ele>
        <time>2022-08-01T07:58:32Z</time>
      </trkpt>
      <trkpt lat="44.80627" lon="3.13133">
        <ele>1068.4</ele>
        <time>2022-08-01T07:58:40Z</time>
      </trkpt>
      <trkpt lat="44.80626" lon="3.13132">
        <ele>1068.6</ele>
        <time>2022-08-01T07:58:41Z</time>
      </trkpt>
      <trkpt lat="44.80621" lon="3.13129">
        <ele>1069.3</ele>
        <time>2022-08-01T07:58:46Z</time>
      </trkpt>
      <trkpt lat="44.8062" lon="3.13129">
        <ele>1069.4</ele>
        <time>2022-08-01T07:58:47Z</time>
      </trkpt>
      <trkpt lat="44.8062" lon="3.13129">
        <ele>1069.3</ele>
        <time>2022-08-01T07:58:48Z</time>
      </trkpt>
      <trkpt lat="44.80621" lon="3.13129">
        <ele>1069.2</ele>
        <time>2022-08-01T07:58:50Z</time>
      </trkpt>
      <trkpt lat="44.80621" lon="3.13128">
        <ele>1069.1</ele>
        <time>2022-08-01T07:58:51Z</time>
      </trkpt>
      <trkpt lat="44.80621" lon="3.13126">
        <ele>1068.9</ele>
        <time>2022-08-01T07:58:54Z</time>
      </trkpt>
      <trkpt lat="44.8062" lon="3.13126">
        <ele>1069</ele>
        <time>2022-08-01T07:58:55Z</time>
      </trkpt>
      <trkpt lat="44.80618" lon="3.13125">
        <ele>1069.3</ele>
        <time>2022-08-01T07:58:58Z</time>
      </trkpt>
      <trkpt lat="44.80619" lon="3.13125">
        <ele>1069.1</ele>
        <time>2022-08-01T07:58:59Z</time>
      </trkpt>
      <trkpt lat="44.80621" lon="3.13123">
        <ele>1068.5</ele>
        <time>2022-08-01T07:59:06Z</time>
      </trkpt>
      <trkpt lat="44.80621" lon="3.13124">
        <ele>1068.6</ele>
        <time>2022-08-01T07:59:09Z</time>
      </trkpt>
      <trkpt lat="44.80621" lon="3.13123">
        <ele>1068.6</ele>
        <time>2022-08-01T07:59:17Z</time>
      </trkpt>
      <trkpt lat="44.80617" lon="3.1312">
        <ele>1069</ele>
        <time>2022-08-01T07:59:29Z</time>
      </trkpt>
      <trkpt lat="44.80615" lon="3.13117">
        <ele>1068.9</ele>
        <time>2022-08-01T07:59:36Z</time>
      </trkpt>
      <trkpt lat="44.80616" lon="3.13116">
        <ele>1068.7</ele>
        <time>2022-08-01T07:59:44Z</time>
      </trkpt>
      <trkpt lat="44.80612" lon="3.13111">
        <ele>1068.9</ele>
        <time>2022-08-01T07:59:49Z</time>
      </trkpt>
      <trkpt lat="44.80608" lon="3.13105">
        <ele>1069.3</ele>
        <time>2022-08-01T07:59:54Z</time>
      </trkpt>
      <trkpt lat="44.80606" lon="3.13101">
        <ele>1069.5</ele>
        <time>2022-08-01T07:59:57Z</time>
      </trkpt>
      <trkpt lat="44.80603" lon="3.13088">
        <ele>1069.7</ele>
        <time>2022-08-01T08:00:05Z</time>
      </trkpt>
      <trkpt lat="44.80603" lon="3.13085">
        <ele>1069.6</ele>
        <time>2022-08-01T08:00:07Z</time>
      </trkpt>
      <trkpt lat="44.80605" lon="3.1307">
        <ele>1069.2</ele>
        <time>2022-08-01T08:00:16Z</time>
      </trkpt>
      <trkpt lat="44.80605" lon="3.13052">
        <ele>1069.5</ele>
        <time>2022-08-01T08:00:27Z</time>
      </trkpt>
      <trkpt lat="44.80605" lon="3.13049">
        <ele>1069.5</ele>
        <time>2022-08-01T08:00:29Z</time>
      </trkpt>
      <trkpt lat="44.80604" lon="3.1304">
        <ele>1070</ele>
        <time>2022-08-01T08:00:35Z</time>
      </trkpt>
      <trkpt lat="44.80601" lon="3.13031">
        <ele>1070.8</ele>
        <time>2022-08-01T08:00:42Z</time>
      </trkpt>
      <trkpt lat="44.80598" lon="3.13027">
        <ele>1071.2</ele>
        <time>2022-08-01T08:00:45Z</time>
      </trkpt>
      <trkpt lat="44.80593" lon="3.13018">
        <ele>1071.4</ele>
        <time>2022-08-01T08:00:53Z</time>
      </trkpt>
      <trkpt lat="44.80591" lon="3.13016">
        <ele>1071.5</ele>
        <time>2022-08-01T08:00:55Z</time>
      </trkpt>
      <trkpt lat="44.80579" lon="3.13007">
        <ele>1072.5</ele>
        <time>2022-08-01T08:01:07Z</time>
      </trkpt>
      <trkpt lat="44.80574" lon="3.13005">
        <ele>1073</ele>
        <time>2022-08-01T08:01:11Z</time>
      </trkpt>
      <trkpt lat="44.80572" lon="3.13002">
        <ele>1073.1</ele>
        <time>2022-08-01T08:01:14Z</time>
      </trkpt>
      <trkpt lat="44.80565" lon="3.12996">
        <ele>1074.1</ele>
        <time>2022-08-01T08:01:22Z</time>
      </trkpt>
      <trkpt lat="44.80565" lon="3.12995">
        <ele>1074.1</ele>
        <time>2022-08-01T08:01:25Z</time>
      </trkpt>
      <trkpt lat="44.80564" lon="3.12995">
        <ele>1074.2</ele>
        <time>2022-08-01T08:01:27Z</time>
      </trkpt>
      <trkpt lat="44.80563" lon="3.12994">
        <ele>1074.4</ele>
        <time>2022-08-01T08:01:28Z</time>
      </trkpt>
      <trkpt lat="44.80562" lon="3.12994">
        <ele>1074.6</ele>
        <time>2022-08-01T08:01:29Z</time>
      </trkpt>
      <trkpt lat="44.80555" lon="3.12989">
        <ele>1075.6</ele>
        <time>2022-08-01T08:01:36Z</time>
      </trkpt>
      <trkpt lat="44.80549" lon="3.12987">
        <ele>1076.7</ele>
        <time>2022-08-01T08:01:42Z</time>
      </trkpt>
      <trkpt lat="44.80544" lon="3.12983">
        <ele>1077.5</ele>
        <time>2022-08-01T08:01:48Z</time>
      </trkpt>
      <trkpt lat="44.80542" lon="3.12983">
        <ele>1077.9</ele>
        <time>2022-08-01T08:01:50Z</time>
      </trkpt>
      <trkpt lat="44.80536" lon="3.12978">
        <ele>1079.1</ele>
        <time>2022-08-01T08:01:58Z</time>
      </trkpt>
      <trkpt lat="44.80534" lon="3.12976">
        <ele>1079.5</ele>
        <time>2022-08-01T08:02:01Z</time>
      </trkpt>
      <trkpt lat="44.80531" lon="3.12975">
        <ele>1080.3</ele>
        <time>2022-08-01T08:02:05Z</time>
      </trkpt>
      <trkpt lat="44.80528" lon="3.12973">
        <ele>1081</ele>
        <time>2022-08-01T08:02:08Z</time>
      </trkpt>
      <trkpt lat="44.80525" lon="3.12972">
        <ele>1081.4</ele>
        <time>2022-08-01T08:02:11Z</time>
      </trkpt>
      <trkpt lat="44.8052" lon="3.1297">
        <ele>1082.2</ele>
        <time>2022-08-01T08:02:16Z</time>
      </trkpt>
      <trkpt lat="44.80516" lon="3.12968">
        <ele>1082.8</ele>
        <time>2022-08-01T08:02:21Z</time>
      </trkpt>
      <trkpt lat="44.80514" lon="3.12967">
        <ele>1083</ele>
        <time>2022-08-01T08:02:23Z</time>
      </trkpt>
      <trkpt lat="44.80506" lon="3.12957">
        <ele>1083.8</ele>
        <time>2022-08-01T08:02:32Z</time>
      </trkpt>
      <trkpt lat="44.80505" lon="3.12954">
        <ele>1083.9</ele>
        <time>2022-08-01T08:02:35Z</time>
      </trkpt>
      <trkpt lat="44.80505" lon="3.12951">
        <ele>1083.8</ele>
        <time>2022-08-01T08:02:39Z</time>
      </trkpt>
      <trkpt lat="44.80505" lon="3.12952">
        <ele>1083.8</ele>
        <time>2022-08-01T08:02:52Z</time>
      </trkpt>
      <trkpt lat="44.80505" lon="3.12951">
        <ele>1083.8</ele>
        <time>2022-08-01T08:03:05Z</time>
      </trkpt>
      <trkpt lat="44.80504" lon="3.12942">
        <ele>1083.8</ele>
        <time>2022-08-01T08:03:56Z</time>
      </trkpt>
      <trkpt lat="44.80504" lon="3.12942">
        <ele>1083.8</ele>
        <time>2022-08-01T08:04:01Z</time>
      </trkpt>
      <trkpt lat="44.80504" lon="3.12943">
        <ele>1083.7</ele>
        <time>2022-08-01T08:04:45Z</time>
      </trkpt>
      <trkpt lat="44.80504" lon="3.12943">
        <ele>1083.7</ele>
        <time>2022-08-01T08:04:50Z</time>
      </trkpt>
      <trkpt lat="44.80502" lon="3.12944">
        <ele>1083.9</ele>
        <time>2022-08-01T08:05:51Z</time>
      </trkpt>
      <trkpt lat="44.80502" lon="3.12943">
        <ele>1083.9</ele>
        <time>2022-08-01T08:06:05Z</time>
      </trkpt>
      <trkpt lat="44.80499" lon="3.12939">
        <ele>1084</ele>
        <time>2022-08-01T08:07:09Z</time>
      </trkpt>
      <trkpt lat="44.80492" lon="3.12935">
        <ele>1083.9</ele>
        <time>2022-08-01T08:07:15Z</time>
      </trkpt>
      <trkpt lat="44.80489" lon="3.12933">
        <ele>1083.8</ele>
        <time>2022-08-01T08:07:19Z</time>
      </trkpt>
      <trkpt lat="44.8049" lon="3.12932">
        <ele>1083.8</ele>
        <time>2022-08-01T08:07:21Z</time>
      </trkpt>
      <trkpt lat="44.80491" lon="3.12932">
        <ele>1083.8</ele>
        <time>2022-08-01T08:07:23Z</time>
      </trkpt>
      <trkpt lat="44.80488" lon="3.12934">
        <ele>1083.8</ele>
        <time>2022-08-01T08:07:28Z</time>
      </trkpt>
      <trkpt lat="44.80477" lon="3.12928">
        <ele>1083.5</ele>
        <time>2022-08-01T08:07:37Z</time>
      </trkpt>
      <trkpt lat="44.80467" lon="3.12928">
        <ele>1082.9</ele>
        <time>2022-08-01T08:07:47Z</time>
      </trkpt>
      <trkpt lat="44.80452" lon="3.12926">
        <ele>1081.5</ele>
        <time>2022-08-01T08:07:59Z</time>
      </trkpt>
      <trkpt lat="44.80449" lon="3.12926">
        <ele>1081.1</ele>
        <time>2022-08-01T08:08:02Z</time>
      </trkpt>
      <trkpt lat="44.8044" lon="3.12927">
        <ele>1080.3</ele>
        <time>2022-08-01T08:08:09Z</time>
      </trkpt>
      <trkpt lat="44.80433" lon="3.12927">
        <ele>1079.7</ele>
        <time>2022-08-01T08:08:16Z</time>
      </trkpt>
      <trkpt lat="44.80429" lon="3.12926">
        <ele>1079.4</ele>
        <time>2022-08-01T08:08:19Z</time>
      </trkpt>
      <trkpt lat="44.80424" lon="3.12927">
        <ele>1079</ele>
        <time>2022-08-01T08:08:23Z</time>
      </trkpt>
      <trkpt lat="44.8042" lon="3.12926">
        <ele>1078.6</ele>
        <time>2022-08-01T08:08:28Z</time>
      </trkpt>
      <trkpt lat="44.80419" lon="3.12927">
        <ele>1078.6</ele>
        <time>2022-08-01T08:08:29Z</time>
      </trkpt>
      <trkpt lat="44.80411" lon="3.12933">
        <ele>1078.7</ele>
        <time>2022-08-01T08:08:35Z</time>
      </trkpt>
      <trkpt lat="44.80407" lon="3.12936">
        <ele>1078.5</ele>
        <time>2022-08-01T08:08:37Z</time>
      </trkpt>
      <trkpt lat="44.804" lon="3.12941">
        <ele>1078.1</ele>
        <time>2022-08-01T08:08:44Z</time>
      </trkpt>
      <trkpt lat="44.80392" lon="3.12946">
        <ele>1077.6</ele>
        <time>2022-08-01T08:08:51Z</time>
      </trkpt>
      <trkpt lat="44.80384" lon="3.12956">
        <ele>1077.1</ele>
        <time>2022-08-01T08:09:00Z</time>
      </trkpt>
      <trkpt lat="44.80376" lon="3.12969">
        <ele>1076.8</ele>
        <time>2022-08-01T08:09:10Z</time>
      </trkpt>
      <trkpt lat="44.80374" lon="3.12972">
        <ele>1076.6</ele>
        <time>2022-08-01T08:09:13Z</time>
      </trkpt>
      <trkpt lat="44.80362" lon="3.12984">
        <ele>1076.1</ele>
        <time>2022-08-01T08:09:24Z</time>
      </trkpt>
      <trkpt lat="44.80354" lon="3.12989">
        <ele>1076.3</ele>
        <time>2022-08-01T08:09:32Z</time>
      </trkpt>
      <trkpt lat="44.80348" lon="3.12992">
        <ele>1076.1</ele>
        <time>2022-08-01T08:09:38Z</time>
      </trkpt>
      <trkpt lat="44.80346" lon="3.12992">
        <ele>1076</ele>
        <time>2022-08-01T08:09:41Z</time>
      </trkpt>
      <trkpt lat="44.80336" lon="3.12999">
        <ele>1076.1</ele>
        <time>2022-08-01T08:09:51Z</time>
      </trkpt>
      <trkpt lat="44.80336" lon="3.12999">
        <ele>1076.1</ele>
        <time>2022-08-01T08:10:01Z</time>
      </trkpt>
      <trkpt lat="44.80332" lon="3.13001">
        <ele>1075.9</ele>
        <time>2022-08-01T08:10:11Z</time>
      </trkpt>
      <trkpt lat="44.80328" lon="3.13003">
        <ele>1075.9</ele>
        <time>2022-08-01T08:10:17Z</time>
      </trkpt>
      <trkpt lat="44.80322" lon="3.13007">
        <ele>1076.2</ele>
        <time>2022-08-01T08:10:22Z</time>
      </trkpt>
      <trkpt lat="44.80319" lon="3.1301">
        <ele>1076.5</ele>
        <time>2022-08-01T08:10:25Z</time>
      </trkpt>
      <trkpt lat="44.8031" lon="3.13018">
        <ele>1077.2</ele>
        <time>2022-08-01T08:10:33Z</time>
      </trkpt>
      <trkpt lat="44.80305" lon="3.13023">
        <ele>1078</ele>
        <time>2022-08-01T08:10:38Z</time>
      </trkpt>
      <trkpt lat="44.80303" lon="3.13027">
        <ele>1078.4</ele>
        <time>2022-08-01T08:10:41Z</time>
      </trkpt>
      <trkpt lat="44.80299" lon="3.13032">
        <ele>1078.7</ele>
        <time>2022-08-01T08:10:46Z</time>
      </trkpt>
      <trkpt lat="44.80299" lon="3.13032">
        <ele>1078.5</ele>
        <time>2022-08-01T08:10:48Z</time>
      </trkpt>
      <trkpt lat="44.80296" lon="3.13035">
        <ele>1078.9</ele>
        <time>2022-08-01T08:10:51Z</time>
      </trkpt>
      <trkpt lat="44.80293" lon="3.1304">
        <ele>1079.2</ele>
        <time>2022-08-01T08:10:55Z</time>
      </trkpt>
      <trkpt lat="44.80291" lon="3.13042">
        <ele>1079.1</ele>
        <time>2022-08-01T08:10:58Z</time>
      </trkpt>
      <trkpt lat="44.80283" lon="3.13052">
        <ele>1079.5</ele>
        <time>2022-08-01T08:11:07Z</time>
      </trkpt>
      <trkpt lat="44.80274" lon="3.13062">
        <ele>1079.6</ele>
        <time>2022-08-01T08:11:17Z</time>
      </trkpt>
      <trkpt lat="44.80266" lon="3.13067">
        <ele>1079.2</ele>
        <time>2022-08-01T08:11:25Z</time>
      </trkpt>
      <trkpt lat="44.80257" lon="3.13076">
        <ele>1079</ele>
        <time>2022-08-01T08:11:35Z</time>
      </trkpt>
      <trkpt lat="44.80256" lon="3.13076">
        <ele>1078.9</ele>
        <time>2022-08-01T08:11:36Z</time>
      </trkpt>
      <trkpt lat="44.80256" lon="3.13074">
        <ele>1078.5</ele>
        <time>2022-08-01T08:11:40Z</time>
      </trkpt>
      <trkpt lat="44.80251" lon="3.13077">
        <ele>1078.1</ele>
        <time>2022-08-01T08:11:44Z</time>
      </trkpt>
      <trkpt lat="44.80248" lon="3.13079">
        <ele>1078.3</ele>
        <time>2022-08-01T08:11:47Z</time>
      </trkpt>
      <trkpt lat="44.80236" lon="3.1308">
        <ele>1078.6</ele>
        <time>2022-08-01T08:11:56Z</time>
      </trkpt>
      <trkpt lat="44.80235" lon="3.1308">
        <ele>1078.5</ele>
        <time>2022-08-01T08:11:57Z</time>
      </trkpt>
      <trkpt lat="44.80224" lon="3.13076">
        <ele>1078.4</ele>
        <time>2022-08-01T08:12:06Z</time>
      </trkpt>
      <trkpt lat="44.80217" lon="3.13071">
        <ele>1078.5</ele>
        <time>2022-08-01T08:12:13Z</time>
      </trkpt>
      <trkpt lat="44.80208" lon="3.13068">
        <ele>1078.9</ele>
        <time>2022-08-01T08:12:21Z</time>
      </trkpt>
      <trkpt lat="44.80207" lon="3.13068">
        <ele>1078.8</ele>
        <time>2022-08-01T08:12:22Z</time>
      </trkpt>
      <trkpt lat="44.80197" lon="3.13064">
        <ele>1078.8</ele>
        <time>2022-08-01T08:12:31Z</time>
      </trkpt>
      <trkpt lat="44.80196" lon="3.13064">
        <ele>1078.7</ele>
        <time>2022-08-01T08:12:32Z</time>
      </trkpt>
      <trkpt lat="44.80188" lon="3.1306">
        <ele>1077.7</ele>
        <time>2022-08-01T08:12:40Z</time>
      </trkpt>
      <trkpt lat="44.80187" lon="3.1306">
        <ele>1077.7</ele>
        <time>2022-08-01T08:12:41Z</time>
      </trkpt>
      <trkpt lat="44.80185" lon="3.13059">
        <ele>1077.5</ele>
        <time>2022-08-01T08:12:43Z</time>
      </trkpt>
      <trkpt lat="44.80179" lon="3.1306">
        <ele>1077.4</ele>
        <time>2022-08-01T08:12:48Z</time>
      </trkpt>
      <trkpt lat="44.80174" lon="3.13064">
        <ele>1078.1</ele>
        <time>2022-08-01T08:12:53Z</time>
      </trkpt>
      <trkpt lat="44.80169" lon="3.13066">
        <ele>1078.3</ele>
        <time>2022-08-01T08:12:57Z</time>
      </trkpt>
      <trkpt lat="44.80161" lon="3.13069">
        <ele>1078.6</ele>
        <time>2022-08-01T08:13:05Z</time>
      </trkpt>
      <trkpt lat="44.80158" lon="3.1307">
        <ele>1078.7</ele>
        <time>2022-08-01T08:13:07Z</time>
      </trkpt>
      <trkpt lat="44.80148" lon="3.13074">
        <ele>1079.1</ele>
        <time>2022-08-01T08:13:16Z</time>
      </trkpt>
      <trkpt lat="44.80148" lon="3.13074">
        <ele>1079.1</ele>
        <time>2022-08-01T08:13:17Z</time>
      </trkpt>
      <trkpt lat="44.80147" lon="3.13074">
        <ele>1079.1</ele>
        <time>2022-08-01T08:13:19Z</time>
      </trkpt>
      <trkpt lat="44.80147" lon="3.13074">
        <ele>1079.1</ele>
        <time>2022-08-01T08:13:21Z</time>
      </trkpt>
      <trkpt lat="44.80143" lon="3.13076">
        <ele>1079.3</ele>
        <time>2022-08-01T08:13:29Z</time>
      </trkpt>
      <trkpt lat="44.80136" lon="3.13082">
        <ele>1080.5</ele>
        <time>2022-08-01T08:13:36Z</time>
      </trkpt>
      <trkpt lat="44.80134" lon="3.13083">
        <ele>1080.7</ele>
        <time>2022-08-01T08:13:38Z</time>
      </trkpt>
      <trkpt lat="44.80126" lon="3.13088">
        <ele>1081.2</ele>
        <time>2022-08-01T08:13:45Z</time>
      </trkpt>
      <trkpt lat="44.80121" lon="3.13091">
        <ele>1081.6</ele>
        <time>2022-08-01T08:13:50Z</time>
      </trkpt>
      <trkpt lat="44.80117" lon="3.13093">
        <ele>1081.9</ele>
        <time>2022-08-01T08:13:55Z</time>
      </trkpt>
      <trkpt lat="44.80111" lon="3.13097">
        <ele>1082.5</ele>
        <time>2022-08-01T08:14:03Z</time>
      </trkpt>
      <trkpt lat="44.80111" lon="3.13097">
        <ele>1082.5</ele>
        <time>2022-08-01T08:14:04Z</time>
      </trkpt>
      <trkpt lat="44.80109" lon="3.131">
        <ele>1083.1</ele>
        <time>2022-08-01T08:14:07Z</time>
      </trkpt>
      <trkpt lat="44.80106" lon="3.13102">
        <ele>1083.5</ele>
        <time>2022-08-01T08:14:10Z</time>
      </trkpt>
      <trkpt lat="44.80103" lon="3.13101">
        <ele>1083.4</ele>
        <time>2022-08-01T08:14:14Z</time>
      </trkpt>
      <trkpt lat="44.80102" lon="3.131">
        <ele>1083.4</ele>
        <time>2022-08-01T08:14:16Z</time>
      </trkpt>
      <trkpt lat="44.80096" lon="3.13107">
        <ele>1084.9</ele>
        <time>2022-08-01T08:14:24Z</time>
      </trkpt>
      <trkpt lat="44.80093" lon="3.13107">
        <ele>1084.9</ele>
        <time>2022-08-01T08:14:28Z</time>
      </trkpt>
      <trkpt lat="44.80089" lon="3.13108">
        <ele>1085.3</ele>
        <time>2022-08-01T08:14:32Z</time>
      </trkpt>
      <trkpt lat="44.80084" lon="3.13109">
        <ele>1085.7</ele>
        <time>2022-08-01T08:14:37Z</time>
      </trkpt>
      <trkpt lat="44.80083" lon="3.1311">
        <ele>1085.7</ele>
        <time>2022-08-01T08:14:38Z</time>
      </trkpt>
      <trkpt lat="44.80076" lon="3.13114">
        <ele>1086.8</ele>
        <time>2022-08-01T08:14:46Z</time>
      </trkpt>
      <trkpt lat="44.80075" lon="3.13114">
        <ele>1086.7</ele>
        <time>2022-08-01T08:14:47Z</time>
      </trkpt>
      <trkpt lat="44.80075" lon="3.13112">
        <ele>1086.4</ele>
        <time>2022-08-01T08:14:49Z</time>
      </trkpt>
      <trkpt lat="44.80075" lon="3.13112">
        <ele>1086.5</ele>
        <time>2022-08-01T08:14:50Z</time>
      </trkpt>
      <trkpt lat="44.8007" lon="3.13118">
        <ele>1087.4</ele>
        <time>2022-08-01T08:14:58Z</time>
      </trkpt>
      <trkpt lat="44.80069" lon="3.13119">
        <ele>1087.7</ele>
        <time>2022-08-01T08:15:00Z</time>
      </trkpt>
      <trkpt lat="44.80064" lon="3.13129">
        <ele>1089</ele>
        <time>2022-08-01T08:15:09Z</time>
      </trkpt>
      <trkpt lat="44.80063" lon="3.13133">
        <ele>1089.5</ele>
        <time>2022-08-01T08:15:12Z</time>
      </trkpt>
      <trkpt lat="44.80064" lon="3.13137">
        <ele>1090</ele>
        <time>2022-08-01T08:15:15Z</time>
      </trkpt>
      <trkpt lat="44.80065" lon="3.13141">
        <ele>1090.5</ele>
        <time>2022-08-01T08:15:18Z</time>
      </trkpt>
      <trkpt lat="44.80065" lon="3.13144">
        <ele>1090.8</ele>
        <time>2022-08-01T08:15:20Z</time>
      </trkpt>
      <trkpt lat="44.80066" lon="3.13147">
        <ele>1091.2</ele>
        <time>2022-08-01T08:15:22Z</time>
      </trkpt>
      <trkpt lat="44.80065" lon="3.13155">
        <ele>1091.9</ele>
        <time>2022-08-01T08:15:28Z</time>
      </trkpt>
      <trkpt lat="44.80065" lon="3.13158">
        <ele>1092.2</ele>
        <time>2022-08-01T08:15:30Z</time>
      </trkpt>
      <trkpt lat="44.80065" lon="3.13158">
        <ele>1092.2</ele>
        <time>2022-08-01T08:15:32Z</time>
      </trkpt>
      <trkpt lat="44.80065" lon="3.1316">
        <ele>1092.4</ele>
        <time>2022-08-01T08:15:36Z</time>
      </trkpt>
      <trkpt lat="44.80066" lon="3.13161">
        <ele>1092.6</ele>
        <time>2022-08-01T08:15:37Z</time>
      </trkpt>
      <trkpt lat="44.80066" lon="3.13163">
        <ele>1092.8</ele>
        <time>2022-08-01T08:15:38Z</time>
      </trkpt>
      <trkpt lat="44.80064" lon="3.13172">
        <ele>1093.6</ele>
        <time>2022-08-01T08:15:43Z</time>
      </trkpt>
      <trkpt lat="44.80063" lon="3.13181">
        <ele>1094.7</ele>
        <time>2022-08-01T08:15:50Z</time>
      </trkpt>
      <trkpt lat="44.80062" lon="3.13183">
        <ele>1094.9</ele>
        <time>2022-08-01T08:15:52Z</time>
      </trkpt>
      <trkpt lat="44.8006" lon="3.13193">
        <ele>1096.1</ele>
        <time>2022-08-01T08:15:59Z</time>
      </trkpt>
      <trkpt lat="44.8006" lon="3.13196">
        <ele>1096.4</ele>
        <time>2022-08-01T08:16:01Z</time>
      </trkpt>
      <trkpt lat="44.80059" lon="3.13199">
        <ele>1096.7</ele>
        <time>2022-08-01T08:16:03Z</time>
      </trkpt>
      <trkpt lat="44.80057" lon="3.13204">
        <ele>1097.2</ele>
        <time>2022-08-01T08:16:09Z</time>
      </trkpt>
      <trkpt lat="44.80057" lon="3.13204">
        <ele>1097.2</ele>
        <time>2022-08-01T08:16:10Z</time>
      </trkpt>
      <trkpt lat="44.80056" lon="3.13203">
        <ele>1097</ele>
        <time>2022-08-01T08:16:17Z</time>
      </trkpt>
      <trkpt lat="44.80056" lon="3.1321">
        <ele>1097.7</ele>
        <time>2022-08-01T08:16:32Z</time>
      </trkpt>
      <trkpt lat="44.80056" lon="3.13212">
        <ele>1097.9</ele>
        <time>2022-08-01T08:16:33Z</time>
      </trkpt>
      <trkpt lat="44.80054" lon="3.13228">
        <ele>1099</ele>
        <time>2022-08-01T08:16:42Z</time>
      </trkpt>
      <trkpt lat="44.80053" lon="3.1323">
        <ele>1098.9</ele>
        <time>2022-08-01T08:16:43Z</time>
      </trkpt>
      <trkpt lat="44.80052" lon="3.1324">
        <ele>1099.3</ele>
        <time>2022-08-01T08:16:50Z</time>
      </trkpt>
      <trkpt lat="44.80049" lon="3.13247">
        <ele>1099</ele>
        <time>2022-08-01T08:16:56Z</time>
      </trkpt>
      <trkpt lat="44.80049" lon="3.13249">
        <ele>1099.2</ele>
        <time>2022-08-01T08:16:58Z</time>
      </trkpt>
      <trkpt lat="44.80047" lon="3.13264">
        <ele>1100.2</ele>
        <time>2022-08-01T08:17:07Z</time>
      </trkpt>
      <trkpt lat="44.80047" lon="3.13266">
        <ele>1100.4</ele>
        <time>2022-08-01T08:17:08Z</time>
      </trkpt>
      <trkpt lat="44.80047" lon="3.13274">
        <ele>1101.3</ele>
        <time>2022-08-01T08:17:13Z</time>
      </trkpt>
      <trkpt lat="44.80045" lon="3.13285">
        <ele>1101.8</ele>
        <time>2022-08-01T08:17:20Z</time>
      </trkpt>
      <trkpt lat="44.80045" lon="3.13291">
        <ele>1102.1</ele>
        <time>2022-08-01T08:17:24Z</time>
      </trkpt>
      <trkpt lat="44.80046" lon="3.13297">
        <ele>1102.4</ele>
        <time>2022-08-01T08:17:28Z</time>
      </trkpt>
      <trkpt lat="44.80046" lon="3.13304">
        <ele>1102.8</ele>
        <time>2022-08-01T08:17:33Z</time>
      </trkpt>
      <trkpt lat="44.80046" lon="3.13307">
        <ele>1102.9</ele>
        <time>2022-08-01T08:17:35Z</time>
      </trkpt>
      <trkpt lat="44.80046" lon="3.13308">
        <ele>1103</ele>
        <time>2022-08-01T08:17:36Z</time>
      </trkpt>
      <trkpt lat="44.80048" lon="3.13318">
        <ele>1103.8</ele>
        <time>2022-08-01T08:17:43Z</time>
      </trkpt>
      <trkpt lat="44.80048" lon="3.1332">
        <ele>1104</ele>
        <time>2022-08-01T08:17:45Z</time>
      </trkpt>
      <trkpt lat="44.80049" lon="3.13325">
        <ele>1104.3</ele>
        <time>2022-08-01T08:17:48Z</time>
      </trkpt>
      <trkpt lat="44.8005" lon="3.13326">
        <ele>1104.5</ele>
        <time>2022-08-01T08:17:49Z</time>
      </trkpt>
      <trkpt lat="44.80051" lon="3.13329">
        <ele>1104.9</ele>
        <time>2022-08-01T08:17:51Z</time>
      </trkpt>
      <trkpt lat="44.80052" lon="3.13331">
        <ele>1105.2</ele>
        <time>2022-08-01T08:17:53Z</time>
      </trkpt>
      <trkpt lat="44.80053" lon="3.13334">
        <ele>1105.4</ele>
        <time>2022-08-01T08:17:55Z</time>
      </trkpt>
      <trkpt lat="44.80054" lon="3.13347">
        <ele>1106.7</ele>
        <time>2022-08-01T08:18:03Z</time>
      </trkpt>
      <trkpt lat="44.80054" lon="3.13351">
        <ele>1106.9</ele>
        <time>2022-08-01T08:18:05Z</time>
      </trkpt>
      <trkpt lat="44.80055" lon="3.13363">
        <ele>1108</ele>
        <time>2022-08-01T08:18:13Z</time>
      </trkpt>
      <trkpt lat="44.80056" lon="3.13373">
        <ele>1108.9</ele>
        <time>2022-08-01T08:18:20Z</time>
      </trkpt>
      <trkpt lat="44.80056" lon="3.13385">
        <ele>1109.8</ele>
        <time>2022-08-01T08:18:28Z</time>
      </trkpt>
      <trkpt lat="44.80056" lon="3.13387">
        <ele>1109.9</ele>
        <time>2022-08-01T08:18:29Z</time>
      </trkpt>
      <trkpt lat="44.80056" lon="3.1339">
        <ele>1110.1</ele>
        <time>2022-08-01T08:18:31Z</time>
      </trkpt>
      <trkpt lat="44.80057" lon="3.13395">
        <ele>1110.4</ele>
        <time>2022-08-01T08:18:35Z</time>
      </trkpt>
      <trkpt lat="44.80058" lon="3.1341">
        <ele>1111</ele>
        <time>2022-08-01T08:18:46Z</time>
      </trkpt>
      <trkpt lat="44.80057" lon="3.13426">
        <ele>1111.6</ele>
        <time>2022-08-01T08:18:56Z</time>
      </trkpt>
      <trkpt lat="44.80057" lon="3.13435">
        <ele>1111.9</ele>
        <time>2022-08-01T08:19:02Z</time>
      </trkpt>
      <trkpt lat="44.80057" lon="3.1344">
        <ele>1112.1</ele>
        <time>2022-08-01T08:19:05Z</time>
      </trkpt>
      <trkpt lat="44.80054" lon="3.13452">
        <ele>1112.3</ele>
        <time>2022-08-01T08:19:13Z</time>
      </trkpt>
      <trkpt lat="44.80051" lon="3.13469">
        <ele>1112.9</ele>
        <time>2022-08-01T08:19:24Z</time>
      </trkpt>
      <trkpt lat="44.80051" lon="3.1347">
        <ele>1113</ele>
        <time>2022-08-01T08:19:25Z</time>
      </trkpt>
      <trkpt lat="44.80047" lon="3.13483">
        <ele>1113.2</ele>
        <time>2022-08-01T08:19:33Z</time>
      </trkpt>
      <trkpt lat="44.80045" lon="3.13496">
        <ele>1113.5</ele>
        <time>2022-08-01T08:19:42Z</time>
      </trkpt>
      <trkpt lat="44.80043" lon="3.13508">
        <ele>1114.1</ele>
        <time>2022-08-01T08:19:50Z</time>
      </trkpt>
      <trkpt lat="44.80039" lon="3.13527">
        <ele>1115.4</ele>
        <time>2022-08-01T08:20:02Z</time>
      </trkpt>
      <trkpt lat="44.80036" lon="3.13537">
        <ele>1115.9</ele>
        <time>2022-08-01T08:20:09Z</time>
      </trkpt>
      <trkpt lat="44.80036" lon="3.13538">
        <ele>1116</ele>
        <time>2022-08-01T08:20:10Z</time>
      </trkpt>
      <trkpt lat="44.80031" lon="3.13546">
        <ele>1116.3</ele>
        <time>2022-08-01T08:20:17Z</time>
      </trkpt>
      <trkpt lat="44.80031" lon="3.13548">
        <ele>1116.5</ele>
        <time>2022-08-01T08:20:18Z</time>
      </trkpt>
      <trkpt lat="44.80029" lon="3.13554">
        <ele>1117</ele>
        <time>2022-08-01T08:20:22Z</time>
      </trkpt>
      <trkpt lat="44.80029" lon="3.13555">
        <ele>1117.1</ele>
        <time>2022-08-01T08:20:23Z</time>
      </trkpt>
      <trkpt lat="44.80025" lon="3.13562">
        <ele>1117.5</ele>
        <time>2022-08-01T08:20:29Z</time>
      </trkpt>
      <trkpt lat="44.80024" lon="3.13564">
        <ele>1117.6</ele>
        <time>2022-08-01T08:20:31Z</time>
      </trkpt>
      <trkpt lat="44.80023" lon="3.13567">
        <ele>1117.8</ele>
        <time>2022-08-01T08:20:33Z</time>
      </trkpt>
      <trkpt lat="44.8002" lon="3.13572">
        <ele>1118</ele>
        <time>2022-08-01T08:20:37Z</time>
      </trkpt>
      <trkpt lat="44.80018" lon="3.13574">
        <ele>1118</ele>
        <time>2022-08-01T08:20:43Z</time>
      </trkpt>
      <trkpt lat="44.80017" lon="3.13574">
        <ele>1117.9</ele>
        <time>2022-08-01T08:20:44Z</time>
      </trkpt>
      <trkpt lat="44.80018" lon="3.13574">
        <ele>1118.1</ele>
        <time>2022-08-01T08:20:53Z</time>
      </trkpt>
      <trkpt lat="44.80014" lon="3.1358">
        <ele>1118.2</ele>
        <time>2022-08-01T08:21:09Z</time>
      </trkpt>
      <trkpt lat="44.8001" lon="3.13591">
        <ele>1118.9</ele>
        <time>2022-08-01T08:21:16Z</time>
      </trkpt>
      <trkpt lat="44.80008" lon="3.13595">
        <ele>1119.1</ele>
        <time>2022-08-01T08:21:19Z</time>
      </trkpt>
      <trkpt lat="44.80007" lon="3.13597">
        <ele>1119.2</ele>
        <time>2022-08-01T08:21:22Z</time>
      </trkpt>
      <trkpt lat="44.80007" lon="3.13597">
        <ele>1119.3</ele>
        <time>2022-08-01T08:21:23Z</time>
      </trkpt>
      <trkpt lat="44.80006" lon="3.136">
        <ele>1119.4</ele>
        <time>2022-08-01T08:21:25Z</time>
      </trkpt>
      <trkpt lat="44.80003" lon="3.13603">
        <ele>1119.5</ele>
        <time>2022-08-01T08:21:28Z</time>
      </trkpt>
      <trkpt lat="44.79997" lon="3.13614">
        <ele>1120</ele>
        <time>2022-08-01T08:21:36Z</time>
      </trkpt>
      <trkpt lat="44.79995" lon="3.13619">
        <ele>1120.2</ele>
        <time>2022-08-01T08:21:40Z</time>
      </trkpt>
      <trkpt lat="44.79989" lon="3.13631">
        <ele>1120.4</ele>
        <time>2022-08-01T08:21:49Z</time>
      </trkpt>
      <trkpt lat="44.79983" lon="3.13646">
        <ele>1120.9</ele>
        <time>2022-08-01T08:22:00Z</time>
      </trkpt>
      <trkpt lat="44.79975" lon="3.13661">
        <ele>1121.7</ele>
        <time>2022-08-01T08:22:11Z</time>
      </trkpt>
      <trkpt lat="44.7997" lon="3.1367">
        <ele>1122</ele>
        <time>2022-08-01T08:22:18Z</time>
      </trkpt>
      <trkpt lat="44.79967" lon="3.13678">
        <ele>1122.2</ele>
        <time>2022-08-01T08:22:24Z</time>
      </trkpt>
      <trkpt lat="44.79965" lon="3.1369">
        <ele>1122.8</ele>
        <time>2022-08-01T08:22:32Z</time>
      </trkpt>
      <trkpt lat="44.79964" lon="3.13704">
        <ele>1123.9</ele>
        <time>2022-08-01T08:22:42Z</time>
      </trkpt>
      <trkpt lat="44.79963" lon="3.13709">
        <ele>1124.3</ele>
        <time>2022-08-01T08:22:45Z</time>
      </trkpt>
      <trkpt lat="44.79964" lon="3.13717">
        <ele>1125</ele>
        <time>2022-08-01T08:22:50Z</time>
      </trkpt>
      <trkpt lat="44.79964" lon="3.1372">
        <ele>1125.3</ele>
        <time>2022-08-01T08:22:52Z</time>
      </trkpt>
      <trkpt lat="44.79964" lon="3.13721">
        <ele>1125.4</ele>
        <time>2022-08-01T08:22:53Z</time>
      </trkpt>
      <trkpt lat="44.79964" lon="3.13726">
        <ele>1125.9</ele>
        <time>2022-08-01T08:22:56Z</time>
      </trkpt>
      <trkpt lat="44.79966" lon="3.13736">
        <ele>1127</ele>
        <time>2022-08-01T08:23:02Z</time>
      </trkpt>
      <trkpt lat="44.79967" lon="3.13737">
        <ele>1127.2</ele>
        <time>2022-08-01T08:23:03Z</time>
      </trkpt>
      <trkpt lat="44.79967" lon="3.13739">
        <ele>1127.3</ele>
        <time>2022-08-01T08:23:04Z</time>
      </trkpt>
      <trkpt lat="44.79966" lon="3.13741">
        <ele>1127.4</ele>
        <time>2022-08-01T08:23:07Z</time>
      </trkpt>
      <trkpt lat="44.79968" lon="3.13745">
        <ele>1127.9</ele>
        <time>2022-08-01T08:23:11Z</time>
      </trkpt>
      <trkpt lat="44.79968" lon="3.13747">
        <ele>1128.2</ele>
        <time>2022-08-01T08:23:13Z</time>
      </trkpt>
      <trkpt lat="44.79968" lon="3.13752">
        <ele>1128.5</ele>
        <time>2022-08-01T08:23:16Z</time>
      </trkpt>
      <trkpt lat="44.79966" lon="3.13756">
        <ele>1128.6</ele>
        <time>2022-08-01T08:23:19Z</time>
      </trkpt>
      <trkpt lat="44.79964" lon="3.13762">
        <ele>1128.7</ele>
        <time>2022-08-01T08:23:23Z</time>
      </trkpt>
      <trkpt lat="44.79963" lon="3.13765">
        <ele>1128.8</ele>
        <time>2022-08-01T08:23:27Z</time>
      </trkpt>
      <trkpt lat="44.79964" lon="3.13765">
        <ele>1128.8</ele>
        <time>2022-08-01T08:23:28Z</time>
      </trkpt>
      <trkpt lat="44.79963" lon="3.13766">
        <ele>1128.9</ele>
        <time>2022-08-01T08:23:29Z</time>
      </trkpt>
      <trkpt lat="44.79963" lon="3.13769">
        <ele>1129</ele>
        <time>2022-08-01T08:23:31Z</time>
      </trkpt>
      <trkpt lat="44.79961" lon="3.13774">
        <ele>1129.1</ele>
        <time>2022-08-01T08:23:35Z</time>
      </trkpt>
      <trkpt lat="44.7996" lon="3.13776">
        <ele>1129.2</ele>
        <time>2022-08-01T08:23:36Z</time>
      </trkpt>
      <trkpt lat="44.79957" lon="3.13786">
        <ele>1129.6</ele>
        <time>2022-08-01T08:23:42Z</time>
      </trkpt>
      <trkpt lat="44.79954" lon="3.13803">
        <ele>1130.4</ele>
        <time>2022-08-01T08:23:53Z</time>
      </trkpt>
      <trkpt lat="44.79951" lon="3.13812">
        <ele>1130.8</ele>
        <time>2022-08-01T08:24:02Z</time>
      </trkpt>
      <trkpt lat="44.79951" lon="3.13813">
        <ele>1130.8</ele>
        <time>2022-08-01T08:24:06Z</time>
      </trkpt>
      <trkpt lat="44.7995" lon="3.13818">
        <ele>1131.2</ele>
        <time>2022-08-01T08:24:12Z</time>
      </trkpt>
      <trkpt lat="44.79948" lon="3.13826">
        <ele>1131.7</ele>
        <time>2022-08-01T08:24:18Z</time>
      </trkpt>
      <trkpt lat="44.79947" lon="3.13828">
        <ele>1131.7</ele>
        <time>2022-08-01T08:24:20Z</time>
      </trkpt>
      <trkpt lat="44.79946" lon="3.13829">
        <ele>1131.7</ele>
        <time>2022-08-01T08:24:21Z</time>
      </trkpt>
      <trkpt lat="44.79945" lon="3.1383">
        <ele>1131.7</ele>
        <time>2022-08-01T08:24:25Z</time>
      </trkpt>
      <trkpt lat="44.79943" lon="3.13837">
        <ele>1132</ele>
        <time>2022-08-01T08:24:30Z</time>
      </trkpt>
      <trkpt lat="44.7994" lon="3.13848">
        <ele>1132.4</ele>
        <time>2022-08-01T08:24:37Z</time>
      </trkpt>
      <trkpt lat="44.79938" lon="3.13862">
        <ele>1133.1</ele>
        <time>2022-08-01T08:24:46Z</time>
      </trkpt>
      <trkpt lat="44.79934" lon="3.13874">
        <ele>1133.4</ele>
        <time>2022-08-01T08:24:55Z</time>
      </trkpt>
      <trkpt lat="44.79932" lon="3.13888">
        <ele>1134.1</ele>
        <time>2022-08-01T08:25:03Z</time>
      </trkpt>
      <trkpt lat="44.79929" lon="3.13895">
        <ele>1134.3</ele>
        <time>2022-08-01T08:25:08Z</time>
      </trkpt>
      <trkpt lat="44.79925" lon="3.13912">
        <ele>1135.2</ele>
        <time>2022-08-01T08:25:19Z</time>
      </trkpt>
      <trkpt lat="44.79922" lon="3.13925">
        <ele>1135.5</ele>
        <time>2022-08-01T08:25:27Z</time>
      </trkpt>
      <trkpt lat="44.79922" lon="3.13926">
        <ele>1135.6</ele>
        <time>2022-08-01T08:25:28Z</time>
      </trkpt>
      <trkpt lat="44.79922" lon="3.13928">
        <ele>1135.7</ele>
        <time>2022-08-01T08:25:29Z</time>
      </trkpt>
      <trkpt lat="44.7992" lon="3.13939">
        <ele>1136.1</ele>
        <time>2022-08-01T08:25:36Z</time>
      </trkpt>
      <trkpt lat="44.79918" lon="3.1395">
        <ele>1136.6</ele>
        <time>2022-08-01T08:25:43Z</time>
      </trkpt>
      <trkpt lat="44.79914" lon="3.13963">
        <ele>1137</ele>
        <time>2022-08-01T08:25:52Z</time>
      </trkpt>
      <trkpt lat="44.79914" lon="3.13966">
        <ele>1137.1</ele>
        <time>2022-08-01T08:25:54Z</time>
      </trkpt>
      <trkpt lat="44.79913" lon="3.13967">
        <ele>1137.1</ele>
        <time>2022-08-01T08:25:55Z</time>
      </trkpt>
      <trkpt lat="44.79912" lon="3.13969">
        <ele>1137.2</ele>
        <time>2022-08-01T08:25:58Z</time>
      </trkpt>
      <trkpt lat="44.79912" lon="3.1397">
        <ele>1137.1</ele>
        <time>2022-08-01T08:25:59Z</time>
      </trkpt>
      <trkpt lat="44.79911" lon="3.1397">
        <ele>1137.1</ele>
        <time>2022-08-01T08:26:00Z</time>
      </trkpt>
      <trkpt lat="44.79908" lon="3.13968">
        <ele>1136.4</ele>
        <time>2022-08-01T08:26:05Z</time>
      </trkpt>
      <trkpt lat="44.79908" lon="3.13968">
        <ele>1136.5</ele>
        <time>2022-08-01T08:26:07Z</time>
      </trkpt>
      <trkpt lat="44.7991" lon="3.13969">
        <ele>1136.8</ele>
        <time>2022-08-01T08:26:18Z</time>
      </trkpt>
      <trkpt lat="44.79909" lon="3.13976">
        <ele>1137</ele>
        <time>2022-08-01T08:26:22Z</time>
      </trkpt>
      <trkpt lat="44.79906" lon="3.13987">
        <ele>1136.9</ele>
        <time>2022-08-01T08:26:30Z</time>
      </trkpt>
      <trkpt lat="44.79905" lon="3.13986">
        <ele>1136.7</ele>
        <time>2022-08-01T08:26:38Z</time>
      </trkpt>
      <trkpt lat="44.79903" lon="3.13991">
        <ele>1136.4</ele>
        <time>2022-08-01T08:26:46Z</time>
      </trkpt>
      <trkpt lat="44.79902" lon="3.13998">
        <ele>1136.3</ele>
        <time>2022-08-01T08:26:52Z</time>
      </trkpt>
      <trkpt lat="44.79898" lon="3.14011">
        <ele>1135.8</ele>
        <time>2022-08-01T08:27:01Z</time>
      </trkpt>
      <trkpt lat="44.79895" lon="3.14018">
        <ele>1135.8</ele>
        <time>2022-08-01T08:27:06Z</time>
      </trkpt>
      <trkpt lat="44.79895" lon="3.14019">
        <ele>1135.8</ele>
        <time>2022-08-01T08:27:07Z</time>
      </trkpt>
      <trkpt lat="44.79892" lon="3.14028">
        <ele>1135.7</ele>
        <time>2022-08-01T08:27:14Z</time>
      </trkpt>
      <trkpt lat="44.79892" lon="3.14029">
        <ele>1135.7</ele>
        <time>2022-08-01T08:27:16Z</time>
      </trkpt>
      <trkpt lat="44.79892" lon="3.14029">
        <ele>1135.6</ele>
        <time>2022-08-01T08:27:17Z</time>
      </trkpt>
      <trkpt lat="44.79892" lon="3.14028">
        <ele>1135.7</ele>
        <time>2022-08-01T08:27:21Z</time>
      </trkpt>
      <trkpt lat="44.79893" lon="3.14029">
        <ele>1135.9</ele>
        <time>2022-08-01T08:27:27Z</time>
      </trkpt>
      <trkpt lat="44.79893" lon="3.1403">
        <ele>1135.8</ele>
        <time>2022-08-01T08:27:57Z</time>
      </trkpt>
      <trkpt lat="44.79889" lon="3.14031">
        <ele>1135.1</ele>
        <time>2022-08-01T08:28:15Z</time>
      </trkpt>
      <trkpt lat="44.7989" lon="3.14036">
        <ele>1135.3</ele>
        <time>2022-08-01T08:28:22Z</time>
      </trkpt>
      <trkpt lat="44.7989" lon="3.14033">
        <ele>1135.1</ele>
        <time>2022-08-01T08:28:30Z</time>
      </trkpt>
      <trkpt lat="44.7989" lon="3.14033">
        <ele>1135.1</ele>
        <time>2022-08-01T08:28:44Z</time>
      </trkpt>
      <trkpt lat="44.79889" lon="3.14035">
        <ele>1135</ele>
        <time>2022-08-01T08:28:47Z</time>
      </trkpt>
      <trkpt lat="44.79887" lon="3.1404">
        <ele>1134.7</ele>
        <time>2022-08-01T08:28:50Z</time>
      </trkpt>
      <trkpt lat="44.79883" lon="3.1405">
        <ele>1134.1</ele>
        <time>2022-08-01T08:28:57Z</time>
      </trkpt>
      <trkpt lat="44.7988" lon="3.14055">
        <ele>1133.7</ele>
        <time>2022-08-01T08:29:04Z</time>
      </trkpt>
      <trkpt lat="44.7988" lon="3.14055">
        <ele>1133.8</ele>
        <time>2022-08-01T08:29:05Z</time>
      </trkpt>
      <trkpt lat="44.79883" lon="3.14053">
        <ele>1134.1</ele>
        <time>2022-08-01T08:29:11Z</time>
      </trkpt>
      <trkpt lat="44.79883" lon="3.14053">
        <ele>1134.1</ele>
        <time>2022-08-01T08:29:12Z</time>
      </trkpt>
      <trkpt lat="44.79883" lon="3.14054">
        <ele>1134.1</ele>
        <time>2022-08-01T08:29:13Z</time>
      </trkpt>
      <trkpt lat="44.79881" lon="3.14055">
        <ele>1133.9</ele>
        <time>2022-08-01T08:29:14Z</time>
      </trkpt>
      <trkpt lat="44.79876" lon="3.14064">
        <ele>1133.7</ele>
        <time>2022-08-01T08:29:20Z</time>
      </trkpt>
      <trkpt lat="44.79864" lon="3.14075">
        <ele>1133.3</ele>
        <time>2022-08-01T08:29:31Z</time>
      </trkpt>
      <trkpt lat="44.79859" lon="3.14076">
        <ele>1133.1</ele>
        <time>2022-08-01T08:29:36Z</time>
      </trkpt>
      <trkpt lat="44.79853" lon="3.1408">
        <ele>1133.1</ele>
        <time>2022-08-01T08:29:41Z</time>
      </trkpt>
      <trkpt lat="44.79848" lon="3.1409">
        <ele>1133.5</ele>
        <time>2022-08-01T08:29:49Z</time>
      </trkpt>
      <trkpt lat="44.79848" lon="3.141">
        <ele>1134.3</ele>
        <time>2022-08-01T08:29:56Z</time>
      </trkpt>
      <trkpt lat="44.79847" lon="3.14102">
        <ele>1134.3</ele>
        <time>2022-08-01T08:29:57Z</time>
      </trkpt>
      <trkpt lat="44.79847" lon="3.14103">
        <ele>1134.4</ele>
        <time>2022-08-01T08:29:58Z</time>
      </trkpt>
      <trkpt lat="44.79848" lon="3.14105">
        <ele>1134.6</ele>
        <time>2022-08-01T08:29:59Z</time>
      </trkpt>
      <trkpt lat="44.79849" lon="3.14113">
        <ele>1135.2</ele>
        <time>2022-08-01T08:30:05Z</time>
      </trkpt>
      <trkpt lat="44.79848" lon="3.14117">
        <ele>1135.5</ele>
        <time>2022-08-01T08:30:08Z</time>
      </trkpt>
      <trkpt lat="44.79848" lon="3.14119">
        <ele>1135.6</ele>
        <time>2022-08-01T08:30:09Z</time>
      </trkpt>
      <trkpt lat="44.79848" lon="3.14122">
        <ele>1135.8</ele>
        <time>2022-08-01T08:30:11Z</time>
      </trkpt>
      <trkpt lat="44.79847" lon="3.14135">
        <ele>1136.7</ele>
        <time>2022-08-01T08:30:20Z</time>
      </trkpt>
      <trkpt lat="44.79847" lon="3.14137">
        <ele>1136.8</ele>
        <time>2022-08-01T08:30:21Z</time>
      </trkpt>
      <trkpt lat="44.79847" lon="3.14139">
        <ele>1137</ele>
        <time>2022-08-01T08:30:23Z</time>
      </trkpt>
      <trkpt lat="44.79845" lon="3.14145">
        <ele>1137.3</ele>
        <time>2022-08-01T08:30:27Z</time>
      </trkpt>
      <trkpt lat="44.79843" lon="3.14152">
        <ele>1137.8</ele>
        <time>2022-08-01T08:30:32Z</time>
      </trkpt>
      <trkpt lat="44.79841" lon="3.14157">
        <ele>1138</ele>
        <time>2022-08-01T08:30:36Z</time>
      </trkpt>
      <trkpt lat="44.79837" lon="3.14173">
        <ele>1139.1</ele>
        <time>2022-08-01T08:30:47Z</time>
      </trkpt>
      <trkpt lat="44.79836" lon="3.14177">
        <ele>1139.4</ele>
        <time>2022-08-01T08:30:50Z</time>
      </trkpt>
      <trkpt lat="44.79834" lon="3.14191">
        <ele>1140.8</ele>
        <time>2022-08-01T08:31:00Z</time>
      </trkpt>
      <trkpt lat="44.79832" lon="3.14202">
        <ele>1141.6</ele>
        <time>2022-08-01T08:31:07Z</time>
      </trkpt>
      <trkpt lat="44.79832" lon="3.14207">
        <ele>1142</ele>
        <time>2022-08-01T08:31:10Z</time>
      </trkpt>
      <trkpt lat="44.7983" lon="3.14218">
        <ele>1142.9</ele>
        <time>2022-08-01T08:31:17Z</time>
      </trkpt>
      <trkpt lat="44.7983" lon="3.14219">
        <ele>1143</ele>
        <time>2022-08-01T08:31:18Z</time>
      </trkpt>
      <trkpt lat="44.79828" lon="3.1423">
        <ele>1143.6</ele>
        <time>2022-08-01T08:31:25Z</time>
      </trkpt>
      <trkpt lat="44.79828" lon="3.1423">
        <ele>1143.6</ele>
        <time>2022-08-01T08:31:26Z</time>
      </trkpt>
      <trkpt lat="44.79825" lon="3.14242">
        <ele>1144</ele>
        <time>2022-08-01T08:31:34Z</time>
      </trkpt>
      <trkpt lat="44.79825" lon="3.14243">
        <ele>1144</ele>
        <time>2022-08-01T08:31:35Z</time>
      </trkpt>
      <trkpt lat="44.79822" lon="3.14257">
        <ele>1144.7</ele>
        <time>2022-08-01T08:31:45Z</time>
      </trkpt>
      <trkpt lat="44.79822" lon="3.14257">
        <ele>1144.7</ele>
        <time>2022-08-01T08:31:46Z</time>
      </trkpt>
      <trkpt lat="44.79822" lon="3.14258">
        <ele>1144.8</ele>
        <time>2022-08-01T08:31:47Z</time>
      </trkpt>
      <trkpt lat="44.79822" lon="3.14258">
        <ele>1144.8</ele>
        <time>2022-08-01T08:31:51Z</time>
      </trkpt>
      <trkpt lat="44.79822" lon="3.14258">
        <ele>1144.7</ele>
        <time>2022-08-01T08:32:06Z</time>
      </trkpt>
      <trkpt lat="44.79819" lon="3.14262">
        <ele>1144.7</ele>
        <time>2022-08-01T08:32:26Z</time>
      </trkpt>
      <trkpt lat="44.79816" lon="3.14269">
        <ele>1144.9</ele>
        <time>2022-08-01T08:32:36Z</time>
      </trkpt>
      <trkpt lat="44.7981" lon="3.14285">
        <ele>1145.6</ele>
        <time>2022-08-01T08:32:45Z</time>
      </trkpt>
      <trkpt lat="44.7981" lon="3.14289">
        <ele>1145.8</ele>
        <time>2022-08-01T08:32:47Z</time>
      </trkpt>
      <trkpt lat="44.79808" lon="3.14294">
        <ele>1146</ele>
        <time>2022-08-01T08:32:51Z</time>
      </trkpt>
      <trkpt lat="44.79807" lon="3.14296">
        <ele>1146.2</ele>
        <time>2022-08-01T08:32:53Z</time>
      </trkpt>
      <trkpt lat="44.79807" lon="3.14297">
        <ele>1146.3</ele>
        <time>2022-08-01T08:32:54Z</time>
      </trkpt>
      <trkpt lat="44.79805" lon="3.14303">
        <ele>1146.6</ele>
        <time>2022-08-01T08:32:58Z</time>
      </trkpt>
      <trkpt lat="44.79801" lon="3.14316">
        <ele>1147</ele>
        <time>2022-08-01T08:33:07Z</time>
      </trkpt>
      <trkpt lat="44.79799" lon="3.14326">
        <ele>1147.3</ele>
        <time>2022-08-01T08:33:14Z</time>
      </trkpt>
      <trkpt lat="44.79798" lon="3.14329">
        <ele>1147.4</ele>
        <time>2022-08-01T08:33:16Z</time>
      </trkpt>
      <trkpt lat="44.79794" lon="3.14346">
        <ele>1147.9</ele>
        <time>2022-08-01T08:33:27Z</time>
      </trkpt>
      <trkpt lat="44.79794" lon="3.14348">
        <ele>1147.9</ele>
        <time>2022-08-01T08:33:28Z</time>
      </trkpt>
      <trkpt lat="44.79793" lon="3.14357">
        <ele>1148.5</ele>
        <time>2022-08-01T08:33:33Z</time>
      </trkpt>
      <trkpt lat="44.79792" lon="3.14364">
        <ele>1148.7</ele>
        <time>2022-08-01T08:33:37Z</time>
      </trkpt>
      <trkpt lat="44.79792" lon="3.14375">
        <ele>1149</ele>
        <time>2022-08-01T08:33:45Z</time>
      </trkpt>
      <trkpt lat="44.79792" lon="3.14378">
        <ele>1149.1</ele>
        <time>2022-08-01T08:33:47Z</time>
      </trkpt>
      <trkpt lat="44.7979" lon="3.14391">
        <ele>1149.2</ele>
        <time>2022-08-01T08:33:55Z</time>
      </trkpt>
      <trkpt lat="44.79788" lon="3.14408">
        <ele>1149.7</ele>
        <time>2022-08-01T08:34:05Z</time>
      </trkpt>
      <trkpt lat="44.79788" lon="3.14418">
        <ele>1150.2</ele>
        <time>2022-08-01T08:34:12Z</time>
      </trkpt>
      <trkpt lat="44.79787" lon="3.14424">
        <ele>1150.4</ele>
        <time>2022-08-01T08:34:16Z</time>
      </trkpt>
      <trkpt lat="44.79786" lon="3.14433">
        <ele>1150.9</ele>
        <time>2022-08-01T08:34:22Z</time>
      </trkpt>
      <trkpt lat="44.79785" lon="3.14445">
        <ele>1151.6</ele>
        <time>2022-08-01T08:34:30Z</time>
      </trkpt>
      <trkpt lat="44.79783" lon="3.14453">
        <ele>1152</ele>
        <time>2022-08-01T08:34:35Z</time>
      </trkpt>
      <trkpt lat="44.79783" lon="3.14461">
        <ele>1152.6</ele>
        <time>2022-08-01T08:34:40Z</time>
      </trkpt>
      <trkpt lat="44.79782" lon="3.14469">
        <ele>1153.1</ele>
        <time>2022-08-01T08:34:45Z</time>
      </trkpt>
      <trkpt lat="44.7978" lon="3.14474">
        <ele>1153.3</ele>
        <time>2022-08-01T08:34:49Z</time>
      </trkpt>
      <trkpt lat="44.79778" lon="3.14488">
        <ele>1153.6</ele>
        <time>2022-08-01T08:34:57Z</time>
      </trkpt>
      <trkpt lat="44.79778" lon="3.14495">
        <ele>1153.8</ele>
        <time>2022-08-01T08:35:02Z</time>
      </trkpt>
      <trkpt lat="44.79777" lon="3.14499">
        <ele>1153.9</ele>
        <time>2022-08-01T08:35:05Z</time>
      </trkpt>
      <trkpt lat="44.79777" lon="3.145">
        <ele>1154</ele>
        <time>2022-08-01T08:35:06Z</time>
      </trkpt>
      <trkpt lat="44.79777" lon="3.14513">
        <ele>1154.4</ele>
        <time>2022-08-01T08:35:14Z</time>
      </trkpt>
      <trkpt lat="44.79777" lon="3.14517">
        <ele>1154.6</ele>
        <time>2022-08-01T08:35:17Z</time>
      </trkpt>
      <trkpt lat="44.79776" lon="3.14518">
        <ele>1154.6</ele>
        <time>2022-08-01T08:35:20Z</time>
      </trkpt>
      <trkpt lat="44.79775" lon="3.14518">
        <ele>1154.5</ele>
        <time>2022-08-01T08:35:25Z</time>
      </trkpt>
      <trkpt lat="44.79775" lon="3.14518">
        <ele>1154.5</ele>
        <time>2022-08-01T08:35:27Z</time>
      </trkpt>
      <trkpt lat="44.79775" lon="3.14523">
        <ele>1154.7</ele>
        <time>2022-08-01T08:35:48Z</time>
      </trkpt>
      <trkpt lat="44.79774" lon="3.14527">
        <ele>1154.8</ele>
        <time>2022-08-01T08:35:50Z</time>
      </trkpt>
      <trkpt lat="44.79775" lon="3.14537">
        <ele>1155.9</ele>
        <time>2022-08-01T08:35:55Z</time>
      </trkpt>
      <trkpt lat="44.79774" lon="3.14545">
        <ele>1156.7</ele>
        <time>2022-08-01T08:36:00Z</time>
      </trkpt>
      <trkpt lat="44.79773" lon="3.14546">
        <ele>1156.8</ele>
        <time>2022-08-01T08:36:01Z</time>
      </trkpt>
      <trkpt lat="44.79771" lon="3.14553">
        <ele>1157.5</ele>
        <time>2022-08-01T08:36:07Z</time>
      </trkpt>
      <trkpt lat="44.79769" lon="3.14554">
        <ele>1157.5</ele>
        <time>2022-08-01T08:36:11Z</time>
      </trkpt>
      <trkpt lat="44.79768" lon="3.14557">
        <ele>1157.7</ele>
        <time>2022-08-01T08:36:13Z</time>
      </trkpt>
      <trkpt lat="44.79768" lon="3.14562">
        <ele>1158.1</ele>
        <time>2022-08-01T08:36:17Z</time>
      </trkpt>
      <trkpt lat="44.7976" lon="3.14572">
        <ele>1158.5</ele>
        <time>2022-08-01T08:36:25Z</time>
      </trkpt>
      <trkpt lat="44.79759" lon="3.14572">
        <ele>1158.5</ele>
        <time>2022-08-01T08:36:26Z</time>
      </trkpt>
      <trkpt lat="44.79756" lon="3.14573">
        <ele>1158.4</ele>
        <time>2022-08-01T08:36:31Z</time>
      </trkpt>
      <trkpt lat="44.79752" lon="3.14577">
        <ele>1158.6</ele>
        <time>2022-08-01T08:36:36Z</time>
      </trkpt>
      <trkpt lat="44.79751" lon="3.14579">
        <ele>1158.7</ele>
        <time>2022-08-01T08:36:38Z</time>
      </trkpt>
      <trkpt lat="44.79745" lon="3.14585">
        <ele>1159</ele>
        <time>2022-08-01T08:36:44Z</time>
      </trkpt>
      <trkpt lat="44.79741" lon="3.14595">
        <ele>1159.4</ele>
        <time>2022-08-01T08:36:52Z</time>
      </trkpt>
      <trkpt lat="44.7974" lon="3.14598">
        <ele>1159.5</ele>
        <time>2022-08-01T08:36:54Z</time>
      </trkpt>
      <trkpt lat="44.79736" lon="3.14608">
        <ele>1159.8</ele>
        <time>2022-08-01T08:37:01Z</time>
      </trkpt>
      <trkpt lat="44.79733" lon="3.1462">
        <ele>1160.2</ele>
        <time>2022-08-01T08:37:10Z</time>
      </trkpt>
      <trkpt lat="44.7973" lon="3.14634">
        <ele>1160.6</ele>
        <time>2022-08-01T08:37:18Z</time>
      </trkpt>
      <trkpt lat="44.79729" lon="3.14635">
        <ele>1160.6</ele>
        <time>2022-08-01T08:37:19Z</time>
      </trkpt>
      <trkpt lat="44.79728" lon="3.14645">
        <ele>1161.1</ele>
        <time>2022-08-01T08:37:25Z</time>
      </trkpt>
      <trkpt lat="44.79728" lon="3.14648">
        <ele>1161.3</ele>
        <time>2022-08-01T08:37:29Z</time>
      </trkpt>
      <trkpt lat="44.79728" lon="3.14648">
        <ele>1161.3</ele>
        <time>2022-08-01T08:37:30Z</time>
      </trkpt>
      <trkpt lat="44.79727" lon="3.14648">
        <ele>1161.3</ele>
        <time>2022-08-01T08:37:32Z</time>
      </trkpt>
      <trkpt lat="44.79725" lon="3.14649">
        <ele>1161.1</ele>
        <time>2022-08-01T08:37:41Z</time>
      </trkpt>
      <trkpt lat="44.79725" lon="3.14654">
        <ele>1161.5</ele>
        <time>2022-08-01T08:37:49Z</time>
      </trkpt>
      <trkpt lat="44.79725" lon="3.14652">
        <ele>1161.3</ele>
        <time>2022-08-01T08:37:54Z</time>
      </trkpt>
      <trkpt lat="44.79726" lon="3.1465">
        <ele>1161.3</ele>
        <time>2022-08-01T08:37:59Z</time>
      </trkpt>
      <trkpt lat="44.79726" lon="3.1465">
        <ele>1161.3</ele>
        <time>2022-08-01T08:38:03Z</time>
      </trkpt>
      <trkpt lat="44.79726" lon="3.1465">
        <ele>1161.2</ele>
        <time>2022-08-01T08:38:08Z</time>
      </trkpt>
      <trkpt lat="44.79726" lon="3.1465">
        <ele>1161.2</ele>
        <time>2022-08-01T08:38:09Z</time>
      </trkpt>
      <trkpt lat="44.79726" lon="3.1465">
        <ele>1161.2</ele>
        <time>2022-08-01T08:38:11Z</time>
      </trkpt>
      <trkpt lat="44.79726" lon="3.1465">
        <ele>1161.2</ele>
        <time>2022-08-01T08:38:14Z</time>
      </trkpt>
      <trkpt lat="44.79727" lon="3.14651">
        <ele>1161.4</ele>
        <time>2022-08-01T08:38:17Z</time>
      </trkpt>
      <trkpt lat="44.79727" lon="3.14651">
        <ele>1161.5</ele>
        <time>2022-08-01T08:38:18Z</time>
      </trkpt>
      <trkpt lat="44.79727" lon="3.14651">
        <ele>1161.5</ele>
        <time>2022-08-01T08:38:22Z</time>
      </trkpt>
      <trkpt lat="44.79727" lon="3.14651">
        <ele>1161.5</ele>
        <time>2022-08-01T08:38:26Z</time>
      </trkpt>
      <trkpt lat="44.79728" lon="3.14651">
        <ele>1161.5</ele>
        <time>2022-08-01T08:38:29Z</time>
      </trkpt>
      <trkpt lat="44.79728" lon="3.14651">
        <ele>1161.5</ele>
        <time>2022-08-01T08:38:30Z</time>
      </trkpt>
      <trkpt lat="44.79728" lon="3.14651">
        <ele>1161.5</ele>
        <time>2022-08-01T08:38:31Z</time>
      </trkpt>
      <trkpt lat="44.79728" lon="3.1465">
        <ele>1161.5</ele>
        <time>2022-08-01T08:38:32Z</time>
      </trkpt>
      <trkpt lat="44.79725" lon="3.14643">
        <ele>1160.6</ele>
        <time>2022-08-01T08:38:41Z</time>
      </trkpt>
      <trkpt lat="44.79722" lon="3.14631">
        <ele>1159.7</ele>
        <time>2022-08-01T08:38:49Z</time>
      </trkpt>
      <trkpt lat="44.79718" lon="3.14617">
        <ele>1159</ele>
        <time>2022-08-01T08:38:59Z</time>
      </trkpt>
      <trkpt lat="44.79717" lon="3.14614">
        <ele>1158.9</ele>
        <time>2022-08-01T08:39:01Z</time>
      </trkpt>
      <trkpt lat="44.79716" lon="3.14609">
        <ele>1158.7</ele>
        <time>2022-08-01T08:39:08Z</time>
      </trkpt>
      <trkpt lat="44.79717" lon="3.14609">
        <ele>1158.7</ele>
        <time>2022-08-01T08:39:14Z</time>
      </trkpt>
      <trkpt lat="44.79715" lon="3.14606">
        <ele>1158.6</ele>
        <time>2022-08-01T08:39:23Z</time>
      </trkpt>
      <trkpt lat="44.79715" lon="3.14606">
        <ele>1158.6</ele>
        <time>2022-08-01T08:39:28Z</time>
      </trkpt>
      <trkpt lat="44.79715" lon="3.14606">
        <ele>1158.6</ele>
        <time>2022-08-01T08:39:29Z</time>
      </trkpt>
      <trkpt lat="44.79715" lon="3.14606">
        <ele>1158.6</ele>
        <time>2022-08-01T08:39:31Z</time>
      </trkpt>
      <trkpt lat="44.79715" lon="3.14606">
        <ele>1158.6</ele>
        <time>2022-08-01T08:39:34Z</time>
      </trkpt>
      <trkpt lat="44.79714" lon="3.14605">
        <ele>1158.5</ele>
        <time>2022-08-01T08:39:38Z</time>
      </trkpt>
      <trkpt lat="44.79714" lon="3.14605">
        <ele>1158.5</ele>
        <time>2022-08-01T08:39:42Z</time>
      </trkpt>
      <trkpt lat="44.79714" lon="3.14605">
        <ele>1158.5</ele>
        <time>2022-08-01T08:39:45Z</time>
      </trkpt>
      <trkpt lat="44.79714" lon="3.14605">
        <ele>1158.5</ele>
        <time>2022-08-01T08:39:46Z</time>
      </trkpt>
      <trkpt lat="44.79714" lon="3.14605">
        <ele>1158.5</ele>
        <time>2022-08-01T08:39:47Z</time>
      </trkpt>
      <trkpt lat="44.79714" lon="3.14605">
        <ele>1158.5</ele>
        <time>2022-08-01T08:39:49Z</time>
      </trkpt>
      <trkpt lat="44.79714" lon="3.14605">
        <ele>1158.5</ele>
        <time>2022-08-01T08:39:50Z</time>
      </trkpt>
      <trkpt lat="44.79713" lon="3.14605">
        <ele>1158.5</ele>
        <time>2022-08-01T08:39:51Z</time>
      </trkpt>
      <trkpt lat="44.79713" lon="3.14605">
        <ele>1158.5</ele>
        <time>2022-08-01T08:39:52Z</time>
      </trkpt>
      <trkpt lat="44.79713" lon="3.14605">
        <ele>1158.5</ele>
        <time>2022-08-01T08:39:53Z</time>
      </trkpt>
      <trkpt lat="44.79713" lon="3.14605">
        <ele>1158.5</ele>
        <time>2022-08-01T08:39:54Z</time>
      </trkpt>
      <trkpt lat="44.79713" lon="3.14605">
        <ele>1158.5</ele>
        <time>2022-08-01T08:39:55Z</time>
      </trkpt>
      <trkpt lat="44.79713" lon="3.14605">
        <ele>1158.5</ele>
        <time>2022-08-01T08:39:56Z</time>
      </trkpt>
      <trkpt lat="44.79713" lon="3.14605">
        <ele>1158.5</ele>
        <time>2022-08-01T08:39:57Z</time>
      </trkpt>
      <trkpt lat="44.79713" lon="3.14605">
        <ele>1158.5</ele>
        <time>2022-08-01T08:39:58Z</time>
      </trkpt>
      <trkpt lat="44.79713" lon="3.14605">
        <ele>1158.5</ele>
        <time>2022-08-01T08:40:00Z</time>
      </trkpt>
      <trkpt lat="44.79713" lon="3.14606">
        <ele>1158.5</ele>
        <time>2022-08-01T08:40:03Z</time>
      </trkpt>
      <trkpt lat="44.79714" lon="3.14606">
        <ele>1158.5</ele>
        <time>2022-08-01T08:40:06Z</time>
      </trkpt>
      <trkpt lat="44.79714" lon="3.14606">
        <ele>1158.5</ele>
        <time>2022-08-01T08:40:07Z</time>
      </trkpt>
      <trkpt lat="44.79714" lon="3.14606">
        <ele>1158.5</ele>
        <time>2022-08-01T08:40:08Z</time>
      </trkpt>
      <trkpt lat="44.79714" lon="3.14606">
        <ele>1158.5</ele>
        <time>2022-08-01T08:40:09Z</time>
      </trkpt>
      <trkpt lat="44.79714" lon="3.14606">
        <ele>1158.5</ele>
        <time>2022-08-01T08:40:13Z</time>
      </trkpt>
      <trkpt lat="44.79715" lon="3.14608">
        <ele>1158.6</ele>
        <time>2022-08-01T08:40:20Z</time>
      </trkpt>
      <trkpt lat="44.79715" lon="3.14608">
        <ele>1158.6</ele>
        <time>2022-08-01T08:40:22Z</time>
      </trkpt>
      <trkpt lat="44.79715" lon="3.14608">
        <ele>1158.6</ele>
        <time>2022-08-01T08:40:23Z</time>
      </trkpt>
      <trkpt lat="44.79715" lon="3.14608">
        <ele>1158.6</ele>
        <time>2022-08-01T08:40:24Z</time>
      </trkpt>
      <trkpt lat="44.79715" lon="3.14608">
        <ele>1158.6</ele>
        <time>2022-08-01T08:40:25Z</time>
      </trkpt>
      <trkpt lat="44.79715" lon="3.14608">
        <ele>1158.6</ele>
        <time>2022-08-01T08:40:27Z</time>
      </trkpt>
      <trkpt lat="44.79715" lon="3.14608">
        <ele>1158.6</ele>
        <time>2022-08-01T08:40:29Z</time>
      </trkpt>
      <trkpt lat="44.79715" lon="3.14608">
        <ele>1158.6</ele>
        <time>2022-08-01T08:40:31Z</time>
      </trkpt>
      <trkpt lat="44.79715" lon="3.14609">
        <ele>1158.7</ele>
        <time>2022-08-01T08:40:33Z</time>
      </trkpt>
      <trkpt lat="44.79715" lon="3.14609">
        <ele>1158.7</ele>
        <time>2022-08-01T08:40:35Z</time>
      </trkpt>
      <trkpt lat="44.79715" lon="3.14609">
        <ele>1158.7</ele>
        <time>2022-08-01T08:40:38Z</time>
      </trkpt>
      <trkpt lat="44.79716" lon="3.14609">
        <ele>1158.7</ele>
        <time>2022-08-01T08:40:42Z</time>
      </trkpt>
      <trkpt lat="44.79717" lon="3.14609">
        <ele>1158.7</ele>
        <time>2022-08-01T08:40:47Z</time>
      </trkpt>
      <trkpt lat="44.79717" lon="3.1461">
        <ele>1158.7</ele>
        <time>2022-08-01T08:41:02Z</time>
      </trkpt>
      <trkpt lat="44.7972" lon="3.14617">
        <ele>1159.1</ele>
        <time>2022-08-01T08:41:11Z</time>
      </trkpt>
      <trkpt lat="44.79726" lon="3.14631">
        <ele>1160.1</ele>
        <time>2022-08-01T08:41:20Z</time>
      </trkpt>
      <trkpt lat="44.79727" lon="3.14633">
        <ele>1160.2</ele>
        <time>2022-08-01T08:41:21Z</time>
      </trkpt>
      <trkpt lat="44.79731" lon="3.1465">
        <ele>1161.9</ele>
        <time>2022-08-01T08:41:32Z</time>
      </trkpt>
      <trkpt lat="44.79731" lon="3.14653">
        <ele>1162.1</ele>
        <time>2022-08-01T08:41:36Z</time>
      </trkpt>
      <trkpt lat="44.79732" lon="3.14654">
        <ele>1162.3</ele>
        <time>2022-08-01T08:41:38Z</time>
      </trkpt>
      <trkpt lat="44.79731" lon="3.14653">
        <ele>1162</ele>
        <time>2022-08-01T08:41:49Z</time>
      </trkpt>
      <trkpt lat="44.79731" lon="3.14653">
        <ele>1162</ele>
        <time>2022-08-01T08:41:50Z</time>
      </trkpt>
      <trkpt lat="44.79731" lon="3.14653">
        <ele>1162</ele>
        <time>2022-08-01T08:41:53Z</time>
      </trkpt>
      <trkpt lat="44.79732" lon="3.14653">
        <ele>1162.1</ele>
        <time>2022-08-01T08:42:12Z</time>
      </trkpt>
      <trkpt lat="44.79732" lon="3.14652">
        <ele>1162.2</ele>
        <time>2022-08-01T08:42:20Z</time>
      </trkpt>
      <trkpt lat="44.79732" lon="3.14652">
        <ele>1162.1</ele>
        <time>2022-08-01T08:42:29Z</time>
      </trkpt>
      <trkpt lat="44.79731" lon="3.14652">
        <ele>1162</ele>
        <time>2022-08-01T08:43:03Z</time>
      </trkpt>
      <trkpt lat="44.79731" lon="3.14652">
        <ele>1162.1</ele>
        <time>2022-08-01T08:43:04Z</time>
      </trkpt>
      <trkpt lat="44.79731" lon="3.14652">
        <ele>1162.1</ele>
        <time>2022-08-01T08:43:06Z</time>
      </trkpt>
      <trkpt lat="44.79732" lon="3.14652">
        <ele>1162.1</ele>
        <time>2022-08-01T08:43:07Z</time>
      </trkpt>
      <trkpt lat="44.79732" lon="3.14652">
        <ele>1162.1</ele>
        <time>2022-08-01T08:43:08Z</time>
      </trkpt>
      <trkpt lat="44.79732" lon="3.14652">
        <ele>1162.2</ele>
        <time>2022-08-01T08:43:11Z</time>
      </trkpt>
      <trkpt lat="44.79732" lon="3.14653">
        <ele>1162.2</ele>
        <time>2022-08-01T08:43:15Z</time>
      </trkpt>
      <trkpt lat="44.79732" lon="3.14653">
        <ele>1162.2</ele>
        <time>2022-08-01T08:43:16Z</time>
      </trkpt>
      <trkpt lat="44.79732" lon="3.14652">
        <ele>1162.2</ele>
        <time>2022-08-01T08:43:19Z</time>
      </trkpt>
      <trkpt lat="44.79732" lon="3.14652">
        <ele>1162.1</ele>
        <time>2022-08-01T08:43:24Z</time>
      </trkpt>
      <trkpt lat="44.79732" lon="3.14652">
        <ele>1162.1</ele>
        <time>2022-08-01T08:43:27Z</time>
      </trkpt>
      <trkpt lat="44.79731" lon="3.14652">
        <ele>1162.1</ele>
        <time>2022-08-01T08:43:32Z</time>
      </trkpt>
      <trkpt lat="44.79731" lon="3.14652">
        <ele>1162.1</ele>
        <time>2022-08-01T08:43:36Z</time>
      </trkpt>
      <trkpt lat="44.79729" lon="3.14652">
        <ele>1161.8</ele>
        <time>2022-08-01T08:43:42Z</time>
      </trkpt>
      <trkpt lat="44.79729" lon="3.14652">
        <ele>1161.8</ele>
        <time>2022-08-01T08:43:43Z</time>
      </trkpt>
      <trkpt lat="44.79728" lon="3.14652">
        <ele>1161.7</ele>
        <time>2022-08-01T08:43:52Z</time>
      </trkpt>
      <trkpt lat="44.79727" lon="3.14652">
        <ele>1161.6</ele>
        <time>2022-08-01T08:43:53Z</time>
      </trkpt>
      <trkpt lat="44.79727" lon="3.14652">
        <ele>1161.6</ele>
        <time>2022-08-01T08:43:54Z</time>
      </trkpt>
      <trkpt lat="44.79727" lon="3.14653">
        <ele>1161.6</ele>
        <time>2022-08-01T08:43:56Z</time>
      </trkpt>
      <trkpt lat="44.79727" lon="3.14653">
        <ele>1161.5</ele>
        <time>2022-08-01T08:43:58Z</time>
      </trkpt>
      <trkpt lat="44.79727" lon="3.14653">
        <ele>1161.6</ele>
        <time>2022-08-01T08:44:00Z</time>
      </trkpt>
      <trkpt lat="44.79727" lon="3.14656">
        <ele>1161.8</ele>
        <time>2022-08-01T08:44:02Z</time>
      </trkpt>
      <trkpt lat="44.79726" lon="3.14662">
        <ele>1162.2</ele>
        <time>2022-08-01T08:44:05Z</time>
      </trkpt>
      <trkpt lat="44.79725" lon="3.1467">
        <ele>1162.5</ele>
        <time>2022-08-01T08:44:09Z</time>
      </trkpt>
      <trkpt lat="44.79724" lon="3.14673">
        <ele>1162.5</ele>
        <time>2022-08-01T08:44:13Z</time>
      </trkpt>
      <trkpt lat="44.79723" lon="3.14685">
        <ele>1162.7</ele>
        <time>2022-08-01T08:44:20Z</time>
      </trkpt>
      <trkpt lat="44.79723" lon="3.14687">
        <ele>1162.8</ele>
        <time>2022-08-01T08:44:21Z</time>
      </trkpt>
      <trkpt lat="44.79722" lon="3.14688">
        <ele>1162.8</ele>
        <time>2022-08-01T08:44:22Z</time>
      </trkpt>
      <trkpt lat="44.79722" lon="3.1469">
        <ele>1162.9</ele>
        <time>2022-08-01T08:44:23Z</time>
      </trkpt>
      <trkpt lat="44.79722" lon="3.14691">
        <ele>1162.9</ele>
        <time>2022-08-01T08:44:24Z</time>
      </trkpt>
      <trkpt lat="44.79722" lon="3.14693">
        <ele>1162.9</ele>
        <time>2022-08-01T08:44:25Z</time>
      </trkpt>
      <trkpt lat="44.79723" lon="3.14694">
        <ele>1163</ele>
        <time>2022-08-01T08:44:26Z</time>
      </trkpt>
      <trkpt lat="44.79722" lon="3.14696">
        <ele>1163.1</ele>
        <time>2022-08-01T08:44:27Z</time>
      </trkpt>
      <trkpt lat="44.79722" lon="3.14698">
        <ele>1163.1</ele>
        <time>2022-08-01T08:44:28Z</time>
      </trkpt>
      <trkpt lat="44.79722" lon="3.14698">
        <ele>1163.1</ele>
        <time>2022-08-01T08:44:29Z</time>
      </trkpt>
      <trkpt lat="44.79722" lon="3.147">
        <ele>1163.2</ele>
        <time>2022-08-01T08:44:30Z</time>
      </trkpt>
      <trkpt lat="44.79721" lon="3.14702">
        <ele>1163.2</ele>
        <time>2022-08-01T08:44:31Z</time>
      </trkpt>
      <trkpt lat="44.79721" lon="3.14703">
        <ele>1163.2</ele>
        <time>2022-08-01T08:44:32Z</time>
      </trkpt>
      <trkpt lat="44.79721" lon="3.14705">
        <ele>1163.2</ele>
        <time>2022-08-01T08:44:33Z</time>
      </trkpt>
      <trkpt lat="44.7972" lon="3.14708">
        <ele>1163.3</ele>
        <time>2022-08-01T08:44:35Z</time>
      </trkpt>
      <trkpt lat="44.79719" lon="3.14711">
        <ele>1163.3</ele>
        <time>2022-08-01T08:44:37Z</time>
      </trkpt>
      <trkpt lat="44.79718" lon="3.14714">
        <ele>1163.3</ele>
        <time>2022-08-01T08:44:39Z</time>
      </trkpt>
      <trkpt lat="44.79718" lon="3.14717">
        <ele>1163.4</ele>
        <time>2022-08-01T08:44:41Z</time>
      </trkpt>
      <trkpt lat="44.79718" lon="3.14719">
        <ele>1163.4</ele>
        <time>2022-08-01T08:44:42Z</time>
      </trkpt>
      <trkpt lat="44.79716" lon="3.14723">
        <ele>1163.3</ele>
        <time>2022-08-01T08:44:45Z</time>
      </trkpt>
      <trkpt lat="44.79715" lon="3.14726">
        <ele>1163.3</ele>
        <time>2022-08-01T08:44:47Z</time>
      </trkpt>
      <trkpt lat="44.79715" lon="3.14728">
        <ele>1163.4</ele>
        <time>2022-08-01T08:44:49Z</time>
      </trkpt>
      <trkpt lat="44.79715" lon="3.1473">
        <ele>1163.4</ele>
        <time>2022-08-01T08:44:50Z</time>
      </trkpt>
      <trkpt lat="44.79715" lon="3.14732">
        <ele>1163.4</ele>
        <time>2022-08-01T08:44:51Z</time>
      </trkpt>
      <trkpt lat="44.79714" lon="3.14735">
        <ele>1163.5</ele>
        <time>2022-08-01T08:44:53Z</time>
      </trkpt>
      <trkpt lat="44.79713" lon="3.14741">
        <ele>1163.5</ele>
        <time>2022-08-01T08:44:57Z</time>
      </trkpt>
      <trkpt lat="44.79713" lon="3.14743">
        <ele>1163.5</ele>
        <time>2022-08-01T08:44:58Z</time>
      </trkpt>
      <trkpt lat="44.79712" lon="3.14744">
        <ele>1163.5</ele>
        <time>2022-08-01T08:44:59Z</time>
      </trkpt>
      <trkpt lat="44.79712" lon="3.1475">
        <ele>1163.5</ele>
        <time>2022-08-01T08:45:02Z</time>
      </trkpt>
      <trkpt lat="44.79712" lon="3.14752">
        <ele>1163.5</ele>
        <time>2022-08-01T08:45:03Z</time>
      </trkpt>
      <trkpt lat="44.79711" lon="3.14755">
        <ele>1163.3</ele>
        <time>2022-08-01T08:45:05Z</time>
      </trkpt>
      <trkpt lat="44.79711" lon="3.14761">
        <ele>1163.2</ele>
        <time>2022-08-01T08:45:08Z</time>
      </trkpt>
      <trkpt lat="44.79711" lon="3.14765">
        <ele>1163.2</ele>
        <time>2022-08-01T08:45:11Z</time>
      </trkpt>
      <trkpt lat="44.7971" lon="3.14772">
        <ele>1162.9</ele>
        <time>2022-08-01T08:45:15Z</time>
      </trkpt>
      <trkpt lat="44.7971" lon="3.14775">
        <ele>1162.8</ele>
        <time>2022-08-01T08:45:17Z</time>
      </trkpt>
      <trkpt lat="44.7971" lon="3.14786">
        <ele>1162.7</ele>
        <time>2022-08-01T08:45:23Z</time>
      </trkpt>
      <trkpt lat="44.7971" lon="3.14787">
        <ele>1162.7</ele>
        <time>2022-08-01T08:45:24Z</time>
      </trkpt>
      <trkpt lat="44.79711" lon="3.14791">
        <ele>1162.8</ele>
        <time>2022-08-01T08:45:26Z</time>
      </trkpt>
      <trkpt lat="44.79711" lon="3.14793">
        <ele>1162.8</ele>
        <time>2022-08-01T08:45:27Z</time>
      </trkpt>
      <trkpt lat="44.79711" lon="3.14796">
        <ele>1162.8</ele>
        <time>2022-08-01T08:45:29Z</time>
      </trkpt>
      <trkpt lat="44.79712" lon="3.14799">
        <ele>1162.8</ele>
        <time>2022-08-01T08:45:31Z</time>
      </trkpt>
      <trkpt lat="44.79711" lon="3.14805">
        <ele>1162.6</ele>
        <time>2022-08-01T08:45:34Z</time>
      </trkpt>
      <trkpt lat="44.79711" lon="3.1481">
        <ele>1162.5</ele>
        <time>2022-08-01T08:45:38Z</time>
      </trkpt>
      <trkpt lat="44.79711" lon="3.14812">
        <ele>1162.5</ele>
        <time>2022-08-01T08:45:39Z</time>
      </trkpt>
      <trkpt lat="44.79711" lon="3.14814">
        <ele>1162.4</ele>
        <time>2022-08-01T08:45:41Z</time>
      </trkpt>
      <trkpt lat="44.79711" lon="3.14815">
        <ele>1162.4</ele>
        <time>2022-08-01T08:45:42Z</time>
      </trkpt>
      <trkpt lat="44.79711" lon="3.14818">
        <ele>1162.5</ele>
        <time>2022-08-01T08:45:43Z</time>
      </trkpt>
      <trkpt lat="44.79712" lon="3.1482">
        <ele>1162.6</ele>
        <time>2022-08-01T08:45:44Z</time>
      </trkpt>
      <trkpt lat="44.79712" lon="3.14822">
        <ele>1162.6</ele>
        <time>2022-08-01T08:45:45Z</time>
      </trkpt>
      <trkpt lat="44.79713" lon="3.14824">
        <ele>1162.7</ele>
        <time>2022-08-01T08:45:46Z</time>
      </trkpt>
      <trkpt lat="44.79714" lon="3.14825">
        <ele>1162.9</ele>
        <time>2022-08-01T08:45:47Z</time>
      </trkpt>
      <trkpt lat="44.79714" lon="3.14827">
        <ele>1163</ele>
        <time>2022-08-01T08:45:48Z</time>
      </trkpt>
      <trkpt lat="44.79714" lon="3.14829">
        <ele>1163.1</ele>
        <time>2022-08-01T08:45:50Z</time>
      </trkpt>
      <trkpt lat="44.79715" lon="3.14832">
        <ele>1163.2</ele>
        <time>2022-08-01T08:45:52Z</time>
      </trkpt>
      <trkpt lat="44.79715" lon="3.14834">
        <ele>1163.2</ele>
        <time>2022-08-01T08:45:53Z</time>
      </trkpt>
      <trkpt lat="44.79715" lon="3.14837">
        <ele>1162.9</ele>
        <time>2022-08-01T08:45:55Z</time>
      </trkpt>
      <trkpt lat="44.79715" lon="3.14838">
        <ele>1162.8</ele>
        <time>2022-08-01T08:45:56Z</time>
      </trkpt>
      <trkpt lat="44.79715" lon="3.1484">
        <ele>1162.7</ele>
        <time>2022-08-01T08:45:57Z</time>
      </trkpt>
      <trkpt lat="44.79715" lon="3.14843">
        <ele>1162.6</ele>
        <time>2022-08-01T08:45:59Z</time>
      </trkpt>
      <trkpt lat="44.79715" lon="3.14845">
        <ele>1162.5</ele>
        <time>2022-08-01T08:46:00Z</time>
      </trkpt>
      <trkpt lat="44.79714" lon="3.14846">
        <ele>1162.4</ele>
        <time>2022-08-01T08:46:01Z</time>
      </trkpt>
      <trkpt lat="44.79715" lon="3.14848">
        <ele>1162.3</ele>
        <time>2022-08-01T08:46:02Z</time>
      </trkpt>
      <trkpt lat="44.79715" lon="3.1485">
        <ele>1162.4</ele>
        <time>2022-08-01T08:46:03Z</time>
      </trkpt>
      <trkpt lat="44.79716" lon="3.14854">
        <ele>1162.4</ele>
        <time>2022-08-01T08:46:05Z</time>
      </trkpt>
      <trkpt lat="44.79716" lon="3.14855">
        <ele>1162.2</ele>
        <time>2022-08-01T08:46:06Z</time>
      </trkpt>
      <trkpt lat="44.79716" lon="3.14857">
        <ele>1162</ele>
        <time>2022-08-01T08:46:07Z</time>
      </trkpt>
      <trkpt lat="44.79715" lon="3.14859">
        <ele>1161.7</ele>
        <time>2022-08-01T08:46:08Z</time>
      </trkpt>
      <trkpt lat="44.79714" lon="3.1486">
        <ele>1161.6</ele>
        <time>2022-08-01T08:46:09Z</time>
      </trkpt>
      <trkpt lat="44.79715" lon="3.14864">
        <ele>1161.6</ele>
        <time>2022-08-01T08:46:11Z</time>
      </trkpt>
      <trkpt lat="44.79715" lon="3.14866">
        <ele>1161.6</ele>
        <time>2022-08-01T08:46:13Z</time>
      </trkpt>
      <trkpt lat="44.79715" lon="3.14867">
        <ele>1161.7</ele>
        <time>2022-08-01T08:46:14Z</time>
      </trkpt>
      <trkpt lat="44.79715" lon="3.14872">
        <ele>1161.7</ele>
        <time>2022-08-01T08:46:18Z</time>
      </trkpt>
      <trkpt lat="44.79717" lon="3.14877">
        <ele>1162</ele>
        <time>2022-08-01T08:46:21Z</time>
      </trkpt>
      <trkpt lat="44.79717" lon="3.14878">
        <ele>1162.1</ele>
        <time>2022-08-01T08:46:22Z</time>
      </trkpt>
      <trkpt lat="44.79718" lon="3.1488">
        <ele>1162.2</ele>
        <time>2022-08-01T08:46:23Z</time>
      </trkpt>
      <trkpt lat="44.79719" lon="3.14881">
        <ele>1162.3</ele>
        <time>2022-08-01T08:46:24Z</time>
      </trkpt>
      <trkpt lat="44.79719" lon="3.14883">
        <ele>1162.5</ele>
        <time>2022-08-01T08:46:25Z</time>
      </trkpt>
      <trkpt lat="44.7972" lon="3.14885">
        <ele>1162.6</ele>
        <time>2022-08-01T08:46:27Z</time>
      </trkpt>
      <trkpt lat="44.7972" lon="3.14888">
        <ele>1162.6</ele>
        <time>2022-08-01T08:46:29Z</time>
      </trkpt>
      <trkpt lat="44.79723" lon="3.14892">
        <ele>1162.8</ele>
        <time>2022-08-01T08:46:31Z</time>
      </trkpt>
      <trkpt lat="44.79724" lon="3.14894">
        <ele>1162.8</ele>
        <time>2022-08-01T08:46:33Z</time>
      </trkpt>
      <trkpt lat="44.79724" lon="3.14896">
        <ele>1162.6</ele>
        <time>2022-08-01T08:46:34Z</time>
      </trkpt>
      <trkpt lat="44.79724" lon="3.14899">
        <ele>1162.5</ele>
        <time>2022-08-01T08:46:36Z</time>
      </trkpt>
      <trkpt lat="44.79725" lon="3.149">
        <ele>1162.5</ele>
        <time>2022-08-01T08:46:37Z</time>
      </trkpt>
      <trkpt lat="44.79726" lon="3.14902">
        <ele>1162.6</ele>
        <time>2022-08-01T08:46:38Z</time>
      </trkpt>
      <trkpt lat="44.79727" lon="3.14904">
        <ele>1162.6</ele>
        <time>2022-08-01T08:46:39Z</time>
      </trkpt>
      <trkpt lat="44.79729" lon="3.14908">
        <ele>1162.6</ele>
        <time>2022-08-01T08:46:42Z</time>
      </trkpt>
      <trkpt lat="44.79729" lon="3.1491">
        <ele>1162.4</ele>
        <time>2022-08-01T08:46:43Z</time>
      </trkpt>
      <trkpt lat="44.7973" lon="3.14912">
        <ele>1162.5</ele>
        <time>2022-08-01T08:46:44Z</time>
      </trkpt>
      <trkpt lat="44.79731" lon="3.14913">
        <ele>1162.7</ele>
        <time>2022-08-01T08:46:45Z</time>
      </trkpt>
      <trkpt lat="44.79732" lon="3.14914">
        <ele>1162.8</ele>
        <time>2022-08-01T08:46:46Z</time>
      </trkpt>
      <trkpt lat="44.79733" lon="3.14915">
        <ele>1162.8</ele>
        <time>2022-08-01T08:46:47Z</time>
      </trkpt>
      <trkpt lat="44.79734" lon="3.14919">
        <ele>1162.5</ele>
        <time>2022-08-01T08:46:50Z</time>
      </trkpt>
      <trkpt lat="44.79735" lon="3.14923">
        <ele>1162.4</ele>
        <time>2022-08-01T08:46:52Z</time>
      </trkpt>
      <trkpt lat="44.79736" lon="3.14925">
        <ele>1162.3</ele>
        <time>2022-08-01T08:46:53Z</time>
      </trkpt>
      <trkpt lat="44.79737" lon="3.14926">
        <ele>1162.3</ele>
        <time>2022-08-01T08:46:54Z</time>
      </trkpt>
      <trkpt lat="44.79738" lon="3.14927">
        <ele>1162.3</ele>
        <time>2022-08-01T08:46:55Z</time>
      </trkpt>
      <trkpt lat="44.79741" lon="3.14931">
        <ele>1162.3</ele>
        <time>2022-08-01T08:46:59Z</time>
      </trkpt>
      <trkpt lat="44.79746" lon="3.14941">
        <ele>1161.3</ele>
        <time>2022-08-01T08:47:06Z</time>
      </trkpt>
      <trkpt lat="44.79748" lon="3.14942">
        <ele>1161.3</ele>
        <time>2022-08-01T08:47:07Z</time>
      </trkpt>
      <trkpt lat="44.79749" lon="3.14943">
        <ele>1161.2</ele>
        <time>2022-08-01T08:47:08Z</time>
      </trkpt>
      <trkpt lat="44.7975" lon="3.14944">
        <ele>1161.2</ele>
        <time>2022-08-01T08:47:09Z</time>
      </trkpt>
      <trkpt lat="44.79751" lon="3.14945">
        <ele>1161.2</ele>
        <time>2022-08-01T08:47:10Z</time>
      </trkpt>
      <trkpt lat="44.79753" lon="3.14947">
        <ele>1161.2</ele>
        <time>2022-08-01T08:47:11Z</time>
      </trkpt>
      <trkpt lat="44.79754" lon="3.14949">
        <ele>1161.2</ele>
        <time>2022-08-01T08:47:13Z</time>
      </trkpt>
      <trkpt lat="44.79754" lon="3.1495">
        <ele>1161.2</ele>
        <time>2022-08-01T08:47:14Z</time>
      </trkpt>
      <trkpt lat="44.79755" lon="3.14951">
        <ele>1161.2</ele>
        <time>2022-08-01T08:47:15Z</time>
      </trkpt>
      <trkpt lat="44.79755" lon="3.14952">
        <ele>1161.1</ele>
        <time>2022-08-01T08:47:16Z</time>
      </trkpt>
      <trkpt lat="44.79758" lon="3.14955">
        <ele>1161.1</ele>
        <time>2022-08-01T08:47:19Z</time>
      </trkpt>
      <trkpt lat="44.79759" lon="3.14957">
        <ele>1161</ele>
        <time>2022-08-01T08:47:21Z</time>
      </trkpt>
      <trkpt lat="44.7976" lon="3.14958">
        <ele>1161.1</ele>
        <time>2022-08-01T08:47:22Z</time>
      </trkpt>
      <trkpt lat="44.79761" lon="3.14959">
        <ele>1161</ele>
        <time>2022-08-01T08:47:23Z</time>
      </trkpt>
      <trkpt lat="44.79762" lon="3.14961">
        <ele>1160.9</ele>
        <time>2022-08-01T08:47:24Z</time>
      </trkpt>
      <trkpt lat="44.79762" lon="3.14961">
        <ele>1160.8</ele>
        <time>2022-08-01T08:47:25Z</time>
      </trkpt>
      <trkpt lat="44.79763" lon="3.14964">
        <ele>1160.6</ele>
        <time>2022-08-01T08:47:27Z</time>
      </trkpt>
      <trkpt lat="44.79765" lon="3.14966">
        <ele>1160.5</ele>
        <time>2022-08-01T08:47:28Z</time>
      </trkpt>
      <trkpt lat="44.79766" lon="3.14969">
        <ele>1160.3</ele>
        <time>2022-08-01T08:47:30Z</time>
      </trkpt>
      <trkpt lat="44.79767" lon="3.14969">
        <ele>1160.3</ele>
        <time>2022-08-01T08:47:31Z</time>
      </trkpt>
      <trkpt lat="44.79769" lon="3.14971">
        <ele>1160.2</ele>
        <time>2022-08-01T08:47:33Z</time>
      </trkpt>
      <trkpt lat="44.79771" lon="3.14974">
        <ele>1160.2</ele>
        <time>2022-08-01T08:47:35Z</time>
      </trkpt>
      <trkpt lat="44.79771" lon="3.14975">
        <ele>1160.2</ele>
        <time>2022-08-01T08:47:36Z</time>
      </trkpt>
      <trkpt lat="44.79771" lon="3.14976">
        <ele>1160.1</ele>
        <time>2022-08-01T08:47:37Z</time>
      </trkpt>
      <trkpt lat="44.79773" lon="3.1498">
        <ele>1160.1</ele>
        <time>2022-08-01T08:47:40Z</time>
      </trkpt>
      <trkpt lat="44.79773" lon="3.14981">
        <ele>1160.1</ele>
        <time>2022-08-01T08:47:41Z</time>
      </trkpt>
      <trkpt lat="44.79773" lon="3.14981">
        <ele>1160.1</ele>
        <time>2022-08-01T08:47:42Z</time>
      </trkpt>
      <trkpt lat="44.79776" lon="3.14984">
        <ele>1160.3</ele>
        <time>2022-08-01T08:47:45Z</time>
      </trkpt>
      <trkpt lat="44.7978" lon="3.14991">
        <ele>1160.7</ele>
        <time>2022-08-01T08:47:50Z</time>
      </trkpt>
      <trkpt lat="44.79781" lon="3.14992">
        <ele>1160.8</ele>
        <time>2022-08-01T08:47:52Z</time>
      </trkpt>
      <trkpt lat="44.79785" lon="3.14997">
        <ele>1161.2</ele>
        <time>2022-08-01T08:47:56Z</time>
      </trkpt>
      <trkpt lat="44.79788" lon="3.15002">
        <ele>1161.2</ele>
        <time>2022-08-01T08:47:59Z</time>
      </trkpt>
      <trkpt lat="44.79788" lon="3.15004">
        <ele>1161.2</ele>
        <time>2022-08-01T08:48:00Z</time>
      </trkpt>
      <trkpt lat="44.79792" lon="3.15013">
        <ele>1161.1</ele>
        <time>2022-08-01T08:48:06Z</time>
      </trkpt>
      <trkpt lat="44.79794" lon="3.15015">
        <ele>1161.2</ele>
        <time>2022-08-01T08:48:07Z</time>
      </trkpt>
      <trkpt lat="44.79795" lon="3.15016">
        <ele>1161.3</ele>
        <time>2022-08-01T08:48:08Z</time>
      </trkpt>
      <trkpt lat="44.79796" lon="3.15021">
        <ele>1161.1</ele>
        <time>2022-08-01T08:48:11Z</time>
      </trkpt>
      <trkpt lat="44.79798" lon="3.15026">
        <ele>1161</ele>
        <time>2022-08-01T08:48:14Z</time>
      </trkpt>
      <trkpt lat="44.79799" lon="3.15031">
        <ele>1161.1</ele>
        <time>2022-08-01T08:48:16Z</time>
      </trkpt>
      <trkpt lat="44.79799" lon="3.15032">
        <ele>1161.1</ele>
        <time>2022-08-01T08:48:17Z</time>
      </trkpt>
      <trkpt lat="44.79802" lon="3.15041">
        <ele>1161.4</ele>
        <time>2022-08-01T08:48:23Z</time>
      </trkpt>
      <trkpt lat="44.79804" lon="3.15044">
        <ele>1161.7</ele>
        <time>2022-08-01T08:48:25Z</time>
      </trkpt>
      <trkpt lat="44.79804" lon="3.15046">
        <ele>1161.8</ele>
        <time>2022-08-01T08:48:26Z</time>
      </trkpt>
      <trkpt lat="44.79806" lon="3.15055">
        <ele>1162</ele>
        <time>2022-08-01T08:48:32Z</time>
      </trkpt>
      <trkpt lat="44.79806" lon="3.15059">
        <ele>1162.1</ele>
        <time>2022-08-01T08:48:34Z</time>
      </trkpt>
      <trkpt lat="44.79806" lon="3.15061">
        <ele>1162.1</ele>
        <time>2022-08-01T08:48:35Z</time>
      </trkpt>
      <trkpt lat="44.79805" lon="3.15063">
        <ele>1162</ele>
        <time>2022-08-01T08:48:37Z</time>
      </trkpt>
      <trkpt lat="44.79804" lon="3.1507">
        <ele>1161.8</ele>
        <time>2022-08-01T08:48:41Z</time>
      </trkpt>
      <trkpt lat="44.79804" lon="3.15072">
        <ele>1161.8</ele>
        <time>2022-08-01T08:48:42Z</time>
      </trkpt>
      <trkpt lat="44.79804" lon="3.15075">
        <ele>1161.9</ele>
        <time>2022-08-01T08:48:44Z</time>
      </trkpt>
      <trkpt lat="44.79805" lon="3.1508">
        <ele>1161.9</ele>
        <time>2022-08-01T08:48:47Z</time>
      </trkpt>
      <trkpt lat="44.79805" lon="3.15082">
        <ele>1161.9</ele>
        <time>2022-08-01T08:48:48Z</time>
      </trkpt>
      <trkpt lat="44.79805" lon="3.15083">
        <ele>1161.9</ele>
        <time>2022-08-01T08:48:49Z</time>
      </trkpt>
      <trkpt lat="44.79803" lon="3.15086">
        <ele>1161.8</ele>
        <time>2022-08-01T08:48:51Z</time>
      </trkpt>
      <trkpt lat="44.79803" lon="3.15088">
        <ele>1161.9</ele>
        <time>2022-08-01T08:48:52Z</time>
      </trkpt>
      <trkpt lat="44.79804" lon="3.1509">
        <ele>1162.1</ele>
        <time>2022-08-01T08:48:54Z</time>
      </trkpt>
      <trkpt lat="44.79804" lon="3.15092">
        <ele>1162.2</ele>
        <time>2022-08-01T08:48:55Z</time>
      </trkpt>
      <trkpt lat="44.79804" lon="3.15096">
        <ele>1162.3</ele>
        <time>2022-08-01T08:48:57Z</time>
      </trkpt>
      <trkpt lat="44.79803" lon="3.15101">
        <ele>1162.3</ele>
        <time>2022-08-01T08:49:00Z</time>
      </trkpt>
      <trkpt lat="44.79802" lon="3.15103">
        <ele>1162.3</ele>
        <time>2022-08-01T08:49:01Z</time>
      </trkpt>
      <trkpt lat="44.79803" lon="3.15108">
        <ele>1162.7</ele>
        <time>2022-08-01T08:49:05Z</time>
      </trkpt>
      <trkpt lat="44.79803" lon="3.1511">
        <ele>1162.7</ele>
        <time>2022-08-01T08:49:06Z</time>
      </trkpt>
      <trkpt lat="44.79803" lon="3.15113">
        <ele>1162.7</ele>
        <time>2022-08-01T08:49:08Z</time>
      </trkpt>
      <trkpt lat="44.79802" lon="3.15119">
        <ele>1162.7</ele>
        <time>2022-08-01T08:49:11Z</time>
      </trkpt>
      <trkpt lat="44.79801" lon="3.15122">
        <ele>1162.6</ele>
        <time>2022-08-01T08:49:15Z</time>
      </trkpt>
      <trkpt lat="44.798" lon="3.15123">
        <ele>1162.6</ele>
        <time>2022-08-01T08:49:17Z</time>
      </trkpt>
      <trkpt lat="44.798" lon="3.15123">
        <ele>1162.6</ele>
        <time>2022-08-01T08:49:18Z</time>
      </trkpt>
      <trkpt lat="44.79801" lon="3.15123">
        <ele>1162.6</ele>
        <time>2022-08-01T08:49:20Z</time>
      </trkpt>
      <trkpt lat="44.79802" lon="3.15124">
        <ele>1162.7</ele>
        <time>2022-08-01T08:49:22Z</time>
      </trkpt>
      <trkpt lat="44.79801" lon="3.15123">
        <ele>1162.7</ele>
        <time>2022-08-01T08:49:23Z</time>
      </trkpt>
      <trkpt lat="44.79801" lon="3.15124">
        <ele>1162.6</ele>
        <time>2022-08-01T08:49:24Z</time>
      </trkpt>
      <trkpt lat="44.79801" lon="3.15125">
        <ele>1162.7</ele>
        <time>2022-08-01T08:49:25Z</time>
      </trkpt>
      <trkpt lat="44.79801" lon="3.15125">
        <ele>1162.7</ele>
        <time>2022-08-01T08:49:26Z</time>
      </trkpt>
      <trkpt lat="44.79801" lon="3.15125">
        <ele>1162.7</ele>
        <time>2022-08-01T08:49:27Z</time>
      </trkpt>
      <trkpt lat="44.79801" lon="3.15125">
        <ele>1162.7</ele>
        <time>2022-08-01T08:49:28Z</time>
      </trkpt>
      <trkpt lat="44.79801" lon="3.15125">
        <ele>1162.7</ele>
        <time>2022-08-01T08:49:30Z</time>
      </trkpt>
      <trkpt lat="44.79801" lon="3.15125">
        <ele>1162.7</ele>
        <time>2022-08-01T08:49:33Z</time>
      </trkpt>
      <trkpt lat="44.79801" lon="3.15125">
        <ele>1162.7</ele>
        <time>2022-08-01T08:49:35Z</time>
      </trkpt>
      <trkpt lat="44.79801" lon="3.15125">
        <ele>1162.7</ele>
        <time>2022-08-01T08:49:36Z</time>
      </trkpt>
      <trkpt lat="44.79801" lon="3.15125">
        <ele>1162.7</ele>
        <time>2022-08-01T08:49:37Z</time>
      </trkpt>
      <trkpt lat="44.79801" lon="3.15125">
        <ele>1162.6</ele>
        <time>2022-08-01T08:49:39Z</time>
      </trkpt>
      <trkpt lat="44.798" lon="3.15125">
        <ele>1162.6</ele>
        <time>2022-08-01T08:49:41Z</time>
      </trkpt>
      <trkpt lat="44.798" lon="3.15125">
        <ele>1162.6</ele>
        <time>2022-08-01T08:49:43Z</time>
      </trkpt>
      <trkpt lat="44.798" lon="3.15125">
        <ele>1162.6</ele>
        <time>2022-08-01T08:49:45Z</time>
      </trkpt>
      <trkpt lat="44.798" lon="3.15127">
        <ele>1162.6</ele>
        <time>2022-08-01T08:49:47Z</time>
      </trkpt>
      <trkpt lat="44.798" lon="3.15129">
        <ele>1162.6</ele>
        <time>2022-08-01T08:49:48Z</time>
      </trkpt>
      <trkpt lat="44.798" lon="3.1513">
        <ele>1162.6</ele>
        <time>2022-08-01T08:49:49Z</time>
      </trkpt>
      <trkpt lat="44.798" lon="3.15131">
        <ele>1162.7</ele>
        <time>2022-08-01T08:49:50Z</time>
      </trkpt>
      <trkpt lat="44.798" lon="3.15132">
        <ele>1162.7</ele>
        <time>2022-08-01T08:49:51Z</time>
      </trkpt>
      <trkpt lat="44.798" lon="3.15134">
        <ele>1162.7</ele>
        <time>2022-08-01T08:49:52Z</time>
      </trkpt>
      <trkpt lat="44.79798" lon="3.15141">
        <ele>1162.9</ele>
        <time>2022-08-01T08:49:57Z</time>
      </trkpt>
      <trkpt lat="44.79796" lon="3.15146">
        <ele>1163.2</ele>
        <time>2022-08-01T08:50:01Z</time>
      </trkpt>
      <trkpt lat="44.79794" lon="3.1515">
        <ele>1163.4</ele>
        <time>2022-08-01T08:50:03Z</time>
      </trkpt>
      <trkpt lat="44.79793" lon="3.15151">
        <ele>1163.4</ele>
        <time>2022-08-01T08:50:04Z</time>
      </trkpt>
      <trkpt lat="44.79793" lon="3.15153">
        <ele>1163.5</ele>
        <time>2022-08-01T08:50:05Z</time>
      </trkpt>
      <trkpt lat="44.79792" lon="3.15154">
        <ele>1163.6</ele>
        <time>2022-08-01T08:50:06Z</time>
      </trkpt>
      <trkpt lat="44.79791" lon="3.15154">
        <ele>1163.6</ele>
        <time>2022-08-01T08:50:07Z</time>
      </trkpt>
      <trkpt lat="44.79791" lon="3.15154">
        <ele>1163.5</ele>
        <time>2022-08-01T08:50:08Z</time>
      </trkpt>
      <trkpt lat="44.79791" lon="3.15154">
        <ele>1163.5</ele>
        <time>2022-08-01T08:50:09Z</time>
      </trkpt>
      <trkpt lat="44.79791" lon="3.15154">
        <ele>1163.6</ele>
        <time>2022-08-01T08:50:10Z</time>
      </trkpt>
      <trkpt lat="44.79792" lon="3.15154">
        <ele>1163.6</ele>
        <time>2022-08-01T08:50:11Z</time>
      </trkpt>
      <trkpt lat="44.79793" lon="3.15155">
        <ele>1163.7</ele>
        <time>2022-08-01T08:50:13Z</time>
      </trkpt>
      <trkpt lat="44.79793" lon="3.15155">
        <ele>1163.7</ele>
        <time>2022-08-01T08:50:14Z</time>
      </trkpt>
      <trkpt lat="44.79791" lon="3.15155">
        <ele>1163.6</ele>
        <time>2022-08-01T08:50:19Z</time>
      </trkpt>
      <trkpt lat="44.79791" lon="3.15156">
        <ele>1163.7</ele>
        <time>2022-08-01T08:50:20Z</time>
      </trkpt>
      <trkpt lat="44.79791" lon="3.15155">
        <ele>1163.6</ele>
        <time>2022-08-01T08:50:23Z</time>
      </trkpt>
      <trkpt lat="44.7979" lon="3.15154">
        <ele>1163.6</ele>
        <time>2022-08-01T08:50:24Z</time>
      </trkpt>
      <trkpt lat="44.79789" lon="3.15153">
        <ele>1163.4</ele>
        <time>2022-08-01T08:50:25Z</time>
      </trkpt>
      <trkpt lat="44.79789" lon="3.15153">
        <ele>1163.4</ele>
        <time>2022-08-01T08:50:27Z</time>
      </trkpt>
      <trkpt lat="44.79788" lon="3.15157">
        <ele>1163.7</ele>
        <time>2022-08-01T08:50:32Z</time>
      </trkpt>
      <trkpt lat="44.79785" lon="3.15171">
        <ele>1164.4</ele>
        <time>2022-08-01T08:50:39Z</time>
      </trkpt>
      <trkpt lat="44.79784" lon="3.15172">
        <ele>1164.5</ele>
        <time>2022-08-01T08:50:40Z</time>
      </trkpt>
      <trkpt lat="44.79783" lon="3.15178">
        <ele>1164.7</ele>
        <time>2022-08-01T08:50:44Z</time>
      </trkpt>
      <trkpt lat="44.79782" lon="3.15181">
        <ele>1164.8</ele>
        <time>2022-08-01T08:50:48Z</time>
      </trkpt>
      <trkpt lat="44.79783" lon="3.15182">
        <ele>1164.9</ele>
        <time>2022-08-01T08:50:50Z</time>
      </trkpt>
      <trkpt lat="44.79783" lon="3.15185">
        <ele>1165</ele>
        <time>2022-08-01T08:50:52Z</time>
      </trkpt>
      <trkpt lat="44.79783" lon="3.15188">
        <ele>1165.1</ele>
        <time>2022-08-01T08:50:54Z</time>
      </trkpt>
      <trkpt lat="44.79783" lon="3.15193">
        <ele>1165.3</ele>
        <time>2022-08-01T08:50:57Z</time>
      </trkpt>
      <trkpt lat="44.79782" lon="3.15196">
        <ele>1165.4</ele>
        <time>2022-08-01T08:50:59Z</time>
      </trkpt>
      <trkpt lat="44.79782" lon="3.15198">
        <ele>1165.5</ele>
        <time>2022-08-01T08:51:00Z</time>
      </trkpt>
      <trkpt lat="44.79781" lon="3.15199">
        <ele>1165.5</ele>
        <time>2022-08-01T08:51:01Z</time>
      </trkpt>
      <trkpt lat="44.79781" lon="3.152">
        <ele>1165.6</ele>
        <time>2022-08-01T08:51:02Z</time>
      </trkpt>
      <trkpt lat="44.79781" lon="3.15202">
        <ele>1165.7</ele>
        <time>2022-08-01T08:51:03Z</time>
      </trkpt>
      <trkpt lat="44.7978" lon="3.15203">
        <ele>1165.7</ele>
        <time>2022-08-01T08:51:04Z</time>
      </trkpt>
      <trkpt lat="44.7978" lon="3.15205">
        <ele>1165.9</ele>
        <time>2022-08-01T08:51:05Z</time>
      </trkpt>
      <trkpt lat="44.79779" lon="3.15206">
        <ele>1165.9</ele>
        <time>2022-08-01T08:51:06Z</time>
      </trkpt>
      <trkpt lat="44.79779" lon="3.15207">
        <ele>1166</ele>
        <time>2022-08-01T08:51:07Z</time>
      </trkpt>
      <trkpt lat="44.79778" lon="3.15209">
        <ele>1166.1</ele>
        <time>2022-08-01T08:51:08Z</time>
      </trkpt>
      <trkpt lat="44.79778" lon="3.1521">
        <ele>1166.1</ele>
        <time>2022-08-01T08:51:09Z</time>
      </trkpt>
      <trkpt lat="44.79778" lon="3.15213">
        <ele>1166.3</ele>
        <time>2022-08-01T08:51:11Z</time>
      </trkpt>
      <trkpt lat="44.79776" lon="3.15216">
        <ele>1166.4</ele>
        <time>2022-08-01T08:51:13Z</time>
      </trkpt>
      <trkpt lat="44.79775" lon="3.15217">
        <ele>1166.5</ele>
        <time>2022-08-01T08:51:14Z</time>
      </trkpt>
      <trkpt lat="44.79774" lon="3.15222">
        <ele>1166.7</ele>
        <time>2022-08-01T08:51:17Z</time>
      </trkpt>
      <trkpt lat="44.79772" lon="3.15226">
        <ele>1166.9</ele>
        <time>2022-08-01T08:51:19Z</time>
      </trkpt>
      <trkpt lat="44.79772" lon="3.15227">
        <ele>1166.9</ele>
        <time>2022-08-01T08:51:20Z</time>
      </trkpt>
      <trkpt lat="44.79771" lon="3.1523">
        <ele>1167.1</ele>
        <time>2022-08-01T08:51:22Z</time>
      </trkpt>
      <trkpt lat="44.79771" lon="3.15231">
        <ele>1167.1</ele>
        <time>2022-08-01T08:51:23Z</time>
      </trkpt>
      <trkpt lat="44.7977" lon="3.15232">
        <ele>1167.2</ele>
        <time>2022-08-01T08:51:24Z</time>
      </trkpt>
      <trkpt lat="44.7977" lon="3.15234">
        <ele>1167.3</ele>
        <time>2022-08-01T08:51:25Z</time>
      </trkpt>
      <trkpt lat="44.7977" lon="3.15235">
        <ele>1167.4</ele>
        <time>2022-08-01T08:51:26Z</time>
      </trkpt>
      <trkpt lat="44.79769" lon="3.15236">
        <ele>1167.4</ele>
        <time>2022-08-01T08:51:27Z</time>
      </trkpt>
      <trkpt lat="44.79769" lon="3.15238">
        <ele>1167.5</ele>
        <time>2022-08-01T08:51:28Z</time>
      </trkpt>
      <trkpt lat="44.79767" lon="3.15242">
        <ele>1167.7</ele>
        <time>2022-08-01T08:51:31Z</time>
      </trkpt>
      <trkpt lat="44.79767" lon="3.15243">
        <ele>1167.7</ele>
        <time>2022-08-01T08:51:32Z</time>
      </trkpt>
      <trkpt lat="44.79767" lon="3.15245">
        <ele>1167.9</ele>
        <time>2022-08-01T08:51:34Z</time>
      </trkpt>
      <trkpt lat="44.79767" lon="3.15248">
        <ele>1168</ele>
        <time>2022-08-01T08:51:36Z</time>
      </trkpt>
      <trkpt lat="44.79766" lon="3.15249">
        <ele>1168.1</ele>
        <time>2022-08-01T08:51:37Z</time>
      </trkpt>
      <trkpt lat="44.79766" lon="3.15251">
        <ele>1168.2</ele>
        <time>2022-08-01T08:51:38Z</time>
      </trkpt>
      <trkpt lat="44.79766" lon="3.15253">
        <ele>1168.3</ele>
        <time>2022-08-01T08:51:39Z</time>
      </trkpt>
      <trkpt lat="44.79765" lon="3.15254">
        <ele>1168.5</ele>
        <time>2022-08-01T08:51:40Z</time>
      </trkpt>
      <trkpt lat="44.79765" lon="3.15256">
        <ele>1168.6</ele>
        <time>2022-08-01T08:51:41Z</time>
      </trkpt>
      <trkpt lat="44.79764" lon="3.1526">
        <ele>1168.9</ele>
        <time>2022-08-01T08:51:44Z</time>
      </trkpt>
      <trkpt lat="44.79763" lon="3.15266">
        <ele>1169.4</ele>
        <time>2022-08-01T08:51:48Z</time>
      </trkpt>
      <trkpt lat="44.79763" lon="3.15269">
        <ele>1169.6</ele>
        <time>2022-08-01T08:51:50Z</time>
      </trkpt>
      <trkpt lat="44.79763" lon="3.1527">
        <ele>1169.7</ele>
        <time>2022-08-01T08:51:51Z</time>
      </trkpt>
      <trkpt lat="44.79762" lon="3.15273">
        <ele>1170</ele>
        <time>2022-08-01T08:51:53Z</time>
      </trkpt>
      <trkpt lat="44.79761" lon="3.15275">
        <ele>1170.1</ele>
        <time>2022-08-01T08:51:54Z</time>
      </trkpt>
      <trkpt lat="44.79761" lon="3.15279">
        <ele>1170.5</ele>
        <time>2022-08-01T08:51:56Z</time>
      </trkpt>
      <trkpt lat="44.79761" lon="3.15281">
        <ele>1170.6</ele>
        <time>2022-08-01T08:51:57Z</time>
      </trkpt>
      <trkpt lat="44.79761" lon="3.15284">
        <ele>1171</ele>
        <time>2022-08-01T08:51:59Z</time>
      </trkpt>
      <trkpt lat="44.79761" lon="3.15286">
        <ele>1171.1</ele>
        <time>2022-08-01T08:52:00Z</time>
      </trkpt>
      <trkpt lat="44.79759" lon="3.15291">
        <ele>1171.4</ele>
        <time>2022-08-01T08:52:03Z</time>
      </trkpt>
      <trkpt lat="44.79759" lon="3.15292">
        <ele>1171.5</ele>
        <time>2022-08-01T08:52:04Z</time>
      </trkpt>
      <trkpt lat="44.79758" lon="3.15293">
        <ele>1171.5</ele>
        <time>2022-08-01T08:52:05Z</time>
      </trkpt>
      <trkpt lat="44.79758" lon="3.15294">
        <ele>1171.6</ele>
        <time>2022-08-01T08:52:06Z</time>
      </trkpt>
      <trkpt lat="44.79755" lon="3.15297">
        <ele>1171.7</ele>
        <time>2022-08-01T08:52:09Z</time>
      </trkpt>
      <trkpt lat="44.79753" lon="3.153">
        <ele>1171.8</ele>
        <time>2022-08-01T08:52:12Z</time>
      </trkpt>
      <trkpt lat="44.79751" lon="3.15304">
        <ele>1171.9</ele>
        <time>2022-08-01T08:52:15Z</time>
      </trkpt>
      <trkpt lat="44.79753" lon="3.15309">
        <ele>1172.6</ele>
        <time>2022-08-01T08:52:18Z</time>
      </trkpt>
      <trkpt lat="44.79754" lon="3.1531">
        <ele>1172.8</ele>
        <time>2022-08-01T08:52:20Z</time>
      </trkpt>
      <trkpt lat="44.79755" lon="3.1531">
        <ele>1172.8</ele>
        <time>2022-08-01T08:52:22Z</time>
      </trkpt>
      <trkpt lat="44.79755" lon="3.15309">
        <ele>1172.8</ele>
        <time>2022-08-01T08:52:26Z</time>
      </trkpt>
      <trkpt lat="44.79761" lon="3.15314">
        <ele>1173.7</ele>
        <time>2022-08-01T08:52:32Z</time>
      </trkpt>
      <trkpt lat="44.79763" lon="3.15315">
        <ele>1173.9</ele>
        <time>2022-08-01T08:52:34Z</time>
      </trkpt>
      <trkpt lat="44.79769" lon="3.1532">
        <ele>1174.9</ele>
        <time>2022-08-01T08:52:41Z</time>
      </trkpt>
      <trkpt lat="44.7977" lon="3.15321">
        <ele>1175.1</ele>
        <time>2022-08-01T08:52:42Z</time>
      </trkpt>
      <trkpt lat="44.79771" lon="3.15322">
        <ele>1175.3</ele>
        <time>2022-08-01T08:52:43Z</time>
      </trkpt>
      <trkpt lat="44.79777" lon="3.15325">
        <ele>1176.1</ele>
        <time>2022-08-01T08:52:48Z</time>
      </trkpt>
      <trkpt lat="44.79778" lon="3.15326">
        <ele>1176.3</ele>
        <time>2022-08-01T08:52:49Z</time>
      </trkpt>
      <trkpt lat="44.79779" lon="3.15328">
        <ele>1176.6</ele>
        <time>2022-08-01T08:52:50Z</time>
      </trkpt>
      <trkpt lat="44.79781" lon="3.15331">
        <ele>1177</ele>
        <time>2022-08-01T08:52:52Z</time>
      </trkpt>
      <trkpt lat="44.79785" lon="3.15333">
        <ele>1177.8</ele>
        <time>2022-08-01T08:52:56Z</time>
      </trkpt>
      <trkpt lat="44.79786" lon="3.15334">
        <ele>1177.9</ele>
        <time>2022-08-01T08:52:57Z</time>
      </trkpt>
      <trkpt lat="44.79791" lon="3.15338">
        <ele>1178.9</ele>
        <time>2022-08-01T08:53:02Z</time>
      </trkpt>
      <trkpt lat="44.79794" lon="3.1534">
        <ele>1179.4</ele>
        <time>2022-08-01T08:53:05Z</time>
      </trkpt>
      <trkpt lat="44.79799" lon="3.15344">
        <ele>1180.2</ele>
        <time>2022-08-01T08:53:13Z</time>
      </trkpt>
      <trkpt lat="44.79805" lon="3.1535">
        <ele>1181.1</ele>
        <time>2022-08-01T08:53:19Z</time>
      </trkpt>
      <trkpt lat="44.79805" lon="3.15351">
        <ele>1181.3</ele>
        <time>2022-08-01T08:53:20Z</time>
      </trkpt>
      <trkpt lat="44.79808" lon="3.15355">
        <ele>1181.8</ele>
        <time>2022-08-01T08:53:23Z</time>
      </trkpt>
      <trkpt lat="44.79807" lon="3.15356">
        <ele>1181.8</ele>
        <time>2022-08-01T08:53:24Z</time>
      </trkpt>
      <trkpt lat="44.79808" lon="3.15358">
        <ele>1182</ele>
        <time>2022-08-01T08:53:26Z</time>
      </trkpt>
      <trkpt lat="44.7981" lon="3.15365">
        <ele>1182.9</ele>
        <time>2022-08-01T08:53:31Z</time>
      </trkpt>
      <trkpt lat="44.79811" lon="3.15367">
        <ele>1183.1</ele>
        <time>2022-08-01T08:53:33Z</time>
      </trkpt>
      <trkpt lat="44.79812" lon="3.15368">
        <ele>1183.2</ele>
        <time>2022-08-01T08:53:34Z</time>
      </trkpt>
      <trkpt lat="44.79813" lon="3.15368">
        <ele>1183.3</ele>
        <time>2022-08-01T08:53:35Z</time>
      </trkpt>
      <trkpt lat="44.79814" lon="3.1537">
        <ele>1183.7</ele>
        <time>2022-08-01T08:53:37Z</time>
      </trkpt>
      <trkpt lat="44.79814" lon="3.15373">
        <ele>1183.9</ele>
        <time>2022-08-01T08:53:38Z</time>
      </trkpt>
      <trkpt lat="44.79813" lon="3.15375">
        <ele>1184</ele>
        <time>2022-08-01T08:53:39Z</time>
      </trkpt>
      <trkpt lat="44.79814" lon="3.1538">
        <ele>1184.5</ele>
        <time>2022-08-01T08:53:43Z</time>
      </trkpt>
      <trkpt lat="44.79816" lon="3.15386">
        <ele>1185.1</ele>
        <time>2022-08-01T08:53:47Z</time>
      </trkpt>
      <trkpt lat="44.79818" lon="3.15394">
        <ele>1185.6</ele>
        <time>2022-08-01T08:53:53Z</time>
      </trkpt>
      <trkpt lat="44.79819" lon="3.15397">
        <ele>1185.8</ele>
        <time>2022-08-01T08:53:55Z</time>
      </trkpt>
      <trkpt lat="44.79821" lon="3.15407">
        <ele>1186.2</ele>
        <time>2022-08-01T08:54:02Z</time>
      </trkpt>
      <trkpt lat="44.79822" lon="3.15411">
        <ele>1186.4</ele>
        <time>2022-08-01T08:54:06Z</time>
      </trkpt>
      <trkpt lat="44.79823" lon="3.15417">
        <ele>1186.6</ele>
        <time>2022-08-01T08:54:10Z</time>
      </trkpt>
      <trkpt lat="44.79825" lon="3.15423">
        <ele>1186.9</ele>
        <time>2022-08-01T08:54:17Z</time>
      </trkpt>
      <trkpt lat="44.79824" lon="3.15422">
        <ele>1186.8</ele>
        <time>2022-08-01T08:54:20Z</time>
      </trkpt>
      <trkpt lat="44.79824" lon="3.15422">
        <ele>1186.8</ele>
        <time>2022-08-01T08:54:21Z</time>
      </trkpt>
      <trkpt lat="44.79823" lon="3.15424">
        <ele>1186.9</ele>
        <time>2022-08-01T08:54:22Z</time>
      </trkpt>
      <trkpt lat="44.79823" lon="3.15424">
        <ele>1186.9</ele>
        <time>2022-08-01T08:54:23Z</time>
      </trkpt>
      <trkpt lat="44.79823" lon="3.15425">
        <ele>1186.9</ele>
        <time>2022-08-01T08:54:25Z</time>
      </trkpt>
      <trkpt lat="44.79823" lon="3.15425">
        <ele>1186.9</ele>
        <time>2022-08-01T08:54:28Z</time>
      </trkpt>
      <trkpt lat="44.79823" lon="3.15425">
        <ele>1186.9</ele>
        <time>2022-08-01T08:54:31Z</time>
      </trkpt>
      <trkpt lat="44.79823" lon="3.15425">
        <ele>1186.9</ele>
        <time>2022-08-01T08:54:33Z</time>
      </trkpt>
      <trkpt lat="44.79823" lon="3.15425">
        <ele>1186.9</ele>
        <time>2022-08-01T08:54:34Z</time>
      </trkpt>
      <trkpt lat="44.79823" lon="3.15425">
        <ele>1186.9</ele>
        <time>2022-08-01T08:54:35Z</time>
      </trkpt>
      <trkpt lat="44.79823" lon="3.15425">
        <ele>1186.9</ele>
        <time>2022-08-01T08:54:36Z</time>
      </trkpt>
      <trkpt lat="44.79823" lon="3.15425">
        <ele>1186.9</ele>
        <time>2022-08-01T08:54:37Z</time>
      </trkpt>
      <trkpt lat="44.79823" lon="3.15425">
        <ele>1186.9</ele>
        <time>2022-08-01T08:54:38Z</time>
      </trkpt>
      <trkpt lat="44.79823" lon="3.15425">
        <ele>1186.9</ele>
        <time>2022-08-01T08:54:39Z</time>
      </trkpt>
      <trkpt lat="44.79823" lon="3.15426">
        <ele>1187</ele>
        <time>2022-08-01T08:54:42Z</time>
      </trkpt>
      <trkpt lat="44.79822" lon="3.15427">
        <ele>1187</ele>
        <time>2022-08-01T08:54:54Z</time>
      </trkpt>
      <trkpt lat="44.79821" lon="3.15427">
        <ele>1186.9</ele>
        <time>2022-08-01T08:54:58Z</time>
      </trkpt>
      <trkpt lat="44.79821" lon="3.15427">
        <ele>1186.9</ele>
        <time>2022-08-01T08:55:00Z</time>
      </trkpt>
      <trkpt lat="44.79821" lon="3.15427">
        <ele>1186.9</ele>
        <time>2022-08-01T08:55:01Z</time>
      </trkpt>
      <trkpt lat="44.79821" lon="3.15427">
        <ele>1186.9</ele>
        <time>2022-08-01T08:55:03Z</time>
      </trkpt>
      <trkpt lat="44.79821" lon="3.15427">
        <ele>1186.9</ele>
        <time>2022-08-01T08:55:08Z</time>
      </trkpt>
      <trkpt lat="44.79821" lon="3.15427">
        <ele>1186.9</ele>
        <time>2022-08-01T08:55:10Z</time>
      </trkpt>
      <trkpt lat="44.79821" lon="3.15427">
        <ele>1186.9</ele>
        <time>2022-08-01T08:55:11Z</time>
      </trkpt>
      <trkpt lat="44.7982" lon="3.15427">
        <ele>1186.9</ele>
        <time>2022-08-01T08:55:13Z</time>
      </trkpt>
      <trkpt lat="44.7982" lon="3.15427">
        <ele>1186.9</ele>
        <time>2022-08-01T08:55:16Z</time>
      </trkpt>
      <trkpt lat="44.7982" lon="3.15427">
        <ele>1186.9</ele>
        <time>2022-08-01T08:55:21Z</time>
      </trkpt>
      <trkpt lat="44.7982" lon="3.15427">
        <ele>1186.9</ele>
        <time>2022-08-01T08:55:22Z</time>
      </trkpt>
      <trkpt lat="44.7982" lon="3.15427">
        <ele>1186.9</ele>
        <time>2022-08-01T08:55:23Z</time>
      </trkpt>
      <trkpt lat="44.7982" lon="3.15427">
        <ele>1186.9</ele>
        <time>2022-08-01T08:55:26Z</time>
      </trkpt>
      <trkpt lat="44.7982" lon="3.15427">
        <ele>1186.9</ele>
        <time>2022-08-01T08:55:28Z</time>
      </trkpt>
      <trkpt lat="44.7982" lon="3.15428">
        <ele>1186.9</ele>
        <time>2022-08-01T08:55:31Z</time>
      </trkpt>
      <trkpt lat="44.79821" lon="3.1543">
        <ele>1187</ele>
        <time>2022-08-01T08:55:35Z</time>
      </trkpt>
      <trkpt lat="44.79821" lon="3.15431">
        <ele>1187.1</ele>
        <time>2022-08-01T08:55:40Z</time>
      </trkpt>
      <trkpt lat="44.79821" lon="3.15431">
        <ele>1187.1</ele>
        <time>2022-08-01T08:55:42Z</time>
      </trkpt>
      <trkpt lat="44.79821" lon="3.15431">
        <ele>1187.1</ele>
        <time>2022-08-01T08:55:43Z</time>
      </trkpt>
      <trkpt lat="44.79821" lon="3.15431">
        <ele>1187.1</ele>
        <time>2022-08-01T08:55:45Z</time>
      </trkpt>
      <trkpt lat="44.79821" lon="3.15431">
        <ele>1187.1</ele>
        <time>2022-08-01T08:55:47Z</time>
      </trkpt>
      <trkpt lat="44.79821" lon="3.15432">
        <ele>1187.1</ele>
        <time>2022-08-01T08:55:49Z</time>
      </trkpt>
      <trkpt lat="44.79821" lon="3.15432">
        <ele>1187.1</ele>
        <time>2022-08-01T08:55:51Z</time>
      </trkpt>
      <trkpt lat="44.79821" lon="3.15432">
        <ele>1187.1</ele>
        <time>2022-08-01T08:55:53Z</time>
      </trkpt>
      <trkpt lat="44.79821" lon="3.15432">
        <ele>1187.1</ele>
        <time>2022-08-01T08:55:55Z</time>
      </trkpt>
      <trkpt lat="44.79821" lon="3.15432">
        <ele>1187.1</ele>
        <time>2022-08-01T08:55:57Z</time>
      </trkpt>
      <trkpt lat="44.79821" lon="3.15432">
        <ele>1187.1</ele>
        <time>2022-08-01T08:55:59Z</time>
      </trkpt>
      <trkpt lat="44.79821" lon="3.15432">
        <ele>1187.1</ele>
        <time>2022-08-01T08:56:01Z</time>
      </trkpt>
      <trkpt lat="44.79821" lon="3.15432">
        <ele>1187.1</ele>
        <time>2022-08-01T08:56:04Z</time>
      </trkpt>
      <trkpt lat="44.79821" lon="3.15432">
        <ele>1187.1</ele>
        <time>2022-08-01T08:56:06Z</time>
      </trkpt>
      <trkpt lat="44.79821" lon="3.15432">
        <ele>1187.1</ele>
        <time>2022-08-01T08:56:07Z</time>
      </trkpt>
      <trkpt lat="44.79821" lon="3.15432">
        <ele>1187.1</ele>
        <time>2022-08-01T08:56:08Z</time>
      </trkpt>
      <trkpt lat="44.79821" lon="3.15431">
        <ele>1187.1</ele>
        <time>2022-08-01T08:56:19Z</time>
      </trkpt>
      <trkpt lat="44.79823" lon="3.15432">
        <ele>1187.2</ele>
        <time>2022-08-01T08:56:20Z</time>
      </trkpt>
      <trkpt lat="44.79827" lon="3.15434">
        <ele>1187.4</ele>
        <time>2022-08-01T08:56:23Z</time>
      </trkpt>
      <trkpt lat="44.79828" lon="3.15435">
        <ele>1187.5</ele>
        <time>2022-08-01T08:56:24Z</time>
      </trkpt>
      <trkpt lat="44.79831" lon="3.15437">
        <ele>1187.7</ele>
        <time>2022-08-01T08:56:26Z</time>
      </trkpt>
      <trkpt lat="44.79834" lon="3.15441">
        <ele>1187.9</ele>
        <time>2022-08-01T08:56:29Z</time>
      </trkpt>
      <trkpt lat="44.79835" lon="3.15442">
        <ele>1188</ele>
        <time>2022-08-01T08:56:30Z</time>
      </trkpt>
      <trkpt lat="44.79838" lon="3.15443">
        <ele>1188.3</ele>
        <time>2022-08-01T08:56:32Z</time>
      </trkpt>
      <trkpt lat="44.79841" lon="3.15445">
        <ele>1188.6</ele>
        <time>2022-08-01T08:56:34Z</time>
      </trkpt>
      <trkpt lat="44.79841" lon="3.15446">
        <ele>1188.6</ele>
        <time>2022-08-01T08:56:35Z</time>
      </trkpt>
      <trkpt lat="44.79842" lon="3.15447">
        <ele>1188.7</ele>
        <time>2022-08-01T08:56:36Z</time>
      </trkpt>
      <trkpt lat="44.79843" lon="3.15448">
        <ele>1188.8</ele>
        <time>2022-08-01T08:56:37Z</time>
      </trkpt>
      <trkpt lat="44.79844" lon="3.15449">
        <ele>1188.9</ele>
        <time>2022-08-01T08:56:38Z</time>
      </trkpt>
      <trkpt lat="44.79845" lon="3.1545">
        <ele>1189</ele>
        <time>2022-08-01T08:56:39Z</time>
      </trkpt>
      <trkpt lat="44.79847" lon="3.15452">
        <ele>1189.2</ele>
        <time>2022-08-01T08:56:41Z</time>
      </trkpt>
      <trkpt lat="44.79849" lon="3.15455">
        <ele>1189.5</ele>
        <time>2022-08-01T08:56:44Z</time>
      </trkpt>
      <trkpt lat="44.7985" lon="3.15457">
        <ele>1189.6</ele>
        <time>2022-08-01T08:56:45Z</time>
      </trkpt>
      <trkpt lat="44.7985" lon="3.15458">
        <ele>1189.7</ele>
        <time>2022-08-01T08:56:46Z</time>
      </trkpt>
      <trkpt lat="44.79851" lon="3.15459">
        <ele>1189.8</ele>
        <time>2022-08-01T08:56:48Z</time>
      </trkpt>
      <trkpt lat="44.79851" lon="3.1546">
        <ele>1189.9</ele>
        <time>2022-08-01T08:56:49Z</time>
      </trkpt>
      <trkpt lat="44.79852" lon="3.15461">
        <ele>1189.9</ele>
        <time>2022-08-01T08:56:50Z</time>
      </trkpt>
      <trkpt lat="44.79854" lon="3.15463">
        <ele>1190.2</ele>
        <time>2022-08-01T08:56:52Z</time>
      </trkpt>
      <trkpt lat="44.79856" lon="3.15466">
        <ele>1190.4</ele>
        <time>2022-08-01T08:56:54Z</time>
      </trkpt>
      <trkpt lat="44.79857" lon="3.15468">
        <ele>1190.5</ele>
        <time>2022-08-01T08:56:55Z</time>
      </trkpt>
      <trkpt lat="44.79857" lon="3.15469">
        <ele>1190.6</ele>
        <time>2022-08-01T08:56:56Z</time>
      </trkpt>
      <trkpt lat="44.79859" lon="3.15472">
        <ele>1190.8</ele>
        <time>2022-08-01T08:56:58Z</time>
      </trkpt>
      <trkpt lat="44.79862" lon="3.15475">
        <ele>1191</ele>
        <time>2022-08-01T08:57:01Z</time>
      </trkpt>
      <trkpt lat="44.79863" lon="3.15476">
        <ele>1191.2</ele>
        <time>2022-08-01T08:57:03Z</time>
      </trkpt>
      <trkpt lat="44.79865" lon="3.15479">
        <ele>1191.3</ele>
        <time>2022-08-01T08:57:06Z</time>
      </trkpt>
      <trkpt lat="44.79868" lon="3.15481">
        <ele>1191.5</ele>
        <time>2022-08-01T08:57:09Z</time>
      </trkpt>
      <trkpt lat="44.79869" lon="3.15482">
        <ele>1191.6</ele>
        <time>2022-08-01T08:57:10Z</time>
      </trkpt>
      <trkpt lat="44.79872" lon="3.15485">
        <ele>1191.8</ele>
        <time>2022-08-01T08:57:15Z</time>
      </trkpt>
      <trkpt lat="44.79875" lon="3.15488">
        <ele>1192</ele>
        <time>2022-08-01T08:57:19Z</time>
      </trkpt>
      <trkpt lat="44.79876" lon="3.15489">
        <ele>1192</ele>
        <time>2022-08-01T08:57:20Z</time>
      </trkpt>
      <trkpt lat="44.79879" lon="3.15492">
        <ele>1192.3</ele>
        <time>2022-08-01T08:57:23Z</time>
      </trkpt>
      <trkpt lat="44.79882" lon="3.15497">
        <ele>1192.5</ele>
        <time>2022-08-01T08:57:27Z</time>
      </trkpt>
      <trkpt lat="44.7988" lon="3.15497">
        <ele>1192.3</ele>
        <time>2022-08-01T08:57:30Z</time>
      </trkpt>
      <trkpt lat="44.79881" lon="3.15497">
        <ele>1192.4</ele>
        <time>2022-08-01T08:57:32Z</time>
      </trkpt>
      <trkpt lat="44.79881" lon="3.15497">
        <ele>1192.4</ele>
        <time>2022-08-01T08:57:33Z</time>
      </trkpt>
      <trkpt lat="44.79882" lon="3.15498">
        <ele>1192.5</ele>
        <time>2022-08-01T08:57:34Z</time>
      </trkpt>
      <trkpt lat="44.79884" lon="3.15499">
        <ele>1192.6</ele>
        <time>2022-08-01T08:57:36Z</time>
      </trkpt>
      <trkpt lat="44.79885" lon="3.155">
        <ele>1192.7</ele>
        <time>2022-08-01T08:57:37Z</time>
      </trkpt>
      <trkpt lat="44.79889" lon="3.15505">
        <ele>1193</ele>
        <time>2022-08-01T08:57:41Z</time>
      </trkpt>
      <trkpt lat="44.79891" lon="3.15507">
        <ele>1193</ele>
        <time>2022-08-01T08:57:43Z</time>
      </trkpt>
      <trkpt lat="44.79892" lon="3.15508">
        <ele>1193.1</ele>
        <time>2022-08-01T08:57:44Z</time>
      </trkpt>
      <trkpt lat="44.79893" lon="3.1551">
        <ele>1193.1</ele>
        <time>2022-08-01T08:57:45Z</time>
      </trkpt>
      <trkpt lat="44.79894" lon="3.15511">
        <ele>1193.1</ele>
        <time>2022-08-01T08:57:46Z</time>
      </trkpt>
      <trkpt lat="44.79894" lon="3.15511">
        <ele>1193.1</ele>
        <time>2022-08-01T08:57:47Z</time>
      </trkpt>
      <trkpt lat="44.79894" lon="3.15513">
        <ele>1193.1</ele>
        <time>2022-08-01T08:57:49Z</time>
      </trkpt>
      <trkpt lat="44.79894" lon="3.15514">
        <ele>1193.1</ele>
        <time>2022-08-01T08:57:50Z</time>
      </trkpt>
      <trkpt lat="44.79895" lon="3.15515">
        <ele>1193.1</ele>
        <time>2022-08-01T08:57:51Z</time>
      </trkpt>
      <trkpt lat="44.79895" lon="3.15516">
        <ele>1193.1</ele>
        <time>2022-08-01T08:57:52Z</time>
      </trkpt>
      <trkpt lat="44.79896" lon="3.15517">
        <ele>1193.1</ele>
        <time>2022-08-01T08:57:53Z</time>
      </trkpt>
      <trkpt lat="44.79896" lon="3.15517">
        <ele>1193.1</ele>
        <time>2022-08-01T08:57:54Z</time>
      </trkpt>
      <trkpt lat="44.79898" lon="3.15518">
        <ele>1193.1</ele>
        <time>2022-08-01T08:57:55Z</time>
      </trkpt>
      <trkpt lat="44.799" lon="3.1552">
        <ele>1193.1</ele>
        <time>2022-08-01T08:57:57Z</time>
      </trkpt>
      <trkpt lat="44.79907" lon="3.15525">
        <ele>1193.1</ele>
        <time>2022-08-01T08:58:02Z</time>
      </trkpt>
      <trkpt lat="44.79907" lon="3.15525">
        <ele>1193.1</ele>
        <time>2022-08-01T08:58:03Z</time>
      </trkpt>
      <trkpt lat="44.79911" lon="3.15527">
        <ele>1193</ele>
        <time>2022-08-01T08:58:06Z</time>
      </trkpt>
      <trkpt lat="44.79912" lon="3.15528">
        <ele>1193</ele>
        <time>2022-08-01T08:58:07Z</time>
      </trkpt>
      <trkpt lat="44.79912" lon="3.1553">
        <ele>1193</ele>
        <time>2022-08-01T08:58:10Z</time>
      </trkpt>
      <trkpt lat="44.79914" lon="3.15532">
        <ele>1193</ele>
        <time>2022-08-01T08:58:12Z</time>
      </trkpt>
      <trkpt lat="44.79917" lon="3.15534">
        <ele>1193</ele>
        <time>2022-08-01T08:58:14Z</time>
      </trkpt>
      <trkpt lat="44.79919" lon="3.15535">
        <ele>1193.1</ele>
        <time>2022-08-01T08:58:15Z</time>
      </trkpt>
      <trkpt lat="44.79922" lon="3.1554">
        <ele>1193.1</ele>
        <time>2022-08-01T08:58:20Z</time>
      </trkpt>
      <trkpt lat="44.79923" lon="3.15541">
        <ele>1193.1</ele>
        <time>2022-08-01T08:58:21Z</time>
      </trkpt>
      <trkpt lat="44.79925" lon="3.15542">
        <ele>1193.1</ele>
        <time>2022-08-01T08:58:22Z</time>
      </trkpt>
      <trkpt lat="44.79926" lon="3.15543">
        <ele>1193.2</ele>
        <time>2022-08-01T08:58:23Z</time>
      </trkpt>
      <trkpt lat="44.7993" lon="3.15545">
        <ele>1193.2</ele>
        <time>2022-08-01T08:58:26Z</time>
      </trkpt>
      <trkpt lat="44.79931" lon="3.15546">
        <ele>1193.2</ele>
        <time>2022-08-01T08:58:27Z</time>
      </trkpt>
      <trkpt lat="44.79932" lon="3.15549">
        <ele>1193.1</ele>
        <time>2022-08-01T08:58:30Z</time>
      </trkpt>
      <trkpt lat="44.79933" lon="3.15549">
        <ele>1193.1</ele>
        <time>2022-08-01T08:58:31Z</time>
      </trkpt>
      <trkpt lat="44.79934" lon="3.1555">
        <ele>1193.1</ele>
        <time>2022-08-01T08:58:32Z</time>
      </trkpt>
      <trkpt lat="44.79934" lon="3.15551">
        <ele>1193.1</ele>
        <time>2022-08-01T08:58:34Z</time>
      </trkpt>
      <trkpt lat="44.79933" lon="3.1555">
        <ele>1193.1</ele>
        <time>2022-08-01T08:58:36Z</time>
      </trkpt>
      <trkpt lat="44.79935" lon="3.15551">
        <ele>1193.1</ele>
        <time>2022-08-01T08:58:38Z</time>
      </trkpt>
      <trkpt lat="44.79936" lon="3.15552">
        <ele>1193.1</ele>
        <time>2022-08-01T08:58:39Z</time>
      </trkpt>
      <trkpt lat="44.79939" lon="3.15556">
        <ele>1193</ele>
        <time>2022-08-01T08:58:43Z</time>
      </trkpt>
      <trkpt lat="44.7994" lon="3.15557">
        <ele>1193</ele>
        <time>2022-08-01T08:58:44Z</time>
      </trkpt>
      <trkpt lat="44.79941" lon="3.15558">
        <ele>1192.9</ele>
        <time>2022-08-01T08:58:45Z</time>
      </trkpt>
      <trkpt lat="44.79944" lon="3.15561">
        <ele>1192.8</ele>
        <time>2022-08-01T08:58:49Z</time>
      </trkpt>
      <trkpt lat="44.79949" lon="3.15565">
        <ele>1192.7</ele>
        <time>2022-08-01T08:58:53Z</time>
      </trkpt>
      <trkpt lat="44.7995" lon="3.15566">
        <ele>1192.7</ele>
        <time>2022-08-01T08:58:54Z</time>
      </trkpt>
      <trkpt lat="44.79952" lon="3.15567">
        <ele>1192.7</ele>
        <time>2022-08-01T08:58:58Z</time>
      </trkpt>
      <trkpt lat="44.79953" lon="3.15569">
        <ele>1192.7</ele>
        <time>2022-08-01T08:59:00Z</time>
      </trkpt>
      <trkpt lat="44.79957" lon="3.15574">
        <ele>1192.5</ele>
        <time>2022-08-01T08:59:04Z</time>
      </trkpt>
      <trkpt lat="44.79959" lon="3.15575">
        <ele>1192.4</ele>
        <time>2022-08-01T08:59:05Z</time>
      </trkpt>
      <trkpt lat="44.79959" lon="3.15577">
        <ele>1192.4</ele>
        <time>2022-08-01T08:59:06Z</time>
      </trkpt>
      <trkpt lat="44.79968" lon="3.15581">
        <ele>1192.2</ele>
        <time>2022-08-01T08:59:14Z</time>
      </trkpt>
      <trkpt lat="44.7998" lon="3.15584">
        <ele>1191.7</ele>
        <time>2022-08-01T08:59:22Z</time>
      </trkpt>
      <trkpt lat="44.79982" lon="3.15584">
        <ele>1191.5</ele>
        <time>2022-08-01T08:59:25Z</time>
      </trkpt>
      <trkpt lat="44.79983" lon="3.15585">
        <ele>1191.5</ele>
        <time>2022-08-01T08:59:26Z</time>
      </trkpt>
      <trkpt lat="44.79992" lon="3.15585">
        <ele>1191.1</ele>
        <time>2022-08-01T08:59:33Z</time>
      </trkpt>
      <trkpt lat="44.79994" lon="3.15586">
        <ele>1190.9</ele>
        <time>2022-08-01T08:59:34Z</time>
      </trkpt>
      <trkpt lat="44.79995" lon="3.15586">
        <ele>1190.8</ele>
        <time>2022-08-01T08:59:35Z</time>
      </trkpt>
      <trkpt lat="44.80005" lon="3.15589">
        <ele>1189.7</ele>
        <time>2022-08-01T08:59:45Z</time>
      </trkpt>
      <trkpt lat="44.80016" lon="3.15589">
        <ele>1188.4</ele>
        <time>2022-08-01T08:59:54Z</time>
      </trkpt>
      <trkpt lat="44.80022" lon="3.15592">
        <ele>1187.3</ele>
        <time>2022-08-01T09:00:01Z</time>
      </trkpt>
      <trkpt lat="44.80032" lon="3.15595">
        <ele>1186</ele>
        <time>2022-08-01T09:00:07Z</time>
      </trkpt>
      <trkpt lat="44.80037" lon="3.15596">
        <ele>1185.6</ele>
        <time>2022-08-01T09:00:11Z</time>
      </trkpt>
      <trkpt lat="44.80041" lon="3.15598">
        <ele>1185</ele>
        <time>2022-08-01T09:00:15Z</time>
      </trkpt>
      <trkpt lat="44.80046" lon="3.15599">
        <ele>1184.5</ele>
        <time>2022-08-01T09:00:19Z</time>
      </trkpt>
      <trkpt lat="44.80047" lon="3.15599">
        <ele>1184.4</ele>
        <time>2022-08-01T09:00:20Z</time>
      </trkpt>
      <trkpt lat="44.80055" lon="3.15599">
        <ele>1183.7</ele>
        <time>2022-08-01T09:00:27Z</time>
      </trkpt>
      <trkpt lat="44.80058" lon="3.156">
        <ele>1183.4</ele>
        <time>2022-08-01T09:00:29Z</time>
      </trkpt>
      <trkpt lat="44.80061" lon="3.15601">
        <ele>1183.1</ele>
        <time>2022-08-01T09:00:31Z</time>
      </trkpt>
      <trkpt lat="44.80067" lon="3.15603">
        <ele>1182.6</ele>
        <time>2022-08-01T09:00:36Z</time>
      </trkpt>
      <trkpt lat="44.80069" lon="3.15605">
        <ele>1182.2</ele>
        <time>2022-08-01T09:00:39Z</time>
      </trkpt>
      <trkpt lat="44.80074" lon="3.15609">
        <ele>1181.4</ele>
        <time>2022-08-01T09:00:43Z</time>
      </trkpt>
      <trkpt lat="44.80076" lon="3.1561">
        <ele>1181.2</ele>
        <time>2022-08-01T09:00:45Z</time>
      </trkpt>
      <trkpt lat="44.80079" lon="3.15613">
        <ele>1180.8</ele>
        <time>2022-08-01T09:00:47Z</time>
      </trkpt>
      <trkpt lat="44.80081" lon="3.15615">
        <ele>1180.5</ele>
        <time>2022-08-01T09:00:50Z</time>
      </trkpt>
      <trkpt lat="44.80086" lon="3.15621">
        <ele>1179.8</ele>
        <time>2022-08-01T09:00:54Z</time>
      </trkpt>
      <trkpt lat="44.80089" lon="3.15622">
        <ele>1179.6</ele>
        <time>2022-08-01T09:00:56Z</time>
      </trkpt>
      <trkpt lat="44.80093" lon="3.15628">
        <ele>1178.8</ele>
        <time>2022-08-01T09:01:01Z</time>
      </trkpt>
      <trkpt lat="44.80095" lon="3.1563">
        <ele>1178.5</ele>
        <time>2022-08-01T09:01:03Z</time>
      </trkpt>
      <trkpt lat="44.80098" lon="3.15632">
        <ele>1178.3</ele>
        <time>2022-08-01T09:01:05Z</time>
      </trkpt>
      <trkpt lat="44.80103" lon="3.15637">
        <ele>1177.5</ele>
        <time>2022-08-01T09:01:10Z</time>
      </trkpt>
      <trkpt lat="44.80104" lon="3.15638">
        <ele>1177.4</ele>
        <time>2022-08-01T09:01:11Z</time>
      </trkpt>
      <trkpt lat="44.80114" lon="3.15646">
        <ele>1176.4</ele>
        <time>2022-08-01T09:01:20Z</time>
      </trkpt>
      <trkpt lat="44.8012" lon="3.1565">
        <ele>1175.9</ele>
        <time>2022-08-01T09:01:25Z</time>
      </trkpt>
      <trkpt lat="44.80128" lon="3.15655">
        <ele>1175.3</ele>
        <time>2022-08-01T09:01:31Z</time>
      </trkpt>
      <trkpt lat="44.80137" lon="3.15664">
        <ele>1174.3</ele>
        <time>2022-08-01T09:01:39Z</time>
      </trkpt>
      <trkpt lat="44.80138" lon="3.15665">
        <ele>1174.2</ele>
        <time>2022-08-01T09:01:40Z</time>
      </trkpt>
      <trkpt lat="44.80141" lon="3.15668">
        <ele>1173.9</ele>
        <time>2022-08-01T09:01:43Z</time>
      </trkpt>
      <trkpt lat="44.80149" lon="3.15676">
        <ele>1173.5</ele>
        <time>2022-08-01T09:01:51Z</time>
      </trkpt>
      <trkpt lat="44.8015" lon="3.15678">
        <ele>1173.4</ele>
        <time>2022-08-01T09:01:53Z</time>
      </trkpt>
      <trkpt lat="44.80152" lon="3.15681">
        <ele>1173.2</ele>
        <time>2022-08-01T09:01:56Z</time>
      </trkpt>
      <trkpt lat="44.80156" lon="3.15685">
        <ele>1172.9</ele>
        <time>2022-08-01T09:02:00Z</time>
      </trkpt>
      <trkpt lat="44.80166" lon="3.15693">
        <ele>1172.2</ele>
        <time>2022-08-01T09:02:08Z</time>
      </trkpt>
      <trkpt lat="44.80169" lon="3.15696">
        <ele>1171.8</ele>
        <time>2022-08-01T09:02:11Z</time>
      </trkpt>
      <trkpt lat="44.80173" lon="3.15698">
        <ele>1171.5</ele>
        <time>2022-08-01T09:02:14Z</time>
      </trkpt>
      <trkpt lat="44.80179" lon="3.15701">
        <ele>1171.1</ele>
        <time>2022-08-01T09:02:19Z</time>
      </trkpt>
      <trkpt lat="44.80182" lon="3.15703">
        <ele>1170.8</ele>
        <time>2022-08-01T09:02:22Z</time>
      </trkpt>
      <trkpt lat="44.80186" lon="3.15706">
        <ele>1170.5</ele>
        <time>2022-08-01T09:02:25Z</time>
      </trkpt>
      <trkpt lat="44.80188" lon="3.15707">
        <ele>1170.3</ele>
        <time>2022-08-01T09:02:27Z</time>
      </trkpt>
      <trkpt lat="44.80189" lon="3.15708">
        <ele>1170.2</ele>
        <time>2022-08-01T09:02:28Z</time>
      </trkpt>
      <trkpt lat="44.80192" lon="3.1571">
        <ele>1170</ele>
        <time>2022-08-01T09:02:31Z</time>
      </trkpt>
      <trkpt lat="44.802" lon="3.15715">
        <ele>1169.4</ele>
        <time>2022-08-01T09:02:38Z</time>
      </trkpt>
      <trkpt lat="44.80212" lon="3.15727">
        <ele>1168.6</ele>
        <time>2022-08-01T09:02:50Z</time>
      </trkpt>
      <trkpt lat="44.80214" lon="3.15729">
        <ele>1168.4</ele>
        <time>2022-08-01T09:02:52Z</time>
      </trkpt>
      <trkpt lat="44.80222" lon="3.15737">
        <ele>1167.9</ele>
        <time>2022-08-01T09:03:00Z</time>
      </trkpt>
      <trkpt lat="44.8023" lon="3.15748">
        <ele>1167.2</ele>
        <time>2022-08-01T09:03:10Z</time>
      </trkpt>
      <trkpt lat="44.80229" lon="3.15747">
        <ele>1167.2</ele>
        <time>2022-08-01T09:03:11Z</time>
      </trkpt>
      <trkpt lat="44.80229" lon="3.15747">
        <ele>1167.2</ele>
        <time>2022-08-01T09:03:12Z</time>
      </trkpt>
      <trkpt lat="44.80232" lon="3.15751">
        <ele>1167</ele>
        <time>2022-08-01T09:03:17Z</time>
      </trkpt>
      <trkpt lat="44.80232" lon="3.15752">
        <ele>1166.9</ele>
        <time>2022-08-01T09:03:22Z</time>
      </trkpt>
      <trkpt lat="44.80237" lon="3.15756">
        <ele>1166.8</ele>
        <time>2022-08-01T09:03:29Z</time>
      </trkpt>
      <trkpt lat="44.80239" lon="3.15759">
        <ele>1166.7</ele>
        <time>2022-08-01T09:03:32Z</time>
      </trkpt>
      <trkpt lat="44.80242" lon="3.15766">
        <ele>1166.7</ele>
        <time>2022-08-01T09:03:37Z</time>
      </trkpt>
      <trkpt lat="44.80244" lon="3.15768">
        <ele>1166.7</ele>
        <time>2022-08-01T09:03:39Z</time>
      </trkpt>
      <trkpt lat="44.80246" lon="3.15773">
        <ele>1166.8</ele>
        <time>2022-08-01T09:03:42Z</time>
      </trkpt>
      <trkpt lat="44.80247" lon="3.15774">
        <ele>1166.8</ele>
        <time>2022-08-01T09:03:43Z</time>
      </trkpt>
      <trkpt lat="44.80247" lon="3.15776">
        <ele>1166.8</ele>
        <time>2022-08-01T09:03:44Z</time>
      </trkpt>
      <trkpt lat="44.80249" lon="3.15778">
        <ele>1166.9</ele>
        <time>2022-08-01T09:03:46Z</time>
      </trkpt>
      <trkpt lat="44.8025" lon="3.1578">
        <ele>1167</ele>
        <time>2022-08-01T09:03:47Z</time>
      </trkpt>
      <trkpt lat="44.80252" lon="3.15782">
        <ele>1167</ele>
        <time>2022-08-01T09:03:49Z</time>
      </trkpt>
      <trkpt lat="44.80254" lon="3.15784">
        <ele>1167</ele>
        <time>2022-08-01T09:03:51Z</time>
      </trkpt>
      <trkpt lat="44.80256" lon="3.15787">
        <ele>1167</ele>
        <time>2022-08-01T09:03:53Z</time>
      </trkpt>
      <trkpt lat="44.80257" lon="3.15788">
        <ele>1167</ele>
        <time>2022-08-01T09:03:54Z</time>
      </trkpt>
      <trkpt lat="44.80258" lon="3.1579">
        <ele>1167</ele>
        <time>2022-08-01T09:03:55Z</time>
      </trkpt>
      <trkpt lat="44.80259" lon="3.15791">
        <ele>1167</ele>
        <time>2022-08-01T09:03:56Z</time>
      </trkpt>
      <trkpt lat="44.80261" lon="3.15794">
        <ele>1167</ele>
        <time>2022-08-01T09:03:58Z</time>
      </trkpt>
      <trkpt lat="44.80268" lon="3.15803">
        <ele>1167</ele>
        <time>2022-08-01T09:04:06Z</time>
      </trkpt>
      <trkpt lat="44.80269" lon="3.15805">
        <ele>1167</ele>
        <time>2022-08-01T09:04:08Z</time>
      </trkpt>
      <trkpt lat="44.80274" lon="3.15812">
        <ele>1167.2</ele>
        <time>2022-08-01T09:04:13Z</time>
      </trkpt>
      <trkpt lat="44.80275" lon="3.15814">
        <ele>1167.3</ele>
        <time>2022-08-01T09:04:15Z</time>
      </trkpt>
      <trkpt lat="44.80276" lon="3.15815">
        <ele>1167.4</ele>
        <time>2022-08-01T09:04:16Z</time>
      </trkpt>
      <trkpt lat="44.80277" lon="3.15817">
        <ele>1167.4</ele>
        <time>2022-08-01T09:04:17Z</time>
      </trkpt>
      <trkpt lat="44.8028" lon="3.15822">
        <ele>1167.5</ele>
        <time>2022-08-01T09:04:21Z</time>
      </trkpt>
      <trkpt lat="44.80282" lon="3.15827">
        <ele>1167.5</ele>
        <time>2022-08-01T09:04:25Z</time>
      </trkpt>
      <trkpt lat="44.80286" lon="3.15831">
        <ele>1167.4</ele>
        <time>2022-08-01T09:04:29Z</time>
      </trkpt>
      <trkpt lat="44.80287" lon="3.15832">
        <ele>1167.3</ele>
        <time>2022-08-01T09:04:30Z</time>
      </trkpt>
      <trkpt lat="44.80289" lon="3.15834">
        <ele>1167.2</ele>
        <time>2022-08-01T09:04:32Z</time>
      </trkpt>
      <trkpt lat="44.80291" lon="3.15836">
        <ele>1167.3</ele>
        <time>2022-08-01T09:04:34Z</time>
      </trkpt>
      <trkpt lat="44.80294" lon="3.15841">
        <ele>1167.1</ele>
        <time>2022-08-01T09:04:38Z</time>
      </trkpt>
      <trkpt lat="44.80298" lon="3.15845">
        <ele>1166.9</ele>
        <time>2022-08-01T09:04:41Z</time>
      </trkpt>
      <trkpt lat="44.80305" lon="3.15853">
        <ele>1166.1</ele>
        <time>2022-08-01T09:04:48Z</time>
      </trkpt>
      <trkpt lat="44.80308" lon="3.15857">
        <ele>1166</ele>
        <time>2022-08-01T09:04:50Z</time>
      </trkpt>
      <trkpt lat="44.8031" lon="3.15858">
        <ele>1166</ele>
        <time>2022-08-01T09:04:51Z</time>
      </trkpt>
      <trkpt lat="44.8031" lon="3.15861">
        <ele>1166</ele>
        <time>2022-08-01T09:04:53Z</time>
      </trkpt>
      <trkpt lat="44.8031" lon="3.15864">
        <ele>1165.9</ele>
        <time>2022-08-01T09:04:55Z</time>
      </trkpt>
      <trkpt lat="44.80312" lon="3.15866">
        <ele>1165.8</ele>
        <time>2022-08-01T09:04:57Z</time>
      </trkpt>
      <trkpt lat="44.80317" lon="3.15874">
        <ele>1165.5</ele>
        <time>2022-08-01T09:05:02Z</time>
      </trkpt>
      <trkpt lat="44.80319" lon="3.1588">
        <ele>1165.3</ele>
        <time>2022-08-01T09:05:05Z</time>
      </trkpt>
      <trkpt lat="44.80324" lon="3.15884">
        <ele>1165.2</ele>
        <time>2022-08-01T09:05:09Z</time>
      </trkpt>
      <trkpt lat="44.80326" lon="3.15886">
        <ele>1165.1</ele>
        <time>2022-08-01T09:05:11Z</time>
      </trkpt>
      <trkpt lat="44.80328" lon="3.1589">
        <ele>1164.9</ele>
        <time>2022-08-01T09:05:14Z</time>
      </trkpt>
      <trkpt lat="44.80333" lon="3.15896">
        <ele>1164.3</ele>
        <time>2022-08-01T09:05:19Z</time>
      </trkpt>
      <trkpt lat="44.80334" lon="3.15897">
        <ele>1164.2</ele>
        <time>2022-08-01T09:05:20Z</time>
      </trkpt>
      <trkpt lat="44.80339" lon="3.15901">
        <ele>1164</ele>
        <time>2022-08-01T09:05:24Z</time>
      </trkpt>
      <trkpt lat="44.80339" lon="3.15902">
        <ele>1163.9</ele>
        <time>2022-08-01T09:05:25Z</time>
      </trkpt>
      <trkpt lat="44.8034" lon="3.15903">
        <ele>1163.9</ele>
        <time>2022-08-01T09:05:26Z</time>
      </trkpt>
      <trkpt lat="44.80342" lon="3.15903">
        <ele>1163.9</ele>
        <time>2022-08-01T09:05:28Z</time>
      </trkpt>
      <trkpt lat="44.80345" lon="3.15903">
        <ele>1164.1</ele>
        <time>2022-08-01T09:05:30Z</time>
      </trkpt>
      <trkpt lat="44.80346" lon="3.15904">
        <ele>1164</ele>
        <time>2022-08-01T09:05:32Z</time>
      </trkpt>
      <trkpt lat="44.80347" lon="3.15905">
        <ele>1164</ele>
        <time>2022-08-01T09:05:34Z</time>
      </trkpt>
      <trkpt lat="44.80348" lon="3.15904">
        <ele>1164.1</ele>
        <time>2022-08-01T09:05:35Z</time>
      </trkpt>
      <trkpt lat="44.80352" lon="3.15906">
        <ele>1163.9</ele>
        <time>2022-08-01T09:05:37Z</time>
      </trkpt>
      <trkpt lat="44.80353" lon="3.15908">
        <ele>1163.7</ele>
        <time>2022-08-01T09:05:38Z</time>
      </trkpt>
      <trkpt lat="44.80354" lon="3.15909">
        <ele>1163.5</ele>
        <time>2022-08-01T09:05:40Z</time>
      </trkpt>
      <trkpt lat="44.80356" lon="3.1591">
        <ele>1163.2</ele>
        <time>2022-08-01T09:05:42Z</time>
      </trkpt>
      <trkpt lat="44.80358" lon="3.15912">
        <ele>1163</ele>
        <time>2022-08-01T09:05:44Z</time>
      </trkpt>
      <trkpt lat="44.80362" lon="3.15913">
        <ele>1162.7</ele>
        <time>2022-08-01T09:05:47Z</time>
      </trkpt>
      <trkpt lat="44.80367" lon="3.15915">
        <ele>1162</ele>
        <time>2022-08-01T09:05:52Z</time>
      </trkpt>
      <trkpt lat="44.80372" lon="3.15918">
        <ele>1161.4</ele>
        <time>2022-08-01T09:05:58Z</time>
      </trkpt>
      <trkpt lat="44.80373" lon="3.15919">
        <ele>1161.4</ele>
        <time>2022-08-01T09:05:59Z</time>
      </trkpt>
      <trkpt lat="44.80379" lon="3.15922">
        <ele>1160.9</ele>
        <time>2022-08-01T09:06:04Z</time>
      </trkpt>
      <trkpt lat="44.80381" lon="3.15924">
        <ele>1160.8</ele>
        <time>2022-08-01T09:06:06Z</time>
      </trkpt>
      <trkpt lat="44.80387" lon="3.15927">
        <ele>1160.6</ele>
        <time>2022-08-01T09:06:10Z</time>
      </trkpt>
      <trkpt lat="44.80395" lon="3.15929">
        <ele>1160.5</ele>
        <time>2022-08-01T09:06:14Z</time>
      </trkpt>
      <trkpt lat="44.80405" lon="3.15931">
        <ele>1160.2</ele>
        <time>2022-08-01T09:06:19Z</time>
      </trkpt>
      <trkpt lat="44.80408" lon="3.15931">
        <ele>1160.1</ele>
        <time>2022-08-01T09:06:21Z</time>
      </trkpt>
      <trkpt lat="44.80415" lon="3.15931">
        <ele>1160</ele>
        <time>2022-08-01T09:06:24Z</time>
      </trkpt>
      <trkpt lat="44.80417" lon="3.1593">
        <ele>1160</ele>
        <time>2022-08-01T09:06:26Z</time>
      </trkpt>
      <trkpt lat="44.8042" lon="3.1593">
        <ele>1159.9</ele>
        <time>2022-08-01T09:06:28Z</time>
      </trkpt>
      <trkpt lat="44.80423" lon="3.15932">
        <ele>1159.3</ele>
        <time>2022-08-01T09:06:31Z</time>
      </trkpt>
      <trkpt lat="44.80423" lon="3.15932">
        <ele>1159.3</ele>
        <time>2022-08-01T09:06:32Z</time>
      </trkpt>
      <trkpt lat="44.80423" lon="3.15931">
        <ele>1159.4</ele>
        <time>2022-08-01T09:06:33Z</time>
      </trkpt>
      <trkpt lat="44.80425" lon="3.1593">
        <ele>1159.4</ele>
        <time>2022-08-01T09:06:34Z</time>
      </trkpt>
      <trkpt lat="44.80428" lon="3.15927">
        <ele>1159.4</ele>
        <time>2022-08-01T09:06:37Z</time>
      </trkpt>
      <trkpt lat="44.80431" lon="3.15927">
        <ele>1159.3</ele>
        <time>2022-08-01T09:06:38Z</time>
      </trkpt>
      <trkpt lat="44.80445" lon="3.15923">
        <ele>1158.3</ele>
        <time>2022-08-01T09:06:48Z</time>
      </trkpt>
      <trkpt lat="44.80454" lon="3.15922">
        <ele>1157.1</ele>
        <time>2022-08-01T09:06:55Z</time>
      </trkpt>
      <trkpt lat="44.80456" lon="3.15921">
        <ele>1156.9</ele>
        <time>2022-08-01T09:06:57Z</time>
      </trkpt>
      <trkpt lat="44.80467" lon="3.15921">
        <ele>1155.4</ele>
        <time>2022-08-01T09:07:05Z</time>
      </trkpt>
      <trkpt lat="44.80477" lon="3.1592">
        <ele>1154.1</ele>
        <time>2022-08-01T09:07:12Z</time>
      </trkpt>
      <trkpt lat="44.80479" lon="3.1592">
        <ele>1153.9</ele>
        <time>2022-08-01T09:07:13Z</time>
      </trkpt>
      <trkpt lat="44.80481" lon="3.15919">
        <ele>1153.6</ele>
        <time>2022-08-01T09:07:15Z</time>
      </trkpt>
      <trkpt lat="44.80492" lon="3.15923">
        <ele>1151.8</ele>
        <time>2022-08-01T09:07:23Z</time>
      </trkpt>
      <trkpt lat="44.80502" lon="3.15931">
        <ele>1149.8</ele>
        <time>2022-08-01T09:07:32Z</time>
      </trkpt>
      <trkpt lat="44.80508" lon="3.1594">
        <ele>1148.7</ele>
        <time>2022-08-01T09:07:39Z</time>
      </trkpt>
      <trkpt lat="44.8051" lon="3.15945">
        <ele>1148.2</ele>
        <time>2022-08-01T09:07:42Z</time>
      </trkpt>
      <trkpt lat="44.80511" lon="3.15947">
        <ele>1148</ele>
        <time>2022-08-01T09:07:44Z</time>
      </trkpt>
      <trkpt lat="44.80512" lon="3.1595">
        <ele>1147.7</ele>
        <time>2022-08-01T09:07:46Z</time>
      </trkpt>
      <trkpt lat="44.80514" lon="3.15954">
        <ele>1147.3</ele>
        <time>2022-08-01T09:07:49Z</time>
      </trkpt>
      <trkpt lat="44.80515" lon="3.15955">
        <ele>1147.2</ele>
        <time>2022-08-01T09:07:50Z</time>
      </trkpt>
      <trkpt lat="44.80515" lon="3.15956">
        <ele>1147</ele>
        <time>2022-08-01T09:07:52Z</time>
      </trkpt>
      <trkpt lat="44.80517" lon="3.15961">
        <ele>1146.6</ele>
        <time>2022-08-01T09:07:55Z</time>
      </trkpt>
      <trkpt lat="44.80522" lon="3.15972">
        <ele>1145.4</ele>
        <time>2022-08-01T09:08:01Z</time>
      </trkpt>
      <trkpt lat="44.80523" lon="3.15975">
        <ele>1145</ele>
        <time>2022-08-01T09:08:03Z</time>
      </trkpt>
      <trkpt lat="44.80524" lon="3.15978">
        <ele>1144.7</ele>
        <time>2022-08-01T09:08:05Z</time>
      </trkpt>
      <trkpt lat="44.80526" lon="3.15993">
        <ele>1142.9</ele>
        <time>2022-08-01T09:08:12Z</time>
      </trkpt>
      <trkpt lat="44.80526" lon="3.15995">
        <ele>1142.7</ele>
        <time>2022-08-01T09:08:13Z</time>
      </trkpt>
      <trkpt lat="44.80526" lon="3.15999">
        <ele>1142.3</ele>
        <time>2022-08-01T09:08:15Z</time>
      </trkpt>
      <trkpt lat="44.80525" lon="3.16">
        <ele>1142.1</ele>
        <time>2022-08-01T09:08:16Z</time>
      </trkpt>
      <trkpt lat="44.80525" lon="3.16009">
        <ele>1141.1</ele>
        <time>2022-08-01T09:08:20Z</time>
      </trkpt>
      <trkpt lat="44.80526" lon="3.16011">
        <ele>1141</ele>
        <time>2022-08-01T09:08:21Z</time>
      </trkpt>
      <trkpt lat="44.80526" lon="3.16015">
        <ele>1140.5</ele>
        <time>2022-08-01T09:08:24Z</time>
      </trkpt>
      <trkpt lat="44.80527" lon="3.16019">
        <ele>1140</ele>
        <time>2022-08-01T09:08:27Z</time>
      </trkpt>
      <trkpt lat="44.80528" lon="3.16023">
        <ele>1139.5</ele>
        <time>2022-08-01T09:08:30Z</time>
      </trkpt>
      <trkpt lat="44.80528" lon="3.16025">
        <ele>1139.3</ele>
        <time>2022-08-01T09:08:31Z</time>
      </trkpt>
      <trkpt lat="44.80529" lon="3.16033">
        <ele>1138.9</ele>
        <time>2022-08-01T09:08:35Z</time>
      </trkpt>
      <trkpt lat="44.80531" lon="3.16039">
        <ele>1138.9</ele>
        <time>2022-08-01T09:08:38Z</time>
      </trkpt>
      <trkpt lat="44.80531" lon="3.16042">
        <ele>1138.9</ele>
        <time>2022-08-01T09:08:40Z</time>
      </trkpt>
      <trkpt lat="44.80533" lon="3.16045">
        <ele>1138.8</ele>
        <time>2022-08-01T09:08:42Z</time>
      </trkpt>
      <trkpt lat="44.80541" lon="3.16054">
        <ele>1138.5</ele>
        <time>2022-08-01T09:08:50Z</time>
      </trkpt>
      <trkpt lat="44.80543" lon="3.16056">
        <ele>1138.4</ele>
        <time>2022-08-01T09:08:52Z</time>
      </trkpt>
      <trkpt lat="44.80553" lon="3.16061">
        <ele>1138.1</ele>
        <time>2022-08-01T09:09:00Z</time>
      </trkpt>
      <trkpt lat="44.80554" lon="3.16061">
        <ele>1138</ele>
        <time>2022-08-01T09:09:01Z</time>
      </trkpt>
      <trkpt lat="44.80557" lon="3.16062">
        <ele>1138</ele>
        <time>2022-08-01T09:09:03Z</time>
      </trkpt>
      <trkpt lat="44.80561" lon="3.16064">
        <ele>1138</ele>
        <time>2022-08-01T09:09:06Z</time>
      </trkpt>
      <trkpt lat="44.80562" lon="3.16065">
        <ele>1138</ele>
        <time>2022-08-01T09:09:07Z</time>
      </trkpt>
      <trkpt lat="44.80563" lon="3.16067">
        <ele>1138</ele>
        <time>2022-08-01T09:09:09Z</time>
      </trkpt>
      <trkpt lat="44.80564" lon="3.16068">
        <ele>1138</ele>
        <time>2022-08-01T09:09:10Z</time>
      </trkpt>
      <trkpt lat="44.80565" lon="3.16069">
        <ele>1138</ele>
        <time>2022-08-01T09:09:11Z</time>
      </trkpt>
      <trkpt lat="44.80566" lon="3.16071">
        <ele>1138</ele>
        <time>2022-08-01T09:09:13Z</time>
      </trkpt>
      <trkpt lat="44.80571" lon="3.16078">
        <ele>1138</ele>
        <time>2022-08-01T09:09:18Z</time>
      </trkpt>
      <trkpt lat="44.80575" lon="3.16087">
        <ele>1138.1</ele>
        <time>2022-08-01T09:09:24Z</time>
      </trkpt>
      <trkpt lat="44.80578" lon="3.16096">
        <ele>1138.5</ele>
        <time>2022-08-01T09:09:30Z</time>
      </trkpt>
      <trkpt lat="44.80579" lon="3.16099">
        <ele>1138.6</ele>
        <time>2022-08-01T09:09:32Z</time>
      </trkpt>
      <trkpt lat="44.80579" lon="3.161">
        <ele>1138.6</ele>
        <time>2022-08-01T09:09:33Z</time>
      </trkpt>
      <trkpt lat="44.80581" lon="3.16103">
        <ele>1138.7</ele>
        <time>2022-08-01T09:09:35Z</time>
      </trkpt>
      <trkpt lat="44.80582" lon="3.16106">
        <ele>1138.8</ele>
        <time>2022-08-01T09:09:37Z</time>
      </trkpt>
      <trkpt lat="44.80582" lon="3.16108">
        <ele>1138.9</ele>
        <time>2022-08-01T09:09:38Z</time>
      </trkpt>
      <trkpt lat="44.80582" lon="3.16109">
        <ele>1138.9</ele>
        <time>2022-08-01T09:09:39Z</time>
      </trkpt>
      <trkpt lat="44.80583" lon="3.16112">
        <ele>1139</ele>
        <time>2022-08-01T09:09:41Z</time>
      </trkpt>
      <trkpt lat="44.80585" lon="3.16117">
        <ele>1139.2</ele>
        <time>2022-08-01T09:09:44Z</time>
      </trkpt>
      <trkpt lat="44.80586" lon="3.1612">
        <ele>1139.3</ele>
        <time>2022-08-01T09:09:46Z</time>
      </trkpt>
      <trkpt lat="44.80587" lon="3.16121">
        <ele>1139.4</ele>
        <time>2022-08-01T09:09:47Z</time>
      </trkpt>
      <trkpt lat="44.80588" lon="3.16123">
        <ele>1139.4</ele>
        <time>2022-08-01T09:09:48Z</time>
      </trkpt>
      <trkpt lat="44.80589" lon="3.16126">
        <ele>1139.5</ele>
        <time>2022-08-01T09:09:50Z</time>
      </trkpt>
      <trkpt lat="44.8059" lon="3.16129">
        <ele>1139.6</ele>
        <time>2022-08-01T09:09:52Z</time>
      </trkpt>
      <trkpt lat="44.80595" lon="3.16138">
        <ele>1140</ele>
        <time>2022-08-01T09:09:58Z</time>
      </trkpt>
      <trkpt lat="44.80595" lon="3.16139">
        <ele>1140</ele>
        <time>2022-08-01T09:09:59Z</time>
      </trkpt>
      <trkpt lat="44.80598" lon="3.16146">
        <ele>1140.3</ele>
        <time>2022-08-01T09:10:04Z</time>
      </trkpt>
      <trkpt lat="44.80599" lon="3.16149">
        <ele>1140.4</ele>
        <time>2022-08-01T09:10:06Z</time>
      </trkpt>
      <trkpt lat="44.806" lon="3.16152">
        <ele>1140.5</ele>
        <time>2022-08-01T09:10:08Z</time>
      </trkpt>
      <trkpt lat="44.80603" lon="3.1616">
        <ele>1140.8</ele>
        <time>2022-08-01T09:10:13Z</time>
      </trkpt>
      <trkpt lat="44.80604" lon="3.16161">
        <ele>1140.8</ele>
        <time>2022-08-01T09:10:14Z</time>
      </trkpt>
      <trkpt lat="44.80605" lon="3.16164">
        <ele>1140.9</ele>
        <time>2022-08-01T09:10:16Z</time>
      </trkpt>
      <trkpt lat="44.80609" lon="3.16172">
        <ele>1141.2</ele>
        <time>2022-08-01T09:10:21Z</time>
      </trkpt>
      <trkpt lat="44.80612" lon="3.16181">
        <ele>1141.5</ele>
        <time>2022-08-01T09:10:28Z</time>
      </trkpt>
      <trkpt lat="44.80615" lon="3.16185">
        <ele>1141.8</ele>
        <time>2022-08-01T09:10:31Z</time>
      </trkpt>
      <trkpt lat="44.80617" lon="3.1619">
        <ele>1142</ele>
        <time>2022-08-01T09:10:34Z</time>
      </trkpt>
      <trkpt lat="44.80618" lon="3.16192">
        <ele>1142.1</ele>
        <time>2022-08-01T09:10:36Z</time>
      </trkpt>
      <trkpt lat="44.8062" lon="3.16196">
        <ele>1142.4</ele>
        <time>2022-08-01T09:10:38Z</time>
      </trkpt>
      <trkpt lat="44.80623" lon="3.16202">
        <ele>1142.8</ele>
        <time>2022-08-01T09:10:43Z</time>
      </trkpt>
      <trkpt lat="44.80625" lon="3.16207">
        <ele>1143.2</ele>
        <time>2022-08-01T09:10:47Z</time>
      </trkpt>
      <trkpt lat="44.80627" lon="3.16213">
        <ele>1143.5</ele>
        <time>2022-08-01T09:10:51Z</time>
      </trkpt>
      <trkpt lat="44.8063" lon="3.16223">
        <ele>1144</ele>
        <time>2022-08-01T09:10:58Z</time>
      </trkpt>
      <trkpt lat="44.80633" lon="3.16228">
        <ele>1144.4</ele>
        <time>2022-08-01T09:11:02Z</time>
      </trkpt>
      <trkpt lat="44.80634" lon="3.1623">
        <ele>1144.6</ele>
        <time>2022-08-01T09:11:04Z</time>
      </trkpt>
      <trkpt lat="44.80636" lon="3.16234">
        <ele>1144.8</ele>
        <time>2022-08-01T09:11:06Z</time>
      </trkpt>
      <trkpt lat="44.80635" lon="3.16235">
        <ele>1144.9</ele>
        <time>2022-08-01T09:11:07Z</time>
      </trkpt>
      <trkpt lat="44.80636" lon="3.16239">
        <ele>1145.2</ele>
        <time>2022-08-01T09:11:10Z</time>
      </trkpt>
      <trkpt lat="44.80637" lon="3.16242">
        <ele>1145.4</ele>
        <time>2022-08-01T09:11:12Z</time>
      </trkpt>
      <trkpt lat="44.80642" lon="3.16253">
        <ele>1146.2</ele>
        <time>2022-08-01T09:11:19Z</time>
      </trkpt>
      <trkpt lat="44.80643" lon="3.16257">
        <ele>1146.4</ele>
        <time>2022-08-01T09:11:22Z</time>
      </trkpt>
      <trkpt lat="44.80643" lon="3.16258">
        <ele>1146.4</ele>
        <time>2022-08-01T09:11:23Z</time>
      </trkpt>
      <trkpt lat="44.80644" lon="3.16259">
        <ele>1146.4</ele>
        <time>2022-08-01T09:11:24Z</time>
      </trkpt>
      <trkpt lat="44.80644" lon="3.16261">
        <ele>1146.5</ele>
        <time>2022-08-01T09:11:25Z</time>
      </trkpt>
      <trkpt lat="44.80645" lon="3.16262">
        <ele>1146.6</ele>
        <time>2022-08-01T09:11:26Z</time>
      </trkpt>
      <trkpt lat="44.80646" lon="3.16263">
        <ele>1146.6</ele>
        <time>2022-08-01T09:11:27Z</time>
      </trkpt>
      <trkpt lat="44.80647" lon="3.16264">
        <ele>1146.7</ele>
        <time>2022-08-01T09:11:28Z</time>
      </trkpt>
      <trkpt lat="44.80648" lon="3.16265">
        <ele>1146.7</ele>
        <time>2022-08-01T09:11:29Z</time>
      </trkpt>
      <trkpt lat="44.80648" lon="3.16266">
        <ele>1146.7</ele>
        <time>2022-08-01T09:11:30Z</time>
      </trkpt>
      <trkpt lat="44.8065" lon="3.16268">
        <ele>1146.8</ele>
        <time>2022-08-01T09:11:32Z</time>
      </trkpt>
      <trkpt lat="44.80653" lon="3.1627">
        <ele>1146.9</ele>
        <time>2022-08-01T09:11:35Z</time>
      </trkpt>
      <trkpt lat="44.80654" lon="3.16272">
        <ele>1146.9</ele>
        <time>2022-08-01T09:11:39Z</time>
      </trkpt>
      <trkpt lat="44.80654" lon="3.16272">
        <ele>1146.9</ele>
        <time>2022-08-01T09:11:41Z</time>
      </trkpt>
      <trkpt lat="44.80655" lon="3.16272">
        <ele>1146.9</ele>
        <time>2022-08-01T09:11:42Z</time>
      </trkpt>
      <trkpt lat="44.80657" lon="3.16273">
        <ele>1146.9</ele>
        <time>2022-08-01T09:11:44Z</time>
      </trkpt>
      <trkpt lat="44.8066" lon="3.16275">
        <ele>1147</ele>
        <time>2022-08-01T09:11:47Z</time>
      </trkpt>
      <trkpt lat="44.80662" lon="3.16276">
        <ele>1147</ele>
        <time>2022-08-01T09:11:48Z</time>
      </trkpt>
      <trkpt lat="44.80666" lon="3.16279">
        <ele>1147</ele>
        <time>2022-08-01T09:11:52Z</time>
      </trkpt>
      <trkpt lat="44.8067" lon="3.16281">
        <ele>1147.2</ele>
        <time>2022-08-01T09:11:56Z</time>
      </trkpt>
      <trkpt lat="44.80674" lon="3.16283">
        <ele>1147.4</ele>
        <time>2022-08-01T09:11:59Z</time>
      </trkpt>
      <trkpt lat="44.80676" lon="3.16284">
        <ele>1147.5</ele>
        <time>2022-08-01T09:12:01Z</time>
      </trkpt>
      <trkpt lat="44.80678" lon="3.16285">
        <ele>1147.5</ele>
        <time>2022-08-01T09:12:02Z</time>
      </trkpt>
      <trkpt lat="44.8068" lon="3.16286">
        <ele>1147.6</ele>
        <time>2022-08-01T09:12:04Z</time>
      </trkpt>
      <trkpt lat="44.80681" lon="3.16287">
        <ele>1147.7</ele>
        <time>2022-08-01T09:12:05Z</time>
      </trkpt>
      <trkpt lat="44.80683" lon="3.16288">
        <ele>1147.7</ele>
        <time>2022-08-01T09:12:07Z</time>
      </trkpt>
      <trkpt lat="44.80687" lon="3.1629">
        <ele>1147.9</ele>
        <time>2022-08-01T09:12:11Z</time>
      </trkpt>
      <trkpt lat="44.8069" lon="3.16291">
        <ele>1147.9</ele>
        <time>2022-08-01T09:12:13Z</time>
      </trkpt>
      <trkpt lat="44.80694" lon="3.16292">
        <ele>1148</ele>
        <time>2022-08-01T09:12:16Z</time>
      </trkpt>
      <trkpt lat="44.80695" lon="3.16293">
        <ele>1148</ele>
        <time>2022-08-01T09:12:17Z</time>
      </trkpt>
      <trkpt lat="44.80696" lon="3.16294">
        <ele>1148</ele>
        <time>2022-08-01T09:12:18Z</time>
      </trkpt>
      <trkpt lat="44.80697" lon="3.16295">
        <ele>1148</ele>
        <time>2022-08-01T09:12:19Z</time>
      </trkpt>
      <trkpt lat="44.80698" lon="3.16295">
        <ele>1148</ele>
        <time>2022-08-01T09:12:20Z</time>
      </trkpt>
      <trkpt lat="44.807" lon="3.16296">
        <ele>1148</ele>
        <time>2022-08-01T09:12:22Z</time>
      </trkpt>
      <trkpt lat="44.80705" lon="3.163">
        <ele>1148</ele>
        <time>2022-08-01T09:12:26Z</time>
      </trkpt>
      <trkpt lat="44.80708" lon="3.16302">
        <ele>1148</ele>
        <time>2022-08-01T09:12:28Z</time>
      </trkpt>
      <trkpt lat="44.8071" lon="3.16303">
        <ele>1148</ele>
        <time>2022-08-01T09:12:30Z</time>
      </trkpt>
      <trkpt lat="44.80713" lon="3.16305">
        <ele>1148</ele>
        <time>2022-08-01T09:12:32Z</time>
      </trkpt>
      <trkpt lat="44.80714" lon="3.16306">
        <ele>1148</ele>
        <time>2022-08-01T09:12:34Z</time>
      </trkpt>
      <trkpt lat="44.80718" lon="3.16307">
        <ele>1148.1</ele>
        <time>2022-08-01T09:12:37Z</time>
      </trkpt>
      <trkpt lat="44.8072" lon="3.16308">
        <ele>1148.1</ele>
        <time>2022-08-01T09:12:39Z</time>
      </trkpt>
      <trkpt lat="44.80721" lon="3.16309">
        <ele>1148.1</ele>
        <time>2022-08-01T09:12:40Z</time>
      </trkpt>
      <trkpt lat="44.80723" lon="3.16309">
        <ele>1148.1</ele>
        <time>2022-08-01T09:12:41Z</time>
      </trkpt>
      <trkpt lat="44.80725" lon="3.1631">
        <ele>1148.1</ele>
        <time>2022-08-01T09:12:43Z</time>
      </trkpt>
      <trkpt lat="44.8073" lon="3.16311">
        <ele>1148.2</ele>
        <time>2022-08-01T09:12:47Z</time>
      </trkpt>
      <trkpt lat="44.80733" lon="3.16311">
        <ele>1148.2</ele>
        <time>2022-08-01T09:12:49Z</time>
      </trkpt>
      <trkpt lat="44.80736" lon="3.16311">
        <ele>1148.2</ele>
        <time>2022-08-01T09:12:52Z</time>
      </trkpt>
      <trkpt lat="44.80739" lon="3.16311">
        <ele>1148.2</ele>
        <time>2022-08-01T09:12:54Z</time>
      </trkpt>
      <trkpt lat="44.80741" lon="3.16311">
        <ele>1148.2</ele>
        <time>2022-08-01T09:12:56Z</time>
      </trkpt>
      <trkpt lat="44.80742" lon="3.16311">
        <ele>1148.2</ele>
        <time>2022-08-01T09:12:57Z</time>
      </trkpt>
      <trkpt lat="44.80744" lon="3.16311">
        <ele>1148.2</ele>
        <time>2022-08-01T09:12:59Z</time>
      </trkpt>
      <trkpt lat="44.80748" lon="3.16312">
        <ele>1148.2</ele>
        <time>2022-08-01T09:13:01Z</time>
      </trkpt>
      <trkpt lat="44.8075" lon="3.16313">
        <ele>1148.3</ele>
        <time>2022-08-01T09:13:04Z</time>
      </trkpt>
      <trkpt lat="44.80755" lon="3.16314">
        <ele>1148.3</ele>
        <time>2022-08-01T09:13:08Z</time>
      </trkpt>
      <trkpt lat="44.80759" lon="3.16315">
        <ele>1148.3</ele>
        <time>2022-08-01T09:13:11Z</time>
      </trkpt>
      <trkpt lat="44.80767" lon="3.16318">
        <ele>1148.4</ele>
        <time>2022-08-01T09:13:18Z</time>
      </trkpt>
      <trkpt lat="44.80772" lon="3.16319">
        <ele>1148.5</ele>
        <time>2022-08-01T09:13:22Z</time>
      </trkpt>
      <trkpt lat="44.80774" lon="3.16319">
        <ele>1148.5</ele>
        <time>2022-08-01T09:13:24Z</time>
      </trkpt>
      <trkpt lat="44.80776" lon="3.1632">
        <ele>1148.5</ele>
        <time>2022-08-01T09:13:25Z</time>
      </trkpt>
      <trkpt lat="44.80778" lon="3.16321">
        <ele>1148.5</ele>
        <time>2022-08-01T09:13:27Z</time>
      </trkpt>
      <trkpt lat="44.8078" lon="3.16322">
        <ele>1148.5</ele>
        <time>2022-08-01T09:13:29Z</time>
      </trkpt>
      <trkpt lat="44.80781" lon="3.16322">
        <ele>1148.5</ele>
        <time>2022-08-01T09:13:30Z</time>
      </trkpt>
      <trkpt lat="44.80783" lon="3.16323">
        <ele>1148.5</ele>
        <time>2022-08-01T09:13:31Z</time>
      </trkpt>
      <trkpt lat="44.80785" lon="3.16322">
        <ele>1148.5</ele>
        <time>2022-08-01T09:13:33Z</time>
      </trkpt>
      <trkpt lat="44.80789" lon="3.16323">
        <ele>1148.4</ele>
        <time>2022-08-01T09:13:36Z</time>
      </trkpt>
      <trkpt lat="44.80792" lon="3.16324">
        <ele>1148.3</ele>
        <time>2022-08-01T09:13:38Z</time>
      </trkpt>
      <trkpt lat="44.80793" lon="3.16324">
        <ele>1148.3</ele>
        <time>2022-08-01T09:13:39Z</time>
      </trkpt>
      <trkpt lat="44.80795" lon="3.16325">
        <ele>1148.3</ele>
        <time>2022-08-01T09:13:41Z</time>
      </trkpt>
      <trkpt lat="44.80798" lon="3.16326">
        <ele>1148.2</ele>
        <time>2022-08-01T09:13:43Z</time>
      </trkpt>
      <trkpt lat="44.80802" lon="3.16327">
        <ele>1148.1</ele>
        <time>2022-08-01T09:13:46Z</time>
      </trkpt>
      <trkpt lat="44.80804" lon="3.16327">
        <ele>1148.1</ele>
        <time>2022-08-01T09:13:48Z</time>
      </trkpt>
      <trkpt lat="44.80804" lon="3.16328">
        <ele>1148</ele>
        <time>2022-08-01T09:13:51Z</time>
      </trkpt>
      <trkpt lat="44.80804" lon="3.16328">
        <ele>1148</ele>
        <time>2022-08-01T09:13:52Z</time>
      </trkpt>
      <trkpt lat="44.80807" lon="3.16329">
        <ele>1147.9</ele>
        <time>2022-08-01T09:13:55Z</time>
      </trkpt>
      <trkpt lat="44.8081" lon="3.1633">
        <ele>1147.9</ele>
        <time>2022-08-01T09:13:57Z</time>
      </trkpt>
      <trkpt lat="44.8082" lon="3.16333">
        <ele>1147.5</ele>
        <time>2022-08-01T09:14:05Z</time>
      </trkpt>
      <trkpt lat="44.80823" lon="3.16334">
        <ele>1147.4</ele>
        <time>2022-08-01T09:14:07Z</time>
      </trkpt>
      <trkpt lat="44.80829" lon="3.16335">
        <ele>1147.2</ele>
        <time>2022-08-01T09:14:13Z</time>
      </trkpt>
      <trkpt lat="44.80833" lon="3.16336">
        <ele>1147</ele>
        <time>2022-08-01T09:14:16Z</time>
      </trkpt>
      <trkpt lat="44.80835" lon="3.16337">
        <ele>1147</ele>
        <time>2022-08-01T09:14:18Z</time>
      </trkpt>
      <trkpt lat="44.80839" lon="3.16338">
        <ele>1147</ele>
        <time>2022-08-01T09:14:21Z</time>
      </trkpt>
      <trkpt lat="44.80842" lon="3.16339">
        <ele>1146.9</ele>
        <time>2022-08-01T09:14:23Z</time>
      </trkpt>
      <trkpt lat="44.80844" lon="3.16341">
        <ele>1146.9</ele>
        <time>2022-08-01T09:14:25Z</time>
      </trkpt>
      <trkpt lat="44.80847" lon="3.16342">
        <ele>1146.9</ele>
        <time>2022-08-01T09:14:27Z</time>
      </trkpt>
      <trkpt lat="44.8085" lon="3.16343">
        <ele>1146.8</ele>
        <time>2022-08-01T09:14:30Z</time>
      </trkpt>
      <trkpt lat="44.80858" lon="3.16348">
        <ele>1146.5</ele>
        <time>2022-08-01T09:14:37Z</time>
      </trkpt>
      <trkpt lat="44.80859" lon="3.1635">
        <ele>1146.5</ele>
        <time>2022-08-01T09:14:39Z</time>
      </trkpt>
      <trkpt lat="44.8086" lon="3.1635">
        <ele>1146.4</ele>
        <time>2022-08-01T09:14:40Z</time>
      </trkpt>
      <trkpt lat="44.80862" lon="3.16349">
        <ele>1146.4</ele>
        <time>2022-08-01T09:14:42Z</time>
      </trkpt>
      <trkpt lat="44.80863" lon="3.16349">
        <ele>1146.4</ele>
        <time>2022-08-01T09:14:46Z</time>
      </trkpt>
      <trkpt lat="44.80862" lon="3.16348">
        <ele>1146.4</ele>
        <time>2022-08-01T09:14:47Z</time>
      </trkpt>
      <trkpt lat="44.80862" lon="3.16348">
        <ele>1146.4</ele>
        <time>2022-08-01T09:14:48Z</time>
      </trkpt>
      <trkpt lat="44.80863" lon="3.16348">
        <ele>1146.4</ele>
        <time>2022-08-01T09:14:49Z</time>
      </trkpt>
      <trkpt lat="44.80863" lon="3.16348">
        <ele>1146.4</ele>
        <time>2022-08-01T09:14:51Z</time>
      </trkpt>
      <trkpt lat="44.80863" lon="3.16348">
        <ele>1146.4</ele>
        <time>2022-08-01T09:14:52Z</time>
      </trkpt>
      <trkpt lat="44.80863" lon="3.16347">
        <ele>1146.5</ele>
        <time>2022-08-01T09:14:55Z</time>
      </trkpt>
      <trkpt lat="44.80863" lon="3.16347">
        <ele>1146.5</ele>
        <time>2022-08-01T09:14:56Z</time>
      </trkpt>
      <trkpt lat="44.80863" lon="3.16347">
        <ele>1146.5</ele>
        <time>2022-08-01T09:14:57Z</time>
      </trkpt>
      <trkpt lat="44.80863" lon="3.16347">
        <ele>1146.5</ele>
        <time>2022-08-01T09:14:58Z</time>
      </trkpt>
      <trkpt lat="44.80863" lon="3.16347">
        <ele>1146.5</ele>
        <time>2022-08-01T09:14:59Z</time>
      </trkpt>
      <trkpt lat="44.80863" lon="3.16347">
        <ele>1146.5</ele>
        <time>2022-08-01T09:15:02Z</time>
      </trkpt>
      <trkpt lat="44.80863" lon="3.16348">
        <ele>1146.4</ele>
        <time>2022-08-01T09:15:04Z</time>
      </trkpt>
      <trkpt lat="44.80863" lon="3.16348">
        <ele>1146.4</ele>
        <time>2022-08-01T09:15:07Z</time>
      </trkpt>
      <trkpt lat="44.80863" lon="3.16348">
        <ele>1146.4</ele>
        <time>2022-08-01T09:15:11Z</time>
      </trkpt>
      <trkpt lat="44.80863" lon="3.16348">
        <ele>1146.4</ele>
        <time>2022-08-01T09:15:14Z</time>
      </trkpt>
      <trkpt lat="44.80864" lon="3.16352">
        <ele>1146.2</ele>
        <time>2022-08-01T09:15:18Z</time>
      </trkpt>
      <trkpt lat="44.80865" lon="3.16353">
        <ele>1146.1</ele>
        <time>2022-08-01T09:15:19Z</time>
      </trkpt>
      <trkpt lat="44.80866" lon="3.16354">
        <ele>1146.1</ele>
        <time>2022-08-01T09:15:20Z</time>
      </trkpt>
      <trkpt lat="44.80867" lon="3.16356">
        <ele>1146</ele>
        <time>2022-08-01T09:15:21Z</time>
      </trkpt>
      <trkpt lat="44.80868" lon="3.16358">
        <ele>1145.9</ele>
        <time>2022-08-01T09:15:22Z</time>
      </trkpt>
      <trkpt lat="44.8087" lon="3.16361">
        <ele>1145.7</ele>
        <time>2022-08-01T09:15:24Z</time>
      </trkpt>
      <trkpt lat="44.8087" lon="3.16363">
        <ele>1145.6</ele>
        <time>2022-08-01T09:15:25Z</time>
      </trkpt>
      <trkpt lat="44.80871" lon="3.16365">
        <ele>1145.6</ele>
        <time>2022-08-01T09:15:26Z</time>
      </trkpt>
      <trkpt lat="44.80873" lon="3.16367">
        <ele>1145.5</ele>
        <time>2022-08-01T09:15:28Z</time>
      </trkpt>
      <trkpt lat="44.80876" lon="3.16369">
        <ele>1145.3</ele>
        <time>2022-08-01T09:15:30Z</time>
      </trkpt>
      <trkpt lat="44.80878" lon="3.16371">
        <ele>1145.2</ele>
        <time>2022-08-01T09:15:32Z</time>
      </trkpt>
      <trkpt lat="44.80881" lon="3.16373">
        <ele>1145</ele>
        <time>2022-08-01T09:15:34Z</time>
      </trkpt>
      <trkpt lat="44.80884" lon="3.16375">
        <ele>1144.8</ele>
        <time>2022-08-01T09:15:36Z</time>
      </trkpt>
      <trkpt lat="44.80887" lon="3.16379">
        <ele>1144.4</ele>
        <time>2022-08-01T09:15:39Z</time>
      </trkpt>
      <trkpt lat="44.80888" lon="3.1638">
        <ele>1144.3</ele>
        <time>2022-08-01T09:15:40Z</time>
      </trkpt>
      <trkpt lat="44.80892" lon="3.16383">
        <ele>1144.3</ele>
        <time>2022-08-01T09:15:43Z</time>
      </trkpt>
      <trkpt lat="44.80894" lon="3.16384">
        <ele>1144.4</ele>
        <time>2022-08-01T09:15:44Z</time>
      </trkpt>
      <trkpt lat="44.80894" lon="3.16385">
        <ele>1144.3</ele>
        <time>2022-08-01T09:15:45Z</time>
      </trkpt>
      <trkpt lat="44.80897" lon="3.16388">
        <ele>1144.3</ele>
        <time>2022-08-01T09:15:47Z</time>
      </trkpt>
      <trkpt lat="44.80899" lon="3.1639">
        <ele>1144.3</ele>
        <time>2022-08-01T09:15:49Z</time>
      </trkpt>
      <trkpt lat="44.80902" lon="3.16392">
        <ele>1144.3</ele>
        <time>2022-08-01T09:15:51Z</time>
      </trkpt>
      <trkpt lat="44.80905" lon="3.16395">
        <ele>1144.2</ele>
        <time>2022-08-01T09:15:54Z</time>
      </trkpt>
      <trkpt lat="44.80908" lon="3.16396">
        <ele>1144.2</ele>
        <time>2022-08-01T09:15:56Z</time>
      </trkpt>
      <trkpt lat="44.8091" lon="3.16398">
        <ele>1144.2</ele>
        <time>2022-08-01T09:15:58Z</time>
      </trkpt>
      <trkpt lat="44.80913" lon="3.16401">
        <ele>1144.1</ele>
        <time>2022-08-01T09:16:00Z</time>
      </trkpt>
      <trkpt lat="44.80918" lon="3.16406">
        <ele>1143.7</ele>
        <time>2022-08-01T09:16:05Z</time>
      </trkpt>
      <trkpt lat="44.80922" lon="3.1641">
        <ele>1143.3</ele>
        <time>2022-08-01T09:16:09Z</time>
      </trkpt>
      <trkpt lat="44.80926" lon="3.16412">
        <ele>1143.1</ele>
        <time>2022-08-01T09:16:13Z</time>
      </trkpt>
      <trkpt lat="44.80926" lon="3.16412">
        <ele>1143</ele>
        <time>2022-08-01T09:16:15Z</time>
      </trkpt>
      <trkpt lat="44.80926" lon="3.16413">
        <ele>1143</ele>
        <time>2022-08-01T09:16:16Z</time>
      </trkpt>
      <trkpt lat="44.80926" lon="3.16412">
        <ele>1143.1</ele>
        <time>2022-08-01T09:16:17Z</time>
      </trkpt>
      <trkpt lat="44.80926" lon="3.16411">
        <ele>1143.1</ele>
        <time>2022-08-01T09:16:18Z</time>
      </trkpt>
      <trkpt lat="44.80926" lon="3.16411">
        <ele>1143.1</ele>
        <time>2022-08-01T09:16:21Z</time>
      </trkpt>
      <trkpt lat="44.80926" lon="3.16411">
        <ele>1143.1</ele>
        <time>2022-08-01T09:16:23Z</time>
      </trkpt>
      <trkpt lat="44.80925" lon="3.16411">
        <ele>1143.2</ele>
        <time>2022-08-01T09:16:27Z</time>
      </trkpt>
      <trkpt lat="44.80925" lon="3.16411">
        <ele>1143.2</ele>
        <time>2022-08-01T09:16:28Z</time>
      </trkpt>
      <trkpt lat="44.80928" lon="3.16414">
        <ele>1142.8</ele>
        <time>2022-08-01T09:16:33Z</time>
      </trkpt>
      <trkpt lat="44.8093" lon="3.16415">
        <ele>1142.6</ele>
        <time>2022-08-01T09:16:34Z</time>
      </trkpt>
      <trkpt lat="44.80936" lon="3.16423">
        <ele>1141.9</ele>
        <time>2022-08-01T09:16:39Z</time>
      </trkpt>
      <trkpt lat="44.80939" lon="3.16426">
        <ele>1141.6</ele>
        <time>2022-08-01T09:16:41Z</time>
      </trkpt>
      <trkpt lat="44.8094" lon="3.16427">
        <ele>1141.4</ele>
        <time>2022-08-01T09:16:42Z</time>
      </trkpt>
      <trkpt lat="44.80942" lon="3.16429">
        <ele>1141.2</ele>
        <time>2022-08-01T09:16:44Z</time>
      </trkpt>
      <trkpt lat="44.80948" lon="3.16436">
        <ele>1140.4</ele>
        <time>2022-08-01T09:16:49Z</time>
      </trkpt>
      <trkpt lat="44.80949" lon="3.16437">
        <ele>1140.2</ele>
        <time>2022-08-01T09:16:50Z</time>
      </trkpt>
      <trkpt lat="44.8095" lon="3.16438">
        <ele>1140</ele>
        <time>2022-08-01T09:16:51Z</time>
      </trkpt>
      <trkpt lat="44.80951" lon="3.16439">
        <ele>1139.9</ele>
        <time>2022-08-01T09:16:52Z</time>
      </trkpt>
      <trkpt lat="44.80954" lon="3.16443">
        <ele>1139.4</ele>
        <time>2022-08-01T09:16:55Z</time>
      </trkpt>
      <trkpt lat="44.80958" lon="3.1645">
        <ele>1138.8</ele>
        <time>2022-08-01T09:16:59Z</time>
      </trkpt>
      <trkpt lat="44.8096" lon="3.16452">
        <ele>1138.6</ele>
        <time>2022-08-01T09:17:01Z</time>
      </trkpt>
      <trkpt lat="44.80962" lon="3.16454">
        <ele>1138.4</ele>
        <time>2022-08-01T09:17:02Z</time>
      </trkpt>
      <trkpt lat="44.80964" lon="3.16458">
        <ele>1138.1</ele>
        <time>2022-08-01T09:17:04Z</time>
      </trkpt>
      <trkpt lat="44.80964" lon="3.16459">
        <ele>1138.1</ele>
        <time>2022-08-01T09:17:05Z</time>
      </trkpt>
      <trkpt lat="44.80967" lon="3.16465">
        <ele>1137.7</ele>
        <time>2022-08-01T09:17:09Z</time>
      </trkpt>
      <trkpt lat="44.80971" lon="3.16474">
        <ele>1137.1</ele>
        <time>2022-08-01T09:17:14Z</time>
      </trkpt>
      <trkpt lat="44.80971" lon="3.16476">
        <ele>1137.1</ele>
        <time>2022-08-01T09:17:15Z</time>
      </trkpt>
      <trkpt lat="44.80974" lon="3.16482">
        <ele>1137</ele>
        <time>2022-08-01T09:17:19Z</time>
      </trkpt>
      <trkpt lat="44.80975" lon="3.16486">
        <ele>1136.9</ele>
        <time>2022-08-01T09:17:21Z</time>
      </trkpt>
      <trkpt lat="44.80975" lon="3.16487">
        <ele>1136.9</ele>
        <time>2022-08-01T09:17:22Z</time>
      </trkpt>
      <trkpt lat="44.80978" lon="3.16494">
        <ele>1136.8</ele>
        <time>2022-08-01T09:17:26Z</time>
      </trkpt>
      <trkpt lat="44.8098" lon="3.165">
        <ele>1136.7</ele>
        <time>2022-08-01T09:17:30Z</time>
      </trkpt>
      <trkpt lat="44.80982" lon="3.16503">
        <ele>1136.7</ele>
        <time>2022-08-01T09:17:32Z</time>
      </trkpt>
      <trkpt lat="44.80984" lon="3.16507">
        <ele>1136.6</ele>
        <time>2022-08-01T09:17:35Z</time>
      </trkpt>
      <trkpt lat="44.80987" lon="3.16511">
        <ele>1136.5</ele>
        <time>2022-08-01T09:17:38Z</time>
      </trkpt>
      <trkpt lat="44.80988" lon="3.16513">
        <ele>1136.4</ele>
        <time>2022-08-01T09:17:39Z</time>
      </trkpt>
      <trkpt lat="44.80989" lon="3.16514">
        <ele>1136.4</ele>
        <time>2022-08-01T09:17:40Z</time>
      </trkpt>
      <trkpt lat="44.80989" lon="3.16515">
        <ele>1136.4</ele>
        <time>2022-08-01T09:17:41Z</time>
      </trkpt>
      <trkpt lat="44.8099" lon="3.16516">
        <ele>1136.4</ele>
        <time>2022-08-01T09:17:43Z</time>
      </trkpt>
      <trkpt lat="44.80989" lon="3.16516">
        <ele>1136.4</ele>
        <time>2022-08-01T09:17:44Z</time>
      </trkpt>
      <trkpt lat="44.8099" lon="3.16517">
        <ele>1136.4</ele>
        <time>2022-08-01T09:17:46Z</time>
      </trkpt>
      <trkpt lat="44.80992" lon="3.16518">
        <ele>1136.3</ele>
        <time>2022-08-01T09:17:49Z</time>
      </trkpt>
      <trkpt lat="44.80993" lon="3.16518">
        <ele>1136.3</ele>
        <time>2022-08-01T09:17:51Z</time>
      </trkpt>
      <trkpt lat="44.80996" lon="3.16526">
        <ele>1136.1</ele>
        <time>2022-08-01T09:17:57Z</time>
      </trkpt>
      <trkpt lat="44.80997" lon="3.16528">
        <ele>1136.1</ele>
        <time>2022-08-01T09:17:58Z</time>
      </trkpt>
      <trkpt lat="44.81002" lon="3.16539">
        <ele>1135.9</ele>
        <time>2022-08-01T09:18:05Z</time>
      </trkpt>
      <trkpt lat="44.81003" lon="3.16543">
        <ele>1135.8</ele>
        <time>2022-08-01T09:18:07Z</time>
      </trkpt>
      <trkpt lat="44.81007" lon="3.16548">
        <ele>1135.6</ele>
        <time>2022-08-01T09:18:11Z</time>
      </trkpt>
      <trkpt lat="44.81009" lon="3.16552">
        <ele>1135.4</ele>
        <time>2022-08-01T09:18:14Z</time>
      </trkpt>
      <trkpt lat="44.81011" lon="3.16555">
        <ele>1135.2</ele>
        <time>2022-08-01T09:18:16Z</time>
      </trkpt>
      <trkpt lat="44.81012" lon="3.16557">
        <ele>1135.1</ele>
        <time>2022-08-01T09:18:17Z</time>
      </trkpt>
      <trkpt lat="44.81014" lon="3.16561">
        <ele>1135</ele>
        <time>2022-08-01T09:18:19Z</time>
      </trkpt>
      <trkpt lat="44.81019" lon="3.16569">
        <ele>1134.8</ele>
        <time>2022-08-01T09:18:25Z</time>
      </trkpt>
      <trkpt lat="44.8102" lon="3.16571">
        <ele>1134.8</ele>
        <time>2022-08-01T09:18:26Z</time>
      </trkpt>
      <trkpt lat="44.81021" lon="3.16572">
        <ele>1134.8</ele>
        <time>2022-08-01T09:18:27Z</time>
      </trkpt>
      <trkpt lat="44.81024" lon="3.16578">
        <ele>1134.9</ele>
        <time>2022-08-01T09:18:30Z</time>
      </trkpt>
      <trkpt lat="44.8103" lon="3.16588">
        <ele>1134.8</ele>
        <time>2022-08-01T09:18:37Z</time>
      </trkpt>
      <trkpt lat="44.81036" lon="3.16597">
        <ele>1134.4</ele>
        <time>2022-08-01T09:18:43Z</time>
      </trkpt>
      <trkpt lat="44.81038" lon="3.16599">
        <ele>1134.3</ele>
        <time>2022-08-01T09:18:45Z</time>
      </trkpt>
      <trkpt lat="44.8104" lon="3.16602">
        <ele>1134.2</ele>
        <time>2022-08-01T09:18:47Z</time>
      </trkpt>
      <trkpt lat="44.81046" lon="3.1661">
        <ele>1134</ele>
        <time>2022-08-01T09:18:52Z</time>
      </trkpt>
      <trkpt lat="44.81048" lon="3.16613">
        <ele>1134</ele>
        <time>2022-08-01T09:18:54Z</time>
      </trkpt>
      <trkpt lat="44.81051" lon="3.16618">
        <ele>1134</ele>
        <time>2022-08-01T09:18:57Z</time>
      </trkpt>
      <trkpt lat="44.81052" lon="3.1662">
        <ele>1134</ele>
        <time>2022-08-01T09:18:59Z</time>
      </trkpt>
      <trkpt lat="44.81054" lon="3.16623">
        <ele>1134</ele>
        <time>2022-08-01T09:19:01Z</time>
      </trkpt>
      <trkpt lat="44.81055" lon="3.16625">
        <ele>1134</ele>
        <time>2022-08-01T09:19:02Z</time>
      </trkpt>
      <trkpt lat="44.81056" lon="3.16627">
        <ele>1134</ele>
        <time>2022-08-01T09:19:03Z</time>
      </trkpt>
      <trkpt lat="44.81058" lon="3.1663">
        <ele>1133.9</ele>
        <time>2022-08-01T09:19:05Z</time>
      </trkpt>
      <trkpt lat="44.8106" lon="3.16633">
        <ele>1133.8</ele>
        <time>2022-08-01T09:19:07Z</time>
      </trkpt>
      <trkpt lat="44.81064" lon="3.1664">
        <ele>1133.7</ele>
        <time>2022-08-01T09:19:12Z</time>
      </trkpt>
      <trkpt lat="44.81066" lon="3.16643">
        <ele>1133.6</ele>
        <time>2022-08-01T09:19:14Z</time>
      </trkpt>
      <trkpt lat="44.81068" lon="3.16646">
        <ele>1133.5</ele>
        <time>2022-08-01T09:19:16Z</time>
      </trkpt>
      <trkpt lat="44.81072" lon="3.16652">
        <ele>1133.4</ele>
        <time>2022-08-01T09:19:20Z</time>
      </trkpt>
      <trkpt lat="44.81074" lon="3.16657">
        <ele>1133.3</ele>
        <time>2022-08-01T09:19:23Z</time>
      </trkpt>
      <trkpt lat="44.81077" lon="3.16662">
        <ele>1133.2</ele>
        <time>2022-08-01T09:19:27Z</time>
      </trkpt>
      <trkpt lat="44.81079" lon="3.16665">
        <ele>1133.1</ele>
        <time>2022-08-01T09:19:29Z</time>
      </trkpt>
      <trkpt lat="44.81082" lon="3.16668">
        <ele>1133.2</ele>
        <time>2022-08-01T09:19:31Z</time>
      </trkpt>
      <trkpt lat="44.81083" lon="3.16671">
        <ele>1133.3</ele>
        <time>2022-08-01T09:19:33Z</time>
      </trkpt>
      <trkpt lat="44.81086" lon="3.16676">
        <ele>1133.6</ele>
        <time>2022-08-01T09:19:36Z</time>
      </trkpt>
      <trkpt lat="44.81087" lon="3.16677">
        <ele>1133.7</ele>
        <time>2022-08-01T09:19:37Z</time>
      </trkpt>
      <trkpt lat="44.8109" lon="3.1668">
        <ele>1133.8</ele>
        <time>2022-08-01T09:19:40Z</time>
      </trkpt>
      <trkpt lat="44.81095" lon="3.16685">
        <ele>1134</ele>
        <time>2022-08-01T09:19:44Z</time>
      </trkpt>
      <trkpt lat="44.81096" lon="3.16686">
        <ele>1134.1</ele>
        <time>2022-08-01T09:19:45Z</time>
      </trkpt>
      <trkpt lat="44.81099" lon="3.16689">
        <ele>1134.2</ele>
        <time>2022-08-01T09:19:48Z</time>
      </trkpt>
      <trkpt lat="44.81101" lon="3.16692">
        <ele>1134.2</ele>
        <time>2022-08-01T09:19:50Z</time>
      </trkpt>
      <trkpt lat="44.81103" lon="3.16695">
        <ele>1134.3</ele>
        <time>2022-08-01T09:19:52Z</time>
      </trkpt>
      <trkpt lat="44.81104" lon="3.16696">
        <ele>1134.2</ele>
        <time>2022-08-01T09:19:53Z</time>
      </trkpt>
      <trkpt lat="44.81103" lon="3.16704">
        <ele>1133.9</ele>
        <time>2022-08-01T09:20:00Z</time>
      </trkpt>
      <trkpt lat="44.81103" lon="3.16705">
        <ele>1133.9</ele>
        <time>2022-08-01T09:20:01Z</time>
      </trkpt>
      <trkpt lat="44.81102" lon="3.16705">
        <ele>1134</ele>
        <time>2022-08-01T09:20:07Z</time>
      </trkpt>
      <trkpt lat="44.81101" lon="3.16705">
        <ele>1134</ele>
        <time>2022-08-01T09:20:13Z</time>
      </trkpt>
      <trkpt lat="44.81101" lon="3.16705">
        <ele>1134</ele>
        <time>2022-08-01T09:20:16Z</time>
      </trkpt>
      <trkpt lat="44.81102" lon="3.16705">
        <ele>1134</ele>
        <time>2022-08-01T09:20:22Z</time>
      </trkpt>
      <trkpt lat="44.81105" lon="3.16703">
        <ele>1133.9</ele>
        <time>2022-08-01T09:20:24Z</time>
      </trkpt>
      <trkpt lat="44.81107" lon="3.16702">
        <ele>1133.9</ele>
        <time>2022-08-01T09:20:25Z</time>
      </trkpt>
      <trkpt lat="44.81117" lon="3.167">
        <ele>1133.6</ele>
        <time>2022-08-01T09:20:32Z</time>
      </trkpt>
      <trkpt lat="44.81118" lon="3.167">
        <ele>1133.6</ele>
        <time>2022-08-01T09:20:33Z</time>
      </trkpt>
      <trkpt lat="44.8112" lon="3.16699">
        <ele>1133.6</ele>
        <time>2022-08-01T09:20:36Z</time>
      </trkpt>
      <trkpt lat="44.81122" lon="3.16698">
        <ele>1133.5</ele>
        <time>2022-08-01T09:20:38Z</time>
      </trkpt>
      <trkpt lat="44.81123" lon="3.16698">
        <ele>1133.5</ele>
        <time>2022-08-01T09:20:39Z</time>
      </trkpt>
      <trkpt lat="44.81123" lon="3.16698">
        <ele>1133.5</ele>
        <time>2022-08-01T09:20:40Z</time>
      </trkpt>
      <trkpt lat="44.81123" lon="3.16697">
        <ele>1133.5</ele>
        <time>2022-08-01T09:20:41Z</time>
      </trkpt>
      <trkpt lat="44.81123" lon="3.16697">
        <ele>1133.5</ele>
        <time>2022-08-01T09:20:42Z</time>
      </trkpt>
      <trkpt lat="44.81123" lon="3.16697">
        <ele>1133.5</ele>
        <time>2022-08-01T09:20:43Z</time>
      </trkpt>
      <trkpt lat="44.81123" lon="3.16697">
        <ele>1133.5</ele>
        <time>2022-08-01T09:20:44Z</time>
      </trkpt>
      <trkpt lat="44.81123" lon="3.16697">
        <ele>1133.5</ele>
        <time>2022-08-01T09:20:45Z</time>
      </trkpt>
      <trkpt lat="44.81124" lon="3.16698">
        <ele>1133.5</ele>
        <time>2022-08-01T09:20:50Z</time>
      </trkpt>
      <trkpt lat="44.81128" lon="3.16698">
        <ele>1133.3</ele>
        <time>2022-08-01T09:20:54Z</time>
      </trkpt>
      <trkpt lat="44.81129" lon="3.16698">
        <ele>1133.3</ele>
        <time>2022-08-01T09:20:55Z</time>
      </trkpt>
      <trkpt lat="44.81139" lon="3.16698">
        <ele>1133</ele>
        <time>2022-08-01T09:21:01Z</time>
      </trkpt>
      <trkpt lat="44.81141" lon="3.16698">
        <ele>1133</ele>
        <time>2022-08-01T09:21:03Z</time>
      </trkpt>
      <trkpt lat="44.81148" lon="3.16699">
        <ele>1133</ele>
        <time>2022-08-01T09:21:09Z</time>
      </trkpt>
      <trkpt lat="44.81163" lon="3.16698">
        <ele>1133</ele>
        <time>2022-08-01T09:21:20Z</time>
      </trkpt>
      <trkpt lat="44.81166" lon="3.16698">
        <ele>1133</ele>
        <time>2022-08-01T09:21:23Z</time>
      </trkpt>
      <trkpt lat="44.81174" lon="3.16696">
        <ele>1133.2</ele>
        <time>2022-08-01T09:21:29Z</time>
      </trkpt>
      <trkpt lat="44.81175" lon="3.16696">
        <ele>1133.3</ele>
        <time>2022-08-01T09:21:30Z</time>
      </trkpt>
      <trkpt lat="44.81178" lon="3.16694">
        <ele>1133.4</ele>
        <time>2022-08-01T09:21:33Z</time>
      </trkpt>
      <trkpt lat="44.81181" lon="3.16694">
        <ele>1133.5</ele>
        <time>2022-08-01T09:21:36Z</time>
      </trkpt>
      <trkpt lat="44.81187" lon="3.16695">
        <ele>1133.7</ele>
        <time>2022-08-01T09:21:41Z</time>
      </trkpt>
      <trkpt lat="44.81194" lon="3.16692">
        <ele>1133.9</ele>
        <time>2022-08-01T09:21:47Z</time>
      </trkpt>
      <trkpt lat="44.81206" lon="3.16688">
        <ele>1133.9</ele>
        <time>2022-08-01T09:21:57Z</time>
      </trkpt>
      <trkpt lat="44.81212" lon="3.16687">
        <ele>1133.9</ele>
        <time>2022-08-01T09:22:02Z</time>
      </trkpt>
      <trkpt lat="44.81215" lon="3.16685">
        <ele>1133.9</ele>
        <time>2022-08-01T09:22:05Z</time>
      </trkpt>
      <trkpt lat="44.81217" lon="3.16684">
        <ele>1133.9</ele>
        <time>2022-08-01T09:22:07Z</time>
      </trkpt>
      <trkpt lat="44.81221" lon="3.16685">
        <ele>1134</ele>
        <time>2022-08-01T09:22:11Z</time>
      </trkpt>
      <trkpt lat="44.81219" lon="3.16686">
        <ele>1134</ele>
        <time>2022-08-01T09:22:13Z</time>
      </trkpt>
      <trkpt lat="44.81218" lon="3.16687">
        <ele>1134</ele>
        <time>2022-08-01T09:22:14Z</time>
      </trkpt>
      <trkpt lat="44.81216" lon="3.16689">
        <ele>1134</ele>
        <time>2022-08-01T09:22:16Z</time>
      </trkpt>
      <trkpt lat="44.81213" lon="3.1669">
        <ele>1133.9</ele>
        <time>2022-08-01T09:22:18Z</time>
      </trkpt>
      <trkpt lat="44.81211" lon="3.16692">
        <ele>1134</ele>
        <time>2022-08-01T09:22:20Z</time>
      </trkpt>
      <trkpt lat="44.8121" lon="3.16692">
        <ele>1134</ele>
        <time>2022-08-01T09:22:21Z</time>
      </trkpt>
      <trkpt lat="44.81207" lon="3.16693">
        <ele>1134</ele>
        <time>2022-08-01T09:22:23Z</time>
      </trkpt>
      <trkpt lat="44.81204" lon="3.16696">
        <ele>1134</ele>
        <time>2022-08-01T09:22:26Z</time>
      </trkpt>
      <trkpt lat="44.81202" lon="3.16697">
        <ele>1134</ele>
        <time>2022-08-01T09:22:27Z</time>
      </trkpt>
      <trkpt lat="44.812" lon="3.16698">
        <ele>1134</ele>
        <time>2022-08-01T09:22:29Z</time>
      </trkpt>
      <trkpt lat="44.81196" lon="3.16698">
        <ele>1134</ele>
        <time>2022-08-01T09:22:32Z</time>
      </trkpt>
      <trkpt lat="44.81194" lon="3.16699">
        <ele>1134</ele>
        <time>2022-08-01T09:22:33Z</time>
      </trkpt>
      <trkpt lat="44.81191" lon="3.167">
        <ele>1133.9</ele>
        <time>2022-08-01T09:22:35Z</time>
      </trkpt>
      <trkpt lat="44.81184" lon="3.16704">
        <ele>1133.6</ele>
        <time>2022-08-01T09:22:40Z</time>
      </trkpt>
      <trkpt lat="44.81181" lon="3.16705">
        <ele>1133.5</ele>
        <time>2022-08-01T09:22:43Z</time>
      </trkpt>
      <trkpt lat="44.81179" lon="3.16706">
        <ele>1133.4</ele>
        <time>2022-08-01T09:22:44Z</time>
      </trkpt>
      <trkpt lat="44.81178" lon="3.16706">
        <ele>1133.4</ele>
        <time>2022-08-01T09:22:45Z</time>
      </trkpt>
      <trkpt lat="44.81174" lon="3.16707">
        <ele>1133.3</ele>
        <time>2022-08-01T09:22:48Z</time>
      </trkpt>
      <trkpt lat="44.81169" lon="3.16708">
        <ele>1133.1</ele>
        <time>2022-08-01T09:22:52Z</time>
      </trkpt>
      <trkpt lat="44.81166" lon="3.16709">
        <ele>1133</ele>
        <time>2022-08-01T09:22:54Z</time>
      </trkpt>
      <trkpt lat="44.81162" lon="3.16707">
        <ele>1133</ele>
        <time>2022-08-01T09:22:57Z</time>
      </trkpt>
      <trkpt lat="44.81157" lon="3.16707">
        <ele>1133</ele>
        <time>2022-08-01T09:23:01Z</time>
      </trkpt>
      <trkpt lat="44.81154" lon="3.16708">
        <ele>1133</ele>
        <time>2022-08-01T09:23:03Z</time>
      </trkpt>
      <trkpt lat="44.81152" lon="3.16707">
        <ele>1133</ele>
        <time>2022-08-01T09:23:04Z</time>
      </trkpt>
      <trkpt lat="44.81148" lon="3.16707">
        <ele>1133</ele>
        <time>2022-08-01T09:23:07Z</time>
      </trkpt>
      <trkpt lat="44.81145" lon="3.16706">
        <ele>1133</ele>
        <time>2022-08-01T09:23:09Z</time>
      </trkpt>
      <trkpt lat="44.81144" lon="3.16706">
        <ele>1133</ele>
        <time>2022-08-01T09:23:10Z</time>
      </trkpt>
      <trkpt lat="44.8114" lon="3.16705">
        <ele>1133</ele>
        <time>2022-08-01T09:23:14Z</time>
      </trkpt>
      <trkpt lat="44.81138" lon="3.16705">
        <ele>1133</ele>
        <time>2022-08-01T09:23:15Z</time>
      </trkpt>
      <trkpt lat="44.81137" lon="3.16705">
        <ele>1133</ele>
        <time>2022-08-01T09:23:16Z</time>
      </trkpt>
      <trkpt lat="44.81135" lon="3.16705">
        <ele>1133.1</ele>
        <time>2022-08-01T09:23:18Z</time>
      </trkpt>
      <trkpt lat="44.81131" lon="3.16706">
        <ele>1133.2</ele>
        <time>2022-08-01T09:23:21Z</time>
      </trkpt>
      <trkpt lat="44.81128" lon="3.16707">
        <ele>1133.2</ele>
        <time>2022-08-01T09:23:23Z</time>
      </trkpt>
      <trkpt lat="44.81122" lon="3.16708">
        <ele>1133.3</ele>
        <time>2022-08-01T09:23:27Z</time>
      </trkpt>
      <trkpt lat="44.81118" lon="3.16707">
        <ele>1133.4</ele>
        <time>2022-08-01T09:23:30Z</time>
      </trkpt>
      <trkpt lat="44.81114" lon="3.16708">
        <ele>1133.5</ele>
        <time>2022-08-01T09:23:33Z</time>
      </trkpt>
      <trkpt lat="44.81112" lon="3.16708">
        <ele>1133.5</ele>
        <time>2022-08-01T09:23:35Z</time>
      </trkpt>
      <trkpt lat="44.81106" lon="3.16709">
        <ele>1133.7</ele>
        <time>2022-08-01T09:23:39Z</time>
      </trkpt>
      <trkpt lat="44.81104" lon="3.16709">
        <ele>1133.7</ele>
        <time>2022-08-01T09:23:41Z</time>
      </trkpt>
      <trkpt lat="44.81103" lon="3.16709">
        <ele>1133.8</ele>
        <time>2022-08-01T09:23:42Z</time>
      </trkpt>
      <trkpt lat="44.811" lon="3.16709">
        <ele>1133.9</ele>
        <time>2022-08-01T09:23:44Z</time>
      </trkpt>
      <trkpt lat="44.81099" lon="3.16709">
        <ele>1133.9</ele>
        <time>2022-08-01T09:23:45Z</time>
      </trkpt>
      <trkpt lat="44.81096" lon="3.1671">
        <ele>1134</ele>
        <time>2022-08-01T09:23:48Z</time>
      </trkpt>
      <trkpt lat="44.81093" lon="3.16712">
        <ele>1134</ele>
        <time>2022-08-01T09:23:50Z</time>
      </trkpt>
      <trkpt lat="44.81091" lon="3.16712">
        <ele>1134.1</ele>
        <time>2022-08-01T09:23:52Z</time>
      </trkpt>
      <trkpt lat="44.81091" lon="3.16712">
        <ele>1134.1</ele>
        <time>2022-08-01T09:23:53Z</time>
      </trkpt>
      <trkpt lat="44.8109" lon="3.16712">
        <ele>1134.1</ele>
        <time>2022-08-01T09:23:55Z</time>
      </trkpt>
      <trkpt lat="44.81089" lon="3.16712">
        <ele>1134.1</ele>
        <time>2022-08-01T09:23:57Z</time>
      </trkpt>
      <trkpt lat="44.81089" lon="3.16712">
        <ele>1134.2</ele>
        <time>2022-08-01T09:23:59Z</time>
      </trkpt>
      <trkpt lat="44.81089" lon="3.16711">
        <ele>1134.2</ele>
        <time>2022-08-01T09:24:02Z</time>
      </trkpt>
      <trkpt lat="44.81089" lon="3.16711">
        <ele>1134.2</ele>
        <time>2022-08-01T09:24:04Z</time>
      </trkpt>
      <trkpt lat="44.81089" lon="3.16711">
        <ele>1134.2</ele>
        <time>2022-08-01T09:24:06Z</time>
      </trkpt>
      <trkpt lat="44.81089" lon="3.16711">
        <ele>1134.2</ele>
        <time>2022-08-01T09:24:09Z</time>
      </trkpt>
      <trkpt lat="44.81089" lon="3.16711">
        <ele>1134.2</ele>
        <time>2022-08-01T09:24:13Z</time>
      </trkpt>
      <trkpt lat="44.81087" lon="3.1671">
        <ele>1134.3</ele>
        <time>2022-08-01T09:24:14Z</time>
      </trkpt>
      <trkpt lat="44.81086" lon="3.16711">
        <ele>1134.3</ele>
        <time>2022-08-01T09:24:15Z</time>
      </trkpt>
      <trkpt lat="44.81082" lon="3.1671">
        <ele>1134.5</ele>
        <time>2022-08-01T09:24:17Z</time>
      </trkpt>
      <trkpt lat="44.81077" lon="3.16711">
        <ele>1134.6</ele>
        <time>2022-08-01T09:24:20Z</time>
      </trkpt>
      <trkpt lat="44.81073" lon="3.16713">
        <ele>1134.7</ele>
        <time>2022-08-01T09:24:23Z</time>
      </trkpt>
      <trkpt lat="44.81069" lon="3.16713">
        <ele>1134.8</ele>
        <time>2022-08-01T09:24:26Z</time>
      </trkpt>
      <trkpt lat="44.81065" lon="3.16714">
        <ele>1135</ele>
        <time>2022-08-01T09:24:30Z</time>
      </trkpt>
      <trkpt lat="44.8106" lon="3.16714">
        <ele>1135.1</ele>
        <time>2022-08-01T09:24:34Z</time>
      </trkpt>
      <trkpt lat="44.81059" lon="3.16714">
        <ele>1135.2</ele>
        <time>2022-08-01T09:24:35Z</time>
      </trkpt>
      <trkpt lat="44.81055" lon="3.16715">
        <ele>1135.3</ele>
        <time>2022-08-01T09:24:38Z</time>
      </trkpt>
      <trkpt lat="44.81051" lon="3.16715">
        <ele>1135.6</ele>
        <time>2022-08-01T09:24:42Z</time>
      </trkpt>
      <trkpt lat="44.8105" lon="3.16715">
        <ele>1135.6</ele>
        <time>2022-08-01T09:24:43Z</time>
      </trkpt>
      <trkpt lat="44.81045" lon="3.16716">
        <ele>1135.9</ele>
        <time>2022-08-01T09:24:46Z</time>
      </trkpt>
      <trkpt lat="44.81043" lon="3.16716">
        <ele>1136</ele>
        <time>2022-08-01T09:24:48Z</time>
      </trkpt>
      <trkpt lat="44.81039" lon="3.16715">
        <ele>1136.3</ele>
        <time>2022-08-01T09:24:51Z</time>
      </trkpt>
      <trkpt lat="44.81037" lon="3.16716">
        <ele>1136.4</ele>
        <time>2022-08-01T09:24:53Z</time>
      </trkpt>
      <trkpt lat="44.81032" lon="3.16717">
        <ele>1136.7</ele>
        <time>2022-08-01T09:24:57Z</time>
      </trkpt>
      <trkpt lat="44.81031" lon="3.16717">
        <ele>1136.8</ele>
        <time>2022-08-01T09:24:58Z</time>
      </trkpt>
      <trkpt lat="44.8103" lon="3.16718">
        <ele>1136.9</ele>
        <time>2022-08-01T09:24:59Z</time>
      </trkpt>
      <trkpt lat="44.81029" lon="3.16719">
        <ele>1136.9</ele>
        <time>2022-08-01T09:25:00Z</time>
      </trkpt>
      <trkpt lat="44.81028" lon="3.16719">
        <ele>1137</ele>
        <time>2022-08-01T09:25:01Z</time>
      </trkpt>
      <trkpt lat="44.81026" lon="3.16719">
        <ele>1137.1</ele>
        <time>2022-08-01T09:25:03Z</time>
      </trkpt>
      <trkpt lat="44.81025" lon="3.16719">
        <ele>1137.1</ele>
        <time>2022-08-01T09:25:04Z</time>
      </trkpt>
      <trkpt lat="44.81024" lon="3.16719">
        <ele>1137.1</ele>
        <time>2022-08-01T09:25:05Z</time>
      </trkpt>
      <trkpt lat="44.81023" lon="3.16719">
        <ele>1137.2</ele>
        <time>2022-08-01T09:25:06Z</time>
      </trkpt>
      <trkpt lat="44.8102" lon="3.16719">
        <ele>1137.3</ele>
        <time>2022-08-01T09:25:09Z</time>
      </trkpt>
      <trkpt lat="44.81018" lon="3.1672">
        <ele>1137.4</ele>
        <time>2022-08-01T09:25:11Z</time>
      </trkpt>
      <trkpt lat="44.81016" lon="3.16721">
        <ele>1137.4</ele>
        <time>2022-08-01T09:25:13Z</time>
      </trkpt>
      <trkpt lat="44.81013" lon="3.16723">
        <ele>1137.5</ele>
        <time>2022-08-01T09:25:15Z</time>
      </trkpt>
      <trkpt lat="44.8101" lon="3.16724">
        <ele>1137.6</ele>
        <time>2022-08-01T09:25:18Z</time>
      </trkpt>
      <trkpt lat="44.81008" lon="3.16726">
        <ele>1137.7</ele>
        <time>2022-08-01T09:25:20Z</time>
      </trkpt>
      <trkpt lat="44.81006" lon="3.16728">
        <ele>1137.8</ele>
        <time>2022-08-01T09:25:22Z</time>
      </trkpt>
      <trkpt lat="44.81005" lon="3.16729">
        <ele>1137.8</ele>
        <time>2022-08-01T09:25:23Z</time>
      </trkpt>
      <trkpt lat="44.81003" lon="3.1673">
        <ele>1137.9</ele>
        <time>2022-08-01T09:25:25Z</time>
      </trkpt>
      <trkpt lat="44.81" lon="3.16732">
        <ele>1138</ele>
        <time>2022-08-01T09:25:28Z</time>
      </trkpt>
      <trkpt lat="44.80998" lon="3.16733">
        <ele>1138.2</ele>
        <time>2022-08-01T09:25:30Z</time>
      </trkpt>
      <trkpt lat="44.80995" lon="3.16733">
        <ele>1138.3</ele>
        <time>2022-08-01T09:25:33Z</time>
      </trkpt>
      <trkpt lat="44.80994" lon="3.16732">
        <ele>1138.4</ele>
        <time>2022-08-01T09:25:36Z</time>
      </trkpt>
      <trkpt lat="44.80994" lon="3.16733">
        <ele>1138.4</ele>
        <time>2022-08-01T09:25:38Z</time>
      </trkpt>
      <trkpt lat="44.80994" lon="3.16734">
        <ele>1138.5</ele>
        <time>2022-08-01T09:25:39Z</time>
      </trkpt>
      <trkpt lat="44.80992" lon="3.16734">
        <ele>1138.5</ele>
        <time>2022-08-01T09:25:40Z</time>
      </trkpt>
      <trkpt lat="44.80992" lon="3.16734">
        <ele>1138.6</ele>
        <time>2022-08-01T09:25:41Z</time>
      </trkpt>
      <trkpt lat="44.8099" lon="3.16735">
        <ele>1138.7</ele>
        <time>2022-08-01T09:25:42Z</time>
      </trkpt>
      <trkpt lat="44.80986" lon="3.16739">
        <ele>1139</ele>
        <time>2022-08-01T09:25:47Z</time>
      </trkpt>
      <trkpt lat="44.80985" lon="3.1674">
        <ele>1139.1</ele>
        <time>2022-08-01T09:25:48Z</time>
      </trkpt>
      <trkpt lat="44.80984" lon="3.16741">
        <ele>1139.2</ele>
        <time>2022-08-01T09:25:49Z</time>
      </trkpt>
      <trkpt lat="44.80981" lon="3.16744">
        <ele>1139.4</ele>
        <time>2022-08-01T09:25:52Z</time>
      </trkpt>
      <trkpt lat="44.80978" lon="3.16745">
        <ele>1139.6</ele>
        <time>2022-08-01T09:25:54Z</time>
      </trkpt>
      <trkpt lat="44.80976" lon="3.16746">
        <ele>1139.7</ele>
        <time>2022-08-01T09:25:56Z</time>
      </trkpt>
      <trkpt lat="44.80975" lon="3.16747">
        <ele>1139.8</ele>
        <time>2022-08-01T09:25:57Z</time>
      </trkpt>
      <trkpt lat="44.80974" lon="3.16748">
        <ele>1139.9</ele>
        <time>2022-08-01T09:25:59Z</time>
      </trkpt>
      <trkpt lat="44.80973" lon="3.16747">
        <ele>1140</ele>
        <time>2022-08-01T09:26:01Z</time>
      </trkpt>
      <trkpt lat="44.80973" lon="3.16747">
        <ele>1139.9</ele>
        <time>2022-08-01T09:26:03Z</time>
      </trkpt>
      <trkpt lat="44.80973" lon="3.16747">
        <ele>1139.9</ele>
        <time>2022-08-01T09:26:05Z</time>
      </trkpt>
      <trkpt lat="44.80973" lon="3.16746">
        <ele>1139.9</ele>
        <time>2022-08-01T09:26:08Z</time>
      </trkpt>
      <trkpt lat="44.80971" lon="3.16747">
        <ele>1140.1</ele>
        <time>2022-08-01T09:26:12Z</time>
      </trkpt>
      <trkpt lat="44.80971" lon="3.16747">
        <ele>1140.1</ele>
        <time>2022-08-01T09:26:14Z</time>
      </trkpt>
      <trkpt lat="44.8097" lon="3.16747">
        <ele>1140.2</ele>
        <time>2022-08-01T09:26:16Z</time>
      </trkpt>
      <trkpt lat="44.80968" lon="3.16748">
        <ele>1140.3</ele>
        <time>2022-08-01T09:26:18Z</time>
      </trkpt>
      <trkpt lat="44.80966" lon="3.16751">
        <ele>1140.5</ele>
        <time>2022-08-01T09:26:21Z</time>
      </trkpt>
      <trkpt lat="44.80966" lon="3.16751">
        <ele>1140.5</ele>
        <time>2022-08-01T09:26:23Z</time>
      </trkpt>
      <trkpt lat="44.80966" lon="3.1675">
        <ele>1140.5</ele>
        <time>2022-08-01T09:26:25Z</time>
      </trkpt>
      <trkpt lat="44.80966" lon="3.1675">
        <ele>1140.5</ele>
        <time>2022-08-01T09:26:27Z</time>
      </trkpt>
      <trkpt lat="44.80965" lon="3.1675">
        <ele>1140.5</ele>
        <time>2022-08-01T09:26:34Z</time>
      </trkpt>
      <trkpt lat="44.80965" lon="3.1675">
        <ele>1140.5</ele>
        <time>2022-08-01T09:26:35Z</time>
      </trkpt>
      <trkpt lat="44.80965" lon="3.16751">
        <ele>1140.5</ele>
        <time>2022-08-01T09:26:37Z</time>
      </trkpt>
      <trkpt lat="44.80965" lon="3.1675">
        <ele>1140.5</ele>
        <time>2022-08-01T09:26:41Z</time>
      </trkpt>
      <trkpt lat="44.80964" lon="3.1675">
        <ele>1140.6</ele>
        <time>2022-08-01T09:26:50Z</time>
      </trkpt>
      <trkpt lat="44.80965" lon="3.1675">
        <ele>1140.5</ele>
        <time>2022-08-01T09:26:59Z</time>
      </trkpt>
      <trkpt lat="44.80965" lon="3.1675">
        <ele>1140.5</ele>
        <time>2022-08-01T09:27:00Z</time>
      </trkpt>
      <trkpt lat="44.80965" lon="3.1675">
        <ele>1140.5</ele>
        <time>2022-08-01T09:27:01Z</time>
      </trkpt>
      <trkpt lat="44.80965" lon="3.1675">
        <ele>1140.5</ele>
        <time>2022-08-01T09:27:03Z</time>
      </trkpt>
      <trkpt lat="44.80965" lon="3.1675">
        <ele>1140.5</ele>
        <time>2022-08-01T09:27:07Z</time>
      </trkpt>
      <trkpt lat="44.80965" lon="3.1675">
        <ele>1140.5</ele>
        <time>2022-08-01T09:27:11Z</time>
      </trkpt>
      <trkpt lat="44.80965" lon="3.1675">
        <ele>1140.5</ele>
        <time>2022-08-01T09:27:14Z</time>
      </trkpt>
      <trkpt lat="44.80965" lon="3.1675">
        <ele>1140.5</ele>
        <time>2022-08-01T09:27:20Z</time>
      </trkpt>
      <trkpt lat="44.80965" lon="3.1675">
        <ele>1140.5</ele>
        <time>2022-08-01T09:27:27Z</time>
      </trkpt>
      <trkpt lat="44.80965" lon="3.1675">
        <ele>1140.5</ele>
        <time>2022-08-01T09:27:32Z</time>
      </trkpt>
      <trkpt lat="44.80966" lon="3.1675">
        <ele>1140.5</ele>
        <time>2022-08-01T09:27:36Z</time>
      </trkpt>
      <trkpt lat="44.80966" lon="3.16749">
        <ele>1140.5</ele>
        <time>2022-08-01T09:27:39Z</time>
      </trkpt>
      <trkpt lat="44.80966" lon="3.16749">
        <ele>1140.5</ele>
        <time>2022-08-01T09:27:42Z</time>
      </trkpt>
      <trkpt lat="44.80966" lon="3.16749">
        <ele>1140.4</ele>
        <time>2022-08-01T09:27:55Z</time>
      </trkpt>
      <trkpt lat="44.80967" lon="3.16749">
        <ele>1140.4</ele>
        <time>2022-08-01T09:28:00Z</time>
      </trkpt>
      <trkpt lat="44.80967" lon="3.16749">
        <ele>1140.4</ele>
        <time>2022-08-01T09:28:04Z</time>
      </trkpt>
      <trkpt lat="44.80967" lon="3.16749">
        <ele>1140.4</ele>
        <time>2022-08-01T09:28:08Z</time>
      </trkpt>
      <trkpt lat="44.80967" lon="3.16749">
        <ele>1140.4</ele>
        <time>2022-08-01T09:28:11Z</time>
      </trkpt>
      <trkpt lat="44.80967" lon="3.16749">
        <ele>1140.4</ele>
        <time>2022-08-01T09:28:13Z</time>
      </trkpt>
      <trkpt lat="44.80967" lon="3.16749">
        <ele>1140.4</ele>
        <time>2022-08-01T09:28:14Z</time>
      </trkpt>
      <trkpt lat="44.80967" lon="3.16749">
        <ele>1140.4</ele>
        <time>2022-08-01T09:28:15Z</time>
      </trkpt>
      <trkpt lat="44.80967" lon="3.16749">
        <ele>1140.4</ele>
        <time>2022-08-01T09:28:16Z</time>
      </trkpt>
      <trkpt lat="44.80967" lon="3.16749">
        <ele>1140.4</ele>
        <time>2022-08-01T09:28:17Z</time>
      </trkpt>
      <trkpt lat="44.80967" lon="3.16749">
        <ele>1140.4</ele>
        <time>2022-08-01T09:28:18Z</time>
      </trkpt>
      <trkpt lat="44.80967" lon="3.16749">
        <ele>1140.4</ele>
        <time>2022-08-01T09:28:19Z</time>
      </trkpt>
      <trkpt lat="44.80967" lon="3.16749">
        <ele>1140.4</ele>
        <time>2022-08-01T09:28:20Z</time>
      </trkpt>
      <trkpt lat="44.80967" lon="3.16749">
        <ele>1140.4</ele>
        <time>2022-08-01T09:28:21Z</time>
      </trkpt>
      <trkpt lat="44.80967" lon="3.16749">
        <ele>1140.4</ele>
        <time>2022-08-01T09:28:22Z</time>
      </trkpt>
      <trkpt lat="44.80967" lon="3.16749">
        <ele>1140.4</ele>
        <time>2022-08-01T09:28:23Z</time>
      </trkpt>
      <trkpt lat="44.80967" lon="3.16749">
        <ele>1140.4</ele>
        <time>2022-08-01T09:28:25Z</time>
      </trkpt>
      <trkpt lat="44.80967" lon="3.16749">
        <ele>1140.4</ele>
        <time>2022-08-01T09:28:27Z</time>
      </trkpt>
      <trkpt lat="44.80966" lon="3.16749">
        <ele>1140.4</ele>
        <time>2022-08-01T09:28:29Z</time>
      </trkpt>
      <trkpt lat="44.80961" lon="3.16751">
        <ele>1140.8</ele>
        <time>2022-08-01T09:28:32Z</time>
      </trkpt>
      <trkpt lat="44.80948" lon="3.16753">
        <ele>1141.9</ele>
        <time>2022-08-01T09:28:42Z</time>
      </trkpt>
      <trkpt lat="44.80943" lon="3.16751">
        <ele>1142.2</ele>
        <time>2022-08-01T09:28:49Z</time>
      </trkpt>
      <trkpt lat="44.80943" lon="3.1675">
        <ele>1142.2</ele>
        <time>2022-08-01T09:28:50Z</time>
      </trkpt>
      <trkpt lat="44.80943" lon="3.16751">
        <ele>1142.2</ele>
        <time>2022-08-01T09:28:54Z</time>
      </trkpt>
      <trkpt lat="44.80943" lon="3.1675">
        <ele>1142.1</ele>
        <time>2022-08-01T09:28:56Z</time>
      </trkpt>
      <trkpt lat="44.80943" lon="3.16751">
        <ele>1142.2</ele>
        <time>2022-08-01T09:28:58Z</time>
      </trkpt>
      <trkpt lat="44.80943" lon="3.16751">
        <ele>1142.2</ele>
        <time>2022-08-01T09:28:59Z</time>
      </trkpt>
      <trkpt lat="44.80942" lon="3.16751">
        <ele>1142.3</ele>
        <time>2022-08-01T09:29:01Z</time>
      </trkpt>
      <trkpt lat="44.80942" lon="3.16751">
        <ele>1142.3</ele>
        <time>2022-08-01T09:29:03Z</time>
      </trkpt>
      <trkpt lat="44.80942" lon="3.16751">
        <ele>1142.3</ele>
        <time>2022-08-01T09:29:06Z</time>
      </trkpt>
      <trkpt lat="44.80943" lon="3.16751">
        <ele>1142.2</ele>
        <time>2022-08-01T09:29:09Z</time>
      </trkpt>
      <trkpt lat="44.80943" lon="3.16751">
        <ele>1142.2</ele>
        <time>2022-08-01T09:29:10Z</time>
      </trkpt>
      <trkpt lat="44.80943" lon="3.16751">
        <ele>1142.2</ele>
        <time>2022-08-01T09:29:12Z</time>
      </trkpt>
      <trkpt lat="44.80943" lon="3.16751">
        <ele>1142.2</ele>
        <time>2022-08-01T09:29:15Z</time>
      </trkpt>
      <trkpt lat="44.80943" lon="3.16751">
        <ele>1142.2</ele>
        <time>2022-08-01T09:29:16Z</time>
      </trkpt>
      <trkpt lat="44.80943" lon="3.1675">
        <ele>1142.2</ele>
        <time>2022-08-01T09:29:21Z</time>
      </trkpt>
      <trkpt lat="44.80942" lon="3.16751">
        <ele>1142.3</ele>
        <time>2022-08-01T09:29:29Z</time>
      </trkpt>
      <trkpt lat="44.80943" lon="3.16751">
        <ele>1142.2</ele>
        <time>2022-08-01T09:29:48Z</time>
      </trkpt>
      <trkpt lat="44.80943" lon="3.16751">
        <ele>1142.2</ele>
        <time>2022-08-01T09:29:57Z</time>
      </trkpt>
      <trkpt lat="44.80944" lon="3.16751">
        <ele>1142.1</ele>
        <time>2022-08-01T09:30:05Z</time>
      </trkpt>
      <trkpt lat="44.80944" lon="3.16751">
        <ele>1142.1</ele>
        <time>2022-08-01T09:30:10Z</time>
      </trkpt>
      <trkpt lat="44.80944" lon="3.16751">
        <ele>1142.1</ele>
        <time>2022-08-01T09:30:12Z</time>
      </trkpt>
      <trkpt lat="44.80944" lon="3.16751">
        <ele>1142.1</ele>
        <time>2022-08-01T09:30:15Z</time>
      </trkpt>
      <trkpt lat="44.80944" lon="3.16751">
        <ele>1142.1</ele>
        <time>2022-08-01T09:30:17Z</time>
      </trkpt>
      <trkpt lat="44.80944" lon="3.16751">
        <ele>1142.1</ele>
        <time>2022-08-01T09:30:19Z</time>
      </trkpt>
      <trkpt lat="44.80944" lon="3.16751">
        <ele>1142.1</ele>
        <time>2022-08-01T09:30:21Z</time>
      </trkpt>
      <trkpt lat="44.80944" lon="3.16751">
        <ele>1142.1</ele>
        <time>2022-08-01T09:30:23Z</time>
      </trkpt>
      <trkpt lat="44.80944" lon="3.16751">
        <ele>1142.1</ele>
        <time>2022-08-01T09:30:26Z</time>
      </trkpt>
      <trkpt lat="44.80944" lon="3.16751">
        <ele>1142.1</ele>
        <time>2022-08-01T09:30:29Z</time>
      </trkpt>
      <trkpt lat="44.80944" lon="3.16751">
        <ele>1142.1</ele>
        <time>2022-08-01T09:30:30Z</time>
      </trkpt>
      <trkpt lat="44.80944" lon="3.16751">
        <ele>1142.1</ele>
        <time>2022-08-01T09:30:31Z</time>
      </trkpt>
      <trkpt lat="44.80944" lon="3.16751">
        <ele>1142.1</ele>
        <time>2022-08-01T09:30:32Z</time>
      </trkpt>
      <trkpt lat="44.80944" lon="3.16751">
        <ele>1142.1</ele>
        <time>2022-08-01T09:30:33Z</time>
      </trkpt>
      <trkpt lat="44.80942" lon="3.16751">
        <ele>1142.3</ele>
        <time>2022-08-01T09:30:42Z</time>
      </trkpt>
      <trkpt lat="44.80936" lon="3.16749">
        <ele>1142.9</ele>
        <time>2022-08-01T09:30:47Z</time>
      </trkpt>
      <trkpt lat="44.80934" lon="3.16749">
        <ele>1143</ele>
        <time>2022-08-01T09:30:48Z</time>
      </trkpt>
      <trkpt lat="44.80932" lon="3.16748">
        <ele>1143.2</ele>
        <time>2022-08-01T09:30:50Z</time>
      </trkpt>
      <trkpt lat="44.80929" lon="3.16746">
        <ele>1143.5</ele>
        <time>2022-08-01T09:30:53Z</time>
      </trkpt>
      <trkpt lat="44.80924" lon="3.16745">
        <ele>1143.9</ele>
        <time>2022-08-01T09:30:57Z</time>
      </trkpt>
      <trkpt lat="44.80922" lon="3.16744">
        <ele>1144.1</ele>
        <time>2022-08-01T09:30:59Z</time>
      </trkpt>
      <trkpt lat="44.80921" lon="3.16744">
        <ele>1144.2</ele>
        <time>2022-08-01T09:31:00Z</time>
      </trkpt>
      <trkpt lat="44.80919" lon="3.16743">
        <ele>1144.3</ele>
        <time>2022-08-01T09:31:02Z</time>
      </trkpt>
      <trkpt lat="44.80916" lon="3.16742">
        <ele>1144.5</ele>
        <time>2022-08-01T09:31:04Z</time>
      </trkpt>
      <trkpt lat="44.80911" lon="3.16741">
        <ele>1144.6</ele>
        <time>2022-08-01T09:31:08Z</time>
      </trkpt>
      <trkpt lat="44.80907" lon="3.1674">
        <ele>1144.7</ele>
        <time>2022-08-01T09:31:12Z</time>
      </trkpt>
      <trkpt lat="44.809" lon="3.16737">
        <ele>1144.9</ele>
        <time>2022-08-01T09:31:18Z</time>
      </trkpt>
      <trkpt lat="44.80896" lon="3.16735">
        <ele>1145</ele>
        <time>2022-08-01T09:31:21Z</time>
      </trkpt>
      <trkpt lat="44.80895" lon="3.16735">
        <ele>1145.1</ele>
        <time>2022-08-01T09:31:22Z</time>
      </trkpt>
      <trkpt lat="44.80894" lon="3.16734">
        <ele>1145.1</ele>
        <time>2022-08-01T09:31:23Z</time>
      </trkpt>
      <trkpt lat="44.80893" lon="3.16734">
        <ele>1145.2</ele>
        <time>2022-08-01T09:31:24Z</time>
      </trkpt>
      <trkpt lat="44.80892" lon="3.16734">
        <ele>1145.2</ele>
        <time>2022-08-01T09:31:25Z</time>
      </trkpt>
      <trkpt lat="44.8089" lon="3.16732">
        <ele>1145.3</ele>
        <time>2022-08-01T09:31:27Z</time>
      </trkpt>
      <trkpt lat="44.80889" lon="3.16731">
        <ele>1145.3</ele>
        <time>2022-08-01T09:31:28Z</time>
      </trkpt>
      <trkpt lat="44.80887" lon="3.16731">
        <ele>1145.5</ele>
        <time>2022-08-01T09:31:30Z</time>
      </trkpt>
      <trkpt lat="44.80886" lon="3.16731">
        <ele>1145.6</ele>
        <time>2022-08-01T09:31:31Z</time>
      </trkpt>
      <trkpt lat="44.80884" lon="3.1673">
        <ele>1145.6</ele>
        <time>2022-08-01T09:31:32Z</time>
      </trkpt>
      <trkpt lat="44.80883" lon="3.1673">
        <ele>1145.7</ele>
        <time>2022-08-01T09:31:33Z</time>
      </trkpt>
      <trkpt lat="44.80881" lon="3.16728">
        <ele>1145.8</ele>
        <time>2022-08-01T09:31:35Z</time>
      </trkpt>
      <trkpt lat="44.80879" lon="3.16727">
        <ele>1145.9</ele>
        <time>2022-08-01T09:31:37Z</time>
      </trkpt>
      <trkpt lat="44.80876" lon="3.16725">
        <ele>1146</ele>
        <time>2022-08-01T09:31:39Z</time>
      </trkpt>
      <trkpt lat="44.80874" lon="3.16724">
        <ele>1146.1</ele>
        <time>2022-08-01T09:31:41Z</time>
      </trkpt>
      <trkpt lat="44.80873" lon="3.16724">
        <ele>1146.2</ele>
        <time>2022-08-01T09:31:42Z</time>
      </trkpt>
      <trkpt lat="44.80871" lon="3.16723">
        <ele>1146.3</ele>
        <time>2022-08-01T09:31:44Z</time>
      </trkpt>
      <trkpt lat="44.8087" lon="3.16722">
        <ele>1146.4</ele>
        <time>2022-08-01T09:31:45Z</time>
      </trkpt>
      <trkpt lat="44.80868" lon="3.16722">
        <ele>1146.4</ele>
        <time>2022-08-01T09:31:46Z</time>
      </trkpt>
      <trkpt lat="44.80866" lon="3.16721">
        <ele>1146.6</ele>
        <time>2022-08-01T09:31:48Z</time>
      </trkpt>
      <trkpt lat="44.80864" lon="3.1672">
        <ele>1146.7</ele>
        <time>2022-08-01T09:31:50Z</time>
      </trkpt>
      <trkpt lat="44.80861" lon="3.16718">
        <ele>1146.9</ele>
        <time>2022-08-01T09:31:53Z</time>
      </trkpt>
      <trkpt lat="44.80858" lon="3.16717">
        <ele>1147.1</ele>
        <time>2022-08-01T09:31:55Z</time>
      </trkpt>
      <trkpt lat="44.80856" lon="3.16716">
        <ele>1147.3</ele>
        <time>2022-08-01T09:31:57Z</time>
      </trkpt>
      <trkpt lat="44.80853" lon="3.16716">
        <ele>1147.6</ele>
        <time>2022-08-01T09:31:59Z</time>
      </trkpt>
      <trkpt lat="44.80851" lon="3.16715">
        <ele>1147.8</ele>
        <time>2022-08-01T09:32:01Z</time>
      </trkpt>
      <trkpt lat="44.80848" lon="3.16713">
        <ele>1147.9</ele>
        <time>2022-08-01T09:32:04Z</time>
      </trkpt>
      <trkpt lat="44.80844" lon="3.16712">
        <ele>1148.2</ele>
        <time>2022-08-01T09:32:07Z</time>
      </trkpt>
      <trkpt lat="44.80843" lon="3.16711">
        <ele>1148.2</ele>
        <time>2022-08-01T09:32:08Z</time>
      </trkpt>
      <trkpt lat="44.80841" lon="3.16709">
        <ele>1148.3</ele>
        <time>2022-08-01T09:32:10Z</time>
      </trkpt>
      <trkpt lat="44.80835" lon="3.16704">
        <ele>1148.5</ele>
        <time>2022-08-01T09:32:16Z</time>
      </trkpt>
      <trkpt lat="44.80831" lon="3.167">
        <ele>1148.7</ele>
        <time>2022-08-01T09:32:20Z</time>
      </trkpt>
      <trkpt lat="44.80828" lon="3.16695">
        <ele>1149.1</ele>
        <time>2022-08-01T09:32:24Z</time>
      </trkpt>
      <trkpt lat="44.80825" lon="3.16692">
        <ele>1149.3</ele>
        <time>2022-08-01T09:32:27Z</time>
      </trkpt>
      <trkpt lat="44.80821" lon="3.16686">
        <ele>1149.8</ele>
        <time>2022-08-01T09:32:32Z</time>
      </trkpt>
      <trkpt lat="44.8082" lon="3.16686">
        <ele>1149.9</ele>
        <time>2022-08-01T09:32:33Z</time>
      </trkpt>
      <trkpt lat="44.80819" lon="3.16684">
        <ele>1149.9</ele>
        <time>2022-08-01T09:32:34Z</time>
      </trkpt>
      <trkpt lat="44.80815" lon="3.16678">
        <ele>1150.3</ele>
        <time>2022-08-01T09:32:39Z</time>
      </trkpt>
      <trkpt lat="44.80812" lon="3.16675">
        <ele>1150.6</ele>
        <time>2022-08-01T09:32:42Z</time>
      </trkpt>
      <trkpt lat="44.80812" lon="3.16674">
        <ele>1150.6</ele>
        <time>2022-08-01T09:32:43Z</time>
      </trkpt>
      <trkpt lat="44.8081" lon="3.16672">
        <ele>1150.8</ele>
        <time>2022-08-01T09:32:45Z</time>
      </trkpt>
      <trkpt lat="44.80809" lon="3.16671">
        <ele>1150.8</ele>
        <time>2022-08-01T09:32:46Z</time>
      </trkpt>
      <trkpt lat="44.80807" lon="3.1667">
        <ele>1151</ele>
        <time>2022-08-01T09:32:48Z</time>
      </trkpt>
      <trkpt lat="44.80804" lon="3.16667">
        <ele>1151.3</ele>
        <time>2022-08-01T09:32:51Z</time>
      </trkpt>
      <trkpt lat="44.80802" lon="3.16665">
        <ele>1151.6</ele>
        <time>2022-08-01T09:32:53Z</time>
      </trkpt>
      <trkpt lat="44.80796" lon="3.1666">
        <ele>1152.6</ele>
        <time>2022-08-01T09:32:59Z</time>
      </trkpt>
      <trkpt lat="44.80794" lon="3.16659">
        <ele>1152.9</ele>
        <time>2022-08-01T09:33:01Z</time>
      </trkpt>
      <trkpt lat="44.80792" lon="3.16657">
        <ele>1153.3</ele>
        <time>2022-08-01T09:33:04Z</time>
      </trkpt>
      <trkpt lat="44.8079" lon="3.16656">
        <ele>1153.5</ele>
        <time>2022-08-01T09:33:05Z</time>
      </trkpt>
      <trkpt lat="44.80787" lon="3.16655">
        <ele>1154.1</ele>
        <time>2022-08-01T09:33:08Z</time>
      </trkpt>
      <trkpt lat="44.80786" lon="3.16655">
        <ele>1154.2</ele>
        <time>2022-08-01T09:33:09Z</time>
      </trkpt>
      <trkpt lat="44.80785" lon="3.16655">
        <ele>1154.3</ele>
        <time>2022-08-01T09:33:10Z</time>
      </trkpt>
      <trkpt lat="44.80784" lon="3.16654">
        <ele>1154.5</ele>
        <time>2022-08-01T09:33:11Z</time>
      </trkpt>
      <trkpt lat="44.80783" lon="3.16654">
        <ele>1154.6</ele>
        <time>2022-08-01T09:33:12Z</time>
      </trkpt>
      <trkpt lat="44.80782" lon="3.16653">
        <ele>1154.8</ele>
        <time>2022-08-01T09:33:13Z</time>
      </trkpt>
      <trkpt lat="44.8078" lon="3.16653">
        <ele>1155.2</ele>
        <time>2022-08-01T09:33:15Z</time>
      </trkpt>
      <trkpt lat="44.80779" lon="3.16653">
        <ele>1155.4</ele>
        <time>2022-08-01T09:33:16Z</time>
      </trkpt>
      <trkpt lat="44.80777" lon="3.16654">
        <ele>1155.7</ele>
        <time>2022-08-01T09:33:18Z</time>
      </trkpt>
      <trkpt lat="44.80774" lon="3.16654">
        <ele>1155.9</ele>
        <time>2022-08-01T09:33:20Z</time>
      </trkpt>
      <trkpt lat="44.80773" lon="3.16654">
        <ele>1156.1</ele>
        <time>2022-08-01T09:33:21Z</time>
      </trkpt>
      <trkpt lat="44.80772" lon="3.16653">
        <ele>1156.1</ele>
        <time>2022-08-01T09:33:22Z</time>
      </trkpt>
      <trkpt lat="44.8077" lon="3.16653">
        <ele>1156.4</ele>
        <time>2022-08-01T09:33:24Z</time>
      </trkpt>
      <trkpt lat="44.80767" lon="3.16654">
        <ele>1156.7</ele>
        <time>2022-08-01T09:33:27Z</time>
      </trkpt>
      <trkpt lat="44.80766" lon="3.16654">
        <ele>1156.8</ele>
        <time>2022-08-01T09:33:28Z</time>
      </trkpt>
      <trkpt lat="44.80765" lon="3.16654">
        <ele>1156.9</ele>
        <time>2022-08-01T09:33:29Z</time>
      </trkpt>
      <trkpt lat="44.80764" lon="3.16655">
        <ele>1157</ele>
        <time>2022-08-01T09:33:30Z</time>
      </trkpt>
      <trkpt lat="44.80762" lon="3.16655">
        <ele>1157.3</ele>
        <time>2022-08-01T09:33:32Z</time>
      </trkpt>
      <trkpt lat="44.8076" lon="3.16656">
        <ele>1157.5</ele>
        <time>2022-08-01T09:33:34Z</time>
      </trkpt>
      <trkpt lat="44.80759" lon="3.16656">
        <ele>1157.6</ele>
        <time>2022-08-01T09:33:35Z</time>
      </trkpt>
      <trkpt lat="44.80757" lon="3.16656">
        <ele>1157.8</ele>
        <time>2022-08-01T09:33:37Z</time>
      </trkpt>
      <trkpt lat="44.80756" lon="3.16656">
        <ele>1158</ele>
        <time>2022-08-01T09:33:38Z</time>
      </trkpt>
      <trkpt lat="44.80754" lon="3.16656">
        <ele>1158.2</ele>
        <time>2022-08-01T09:33:39Z</time>
      </trkpt>
      <trkpt lat="44.80754" lon="3.16656">
        <ele>1158.2</ele>
        <time>2022-08-01T09:33:40Z</time>
      </trkpt>
      <trkpt lat="44.80753" lon="3.16655">
        <ele>1158.3</ele>
        <time>2022-08-01T09:33:41Z</time>
      </trkpt>
      <trkpt lat="44.80751" lon="3.16656">
        <ele>1158.5</ele>
        <time>2022-08-01T09:33:43Z</time>
      </trkpt>
      <trkpt lat="44.80748" lon="3.16656">
        <ele>1158.7</ele>
        <time>2022-08-01T09:33:45Z</time>
      </trkpt>
      <trkpt lat="44.80747" lon="3.16656">
        <ele>1158.8</ele>
        <time>2022-08-01T09:33:46Z</time>
      </trkpt>
      <trkpt lat="44.80746" lon="3.16656">
        <ele>1158.8</ele>
        <time>2022-08-01T09:33:47Z</time>
      </trkpt>
      <trkpt lat="44.80745" lon="3.16656">
        <ele>1158.9</ele>
        <time>2022-08-01T09:33:48Z</time>
      </trkpt>
      <trkpt lat="44.80744" lon="3.16656">
        <ele>1158.9</ele>
        <time>2022-08-01T09:33:49Z</time>
      </trkpt>
      <trkpt lat="44.80743" lon="3.16657">
        <ele>1159</ele>
        <time>2022-08-01T09:33:50Z</time>
      </trkpt>
      <trkpt lat="44.80741" lon="3.16657">
        <ele>1159.1</ele>
        <time>2022-08-01T09:33:52Z</time>
      </trkpt>
      <trkpt lat="44.80738" lon="3.16658">
        <ele>1159.2</ele>
        <time>2022-08-01T09:33:54Z</time>
      </trkpt>
      <trkpt lat="44.80736" lon="3.16658">
        <ele>1159.3</ele>
        <time>2022-08-01T09:33:56Z</time>
      </trkpt>
      <trkpt lat="44.80735" lon="3.16659">
        <ele>1159.4</ele>
        <time>2022-08-01T09:33:57Z</time>
      </trkpt>
      <trkpt lat="44.80734" lon="3.16659">
        <ele>1159.4</ele>
        <time>2022-08-01T09:33:58Z</time>
      </trkpt>
      <trkpt lat="44.80733" lon="3.1666">
        <ele>1159.5</ele>
        <time>2022-08-01T09:33:59Z</time>
      </trkpt>
      <trkpt lat="44.80732" lon="3.1666">
        <ele>1159.6</ele>
        <time>2022-08-01T09:34:00Z</time>
      </trkpt>
      <trkpt lat="44.8073" lon="3.16661">
        <ele>1159.7</ele>
        <time>2022-08-01T09:34:02Z</time>
      </trkpt>
      <trkpt lat="44.80728" lon="3.16663">
        <ele>1159.8</ele>
        <time>2022-08-01T09:34:04Z</time>
      </trkpt>
      <trkpt lat="44.80727" lon="3.16664">
        <ele>1159.8</ele>
        <time>2022-08-01T09:34:05Z</time>
      </trkpt>
      <trkpt lat="44.80725" lon="3.16664">
        <ele>1159.9</ele>
        <time>2022-08-01T09:34:06Z</time>
      </trkpt>
      <trkpt lat="44.80725" lon="3.16665">
        <ele>1159.9</ele>
        <time>2022-08-01T09:34:07Z</time>
      </trkpt>
      <trkpt lat="44.80724" lon="3.16665">
        <ele>1159.9</ele>
        <time>2022-08-01T09:34:08Z</time>
      </trkpt>
      <trkpt lat="44.80724" lon="3.16665">
        <ele>1159.9</ele>
        <time>2022-08-01T09:34:09Z</time>
      </trkpt>
      <trkpt lat="44.80724" lon="3.16665">
        <ele>1159.9</ele>
        <time>2022-08-01T09:34:10Z</time>
      </trkpt>
      <trkpt lat="44.80725" lon="3.16665">
        <ele>1159.9</ele>
        <time>2022-08-01T09:34:11Z</time>
      </trkpt>
      <trkpt lat="44.80725" lon="3.16665">
        <ele>1159.9</ele>
        <time>2022-08-01T09:34:12Z</time>
      </trkpt>
      <trkpt lat="44.80726" lon="3.16664">
        <ele>1159.9</ele>
        <time>2022-08-01T09:34:14Z</time>
      </trkpt>
      <trkpt lat="44.80726" lon="3.16663">
        <ele>1159.8</ele>
        <time>2022-08-01T09:34:17Z</time>
      </trkpt>
      <trkpt lat="44.80726" lon="3.16663">
        <ele>1159.8</ele>
        <time>2022-08-01T09:34:18Z</time>
      </trkpt>
      <trkpt lat="44.80727" lon="3.16663">
        <ele>1159.8</ele>
        <time>2022-08-01T09:34:20Z</time>
      </trkpt>
      <trkpt lat="44.80727" lon="3.16664">
        <ele>1159.8</ele>
        <time>2022-08-01T09:34:21Z</time>
      </trkpt>
      <trkpt lat="44.80728" lon="3.16664">
        <ele>1159.8</ele>
        <time>2022-08-01T09:34:22Z</time>
      </trkpt>
      <trkpt lat="44.80728" lon="3.16664">
        <ele>1159.8</ele>
        <time>2022-08-01T09:34:23Z</time>
      </trkpt>
      <trkpt lat="44.80728" lon="3.16664">
        <ele>1159.8</ele>
        <time>2022-08-01T09:34:25Z</time>
      </trkpt>
      <trkpt lat="44.80728" lon="3.16664">
        <ele>1159.8</ele>
        <time>2022-08-01T09:34:31Z</time>
      </trkpt>
      <trkpt lat="44.80728" lon="3.16664">
        <ele>1159.8</ele>
        <time>2022-08-01T09:34:33Z</time>
      </trkpt>
      <trkpt lat="44.80727" lon="3.16664">
        <ele>1159.8</ele>
        <time>2022-08-01T09:34:35Z</time>
      </trkpt>
      <trkpt lat="44.80727" lon="3.16664">
        <ele>1159.8</ele>
        <time>2022-08-01T09:34:38Z</time>
      </trkpt>
      <trkpt lat="44.80726" lon="3.16664">
        <ele>1159.8</ele>
        <time>2022-08-01T09:34:47Z</time>
      </trkpt>
      <trkpt lat="44.80724" lon="3.16664">
        <ele>1159.9</ele>
        <time>2022-08-01T09:34:49Z</time>
      </trkpt>
      <trkpt lat="44.80722" lon="3.16665">
        <ele>1160</ele>
        <time>2022-08-01T09:34:50Z</time>
      </trkpt>
      <trkpt lat="44.8072" lon="3.16666">
        <ele>1160</ele>
        <time>2022-08-01T09:34:51Z</time>
      </trkpt>
      <trkpt lat="44.80719" lon="3.16667">
        <ele>1160</ele>
        <time>2022-08-01T09:34:52Z</time>
      </trkpt>
      <trkpt lat="44.80717" lon="3.16667">
        <ele>1160</ele>
        <time>2022-08-01T09:34:53Z</time>
      </trkpt>
      <trkpt lat="44.80715" lon="3.16668">
        <ele>1160</ele>
        <time>2022-08-01T09:34:54Z</time>
      </trkpt>
      <trkpt lat="44.80712" lon="3.16668">
        <ele>1160.1</ele>
        <time>2022-08-01T09:34:56Z</time>
      </trkpt>
      <trkpt lat="44.80711" lon="3.16669">
        <ele>1160.1</ele>
        <time>2022-08-01T09:34:57Z</time>
      </trkpt>
      <trkpt lat="44.80711" lon="3.16669">
        <ele>1160.1</ele>
        <time>2022-08-01T09:34:58Z</time>
      </trkpt>
      <trkpt lat="44.80711" lon="3.16669">
        <ele>1160.1</ele>
        <time>2022-08-01T09:34:59Z</time>
      </trkpt>
      <trkpt lat="44.80711" lon="3.16669">
        <ele>1160.1</ele>
        <time>2022-08-01T09:35:01Z</time>
      </trkpt>
      <trkpt lat="44.80708" lon="3.1667">
        <ele>1160.2</ele>
        <time>2022-08-01T09:35:06Z</time>
      </trkpt>
      <trkpt lat="44.80707" lon="3.16671">
        <ele>1160.2</ele>
        <time>2022-08-01T09:35:07Z</time>
      </trkpt>
      <trkpt lat="44.80705" lon="3.16671">
        <ele>1160.3</ele>
        <time>2022-08-01T09:35:08Z</time>
      </trkpt>
      <trkpt lat="44.80703" lon="3.16671">
        <ele>1160.3</ele>
        <time>2022-08-01T09:35:10Z</time>
      </trkpt>
      <trkpt lat="44.80699" lon="3.16672">
        <ele>1160.3</ele>
        <time>2022-08-01T09:35:13Z</time>
      </trkpt>
      <trkpt lat="44.80698" lon="3.16672">
        <ele>1160.4</ele>
        <time>2022-08-01T09:35:14Z</time>
      </trkpt>
      <trkpt lat="44.80696" lon="3.16673">
        <ele>1160.4</ele>
        <time>2022-08-01T09:35:16Z</time>
      </trkpt>
      <trkpt lat="44.80694" lon="3.16674">
        <ele>1160.5</ele>
        <time>2022-08-01T09:35:18Z</time>
      </trkpt>
      <trkpt lat="44.80691" lon="3.16675">
        <ele>1160.6</ele>
        <time>2022-08-01T09:35:20Z</time>
      </trkpt>
      <trkpt lat="44.8069" lon="3.16675">
        <ele>1160.6</ele>
        <time>2022-08-01T09:35:21Z</time>
      </trkpt>
      <trkpt lat="44.80688" lon="3.16676">
        <ele>1160.6</ele>
        <time>2022-08-01T09:35:22Z</time>
      </trkpt>
      <trkpt lat="44.80687" lon="3.16676">
        <ele>1160.7</ele>
        <time>2022-08-01T09:35:23Z</time>
      </trkpt>
      <trkpt lat="44.80685" lon="3.16677">
        <ele>1160.7</ele>
        <time>2022-08-01T09:35:25Z</time>
      </trkpt>
      <trkpt lat="44.80682" lon="3.16677">
        <ele>1160.8</ele>
        <time>2022-08-01T09:35:28Z</time>
      </trkpt>
      <trkpt lat="44.80679" lon="3.16678">
        <ele>1160.8</ele>
        <time>2022-08-01T09:35:31Z</time>
      </trkpt>
      <trkpt lat="44.80678" lon="3.16678">
        <ele>1160.8</ele>
        <time>2022-08-01T09:35:32Z</time>
      </trkpt>
      <trkpt lat="44.80672" lon="3.16679">
        <ele>1160.9</ele>
        <time>2022-08-01T09:35:37Z</time>
      </trkpt>
      <trkpt lat="44.80668" lon="3.1668">
        <ele>1161</ele>
        <time>2022-08-01T09:35:41Z</time>
      </trkpt>
      <trkpt lat="44.80666" lon="3.16681">
        <ele>1161</ele>
        <time>2022-08-01T09:35:42Z</time>
      </trkpt>
      <trkpt lat="44.80664" lon="3.16682">
        <ele>1161</ele>
        <time>2022-08-01T09:35:44Z</time>
      </trkpt>
      <trkpt lat="44.80662" lon="3.16682">
        <ele>1161</ele>
        <time>2022-08-01T09:35:45Z</time>
      </trkpt>
      <trkpt lat="44.80661" lon="3.16682">
        <ele>1160.9</ele>
        <time>2022-08-01T09:35:46Z</time>
      </trkpt>
      <trkpt lat="44.80659" lon="3.16683">
        <ele>1160.9</ele>
        <time>2022-08-01T09:35:48Z</time>
      </trkpt>
      <trkpt lat="44.80656" lon="3.16684">
        <ele>1160.9</ele>
        <time>2022-08-01T09:35:50Z</time>
      </trkpt>
      <trkpt lat="44.80654" lon="3.16685">
        <ele>1160.9</ele>
        <time>2022-08-01T09:35:52Z</time>
      </trkpt>
      <trkpt lat="44.8065" lon="3.16686">
        <ele>1160.8</ele>
        <time>2022-08-01T09:35:55Z</time>
      </trkpt>
      <trkpt lat="44.80648" lon="3.16687">
        <ele>1160.8</ele>
        <time>2022-08-01T09:35:57Z</time>
      </trkpt>
      <trkpt lat="44.80646" lon="3.16688">
        <ele>1160.7</ele>
        <time>2022-08-01T09:35:59Z</time>
      </trkpt>
      <trkpt lat="44.80643" lon="3.16689">
        <ele>1160.7</ele>
        <time>2022-08-01T09:36:01Z</time>
      </trkpt>
      <trkpt lat="44.80642" lon="3.16689">
        <ele>1160.7</ele>
        <time>2022-08-01T09:36:02Z</time>
      </trkpt>
      <trkpt lat="44.80641" lon="3.16689">
        <ele>1160.7</ele>
        <time>2022-08-01T09:36:03Z</time>
      </trkpt>
      <trkpt lat="44.80638" lon="3.1669">
        <ele>1160.7</ele>
        <time>2022-08-01T09:36:05Z</time>
      </trkpt>
      <trkpt lat="44.80635" lon="3.16692">
        <ele>1160.6</ele>
        <time>2022-08-01T09:36:08Z</time>
      </trkpt>
      <trkpt lat="44.80631" lon="3.16694">
        <ele>1160.7</ele>
        <time>2022-08-01T09:36:11Z</time>
      </trkpt>
      <trkpt lat="44.80629" lon="3.16696">
        <ele>1160.7</ele>
        <time>2022-08-01T09:36:13Z</time>
      </trkpt>
      <trkpt lat="44.80626" lon="3.16697">
        <ele>1160.6</ele>
        <time>2022-08-01T09:36:15Z</time>
      </trkpt>
      <trkpt lat="44.80624" lon="3.16698">
        <ele>1160.6</ele>
        <time>2022-08-01T09:36:17Z</time>
      </trkpt>
      <trkpt lat="44.80623" lon="3.167">
        <ele>1160.6</ele>
        <time>2022-08-01T09:36:18Z</time>
      </trkpt>
      <trkpt lat="44.80622" lon="3.167">
        <ele>1160.6</ele>
        <time>2022-08-01T09:36:19Z</time>
      </trkpt>
      <trkpt lat="44.80621" lon="3.16701">
        <ele>1160.6</ele>
        <time>2022-08-01T09:36:20Z</time>
      </trkpt>
      <trkpt lat="44.80618" lon="3.16703">
        <ele>1160.5</ele>
        <time>2022-08-01T09:36:23Z</time>
      </trkpt>
      <trkpt lat="44.80615" lon="3.16704">
        <ele>1160.5</ele>
        <time>2022-08-01T09:36:25Z</time>
      </trkpt>
      <trkpt lat="44.80613" lon="3.16706">
        <ele>1160.5</ele>
        <time>2022-08-01T09:36:27Z</time>
      </trkpt>
      <trkpt lat="44.80611" lon="3.16707">
        <ele>1160.5</ele>
        <time>2022-08-01T09:36:29Z</time>
      </trkpt>
      <trkpt lat="44.80611" lon="3.16707">
        <ele>1160.5</ele>
        <time>2022-08-01T09:36:31Z</time>
      </trkpt>
      <trkpt lat="44.8061" lon="3.16707">
        <ele>1160.4</ele>
        <time>2022-08-01T09:36:32Z</time>
      </trkpt>
      <trkpt lat="44.80609" lon="3.16707">
        <ele>1160.5</ele>
        <time>2022-08-01T09:36:34Z</time>
      </trkpt>
      <trkpt lat="44.80608" lon="3.16708">
        <ele>1160.5</ele>
        <time>2022-08-01T09:36:37Z</time>
      </trkpt>
      <trkpt lat="44.80606" lon="3.1671">
        <ele>1160.6</ele>
        <time>2022-08-01T09:36:41Z</time>
      </trkpt>
      <trkpt lat="44.80603" lon="3.16712">
        <ele>1160.6</ele>
        <time>2022-08-01T09:36:43Z</time>
      </trkpt>
      <trkpt lat="44.80602" lon="3.16713">
        <ele>1160.7</ele>
        <time>2022-08-01T09:36:44Z</time>
      </trkpt>
      <trkpt lat="44.80601" lon="3.16714">
        <ele>1160.7</ele>
        <time>2022-08-01T09:36:45Z</time>
      </trkpt>
      <trkpt lat="44.80596" lon="3.16717">
        <ele>1160.8</ele>
        <time>2022-08-01T09:36:49Z</time>
      </trkpt>
      <trkpt lat="44.80592" lon="3.16719">
        <ele>1160.9</ele>
        <time>2022-08-01T09:36:53Z</time>
      </trkpt>
      <trkpt lat="44.80591" lon="3.1672">
        <ele>1160.9</ele>
        <time>2022-08-01T09:36:54Z</time>
      </trkpt>
      <trkpt lat="44.80586" lon="3.16724">
        <ele>1161</ele>
        <time>2022-08-01T09:36:58Z</time>
      </trkpt>
      <trkpt lat="44.80585" lon="3.16724">
        <ele>1161</ele>
        <time>2022-08-01T09:36:59Z</time>
      </trkpt>
      <trkpt lat="44.80584" lon="3.16725">
        <ele>1161</ele>
        <time>2022-08-01T09:37:00Z</time>
      </trkpt>
      <trkpt lat="44.80583" lon="3.16727">
        <ele>1161</ele>
        <time>2022-08-01T09:37:01Z</time>
      </trkpt>
      <trkpt lat="44.80582" lon="3.16728">
        <ele>1161</ele>
        <time>2022-08-01T09:37:02Z</time>
      </trkpt>
      <trkpt lat="44.80574" lon="3.16733">
        <ele>1160.8</ele>
        <time>2022-08-01T09:37:10Z</time>
      </trkpt>
      <trkpt lat="44.80573" lon="3.16734">
        <ele>1160.8</ele>
        <time>2022-08-01T09:37:11Z</time>
      </trkpt>
      <trkpt lat="44.80571" lon="3.16735">
        <ele>1160.8</ele>
        <time>2022-08-01T09:37:12Z</time>
      </trkpt>
      <trkpt lat="44.80567" lon="3.16738">
        <ele>1160.7</ele>
        <time>2022-08-01T09:37:16Z</time>
      </trkpt>
      <trkpt lat="44.80564" lon="3.16739">
        <ele>1160.7</ele>
        <time>2022-08-01T09:37:18Z</time>
      </trkpt>
      <trkpt lat="44.80561" lon="3.1674">
        <ele>1160.7</ele>
        <time>2022-08-01T09:37:21Z</time>
      </trkpt>
      <trkpt lat="44.80557" lon="3.16743">
        <ele>1160.8</ele>
        <time>2022-08-01T09:37:25Z</time>
      </trkpt>
      <trkpt lat="44.80556" lon="3.16743">
        <ele>1160.8</ele>
        <time>2022-08-01T09:37:26Z</time>
      </trkpt>
      <trkpt lat="44.80556" lon="3.16744">
        <ele>1160.8</ele>
        <time>2022-08-01T09:37:27Z</time>
      </trkpt>
      <trkpt lat="44.80553" lon="3.16745">
        <ele>1160.8</ele>
        <time>2022-08-01T09:37:29Z</time>
      </trkpt>
      <trkpt lat="44.80551" lon="3.16746">
        <ele>1160.9</ele>
        <time>2022-08-01T09:37:31Z</time>
      </trkpt>
      <trkpt lat="44.8055" lon="3.16747">
        <ele>1160.9</ele>
        <time>2022-08-01T09:37:32Z</time>
      </trkpt>
      <trkpt lat="44.80549" lon="3.16747">
        <ele>1160.9</ele>
        <time>2022-08-01T09:37:33Z</time>
      </trkpt>
      <trkpt lat="44.80547" lon="3.16749">
        <ele>1161</ele>
        <time>2022-08-01T09:37:35Z</time>
      </trkpt>
      <trkpt lat="44.80544" lon="3.16751">
        <ele>1161</ele>
        <time>2022-08-01T09:37:37Z</time>
      </trkpt>
      <trkpt lat="44.80542" lon="3.16752">
        <ele>1161</ele>
        <time>2022-08-01T09:37:39Z</time>
      </trkpt>
      <trkpt lat="44.8054" lon="3.16753">
        <ele>1161</ele>
        <time>2022-08-01T09:37:41Z</time>
      </trkpt>
      <trkpt lat="44.80539" lon="3.16754">
        <ele>1161</ele>
        <time>2022-08-01T09:37:42Z</time>
      </trkpt>
      <trkpt lat="44.80539" lon="3.16754">
        <ele>1161</ele>
        <time>2022-08-01T09:37:43Z</time>
      </trkpt>
      <trkpt lat="44.80539" lon="3.16754">
        <ele>1161</ele>
        <time>2022-08-01T09:37:44Z</time>
      </trkpt>
      <trkpt lat="44.80539" lon="3.16754">
        <ele>1161</ele>
        <time>2022-08-01T09:37:46Z</time>
      </trkpt>
      <trkpt lat="44.80539" lon="3.16754">
        <ele>1161</ele>
        <time>2022-08-01T09:37:47Z</time>
      </trkpt>
      <trkpt lat="44.80537" lon="3.16754">
        <ele>1161</ele>
        <time>2022-08-01T09:37:51Z</time>
      </trkpt>
      <trkpt lat="44.80537" lon="3.16753">
        <ele>1161</ele>
        <time>2022-08-01T09:37:54Z</time>
      </trkpt>
      <trkpt lat="44.80537" lon="3.16752">
        <ele>1161</ele>
        <time>2022-08-01T09:38:01Z</time>
      </trkpt>
      <trkpt lat="44.80537" lon="3.16752">
        <ele>1161</ele>
        <time>2022-08-01T09:38:05Z</time>
      </trkpt>
      <trkpt lat="44.80536" lon="3.16753">
        <ele>1161</ele>
        <time>2022-08-01T09:38:06Z</time>
      </trkpt>
      <trkpt lat="44.80525" lon="3.1676">
        <ele>1161.1</ele>
        <time>2022-08-01T09:38:13Z</time>
      </trkpt>
      <trkpt lat="44.80522" lon="3.16764">
        <ele>1161.2</ele>
        <time>2022-08-01T09:38:15Z</time>
      </trkpt>
      <trkpt lat="44.80518" lon="3.16766">
        <ele>1161.4</ele>
        <time>2022-08-01T09:38:19Z</time>
      </trkpt>
      <trkpt lat="44.80517" lon="3.16767">
        <ele>1161.4</ele>
        <time>2022-08-01T09:38:20Z</time>
      </trkpt>
      <trkpt lat="44.80516" lon="3.16767">
        <ele>1161.4</ele>
        <time>2022-08-01T09:38:21Z</time>
      </trkpt>
      <trkpt lat="44.80515" lon="3.16768">
        <ele>1161.5</ele>
        <time>2022-08-01T09:38:22Z</time>
      </trkpt>
      <trkpt lat="44.80514" lon="3.16768">
        <ele>1161.5</ele>
        <time>2022-08-01T09:38:23Z</time>
      </trkpt>
      <trkpt lat="44.80513" lon="3.16768">
        <ele>1161.5</ele>
        <time>2022-08-01T09:38:25Z</time>
      </trkpt>
      <trkpt lat="44.8051" lon="3.16769">
        <ele>1161.6</ele>
        <time>2022-08-01T09:38:28Z</time>
      </trkpt>
      <trkpt lat="44.80509" lon="3.16769">
        <ele>1161.7</ele>
        <time>2022-08-01T09:38:29Z</time>
      </trkpt>
      <trkpt lat="44.80508" lon="3.1677">
        <ele>1161.7</ele>
        <time>2022-08-01T09:38:30Z</time>
      </trkpt>
      <trkpt lat="44.80504" lon="3.16771">
        <ele>1161.8</ele>
        <time>2022-08-01T09:38:33Z</time>
      </trkpt>
      <trkpt lat="44.805" lon="3.16773">
        <ele>1162</ele>
        <time>2022-08-01T09:38:37Z</time>
      </trkpt>
      <trkpt lat="44.80497" lon="3.16774">
        <ele>1162</ele>
        <time>2022-08-01T09:38:39Z</time>
      </trkpt>
      <trkpt lat="44.80495" lon="3.16775">
        <ele>1162</ele>
        <time>2022-08-01T09:38:41Z</time>
      </trkpt>
      <trkpt lat="44.80494" lon="3.16776">
        <ele>1162</ele>
        <time>2022-08-01T09:38:42Z</time>
      </trkpt>
      <trkpt lat="44.80491" lon="3.16777">
        <ele>1162</ele>
        <time>2022-08-01T09:38:45Z</time>
      </trkpt>
      <trkpt lat="44.80488" lon="3.1678">
        <ele>1162</ele>
        <time>2022-08-01T09:38:48Z</time>
      </trkpt>
      <trkpt lat="44.80487" lon="3.1678">
        <ele>1162</ele>
        <time>2022-08-01T09:38:49Z</time>
      </trkpt>
      <trkpt lat="44.80485" lon="3.16781">
        <ele>1162</ele>
        <time>2022-08-01T09:38:51Z</time>
      </trkpt>
      <trkpt lat="44.80483" lon="3.16782">
        <ele>1162</ele>
        <time>2022-08-01T09:38:52Z</time>
      </trkpt>
      <trkpt lat="44.80482" lon="3.16782">
        <ele>1162</ele>
        <time>2022-08-01T09:38:53Z</time>
      </trkpt>
      <trkpt lat="44.80479" lon="3.16785">
        <ele>1162</ele>
        <time>2022-08-01T09:38:56Z</time>
      </trkpt>
      <trkpt lat="44.80477" lon="3.16786">
        <ele>1162</ele>
        <time>2022-08-01T09:38:58Z</time>
      </trkpt>
      <trkpt lat="44.80473" lon="3.16788">
        <ele>1162</ele>
        <time>2022-08-01T09:39:01Z</time>
      </trkpt>
      <trkpt lat="44.80472" lon="3.16788">
        <ele>1162</ele>
        <time>2022-08-01T09:39:02Z</time>
      </trkpt>
      <trkpt lat="44.80471" lon="3.16789">
        <ele>1162.1</ele>
        <time>2022-08-01T09:39:04Z</time>
      </trkpt>
      <trkpt lat="44.80468" lon="3.16791">
        <ele>1162.2</ele>
        <time>2022-08-01T09:39:07Z</time>
      </trkpt>
      <trkpt lat="44.80466" lon="3.16792">
        <ele>1162.3</ele>
        <time>2022-08-01T09:39:09Z</time>
      </trkpt>
      <trkpt lat="44.80466" lon="3.16792">
        <ele>1162.3</ele>
        <time>2022-08-01T09:39:10Z</time>
      </trkpt>
      <trkpt lat="44.80462" lon="3.16794">
        <ele>1162.5</ele>
        <time>2022-08-01T09:39:13Z</time>
      </trkpt>
      <trkpt lat="44.80461" lon="3.16795">
        <ele>1162.6</ele>
        <time>2022-08-01T09:39:16Z</time>
      </trkpt>
      <trkpt lat="44.80461" lon="3.16794">
        <ele>1162.6</ele>
        <time>2022-08-01T09:39:17Z</time>
      </trkpt>
      <trkpt lat="44.80461" lon="3.16793">
        <ele>1162.6</ele>
        <time>2022-08-01T09:39:20Z</time>
      </trkpt>
      <trkpt lat="44.80456" lon="3.16794">
        <ele>1162.8</ele>
        <time>2022-08-01T09:39:28Z</time>
      </trkpt>
      <trkpt lat="44.80448" lon="3.16797">
        <ele>1163.1</ele>
        <time>2022-08-01T09:39:34Z</time>
      </trkpt>
      <trkpt lat="44.80443" lon="3.16798">
        <ele>1163.3</ele>
        <time>2022-08-01T09:39:38Z</time>
      </trkpt>
      <trkpt lat="44.80442" lon="3.16799">
        <ele>1163.2</ele>
        <time>2022-08-01T09:39:39Z</time>
      </trkpt>
      <trkpt lat="44.80439" lon="3.16799">
        <ele>1163.2</ele>
        <time>2022-08-01T09:39:41Z</time>
      </trkpt>
      <trkpt lat="44.80434" lon="3.168">
        <ele>1163.2</ele>
        <time>2022-08-01T09:39:45Z</time>
      </trkpt>
      <trkpt lat="44.80427" lon="3.16802">
        <ele>1163.1</ele>
        <time>2022-08-01T09:39:50Z</time>
      </trkpt>
      <trkpt lat="44.80422" lon="3.16803">
        <ele>1163.1</ele>
        <time>2022-08-01T09:39:54Z</time>
      </trkpt>
      <trkpt lat="44.80423" lon="3.16802">
        <ele>1163.1</ele>
        <time>2022-08-01T09:39:56Z</time>
      </trkpt>
      <trkpt lat="44.80422" lon="3.16802">
        <ele>1163.1</ele>
        <time>2022-08-01T09:39:59Z</time>
      </trkpt>
      <trkpt lat="44.80423" lon="3.16802">
        <ele>1163.1</ele>
        <time>2022-08-01T09:40:01Z</time>
      </trkpt>
      <trkpt lat="44.80424" lon="3.16801">
        <ele>1163.2</ele>
        <time>2022-08-01T09:40:03Z</time>
      </trkpt>
      <trkpt lat="44.80425" lon="3.168">
        <ele>1163.2</ele>
        <time>2022-08-01T09:40:04Z</time>
      </trkpt>
      <trkpt lat="44.80429" lon="3.168">
        <ele>1163.2</ele>
        <time>2022-08-01T09:40:06Z</time>
      </trkpt>
      <trkpt lat="44.80433" lon="3.16799">
        <ele>1163.2</ele>
        <time>2022-08-01T09:40:08Z</time>
      </trkpt>
      <trkpt lat="44.80435" lon="3.16799">
        <ele>1163.2</ele>
        <time>2022-08-01T09:40:09Z</time>
      </trkpt>
      <trkpt lat="44.80437" lon="3.16799">
        <ele>1163.2</ele>
        <time>2022-08-01T09:40:10Z</time>
      </trkpt>
      <trkpt lat="44.80439" lon="3.16798">
        <ele>1163.3</ele>
        <time>2022-08-01T09:40:12Z</time>
      </trkpt>
      <trkpt lat="44.8044" lon="3.16798">
        <ele>1163.3</ele>
        <time>2022-08-01T09:40:13Z</time>
      </trkpt>
      <trkpt lat="44.80441" lon="3.16797">
        <ele>1163.3</ele>
        <time>2022-08-01T09:40:14Z</time>
      </trkpt>
      <trkpt lat="44.80444" lon="3.16797">
        <ele>1163.3</ele>
        <time>2022-08-01T09:40:16Z</time>
      </trkpt>
      <trkpt lat="44.80446" lon="3.16797">
        <ele>1163.3</ele>
        <time>2022-08-01T09:40:17Z</time>
      </trkpt>
      <trkpt lat="44.80447" lon="3.16796">
        <ele>1163.2</ele>
        <time>2022-08-01T09:40:18Z</time>
      </trkpt>
      <trkpt lat="44.8045" lon="3.16795">
        <ele>1163.1</ele>
        <time>2022-08-01T09:40:20Z</time>
      </trkpt>
      <trkpt lat="44.80452" lon="3.16794">
        <ele>1163</ele>
        <time>2022-08-01T09:40:21Z</time>
      </trkpt>
      <trkpt lat="44.80453" lon="3.16793">
        <ele>1163</ele>
        <time>2022-08-01T09:40:22Z</time>
      </trkpt>
      <trkpt lat="44.80454" lon="3.16793">
        <ele>1163</ele>
        <time>2022-08-01T09:40:23Z</time>
      </trkpt>
      <trkpt lat="44.80456" lon="3.16792">
        <ele>1162.9</ele>
        <time>2022-08-01T09:40:25Z</time>
      </trkpt>
      <trkpt lat="44.80457" lon="3.16791">
        <ele>1162.8</ele>
        <time>2022-08-01T09:40:26Z</time>
      </trkpt>
      <trkpt lat="44.80458" lon="3.16791">
        <ele>1162.8</ele>
        <time>2022-08-01T09:40:27Z</time>
      </trkpt>
      <trkpt lat="44.8046" lon="3.16789">
        <ele>1162.7</ele>
        <time>2022-08-01T09:40:29Z</time>
      </trkpt>
      <trkpt lat="44.80462" lon="3.16788">
        <ele>1162.6</ele>
        <time>2022-08-01T09:40:30Z</time>
      </trkpt>
      <trkpt lat="44.80463" lon="3.16788">
        <ele>1162.5</ele>
        <time>2022-08-01T09:40:31Z</time>
      </trkpt>
      <trkpt lat="44.80465" lon="3.16788">
        <ele>1162.4</ele>
        <time>2022-08-01T09:40:32Z</time>
      </trkpt>
      <trkpt lat="44.80468" lon="3.16787">
        <ele>1162.3</ele>
        <time>2022-08-01T09:40:34Z</time>
      </trkpt>
      <trkpt lat="44.8047" lon="3.16785">
        <ele>1162.1</ele>
        <time>2022-08-01T09:40:36Z</time>
      </trkpt>
      <trkpt lat="44.80474" lon="3.16784">
        <ele>1162</ele>
        <time>2022-08-01T09:40:38Z</time>
      </trkpt>
      <trkpt lat="44.80477" lon="3.16782">
        <ele>1162</ele>
        <time>2022-08-01T09:40:41Z</time>
      </trkpt>
      <trkpt lat="44.8048" lon="3.16782">
        <ele>1162</ele>
        <time>2022-08-01T09:40:43Z</time>
      </trkpt>
      <trkpt lat="44.80481" lon="3.16781">
        <ele>1162</ele>
        <time>2022-08-01T09:40:44Z</time>
      </trkpt>
      <trkpt lat="44.80483" lon="3.1678">
        <ele>1162</ele>
        <time>2022-08-01T09:40:45Z</time>
      </trkpt>
      <trkpt lat="44.80484" lon="3.1678">
        <ele>1162</ele>
        <time>2022-08-01T09:40:46Z</time>
      </trkpt>
      <trkpt lat="44.80485" lon="3.16779">
        <ele>1162</ele>
        <time>2022-08-01T09:40:47Z</time>
      </trkpt>
      <trkpt lat="44.80486" lon="3.16779">
        <ele>1162</ele>
        <time>2022-08-01T09:40:48Z</time>
      </trkpt>
      <trkpt lat="44.80487" lon="3.1678">
        <ele>1162</ele>
        <time>2022-08-01T09:40:49Z</time>
      </trkpt>
      <trkpt lat="44.80486" lon="3.16781">
        <ele>1162</ele>
        <time>2022-08-01T09:40:50Z</time>
      </trkpt>
      <trkpt lat="44.80485" lon="3.16781">
        <ele>1162</ele>
        <time>2022-08-01T09:40:51Z</time>
      </trkpt>
      <trkpt lat="44.80482" lon="3.16783">
        <ele>1162</ele>
        <time>2022-08-01T09:40:53Z</time>
      </trkpt>
      <trkpt lat="44.8047" lon="3.16787">
        <ele>1162.1</ele>
        <time>2022-08-01T09:41:02Z</time>
      </trkpt>
      <trkpt lat="44.80466" lon="3.16789">
        <ele>1162.3</ele>
        <time>2022-08-01T09:41:05Z</time>
      </trkpt>
      <trkpt lat="44.80464" lon="3.16791">
        <ele>1162.5</ele>
        <time>2022-08-01T09:41:07Z</time>
      </trkpt>
      <trkpt lat="44.80457" lon="3.16794">
        <ele>1162.8</ele>
        <time>2022-08-01T09:41:12Z</time>
      </trkpt>
      <trkpt lat="44.80454" lon="3.16794">
        <ele>1162.9</ele>
        <time>2022-08-01T09:41:14Z</time>
      </trkpt>
      <trkpt lat="44.80449" lon="3.16796">
        <ele>1163.1</ele>
        <time>2022-08-01T09:41:18Z</time>
      </trkpt>
      <trkpt lat="44.80443" lon="3.16798">
        <ele>1163.3</ele>
        <time>2022-08-01T09:41:22Z</time>
      </trkpt>
      <trkpt lat="44.80442" lon="3.16799">
        <ele>1163.3</ele>
        <time>2022-08-01T09:41:23Z</time>
      </trkpt>
      <trkpt lat="44.80432" lon="3.16801">
        <ele>1163.2</ele>
        <time>2022-08-01T09:41:30Z</time>
      </trkpt>
      <trkpt lat="44.80429" lon="3.16802">
        <ele>1163.1</ele>
        <time>2022-08-01T09:41:32Z</time>
      </trkpt>
      <trkpt lat="44.80417" lon="3.16803">
        <ele>1163.1</ele>
        <time>2022-08-01T09:41:40Z</time>
      </trkpt>
      <trkpt lat="44.80413" lon="3.16804">
        <ele>1163.2</ele>
        <time>2022-08-01T09:41:43Z</time>
      </trkpt>
      <trkpt lat="44.80412" lon="3.16804">
        <ele>1163.3</ele>
        <time>2022-08-01T09:41:44Z</time>
      </trkpt>
      <trkpt lat="44.8041" lon="3.16803">
        <ele>1163.3</ele>
        <time>2022-08-01T09:41:45Z</time>
      </trkpt>
      <trkpt lat="44.80405" lon="3.16803">
        <ele>1163.5</ele>
        <time>2022-08-01T09:41:48Z</time>
      </trkpt>
      <trkpt lat="44.80404" lon="3.16803">
        <ele>1163.6</ele>
        <time>2022-08-01T09:41:49Z</time>
      </trkpt>
      <trkpt lat="44.80402" lon="3.16804">
        <ele>1163.6</ele>
        <time>2022-08-01T09:41:50Z</time>
      </trkpt>
      <trkpt lat="44.80401" lon="3.16805">
        <ele>1163.6</ele>
        <time>2022-08-01T09:41:51Z</time>
      </trkpt>
      <trkpt lat="44.80394" lon="3.16805">
        <ele>1163.9</ele>
        <time>2022-08-01T09:41:56Z</time>
      </trkpt>
      <trkpt lat="44.80391" lon="3.16806">
        <ele>1163.9</ele>
        <time>2022-08-01T09:41:58Z</time>
      </trkpt>
      <trkpt lat="44.80381" lon="3.16808">
        <ele>1164.1</ele>
        <time>2022-08-01T09:42:05Z</time>
      </trkpt>
      <trkpt lat="44.80376" lon="3.16809">
        <ele>1164.3</ele>
        <time>2022-08-01T09:42:09Z</time>
      </trkpt>
      <trkpt lat="44.80369" lon="3.16809">
        <ele>1164.5</ele>
        <time>2022-08-01T09:42:14Z</time>
      </trkpt>
      <trkpt lat="44.80365" lon="3.1681">
        <ele>1164.7</ele>
        <time>2022-08-01T09:42:17Z</time>
      </trkpt>
      <trkpt lat="44.80357" lon="3.16811">
        <ele>1165.1</ele>
        <time>2022-08-01T09:42:23Z</time>
      </trkpt>
      <trkpt lat="44.80354" lon="3.16812">
        <ele>1165.2</ele>
        <time>2022-08-01T09:42:25Z</time>
      </trkpt>
      <trkpt lat="44.80351" lon="3.16812">
        <ele>1165.4</ele>
        <time>2022-08-01T09:42:27Z</time>
      </trkpt>
      <trkpt lat="44.80341" lon="3.16812">
        <ele>1166.1</ele>
        <time>2022-08-01T09:42:35Z</time>
      </trkpt>
      <trkpt lat="44.80337" lon="3.16811">
        <ele>1166.4</ele>
        <time>2022-08-01T09:42:38Z</time>
      </trkpt>
      <trkpt lat="44.80333" lon="3.16812">
        <ele>1166.6</ele>
        <time>2022-08-01T09:42:40Z</time>
      </trkpt>
      <trkpt lat="44.80325" lon="3.16813">
        <ele>1166.9</ele>
        <time>2022-08-01T09:42:45Z</time>
      </trkpt>
      <trkpt lat="44.8032" lon="3.16815">
        <ele>1167</ele>
        <time>2022-08-01T09:42:49Z</time>
      </trkpt>
      <trkpt lat="44.80317" lon="3.16816">
        <ele>1167</ele>
        <time>2022-08-01T09:42:51Z</time>
      </trkpt>
      <trkpt lat="44.80314" lon="3.16814">
        <ele>1167.3</ele>
        <time>2022-08-01T09:42:54Z</time>
      </trkpt>
      <trkpt lat="44.80309" lon="3.16812">
        <ele>1167.6</ele>
        <time>2022-08-01T09:42:57Z</time>
      </trkpt>
      <trkpt lat="44.80306" lon="3.16812">
        <ele>1167.7</ele>
        <time>2022-08-01T09:42:59Z</time>
      </trkpt>
      <trkpt lat="44.80302" lon="3.16812">
        <ele>1167.9</ele>
        <time>2022-08-01T09:43:02Z</time>
      </trkpt>
      <trkpt lat="44.80301" lon="3.16811">
        <ele>1168</ele>
        <time>2022-08-01T09:43:03Z</time>
      </trkpt>
      <trkpt lat="44.80296" lon="3.1681">
        <ele>1168.2</ele>
        <time>2022-08-01T09:43:07Z</time>
      </trkpt>
      <trkpt lat="44.80294" lon="3.16811">
        <ele>1168.2</ele>
        <time>2022-08-01T09:43:08Z</time>
      </trkpt>
      <trkpt lat="44.80291" lon="3.16811">
        <ele>1168.3</ele>
        <time>2022-08-01T09:43:10Z</time>
      </trkpt>
      <trkpt lat="44.8029" lon="3.16811">
        <ele>1168.4</ele>
        <time>2022-08-01T09:43:11Z</time>
      </trkpt>
      <trkpt lat="44.80287" lon="3.16811">
        <ele>1168.5</ele>
        <time>2022-08-01T09:43:13Z</time>
      </trkpt>
      <trkpt lat="44.8028" lon="3.16812">
        <ele>1168.7</ele>
        <time>2022-08-01T09:43:18Z</time>
      </trkpt>
      <trkpt lat="44.80274" lon="3.16813">
        <ele>1168.9</ele>
        <time>2022-08-01T09:43:22Z</time>
      </trkpt>
      <trkpt lat="44.8027" lon="3.16815">
        <ele>1168.9</ele>
        <time>2022-08-01T09:43:25Z</time>
      </trkpt>
      <trkpt lat="44.80268" lon="3.16816">
        <ele>1169</ele>
        <time>2022-08-01T09:43:27Z</time>
      </trkpt>
      <trkpt lat="44.80265" lon="3.16817">
        <ele>1169</ele>
        <time>2022-08-01T09:43:29Z</time>
      </trkpt>
      <trkpt lat="44.80253" lon="3.16823">
        <ele>1169.3</ele>
        <time>2022-08-01T09:43:38Z</time>
      </trkpt>
      <trkpt lat="44.80241" lon="3.16829">
        <ele>1169.7</ele>
        <time>2022-08-01T09:43:47Z</time>
      </trkpt>
      <trkpt lat="44.8024" lon="3.16831">
        <ele>1169.8</ele>
        <time>2022-08-01T09:43:48Z</time>
      </trkpt>
      <trkpt lat="44.80231" lon="3.16836">
        <ele>1170.4</ele>
        <time>2022-08-01T09:43:55Z</time>
      </trkpt>
      <trkpt lat="44.80229" lon="3.16838">
        <ele>1170.5</ele>
        <time>2022-08-01T09:43:57Z</time>
      </trkpt>
      <trkpt lat="44.80216" lon="3.16845">
        <ele>1171.2</ele>
        <time>2022-08-01T09:44:07Z</time>
      </trkpt>
      <trkpt lat="44.80208" lon="3.16849">
        <ele>1171.5</ele>
        <time>2022-08-01T09:44:14Z</time>
      </trkpt>
      <trkpt lat="44.80198" lon="3.16854">
        <ele>1171.9</ele>
        <time>2022-08-01T09:44:22Z</time>
      </trkpt>
      <trkpt lat="44.80197" lon="3.16855">
        <ele>1171.9</ele>
        <time>2022-08-01T09:44:23Z</time>
      </trkpt>
      <trkpt lat="44.80189" lon="3.1686">
        <ele>1172.2</ele>
        <time>2022-08-01T09:44:30Z</time>
      </trkpt>
      <trkpt lat="44.80187" lon="3.16862">
        <ele>1172.3</ele>
        <time>2022-08-01T09:44:32Z</time>
      </trkpt>
      <trkpt lat="44.80183" lon="3.16864">
        <ele>1172.4</ele>
        <time>2022-08-01T09:44:35Z</time>
      </trkpt>
      <trkpt lat="44.80182" lon="3.16864">
        <ele>1172.5</ele>
        <time>2022-08-01T09:44:36Z</time>
      </trkpt>
      <trkpt lat="44.80175" lon="3.16871">
        <ele>1173</ele>
        <time>2022-08-01T09:44:43Z</time>
      </trkpt>
      <trkpt lat="44.80174" lon="3.16872">
        <ele>1173</ele>
        <time>2022-08-01T09:44:44Z</time>
      </trkpt>
      <trkpt lat="44.80167" lon="3.16877">
        <ele>1173.5</ele>
        <time>2022-08-01T09:44:50Z</time>
      </trkpt>
      <trkpt lat="44.80166" lon="3.16877">
        <ele>1173.6</ele>
        <time>2022-08-01T09:44:51Z</time>
      </trkpt>
      <trkpt lat="44.80165" lon="3.16878">
        <ele>1173.7</ele>
        <time>2022-08-01T09:44:52Z</time>
      </trkpt>
      <trkpt lat="44.80164" lon="3.16879">
        <ele>1173.8</ele>
        <time>2022-08-01T09:44:53Z</time>
      </trkpt>
      <trkpt lat="44.80159" lon="3.16881">
        <ele>1174</ele>
        <time>2022-08-01T09:44:58Z</time>
      </trkpt>
      <trkpt lat="44.80156" lon="3.16883">
        <ele>1174.2</ele>
        <time>2022-08-01T09:45:01Z</time>
      </trkpt>
      <trkpt lat="44.80155" lon="3.16884">
        <ele>1174.2</ele>
        <time>2022-08-01T09:45:02Z</time>
      </trkpt>
      <trkpt lat="44.80154" lon="3.16886">
        <ele>1174.3</ele>
        <time>2022-08-01T09:45:03Z</time>
      </trkpt>
      <trkpt lat="44.80154" lon="3.16887">
        <ele>1174.4</ele>
        <time>2022-08-01T09:45:04Z</time>
      </trkpt>
      <trkpt lat="44.80152" lon="3.16888">
        <ele>1174.5</ele>
        <time>2022-08-01T09:45:05Z</time>
      </trkpt>
      <trkpt lat="44.80151" lon="3.16888">
        <ele>1174.6</ele>
        <time>2022-08-01T09:45:06Z</time>
      </trkpt>
      <trkpt lat="44.80149" lon="3.16889">
        <ele>1174.7</ele>
        <time>2022-08-01T09:45:08Z</time>
      </trkpt>
      <trkpt lat="44.80139" lon="3.16894">
        <ele>1175.4</ele>
        <time>2022-08-01T09:45:17Z</time>
      </trkpt>
      <trkpt lat="44.80135" lon="3.16896">
        <ele>1175.7</ele>
        <time>2022-08-01T09:45:20Z</time>
      </trkpt>
      <trkpt lat="44.80134" lon="3.16896">
        <ele>1175.8</ele>
        <time>2022-08-01T09:45:21Z</time>
      </trkpt>
      <trkpt lat="44.80131" lon="3.16898">
        <ele>1176.1</ele>
        <time>2022-08-01T09:45:24Z</time>
      </trkpt>
      <trkpt lat="44.80129" lon="3.16899">
        <ele>1176.3</ele>
        <time>2022-08-01T09:45:26Z</time>
      </trkpt>
      <trkpt lat="44.80128" lon="3.16899">
        <ele>1176.4</ele>
        <time>2022-08-01T09:45:27Z</time>
      </trkpt>
      <trkpt lat="44.80126" lon="3.16901">
        <ele>1176.6</ele>
        <time>2022-08-01T09:45:29Z</time>
      </trkpt>
      <trkpt lat="44.80123" lon="3.16905">
        <ele>1177</ele>
        <time>2022-08-01T09:45:33Z</time>
      </trkpt>
      <trkpt lat="44.80121" lon="3.16906">
        <ele>1177.1</ele>
        <time>2022-08-01T09:45:35Z</time>
      </trkpt>
      <trkpt lat="44.80119" lon="3.16907">
        <ele>1177.3</ele>
        <time>2022-08-01T09:45:37Z</time>
      </trkpt>
      <trkpt lat="44.80118" lon="3.16907">
        <ele>1177.4</ele>
        <time>2022-08-01T09:45:38Z</time>
      </trkpt>
      <trkpt lat="44.80114" lon="3.16908">
        <ele>1177.6</ele>
        <time>2022-08-01T09:45:41Z</time>
      </trkpt>
      <trkpt lat="44.8011" lon="3.1691">
        <ele>1177.8</ele>
        <time>2022-08-01T09:45:44Z</time>
      </trkpt>
      <trkpt lat="44.80109" lon="3.16911">
        <ele>1177.9</ele>
        <time>2022-08-01T09:45:46Z</time>
      </trkpt>
      <trkpt lat="44.80107" lon="3.16912">
        <ele>1177.9</ele>
        <time>2022-08-01T09:45:47Z</time>
      </trkpt>
      <trkpt lat="44.80101" lon="3.16916">
        <ele>1178.3</ele>
        <time>2022-08-01T09:45:53Z</time>
      </trkpt>
      <trkpt lat="44.80099" lon="3.16918">
        <ele>1178.5</ele>
        <time>2022-08-01T09:45:55Z</time>
      </trkpt>
      <trkpt lat="44.80098" lon="3.16919">
        <ele>1178.8</ele>
        <time>2022-08-01T09:45:59Z</time>
      </trkpt>
      <trkpt lat="44.80097" lon="3.16919">
        <ele>1178.8</ele>
        <time>2022-08-01T09:46:00Z</time>
      </trkpt>
      <trkpt lat="44.80097" lon="3.1692">
        <ele>1178.8</ele>
        <time>2022-08-01T09:46:01Z</time>
      </trkpt>
      <trkpt lat="44.80098" lon="3.16919">
        <ele>1178.8</ele>
        <time>2022-08-01T09:46:05Z</time>
      </trkpt>
      <trkpt lat="44.80097" lon="3.16919">
        <ele>1178.7</ele>
        <time>2022-08-01T09:46:10Z</time>
      </trkpt>
      <trkpt lat="44.80097" lon="3.16919">
        <ele>1178.8</ele>
        <time>2022-08-01T09:46:13Z</time>
      </trkpt>
      <trkpt lat="44.80096" lon="3.1692">
        <ele>1178.9</ele>
        <time>2022-08-01T09:46:14Z</time>
      </trkpt>
      <trkpt lat="44.80089" lon="3.16925">
        <ele>1179.7</ele>
        <time>2022-08-01T09:46:19Z</time>
      </trkpt>
      <trkpt lat="44.80084" lon="3.16929">
        <ele>1180.3</ele>
        <time>2022-08-01T09:46:23Z</time>
      </trkpt>
      <trkpt lat="44.80081" lon="3.16932">
        <ele>1180.6</ele>
        <time>2022-08-01T09:46:26Z</time>
      </trkpt>
      <trkpt lat="44.80076" lon="3.16935">
        <ele>1180.8</ele>
        <time>2022-08-01T09:46:31Z</time>
      </trkpt>
      <trkpt lat="44.80074" lon="3.16936">
        <ele>1180.9</ele>
        <time>2022-08-01T09:46:33Z</time>
      </trkpt>
      <trkpt lat="44.80071" lon="3.16939">
        <ele>1181</ele>
        <time>2022-08-01T09:46:36Z</time>
      </trkpt>
      <trkpt lat="44.80069" lon="3.1694">
        <ele>1181.1</ele>
        <time>2022-08-01T09:46:37Z</time>
      </trkpt>
      <trkpt lat="44.80066" lon="3.16942">
        <ele>1181.1</ele>
        <time>2022-08-01T09:46:40Z</time>
      </trkpt>
      <trkpt lat="44.80062" lon="3.16946">
        <ele>1181.4</ele>
        <time>2022-08-01T09:46:44Z</time>
      </trkpt>
      <trkpt lat="44.80061" lon="3.16946">
        <ele>1181.4</ele>
        <time>2022-08-01T09:46:45Z</time>
      </trkpt>
      <trkpt lat="44.8006" lon="3.16947">
        <ele>1181.5</ele>
        <time>2022-08-01T09:46:46Z</time>
      </trkpt>
      <trkpt lat="44.80057" lon="3.16949">
        <ele>1181.5</ele>
        <time>2022-08-01T09:46:48Z</time>
      </trkpt>
      <trkpt lat="44.80053" lon="3.16952">
        <ele>1181.7</ele>
        <time>2022-08-01T09:46:52Z</time>
      </trkpt>
      <trkpt lat="44.80049" lon="3.16957">
        <ele>1182</ele>
        <time>2022-08-01T09:46:56Z</time>
      </trkpt>
      <trkpt lat="44.80043" lon="3.16961">
        <ele>1182.1</ele>
        <time>2022-08-01T09:47:01Z</time>
      </trkpt>
      <trkpt lat="44.80041" lon="3.16965">
        <ele>1182.3</ele>
        <time>2022-08-01T09:47:04Z</time>
      </trkpt>
      <trkpt lat="44.80036" lon="3.16969">
        <ele>1182.3</ele>
        <time>2022-08-01T09:47:08Z</time>
      </trkpt>
      <trkpt lat="44.80035" lon="3.1697">
        <ele>1182.3</ele>
        <time>2022-08-01T09:47:09Z</time>
      </trkpt>
      <trkpt lat="44.80034" lon="3.16971">
        <ele>1182.3</ele>
        <time>2022-08-01T09:47:10Z</time>
      </trkpt>
      <trkpt lat="44.80033" lon="3.16972">
        <ele>1182.4</ele>
        <time>2022-08-01T09:47:11Z</time>
      </trkpt>
      <trkpt lat="44.80029" lon="3.16975">
        <ele>1182.4</ele>
        <time>2022-08-01T09:47:15Z</time>
      </trkpt>
      <trkpt lat="44.80027" lon="3.16978">
        <ele>1182.6</ele>
        <time>2022-08-01T09:47:17Z</time>
      </trkpt>
      <trkpt lat="44.80022" lon="3.16982">
        <ele>1183</ele>
        <time>2022-08-01T09:47:23Z</time>
      </trkpt>
      <trkpt lat="44.80015" lon="3.16991">
        <ele>1183.7</ele>
        <time>2022-08-01T09:47:30Z</time>
      </trkpt>
      <trkpt lat="44.80011" lon="3.16994">
        <ele>1183.9</ele>
        <time>2022-08-01T09:47:33Z</time>
      </trkpt>
      <trkpt lat="44.8001" lon="3.16996">
        <ele>1184</ele>
        <time>2022-08-01T09:47:35Z</time>
      </trkpt>
      <trkpt lat="44.80006" lon="3.17002">
        <ele>1184.4</ele>
        <time>2022-08-01T09:47:40Z</time>
      </trkpt>
      <trkpt lat="44.79997" lon="3.17012">
        <ele>1184.9</ele>
        <time>2022-08-01T09:47:49Z</time>
      </trkpt>
      <trkpt lat="44.79991" lon="3.17018">
        <ele>1185.3</ele>
        <time>2022-08-01T09:47:55Z</time>
      </trkpt>
      <trkpt lat="44.7999" lon="3.1702">
        <ele>1185.4</ele>
        <time>2022-08-01T09:47:56Z</time>
      </trkpt>
      <trkpt lat="44.79988" lon="3.17022">
        <ele>1185.6</ele>
        <time>2022-08-01T09:47:58Z</time>
      </trkpt>
      <trkpt lat="44.79987" lon="3.17023">
        <ele>1185.7</ele>
        <time>2022-08-01T09:47:59Z</time>
      </trkpt>
      <trkpt lat="44.7998" lon="3.17031">
        <ele>1186.1</ele>
        <time>2022-08-01T09:48:06Z</time>
      </trkpt>
      <trkpt lat="44.79971" lon="3.1704">
        <ele>1186.4</ele>
        <time>2022-08-01T09:48:15Z</time>
      </trkpt>
      <trkpt lat="44.79968" lon="3.17042">
        <ele>1186.5</ele>
        <time>2022-08-01T09:48:18Z</time>
      </trkpt>
      <trkpt lat="44.79965" lon="3.17044">
        <ele>1186.6</ele>
        <time>2022-08-01T09:48:21Z</time>
      </trkpt>
      <trkpt lat="44.79962" lon="3.17046">
        <ele>1186.6</ele>
        <time>2022-08-01T09:48:24Z</time>
      </trkpt>
      <trkpt lat="44.79953" lon="3.17055">
        <ele>1187</ele>
        <time>2022-08-01T09:48:33Z</time>
      </trkpt>
      <trkpt lat="44.79943" lon="3.17061">
        <ele>1187.2</ele>
        <time>2022-08-01T09:48:40Z</time>
      </trkpt>
      <trkpt lat="44.79942" lon="3.17062">
        <ele>1187.3</ele>
        <time>2022-08-01T09:48:41Z</time>
      </trkpt>
      <trkpt lat="44.79939" lon="3.17064">
        <ele>1187.5</ele>
        <time>2022-08-01T09:48:44Z</time>
      </trkpt>
      <trkpt lat="44.79936" lon="3.17065">
        <ele>1187.6</ele>
        <time>2022-08-01T09:48:46Z</time>
      </trkpt>
      <trkpt lat="44.79931" lon="3.17067">
        <ele>1187.9</ele>
        <time>2022-08-01T09:48:51Z</time>
      </trkpt>
      <trkpt lat="44.7993" lon="3.17068">
        <ele>1188</ele>
        <time>2022-08-01T09:48:52Z</time>
      </trkpt>
      <trkpt lat="44.79925" lon="3.17071">
        <ele>1188.2</ele>
        <time>2022-08-01T09:48:56Z</time>
      </trkpt>
      <trkpt lat="44.79923" lon="3.17073">
        <ele>1188.4</ele>
        <time>2022-08-01T09:48:58Z</time>
      </trkpt>
      <trkpt lat="44.7992" lon="3.17075">
        <ele>1188.6</ele>
        <time>2022-08-01T09:49:01Z</time>
      </trkpt>
      <trkpt lat="44.79919" lon="3.17075">
        <ele>1188.6</ele>
        <time>2022-08-01T09:49:02Z</time>
      </trkpt>
      <trkpt lat="44.79918" lon="3.17076">
        <ele>1188.7</ele>
        <time>2022-08-01T09:49:03Z</time>
      </trkpt>
      <trkpt lat="44.79914" lon="3.17078">
        <ele>1188.9</ele>
        <time>2022-08-01T09:49:06Z</time>
      </trkpt>
      <trkpt lat="44.79911" lon="3.17079">
        <ele>1189.1</ele>
        <time>2022-08-01T09:49:08Z</time>
      </trkpt>
      <trkpt lat="44.79903" lon="3.17082">
        <ele>1189.5</ele>
        <time>2022-08-01T09:49:15Z</time>
      </trkpt>
      <trkpt lat="44.799" lon="3.17082">
        <ele>1189.5</ele>
        <time>2022-08-01T09:49:17Z</time>
      </trkpt>
      <trkpt lat="44.79896" lon="3.17083">
        <ele>1189.7</ele>
        <time>2022-08-01T09:49:21Z</time>
      </trkpt>
      <trkpt lat="44.79892" lon="3.17084">
        <ele>1189.9</ele>
        <time>2022-08-01T09:49:26Z</time>
      </trkpt>
      <trkpt lat="44.79892" lon="3.17083">
        <ele>1189.9</ele>
        <time>2022-08-01T09:49:27Z</time>
      </trkpt>
      <trkpt lat="44.79892" lon="3.17083">
        <ele>1189.9</ele>
        <time>2022-08-01T09:49:28Z</time>
      </trkpt>
      <trkpt lat="44.79893" lon="3.17082">
        <ele>1189.8</ele>
        <time>2022-08-01T09:49:33Z</time>
      </trkpt>
      <trkpt lat="44.79893" lon="3.17082">
        <ele>1189.8</ele>
        <time>2022-08-01T09:49:34Z</time>
      </trkpt>
      <trkpt lat="44.79893" lon="3.17082">
        <ele>1189.8</ele>
        <time>2022-08-01T09:49:36Z</time>
      </trkpt>
      <trkpt lat="44.79893" lon="3.17081">
        <ele>1189.8</ele>
        <time>2022-08-01T09:49:39Z</time>
      </trkpt>
      <trkpt lat="44.79893" lon="3.17081">
        <ele>1189.8</ele>
        <time>2022-08-01T09:49:42Z</time>
      </trkpt>
      <trkpt lat="44.79893" lon="3.17083">
        <ele>1189.8</ele>
        <time>2022-08-01T09:49:44Z</time>
      </trkpt>
      <trkpt lat="44.79892" lon="3.17084">
        <ele>1189.9</ele>
        <time>2022-08-01T09:49:46Z</time>
      </trkpt>
      <trkpt lat="44.79891" lon="3.17083">
        <ele>1189.9</ele>
        <time>2022-08-01T09:49:49Z</time>
      </trkpt>
      <trkpt lat="44.79891" lon="3.17083">
        <ele>1189.9</ele>
        <time>2022-08-01T09:49:51Z</time>
      </trkpt>
      <trkpt lat="44.79891" lon="3.17083">
        <ele>1189.9</ele>
        <time>2022-08-01T09:49:54Z</time>
      </trkpt>
      <trkpt lat="44.79886" lon="3.17085">
        <ele>1190</ele>
        <time>2022-08-01T09:50:07Z</time>
      </trkpt>
      <trkpt lat="44.79879" lon="3.17088">
        <ele>1190</ele>
        <time>2022-08-01T09:50:11Z</time>
      </trkpt>
      <trkpt lat="44.79875" lon="3.1709">
        <ele>1190</ele>
        <time>2022-08-01T09:50:13Z</time>
      </trkpt>
      <trkpt lat="44.79874" lon="3.17091">
        <ele>1190</ele>
        <time>2022-08-01T09:50:14Z</time>
      </trkpt>
      <trkpt lat="44.79871" lon="3.17093">
        <ele>1190</ele>
        <time>2022-08-01T09:50:17Z</time>
      </trkpt>
      <trkpt lat="44.79866" lon="3.17097">
        <ele>1190</ele>
        <time>2022-08-01T09:50:22Z</time>
      </trkpt>
      <trkpt lat="44.79864" lon="3.17099">
        <ele>1190</ele>
        <time>2022-08-01T09:50:24Z</time>
      </trkpt>
      <trkpt lat="44.79863" lon="3.17099">
        <ele>1190</ele>
        <time>2022-08-01T09:50:25Z</time>
      </trkpt>
      <trkpt lat="44.7986" lon="3.17098">
        <ele>1190</ele>
        <time>2022-08-01T09:50:28Z</time>
      </trkpt>
      <trkpt lat="44.79855" lon="3.171">
        <ele>1189.9</ele>
        <time>2022-08-01T09:50:32Z</time>
      </trkpt>
      <trkpt lat="44.79851" lon="3.17103">
        <ele>1189.9</ele>
        <time>2022-08-01T09:50:35Z</time>
      </trkpt>
      <trkpt lat="44.79842" lon="3.17106">
        <ele>1189.9</ele>
        <time>2022-08-01T09:50:42Z</time>
      </trkpt>
      <trkpt lat="44.79832" lon="3.17113">
        <ele>1190</ele>
        <time>2022-08-01T09:50:51Z</time>
      </trkpt>
      <trkpt lat="44.79829" lon="3.17115">
        <ele>1190</ele>
        <time>2022-08-01T09:50:55Z</time>
      </trkpt>
      <trkpt lat="44.79823" lon="3.17119">
        <ele>1190</ele>
        <time>2022-08-01T09:51:00Z</time>
      </trkpt>
      <trkpt lat="44.79814" lon="3.17125">
        <ele>1190.1</ele>
        <time>2022-08-01T09:51:09Z</time>
      </trkpt>
      <trkpt lat="44.7981" lon="3.17128">
        <ele>1190.3</ele>
        <time>2022-08-01T09:51:12Z</time>
      </trkpt>
      <trkpt lat="44.79805" lon="3.1713">
        <ele>1190.4</ele>
        <time>2022-08-01T09:51:16Z</time>
      </trkpt>
      <trkpt lat="44.79803" lon="3.17133">
        <ele>1190.6</ele>
        <time>2022-08-01T09:51:19Z</time>
      </trkpt>
      <trkpt lat="44.79796" lon="3.17138">
        <ele>1191</ele>
        <time>2022-08-01T09:51:26Z</time>
      </trkpt>
      <trkpt lat="44.79792" lon="3.17142">
        <ele>1191.1</ele>
        <time>2022-08-01T09:51:29Z</time>
      </trkpt>
      <trkpt lat="44.7979" lon="3.17143">
        <ele>1191.2</ele>
        <time>2022-08-01T09:51:32Z</time>
      </trkpt>
      <trkpt lat="44.79782" lon="3.17146">
        <ele>1191.3</ele>
        <time>2022-08-01T09:51:38Z</time>
      </trkpt>
      <trkpt lat="44.79778" lon="3.17149">
        <ele>1191.4</ele>
        <time>2022-08-01T09:51:42Z</time>
      </trkpt>
      <trkpt lat="44.79775" lon="3.1715">
        <ele>1191.3</ele>
        <time>2022-08-01T09:51:44Z</time>
      </trkpt>
      <trkpt lat="44.79773" lon="3.1715">
        <ele>1191.3</ele>
        <time>2022-08-01T09:51:46Z</time>
      </trkpt>
      <trkpt lat="44.79764" lon="3.17154">
        <ele>1191.3</ele>
        <time>2022-08-01T09:51:53Z</time>
      </trkpt>
      <trkpt lat="44.79763" lon="3.17155">
        <ele>1191.4</ele>
        <time>2022-08-01T09:51:54Z</time>
      </trkpt>
      <trkpt lat="44.79758" lon="3.17159">
        <ele>1191.5</ele>
        <time>2022-08-01T09:51:59Z</time>
      </trkpt>
      <trkpt lat="44.79753" lon="3.17162">
        <ele>1191.7</ele>
        <time>2022-08-01T09:52:02Z</time>
      </trkpt>
      <trkpt lat="44.79749" lon="3.17166">
        <ele>1191.9</ele>
        <time>2022-08-01T09:52:06Z</time>
      </trkpt>
      <trkpt lat="44.79746" lon="3.17168">
        <ele>1192.1</ele>
        <time>2022-08-01T09:52:09Z</time>
      </trkpt>
      <trkpt lat="44.79745" lon="3.17169">
        <ele>1192.1</ele>
        <time>2022-08-01T09:52:10Z</time>
      </trkpt>
      <trkpt lat="44.79743" lon="3.17171">
        <ele>1192.2</ele>
        <time>2022-08-01T09:52:12Z</time>
      </trkpt>
      <trkpt lat="44.79739" lon="3.17172">
        <ele>1192.3</ele>
        <time>2022-08-01T09:52:15Z</time>
      </trkpt>
      <trkpt lat="44.79737" lon="3.17174">
        <ele>1192.4</ele>
        <time>2022-08-01T09:52:17Z</time>
      </trkpt>
      <trkpt lat="44.79728" lon="3.1718">
        <ele>1192.9</ele>
        <time>2022-08-01T09:52:25Z</time>
      </trkpt>
      <trkpt lat="44.79727" lon="3.17181">
        <ele>1193</ele>
        <time>2022-08-01T09:52:26Z</time>
      </trkpt>
      <trkpt lat="44.79723" lon="3.17185">
        <ele>1193.3</ele>
        <time>2022-08-01T09:52:30Z</time>
      </trkpt>
      <trkpt lat="44.79722" lon="3.17185">
        <ele>1193.3</ele>
        <time>2022-08-01T09:52:31Z</time>
      </trkpt>
      <trkpt lat="44.79721" lon="3.17185">
        <ele>1193.3</ele>
        <time>2022-08-01T09:52:32Z</time>
      </trkpt>
      <trkpt lat="44.7972" lon="3.17185">
        <ele>1193.3</ele>
        <time>2022-08-01T09:52:33Z</time>
      </trkpt>
      <trkpt lat="44.79714" lon="3.17189">
        <ele>1193.6</ele>
        <time>2022-08-01T09:52:38Z</time>
      </trkpt>
      <trkpt lat="44.7971" lon="3.17192">
        <ele>1193.8</ele>
        <time>2022-08-01T09:52:41Z</time>
      </trkpt>
      <trkpt lat="44.79708" lon="3.17193">
        <ele>1193.9</ele>
        <time>2022-08-01T09:52:44Z</time>
      </trkpt>
      <trkpt lat="44.79703" lon="3.17195">
        <ele>1194</ele>
        <time>2022-08-01T09:52:48Z</time>
      </trkpt>
      <trkpt lat="44.79702" lon="3.17195">
        <ele>1194.1</ele>
        <time>2022-08-01T09:52:49Z</time>
      </trkpt>
      <trkpt lat="44.79691" lon="3.17201">
        <ele>1194.4</ele>
        <time>2022-08-01T09:52:59Z</time>
      </trkpt>
      <trkpt lat="44.79682" lon="3.17204">
        <ele>1194.7</ele>
        <time>2022-08-01T09:53:07Z</time>
      </trkpt>
      <trkpt lat="44.79677" lon="3.17205">
        <ele>1194.7</ele>
        <time>2022-08-01T09:53:10Z</time>
      </trkpt>
      <trkpt lat="44.79675" lon="3.17206">
        <ele>1194.8</ele>
        <time>2022-08-01T09:53:12Z</time>
      </trkpt>
      <trkpt lat="44.7967" lon="3.17209">
        <ele>1195</ele>
        <time>2022-08-01T09:53:16Z</time>
      </trkpt>
      <trkpt lat="44.79659" lon="3.17218">
        <ele>1195.9</ele>
        <time>2022-08-01T09:53:25Z</time>
      </trkpt>
      <trkpt lat="44.79659" lon="3.17219">
        <ele>1196</ele>
        <time>2022-08-01T09:53:26Z</time>
      </trkpt>
      <trkpt lat="44.79648" lon="3.17226">
        <ele>1196.8</ele>
        <time>2022-08-01T09:53:36Z</time>
      </trkpt>
      <trkpt lat="44.79647" lon="3.17227">
        <ele>1196.9</ele>
        <time>2022-08-01T09:53:37Z</time>
      </trkpt>
      <trkpt lat="44.7964" lon="3.17231">
        <ele>1197.3</ele>
        <time>2022-08-01T09:53:44Z</time>
      </trkpt>
      <trkpt lat="44.79635" lon="3.17235">
        <ele>1197.4</ele>
        <time>2022-08-01T09:53:48Z</time>
      </trkpt>
      <trkpt lat="44.79629" lon="3.17239">
        <ele>1197.6</ele>
        <time>2022-08-01T09:53:54Z</time>
      </trkpt>
      <trkpt lat="44.79627" lon="3.17241">
        <ele>1197.7</ele>
        <time>2022-08-01T09:53:56Z</time>
      </trkpt>
      <trkpt lat="44.79623" lon="3.17244">
        <ele>1197.8</ele>
        <time>2022-08-01T09:54:00Z</time>
      </trkpt>
      <trkpt lat="44.7962" lon="3.17246">
        <ele>1197.8</ele>
        <time>2022-08-01T09:54:03Z</time>
      </trkpt>
      <trkpt lat="44.79614" lon="3.17249">
        <ele>1197.9</ele>
        <time>2022-08-01T09:54:08Z</time>
      </trkpt>
      <trkpt lat="44.7961" lon="3.17254">
        <ele>1198.1</ele>
        <time>2022-08-01T09:54:12Z</time>
      </trkpt>
      <trkpt lat="44.79608" lon="3.17256">
        <ele>1198.2</ele>
        <time>2022-08-01T09:54:14Z</time>
      </trkpt>
      <trkpt lat="44.79606" lon="3.17257">
        <ele>1198.3</ele>
        <time>2022-08-01T09:54:16Z</time>
      </trkpt>
      <trkpt lat="44.796" lon="3.1726">
        <ele>1198.3</ele>
        <time>2022-08-01T09:54:20Z</time>
      </trkpt>
      <trkpt lat="44.79593" lon="3.17266">
        <ele>1198.6</ele>
        <time>2022-08-01T09:54:27Z</time>
      </trkpt>
      <trkpt lat="44.79589" lon="3.17269">
        <ele>1198.7</ele>
        <time>2022-08-01T09:54:31Z</time>
      </trkpt>
      <trkpt lat="44.79586" lon="3.17272">
        <ele>1198.8</ele>
        <time>2022-08-01T09:54:34Z</time>
      </trkpt>
      <trkpt lat="44.79585" lon="3.17272">
        <ele>1198.8</ele>
        <time>2022-08-01T09:54:35Z</time>
      </trkpt>
      <trkpt lat="44.79577" lon="3.17279">
        <ele>1199.3</ele>
        <time>2022-08-01T09:54:43Z</time>
      </trkpt>
      <trkpt lat="44.79574" lon="3.1728">
        <ele>1199.4</ele>
        <time>2022-08-01T09:54:45Z</time>
      </trkpt>
      <trkpt lat="44.7957" lon="3.17282">
        <ele>1199.7</ele>
        <time>2022-08-01T09:54:48Z</time>
      </trkpt>
      <trkpt lat="44.79565" lon="3.17285">
        <ele>1200</ele>
        <time>2022-08-01T09:54:52Z</time>
      </trkpt>
      <trkpt lat="44.79564" lon="3.17285">
        <ele>1200</ele>
        <time>2022-08-01T09:54:53Z</time>
      </trkpt>
      <trkpt lat="44.7956" lon="3.17286">
        <ele>1200.2</ele>
        <time>2022-08-01T09:54:57Z</time>
      </trkpt>
      <trkpt lat="44.79557" lon="3.17286">
        <ele>1200.2</ele>
        <time>2022-08-01T09:54:59Z</time>
      </trkpt>
      <trkpt lat="44.79548" lon="3.17288">
        <ele>1200.6</ele>
        <time>2022-08-01T09:55:07Z</time>
      </trkpt>
      <trkpt lat="44.79546" lon="3.17287">
        <ele>1200.7</ele>
        <time>2022-08-01T09:55:08Z</time>
      </trkpt>
      <trkpt lat="44.79543" lon="3.17286">
        <ele>1200.7</ele>
        <time>2022-08-01T09:55:10Z</time>
      </trkpt>
      <trkpt lat="44.7954" lon="3.17287">
        <ele>1200.9</ele>
        <time>2022-08-01T09:55:12Z</time>
      </trkpt>
      <trkpt lat="44.7954" lon="3.17288">
        <ele>1200.9</ele>
        <time>2022-08-01T09:55:13Z</time>
      </trkpt>
      <trkpt lat="44.79536" lon="3.17291">
        <ele>1201.2</ele>
        <time>2022-08-01T09:55:17Z</time>
      </trkpt>
      <trkpt lat="44.7953" lon="3.17294">
        <ele>1201.5</ele>
        <time>2022-08-01T09:55:22Z</time>
      </trkpt>
      <trkpt lat="44.79525" lon="3.17297">
        <ele>1201.9</ele>
        <time>2022-08-01T09:55:27Z</time>
      </trkpt>
      <trkpt lat="44.79524" lon="3.17298">
        <ele>1202</ele>
        <time>2022-08-01T09:55:28Z</time>
      </trkpt>
      <trkpt lat="44.7952" lon="3.173">
        <ele>1202.4</ele>
        <time>2022-08-01T09:55:32Z</time>
      </trkpt>
      <trkpt lat="44.79518" lon="3.17301">
        <ele>1202.6</ele>
        <time>2022-08-01T09:55:34Z</time>
      </trkpt>
      <trkpt lat="44.79517" lon="3.17301">
        <ele>1202.7</ele>
        <time>2022-08-01T09:55:35Z</time>
      </trkpt>
      <trkpt lat="44.79506" lon="3.17303">
        <ele>1203.5</ele>
        <time>2022-08-01T09:55:44Z</time>
      </trkpt>
      <trkpt lat="44.79501" lon="3.17304">
        <ele>1203.9</ele>
        <time>2022-08-01T09:55:50Z</time>
      </trkpt>
      <trkpt lat="44.79501" lon="3.17304">
        <ele>1203.9</ele>
        <time>2022-08-01T09:55:52Z</time>
      </trkpt>
      <trkpt lat="44.79502" lon="3.17304">
        <ele>1203.8</ele>
        <time>2022-08-01T09:55:54Z</time>
      </trkpt>
      <trkpt lat="44.79502" lon="3.17303">
        <ele>1203.7</ele>
        <time>2022-08-01T09:56:00Z</time>
      </trkpt>
      <trkpt lat="44.79503" lon="3.17304">
        <ele>1203.7</ele>
        <time>2022-08-01T09:56:02Z</time>
      </trkpt>
      <trkpt lat="44.79503" lon="3.17304">
        <ele>1203.7</ele>
        <time>2022-08-01T09:56:03Z</time>
      </trkpt>
      <trkpt lat="44.79503" lon="3.17304">
        <ele>1203.7</ele>
        <time>2022-08-01T09:56:04Z</time>
      </trkpt>
      <trkpt lat="44.79504" lon="3.17303">
        <ele>1203.6</ele>
        <time>2022-08-01T09:56:08Z</time>
      </trkpt>
      <trkpt lat="44.79504" lon="3.17303">
        <ele>1203.6</ele>
        <time>2022-08-01T09:56:19Z</time>
      </trkpt>
      <trkpt lat="44.79497" lon="3.17305">
        <ele>1204.1</ele>
        <time>2022-08-01T09:56:28Z</time>
      </trkpt>
      <trkpt lat="44.79496" lon="3.17305">
        <ele>1204.1</ele>
        <time>2022-08-01T09:56:29Z</time>
      </trkpt>
      <trkpt lat="44.79494" lon="3.17306">
        <ele>1204.2</ele>
        <time>2022-08-01T09:56:31Z</time>
      </trkpt>
      <trkpt lat="44.79492" lon="3.17305">
        <ele>1204.3</ele>
        <time>2022-08-01T09:56:32Z</time>
      </trkpt>
      <trkpt lat="44.79491" lon="3.17305">
        <ele>1204.3</ele>
        <time>2022-08-01T09:56:33Z</time>
      </trkpt>
      <trkpt lat="44.7949" lon="3.17305">
        <ele>1204.3</ele>
        <time>2022-08-01T09:56:34Z</time>
      </trkpt>
      <trkpt lat="44.79489" lon="3.17305">
        <ele>1204.4</ele>
        <time>2022-08-01T09:56:35Z</time>
      </trkpt>
      <trkpt lat="44.79488" lon="3.17305">
        <ele>1204.4</ele>
        <time>2022-08-01T09:56:36Z</time>
      </trkpt>
      <trkpt lat="44.79487" lon="3.17304">
        <ele>1204.4</ele>
        <time>2022-08-01T09:56:37Z</time>
      </trkpt>
      <trkpt lat="44.79486" lon="3.17304">
        <ele>1204.5</ele>
        <time>2022-08-01T09:56:38Z</time>
      </trkpt>
      <trkpt lat="44.79483" lon="3.17305">
        <ele>1204.6</ele>
        <time>2022-08-01T09:56:40Z</time>
      </trkpt>
      <trkpt lat="44.79482" lon="3.17305">
        <ele>1204.6</ele>
        <time>2022-08-01T09:56:41Z</time>
      </trkpt>
      <trkpt lat="44.79481" lon="3.17305">
        <ele>1204.6</ele>
        <time>2022-08-01T09:56:42Z</time>
      </trkpt>
      <trkpt lat="44.7948" lon="3.17305">
        <ele>1204.7</ele>
        <time>2022-08-01T09:56:43Z</time>
      </trkpt>
      <trkpt lat="44.79478" lon="3.17304">
        <ele>1204.7</ele>
        <time>2022-08-01T09:56:44Z</time>
      </trkpt>
      <trkpt lat="44.79477" lon="3.17305">
        <ele>1204.8</ele>
        <time>2022-08-01T09:56:45Z</time>
      </trkpt>
      <trkpt lat="44.79476" lon="3.17304">
        <ele>1204.8</ele>
        <time>2022-08-01T09:56:46Z</time>
      </trkpt>
      <trkpt lat="44.79475" lon="3.17304">
        <ele>1204.8</ele>
        <time>2022-08-01T09:56:47Z</time>
      </trkpt>
      <trkpt lat="44.79473" lon="3.17303">
        <ele>1204.9</ele>
        <time>2022-08-01T09:56:48Z</time>
      </trkpt>
      <trkpt lat="44.79472" lon="3.17303">
        <ele>1204.9</ele>
        <time>2022-08-01T09:56:49Z</time>
      </trkpt>
      <trkpt lat="44.79471" lon="3.17303">
        <ele>1205</ele>
        <time>2022-08-01T09:56:50Z</time>
      </trkpt>
      <trkpt lat="44.79468" lon="3.17303">
        <ele>1205.1</ele>
        <time>2022-08-01T09:56:52Z</time>
      </trkpt>
      <trkpt lat="44.79467" lon="3.17303">
        <ele>1205.1</ele>
        <time>2022-08-01T09:56:53Z</time>
      </trkpt>
      <trkpt lat="44.79462" lon="3.17302">
        <ele>1205.3</ele>
        <time>2022-08-01T09:56:57Z</time>
      </trkpt>
      <trkpt lat="44.79456" lon="3.17299">
        <ele>1205.5</ele>
        <time>2022-08-01T09:57:02Z</time>
      </trkpt>
      <trkpt lat="44.79454" lon="3.17299">
        <ele>1205.6</ele>
        <time>2022-08-01T09:57:04Z</time>
      </trkpt>
      <trkpt lat="44.79452" lon="3.17299">
        <ele>1205.7</ele>
        <time>2022-08-01T09:57:06Z</time>
      </trkpt>
      <trkpt lat="44.7945" lon="3.17299">
        <ele>1205.8</ele>
        <time>2022-08-01T09:57:07Z</time>
      </trkpt>
      <trkpt lat="44.79441" lon="3.17299">
        <ele>1206.1</ele>
        <time>2022-08-01T09:57:14Z</time>
      </trkpt>
      <trkpt lat="44.79432" lon="3.173">
        <ele>1206.4</ele>
        <time>2022-08-01T09:57:22Z</time>
      </trkpt>
      <trkpt lat="44.79425" lon="3.17301">
        <ele>1206.7</ele>
        <time>2022-08-01T09:57:27Z</time>
      </trkpt>
      <trkpt lat="44.79424" lon="3.17301">
        <ele>1206.7</ele>
        <time>2022-08-01T09:57:28Z</time>
      </trkpt>
      <trkpt lat="44.79423" lon="3.17301">
        <ele>1206.8</ele>
        <time>2022-08-01T09:57:29Z</time>
      </trkpt>
      <trkpt lat="44.7942" lon="3.17301">
        <ele>1206.9</ele>
        <time>2022-08-01T09:57:32Z</time>
      </trkpt>
      <trkpt lat="44.79417" lon="3.17301">
        <ele>1207</ele>
        <time>2022-08-01T09:57:34Z</time>
      </trkpt>
      <trkpt lat="44.79414" lon="3.17302">
        <ele>1207.1</ele>
        <time>2022-08-01T09:57:37Z</time>
      </trkpt>
      <trkpt lat="44.79413" lon="3.17302">
        <ele>1207.1</ele>
        <time>2022-08-01T09:57:38Z</time>
      </trkpt>
      <trkpt lat="44.79411" lon="3.17302">
        <ele>1207.2</ele>
        <time>2022-08-01T09:57:39Z</time>
      </trkpt>
      <trkpt lat="44.79408" lon="3.17302">
        <ele>1207.3</ele>
        <time>2022-08-01T09:57:41Z</time>
      </trkpt>
      <trkpt lat="44.79406" lon="3.17303">
        <ele>1207.4</ele>
        <time>2022-08-01T09:57:43Z</time>
      </trkpt>
      <trkpt lat="44.79403" lon="3.17304">
        <ele>1207.5</ele>
        <time>2022-08-01T09:57:45Z</time>
      </trkpt>
      <trkpt lat="44.79402" lon="3.17304">
        <ele>1207.5</ele>
        <time>2022-08-01T09:57:46Z</time>
      </trkpt>
      <trkpt lat="44.79393" lon="3.17305">
        <ele>1207.8</ele>
        <time>2022-08-01T09:57:54Z</time>
      </trkpt>
      <trkpt lat="44.79392" lon="3.17304">
        <ele>1207.8</ele>
        <time>2022-08-01T09:57:55Z</time>
      </trkpt>
      <trkpt lat="44.79391" lon="3.17304">
        <ele>1207.8</ele>
        <time>2022-08-01T09:57:56Z</time>
      </trkpt>
      <trkpt lat="44.7939" lon="3.17304">
        <ele>1207.9</ele>
        <time>2022-08-01T09:57:57Z</time>
      </trkpt>
      <trkpt lat="44.79389" lon="3.17304">
        <ele>1207.9</ele>
        <time>2022-08-01T09:57:58Z</time>
      </trkpt>
      <trkpt lat="44.79386" lon="3.17304">
        <ele>1208</ele>
        <time>2022-08-01T09:58:00Z</time>
      </trkpt>
      <trkpt lat="44.79385" lon="3.17303">
        <ele>1208.1</ele>
        <time>2022-08-01T09:58:01Z</time>
      </trkpt>
      <trkpt lat="44.7938" lon="3.17302">
        <ele>1208.1</ele>
        <time>2022-08-01T09:58:05Z</time>
      </trkpt>
      <trkpt lat="44.79378" lon="3.17301">
        <ele>1208.2</ele>
        <time>2022-08-01T09:58:07Z</time>
      </trkpt>
      <trkpt lat="44.79377" lon="3.17301">
        <ele>1208.2</ele>
        <time>2022-08-01T09:58:08Z</time>
      </trkpt>
      <trkpt lat="44.79374" lon="3.17301">
        <ele>1208.3</ele>
        <time>2022-08-01T09:58:10Z</time>
      </trkpt>
      <trkpt lat="44.79373" lon="3.17301">
        <ele>1208.3</ele>
        <time>2022-08-01T09:58:11Z</time>
      </trkpt>
      <trkpt lat="44.79372" lon="3.173">
        <ele>1208.3</ele>
        <time>2022-08-01T09:58:13Z</time>
      </trkpt>
      <trkpt lat="44.7937" lon="3.17301">
        <ele>1208.4</ele>
        <time>2022-08-01T09:58:15Z</time>
      </trkpt>
      <trkpt lat="44.7937" lon="3.17301">
        <ele>1208.4</ele>
        <time>2022-08-01T09:58:16Z</time>
      </trkpt>
      <trkpt lat="44.7937" lon="3.17301">
        <ele>1208.4</ele>
        <time>2022-08-01T09:58:17Z</time>
      </trkpt>
      <trkpt lat="44.7937" lon="3.17301">
        <ele>1208.4</ele>
        <time>2022-08-01T09:58:19Z</time>
      </trkpt>
      <trkpt lat="44.7937" lon="3.17301">
        <ele>1208.4</ele>
        <time>2022-08-01T09:58:21Z</time>
      </trkpt>
      <trkpt lat="44.79367" lon="3.173">
        <ele>1208.5</ele>
        <time>2022-08-01T09:58:25Z</time>
      </trkpt>
      <trkpt lat="44.79366" lon="3.173">
        <ele>1208.5</ele>
        <time>2022-08-01T09:58:26Z</time>
      </trkpt>
      <trkpt lat="44.79363" lon="3.173">
        <ele>1208.5</ele>
        <time>2022-08-01T09:58:28Z</time>
      </trkpt>
      <trkpt lat="44.79359" lon="3.173">
        <ele>1208.6</ele>
        <time>2022-08-01T09:58:31Z</time>
      </trkpt>
      <trkpt lat="44.79357" lon="3.17299">
        <ele>1208.7</ele>
        <time>2022-08-01T09:58:33Z</time>
      </trkpt>
      <trkpt lat="44.79347" lon="3.17297">
        <ele>1209</ele>
        <time>2022-08-01T09:58:41Z</time>
      </trkpt>
      <trkpt lat="44.79338" lon="3.17298">
        <ele>1209.5</ele>
        <time>2022-08-01T09:58:49Z</time>
      </trkpt>
      <trkpt lat="44.79335" lon="3.17298">
        <ele>1209.7</ele>
        <time>2022-08-01T09:58:52Z</time>
      </trkpt>
      <trkpt lat="44.79331" lon="3.17298">
        <ele>1209.7</ele>
        <time>2022-08-01T09:58:55Z</time>
      </trkpt>
      <trkpt lat="44.79329" lon="3.17298">
        <ele>1209.7</ele>
        <time>2022-08-01T09:58:57Z</time>
      </trkpt>
      <trkpt lat="44.79326" lon="3.17299">
        <ele>1209.8</ele>
        <time>2022-08-01T09:58:59Z</time>
      </trkpt>
      <trkpt lat="44.79323" lon="3.17299">
        <ele>1209.8</ele>
        <time>2022-08-01T09:59:01Z</time>
      </trkpt>
      <trkpt lat="44.79322" lon="3.17299">
        <ele>1209.8</ele>
        <time>2022-08-01T09:59:02Z</time>
      </trkpt>
      <trkpt lat="44.79321" lon="3.17299">
        <ele>1209.8</ele>
        <time>2022-08-01T09:59:03Z</time>
      </trkpt>
      <trkpt lat="44.7932" lon="3.17299">
        <ele>1209.8</ele>
        <time>2022-08-01T09:59:04Z</time>
      </trkpt>
      <trkpt lat="44.79317" lon="3.17299">
        <ele>1209.8</ele>
        <time>2022-08-01T09:59:06Z</time>
      </trkpt>
      <trkpt lat="44.79315" lon="3.17299">
        <ele>1209.8</ele>
        <time>2022-08-01T09:59:08Z</time>
      </trkpt>
      <trkpt lat="44.79313" lon="3.17299">
        <ele>1209.8</ele>
        <time>2022-08-01T09:59:09Z</time>
      </trkpt>
      <trkpt lat="44.79311" lon="3.173">
        <ele>1209.8</ele>
        <time>2022-08-01T09:59:11Z</time>
      </trkpt>
      <trkpt lat="44.7931" lon="3.173">
        <ele>1209.8</ele>
        <time>2022-08-01T09:59:12Z</time>
      </trkpt>
      <trkpt lat="44.79309" lon="3.173">
        <ele>1209.8</ele>
        <time>2022-08-01T09:59:13Z</time>
      </trkpt>
      <trkpt lat="44.79306" lon="3.173">
        <ele>1209.8</ele>
        <time>2022-08-01T09:59:15Z</time>
      </trkpt>
      <trkpt lat="44.79303" lon="3.17301">
        <ele>1209.9</ele>
        <time>2022-08-01T09:59:18Z</time>
      </trkpt>
      <trkpt lat="44.793" lon="3.173">
        <ele>1210</ele>
        <time>2022-08-01T09:59:20Z</time>
      </trkpt>
      <trkpt lat="44.79299" lon="3.173">
        <ele>1210</ele>
        <time>2022-08-01T09:59:21Z</time>
      </trkpt>
      <trkpt lat="44.79297" lon="3.17301">
        <ele>1210.1</ele>
        <time>2022-08-01T09:59:23Z</time>
      </trkpt>
      <trkpt lat="44.79294" lon="3.17301">
        <ele>1210.3</ele>
        <time>2022-08-01T09:59:25Z</time>
      </trkpt>
      <trkpt lat="44.79293" lon="3.17301">
        <ele>1210.3</ele>
        <time>2022-08-01T09:59:26Z</time>
      </trkpt>
      <trkpt lat="44.79292" lon="3.17301">
        <ele>1210.3</ele>
        <time>2022-08-01T09:59:27Z</time>
      </trkpt>
      <trkpt lat="44.7929" lon="3.17301">
        <ele>1210.4</ele>
        <time>2022-08-01T09:59:28Z</time>
      </trkpt>
      <trkpt lat="44.79287" lon="3.17301">
        <ele>1210.5</ele>
        <time>2022-08-01T09:59:31Z</time>
      </trkpt>
      <trkpt lat="44.79283" lon="3.17301">
        <ele>1210.7</ele>
        <time>2022-08-01T09:59:34Z</time>
      </trkpt>
      <trkpt lat="44.79281" lon="3.173">
        <ele>1210.7</ele>
        <time>2022-08-01T09:59:36Z</time>
      </trkpt>
      <trkpt lat="44.79279" lon="3.173">
        <ele>1210.7</ele>
        <time>2022-08-01T09:59:37Z</time>
      </trkpt>
      <trkpt lat="44.79276" lon="3.173">
        <ele>1210.9</ele>
        <time>2022-08-01T09:59:40Z</time>
      </trkpt>
      <trkpt lat="44.79275" lon="3.173">
        <ele>1210.9</ele>
        <time>2022-08-01T09:59:41Z</time>
      </trkpt>
      <trkpt lat="44.79274" lon="3.17299">
        <ele>1210.9</ele>
        <time>2022-08-01T09:59:42Z</time>
      </trkpt>
      <trkpt lat="44.79273" lon="3.17299">
        <ele>1211</ele>
        <time>2022-08-01T09:59:45Z</time>
      </trkpt>
      <trkpt lat="44.79267" lon="3.17299">
        <ele>1211.2</ele>
        <time>2022-08-01T09:59:51Z</time>
      </trkpt>
      <trkpt lat="44.79251" lon="3.17298">
        <ele>1211.7</ele>
        <time>2022-08-01T10:00:03Z</time>
      </trkpt>
      <trkpt lat="44.79248" lon="3.17298">
        <ele>1211.8</ele>
        <time>2022-08-01T10:00:06Z</time>
      </trkpt>
      <trkpt lat="44.79243" lon="3.17297">
        <ele>1212</ele>
        <time>2022-08-01T10:00:10Z</time>
      </trkpt>
      <trkpt lat="44.79239" lon="3.17297">
        <ele>1212.1</ele>
        <time>2022-08-01T10:00:13Z</time>
      </trkpt>
      <trkpt lat="44.79234" lon="3.17296">
        <ele>1212.2</ele>
        <time>2022-08-01T10:00:17Z</time>
      </trkpt>
      <trkpt lat="44.79233" lon="3.17295">
        <ele>1212.2</ele>
        <time>2022-08-01T10:00:18Z</time>
      </trkpt>
      <trkpt lat="44.79232" lon="3.17295">
        <ele>1212.3</ele>
        <time>2022-08-01T10:00:19Z</time>
      </trkpt>
      <trkpt lat="44.79231" lon="3.17295">
        <ele>1212.3</ele>
        <time>2022-08-01T10:00:20Z</time>
      </trkpt>
      <trkpt lat="44.79226" lon="3.17295">
        <ele>1212.5</ele>
        <time>2022-08-01T10:00:24Z</time>
      </trkpt>
      <trkpt lat="44.79225" lon="3.17296">
        <ele>1212.5</ele>
        <time>2022-08-01T10:00:25Z</time>
      </trkpt>
      <trkpt lat="44.79224" lon="3.17295">
        <ele>1212.5</ele>
        <time>2022-08-01T10:00:26Z</time>
      </trkpt>
      <trkpt lat="44.79215" lon="3.17299">
        <ele>1212.8</ele>
        <time>2022-08-01T10:00:33Z</time>
      </trkpt>
      <trkpt lat="44.79206" lon="3.17301">
        <ele>1212.8</ele>
        <time>2022-08-01T10:00:40Z</time>
      </trkpt>
      <trkpt lat="44.79204" lon="3.17302">
        <ele>1212.9</ele>
        <time>2022-08-01T10:00:42Z</time>
      </trkpt>
      <trkpt lat="44.792" lon="3.17303">
        <ele>1212.9</ele>
        <time>2022-08-01T10:00:45Z</time>
      </trkpt>
      <trkpt lat="44.79195" lon="3.17305">
        <ele>1213</ele>
        <time>2022-08-01T10:00:49Z</time>
      </trkpt>
      <trkpt lat="44.79192" lon="3.17305">
        <ele>1213.1</ele>
        <time>2022-08-01T10:00:51Z</time>
      </trkpt>
      <trkpt lat="44.79189" lon="3.17306">
        <ele>1213.2</ele>
        <time>2022-08-01T10:00:54Z</time>
      </trkpt>
      <trkpt lat="44.79183" lon="3.17308">
        <ele>1213.6</ele>
        <time>2022-08-01T10:00:59Z</time>
      </trkpt>
      <trkpt lat="44.79176" lon="3.1731">
        <ele>1214</ele>
        <time>2022-08-01T10:01:05Z</time>
      </trkpt>
      <trkpt lat="44.79174" lon="3.1731">
        <ele>1214.1</ele>
        <time>2022-08-01T10:01:07Z</time>
      </trkpt>
      <trkpt lat="44.79173" lon="3.1731">
        <ele>1214.1</ele>
        <time>2022-08-01T10:01:08Z</time>
      </trkpt>
      <trkpt lat="44.79167" lon="3.1731">
        <ele>1214.3</ele>
        <time>2022-08-01T10:01:13Z</time>
      </trkpt>
      <trkpt lat="44.79164" lon="3.17309">
        <ele>1214.4</ele>
        <time>2022-08-01T10:01:15Z</time>
      </trkpt>
      <trkpt lat="44.79163" lon="3.17309">
        <ele>1214.4</ele>
        <time>2022-08-01T10:01:16Z</time>
      </trkpt>
      <trkpt lat="44.79156" lon="3.17308">
        <ele>1214.9</ele>
        <time>2022-08-01T10:01:23Z</time>
      </trkpt>
      <trkpt lat="44.79152" lon="3.17308">
        <ele>1215.2</ele>
        <time>2022-08-01T10:01:26Z</time>
      </trkpt>
      <trkpt lat="44.79146" lon="3.17308">
        <ele>1215.6</ele>
        <time>2022-08-01T10:01:31Z</time>
      </trkpt>
      <trkpt lat="44.79136" lon="3.17308">
        <ele>1216.1</ele>
        <time>2022-08-01T10:01:39Z</time>
      </trkpt>
      <trkpt lat="44.79131" lon="3.17307">
        <ele>1216.1</ele>
        <time>2022-08-01T10:01:43Z</time>
      </trkpt>
      <trkpt lat="44.79123" lon="3.17306">
        <ele>1216</ele>
        <time>2022-08-01T10:01:50Z</time>
      </trkpt>
      <trkpt lat="44.79121" lon="3.17305">
        <ele>1216</ele>
        <time>2022-08-01T10:01:51Z</time>
      </trkpt>
      <trkpt lat="44.79116" lon="3.17305">
        <ele>1215.9</ele>
        <time>2022-08-01T10:01:56Z</time>
      </trkpt>
      <trkpt lat="44.79113" lon="3.17305">
        <ele>1215.9</ele>
        <time>2022-08-01T10:01:58Z</time>
      </trkpt>
      <trkpt lat="44.79112" lon="3.17305">
        <ele>1215.9</ele>
        <time>2022-08-01T10:01:59Z</time>
      </trkpt>
      <trkpt lat="44.79109" lon="3.17305">
        <ele>1215.9</ele>
        <time>2022-08-01T10:02:01Z</time>
      </trkpt>
      <trkpt lat="44.79101" lon="3.17306">
        <ele>1215.7</ele>
        <time>2022-08-01T10:02:07Z</time>
      </trkpt>
      <trkpt lat="44.791" lon="3.17307">
        <ele>1215.7</ele>
        <time>2022-08-01T10:02:08Z</time>
      </trkpt>
      <trkpt lat="44.79099" lon="3.17307">
        <ele>1215.6</ele>
        <time>2022-08-01T10:02:09Z</time>
      </trkpt>
      <trkpt lat="44.79097" lon="3.17306">
        <ele>1215.5</ele>
        <time>2022-08-01T10:02:11Z</time>
      </trkpt>
      <trkpt lat="44.79094" lon="3.17308">
        <ele>1215.5</ele>
        <time>2022-08-01T10:02:13Z</time>
      </trkpt>
      <trkpt lat="44.79091" lon="3.17308">
        <ele>1215.5</ele>
        <time>2022-08-01T10:02:15Z</time>
      </trkpt>
      <trkpt lat="44.7909" lon="3.17309">
        <ele>1215.4</ele>
        <time>2022-08-01T10:02:16Z</time>
      </trkpt>
      <trkpt lat="44.79087" lon="3.17309">
        <ele>1215.4</ele>
        <time>2022-08-01T10:02:18Z</time>
      </trkpt>
      <trkpt lat="44.79082" lon="3.1731">
        <ele>1215.3</ele>
        <time>2022-08-01T10:02:22Z</time>
      </trkpt>
      <trkpt lat="44.79077" lon="3.17312">
        <ele>1215.4</ele>
        <time>2022-08-01T10:02:25Z</time>
      </trkpt>
      <trkpt lat="44.79076" lon="3.17312">
        <ele>1215.4</ele>
        <time>2022-08-01T10:02:26Z</time>
      </trkpt>
      <trkpt lat="44.79071" lon="3.17313">
        <ele>1215.4</ele>
        <time>2022-08-01T10:02:30Z</time>
      </trkpt>
      <trkpt lat="44.79067" lon="3.17314">
        <ele>1215.4</ele>
        <time>2022-08-01T10:02:34Z</time>
      </trkpt>
      <trkpt lat="44.79064" lon="3.17314">
        <ele>1215.4</ele>
        <time>2022-08-01T10:02:36Z</time>
      </trkpt>
      <trkpt lat="44.7906" lon="3.17315">
        <ele>1215.4</ele>
        <time>2022-08-01T10:02:39Z</time>
      </trkpt>
      <trkpt lat="44.79055" lon="3.17317">
        <ele>1215.4</ele>
        <time>2022-08-01T10:02:44Z</time>
      </trkpt>
      <trkpt lat="44.79049" lon="3.17317">
        <ele>1215.3</ele>
        <time>2022-08-01T10:02:48Z</time>
      </trkpt>
      <trkpt lat="44.79045" lon="3.17318">
        <ele>1215.2</ele>
        <time>2022-08-01T10:02:52Z</time>
      </trkpt>
      <trkpt lat="44.79039" lon="3.17321">
        <ele>1215.3</ele>
        <time>2022-08-01T10:02:56Z</time>
      </trkpt>
      <trkpt lat="44.79037" lon="3.17321">
        <ele>1215.3</ele>
        <time>2022-08-01T10:02:58Z</time>
      </trkpt>
      <trkpt lat="44.79036" lon="3.17321">
        <ele>1215.3</ele>
        <time>2022-08-01T10:02:59Z</time>
      </trkpt>
      <trkpt lat="44.79034" lon="3.17322">
        <ele>1215.3</ele>
        <time>2022-08-01T10:03:00Z</time>
      </trkpt>
      <trkpt lat="44.79032" lon="3.17323">
        <ele>1215.3</ele>
        <time>2022-08-01T10:03:02Z</time>
      </trkpt>
      <trkpt lat="44.79026" lon="3.17326">
        <ele>1215.4</ele>
        <time>2022-08-01T10:03:06Z</time>
      </trkpt>
      <trkpt lat="44.79025" lon="3.17325">
        <ele>1215.3</ele>
        <time>2022-08-01T10:03:07Z</time>
      </trkpt>
      <trkpt lat="44.79024" lon="3.17325">
        <ele>1215.3</ele>
        <time>2022-08-01T10:03:08Z</time>
      </trkpt>
      <trkpt lat="44.79023" lon="3.17325">
        <ele>1215.2</ele>
        <time>2022-08-01T10:03:09Z</time>
      </trkpt>
      <trkpt lat="44.79022" lon="3.17325">
        <ele>1215.2</ele>
        <time>2022-08-01T10:03:10Z</time>
      </trkpt>
      <trkpt lat="44.79017" lon="3.17327">
        <ele>1215.2</ele>
        <time>2022-08-01T10:03:13Z</time>
      </trkpt>
      <trkpt lat="44.79016" lon="3.17328">
        <ele>1215.2</ele>
        <time>2022-08-01T10:03:14Z</time>
      </trkpt>
      <trkpt lat="44.79016" lon="3.17329">
        <ele>1215.2</ele>
        <time>2022-08-01T10:03:16Z</time>
      </trkpt>
      <trkpt lat="44.79016" lon="3.17328">
        <ele>1215.2</ele>
        <time>2022-08-01T10:03:17Z</time>
      </trkpt>
      <trkpt lat="44.79016" lon="3.17329">
        <ele>1215.3</ele>
        <time>2022-08-01T10:03:20Z</time>
      </trkpt>
      <trkpt lat="44.79016" lon="3.1733">
        <ele>1215.3</ele>
        <time>2022-08-01T10:03:22Z</time>
      </trkpt>
      <trkpt lat="44.79016" lon="3.17331">
        <ele>1215.4</ele>
        <time>2022-08-01T10:03:23Z</time>
      </trkpt>
      <trkpt lat="44.79016" lon="3.1733">
        <ele>1215.4</ele>
        <time>2022-08-01T10:03:24Z</time>
      </trkpt>
      <trkpt lat="44.79016" lon="3.1733">
        <ele>1215.4</ele>
        <time>2022-08-01T10:03:25Z</time>
      </trkpt>
      <trkpt lat="44.79016" lon="3.17331">
        <ele>1215.4</ele>
        <time>2022-08-01T10:03:26Z</time>
      </trkpt>
      <trkpt lat="44.79016" lon="3.17331">
        <ele>1215.4</ele>
        <time>2022-08-01T10:03:28Z</time>
      </trkpt>
      <trkpt lat="44.79016" lon="3.17332">
        <ele>1215.5</ele>
        <time>2022-08-01T10:03:29Z</time>
      </trkpt>
      <trkpt lat="44.79015" lon="3.17333">
        <ele>1215.5</ele>
        <time>2022-08-01T10:03:30Z</time>
      </trkpt>
      <trkpt lat="44.79015" lon="3.17333">
        <ele>1215.5</ele>
        <time>2022-08-01T10:03:31Z</time>
      </trkpt>
      <trkpt lat="44.79013" lon="3.17334">
        <ele>1215.5</ele>
        <time>2022-08-01T10:03:32Z</time>
      </trkpt>
      <trkpt lat="44.79012" lon="3.17334">
        <ele>1215.4</ele>
        <time>2022-08-01T10:03:33Z</time>
      </trkpt>
      <trkpt lat="44.79011" lon="3.17333">
        <ele>1215.4</ele>
        <time>2022-08-01T10:03:34Z</time>
      </trkpt>
      <trkpt lat="44.7901" lon="3.17334">
        <ele>1215.4</ele>
        <time>2022-08-01T10:03:35Z</time>
      </trkpt>
      <trkpt lat="44.79007" lon="3.17334">
        <ele>1215.3</ele>
        <time>2022-08-01T10:03:37Z</time>
      </trkpt>
      <trkpt lat="44.79006" lon="3.17334">
        <ele>1215.2</ele>
        <time>2022-08-01T10:03:38Z</time>
      </trkpt>
      <trkpt lat="44.79004" lon="3.17335">
        <ele>1215.2</ele>
        <time>2022-08-01T10:03:39Z</time>
      </trkpt>
      <trkpt lat="44.79003" lon="3.17335">
        <ele>1215.2</ele>
        <time>2022-08-01T10:03:40Z</time>
      </trkpt>
      <trkpt lat="44.79002" lon="3.17336">
        <ele>1215.1</ele>
        <time>2022-08-01T10:03:41Z</time>
      </trkpt>
      <trkpt lat="44.79" lon="3.17336">
        <ele>1215.1</ele>
        <time>2022-08-01T10:03:42Z</time>
      </trkpt>
      <trkpt lat="44.78999" lon="3.17336">
        <ele>1215</ele>
        <time>2022-08-01T10:03:43Z</time>
      </trkpt>
      <trkpt lat="44.78998" lon="3.17336">
        <ele>1215</ele>
        <time>2022-08-01T10:03:44Z</time>
      </trkpt>
      <trkpt lat="44.78997" lon="3.17336">
        <ele>1214.9</ele>
        <time>2022-08-01T10:03:45Z</time>
      </trkpt>
      <trkpt lat="44.78995" lon="3.17337">
        <ele>1214.8</ele>
        <time>2022-08-01T10:03:46Z</time>
      </trkpt>
      <trkpt lat="44.78994" lon="3.17337">
        <ele>1214.7</ele>
        <time>2022-08-01T10:03:47Z</time>
      </trkpt>
      <trkpt lat="44.7899" lon="3.17338">
        <ele>1214.5</ele>
        <time>2022-08-01T10:03:50Z</time>
      </trkpt>
      <trkpt lat="44.78987" lon="3.1734">
        <ele>1214.4</ele>
        <time>2022-08-01T10:03:52Z</time>
      </trkpt>
      <trkpt lat="44.78986" lon="3.17341">
        <ele>1214.4</ele>
        <time>2022-08-01T10:03:53Z</time>
      </trkpt>
      <trkpt lat="44.78985" lon="3.17342">
        <ele>1214.4</ele>
        <time>2022-08-01T10:03:54Z</time>
      </trkpt>
      <trkpt lat="44.78984" lon="3.17342">
        <ele>1214.3</ele>
        <time>2022-08-01T10:03:55Z</time>
      </trkpt>
      <trkpt lat="44.78982" lon="3.17341">
        <ele>1214.1</ele>
        <time>2022-08-01T10:03:57Z</time>
      </trkpt>
      <trkpt lat="44.78979" lon="3.17343">
        <ele>1214.1</ele>
        <time>2022-08-01T10:03:59Z</time>
      </trkpt>
      <trkpt lat="44.78977" lon="3.17344">
        <ele>1214</ele>
        <time>2022-08-01T10:04:00Z</time>
      </trkpt>
      <trkpt lat="44.78973" lon="3.17345">
        <ele>1213.9</ele>
        <time>2022-08-01T10:04:02Z</time>
      </trkpt>
      <trkpt lat="44.78971" lon="3.17346">
        <ele>1213.9</ele>
        <time>2022-08-01T10:04:04Z</time>
      </trkpt>
      <trkpt lat="44.78967" lon="3.17346">
        <ele>1213.9</ele>
        <time>2022-08-01T10:04:07Z</time>
      </trkpt>
      <trkpt lat="44.78963" lon="3.17348">
        <ele>1213.9</ele>
        <time>2022-08-01T10:04:10Z</time>
      </trkpt>
      <trkpt lat="44.78962" lon="3.17349">
        <ele>1213.9</ele>
        <time>2022-08-01T10:04:11Z</time>
      </trkpt>
      <trkpt lat="44.78961" lon="3.17349">
        <ele>1213.9</ele>
        <time>2022-08-01T10:04:12Z</time>
      </trkpt>
      <trkpt lat="44.78959" lon="3.1735">
        <ele>1213.9</ele>
        <time>2022-08-01T10:04:13Z</time>
      </trkpt>
      <trkpt lat="44.78958" lon="3.1735">
        <ele>1213.9</ele>
        <time>2022-08-01T10:04:14Z</time>
      </trkpt>
      <trkpt lat="44.78957" lon="3.17351">
        <ele>1213.9</ele>
        <time>2022-08-01T10:04:15Z</time>
      </trkpt>
      <trkpt lat="44.78956" lon="3.17351">
        <ele>1213.9</ele>
        <time>2022-08-01T10:04:16Z</time>
      </trkpt>
      <trkpt lat="44.78952" lon="3.17352">
        <ele>1213.9</ele>
        <time>2022-08-01T10:04:19Z</time>
      </trkpt>
      <trkpt lat="44.78947" lon="3.17354">
        <ele>1213.8</ele>
        <time>2022-08-01T10:04:23Z</time>
      </trkpt>
      <trkpt lat="44.78944" lon="3.17355">
        <ele>1213.7</ele>
        <time>2022-08-01T10:04:26Z</time>
      </trkpt>
      <trkpt lat="44.7894" lon="3.17357">
        <ele>1213.7</ele>
        <time>2022-08-01T10:04:29Z</time>
      </trkpt>
      <trkpt lat="44.78937" lon="3.17358">
        <ele>1213.6</ele>
        <time>2022-08-01T10:04:31Z</time>
      </trkpt>
      <trkpt lat="44.78934" lon="3.17359">
        <ele>1213.5</ele>
        <time>2022-08-01T10:04:34Z</time>
      </trkpt>
      <trkpt lat="44.78931" lon="3.1736">
        <ele>1213.5</ele>
        <time>2022-08-01T10:04:36Z</time>
      </trkpt>
      <trkpt lat="44.7893" lon="3.1736">
        <ele>1213.4</ele>
        <time>2022-08-01T10:04:37Z</time>
      </trkpt>
      <trkpt lat="44.78926" lon="3.17363">
        <ele>1213.4</ele>
        <time>2022-08-01T10:04:40Z</time>
      </trkpt>
      <trkpt lat="44.78923" lon="3.17364">
        <ele>1213.3</ele>
        <time>2022-08-01T10:04:42Z</time>
      </trkpt>
      <trkpt lat="44.78921" lon="3.17364">
        <ele>1213.2</ele>
        <time>2022-08-01T10:04:44Z</time>
      </trkpt>
      <trkpt lat="44.78919" lon="3.17364">
        <ele>1213.2</ele>
        <time>2022-08-01T10:04:45Z</time>
      </trkpt>
      <trkpt lat="44.78917" lon="3.17366">
        <ele>1213.2</ele>
        <time>2022-08-01T10:04:47Z</time>
      </trkpt>
      <trkpt lat="44.78915" lon="3.17366">
        <ele>1213.2</ele>
        <time>2022-08-01T10:04:49Z</time>
      </trkpt>
      <trkpt lat="44.78914" lon="3.17366">
        <ele>1213.2</ele>
        <time>2022-08-01T10:04:50Z</time>
      </trkpt>
      <trkpt lat="44.78912" lon="3.17366">
        <ele>1213.2</ele>
        <time>2022-08-01T10:04:51Z</time>
      </trkpt>
      <trkpt lat="44.7891" lon="3.17367">
        <ele>1213.2</ele>
        <time>2022-08-01T10:04:53Z</time>
      </trkpt>
      <trkpt lat="44.78907" lon="3.17368">
        <ele>1213.3</ele>
        <time>2022-08-01T10:04:55Z</time>
      </trkpt>
      <trkpt lat="44.78906" lon="3.17369">
        <ele>1213.3</ele>
        <time>2022-08-01T10:04:56Z</time>
      </trkpt>
      <trkpt lat="44.78904" lon="3.17369">
        <ele>1213.3</ele>
        <time>2022-08-01T10:04:58Z</time>
      </trkpt>
      <trkpt lat="44.78903" lon="3.1737">
        <ele>1213.3</ele>
        <time>2022-08-01T10:04:59Z</time>
      </trkpt>
      <trkpt lat="44.789" lon="3.17371">
        <ele>1213.3</ele>
        <time>2022-08-01T10:05:01Z</time>
      </trkpt>
      <trkpt lat="44.78898" lon="3.17372">
        <ele>1213.4</ele>
        <time>2022-08-01T10:05:02Z</time>
      </trkpt>
      <trkpt lat="44.78897" lon="3.17372">
        <ele>1213.4</ele>
        <time>2022-08-01T10:05:03Z</time>
      </trkpt>
      <trkpt lat="44.78895" lon="3.17372">
        <ele>1213.4</ele>
        <time>2022-08-01T10:05:05Z</time>
      </trkpt>
      <trkpt lat="44.78894" lon="3.17372">
        <ele>1213.4</ele>
        <time>2022-08-01T10:05:06Z</time>
      </trkpt>
      <trkpt lat="44.78891" lon="3.17373">
        <ele>1213.4</ele>
        <time>2022-08-01T10:05:08Z</time>
      </trkpt>
      <trkpt lat="44.7889" lon="3.17374">
        <ele>1213.5</ele>
        <time>2022-08-01T10:05:09Z</time>
      </trkpt>
      <trkpt lat="44.78888" lon="3.17374">
        <ele>1213.5</ele>
        <time>2022-08-01T10:05:10Z</time>
      </trkpt>
      <trkpt lat="44.78886" lon="3.17375">
        <ele>1213.5</ele>
        <time>2022-08-01T10:05:12Z</time>
      </trkpt>
      <trkpt lat="44.78885" lon="3.17376">
        <ele>1213.5</ele>
        <time>2022-08-01T10:05:13Z</time>
      </trkpt>
      <trkpt lat="44.78882" lon="3.17377">
        <ele>1213.4</ele>
        <time>2022-08-01T10:05:15Z</time>
      </trkpt>
      <trkpt lat="44.7888" lon="3.17378">
        <ele>1213.4</ele>
        <time>2022-08-01T10:05:17Z</time>
      </trkpt>
      <trkpt lat="44.78877" lon="3.17379">
        <ele>1213.4</ele>
        <time>2022-08-01T10:05:19Z</time>
      </trkpt>
      <trkpt lat="44.78875" lon="3.17379">
        <ele>1213.3</ele>
        <time>2022-08-01T10:05:21Z</time>
      </trkpt>
      <trkpt lat="44.78873" lon="3.1738">
        <ele>1213.3</ele>
        <time>2022-08-01T10:05:23Z</time>
      </trkpt>
      <trkpt lat="44.78871" lon="3.1738">
        <ele>1213.3</ele>
        <time>2022-08-01T10:05:24Z</time>
      </trkpt>
      <trkpt lat="44.7887" lon="3.17381">
        <ele>1213.2</ele>
        <time>2022-08-01T10:05:25Z</time>
      </trkpt>
      <trkpt lat="44.78867" lon="3.17383">
        <ele>1213.2</ele>
        <time>2022-08-01T10:05:27Z</time>
      </trkpt>
      <trkpt lat="44.78865" lon="3.17384">
        <ele>1213.1</ele>
        <time>2022-08-01T10:05:29Z</time>
      </trkpt>
      <trkpt lat="44.78862" lon="3.17384">
        <ele>1213</ele>
        <time>2022-08-01T10:05:31Z</time>
      </trkpt>
      <trkpt lat="44.7886" lon="3.17386">
        <ele>1213</ele>
        <time>2022-08-01T10:05:33Z</time>
      </trkpt>
      <trkpt lat="44.78859" lon="3.17386">
        <ele>1213</ele>
        <time>2022-08-01T10:05:34Z</time>
      </trkpt>
      <trkpt lat="44.78855" lon="3.17387">
        <ele>1213</ele>
        <time>2022-08-01T10:05:37Z</time>
      </trkpt>
      <trkpt lat="44.78854" lon="3.17387">
        <ele>1213</ele>
        <time>2022-08-01T10:05:38Z</time>
      </trkpt>
      <trkpt lat="44.78853" lon="3.17388">
        <ele>1213</ele>
        <time>2022-08-01T10:05:39Z</time>
      </trkpt>
      <trkpt lat="44.78851" lon="3.17388">
        <ele>1213</ele>
        <time>2022-08-01T10:05:40Z</time>
      </trkpt>
      <trkpt lat="44.7885" lon="3.17388">
        <ele>1213</ele>
        <time>2022-08-01T10:05:41Z</time>
      </trkpt>
      <trkpt lat="44.78849" lon="3.17389">
        <ele>1213</ele>
        <time>2022-08-01T10:05:42Z</time>
      </trkpt>
      <trkpt lat="44.78844" lon="3.1739">
        <ele>1213</ele>
        <time>2022-08-01T10:05:47Z</time>
      </trkpt>
      <trkpt lat="44.78838" lon="3.17392">
        <ele>1213</ele>
        <time>2022-08-01T10:05:52Z</time>
      </trkpt>
      <trkpt lat="44.78835" lon="3.17393">
        <ele>1213</ele>
        <time>2022-08-01T10:05:54Z</time>
      </trkpt>
      <trkpt lat="44.78831" lon="3.17395">
        <ele>1213</ele>
        <time>2022-08-01T10:05:57Z</time>
      </trkpt>
      <trkpt lat="44.78829" lon="3.17395">
        <ele>1213</ele>
        <time>2022-08-01T10:05:58Z</time>
      </trkpt>
      <trkpt lat="44.78819" lon="3.174">
        <ele>1213.2</ele>
        <time>2022-08-01T10:06:06Z</time>
      </trkpt>
      <trkpt lat="44.78815" lon="3.17402">
        <ele>1213.3</ele>
        <time>2022-08-01T10:06:09Z</time>
      </trkpt>
      <trkpt lat="44.78812" lon="3.17403">
        <ele>1213.4</ele>
        <time>2022-08-01T10:06:11Z</time>
      </trkpt>
      <trkpt lat="44.78807" lon="3.17405">
        <ele>1213.6</ele>
        <time>2022-08-01T10:06:15Z</time>
      </trkpt>
      <trkpt lat="44.78805" lon="3.17406">
        <ele>1213.6</ele>
        <time>2022-08-01T10:06:16Z</time>
      </trkpt>
      <trkpt lat="44.788" lon="3.17407">
        <ele>1213.6</ele>
        <time>2022-08-01T10:06:20Z</time>
      </trkpt>
      <trkpt lat="44.78798" lon="3.17408">
        <ele>1213.6</ele>
        <time>2022-08-01T10:06:22Z</time>
      </trkpt>
      <trkpt lat="44.78797" lon="3.17407">
        <ele>1213.6</ele>
        <time>2022-08-01T10:06:23Z</time>
      </trkpt>
      <trkpt lat="44.78789" lon="3.17401">
        <ele>1213.5</ele>
        <time>2022-08-01T10:06:31Z</time>
      </trkpt>
      <trkpt lat="44.78788" lon="3.17399">
        <ele>1213.5</ele>
        <time>2022-08-01T10:06:32Z</time>
      </trkpt>
      <trkpt lat="44.78788" lon="3.17399">
        <ele>1213.5</ele>
        <time>2022-08-01T10:06:33Z</time>
      </trkpt>
      <trkpt lat="44.78787" lon="3.17398">
        <ele>1213.6</ele>
        <time>2022-08-01T10:06:34Z</time>
      </trkpt>
      <trkpt lat="44.78787" lon="3.17398">
        <ele>1213.6</ele>
        <time>2022-08-01T10:06:35Z</time>
      </trkpt>
      <trkpt lat="44.78786" lon="3.17398">
        <ele>1213.6</ele>
        <time>2022-08-01T10:06:36Z</time>
      </trkpt>
      <trkpt lat="44.78787" lon="3.17398">
        <ele>1213.6</ele>
        <time>2022-08-01T10:06:37Z</time>
      </trkpt>
      <trkpt lat="44.78786" lon="3.17398">
        <ele>1213.6</ele>
        <time>2022-08-01T10:06:40Z</time>
      </trkpt>
      <trkpt lat="44.78786" lon="3.17398">
        <ele>1213.6</ele>
        <time>2022-08-01T10:06:42Z</time>
      </trkpt>
      <trkpt lat="44.78785" lon="3.17397">
        <ele>1213.6</ele>
        <time>2022-08-01T10:06:44Z</time>
      </trkpt>
      <trkpt lat="44.78784" lon="3.17397">
        <ele>1213.6</ele>
        <time>2022-08-01T10:06:45Z</time>
      </trkpt>
      <trkpt lat="44.78782" lon="3.17398">
        <ele>1213.6</ele>
        <time>2022-08-01T10:06:51Z</time>
      </trkpt>
      <trkpt lat="44.78782" lon="3.17397">
        <ele>1213.6</ele>
        <time>2022-08-01T10:06:54Z</time>
      </trkpt>
      <trkpt lat="44.78783" lon="3.17396">
        <ele>1213.7</ele>
        <time>2022-08-01T10:06:56Z</time>
      </trkpt>
      <trkpt lat="44.78784" lon="3.17396">
        <ele>1213.6</ele>
        <time>2022-08-01T10:06:58Z</time>
      </trkpt>
      <trkpt lat="44.78786" lon="3.17397">
        <ele>1213.6</ele>
        <time>2022-08-01T10:07:00Z</time>
      </trkpt>
      <trkpt lat="44.78789" lon="3.17399">
        <ele>1213.5</ele>
        <time>2022-08-01T10:07:02Z</time>
      </trkpt>
      <trkpt lat="44.78794" lon="3.17409">
        <ele>1213.5</ele>
        <time>2022-08-01T10:07:07Z</time>
      </trkpt>
      <trkpt lat="44.78794" lon="3.1741">
        <ele>1213.5</ele>
        <time>2022-08-01T10:07:08Z</time>
      </trkpt>
      <trkpt lat="44.78794" lon="3.17411">
        <ele>1213.5</ele>
        <time>2022-08-01T10:07:09Z</time>
      </trkpt>
      <trkpt lat="44.78794" lon="3.17411">
        <ele>1213.5</ele>
        <time>2022-08-01T10:07:10Z</time>
      </trkpt>
      <trkpt lat="44.78793" lon="3.17411">
        <ele>1213.5</ele>
        <time>2022-08-01T10:07:11Z</time>
      </trkpt>
      <trkpt lat="44.78793" lon="3.17412">
        <ele>1213.5</ele>
        <time>2022-08-01T10:07:12Z</time>
      </trkpt>
      <trkpt lat="44.78792" lon="3.17413">
        <ele>1213.5</ele>
        <time>2022-08-01T10:07:13Z</time>
      </trkpt>
      <trkpt lat="44.78791" lon="3.17414">
        <ele>1213.5</ele>
        <time>2022-08-01T10:07:14Z</time>
      </trkpt>
      <trkpt lat="44.78791" lon="3.17415">
        <ele>1213.5</ele>
        <time>2022-08-01T10:07:15Z</time>
      </trkpt>
      <trkpt lat="44.78784" lon="3.17416">
        <ele>1213.2</ele>
        <time>2022-08-01T10:07:21Z</time>
      </trkpt>
      <trkpt lat="44.7878" lon="3.17412">
        <ele>1213.2</ele>
        <time>2022-08-01T10:07:27Z</time>
      </trkpt>
      <trkpt lat="44.78779" lon="3.17412">
        <ele>1213.2</ele>
        <time>2022-08-01T10:07:28Z</time>
      </trkpt>
      <trkpt lat="44.78777" lon="3.17412">
        <ele>1213.2</ele>
        <time>2022-08-01T10:07:33Z</time>
      </trkpt>
      <trkpt lat="44.78777" lon="3.17411">
        <ele>1213.2</ele>
        <time>2022-08-01T10:07:34Z</time>
      </trkpt>
      <trkpt lat="44.78777" lon="3.17409">
        <ele>1213.3</ele>
        <time>2022-08-01T10:07:36Z</time>
      </trkpt>
      <trkpt lat="44.78779" lon="3.17406">
        <ele>1213.4</ele>
        <time>2022-08-01T10:07:39Z</time>
      </trkpt>
      <trkpt lat="44.78779" lon="3.17405">
        <ele>1213.4</ele>
        <time>2022-08-01T10:07:40Z</time>
      </trkpt>
      <trkpt lat="44.78778" lon="3.17404">
        <ele>1213.4</ele>
        <time>2022-08-01T10:07:44Z</time>
      </trkpt>
      <trkpt lat="44.78778" lon="3.17405">
        <ele>1213.4</ele>
        <time>2022-08-01T10:07:49Z</time>
      </trkpt>
      <trkpt lat="44.78778" lon="3.17405">
        <ele>1213.4</ele>
        <time>2022-08-01T10:07:50Z</time>
      </trkpt>
      <trkpt lat="44.78778" lon="3.17404">
        <ele>1213.4</ele>
        <time>2022-08-01T10:07:59Z</time>
      </trkpt>
      <trkpt lat="44.78778" lon="3.17404">
        <ele>1213.4</ele>
        <time>2022-08-01T10:08:00Z</time>
      </trkpt>
      <trkpt lat="44.78778" lon="3.17404">
        <ele>1213.4</ele>
        <time>2022-08-01T10:08:02Z</time>
      </trkpt>
      <trkpt lat="44.78778" lon="3.17404">
        <ele>1213.4</ele>
        <time>2022-08-01T10:08:05Z</time>
      </trkpt>
      <trkpt lat="44.78778" lon="3.17404">
        <ele>1213.4</ele>
        <time>2022-08-01T10:08:06Z</time>
      </trkpt>
      <trkpt lat="44.78778" lon="3.17404">
        <ele>1213.5</ele>
        <time>2022-08-01T10:08:10Z</time>
      </trkpt>
      <trkpt lat="44.78776" lon="3.17403">
        <ele>1213.6</ele>
        <time>2022-08-01T10:08:23Z</time>
      </trkpt>
      <trkpt lat="44.78776" lon="3.17403">
        <ele>1213.6</ele>
        <time>2022-08-01T10:08:26Z</time>
      </trkpt>
      <trkpt lat="44.78776" lon="3.17403">
        <ele>1213.6</ele>
        <time>2022-08-01T10:08:28Z</time>
      </trkpt>
      <trkpt lat="44.78776" lon="3.17403">
        <ele>1213.6</ele>
        <time>2022-08-01T10:08:29Z</time>
      </trkpt>
      <trkpt lat="44.78776" lon="3.17402">
        <ele>1213.6</ele>
        <time>2022-08-01T10:08:31Z</time>
      </trkpt>
      <trkpt lat="44.78776" lon="3.17402">
        <ele>1213.6</ele>
        <time>2022-08-01T10:08:34Z</time>
      </trkpt>
      <trkpt lat="44.78776" lon="3.17402">
        <ele>1213.6</ele>
        <time>2022-08-01T10:08:37Z</time>
      </trkpt>
      <trkpt lat="44.78776" lon="3.17402">
        <ele>1213.6</ele>
        <time>2022-08-01T10:08:39Z</time>
      </trkpt>
      <trkpt lat="44.78776" lon="3.17401">
        <ele>1213.6</ele>
        <time>2022-08-01T10:08:41Z</time>
      </trkpt>
      <trkpt lat="44.78776" lon="3.174">
        <ele>1213.7</ele>
        <time>2022-08-01T10:08:42Z</time>
      </trkpt>
      <trkpt lat="44.78776" lon="3.17399">
        <ele>1213.7</ele>
        <time>2022-08-01T10:08:44Z</time>
      </trkpt>
      <trkpt lat="44.78776" lon="3.17397">
        <ele>1213.8</ele>
        <time>2022-08-01T10:08:46Z</time>
      </trkpt>
      <trkpt lat="44.78777" lon="3.17388">
        <ele>1214</ele>
        <time>2022-08-01T10:08:55Z</time>
      </trkpt>
      <trkpt lat="44.78777" lon="3.17385">
        <ele>1214</ele>
        <time>2022-08-01T10:09:00Z</time>
      </trkpt>
      <trkpt lat="44.78777" lon="3.17385">
        <ele>1214</ele>
        <time>2022-08-01T10:09:14Z</time>
      </trkpt>
      <trkpt lat="44.7878" lon="3.17389">
        <ele>1213.9</ele>
        <time>2022-08-01T10:09:36Z</time>
      </trkpt>
      <trkpt lat="44.7878" lon="3.17389">
        <ele>1213.9</ele>
        <time>2022-08-01T10:09:37Z</time>
      </trkpt>
      <trkpt lat="44.78781" lon="3.17393">
        <ele>1213.8</ele>
        <time>2022-08-01T10:09:39Z</time>
      </trkpt>
      <trkpt lat="44.78782" lon="3.17395">
        <ele>1213.7</ele>
        <time>2022-08-01T10:09:40Z</time>
      </trkpt>
      <trkpt lat="44.78783" lon="3.17398">
        <ele>1213.6</ele>
        <time>2022-08-01T10:09:42Z</time>
      </trkpt>
      <trkpt lat="44.78783" lon="3.17401">
        <ele>1213.5</ele>
        <time>2022-08-01T10:09:44Z</time>
      </trkpt>
      <trkpt lat="44.78782" lon="3.17404">
        <ele>1213.5</ele>
        <time>2022-08-01T10:09:46Z</time>
      </trkpt>
      <trkpt lat="44.78781" lon="3.17404">
        <ele>1213.5</ele>
        <time>2022-08-01T10:09:47Z</time>
      </trkpt>
      <trkpt lat="44.78781" lon="3.17405">
        <ele>1213.5</ele>
        <time>2022-08-01T10:09:48Z</time>
      </trkpt>
      <trkpt lat="44.7878" lon="3.17405">
        <ele>1213.4</ele>
        <time>2022-08-01T10:09:50Z</time>
      </trkpt>
      <trkpt lat="44.7878" lon="3.17405">
        <ele>1213.4</ele>
        <time>2022-08-01T10:09:51Z</time>
      </trkpt>
      <trkpt lat="44.7878" lon="3.17404">
        <ele>1213.5</ele>
        <time>2022-08-01T10:09:56Z</time>
      </trkpt>
      <trkpt lat="44.7878" lon="3.17404">
        <ele>1213.5</ele>
        <time>2022-08-01T10:09:58Z</time>
      </trkpt>
      <trkpt lat="44.7878" lon="3.17404">
        <ele>1213.5</ele>
        <time>2022-08-01T10:09:59Z</time>
      </trkpt>
      <trkpt lat="44.7878" lon="3.17404">
        <ele>1213.5</ele>
        <time>2022-08-01T10:10:03Z</time>
      </trkpt>
      <trkpt lat="44.7878" lon="3.17404">
        <ele>1213.5</ele>
        <time>2022-08-01T10:10:04Z</time>
      </trkpt>
      <trkpt lat="44.7878" lon="3.17404">
        <ele>1213.5</ele>
        <time>2022-08-01T10:10:05Z</time>
      </trkpt>
      <trkpt lat="44.7878" lon="3.17404">
        <ele>1213.5</ele>
        <time>2022-08-01T10:10:06Z</time>
      </trkpt>
      <trkpt lat="44.7878" lon="3.17404">
        <ele>1213.5</ele>
        <time>2022-08-01T10:10:08Z</time>
      </trkpt>
      <trkpt lat="44.7878" lon="3.17404">
        <ele>1213.5</ele>
        <time>2022-08-01T10:10:10Z</time>
      </trkpt>
      <trkpt lat="44.7878" lon="3.17403">
        <ele>1213.5</ele>
        <time>2022-08-01T10:10:13Z</time>
      </trkpt>
      <trkpt lat="44.7878" lon="3.17403">
        <ele>1213.5</ele>
        <time>2022-08-01T10:10:14Z</time>
      </trkpt>
      <trkpt lat="44.78779" lon="3.17403">
        <ele>1213.5</ele>
        <time>2022-08-01T10:10:15Z</time>
      </trkpt>
      <trkpt lat="44.78778" lon="3.17403">
        <ele>1213.5</ele>
        <time>2022-08-01T10:10:17Z</time>
      </trkpt>
      <trkpt lat="44.78778" lon="3.17403">
        <ele>1213.5</ele>
        <time>2022-08-01T10:10:19Z</time>
      </trkpt>
      <trkpt lat="44.78777" lon="3.17402">
        <ele>1213.5</ele>
        <time>2022-08-01T10:10:22Z</time>
      </trkpt>
      <trkpt lat="44.78777" lon="3.17402">
        <ele>1213.6</ele>
        <time>2022-08-01T10:10:26Z</time>
      </trkpt>
      <trkpt lat="44.78777" lon="3.17402">
        <ele>1213.6</ele>
        <time>2022-08-01T10:10:28Z</time>
      </trkpt>
      <trkpt lat="44.78777" lon="3.17402">
        <ele>1213.6</ele>
        <time>2022-08-01T10:10:29Z</time>
      </trkpt>
      <trkpt lat="44.78777" lon="3.17402">
        <ele>1213.6</ele>
        <time>2022-08-01T10:10:31Z</time>
      </trkpt>
      <trkpt lat="44.78779" lon="3.17399">
        <ele>1213.6</ele>
        <time>2022-08-01T10:10:45Z</time>
      </trkpt>
      <trkpt lat="44.78781" lon="3.17398">
        <ele>1213.6</ele>
        <time>2022-08-01T10:10:47Z</time>
      </trkpt>
      <trkpt lat="44.78783" lon="3.17397">
        <ele>1213.6</ele>
        <time>2022-08-01T10:10:49Z</time>
      </trkpt>
      <trkpt lat="44.78784" lon="3.17397">
        <ele>1213.6</ele>
        <time>2022-08-01T10:10:51Z</time>
      </trkpt>
      <trkpt lat="44.78785" lon="3.17397">
        <ele>1213.6</ele>
        <time>2022-08-01T10:10:54Z</time>
      </trkpt>
      <trkpt lat="44.78784" lon="3.17399">
        <ele>1213.6</ele>
        <time>2022-08-01T10:10:59Z</time>
      </trkpt>
      <trkpt lat="44.78785" lon="3.17399">
        <ele>1213.6</ele>
        <time>2022-08-01T10:11:00Z</time>
      </trkpt>
      <trkpt lat="44.78785" lon="3.17398">
        <ele>1213.6</ele>
        <time>2022-08-01T10:11:01Z</time>
      </trkpt>
      <trkpt lat="44.78785" lon="3.17396">
        <ele>1213.6</ele>
        <time>2022-08-01T10:11:04Z</time>
      </trkpt>
      <trkpt lat="44.78784" lon="3.17396">
        <ele>1213.6</ele>
        <time>2022-08-01T10:11:06Z</time>
      </trkpt>
      <trkpt lat="44.78784" lon="3.17395">
        <ele>1213.7</ele>
        <time>2022-08-01T10:11:10Z</time>
      </trkpt>
      <trkpt lat="44.78784" lon="3.17395">
        <ele>1213.7</ele>
        <time>2022-08-01T10:11:14Z</time>
      </trkpt>
      <trkpt lat="44.78784" lon="3.17395">
        <ele>1213.7</ele>
        <time>2022-08-01T10:11:21Z</time>
      </trkpt>
      <trkpt lat="44.78784" lon="3.17396">
        <ele>1213.6</ele>
        <time>2022-08-01T10:11:30Z</time>
      </trkpt>
      <trkpt lat="44.78784" lon="3.17396">
        <ele>1213.6</ele>
        <time>2022-08-01T10:11:35Z</time>
      </trkpt>
      <trkpt lat="44.78786" lon="3.17396">
        <ele>1213.6</ele>
        <time>2022-08-01T10:11:42Z</time>
      </trkpt>
      <trkpt lat="44.78791" lon="3.17395">
        <ele>1213.5</ele>
        <time>2022-08-01T10:11:56Z</time>
      </trkpt>
      <trkpt lat="44.78793" lon="3.17393">
        <ele>1213.5</ele>
        <time>2022-08-01T10:11:59Z</time>
      </trkpt>
      <trkpt lat="44.78797" lon="3.17391">
        <ele>1213.3</ele>
        <time>2022-08-01T10:12:04Z</time>
      </trkpt>
      <trkpt lat="44.78794" lon="3.17393">
        <ele>1213.4</ele>
        <time>2022-08-01T10:12:09Z</time>
      </trkpt>
      <trkpt lat="44.78794" lon="3.17393">
        <ele>1213.4</ele>
        <time>2022-08-01T10:12:17Z</time>
      </trkpt>
      <trkpt lat="44.78794" lon="3.17393">
        <ele>1213.4</ele>
        <time>2022-08-01T10:12:19Z</time>
      </trkpt>
      <trkpt lat="44.78793" lon="3.17393">
        <ele>1213.5</ele>
        <time>2022-08-01T10:12:26Z</time>
      </trkpt>
      <trkpt lat="44.78793" lon="3.17394">
        <ele>1213.5</ele>
        <time>2022-08-01T10:12:27Z</time>
      </trkpt>
      <trkpt lat="44.78792" lon="3.17394">
        <ele>1213.5</ele>
        <time>2022-08-01T10:12:29Z</time>
      </trkpt>
      <trkpt lat="44.78789" lon="3.17396">
        <ele>1213.5</ele>
        <time>2022-08-01T10:12:37Z</time>
      </trkpt>
      <trkpt lat="44.78789" lon="3.17397">
        <ele>1213.5</ele>
        <time>2022-08-01T10:12:38Z</time>
      </trkpt>
      <trkpt lat="44.78791" lon="3.17399">
        <ele>1213.5</ele>
        <time>2022-08-01T10:12:39Z</time>
      </trkpt>
      <trkpt lat="44.78793" lon="3.174">
        <ele>1213.5</ele>
        <time>2022-08-01T10:12:40Z</time>
      </trkpt>
      <trkpt lat="44.78795" lon="3.17401">
        <ele>1213.5</ele>
        <time>2022-08-01T10:12:41Z</time>
      </trkpt>
      <trkpt lat="44.78795" lon="3.17402">
        <ele>1213.5</ele>
        <time>2022-08-01T10:12:42Z</time>
      </trkpt>
      <trkpt lat="44.78796" lon="3.17404">
        <ele>1213.5</ele>
        <time>2022-08-01T10:12:43Z</time>
      </trkpt>
      <trkpt lat="44.78796" lon="3.17405">
        <ele>1213.5</ele>
        <time>2022-08-01T10:12:44Z</time>
      </trkpt>
      <trkpt lat="44.78796" lon="3.17406">
        <ele>1213.5</ele>
        <time>2022-08-01T10:12:45Z</time>
      </trkpt>
      <trkpt lat="44.78796" lon="3.17407">
        <ele>1213.5</ele>
        <time>2022-08-01T10:12:46Z</time>
      </trkpt>
      <trkpt lat="44.78796" lon="3.17409">
        <ele>1213.6</ele>
        <time>2022-08-01T10:12:48Z</time>
      </trkpt>
      <trkpt lat="44.78794" lon="3.17407">
        <ele>1213.5</ele>
        <time>2022-08-01T10:12:51Z</time>
      </trkpt>
      <trkpt lat="44.78789" lon="3.17403">
        <ele>1213.5</ele>
        <time>2022-08-01T10:12:55Z</time>
      </trkpt>
      <trkpt lat="44.78788" lon="3.174">
        <ele>1213.5</ele>
        <time>2022-08-01T10:12:57Z</time>
      </trkpt>
      <trkpt lat="44.78787" lon="3.17399">
        <ele>1213.5</ele>
        <time>2022-08-01T10:12:58Z</time>
      </trkpt>
      <trkpt lat="44.78787" lon="3.17399">
        <ele>1213.5</ele>
        <time>2022-08-01T10:13:00Z</time>
      </trkpt>
      <trkpt lat="44.78787" lon="3.17399">
        <ele>1213.5</ele>
        <time>2022-08-01T10:13:02Z</time>
      </trkpt>
      <trkpt lat="44.78786" lon="3.17399">
        <ele>1213.6</ele>
        <time>2022-08-01T10:13:04Z</time>
      </trkpt>
      <trkpt lat="44.78786" lon="3.17398">
        <ele>1213.6</ele>
        <time>2022-08-01T10:13:07Z</time>
      </trkpt>
      <trkpt lat="44.78786" lon="3.17398">
        <ele>1213.6</ele>
        <time>2022-08-01T10:13:10Z</time>
      </trkpt>
      <trkpt lat="44.78786" lon="3.17399">
        <ele>1213.6</ele>
        <time>2022-08-01T10:13:12Z</time>
      </trkpt>
      <trkpt lat="44.78786" lon="3.17399">
        <ele>1213.6</ele>
        <time>2022-08-01T10:13:24Z</time>
      </trkpt>
      <trkpt lat="44.78786" lon="3.17399">
        <ele>1213.6</ele>
        <time>2022-08-01T10:13:27Z</time>
      </trkpt>
      <trkpt lat="44.78786" lon="3.174">
        <ele>1213.5</ele>
        <time>2022-08-01T10:13:31Z</time>
      </trkpt>
      <trkpt lat="44.78786" lon="3.174">
        <ele>1213.5</ele>
        <time>2022-08-01T10:13:32Z</time>
      </trkpt>
      <trkpt lat="44.78786" lon="3.174">
        <ele>1213.5</ele>
        <time>2022-08-01T10:13:33Z</time>
      </trkpt>
      <trkpt lat="44.78786" lon="3.174">
        <ele>1213.5</ele>
        <time>2022-08-01T10:13:40Z</time>
      </trkpt>
      <trkpt lat="44.78781" lon="3.17403">
        <ele>1213.5</ele>
        <time>2022-08-01T10:13:49Z</time>
      </trkpt>
      <trkpt lat="44.7878" lon="3.17403">
        <ele>1213.5</ele>
        <time>2022-08-01T10:13:50Z</time>
      </trkpt>
      <trkpt lat="44.78779" lon="3.17403">
        <ele>1213.5</ele>
        <time>2022-08-01T10:13:53Z</time>
      </trkpt>
      <trkpt lat="44.78778" lon="3.17403">
        <ele>1213.5</ele>
        <time>2022-08-01T10:13:56Z</time>
      </trkpt>
      <trkpt lat="44.78778" lon="3.17404">
        <ele>1213.5</ele>
        <time>2022-08-01T10:13:58Z</time>
      </trkpt>
      <trkpt lat="44.78778" lon="3.17404">
        <ele>1213.5</ele>
        <time>2022-08-01T10:14:00Z</time>
      </trkpt>
      <trkpt lat="44.78777" lon="3.17404">
        <ele>1213.5</ele>
        <time>2022-08-01T10:14:01Z</time>
      </trkpt>
      <trkpt lat="44.78777" lon="3.17405">
        <ele>1213.4</ele>
        <time>2022-08-01T10:14:02Z</time>
      </trkpt>
      <trkpt lat="44.78777" lon="3.17406">
        <ele>1213.4</ele>
        <time>2022-08-01T10:14:04Z</time>
      </trkpt>
      <trkpt lat="44.78777" lon="3.17406">
        <ele>1213.4</ele>
        <time>2022-08-01T10:14:06Z</time>
      </trkpt>
      <trkpt lat="44.78777" lon="3.17406">
        <ele>1213.4</ele>
        <time>2022-08-01T10:14:07Z</time>
      </trkpt>
      <trkpt lat="44.78777" lon="3.17406">
        <ele>1213.4</ele>
        <time>2022-08-01T10:14:08Z</time>
      </trkpt>
      <trkpt lat="44.78777" lon="3.17406">
        <ele>1213.4</ele>
        <time>2022-08-01T10:14:09Z</time>
      </trkpt>
      <trkpt lat="44.78777" lon="3.17406">
        <ele>1213.4</ele>
        <time>2022-08-01T10:14:10Z</time>
      </trkpt>
      <trkpt lat="44.78777" lon="3.17406">
        <ele>1213.4</ele>
        <time>2022-08-01T10:14:11Z</time>
      </trkpt>
      <trkpt lat="44.78777" lon="3.17406">
        <ele>1213.4</ele>
        <time>2022-08-01T10:14:12Z</time>
      </trkpt>
      <trkpt lat="44.78777" lon="3.17406">
        <ele>1213.4</ele>
        <time>2022-08-01T10:14:14Z</time>
      </trkpt>
      <trkpt lat="44.78777" lon="3.17406">
        <ele>1213.4</ele>
        <time>2022-08-01T10:14:22Z</time>
      </trkpt>
      <trkpt lat="44.78775" lon="3.17407">
        <ele>1213.4</ele>
        <time>2022-08-01T10:14:36Z</time>
      </trkpt>
      <trkpt lat="44.78775" lon="3.17407">
        <ele>1213.5</ele>
        <time>2022-08-01T10:14:38Z</time>
      </trkpt>
      <trkpt lat="44.78775" lon="3.17407">
        <ele>1213.5</ele>
        <time>2022-08-01T10:14:39Z</time>
      </trkpt>
      <trkpt lat="44.78775" lon="3.17407">
        <ele>1213.5</ele>
        <time>2022-08-01T10:14:40Z</time>
      </trkpt>
      <trkpt lat="44.78775" lon="3.17406">
        <ele>1213.5</ele>
        <time>2022-08-01T10:14:41Z</time>
      </trkpt>
      <trkpt lat="44.78777" lon="3.17404">
        <ele>1213.5</ele>
        <time>2022-08-01T10:14:43Z</time>
      </trkpt>
      <trkpt lat="44.78779" lon="3.17403">
        <ele>1213.5</ele>
        <time>2022-08-01T10:14:44Z</time>
      </trkpt>
      <trkpt lat="44.78781" lon="3.174">
        <ele>1213.6</ele>
        <time>2022-08-01T10:14:48Z</time>
      </trkpt>
      <trkpt lat="44.78781" lon="3.174">
        <ele>1213.6</ele>
        <time>2022-08-01T10:14:50Z</time>
      </trkpt>
      <trkpt lat="44.78781" lon="3.17404">
        <ele>1213.5</ele>
        <time>2022-08-01T10:14:55Z</time>
      </trkpt>
      <trkpt lat="44.78778" lon="3.17404">
        <ele>1213.5</ele>
        <time>2022-08-01T10:14:58Z</time>
      </trkpt>
      <trkpt lat="44.78777" lon="3.17402">
        <ele>1213.6</ele>
        <time>2022-08-01T10:15:02Z</time>
      </trkpt>
      <trkpt lat="44.78777" lon="3.17402">
        <ele>1213.6</ele>
        <time>2022-08-01T10:15:04Z</time>
      </trkpt>
      <trkpt lat="44.78777" lon="3.17401">
        <ele>1213.6</ele>
        <time>2022-08-01T10:15:05Z</time>
      </trkpt>
      <trkpt lat="44.78777" lon="3.17401">
        <ele>1213.6</ele>
        <time>2022-08-01T10:15:06Z</time>
      </trkpt>
      <trkpt lat="44.78777" lon="3.17401">
        <ele>1213.6</ele>
        <time>2022-08-01T10:15:07Z</time>
      </trkpt>
      <trkpt lat="44.78777" lon="3.17401">
        <ele>1213.6</ele>
        <time>2022-08-01T10:15:08Z</time>
      </trkpt>
      <trkpt lat="44.78777" lon="3.17401">
        <ele>1213.6</ele>
        <time>2022-08-01T10:15:13Z</time>
      </trkpt>
      <trkpt lat="44.78777" lon="3.17401">
        <ele>1213.6</ele>
        <time>2022-08-01T10:15:16Z</time>
      </trkpt>
      <trkpt lat="44.78774" lon="3.17405">
        <ele>1213.5</ele>
        <time>2022-08-01T10:15:20Z</time>
      </trkpt>
      <trkpt lat="44.78773" lon="3.17407">
        <ele>1213.5</ele>
        <time>2022-08-01T10:15:21Z</time>
      </trkpt>
      <trkpt lat="44.78773" lon="3.17407">
        <ele>1213.5</ele>
        <time>2022-08-01T10:15:23Z</time>
      </trkpt>
      <trkpt lat="44.78772" lon="3.17407">
        <ele>1213.5</ele>
        <time>2022-08-01T10:15:24Z</time>
      </trkpt>
      <trkpt lat="44.78772" lon="3.17407">
        <ele>1213.5</ele>
        <time>2022-08-01T10:15:26Z</time>
      </trkpt>
      <trkpt lat="44.78772" lon="3.17407">
        <ele>1213.6</ele>
        <time>2022-08-01T10:15:27Z</time>
      </trkpt>
      <trkpt lat="44.78773" lon="3.17406">
        <ele>1213.6</ele>
        <time>2022-08-01T10:15:28Z</time>
      </trkpt>
      <trkpt lat="44.78773" lon="3.17404">
        <ele>1213.6</ele>
        <time>2022-08-01T10:15:31Z</time>
      </trkpt>
      <trkpt lat="44.78773" lon="3.17404">
        <ele>1213.6</ele>
        <time>2022-08-01T10:15:32Z</time>
      </trkpt>
      <trkpt lat="44.78774" lon="3.17404">
        <ele>1213.6</ele>
        <time>2022-08-01T10:15:34Z</time>
      </trkpt>
      <trkpt lat="44.78774" lon="3.17404">
        <ele>1213.6</ele>
        <time>2022-08-01T10:15:35Z</time>
      </trkpt>
      <trkpt lat="44.78774" lon="3.17404">
        <ele>1213.6</ele>
        <time>2022-08-01T10:15:37Z</time>
      </trkpt>
      <trkpt lat="44.78775" lon="3.17403">
        <ele>1213.6</ele>
        <time>2022-08-01T10:15:38Z</time>
      </trkpt>
      <trkpt lat="44.78775" lon="3.17404">
        <ele>1213.6</ele>
        <time>2022-08-01T10:15:44Z</time>
      </trkpt>
      <trkpt lat="44.78775" lon="3.17404">
        <ele>1213.6</ele>
        <time>2022-08-01T10:15:49Z</time>
      </trkpt>
      <trkpt lat="44.78775" lon="3.17404">
        <ele>1213.6</ele>
        <time>2022-08-01T10:15:52Z</time>
      </trkpt>
      <trkpt lat="44.78775" lon="3.17403">
        <ele>1213.6</ele>
        <time>2022-08-01T10:16:02Z</time>
      </trkpt>
      <trkpt lat="44.78778" lon="3.17398">
        <ele>1213.7</ele>
        <time>2022-08-01T10:16:05Z</time>
      </trkpt>
      <trkpt lat="44.78782" lon="3.17397">
        <ele>1213.6</ele>
        <time>2022-08-01T10:16:09Z</time>
      </trkpt>
      <trkpt lat="44.78783" lon="3.17396">
        <ele>1213.7</ele>
        <time>2022-08-01T10:16:10Z</time>
      </trkpt>
      <trkpt lat="44.78783" lon="3.17395">
        <ele>1213.7</ele>
        <time>2022-08-01T10:16:11Z</time>
      </trkpt>
      <trkpt lat="44.78783" lon="3.17394">
        <ele>1213.7</ele>
        <time>2022-08-01T10:16:12Z</time>
      </trkpt>
      <trkpt lat="44.78783" lon="3.17394">
        <ele>1213.7</ele>
        <time>2022-08-01T10:16:13Z</time>
      </trkpt>
      <trkpt lat="44.78783" lon="3.17395">
        <ele>1213.7</ele>
        <time>2022-08-01T10:16:14Z</time>
      </trkpt>
      <trkpt lat="44.78785" lon="3.17396">
        <ele>1213.6</ele>
        <time>2022-08-01T10:16:16Z</time>
      </trkpt>
      <trkpt lat="44.78786" lon="3.17396">
        <ele>1213.6</ele>
        <time>2022-08-01T10:16:18Z</time>
      </trkpt>
      <trkpt lat="44.78786" lon="3.17396">
        <ele>1213.6</ele>
        <time>2022-08-01T10:16:19Z</time>
      </trkpt>
      <trkpt lat="44.78786" lon="3.17396">
        <ele>1213.6</ele>
        <time>2022-08-01T10:16:20Z</time>
      </trkpt>
      <trkpt lat="44.78786" lon="3.17396">
        <ele>1213.6</ele>
        <time>2022-08-01T10:16:21Z</time>
      </trkpt>
      <trkpt lat="44.78786" lon="3.17396">
        <ele>1213.6</ele>
        <time>2022-08-01T10:16:22Z</time>
      </trkpt>
      <trkpt lat="44.78786" lon="3.17396">
        <ele>1213.6</ele>
        <time>2022-08-01T10:16:23Z</time>
      </trkpt>
      <trkpt lat="44.78786" lon="3.17396">
        <ele>1213.6</ele>
        <time>2022-08-01T10:16:24Z</time>
      </trkpt>
      <trkpt lat="44.78786" lon="3.17396">
        <ele>1213.6</ele>
        <time>2022-08-01T10:16:25Z</time>
      </trkpt>
      <trkpt lat="44.78786" lon="3.17396">
        <ele>1213.6</ele>
        <time>2022-08-01T10:16:26Z</time>
      </trkpt>
      <trkpt lat="44.78786" lon="3.17396">
        <ele>1213.6</ele>
        <time>2022-08-01T10:16:27Z</time>
      </trkpt>
      <trkpt lat="44.78786" lon="3.17396">
        <ele>1213.6</ele>
        <time>2022-08-01T10:16:28Z</time>
      </trkpt>
      <trkpt lat="44.78786" lon="3.17396">
        <ele>1213.6</ele>
        <time>2022-08-01T10:16:29Z</time>
      </trkpt>
      <trkpt lat="44.78786" lon="3.17396">
        <ele>1213.6</ele>
        <time>2022-08-01T10:16:31Z</time>
      </trkpt>
      <trkpt lat="44.78785" lon="3.17396">
        <ele>1213.6</ele>
        <time>2022-08-01T10:16:38Z</time>
      </trkpt>
      <trkpt lat="44.78785" lon="3.17396">
        <ele>1213.6</ele>
        <time>2022-08-01T10:16:42Z</time>
      </trkpt>
      <trkpt lat="44.78785" lon="3.17396">
        <ele>1213.6</ele>
        <time>2022-08-01T10:16:43Z</time>
      </trkpt>
      <trkpt lat="44.78785" lon="3.17396">
        <ele>1213.6</ele>
        <time>2022-08-01T10:16:44Z</time>
      </trkpt>
      <trkpt lat="44.78786" lon="3.17396">
        <ele>1213.6</ele>
        <time>2022-08-01T10:16:51Z</time>
      </trkpt>
      <trkpt lat="44.78787" lon="3.17396">
        <ele>1213.6</ele>
        <time>2022-08-01T10:16:52Z</time>
      </trkpt>
      <trkpt lat="44.78788" lon="3.17396">
        <ele>1213.6</ele>
        <time>2022-08-01T10:16:54Z</time>
      </trkpt>
      <trkpt lat="44.78789" lon="3.17396">
        <ele>1213.6</ele>
        <time>2022-08-01T10:16:56Z</time>
      </trkpt>
      <trkpt lat="44.78789" lon="3.17396">
        <ele>1213.5</ele>
        <time>2022-08-01T10:16:59Z</time>
      </trkpt>
      <trkpt lat="44.78789" lon="3.17399">
        <ele>1213.5</ele>
        <time>2022-08-01T10:17:04Z</time>
      </trkpt>
      <trkpt lat="44.78789" lon="3.17399">
        <ele>1213.5</ele>
        <time>2022-08-01T10:17:07Z</time>
      </trkpt>
      <trkpt lat="44.78789" lon="3.17399">
        <ele>1213.5</ele>
        <time>2022-08-01T10:17:08Z</time>
      </trkpt>
      <trkpt lat="44.78789" lon="3.17399">
        <ele>1213.5</ele>
        <time>2022-08-01T10:17:09Z</time>
      </trkpt>
      <trkpt lat="44.78789" lon="3.174">
        <ele>1213.5</ele>
        <time>2022-08-01T10:17:11Z</time>
      </trkpt>
      <trkpt lat="44.78789" lon="3.174">
        <ele>1213.5</ele>
        <time>2022-08-01T10:17:13Z</time>
      </trkpt>
      <trkpt lat="44.78789" lon="3.174">
        <ele>1213.5</ele>
        <time>2022-08-01T10:17:14Z</time>
      </trkpt>
      <trkpt lat="44.78789" lon="3.174">
        <ele>1213.5</ele>
        <time>2022-08-01T10:17:16Z</time>
      </trkpt>
      <trkpt lat="44.7879" lon="3.174">
        <ele>1213.5</ele>
        <time>2022-08-01T10:17:18Z</time>
      </trkpt>
      <trkpt lat="44.7879" lon="3.174">
        <ele>1213.5</ele>
        <time>2022-08-01T10:17:20Z</time>
      </trkpt>
      <trkpt lat="44.7879" lon="3.17401">
        <ele>1213.5</ele>
        <time>2022-08-01T10:17:22Z</time>
      </trkpt>
      <trkpt lat="44.78789" lon="3.17401">
        <ele>1213.5</ele>
        <time>2022-08-01T10:17:24Z</time>
      </trkpt>
      <trkpt lat="44.78789" lon="3.17401">
        <ele>1213.5</ele>
        <time>2022-08-01T10:17:25Z</time>
      </trkpt>
      <trkpt lat="44.78789" lon="3.17401">
        <ele>1213.5</ele>
        <time>2022-08-01T10:17:26Z</time>
      </trkpt>
      <trkpt lat="44.78789" lon="3.17401">
        <ele>1213.5</ele>
        <time>2022-08-01T10:17:27Z</time>
      </trkpt>
      <trkpt lat="44.78789" lon="3.17401">
        <ele>1213.5</ele>
        <time>2022-08-01T10:17:29Z</time>
      </trkpt>
      <trkpt lat="44.78789" lon="3.17401">
        <ele>1213.5</ele>
        <time>2022-08-01T10:17:31Z</time>
      </trkpt>
      <trkpt lat="44.78789" lon="3.17401">
        <ele>1213.5</ele>
        <time>2022-08-01T10:17:33Z</time>
      </trkpt>
      <trkpt lat="44.78789" lon="3.174">
        <ele>1213.5</ele>
        <time>2022-08-01T10:17:34Z</time>
      </trkpt>
      <trkpt lat="44.78789" lon="3.174">
        <ele>1213.5</ele>
        <time>2022-08-01T10:17:35Z</time>
      </trkpt>
      <trkpt lat="44.78789" lon="3.174">
        <ele>1213.5</ele>
        <time>2022-08-01T10:17:36Z</time>
      </trkpt>
      <trkpt lat="44.78789" lon="3.174">
        <ele>1213.5</ele>
        <time>2022-08-01T10:17:37Z</time>
      </trkpt>
      <trkpt lat="44.78789" lon="3.174">
        <ele>1213.5</ele>
        <time>2022-08-01T10:17:38Z</time>
      </trkpt>
      <trkpt lat="44.78789" lon="3.174">
        <ele>1213.5</ele>
        <time>2022-08-01T10:17:39Z</time>
      </trkpt>
      <trkpt lat="44.78789" lon="3.174">
        <ele>1213.5</ele>
        <time>2022-08-01T10:17:42Z</time>
      </trkpt>
      <trkpt lat="44.7879" lon="3.17396">
        <ele>1213.5</ele>
        <time>2022-08-01T10:17:56Z</time>
      </trkpt>
      <trkpt lat="44.78782" lon="3.17403">
        <ele>1213.5</ele>
        <time>2022-08-01T10:19:59Z</time>
      </trkpt>
      <trkpt lat="44.78778" lon="3.17403">
        <ele>1213.5</ele>
        <time>2022-08-01T10:20:04Z</time>
      </trkpt>
      <trkpt lat="44.78778" lon="3.17403">
        <ele>1213.5</ele>
        <time>2022-08-01T10:20:05Z</time>
      </trkpt>
      <trkpt lat="44.78778" lon="3.17403">
        <ele>1213.5</ele>
        <time>2022-08-01T10:20:12Z</time>
      </trkpt>
      <trkpt lat="44.78779" lon="3.17406">
        <ele>1213.4</ele>
        <time>2022-08-01T10:20:20Z</time>
      </trkpt>
      <trkpt lat="44.78778" lon="3.17409">
        <ele>1213.3</ele>
        <time>2022-08-01T10:20:27Z</time>
      </trkpt>
      <trkpt lat="44.78779" lon="3.17416">
        <ele>1213.1</ele>
        <time>2022-08-01T10:20:34Z</time>
      </trkpt>
      <trkpt lat="44.78774" lon="3.17417">
        <ele>1213.2</ele>
        <time>2022-08-01T10:20:39Z</time>
      </trkpt>
      <trkpt lat="44.78765" lon="3.1742">
        <ele>1213.4</ele>
        <time>2022-08-01T10:20:46Z</time>
      </trkpt>
      <trkpt lat="44.78764" lon="3.1742">
        <ele>1213.4</ele>
        <time>2022-08-01T10:20:47Z</time>
      </trkpt>
      <trkpt lat="44.78754" lon="3.17418">
        <ele>1213.8</ele>
        <time>2022-08-01T10:20:57Z</time>
      </trkpt>
      <trkpt lat="44.78752" lon="3.17419">
        <ele>1213.9</ele>
        <time>2022-08-01T10:20:59Z</time>
      </trkpt>
      <trkpt lat="44.78747" lon="3.17423">
        <ele>1214</ele>
        <time>2022-08-01T10:21:04Z</time>
      </trkpt>
      <trkpt lat="44.7874" lon="3.17425">
        <ele>1214.4</ele>
        <time>2022-08-01T10:21:09Z</time>
      </trkpt>
      <trkpt lat="44.78737" lon="3.17428">
        <ele>1214.5</ele>
        <time>2022-08-01T10:21:14Z</time>
      </trkpt>
      <trkpt lat="44.7873" lon="3.17434">
        <ele>1214.8</ele>
        <time>2022-08-01T10:21:23Z</time>
      </trkpt>
      <trkpt lat="44.78721" lon="3.17446">
        <ele>1215</ele>
        <time>2022-08-01T10:21:34Z</time>
      </trkpt>
      <trkpt lat="44.7871" lon="3.17462">
        <ele>1215.1</ele>
        <time>2022-08-01T10:21:46Z</time>
      </trkpt>
      <trkpt lat="44.78709" lon="3.17463">
        <ele>1215.2</ele>
        <time>2022-08-01T10:21:47Z</time>
      </trkpt>
      <trkpt lat="44.78707" lon="3.17466">
        <ele>1215.2</ele>
        <time>2022-08-01T10:21:49Z</time>
      </trkpt>
      <trkpt lat="44.78706" lon="3.17467">
        <ele>1215.2</ele>
        <time>2022-08-01T10:21:50Z</time>
      </trkpt>
      <trkpt lat="44.78705" lon="3.17469">
        <ele>1215.3</ele>
        <time>2022-08-01T10:21:52Z</time>
      </trkpt>
      <trkpt lat="44.787" lon="3.17477">
        <ele>1215.3</ele>
        <time>2022-08-01T10:21:59Z</time>
      </trkpt>
      <trkpt lat="44.7869" lon="3.17491">
        <ele>1215.2</ele>
        <time>2022-08-01T10:22:09Z</time>
      </trkpt>
      <trkpt lat="44.78683" lon="3.17503">
        <ele>1215.1</ele>
        <time>2022-08-01T10:22:18Z</time>
      </trkpt>
      <trkpt lat="44.7868" lon="3.17509">
        <ele>1215.2</ele>
        <time>2022-08-01T10:22:22Z</time>
      </trkpt>
      <trkpt lat="44.78677" lon="3.17513">
        <ele>1215.4</ele>
        <time>2022-08-01T10:22:25Z</time>
      </trkpt>
      <trkpt lat="44.7867" lon="3.17522">
        <ele>1215.8</ele>
        <time>2022-08-01T10:22:33Z</time>
      </trkpt>
      <trkpt lat="44.78667" lon="3.17528">
        <ele>1216</ele>
        <time>2022-08-01T10:22:38Z</time>
      </trkpt>
      <trkpt lat="44.78666" lon="3.17529">
        <ele>1216.1</ele>
        <time>2022-08-01T10:22:40Z</time>
      </trkpt>
      <trkpt lat="44.78664" lon="3.17532">
        <ele>1216.3</ele>
        <time>2022-08-01T10:22:42Z</time>
      </trkpt>
      <trkpt lat="44.78658" lon="3.17541">
        <ele>1216.9</ele>
        <time>2022-08-01T10:22:49Z</time>
      </trkpt>
      <trkpt lat="44.78654" lon="3.17546">
        <ele>1217.4</ele>
        <time>2022-08-01T10:22:54Z</time>
      </trkpt>
      <trkpt lat="44.78653" lon="3.1755">
        <ele>1217.5</ele>
        <time>2022-08-01T10:22:56Z</time>
      </trkpt>
      <trkpt lat="44.78652" lon="3.17552">
        <ele>1217.6</ele>
        <time>2022-08-01T10:22:58Z</time>
      </trkpt>
      <trkpt lat="44.78652" lon="3.17552">
        <ele>1217.6</ele>
        <time>2022-08-01T10:22:59Z</time>
      </trkpt>
      <trkpt lat="44.78652" lon="3.1755">
        <ele>1217.6</ele>
        <time>2022-08-01T10:23:01Z</time>
      </trkpt>
      <trkpt lat="44.7865" lon="3.17547">
        <ele>1217.8</ele>
        <time>2022-08-01T10:23:05Z</time>
      </trkpt>
      <trkpt lat="44.7865" lon="3.17548">
        <ele>1217.8</ele>
        <time>2022-08-01T10:23:07Z</time>
      </trkpt>
      <trkpt lat="44.78649" lon="3.17549">
        <ele>1217.9</ele>
        <time>2022-08-01T10:23:08Z</time>
      </trkpt>
      <trkpt lat="44.78649" lon="3.1755">
        <ele>1217.9</ele>
        <time>2022-08-01T10:23:10Z</time>
      </trkpt>
      <trkpt lat="44.78653" lon="3.17544">
        <ele>1217.5</ele>
        <time>2022-08-01T10:23:15Z</time>
      </trkpt>
      <trkpt lat="44.78655" lon="3.17531">
        <ele>1217.2</ele>
        <time>2022-08-01T10:23:23Z</time>
      </trkpt>
      <trkpt lat="44.78656" lon="3.17531">
        <ele>1217.2</ele>
        <time>2022-08-01T10:23:26Z</time>
      </trkpt>
      <trkpt lat="44.78656" lon="3.17531">
        <ele>1217.1</ele>
        <time>2022-08-01T10:23:28Z</time>
      </trkpt>
      <trkpt lat="44.78658" lon="3.17532">
        <ele>1216.9</ele>
        <time>2022-08-01T10:23:36Z</time>
      </trkpt>
      <trkpt lat="44.78655" lon="3.17539">
        <ele>1217.3</ele>
        <time>2022-08-01T10:23:49Z</time>
      </trkpt>
      <trkpt lat="44.78651" lon="3.17547">
        <ele>1217.7</ele>
        <time>2022-08-01T10:23:53Z</time>
      </trkpt>
      <trkpt lat="44.78649" lon="3.17548">
        <ele>1217.9</ele>
        <time>2022-08-01T10:23:56Z</time>
      </trkpt>
      <trkpt lat="44.7865" lon="3.17549">
        <ele>1217.8</ele>
        <time>2022-08-01T10:24:11Z</time>
      </trkpt>
      <trkpt lat="44.78648" lon="3.17556">
        <ele>1218</ele>
        <time>2022-08-01T10:25:16Z</time>
      </trkpt>
      <trkpt lat="44.78639" lon="3.17569">
        <ele>1218.5</ele>
        <time>2022-08-01T10:25:24Z</time>
      </trkpt>
      <trkpt lat="44.7863" lon="3.17578">
        <ele>1218.5</ele>
        <time>2022-08-01T10:25:33Z</time>
      </trkpt>
      <trkpt lat="44.7863" lon="3.17578">
        <ele>1218.5</ele>
        <time>2022-08-01T10:25:35Z</time>
      </trkpt>
      <trkpt lat="44.78629" lon="3.17577">
        <ele>1218.6</ele>
        <time>2022-08-01T10:25:37Z</time>
      </trkpt>
      <trkpt lat="44.78628" lon="3.17578">
        <ele>1218.6</ele>
        <time>2022-08-01T10:25:42Z</time>
      </trkpt>
      <trkpt lat="44.78622" lon="3.17588">
        <ele>1218.4</ele>
        <time>2022-08-01T10:25:48Z</time>
      </trkpt>
      <trkpt lat="44.78617" lon="3.17598">
        <ele>1218.3</ele>
        <time>2022-08-01T10:25:56Z</time>
      </trkpt>
      <trkpt lat="44.78611" lon="3.17606">
        <ele>1218.2</ele>
        <time>2022-08-01T10:26:03Z</time>
      </trkpt>
      <trkpt lat="44.78605" lon="3.17618">
        <ele>1218</ele>
        <time>2022-08-01T10:26:11Z</time>
      </trkpt>
      <trkpt lat="44.78596" lon="3.17634">
        <ele>1218.2</ele>
        <time>2022-08-01T10:26:22Z</time>
      </trkpt>
      <trkpt lat="44.78588" lon="3.17648">
        <ele>1218.4</ele>
        <time>2022-08-01T10:26:31Z</time>
      </trkpt>
      <trkpt lat="44.78587" lon="3.17649">
        <ele>1218.4</ele>
        <time>2022-08-01T10:26:32Z</time>
      </trkpt>
      <trkpt lat="44.78584" lon="3.17653">
        <ele>1218.5</ele>
        <time>2022-08-01T10:26:36Z</time>
      </trkpt>
      <trkpt lat="44.78583" lon="3.17653">
        <ele>1218.5</ele>
        <time>2022-08-01T10:26:37Z</time>
      </trkpt>
      <trkpt lat="44.78582" lon="3.17655">
        <ele>1218.4</ele>
        <time>2022-08-01T10:26:40Z</time>
      </trkpt>
      <trkpt lat="44.78581" lon="3.17657">
        <ele>1218.3</ele>
        <time>2022-08-01T10:26:41Z</time>
      </trkpt>
      <trkpt lat="44.78575" lon="3.17667">
        <ele>1218</ele>
        <time>2022-08-01T10:26:47Z</time>
      </trkpt>
      <trkpt lat="44.78569" lon="3.17674">
        <ele>1218.3</ele>
        <time>2022-08-01T10:26:54Z</time>
      </trkpt>
      <trkpt lat="44.78565" lon="3.17678">
        <ele>1218.4</ele>
        <time>2022-08-01T10:26:58Z</time>
      </trkpt>
      <trkpt lat="44.78563" lon="3.17681">
        <ele>1218.5</ele>
        <time>2022-08-01T10:27:01Z</time>
      </trkpt>
      <trkpt lat="44.78554" lon="3.17695">
        <ele>1218.9</ele>
        <time>2022-08-01T10:27:11Z</time>
      </trkpt>
      <trkpt lat="44.78552" lon="3.17697">
        <ele>1218.9</ele>
        <time>2022-08-01T10:27:14Z</time>
      </trkpt>
      <trkpt lat="44.78552" lon="3.17698">
        <ele>1218.9</ele>
        <time>2022-08-01T10:27:16Z</time>
      </trkpt>
      <trkpt lat="44.78552" lon="3.17699">
        <ele>1218.9</ele>
        <time>2022-08-01T10:27:17Z</time>
      </trkpt>
      <trkpt lat="44.78551" lon="3.17701">
        <ele>1218.8</ele>
        <time>2022-08-01T10:27:18Z</time>
      </trkpt>
      <trkpt lat="44.78545" lon="3.17708">
        <ele>1218.6</ele>
        <time>2022-08-01T10:27:24Z</time>
      </trkpt>
      <trkpt lat="44.7854" lon="3.17722">
        <ele>1218.4</ele>
        <time>2022-08-01T10:27:33Z</time>
      </trkpt>
      <trkpt lat="44.78533" lon="3.17737">
        <ele>1218.2</ele>
        <time>2022-08-01T10:27:43Z</time>
      </trkpt>
      <trkpt lat="44.78532" lon="3.17738">
        <ele>1218.2</ele>
        <time>2022-08-01T10:27:44Z</time>
      </trkpt>
      <trkpt lat="44.78531" lon="3.17745">
        <ele>1218.1</ele>
        <time>2022-08-01T10:27:48Z</time>
      </trkpt>
      <trkpt lat="44.78529" lon="3.17749">
        <ele>1218</ele>
        <time>2022-08-01T10:27:51Z</time>
      </trkpt>
      <trkpt lat="44.78523" lon="3.17762">
        <ele>1218.3</ele>
        <time>2022-08-01T10:27:59Z</time>
      </trkpt>
      <trkpt lat="44.78523" lon="3.17763">
        <ele>1218.3</ele>
        <time>2022-08-01T10:28:00Z</time>
      </trkpt>
      <trkpt lat="44.78518" lon="3.17774">
        <ele>1218.5</ele>
        <time>2022-08-01T10:28:07Z</time>
      </trkpt>
      <trkpt lat="44.78512" lon="3.17787">
        <ele>1218.8</ele>
        <time>2022-08-01T10:28:16Z</time>
      </trkpt>
      <trkpt lat="44.78507" lon="3.17798">
        <ele>1219</ele>
        <time>2022-08-01T10:28:23Z</time>
      </trkpt>
      <trkpt lat="44.78506" lon="3.178">
        <ele>1219</ele>
        <time>2022-08-01T10:28:24Z</time>
      </trkpt>
      <trkpt lat="44.78501" lon="3.17811">
        <ele>1219</ele>
        <time>2022-08-01T10:28:33Z</time>
      </trkpt>
      <trkpt lat="44.785" lon="3.17811">
        <ele>1219</ele>
        <time>2022-08-01T10:28:34Z</time>
      </trkpt>
      <trkpt lat="44.78499" lon="3.17812">
        <ele>1218.9</ele>
        <time>2022-08-01T10:28:37Z</time>
      </trkpt>
      <trkpt lat="44.78495" lon="3.17822">
        <ele>1218.8</ele>
        <time>2022-08-01T10:28:44Z</time>
      </trkpt>
      <trkpt lat="44.7849" lon="3.17837">
        <ele>1218.6</ele>
        <time>2022-08-01T10:28:53Z</time>
      </trkpt>
      <trkpt lat="44.78488" lon="3.1784">
        <ele>1218.6</ele>
        <time>2022-08-01T10:28:55Z</time>
      </trkpt>
      <trkpt lat="44.78484" lon="3.17854">
        <ele>1218.4</ele>
        <time>2022-08-01T10:29:04Z</time>
      </trkpt>
      <trkpt lat="44.78482" lon="3.17869">
        <ele>1218.3</ele>
        <time>2022-08-01T10:29:12Z</time>
      </trkpt>
      <trkpt lat="44.78478" lon="3.17886">
        <ele>1218.2</ele>
        <time>2022-08-01T10:29:22Z</time>
      </trkpt>
      <trkpt lat="44.78475" lon="3.17896">
        <ele>1217.8</ele>
        <time>2022-08-01T10:29:28Z</time>
      </trkpt>
      <trkpt lat="44.78472" lon="3.17906">
        <ele>1217.4</ele>
        <time>2022-08-01T10:29:34Z</time>
      </trkpt>
      <trkpt lat="44.78469" lon="3.17911">
        <ele>1217.1</ele>
        <time>2022-08-01T10:29:38Z</time>
      </trkpt>
      <trkpt lat="44.78466" lon="3.17917">
        <ele>1216.8</ele>
        <time>2022-08-01T10:29:42Z</time>
      </trkpt>
      <trkpt lat="44.7846" lon="3.17925">
        <ele>1216.4</ele>
        <time>2022-08-01T10:29:48Z</time>
      </trkpt>
      <trkpt lat="44.78459" lon="3.17925">
        <ele>1216.4</ele>
        <time>2022-08-01T10:29:49Z</time>
      </trkpt>
      <trkpt lat="44.78458" lon="3.17926">
        <ele>1216.3</ele>
        <time>2022-08-01T10:29:52Z</time>
      </trkpt>
      <trkpt lat="44.78453" lon="3.17932">
        <ele>1216.1</ele>
        <time>2022-08-01T10:29:58Z</time>
      </trkpt>
      <trkpt lat="44.78448" lon="3.17938">
        <ele>1216</ele>
        <time>2022-08-01T10:30:04Z</time>
      </trkpt>
      <trkpt lat="44.78443" lon="3.17948">
        <ele>1215.9</ele>
        <time>2022-08-01T10:30:11Z</time>
      </trkpt>
      <trkpt lat="44.78442" lon="3.17949">
        <ele>1215.9</ele>
        <time>2022-08-01T10:30:12Z</time>
      </trkpt>
      <trkpt lat="44.78437" lon="3.17956">
        <ele>1215.6</ele>
        <time>2022-08-01T10:30:18Z</time>
      </trkpt>
      <trkpt lat="44.78432" lon="3.17966">
        <ele>1215.2</ele>
        <time>2022-08-01T10:30:24Z</time>
      </trkpt>
      <trkpt lat="44.78431" lon="3.17967">
        <ele>1215.2</ele>
        <time>2022-08-01T10:30:25Z</time>
      </trkpt>
      <trkpt lat="44.78423" lon="3.17983">
        <ele>1214.9</ele>
        <time>2022-08-01T10:30:36Z</time>
      </trkpt>
      <trkpt lat="44.78417" lon="3.1799">
        <ele>1215</ele>
        <time>2022-08-01T10:30:42Z</time>
      </trkpt>
      <trkpt lat="44.78416" lon="3.17994">
        <ele>1215</ele>
        <time>2022-08-01T10:30:44Z</time>
      </trkpt>
      <trkpt lat="44.78414" lon="3.17999">
        <ele>1215</ele>
        <time>2022-08-01T10:30:48Z</time>
      </trkpt>
      <trkpt lat="44.78412" lon="3.18005">
        <ele>1214.9</ele>
        <time>2022-08-01T10:30:51Z</time>
      </trkpt>
      <trkpt lat="44.78411" lon="3.18006">
        <ele>1214.8</ele>
        <time>2022-08-01T10:30:52Z</time>
      </trkpt>
      <trkpt lat="44.78408" lon="3.18012">
        <ele>1214.7</ele>
        <time>2022-08-01T10:30:56Z</time>
      </trkpt>
      <trkpt lat="44.78407" lon="3.18014">
        <ele>1214.7</ele>
        <time>2022-08-01T10:30:57Z</time>
      </trkpt>
      <trkpt lat="44.78406" lon="3.18015">
        <ele>1214.7</ele>
        <time>2022-08-01T10:31:01Z</time>
      </trkpt>
      <trkpt lat="44.78406" lon="3.18009">
        <ele>1214.8</ele>
        <time>2022-08-01T10:31:07Z</time>
      </trkpt>
      <trkpt lat="44.78407" lon="3.18009">
        <ele>1214.8</ele>
        <time>2022-08-01T10:31:14Z</time>
      </trkpt>
      <trkpt lat="44.78408" lon="3.18017">
        <ele>1214.6</ele>
        <time>2022-08-01T10:31:20Z</time>
      </trkpt>
      <trkpt lat="44.78406" lon="3.18029">
        <ele>1214.4</ele>
        <time>2022-08-01T10:31:27Z</time>
      </trkpt>
      <trkpt lat="44.78404" lon="3.18039">
        <ele>1214.5</ele>
        <time>2022-08-01T10:31:33Z</time>
      </trkpt>
      <trkpt lat="44.78401" lon="3.18043">
        <ele>1214.5</ele>
        <time>2022-08-01T10:31:39Z</time>
      </trkpt>
      <trkpt lat="44.78401" lon="3.18043">
        <ele>1214.6</ele>
        <time>2022-08-01T10:31:40Z</time>
      </trkpt>
      <trkpt lat="44.78399" lon="3.18046">
        <ele>1214.6</ele>
        <time>2022-08-01T10:31:43Z</time>
      </trkpt>
      <trkpt lat="44.78398" lon="3.1805">
        <ele>1214.7</ele>
        <time>2022-08-01T10:31:46Z</time>
      </trkpt>
      <trkpt lat="44.78397" lon="3.18052">
        <ele>1214.7</ele>
        <time>2022-08-01T10:31:47Z</time>
      </trkpt>
      <trkpt lat="44.78395" lon="3.18056">
        <ele>1214.8</ele>
        <time>2022-08-01T10:31:50Z</time>
      </trkpt>
      <trkpt lat="44.78395" lon="3.18058">
        <ele>1214.8</ele>
        <time>2022-08-01T10:31:51Z</time>
      </trkpt>
      <trkpt lat="44.78393" lon="3.18068">
        <ele>1214.8</ele>
        <time>2022-08-01T10:31:56Z</time>
      </trkpt>
      <trkpt lat="44.78392" lon="3.1807">
        <ele>1214.8</ele>
        <time>2022-08-01T10:31:58Z</time>
      </trkpt>
      <trkpt lat="44.78387" lon="3.18083">
        <ele>1215</ele>
        <time>2022-08-01T10:32:06Z</time>
      </trkpt>
      <trkpt lat="44.78386" lon="3.18084">
        <ele>1215</ele>
        <time>2022-08-01T10:32:07Z</time>
      </trkpt>
      <trkpt lat="44.78381" lon="3.18094">
        <ele>1214.7</ele>
        <time>2022-08-01T10:32:14Z</time>
      </trkpt>
      <trkpt lat="44.78375" lon="3.18106">
        <ele>1214.6</ele>
        <time>2022-08-01T10:32:22Z</time>
      </trkpt>
      <trkpt lat="44.78375" lon="3.18108">
        <ele>1214.6</ele>
        <time>2022-08-01T10:32:23Z</time>
      </trkpt>
      <trkpt lat="44.78372" lon="3.18119">
        <ele>1214.5</ele>
        <time>2022-08-01T10:32:29Z</time>
      </trkpt>
      <trkpt lat="44.78373" lon="3.18122">
        <ele>1214.4</ele>
        <time>2022-08-01T10:32:31Z</time>
      </trkpt>
      <trkpt lat="44.78374" lon="3.18123">
        <ele>1214.3</ele>
        <time>2022-08-01T10:32:34Z</time>
      </trkpt>
      <trkpt lat="44.78374" lon="3.18124">
        <ele>1214.3</ele>
        <time>2022-08-01T10:32:35Z</time>
      </trkpt>
      <trkpt lat="44.78371" lon="3.18135">
        <ele>1214.3</ele>
        <time>2022-08-01T10:32:42Z</time>
      </trkpt>
      <trkpt lat="44.78364" lon="3.18149">
        <ele>1214.8</ele>
        <time>2022-08-01T10:32:51Z</time>
      </trkpt>
      <trkpt lat="44.78362" lon="3.18154">
        <ele>1214.9</ele>
        <time>2022-08-01T10:32:55Z</time>
      </trkpt>
      <trkpt lat="44.78361" lon="3.1816">
        <ele>1215</ele>
        <time>2022-08-01T10:32:59Z</time>
      </trkpt>
      <trkpt lat="44.78359" lon="3.18164">
        <ele>1215.1</ele>
        <time>2022-08-01T10:33:02Z</time>
      </trkpt>
      <trkpt lat="44.78357" lon="3.18167">
        <ele>1215.2</ele>
        <time>2022-08-01T10:33:04Z</time>
      </trkpt>
      <trkpt lat="44.78355" lon="3.1817">
        <ele>1215.2</ele>
        <time>2022-08-01T10:33:06Z</time>
      </trkpt>
      <trkpt lat="44.7835" lon="3.18186">
        <ele>1215.7</ele>
        <time>2022-08-01T10:33:16Z</time>
      </trkpt>
      <trkpt lat="44.78344" lon="3.18201">
        <ele>1216.3</ele>
        <time>2022-08-01T10:33:26Z</time>
      </trkpt>
      <trkpt lat="44.7834" lon="3.18215">
        <ele>1216.7</ele>
        <time>2022-08-01T10:33:35Z</time>
      </trkpt>
      <trkpt lat="44.78337" lon="3.18222">
        <ele>1216.9</ele>
        <time>2022-08-01T10:33:39Z</time>
      </trkpt>
      <trkpt lat="44.78332" lon="3.18232">
        <ele>1217</ele>
        <time>2022-08-01T10:33:45Z</time>
      </trkpt>
      <trkpt lat="44.78329" lon="3.18243">
        <ele>1217.2</ele>
        <time>2022-08-01T10:33:52Z</time>
      </trkpt>
      <trkpt lat="44.78327" lon="3.18249">
        <ele>1217.2</ele>
        <time>2022-08-01T10:33:56Z</time>
      </trkpt>
      <trkpt lat="44.78326" lon="3.1825">
        <ele>1217.3</ele>
        <time>2022-08-01T10:33:58Z</time>
      </trkpt>
      <trkpt lat="44.78325" lon="3.18249">
        <ele>1217.3</ele>
        <time>2022-08-01T10:34:00Z</time>
      </trkpt>
      <trkpt lat="44.78325" lon="3.1825">
        <ele>1217.3</ele>
        <time>2022-08-01T10:34:03Z</time>
      </trkpt>
      <trkpt lat="44.78324" lon="3.18253">
        <ele>1217.5</ele>
        <time>2022-08-01T10:34:05Z</time>
      </trkpt>
      <trkpt lat="44.7832" lon="3.18268">
        <ele>1218.1</ele>
        <time>2022-08-01T10:34:13Z</time>
      </trkpt>
      <trkpt lat="44.78315" lon="3.18277">
        <ele>1218.6</ele>
        <time>2022-08-01T10:34:20Z</time>
      </trkpt>
      <trkpt lat="44.78315" lon="3.18279">
        <ele>1218.7</ele>
        <time>2022-08-01T10:34:21Z</time>
      </trkpt>
      <trkpt lat="44.7831" lon="3.18293">
        <ele>1218.8</ele>
        <time>2022-08-01T10:34:30Z</time>
      </trkpt>
      <trkpt lat="44.78308" lon="3.18297">
        <ele>1218.9</ele>
        <time>2022-08-01T10:34:33Z</time>
      </trkpt>
      <trkpt lat="44.78307" lon="3.18305">
        <ele>1219</ele>
        <time>2022-08-01T10:34:38Z</time>
      </trkpt>
      <trkpt lat="44.78305" lon="3.18309">
        <ele>1219</ele>
        <time>2022-08-01T10:34:41Z</time>
      </trkpt>
      <trkpt lat="44.78304" lon="3.18313">
        <ele>1219.1</ele>
        <time>2022-08-01T10:34:44Z</time>
      </trkpt>
      <trkpt lat="44.78305" lon="3.18319">
        <ele>1219</ele>
        <time>2022-08-01T10:34:48Z</time>
      </trkpt>
      <trkpt lat="44.78305" lon="3.18326">
        <ele>1219</ele>
        <time>2022-08-01T10:34:52Z</time>
      </trkpt>
      <trkpt lat="44.783" lon="3.18334">
        <ele>1219.2</ele>
        <time>2022-08-01T10:34:58Z</time>
      </trkpt>
      <trkpt lat="44.78295" lon="3.18347">
        <ele>1219.7</ele>
        <time>2022-08-01T10:35:07Z</time>
      </trkpt>
      <trkpt lat="44.78289" lon="3.18358">
        <ele>1220</ele>
        <time>2022-08-01T10:35:15Z</time>
      </trkpt>
      <trkpt lat="44.78282" lon="3.1837">
        <ele>1220</ele>
        <time>2022-08-01T10:35:24Z</time>
      </trkpt>
      <trkpt lat="44.78278" lon="3.18375">
        <ele>1220</ele>
        <time>2022-08-01T10:35:28Z</time>
      </trkpt>
      <trkpt lat="44.78275" lon="3.18378">
        <ele>1220.1</ele>
        <time>2022-08-01T10:35:33Z</time>
      </trkpt>
      <trkpt lat="44.78271" lon="3.18382">
        <ele>1220.3</ele>
        <time>2022-08-01T10:35:41Z</time>
      </trkpt>
      <trkpt lat="44.78265" lon="3.1839">
        <ele>1220.5</ele>
        <time>2022-08-01T10:35:48Z</time>
      </trkpt>
      <trkpt lat="44.78253" lon="3.18403">
        <ele>1220.9</ele>
        <time>2022-08-01T10:36:00Z</time>
      </trkpt>
      <trkpt lat="44.78249" lon="3.18409">
        <ele>1221.1</ele>
        <time>2022-08-01T10:36:05Z</time>
      </trkpt>
      <trkpt lat="44.78248" lon="3.18408">
        <ele>1221.1</ele>
        <time>2022-08-01T10:36:06Z</time>
      </trkpt>
      <trkpt lat="44.78248" lon="3.18408">
        <ele>1221.1</ele>
        <time>2022-08-01T10:36:07Z</time>
      </trkpt>
      <trkpt lat="44.78247" lon="3.18407">
        <ele>1221.1</ele>
        <time>2022-08-01T10:36:10Z</time>
      </trkpt>
      <trkpt lat="44.78246" lon="3.18411">
        <ele>1221.1</ele>
        <time>2022-08-01T10:36:13Z</time>
      </trkpt>
      <trkpt lat="44.78238" lon="3.18422">
        <ele>1221.4</ele>
        <time>2022-08-01T10:36:22Z</time>
      </trkpt>
      <trkpt lat="44.78234" lon="3.18429">
        <ele>1221.6</ele>
        <time>2022-08-01T10:36:27Z</time>
      </trkpt>
      <trkpt lat="44.78229" lon="3.1844">
        <ele>1221.8</ele>
        <time>2022-08-01T10:36:34Z</time>
      </trkpt>
      <trkpt lat="44.78224" lon="3.18457">
        <ele>1221.9</ele>
        <time>2022-08-01T10:36:45Z</time>
      </trkpt>
      <trkpt lat="44.78224" lon="3.18458">
        <ele>1222</ele>
        <time>2022-08-01T10:36:46Z</time>
      </trkpt>
      <trkpt lat="44.78224" lon="3.18459">
        <ele>1222</ele>
        <time>2022-08-01T10:36:48Z</time>
      </trkpt>
      <trkpt lat="44.78223" lon="3.18462">
        <ele>1222</ele>
        <time>2022-08-01T10:36:50Z</time>
      </trkpt>
      <trkpt lat="44.78223" lon="3.18464">
        <ele>1222</ele>
        <time>2022-08-01T10:36:51Z</time>
      </trkpt>
      <trkpt lat="44.78219" lon="3.1848">
        <ele>1222</ele>
        <time>2022-08-01T10:37:01Z</time>
      </trkpt>
      <trkpt lat="44.78213" lon="3.18491">
        <ele>1221.8</ele>
        <time>2022-08-01T10:37:11Z</time>
      </trkpt>
      <trkpt lat="44.78201" lon="3.18503">
        <ele>1221.1</ele>
        <time>2022-08-01T10:37:22Z</time>
      </trkpt>
      <trkpt lat="44.78195" lon="3.18514">
        <ele>1220.5</ele>
        <time>2022-08-01T10:37:30Z</time>
      </trkpt>
      <trkpt lat="44.78191" lon="3.18522">
        <ele>1220.1</ele>
        <time>2022-08-01T10:37:36Z</time>
      </trkpt>
      <trkpt lat="44.78191" lon="3.18523">
        <ele>1220</ele>
        <time>2022-08-01T10:37:39Z</time>
      </trkpt>
      <trkpt lat="44.78188" lon="3.18523">
        <ele>1219.9</ele>
        <time>2022-08-01T10:37:48Z</time>
      </trkpt>
      <trkpt lat="44.78188" lon="3.18527">
        <ele>1219.8</ele>
        <time>2022-08-01T10:37:52Z</time>
      </trkpt>
      <trkpt lat="44.78186" lon="3.18531">
        <ele>1219.6</ele>
        <time>2022-08-01T10:37:55Z</time>
      </trkpt>
      <trkpt lat="44.78182" lon="3.18543">
        <ele>1219.3</ele>
        <time>2022-08-01T10:38:03Z</time>
      </trkpt>
      <trkpt lat="44.78179" lon="3.18554">
        <ele>1219</ele>
        <time>2022-08-01T10:38:10Z</time>
      </trkpt>
      <trkpt lat="44.78176" lon="3.18561">
        <ele>1218.8</ele>
        <time>2022-08-01T10:38:14Z</time>
      </trkpt>
      <trkpt lat="44.78172" lon="3.1857">
        <ele>1218.5</ele>
        <time>2022-08-01T10:38:20Z</time>
      </trkpt>
      <trkpt lat="44.78167" lon="3.18583">
        <ele>1218</ele>
        <time>2022-08-01T10:38:28Z</time>
      </trkpt>
      <trkpt lat="44.78167" lon="3.18585">
        <ele>1218</ele>
        <time>2022-08-01T10:38:29Z</time>
      </trkpt>
      <trkpt lat="44.78164" lon="3.18591">
        <ele>1217.7</ele>
        <time>2022-08-01T10:38:33Z</time>
      </trkpt>
      <trkpt lat="44.78162" lon="3.18594">
        <ele>1217.6</ele>
        <time>2022-08-01T10:38:35Z</time>
      </trkpt>
      <trkpt lat="44.78157" lon="3.18613">
        <ele>1217</ele>
        <time>2022-08-01T10:38:46Z</time>
      </trkpt>
      <trkpt lat="44.78153" lon="3.18619">
        <ele>1216.9</ele>
        <time>2022-08-01T10:38:52Z</time>
      </trkpt>
      <trkpt lat="44.78153" lon="3.18619">
        <ele>1216.9</ele>
        <time>2022-08-01T10:38:53Z</time>
      </trkpt>
      <trkpt lat="44.78154" lon="3.18618">
        <ele>1216.9</ele>
        <time>2022-08-01T10:38:56Z</time>
      </trkpt>
      <trkpt lat="44.78152" lon="3.18619">
        <ele>1216.9</ele>
        <time>2022-08-01T10:39:00Z</time>
      </trkpt>
      <trkpt lat="44.78149" lon="3.18619">
        <ele>1216.9</ele>
        <time>2022-08-01T10:39:06Z</time>
      </trkpt>
      <trkpt lat="44.78147" lon="3.18617">
        <ele>1216.9</ele>
        <time>2022-08-01T10:39:13Z</time>
      </trkpt>
      <trkpt lat="44.78146" lon="3.18617">
        <ele>1216.9</ele>
        <time>2022-08-01T10:39:20Z</time>
      </trkpt>
      <trkpt lat="44.78148" lon="3.18622">
        <ele>1216.9</ele>
        <time>2022-08-01T10:39:25Z</time>
      </trkpt>
      <trkpt lat="44.78151" lon="3.18626">
        <ele>1216.8</ele>
        <time>2022-08-01T10:39:31Z</time>
      </trkpt>
      <trkpt lat="44.7815" lon="3.18615">
        <ele>1217</ele>
        <time>2022-08-01T10:39:37Z</time>
      </trkpt>
      <trkpt lat="44.7815" lon="3.18614">
        <ele>1217</ele>
        <time>2022-08-01T10:39:40Z</time>
      </trkpt>
      <trkpt lat="44.7815" lon="3.18614">
        <ele>1217</ele>
        <time>2022-08-01T10:39:43Z</time>
      </trkpt>
      <trkpt lat="44.78149" lon="3.18619">
        <ele>1216.9</ele>
        <time>2022-08-01T10:41:05Z</time>
      </trkpt>
      <trkpt lat="44.78154" lon="3.18617">
        <ele>1216.9</ele>
        <time>2022-08-01T10:41:14Z</time>
      </trkpt>
      <trkpt lat="44.78155" lon="3.18616">
        <ele>1216.9</ele>
        <time>2022-08-01T10:41:19Z</time>
      </trkpt>
      <trkpt lat="44.78146" lon="3.18614">
        <ele>1217</ele>
        <time>2022-08-01T10:41:25Z</time>
      </trkpt>
      <trkpt lat="44.78144" lon="3.18612">
        <ele>1217</ele>
        <time>2022-08-01T10:41:29Z</time>
      </trkpt>
      <trkpt lat="44.78144" lon="3.18605">
        <ele>1217.2</ele>
        <time>2022-08-01T10:41:34Z</time>
      </trkpt>
      <trkpt lat="44.78145" lon="3.18595">
        <ele>1217.6</ele>
        <time>2022-08-01T10:41:41Z</time>
      </trkpt>
      <trkpt lat="44.78143" lon="3.18586">
        <ele>1217.9</ele>
        <time>2022-08-01T10:41:48Z</time>
      </trkpt>
      <trkpt lat="44.78143" lon="3.18587">
        <ele>1217.9</ele>
        <time>2022-08-01T10:41:49Z</time>
      </trkpt>
      <trkpt lat="44.78146" lon="3.18592">
        <ele>1217.7</ele>
        <time>2022-08-01T10:41:52Z</time>
      </trkpt>
      <trkpt lat="44.78147" lon="3.18596">
        <ele>1217.5</ele>
        <time>2022-08-01T10:41:54Z</time>
      </trkpt>
      <trkpt lat="44.78147" lon="3.18599">
        <ele>1217.4</ele>
        <time>2022-08-01T10:41:56Z</time>
      </trkpt>
      <trkpt lat="44.78147" lon="3.18603">
        <ele>1217.3</ele>
        <time>2022-08-01T10:41:58Z</time>
      </trkpt>
      <trkpt lat="44.78148" lon="3.1861">
        <ele>1217</ele>
        <time>2022-08-01T10:42:02Z</time>
      </trkpt>
      <trkpt lat="44.78149" lon="3.18614">
        <ele>1217</ele>
        <time>2022-08-01T10:42:04Z</time>
      </trkpt>
      <trkpt lat="44.78149" lon="3.18615">
        <ele>1217</ele>
        <time>2022-08-01T10:42:05Z</time>
      </trkpt>
      <trkpt lat="44.7815" lon="3.18617">
        <ele>1216.9</ele>
        <time>2022-08-01T10:42:08Z</time>
      </trkpt>
      <trkpt lat="44.78153" lon="3.18617">
        <ele>1216.9</ele>
        <time>2022-08-01T10:42:10Z</time>
      </trkpt>
      <trkpt lat="44.78153" lon="3.18618">
        <ele>1216.9</ele>
        <time>2022-08-01T10:42:12Z</time>
      </trkpt>
      <trkpt lat="44.78156" lon="3.18619">
        <ele>1216.8</ele>
        <time>2022-08-01T10:42:15Z</time>
      </trkpt>
      <trkpt lat="44.78156" lon="3.18615">
        <ele>1216.9</ele>
        <time>2022-08-01T10:42:20Z</time>
      </trkpt>
      <trkpt lat="44.78156" lon="3.18615">
        <ele>1216.9</ele>
        <time>2022-08-01T10:42:21Z</time>
      </trkpt>
      <trkpt lat="44.78153" lon="3.18619">
        <ele>1216.9</ele>
        <time>2022-08-01T10:42:28Z</time>
      </trkpt>
      <trkpt lat="44.78151" lon="3.18621">
        <ele>1216.8</ele>
        <time>2022-08-01T10:42:30Z</time>
      </trkpt>
      <trkpt lat="44.78148" lon="3.18627">
        <ele>1216.8</ele>
        <time>2022-08-01T10:42:34Z</time>
      </trkpt>
      <trkpt lat="44.78147" lon="3.18631">
        <ele>1216.8</ele>
        <time>2022-08-01T10:42:37Z</time>
      </trkpt>
      <trkpt lat="44.78147" lon="3.18632">
        <ele>1216.8</ele>
        <time>2022-08-01T10:42:40Z</time>
      </trkpt>
      <trkpt lat="44.78148" lon="3.18634">
        <ele>1216.7</ele>
        <time>2022-08-01T10:42:42Z</time>
      </trkpt>
      <trkpt lat="44.78148" lon="3.18635">
        <ele>1216.7</ele>
        <time>2022-08-01T10:42:43Z</time>
      </trkpt>
      <trkpt lat="44.78147" lon="3.18639">
        <ele>1216.7</ele>
        <time>2022-08-01T10:42:45Z</time>
      </trkpt>
      <trkpt lat="44.78147" lon="3.18642">
        <ele>1216.6</ele>
        <time>2022-08-01T10:42:47Z</time>
      </trkpt>
      <trkpt lat="44.78147" lon="3.18643">
        <ele>1216.6</ele>
        <time>2022-08-01T10:42:48Z</time>
      </trkpt>
      <trkpt lat="44.78145" lon="3.18642">
        <ele>1216.7</ele>
        <time>2022-08-01T10:42:52Z</time>
      </trkpt>
      <trkpt lat="44.78143" lon="3.18641">
        <ele>1216.8</ele>
        <time>2022-08-01T10:42:53Z</time>
      </trkpt>
      <trkpt lat="44.78141" lon="3.18641">
        <ele>1216.9</ele>
        <time>2022-08-01T10:43:01Z</time>
      </trkpt>
      <trkpt lat="44.78142" lon="3.18642">
        <ele>1216.8</ele>
        <time>2022-08-01T10:43:14Z</time>
      </trkpt>
      <trkpt lat="44.78143" lon="3.18645">
        <ele>1216.6</ele>
        <time>2022-08-01T10:43:20Z</time>
      </trkpt>
      <trkpt lat="44.78145" lon="3.18648">
        <ele>1216.5</ele>
        <time>2022-08-01T10:43:30Z</time>
      </trkpt>
      <trkpt lat="44.78144" lon="3.18655">
        <ele>1216.2</ele>
        <time>2022-08-01T10:43:38Z</time>
      </trkpt>
      <trkpt lat="44.78142" lon="3.18665">
        <ele>1215.9</ele>
        <time>2022-08-01T10:43:42Z</time>
      </trkpt>
      <trkpt lat="44.7814" lon="3.18673">
        <ele>1215.7</ele>
        <time>2022-08-01T10:43:46Z</time>
      </trkpt>
      <trkpt lat="44.78135" lon="3.18685">
        <ele>1215.4</ele>
        <time>2022-08-01T10:43:54Z</time>
      </trkpt>
      <trkpt lat="44.78134" lon="3.18695">
        <ele>1215.2</ele>
        <time>2022-08-01T10:44:00Z</time>
      </trkpt>
      <trkpt lat="44.7813" lon="3.18712">
        <ele>1214.7</ele>
        <time>2022-08-01T10:44:10Z</time>
      </trkpt>
      <trkpt lat="44.78128" lon="3.18717">
        <ele>1214.6</ele>
        <time>2022-08-01T10:44:13Z</time>
      </trkpt>
      <trkpt lat="44.78127" lon="3.18725">
        <ele>1214.3</ele>
        <time>2022-08-01T10:44:18Z</time>
      </trkpt>
      <trkpt lat="44.78126" lon="3.18729">
        <ele>1214.2</ele>
        <time>2022-08-01T10:44:20Z</time>
      </trkpt>
      <trkpt lat="44.78127" lon="3.18735">
        <ele>1214</ele>
        <time>2022-08-01T10:44:23Z</time>
      </trkpt>
      <trkpt lat="44.78126" lon="3.18737">
        <ele>1213.9</ele>
        <time>2022-08-01T10:44:24Z</time>
      </trkpt>
      <trkpt lat="44.78125" lon="3.18744">
        <ele>1213.7</ele>
        <time>2022-08-01T10:44:28Z</time>
      </trkpt>
      <trkpt lat="44.78123" lon="3.18752">
        <ele>1213.5</ele>
        <time>2022-08-01T10:44:33Z</time>
      </trkpt>
      <trkpt lat="44.78122" lon="3.18754">
        <ele>1213.4</ele>
        <time>2022-08-01T10:44:34Z</time>
      </trkpt>
      <trkpt lat="44.78122" lon="3.18759">
        <ele>1213.2</ele>
        <time>2022-08-01T10:44:37Z</time>
      </trkpt>
      <trkpt lat="44.78122" lon="3.18769">
        <ele>1212.7</ele>
        <time>2022-08-01T10:44:42Z</time>
      </trkpt>
      <trkpt lat="44.78122" lon="3.18773">
        <ele>1212.4</ele>
        <time>2022-08-01T10:44:44Z</time>
      </trkpt>
      <trkpt lat="44.78122" lon="3.18776">
        <ele>1212.3</ele>
        <time>2022-08-01T10:44:46Z</time>
      </trkpt>
      <trkpt lat="44.78122" lon="3.18788">
        <ele>1212.1</ele>
        <time>2022-08-01T10:44:53Z</time>
      </trkpt>
      <trkpt lat="44.78122" lon="3.1879">
        <ele>1212.1</ele>
        <time>2022-08-01T10:44:54Z</time>
      </trkpt>
      <trkpt lat="44.78122" lon="3.18801">
        <ele>1211.9</ele>
        <time>2022-08-01T10:45:00Z</time>
      </trkpt>
      <trkpt lat="44.78122" lon="3.18801">
        <ele>1211.9</ele>
        <time>2022-08-01T10:45:01Z</time>
      </trkpt>
      <trkpt lat="44.7812" lon="3.18808">
        <ele>1212</ele>
        <time>2022-08-01T10:45:04Z</time>
      </trkpt>
      <trkpt lat="44.78119" lon="3.18811">
        <ele>1212.1</ele>
        <time>2022-08-01T10:45:06Z</time>
      </trkpt>
      <trkpt lat="44.78119" lon="3.18812">
        <ele>1212.1</ele>
        <time>2022-08-01T10:45:07Z</time>
      </trkpt>
      <trkpt lat="44.78119" lon="3.18816">
        <ele>1212.1</ele>
        <time>2022-08-01T10:45:09Z</time>
      </trkpt>
      <trkpt lat="44.78118" lon="3.18822">
        <ele>1212.3</ele>
        <time>2022-08-01T10:45:13Z</time>
      </trkpt>
      <trkpt lat="44.78117" lon="3.18827">
        <ele>1212.4</ele>
        <time>2022-08-01T10:45:16Z</time>
      </trkpt>
      <trkpt lat="44.78117" lon="3.18832">
        <ele>1212.4</ele>
        <time>2022-08-01T10:45:19Z</time>
      </trkpt>
      <trkpt lat="44.78117" lon="3.18833">
        <ele>1212.3</ele>
        <time>2022-08-01T10:45:20Z</time>
      </trkpt>
      <trkpt lat="44.78117" lon="3.18839">
        <ele>1212.2</ele>
        <time>2022-08-01T10:45:23Z</time>
      </trkpt>
      <trkpt lat="44.78117" lon="3.18841">
        <ele>1212.1</ele>
        <time>2022-08-01T10:45:24Z</time>
      </trkpt>
      <trkpt lat="44.78116" lon="3.18844">
        <ele>1212.1</ele>
        <time>2022-08-01T10:45:25Z</time>
      </trkpt>
      <trkpt lat="44.78116" lon="3.18845">
        <ele>1212</ele>
        <time>2022-08-01T10:45:26Z</time>
      </trkpt>
      <trkpt lat="44.78118" lon="3.18849">
        <ele>1211.7</ele>
        <time>2022-08-01T10:45:28Z</time>
      </trkpt>
      <trkpt lat="44.78118" lon="3.18854">
        <ele>1211.5</ele>
        <time>2022-08-01T10:45:31Z</time>
      </trkpt>
      <trkpt lat="44.78118" lon="3.18868">
        <ele>1211.5</ele>
        <time>2022-08-01T10:45:40Z</time>
      </trkpt>
      <trkpt lat="44.78117" lon="3.18872">
        <ele>1211.6</ele>
        <time>2022-08-01T10:45:42Z</time>
      </trkpt>
      <trkpt lat="44.78117" lon="3.18873">
        <ele>1211.7</ele>
        <time>2022-08-01T10:45:46Z</time>
      </trkpt>
      <trkpt lat="44.78118" lon="3.18875">
        <ele>1211.6</ele>
        <time>2022-08-01T10:45:50Z</time>
      </trkpt>
      <trkpt lat="44.78118" lon="3.18878">
        <ele>1211.7</ele>
        <time>2022-08-01T10:45:52Z</time>
      </trkpt>
      <trkpt lat="44.78122" lon="3.18885">
        <ele>1211.4</ele>
        <time>2022-08-01T10:45:56Z</time>
      </trkpt>
      <trkpt lat="44.78122" lon="3.18889">
        <ele>1211.4</ele>
        <time>2022-08-01T10:45:58Z</time>
      </trkpt>
      <trkpt lat="44.78122" lon="3.18893">
        <ele>1211.5</ele>
        <time>2022-08-01T10:46:00Z</time>
      </trkpt>
      <trkpt lat="44.78122" lon="3.18894">
        <ele>1211.5</ele>
        <time>2022-08-01T10:46:01Z</time>
      </trkpt>
      <trkpt lat="44.78126" lon="3.18911">
        <ele>1211.3</ele>
        <time>2022-08-01T10:46:11Z</time>
      </trkpt>
      <trkpt lat="44.78126" lon="3.18912">
        <ele>1211.3</ele>
        <time>2022-08-01T10:46:12Z</time>
      </trkpt>
      <trkpt lat="44.78127" lon="3.1892">
        <ele>1211.5</ele>
        <time>2022-08-01T10:46:17Z</time>
      </trkpt>
      <trkpt lat="44.78129" lon="3.18928">
        <ele>1211.8</ele>
        <time>2022-08-01T10:46:22Z</time>
      </trkpt>
      <trkpt lat="44.78129" lon="3.18932">
        <ele>1211.9</ele>
        <time>2022-08-01T10:46:24Z</time>
      </trkpt>
      <trkpt lat="44.7813" lon="3.18933">
        <ele>1212</ele>
        <time>2022-08-01T10:46:25Z</time>
      </trkpt>
      <trkpt lat="44.78131" lon="3.18938">
        <ele>1212.1</ele>
        <time>2022-08-01T10:46:28Z</time>
      </trkpt>
      <trkpt lat="44.78133" lon="3.18941">
        <ele>1212.2</ele>
        <time>2022-08-01T10:46:30Z</time>
      </trkpt>
      <trkpt lat="44.78133" lon="3.18943">
        <ele>1212.3</ele>
        <time>2022-08-01T10:46:31Z</time>
      </trkpt>
      <trkpt lat="44.78134" lon="3.18951">
        <ele>1212.6</ele>
        <time>2022-08-01T10:46:36Z</time>
      </trkpt>
      <trkpt lat="44.78135" lon="3.18958">
        <ele>1212.8</ele>
        <time>2022-08-01T10:46:41Z</time>
      </trkpt>
      <trkpt lat="44.78136" lon="3.18969">
        <ele>1213.1</ele>
        <time>2022-08-01T10:46:48Z</time>
      </trkpt>
      <trkpt lat="44.78137" lon="3.18975">
        <ele>1213.1</ele>
        <time>2022-08-01T10:46:51Z</time>
      </trkpt>
      <trkpt lat="44.78138" lon="3.1898">
        <ele>1213.1</ele>
        <time>2022-08-01T10:46:54Z</time>
      </trkpt>
      <trkpt lat="44.78141" lon="3.18992">
        <ele>1212.9</ele>
        <time>2022-08-01T10:47:02Z</time>
      </trkpt>
      <trkpt lat="44.78147" lon="3.19007">
        <ele>1213</ele>
        <time>2022-08-01T10:47:11Z</time>
      </trkpt>
      <trkpt lat="44.78149" lon="3.19012">
        <ele>1213.1</ele>
        <time>2022-08-01T10:47:14Z</time>
      </trkpt>
      <trkpt lat="44.78151" lon="3.19016">
        <ele>1213.1</ele>
        <time>2022-08-01T10:47:17Z</time>
      </trkpt>
      <trkpt lat="44.78158" lon="3.19026">
        <ele>1213.3</ele>
        <time>2022-08-01T10:47:24Z</time>
      </trkpt>
      <trkpt lat="44.78161" lon="3.19031">
        <ele>1213.4</ele>
        <time>2022-08-01T10:47:28Z</time>
      </trkpt>
      <trkpt lat="44.78162" lon="3.19032">
        <ele>1213.5</ele>
        <time>2022-08-01T10:47:29Z</time>
      </trkpt>
      <trkpt lat="44.78164" lon="3.19033">
        <ele>1213.5</ele>
        <time>2022-08-01T10:47:30Z</time>
      </trkpt>
      <trkpt lat="44.78166" lon="3.1904">
        <ele>1213.8</ele>
        <time>2022-08-01T10:47:35Z</time>
      </trkpt>
      <trkpt lat="44.78167" lon="3.1904">
        <ele>1213.9</ele>
        <time>2022-08-01T10:47:36Z</time>
      </trkpt>
      <trkpt lat="44.78169" lon="3.19044">
        <ele>1214.1</ele>
        <time>2022-08-01T10:47:42Z</time>
      </trkpt>
      <trkpt lat="44.78176" lon="3.19054">
        <ele>1214.6</ele>
        <time>2022-08-01T10:47:49Z</time>
      </trkpt>
      <trkpt lat="44.78176" lon="3.19063">
        <ele>1214.7</ele>
        <time>2022-08-01T10:47:54Z</time>
      </trkpt>
      <trkpt lat="44.78177" lon="3.19065">
        <ele>1214.8</ele>
        <time>2022-08-01T10:47:56Z</time>
      </trkpt>
      <trkpt lat="44.78181" lon="3.19077">
        <ele>1214.9</ele>
        <time>2022-08-01T10:48:03Z</time>
      </trkpt>
      <trkpt lat="44.78181" lon="3.19078">
        <ele>1214.9</ele>
        <time>2022-08-01T10:48:04Z</time>
      </trkpt>
      <trkpt lat="44.7818" lon="3.1908">
        <ele>1214.9</ele>
        <time>2022-08-01T10:48:07Z</time>
      </trkpt>
      <trkpt lat="44.78181" lon="3.19084">
        <ele>1215</ele>
        <time>2022-08-01T10:48:10Z</time>
      </trkpt>
      <trkpt lat="44.78181" lon="3.19085">
        <ele>1215</ele>
        <time>2022-08-01T10:48:11Z</time>
      </trkpt>
      <trkpt lat="44.78185" lon="3.19093">
        <ele>1215.1</ele>
        <time>2022-08-01T10:48:18Z</time>
      </trkpt>
      <trkpt lat="44.78186" lon="3.19102">
        <ele>1215.2</ele>
        <time>2022-08-01T10:48:23Z</time>
      </trkpt>
      <trkpt lat="44.78186" lon="3.19108">
        <ele>1215.3</ele>
        <time>2022-08-01T10:48:27Z</time>
      </trkpt>
      <trkpt lat="44.78186" lon="3.19112">
        <ele>1215.3</ele>
        <time>2022-08-01T10:48:29Z</time>
      </trkpt>
      <trkpt lat="44.78186" lon="3.19119">
        <ele>1215</ele>
        <time>2022-08-01T10:48:33Z</time>
      </trkpt>
      <trkpt lat="44.78186" lon="3.19124">
        <ele>1214.9</ele>
        <time>2022-08-01T10:48:36Z</time>
      </trkpt>
      <trkpt lat="44.78187" lon="3.19129">
        <ele>1214.6</ele>
        <time>2022-08-01T10:48:40Z</time>
      </trkpt>
      <trkpt lat="44.78189" lon="3.19143">
        <ele>1214.2</ele>
        <time>2022-08-01T10:48:48Z</time>
      </trkpt>
      <trkpt lat="44.78189" lon="3.19145">
        <ele>1214.2</ele>
        <time>2022-08-01T10:48:49Z</time>
      </trkpt>
      <trkpt lat="44.78189" lon="3.19147">
        <ele>1214.3</ele>
        <time>2022-08-01T10:48:51Z</time>
      </trkpt>
      <trkpt lat="44.7819" lon="3.1915">
        <ele>1214.2</ele>
        <time>2022-08-01T10:48:53Z</time>
      </trkpt>
      <trkpt lat="44.78194" lon="3.19165">
        <ele>1214</ele>
        <time>2022-08-01T10:49:02Z</time>
      </trkpt>
      <trkpt lat="44.78198" lon="3.19176">
        <ele>1213.8</ele>
        <time>2022-08-01T10:49:09Z</time>
      </trkpt>
      <trkpt lat="44.78201" lon="3.19185">
        <ele>1213.7</ele>
        <time>2022-08-01T10:49:15Z</time>
      </trkpt>
      <trkpt lat="44.78203" lon="3.19197">
        <ele>1213.7</ele>
        <time>2022-08-01T10:49:22Z</time>
      </trkpt>
      <trkpt lat="44.78203" lon="3.19199">
        <ele>1213.8</ele>
        <time>2022-08-01T10:49:23Z</time>
      </trkpt>
      <trkpt lat="44.78207" lon="3.19207">
        <ele>1213.8</ele>
        <time>2022-08-01T10:49:28Z</time>
      </trkpt>
      <trkpt lat="44.78207" lon="3.19209">
        <ele>1213.8</ele>
        <time>2022-08-01T10:49:32Z</time>
      </trkpt>
      <trkpt lat="44.78207" lon="3.19211">
        <ele>1213.8</ele>
        <time>2022-08-01T10:49:34Z</time>
      </trkpt>
      <trkpt lat="44.78212" lon="3.19225">
        <ele>1213.8</ele>
        <time>2022-08-01T10:49:43Z</time>
      </trkpt>
      <trkpt lat="44.78215" lon="3.19236">
        <ele>1213.7</ele>
        <time>2022-08-01T10:49:50Z</time>
      </trkpt>
      <trkpt lat="44.78216" lon="3.19248">
        <ele>1213.7</ele>
        <time>2022-08-01T10:49:57Z</time>
      </trkpt>
      <trkpt lat="44.78217" lon="3.19253">
        <ele>1213.7</ele>
        <time>2022-08-01T10:50:00Z</time>
      </trkpt>
      <trkpt lat="44.78217" lon="3.19256">
        <ele>1213.7</ele>
        <time>2022-08-01T10:50:02Z</time>
      </trkpt>
      <trkpt lat="44.78218" lon="3.19258">
        <ele>1213.8</ele>
        <time>2022-08-01T10:50:03Z</time>
      </trkpt>
      <trkpt lat="44.78222" lon="3.19269">
        <ele>1213.8</ele>
        <time>2022-08-01T10:50:10Z</time>
      </trkpt>
      <trkpt lat="44.78224" lon="3.19281">
        <ele>1213.8</ele>
        <time>2022-08-01T10:50:18Z</time>
      </trkpt>
      <trkpt lat="44.78225" lon="3.19299">
        <ele>1213.8</ele>
        <time>2022-08-01T10:50:28Z</time>
      </trkpt>
      <trkpt lat="44.78229" lon="3.19314">
        <ele>1213.8</ele>
        <time>2022-08-01T10:50:37Z</time>
      </trkpt>
      <trkpt lat="44.78229" lon="3.19323">
        <ele>1214</ele>
        <time>2022-08-01T10:50:43Z</time>
      </trkpt>
      <trkpt lat="44.78231" lon="3.19338">
        <ele>1214.2</ele>
        <time>2022-08-01T10:50:52Z</time>
      </trkpt>
      <trkpt lat="44.78235" lon="3.19354">
        <ele>1214.4</ele>
        <time>2022-08-01T10:51:02Z</time>
      </trkpt>
      <trkpt lat="44.78236" lon="3.19358">
        <ele>1214.4</ele>
        <time>2022-08-01T10:51:05Z</time>
      </trkpt>
      <trkpt lat="44.78237" lon="3.19361">
        <ele>1214.4</ele>
        <time>2022-08-01T10:51:07Z</time>
      </trkpt>
      <trkpt lat="44.78238" lon="3.19364">
        <ele>1214.3</ele>
        <time>2022-08-01T10:51:09Z</time>
      </trkpt>
      <trkpt lat="44.78243" lon="3.19377">
        <ele>1213.7</ele>
        <time>2022-08-01T10:51:18Z</time>
      </trkpt>
      <trkpt lat="44.78244" lon="3.19377">
        <ele>1213.7</ele>
        <time>2022-08-01T10:51:20Z</time>
      </trkpt>
      <trkpt lat="44.78244" lon="3.19379">
        <ele>1213.6</ele>
        <time>2022-08-01T10:51:22Z</time>
      </trkpt>
      <trkpt lat="44.78248" lon="3.19388">
        <ele>1213.3</ele>
        <time>2022-08-01T10:51:28Z</time>
      </trkpt>
      <trkpt lat="44.78248" lon="3.19399">
        <ele>1213.2</ele>
        <time>2022-08-01T10:51:34Z</time>
      </trkpt>
      <trkpt lat="44.78248" lon="3.194">
        <ele>1213.2</ele>
        <time>2022-08-01T10:51:35Z</time>
      </trkpt>
      <trkpt lat="44.78249" lon="3.19407">
        <ele>1213.1</ele>
        <time>2022-08-01T10:51:39Z</time>
      </trkpt>
      <trkpt lat="44.78248" lon="3.19415">
        <ele>1213.2</ele>
        <time>2022-08-01T10:51:44Z</time>
      </trkpt>
      <trkpt lat="44.78248" lon="3.19417">
        <ele>1213.2</ele>
        <time>2022-08-01T10:51:45Z</time>
      </trkpt>
      <trkpt lat="44.78248" lon="3.19421">
        <ele>1213</ele>
        <time>2022-08-01T10:51:47Z</time>
      </trkpt>
      <trkpt lat="44.78248" lon="3.19428">
        <ele>1212.8</ele>
        <time>2022-08-01T10:51:51Z</time>
      </trkpt>
      <trkpt lat="44.78248" lon="3.19431">
        <ele>1212.6</ele>
        <time>2022-08-01T10:51:53Z</time>
      </trkpt>
      <trkpt lat="44.78248" lon="3.19433">
        <ele>1212.6</ele>
        <time>2022-08-01T10:51:54Z</time>
      </trkpt>
      <trkpt lat="44.78247" lon="3.19434">
        <ele>1212.7</ele>
        <time>2022-08-01T10:51:56Z</time>
      </trkpt>
      <trkpt lat="44.78246" lon="3.19436">
        <ele>1212.8</ele>
        <time>2022-08-01T10:51:58Z</time>
      </trkpt>
      <trkpt lat="44.78245" lon="3.19437">
        <ele>1212.8</ele>
        <time>2022-08-01T10:52:01Z</time>
      </trkpt>
      <trkpt lat="44.78247" lon="3.19435">
        <ele>1212.7</ele>
        <time>2022-08-01T10:52:03Z</time>
      </trkpt>
      <trkpt lat="44.78244" lon="3.19432">
        <ele>1213.1</ele>
        <time>2022-08-01T10:52:09Z</time>
      </trkpt>
      <trkpt lat="44.78246" lon="3.19433">
        <ele>1212.9</ele>
        <time>2022-08-01T10:52:17Z</time>
      </trkpt>
      <trkpt lat="44.78246" lon="3.1944">
        <ele>1212.6</ele>
        <time>2022-08-01T10:52:25Z</time>
      </trkpt>
      <trkpt lat="44.78247" lon="3.19443">
        <ele>1212.4</ele>
        <time>2022-08-01T10:52:26Z</time>
      </trkpt>
      <trkpt lat="44.7825" lon="3.19463">
        <ele>1212</ele>
        <time>2022-08-01T10:52:34Z</time>
      </trkpt>
      <trkpt lat="44.7825" lon="3.19465">
        <ele>1212</ele>
        <time>2022-08-01T10:52:35Z</time>
      </trkpt>
      <trkpt lat="44.7825" lon="3.1947">
        <ele>1212</ele>
        <time>2022-08-01T10:52:38Z</time>
      </trkpt>
      <trkpt lat="44.78251" lon="3.19473">
        <ele>1212</ele>
        <time>2022-08-01T10:52:40Z</time>
      </trkpt>
      <trkpt lat="44.78251" lon="3.19482">
        <ele>1211.9</ele>
        <time>2022-08-01T10:52:45Z</time>
      </trkpt>
      <trkpt lat="44.78251" lon="3.19487">
        <ele>1211.9</ele>
        <time>2022-08-01T10:52:47Z</time>
      </trkpt>
      <trkpt lat="44.78251" lon="3.19503">
        <ele>1211.9</ele>
        <time>2022-08-01T10:52:56Z</time>
      </trkpt>
      <trkpt lat="44.78251" lon="3.19507">
        <ele>1212</ele>
        <time>2022-08-01T10:52:58Z</time>
      </trkpt>
      <trkpt lat="44.78252" lon="3.19517">
        <ele>1211.9</ele>
        <time>2022-08-01T10:53:03Z</time>
      </trkpt>
      <trkpt lat="44.78252" lon="3.19519">
        <ele>1211.9</ele>
        <time>2022-08-01T10:53:04Z</time>
      </trkpt>
      <trkpt lat="44.78252" lon="3.19526">
        <ele>1211.9</ele>
        <time>2022-08-01T10:53:08Z</time>
      </trkpt>
      <trkpt lat="44.78253" lon="3.19529">
        <ele>1211.8</ele>
        <time>2022-08-01T10:53:11Z</time>
      </trkpt>
      <trkpt lat="44.78252" lon="3.1953">
        <ele>1211.8</ele>
        <time>2022-08-01T10:53:13Z</time>
      </trkpt>
      <trkpt lat="44.78251" lon="3.19531">
        <ele>1211.8</ele>
        <time>2022-08-01T10:53:16Z</time>
      </trkpt>
      <trkpt lat="44.78252" lon="3.19531">
        <ele>1211.8</ele>
        <time>2022-08-01T10:53:18Z</time>
      </trkpt>
      <trkpt lat="44.78254" lon="3.19528">
        <ele>1211.7</ele>
        <time>2022-08-01T10:53:25Z</time>
      </trkpt>
      <trkpt lat="44.78249" lon="3.19517">
        <ele>1212.1</ele>
        <time>2022-08-01T10:54:09Z</time>
      </trkpt>
      <trkpt lat="44.78246" lon="3.19501">
        <ele>1212.3</ele>
        <time>2022-08-01T10:54:17Z</time>
      </trkpt>
      <trkpt lat="44.78247" lon="3.19489">
        <ele>1212.2</ele>
        <time>2022-08-01T10:54:24Z</time>
      </trkpt>
      <trkpt lat="44.78246" lon="3.19483">
        <ele>1212.3</ele>
        <time>2022-08-01T10:54:28Z</time>
      </trkpt>
      <trkpt lat="44.78247" lon="3.19478">
        <ele>1212.3</ele>
        <time>2022-08-01T10:54:31Z</time>
      </trkpt>
      <trkpt lat="44.78245" lon="3.19464">
        <ele>1212.6</ele>
        <time>2022-08-01T10:54:40Z</time>
      </trkpt>
      <trkpt lat="44.78244" lon="3.1946">
        <ele>1212.7</ele>
        <time>2022-08-01T10:54:42Z</time>
      </trkpt>
      <trkpt lat="44.78242" lon="3.19454">
        <ele>1212.9</ele>
        <time>2022-08-01T10:54:46Z</time>
      </trkpt>
      <trkpt lat="44.78241" lon="3.19448">
        <ele>1213</ele>
        <time>2022-08-01T10:54:50Z</time>
      </trkpt>
      <trkpt lat="44.7824" lon="3.19444">
        <ele>1213.1</ele>
        <time>2022-08-01T10:54:53Z</time>
      </trkpt>
      <trkpt lat="44.78238" lon="3.19439">
        <ele>1213.5</ele>
        <time>2022-08-01T10:54:56Z</time>
      </trkpt>
      <trkpt lat="44.78236" lon="3.19433">
        <ele>1213.9</ele>
        <time>2022-08-01T10:55:00Z</time>
      </trkpt>
      <trkpt lat="44.78233" lon="3.19427">
        <ele>1214.5</ele>
        <time>2022-08-01T10:55:05Z</time>
      </trkpt>
      <trkpt lat="44.78231" lon="3.19424">
        <ele>1214.8</ele>
        <time>2022-08-01T10:55:07Z</time>
      </trkpt>
      <trkpt lat="44.7823" lon="3.19422">
        <ele>1215</ele>
        <time>2022-08-01T10:55:09Z</time>
      </trkpt>
      <trkpt lat="44.78229" lon="3.1942">
        <ele>1215.2</ele>
        <time>2022-08-01T10:55:11Z</time>
      </trkpt>
      <trkpt lat="44.78228" lon="3.19419">
        <ele>1215.3</ele>
        <time>2022-08-01T10:55:12Z</time>
      </trkpt>
      <trkpt lat="44.78227" lon="3.19418">
        <ele>1215.4</ele>
        <time>2022-08-01T10:55:13Z</time>
      </trkpt>
      <trkpt lat="44.78226" lon="3.19416">
        <ele>1215.6</ele>
        <time>2022-08-01T10:55:15Z</time>
      </trkpt>
      <trkpt lat="44.78223" lon="3.19413">
        <ele>1216</ele>
        <time>2022-08-01T10:55:19Z</time>
      </trkpt>
      <trkpt lat="44.7822" lon="3.19406">
        <ele>1216.3</ele>
        <time>2022-08-01T10:55:23Z</time>
      </trkpt>
      <trkpt lat="44.78218" lon="3.19398">
        <ele>1216.7</ele>
        <time>2022-08-01T10:55:28Z</time>
      </trkpt>
      <trkpt lat="44.78218" lon="3.19396">
        <ele>1216.7</ele>
        <time>2022-08-01T10:55:30Z</time>
      </trkpt>
      <trkpt lat="44.78216" lon="3.1939">
        <ele>1217.1</ele>
        <time>2022-08-01T10:55:34Z</time>
      </trkpt>
      <trkpt lat="44.78213" lon="3.19378">
        <ele>1217.5</ele>
        <time>2022-08-01T10:55:42Z</time>
      </trkpt>
      <trkpt lat="44.78213" lon="3.19376">
        <ele>1217.6</ele>
        <time>2022-08-01T10:55:43Z</time>
      </trkpt>
      <trkpt lat="44.78211" lon="3.19372">
        <ele>1217.7</ele>
        <time>2022-08-01T10:55:46Z</time>
      </trkpt>
      <trkpt lat="44.78212" lon="3.19373">
        <ele>1217.7</ele>
        <time>2022-08-01T10:55:48Z</time>
      </trkpt>
      <trkpt lat="44.78214" lon="3.19372">
        <ele>1217.4</ele>
        <time>2022-08-01T10:55:53Z</time>
      </trkpt>
      <trkpt lat="44.78217" lon="3.19369">
        <ele>1216.9</ele>
        <time>2022-08-01T10:56:00Z</time>
      </trkpt>
      <trkpt lat="44.78217" lon="3.19369">
        <ele>1216.9</ele>
        <time>2022-08-01T10:56:03Z</time>
      </trkpt>
      <trkpt lat="44.78215" lon="3.19369">
        <ele>1217.1</ele>
        <time>2022-08-01T10:56:19Z</time>
      </trkpt>
      <trkpt lat="44.7821" lon="3.19361">
        <ele>1217.7</ele>
        <time>2022-08-01T10:56:26Z</time>
      </trkpt>
      <trkpt lat="44.78207" lon="3.19354">
        <ele>1217.9</ele>
        <time>2022-08-01T10:56:34Z</time>
      </trkpt>
      <trkpt lat="44.78207" lon="3.19353">
        <ele>1217.9</ele>
        <time>2022-08-01T10:56:45Z</time>
      </trkpt>
      <trkpt lat="44.78203" lon="3.19347">
        <ele>1218.3</ele>
        <time>2022-08-01T10:56:56Z</time>
      </trkpt>
      <trkpt lat="44.78192" lon="3.19332">
        <ele>1219.1</ele>
        <time>2022-08-01T10:57:04Z</time>
      </trkpt>
      <trkpt lat="44.78185" lon="3.19321">
        <ele>1219.1</ele>
        <time>2022-08-01T10:57:11Z</time>
      </trkpt>
      <trkpt lat="44.7818" lon="3.19316">
        <ele>1219.3</ele>
        <time>2022-08-01T10:57:16Z</time>
      </trkpt>
      <trkpt lat="44.78179" lon="3.19314">
        <ele>1219.2</ele>
        <time>2022-08-01T10:57:18Z</time>
      </trkpt>
      <trkpt lat="44.78179" lon="3.19312">
        <ele>1219.1</ele>
        <time>2022-08-01T10:57:19Z</time>
      </trkpt>
      <trkpt lat="44.7818" lon="3.1931">
        <ele>1218.8</ele>
        <time>2022-08-01T10:57:23Z</time>
      </trkpt>
      <trkpt lat="44.7818" lon="3.19309">
        <ele>1218.8</ele>
        <time>2022-08-01T10:57:25Z</time>
      </trkpt>
      <trkpt lat="44.78178" lon="3.19306">
        <ele>1218.9</ele>
        <time>2022-08-01T10:57:32Z</time>
      </trkpt>
      <trkpt lat="44.78178" lon="3.19306">
        <ele>1218.8</ele>
        <time>2022-08-01T10:57:42Z</time>
      </trkpt>
      <trkpt lat="44.78178" lon="3.19305">
        <ele>1218.8</ele>
        <time>2022-08-01T10:57:59Z</time>
      </trkpt>
      <trkpt lat="44.78178" lon="3.19305">
        <ele>1218.8</ele>
        <time>2022-08-01T10:58:01Z</time>
      </trkpt>
      <trkpt lat="44.78178" lon="3.19305">
        <ele>1218.8</ele>
        <time>2022-08-01T10:58:03Z</time>
      </trkpt>
      <trkpt lat="44.78174" lon="3.19303">
        <ele>1219.2</ele>
        <time>2022-08-01T10:58:06Z</time>
      </trkpt>
      <trkpt lat="44.78171" lon="3.19302">
        <ele>1219.5</ele>
        <time>2022-08-01T10:58:10Z</time>
      </trkpt>
      <trkpt lat="44.78168" lon="3.19299">
        <ele>1219.7</ele>
        <time>2022-08-01T10:58:13Z</time>
      </trkpt>
      <trkpt lat="44.78161" lon="3.19291">
        <ele>1219.7</ele>
        <time>2022-08-01T10:58:20Z</time>
      </trkpt>
      <trkpt lat="44.7816" lon="3.19288">
        <ele>1219.7</ele>
        <time>2022-08-01T10:58:22Z</time>
      </trkpt>
      <trkpt lat="44.78156" lon="3.19282">
        <ele>1219.6</ele>
        <time>2022-08-01T10:58:27Z</time>
      </trkpt>
      <trkpt lat="44.78154" lon="3.19279">
        <ele>1219.5</ele>
        <time>2022-08-01T10:58:29Z</time>
      </trkpt>
      <trkpt lat="44.7815" lon="3.19274">
        <ele>1219.5</ele>
        <time>2022-08-01T10:58:33Z</time>
      </trkpt>
      <trkpt lat="44.78146" lon="3.1927">
        <ele>1219.5</ele>
        <time>2022-08-01T10:58:37Z</time>
      </trkpt>
      <trkpt lat="44.78142" lon="3.19266">
        <ele>1219.5</ele>
        <time>2022-08-01T10:58:41Z</time>
      </trkpt>
      <trkpt lat="44.78138" lon="3.19261">
        <ele>1219.4</ele>
        <time>2022-08-01T10:58:45Z</time>
      </trkpt>
      <trkpt lat="44.78136" lon="3.19259">
        <ele>1219.4</ele>
        <time>2022-08-01T10:58:47Z</time>
      </trkpt>
      <trkpt lat="44.78136" lon="3.19257">
        <ele>1219.4</ele>
        <time>2022-08-01T10:58:48Z</time>
      </trkpt>
      <trkpt lat="44.78134" lon="3.19257">
        <ele>1219.4</ele>
        <time>2022-08-01T10:58:49Z</time>
      </trkpt>
      <trkpt lat="44.78131" lon="3.19254">
        <ele>1219.4</ele>
        <time>2022-08-01T10:58:52Z</time>
      </trkpt>
      <trkpt lat="44.78128" lon="3.19253">
        <ele>1219.5</ele>
        <time>2022-08-01T10:58:54Z</time>
      </trkpt>
      <trkpt lat="44.78126" lon="3.19251">
        <ele>1219.5</ele>
        <time>2022-08-01T10:58:56Z</time>
      </trkpt>
      <trkpt lat="44.7812" lon="3.19248">
        <ele>1219.6</ele>
        <time>2022-08-01T10:59:00Z</time>
      </trkpt>
      <trkpt lat="44.78119" lon="3.19247">
        <ele>1219.6</ele>
        <time>2022-08-01T10:59:02Z</time>
      </trkpt>
      <trkpt lat="44.78113" lon="3.19243">
        <ele>1219.7</ele>
        <time>2022-08-01T10:59:06Z</time>
      </trkpt>
      <trkpt lat="44.78105" lon="3.19236">
        <ele>1219.5</ele>
        <time>2022-08-01T10:59:13Z</time>
      </trkpt>
      <trkpt lat="44.78104" lon="3.19235">
        <ele>1219.4</ele>
        <time>2022-08-01T10:59:14Z</time>
      </trkpt>
      <trkpt lat="44.78101" lon="3.19231">
        <ele>1219.3</ele>
        <time>2022-08-01T10:59:17Z</time>
      </trkpt>
      <trkpt lat="44.78099" lon="3.1923">
        <ele>1219.3</ele>
        <time>2022-08-01T10:59:19Z</time>
      </trkpt>
      <trkpt lat="44.78098" lon="3.19229">
        <ele>1219.2</ele>
        <time>2022-08-01T10:59:20Z</time>
      </trkpt>
      <trkpt lat="44.78092" lon="3.19222">
        <ele>1219</ele>
        <time>2022-08-01T10:59:26Z</time>
      </trkpt>
      <trkpt lat="44.78091" lon="3.19221">
        <ele>1218.9</ele>
        <time>2022-08-01T10:59:27Z</time>
      </trkpt>
      <trkpt lat="44.78083" lon="3.19213">
        <ele>1218.7</ele>
        <time>2022-08-01T10:59:35Z</time>
      </trkpt>
      <trkpt lat="44.78082" lon="3.19213">
        <ele>1218.6</ele>
        <time>2022-08-01T10:59:36Z</time>
      </trkpt>
      <trkpt lat="44.78081" lon="3.19212">
        <ele>1218.6</ele>
        <time>2022-08-01T10:59:37Z</time>
      </trkpt>
      <trkpt lat="44.78078" lon="3.19207">
        <ele>1218.3</ele>
        <time>2022-08-01T10:59:41Z</time>
      </trkpt>
      <trkpt lat="44.78069" lon="3.19196">
        <ele>1218</ele>
        <time>2022-08-01T10:59:49Z</time>
      </trkpt>
      <trkpt lat="44.78065" lon="3.19191">
        <ele>1218</ele>
        <time>2022-08-01T10:59:53Z</time>
      </trkpt>
      <trkpt lat="44.78063" lon="3.19187">
        <ele>1218</ele>
        <time>2022-08-01T10:59:56Z</time>
      </trkpt>
      <trkpt lat="44.78053" lon="3.19175">
        <ele>1218</ele>
        <time>2022-08-01T11:00:05Z</time>
      </trkpt>
      <trkpt lat="44.78048" lon="3.19165">
        <ele>1218</ele>
        <time>2022-08-01T11:00:12Z</time>
      </trkpt>
      <trkpt lat="44.78041" lon="3.1916">
        <ele>1218</ele>
        <time>2022-08-01T11:00:18Z</time>
      </trkpt>
      <trkpt lat="44.78037" lon="3.19155">
        <ele>1218</ele>
        <time>2022-08-01T11:00:22Z</time>
      </trkpt>
      <trkpt lat="44.78032" lon="3.19146">
        <ele>1218</ele>
        <time>2022-08-01T11:00:29Z</time>
      </trkpt>
      <trkpt lat="44.78025" lon="3.19135">
        <ele>1217.9</ele>
        <time>2022-08-01T11:00:37Z</time>
      </trkpt>
      <trkpt lat="44.7802" lon="3.19129">
        <ele>1217.7</ele>
        <time>2022-08-01T11:00:42Z</time>
      </trkpt>
      <trkpt lat="44.78017" lon="3.19129">
        <ele>1217.6</ele>
        <time>2022-08-01T11:00:44Z</time>
      </trkpt>
      <trkpt lat="44.78013" lon="3.19128">
        <ele>1217.5</ele>
        <time>2022-08-01T11:00:47Z</time>
      </trkpt>
      <trkpt lat="44.7801" lon="3.19124">
        <ele>1217.4</ele>
        <time>2022-08-01T11:00:50Z</time>
      </trkpt>
      <trkpt lat="44.78007" lon="3.19114">
        <ele>1217.2</ele>
        <time>2022-08-01T11:00:55Z</time>
      </trkpt>
      <trkpt lat="44.78" lon="3.19103">
        <ele>1217</ele>
        <time>2022-08-01T11:01:03Z</time>
      </trkpt>
      <trkpt lat="44.77996" lon="3.19098">
        <ele>1216.9</ele>
        <time>2022-08-01T11:01:07Z</time>
      </trkpt>
      <trkpt lat="44.77991" lon="3.19091">
        <ele>1216.9</ele>
        <time>2022-08-01T11:01:12Z</time>
      </trkpt>
      <trkpt lat="44.77985" lon="3.19081">
        <ele>1217.1</ele>
        <time>2022-08-01T11:01:19Z</time>
      </trkpt>
      <trkpt lat="44.7798" lon="3.19073">
        <ele>1217.4</ele>
        <time>2022-08-01T11:01:25Z</time>
      </trkpt>
      <trkpt lat="44.77978" lon="3.19071">
        <ele>1217.5</ele>
        <time>2022-08-01T11:01:27Z</time>
      </trkpt>
      <trkpt lat="44.77967" lon="3.19054">
        <ele>1218</ele>
        <time>2022-08-01T11:01:40Z</time>
      </trkpt>
      <trkpt lat="44.77959" lon="3.19043">
        <ele>1218.2</ele>
        <time>2022-08-01T11:01:49Z</time>
      </trkpt>
      <trkpt lat="44.77954" lon="3.19037">
        <ele>1218.4</ele>
        <time>2022-08-01T11:01:55Z</time>
      </trkpt>
      <trkpt lat="44.77951" lon="3.19035">
        <ele>1218.6</ele>
        <time>2022-08-01T11:01:57Z</time>
      </trkpt>
      <trkpt lat="44.77948" lon="3.19032">
        <ele>1218.7</ele>
        <time>2022-08-01T11:02:00Z</time>
      </trkpt>
      <trkpt lat="44.77946" lon="3.19026">
        <ele>1219</ele>
        <time>2022-08-01T11:02:04Z</time>
      </trkpt>
      <trkpt lat="44.77945" lon="3.19025">
        <ele>1219</ele>
        <time>2022-08-01T11:02:05Z</time>
      </trkpt>
      <trkpt lat="44.77938" lon="3.19016">
        <ele>1219.2</ele>
        <time>2022-08-01T11:02:12Z</time>
      </trkpt>
      <trkpt lat="44.77933" lon="3.19003">
        <ele>1219.4</ele>
        <time>2022-08-01T11:02:20Z</time>
      </trkpt>
      <trkpt lat="44.77925" lon="3.18991">
        <ele>1220.1</ele>
        <time>2022-08-01T11:02:29Z</time>
      </trkpt>
      <trkpt lat="44.77916" lon="3.18979">
        <ele>1220.8</ele>
        <time>2022-08-01T11:02:38Z</time>
      </trkpt>
      <trkpt lat="44.77915" lon="3.18978">
        <ele>1221</ele>
        <time>2022-08-01T11:02:39Z</time>
      </trkpt>
      <trkpt lat="44.77908" lon="3.1897">
        <ele>1221.7</ele>
        <time>2022-08-01T11:02:46Z</time>
      </trkpt>
      <trkpt lat="44.77907" lon="3.18968">
        <ele>1221.8</ele>
        <time>2022-08-01T11:02:47Z</time>
      </trkpt>
      <trkpt lat="44.77904" lon="3.18964">
        <ele>1222.1</ele>
        <time>2022-08-01T11:02:51Z</time>
      </trkpt>
      <trkpt lat="44.77902" lon="3.18962">
        <ele>1222.2</ele>
        <time>2022-08-01T11:02:53Z</time>
      </trkpt>
      <trkpt lat="44.77901" lon="3.18961">
        <ele>1222.3</ele>
        <time>2022-08-01T11:02:54Z</time>
      </trkpt>
      <trkpt lat="44.77897" lon="3.18956">
        <ele>1222.6</ele>
        <time>2022-08-01T11:02:59Z</time>
      </trkpt>
      <trkpt lat="44.77892" lon="3.18954">
        <ele>1222.9</ele>
        <time>2022-08-01T11:03:05Z</time>
      </trkpt>
      <trkpt lat="44.77891" lon="3.18953">
        <ele>1222.9</ele>
        <time>2022-08-01T11:03:06Z</time>
      </trkpt>
      <trkpt lat="44.7789" lon="3.18952">
        <ele>1222.9</ele>
        <time>2022-08-01T11:03:07Z</time>
      </trkpt>
      <trkpt lat="44.77885" lon="3.18947">
        <ele>1223.3</ele>
        <time>2022-08-01T11:03:13Z</time>
      </trkpt>
      <trkpt lat="44.77884" lon="3.18946">
        <ele>1223.3</ele>
        <time>2022-08-01T11:03:14Z</time>
      </trkpt>
      <trkpt lat="44.7788" lon="3.1894">
        <ele>1223.7</ele>
        <time>2022-08-01T11:03:19Z</time>
      </trkpt>
      <trkpt lat="44.7787" lon="3.1893">
        <ele>1224.5</ele>
        <time>2022-08-01T11:03:28Z</time>
      </trkpt>
      <trkpt lat="44.77863" lon="3.18925">
        <ele>1224.9</ele>
        <time>2022-08-01T11:03:34Z</time>
      </trkpt>
      <trkpt lat="44.77861" lon="3.18923">
        <ele>1225</ele>
        <time>2022-08-01T11:03:36Z</time>
      </trkpt>
      <trkpt lat="44.77852" lon="3.18922">
        <ele>1225</ele>
        <time>2022-08-01T11:03:42Z</time>
      </trkpt>
      <trkpt lat="44.77849" lon="3.1892">
        <ele>1225</ele>
        <time>2022-08-01T11:03:45Z</time>
      </trkpt>
      <trkpt lat="44.77849" lon="3.1892">
        <ele>1225</ele>
        <time>2022-08-01T11:03:47Z</time>
      </trkpt>
      <trkpt lat="44.7785" lon="3.18919">
        <ele>1225</ele>
        <time>2022-08-01T11:03:48Z</time>
      </trkpt>
      <trkpt lat="44.77853" lon="3.18916">
        <ele>1225</ele>
        <time>2022-08-01T11:03:59Z</time>
      </trkpt>
      <trkpt lat="44.77855" lon="3.18916">
        <ele>1225</ele>
        <time>2022-08-01T11:04:06Z</time>
      </trkpt>
      <trkpt lat="44.77847" lon="3.18913">
        <ele>1225</ele>
        <time>2022-08-01T11:04:19Z</time>
      </trkpt>
      <trkpt lat="44.77842" lon="3.1891">
        <ele>1225</ele>
        <time>2022-08-01T11:04:23Z</time>
      </trkpt>
      <trkpt lat="44.77841" lon="3.18908">
        <ele>1225</ele>
        <time>2022-08-01T11:04:24Z</time>
      </trkpt>
      <trkpt lat="44.77844" lon="3.18907">
        <ele>1225</ele>
        <time>2022-08-01T11:04:30Z</time>
      </trkpt>
      <trkpt lat="44.77839" lon="3.18907">
        <ele>1225</ele>
        <time>2022-08-01T11:04:35Z</time>
      </trkpt>
      <trkpt lat="44.77836" lon="3.18904">
        <ele>1225</ele>
        <time>2022-08-01T11:04:39Z</time>
      </trkpt>
      <trkpt lat="44.77824" lon="3.18902">
        <ele>1224.7</ele>
        <time>2022-08-01T11:04:48Z</time>
      </trkpt>
      <trkpt lat="44.77821" lon="3.18903">
        <ele>1224.6</ele>
        <time>2022-08-01T11:04:49Z</time>
      </trkpt>
      <trkpt lat="44.77819" lon="3.18903">
        <ele>1224.5</ele>
        <time>2022-08-01T11:04:50Z</time>
      </trkpt>
      <trkpt lat="44.77812" lon="3.18902">
        <ele>1224.2</ele>
        <time>2022-08-01T11:04:54Z</time>
      </trkpt>
      <trkpt lat="44.77808" lon="3.18901">
        <ele>1224.1</ele>
        <time>2022-08-01T11:04:57Z</time>
      </trkpt>
      <trkpt lat="44.77805" lon="3.18898">
        <ele>1224</ele>
        <time>2022-08-01T11:05:00Z</time>
      </trkpt>
      <trkpt lat="44.77796" lon="3.18891">
        <ele>1224</ele>
        <time>2022-08-01T11:05:09Z</time>
      </trkpt>
      <trkpt lat="44.77794" lon="3.1889">
        <ele>1224</ele>
        <time>2022-08-01T11:05:10Z</time>
      </trkpt>
      <trkpt lat="44.77792" lon="3.18889">
        <ele>1224</ele>
        <time>2022-08-01T11:05:12Z</time>
      </trkpt>
      <trkpt lat="44.7779" lon="3.18886">
        <ele>1224</ele>
        <time>2022-08-01T11:05:14Z</time>
      </trkpt>
      <trkpt lat="44.77782" lon="3.1888">
        <ele>1224</ele>
        <time>2022-08-01T11:05:20Z</time>
      </trkpt>
      <trkpt lat="44.77774" lon="3.18868">
        <ele>1224.1</ele>
        <time>2022-08-01T11:05:29Z</time>
      </trkpt>
      <trkpt lat="44.77773" lon="3.18868">
        <ele>1224.1</ele>
        <time>2022-08-01T11:05:30Z</time>
      </trkpt>
      <trkpt lat="44.77768" lon="3.18862">
        <ele>1224.4</ele>
        <time>2022-08-01T11:05:35Z</time>
      </trkpt>
      <trkpt lat="44.77766" lon="3.18861">
        <ele>1224.4</ele>
        <time>2022-08-01T11:05:37Z</time>
      </trkpt>
      <trkpt lat="44.77764" lon="3.18859">
        <ele>1224.5</ele>
        <time>2022-08-01T11:05:39Z</time>
      </trkpt>
      <trkpt lat="44.77762" lon="3.18857">
        <ele>1224.6</ele>
        <time>2022-08-01T11:05:41Z</time>
      </trkpt>
      <trkpt lat="44.77755" lon="3.1885">
        <ele>1224.9</ele>
        <time>2022-08-01T11:05:48Z</time>
      </trkpt>
      <trkpt lat="44.77753" lon="3.18848">
        <ele>1224.9</ele>
        <time>2022-08-01T11:05:50Z</time>
      </trkpt>
      <trkpt lat="44.77752" lon="3.18848">
        <ele>1225</ele>
        <time>2022-08-01T11:05:51Z</time>
      </trkpt>
      <trkpt lat="44.77747" lon="3.18843">
        <ele>1225.1</ele>
        <time>2022-08-01T11:05:56Z</time>
      </trkpt>
      <trkpt lat="44.77744" lon="3.18842">
        <ele>1225.2</ele>
        <time>2022-08-01T11:06:00Z</time>
      </trkpt>
      <trkpt lat="44.77742" lon="3.18841">
        <ele>1225.2</ele>
        <time>2022-08-01T11:06:02Z</time>
      </trkpt>
      <trkpt lat="44.77735" lon="3.18833">
        <ele>1225.5</ele>
        <time>2022-08-01T11:06:09Z</time>
      </trkpt>
      <trkpt lat="44.77732" lon="3.18829">
        <ele>1225.6</ele>
        <time>2022-08-01T11:06:12Z</time>
      </trkpt>
      <trkpt lat="44.77731" lon="3.18827">
        <ele>1225.7</ele>
        <time>2022-08-01T11:06:13Z</time>
      </trkpt>
      <trkpt lat="44.77727" lon="3.18825">
        <ele>1225.8</ele>
        <time>2022-08-01T11:06:17Z</time>
      </trkpt>
      <trkpt lat="44.77717" lon="3.18817">
        <ele>1226.2</ele>
        <time>2022-08-01T11:06:26Z</time>
      </trkpt>
      <trkpt lat="44.77711" lon="3.18811">
        <ele>1226.4</ele>
        <time>2022-08-01T11:06:32Z</time>
      </trkpt>
      <trkpt lat="44.77709" lon="3.1881">
        <ele>1226.5</ele>
        <time>2022-08-01T11:06:34Z</time>
      </trkpt>
      <trkpt lat="44.77708" lon="3.18809">
        <ele>1226.5</ele>
        <time>2022-08-01T11:06:35Z</time>
      </trkpt>
      <trkpt lat="44.77701" lon="3.18806">
        <ele>1226.7</ele>
        <time>2022-08-01T11:06:40Z</time>
      </trkpt>
      <trkpt lat="44.77695" lon="3.18802">
        <ele>1227</ele>
        <time>2022-08-01T11:06:46Z</time>
      </trkpt>
      <trkpt lat="44.77687" lon="3.18799">
        <ele>1227.2</ele>
        <time>2022-08-01T11:06:53Z</time>
      </trkpt>
      <trkpt lat="44.77685" lon="3.18799">
        <ele>1227.2</ele>
        <time>2022-08-01T11:06:55Z</time>
      </trkpt>
      <trkpt lat="44.77682" lon="3.18798">
        <ele>1227.3</ele>
        <time>2022-08-01T11:06:58Z</time>
      </trkpt>
      <trkpt lat="44.77678" lon="3.18797">
        <ele>1227.4</ele>
        <time>2022-08-01T11:07:02Z</time>
      </trkpt>
      <trkpt lat="44.77675" lon="3.18798">
        <ele>1227.5</ele>
        <time>2022-08-01T11:07:04Z</time>
      </trkpt>
      <trkpt lat="44.7767" lon="3.188">
        <ele>1227.7</ele>
        <time>2022-08-01T11:07:07Z</time>
      </trkpt>
      <trkpt lat="44.77665" lon="3.18801">
        <ele>1227.8</ele>
        <time>2022-08-01T11:07:12Z</time>
      </trkpt>
      <trkpt lat="44.77664" lon="3.188">
        <ele>1227.8</ele>
        <time>2022-08-01T11:07:13Z</time>
      </trkpt>
      <trkpt lat="44.77663" lon="3.18801">
        <ele>1227.8</ele>
        <time>2022-08-01T11:07:14Z</time>
      </trkpt>
      <trkpt lat="44.7766" lon="3.18804">
        <ele>1227.9</ele>
        <time>2022-08-01T11:07:17Z</time>
      </trkpt>
      <trkpt lat="44.77655" lon="3.18804">
        <ele>1227.9</ele>
        <time>2022-08-01T11:07:20Z</time>
      </trkpt>
      <trkpt lat="44.77654" lon="3.18803">
        <ele>1227.9</ele>
        <time>2022-08-01T11:07:21Z</time>
      </trkpt>
      <trkpt lat="44.77652" lon="3.18803">
        <ele>1227.9</ele>
        <time>2022-08-01T11:07:23Z</time>
      </trkpt>
      <trkpt lat="44.77649" lon="3.18803">
        <ele>1227.9</ele>
        <time>2022-08-01T11:07:26Z</time>
      </trkpt>
      <trkpt lat="44.77636" lon="3.18807">
        <ele>1228.1</ele>
        <time>2022-08-01T11:07:35Z</time>
      </trkpt>
      <trkpt lat="44.77634" lon="3.18806">
        <ele>1228.2</ele>
        <time>2022-08-01T11:07:37Z</time>
      </trkpt>
      <trkpt lat="44.77634" lon="3.18806">
        <ele>1228.2</ele>
        <time>2022-08-01T11:07:39Z</time>
      </trkpt>
      <trkpt lat="44.77634" lon="3.18806">
        <ele>1228.2</ele>
        <time>2022-08-01T11:07:40Z</time>
      </trkpt>
      <trkpt lat="44.77634" lon="3.18805">
        <ele>1228.2</ele>
        <time>2022-08-01T11:07:46Z</time>
      </trkpt>
      <trkpt lat="44.7763" lon="3.18808">
        <ele>1228.4</ele>
        <time>2022-08-01T11:07:51Z</time>
      </trkpt>
      <trkpt lat="44.77619" lon="3.18813">
        <ele>1228.8</ele>
        <time>2022-08-01T11:08:00Z</time>
      </trkpt>
      <trkpt lat="44.77615" lon="3.18814">
        <ele>1228.9</ele>
        <time>2022-08-01T11:08:06Z</time>
      </trkpt>
      <trkpt lat="44.77613" lon="3.18814">
        <ele>1229</ele>
        <time>2022-08-01T11:08:09Z</time>
      </trkpt>
      <trkpt lat="44.7761" lon="3.18814">
        <ele>1229</ele>
        <time>2022-08-01T11:08:11Z</time>
      </trkpt>
      <trkpt lat="44.776" lon="3.18817">
        <ele>1229</ele>
        <time>2022-08-01T11:08:21Z</time>
      </trkpt>
      <trkpt lat="44.7759" lon="3.18818">
        <ele>1229</ele>
        <time>2022-08-01T11:08:29Z</time>
      </trkpt>
      <trkpt lat="44.77577" lon="3.18819">
        <ele>1229.3</ele>
        <time>2022-08-01T11:08:39Z</time>
      </trkpt>
      <trkpt lat="44.7757" lon="3.18821">
        <ele>1229.7</ele>
        <time>2022-08-01T11:08:44Z</time>
      </trkpt>
      <trkpt lat="44.77566" lon="3.18822">
        <ele>1229.9</ele>
        <time>2022-08-01T11:08:48Z</time>
      </trkpt>
      <trkpt lat="44.7756" lon="3.18823">
        <ele>1230.2</ele>
        <time>2022-08-01T11:08:54Z</time>
      </trkpt>
      <trkpt lat="44.7756" lon="3.18822">
        <ele>1230.2</ele>
        <time>2022-08-01T11:08:55Z</time>
      </trkpt>
      <trkpt lat="44.77561" lon="3.18821">
        <ele>1230.1</ele>
        <time>2022-08-01T11:08:58Z</time>
      </trkpt>
      <trkpt lat="44.77561" lon="3.18821">
        <ele>1230.2</ele>
        <time>2022-08-01T11:09:00Z</time>
      </trkpt>
      <trkpt lat="44.77561" lon="3.18821">
        <ele>1230.2</ele>
        <time>2022-08-01T11:09:01Z</time>
      </trkpt>
      <trkpt lat="44.77561" lon="3.18822">
        <ele>1230.2</ele>
        <time>2022-08-01T11:09:03Z</time>
      </trkpt>
      <trkpt lat="44.77555" lon="3.18821">
        <ele>1230.5</ele>
        <time>2022-08-01T11:09:10Z</time>
      </trkpt>
      <trkpt lat="44.77549" lon="3.18824">
        <ele>1230.5</ele>
        <time>2022-08-01T11:09:17Z</time>
      </trkpt>
      <trkpt lat="44.77551" lon="3.18822">
        <ele>1230.5</ele>
        <time>2022-08-01T11:09:22Z</time>
      </trkpt>
      <trkpt lat="44.77549" lon="3.18824">
        <ele>1230.5</ele>
        <time>2022-08-01T11:09:32Z</time>
      </trkpt>
      <trkpt lat="44.77541" lon="3.18829">
        <ele>1230.6</ele>
        <time>2022-08-01T11:09:40Z</time>
      </trkpt>
      <trkpt lat="44.77532" lon="3.1883">
        <ele>1230.9</ele>
        <time>2022-08-01T11:09:48Z</time>
      </trkpt>
      <trkpt lat="44.77528" lon="3.18831">
        <ele>1231</ele>
        <time>2022-08-01T11:09:52Z</time>
      </trkpt>
      <trkpt lat="44.7752" lon="3.18833">
        <ele>1231</ele>
        <time>2022-08-01T11:09:58Z</time>
      </trkpt>
      <trkpt lat="44.77516" lon="3.18834">
        <ele>1231</ele>
        <time>2022-08-01T11:10:02Z</time>
      </trkpt>
      <trkpt lat="44.77514" lon="3.18834">
        <ele>1231</ele>
        <time>2022-08-01T11:10:04Z</time>
      </trkpt>
      <trkpt lat="44.77506" lon="3.18837">
        <ele>1231</ele>
        <time>2022-08-01T11:10:11Z</time>
      </trkpt>
      <trkpt lat="44.77505" lon="3.18838">
        <ele>1231</ele>
        <time>2022-08-01T11:10:12Z</time>
      </trkpt>
      <trkpt lat="44.77501" lon="3.18839">
        <ele>1231</ele>
        <time>2022-08-01T11:10:15Z</time>
      </trkpt>
      <trkpt lat="44.77496" lon="3.1884">
        <ele>1231</ele>
        <time>2022-08-01T11:10:19Z</time>
      </trkpt>
      <trkpt lat="44.77482" lon="3.18839">
        <ele>1231</ele>
        <time>2022-08-01T11:10:30Z</time>
      </trkpt>
      <trkpt lat="44.77472" lon="3.1884">
        <ele>1231</ele>
        <time>2022-08-01T11:10:38Z</time>
      </trkpt>
      <trkpt lat="44.7746" lon="3.1884">
        <ele>1230.9</ele>
        <time>2022-08-01T11:10:48Z</time>
      </trkpt>
      <trkpt lat="44.77447" lon="3.18841">
        <ele>1230.7</ele>
        <time>2022-08-01T11:10:58Z</time>
      </trkpt>
      <trkpt lat="44.77443" lon="3.18842">
        <ele>1230.7</ele>
        <time>2022-08-01T11:11:01Z</time>
      </trkpt>
      <trkpt lat="44.77438" lon="3.18843">
        <ele>1230.7</ele>
        <time>2022-08-01T11:11:05Z</time>
      </trkpt>
      <trkpt lat="44.77425" lon="3.18845">
        <ele>1230.6</ele>
        <time>2022-08-01T11:11:15Z</time>
      </trkpt>
      <trkpt lat="44.77411" lon="3.18848">
        <ele>1230.8</ele>
        <time>2022-08-01T11:11:26Z</time>
      </trkpt>
      <trkpt lat="44.77407" lon="3.18849">
        <ele>1230.9</ele>
        <time>2022-08-01T11:11:29Z</time>
      </trkpt>
      <trkpt lat="44.774" lon="3.18851">
        <ele>1231.2</ele>
        <time>2022-08-01T11:11:35Z</time>
      </trkpt>
      <trkpt lat="44.77398" lon="3.18852">
        <ele>1231.2</ele>
        <time>2022-08-01T11:11:37Z</time>
      </trkpt>
      <trkpt lat="44.77392" lon="3.18854">
        <ele>1231.4</ele>
        <time>2022-08-01T11:11:42Z</time>
      </trkpt>
      <trkpt lat="44.77379" lon="3.18858">
        <ele>1231.6</ele>
        <time>2022-08-01T11:11:52Z</time>
      </trkpt>
      <trkpt lat="44.77374" lon="3.18857">
        <ele>1231.7</ele>
        <time>2022-08-01T11:11:56Z</time>
      </trkpt>
      <trkpt lat="44.77368" lon="3.18859">
        <ele>1231.9</ele>
        <time>2022-08-01T11:12:02Z</time>
      </trkpt>
      <trkpt lat="44.77357" lon="3.18862">
        <ele>1232.3</ele>
        <time>2022-08-01T11:12:11Z</time>
      </trkpt>
      <trkpt lat="44.77353" lon="3.18864">
        <ele>1232.6</ele>
        <time>2022-08-01T11:12:14Z</time>
      </trkpt>
      <trkpt lat="44.77343" lon="3.18869">
        <ele>1233.1</ele>
        <time>2022-08-01T11:12:22Z</time>
      </trkpt>
      <trkpt lat="44.77338" lon="3.18872">
        <ele>1233.3</ele>
        <time>2022-08-01T11:12:26Z</time>
      </trkpt>
      <trkpt lat="44.77332" lon="3.18875">
        <ele>1233.6</ele>
        <time>2022-08-01T11:12:31Z</time>
      </trkpt>
      <trkpt lat="44.77321" lon="3.1888">
        <ele>1234.5</ele>
        <time>2022-08-01T11:12:41Z</time>
      </trkpt>
      <trkpt lat="44.77308" lon="3.1889">
        <ele>1235.7</ele>
        <time>2022-08-01T11:12:52Z</time>
      </trkpt>
      <trkpt lat="44.77302" lon="3.18895">
        <ele>1236.3</ele>
        <time>2022-08-01T11:13:01Z</time>
      </trkpt>
      <trkpt lat="44.77302" lon="3.18894">
        <ele>1236.3</ele>
        <time>2022-08-01T11:13:08Z</time>
      </trkpt>
      <trkpt lat="44.77302" lon="3.18893">
        <ele>1236.3</ele>
        <time>2022-08-01T11:13:19Z</time>
      </trkpt>
      <trkpt lat="44.77302" lon="3.18893">
        <ele>1236.3</ele>
        <time>2022-08-01T11:13:20Z</time>
      </trkpt>
      <trkpt lat="44.77299" lon="3.18896">
        <ele>1236.5</ele>
        <time>2022-08-01T11:13:30Z</time>
      </trkpt>
      <trkpt lat="44.77297" lon="3.18898">
        <ele>1236.7</ele>
        <time>2022-08-01T11:13:32Z</time>
      </trkpt>
      <trkpt lat="44.77293" lon="3.18898">
        <ele>1237</ele>
        <time>2022-08-01T11:13:39Z</time>
      </trkpt>
      <trkpt lat="44.77293" lon="3.18898">
        <ele>1237</ele>
        <time>2022-08-01T11:13:55Z</time>
      </trkpt>
      <trkpt lat="44.77295" lon="3.18898">
        <ele>1236.9</ele>
        <time>2022-08-01T11:14:29Z</time>
      </trkpt>
      <trkpt lat="44.77295" lon="3.189">
        <ele>1236.9</ele>
        <time>2022-08-01T11:15:21Z</time>
      </trkpt>
      <trkpt lat="44.77293" lon="3.189">
        <ele>1237.1</ele>
        <time>2022-08-01T11:15:28Z</time>
      </trkpt>
      <trkpt lat="44.77287" lon="3.18903">
        <ele>1237.6</ele>
        <time>2022-08-01T11:15:33Z</time>
      </trkpt>
      <trkpt lat="44.77278" lon="3.1891">
        <ele>1238.7</ele>
        <time>2022-08-01T11:15:40Z</time>
      </trkpt>
      <trkpt lat="44.77276" lon="3.18911">
        <ele>1238.9</ele>
        <time>2022-08-01T11:15:43Z</time>
      </trkpt>
      <trkpt lat="44.7727" lon="3.18917">
        <ele>1239.3</ele>
        <time>2022-08-01T11:15:49Z</time>
      </trkpt>
      <trkpt lat="44.77267" lon="3.18917">
        <ele>1239.4</ele>
        <time>2022-08-01T11:15:51Z</time>
      </trkpt>
      <trkpt lat="44.77261" lon="3.18921">
        <ele>1239.8</ele>
        <time>2022-08-01T11:15:56Z</time>
      </trkpt>
      <trkpt lat="44.77257" lon="3.18921">
        <ele>1239.9</ele>
        <time>2022-08-01T11:15:59Z</time>
      </trkpt>
      <trkpt lat="44.77256" lon="3.18922">
        <ele>1240</ele>
        <time>2022-08-01T11:16:00Z</time>
      </trkpt>
      <trkpt lat="44.77252" lon="3.18926">
        <ele>1240.3</ele>
        <time>2022-08-01T11:16:04Z</time>
      </trkpt>
      <trkpt lat="44.77251" lon="3.18926">
        <ele>1240.3</ele>
        <time>2022-08-01T11:16:05Z</time>
      </trkpt>
      <trkpt lat="44.7725" lon="3.18927">
        <ele>1240.4</ele>
        <time>2022-08-01T11:16:06Z</time>
      </trkpt>
      <trkpt lat="44.77241" lon="3.18933">
        <ele>1241.4</ele>
        <time>2022-08-01T11:16:14Z</time>
      </trkpt>
      <trkpt lat="44.7724" lon="3.18934">
        <ele>1241.5</ele>
        <time>2022-08-01T11:16:15Z</time>
      </trkpt>
      <trkpt lat="44.77234" lon="3.18938">
        <ele>1242.1</ele>
        <time>2022-08-01T11:16:21Z</time>
      </trkpt>
      <trkpt lat="44.77227" lon="3.18944">
        <ele>1242.7</ele>
        <time>2022-08-01T11:16:28Z</time>
      </trkpt>
      <trkpt lat="44.77225" lon="3.18946">
        <ele>1242.9</ele>
        <time>2022-08-01T11:16:30Z</time>
      </trkpt>
      <trkpt lat="44.77223" lon="3.18947">
        <ele>1243</ele>
        <time>2022-08-01T11:16:32Z</time>
      </trkpt>
      <trkpt lat="44.77219" lon="3.1895">
        <ele>1243.5</ele>
        <time>2022-08-01T11:16:36Z</time>
      </trkpt>
      <trkpt lat="44.77217" lon="3.18951">
        <ele>1243.8</ele>
        <time>2022-08-01T11:16:38Z</time>
      </trkpt>
      <trkpt lat="44.77209" lon="3.18957">
        <ele>1244.7</ele>
        <time>2022-08-01T11:16:46Z</time>
      </trkpt>
      <trkpt lat="44.77208" lon="3.18957">
        <ele>1244.8</ele>
        <time>2022-08-01T11:16:47Z</time>
      </trkpt>
      <trkpt lat="44.77208" lon="3.18958">
        <ele>1244.8</ele>
        <time>2022-08-01T11:16:51Z</time>
      </trkpt>
      <trkpt lat="44.77204" lon="3.18962">
        <ele>1245.2</ele>
        <time>2022-08-01T11:16:57Z</time>
      </trkpt>
      <trkpt lat="44.77203" lon="3.18963">
        <ele>1245.3</ele>
        <time>2022-08-01T11:16:58Z</time>
      </trkpt>
      <trkpt lat="44.77195" lon="3.18968">
        <ele>1246</ele>
        <time>2022-08-01T11:17:07Z</time>
      </trkpt>
      <trkpt lat="44.77187" lon="3.18973">
        <ele>1246.9</ele>
        <time>2022-08-01T11:17:14Z</time>
      </trkpt>
      <trkpt lat="44.77186" lon="3.18974">
        <ele>1247.1</ele>
        <time>2022-08-01T11:17:15Z</time>
      </trkpt>
      <trkpt lat="44.77178" lon="3.18978">
        <ele>1248.1</ele>
        <time>2022-08-01T11:17:22Z</time>
      </trkpt>
      <trkpt lat="44.77175" lon="3.1898">
        <ele>1248.4</ele>
        <time>2022-08-01T11:17:24Z</time>
      </trkpt>
      <trkpt lat="44.77167" lon="3.18985">
        <ele>1249.5</ele>
        <time>2022-08-01T11:17:33Z</time>
      </trkpt>
      <trkpt lat="44.77161" lon="3.1899">
        <ele>1249.9</ele>
        <time>2022-08-01T11:17:38Z</time>
      </trkpt>
      <trkpt lat="44.77156" lon="3.18994">
        <ele>1250.3</ele>
        <time>2022-08-01T11:17:43Z</time>
      </trkpt>
      <trkpt lat="44.77149" lon="3.19001">
        <ele>1250.7</ele>
        <time>2022-08-01T11:17:50Z</time>
      </trkpt>
      <trkpt lat="44.77148" lon="3.19002">
        <ele>1250.8</ele>
        <time>2022-08-01T11:17:51Z</time>
      </trkpt>
      <trkpt lat="44.7714" lon="3.19014">
        <ele>1251.5</ele>
        <time>2022-08-01T11:18:01Z</time>
      </trkpt>
      <trkpt lat="44.77133" lon="3.19025">
        <ele>1252.1</ele>
        <time>2022-08-01T11:18:10Z</time>
      </trkpt>
      <trkpt lat="44.77126" lon="3.19035">
        <ele>1252.9</ele>
        <time>2022-08-01T11:18:18Z</time>
      </trkpt>
      <trkpt lat="44.77124" lon="3.19038">
        <ele>1253.1</ele>
        <time>2022-08-01T11:18:21Z</time>
      </trkpt>
      <trkpt lat="44.77119" lon="3.19048">
        <ele>1253.6</ele>
        <time>2022-08-01T11:18:29Z</time>
      </trkpt>
      <trkpt lat="44.77114" lon="3.19055">
        <ele>1254</ele>
        <time>2022-08-01T11:18:35Z</time>
      </trkpt>
      <trkpt lat="44.77112" lon="3.19059">
        <ele>1254.1</ele>
        <time>2022-08-01T11:18:38Z</time>
      </trkpt>
      <trkpt lat="44.77106" lon="3.19069">
        <ele>1254.7</ele>
        <time>2022-08-01T11:18:46Z</time>
      </trkpt>
      <trkpt lat="44.77099" lon="3.19081">
        <ele>1255.3</ele>
        <time>2022-08-01T11:18:55Z</time>
      </trkpt>
      <trkpt lat="44.77094" lon="3.19092">
        <ele>1256.1</ele>
        <time>2022-08-01T11:19:04Z</time>
      </trkpt>
      <trkpt lat="44.77093" lon="3.19094">
        <ele>1256.1</ele>
        <time>2022-08-01T11:19:05Z</time>
      </trkpt>
      <trkpt lat="44.77092" lon="3.19095">
        <ele>1256.2</ele>
        <time>2022-08-01T11:19:06Z</time>
      </trkpt>
      <trkpt lat="44.7709" lon="3.19102">
        <ele>1256.6</ele>
        <time>2022-08-01T11:19:10Z</time>
      </trkpt>
      <trkpt lat="44.77089" lon="3.19103">
        <ele>1256.7</ele>
        <time>2022-08-01T11:19:11Z</time>
      </trkpt>
      <trkpt lat="44.77085" lon="3.19112">
        <ele>1257</ele>
        <time>2022-08-01T11:19:16Z</time>
      </trkpt>
      <trkpt lat="44.77084" lon="3.19116">
        <ele>1257</ele>
        <time>2022-08-01T11:19:18Z</time>
      </trkpt>
      <trkpt lat="44.77083" lon="3.19119">
        <ele>1257</ele>
        <time>2022-08-01T11:19:20Z</time>
      </trkpt>
      <trkpt lat="44.77082" lon="3.19121">
        <ele>1257.1</ele>
        <time>2022-08-01T11:19:22Z</time>
      </trkpt>
      <trkpt lat="44.77081" lon="3.19122">
        <ele>1257.1</ele>
        <time>2022-08-01T11:19:23Z</time>
      </trkpt>
      <trkpt lat="44.77079" lon="3.19131">
        <ele>1257.2</ele>
        <time>2022-08-01T11:19:28Z</time>
      </trkpt>
      <trkpt lat="44.77076" lon="3.19141">
        <ele>1257.3</ele>
        <time>2022-08-01T11:19:35Z</time>
      </trkpt>
      <trkpt lat="44.77076" lon="3.19143">
        <ele>1257.4</ele>
        <time>2022-08-01T11:19:36Z</time>
      </trkpt>
      <trkpt lat="44.77071" lon="3.19154">
        <ele>1257.7</ele>
        <time>2022-08-01T11:19:43Z</time>
      </trkpt>
      <trkpt lat="44.77067" lon="3.19164">
        <ele>1258</ele>
        <time>2022-08-01T11:19:50Z</time>
      </trkpt>
      <trkpt lat="44.77065" lon="3.19167">
        <ele>1258</ele>
        <time>2022-08-01T11:19:52Z</time>
      </trkpt>
      <trkpt lat="44.77065" lon="3.19168">
        <ele>1258.1</ele>
        <time>2022-08-01T11:19:53Z</time>
      </trkpt>
      <trkpt lat="44.77064" lon="3.19172">
        <ele>1258.2</ele>
        <time>2022-08-01T11:19:56Z</time>
      </trkpt>
      <trkpt lat="44.77064" lon="3.19174">
        <ele>1258.3</ele>
        <time>2022-08-01T11:19:58Z</time>
      </trkpt>
      <trkpt lat="44.77064" lon="3.19175">
        <ele>1258.3</ele>
        <time>2022-08-01T11:19:59Z</time>
      </trkpt>
      <trkpt lat="44.77064" lon="3.19176">
        <ele>1258.3</ele>
        <time>2022-08-01T11:20:02Z</time>
      </trkpt>
      <trkpt lat="44.77064" lon="3.19177">
        <ele>1258.4</ele>
        <time>2022-08-01T11:20:04Z</time>
      </trkpt>
      <trkpt lat="44.77064" lon="3.19178">
        <ele>1258.4</ele>
        <time>2022-08-01T11:20:05Z</time>
      </trkpt>
      <trkpt lat="44.77063" lon="3.19178">
        <ele>1258.4</ele>
        <time>2022-08-01T11:20:06Z</time>
      </trkpt>
      <trkpt lat="44.77062" lon="3.19177">
        <ele>1258.4</ele>
        <time>2022-08-01T11:20:13Z</time>
      </trkpt>
      <trkpt lat="44.77067" lon="3.1918">
        <ele>1258.5</ele>
        <time>2022-08-01T11:21:10Z</time>
      </trkpt>
      <trkpt lat="44.77072" lon="3.19181">
        <ele>1258.5</ele>
        <time>2022-08-01T11:21:14Z</time>
      </trkpt>
      <trkpt lat="44.77073" lon="3.19182">
        <ele>1258.5</ele>
        <time>2022-08-01T11:21:16Z</time>
      </trkpt>
      <trkpt lat="44.77073" lon="3.19182">
        <ele>1258.6</ele>
        <time>2022-08-01T11:21:18Z</time>
      </trkpt>
      <trkpt lat="44.77076" lon="3.19183">
        <ele>1258.6</ele>
        <time>2022-08-01T11:21:21Z</time>
      </trkpt>
      <trkpt lat="44.77078" lon="3.19185">
        <ele>1258.7</ele>
        <time>2022-08-01T11:21:23Z</time>
      </trkpt>
      <trkpt lat="44.77079" lon="3.19187">
        <ele>1258.7</ele>
        <time>2022-08-01T11:21:26Z</time>
      </trkpt>
      <trkpt lat="44.77079" lon="3.19187">
        <ele>1258.7</ele>
        <time>2022-08-01T11:21:28Z</time>
      </trkpt>
      <trkpt lat="44.7708" lon="3.19187">
        <ele>1258.7</ele>
        <time>2022-08-01T11:21:30Z</time>
      </trkpt>
      <trkpt lat="44.77081" lon="3.19188">
        <ele>1258.8</ele>
        <time>2022-08-01T11:21:34Z</time>
      </trkpt>
      <trkpt lat="44.7708" lon="3.19189">
        <ele>1258.8</ele>
        <time>2022-08-01T11:21:35Z</time>
      </trkpt>
      <trkpt lat="44.77079" lon="3.1919">
        <ele>1258.8</ele>
        <time>2022-08-01T11:21:41Z</time>
      </trkpt>
      <trkpt lat="44.77082" lon="3.1919">
        <ele>1258.8</ele>
        <time>2022-08-01T11:21:46Z</time>
      </trkpt>
      <trkpt lat="44.77081" lon="3.1919">
        <ele>1258.8</ele>
        <time>2022-08-01T11:21:52Z</time>
      </trkpt>
      <trkpt lat="44.7708" lon="3.1919">
        <ele>1258.8</ele>
        <time>2022-08-01T11:21:59Z</time>
      </trkpt>
      <trkpt lat="44.77081" lon="3.1919">
        <ele>1258.8</ele>
        <time>2022-08-01T11:22:06Z</time>
      </trkpt>
      <trkpt lat="44.7708" lon="3.19188">
        <ele>1258.8</ele>
        <time>2022-08-01T11:22:54Z</time>
      </trkpt>
      <trkpt lat="44.77086" lon="3.19188">
        <ele>1258.9</ele>
        <time>2022-08-01T11:22:57Z</time>
      </trkpt>
      <trkpt lat="44.77098" lon="3.19185">
        <ele>1259.7</ele>
        <time>2022-08-01T11:23:05Z</time>
      </trkpt>
      <trkpt lat="44.77105" lon="3.19186">
        <ele>1260.3</ele>
        <time>2022-08-01T11:23:10Z</time>
      </trkpt>
      <trkpt lat="44.77111" lon="3.19188">
        <ele>1260.8</ele>
        <time>2022-08-01T11:23:14Z</time>
      </trkpt>
      <trkpt lat="44.77117" lon="3.1919">
        <ele>1261.4</ele>
        <time>2022-08-01T11:23:18Z</time>
      </trkpt>
      <trkpt lat="44.77123" lon="3.19193">
        <ele>1262.2</ele>
        <time>2022-08-01T11:23:24Z</time>
      </trkpt>
      <trkpt lat="44.77132" lon="3.19198">
        <ele>1263.5</ele>
        <time>2022-08-01T11:23:32Z</time>
      </trkpt>
      <trkpt lat="44.77142" lon="3.19201">
        <ele>1264.8</ele>
        <time>2022-08-01T11:23:40Z</time>
      </trkpt>
      <trkpt lat="44.77147" lon="3.19203">
        <ele>1265.5</ele>
        <time>2022-08-01T11:23:44Z</time>
      </trkpt>
      <trkpt lat="44.77151" lon="3.19204">
        <ele>1266</ele>
        <time>2022-08-01T11:23:48Z</time>
      </trkpt>
      <trkpt lat="44.77154" lon="3.19205">
        <ele>1266.4</ele>
        <time>2022-08-01T11:23:52Z</time>
      </trkpt>
      <trkpt lat="44.77156" lon="3.19206">
        <ele>1266.7</ele>
        <time>2022-08-01T11:23:54Z</time>
      </trkpt>
      <trkpt lat="44.77158" lon="3.19207">
        <ele>1267</ele>
        <time>2022-08-01T11:23:56Z</time>
      </trkpt>
      <trkpt lat="44.77161" lon="3.19212">
        <ele>1267.7</ele>
        <time>2022-08-01T11:24:01Z</time>
      </trkpt>
      <trkpt lat="44.77163" lon="3.19213">
        <ele>1267.9</ele>
        <time>2022-08-01T11:24:02Z</time>
      </trkpt>
      <trkpt lat="44.77165" lon="3.19216">
        <ele>1268.4</ele>
        <time>2022-08-01T11:24:05Z</time>
      </trkpt>
      <trkpt lat="44.77171" lon="3.19222">
        <ele>1269.1</ele>
        <time>2022-08-01T11:24:10Z</time>
      </trkpt>
      <trkpt lat="44.77176" lon="3.19226">
        <ele>1269.5</ele>
        <time>2022-08-01T11:24:14Z</time>
      </trkpt>
      <trkpt lat="44.77177" lon="3.19229">
        <ele>1269.7</ele>
        <time>2022-08-01T11:24:16Z</time>
      </trkpt>
      <trkpt lat="44.77182" lon="3.19236">
        <ele>1270.3</ele>
        <time>2022-08-01T11:24:23Z</time>
      </trkpt>
      <trkpt lat="44.77183" lon="3.19238">
        <ele>1270.4</ele>
        <time>2022-08-01T11:24:24Z</time>
      </trkpt>
      <trkpt lat="44.77183" lon="3.19239">
        <ele>1270.6</ele>
        <time>2022-08-01T11:24:25Z</time>
      </trkpt>
      <trkpt lat="44.7719" lon="3.19251">
        <ele>1271.7</ele>
        <time>2022-08-01T11:24:34Z</time>
      </trkpt>
      <trkpt lat="44.77191" lon="3.19252">
        <ele>1271.8</ele>
        <time>2022-08-01T11:24:35Z</time>
      </trkpt>
      <trkpt lat="44.77197" lon="3.19264">
        <ele>1272.4</ele>
        <time>2022-08-01T11:24:44Z</time>
      </trkpt>
      <trkpt lat="44.77203" lon="3.19267">
        <ele>1272.1</ele>
        <time>2022-08-01T11:24:51Z</time>
      </trkpt>
      <trkpt lat="44.77206" lon="3.19271">
        <ele>1272</ele>
        <time>2022-08-01T11:24:55Z</time>
      </trkpt>
      <trkpt lat="44.77209" lon="3.19274">
        <ele>1271.9</ele>
        <time>2022-08-01T11:24:58Z</time>
      </trkpt>
      <trkpt lat="44.77209" lon="3.19275">
        <ele>1271.9</ele>
        <time>2022-08-01T11:25:03Z</time>
      </trkpt>
      <trkpt lat="44.77209" lon="3.19274">
        <ele>1271.9</ele>
        <time>2022-08-01T11:25:04Z</time>
      </trkpt>
      <trkpt lat="44.77209" lon="3.19273">
        <ele>1271.9</ele>
        <time>2022-08-01T11:25:07Z</time>
      </trkpt>
      <trkpt lat="44.77209" lon="3.19273">
        <ele>1271.9</ele>
        <time>2022-08-01T11:25:10Z</time>
      </trkpt>
      <trkpt lat="44.77209" lon="3.19271">
        <ele>1271.8</ele>
        <time>2022-08-01T11:25:12Z</time>
      </trkpt>
      <trkpt lat="44.77213" lon="3.19275">
        <ele>1271.6</ele>
        <time>2022-08-01T11:25:17Z</time>
      </trkpt>
      <trkpt lat="44.77212" lon="3.19276">
        <ele>1271.7</ele>
        <time>2022-08-01T11:25:19Z</time>
      </trkpt>
      <trkpt lat="44.77211" lon="3.19278">
        <ele>1271.8</ele>
        <time>2022-08-01T11:25:23Z</time>
      </trkpt>
      <trkpt lat="44.77211" lon="3.19278">
        <ele>1271.8</ele>
        <time>2022-08-01T11:25:24Z</time>
      </trkpt>
      <trkpt lat="44.7721" lon="3.19277">
        <ele>1271.9</ele>
        <time>2022-08-01T11:25:27Z</time>
      </trkpt>
      <trkpt lat="44.77211" lon="3.19276">
        <ele>1271.8</ele>
        <time>2022-08-01T11:25:31Z</time>
      </trkpt>
      <trkpt lat="44.77211" lon="3.19277">
        <ele>1271.8</ele>
        <time>2022-08-01T11:26:30Z</time>
      </trkpt>
      <trkpt lat="44.77212" lon="3.19277">
        <ele>1271.7</ele>
        <time>2022-08-01T11:26:39Z</time>
      </trkpt>
      <trkpt lat="44.77213" lon="3.19276">
        <ele>1271.7</ele>
        <time>2022-08-01T11:26:47Z</time>
      </trkpt>
      <trkpt lat="44.77213" lon="3.19276">
        <ele>1271.7</ele>
        <time>2022-08-01T11:26:52Z</time>
      </trkpt>
      <trkpt lat="44.77211" lon="3.19274">
        <ele>1271.8</ele>
        <time>2022-08-01T11:26:57Z</time>
      </trkpt>
      <trkpt lat="44.77206" lon="3.19269">
        <ele>1272</ele>
        <time>2022-08-01T11:27:00Z</time>
      </trkpt>
      <trkpt lat="44.77201" lon="3.19263">
        <ele>1272.1</ele>
        <time>2022-08-01T11:27:04Z</time>
      </trkpt>
      <trkpt lat="44.77201" lon="3.19261">
        <ele>1272.1</ele>
        <time>2022-08-01T11:27:08Z</time>
      </trkpt>
      <trkpt lat="44.77203" lon="3.19259">
        <ele>1271.9</ele>
        <time>2022-08-01T11:27:18Z</time>
      </trkpt>
      <trkpt lat="44.77203" lon="3.19259">
        <ele>1271.9</ele>
        <time>2022-08-01T11:27:34Z</time>
      </trkpt>
      <trkpt lat="44.77204" lon="3.19259">
        <ele>1271.9</ele>
        <time>2022-08-01T11:27:59Z</time>
      </trkpt>
      <trkpt lat="44.77201" lon="3.19263">
        <ele>1272.1</ele>
        <time>2022-08-01T11:28:07Z</time>
      </trkpt>
      <trkpt lat="44.77199" lon="3.19267">
        <ele>1272.4</ele>
        <time>2022-08-01T11:28:14Z</time>
      </trkpt>
      <trkpt lat="44.77197" lon="3.19269">
        <ele>1272.5</ele>
        <time>2022-08-01T11:28:25Z</time>
      </trkpt>
      <trkpt lat="44.77193" lon="3.19265">
        <ele>1272.4</ele>
        <time>2022-08-01T11:29:49Z</time>
      </trkpt>
      <trkpt lat="44.77188" lon="3.19254">
        <ele>1271.6</ele>
        <time>2022-08-01T11:29:56Z</time>
      </trkpt>
      <trkpt lat="44.77181" lon="3.19243">
        <ele>1270.7</ele>
        <time>2022-08-01T11:30:04Z</time>
      </trkpt>
      <trkpt lat="44.77179" lon="3.19237">
        <ele>1270.2</ele>
        <time>2022-08-01T11:30:09Z</time>
      </trkpt>
      <trkpt lat="44.77174" lon="3.19229">
        <ele>1269.6</ele>
        <time>2022-08-01T11:30:15Z</time>
      </trkpt>
      <trkpt lat="44.77168" lon="3.19222">
        <ele>1269</ele>
        <time>2022-08-01T11:30:21Z</time>
      </trkpt>
      <trkpt lat="44.77166" lon="3.1922">
        <ele>1268.8</ele>
        <time>2022-08-01T11:30:23Z</time>
      </trkpt>
      <trkpt lat="44.7716" lon="3.19211">
        <ele>1267.4</ele>
        <time>2022-08-01T11:30:31Z</time>
      </trkpt>
      <trkpt lat="44.77157" lon="3.1921">
        <ele>1267</ele>
        <time>2022-08-01T11:30:33Z</time>
      </trkpt>
      <trkpt lat="44.7715" lon="3.19207">
        <ele>1266.1</ele>
        <time>2022-08-01T11:30:39Z</time>
      </trkpt>
      <trkpt lat="44.77141" lon="3.19202">
        <ele>1264.8</ele>
        <time>2022-08-01T11:30:47Z</time>
      </trkpt>
      <trkpt lat="44.7714" lon="3.19202">
        <ele>1264.7</ele>
        <time>2022-08-01T11:30:48Z</time>
      </trkpt>
      <trkpt lat="44.77139" lon="3.19201">
        <ele>1264.4</ele>
        <time>2022-08-01T11:30:50Z</time>
      </trkpt>
      <trkpt lat="44.77134" lon="3.19198">
        <ele>1263.7</ele>
        <time>2022-08-01T11:30:54Z</time>
      </trkpt>
      <trkpt lat="44.77127" lon="3.19195">
        <ele>1262.8</ele>
        <time>2022-08-01T11:30:59Z</time>
      </trkpt>
      <trkpt lat="44.77122" lon="3.19193">
        <ele>1262.1</ele>
        <time>2022-08-01T11:31:04Z</time>
      </trkpt>
      <trkpt lat="44.77116" lon="3.1919">
        <ele>1261.3</ele>
        <time>2022-08-01T11:31:09Z</time>
      </trkpt>
      <trkpt lat="44.77112" lon="3.19187">
        <ele>1260.8</ele>
        <time>2022-08-01T11:31:13Z</time>
      </trkpt>
      <trkpt lat="44.77104" lon="3.19186">
        <ele>1260.2</ele>
        <time>2022-08-01T11:31:19Z</time>
      </trkpt>
      <trkpt lat="44.77098" lon="3.19187">
        <ele>1259.8</ele>
        <time>2022-08-01T11:31:23Z</time>
      </trkpt>
      <trkpt lat="44.77093" lon="3.19189">
        <ele>1259.5</ele>
        <time>2022-08-01T11:31:27Z</time>
      </trkpt>
      <trkpt lat="44.77092" lon="3.1919">
        <ele>1259.4</ele>
        <time>2022-08-01T11:31:29Z</time>
      </trkpt>
      <trkpt lat="44.77089" lon="3.1919">
        <ele>1259.3</ele>
        <time>2022-08-01T11:31:31Z</time>
      </trkpt>
      <trkpt lat="44.77086" lon="3.19189">
        <ele>1259</ele>
        <time>2022-08-01T11:31:33Z</time>
      </trkpt>
      <trkpt lat="44.77083" lon="3.19185">
        <ele>1258.7</ele>
        <time>2022-08-01T11:31:37Z</time>
      </trkpt>
      <trkpt lat="44.77083" lon="3.19184">
        <ele>1258.6</ele>
        <time>2022-08-01T11:31:38Z</time>
      </trkpt>
      <trkpt lat="44.77082" lon="3.19181">
        <ele>1258.5</ele>
        <time>2022-08-01T11:31:44Z</time>
      </trkpt>
      <trkpt lat="44.77081" lon="3.19181">
        <ele>1258.5</ele>
        <time>2022-08-01T11:31:53Z</time>
      </trkpt>
      <trkpt lat="44.77081" lon="3.19181">
        <ele>1258.5</ele>
        <time>2022-08-01T11:31:56Z</time>
      </trkpt>
      <trkpt lat="44.77079" lon="3.19185">
        <ele>1258.6</ele>
        <time>2022-08-01T11:32:26Z</time>
      </trkpt>
      <trkpt lat="44.77076" lon="3.19191">
        <ele>1258.9</ele>
        <time>2022-08-01T11:34:36Z</time>
      </trkpt>
      <trkpt lat="44.77081" lon="3.19192">
        <ele>1258.9</ele>
        <time>2022-08-01T11:35:36Z</time>
      </trkpt>
      <trkpt lat="44.77085" lon="3.19191">
        <ele>1259</ele>
        <time>2022-08-01T11:35:44Z</time>
      </trkpt>
      <trkpt lat="44.77085" lon="3.19191">
        <ele>1259</ele>
        <time>2022-08-01T11:35:50Z</time>
      </trkpt>
      <trkpt lat="44.77084" lon="3.19186">
        <ele>1258.7</ele>
        <time>2022-08-01T11:35:58Z</time>
      </trkpt>
      <trkpt lat="44.77083" lon="3.19186">
        <ele>1258.7</ele>
        <time>2022-08-01T11:36:03Z</time>
      </trkpt>
      <trkpt lat="44.77083" lon="3.19186">
        <ele>1258.7</ele>
        <time>2022-08-01T11:36:13Z</time>
      </trkpt>
      <trkpt lat="44.77082" lon="3.19186">
        <ele>1258.7</ele>
        <time>2022-08-01T11:36:17Z</time>
      </trkpt>
      <trkpt lat="44.7708" lon="3.19184">
        <ele>1258.6</ele>
        <time>2022-08-01T11:36:36Z</time>
      </trkpt>
      <trkpt lat="44.77074" lon="3.19188">
        <ele>1258.8</ele>
        <time>2022-08-01T11:36:52Z</time>
      </trkpt>
      <trkpt lat="44.77073" lon="3.19184">
        <ele>1258.6</ele>
        <time>2022-08-01T11:36:56Z</time>
      </trkpt>
      <trkpt lat="44.77079" lon="3.19185">
        <ele>1258.7</ele>
        <time>2022-08-01T11:37:04Z</time>
      </trkpt>
      <trkpt lat="44.77075" lon="3.19186">
        <ele>1258.7</ele>
        <time>2022-08-01T11:37:07Z</time>
      </trkpt>
      <trkpt lat="44.77074" lon="3.19186">
        <ele>1258.7</ele>
        <time>2022-08-01T11:37:08Z</time>
      </trkpt>
      <trkpt lat="44.77069" lon="3.19184">
        <ele>1258.6</ele>
        <time>2022-08-01T11:37:12Z</time>
      </trkpt>
      <trkpt lat="44.77066" lon="3.19184">
        <ele>1258.6</ele>
        <time>2022-08-01T11:37:14Z</time>
      </trkpt>
      <trkpt lat="44.77056" lon="3.19184">
        <ele>1258.6</ele>
        <time>2022-08-01T11:37:22Z</time>
      </trkpt>
      <trkpt lat="44.77051" lon="3.19191">
        <ele>1258.9</ele>
        <time>2022-08-01T11:37:29Z</time>
      </trkpt>
      <trkpt lat="44.77042" lon="3.19206">
        <ele>1258.8</ele>
        <time>2022-08-01T11:37:40Z</time>
      </trkpt>
      <trkpt lat="44.77035" lon="3.19215">
        <ele>1258.5</ele>
        <time>2022-08-01T11:37:47Z</time>
      </trkpt>
      <trkpt lat="44.77034" lon="3.19217">
        <ele>1258.4</ele>
        <time>2022-08-01T11:37:49Z</time>
      </trkpt>
      <trkpt lat="44.77026" lon="3.19228">
        <ele>1258</ele>
        <time>2022-08-01T11:37:58Z</time>
      </trkpt>
      <trkpt lat="44.77022" lon="3.19236">
        <ele>1258</ele>
        <time>2022-08-01T11:38:03Z</time>
      </trkpt>
      <trkpt lat="44.77019" lon="3.1924">
        <ele>1258</ele>
        <time>2022-08-01T11:38:06Z</time>
      </trkpt>
      <trkpt lat="44.77011" lon="3.19256">
        <ele>1258</ele>
        <time>2022-08-01T11:38:17Z</time>
      </trkpt>
      <trkpt lat="44.77008" lon="3.19262">
        <ele>1257.8</ele>
        <time>2022-08-01T11:38:21Z</time>
      </trkpt>
      <trkpt lat="44.77005" lon="3.19268">
        <ele>1257.6</ele>
        <time>2022-08-01T11:38:25Z</time>
      </trkpt>
      <trkpt lat="44.76999" lon="3.1928">
        <ele>1257</ele>
        <time>2022-08-01T11:38:33Z</time>
      </trkpt>
      <trkpt lat="44.76998" lon="3.19282">
        <ele>1257</ele>
        <time>2022-08-01T11:38:34Z</time>
      </trkpt>
      <trkpt lat="44.76991" lon="3.19294">
        <ele>1256.6</ele>
        <time>2022-08-01T11:38:42Z</time>
      </trkpt>
      <trkpt lat="44.76988" lon="3.19297">
        <ele>1256.4</ele>
        <time>2022-08-01T11:38:45Z</time>
      </trkpt>
      <trkpt lat="44.76984" lon="3.193">
        <ele>1256.1</ele>
        <time>2022-08-01T11:38:48Z</time>
      </trkpt>
      <trkpt lat="44.76977" lon="3.1931">
        <ele>1255.4</ele>
        <time>2022-08-01T11:38:56Z</time>
      </trkpt>
      <trkpt lat="44.76976" lon="3.1931">
        <ele>1255.3</ele>
        <time>2022-08-01T11:38:57Z</time>
      </trkpt>
      <trkpt lat="44.76972" lon="3.19316">
        <ele>1255</ele>
        <time>2022-08-01T11:39:02Z</time>
      </trkpt>
      <trkpt lat="44.76967" lon="3.19321">
        <ele>1254.8</ele>
        <time>2022-08-01T11:39:07Z</time>
      </trkpt>
      <trkpt lat="44.76961" lon="3.19328">
        <ele>1254.3</ele>
        <time>2022-08-01T11:39:13Z</time>
      </trkpt>
      <trkpt lat="44.76959" lon="3.1933">
        <ele>1254.1</ele>
        <time>2022-08-01T11:39:15Z</time>
      </trkpt>
      <trkpt lat="44.76949" lon="3.19338">
        <ele>1253.1</ele>
        <time>2022-08-01T11:39:23Z</time>
      </trkpt>
      <trkpt lat="44.76947" lon="3.19339">
        <ele>1253</ele>
        <time>2022-08-01T11:39:24Z</time>
      </trkpt>
      <trkpt lat="44.76939" lon="3.19347">
        <ele>1252.2</ele>
        <time>2022-08-01T11:39:32Z</time>
      </trkpt>
      <trkpt lat="44.76938" lon="3.19348">
        <ele>1252.1</ele>
        <time>2022-08-01T11:39:33Z</time>
      </trkpt>
      <trkpt lat="44.76937" lon="3.19349">
        <ele>1252</ele>
        <time>2022-08-01T11:39:34Z</time>
      </trkpt>
      <trkpt lat="44.76931" lon="3.19356">
        <ele>1251.3</ele>
        <time>2022-08-01T11:39:42Z</time>
      </trkpt>
      <trkpt lat="44.7693" lon="3.19357">
        <ele>1251.1</ele>
        <time>2022-08-01T11:39:44Z</time>
      </trkpt>
      <trkpt lat="44.76929" lon="3.19358">
        <ele>1251</ele>
        <time>2022-08-01T11:39:45Z</time>
      </trkpt>
      <trkpt lat="44.76925" lon="3.19363">
        <ele>1250.5</ele>
        <time>2022-08-01T11:39:51Z</time>
      </trkpt>
      <trkpt lat="44.76925" lon="3.19364">
        <ele>1250.5</ele>
        <time>2022-08-01T11:39:52Z</time>
      </trkpt>
      <trkpt lat="44.76922" lon="3.19369">
        <ele>1250.2</ele>
        <time>2022-08-01T11:39:57Z</time>
      </trkpt>
      <trkpt lat="44.76914" lon="3.19383">
        <ele>1249.1</ele>
        <time>2022-08-01T11:40:06Z</time>
      </trkpt>
      <trkpt lat="44.76913" lon="3.19384">
        <ele>1249</ele>
        <time>2022-08-01T11:40:07Z</time>
      </trkpt>
      <trkpt lat="44.76905" lon="3.19397">
        <ele>1248.8</ele>
        <time>2022-08-01T11:40:16Z</time>
      </trkpt>
      <trkpt lat="44.769" lon="3.19408">
        <ele>1248.7</ele>
        <time>2022-08-01T11:40:23Z</time>
      </trkpt>
      <trkpt lat="44.76899" lon="3.19408">
        <ele>1248.6</ele>
        <time>2022-08-01T11:40:24Z</time>
      </trkpt>
      <trkpt lat="44.76894" lon="3.19418">
        <ele>1248.4</ele>
        <time>2022-08-01T11:40:31Z</time>
      </trkpt>
      <trkpt lat="44.76893" lon="3.19419">
        <ele>1248.3</ele>
        <time>2022-08-01T11:40:32Z</time>
      </trkpt>
      <trkpt lat="44.76889" lon="3.19427">
        <ele>1248</ele>
        <time>2022-08-01T11:40:37Z</time>
      </trkpt>
      <trkpt lat="44.76886" lon="3.19442">
        <ele>1247.8</ele>
        <time>2022-08-01T11:40:45Z</time>
      </trkpt>
      <trkpt lat="44.76879" lon="3.19453">
        <ele>1247.4</ele>
        <time>2022-08-01T11:40:52Z</time>
      </trkpt>
      <trkpt lat="44.76877" lon="3.19456">
        <ele>1247.3</ele>
        <time>2022-08-01T11:40:54Z</time>
      </trkpt>
      <trkpt lat="44.7687" lon="3.19469">
        <ele>1247.2</ele>
        <time>2022-08-01T11:41:02Z</time>
      </trkpt>
      <trkpt lat="44.76866" lon="3.19476">
        <ele>1247.1</ele>
        <time>2022-08-01T11:41:08Z</time>
      </trkpt>
      <trkpt lat="44.7686" lon="3.19487">
        <ele>1246.5</ele>
        <time>2022-08-01T11:41:16Z</time>
      </trkpt>
      <trkpt lat="44.76857" lon="3.19493">
        <ele>1246.2</ele>
        <time>2022-08-01T11:41:20Z</time>
      </trkpt>
      <trkpt lat="44.76853" lon="3.19499">
        <ele>1246</ele>
        <time>2022-08-01T11:41:24Z</time>
      </trkpt>
      <trkpt lat="44.7685" lon="3.19505">
        <ele>1245.9</ele>
        <time>2022-08-01T11:41:28Z</time>
      </trkpt>
      <trkpt lat="44.76848" lon="3.19507">
        <ele>1245.9</ele>
        <time>2022-08-01T11:41:30Z</time>
      </trkpt>
      <trkpt lat="44.76846" lon="3.1951">
        <ele>1245.8</ele>
        <time>2022-08-01T11:41:32Z</time>
      </trkpt>
      <trkpt lat="44.76841" lon="3.1952">
        <ele>1245.5</ele>
        <time>2022-08-01T11:41:39Z</time>
      </trkpt>
      <trkpt lat="44.76841" lon="3.19522">
        <ele>1245.4</ele>
        <time>2022-08-01T11:41:40Z</time>
      </trkpt>
      <trkpt lat="44.76834" lon="3.19533">
        <ele>1244.8</ele>
        <time>2022-08-01T11:41:47Z</time>
      </trkpt>
      <trkpt lat="44.76832" lon="3.19535">
        <ele>1244.6</ele>
        <time>2022-08-01T11:41:49Z</time>
      </trkpt>
      <trkpt lat="44.76829" lon="3.19539">
        <ele>1244.3</ele>
        <time>2022-08-01T11:41:54Z</time>
      </trkpt>
      <trkpt lat="44.76827" lon="3.19543">
        <ele>1244</ele>
        <time>2022-08-01T11:42:03Z</time>
      </trkpt>
      <trkpt lat="44.76822" lon="3.19552">
        <ele>1243.3</ele>
        <time>2022-08-01T11:42:10Z</time>
      </trkpt>
      <trkpt lat="44.76821" lon="3.19554">
        <ele>1243.2</ele>
        <time>2022-08-01T11:42:11Z</time>
      </trkpt>
      <trkpt lat="44.76821" lon="3.19555">
        <ele>1243.1</ele>
        <time>2022-08-01T11:42:15Z</time>
      </trkpt>
      <trkpt lat="44.76821" lon="3.19555">
        <ele>1243.2</ele>
        <time>2022-08-01T11:42:20Z</time>
      </trkpt>
      <trkpt lat="44.76821" lon="3.19556">
        <ele>1243.1</ele>
        <time>2022-08-01T11:42:23Z</time>
      </trkpt>
      <trkpt lat="44.76819" lon="3.19563">
        <ele>1242.7</ele>
        <time>2022-08-01T11:42:29Z</time>
      </trkpt>
      <trkpt lat="44.76815" lon="3.19574">
        <ele>1242</ele>
        <time>2022-08-01T11:42:36Z</time>
      </trkpt>
      <trkpt lat="44.76814" lon="3.19575">
        <ele>1241.9</ele>
        <time>2022-08-01T11:42:37Z</time>
      </trkpt>
      <trkpt lat="44.76811" lon="3.19584">
        <ele>1241.3</ele>
        <time>2022-08-01T11:42:43Z</time>
      </trkpt>
      <trkpt lat="44.76804" lon="3.19596">
        <ele>1241</ele>
        <time>2022-08-01T11:42:51Z</time>
      </trkpt>
      <trkpt lat="44.76797" lon="3.19607">
        <ele>1240.7</ele>
        <time>2022-08-01T11:42:58Z</time>
      </trkpt>
      <trkpt lat="44.76796" lon="3.1961">
        <ele>1240.7</ele>
        <time>2022-08-01T11:43:00Z</time>
      </trkpt>
      <trkpt lat="44.7679" lon="3.19622">
        <ele>1240</ele>
        <time>2022-08-01T11:43:08Z</time>
      </trkpt>
      <trkpt lat="44.76787" lon="3.19626">
        <ele>1239.8</ele>
        <time>2022-08-01T11:43:11Z</time>
      </trkpt>
      <trkpt lat="44.76785" lon="3.19631">
        <ele>1239.5</ele>
        <time>2022-08-01T11:43:14Z</time>
      </trkpt>
      <trkpt lat="44.76776" lon="3.1964">
        <ele>1239</ele>
        <time>2022-08-01T11:43:21Z</time>
      </trkpt>
      <trkpt lat="44.76774" lon="3.19645">
        <ele>1238.8</ele>
        <time>2022-08-01T11:43:26Z</time>
      </trkpt>
      <trkpt lat="44.76772" lon="3.19645">
        <ele>1238.8</ele>
        <time>2022-08-01T11:43:28Z</time>
      </trkpt>
      <trkpt lat="44.76772" lon="3.19645">
        <ele>1238.8</ele>
        <time>2022-08-01T11:43:29Z</time>
      </trkpt>
      <trkpt lat="44.76771" lon="3.19643">
        <ele>1238.8</ele>
        <time>2022-08-01T11:43:31Z</time>
      </trkpt>
      <trkpt lat="44.76771" lon="3.19643">
        <ele>1238.9</ele>
        <time>2022-08-01T11:43:33Z</time>
      </trkpt>
      <trkpt lat="44.76771" lon="3.19644">
        <ele>1238.8</ele>
        <time>2022-08-01T11:43:36Z</time>
      </trkpt>
      <trkpt lat="44.76771" lon="3.19643">
        <ele>1238.9</ele>
        <time>2022-08-01T11:43:49Z</time>
      </trkpt>
      <trkpt lat="44.76771" lon="3.19639">
        <ele>1239</ele>
        <time>2022-08-01T11:44:11Z</time>
      </trkpt>
      <trkpt lat="44.76765" lon="3.19648">
        <ele>1238.7</ele>
        <time>2022-08-01T11:44:21Z</time>
      </trkpt>
      <trkpt lat="44.76758" lon="3.1966">
        <ele>1238.2</ele>
        <time>2022-08-01T11:44:28Z</time>
      </trkpt>
      <trkpt lat="44.76757" lon="3.19662">
        <ele>1238.2</ele>
        <time>2022-08-01T11:44:29Z</time>
      </trkpt>
      <trkpt lat="44.76754" lon="3.19669">
        <ele>1237.9</ele>
        <time>2022-08-01T11:44:33Z</time>
      </trkpt>
      <trkpt lat="44.76754" lon="3.19672">
        <ele>1237.8</ele>
        <time>2022-08-01T11:44:35Z</time>
      </trkpt>
      <trkpt lat="44.76752" lon="3.19675">
        <ele>1237.7</ele>
        <time>2022-08-01T11:44:37Z</time>
      </trkpt>
      <trkpt lat="44.7675" lon="3.19682">
        <ele>1237.4</ele>
        <time>2022-08-01T11:44:41Z</time>
      </trkpt>
      <trkpt lat="44.76744" lon="3.19694">
        <ele>1236.8</ele>
        <time>2022-08-01T11:44:49Z</time>
      </trkpt>
      <trkpt lat="44.76735" lon="3.19712">
        <ele>1236.2</ele>
        <time>2022-08-01T11:45:01Z</time>
      </trkpt>
      <trkpt lat="44.76735" lon="3.19714">
        <ele>1236.1</ele>
        <time>2022-08-01T11:45:02Z</time>
      </trkpt>
      <trkpt lat="44.76729" lon="3.19725">
        <ele>1235.9</ele>
        <time>2022-08-01T11:45:10Z</time>
      </trkpt>
      <trkpt lat="44.76724" lon="3.19734">
        <ele>1235.6</ele>
        <time>2022-08-01T11:45:17Z</time>
      </trkpt>
      <trkpt lat="44.76718" lon="3.19747">
        <ele>1235.1</ele>
        <time>2022-08-01T11:45:25Z</time>
      </trkpt>
      <trkpt lat="44.76716" lon="3.19749">
        <ele>1235</ele>
        <time>2022-08-01T11:45:30Z</time>
      </trkpt>
      <trkpt lat="44.76716" lon="3.19749">
        <ele>1235</ele>
        <time>2022-08-01T11:45:31Z</time>
      </trkpt>
      <trkpt lat="44.76716" lon="3.1975">
        <ele>1235</ele>
        <time>2022-08-01T11:45:39Z</time>
      </trkpt>
      <trkpt lat="44.76715" lon="3.19753">
        <ele>1235</ele>
        <time>2022-08-01T11:45:44Z</time>
      </trkpt>
      <trkpt lat="44.76714" lon="3.19757">
        <ele>1235</ele>
        <time>2022-08-01T11:45:50Z</time>
      </trkpt>
      <trkpt lat="44.76713" lon="3.19759">
        <ele>1235</ele>
        <time>2022-08-01T11:46:11Z</time>
      </trkpt>
      <trkpt lat="44.76712" lon="3.19769">
        <ele>1235</ele>
        <time>2022-08-01T11:46:17Z</time>
      </trkpt>
      <trkpt lat="44.76714" lon="3.1977">
        <ele>1235</ele>
        <time>2022-08-01T11:46:20Z</time>
      </trkpt>
      <trkpt lat="44.76715" lon="3.19771">
        <ele>1235</ele>
        <time>2022-08-01T11:46:23Z</time>
      </trkpt>
      <trkpt lat="44.76715" lon="3.19771">
        <ele>1235</ele>
        <time>2022-08-01T11:46:28Z</time>
      </trkpt>
      <trkpt lat="44.76715" lon="3.19772">
        <ele>1235</ele>
        <time>2022-08-01T11:46:35Z</time>
      </trkpt>
      <trkpt lat="44.76715" lon="3.19772">
        <ele>1235</ele>
        <time>2022-08-01T11:46:39Z</time>
      </trkpt>
      <trkpt lat="44.76708" lon="3.19777">
        <ele>1235</ele>
        <time>2022-08-01T11:47:11Z</time>
      </trkpt>
      <trkpt lat="44.76707" lon="3.19778">
        <ele>1235</ele>
        <time>2022-08-01T11:47:12Z</time>
      </trkpt>
      <trkpt lat="44.76696" lon="3.19795">
        <ele>1235.6</ele>
        <time>2022-08-01T11:47:23Z</time>
      </trkpt>
      <trkpt lat="44.76687" lon="3.19808">
        <ele>1236</ele>
        <time>2022-08-01T11:47:33Z</time>
      </trkpt>
      <trkpt lat="44.7668" lon="3.19819">
        <ele>1236.3</ele>
        <time>2022-08-01T11:47:41Z</time>
      </trkpt>
      <trkpt lat="44.76678" lon="3.1982">
        <ele>1236.3</ele>
        <time>2022-08-01T11:47:43Z</time>
      </trkpt>
      <trkpt lat="44.76666" lon="3.19837">
        <ele>1237.1</ele>
        <time>2022-08-01T11:47:55Z</time>
      </trkpt>
      <trkpt lat="44.76661" lon="3.19842">
        <ele>1237.5</ele>
        <time>2022-08-01T11:48:01Z</time>
      </trkpt>
      <trkpt lat="44.76651" lon="3.19856">
        <ele>1238.4</ele>
        <time>2022-08-01T11:48:11Z</time>
      </trkpt>
      <trkpt lat="44.76647" lon="3.19859">
        <ele>1238.6</ele>
        <time>2022-08-01T11:48:14Z</time>
      </trkpt>
      <trkpt lat="44.76641" lon="3.19864">
        <ele>1239</ele>
        <time>2022-08-01T11:48:20Z</time>
      </trkpt>
      <trkpt lat="44.76633" lon="3.19872">
        <ele>1239.4</ele>
        <time>2022-08-01T11:48:27Z</time>
      </trkpt>
      <trkpt lat="44.76631" lon="3.19874">
        <ele>1239.4</ele>
        <time>2022-08-01T11:48:29Z</time>
      </trkpt>
      <trkpt lat="44.76623" lon="3.19881">
        <ele>1239.7</ele>
        <time>2022-08-01T11:48:37Z</time>
      </trkpt>
      <trkpt lat="44.76622" lon="3.19883">
        <ele>1239.8</ele>
        <time>2022-08-01T11:48:38Z</time>
      </trkpt>
      <trkpt lat="44.76617" lon="3.19888">
        <ele>1240</ele>
        <time>2022-08-01T11:48:43Z</time>
      </trkpt>
      <trkpt lat="44.76615" lon="3.19889">
        <ele>1240</ele>
        <time>2022-08-01T11:48:45Z</time>
      </trkpt>
      <trkpt lat="44.76607" lon="3.19901">
        <ele>1240.2</ele>
        <time>2022-08-01T11:48:54Z</time>
      </trkpt>
      <trkpt lat="44.766" lon="3.19915">
        <ele>1240.2</ele>
        <time>2022-08-01T11:49:03Z</time>
      </trkpt>
      <trkpt lat="44.76592" lon="3.1993">
        <ele>1240.1</ele>
        <time>2022-08-01T11:49:13Z</time>
      </trkpt>
      <trkpt lat="44.76583" lon="3.19947">
        <ele>1240.1</ele>
        <time>2022-08-01T11:49:24Z</time>
      </trkpt>
      <trkpt lat="44.76574" lon="3.19964">
        <ele>1240</ele>
        <time>2022-08-01T11:49:35Z</time>
      </trkpt>
      <trkpt lat="44.76565" lon="3.19981">
        <ele>1239.9</ele>
        <time>2022-08-01T11:49:46Z</time>
      </trkpt>
      <trkpt lat="44.76562" lon="3.19988">
        <ele>1239.9</ele>
        <time>2022-08-01T11:49:50Z</time>
      </trkpt>
      <trkpt lat="44.76561" lon="3.1999">
        <ele>1239.9</ele>
        <time>2022-08-01T11:49:52Z</time>
      </trkpt>
      <trkpt lat="44.7656" lon="3.19992">
        <ele>1239.9</ele>
        <time>2022-08-01T11:49:53Z</time>
      </trkpt>
      <trkpt lat="44.76552" lon="3.20008">
        <ele>1239.8</ele>
        <time>2022-08-01T11:50:03Z</time>
      </trkpt>
      <trkpt lat="44.76544" lon="3.20021">
        <ele>1239.5</ele>
        <time>2022-08-01T11:50:12Z</time>
      </trkpt>
      <trkpt lat="44.76542" lon="3.20024">
        <ele>1239.5</ele>
        <time>2022-08-01T11:50:14Z</time>
      </trkpt>
      <trkpt lat="44.76534" lon="3.20039">
        <ele>1239.6</ele>
        <time>2022-08-01T11:50:24Z</time>
      </trkpt>
      <trkpt lat="44.76523" lon="3.20051">
        <ele>1239.7</ele>
        <time>2022-08-01T11:50:34Z</time>
      </trkpt>
      <trkpt lat="44.7651" lon="3.20059">
        <ele>1239.6</ele>
        <time>2022-08-01T11:50:45Z</time>
      </trkpt>
      <trkpt lat="44.765" lon="3.20064">
        <ele>1239.6</ele>
        <time>2022-08-01T11:50:53Z</time>
      </trkpt>
      <trkpt lat="44.76492" lon="3.20068">
        <ele>1239.7</ele>
        <time>2022-08-01T11:50:59Z</time>
      </trkpt>
      <trkpt lat="44.76486" lon="3.2007">
        <ele>1239.8</ele>
        <time>2022-08-01T11:51:04Z</time>
      </trkpt>
      <trkpt lat="44.76474" lon="3.20072">
        <ele>1239.7</ele>
        <time>2022-08-01T11:51:13Z</time>
      </trkpt>
      <trkpt lat="44.76466" lon="3.20071">
        <ele>1239.5</ele>
        <time>2022-08-01T11:51:19Z</time>
      </trkpt>
      <trkpt lat="44.7646" lon="3.20072">
        <ele>1239.5</ele>
        <time>2022-08-01T11:51:23Z</time>
      </trkpt>
      <trkpt lat="44.76449" lon="3.20073">
        <ele>1239.4</ele>
        <time>2022-08-01T11:51:32Z</time>
      </trkpt>
      <trkpt lat="44.76447" lon="3.20072">
        <ele>1239.2</ele>
        <time>2022-08-01T11:51:34Z</time>
      </trkpt>
      <trkpt lat="44.76442" lon="3.20072">
        <ele>1239.1</ele>
        <time>2022-08-01T11:51:39Z</time>
      </trkpt>
      <trkpt lat="44.76429" lon="3.20073">
        <ele>1238.7</ele>
        <time>2022-08-01T11:51:48Z</time>
      </trkpt>
      <trkpt lat="44.7642" lon="3.20071">
        <ele>1238.3</ele>
        <time>2022-08-01T11:51:55Z</time>
      </trkpt>
      <trkpt lat="44.76417" lon="3.20072">
        <ele>1238.2</ele>
        <time>2022-08-01T11:51:57Z</time>
      </trkpt>
      <trkpt lat="44.76404" lon="3.20073">
        <ele>1237.6</ele>
        <time>2022-08-01T11:52:06Z</time>
      </trkpt>
      <trkpt lat="44.76394" lon="3.20075">
        <ele>1237.3</ele>
        <time>2022-08-01T11:52:13Z</time>
      </trkpt>
      <trkpt lat="44.76384" lon="3.20079">
        <ele>1237.3</ele>
        <time>2022-08-01T11:52:19Z</time>
      </trkpt>
      <trkpt lat="44.76383" lon="3.2008">
        <ele>1237.4</ele>
        <time>2022-08-01T11:52:20Z</time>
      </trkpt>
      <trkpt lat="44.76373" lon="3.20083">
        <ele>1237.3</ele>
        <time>2022-08-01T11:52:27Z</time>
      </trkpt>
      <trkpt lat="44.7637" lon="3.20083">
        <ele>1237.3</ele>
        <time>2022-08-01T11:52:29Z</time>
      </trkpt>
      <trkpt lat="44.76364" lon="3.20084">
        <ele>1237.2</ele>
        <time>2022-08-01T11:52:34Z</time>
      </trkpt>
      <trkpt lat="44.7635" lon="3.20089">
        <ele>1236.6</ele>
        <time>2022-08-01T11:52:44Z</time>
      </trkpt>
      <trkpt lat="44.76339" lon="3.20092">
        <ele>1236</ele>
        <time>2022-08-01T11:52:52Z</time>
      </trkpt>
      <trkpt lat="44.76327" lon="3.20095">
        <ele>1235.5</ele>
        <time>2022-08-01T11:53:01Z</time>
      </trkpt>
      <trkpt lat="44.76322" lon="3.20097">
        <ele>1235.4</ele>
        <time>2022-08-01T11:53:05Z</time>
      </trkpt>
      <trkpt lat="44.76316" lon="3.201">
        <ele>1235.3</ele>
        <time>2022-08-01T11:53:09Z</time>
      </trkpt>
      <trkpt lat="44.76305" lon="3.20104">
        <ele>1235.1</ele>
        <time>2022-08-01T11:53:17Z</time>
      </trkpt>
      <trkpt lat="44.76294" lon="3.20112">
        <ele>1234.7</ele>
        <time>2022-08-01T11:53:26Z</time>
      </trkpt>
      <trkpt lat="44.7628" lon="3.20119">
        <ele>1233.8</ele>
        <time>2022-08-01T11:53:37Z</time>
      </trkpt>
      <trkpt lat="44.76276" lon="3.20122">
        <ele>1233.6</ele>
        <time>2022-08-01T11:53:43Z</time>
      </trkpt>
      <trkpt lat="44.76276" lon="3.20121">
        <ele>1233.6</ele>
        <time>2022-08-01T11:53:44Z</time>
      </trkpt>
      <trkpt lat="44.76279" lon="3.20121">
        <ele>1233.8</ele>
        <time>2022-08-01T11:53:58Z</time>
      </trkpt>
      <trkpt lat="44.76279" lon="3.20121">
        <ele>1233.8</ele>
        <time>2022-08-01T11:53:59Z</time>
      </trkpt>
      <trkpt lat="44.76278" lon="3.20121">
        <ele>1233.8</ele>
        <time>2022-08-01T11:54:05Z</time>
      </trkpt>
      <trkpt lat="44.76278" lon="3.20121">
        <ele>1233.8</ele>
        <time>2022-08-01T11:54:06Z</time>
      </trkpt>
      <trkpt lat="44.76277" lon="3.20123">
        <ele>1233.8</ele>
        <time>2022-08-01T11:54:31Z</time>
      </trkpt>
      <trkpt lat="44.76275" lon="3.20125">
        <ele>1233.8</ele>
        <time>2022-08-01T11:54:40Z</time>
      </trkpt>
      <trkpt lat="44.7627" lon="3.20128">
        <ele>1233.6</ele>
        <time>2022-08-01T11:54:43Z</time>
      </trkpt>
      <trkpt lat="44.76259" lon="3.20136">
        <ele>1233.4</ele>
        <time>2022-08-01T11:54:50Z</time>
      </trkpt>
      <trkpt lat="44.76249" lon="3.20142">
        <ele>1232.9</ele>
        <time>2022-08-01T11:54:58Z</time>
      </trkpt>
      <trkpt lat="44.76242" lon="3.20146">
        <ele>1232.5</ele>
        <time>2022-08-01T11:55:04Z</time>
      </trkpt>
      <trkpt lat="44.76239" lon="3.2015">
        <ele>1232.4</ele>
        <time>2022-08-01T11:55:07Z</time>
      </trkpt>
      <trkpt lat="44.76224" lon="3.20162">
        <ele>1231.8</ele>
        <time>2022-08-01T11:55:19Z</time>
      </trkpt>
      <trkpt lat="44.76216" lon="3.20168">
        <ele>1231.6</ele>
        <time>2022-08-01T11:55:26Z</time>
      </trkpt>
      <trkpt lat="44.76209" lon="3.20172">
        <ele>1231.2</ele>
        <time>2022-08-01T11:55:32Z</time>
      </trkpt>
      <trkpt lat="44.76208" lon="3.20172">
        <ele>1231.2</ele>
        <time>2022-08-01T11:55:33Z</time>
      </trkpt>
      <trkpt lat="44.76195" lon="3.20179">
        <ele>1230.5</ele>
        <time>2022-08-01T11:55:43Z</time>
      </trkpt>
      <trkpt lat="44.7619" lon="3.20183">
        <ele>1230.2</ele>
        <time>2022-08-01T11:55:48Z</time>
      </trkpt>
      <trkpt lat="44.76186" lon="3.20185">
        <ele>1230</ele>
        <time>2022-08-01T11:55:51Z</time>
      </trkpt>
      <trkpt lat="44.7618" lon="3.20186">
        <ele>1229.7</ele>
        <time>2022-08-01T11:55:55Z</time>
      </trkpt>
      <trkpt lat="44.76176" lon="3.20189">
        <ele>1229.5</ele>
        <time>2022-08-01T11:55:58Z</time>
      </trkpt>
      <trkpt lat="44.76175" lon="3.2019">
        <ele>1229.4</ele>
        <time>2022-08-01T11:56:00Z</time>
      </trkpt>
      <trkpt lat="44.76169" lon="3.20193">
        <ele>1229.1</ele>
        <time>2022-08-01T11:56:06Z</time>
      </trkpt>
      <trkpt lat="44.76156" lon="3.20203">
        <ele>1228.9</ele>
        <time>2022-08-01T11:56:17Z</time>
      </trkpt>
      <trkpt lat="44.76152" lon="3.20206">
        <ele>1228.8</ele>
        <time>2022-08-01T11:56:20Z</time>
      </trkpt>
      <trkpt lat="44.76143" lon="3.20214">
        <ele>1228.7</ele>
        <time>2022-08-01T11:56:28Z</time>
      </trkpt>
      <trkpt lat="44.76135" lon="3.2022">
        <ele>1228.6</ele>
        <time>2022-08-01T11:56:35Z</time>
      </trkpt>
      <trkpt lat="44.76125" lon="3.20226">
        <ele>1228.3</ele>
        <time>2022-08-01T11:56:43Z</time>
      </trkpt>
      <trkpt lat="44.76114" lon="3.20233">
        <ele>1228</ele>
        <time>2022-08-01T11:56:53Z</time>
      </trkpt>
      <trkpt lat="44.76101" lon="3.20241">
        <ele>1228</ele>
        <time>2022-08-01T11:57:04Z</time>
      </trkpt>
      <trkpt lat="44.76092" lon="3.20248">
        <ele>1228.1</ele>
        <time>2022-08-01T11:57:12Z</time>
      </trkpt>
      <trkpt lat="44.76077" lon="3.20259">
        <ele>1228.1</ele>
        <time>2022-08-01T11:57:24Z</time>
      </trkpt>
      <trkpt lat="44.76076" lon="3.2026">
        <ele>1228.1</ele>
        <time>2022-08-01T11:57:25Z</time>
      </trkpt>
      <trkpt lat="44.76072" lon="3.20263">
        <ele>1228</ele>
        <time>2022-08-01T11:57:28Z</time>
      </trkpt>
      <trkpt lat="44.76067" lon="3.20267">
        <ele>1228</ele>
        <time>2022-08-01T11:57:32Z</time>
      </trkpt>
      <trkpt lat="44.76055" lon="3.20276">
        <ele>1227.9</ele>
        <time>2022-08-01T11:57:42Z</time>
      </trkpt>
      <trkpt lat="44.76039" lon="3.20287">
        <ele>1228.3</ele>
        <time>2022-08-01T11:57:54Z</time>
      </trkpt>
      <trkpt lat="44.76028" lon="3.20292">
        <ele>1228.5</ele>
        <time>2022-08-01T11:58:03Z</time>
      </trkpt>
      <trkpt lat="44.76027" lon="3.20292">
        <ele>1228.5</ele>
        <time>2022-08-01T11:58:04Z</time>
      </trkpt>
      <trkpt lat="44.76015" lon="3.20298">
        <ele>1228.7</ele>
        <time>2022-08-01T11:58:13Z</time>
      </trkpt>
      <trkpt lat="44.76011" lon="3.20301">
        <ele>1228.8</ele>
        <time>2022-08-01T11:58:16Z</time>
      </trkpt>
      <trkpt lat="44.76006" lon="3.20307">
        <ele>1229</ele>
        <time>2022-08-01T11:58:22Z</time>
      </trkpt>
      <trkpt lat="44.75996" lon="3.20314">
        <ele>1228.9</ele>
        <time>2022-08-01T11:58:30Z</time>
      </trkpt>
      <trkpt lat="44.75994" lon="3.20317">
        <ele>1228.8</ele>
        <time>2022-08-01T11:58:33Z</time>
      </trkpt>
      <trkpt lat="44.7599" lon="3.20321">
        <ele>1228.6</ele>
        <time>2022-08-01T11:58:37Z</time>
      </trkpt>
      <trkpt lat="44.7599" lon="3.20321">
        <ele>1228.6</ele>
        <time>2022-08-01T11:58:40Z</time>
      </trkpt>
      <trkpt lat="44.7599" lon="3.20321">
        <ele>1228.6</ele>
        <time>2022-08-01T11:58:41Z</time>
      </trkpt>
      <trkpt lat="44.75988" lon="3.20321">
        <ele>1228.6</ele>
        <time>2022-08-01T11:58:50Z</time>
      </trkpt>
      <trkpt lat="44.75988" lon="3.20324">
        <ele>1228.6</ele>
        <time>2022-08-01T11:58:56Z</time>
      </trkpt>
      <trkpt lat="44.75987" lon="3.20324">
        <ele>1228.5</ele>
        <time>2022-08-01T11:58:57Z</time>
      </trkpt>
      <trkpt lat="44.7598" lon="3.20332">
        <ele>1228.3</ele>
        <time>2022-08-01T11:59:05Z</time>
      </trkpt>
      <trkpt lat="44.75977" lon="3.20335">
        <ele>1228.2</ele>
        <time>2022-08-01T11:59:08Z</time>
      </trkpt>
      <trkpt lat="44.75969" lon="3.20346">
        <ele>1227.9</ele>
        <time>2022-08-01T11:59:17Z</time>
      </trkpt>
      <trkpt lat="44.75959" lon="3.20357">
        <ele>1227.5</ele>
        <time>2022-08-01T11:59:26Z</time>
      </trkpt>
      <trkpt lat="44.75947" lon="3.20365">
        <ele>1227.1</ele>
        <time>2022-08-01T11:59:37Z</time>
      </trkpt>
      <trkpt lat="44.75933" lon="3.20377">
        <ele>1226.6</ele>
        <time>2022-08-01T11:59:49Z</time>
      </trkpt>
      <trkpt lat="44.75928" lon="3.20381">
        <ele>1226.4</ele>
        <time>2022-08-01T11:59:54Z</time>
      </trkpt>
      <trkpt lat="44.75924" lon="3.20384">
        <ele>1226.3</ele>
        <time>2022-08-01T11:59:57Z</time>
      </trkpt>
      <trkpt lat="44.75914" lon="3.20394">
        <ele>1225.8</ele>
        <time>2022-08-01T12:00:06Z</time>
      </trkpt>
      <trkpt lat="44.75905" lon="3.204">
        <ele>1225.3</ele>
        <time>2022-08-01T12:00:14Z</time>
      </trkpt>
      <trkpt lat="44.75894" lon="3.20407">
        <ele>1224.9</ele>
        <time>2022-08-01T12:00:23Z</time>
      </trkpt>
      <trkpt lat="44.75884" lon="3.2041">
        <ele>1224.4</ele>
        <time>2022-08-01T12:00:32Z</time>
      </trkpt>
      <trkpt lat="44.75881" lon="3.2041">
        <ele>1224.2</ele>
        <time>2022-08-01T12:00:34Z</time>
      </trkpt>
      <trkpt lat="44.75878" lon="3.2041">
        <ele>1224</ele>
        <time>2022-08-01T12:00:37Z</time>
      </trkpt>
      <trkpt lat="44.75876" lon="3.20411">
        <ele>1223.8</ele>
        <time>2022-08-01T12:00:41Z</time>
      </trkpt>
      <trkpt lat="44.75876" lon="3.2041">
        <ele>1223.9</ele>
        <time>2022-08-01T12:00:46Z</time>
      </trkpt>
      <trkpt lat="44.75878" lon="3.20411">
        <ele>1224</ele>
        <time>2022-08-01T12:00:49Z</time>
      </trkpt>
      <trkpt lat="44.75877" lon="3.20412">
        <ele>1224</ele>
        <time>2022-08-01T12:00:56Z</time>
      </trkpt>
      <trkpt lat="44.75877" lon="3.20412">
        <ele>1224</ele>
        <time>2022-08-01T12:00:57Z</time>
      </trkpt>
      <trkpt lat="44.75871" lon="3.20412">
        <ele>1223.6</ele>
        <time>2022-08-01T12:01:12Z</time>
      </trkpt>
      <trkpt lat="44.75858" lon="3.20414">
        <ele>1222.7</ele>
        <time>2022-08-01T12:01:21Z</time>
      </trkpt>
      <trkpt lat="44.75851" lon="3.20415">
        <ele>1222.2</ele>
        <time>2022-08-01T12:01:27Z</time>
      </trkpt>
      <trkpt lat="44.7584" lon="3.20417">
        <ele>1221.5</ele>
        <time>2022-08-01T12:01:35Z</time>
      </trkpt>
      <trkpt lat="44.75833" lon="3.20419">
        <ele>1221.2</ele>
        <time>2022-08-01T12:01:40Z</time>
      </trkpt>
      <trkpt lat="44.75825" lon="3.2042">
        <ele>1220.8</ele>
        <time>2022-08-01T12:01:46Z</time>
      </trkpt>
      <trkpt lat="44.75816" lon="3.20424">
        <ele>1220.6</ele>
        <time>2022-08-01T12:01:53Z</time>
      </trkpt>
      <trkpt lat="44.75815" lon="3.20424">
        <ele>1220.5</ele>
        <time>2022-08-01T12:01:54Z</time>
      </trkpt>
      <trkpt lat="44.75809" lon="3.20425">
        <ele>1220.2</ele>
        <time>2022-08-01T12:01:59Z</time>
      </trkpt>
      <trkpt lat="44.75808" lon="3.20426">
        <ele>1220.1</ele>
        <time>2022-08-01T12:02:00Z</time>
      </trkpt>
      <trkpt lat="44.75798" lon="3.2043">
        <ele>1219.9</ele>
        <time>2022-08-01T12:02:08Z</time>
      </trkpt>
      <trkpt lat="44.75784" lon="3.20435">
        <ele>1219.5</ele>
        <time>2022-08-01T12:02:19Z</time>
      </trkpt>
      <trkpt lat="44.75774" lon="3.2044">
        <ele>1219.4</ele>
        <time>2022-08-01T12:02:27Z</time>
      </trkpt>
      <trkpt lat="44.75768" lon="3.20442">
        <ele>1219.3</ele>
        <time>2022-08-01T12:02:32Z</time>
      </trkpt>
      <trkpt lat="44.7576" lon="3.20444">
        <ele>1219.4</ele>
        <time>2022-08-01T12:02:38Z</time>
      </trkpt>
      <trkpt lat="44.75746" lon="3.20449">
        <ele>1219.3</ele>
        <time>2022-08-01T12:02:49Z</time>
      </trkpt>
      <trkpt lat="44.75732" lon="3.20453">
        <ele>1219.2</ele>
        <time>2022-08-01T12:02:59Z</time>
      </trkpt>
      <trkpt lat="44.75717" lon="3.20457">
        <ele>1219.1</ele>
        <time>2022-08-01T12:03:11Z</time>
      </trkpt>
      <trkpt lat="44.75714" lon="3.20457">
        <ele>1219.1</ele>
        <time>2022-08-01T12:03:13Z</time>
      </trkpt>
      <trkpt lat="44.75706" lon="3.20459">
        <ele>1219</ele>
        <time>2022-08-01T12:03:19Z</time>
      </trkpt>
      <trkpt lat="44.75692" lon="3.20462">
        <ele>1218.7</ele>
        <time>2022-08-01T12:03:29Z</time>
      </trkpt>
      <trkpt lat="44.75677" lon="3.20467">
        <ele>1218.3</ele>
        <time>2022-08-01T12:03:40Z</time>
      </trkpt>
      <trkpt lat="44.75666" lon="3.2047">
        <ele>1217.8</ele>
        <time>2022-08-01T12:03:48Z</time>
      </trkpt>
      <trkpt lat="44.75658" lon="3.20472">
        <ele>1217.3</ele>
        <time>2022-08-01T12:03:55Z</time>
      </trkpt>
      <trkpt lat="44.75644" lon="3.20476">
        <ele>1216.6</ele>
        <time>2022-08-01T12:04:05Z</time>
      </trkpt>
      <trkpt lat="44.75628" lon="3.20481">
        <ele>1215.9</ele>
        <time>2022-08-01T12:04:17Z</time>
      </trkpt>
      <trkpt lat="44.75616" lon="3.20486">
        <ele>1215.4</ele>
        <time>2022-08-01T12:04:26Z</time>
      </trkpt>
      <trkpt lat="44.7561" lon="3.20489">
        <ele>1215</ele>
        <time>2022-08-01T12:04:31Z</time>
      </trkpt>
      <trkpt lat="44.75606" lon="3.20489">
        <ele>1214.5</ele>
        <time>2022-08-01T12:04:34Z</time>
      </trkpt>
      <trkpt lat="44.75593" lon="3.20495">
        <ele>1213.1</ele>
        <time>2022-08-01T12:04:44Z</time>
      </trkpt>
      <trkpt lat="44.75591" lon="3.20495">
        <ele>1212.9</ele>
        <time>2022-08-01T12:04:45Z</time>
      </trkpt>
      <trkpt lat="44.75582" lon="3.20501">
        <ele>1211.9</ele>
        <time>2022-08-01T12:04:52Z</time>
      </trkpt>
      <trkpt lat="44.75581" lon="3.20502">
        <ele>1211.9</ele>
        <time>2022-08-01T12:04:53Z</time>
      </trkpt>
      <trkpt lat="44.75571" lon="3.20508">
        <ele>1211.1</ele>
        <time>2022-08-01T12:05:01Z</time>
      </trkpt>
      <trkpt lat="44.7557" lon="3.20509">
        <ele>1211</ele>
        <time>2022-08-01T12:05:02Z</time>
      </trkpt>
      <trkpt lat="44.75566" lon="3.2051">
        <ele>1210.6</ele>
        <time>2022-08-01T12:05:06Z</time>
      </trkpt>
      <trkpt lat="44.75558" lon="3.20515">
        <ele>1209.8</ele>
        <time>2022-08-01T12:05:12Z</time>
      </trkpt>
      <trkpt lat="44.75556" lon="3.20517">
        <ele>1209.7</ele>
        <time>2022-08-01T12:05:13Z</time>
      </trkpt>
      <trkpt lat="44.75547" lon="3.20521">
        <ele>1208.9</ele>
        <time>2022-08-01T12:05:21Z</time>
      </trkpt>
      <trkpt lat="44.75543" lon="3.20523">
        <ele>1208.5</ele>
        <time>2022-08-01T12:05:24Z</time>
      </trkpt>
      <trkpt lat="44.75537" lon="3.20526">
        <ele>1207.9</ele>
        <time>2022-08-01T12:05:29Z</time>
      </trkpt>
      <trkpt lat="44.75533" lon="3.20528">
        <ele>1207.5</ele>
        <time>2022-08-01T12:05:32Z</time>
      </trkpt>
      <trkpt lat="44.7553" lon="3.20529">
        <ele>1207.3</ele>
        <time>2022-08-01T12:05:34Z</time>
      </trkpt>
      <trkpt lat="44.75524" lon="3.20532">
        <ele>1206.9</ele>
        <time>2022-08-01T12:05:39Z</time>
      </trkpt>
      <trkpt lat="44.7552" lon="3.20533">
        <ele>1206.6</ele>
        <time>2022-08-01T12:05:42Z</time>
      </trkpt>
      <trkpt lat="44.75509" lon="3.20536">
        <ele>1206</ele>
        <time>2022-08-01T12:05:50Z</time>
      </trkpt>
      <trkpt lat="44.75508" lon="3.20537">
        <ele>1205.9</ele>
        <time>2022-08-01T12:05:51Z</time>
      </trkpt>
      <trkpt lat="44.75493" lon="3.20541">
        <ele>1205</ele>
        <time>2022-08-01T12:06:02Z</time>
      </trkpt>
      <trkpt lat="44.75491" lon="3.20542">
        <ele>1204.9</ele>
        <time>2022-08-01T12:06:04Z</time>
      </trkpt>
      <trkpt lat="44.75479" lon="3.20548">
        <ele>1204.2</ele>
        <time>2022-08-01T12:06:13Z</time>
      </trkpt>
      <trkpt lat="44.75469" lon="3.20556">
        <ele>1203.7</ele>
        <time>2022-08-01T12:06:22Z</time>
      </trkpt>
      <trkpt lat="44.75459" lon="3.20564">
        <ele>1203.2</ele>
        <time>2022-08-01T12:06:30Z</time>
      </trkpt>
      <trkpt lat="44.75448" lon="3.20571">
        <ele>1202.8</ele>
        <time>2022-08-01T12:06:39Z</time>
      </trkpt>
      <trkpt lat="44.75446" lon="3.20573">
        <ele>1202.7</ele>
        <time>2022-08-01T12:06:41Z</time>
      </trkpt>
      <trkpt lat="44.75436" lon="3.20578">
        <ele>1202.5</ele>
        <time>2022-08-01T12:06:49Z</time>
      </trkpt>
      <trkpt lat="44.75426" lon="3.20582">
        <ele>1202.3</ele>
        <time>2022-08-01T12:06:57Z</time>
      </trkpt>
      <trkpt lat="44.7541" lon="3.20586">
        <ele>1201.2</ele>
        <time>2022-08-01T12:07:09Z</time>
      </trkpt>
      <trkpt lat="44.75402" lon="3.20586">
        <ele>1200.4</ele>
        <time>2022-08-01T12:07:15Z</time>
      </trkpt>
      <trkpt lat="44.75401" lon="3.20586">
        <ele>1200.2</ele>
        <time>2022-08-01T12:07:16Z</time>
      </trkpt>
      <trkpt lat="44.75388" lon="3.20585">
        <ele>1199</ele>
        <time>2022-08-01T12:07:26Z</time>
      </trkpt>
      <trkpt lat="44.7538" lon="3.20584">
        <ele>1198.7</ele>
        <time>2022-08-01T12:07:31Z</time>
      </trkpt>
      <trkpt lat="44.75373" lon="3.20583">
        <ele>1198.4</ele>
        <time>2022-08-01T12:07:36Z</time>
      </trkpt>
      <trkpt lat="44.7536" lon="3.20579">
        <ele>1197.7</ele>
        <time>2022-08-01T12:07:46Z</time>
      </trkpt>
      <trkpt lat="44.75357" lon="3.20578">
        <ele>1197.5</ele>
        <time>2022-08-01T12:07:48Z</time>
      </trkpt>
      <trkpt lat="44.75345" lon="3.20577">
        <ele>1196.7</ele>
        <time>2022-08-01T12:07:57Z</time>
      </trkpt>
      <trkpt lat="44.75332" lon="3.20577">
        <ele>1195.9</ele>
        <time>2022-08-01T12:08:06Z</time>
      </trkpt>
      <trkpt lat="44.75322" lon="3.20579">
        <ele>1195.2</ele>
        <time>2022-08-01T12:08:14Z</time>
      </trkpt>
      <trkpt lat="44.75315" lon="3.2058">
        <ele>1194.7</ele>
        <time>2022-08-01T12:08:19Z</time>
      </trkpt>
      <trkpt lat="44.75308" lon="3.2058">
        <ele>1194.1</ele>
        <time>2022-08-01T12:08:24Z</time>
      </trkpt>
      <trkpt lat="44.75295" lon="3.20581">
        <ele>1193.3</ele>
        <time>2022-08-01T12:08:32Z</time>
      </trkpt>
      <trkpt lat="44.75294" lon="3.20581">
        <ele>1193.2</ele>
        <time>2022-08-01T12:08:33Z</time>
      </trkpt>
      <trkpt lat="44.75289" lon="3.2058">
        <ele>1192.8</ele>
        <time>2022-08-01T12:08:37Z</time>
      </trkpt>
      <trkpt lat="44.75285" lon="3.20581">
        <ele>1192.5</ele>
        <time>2022-08-01T12:08:40Z</time>
      </trkpt>
      <trkpt lat="44.75273" lon="3.2058">
        <ele>1191.7</ele>
        <time>2022-08-01T12:08:49Z</time>
      </trkpt>
      <trkpt lat="44.75264" lon="3.20579">
        <ele>1191.1</ele>
        <time>2022-08-01T12:08:56Z</time>
      </trkpt>
      <trkpt lat="44.75264" lon="3.20579">
        <ele>1191.1</ele>
        <time>2022-08-01T12:08:58Z</time>
      </trkpt>
      <trkpt lat="44.75265" lon="3.20579">
        <ele>1191.1</ele>
        <time>2022-08-01T12:09:00Z</time>
      </trkpt>
      <trkpt lat="44.75261" lon="3.20579">
        <ele>1190.9</ele>
        <time>2022-08-01T12:09:06Z</time>
      </trkpt>
      <trkpt lat="44.75251" lon="3.2058">
        <ele>1190.2</ele>
        <time>2022-08-01T12:09:13Z</time>
      </trkpt>
      <trkpt lat="44.75245" lon="3.20579">
        <ele>1189.6</ele>
        <time>2022-08-01T12:09:18Z</time>
      </trkpt>
      <trkpt lat="44.75241" lon="3.2058">
        <ele>1189.2</ele>
        <time>2022-08-01T12:09:21Z</time>
      </trkpt>
      <trkpt lat="44.75235" lon="3.2058">
        <ele>1188.5</ele>
        <time>2022-08-01T12:09:26Z</time>
      </trkpt>
      <trkpt lat="44.75228" lon="3.2058">
        <ele>1187.8</ele>
        <time>2022-08-01T12:09:31Z</time>
      </trkpt>
      <trkpt lat="44.75219" lon="3.20582">
        <ele>1186.8</ele>
        <time>2022-08-01T12:09:38Z</time>
      </trkpt>
      <trkpt lat="44.75218" lon="3.20582">
        <ele>1186.7</ele>
        <time>2022-08-01T12:09:39Z</time>
      </trkpt>
      <trkpt lat="44.75209" lon="3.20583">
        <ele>1186</ele>
        <time>2022-08-01T12:09:46Z</time>
      </trkpt>
      <trkpt lat="44.75208" lon="3.20583">
        <ele>1185.9</ele>
        <time>2022-08-01T12:09:47Z</time>
      </trkpt>
      <trkpt lat="44.75205" lon="3.20583">
        <ele>1185.7</ele>
        <time>2022-08-01T12:09:51Z</time>
      </trkpt>
      <trkpt lat="44.75203" lon="3.20583">
        <ele>1185.6</ele>
        <time>2022-08-01T12:09:53Z</time>
      </trkpt>
      <trkpt lat="44.75201" lon="3.20585">
        <ele>1185.4</ele>
        <time>2022-08-01T12:09:55Z</time>
      </trkpt>
      <trkpt lat="44.75195" lon="3.20587">
        <ele>1185.1</ele>
        <time>2022-08-01T12:09:59Z</time>
      </trkpt>
      <trkpt lat="44.75183" lon="3.20589">
        <ele>1184.2</ele>
        <time>2022-08-01T12:10:08Z</time>
      </trkpt>
      <trkpt lat="44.75169" lon="3.20593">
        <ele>1183.2</ele>
        <time>2022-08-01T12:10:19Z</time>
      </trkpt>
      <trkpt lat="44.75163" lon="3.20597">
        <ele>1182.8</ele>
        <time>2022-08-01T12:10:24Z</time>
      </trkpt>
      <trkpt lat="44.75161" lon="3.20599">
        <ele>1182.6</ele>
        <time>2022-08-01T12:10:26Z</time>
      </trkpt>
      <trkpt lat="44.75153" lon="3.2061">
        <ele>1182</ele>
        <time>2022-08-01T12:10:35Z</time>
      </trkpt>
      <trkpt lat="44.75151" lon="3.20629">
        <ele>1181.9</ele>
        <time>2022-08-01T12:10:44Z</time>
      </trkpt>
      <trkpt lat="44.75153" lon="3.20654">
        <ele>1181.8</ele>
        <time>2022-08-01T12:10:57Z</time>
      </trkpt>
      <trkpt lat="44.75156" lon="3.20665">
        <ele>1181.8</ele>
        <time>2022-08-01T12:11:03Z</time>
      </trkpt>
      <trkpt lat="44.75157" lon="3.20669">
        <ele>1181.9</ele>
        <time>2022-08-01T12:11:05Z</time>
      </trkpt>
      <trkpt lat="44.75158" lon="3.20692">
        <ele>1182.1</ele>
        <time>2022-08-01T12:11:17Z</time>
      </trkpt>
      <trkpt lat="44.75161" lon="3.20712">
        <ele>1181.9</ele>
        <time>2022-08-01T12:11:27Z</time>
      </trkpt>
      <trkpt lat="44.7516" lon="3.20724">
        <ele>1181.5</ele>
        <time>2022-08-01T12:11:34Z</time>
      </trkpt>
      <trkpt lat="44.75159" lon="3.20728">
        <ele>1181.5</ele>
        <time>2022-08-01T12:11:38Z</time>
      </trkpt>
      <trkpt lat="44.7516" lon="3.20728">
        <ele>1181.5</ele>
        <time>2022-08-01T12:11:40Z</time>
      </trkpt>
      <trkpt lat="44.75158" lon="3.20737">
        <ele>1181.6</ele>
        <time>2022-08-01T12:11:48Z</time>
      </trkpt>
      <trkpt lat="44.75161" lon="3.20751">
        <ele>1181.8</ele>
        <time>2022-08-01T12:11:57Z</time>
      </trkpt>
      <trkpt lat="44.75161" lon="3.20752">
        <ele>1181.8</ele>
        <time>2022-08-01T12:11:58Z</time>
      </trkpt>
      <trkpt lat="44.75166" lon="3.20769">
        <ele>1182</ele>
        <time>2022-08-01T12:12:08Z</time>
      </trkpt>
      <trkpt lat="44.75167" lon="3.20773">
        <ele>1182</ele>
        <time>2022-08-01T12:12:11Z</time>
      </trkpt>
      <trkpt lat="44.75167" lon="3.20773">
        <ele>1182</ele>
        <time>2022-08-01T12:12:12Z</time>
      </trkpt>
      <trkpt lat="44.75166" lon="3.20773">
        <ele>1182</ele>
        <time>2022-08-01T12:12:13Z</time>
      </trkpt>
      <trkpt lat="44.75166" lon="3.20773">
        <ele>1182</ele>
        <time>2022-08-01T12:12:14Z</time>
      </trkpt>
      <trkpt lat="44.7517" lon="3.20776">
        <ele>1182.2</ele>
        <time>2022-08-01T12:12:19Z</time>
      </trkpt>
      <trkpt lat="44.75179" lon="3.2079">
        <ele>1182.7</ele>
        <time>2022-08-01T12:12:28Z</time>
      </trkpt>
      <trkpt lat="44.75181" lon="3.20794">
        <ele>1182.7</ele>
        <time>2022-08-01T12:12:31Z</time>
      </trkpt>
      <trkpt lat="44.75184" lon="3.20803">
        <ele>1182.7</ele>
        <time>2022-08-01T12:12:36Z</time>
      </trkpt>
      <trkpt lat="44.75189" lon="3.20817">
        <ele>1182.8</ele>
        <time>2022-08-01T12:12:44Z</time>
      </trkpt>
      <trkpt lat="44.75192" lon="3.2083">
        <ele>1182.9</ele>
        <time>2022-08-01T12:12:52Z</time>
      </trkpt>
      <trkpt lat="44.75197" lon="3.20843">
        <ele>1183.1</ele>
        <time>2022-08-01T12:13:00Z</time>
      </trkpt>
      <trkpt lat="44.75198" lon="3.20845">
        <ele>1183.1</ele>
        <time>2022-08-01T12:13:01Z</time>
      </trkpt>
      <trkpt lat="44.75204" lon="3.20863">
        <ele>1182.9</ele>
        <time>2022-08-01T12:13:12Z</time>
      </trkpt>
      <trkpt lat="44.75206" lon="3.20873">
        <ele>1182.4</ele>
        <time>2022-08-01T12:13:18Z</time>
      </trkpt>
      <trkpt lat="44.7521" lon="3.20882">
        <ele>1181.8</ele>
        <time>2022-08-01T12:13:24Z</time>
      </trkpt>
      <trkpt lat="44.75214" lon="3.2089">
        <ele>1181.2</ele>
        <time>2022-08-01T12:13:30Z</time>
      </trkpt>
      <trkpt lat="44.75217" lon="3.20894">
        <ele>1180.9</ele>
        <time>2022-08-01T12:13:33Z</time>
      </trkpt>
      <trkpt lat="44.75219" lon="3.20898">
        <ele>1180.5</ele>
        <time>2022-08-01T12:13:36Z</time>
      </trkpt>
      <trkpt lat="44.75222" lon="3.209">
        <ele>1180.2</ele>
        <time>2022-08-01T12:13:39Z</time>
      </trkpt>
      <trkpt lat="44.75226" lon="3.20903">
        <ele>1179.6</ele>
        <time>2022-08-01T12:13:43Z</time>
      </trkpt>
      <trkpt lat="44.75226" lon="3.20904">
        <ele>1179.6</ele>
        <time>2022-08-01T12:13:44Z</time>
      </trkpt>
      <trkpt lat="44.75226" lon="3.20904">
        <ele>1179.6</ele>
        <time>2022-08-01T12:13:45Z</time>
      </trkpt>
      <trkpt lat="44.75229" lon="3.20904">
        <ele>1179.2</ele>
        <time>2022-08-01T12:13:49Z</time>
      </trkpt>
      <trkpt lat="44.7523" lon="3.20905">
        <ele>1179.1</ele>
        <time>2022-08-01T12:13:50Z</time>
      </trkpt>
      <trkpt lat="44.75237" lon="3.20908">
        <ele>1178</ele>
        <time>2022-08-01T12:13:55Z</time>
      </trkpt>
      <trkpt lat="44.75243" lon="3.2091">
        <ele>1177.1</ele>
        <time>2022-08-01T12:14:00Z</time>
      </trkpt>
      <trkpt lat="44.75244" lon="3.20911">
        <ele>1176.7</ele>
        <time>2022-08-01T12:14:01Z</time>
      </trkpt>
      <trkpt lat="44.75252" lon="3.20915">
        <ele>1175.3</ele>
        <time>2022-08-01T12:14:07Z</time>
      </trkpt>
      <trkpt lat="44.75253" lon="3.20915">
        <ele>1175.1</ele>
        <time>2022-08-01T12:14:08Z</time>
      </trkpt>
      <trkpt lat="44.75261" lon="3.20917">
        <ele>1174.2</ele>
        <time>2022-08-01T12:14:15Z</time>
      </trkpt>
      <trkpt lat="44.75269" lon="3.2092">
        <ele>1173.4</ele>
        <time>2022-08-01T12:14:22Z</time>
      </trkpt>
      <trkpt lat="44.7527" lon="3.2092">
        <ele>1173.3</ele>
        <time>2022-08-01T12:14:23Z</time>
      </trkpt>
      <trkpt lat="44.75277" lon="3.20921">
        <ele>1172.7</ele>
        <time>2022-08-01T12:14:28Z</time>
      </trkpt>
      <trkpt lat="44.75286" lon="3.20924">
        <ele>1172.4</ele>
        <time>2022-08-01T12:14:35Z</time>
      </trkpt>
      <trkpt lat="44.75289" lon="3.20924">
        <ele>1172.4</ele>
        <time>2022-08-01T12:14:37Z</time>
      </trkpt>
      <trkpt lat="44.75298" lon="3.20929">
        <ele>1171.8</ele>
        <time>2022-08-01T12:14:44Z</time>
      </trkpt>
      <trkpt lat="44.75306" lon="3.20933">
        <ele>1171.3</ele>
        <time>2022-08-01T12:14:51Z</time>
      </trkpt>
      <trkpt lat="44.75307" lon="3.20933">
        <ele>1171.2</ele>
        <time>2022-08-01T12:14:52Z</time>
      </trkpt>
      <trkpt lat="44.75312" lon="3.20935">
        <ele>1171.1</ele>
        <time>2022-08-01T12:14:55Z</time>
      </trkpt>
      <trkpt lat="44.75312" lon="3.20936">
        <ele>1171.1</ele>
        <time>2022-08-01T12:14:56Z</time>
      </trkpt>
      <trkpt lat="44.75314" lon="3.20938">
        <ele>1170.9</ele>
        <time>2022-08-01T12:14:58Z</time>
      </trkpt>
      <trkpt lat="44.75328" lon="3.20942">
        <ele>1170.5</ele>
        <time>2022-08-01T12:15:07Z</time>
      </trkpt>
      <trkpt lat="44.75331" lon="3.20944">
        <ele>1170.2</ele>
        <time>2022-08-01T12:15:09Z</time>
      </trkpt>
      <trkpt lat="44.75339" lon="3.20951">
        <ele>1170.6</ele>
        <time>2022-08-01T12:15:16Z</time>
      </trkpt>
      <trkpt lat="44.75346" lon="3.20959">
        <ele>1171.1</ele>
        <time>2022-08-01T12:15:22Z</time>
      </trkpt>
      <trkpt lat="44.75349" lon="3.20961">
        <ele>1171.4</ele>
        <time>2022-08-01T12:15:24Z</time>
      </trkpt>
      <trkpt lat="44.75352" lon="3.20967">
        <ele>1170.9</ele>
        <time>2022-08-01T12:15:28Z</time>
      </trkpt>
      <trkpt lat="44.75353" lon="3.20969">
        <ele>1170.8</ele>
        <time>2022-08-01T12:15:29Z</time>
      </trkpt>
      <trkpt lat="44.75361" lon="3.20982">
        <ele>1170.1</ele>
        <time>2022-08-01T12:15:38Z</time>
      </trkpt>
      <trkpt lat="44.75362" lon="3.20984">
        <ele>1170.1</ele>
        <time>2022-08-01T12:15:39Z</time>
      </trkpt>
      <trkpt lat="44.75364" lon="3.20987">
        <ele>1170.3</ele>
        <time>2022-08-01T12:15:41Z</time>
      </trkpt>
      <trkpt lat="44.75366" lon="3.20992">
        <ele>1170.3</ele>
        <time>2022-08-01T12:15:44Z</time>
      </trkpt>
      <trkpt lat="44.7537" lon="3.21001">
        <ele>1170</ele>
        <time>2022-08-01T12:15:50Z</time>
      </trkpt>
      <trkpt lat="44.75372" lon="3.21006">
        <ele>1170</ele>
        <time>2022-08-01T12:15:53Z</time>
      </trkpt>
      <trkpt lat="44.75376" lon="3.21017">
        <ele>1169</ele>
        <time>2022-08-01T12:16:00Z</time>
      </trkpt>
      <trkpt lat="44.75379" lon="3.21023">
        <ele>1168.7</ele>
        <time>2022-08-01T12:16:04Z</time>
      </trkpt>
      <trkpt lat="44.7538" lon="3.21027">
        <ele>1168.2</ele>
        <time>2022-08-01T12:16:06Z</time>
      </trkpt>
      <trkpt lat="44.75386" lon="3.2104">
        <ele>1166.9</ele>
        <time>2022-08-01T12:16:14Z</time>
      </trkpt>
      <trkpt lat="44.75387" lon="3.21043">
        <ele>1166.5</ele>
        <time>2022-08-01T12:16:16Z</time>
      </trkpt>
      <trkpt lat="44.7539" lon="3.21049">
        <ele>1165.7</ele>
        <time>2022-08-01T12:16:20Z</time>
      </trkpt>
      <trkpt lat="44.75393" lon="3.21055">
        <ele>1165.1</ele>
        <time>2022-08-01T12:16:25Z</time>
      </trkpt>
      <trkpt lat="44.75394" lon="3.21057">
        <ele>1165</ele>
        <time>2022-08-01T12:16:26Z</time>
      </trkpt>
      <trkpt lat="44.75397" lon="3.21066">
        <ele>1164.2</ele>
        <time>2022-08-01T12:16:32Z</time>
      </trkpt>
      <trkpt lat="44.75398" lon="3.21073">
        <ele>1163.4</ele>
        <time>2022-08-01T12:16:37Z</time>
      </trkpt>
      <trkpt lat="44.75398" lon="3.21075">
        <ele>1163</ele>
        <time>2022-08-01T12:16:40Z</time>
      </trkpt>
      <trkpt lat="44.75399" lon="3.21076">
        <ele>1162.9</ele>
        <time>2022-08-01T12:16:41Z</time>
      </trkpt>
      <trkpt lat="44.75399" lon="3.21078">
        <ele>1162.8</ele>
        <time>2022-08-01T12:16:42Z</time>
      </trkpt>
      <trkpt lat="44.75402" lon="3.21086">
        <ele>1161.7</ele>
        <time>2022-08-01T12:16:48Z</time>
      </trkpt>
      <trkpt lat="44.75403" lon="3.2109">
        <ele>1161.3</ele>
        <time>2022-08-01T12:16:50Z</time>
      </trkpt>
      <trkpt lat="44.75405" lon="3.21092">
        <ele>1161.2</ele>
        <time>2022-08-01T12:16:54Z</time>
      </trkpt>
      <trkpt lat="44.75405" lon="3.21092">
        <ele>1161.1</ele>
        <time>2022-08-01T12:16:55Z</time>
      </trkpt>
      <trkpt lat="44.75405" lon="3.21093">
        <ele>1160.9</ele>
        <time>2022-08-01T12:16:56Z</time>
      </trkpt>
      <trkpt lat="44.75406" lon="3.21098">
        <ele>1160.1</ele>
        <time>2022-08-01T12:17:02Z</time>
      </trkpt>
      <trkpt lat="44.75412" lon="3.21105">
        <ele>1159.7</ele>
        <time>2022-08-01T12:17:08Z</time>
      </trkpt>
      <trkpt lat="44.75419" lon="3.21117">
        <ele>1159.1</ele>
        <time>2022-08-01T12:17:18Z</time>
      </trkpt>
      <trkpt lat="44.75419" lon="3.21118">
        <ele>1158.9</ele>
        <time>2022-08-01T12:17:19Z</time>
      </trkpt>
      <trkpt lat="44.75418" lon="3.21123">
        <ele>1158.1</ele>
        <time>2022-08-01T12:17:22Z</time>
      </trkpt>
      <trkpt lat="44.75417" lon="3.21123">
        <ele>1157.7</ele>
        <time>2022-08-01T12:17:23Z</time>
      </trkpt>
      <trkpt lat="44.75415" lon="3.21123">
        <ele>1157.6</ele>
        <time>2022-08-01T12:17:24Z</time>
      </trkpt>
      <trkpt lat="44.75406" lon="3.21117">
        <ele>1156.9</ele>
        <time>2022-08-01T12:17:32Z</time>
      </trkpt>
      <trkpt lat="44.75404" lon="3.21116">
        <ele>1156.8</ele>
        <time>2022-08-01T12:17:33Z</time>
      </trkpt>
      <trkpt lat="44.75394" lon="3.21109">
        <ele>1156.2</ele>
        <time>2022-08-01T12:17:41Z</time>
      </trkpt>
      <trkpt lat="44.7539" lon="3.21104">
        <ele>1156.3</ele>
        <time>2022-08-01T12:17:45Z</time>
      </trkpt>
      <trkpt lat="44.75381" lon="3.21098">
        <ele>1156.9</ele>
        <time>2022-08-01T12:17:53Z</time>
      </trkpt>
      <trkpt lat="44.7538" lon="3.21098">
        <ele>1156.9</ele>
        <time>2022-08-01T12:17:55Z</time>
      </trkpt>
      <trkpt lat="44.7538" lon="3.21098">
        <ele>1156.9</ele>
        <time>2022-08-01T12:17:56Z</time>
      </trkpt>
      <trkpt lat="44.7538" lon="3.21098">
        <ele>1156.9</ele>
        <time>2022-08-01T12:17:57Z</time>
      </trkpt>
      <trkpt lat="44.75381" lon="3.211">
        <ele>1156.7</ele>
        <time>2022-08-01T12:18:03Z</time>
      </trkpt>
      <trkpt lat="44.75382" lon="3.21101">
        <ele>1156.6</ele>
        <time>2022-08-01T12:18:14Z</time>
      </trkpt>
      <trkpt lat="44.75383" lon="3.211">
        <ele>1156.8</ele>
        <time>2022-08-01T12:18:19Z</time>
      </trkpt>
      <trkpt lat="44.75383" lon="3.211">
        <ele>1156.8</ele>
        <time>2022-08-01T12:18:20Z</time>
      </trkpt>
      <trkpt lat="44.75383" lon="3.21099">
        <ele>1156.9</ele>
        <time>2022-08-01T12:18:27Z</time>
      </trkpt>
      <trkpt lat="44.75384" lon="3.211">
        <ele>1156.8</ele>
        <time>2022-08-01T12:18:35Z</time>
      </trkpt>
      <trkpt lat="44.75383" lon="3.21101">
        <ele>1156.6</ele>
        <time>2022-08-01T12:18:59Z</time>
      </trkpt>
      <trkpt lat="44.75381" lon="3.21101">
        <ele>1156.5</ele>
        <time>2022-08-01T12:19:22Z</time>
      </trkpt>
      <trkpt lat="44.75381" lon="3.21102">
        <ele>1156.4</ele>
        <time>2022-08-01T12:19:36Z</time>
      </trkpt>
      <trkpt lat="44.75381" lon="3.21104">
        <ele>1156</ele>
        <time>2022-08-01T12:19:59Z</time>
      </trkpt>
      <trkpt lat="44.75381" lon="3.21104">
        <ele>1156.1</ele>
        <time>2022-08-01T12:20:31Z</time>
      </trkpt>
      <trkpt lat="44.75381" lon="3.21103">
        <ele>1156.1</ele>
        <time>2022-08-01T12:20:32Z</time>
      </trkpt>
      <trkpt lat="44.75382" lon="3.21107">
        <ele>1155.6</ele>
        <time>2022-08-01T12:22:24Z</time>
      </trkpt>
      <trkpt lat="44.75382" lon="3.21107">
        <ele>1155.6</ele>
        <time>2022-08-01T12:22:27Z</time>
      </trkpt>
      <trkpt lat="44.75384" lon="3.21103">
        <ele>1156.3</ele>
        <time>2022-08-01T12:22:56Z</time>
      </trkpt>
      <trkpt lat="44.75384" lon="3.21102">
        <ele>1156.4</ele>
        <time>2022-08-01T12:23:13Z</time>
      </trkpt>
      <trkpt lat="44.75382" lon="3.21104">
        <ele>1156.1</ele>
        <time>2022-08-01T12:23:45Z</time>
      </trkpt>
      <trkpt lat="44.75381" lon="3.21105">
        <ele>1155.9</ele>
        <time>2022-08-01T12:25:01Z</time>
      </trkpt>
      <trkpt lat="44.75382" lon="3.21106">
        <ele>1155.8</ele>
        <time>2022-08-01T12:25:22Z</time>
      </trkpt>
      <trkpt lat="44.75386" lon="3.21107">
        <ele>1155.7</ele>
        <time>2022-08-01T12:26:14Z</time>
      </trkpt>
      <trkpt lat="44.75386" lon="3.21107">
        <ele>1155.7</ele>
        <time>2022-08-01T12:26:15Z</time>
      </trkpt>
      <trkpt lat="44.75395" lon="3.21108">
        <ele>1156.5</ele>
        <time>2022-08-01T12:26:35Z</time>
      </trkpt>
      <trkpt lat="44.75407" lon="3.21115">
        <ele>1157.2</ele>
        <time>2022-08-01T12:26:44Z</time>
      </trkpt>
      <trkpt lat="44.7541" lon="3.21119">
        <ele>1157.2</ele>
        <time>2022-08-01T12:26:48Z</time>
      </trkpt>
      <trkpt lat="44.75413" lon="3.21122">
        <ele>1157.4</ele>
        <time>2022-08-01T12:26:51Z</time>
      </trkpt>
      <trkpt lat="44.75414" lon="3.21123">
        <ele>1157.3</ele>
        <time>2022-08-01T12:26:52Z</time>
      </trkpt>
      <trkpt lat="44.75416" lon="3.21127">
        <ele>1157.2</ele>
        <time>2022-08-01T12:26:55Z</time>
      </trkpt>
      <trkpt lat="44.75417" lon="3.2113">
        <ele>1157</ele>
        <time>2022-08-01T12:26:57Z</time>
      </trkpt>
      <trkpt lat="44.75417" lon="3.21134">
        <ele>1156.8</ele>
        <time>2022-08-01T12:26:59Z</time>
      </trkpt>
      <trkpt lat="44.75416" lon="3.21148">
        <ele>1155.6</ele>
        <time>2022-08-01T12:27:08Z</time>
      </trkpt>
      <trkpt lat="44.75416" lon="3.21152">
        <ele>1155.4</ele>
        <time>2022-08-01T12:27:11Z</time>
      </trkpt>
      <trkpt lat="44.75416" lon="3.21162">
        <ele>1155.1</ele>
        <time>2022-08-01T12:27:17Z</time>
      </trkpt>
      <trkpt lat="44.75416" lon="3.21169">
        <ele>1154.5</ele>
        <time>2022-08-01T12:27:21Z</time>
      </trkpt>
      <trkpt lat="44.75415" lon="3.21173">
        <ele>1153.8</ele>
        <time>2022-08-01T12:27:24Z</time>
      </trkpt>
      <trkpt lat="44.75415" lon="3.21174">
        <ele>1153.8</ele>
        <time>2022-08-01T12:27:25Z</time>
      </trkpt>
      <trkpt lat="44.75413" lon="3.21174">
        <ele>1153.4</ele>
        <time>2022-08-01T12:27:29Z</time>
      </trkpt>
      <trkpt lat="44.75413" lon="3.21174">
        <ele>1153.4</ele>
        <time>2022-08-01T12:27:30Z</time>
      </trkpt>
      <trkpt lat="44.75413" lon="3.21174">
        <ele>1153.5</ele>
        <time>2022-08-01T12:27:32Z</time>
      </trkpt>
      <trkpt lat="44.75411" lon="3.21172">
        <ele>1153.5</ele>
        <time>2022-08-01T12:27:36Z</time>
      </trkpt>
      <trkpt lat="44.75406" lon="3.21175">
        <ele>1152.4</ele>
        <time>2022-08-01T12:27:42Z</time>
      </trkpt>
      <trkpt lat="44.75397" lon="3.21174">
        <ele>1151.4</ele>
        <time>2022-08-01T12:27:49Z</time>
      </trkpt>
      <trkpt lat="44.75392" lon="3.21174">
        <ele>1150.9</ele>
        <time>2022-08-01T12:27:53Z</time>
      </trkpt>
      <trkpt lat="44.7538" lon="3.2117">
        <ele>1150.7</ele>
        <time>2022-08-01T12:28:03Z</time>
      </trkpt>
      <trkpt lat="44.75378" lon="3.2117">
        <ele>1150.7</ele>
        <time>2022-08-01T12:28:04Z</time>
      </trkpt>
      <trkpt lat="44.75371" lon="3.21167">
        <ele>1150.7</ele>
        <time>2022-08-01T12:28:10Z</time>
      </trkpt>
      <trkpt lat="44.7536" lon="3.21164">
        <ele>1150.2</ele>
        <time>2022-08-01T12:28:18Z</time>
      </trkpt>
      <trkpt lat="44.75346" lon="3.21163">
        <ele>1149.7</ele>
        <time>2022-08-01T12:28:29Z</time>
      </trkpt>
      <trkpt lat="44.75333" lon="3.21167">
        <ele>1149</ele>
        <time>2022-08-01T12:28:39Z</time>
      </trkpt>
      <trkpt lat="44.75322" lon="3.21171">
        <ele>1148.9</ele>
        <time>2022-08-01T12:28:47Z</time>
      </trkpt>
      <trkpt lat="44.7531" lon="3.21177">
        <ele>1148.8</ele>
        <time>2022-08-01T12:28:57Z</time>
      </trkpt>
      <trkpt lat="44.75306" lon="3.21181">
        <ele>1148.4</ele>
        <time>2022-08-01T12:29:01Z</time>
      </trkpt>
      <trkpt lat="44.75304" lon="3.21184">
        <ele>1148.1</ele>
        <time>2022-08-01T12:29:03Z</time>
      </trkpt>
      <trkpt lat="44.75297" lon="3.21189">
        <ele>1147.6</ele>
        <time>2022-08-01T12:29:09Z</time>
      </trkpt>
      <trkpt lat="44.75294" lon="3.21193">
        <ele>1147.1</ele>
        <time>2022-08-01T12:29:13Z</time>
      </trkpt>
      <trkpt lat="44.75289" lon="3.21198">
        <ele>1146.6</ele>
        <time>2022-08-01T12:29:17Z</time>
      </trkpt>
      <trkpt lat="44.75287" lon="3.212">
        <ele>1146.5</ele>
        <time>2022-08-01T12:29:19Z</time>
      </trkpt>
      <trkpt lat="44.75281" lon="3.21203">
        <ele>1146.1</ele>
        <time>2022-08-01T12:29:24Z</time>
      </trkpt>
      <trkpt lat="44.75274" lon="3.21208">
        <ele>1145.4</ele>
        <time>2022-08-01T12:29:30Z</time>
      </trkpt>
      <trkpt lat="44.75265" lon="3.21211">
        <ele>1144.8</ele>
        <time>2022-08-01T12:29:37Z</time>
      </trkpt>
      <trkpt lat="44.75262" lon="3.21213">
        <ele>1144.4</ele>
        <time>2022-08-01T12:29:40Z</time>
      </trkpt>
      <trkpt lat="44.7525" lon="3.21219">
        <ele>1143.3</ele>
        <time>2022-08-01T12:29:49Z</time>
      </trkpt>
      <trkpt lat="44.75246" lon="3.21226">
        <ele>1142.9</ele>
        <time>2022-08-01T12:29:54Z</time>
      </trkpt>
      <trkpt lat="44.75242" lon="3.21236">
        <ele>1142.5</ele>
        <time>2022-08-01T12:30:00Z</time>
      </trkpt>
      <trkpt lat="44.7524" lon="3.21252">
        <ele>1141.8</ele>
        <time>2022-08-01T12:30:08Z</time>
      </trkpt>
      <trkpt lat="44.75239" lon="3.21255">
        <ele>1141.8</ele>
        <time>2022-08-01T12:30:10Z</time>
      </trkpt>
      <trkpt lat="44.75237" lon="3.21265">
        <ele>1142</ele>
        <time>2022-08-01T12:30:16Z</time>
      </trkpt>
      <trkpt lat="44.75236" lon="3.21287">
        <ele>1142</ele>
        <time>2022-08-01T12:30:27Z</time>
      </trkpt>
      <trkpt lat="44.75236" lon="3.21294">
        <ele>1142</ele>
        <time>2022-08-01T12:30:31Z</time>
      </trkpt>
      <trkpt lat="44.75237" lon="3.21302">
        <ele>1141.6</ele>
        <time>2022-08-01T12:30:35Z</time>
      </trkpt>
      <trkpt lat="44.75242" lon="3.21322">
        <ele>1140.1</ele>
        <time>2022-08-01T12:30:46Z</time>
      </trkpt>
      <trkpt lat="44.75242" lon="3.21324">
        <ele>1140.1</ele>
        <time>2022-08-01T12:30:47Z</time>
      </trkpt>
      <trkpt lat="44.75246" lon="3.21341">
        <ele>1139.3</ele>
        <time>2022-08-01T12:30:56Z</time>
      </trkpt>
      <trkpt lat="44.75247" lon="3.21342">
        <ele>1139.3</ele>
        <time>2022-08-01T12:30:57Z</time>
      </trkpt>
      <trkpt lat="44.75249" lon="3.21351">
        <ele>1139</ele>
        <time>2022-08-01T12:31:02Z</time>
      </trkpt>
      <trkpt lat="44.75249" lon="3.21353">
        <ele>1138.9</ele>
        <time>2022-08-01T12:31:03Z</time>
      </trkpt>
      <trkpt lat="44.75253" lon="3.21366">
        <ele>1138.3</ele>
        <time>2022-08-01T12:31:11Z</time>
      </trkpt>
      <trkpt lat="44.75257" lon="3.21378">
        <ele>1137.7</ele>
        <time>2022-08-01T12:31:18Z</time>
      </trkpt>
      <trkpt lat="44.7526" lon="3.21387">
        <ele>1137.5</ele>
        <time>2022-08-01T12:31:23Z</time>
      </trkpt>
      <trkpt lat="44.75261" lon="3.2139">
        <ele>1137.4</ele>
        <time>2022-08-01T12:31:25Z</time>
      </trkpt>
      <trkpt lat="44.75264" lon="3.21401">
        <ele>1137.2</ele>
        <time>2022-08-01T12:31:32Z</time>
      </trkpt>
      <trkpt lat="44.75264" lon="3.21403">
        <ele>1137.1</ele>
        <time>2022-08-01T12:31:33Z</time>
      </trkpt>
      <trkpt lat="44.75264" lon="3.21403">
        <ele>1137.1</ele>
        <time>2022-08-01T12:31:34Z</time>
      </trkpt>
      <trkpt lat="44.75264" lon="3.21402">
        <ele>1137.2</ele>
        <time>2022-08-01T12:31:35Z</time>
      </trkpt>
      <trkpt lat="44.75263" lon="3.21402">
        <ele>1137.4</ele>
        <time>2022-08-01T12:31:37Z</time>
      </trkpt>
      <trkpt lat="44.75264" lon="3.21404">
        <ele>1137.3</ele>
        <time>2022-08-01T12:31:38Z</time>
      </trkpt>
      <trkpt lat="44.75266" lon="3.21411">
        <ele>1137.1</ele>
        <time>2022-08-01T12:31:42Z</time>
      </trkpt>
      <trkpt lat="44.75268" lon="3.21415">
        <ele>1137.1</ele>
        <time>2022-08-01T12:31:45Z</time>
      </trkpt>
      <trkpt lat="44.7527" lon="3.21424">
        <ele>1136.8</ele>
        <time>2022-08-01T12:31:50Z</time>
      </trkpt>
      <trkpt lat="44.75271" lon="3.21431">
        <ele>1136.5</ele>
        <time>2022-08-01T12:31:53Z</time>
      </trkpt>
      <trkpt lat="44.75275" lon="3.21446">
        <ele>1135.7</ele>
        <time>2022-08-01T12:31:59Z</time>
      </trkpt>
      <trkpt lat="44.75276" lon="3.21447">
        <ele>1135.6</ele>
        <time>2022-08-01T12:32:00Z</time>
      </trkpt>
      <trkpt lat="44.75276" lon="3.21454">
        <ele>1135.4</ele>
        <time>2022-08-01T12:32:04Z</time>
      </trkpt>
      <trkpt lat="44.75278" lon="3.21458">
        <ele>1134.9</ele>
        <time>2022-08-01T12:32:06Z</time>
      </trkpt>
      <trkpt lat="44.75283" lon="3.21469">
        <ele>1133.4</ele>
        <time>2022-08-01T12:32:12Z</time>
      </trkpt>
      <trkpt lat="44.75285" lon="3.21483">
        <ele>1132.6</ele>
        <time>2022-08-01T12:32:20Z</time>
      </trkpt>
      <trkpt lat="44.75286" lon="3.21489">
        <ele>1132.2</ele>
        <time>2022-08-01T12:32:26Z</time>
      </trkpt>
      <trkpt lat="44.75286" lon="3.21489">
        <ele>1132.3</ele>
        <time>2022-08-01T12:32:27Z</time>
      </trkpt>
      <trkpt lat="44.75286" lon="3.21489">
        <ele>1132.3</ele>
        <time>2022-08-01T12:32:28Z</time>
      </trkpt>
      <trkpt lat="44.75287" lon="3.21494">
        <ele>1131.9</ele>
        <time>2022-08-01T12:32:32Z</time>
      </trkpt>
      <trkpt lat="44.75287" lon="3.21497">
        <ele>1131.6</ele>
        <time>2022-08-01T12:32:34Z</time>
      </trkpt>
      <trkpt lat="44.75289" lon="3.21511">
        <ele>1130.9</ele>
        <time>2022-08-01T12:32:42Z</time>
      </trkpt>
      <trkpt lat="44.75289" lon="3.21517">
        <ele>1130.5</ele>
        <time>2022-08-01T12:32:45Z</time>
      </trkpt>
      <trkpt lat="44.75289" lon="3.21526">
        <ele>1130.3</ele>
        <time>2022-08-01T12:32:49Z</time>
      </trkpt>
      <trkpt lat="44.75288" lon="3.21532">
        <ele>1130.3</ele>
        <time>2022-08-01T12:32:52Z</time>
      </trkpt>
      <trkpt lat="44.75287" lon="3.21545">
        <ele>1129.5</ele>
        <time>2022-08-01T12:32:59Z</time>
      </trkpt>
      <trkpt lat="44.75286" lon="3.21554">
        <ele>1129</ele>
        <time>2022-08-01T12:33:04Z</time>
      </trkpt>
      <trkpt lat="44.75285" lon="3.21567">
        <ele>1128.5</ele>
        <time>2022-08-01T12:33:11Z</time>
      </trkpt>
      <trkpt lat="44.75284" lon="3.21569">
        <ele>1128.4</ele>
        <time>2022-08-01T12:33:12Z</time>
      </trkpt>
      <trkpt lat="44.75283" lon="3.21579">
        <ele>1128.1</ele>
        <time>2022-08-01T12:33:18Z</time>
      </trkpt>
      <trkpt lat="44.75282" lon="3.2158">
        <ele>1128.2</ele>
        <time>2022-08-01T12:33:19Z</time>
      </trkpt>
      <trkpt lat="44.7528" lon="3.21586">
        <ele>1128.2</ele>
        <time>2022-08-01T12:33:23Z</time>
      </trkpt>
      <trkpt lat="44.7528" lon="3.21592">
        <ele>1127.6</ele>
        <time>2022-08-01T12:33:26Z</time>
      </trkpt>
      <trkpt lat="44.75279" lon="3.21597">
        <ele>1127.1</ele>
        <time>2022-08-01T12:33:28Z</time>
      </trkpt>
      <trkpt lat="44.75277" lon="3.21606">
        <ele>1126.8</ele>
        <time>2022-08-01T12:33:34Z</time>
      </trkpt>
      <trkpt lat="44.75271" lon="3.21618">
        <ele>1126.7</ele>
        <time>2022-08-01T12:33:42Z</time>
      </trkpt>
      <trkpt lat="44.75269" lon="3.2162">
        <ele>1126.8</ele>
        <time>2022-08-01T12:33:44Z</time>
      </trkpt>
      <trkpt lat="44.75264" lon="3.21629">
        <ele>1126.7</ele>
        <time>2022-08-01T12:33:50Z</time>
      </trkpt>
      <trkpt lat="44.7526" lon="3.21637">
        <ele>1126.7</ele>
        <time>2022-08-01T12:33:55Z</time>
      </trkpt>
      <trkpt lat="44.75259" lon="3.21638">
        <ele>1126.6</ele>
        <time>2022-08-01T12:33:56Z</time>
      </trkpt>
      <trkpt lat="44.75251" lon="3.21651">
        <ele>1125.3</ele>
        <time>2022-08-01T12:34:05Z</time>
      </trkpt>
      <trkpt lat="44.75245" lon="3.21665">
        <ele>1122.6</ele>
        <time>2022-08-01T12:34:13Z</time>
      </trkpt>
      <trkpt lat="44.75239" lon="3.21675">
        <ele>1122</ele>
        <time>2022-08-01T12:34:21Z</time>
      </trkpt>
      <trkpt lat="44.75235" lon="3.21679">
        <ele>1121.8</ele>
        <time>2022-08-01T12:34:24Z</time>
      </trkpt>
      <trkpt lat="44.75233" lon="3.21682">
        <ele>1121.6</ele>
        <time>2022-08-01T12:34:27Z</time>
      </trkpt>
      <trkpt lat="44.75227" lon="3.21691">
        <ele>1120.3</ele>
        <time>2022-08-01T12:34:33Z</time>
      </trkpt>
      <trkpt lat="44.75225" lon="3.21694">
        <ele>1119.8</ele>
        <time>2022-08-01T12:34:35Z</time>
      </trkpt>
      <trkpt lat="44.75222" lon="3.21699">
        <ele>1119.3</ele>
        <time>2022-08-01T12:34:39Z</time>
      </trkpt>
      <trkpt lat="44.75219" lon="3.21705">
        <ele>1118.9</ele>
        <time>2022-08-01T12:34:42Z</time>
      </trkpt>
      <trkpt lat="44.75215" lon="3.21711">
        <ele>1118.9</ele>
        <time>2022-08-01T12:34:46Z</time>
      </trkpt>
      <trkpt lat="44.7521" lon="3.21713">
        <ele>1119.4</ele>
        <time>2022-08-01T12:34:50Z</time>
      </trkpt>
      <trkpt lat="44.75206" lon="3.21716">
        <ele>1119.6</ele>
        <time>2022-08-01T12:34:54Z</time>
      </trkpt>
      <trkpt lat="44.75203" lon="3.21718">
        <ele>1119.6</ele>
        <time>2022-08-01T12:34:56Z</time>
      </trkpt>
      <trkpt lat="44.75202" lon="3.21719">
        <ele>1119.4</ele>
        <time>2022-08-01T12:34:57Z</time>
      </trkpt>
      <trkpt lat="44.75196" lon="3.21727">
        <ele>1118.8</ele>
        <time>2022-08-01T12:35:03Z</time>
      </trkpt>
      <trkpt lat="44.75194" lon="3.2173">
        <ele>1118.8</ele>
        <time>2022-08-01T12:35:05Z</time>
      </trkpt>
      <trkpt lat="44.75185" lon="3.21735">
        <ele>1119.9</ele>
        <time>2022-08-01T12:35:12Z</time>
      </trkpt>
      <trkpt lat="44.75183" lon="3.21737">
        <ele>1120.1</ele>
        <time>2022-08-01T12:35:14Z</time>
      </trkpt>
      <trkpt lat="44.7518" lon="3.21742">
        <ele>1119.5</ele>
        <time>2022-08-01T12:35:18Z</time>
      </trkpt>
      <trkpt lat="44.75173" lon="3.21752">
        <ele>1118.5</ele>
        <time>2022-08-01T12:35:25Z</time>
      </trkpt>
      <trkpt lat="44.7517" lon="3.21757">
        <ele>1118.3</ele>
        <time>2022-08-01T12:35:28Z</time>
      </trkpt>
      <trkpt lat="44.75169" lon="3.21758">
        <ele>1118.1</ele>
        <time>2022-08-01T12:35:29Z</time>
      </trkpt>
      <trkpt lat="44.75166" lon="3.21763">
        <ele>1117.8</ele>
        <time>2022-08-01T12:35:32Z</time>
      </trkpt>
      <trkpt lat="44.7516" lon="3.2177">
        <ele>1117.3</ele>
        <time>2022-08-01T12:35:38Z</time>
      </trkpt>
      <trkpt lat="44.75153" lon="3.21779">
        <ele>1116.5</ele>
        <time>2022-08-01T12:35:45Z</time>
      </trkpt>
      <trkpt lat="44.75149" lon="3.21781">
        <ele>1116.6</ele>
        <time>2022-08-01T12:35:48Z</time>
      </trkpt>
      <trkpt lat="44.75147" lon="3.21785">
        <ele>1116.6</ele>
        <time>2022-08-01T12:35:51Z</time>
      </trkpt>
      <trkpt lat="44.75145" lon="3.21787">
        <ele>1116.5</ele>
        <time>2022-08-01T12:35:53Z</time>
      </trkpt>
      <trkpt lat="44.75143" lon="3.21788">
        <ele>1116.6</ele>
        <time>2022-08-01T12:35:54Z</time>
      </trkpt>
      <trkpt lat="44.75136" lon="3.21795">
        <ele>1116.3</ele>
        <time>2022-08-01T12:36:00Z</time>
      </trkpt>
      <trkpt lat="44.75133" lon="3.21799">
        <ele>1116.2</ele>
        <time>2022-08-01T12:36:03Z</time>
      </trkpt>
      <trkpt lat="44.7513" lon="3.21801">
        <ele>1116.1</ele>
        <time>2022-08-01T12:36:05Z</time>
      </trkpt>
      <trkpt lat="44.75126" lon="3.21808">
        <ele>1115.7</ele>
        <time>2022-08-01T12:36:09Z</time>
      </trkpt>
      <trkpt lat="44.75118" lon="3.21818">
        <ele>1115.6</ele>
        <time>2022-08-01T12:36:17Z</time>
      </trkpt>
      <trkpt lat="44.75117" lon="3.21822">
        <ele>1115.4</ele>
        <time>2022-08-01T12:36:19Z</time>
      </trkpt>
      <trkpt lat="44.75115" lon="3.21825">
        <ele>1115.3</ele>
        <time>2022-08-01T12:36:22Z</time>
      </trkpt>
      <trkpt lat="44.75114" lon="3.21827">
        <ele>1115.3</ele>
        <time>2022-08-01T12:36:23Z</time>
      </trkpt>
      <trkpt lat="44.75109" lon="3.21833">
        <ele>1115</ele>
        <time>2022-08-01T12:36:30Z</time>
      </trkpt>
      <trkpt lat="44.75109" lon="3.21834">
        <ele>1115</ele>
        <time>2022-08-01T12:36:31Z</time>
      </trkpt>
      <trkpt lat="44.75106" lon="3.21836">
        <ele>1114.8</ele>
        <time>2022-08-01T12:36:34Z</time>
      </trkpt>
      <trkpt lat="44.75096" lon="3.21843">
        <ele>1114.3</ele>
        <time>2022-08-01T12:36:43Z</time>
      </trkpt>
      <trkpt lat="44.75091" lon="3.21844">
        <ele>1114.2</ele>
        <time>2022-08-01T12:36:46Z</time>
      </trkpt>
      <trkpt lat="44.75087" lon="3.21847">
        <ele>1114</ele>
        <time>2022-08-01T12:36:50Z</time>
      </trkpt>
      <trkpt lat="44.75086" lon="3.21849">
        <ele>1113.9</ele>
        <time>2022-08-01T12:36:51Z</time>
      </trkpt>
      <trkpt lat="44.75084" lon="3.21851">
        <ele>1113.8</ele>
        <time>2022-08-01T12:36:53Z</time>
      </trkpt>
      <trkpt lat="44.75078" lon="3.21857">
        <ele>1113.5</ele>
        <time>2022-08-01T12:36:59Z</time>
      </trkpt>
      <trkpt lat="44.75074" lon="3.2186">
        <ele>1113.5</ele>
        <time>2022-08-01T12:37:02Z</time>
      </trkpt>
      <trkpt lat="44.75068" lon="3.21867">
        <ele>1112.7</ele>
        <time>2022-08-01T12:37:08Z</time>
      </trkpt>
      <trkpt lat="44.75063" lon="3.21872">
        <ele>1111.9</ele>
        <time>2022-08-01T12:37:12Z</time>
      </trkpt>
      <trkpt lat="44.75057" lon="3.21878">
        <ele>1110.9</ele>
        <time>2022-08-01T12:37:18Z</time>
      </trkpt>
      <trkpt lat="44.75053" lon="3.21883">
        <ele>1110.3</ele>
        <time>2022-08-01T12:37:22Z</time>
      </trkpt>
      <trkpt lat="44.75047" lon="3.21889">
        <ele>1109.5</ele>
        <time>2022-08-01T12:37:28Z</time>
      </trkpt>
      <trkpt lat="44.75045" lon="3.21891">
        <ele>1109.5</ele>
        <time>2022-08-01T12:37:30Z</time>
      </trkpt>
      <trkpt lat="44.7504" lon="3.21894">
        <ele>1109</ele>
        <time>2022-08-01T12:37:35Z</time>
      </trkpt>
      <trkpt lat="44.7503" lon="3.21905">
        <ele>1107.4</ele>
        <time>2022-08-01T12:37:44Z</time>
      </trkpt>
      <trkpt lat="44.75024" lon="3.21911">
        <ele>1106.7</ele>
        <time>2022-08-01T12:37:49Z</time>
      </trkpt>
      <trkpt lat="44.7502" lon="3.21914">
        <ele>1106.5</ele>
        <time>2022-08-01T12:37:53Z</time>
      </trkpt>
      <trkpt lat="44.75017" lon="3.21916">
        <ele>1106.4</ele>
        <time>2022-08-01T12:37:55Z</time>
      </trkpt>
      <trkpt lat="44.75011" lon="3.21921">
        <ele>1106.2</ele>
        <time>2022-08-01T12:38:00Z</time>
      </trkpt>
      <trkpt lat="44.75006" lon="3.21927">
        <ele>1105.9</ele>
        <time>2022-08-01T12:38:05Z</time>
      </trkpt>
      <trkpt lat="44.75" lon="3.21933">
        <ele>1105.7</ele>
        <time>2022-08-01T12:38:10Z</time>
      </trkpt>
      <trkpt lat="44.74996" lon="3.21937">
        <ele>1105.7</ele>
        <time>2022-08-01T12:38:14Z</time>
      </trkpt>
      <trkpt lat="44.74992" lon="3.2194">
        <ele>1105.8</ele>
        <time>2022-08-01T12:38:18Z</time>
      </trkpt>
      <trkpt lat="44.74991" lon="3.21942">
        <ele>1105.7</ele>
        <time>2022-08-01T12:38:19Z</time>
      </trkpt>
      <trkpt lat="44.74987" lon="3.21947">
        <ele>1105.6</ele>
        <time>2022-08-01T12:38:24Z</time>
      </trkpt>
      <trkpt lat="44.74977" lon="3.21962">
        <ele>1104.9</ele>
        <time>2022-08-01T12:38:36Z</time>
      </trkpt>
      <trkpt lat="44.74978" lon="3.21962">
        <ele>1104.8</ele>
        <time>2022-08-01T12:38:37Z</time>
      </trkpt>
      <trkpt lat="44.74978" lon="3.21962">
        <ele>1104.8</ele>
        <time>2022-08-01T12:38:39Z</time>
      </trkpt>
      <trkpt lat="44.74978" lon="3.21961">
        <ele>1105</ele>
        <time>2022-08-01T12:38:44Z</time>
      </trkpt>
      <trkpt lat="44.74975" lon="3.21962">
        <ele>1105.1</ele>
        <time>2022-08-01T12:38:56Z</time>
      </trkpt>
      <trkpt lat="44.74966" lon="3.21973">
        <ele>1104.4</ele>
        <time>2022-08-01T12:39:03Z</time>
      </trkpt>
      <trkpt lat="44.74957" lon="3.21985">
        <ele>1103.9</ele>
        <time>2022-08-01T12:39:13Z</time>
      </trkpt>
      <trkpt lat="44.74947" lon="3.21998">
        <ele>1103.1</ele>
        <time>2022-08-01T12:39:23Z</time>
      </trkpt>
      <trkpt lat="44.7494" lon="3.22008">
        <ele>1102.6</ele>
        <time>2022-08-01T12:39:30Z</time>
      </trkpt>
      <trkpt lat="44.74929" lon="3.22023">
        <ele>1101.9</ele>
        <time>2022-08-01T12:39:42Z</time>
      </trkpt>
      <trkpt lat="44.74922" lon="3.22033">
        <ele>1101.4</ele>
        <time>2022-08-01T12:39:50Z</time>
      </trkpt>
      <trkpt lat="44.74913" lon="3.22042">
        <ele>1101.3</ele>
        <time>2022-08-01T12:39:59Z</time>
      </trkpt>
      <trkpt lat="44.74907" lon="3.22052">
        <ele>1101.3</ele>
        <time>2022-08-01T12:40:07Z</time>
      </trkpt>
      <trkpt lat="44.74902" lon="3.22057">
        <ele>1101.5</ele>
        <time>2022-08-01T12:40:14Z</time>
      </trkpt>
      <trkpt lat="44.74901" lon="3.22059">
        <ele>1101.5</ele>
        <time>2022-08-01T12:40:16Z</time>
      </trkpt>
      <trkpt lat="44.749" lon="3.2206">
        <ele>1101.6</ele>
        <time>2022-08-01T12:40:17Z</time>
      </trkpt>
      <trkpt lat="44.74898" lon="3.22062">
        <ele>1101.6</ele>
        <time>2022-08-01T12:40:19Z</time>
      </trkpt>
      <trkpt lat="44.74888" lon="3.22074">
        <ele>1101.7</ele>
        <time>2022-08-01T12:40:28Z</time>
      </trkpt>
      <trkpt lat="44.74879" lon="3.22087">
        <ele>1101.6</ele>
        <time>2022-08-01T12:40:38Z</time>
      </trkpt>
      <trkpt lat="44.74878" lon="3.22088">
        <ele>1101.6</ele>
        <time>2022-08-01T12:40:39Z</time>
      </trkpt>
      <trkpt lat="44.74876" lon="3.22091">
        <ele>1101.7</ele>
        <time>2022-08-01T12:40:43Z</time>
      </trkpt>
      <trkpt lat="44.74875" lon="3.22092">
        <ele>1101.7</ele>
        <time>2022-08-01T12:40:44Z</time>
      </trkpt>
      <trkpt lat="44.74874" lon="3.22093">
        <ele>1101.7</ele>
        <time>2022-08-01T12:40:46Z</time>
      </trkpt>
      <trkpt lat="44.7487" lon="3.22097">
        <ele>1101.9</ele>
        <time>2022-08-01T12:40:50Z</time>
      </trkpt>
      <trkpt lat="44.74863" lon="3.22107">
        <ele>1102</ele>
        <time>2022-08-01T12:40:57Z</time>
      </trkpt>
      <trkpt lat="44.74855" lon="3.22119">
        <ele>1102.1</ele>
        <time>2022-08-01T12:41:06Z</time>
      </trkpt>
      <trkpt lat="44.74846" lon="3.22132">
        <ele>1102.3</ele>
        <time>2022-08-01T12:41:17Z</time>
      </trkpt>
      <trkpt lat="44.74845" lon="3.22135">
        <ele>1102.4</ele>
        <time>2022-08-01T12:41:19Z</time>
      </trkpt>
      <trkpt lat="44.74841" lon="3.22141">
        <ele>1102.5</ele>
        <time>2022-08-01T12:41:23Z</time>
      </trkpt>
      <trkpt lat="44.74836" lon="3.22155">
        <ele>1102.8</ele>
        <time>2022-08-01T12:41:33Z</time>
      </trkpt>
      <trkpt lat="44.74834" lon="3.2217">
        <ele>1103</ele>
        <time>2022-08-01T12:41:41Z</time>
      </trkpt>
      <trkpt lat="44.74831" lon="3.22179">
        <ele>1103.2</ele>
        <time>2022-08-01T12:41:47Z</time>
      </trkpt>
      <trkpt lat="44.74828" lon="3.2219">
        <ele>1103.5</ele>
        <time>2022-08-01T12:41:54Z</time>
      </trkpt>
      <trkpt lat="44.74827" lon="3.22193">
        <ele>1103.7</ele>
        <time>2022-08-01T12:41:56Z</time>
      </trkpt>
      <trkpt lat="44.74825" lon="3.22206">
        <ele>1103.8</ele>
        <time>2022-08-01T12:42:05Z</time>
      </trkpt>
      <trkpt lat="44.74824" lon="3.22218">
        <ele>1103.7</ele>
        <time>2022-08-01T12:42:12Z</time>
      </trkpt>
      <trkpt lat="44.74825" lon="3.22223">
        <ele>1103.6</ele>
        <time>2022-08-01T12:42:15Z</time>
      </trkpt>
      <trkpt lat="44.74825" lon="3.22224">
        <ele>1103.6</ele>
        <time>2022-08-01T12:42:18Z</time>
      </trkpt>
      <trkpt lat="44.74824" lon="3.22232">
        <ele>1103.7</ele>
        <time>2022-08-01T12:42:23Z</time>
      </trkpt>
      <trkpt lat="44.74821" lon="3.22244">
        <ele>1103.9</ele>
        <time>2022-08-01T12:42:30Z</time>
      </trkpt>
      <trkpt lat="44.7482" lon="3.22248">
        <ele>1103.9</ele>
        <time>2022-08-01T12:42:32Z</time>
      </trkpt>
      <trkpt lat="44.7482" lon="3.22253">
        <ele>1103.9</ele>
        <time>2022-08-01T12:42:35Z</time>
      </trkpt>
      <trkpt lat="44.74821" lon="3.22257">
        <ele>1103.8</ele>
        <time>2022-08-01T12:42:37Z</time>
      </trkpt>
      <trkpt lat="44.74822" lon="3.22263">
        <ele>1103.6</ele>
        <time>2022-08-01T12:42:41Z</time>
      </trkpt>
      <trkpt lat="44.74819" lon="3.22272">
        <ele>1103.6</ele>
        <time>2022-08-01T12:42:48Z</time>
      </trkpt>
      <trkpt lat="44.74819" lon="3.22273">
        <ele>1103.6</ele>
        <time>2022-08-01T12:42:49Z</time>
      </trkpt>
      <trkpt lat="44.74816" lon="3.22281">
        <ele>1103.4</ele>
        <time>2022-08-01T12:42:55Z</time>
      </trkpt>
      <trkpt lat="44.74817" lon="3.22288">
        <ele>1103</ele>
        <time>2022-08-01T12:43:00Z</time>
      </trkpt>
      <trkpt lat="44.74816" lon="3.22289">
        <ele>1103</ele>
        <time>2022-08-01T12:43:02Z</time>
      </trkpt>
      <trkpt lat="44.74817" lon="3.22289">
        <ele>1103</ele>
        <time>2022-08-01T12:43:03Z</time>
      </trkpt>
      <trkpt lat="44.74818" lon="3.22281">
        <ele>1103.4</ele>
        <time>2022-08-01T12:43:12Z</time>
      </trkpt>
      <trkpt lat="44.74817" lon="3.22269">
        <ele>1103.8</ele>
        <time>2022-08-01T12:43:18Z</time>
      </trkpt>
      <trkpt lat="44.7482" lon="3.22263">
        <ele>1103.7</ele>
        <time>2022-08-01T12:43:22Z</time>
      </trkpt>
      <trkpt lat="44.74822" lon="3.22263">
        <ele>1103.6</ele>
        <time>2022-08-01T12:43:23Z</time>
      </trkpt>
      <trkpt lat="44.74835" lon="3.22264">
        <ele>1103</ele>
        <time>2022-08-01T12:43:31Z</time>
      </trkpt>
      <trkpt lat="44.74848" lon="3.22262">
        <ele>1103.2</ele>
        <time>2022-08-01T12:43:42Z</time>
      </trkpt>
      <trkpt lat="44.74858" lon="3.22259">
        <ele>1103.3</ele>
        <time>2022-08-01T12:43:51Z</time>
      </trkpt>
      <trkpt lat="44.74865" lon="3.22258">
        <ele>1103.4</ele>
        <time>2022-08-01T12:43:58Z</time>
      </trkpt>
      <trkpt lat="44.74865" lon="3.22257">
        <ele>1103.4</ele>
        <time>2022-08-01T12:44:00Z</time>
      </trkpt>
      <trkpt lat="44.74867" lon="3.22259">
        <ele>1103.5</ele>
        <time>2022-08-01T12:44:06Z</time>
      </trkpt>
      <trkpt lat="44.74868" lon="3.22258">
        <ele>1103.5</ele>
        <time>2022-08-01T12:44:14Z</time>
      </trkpt>
      <trkpt lat="44.7487" lon="3.22258">
        <ele>1103.6</ele>
        <time>2022-08-01T12:44:22Z</time>
      </trkpt>
      <trkpt lat="44.7487" lon="3.22258">
        <ele>1103.6</ele>
        <time>2022-08-01T12:44:32Z</time>
      </trkpt>
      <trkpt lat="44.74872" lon="3.22259">
        <ele>1103.7</ele>
        <time>2022-08-01T12:44:50Z</time>
      </trkpt>
      <trkpt lat="44.7483" lon="3.22368">
        <ele>1097.5</ele>
        <time>2022-08-01T13:09:25Z</time>
      </trkpt>
      <trkpt lat="44.74832" lon="3.22381">
        <ele>1096.6</ele>
        <time>2022-08-01T13:09:27Z</time>
      </trkpt>
      <trkpt lat="44.74832" lon="3.22385">
        <ele>1096.3</ele>
        <time>2022-08-01T13:09:29Z</time>
      </trkpt>
      <trkpt lat="44.74832" lon="3.22385">
        <ele>1096.3</ele>
        <time>2022-08-01T13:09:30Z</time>
      </trkpt>
      <trkpt lat="44.74831" lon="3.22388">
        <ele>1096.2</ele>
        <time>2022-08-01T13:09:33Z</time>
      </trkpt>
      <trkpt lat="44.74829" lon="3.22394">
        <ele>1095.8</ele>
        <time>2022-08-01T13:09:38Z</time>
      </trkpt>
      <trkpt lat="44.74826" lon="3.22401">
        <ele>1095.5</ele>
        <time>2022-08-01T13:09:43Z</time>
      </trkpt>
      <trkpt lat="44.74822" lon="3.22413">
        <ele>1095</ele>
        <time>2022-08-01T13:09:52Z</time>
      </trkpt>
      <trkpt lat="44.74819" lon="3.22426">
        <ele>1094.7</ele>
        <time>2022-08-01T13:10:01Z</time>
      </trkpt>
      <trkpt lat="44.74817" lon="3.22439">
        <ele>1094.4</ele>
        <time>2022-08-01T13:10:09Z</time>
      </trkpt>
      <trkpt lat="44.74817" lon="3.22441">
        <ele>1094.3</ele>
        <time>2022-08-01T13:10:10Z</time>
      </trkpt>
      <trkpt lat="44.74813" lon="3.2245">
        <ele>1094.3</ele>
        <time>2022-08-01T13:10:17Z</time>
      </trkpt>
      <trkpt lat="44.74813" lon="3.2245">
        <ele>1094.3</ele>
        <time>2022-08-01T13:10:18Z</time>
      </trkpt>
      <trkpt lat="44.74813" lon="3.2245">
        <ele>1094.3</ele>
        <time>2022-08-01T13:10:20Z</time>
      </trkpt>
      <trkpt lat="44.74812" lon="3.2245">
        <ele>1094.4</ele>
        <time>2022-08-01T13:10:22Z</time>
      </trkpt>
      <trkpt lat="44.74812" lon="3.2245">
        <ele>1094.4</ele>
        <time>2022-08-01T13:10:24Z</time>
      </trkpt>
      <trkpt lat="44.74811" lon="3.22451">
        <ele>1094.4</ele>
        <time>2022-08-01T13:10:32Z</time>
      </trkpt>
      <trkpt lat="44.74811" lon="3.22452">
        <ele>1094.4</ele>
        <time>2022-08-01T13:10:40Z</time>
      </trkpt>
      <trkpt lat="44.74816" lon="3.22451">
        <ele>1094.1</ele>
        <time>2022-08-01T13:12:49Z</time>
      </trkpt>
      <trkpt lat="44.74801" lon="3.22475">
        <ele>1094.1</ele>
        <time>2022-08-01T13:31:19Z</time>
      </trkpt>
      <trkpt lat="44.748" lon="3.22474">
        <ele>1094.2</ele>
        <time>2022-08-01T13:31:20Z</time>
      </trkpt>
      <trkpt lat="44.74797" lon="3.22473">
        <ele>1094.3</ele>
        <time>2022-08-01T13:31:27Z</time>
      </trkpt>
      <trkpt lat="44.74794" lon="3.22479">
        <ele>1094.2</ele>
        <time>2022-08-01T13:31:33Z</time>
      </trkpt>
      <trkpt lat="44.7479" lon="3.22488">
        <ele>1093.9</ele>
        <time>2022-08-01T13:31:40Z</time>
      </trkpt>
      <trkpt lat="44.74785" lon="3.22497">
        <ele>1093.4</ele>
        <time>2022-08-01T13:31:47Z</time>
      </trkpt>
      <trkpt lat="44.74784" lon="3.22499">
        <ele>1093.3</ele>
        <time>2022-08-01T13:31:49Z</time>
      </trkpt>
      <trkpt lat="44.74781" lon="3.22511">
        <ele>1092.4</ele>
        <time>2022-08-01T13:31:58Z</time>
      </trkpt>
      <trkpt lat="44.74781" lon="3.22513">
        <ele>1092.3</ele>
        <time>2022-08-01T13:31:59Z</time>
      </trkpt>
      <trkpt lat="44.74779" lon="3.22523">
        <ele>1091.4</ele>
        <time>2022-08-01T13:32:06Z</time>
      </trkpt>
      <trkpt lat="44.74779" lon="3.22527">
        <ele>1091.1</ele>
        <time>2022-08-01T13:32:09Z</time>
      </trkpt>
      <trkpt lat="44.74779" lon="3.22529">
        <ele>1091</ele>
        <time>2022-08-01T13:32:10Z</time>
      </trkpt>
      <trkpt lat="44.74779" lon="3.22532">
        <ele>1090.7</ele>
        <time>2022-08-01T13:32:12Z</time>
      </trkpt>
      <trkpt lat="44.74778" lon="3.22541">
        <ele>1089.6</ele>
        <time>2022-08-01T13:32:18Z</time>
      </trkpt>
      <trkpt lat="44.74777" lon="3.22544">
        <ele>1089.3</ele>
        <time>2022-08-01T13:32:20Z</time>
      </trkpt>
      <trkpt lat="44.74777" lon="3.22546">
        <ele>1089</ele>
        <time>2022-08-01T13:32:22Z</time>
      </trkpt>
      <trkpt lat="44.74776" lon="3.22557">
        <ele>1088</ele>
        <time>2022-08-01T13:32:29Z</time>
      </trkpt>
      <trkpt lat="44.74776" lon="3.22558">
        <ele>1087.8</ele>
        <time>2022-08-01T13:32:30Z</time>
      </trkpt>
      <trkpt lat="44.74777" lon="3.22565">
        <ele>1087</ele>
        <time>2022-08-01T13:32:35Z</time>
      </trkpt>
      <trkpt lat="44.74777" lon="3.22567">
        <ele>1086.8</ele>
        <time>2022-08-01T13:32:36Z</time>
      </trkpt>
      <trkpt lat="44.74777" lon="3.22568">
        <ele>1086.7</ele>
        <time>2022-08-01T13:32:37Z</time>
      </trkpt>
      <trkpt lat="44.74776" lon="3.22578">
        <ele>1085.7</ele>
        <time>2022-08-01T13:32:44Z</time>
      </trkpt>
      <trkpt lat="44.74775" lon="3.22584">
        <ele>1085.1</ele>
        <time>2022-08-01T13:32:48Z</time>
      </trkpt>
      <trkpt lat="44.74772" lon="3.226">
        <ele>1083.6</ele>
        <time>2022-08-01T13:32:58Z</time>
      </trkpt>
      <trkpt lat="44.74769" lon="3.2261">
        <ele>1082.7</ele>
        <time>2022-08-01T13:33:05Z</time>
      </trkpt>
      <trkpt lat="44.74765" lon="3.22619">
        <ele>1082.4</ele>
        <time>2022-08-01T13:33:11Z</time>
      </trkpt>
      <trkpt lat="44.74763" lon="3.22624">
        <ele>1082.2</ele>
        <time>2022-08-01T13:33:15Z</time>
      </trkpt>
      <trkpt lat="44.74758" lon="3.22637">
        <ele>1081.6</ele>
        <time>2022-08-01T13:33:25Z</time>
      </trkpt>
      <trkpt lat="44.74756" lon="3.2264">
        <ele>1081.5</ele>
        <time>2022-08-01T13:33:27Z</time>
      </trkpt>
      <trkpt lat="44.74753" lon="3.22651">
        <ele>1081.4</ele>
        <time>2022-08-01T13:33:34Z</time>
      </trkpt>
      <trkpt lat="44.74753" lon="3.22652">
        <ele>1081.3</ele>
        <time>2022-08-01T13:33:35Z</time>
      </trkpt>
      <trkpt lat="44.74752" lon="3.22663">
        <ele>1081</ele>
        <time>2022-08-01T13:33:41Z</time>
      </trkpt>
      <trkpt lat="44.74751" lon="3.22667">
        <ele>1080.9</ele>
        <time>2022-08-01T13:33:46Z</time>
      </trkpt>
      <trkpt lat="44.74751" lon="3.22667">
        <ele>1080.9</ele>
        <time>2022-08-01T13:33:47Z</time>
      </trkpt>
      <trkpt lat="44.74753" lon="3.22668">
        <ele>1080.7</ele>
        <time>2022-08-01T13:33:52Z</time>
      </trkpt>
      <trkpt lat="44.74755" lon="3.2267">
        <ele>1080.5</ele>
        <time>2022-08-01T13:33:54Z</time>
      </trkpt>
      <trkpt lat="44.74756" lon="3.22671">
        <ele>1080.4</ele>
        <time>2022-08-01T13:33:55Z</time>
      </trkpt>
      <trkpt lat="44.74757" lon="3.22672">
        <ele>1080.3</ele>
        <time>2022-08-01T13:33:57Z</time>
      </trkpt>
      <trkpt lat="44.74764" lon="3.22675">
        <ele>1079.7</ele>
        <time>2022-08-01T13:34:01Z</time>
      </trkpt>
      <trkpt lat="44.74768" lon="3.22679">
        <ele>1079.3</ele>
        <time>2022-08-01T13:34:08Z</time>
      </trkpt>
      <trkpt lat="44.7477" lon="3.22681">
        <ele>1079.1</ele>
        <time>2022-08-01T13:34:10Z</time>
      </trkpt>
      <trkpt lat="44.7477" lon="3.22682">
        <ele>1079</ele>
        <time>2022-08-01T13:34:12Z</time>
      </trkpt>
      <trkpt lat="44.74772" lon="3.22685">
        <ele>1078.8</ele>
        <time>2022-08-01T13:34:14Z</time>
      </trkpt>
      <trkpt lat="44.74778" lon="3.22691">
        <ele>1078.1</ele>
        <time>2022-08-01T13:34:22Z</time>
      </trkpt>
      <trkpt lat="44.74781" lon="3.22694">
        <ele>1077.6</ele>
        <time>2022-08-01T13:34:24Z</time>
      </trkpt>
      <trkpt lat="44.74788" lon="3.227">
        <ele>1077.1</ele>
        <time>2022-08-01T13:34:29Z</time>
      </trkpt>
      <trkpt lat="44.74793" lon="3.22707">
        <ele>1076.8</ele>
        <time>2022-08-01T13:34:36Z</time>
      </trkpt>
      <trkpt lat="44.74799" lon="3.22713">
        <ele>1076.3</ele>
        <time>2022-08-01T13:34:43Z</time>
      </trkpt>
      <trkpt lat="44.74805" lon="3.22717">
        <ele>1075.8</ele>
        <time>2022-08-01T13:34:51Z</time>
      </trkpt>
      <trkpt lat="44.74813" lon="3.22724">
        <ele>1075.3</ele>
        <time>2022-08-01T13:35:01Z</time>
      </trkpt>
      <trkpt lat="44.74821" lon="3.2273">
        <ele>1074.9</ele>
        <time>2022-08-01T13:35:08Z</time>
      </trkpt>
      <trkpt lat="44.74824" lon="3.22733">
        <ele>1074.8</ele>
        <time>2022-08-01T13:35:11Z</time>
      </trkpt>
      <trkpt lat="44.7483" lon="3.2274">
        <ele>1074.7</ele>
        <time>2022-08-01T13:35:17Z</time>
      </trkpt>
      <trkpt lat="44.74834" lon="3.22746">
        <ele>1074.6</ele>
        <time>2022-08-01T13:35:22Z</time>
      </trkpt>
      <trkpt lat="44.74835" lon="3.22749">
        <ele>1074.5</ele>
        <time>2022-08-01T13:35:24Z</time>
      </trkpt>
      <trkpt lat="44.74836" lon="3.2275">
        <ele>1074.5</ele>
        <time>2022-08-01T13:35:25Z</time>
      </trkpt>
      <trkpt lat="44.74839" lon="3.22758">
        <ele>1074.4</ele>
        <time>2022-08-01T13:35:31Z</time>
      </trkpt>
      <trkpt lat="44.74839" lon="3.22761">
        <ele>1074.3</ele>
        <time>2022-08-01T13:35:33Z</time>
      </trkpt>
      <trkpt lat="44.74843" lon="3.22772">
        <ele>1073.9</ele>
        <time>2022-08-01T13:35:40Z</time>
      </trkpt>
      <trkpt lat="44.74843" lon="3.22774">
        <ele>1073.9</ele>
        <time>2022-08-01T13:35:41Z</time>
      </trkpt>
      <trkpt lat="44.74844" lon="3.22781">
        <ele>1074.1</ele>
        <time>2022-08-01T13:35:46Z</time>
      </trkpt>
      <trkpt lat="44.74844" lon="3.22784">
        <ele>1074.1</ele>
        <time>2022-08-01T13:35:48Z</time>
      </trkpt>
      <trkpt lat="44.74844" lon="3.22788">
        <ele>1074.1</ele>
        <time>2022-08-01T13:35:51Z</time>
      </trkpt>
      <trkpt lat="44.74844" lon="3.22791">
        <ele>1074.2</ele>
        <time>2022-08-01T13:35:53Z</time>
      </trkpt>
      <trkpt lat="44.74844" lon="3.22794">
        <ele>1074.2</ele>
        <time>2022-08-01T13:35:55Z</time>
      </trkpt>
      <trkpt lat="44.74844" lon="3.22795">
        <ele>1074.2</ele>
        <time>2022-08-01T13:35:56Z</time>
      </trkpt>
      <trkpt lat="44.74846" lon="3.22796">
        <ele>1073.7</ele>
        <time>2022-08-01T13:35:59Z</time>
      </trkpt>
      <trkpt lat="44.74847" lon="3.22796">
        <ele>1073.5</ele>
        <time>2022-08-01T13:36:00Z</time>
      </trkpt>
      <trkpt lat="44.74847" lon="3.22796">
        <ele>1073.5</ele>
        <time>2022-08-01T13:36:01Z</time>
      </trkpt>
      <trkpt lat="44.74849" lon="3.22798">
        <ele>1072.9</ele>
        <time>2022-08-01T13:36:04Z</time>
      </trkpt>
      <trkpt lat="44.74849" lon="3.22798">
        <ele>1072.7</ele>
        <time>2022-08-01T13:36:05Z</time>
      </trkpt>
      <trkpt lat="44.7485" lon="3.22803">
        <ele>1072.6</ele>
        <time>2022-08-01T13:36:10Z</time>
      </trkpt>
      <trkpt lat="44.74847" lon="3.22814">
        <ele>1073.2</ele>
        <time>2022-08-01T13:36:18Z</time>
      </trkpt>
      <trkpt lat="44.74848" lon="3.22817">
        <ele>1073</ele>
        <time>2022-08-01T13:36:20Z</time>
      </trkpt>
      <trkpt lat="44.74848" lon="3.22821">
        <ele>1072.8</ele>
        <time>2022-08-01T13:36:22Z</time>
      </trkpt>
      <trkpt lat="44.74848" lon="3.22824">
        <ele>1072.5</ele>
        <time>2022-08-01T13:36:24Z</time>
      </trkpt>
      <trkpt lat="44.74849" lon="3.22831">
        <ele>1072.1</ele>
        <time>2022-08-01T13:36:28Z</time>
      </trkpt>
      <trkpt lat="44.74849" lon="3.22836">
        <ele>1071.7</ele>
        <time>2022-08-01T13:36:32Z</time>
      </trkpt>
      <trkpt lat="44.74853" lon="3.22843">
        <ele>1070.2</ele>
        <time>2022-08-01T13:36:39Z</time>
      </trkpt>
      <trkpt lat="44.74852" lon="3.22844">
        <ele>1070.3</ele>
        <time>2022-08-01T13:36:40Z</time>
      </trkpt>
      <trkpt lat="44.74853" lon="3.22845">
        <ele>1069.9</ele>
        <time>2022-08-01T13:36:46Z</time>
      </trkpt>
      <trkpt lat="44.74853" lon="3.22846">
        <ele>1070</ele>
        <time>2022-08-01T13:36:54Z</time>
      </trkpt>
      <trkpt lat="44.74853" lon="3.22848">
        <ele>1069.8</ele>
        <time>2022-08-01T13:36:59Z</time>
      </trkpt>
      <trkpt lat="44.74852" lon="3.22849">
        <ele>1069.7</ele>
        <time>2022-08-01T13:37:01Z</time>
      </trkpt>
      <trkpt lat="44.74851" lon="3.22849">
        <ele>1070</ele>
        <time>2022-08-01T13:37:11Z</time>
      </trkpt>
      <trkpt lat="44.74851" lon="3.22849">
        <ele>1070</ele>
        <time>2022-08-01T13:37:14Z</time>
      </trkpt>
      <trkpt lat="44.74854" lon="3.22853">
        <ele>1068.8</ele>
        <time>2022-08-01T13:37:22Z</time>
      </trkpt>
      <trkpt lat="44.74856" lon="3.22858">
        <ele>1067.7</ele>
        <time>2022-08-01T13:37:25Z</time>
      </trkpt>
      <trkpt lat="44.74857" lon="3.22863">
        <ele>1066.7</ele>
        <time>2022-08-01T13:37:28Z</time>
      </trkpt>
      <trkpt lat="44.74857" lon="3.22864">
        <ele>1066.4</ele>
        <time>2022-08-01T13:37:29Z</time>
      </trkpt>
      <trkpt lat="44.74857" lon="3.2287">
        <ele>1065.3</ele>
        <time>2022-08-01T13:37:35Z</time>
      </trkpt>
      <trkpt lat="44.74857" lon="3.22872">
        <ele>1064.8</ele>
        <time>2022-08-01T13:37:37Z</time>
      </trkpt>
      <trkpt lat="44.74858" lon="3.22875">
        <ele>1063.9</ele>
        <time>2022-08-01T13:37:41Z</time>
      </trkpt>
      <trkpt lat="44.74857" lon="3.22878">
        <ele>1063.4</ele>
        <time>2022-08-01T13:37:44Z</time>
      </trkpt>
      <trkpt lat="44.74856" lon="3.22888">
        <ele>1061.6</ele>
        <time>2022-08-01T13:37:51Z</time>
      </trkpt>
      <trkpt lat="44.74855" lon="3.22894">
        <ele>1060.7</ele>
        <time>2022-08-01T13:37:56Z</time>
      </trkpt>
      <trkpt lat="44.74856" lon="3.22897">
        <ele>1060.1</ele>
        <time>2022-08-01T13:37:58Z</time>
      </trkpt>
      <trkpt lat="44.74855" lon="3.22899">
        <ele>1059.9</ele>
        <time>2022-08-01T13:38:00Z</time>
      </trkpt>
      <trkpt lat="44.74854" lon="3.22901">
        <ele>1059.8</ele>
        <time>2022-08-01T13:38:04Z</time>
      </trkpt>
      <trkpt lat="44.74853" lon="3.22906">
        <ele>1059.2</ele>
        <time>2022-08-01T13:38:08Z</time>
      </trkpt>
      <trkpt lat="44.74852" lon="3.22907">
        <ele>1059.3</ele>
        <time>2022-08-01T13:38:10Z</time>
      </trkpt>
      <trkpt lat="44.74851" lon="3.22911">
        <ele>1058.8</ele>
        <time>2022-08-01T13:38:13Z</time>
      </trkpt>
      <trkpt lat="44.74851" lon="3.22913">
        <ele>1058.5</ele>
        <time>2022-08-01T13:38:15Z</time>
      </trkpt>
      <trkpt lat="44.74851" lon="3.22916">
        <ele>1058.1</ele>
        <time>2022-08-01T13:38:17Z</time>
      </trkpt>
      <trkpt lat="44.7485" lon="3.22917">
        <ele>1057.9</ele>
        <time>2022-08-01T13:38:18Z</time>
      </trkpt>
      <trkpt lat="44.74853" lon="3.22924">
        <ele>1056.8</ele>
        <time>2022-08-01T13:38:23Z</time>
      </trkpt>
      <trkpt lat="44.74853" lon="3.2293">
        <ele>1056.1</ele>
        <time>2022-08-01T13:38:28Z</time>
      </trkpt>
      <trkpt lat="44.74853" lon="3.22932">
        <ele>1055.9</ele>
        <time>2022-08-01T13:38:29Z</time>
      </trkpt>
      <trkpt lat="44.74853" lon="3.22933">
        <ele>1055.8</ele>
        <time>2022-08-01T13:38:30Z</time>
      </trkpt>
      <trkpt lat="44.74855" lon="3.22935">
        <ele>1055.3</ele>
        <time>2022-08-01T13:38:32Z</time>
      </trkpt>
      <trkpt lat="44.74855" lon="3.22939">
        <ele>1054.9</ele>
        <time>2022-08-01T13:38:35Z</time>
      </trkpt>
      <trkpt lat="44.74856" lon="3.22942">
        <ele>1054.6</ele>
        <time>2022-08-01T13:38:37Z</time>
      </trkpt>
      <trkpt lat="44.74858" lon="3.2295">
        <ele>1054</ele>
        <time>2022-08-01T13:38:43Z</time>
      </trkpt>
      <trkpt lat="44.74858" lon="3.22952">
        <ele>1053.9</ele>
        <time>2022-08-01T13:38:45Z</time>
      </trkpt>
      <trkpt lat="44.74861" lon="3.22962">
        <ele>1053.4</ele>
        <time>2022-08-01T13:38:51Z</time>
      </trkpt>
      <trkpt lat="44.74862" lon="3.22966">
        <ele>1053.5</ele>
        <time>2022-08-01T13:38:54Z</time>
      </trkpt>
      <trkpt lat="44.74866" lon="3.22977">
        <ele>1055</ele>
        <time>2022-08-01T13:39:03Z</time>
      </trkpt>
      <trkpt lat="44.7487" lon="3.2298">
        <ele>1056.5</ele>
        <time>2022-08-01T13:39:10Z</time>
      </trkpt>
      <trkpt lat="44.7487" lon="3.22983">
        <ele>1057</ele>
        <time>2022-08-01T13:39:15Z</time>
      </trkpt>
      <trkpt lat="44.7487" lon="3.22984">
        <ele>1057.2</ele>
        <time>2022-08-01T13:39:16Z</time>
      </trkpt>
      <trkpt lat="44.74873" lon="3.22985">
        <ele>1058.2</ele>
        <time>2022-08-01T13:39:19Z</time>
      </trkpt>
      <trkpt lat="44.74873" lon="3.22985">
        <ele>1058.1</ele>
        <time>2022-08-01T13:39:22Z</time>
      </trkpt>
      <trkpt lat="44.74872" lon="3.22985">
        <ele>1057.9</ele>
        <time>2022-08-01T13:39:41Z</time>
      </trkpt>
      <trkpt lat="44.7487" lon="3.22994">
        <ele>1058.4</ele>
        <time>2022-08-01T13:39:59Z</time>
      </trkpt>
      <trkpt lat="44.74868" lon="3.22998">
        <ele>1058</ele>
        <time>2022-08-01T13:40:04Z</time>
      </trkpt>
      <trkpt lat="44.74868" lon="3.22998">
        <ele>1058.1</ele>
        <time>2022-08-01T13:40:05Z</time>
      </trkpt>
      <trkpt lat="44.74868" lon="3.22992">
        <ele>1057.4</ele>
        <time>2022-08-01T13:40:13Z</time>
      </trkpt>
      <trkpt lat="44.74867" lon="3.22992">
        <ele>1057.1</ele>
        <time>2022-08-01T13:40:20Z</time>
      </trkpt>
      <trkpt lat="44.74866" lon="3.22993">
        <ele>1057.1</ele>
        <time>2022-08-01T13:40:27Z</time>
      </trkpt>
      <trkpt lat="44.74867" lon="3.22993">
        <ele>1057.1</ele>
        <time>2022-08-01T13:40:36Z</time>
      </trkpt>
      <trkpt lat="44.74865" lon="3.22994">
        <ele>1056.8</ele>
        <time>2022-08-01T13:41:10Z</time>
      </trkpt>
      <trkpt lat="44.74865" lon="3.22991">
        <ele>1056.4</ele>
        <time>2022-08-01T13:41:57Z</time>
      </trkpt>
      <trkpt lat="44.74866" lon="3.22991">
        <ele>1056.5</ele>
        <time>2022-08-01T13:42:16Z</time>
      </trkpt>
      <trkpt lat="44.74864" lon="3.22997">
        <ele>1056.8</ele>
        <time>2022-08-01T13:42:20Z</time>
      </trkpt>
      <trkpt lat="44.74859" lon="3.2301">
        <ele>1057.6</ele>
        <time>2022-08-01T13:42:29Z</time>
      </trkpt>
      <trkpt lat="44.74855" lon="3.23022">
        <ele>1059</ele>
        <time>2022-08-01T13:42:39Z</time>
      </trkpt>
      <trkpt lat="44.74852" lon="3.23027">
        <ele>1059</ele>
        <time>2022-08-01T13:42:43Z</time>
      </trkpt>
      <trkpt lat="44.74849" lon="3.23032">
        <ele>1058.4</ele>
        <time>2022-08-01T13:42:48Z</time>
      </trkpt>
      <trkpt lat="44.74848" lon="3.23034">
        <ele>1058.4</ele>
        <time>2022-08-01T13:42:49Z</time>
      </trkpt>
      <trkpt lat="44.74844" lon="3.23047">
        <ele>1058.5</ele>
        <time>2022-08-01T13:42:58Z</time>
      </trkpt>
      <trkpt lat="44.74841" lon="3.23058">
        <ele>1058.8</ele>
        <time>2022-08-01T13:43:06Z</time>
      </trkpt>
      <trkpt lat="44.74836" lon="3.23071">
        <ele>1058.8</ele>
        <time>2022-08-01T13:43:16Z</time>
      </trkpt>
      <trkpt lat="44.74832" lon="3.23082">
        <ele>1059.4</ele>
        <time>2022-08-01T13:43:24Z</time>
      </trkpt>
      <trkpt lat="44.7483" lon="3.23088">
        <ele>1059.3</ele>
        <time>2022-08-01T13:43:29Z</time>
      </trkpt>
      <trkpt lat="44.7483" lon="3.23088">
        <ele>1059.3</ele>
        <time>2022-08-01T13:43:30Z</time>
      </trkpt>
      <trkpt lat="44.7483" lon="3.23088">
        <ele>1059.3</ele>
        <time>2022-08-01T13:43:32Z</time>
      </trkpt>
      <trkpt lat="44.74827" lon="3.23094">
        <ele>1059.2</ele>
        <time>2022-08-01T13:43:45Z</time>
      </trkpt>
      <trkpt lat="44.74827" lon="3.23102">
        <ele>1059.7</ele>
        <time>2022-08-01T13:43:52Z</time>
      </trkpt>
      <trkpt lat="44.74826" lon="3.23106">
        <ele>1059.9</ele>
        <time>2022-08-01T13:43:55Z</time>
      </trkpt>
      <trkpt lat="44.74825" lon="3.23112">
        <ele>1060.2</ele>
        <time>2022-08-01T13:43:59Z</time>
      </trkpt>
      <trkpt lat="44.74824" lon="3.23115">
        <ele>1060.3</ele>
        <time>2022-08-01T13:44:02Z</time>
      </trkpt>
      <trkpt lat="44.74824" lon="3.23122">
        <ele>1060.6</ele>
        <time>2022-08-01T13:44:07Z</time>
      </trkpt>
      <trkpt lat="44.74824" lon="3.23124">
        <ele>1060.7</ele>
        <time>2022-08-01T13:44:08Z</time>
      </trkpt>
      <trkpt lat="44.74824" lon="3.23127">
        <ele>1060.8</ele>
        <time>2022-08-01T13:44:10Z</time>
      </trkpt>
      <trkpt lat="44.74824" lon="3.23131">
        <ele>1061.1</ele>
        <time>2022-08-01T13:44:13Z</time>
      </trkpt>
      <trkpt lat="44.74823" lon="3.23141">
        <ele>1061.6</ele>
        <time>2022-08-01T13:44:20Z</time>
      </trkpt>
      <trkpt lat="44.74823" lon="3.23144">
        <ele>1061.6</ele>
        <time>2022-08-01T13:44:22Z</time>
      </trkpt>
      <trkpt lat="44.74822" lon="3.23147">
        <ele>1061.6</ele>
        <time>2022-08-01T13:44:24Z</time>
      </trkpt>
      <trkpt lat="44.74822" lon="3.23155">
        <ele>1061.9</ele>
        <time>2022-08-01T13:44:30Z</time>
      </trkpt>
      <trkpt lat="44.74821" lon="3.2316">
        <ele>1062</ele>
        <time>2022-08-01T13:44:33Z</time>
      </trkpt>
      <trkpt lat="44.7482" lon="3.23176">
        <ele>1063</ele>
        <time>2022-08-01T13:44:43Z</time>
      </trkpt>
      <trkpt lat="44.7482" lon="3.23183">
        <ele>1063.8</ele>
        <time>2022-08-01T13:44:49Z</time>
      </trkpt>
      <trkpt lat="44.74821" lon="3.23193">
        <ele>1064.9</ele>
        <time>2022-08-01T13:44:56Z</time>
      </trkpt>
      <trkpt lat="44.74826" lon="3.23208">
        <ele>1065.9</ele>
        <time>2022-08-01T13:45:07Z</time>
      </trkpt>
      <trkpt lat="44.74827" lon="3.23216">
        <ele>1066.3</ele>
        <time>2022-08-01T13:45:14Z</time>
      </trkpt>
      <trkpt lat="44.74827" lon="3.23217">
        <ele>1066.3</ele>
        <time>2022-08-01T13:45:15Z</time>
      </trkpt>
      <trkpt lat="44.74829" lon="3.23225">
        <ele>1066.8</ele>
        <time>2022-08-01T13:45:21Z</time>
      </trkpt>
      <trkpt lat="44.7483" lon="3.23228">
        <ele>1067</ele>
        <time>2022-08-01T13:45:23Z</time>
      </trkpt>
      <trkpt lat="44.74829" lon="3.23229">
        <ele>1067</ele>
        <time>2022-08-01T13:45:24Z</time>
      </trkpt>
      <trkpt lat="44.74829" lon="3.23233">
        <ele>1067.2</ele>
        <time>2022-08-01T13:45:27Z</time>
      </trkpt>
      <trkpt lat="44.74831" lon="3.23238">
        <ele>1067.4</ele>
        <time>2022-08-01T13:45:30Z</time>
      </trkpt>
      <trkpt lat="44.74833" lon="3.23247">
        <ele>1067.9</ele>
        <time>2022-08-01T13:45:37Z</time>
      </trkpt>
      <trkpt lat="44.74838" lon="3.2326">
        <ele>1067.6</ele>
        <time>2022-08-01T13:45:46Z</time>
      </trkpt>
      <trkpt lat="44.74838" lon="3.23262">
        <ele>1067.6</ele>
        <time>2022-08-01T13:45:48Z</time>
      </trkpt>
      <trkpt lat="44.74839" lon="3.23268">
        <ele>1067.4</ele>
        <time>2022-08-01T13:45:52Z</time>
      </trkpt>
      <trkpt lat="44.74843" lon="3.23276">
        <ele>1067</ele>
        <time>2022-08-01T13:45:58Z</time>
      </trkpt>
      <trkpt lat="44.74845" lon="3.2328">
        <ele>1066.8</ele>
        <time>2022-08-01T13:46:01Z</time>
      </trkpt>
      <trkpt lat="44.74847" lon="3.23287">
        <ele>1066.4</ele>
        <time>2022-08-01T13:46:09Z</time>
      </trkpt>
      <trkpt lat="44.74848" lon="3.23287">
        <ele>1066.3</ele>
        <time>2022-08-01T13:46:18Z</time>
      </trkpt>
      <trkpt lat="44.74853" lon="3.23292">
        <ele>1065.8</ele>
        <time>2022-08-01T13:46:26Z</time>
      </trkpt>
      <trkpt lat="44.74855" lon="3.23294">
        <ele>1065.5</ele>
        <time>2022-08-01T13:46:29Z</time>
      </trkpt>
      <trkpt lat="44.74858" lon="3.23295">
        <ele>1065.3</ele>
        <time>2022-08-01T13:46:33Z</time>
      </trkpt>
      <trkpt lat="44.74861" lon="3.23299">
        <ele>1064.8</ele>
        <time>2022-08-01T13:46:38Z</time>
      </trkpt>
      <trkpt lat="44.74862" lon="3.23299">
        <ele>1064.6</ele>
        <time>2022-08-01T13:46:40Z</time>
      </trkpt>
      <trkpt lat="44.74871" lon="3.23301">
        <ele>1063.8</ele>
        <time>2022-08-01T13:46:50Z</time>
      </trkpt>
      <trkpt lat="44.74872" lon="3.23303">
        <ele>1063.6</ele>
        <time>2022-08-01T13:46:52Z</time>
      </trkpt>
      <trkpt lat="44.74876" lon="3.23304">
        <ele>1063.1</ele>
        <time>2022-08-01T13:46:58Z</time>
      </trkpt>
      <trkpt lat="44.74883" lon="3.23304">
        <ele>1062.6</ele>
        <time>2022-08-01T13:47:05Z</time>
      </trkpt>
      <trkpt lat="44.74885" lon="3.23306">
        <ele>1062.3</ele>
        <time>2022-08-01T13:47:08Z</time>
      </trkpt>
      <trkpt lat="44.74886" lon="3.23306">
        <ele>1062.1</ele>
        <time>2022-08-01T13:47:09Z</time>
      </trkpt>
      <trkpt lat="44.7489" lon="3.23306">
        <ele>1061.9</ele>
        <time>2022-08-01T13:47:14Z</time>
      </trkpt>
      <trkpt lat="44.74892" lon="3.23307">
        <ele>1061.8</ele>
        <time>2022-08-01T13:47:17Z</time>
      </trkpt>
      <trkpt lat="44.74896" lon="3.23307">
        <ele>1061.9</ele>
        <time>2022-08-01T13:47:24Z</time>
      </trkpt>
      <trkpt lat="44.74896" lon="3.23306">
        <ele>1062</ele>
        <time>2022-08-01T13:47:27Z</time>
      </trkpt>
      <trkpt lat="44.74897" lon="3.23306">
        <ele>1062.2</ele>
        <time>2022-08-01T13:47:33Z</time>
      </trkpt>
      <trkpt lat="44.74902" lon="3.23309">
        <ele>1061.4</ele>
        <time>2022-08-01T13:47:39Z</time>
      </trkpt>
      <trkpt lat="44.74907" lon="3.23313">
        <ele>1059.9</ele>
        <time>2022-08-01T13:47:45Z</time>
      </trkpt>
      <trkpt lat="44.74908" lon="3.23314">
        <ele>1059.8</ele>
        <time>2022-08-01T13:47:46Z</time>
      </trkpt>
      <trkpt lat="44.74915" lon="3.23318">
        <ele>1058.7</ele>
        <time>2022-08-01T13:47:51Z</time>
      </trkpt>
      <trkpt lat="44.74922" lon="3.23323">
        <ele>1057.3</ele>
        <time>2022-08-01T13:47:59Z</time>
      </trkpt>
      <trkpt lat="44.74926" lon="3.23327">
        <ele>1056.2</ele>
        <time>2022-08-01T13:48:05Z</time>
      </trkpt>
      <trkpt lat="44.74932" lon="3.23327">
        <ele>1056.9</ele>
        <time>2022-08-01T13:48:12Z</time>
      </trkpt>
      <trkpt lat="44.74933" lon="3.23327">
        <ele>1057</ele>
        <time>2022-08-01T13:48:13Z</time>
      </trkpt>
      <trkpt lat="44.74938" lon="3.2333">
        <ele>1056.8</ele>
        <time>2022-08-01T13:48:17Z</time>
      </trkpt>
      <trkpt lat="44.74941" lon="3.23332">
        <ele>1056.8</ele>
        <time>2022-08-01T13:48:20Z</time>
      </trkpt>
      <trkpt lat="44.74942" lon="3.23332">
        <ele>1057</ele>
        <time>2022-08-01T13:48:22Z</time>
      </trkpt>
      <trkpt lat="44.74942" lon="3.23332">
        <ele>1057</ele>
        <time>2022-08-01T13:48:25Z</time>
      </trkpt>
      <trkpt lat="44.74945" lon="3.23327">
        <ele>1058.1</ele>
        <time>2022-08-01T13:48:35Z</time>
      </trkpt>
      <trkpt lat="44.7495" lon="3.23333">
        <ele>1057</ele>
        <time>2022-08-01T13:48:42Z</time>
      </trkpt>
      <trkpt lat="44.74951" lon="3.23333">
        <ele>1057</ele>
        <time>2022-08-01T13:48:49Z</time>
      </trkpt>
      <trkpt lat="44.74952" lon="3.23336">
        <ele>1056.3</ele>
        <time>2022-08-01T13:49:04Z</time>
      </trkpt>
      <trkpt lat="44.74956" lon="3.23344">
        <ele>1054.3</ele>
        <time>2022-08-01T13:49:09Z</time>
      </trkpt>
      <trkpt lat="44.74958" lon="3.23346">
        <ele>1053.7</ele>
        <time>2022-08-01T13:49:11Z</time>
      </trkpt>
      <trkpt lat="44.74961" lon="3.23349">
        <ele>1053.2</ele>
        <time>2022-08-01T13:49:14Z</time>
      </trkpt>
      <trkpt lat="44.74963" lon="3.23353">
        <ele>1052.6</ele>
        <time>2022-08-01T13:49:17Z</time>
      </trkpt>
      <trkpt lat="44.74968" lon="3.2336">
        <ele>1051.7</ele>
        <time>2022-08-01T13:49:23Z</time>
      </trkpt>
      <trkpt lat="44.7497" lon="3.23361">
        <ele>1051.6</ele>
        <time>2022-08-01T13:49:25Z</time>
      </trkpt>
      <trkpt lat="44.74978" lon="3.23367">
        <ele>1050.9</ele>
        <time>2022-08-01T13:49:33Z</time>
      </trkpt>
      <trkpt lat="44.74983" lon="3.23372">
        <ele>1049.9</ele>
        <time>2022-08-01T13:49:39Z</time>
      </trkpt>
      <trkpt lat="44.74986" lon="3.23373">
        <ele>1049.5</ele>
        <time>2022-08-01T13:49:42Z</time>
      </trkpt>
      <trkpt lat="44.74991" lon="3.23374">
        <ele>1048.9</ele>
        <time>2022-08-01T13:49:47Z</time>
      </trkpt>
      <trkpt lat="44.74998" lon="3.23376">
        <ele>1048</ele>
        <time>2022-08-01T13:49:53Z</time>
      </trkpt>
      <trkpt lat="44.74999" lon="3.23377">
        <ele>1047.9</ele>
        <time>2022-08-01T13:49:54Z</time>
      </trkpt>
      <trkpt lat="44.75002" lon="3.23379">
        <ele>1047.6</ele>
        <time>2022-08-01T13:49:57Z</time>
      </trkpt>
      <trkpt lat="44.75004" lon="3.23383">
        <ele>1047.2</ele>
        <time>2022-08-01T13:50:00Z</time>
      </trkpt>
      <trkpt lat="44.75008" lon="3.23388">
        <ele>1047</ele>
        <time>2022-08-01T13:50:04Z</time>
      </trkpt>
      <trkpt lat="44.75011" lon="3.23395">
        <ele>1046.5</ele>
        <time>2022-08-01T13:50:09Z</time>
      </trkpt>
      <trkpt lat="44.75012" lon="3.23396">
        <ele>1046.5</ele>
        <time>2022-08-01T13:50:10Z</time>
      </trkpt>
      <trkpt lat="44.75017" lon="3.23401">
        <ele>1046.4</ele>
        <time>2022-08-01T13:50:16Z</time>
      </trkpt>
      <trkpt lat="44.75018" lon="3.23403">
        <ele>1046.3</ele>
        <time>2022-08-01T13:50:17Z</time>
      </trkpt>
      <trkpt lat="44.75024" lon="3.23411">
        <ele>1045.6</ele>
        <time>2022-08-01T13:50:24Z</time>
      </trkpt>
      <trkpt lat="44.75025" lon="3.23412">
        <ele>1045.5</ele>
        <time>2022-08-01T13:50:25Z</time>
      </trkpt>
      <trkpt lat="44.75025" lon="3.23415">
        <ele>1045.1</ele>
        <time>2022-08-01T13:50:27Z</time>
      </trkpt>
      <trkpt lat="44.75025" lon="3.23422">
        <ele>1044.4</ele>
        <time>2022-08-01T13:50:31Z</time>
      </trkpt>
      <trkpt lat="44.75026" lon="3.23426">
        <ele>1043.9</ele>
        <time>2022-08-01T13:50:34Z</time>
      </trkpt>
      <trkpt lat="44.75027" lon="3.23433">
        <ele>1043.2</ele>
        <time>2022-08-01T13:50:38Z</time>
      </trkpt>
      <trkpt lat="44.75026" lon="3.23435">
        <ele>1043.1</ele>
        <time>2022-08-01T13:50:41Z</time>
      </trkpt>
      <trkpt lat="44.75026" lon="3.23437">
        <ele>1042.8</ele>
        <time>2022-08-01T13:50:43Z</time>
      </trkpt>
      <trkpt lat="44.75026" lon="3.23438">
        <ele>1042.7</ele>
        <time>2022-08-01T13:50:44Z</time>
      </trkpt>
      <trkpt lat="44.75025" lon="3.2344">
        <ele>1042.5</ele>
        <time>2022-08-01T13:50:45Z</time>
      </trkpt>
      <trkpt lat="44.75019" lon="3.23449">
        <ele>1041.7</ele>
        <time>2022-08-01T13:50:52Z</time>
      </trkpt>
      <trkpt lat="44.75017" lon="3.23451">
        <ele>1041.5</ele>
        <time>2022-08-01T13:50:54Z</time>
      </trkpt>
      <trkpt lat="44.7501" lon="3.23458">
        <ele>1040.7</ele>
        <time>2022-08-01T13:51:01Z</time>
      </trkpt>
      <trkpt lat="44.75009" lon="3.23459">
        <ele>1040.6</ele>
        <time>2022-08-01T13:51:02Z</time>
      </trkpt>
      <trkpt lat="44.75005" lon="3.23463">
        <ele>1040.1</ele>
        <time>2022-08-01T13:51:07Z</time>
      </trkpt>
      <trkpt lat="44.75002" lon="3.23467">
        <ele>1039.6</ele>
        <time>2022-08-01T13:51:10Z</time>
      </trkpt>
      <trkpt lat="44.74997" lon="3.23474">
        <ele>1038.7</ele>
        <time>2022-08-01T13:51:17Z</time>
      </trkpt>
      <trkpt lat="44.74996" lon="3.23481">
        <ele>1038</ele>
        <time>2022-08-01T13:51:22Z</time>
      </trkpt>
      <trkpt lat="44.74994" lon="3.23487">
        <ele>1037.5</ele>
        <time>2022-08-01T13:51:26Z</time>
      </trkpt>
      <trkpt lat="44.74993" lon="3.23492">
        <ele>1037.1</ele>
        <time>2022-08-01T13:51:29Z</time>
      </trkpt>
      <trkpt lat="44.74993" lon="3.23493">
        <ele>1037</ele>
        <time>2022-08-01T13:51:30Z</time>
      </trkpt>
      <trkpt lat="44.74994" lon="3.23497">
        <ele>1036.8</ele>
        <time>2022-08-01T13:51:34Z</time>
      </trkpt>
      <trkpt lat="44.74993" lon="3.23501">
        <ele>1036.4</ele>
        <time>2022-08-01T13:51:38Z</time>
      </trkpt>
      <trkpt lat="44.74991" lon="3.23512">
        <ele>1035.6</ele>
        <time>2022-08-01T13:51:45Z</time>
      </trkpt>
      <trkpt lat="44.74985" lon="3.23526">
        <ele>1034.6</ele>
        <time>2022-08-01T13:51:54Z</time>
      </trkpt>
      <trkpt lat="44.74981" lon="3.23532">
        <ele>1034.3</ele>
        <time>2022-08-01T13:51:59Z</time>
      </trkpt>
      <trkpt lat="44.74981" lon="3.23532">
        <ele>1034.3</ele>
        <time>2022-08-01T13:52:01Z</time>
      </trkpt>
      <trkpt lat="44.74979" lon="3.23538">
        <ele>1034.2</ele>
        <time>2022-08-01T13:52:07Z</time>
      </trkpt>
      <trkpt lat="44.74975" lon="3.2355">
        <ele>1034</ele>
        <time>2022-08-01T13:52:15Z</time>
      </trkpt>
      <trkpt lat="44.74974" lon="3.23553">
        <ele>1034</ele>
        <time>2022-08-01T13:52:17Z</time>
      </trkpt>
      <trkpt lat="44.74972" lon="3.23567">
        <ele>1033.6</ele>
        <time>2022-08-01T13:52:25Z</time>
      </trkpt>
      <trkpt lat="44.7497" lon="3.23579">
        <ele>1033.2</ele>
        <time>2022-08-01T13:52:32Z</time>
      </trkpt>
      <trkpt lat="44.74969" lon="3.236">
        <ele>1032.4</ele>
        <time>2022-08-01T13:52:44Z</time>
      </trkpt>
      <trkpt lat="44.74969" lon="3.23602">
        <ele>1032.3</ele>
        <time>2022-08-01T13:52:45Z</time>
      </trkpt>
      <trkpt lat="44.74967" lon="3.23621">
        <ele>1031.9</ele>
        <time>2022-08-01T13:52:56Z</time>
      </trkpt>
      <trkpt lat="44.74967" lon="3.23622">
        <ele>1031.9</ele>
        <time>2022-08-01T13:52:57Z</time>
      </trkpt>
      <trkpt lat="44.74967" lon="3.23629">
        <ele>1031.9</ele>
        <time>2022-08-01T13:53:01Z</time>
      </trkpt>
      <trkpt lat="44.74967" lon="3.23633">
        <ele>1031.9</ele>
        <time>2022-08-01T13:53:03Z</time>
      </trkpt>
      <trkpt lat="44.74969" lon="3.23643">
        <ele>1031.8</ele>
        <time>2022-08-01T13:53:09Z</time>
      </trkpt>
      <trkpt lat="44.74969" lon="3.23654">
        <ele>1031.4</ele>
        <time>2022-08-01T13:53:16Z</time>
      </trkpt>
      <trkpt lat="44.7497" lon="3.23659">
        <ele>1031.2</ele>
        <time>2022-08-01T13:53:19Z</time>
      </trkpt>
      <trkpt lat="44.74969" lon="3.23661">
        <ele>1031.2</ele>
        <time>2022-08-01T13:53:22Z</time>
      </trkpt>
      <trkpt lat="44.74968" lon="3.23661">
        <ele>1031.2</ele>
        <time>2022-08-01T13:53:25Z</time>
      </trkpt>
      <trkpt lat="44.74969" lon="3.23663">
        <ele>1031.1</ele>
        <time>2022-08-01T13:53:33Z</time>
      </trkpt>
      <trkpt lat="44.74969" lon="3.23673">
        <ele>1031.2</ele>
        <time>2022-08-01T13:53:40Z</time>
      </trkpt>
      <trkpt lat="44.74968" lon="3.23674">
        <ele>1031.2</ele>
        <time>2022-08-01T13:53:45Z</time>
      </trkpt>
      <trkpt lat="44.7497" lon="3.23682">
        <ele>1031.5</ele>
        <time>2022-08-01T13:53:51Z</time>
      </trkpt>
      <trkpt lat="44.7497" lon="3.23687">
        <ele>1031.7</ele>
        <time>2022-08-01T13:53:57Z</time>
      </trkpt>
      <trkpt lat="44.74969" lon="3.23687">
        <ele>1031.6</ele>
        <time>2022-08-01T13:54:06Z</time>
      </trkpt>
      <trkpt lat="44.7497" lon="3.23694">
        <ele>1031.9</ele>
        <time>2022-08-01T13:54:18Z</time>
      </trkpt>
      <trkpt lat="44.74973" lon="3.23713">
        <ele>1032.3</ele>
        <time>2022-08-01T13:54:27Z</time>
      </trkpt>
      <trkpt lat="44.74972" lon="3.23724">
        <ele>1032</ele>
        <time>2022-08-01T13:54:33Z</time>
      </trkpt>
      <trkpt lat="44.74971" lon="3.23727">
        <ele>1032.1</ele>
        <time>2022-08-01T13:54:35Z</time>
      </trkpt>
      <trkpt lat="44.74971" lon="3.23741">
        <ele>1032.6</ele>
        <time>2022-08-01T13:54:43Z</time>
      </trkpt>
      <trkpt lat="44.74971" lon="3.23742">
        <ele>1032.6</ele>
        <time>2022-08-01T13:54:44Z</time>
      </trkpt>
      <trkpt lat="44.7497" lon="3.23746">
        <ele>1032.6</ele>
        <time>2022-08-01T13:54:46Z</time>
      </trkpt>
      <trkpt lat="44.7497" lon="3.23749">
        <ele>1032.7</ele>
        <time>2022-08-01T13:54:48Z</time>
      </trkpt>
      <trkpt lat="44.7497" lon="3.23757">
        <ele>1033.8</ele>
        <time>2022-08-01T13:54:52Z</time>
      </trkpt>
      <trkpt lat="44.7497" lon="3.2376">
        <ele>1034.3</ele>
        <time>2022-08-01T13:54:54Z</time>
      </trkpt>
      <trkpt lat="44.74969" lon="3.23763">
        <ele>1034.7</ele>
        <time>2022-08-01T13:54:56Z</time>
      </trkpt>
      <trkpt lat="44.74967" lon="3.2377">
        <ele>1035.2</ele>
        <time>2022-08-01T13:55:00Z</time>
      </trkpt>
      <trkpt lat="44.74967" lon="3.23773">
        <ele>1035.5</ele>
        <time>2022-08-01T13:55:02Z</time>
      </trkpt>
      <trkpt lat="44.74965" lon="3.23779">
        <ele>1035.8</ele>
        <time>2022-08-01T13:55:06Z</time>
      </trkpt>
      <trkpt lat="44.74965" lon="3.2378">
        <ele>1036</ele>
        <time>2022-08-01T13:55:07Z</time>
      </trkpt>
      <trkpt lat="44.74963" lon="3.23785">
        <ele>1036</ele>
        <time>2022-08-01T13:55:11Z</time>
      </trkpt>
      <trkpt lat="44.7496" lon="3.23794">
        <ele>1036.1</ele>
        <time>2022-08-01T13:55:16Z</time>
      </trkpt>
      <trkpt lat="44.74959" lon="3.23799">
        <ele>1036.2</ele>
        <time>2022-08-01T13:55:19Z</time>
      </trkpt>
      <trkpt lat="44.74959" lon="3.23802">
        <ele>1036.4</ele>
        <time>2022-08-01T13:55:21Z</time>
      </trkpt>
      <trkpt lat="44.74956" lon="3.23809">
        <ele>1035.8</ele>
        <time>2022-08-01T13:55:25Z</time>
      </trkpt>
      <trkpt lat="44.74952" lon="3.23813">
        <ele>1034.6</ele>
        <time>2022-08-01T13:55:29Z</time>
      </trkpt>
      <trkpt lat="44.74949" lon="3.23818">
        <ele>1033.9</ele>
        <time>2022-08-01T13:55:33Z</time>
      </trkpt>
      <trkpt lat="44.74945" lon="3.23827">
        <ele>1033.1</ele>
        <time>2022-08-01T13:55:40Z</time>
      </trkpt>
      <trkpt lat="44.74941" lon="3.23836">
        <ele>1034.1</ele>
        <time>2022-08-01T13:55:47Z</time>
      </trkpt>
      <trkpt lat="44.74939" lon="3.23845">
        <ele>1035.6</ele>
        <time>2022-08-01T13:55:53Z</time>
      </trkpt>
      <trkpt lat="44.74938" lon="3.23846">
        <ele>1035.8</ele>
        <time>2022-08-01T13:55:54Z</time>
      </trkpt>
      <trkpt lat="44.74938" lon="3.23847">
        <ele>1035.8</ele>
        <time>2022-08-01T13:55:57Z</time>
      </trkpt>
      <trkpt lat="44.74936" lon="3.23846">
        <ele>1035.2</ele>
        <time>2022-08-01T13:56:00Z</time>
      </trkpt>
      <trkpt lat="44.74934" lon="3.23845">
        <ele>1034.2</ele>
        <time>2022-08-01T13:56:03Z</time>
      </trkpt>
      <trkpt lat="44.74933" lon="3.23846">
        <ele>1034</ele>
        <time>2022-08-01T13:56:05Z</time>
      </trkpt>
      <trkpt lat="44.74932" lon="3.23849">
        <ele>1034.1</ele>
        <time>2022-08-01T13:56:07Z</time>
      </trkpt>
      <trkpt lat="44.74927" lon="3.23859">
        <ele>1033.4</ele>
        <time>2022-08-01T13:56:15Z</time>
      </trkpt>
      <trkpt lat="44.74923" lon="3.23867">
        <ele>1032.1</ele>
        <time>2022-08-01T13:56:21Z</time>
      </trkpt>
      <trkpt lat="44.74921" lon="3.2387">
        <ele>1031.5</ele>
        <time>2022-08-01T13:56:23Z</time>
      </trkpt>
      <trkpt lat="44.74921" lon="3.23875">
        <ele>1031.7</ele>
        <time>2022-08-01T13:56:26Z</time>
      </trkpt>
      <trkpt lat="44.74922" lon="3.23882">
        <ele>1032.4</ele>
        <time>2022-08-01T13:56:30Z</time>
      </trkpt>
      <trkpt lat="44.74923" lon="3.23886">
        <ele>1032.9</ele>
        <time>2022-08-01T13:56:33Z</time>
      </trkpt>
      <trkpt lat="44.74924" lon="3.23891">
        <ele>1033.7</ele>
        <time>2022-08-01T13:56:37Z</time>
      </trkpt>
      <trkpt lat="44.74927" lon="3.23896">
        <ele>1034.5</ele>
        <time>2022-08-01T13:56:41Z</time>
      </trkpt>
      <trkpt lat="44.74928" lon="3.23899">
        <ele>1034.7</ele>
        <time>2022-08-01T13:56:43Z</time>
      </trkpt>
      <trkpt lat="44.74932" lon="3.23909">
        <ele>1035.2</ele>
        <time>2022-08-01T13:56:49Z</time>
      </trkpt>
      <trkpt lat="44.74936" lon="3.23917">
        <ele>1035.6</ele>
        <time>2022-08-01T13:56:55Z</time>
      </trkpt>
      <trkpt lat="44.74937" lon="3.23919">
        <ele>1035.6</ele>
        <time>2022-08-01T13:56:56Z</time>
      </trkpt>
      <trkpt lat="44.7494" lon="3.23923">
        <ele>1035.6</ele>
        <time>2022-08-01T13:56:59Z</time>
      </trkpt>
      <trkpt lat="44.74944" lon="3.23929">
        <ele>1035.2</ele>
        <time>2022-08-01T13:57:03Z</time>
      </trkpt>
      <trkpt lat="44.74952" lon="3.2394">
        <ele>1036.2</ele>
        <time>2022-08-01T13:57:11Z</time>
      </trkpt>
      <trkpt lat="44.74958" lon="3.2395">
        <ele>1037.4</ele>
        <time>2022-08-01T13:57:18Z</time>
      </trkpt>
      <trkpt lat="44.74961" lon="3.23961">
        <ele>1037.1</ele>
        <time>2022-08-01T13:57:25Z</time>
      </trkpt>
      <trkpt lat="44.74967" lon="3.23972">
        <ele>1037.1</ele>
        <time>2022-08-01T13:57:33Z</time>
      </trkpt>
      <trkpt lat="44.74967" lon="3.23974">
        <ele>1037.1</ele>
        <time>2022-08-01T13:57:34Z</time>
      </trkpt>
      <trkpt lat="44.74971" lon="3.23981">
        <ele>1037.1</ele>
        <time>2022-08-01T13:57:39Z</time>
      </trkpt>
      <trkpt lat="44.74974" lon="3.23993">
        <ele>1036.1</ele>
        <time>2022-08-01T13:57:46Z</time>
      </trkpt>
      <trkpt lat="44.74977" lon="3.24003">
        <ele>1035.6</ele>
        <time>2022-08-01T13:57:52Z</time>
      </trkpt>
      <trkpt lat="44.74979" lon="3.24009">
        <ele>1035.4</ele>
        <time>2022-08-01T13:57:56Z</time>
      </trkpt>
      <trkpt lat="44.7498" lon="3.24016">
        <ele>1035.1</ele>
        <time>2022-08-01T13:57:59Z</time>
      </trkpt>
      <trkpt lat="44.74979" lon="3.24019">
        <ele>1034.6</ele>
        <time>2022-08-01T13:58:01Z</time>
      </trkpt>
      <trkpt lat="44.74981" lon="3.24025">
        <ele>1034.7</ele>
        <time>2022-08-01T13:58:05Z</time>
      </trkpt>
      <trkpt lat="44.74981" lon="3.24032">
        <ele>1033.6</ele>
        <time>2022-08-01T13:58:10Z</time>
      </trkpt>
      <trkpt lat="44.74981" lon="3.24038">
        <ele>1032.7</ele>
        <time>2022-08-01T13:58:13Z</time>
      </trkpt>
      <trkpt lat="44.74981" lon="3.24043">
        <ele>1032.2</ele>
        <time>2022-08-01T13:58:16Z</time>
      </trkpt>
      <trkpt lat="44.74981" lon="3.24049">
        <ele>1031.3</ele>
        <time>2022-08-01T13:58:19Z</time>
      </trkpt>
      <trkpt lat="44.74982" lon="3.24053">
        <ele>1031</ele>
        <time>2022-08-01T13:58:21Z</time>
      </trkpt>
      <trkpt lat="44.74983" lon="3.24058">
        <ele>1030.9</ele>
        <time>2022-08-01T13:58:24Z</time>
      </trkpt>
      <trkpt lat="44.74984" lon="3.24065">
        <ele>1030.9</ele>
        <time>2022-08-01T13:58:28Z</time>
      </trkpt>
      <trkpt lat="44.74988" lon="3.24073">
        <ele>1031.6</ele>
        <time>2022-08-01T13:58:33Z</time>
      </trkpt>
      <trkpt lat="44.74988" lon="3.24075">
        <ele>1031.5</ele>
        <time>2022-08-01T13:58:34Z</time>
      </trkpt>
      <trkpt lat="44.74993" lon="3.24087">
        <ele>1032.1</ele>
        <time>2022-08-01T13:58:40Z</time>
      </trkpt>
      <trkpt lat="44.74993" lon="3.24089">
        <ele>1032</ele>
        <time>2022-08-01T13:58:41Z</time>
      </trkpt>
      <trkpt lat="44.74993" lon="3.24091">
        <ele>1031.7</ele>
        <time>2022-08-01T13:58:42Z</time>
      </trkpt>
      <trkpt lat="44.74992" lon="3.241">
        <ele>1030.9</ele>
        <time>2022-08-01T13:58:47Z</time>
      </trkpt>
      <trkpt lat="44.7499" lon="3.24112">
        <ele>1029.6</ele>
        <time>2022-08-01T13:58:54Z</time>
      </trkpt>
      <trkpt lat="44.74991" lon="3.24121">
        <ele>1029.7</ele>
        <time>2022-08-01T13:58:59Z</time>
      </trkpt>
      <trkpt lat="44.74991" lon="3.24124">
        <ele>1029.6</ele>
        <time>2022-08-01T13:59:01Z</time>
      </trkpt>
      <trkpt lat="44.74991" lon="3.24126">
        <ele>1029.7</ele>
        <time>2022-08-01T13:59:02Z</time>
      </trkpt>
      <trkpt lat="44.74992" lon="3.24131">
        <ele>1029.9</ele>
        <time>2022-08-01T13:59:05Z</time>
      </trkpt>
      <trkpt lat="44.74991" lon="3.24137">
        <ele>1029.8</ele>
        <time>2022-08-01T13:59:08Z</time>
      </trkpt>
      <trkpt lat="44.74991" lon="3.24138">
        <ele>1029.8</ele>
        <time>2022-08-01T13:59:09Z</time>
      </trkpt>
      <trkpt lat="44.74991" lon="3.24148">
        <ele>1029.8</ele>
        <time>2022-08-01T13:59:15Z</time>
      </trkpt>
      <trkpt lat="44.7499" lon="3.24163">
        <ele>1029.5</ele>
        <time>2022-08-01T13:59:23Z</time>
      </trkpt>
      <trkpt lat="44.74989" lon="3.24166">
        <ele>1029.3</ele>
        <time>2022-08-01T13:59:25Z</time>
      </trkpt>
      <trkpt lat="44.7499" lon="3.24175">
        <ele>1029.2</ele>
        <time>2022-08-01T13:59:29Z</time>
      </trkpt>
      <trkpt lat="44.74989" lon="3.2418">
        <ele>1029.1</ele>
        <time>2022-08-01T13:59:32Z</time>
      </trkpt>
      <trkpt lat="44.74991" lon="3.24183">
        <ele>1029.6</ele>
        <time>2022-08-01T13:59:35Z</time>
      </trkpt>
      <trkpt lat="44.74991" lon="3.24184">
        <ele>1029.6</ele>
        <time>2022-08-01T13:59:38Z</time>
      </trkpt>
      <trkpt lat="44.74991" lon="3.24184">
        <ele>1029.4</ele>
        <time>2022-08-01T13:59:39Z</time>
      </trkpt>
      <trkpt lat="44.74993" lon="3.24186">
        <ele>1030.1</ele>
        <time>2022-08-01T13:59:45Z</time>
      </trkpt>
      <trkpt lat="44.74992" lon="3.24185">
        <ele>1029.7</ele>
        <time>2022-08-01T13:59:53Z</time>
      </trkpt>
      <trkpt lat="44.74992" lon="3.24185">
        <ele>1029.7</ele>
        <time>2022-08-01T13:59:59Z</time>
      </trkpt>
      <trkpt lat="44.74991" lon="3.24192">
        <ele>1029.3</ele>
        <time>2022-08-01T14:00:19Z</time>
      </trkpt>
      <trkpt lat="44.74989" lon="3.24203">
        <ele>1027.7</ele>
        <time>2022-08-01T14:00:25Z</time>
      </trkpt>
      <trkpt lat="44.74987" lon="3.24208">
        <ele>1026.8</ele>
        <time>2022-08-01T14:00:27Z</time>
      </trkpt>
      <trkpt lat="44.74988" lon="3.24211">
        <ele>1026.5</ele>
        <time>2022-08-01T14:00:29Z</time>
      </trkpt>
      <trkpt lat="44.74989" lon="3.24221">
        <ele>1025.5</ele>
        <time>2022-08-01T14:00:35Z</time>
      </trkpt>
      <trkpt lat="44.74989" lon="3.24225">
        <ele>1025.3</ele>
        <time>2022-08-01T14:00:37Z</time>
      </trkpt>
      <trkpt lat="44.7499" lon="3.2423">
        <ele>1025.2</ele>
        <time>2022-08-01T14:00:40Z</time>
      </trkpt>
      <trkpt lat="44.74992" lon="3.24235">
        <ele>1025.2</ele>
        <time>2022-08-01T14:00:43Z</time>
      </trkpt>
      <trkpt lat="44.74993" lon="3.24239">
        <ele>1025.1</ele>
        <time>2022-08-01T14:00:45Z</time>
      </trkpt>
      <trkpt lat="44.74994" lon="3.24242">
        <ele>1025</ele>
        <time>2022-08-01T14:00:47Z</time>
      </trkpt>
      <trkpt lat="44.74994" lon="3.24243">
        <ele>1025</ele>
        <time>2022-08-01T14:00:48Z</time>
      </trkpt>
      <trkpt lat="44.74996" lon="3.24251">
        <ele>1024.7</ele>
        <time>2022-08-01T14:00:54Z</time>
      </trkpt>
      <trkpt lat="44.74997" lon="3.24253">
        <ele>1024.7</ele>
        <time>2022-08-01T14:00:55Z</time>
      </trkpt>
      <trkpt lat="44.75002" lon="3.24258">
        <ele>1025.2</ele>
        <time>2022-08-01T14:01:00Z</time>
      </trkpt>
      <trkpt lat="44.75004" lon="3.24261">
        <ele>1025.6</ele>
        <time>2022-08-01T14:01:03Z</time>
      </trkpt>
      <trkpt lat="44.75004" lon="3.24267">
        <ele>1025.4</ele>
        <time>2022-08-01T14:01:06Z</time>
      </trkpt>
      <trkpt lat="44.75005" lon="3.2427">
        <ele>1025.3</ele>
        <time>2022-08-01T14:01:08Z</time>
      </trkpt>
      <trkpt lat="44.75006" lon="3.24271">
        <ele>1025.4</ele>
        <time>2022-08-01T14:01:09Z</time>
      </trkpt>
      <trkpt lat="44.75007" lon="3.24274">
        <ele>1025.5</ele>
        <time>2022-08-01T14:01:11Z</time>
      </trkpt>
      <trkpt lat="44.75009" lon="3.2428">
        <ele>1025.5</ele>
        <time>2022-08-01T14:01:15Z</time>
      </trkpt>
      <trkpt lat="44.75012" lon="3.24294">
        <ele>1025.1</ele>
        <time>2022-08-01T14:01:23Z</time>
      </trkpt>
      <trkpt lat="44.75013" lon="3.24295">
        <ele>1025</ele>
        <time>2022-08-01T14:01:24Z</time>
      </trkpt>
      <trkpt lat="44.75014" lon="3.24303">
        <ele>1024.8</ele>
        <time>2022-08-01T14:01:28Z</time>
      </trkpt>
      <trkpt lat="44.75017" lon="3.24315">
        <ele>1025.1</ele>
        <time>2022-08-01T14:01:35Z</time>
      </trkpt>
      <trkpt lat="44.7502" lon="3.24331">
        <ele>1025.6</ele>
        <time>2022-08-01T14:01:44Z</time>
      </trkpt>
      <trkpt lat="44.75022" lon="3.24338">
        <ele>1025.7</ele>
        <time>2022-08-01T14:01:48Z</time>
      </trkpt>
      <trkpt lat="44.75024" lon="3.24341">
        <ele>1025.8</ele>
        <time>2022-08-01T14:01:50Z</time>
      </trkpt>
      <trkpt lat="44.75025" lon="3.24342">
        <ele>1025.8</ele>
        <time>2022-08-01T14:01:51Z</time>
      </trkpt>
      <trkpt lat="44.75025" lon="3.24349">
        <ele>1025.5</ele>
        <time>2022-08-01T14:01:55Z</time>
      </trkpt>
      <trkpt lat="44.75028" lon="3.24359">
        <ele>1025.2</ele>
        <time>2022-08-01T14:02:01Z</time>
      </trkpt>
      <trkpt lat="44.75029" lon="3.24368">
        <ele>1025.5</ele>
        <time>2022-08-01T14:02:06Z</time>
      </trkpt>
      <trkpt lat="44.75029" lon="3.24372">
        <ele>1025.5</ele>
        <time>2022-08-01T14:02:08Z</time>
      </trkpt>
      <trkpt lat="44.75028" lon="3.2438">
        <ele>1024.4</ele>
        <time>2022-08-01T14:02:13Z</time>
      </trkpt>
      <trkpt lat="44.75027" lon="3.24383">
        <ele>1024.1</ele>
        <time>2022-08-01T14:02:15Z</time>
      </trkpt>
      <trkpt lat="44.75025" lon="3.2439">
        <ele>1023.9</ele>
        <time>2022-08-01T14:02:19Z</time>
      </trkpt>
      <trkpt lat="44.75024" lon="3.24395">
        <ele>1024.1</ele>
        <time>2022-08-01T14:02:22Z</time>
      </trkpt>
      <trkpt lat="44.75023" lon="3.24399">
        <ele>1024.1</ele>
        <time>2022-08-01T14:02:24Z</time>
      </trkpt>
      <trkpt lat="44.75022" lon="3.24406">
        <ele>1024.5</ele>
        <time>2022-08-01T14:02:28Z</time>
      </trkpt>
      <trkpt lat="44.75021" lon="3.2441">
        <ele>1024.5</ele>
        <time>2022-08-01T14:02:30Z</time>
      </trkpt>
      <trkpt lat="44.75019" lon="3.24418">
        <ele>1024.5</ele>
        <time>2022-08-01T14:02:35Z</time>
      </trkpt>
      <trkpt lat="44.75015" lon="3.24427">
        <ele>1024.1</ele>
        <time>2022-08-01T14:02:40Z</time>
      </trkpt>
      <trkpt lat="44.75014" lon="3.24431">
        <ele>1024.1</ele>
        <time>2022-08-01T14:02:43Z</time>
      </trkpt>
      <trkpt lat="44.75012" lon="3.24437">
        <ele>1023.8</ele>
        <time>2022-08-01T14:02:47Z</time>
      </trkpt>
      <trkpt lat="44.75013" lon="3.24442">
        <ele>1024</ele>
        <time>2022-08-01T14:02:50Z</time>
      </trkpt>
      <trkpt lat="44.75005" lon="3.24456">
        <ele>1023.1</ele>
        <time>2022-08-01T14:02:58Z</time>
      </trkpt>
      <trkpt lat="44.75001" lon="3.24466">
        <ele>1022.7</ele>
        <time>2022-08-01T14:03:05Z</time>
      </trkpt>
      <trkpt lat="44.75" lon="3.24469">
        <ele>1022.6</ele>
        <time>2022-08-01T14:03:07Z</time>
      </trkpt>
      <trkpt lat="44.74993" lon="3.2448">
        <ele>1022.9</ele>
        <time>2022-08-01T14:03:16Z</time>
      </trkpt>
      <trkpt lat="44.74992" lon="3.24486">
        <ele>1023.5</ele>
        <time>2022-08-01T14:03:20Z</time>
      </trkpt>
      <trkpt lat="44.74992" lon="3.24491">
        <ele>1023.8</ele>
        <time>2022-08-01T14:03:22Z</time>
      </trkpt>
      <trkpt lat="44.74991" lon="3.24492">
        <ele>1023.8</ele>
        <time>2022-08-01T14:03:23Z</time>
      </trkpt>
      <trkpt lat="44.7499" lon="3.24493">
        <ele>1023.7</ele>
        <time>2022-08-01T14:03:24Z</time>
      </trkpt>
      <trkpt lat="44.74988" lon="3.24495">
        <ele>1023.4</ele>
        <time>2022-08-01T14:03:28Z</time>
      </trkpt>
      <trkpt lat="44.74988" lon="3.24495">
        <ele>1023.3</ele>
        <time>2022-08-01T14:03:29Z</time>
      </trkpt>
      <trkpt lat="44.74987" lon="3.24494">
        <ele>1023.2</ele>
        <time>2022-08-01T14:03:31Z</time>
      </trkpt>
      <trkpt lat="44.74987" lon="3.24494">
        <ele>1023.2</ele>
        <time>2022-08-01T14:03:32Z</time>
      </trkpt>
      <trkpt lat="44.74987" lon="3.24494">
        <ele>1023.2</ele>
        <time>2022-08-01T14:03:34Z</time>
      </trkpt>
      <trkpt lat="44.74987" lon="3.24494">
        <ele>1023.1</ele>
        <time>2022-08-01T14:03:36Z</time>
      </trkpt>
      <trkpt lat="44.74987" lon="3.24508">
        <ele>1024.7</ele>
        <time>2022-08-01T14:03:44Z</time>
      </trkpt>
      <trkpt lat="44.74984" lon="3.24521">
        <ele>1025.2</ele>
        <time>2022-08-01T14:03:51Z</time>
      </trkpt>
      <trkpt lat="44.7498" lon="3.2453">
        <ele>1024.9</ele>
        <time>2022-08-01T14:03:57Z</time>
      </trkpt>
      <trkpt lat="44.74979" lon="3.24531">
        <ele>1024.5</ele>
        <time>2022-08-01T14:03:58Z</time>
      </trkpt>
      <trkpt lat="44.74973" lon="3.24539">
        <ele>1022.7</ele>
        <time>2022-08-01T14:04:05Z</time>
      </trkpt>
      <trkpt lat="44.74969" lon="3.24549">
        <ele>1022.6</ele>
        <time>2022-08-01T14:04:12Z</time>
      </trkpt>
      <trkpt lat="44.74964" lon="3.24557">
        <ele>1022.7</ele>
        <time>2022-08-01T14:04:18Z</time>
      </trkpt>
      <trkpt lat="44.74963" lon="3.24559">
        <ele>1022.8</ele>
        <time>2022-08-01T14:04:19Z</time>
      </trkpt>
      <trkpt lat="44.7496" lon="3.24566">
        <ele>1023.4</ele>
        <time>2022-08-01T14:04:23Z</time>
      </trkpt>
      <trkpt lat="44.74959" lon="3.24568">
        <ele>1023.6</ele>
        <time>2022-08-01T14:04:24Z</time>
      </trkpt>
      <trkpt lat="44.74957" lon="3.24571">
        <ele>1023.7</ele>
        <time>2022-08-01T14:04:26Z</time>
      </trkpt>
      <trkpt lat="44.74951" lon="3.24585">
        <ele>1023.6</ele>
        <time>2022-08-01T14:04:35Z</time>
      </trkpt>
      <trkpt lat="44.74945" lon="3.24596">
        <ele>1022.4</ele>
        <time>2022-08-01T14:04:43Z</time>
      </trkpt>
      <trkpt lat="44.74937" lon="3.24605">
        <ele>1022.1</ele>
        <time>2022-08-01T14:04:51Z</time>
      </trkpt>
      <trkpt lat="44.74935" lon="3.24608">
        <ele>1021.9</ele>
        <time>2022-08-01T14:04:53Z</time>
      </trkpt>
      <trkpt lat="44.74934" lon="3.24618">
        <ele>1023.5</ele>
        <time>2022-08-01T14:04:59Z</time>
      </trkpt>
      <trkpt lat="44.74932" lon="3.2462">
        <ele>1023.1</ele>
        <time>2022-08-01T14:05:02Z</time>
      </trkpt>
      <trkpt lat="44.74931" lon="3.2462">
        <ele>1022.8</ele>
        <time>2022-08-01T14:05:04Z</time>
      </trkpt>
      <trkpt lat="44.74931" lon="3.2462">
        <ele>1022.8</ele>
        <time>2022-08-01T14:05:06Z</time>
      </trkpt>
      <trkpt lat="44.7493" lon="3.2462">
        <ele>1022.3</ele>
        <time>2022-08-01T14:05:08Z</time>
      </trkpt>
      <trkpt lat="44.7493" lon="3.2462">
        <ele>1022.5</ele>
        <time>2022-08-01T14:05:09Z</time>
      </trkpt>
      <trkpt lat="44.74933" lon="3.2462">
        <ele>1023.6</ele>
        <time>2022-08-01T14:05:17Z</time>
      </trkpt>
      <trkpt lat="44.74932" lon="3.24622">
        <ele>1023.6</ele>
        <time>2022-08-01T14:05:26Z</time>
      </trkpt>
      <trkpt lat="44.7493" lon="3.24628">
        <ele>1023.9</ele>
        <time>2022-08-01T14:05:36Z</time>
      </trkpt>
      <trkpt lat="44.74928" lon="3.24636">
        <ele>1024</ele>
        <time>2022-08-01T14:05:40Z</time>
      </trkpt>
      <trkpt lat="44.74928" lon="3.24638">
        <ele>1024.2</ele>
        <time>2022-08-01T14:05:41Z</time>
      </trkpt>
      <trkpt lat="44.74927" lon="3.24641">
        <ele>1024.3</ele>
        <time>2022-08-01T14:05:43Z</time>
      </trkpt>
      <trkpt lat="44.74926" lon="3.24647">
        <ele>1023.4</ele>
        <time>2022-08-01T14:05:46Z</time>
      </trkpt>
      <trkpt lat="44.74924" lon="3.24649">
        <ele>1022.9</ele>
        <time>2022-08-01T14:05:48Z</time>
      </trkpt>
      <trkpt lat="44.74925" lon="3.2466">
        <ele>1023.8</ele>
        <time>2022-08-01T14:05:55Z</time>
      </trkpt>
      <trkpt lat="44.74923" lon="3.24674">
        <ele>1022.7</ele>
        <time>2022-08-01T14:06:03Z</time>
      </trkpt>
      <trkpt lat="44.74921" lon="3.24687">
        <ele>1021.7</ele>
        <time>2022-08-01T14:06:11Z</time>
      </trkpt>
      <trkpt lat="44.7492" lon="3.24696">
        <ele>1021.9</ele>
        <time>2022-08-01T14:06:17Z</time>
      </trkpt>
      <trkpt lat="44.74921" lon="3.24698">
        <ele>1022.6</ele>
        <time>2022-08-01T14:06:18Z</time>
      </trkpt>
      <trkpt lat="44.74921" lon="3.24699">
        <ele>1022.7</ele>
        <time>2022-08-01T14:06:19Z</time>
      </trkpt>
      <trkpt lat="44.7492" lon="3.24707">
        <ele>1022.9</ele>
        <time>2022-08-01T14:06:24Z</time>
      </trkpt>
      <trkpt lat="44.74918" lon="3.2472">
        <ele>1022.7</ele>
        <time>2022-08-01T14:06:31Z</time>
      </trkpt>
      <trkpt lat="44.74917" lon="3.24721">
        <ele>1021.8</ele>
        <time>2022-08-01T14:06:33Z</time>
      </trkpt>
      <trkpt lat="44.74916" lon="3.24721">
        <ele>1021.7</ele>
        <time>2022-08-01T14:06:34Z</time>
      </trkpt>
      <trkpt lat="44.74915" lon="3.24723">
        <ele>1021.3</ele>
        <time>2022-08-01T14:06:41Z</time>
      </trkpt>
      <trkpt lat="44.7491" lon="3.24735">
        <ele>1020.4</ele>
        <time>2022-08-01T14:06:48Z</time>
      </trkpt>
      <trkpt lat="44.7491" lon="3.24736">
        <ele>1020.2</ele>
        <time>2022-08-01T14:06:49Z</time>
      </trkpt>
      <trkpt lat="44.74908" lon="3.24738">
        <ele>1019.9</ele>
        <time>2022-08-01T14:06:53Z</time>
      </trkpt>
      <trkpt lat="44.74908" lon="3.24737">
        <ele>1019.7</ele>
        <time>2022-08-01T14:06:54Z</time>
      </trkpt>
      <trkpt lat="44.74907" lon="3.24735">
        <ele>1019.3</ele>
        <time>2022-08-01T14:06:57Z</time>
      </trkpt>
      <trkpt lat="44.74906" lon="3.24735">
        <ele>1019.1</ele>
        <time>2022-08-01T14:07:02Z</time>
      </trkpt>
      <trkpt lat="44.74907" lon="3.24735">
        <ele>1019.3</ele>
        <time>2022-08-01T14:07:13Z</time>
      </trkpt>
      <trkpt lat="44.74908" lon="3.24735">
        <ele>1019.6</ele>
        <time>2022-08-01T14:07:30Z</time>
      </trkpt>
      <trkpt lat="44.74905" lon="3.24748">
        <ele>1019</ele>
        <time>2022-08-01T14:07:38Z</time>
      </trkpt>
      <trkpt lat="44.74905" lon="3.24755">
        <ele>1019.2</ele>
        <time>2022-08-01T14:07:45Z</time>
      </trkpt>
      <trkpt lat="44.74903" lon="3.24765">
        <ele>1018.8</ele>
        <time>2022-08-01T14:07:51Z</time>
      </trkpt>
      <trkpt lat="44.74904" lon="3.24778">
        <ele>1019.6</ele>
        <time>2022-08-01T14:07:59Z</time>
      </trkpt>
      <trkpt lat="44.74904" lon="3.2478">
        <ele>1019.6</ele>
        <time>2022-08-01T14:08:00Z</time>
      </trkpt>
      <trkpt lat="44.74904" lon="3.2479">
        <ele>1019.9</ele>
        <time>2022-08-01T14:08:06Z</time>
      </trkpt>
      <trkpt lat="44.74904" lon="3.24793">
        <ele>1020</ele>
        <time>2022-08-01T14:08:08Z</time>
      </trkpt>
      <trkpt lat="44.74903" lon="3.24803">
        <ele>1020</ele>
        <time>2022-08-01T14:08:14Z</time>
      </trkpt>
      <trkpt lat="44.74903" lon="3.24808">
        <ele>1020.2</ele>
        <time>2022-08-01T14:08:17Z</time>
      </trkpt>
      <trkpt lat="44.74901" lon="3.24824">
        <ele>1019.3</ele>
        <time>2022-08-01T14:08:25Z</time>
      </trkpt>
      <trkpt lat="44.74901" lon="3.24831">
        <ele>1019.2</ele>
        <time>2022-08-01T14:08:29Z</time>
      </trkpt>
      <trkpt lat="44.74901" lon="3.24834">
        <ele>1019.3</ele>
        <time>2022-08-01T14:08:31Z</time>
      </trkpt>
      <trkpt lat="44.749" lon="3.24836">
        <ele>1019.1</ele>
        <time>2022-08-01T14:08:32Z</time>
      </trkpt>
      <trkpt lat="44.74898" lon="3.2484">
        <ele>1018.5</ele>
        <time>2022-08-01T14:08:36Z</time>
      </trkpt>
      <trkpt lat="44.74899" lon="3.24842">
        <ele>1018.7</ele>
        <time>2022-08-01T14:08:37Z</time>
      </trkpt>
      <trkpt lat="44.74899" lon="3.24853">
        <ele>1019.6</ele>
        <time>2022-08-01T14:08:44Z</time>
      </trkpt>
      <trkpt lat="44.74899" lon="3.24857">
        <ele>1019.6</ele>
        <time>2022-08-01T14:08:47Z</time>
      </trkpt>
      <trkpt lat="44.74898" lon="3.24861">
        <ele>1019.8</ele>
        <time>2022-08-01T14:08:49Z</time>
      </trkpt>
      <trkpt lat="44.74897" lon="3.24868">
        <ele>1019.4</ele>
        <time>2022-08-01T14:08:53Z</time>
      </trkpt>
      <trkpt lat="44.74897" lon="3.24878">
        <ele>1019.2</ele>
        <time>2022-08-01T14:08:59Z</time>
      </trkpt>
      <trkpt lat="44.74897" lon="3.24882">
        <ele>1019.9</ele>
        <time>2022-08-01T14:09:01Z</time>
      </trkpt>
      <trkpt lat="44.74897" lon="3.24885">
        <ele>1019.6</ele>
        <time>2022-08-01T14:09:02Z</time>
      </trkpt>
      <trkpt lat="44.74892" lon="3.24895">
        <ele>1016.6</ele>
        <time>2022-08-01T14:09:08Z</time>
      </trkpt>
      <trkpt lat="44.74892" lon="3.24896">
        <ele>1016.7</ele>
        <time>2022-08-01T14:09:09Z</time>
      </trkpt>
      <trkpt lat="44.74892" lon="3.24904">
        <ele>1016.8</ele>
        <time>2022-08-01T14:09:14Z</time>
      </trkpt>
      <trkpt lat="44.74891" lon="3.24913">
        <ele>1016.8</ele>
        <time>2022-08-01T14:09:20Z</time>
      </trkpt>
      <trkpt lat="44.74892" lon="3.24926">
        <ele>1017.7</ele>
        <time>2022-08-01T14:09:27Z</time>
      </trkpt>
      <trkpt lat="44.74891" lon="3.2493">
        <ele>1017.7</ele>
        <time>2022-08-01T14:09:29Z</time>
      </trkpt>
      <trkpt lat="44.74889" lon="3.24941">
        <ele>1016.8</ele>
        <time>2022-08-01T14:09:35Z</time>
      </trkpt>
      <trkpt lat="44.74889" lon="3.24943">
        <ele>1017</ele>
        <time>2022-08-01T14:09:36Z</time>
      </trkpt>
      <trkpt lat="44.74889" lon="3.24948">
        <ele>1017.2</ele>
        <time>2022-08-01T14:09:39Z</time>
      </trkpt>
      <trkpt lat="44.74887" lon="3.24954">
        <ele>1017.2</ele>
        <time>2022-08-01T14:09:43Z</time>
      </trkpt>
      <trkpt lat="44.74886" lon="3.24963">
        <ele>1017.5</ele>
        <time>2022-08-01T14:09:48Z</time>
      </trkpt>
      <trkpt lat="44.74886" lon="3.24969">
        <ele>1017.8</ele>
        <time>2022-08-01T14:09:51Z</time>
      </trkpt>
      <trkpt lat="44.74887" lon="3.24979">
        <ele>1019.1</ele>
        <time>2022-08-01T14:09:57Z</time>
      </trkpt>
      <trkpt lat="44.74888" lon="3.24981">
        <ele>1019.5</ele>
        <time>2022-08-01T14:09:58Z</time>
      </trkpt>
      <trkpt lat="44.74888" lon="3.24986">
        <ele>1020.1</ele>
        <time>2022-08-01T14:10:01Z</time>
      </trkpt>
      <trkpt lat="44.74888" lon="3.24988">
        <ele>1020.3</ele>
        <time>2022-08-01T14:10:02Z</time>
      </trkpt>
      <trkpt lat="44.74888" lon="3.24993">
        <ele>1020.9</ele>
        <time>2022-08-01T14:10:05Z</time>
      </trkpt>
      <trkpt lat="44.74889" lon="3.24997">
        <ele>1021.7</ele>
        <time>2022-08-01T14:10:08Z</time>
      </trkpt>
      <trkpt lat="44.74889" lon="3.24999">
        <ele>1021.7</ele>
        <time>2022-08-01T14:10:09Z</time>
      </trkpt>
      <trkpt lat="44.74889" lon="3.2501">
        <ele>1022.4</ele>
        <time>2022-08-01T14:10:16Z</time>
      </trkpt>
      <trkpt lat="44.74889" lon="3.25017">
        <ele>1022.7</ele>
        <time>2022-08-01T14:10:21Z</time>
      </trkpt>
      <trkpt lat="44.7489" lon="3.25024">
        <ele>1023.1</ele>
        <time>2022-08-01T14:10:25Z</time>
      </trkpt>
      <trkpt lat="44.74891" lon="3.25031">
        <ele>1022.8</ele>
        <time>2022-08-01T14:10:29Z</time>
      </trkpt>
      <trkpt lat="44.74891" lon="3.25033">
        <ele>1022.6</ele>
        <time>2022-08-01T14:10:30Z</time>
      </trkpt>
      <trkpt lat="44.74891" lon="3.25035">
        <ele>1022.2</ele>
        <time>2022-08-01T14:10:32Z</time>
      </trkpt>
      <trkpt lat="44.74892" lon="3.25037">
        <ele>1022</ele>
        <time>2022-08-01T14:10:33Z</time>
      </trkpt>
      <trkpt lat="44.74892" lon="3.25038">
        <ele>1021.8</ele>
        <time>2022-08-01T14:10:34Z</time>
      </trkpt>
      <trkpt lat="44.74894" lon="3.25042">
        <ele>1021.4</ele>
        <time>2022-08-01T14:10:37Z</time>
      </trkpt>
      <trkpt lat="44.74895" lon="3.25043">
        <ele>1021.3</ele>
        <time>2022-08-01T14:10:38Z</time>
      </trkpt>
      <trkpt lat="44.74895" lon="3.25044">
        <ele>1021.2</ele>
        <time>2022-08-01T14:10:39Z</time>
      </trkpt>
      <trkpt lat="44.74896" lon="3.25046">
        <ele>1020.9</ele>
        <time>2022-08-01T14:10:43Z</time>
      </trkpt>
      <trkpt lat="44.74895" lon="3.25046">
        <ele>1020.8</ele>
        <time>2022-08-01T14:10:45Z</time>
      </trkpt>
      <trkpt lat="44.74896" lon="3.25047">
        <ele>1020.7</ele>
        <time>2022-08-01T14:10:47Z</time>
      </trkpt>
      <trkpt lat="44.74898" lon="3.25049">
        <ele>1020.5</ele>
        <time>2022-08-01T14:10:50Z</time>
      </trkpt>
      <trkpt lat="44.74906" lon="3.25055">
        <ele>1019.7</ele>
        <time>2022-08-01T14:10:58Z</time>
      </trkpt>
      <trkpt lat="44.74917" lon="3.25056">
        <ele>1020</ele>
        <time>2022-08-01T14:11:08Z</time>
      </trkpt>
      <trkpt lat="44.74927" lon="3.25053">
        <ele>1019.9</ele>
        <time>2022-08-01T14:11:16Z</time>
      </trkpt>
      <trkpt lat="44.74929" lon="3.25052">
        <ele>1020</ele>
        <time>2022-08-01T14:11:18Z</time>
      </trkpt>
      <trkpt lat="44.74939" lon="3.2505">
        <ele>1020</ele>
        <time>2022-08-01T14:11:26Z</time>
      </trkpt>
      <trkpt lat="44.74951" lon="3.25048">
        <ele>1020.2</ele>
        <time>2022-08-01T14:11:36Z</time>
      </trkpt>
      <trkpt lat="44.74966" lon="3.25043">
        <ele>1020.9</ele>
        <time>2022-08-01T14:11:49Z</time>
      </trkpt>
      <trkpt lat="44.74973" lon="3.25041">
        <ele>1021</ele>
        <time>2022-08-01T14:11:59Z</time>
      </trkpt>
      <trkpt lat="44.74973" lon="3.25042">
        <ele>1020.9</ele>
        <time>2022-08-01T14:12:01Z</time>
      </trkpt>
      <trkpt lat="44.74974" lon="3.25042">
        <ele>1020.7</ele>
        <time>2022-08-01T14:12:07Z</time>
      </trkpt>
      <trkpt lat="44.74973" lon="3.25047">
        <ele>1019.9</ele>
        <time>2022-08-01T14:12:28Z</time>
      </trkpt>
      <trkpt lat="44.74973" lon="3.25048">
        <ele>1019.5</ele>
        <time>2022-08-01T14:12:29Z</time>
      </trkpt>
      <trkpt lat="44.74965" lon="3.25056">
        <ele>1018</ele>
        <time>2022-08-01T14:12:35Z</time>
      </trkpt>
      <trkpt lat="44.74963" lon="3.25056">
        <ele>1017.9</ele>
        <time>2022-08-01T14:12:37Z</time>
      </trkpt>
      <trkpt lat="44.7496" lon="3.25056">
        <ele>1017.9</ele>
        <time>2022-08-01T14:12:41Z</time>
      </trkpt>
      <trkpt lat="44.74957" lon="3.25057">
        <ele>1017.8</ele>
        <time>2022-08-01T14:12:43Z</time>
      </trkpt>
      <trkpt lat="44.74955" lon="3.25057">
        <ele>1017.7</ele>
        <time>2022-08-01T14:12:45Z</time>
      </trkpt>
      <trkpt lat="44.74948" lon="3.2506">
        <ele>1017.2</ele>
        <time>2022-08-01T14:12:51Z</time>
      </trkpt>
      <trkpt lat="44.74947" lon="3.25061">
        <ele>1017.1</ele>
        <time>2022-08-01T14:12:52Z</time>
      </trkpt>
      <trkpt lat="44.74941" lon="3.25063">
        <ele>1016.8</ele>
        <time>2022-08-01T14:12:58Z</time>
      </trkpt>
      <trkpt lat="44.74935" lon="3.25065">
        <ele>1016.4</ele>
        <time>2022-08-01T14:13:03Z</time>
      </trkpt>
      <trkpt lat="44.7493" lon="3.25067">
        <ele>1016</ele>
        <time>2022-08-01T14:13:07Z</time>
      </trkpt>
      <trkpt lat="44.74924" lon="3.25069">
        <ele>1015.1</ele>
        <time>2022-08-01T14:13:13Z</time>
      </trkpt>
      <trkpt lat="44.74923" lon="3.2507">
        <ele>1014.8</ele>
        <time>2022-08-01T14:13:14Z</time>
      </trkpt>
      <trkpt lat="44.74917" lon="3.25074">
        <ele>1013.4</ele>
        <time>2022-08-01T14:13:19Z</time>
      </trkpt>
      <trkpt lat="44.74916" lon="3.25075">
        <ele>1013.1</ele>
        <time>2022-08-01T14:13:20Z</time>
      </trkpt>
      <trkpt lat="44.74913" lon="3.25076">
        <ele>1012.7</ele>
        <time>2022-08-01T14:13:22Z</time>
      </trkpt>
      <trkpt lat="44.74906" lon="3.2508">
        <ele>1010.8</ele>
        <time>2022-08-01T14:13:28Z</time>
      </trkpt>
      <trkpt lat="44.74901" lon="3.25082">
        <ele>1009.9</ele>
        <time>2022-08-01T14:13:32Z</time>
      </trkpt>
      <trkpt lat="44.74899" lon="3.25083">
        <ele>1009.5</ele>
        <time>2022-08-01T14:13:34Z</time>
      </trkpt>
      <trkpt lat="44.74891" lon="3.25084">
        <ele>1009</ele>
        <time>2022-08-01T14:13:40Z</time>
      </trkpt>
      <trkpt lat="44.7489" lon="3.25084">
        <ele>1009</ele>
        <time>2022-08-01T14:13:41Z</time>
      </trkpt>
      <trkpt lat="44.74878" lon="3.25086">
        <ele>1008.4</ele>
        <time>2022-08-01T14:13:51Z</time>
      </trkpt>
      <trkpt lat="44.74865" lon="3.25089">
        <ele>1007.7</ele>
        <time>2022-08-01T14:14:03Z</time>
      </trkpt>
      <trkpt lat="44.74853" lon="3.25091">
        <ele>1007.6</ele>
        <time>2022-08-01T14:14:12Z</time>
      </trkpt>
      <trkpt lat="44.7485" lon="3.25091">
        <ele>1007.7</ele>
        <time>2022-08-01T14:14:15Z</time>
      </trkpt>
      <trkpt lat="44.74844" lon="3.25092">
        <ele>1007.8</ele>
        <time>2022-08-01T14:14:20Z</time>
      </trkpt>
      <trkpt lat="44.74833" lon="3.25092">
        <ele>1008.1</ele>
        <time>2022-08-01T14:14:30Z</time>
      </trkpt>
      <trkpt lat="44.74818" lon="3.2509">
        <ele>1009.7</ele>
        <time>2022-08-01T14:14:41Z</time>
      </trkpt>
      <trkpt lat="44.74817" lon="3.2509">
        <ele>1009.8</ele>
        <time>2022-08-01T14:14:42Z</time>
      </trkpt>
      <trkpt lat="44.74813" lon="3.25088">
        <ele>1010.2</ele>
        <time>2022-08-01T14:14:46Z</time>
      </trkpt>
      <trkpt lat="44.74812" lon="3.25088">
        <ele>1010.3</ele>
        <time>2022-08-01T14:14:47Z</time>
      </trkpt>
      <trkpt lat="44.74807" lon="3.25086">
        <ele>1010.8</ele>
        <time>2022-08-01T14:14:52Z</time>
      </trkpt>
      <trkpt lat="44.74807" lon="3.25086">
        <ele>1010.8</ele>
        <time>2022-08-01T14:14:54Z</time>
      </trkpt>
      <trkpt lat="44.74807" lon="3.25086">
        <ele>1010.9</ele>
        <time>2022-08-01T14:14:56Z</time>
      </trkpt>
      <trkpt lat="44.74804" lon="3.25087">
        <ele>1011.2</ele>
        <time>2022-08-01T14:15:00Z</time>
      </trkpt>
      <trkpt lat="44.74804" lon="3.25087">
        <ele>1011.4</ele>
        <time>2022-08-01T14:15:01Z</time>
      </trkpt>
      <trkpt lat="44.74798" lon="3.25087">
        <ele>1012.5</ele>
        <time>2022-08-01T14:15:06Z</time>
      </trkpt>
      <trkpt lat="44.74795" lon="3.25089">
        <ele>1013.1</ele>
        <time>2022-08-01T14:15:09Z</time>
      </trkpt>
      <trkpt lat="44.74792" lon="3.25089">
        <ele>1013.4</ele>
        <time>2022-08-01T14:15:11Z</time>
      </trkpt>
      <trkpt lat="44.74786" lon="3.25091">
        <ele>1014.4</ele>
        <time>2022-08-01T14:15:17Z</time>
      </trkpt>
      <trkpt lat="44.74783" lon="3.25092">
        <ele>1014.9</ele>
        <time>2022-08-01T14:15:20Z</time>
      </trkpt>
      <trkpt lat="44.74781" lon="3.25093">
        <ele>1015.1</ele>
        <time>2022-08-01T14:15:22Z</time>
      </trkpt>
      <trkpt lat="44.74776" lon="3.25096">
        <ele>1015.5</ele>
        <time>2022-08-01T14:15:26Z</time>
      </trkpt>
      <trkpt lat="44.74766" lon="3.25099">
        <ele>1016.5</ele>
        <time>2022-08-01T14:15:35Z</time>
      </trkpt>
      <trkpt lat="44.74765" lon="3.251">
        <ele>1016.5</ele>
        <time>2022-08-01T14:15:36Z</time>
      </trkpt>
      <trkpt lat="44.74756" lon="3.25103">
        <ele>1017.2</ele>
        <time>2022-08-01T14:15:44Z</time>
      </trkpt>
      <trkpt lat="44.74754" lon="3.25104">
        <ele>1017.3</ele>
        <time>2022-08-01T14:15:46Z</time>
      </trkpt>
      <trkpt lat="44.74746" lon="3.25108">
        <ele>1017.3</ele>
        <time>2022-08-01T14:15:53Z</time>
      </trkpt>
      <trkpt lat="44.74744" lon="3.25109">
        <ele>1017.3</ele>
        <time>2022-08-01T14:15:55Z</time>
      </trkpt>
      <trkpt lat="44.74739" lon="3.25113">
        <ele>1017.4</ele>
        <time>2022-08-01T14:16:00Z</time>
      </trkpt>
      <trkpt lat="44.74737" lon="3.25114">
        <ele>1017.6</ele>
        <time>2022-08-01T14:16:02Z</time>
      </trkpt>
      <trkpt lat="44.7473" lon="3.25118">
        <ele>1018.2</ele>
        <time>2022-08-01T14:16:08Z</time>
      </trkpt>
      <trkpt lat="44.74725" lon="3.25121">
        <ele>1018.6</ele>
        <time>2022-08-01T14:16:12Z</time>
      </trkpt>
      <trkpt lat="44.74718" lon="3.25125">
        <ele>1019</ele>
        <time>2022-08-01T14:16:18Z</time>
      </trkpt>
      <trkpt lat="44.7471" lon="3.25129">
        <ele>1019.4</ele>
        <time>2022-08-01T14:16:25Z</time>
      </trkpt>
      <trkpt lat="44.74696" lon="3.25135">
        <ele>1020.2</ele>
        <time>2022-08-01T14:16:37Z</time>
      </trkpt>
      <trkpt lat="44.74685" lon="3.25141">
        <ele>1020.8</ele>
        <time>2022-08-01T14:16:48Z</time>
      </trkpt>
      <trkpt lat="44.74674" lon="3.25148">
        <ele>1021</ele>
        <time>2022-08-01T14:16:59Z</time>
      </trkpt>
      <trkpt lat="44.74669" lon="3.25151">
        <ele>1021</ele>
        <time>2022-08-01T14:17:03Z</time>
      </trkpt>
      <trkpt lat="44.74663" lon="3.25154">
        <ele>1021.4</ele>
        <time>2022-08-01T14:17:08Z</time>
      </trkpt>
      <trkpt lat="44.74662" lon="3.25155">
        <ele>1021.5</ele>
        <time>2022-08-01T14:17:09Z</time>
      </trkpt>
      <trkpt lat="44.74655" lon="3.25159">
        <ele>1022</ele>
        <time>2022-08-01T14:17:15Z</time>
      </trkpt>
      <trkpt lat="44.74651" lon="3.2516">
        <ele>1022.4</ele>
        <time>2022-08-01T14:17:21Z</time>
      </trkpt>
      <trkpt lat="44.7465" lon="3.2516">
        <ele>1022.5</ele>
        <time>2022-08-01T14:17:23Z</time>
      </trkpt>
      <trkpt lat="44.74651" lon="3.2516">
        <ele>1022.4</ele>
        <time>2022-08-01T14:17:24Z</time>
      </trkpt>
      <trkpt lat="44.74652" lon="3.2516">
        <ele>1022.2</ele>
        <time>2022-08-01T14:17:29Z</time>
      </trkpt>
      <trkpt lat="44.74652" lon="3.2516">
        <ele>1022.2</ele>
        <time>2022-08-01T14:17:31Z</time>
      </trkpt>
      <trkpt lat="44.74652" lon="3.2516">
        <ele>1022.1</ele>
        <time>2022-08-01T14:17:40Z</time>
      </trkpt>
      <trkpt lat="44.74652" lon="3.2516">
        <ele>1022.1</ele>
        <time>2022-08-01T14:17:43Z</time>
      </trkpt>
      <trkpt lat="44.74652" lon="3.2516">
        <ele>1022.1</ele>
        <time>2022-08-01T14:17:44Z</time>
      </trkpt>
      <trkpt lat="44.74652" lon="3.2516">
        <ele>1022.1</ele>
        <time>2022-08-01T14:17:45Z</time>
      </trkpt>
      <trkpt lat="44.74652" lon="3.2516">
        <ele>1022.1</ele>
        <time>2022-08-01T14:17:46Z</time>
      </trkpt>
      <trkpt lat="44.74652" lon="3.2516">
        <ele>1022.1</ele>
        <time>2022-08-01T14:17:47Z</time>
      </trkpt>
      <trkpt lat="44.74652" lon="3.2516">
        <ele>1022.1</ele>
        <time>2022-08-01T14:17:48Z</time>
      </trkpt>
      <trkpt lat="44.74652" lon="3.2516">
        <ele>1022.1</ele>
        <time>2022-08-01T14:17:49Z</time>
      </trkpt>
      <trkpt lat="44.74652" lon="3.2516">
        <ele>1022.1</ele>
        <time>2022-08-01T14:17:50Z</time>
      </trkpt>
      <trkpt lat="44.74652" lon="3.2516">
        <ele>1022.1</ele>
        <time>2022-08-01T14:17:51Z</time>
      </trkpt>
      <trkpt lat="44.74653" lon="3.2516">
        <ele>1022.1</ele>
        <time>2022-08-01T14:17:53Z</time>
      </trkpt>
      <trkpt lat="44.74653" lon="3.2516">
        <ele>1022.1</ele>
        <time>2022-08-01T14:17:54Z</time>
      </trkpt>
      <trkpt lat="44.74653" lon="3.2516">
        <ele>1022.1</ele>
        <time>2022-08-01T14:17:55Z</time>
      </trkpt>
      <trkpt lat="44.74653" lon="3.2516">
        <ele>1022</ele>
        <time>2022-08-01T14:17:56Z</time>
      </trkpt>
      <trkpt lat="44.74654" lon="3.2516">
        <ele>1021.9</ele>
        <time>2022-08-01T14:17:57Z</time>
      </trkpt>
      <trkpt lat="44.74655" lon="3.2516">
        <ele>1021.8</ele>
        <time>2022-08-01T14:17:58Z</time>
      </trkpt>
      <trkpt lat="44.74655" lon="3.2516">
        <ele>1021.7</ele>
        <time>2022-08-01T14:17:59Z</time>
      </trkpt>
      <trkpt lat="44.74655" lon="3.2516">
        <ele>1021.7</ele>
        <time>2022-08-01T14:18:00Z</time>
      </trkpt>
      <trkpt lat="44.74655" lon="3.2516">
        <ele>1021.7</ele>
        <time>2022-08-01T14:18:01Z</time>
      </trkpt>
      <trkpt lat="44.74655" lon="3.2516">
        <ele>1021.8</ele>
        <time>2022-08-01T14:18:03Z</time>
      </trkpt>
      <trkpt lat="44.74655" lon="3.25159">
        <ele>1021.8</ele>
        <time>2022-08-01T14:18:06Z</time>
      </trkpt>
      <trkpt lat="44.74655" lon="3.25159">
        <ele>1021.9</ele>
        <time>2022-08-01T14:18:07Z</time>
      </trkpt>
      <trkpt lat="44.74654" lon="3.25158">
        <ele>1022.3</ele>
        <time>2022-08-01T14:18:09Z</time>
      </trkpt>
      <trkpt lat="44.74653" lon="3.25158">
        <ele>1022.4</ele>
        <time>2022-08-01T14:18:10Z</time>
      </trkpt>
      <trkpt lat="44.74653" lon="3.25158">
        <ele>1022.4</ele>
        <time>2022-08-01T14:18:11Z</time>
      </trkpt>
      <trkpt lat="44.74653" lon="3.25158">
        <ele>1022.4</ele>
        <time>2022-08-01T14:18:15Z</time>
      </trkpt>
      <trkpt lat="44.74653" lon="3.25158">
        <ele>1022.4</ele>
        <time>2022-08-01T14:18:18Z</time>
      </trkpt>
      <trkpt lat="44.74653" lon="3.25158">
        <ele>1022.4</ele>
        <time>2022-08-01T14:18:19Z</time>
      </trkpt>
      <trkpt lat="44.74652" lon="3.25158">
        <ele>1022.6</ele>
        <time>2022-08-01T14:18:22Z</time>
      </trkpt>
      <trkpt lat="44.74652" lon="3.25158">
        <ele>1022.6</ele>
        <time>2022-08-01T14:18:23Z</time>
      </trkpt>
      <trkpt lat="44.74652" lon="3.25158">
        <ele>1022.5</ele>
        <time>2022-08-01T14:18:25Z</time>
      </trkpt>
      <trkpt lat="44.74651" lon="3.2516">
        <ele>1022.4</ele>
        <time>2022-08-01T14:18:35Z</time>
      </trkpt>
      <trkpt lat="44.74648" lon="3.25161">
        <ele>1022.7</ele>
        <time>2022-08-01T14:18:38Z</time>
      </trkpt>
      <trkpt lat="44.74647" lon="3.25162">
        <ele>1022.7</ele>
        <time>2022-08-01T14:18:40Z</time>
      </trkpt>
      <trkpt lat="44.74646" lon="3.25163">
        <ele>1022.7</ele>
        <time>2022-08-01T14:18:41Z</time>
      </trkpt>
      <trkpt lat="44.74645" lon="3.25163">
        <ele>1022.8</ele>
        <time>2022-08-01T14:18:43Z</time>
      </trkpt>
      <trkpt lat="44.74644" lon="3.25164">
        <ele>1022.8</ele>
        <time>2022-08-01T14:18:45Z</time>
      </trkpt>
      <trkpt lat="44.74643" lon="3.25163">
        <ele>1023</ele>
        <time>2022-08-01T14:18:50Z</time>
      </trkpt>
      <trkpt lat="44.74643" lon="3.25163">
        <ele>1023</ele>
        <time>2022-08-01T14:18:52Z</time>
      </trkpt>
      <trkpt lat="44.74643" lon="3.25163">
        <ele>1023</ele>
        <time>2022-08-01T14:18:53Z</time>
      </trkpt>
      <trkpt lat="44.74643" lon="3.25163">
        <ele>1023</ele>
        <time>2022-08-01T14:18:55Z</time>
      </trkpt>
      <trkpt lat="44.74643" lon="3.25163">
        <ele>1023</ele>
        <time>2022-08-01T14:18:59Z</time>
      </trkpt>
      <trkpt lat="44.74643" lon="3.25163">
        <ele>1023</ele>
        <time>2022-08-01T14:19:02Z</time>
      </trkpt>
      <trkpt lat="44.74643" lon="3.25163">
        <ele>1023</ele>
        <time>2022-08-01T14:19:03Z</time>
      </trkpt>
      <trkpt lat="44.74643" lon="3.25163">
        <ele>1023</ele>
        <time>2022-08-01T14:19:04Z</time>
      </trkpt>
      <trkpt lat="44.74643" lon="3.25163">
        <ele>1023</ele>
        <time>2022-08-01T14:19:05Z</time>
      </trkpt>
      <trkpt lat="44.74643" lon="3.25163">
        <ele>1023</ele>
        <time>2022-08-01T14:19:06Z</time>
      </trkpt>
      <trkpt lat="44.74643" lon="3.25163">
        <ele>1023</ele>
        <time>2022-08-01T14:19:08Z</time>
      </trkpt>
      <trkpt lat="44.74643" lon="3.25165">
        <ele>1022.8</ele>
        <time>2022-08-01T14:19:26Z</time>
      </trkpt>
      <trkpt lat="44.74643" lon="3.25165">
        <ele>1022.8</ele>
        <time>2022-08-01T14:19:44Z</time>
      </trkpt>
      <trkpt lat="44.74645" lon="3.25166">
        <ele>1022.2</ele>
        <time>2022-08-01T14:20:16Z</time>
      </trkpt>
      <trkpt lat="44.74645" lon="3.25166">
        <ele>1022.1</ele>
        <time>2022-08-01T14:20:24Z</time>
      </trkpt>
      <trkpt lat="44.74652" lon="3.25165">
        <ele>1021.4</ele>
        <time>2022-08-01T14:21:13Z</time>
      </trkpt>
      <trkpt lat="44.74652" lon="3.25166">
        <ele>1021.2</ele>
        <time>2022-08-01T14:21:16Z</time>
      </trkpt>
      <trkpt lat="44.74652" lon="3.25167">
        <ele>1021</ele>
        <time>2022-08-01T14:21:24Z</time>
      </trkpt>
      <trkpt lat="44.74652" lon="3.25167">
        <ele>1021</ele>
        <time>2022-08-01T14:21:25Z</time>
      </trkpt>
      <trkpt lat="44.74652" lon="3.25167">
        <ele>1021</ele>
        <time>2022-08-01T14:21:26Z</time>
      </trkpt>
      <trkpt lat="44.74652" lon="3.25167">
        <ele>1021</ele>
        <time>2022-08-01T14:21:29Z</time>
      </trkpt>
      <trkpt lat="44.74652" lon="3.25167">
        <ele>1021.1</ele>
        <time>2022-08-01T14:21:30Z</time>
      </trkpt>
      <trkpt lat="44.74652" lon="3.25167">
        <ele>1021.1</ele>
        <time>2022-08-01T14:21:31Z</time>
      </trkpt>
      <trkpt lat="44.74651" lon="3.25167">
        <ele>1021.2</ele>
        <time>2022-08-01T14:21:32Z</time>
      </trkpt>
      <trkpt lat="44.74651" lon="3.25167">
        <ele>1021.2</ele>
        <time>2022-08-01T14:21:33Z</time>
      </trkpt>
      <trkpt lat="44.7465" lon="3.25167">
        <ele>1021.4</ele>
        <time>2022-08-01T14:21:35Z</time>
      </trkpt>
      <trkpt lat="44.74649" lon="3.25167">
        <ele>1021.4</ele>
        <time>2022-08-01T14:21:36Z</time>
      </trkpt>
      <trkpt lat="44.74648" lon="3.25167">
        <ele>1021.6</ele>
        <time>2022-08-01T14:21:38Z</time>
      </trkpt>
      <trkpt lat="44.74647" lon="3.25167">
        <ele>1021.7</ele>
        <time>2022-08-01T14:21:40Z</time>
      </trkpt>
      <trkpt lat="44.74646" lon="3.25167">
        <ele>1021.9</ele>
        <time>2022-08-01T14:21:42Z</time>
      </trkpt>
      <trkpt lat="44.74646" lon="3.25167">
        <ele>1021.9</ele>
        <time>2022-08-01T14:21:43Z</time>
      </trkpt>
      <trkpt lat="44.74644" lon="3.25167">
        <ele>1022.2</ele>
        <time>2022-08-01T14:21:48Z</time>
      </trkpt>
      <trkpt lat="44.74644" lon="3.25167">
        <ele>1022.3</ele>
        <time>2022-08-01T14:21:50Z</time>
      </trkpt>
      <trkpt lat="44.74643" lon="3.25167">
        <ele>1022.4</ele>
        <time>2022-08-01T14:21:56Z</time>
      </trkpt>
      <trkpt lat="44.74642" lon="3.25167">
        <ele>1022.5</ele>
        <time>2022-08-01T14:22:01Z</time>
      </trkpt>
      <trkpt lat="44.74642" lon="3.25167">
        <ele>1022.5</ele>
        <time>2022-08-01T14:22:03Z</time>
      </trkpt>
      <trkpt lat="44.74642" lon="3.25167">
        <ele>1022.5</ele>
        <time>2022-08-01T14:22:05Z</time>
      </trkpt>
      <trkpt lat="44.74642" lon="3.25167">
        <ele>1022.6</ele>
        <time>2022-08-01T14:22:06Z</time>
      </trkpt>
      <trkpt lat="44.74642" lon="3.25167">
        <ele>1022.6</ele>
        <time>2022-08-01T14:22:07Z</time>
      </trkpt>
      <trkpt lat="44.74642" lon="3.25167">
        <ele>1022.6</ele>
        <time>2022-08-01T14:22:09Z</time>
      </trkpt>
      <trkpt lat="44.74642" lon="3.25167">
        <ele>1022.6</ele>
        <time>2022-08-01T14:22:10Z</time>
      </trkpt>
      <trkpt lat="44.74642" lon="3.25167">
        <ele>1022.6</ele>
        <time>2022-08-01T14:22:13Z</time>
      </trkpt>
      <trkpt lat="44.74642" lon="3.25167">
        <ele>1022.6</ele>
        <time>2022-08-01T14:22:15Z</time>
      </trkpt>
      <trkpt lat="44.74642" lon="3.25167">
        <ele>1022.6</ele>
        <time>2022-08-01T14:22:17Z</time>
      </trkpt>
      <trkpt lat="44.74642" lon="3.25167">
        <ele>1022.6</ele>
        <time>2022-08-01T14:22:18Z</time>
      </trkpt>
      <trkpt lat="44.74642" lon="3.25167">
        <ele>1022.6</ele>
        <time>2022-08-01T14:22:20Z</time>
      </trkpt>
      <trkpt lat="44.74642" lon="3.25167">
        <ele>1022.6</ele>
        <time>2022-08-01T14:22:22Z</time>
      </trkpt>
      <trkpt lat="44.74642" lon="3.25167">
        <ele>1022.6</ele>
        <time>2022-08-01T14:22:25Z</time>
      </trkpt>
      <trkpt lat="44.74642" lon="3.25167">
        <ele>1022.6</ele>
        <time>2022-08-01T14:22:29Z</time>
      </trkpt>
      <trkpt lat="44.74642" lon="3.25167">
        <ele>1022.6</ele>
        <time>2022-08-01T14:22:33Z</time>
      </trkpt>
      <trkpt lat="44.74642" lon="3.25167">
        <ele>1022.6</ele>
        <time>2022-08-01T14:22:35Z</time>
      </trkpt>
      <trkpt lat="44.74642" lon="3.25167">
        <ele>1022.6</ele>
        <time>2022-08-01T14:22:40Z</time>
      </trkpt>
      <trkpt lat="44.74642" lon="3.25167">
        <ele>1022.6</ele>
        <time>2022-08-01T14:22:42Z</time>
      </trkpt>
      <trkpt lat="44.74642" lon="3.25167">
        <ele>1022.6</ele>
        <time>2022-08-01T14:22:43Z</time>
      </trkpt>
      <trkpt lat="44.74642" lon="3.25167">
        <ele>1022.6</ele>
        <time>2022-08-01T14:22:44Z</time>
      </trkpt>
      <trkpt lat="44.74642" lon="3.25167">
        <ele>1022.6</ele>
        <time>2022-08-01T14:22:46Z</time>
      </trkpt>
      <trkpt lat="44.74642" lon="3.25167">
        <ele>1022.6</ele>
        <time>2022-08-01T14:22:49Z</time>
      </trkpt>
      <trkpt lat="44.74641" lon="3.25167">
        <ele>1022.6</ele>
        <time>2022-08-01T14:22:58Z</time>
      </trkpt>
      <trkpt lat="44.74641" lon="3.25167">
        <ele>1022.6</ele>
        <time>2022-08-01T14:23:06Z</time>
      </trkpt>
      <trkpt lat="44.74641" lon="3.25167">
        <ele>1022.6</ele>
        <time>2022-08-01T14:23:07Z</time>
      </trkpt>
      <trkpt lat="44.74641" lon="3.25167">
        <ele>1022.6</ele>
        <time>2022-08-01T14:23:08Z</time>
      </trkpt>
      <trkpt lat="44.74641" lon="3.25167">
        <ele>1022.6</ele>
        <time>2022-08-01T14:23:09Z</time>
      </trkpt>
      <trkpt lat="44.74641" lon="3.25167">
        <ele>1022.6</ele>
        <time>2022-08-01T14:23:10Z</time>
      </trkpt>
      <trkpt lat="44.74641" lon="3.25167">
        <ele>1022.6</ele>
        <time>2022-08-01T14:23:11Z</time>
      </trkpt>
      <trkpt lat="44.74641" lon="3.25167">
        <ele>1022.6</ele>
        <time>2022-08-01T14:23:12Z</time>
      </trkpt>
      <trkpt lat="44.74641" lon="3.25167">
        <ele>1022.6</ele>
        <time>2022-08-01T14:23:13Z</time>
      </trkpt>
      <trkpt lat="44.74641" lon="3.25167">
        <ele>1022.6</ele>
        <time>2022-08-01T14:23:14Z</time>
      </trkpt>
      <trkpt lat="44.74641" lon="3.25167">
        <ele>1022.6</ele>
        <time>2022-08-01T14:23:16Z</time>
      </trkpt>
      <trkpt lat="44.74641" lon="3.25167">
        <ele>1022.6</ele>
        <time>2022-08-01T14:23:18Z</time>
      </trkpt>
      <trkpt lat="44.74641" lon="3.25167">
        <ele>1022.6</ele>
        <time>2022-08-01T14:23:20Z</time>
      </trkpt>
      <trkpt lat="44.74641" lon="3.25167">
        <ele>1022.6</ele>
        <time>2022-08-01T14:23:21Z</time>
      </trkpt>
      <trkpt lat="44.74641" lon="3.25167">
        <ele>1022.6</ele>
        <time>2022-08-01T14:23:22Z</time>
      </trkpt>
      <trkpt lat="44.74641" lon="3.25167">
        <ele>1022.6</ele>
        <time>2022-08-01T14:23:23Z</time>
      </trkpt>
      <trkpt lat="44.74641" lon="3.25167">
        <ele>1022.6</ele>
        <time>2022-08-01T14:23:24Z</time>
      </trkpt>
      <trkpt lat="44.74641" lon="3.25167">
        <ele>1022.6</ele>
        <time>2022-08-01T14:23:25Z</time>
      </trkpt>
      <trkpt lat="44.74641" lon="3.25167">
        <ele>1022.7</ele>
        <time>2022-08-01T14:23:28Z</time>
      </trkpt>
      <trkpt lat="44.74641" lon="3.25166">
        <ele>1022.8</ele>
        <time>2022-08-01T14:24:16Z</time>
      </trkpt>
      <trkpt lat="44.74641" lon="3.25166">
        <ele>1022.9</ele>
        <time>2022-08-01T14:24:45Z</time>
      </trkpt>
      <trkpt lat="44.74641" lon="3.25165">
        <ele>1022.9</ele>
        <time>2022-08-01T14:25:26Z</time>
      </trkpt>
      <trkpt lat="44.74641" lon="3.25164">
        <ele>1023.1</ele>
        <time>2022-08-01T14:27:22Z</time>
      </trkpt>
      <trkpt lat="44.74641" lon="3.25164">
        <ele>1023.2</ele>
        <time>2022-08-01T14:27:48Z</time>
      </trkpt>
      <trkpt lat="44.74641" lon="3.25164">
        <ele>1023.3</ele>
        <time>2022-08-01T14:29:14Z</time>
      </trkpt>
      <trkpt lat="44.74641" lon="3.25163">
        <ele>1023.3</ele>
        <time>2022-08-01T14:30:39Z</time>
      </trkpt>
      <trkpt lat="44.74641" lon="3.25163">
        <ele>1023.4</ele>
        <time>2022-08-01T14:31:52Z</time>
      </trkpt>
      <trkpt lat="44.74641" lon="3.25163">
        <ele>1023.4</ele>
        <time>2022-08-01T14:31:59Z</time>
      </trkpt>
      <trkpt lat="44.74641" lon="3.25163">
        <ele>1023.3</ele>
        <time>2022-08-01T14:32:51Z</time>
      </trkpt>
      <trkpt lat="44.74641" lon="3.25163">
        <ele>1023.4</ele>
        <time>2022-08-01T14:33:27Z</time>
      </trkpt>
      <trkpt lat="44.74635" lon="3.25168">
        <ele>1023.1</ele>
        <time>2022-08-01T14:34:05Z</time>
      </trkpt>
      <trkpt lat="44.74629" lon="3.25172">
        <ele>1022.9</ele>
        <time>2022-08-01T14:34:10Z</time>
      </trkpt>
      <trkpt lat="44.74626" lon="3.25172">
        <ele>1023</ele>
        <time>2022-08-01T14:34:12Z</time>
      </trkpt>
      <trkpt lat="44.74621" lon="3.25173">
        <ele>1023.2</ele>
        <time>2022-08-01T14:34:17Z</time>
      </trkpt>
      <trkpt lat="44.7462" lon="3.25174">
        <ele>1023.2</ele>
        <time>2022-08-01T14:34:18Z</time>
      </trkpt>
      <trkpt lat="44.74617" lon="3.25176">
        <ele>1023.2</ele>
        <time>2022-08-01T14:34:21Z</time>
      </trkpt>
      <trkpt lat="44.74608" lon="3.25182">
        <ele>1022.9</ele>
        <time>2022-08-01T14:34:31Z</time>
      </trkpt>
      <trkpt lat="44.74598" lon="3.25188">
        <ele>1022.5</ele>
        <time>2022-08-01T14:34:40Z</time>
      </trkpt>
      <trkpt lat="44.74592" lon="3.25194">
        <ele>1022.5</ele>
        <time>2022-08-01T14:34:47Z</time>
      </trkpt>
      <trkpt lat="44.74591" lon="3.25195">
        <ele>1022.4</ele>
        <time>2022-08-01T14:34:48Z</time>
      </trkpt>
      <trkpt lat="44.74588" lon="3.25205">
        <ele>1022.5</ele>
        <time>2022-08-01T14:34:55Z</time>
      </trkpt>
      <trkpt lat="44.74588" lon="3.25208">
        <ele>1022.5</ele>
        <time>2022-08-01T14:34:57Z</time>
      </trkpt>
      <trkpt lat="44.74588" lon="3.25215">
        <ele>1022.4</ele>
        <time>2022-08-01T14:35:01Z</time>
      </trkpt>
      <trkpt lat="44.74588" lon="3.25222">
        <ele>1022.3</ele>
        <time>2022-08-01T14:35:05Z</time>
      </trkpt>
      <trkpt lat="44.74586" lon="3.25233">
        <ele>1022.2</ele>
        <time>2022-08-01T14:35:12Z</time>
      </trkpt>
      <trkpt lat="44.74586" lon="3.25236">
        <ele>1022.2</ele>
        <time>2022-08-01T14:35:14Z</time>
      </trkpt>
      <trkpt lat="44.74581" lon="3.25249">
        <ele>1022</ele>
        <time>2022-08-01T14:35:23Z</time>
      </trkpt>
      <trkpt lat="44.74576" lon="3.25259">
        <ele>1022.2</ele>
        <time>2022-08-01T14:35:30Z</time>
      </trkpt>
      <trkpt lat="44.74574" lon="3.25262">
        <ele>1022.3</ele>
        <time>2022-08-01T14:35:33Z</time>
      </trkpt>
      <trkpt lat="44.74565" lon="3.25276">
        <ele>1023.2</ele>
        <time>2022-08-01T14:35:44Z</time>
      </trkpt>
      <trkpt lat="44.74555" lon="3.2529">
        <ele>1024</ele>
        <time>2022-08-01T14:35:55Z</time>
      </trkpt>
      <trkpt lat="44.74546" lon="3.25302">
        <ele>1024.3</ele>
        <time>2022-08-01T14:36:05Z</time>
      </trkpt>
      <trkpt lat="44.74542" lon="3.25305">
        <ele>1024.5</ele>
        <time>2022-08-01T14:36:09Z</time>
      </trkpt>
      <trkpt lat="44.74538" lon="3.2531">
        <ele>1025</ele>
        <time>2022-08-01T14:36:13Z</time>
      </trkpt>
      <trkpt lat="44.74529" lon="3.25317">
        <ele>1025.8</ele>
        <time>2022-08-01T14:36:21Z</time>
      </trkpt>
      <trkpt lat="44.74519" lon="3.25322">
        <ele>1026</ele>
        <time>2022-08-01T14:36:30Z</time>
      </trkpt>
      <trkpt lat="44.74509" lon="3.25327">
        <ele>1026.4</ele>
        <time>2022-08-01T14:36:38Z</time>
      </trkpt>
      <trkpt lat="44.74508" lon="3.25327">
        <ele>1026.4</ele>
        <time>2022-08-01T14:36:39Z</time>
      </trkpt>
      <trkpt lat="44.74502" lon="3.25331">
        <ele>1026.7</ele>
        <time>2022-08-01T14:36:45Z</time>
      </trkpt>
      <trkpt lat="44.74496" lon="3.25336">
        <ele>1027.1</ele>
        <time>2022-08-01T14:36:52Z</time>
      </trkpt>
      <trkpt lat="44.74493" lon="3.2534">
        <ele>1027.3</ele>
        <time>2022-08-01T14:36:58Z</time>
      </trkpt>
      <trkpt lat="44.74486" lon="3.2535">
        <ele>1027.9</ele>
        <time>2022-08-01T14:37:06Z</time>
      </trkpt>
      <trkpt lat="44.74482" lon="3.25351">
        <ele>1028</ele>
        <time>2022-08-01T14:37:08Z</time>
      </trkpt>
      <trkpt lat="44.74482" lon="3.25352">
        <ele>1028.1</ele>
        <time>2022-08-01T14:37:10Z</time>
      </trkpt>
      <trkpt lat="44.74482" lon="3.25352">
        <ele>1028.1</ele>
        <time>2022-08-01T14:37:11Z</time>
      </trkpt>
      <trkpt lat="44.74482" lon="3.25351">
        <ele>1028</ele>
        <time>2022-08-01T14:37:16Z</time>
      </trkpt>
      <trkpt lat="44.74483" lon="3.25351">
        <ele>1028</ele>
        <time>2022-08-01T14:37:22Z</time>
      </trkpt>
      <trkpt lat="44.74477" lon="3.25357">
        <ele>1028.5</ele>
        <time>2022-08-01T14:37:28Z</time>
      </trkpt>
      <trkpt lat="44.74475" lon="3.25357">
        <ele>1028.6</ele>
        <time>2022-08-01T14:37:30Z</time>
      </trkpt>
      <trkpt lat="44.7447" lon="3.2536">
        <ele>1029.1</ele>
        <time>2022-08-01T14:37:35Z</time>
      </trkpt>
      <trkpt lat="44.74464" lon="3.25367">
        <ele>1030</ele>
        <time>2022-08-01T14:37:42Z</time>
      </trkpt>
      <trkpt lat="44.74462" lon="3.25369">
        <ele>1030.3</ele>
        <time>2022-08-01T14:37:44Z</time>
      </trkpt>
      <trkpt lat="44.74459" lon="3.25371">
        <ele>1030.6</ele>
        <time>2022-08-01T14:37:47Z</time>
      </trkpt>
      <trkpt lat="44.74457" lon="3.25369">
        <ele>1030.6</ele>
        <time>2022-08-01T14:37:49Z</time>
      </trkpt>
      <trkpt lat="44.74456" lon="3.25369">
        <ele>1030.7</ele>
        <time>2022-08-01T14:37:51Z</time>
      </trkpt>
      <trkpt lat="44.74455" lon="3.25368">
        <ele>1030.7</ele>
        <time>2022-08-01T14:37:54Z</time>
      </trkpt>
      <trkpt lat="44.74455" lon="3.25368">
        <ele>1030.7</ele>
        <time>2022-08-01T14:37:55Z</time>
      </trkpt>
      <trkpt lat="44.74455" lon="3.25368">
        <ele>1030.7</ele>
        <time>2022-08-01T14:38:04Z</time>
      </trkpt>
      <trkpt lat="44.74446" lon="3.25363">
        <ele>1031</ele>
        <time>2022-08-01T14:39:36Z</time>
      </trkpt>
      <trkpt lat="44.74442" lon="3.25363">
        <ele>1031.4</ele>
        <time>2022-08-01T14:39:39Z</time>
      </trkpt>
      <trkpt lat="44.74439" lon="3.25363">
        <ele>1031.7</ele>
        <time>2022-08-01T14:39:41Z</time>
      </trkpt>
      <trkpt lat="44.74437" lon="3.2536">
        <ele>1031.7</ele>
        <time>2022-08-01T14:39:46Z</time>
      </trkpt>
      <trkpt lat="44.74436" lon="3.2536">
        <ele>1031.8</ele>
        <time>2022-08-01T14:39:48Z</time>
      </trkpt>
      <trkpt lat="44.7443" lon="3.25363">
        <ele>1032.7</ele>
        <time>2022-08-01T14:39:54Z</time>
      </trkpt>
      <trkpt lat="44.74429" lon="3.25364">
        <ele>1032.9</ele>
        <time>2022-08-01T14:39:55Z</time>
      </trkpt>
      <trkpt lat="44.74426" lon="3.25365">
        <ele>1033.5</ele>
        <time>2022-08-01T14:40:01Z</time>
      </trkpt>
      <trkpt lat="44.74426" lon="3.25364">
        <ele>1033.4</ele>
        <time>2022-08-01T14:40:02Z</time>
      </trkpt>
      <trkpt lat="44.74427" lon="3.25369">
        <ele>1033.8</ele>
        <time>2022-08-01T14:40:09Z</time>
      </trkpt>
      <trkpt lat="44.74427" lon="3.25369">
        <ele>1033.7</ele>
        <time>2022-08-01T14:40:14Z</time>
      </trkpt>
      <trkpt lat="44.74433" lon="3.25375">
        <ele>1033.6</ele>
        <time>2022-08-01T14:40:20Z</time>
      </trkpt>
      <trkpt lat="44.74435" lon="3.25377">
        <ele>1033.5</ele>
        <time>2022-08-01T14:40:22Z</time>
      </trkpt>
      <trkpt lat="44.74439" lon="3.2538">
        <ele>1033.2</ele>
        <time>2022-08-01T14:40:27Z</time>
      </trkpt>
      <trkpt lat="44.7444" lon="3.25386">
        <ele>1033.6</ele>
        <time>2022-08-01T14:40:32Z</time>
      </trkpt>
      <trkpt lat="44.74443" lon="3.25393">
        <ele>1034</ele>
        <time>2022-08-01T14:40:38Z</time>
      </trkpt>
      <trkpt lat="44.74443" lon="3.254">
        <ele>1035.3</ele>
        <time>2022-08-01T14:40:44Z</time>
      </trkpt>
      <trkpt lat="44.74443" lon="3.25401">
        <ele>1035.3</ele>
        <time>2022-08-01T14:40:45Z</time>
      </trkpt>
      <trkpt lat="44.74446" lon="3.25408">
        <ele>1036.2</ele>
        <time>2022-08-01T14:40:51Z</time>
      </trkpt>
      <trkpt lat="44.74446" lon="3.25411">
        <ele>1036.8</ele>
        <time>2022-08-01T14:40:53Z</time>
      </trkpt>
      <trkpt lat="44.74446" lon="3.25419">
        <ele>1037.9</ele>
        <time>2022-08-01T14:40:58Z</time>
      </trkpt>
      <trkpt lat="44.74446" lon="3.2542">
        <ele>1038</ele>
        <time>2022-08-01T14:40:59Z</time>
      </trkpt>
      <trkpt lat="44.74447" lon="3.25422">
        <ele>1038.1</ele>
        <time>2022-08-01T14:41:01Z</time>
      </trkpt>
      <trkpt lat="44.74446" lon="3.25427">
        <ele>1038.6</ele>
        <time>2022-08-01T14:41:04Z</time>
      </trkpt>
      <trkpt lat="44.74446" lon="3.25429">
        <ele>1038.7</ele>
        <time>2022-08-01T14:41:05Z</time>
      </trkpt>
      <trkpt lat="44.74445" lon="3.25435">
        <ele>1039.3</ele>
        <time>2022-08-01T14:41:10Z</time>
      </trkpt>
      <trkpt lat="44.74444" lon="3.25436">
        <ele>1039.4</ele>
        <time>2022-08-01T14:41:11Z</time>
      </trkpt>
      <trkpt lat="44.74442" lon="3.25444">
        <ele>1040.4</ele>
        <time>2022-08-01T14:41:17Z</time>
      </trkpt>
      <trkpt lat="44.74441" lon="3.25447">
        <ele>1040.8</ele>
        <time>2022-08-01T14:41:19Z</time>
      </trkpt>
      <trkpt lat="44.7444" lon="3.25448">
        <ele>1041</ele>
        <time>2022-08-01T14:41:20Z</time>
      </trkpt>
      <trkpt lat="44.74436" lon="3.25453">
        <ele>1042</ele>
        <time>2022-08-01T14:41:25Z</time>
      </trkpt>
      <trkpt lat="44.74427" lon="3.25464">
        <ele>1043.6</ele>
        <time>2022-08-01T14:41:36Z</time>
      </trkpt>
      <trkpt lat="44.74426" lon="3.25466">
        <ele>1043.9</ele>
        <time>2022-08-01T14:41:38Z</time>
      </trkpt>
      <trkpt lat="44.74422" lon="3.25472">
        <ele>1044.4</ele>
        <time>2022-08-01T14:41:43Z</time>
      </trkpt>
      <trkpt lat="44.74422" lon="3.25472">
        <ele>1044.5</ele>
        <time>2022-08-01T14:41:44Z</time>
      </trkpt>
      <trkpt lat="44.74418" lon="3.25478">
        <ele>1045</ele>
        <time>2022-08-01T14:41:50Z</time>
      </trkpt>
      <trkpt lat="44.74416" lon="3.25482">
        <ele>1045.5</ele>
        <time>2022-08-01T14:41:55Z</time>
      </trkpt>
      <trkpt lat="44.74415" lon="3.25485">
        <ele>1045.8</ele>
        <time>2022-08-01T14:41:58Z</time>
      </trkpt>
      <trkpt lat="44.74412" lon="3.25488">
        <ele>1046.3</ele>
        <time>2022-08-01T14:42:01Z</time>
      </trkpt>
      <trkpt lat="44.74409" lon="3.25492">
        <ele>1047.1</ele>
        <time>2022-08-01T14:42:06Z</time>
      </trkpt>
      <trkpt lat="44.74408" lon="3.25493">
        <ele>1047.2</ele>
        <time>2022-08-01T14:42:07Z</time>
      </trkpt>
      <trkpt lat="44.74402" lon="3.25499">
        <ele>1048.1</ele>
        <time>2022-08-01T14:42:14Z</time>
      </trkpt>
      <trkpt lat="44.74402" lon="3.255">
        <ele>1048.2</ele>
        <time>2022-08-01T14:42:15Z</time>
      </trkpt>
      <trkpt lat="44.74401" lon="3.25502">
        <ele>1048.4</ele>
        <time>2022-08-01T14:42:16Z</time>
      </trkpt>
      <trkpt lat="44.74395" lon="3.25506">
        <ele>1049.6</ele>
        <time>2022-08-01T14:42:23Z</time>
      </trkpt>
      <trkpt lat="44.7439" lon="3.2551">
        <ele>1050.6</ele>
        <time>2022-08-01T14:42:29Z</time>
      </trkpt>
      <trkpt lat="44.74389" lon="3.2551">
        <ele>1050.7</ele>
        <time>2022-08-01T14:42:30Z</time>
      </trkpt>
      <trkpt lat="44.74385" lon="3.25515">
        <ele>1051.8</ele>
        <time>2022-08-01T14:42:36Z</time>
      </trkpt>
      <trkpt lat="44.74383" lon="3.25517">
        <ele>1052.3</ele>
        <time>2022-08-01T14:42:39Z</time>
      </trkpt>
      <trkpt lat="44.74382" lon="3.25519">
        <ele>1052.7</ele>
        <time>2022-08-01T14:42:41Z</time>
      </trkpt>
      <trkpt lat="44.74379" lon="3.25524">
        <ele>1053.3</ele>
        <time>2022-08-01T14:42:46Z</time>
      </trkpt>
      <trkpt lat="44.74376" lon="3.25526">
        <ele>1053.9</ele>
        <time>2022-08-01T14:42:51Z</time>
      </trkpt>
      <trkpt lat="44.74374" lon="3.25527">
        <ele>1054.1</ele>
        <time>2022-08-01T14:42:53Z</time>
      </trkpt>
      <trkpt lat="44.74371" lon="3.25533">
        <ele>1055</ele>
        <time>2022-08-01T14:42:59Z</time>
      </trkpt>
      <trkpt lat="44.7437" lon="3.25536">
        <ele>1055.2</ele>
        <time>2022-08-01T14:43:01Z</time>
      </trkpt>
      <trkpt lat="44.74366" lon="3.25547">
        <ele>1056.2</ele>
        <time>2022-08-01T14:43:09Z</time>
      </trkpt>
      <trkpt lat="44.74364" lon="3.25554">
        <ele>1056.7</ele>
        <time>2022-08-01T14:43:16Z</time>
      </trkpt>
      <trkpt lat="44.74364" lon="3.25558">
        <ele>1056.9</ele>
        <time>2022-08-01T14:43:19Z</time>
      </trkpt>
      <trkpt lat="44.74364" lon="3.25562">
        <ele>1057.2</ele>
        <time>2022-08-01T14:43:22Z</time>
      </trkpt>
      <trkpt lat="44.74362" lon="3.25568">
        <ele>1057.8</ele>
        <time>2022-08-01T14:43:27Z</time>
      </trkpt>
      <trkpt lat="44.7436" lon="3.2557">
        <ele>1058.1</ele>
        <time>2022-08-01T14:43:29Z</time>
      </trkpt>
      <trkpt lat="44.74357" lon="3.25576">
        <ele>1058.9</ele>
        <time>2022-08-01T14:43:35Z</time>
      </trkpt>
      <trkpt lat="44.74356" lon="3.25578">
        <ele>1059</ele>
        <time>2022-08-01T14:43:36Z</time>
      </trkpt>
      <trkpt lat="44.74352" lon="3.25583">
        <ele>1059.6</ele>
        <time>2022-08-01T14:43:42Z</time>
      </trkpt>
      <trkpt lat="44.74351" lon="3.25584">
        <ele>1059.8</ele>
        <time>2022-08-01T14:43:44Z</time>
      </trkpt>
      <trkpt lat="44.74348" lon="3.2559">
        <ele>1060.4</ele>
        <time>2022-08-01T14:43:49Z</time>
      </trkpt>
      <trkpt lat="44.74346" lon="3.25592">
        <ele>1060.7</ele>
        <time>2022-08-01T14:43:51Z</time>
      </trkpt>
      <trkpt lat="44.74346" lon="3.25593">
        <ele>1060.8</ele>
        <time>2022-08-01T14:43:52Z</time>
      </trkpt>
      <trkpt lat="44.74343" lon="3.25599">
        <ele>1061.5</ele>
        <time>2022-08-01T14:43:57Z</time>
      </trkpt>
      <trkpt lat="44.7434" lon="3.25603">
        <ele>1061.9</ele>
        <time>2022-08-01T14:44:01Z</time>
      </trkpt>
      <trkpt lat="44.7434" lon="3.25604">
        <ele>1062</ele>
        <time>2022-08-01T14:44:04Z</time>
      </trkpt>
      <trkpt lat="44.74339" lon="3.25605">
        <ele>1062.1</ele>
        <time>2022-08-01T14:44:05Z</time>
      </trkpt>
      <trkpt lat="44.74337" lon="3.25607">
        <ele>1062.4</ele>
        <time>2022-08-01T14:44:08Z</time>
      </trkpt>
      <trkpt lat="44.74337" lon="3.25608">
        <ele>1062.5</ele>
        <time>2022-08-01T14:44:09Z</time>
      </trkpt>
      <trkpt lat="44.74336" lon="3.25609">
        <ele>1062.7</ele>
        <time>2022-08-01T14:44:11Z</time>
      </trkpt>
      <trkpt lat="44.74334" lon="3.2561">
        <ele>1062.8</ele>
        <time>2022-08-01T14:44:14Z</time>
      </trkpt>
      <trkpt lat="44.74335" lon="3.2561">
        <ele>1062.8</ele>
        <time>2022-08-01T14:44:16Z</time>
      </trkpt>
      <trkpt lat="44.74335" lon="3.25611">
        <ele>1062.8</ele>
        <time>2022-08-01T14:44:28Z</time>
      </trkpt>
      <trkpt lat="44.74335" lon="3.25611">
        <ele>1062.8</ele>
        <time>2022-08-01T14:44:36Z</time>
      </trkpt>
      <trkpt lat="44.74335" lon="3.25611">
        <ele>1062.9</ele>
        <time>2022-08-01T14:44:46Z</time>
      </trkpt>
      <trkpt lat="44.74335" lon="3.25611">
        <ele>1062.9</ele>
        <time>2022-08-01T14:44:52Z</time>
      </trkpt>
      <trkpt lat="44.74335" lon="3.25611">
        <ele>1062.9</ele>
        <time>2022-08-01T14:44:53Z</time>
      </trkpt>
      <trkpt lat="44.74335" lon="3.25611">
        <ele>1062.9</ele>
        <time>2022-08-01T14:44:54Z</time>
      </trkpt>
      <trkpt lat="44.74335" lon="3.25611">
        <ele>1062.9</ele>
        <time>2022-08-01T14:44:55Z</time>
      </trkpt>
      <trkpt lat="44.74335" lon="3.25611">
        <ele>1062.9</ele>
        <time>2022-08-01T14:44:57Z</time>
      </trkpt>
      <trkpt lat="44.74335" lon="3.25611">
        <ele>1062.9</ele>
        <time>2022-08-01T14:44:59Z</time>
      </trkpt>
      <trkpt lat="44.74335" lon="3.25611">
        <ele>1062.9</ele>
        <time>2022-08-01T14:45:01Z</time>
      </trkpt>
      <trkpt lat="44.74335" lon="3.25611">
        <ele>1062.9</ele>
        <time>2022-08-01T14:45:03Z</time>
      </trkpt>
      <trkpt lat="44.74335" lon="3.25611">
        <ele>1062.9</ele>
        <time>2022-08-01T14:45:06Z</time>
      </trkpt>
      <trkpt lat="44.74335" lon="3.25611">
        <ele>1062.9</ele>
        <time>2022-08-01T14:45:09Z</time>
      </trkpt>
      <trkpt lat="44.74335" lon="3.25611">
        <ele>1062.9</ele>
        <time>2022-08-01T14:45:10Z</time>
      </trkpt>
      <trkpt lat="44.74335" lon="3.25611">
        <ele>1062.9</ele>
        <time>2022-08-01T14:45:11Z</time>
      </trkpt>
      <trkpt lat="44.74335" lon="3.25611">
        <ele>1062.9</ele>
        <time>2022-08-01T14:45:12Z</time>
      </trkpt>
      <trkpt lat="44.74335" lon="3.25611">
        <ele>1062.9</ele>
        <time>2022-08-01T14:45:15Z</time>
      </trkpt>
      <trkpt lat="44.74335" lon="3.25608">
        <ele>1062.7</ele>
        <time>2022-08-01T14:46:15Z</time>
      </trkpt>
      <trkpt lat="44.74336" lon="3.2561">
        <ele>1062.8</ele>
        <time>2022-08-01T14:46:33Z</time>
      </trkpt>
      <trkpt lat="44.7433" lon="3.25614">
        <ele>1063.2</ele>
        <time>2022-08-01T14:46:54Z</time>
      </trkpt>
      <trkpt lat="44.74323" lon="3.25615">
        <ele>1063.5</ele>
        <time>2022-08-01T14:47:01Z</time>
      </trkpt>
      <trkpt lat="44.74321" lon="3.25618">
        <ele>1063.7</ele>
        <time>2022-08-01T14:47:06Z</time>
      </trkpt>
      <trkpt lat="44.74316" lon="3.25619">
        <ele>1063.9</ele>
        <time>2022-08-01T14:47:10Z</time>
      </trkpt>
      <trkpt lat="44.74314" lon="3.2562">
        <ele>1064</ele>
        <time>2022-08-01T14:47:12Z</time>
      </trkpt>
      <trkpt lat="44.7431" lon="3.25622">
        <ele>1064.2</ele>
        <time>2022-08-01T14:47:16Z</time>
      </trkpt>
      <trkpt lat="44.74308" lon="3.25625">
        <ele>1064.4</ele>
        <time>2022-08-01T14:47:19Z</time>
      </trkpt>
      <trkpt lat="44.743" lon="3.25628">
        <ele>1064.7</ele>
        <time>2022-08-01T14:47:29Z</time>
      </trkpt>
      <trkpt lat="44.743" lon="3.25628">
        <ele>1064.7</ele>
        <time>2022-08-01T14:47:30Z</time>
      </trkpt>
      <trkpt lat="44.74297" lon="3.25629">
        <ele>1064.8</ele>
        <time>2022-08-01T14:47:36Z</time>
      </trkpt>
      <trkpt lat="44.74296" lon="3.25629">
        <ele>1064.8</ele>
        <time>2022-08-01T14:47:37Z</time>
      </trkpt>
      <trkpt lat="44.74283" lon="3.25631">
        <ele>1064.9</ele>
        <time>2022-08-01T14:47:48Z</time>
      </trkpt>
      <trkpt lat="44.74272" lon="3.25635">
        <ele>1064.8</ele>
        <time>2022-08-01T14:47:58Z</time>
      </trkpt>
      <trkpt lat="44.74263" lon="3.2564">
        <ele>1064.5</ele>
        <time>2022-08-01T14:48:06Z</time>
      </trkpt>
      <trkpt lat="44.74261" lon="3.25641">
        <ele>1064.4</ele>
        <time>2022-08-01T14:48:08Z</time>
      </trkpt>
      <trkpt lat="44.7426" lon="3.25643">
        <ele>1064.3</ele>
        <time>2022-08-01T14:48:10Z</time>
      </trkpt>
      <trkpt lat="44.74255" lon="3.25644">
        <ele>1064.2</ele>
        <time>2022-08-01T14:48:14Z</time>
      </trkpt>
      <trkpt lat="44.74255" lon="3.25645">
        <ele>1064.2</ele>
        <time>2022-08-01T14:48:15Z</time>
      </trkpt>
      <trkpt lat="44.7425" lon="3.25653">
        <ele>1064</ele>
        <time>2022-08-01T14:48:21Z</time>
      </trkpt>
      <trkpt lat="44.74242" lon="3.25661">
        <ele>1063.5</ele>
        <time>2022-08-01T14:48:29Z</time>
      </trkpt>
      <trkpt lat="44.74238" lon="3.25664">
        <ele>1063.2</ele>
        <time>2022-08-01T14:48:33Z</time>
      </trkpt>
      <trkpt lat="44.74233" lon="3.25668">
        <ele>1062.7</ele>
        <time>2022-08-01T14:48:38Z</time>
      </trkpt>
      <trkpt lat="44.7422" lon="3.25679">
        <ele>1061.4</ele>
        <time>2022-08-01T14:48:50Z</time>
      </trkpt>
      <trkpt lat="44.74219" lon="3.2568">
        <ele>1061.3</ele>
        <time>2022-08-01T14:48:51Z</time>
      </trkpt>
      <trkpt lat="44.74211" lon="3.25689">
        <ele>1060.1</ele>
        <time>2022-08-01T14:48:59Z</time>
      </trkpt>
      <trkpt lat="44.7421" lon="3.2569">
        <ele>1059.9</ele>
        <time>2022-08-01T14:49:00Z</time>
      </trkpt>
      <trkpt lat="44.74204" lon="3.25696">
        <ele>1059</ele>
        <time>2022-08-01T14:49:06Z</time>
      </trkpt>
      <trkpt lat="44.74202" lon="3.25699">
        <ele>1058.7</ele>
        <time>2022-08-01T14:49:09Z</time>
      </trkpt>
      <trkpt lat="44.742" lon="3.257">
        <ele>1058.4</ele>
        <time>2022-08-01T14:49:11Z</time>
      </trkpt>
      <trkpt lat="44.74194" lon="3.25707">
        <ele>1057.6</ele>
        <time>2022-08-01T14:49:19Z</time>
      </trkpt>
      <trkpt lat="44.74194" lon="3.25707">
        <ele>1057.6</ele>
        <time>2022-08-01T14:49:20Z</time>
      </trkpt>
      <trkpt lat="44.74194" lon="3.25706">
        <ele>1057.6</ele>
        <time>2022-08-01T14:49:23Z</time>
      </trkpt>
      <trkpt lat="44.74194" lon="3.25706">
        <ele>1057.6</ele>
        <time>2022-08-01T14:49:28Z</time>
      </trkpt>
      <trkpt lat="44.74188" lon="3.25716">
        <ele>1057</ele>
        <time>2022-08-01T14:49:35Z</time>
      </trkpt>
      <trkpt lat="44.7418" lon="3.25726">
        <ele>1056.4</ele>
        <time>2022-08-01T14:49:44Z</time>
      </trkpt>
      <trkpt lat="44.7417" lon="3.25738">
        <ele>1055.6</ele>
        <time>2022-08-01T14:49:56Z</time>
      </trkpt>
      <trkpt lat="44.74167" lon="3.25742">
        <ele>1055.3</ele>
        <time>2022-08-01T14:49:59Z</time>
      </trkpt>
      <trkpt lat="44.74163" lon="3.25748">
        <ele>1054.9</ele>
        <time>2022-08-01T14:50:05Z</time>
      </trkpt>
      <trkpt lat="44.74161" lon="3.25748">
        <ele>1054.9</ele>
        <time>2022-08-01T14:50:09Z</time>
      </trkpt>
      <trkpt lat="44.7416" lon="3.25749">
        <ele>1054.8</ele>
        <time>2022-08-01T14:50:11Z</time>
      </trkpt>
      <trkpt lat="44.74156" lon="3.25755">
        <ele>1054.4</ele>
        <time>2022-08-01T14:50:17Z</time>
      </trkpt>
      <trkpt lat="44.7415" lon="3.25764">
        <ele>1053.9</ele>
        <time>2022-08-01T14:50:25Z</time>
      </trkpt>
      <trkpt lat="44.74146" lon="3.25769">
        <ele>1053.6</ele>
        <time>2022-08-01T14:50:29Z</time>
      </trkpt>
      <trkpt lat="44.74141" lon="3.25782">
        <ele>1053.1</ele>
        <time>2022-08-01T14:50:38Z</time>
      </trkpt>
      <trkpt lat="44.74138" lon="3.25787">
        <ele>1052.9</ele>
        <time>2022-08-01T14:50:41Z</time>
      </trkpt>
      <trkpt lat="44.74135" lon="3.25802">
        <ele>1052.3</ele>
        <time>2022-08-01T14:50:51Z</time>
      </trkpt>
      <trkpt lat="44.74134" lon="3.25803">
        <ele>1052.2</ele>
        <time>2022-08-01T14:50:52Z</time>
      </trkpt>
      <trkpt lat="44.7413" lon="3.25815">
        <ele>1051</ele>
        <time>2022-08-01T14:51:00Z</time>
      </trkpt>
      <trkpt lat="44.74128" lon="3.25821">
        <ele>1050.5</ele>
        <time>2022-08-01T14:51:04Z</time>
      </trkpt>
      <trkpt lat="44.74128" lon="3.2583">
        <ele>1050.2</ele>
        <time>2022-08-01T14:51:09Z</time>
      </trkpt>
      <trkpt lat="44.74127" lon="3.25837">
        <ele>1049.8</ele>
        <time>2022-08-01T14:51:13Z</time>
      </trkpt>
      <trkpt lat="44.74122" lon="3.25855">
        <ele>1048.5</ele>
        <time>2022-08-01T14:51:25Z</time>
      </trkpt>
      <trkpt lat="44.74122" lon="3.2586">
        <ele>1048.4</ele>
        <time>2022-08-01T14:51:29Z</time>
      </trkpt>
      <trkpt lat="44.74122" lon="3.25862">
        <ele>1048.3</ele>
        <time>2022-08-01T14:51:30Z</time>
      </trkpt>
      <trkpt lat="44.74122" lon="3.25865">
        <ele>1048.3</ele>
        <time>2022-08-01T14:51:32Z</time>
      </trkpt>
      <trkpt lat="44.74125" lon="3.25875">
        <ele>1048.6</ele>
        <time>2022-08-01T14:51:39Z</time>
      </trkpt>
      <trkpt lat="44.74125" lon="3.25878">
        <ele>1048.7</ele>
        <time>2022-08-01T14:51:41Z</time>
      </trkpt>
      <trkpt lat="44.74127" lon="3.25882">
        <ele>1049.1</ele>
        <time>2022-08-01T14:51:44Z</time>
      </trkpt>
      <trkpt lat="44.74129" lon="3.25889">
        <ele>1049.3</ele>
        <time>2022-08-01T14:51:48Z</time>
      </trkpt>
      <trkpt lat="44.74131" lon="3.259">
        <ele>1049</ele>
        <time>2022-08-01T14:51:54Z</time>
      </trkpt>
      <trkpt lat="44.74131" lon="3.25904">
        <ele>1048.7</ele>
        <time>2022-08-01T14:51:56Z</time>
      </trkpt>
      <trkpt lat="44.74131" lon="3.25913">
        <ele>1047.9</ele>
        <time>2022-08-01T14:52:02Z</time>
      </trkpt>
      <trkpt lat="44.74133" lon="3.25924">
        <ele>1047.7</ele>
        <time>2022-08-01T14:52:10Z</time>
      </trkpt>
      <trkpt lat="44.74134" lon="3.25925">
        <ele>1047.7</ele>
        <time>2022-08-01T14:52:12Z</time>
      </trkpt>
      <trkpt lat="44.74135" lon="3.25926">
        <ele>1047.9</ele>
        <time>2022-08-01T14:52:14Z</time>
      </trkpt>
      <trkpt lat="44.74135" lon="3.25928">
        <ele>1047.9</ele>
        <time>2022-08-01T14:52:16Z</time>
      </trkpt>
      <trkpt lat="44.74135" lon="3.25933">
        <ele>1047.7</ele>
        <time>2022-08-01T14:52:19Z</time>
      </trkpt>
      <trkpt lat="44.74134" lon="3.25939">
        <ele>1047.3</ele>
        <time>2022-08-01T14:52:23Z</time>
      </trkpt>
      <trkpt lat="44.74131" lon="3.25947">
        <ele>1046.5</ele>
        <time>2022-08-01T14:52:28Z</time>
      </trkpt>
      <trkpt lat="44.7413" lon="3.25949">
        <ele>1046.3</ele>
        <time>2022-08-01T14:52:29Z</time>
      </trkpt>
      <trkpt lat="44.7413" lon="3.25951">
        <ele>1046.1</ele>
        <time>2022-08-01T14:52:30Z</time>
      </trkpt>
      <trkpt lat="44.74127" lon="3.25959">
        <ele>1045</ele>
        <time>2022-08-01T14:52:38Z</time>
      </trkpt>
      <trkpt lat="44.74127" lon="3.2596">
        <ele>1045</ele>
        <time>2022-08-01T14:52:39Z</time>
      </trkpt>
      <trkpt lat="44.74126" lon="3.25965">
        <ele>1044.6</ele>
        <time>2022-08-01T14:52:42Z</time>
      </trkpt>
      <trkpt lat="44.74125" lon="3.2597">
        <ele>1044.1</ele>
        <time>2022-08-01T14:52:45Z</time>
      </trkpt>
      <trkpt lat="44.74124" lon="3.25975">
        <ele>1043.6</ele>
        <time>2022-08-01T14:52:48Z</time>
      </trkpt>
      <trkpt lat="44.74124" lon="3.25986">
        <ele>1043.3</ele>
        <time>2022-08-01T14:52:54Z</time>
      </trkpt>
      <trkpt lat="44.74125" lon="3.25995">
        <ele>1043.1</ele>
        <time>2022-08-01T14:52:59Z</time>
      </trkpt>
      <trkpt lat="44.74125" lon="3.25998">
        <ele>1043</ele>
        <time>2022-08-01T14:53:00Z</time>
      </trkpt>
      <trkpt lat="44.74124" lon="3.26007">
        <ele>1042.7</ele>
        <time>2022-08-01T14:53:07Z</time>
      </trkpt>
      <trkpt lat="44.74125" lon="3.26019">
        <ele>1042.7</ele>
        <time>2022-08-01T14:53:14Z</time>
      </trkpt>
      <trkpt lat="44.74124" lon="3.26029">
        <ele>1042.3</ele>
        <time>2022-08-01T14:53:21Z</time>
      </trkpt>
      <trkpt lat="44.74124" lon="3.26029">
        <ele>1042.3</ele>
        <time>2022-08-01T14:53:22Z</time>
      </trkpt>
      <trkpt lat="44.74124" lon="3.26028">
        <ele>1042.3</ele>
        <time>2022-08-01T14:53:23Z</time>
      </trkpt>
      <trkpt lat="44.74124" lon="3.26028">
        <ele>1042.3</ele>
        <time>2022-08-01T14:53:25Z</time>
      </trkpt>
      <trkpt lat="44.74124" lon="3.26028">
        <ele>1042.3</ele>
        <time>2022-08-01T14:53:26Z</time>
      </trkpt>
      <trkpt lat="44.74124" lon="3.26036">
        <ele>1042</ele>
        <time>2022-08-01T14:53:32Z</time>
      </trkpt>
      <trkpt lat="44.74124" lon="3.26048">
        <ele>1041.5</ele>
        <time>2022-08-01T14:53:39Z</time>
      </trkpt>
      <trkpt lat="44.74123" lon="3.26056">
        <ele>1041.1</ele>
        <time>2022-08-01T14:53:43Z</time>
      </trkpt>
      <trkpt lat="44.74124" lon="3.26062">
        <ele>1041.1</ele>
        <time>2022-08-01T14:53:47Z</time>
      </trkpt>
      <trkpt lat="44.74123" lon="3.26065">
        <ele>1040.9</ele>
        <time>2022-08-01T14:53:49Z</time>
      </trkpt>
      <trkpt lat="44.74121" lon="3.26069">
        <ele>1040.5</ele>
        <time>2022-08-01T14:53:52Z</time>
      </trkpt>
      <trkpt lat="44.7412" lon="3.26071">
        <ele>1040.3</ele>
        <time>2022-08-01T14:53:53Z</time>
      </trkpt>
      <trkpt lat="44.7412" lon="3.26073">
        <ele>1040.1</ele>
        <time>2022-08-01T14:53:55Z</time>
      </trkpt>
      <trkpt lat="44.74118" lon="3.26076">
        <ele>1039.7</ele>
        <time>2022-08-01T14:53:57Z</time>
      </trkpt>
      <trkpt lat="44.74119" lon="3.26077">
        <ele>1039.8</ele>
        <time>2022-08-01T14:53:58Z</time>
      </trkpt>
      <trkpt lat="44.7412" lon="3.26079">
        <ele>1040</ele>
        <time>2022-08-01T14:53:59Z</time>
      </trkpt>
      <trkpt lat="44.74127" lon="3.26085">
        <ele>1041.3</ele>
        <time>2022-08-01T14:54:04Z</time>
      </trkpt>
      <trkpt lat="44.7413" lon="3.26095">
        <ele>1041.6</ele>
        <time>2022-08-01T14:54:10Z</time>
      </trkpt>
      <trkpt lat="44.74132" lon="3.261">
        <ele>1041.7</ele>
        <time>2022-08-01T14:54:14Z</time>
      </trkpt>
      <trkpt lat="44.74133" lon="3.26105">
        <ele>1041.8</ele>
        <time>2022-08-01T14:54:17Z</time>
      </trkpt>
      <trkpt lat="44.74133" lon="3.26108">
        <ele>1041.7</ele>
        <time>2022-08-01T14:54:19Z</time>
      </trkpt>
      <trkpt lat="44.74134" lon="3.26118">
        <ele>1041.6</ele>
        <time>2022-08-01T14:54:25Z</time>
      </trkpt>
      <trkpt lat="44.74134" lon="3.26127">
        <ele>1041.3</ele>
        <time>2022-08-01T14:54:31Z</time>
      </trkpt>
      <trkpt lat="44.74134" lon="3.2613">
        <ele>1041.3</ele>
        <time>2022-08-01T14:54:33Z</time>
      </trkpt>
      <trkpt lat="44.74136" lon="3.2615">
        <ele>1041.3</ele>
        <time>2022-08-01T14:54:44Z</time>
      </trkpt>
      <trkpt lat="44.74137" lon="3.26162">
        <ele>1041.5</ele>
        <time>2022-08-01T14:54:51Z</time>
      </trkpt>
      <trkpt lat="44.74136" lon="3.26176">
        <ele>1041</ele>
        <time>2022-08-01T14:54:59Z</time>
      </trkpt>
      <trkpt lat="44.74134" lon="3.2619">
        <ele>1040.2</ele>
        <time>2022-08-01T14:55:07Z</time>
      </trkpt>
      <trkpt lat="44.74132" lon="3.26205">
        <ele>1039.8</ele>
        <time>2022-08-01T14:55:15Z</time>
      </trkpt>
      <trkpt lat="44.74129" lon="3.26215">
        <ele>1039.1</ele>
        <time>2022-08-01T14:55:23Z</time>
      </trkpt>
      <trkpt lat="44.74129" lon="3.26215">
        <ele>1039.1</ele>
        <time>2022-08-01T14:55:24Z</time>
      </trkpt>
      <trkpt lat="44.74129" lon="3.26215">
        <ele>1039.2</ele>
        <time>2022-08-01T14:55:25Z</time>
      </trkpt>
      <trkpt lat="44.74129" lon="3.26217">
        <ele>1039.2</ele>
        <time>2022-08-01T14:55:31Z</time>
      </trkpt>
      <trkpt lat="44.74125" lon="3.2623">
        <ele>1038.3</ele>
        <time>2022-08-01T14:55:39Z</time>
      </trkpt>
      <trkpt lat="44.74124" lon="3.26232">
        <ele>1038.2</ele>
        <time>2022-08-01T14:55:40Z</time>
      </trkpt>
      <trkpt lat="44.74123" lon="3.26251">
        <ele>1037.6</ele>
        <time>2022-08-01T14:55:51Z</time>
      </trkpt>
      <trkpt lat="44.74124" lon="3.26264">
        <ele>1037.1</ele>
        <time>2022-08-01T14:55:59Z</time>
      </trkpt>
      <trkpt lat="44.74125" lon="3.26266">
        <ele>1037.1</ele>
        <time>2022-08-01T14:56:00Z</time>
      </trkpt>
      <trkpt lat="44.74126" lon="3.26285">
        <ele>1036.4</ele>
        <time>2022-08-01T14:56:11Z</time>
      </trkpt>
      <trkpt lat="44.74128" lon="3.26294">
        <ele>1036.5</ele>
        <time>2022-08-01T14:56:18Z</time>
      </trkpt>
      <trkpt lat="44.74128" lon="3.26296">
        <ele>1036.5</ele>
        <time>2022-08-01T14:56:20Z</time>
      </trkpt>
      <trkpt lat="44.74129" lon="3.26302">
        <ele>1036.5</ele>
        <time>2022-08-01T14:56:24Z</time>
      </trkpt>
      <trkpt lat="44.74132" lon="3.2632">
        <ele>1036.6</ele>
        <time>2022-08-01T14:56:34Z</time>
      </trkpt>
      <trkpt lat="44.74134" lon="3.26338">
        <ele>1036.4</ele>
        <time>2022-08-01T14:56:45Z</time>
      </trkpt>
      <trkpt lat="44.74137" lon="3.26353">
        <ele>1036.2</ele>
        <time>2022-08-01T14:56:54Z</time>
      </trkpt>
      <trkpt lat="44.7414" lon="3.26367">
        <ele>1035.7</ele>
        <time>2022-08-01T14:57:02Z</time>
      </trkpt>
      <trkpt lat="44.74145" lon="3.26385">
        <ele>1035.3</ele>
        <time>2022-08-01T14:57:13Z</time>
      </trkpt>
      <trkpt lat="44.74149" lon="3.26398">
        <ele>1035.5</ele>
        <time>2022-08-01T14:57:21Z</time>
      </trkpt>
      <trkpt lat="44.74151" lon="3.26404">
        <ele>1035.9</ele>
        <time>2022-08-01T14:57:25Z</time>
      </trkpt>
      <trkpt lat="44.74153" lon="3.26409">
        <ele>1036.1</ele>
        <time>2022-08-01T14:57:29Z</time>
      </trkpt>
      <trkpt lat="44.74152" lon="3.26409">
        <ele>1036.1</ele>
        <time>2022-08-01T14:57:31Z</time>
      </trkpt>
      <trkpt lat="44.74154" lon="3.26412">
        <ele>1036.3</ele>
        <time>2022-08-01T14:57:35Z</time>
      </trkpt>
      <trkpt lat="44.74156" lon="3.26426">
        <ele>1036.4</ele>
        <time>2022-08-01T14:57:43Z</time>
      </trkpt>
      <trkpt lat="44.74157" lon="3.26439">
        <ele>1036.2</ele>
        <time>2022-08-01T14:57:51Z</time>
      </trkpt>
      <trkpt lat="44.74162" lon="3.26457">
        <ele>1036.4</ele>
        <time>2022-08-01T14:58:02Z</time>
      </trkpt>
      <trkpt lat="44.74163" lon="3.26472">
        <ele>1036.3</ele>
        <time>2022-08-01T14:58:11Z</time>
      </trkpt>
      <trkpt lat="44.74166" lon="3.26478">
        <ele>1036.4</ele>
        <time>2022-08-01T14:58:15Z</time>
      </trkpt>
      <trkpt lat="44.74168" lon="3.26482">
        <ele>1036.4</ele>
        <time>2022-08-01T14:58:18Z</time>
      </trkpt>
      <trkpt lat="44.74172" lon="3.26494">
        <ele>1036.2</ele>
        <time>2022-08-01T14:58:26Z</time>
      </trkpt>
      <trkpt lat="44.74172" lon="3.26496">
        <ele>1036.3</ele>
        <time>2022-08-01T14:58:27Z</time>
      </trkpt>
      <trkpt lat="44.74175" lon="3.26507">
        <ele>1036</ele>
        <time>2022-08-01T14:58:34Z</time>
      </trkpt>
      <trkpt lat="44.74181" lon="3.26525">
        <ele>1035.8</ele>
        <time>2022-08-01T14:58:44Z</time>
      </trkpt>
      <trkpt lat="44.74186" lon="3.26544">
        <ele>1036.7</ele>
        <time>2022-08-01T14:58:55Z</time>
      </trkpt>
      <trkpt lat="44.74186" lon="3.26551">
        <ele>1036.7</ele>
        <time>2022-08-01T14:59:00Z</time>
      </trkpt>
      <trkpt lat="44.74186" lon="3.26553">
        <ele>1036.8</ele>
        <time>2022-08-01T14:59:01Z</time>
      </trkpt>
      <trkpt lat="44.74186" lon="3.26554">
        <ele>1036.8</ele>
        <time>2022-08-01T14:59:02Z</time>
      </trkpt>
      <trkpt lat="44.7419" lon="3.2657">
        <ele>1036.5</ele>
        <time>2022-08-01T14:59:11Z</time>
      </trkpt>
      <trkpt lat="44.74193" lon="3.26583">
        <ele>1035.9</ele>
        <time>2022-08-01T14:59:19Z</time>
      </trkpt>
      <trkpt lat="44.74194" lon="3.2659">
        <ele>1035.7</ele>
        <time>2022-08-01T14:59:25Z</time>
      </trkpt>
      <trkpt lat="44.74194" lon="3.2659">
        <ele>1035.7</ele>
        <time>2022-08-01T14:59:26Z</time>
      </trkpt>
      <trkpt lat="44.74197" lon="3.266">
        <ele>1035.6</ele>
        <time>2022-08-01T14:59:33Z</time>
      </trkpt>
      <trkpt lat="44.74198" lon="3.26601">
        <ele>1035.6</ele>
        <time>2022-08-01T14:59:34Z</time>
      </trkpt>
      <trkpt lat="44.74202" lon="3.2661">
        <ele>1035.6</ele>
        <time>2022-08-01T14:59:40Z</time>
      </trkpt>
      <trkpt lat="44.74209" lon="3.26623">
        <ele>1035.2</ele>
        <time>2022-08-01T14:59:49Z</time>
      </trkpt>
      <trkpt lat="44.74218" lon="3.2664">
        <ele>1034.7</ele>
        <time>2022-08-01T15:00:01Z</time>
      </trkpt>
      <trkpt lat="44.7423" lon="3.26653">
        <ele>1034</ele>
        <time>2022-08-01T15:00:13Z</time>
      </trkpt>
      <trkpt lat="44.74239" lon="3.26663">
        <ele>1033.6</ele>
        <time>2022-08-01T15:00:21Z</time>
      </trkpt>
      <trkpt lat="44.74252" lon="3.26677">
        <ele>1033</ele>
        <time>2022-08-01T15:00:34Z</time>
      </trkpt>
      <trkpt lat="44.74256" lon="3.26683">
        <ele>1032.7</ele>
        <time>2022-08-01T15:00:39Z</time>
      </trkpt>
      <trkpt lat="44.74256" lon="3.26685">
        <ele>1032.5</ele>
        <time>2022-08-01T15:00:40Z</time>
      </trkpt>
      <trkpt lat="44.74256" lon="3.26688">
        <ele>1032.1</ele>
        <time>2022-08-01T15:00:42Z</time>
      </trkpt>
      <trkpt lat="44.74254" lon="3.26694">
        <ele>1031.3</ele>
        <time>2022-08-01T15:00:46Z</time>
      </trkpt>
      <trkpt lat="44.7425" lon="3.26698">
        <ele>1030.5</ele>
        <time>2022-08-01T15:00:50Z</time>
      </trkpt>
      <trkpt lat="44.74242" lon="3.26711">
        <ele>1029.4</ele>
        <time>2022-08-01T15:01:00Z</time>
      </trkpt>
      <trkpt lat="44.7424" lon="3.26713">
        <ele>1029.2</ele>
        <time>2022-08-01T15:01:02Z</time>
      </trkpt>
      <trkpt lat="44.74236" lon="3.26716">
        <ele>1029.5</ele>
        <time>2022-08-01T15:01:07Z</time>
      </trkpt>
      <trkpt lat="44.74236" lon="3.26715">
        <ele>1029.6</ele>
        <time>2022-08-01T15:01:08Z</time>
      </trkpt>
      <trkpt lat="44.74236" lon="3.26715">
        <ele>1029.5</ele>
        <time>2022-08-01T15:01:11Z</time>
      </trkpt>
      <trkpt lat="44.74236" lon="3.26715">
        <ele>1029.6</ele>
        <time>2022-08-01T15:01:13Z</time>
      </trkpt>
      <trkpt lat="44.74237" lon="3.26715">
        <ele>1029.5</ele>
        <time>2022-08-01T15:01:15Z</time>
      </trkpt>
      <trkpt lat="44.74236" lon="3.26715">
        <ele>1029.6</ele>
        <time>2022-08-01T15:01:21Z</time>
      </trkpt>
      <trkpt lat="44.74235" lon="3.26715">
        <ele>1029.6</ele>
        <time>2022-08-01T15:01:37Z</time>
      </trkpt>
      <trkpt lat="44.74235" lon="3.26716">
        <ele>1029.6</ele>
        <time>2022-08-01T15:01:44Z</time>
      </trkpt>
      <trkpt lat="44.74234" lon="3.26723">
        <ele>1029.3</ele>
        <time>2022-08-01T15:01:47Z</time>
      </trkpt>
      <trkpt lat="44.74232" lon="3.26732">
        <ele>1028.9</ele>
        <time>2022-08-01T15:01:51Z</time>
      </trkpt>
      <trkpt lat="44.74231" lon="3.26737">
        <ele>1028.7</ele>
        <time>2022-08-01T15:01:53Z</time>
      </trkpt>
      <trkpt lat="44.74225" lon="3.26751">
        <ele>1028.6</ele>
        <time>2022-08-01T15:02:02Z</time>
      </trkpt>
      <trkpt lat="44.74216" lon="3.26757">
        <ele>1028.6</ele>
        <time>2022-08-01T15:02:10Z</time>
      </trkpt>
      <trkpt lat="44.74212" lon="3.26759">
        <ele>1028.5</ele>
        <time>2022-08-01T15:02:13Z</time>
      </trkpt>
      <trkpt lat="44.742" lon="3.26767">
        <ele>1028.5</ele>
        <time>2022-08-01T15:02:24Z</time>
      </trkpt>
      <trkpt lat="44.74199" lon="3.26768">
        <ele>1028.5</ele>
        <time>2022-08-01T15:02:25Z</time>
      </trkpt>
      <trkpt lat="44.74191" lon="3.26773">
        <ele>1028.4</ele>
        <time>2022-08-01T15:02:35Z</time>
      </trkpt>
      <trkpt lat="44.7419" lon="3.26774">
        <ele>1028.3</ele>
        <time>2022-08-01T15:02:37Z</time>
      </trkpt>
      <trkpt lat="44.74188" lon="3.26776">
        <ele>1028.1</ele>
        <time>2022-08-01T15:02:40Z</time>
      </trkpt>
      <trkpt lat="44.74177" lon="3.26778">
        <ele>1027.8</ele>
        <time>2022-08-01T15:02:48Z</time>
      </trkpt>
      <trkpt lat="44.74175" lon="3.26779">
        <ele>1027.7</ele>
        <time>2022-08-01T15:02:50Z</time>
      </trkpt>
      <trkpt lat="44.74162" lon="3.26785">
        <ele>1026.6</ele>
        <time>2022-08-01T15:03:01Z</time>
      </trkpt>
      <trkpt lat="44.74159" lon="3.2679">
        <ele>1025.8</ele>
        <time>2022-08-01T15:03:04Z</time>
      </trkpt>
      <trkpt lat="44.74155" lon="3.26799">
        <ele>1024.6</ele>
        <time>2022-08-01T15:03:10Z</time>
      </trkpt>
      <trkpt lat="44.74155" lon="3.26803">
        <ele>1024.1</ele>
        <time>2022-08-01T15:03:12Z</time>
      </trkpt>
      <trkpt lat="44.74153" lon="3.2681">
        <ele>1023.8</ele>
        <time>2022-08-01T15:03:17Z</time>
      </trkpt>
      <trkpt lat="44.74147" lon="3.26828">
        <ele>1024.5</ele>
        <time>2022-08-01T15:03:27Z</time>
      </trkpt>
      <trkpt lat="44.74141" lon="3.26841">
        <ele>1024.5</ele>
        <time>2022-08-01T15:03:36Z</time>
      </trkpt>
      <trkpt lat="44.74132" lon="3.26852">
        <ele>1023.8</ele>
        <time>2022-08-01T15:03:46Z</time>
      </trkpt>
      <trkpt lat="44.74124" lon="3.26865">
        <ele>1023.1</ele>
        <time>2022-08-01T15:03:56Z</time>
      </trkpt>
      <trkpt lat="44.74115" lon="3.26878">
        <ele>1022.9</ele>
        <time>2022-08-01T15:04:07Z</time>
      </trkpt>
      <trkpt lat="44.74107" lon="3.26892">
        <ele>1023</ele>
        <time>2022-08-01T15:04:17Z</time>
      </trkpt>
      <trkpt lat="44.74098" lon="3.26905">
        <ele>1022.6</ele>
        <time>2022-08-01T15:04:27Z</time>
      </trkpt>
      <trkpt lat="44.74093" lon="3.26913">
        <ele>1022.5</ele>
        <time>2022-08-01T15:04:34Z</time>
      </trkpt>
      <trkpt lat="44.74086" lon="3.2692">
        <ele>1022.6</ele>
        <time>2022-08-01T15:04:41Z</time>
      </trkpt>
      <trkpt lat="44.74082" lon="3.26924">
        <ele>1022.4</ele>
        <time>2022-08-01T15:04:45Z</time>
      </trkpt>
      <trkpt lat="44.74082" lon="3.26924">
        <ele>1022.4</ele>
        <time>2022-08-01T15:04:48Z</time>
      </trkpt>
      <trkpt lat="44.74082" lon="3.26924">
        <ele>1022.4</ele>
        <time>2022-08-01T15:04:49Z</time>
      </trkpt>
      <trkpt lat="44.74079" lon="3.26927">
        <ele>1022</ele>
        <time>2022-08-01T15:04:56Z</time>
      </trkpt>
      <trkpt lat="44.74077" lon="3.26929">
        <ele>1021.7</ele>
        <time>2022-08-01T15:04:58Z</time>
      </trkpt>
      <trkpt lat="44.74071" lon="3.26935">
        <ele>1021.1</ele>
        <time>2022-08-01T15:05:04Z</time>
      </trkpt>
      <trkpt lat="44.74071" lon="3.26937">
        <ele>1021</ele>
        <time>2022-08-01T15:05:05Z</time>
      </trkpt>
      <trkpt lat="44.74067" lon="3.26945">
        <ele>1020.4</ele>
        <time>2022-08-01T15:05:11Z</time>
      </trkpt>
      <trkpt lat="44.74066" lon="3.26947">
        <ele>1020.3</ele>
        <time>2022-08-01T15:05:13Z</time>
      </trkpt>
      <trkpt lat="44.74064" lon="3.26963">
        <ele>1019.7</ele>
        <time>2022-08-01T15:05:22Z</time>
      </trkpt>
      <trkpt lat="44.74065" lon="3.26966">
        <ele>1019.5</ele>
        <time>2022-08-01T15:05:24Z</time>
      </trkpt>
      <trkpt lat="44.74065" lon="3.26983">
        <ele>1018.7</ele>
        <time>2022-08-01T15:05:34Z</time>
      </trkpt>
      <trkpt lat="44.74064" lon="3.26982">
        <ele>1018.7</ele>
        <time>2022-08-01T15:05:36Z</time>
      </trkpt>
      <trkpt lat="44.74063" lon="3.26982">
        <ele>1018.7</ele>
        <time>2022-08-01T15:05:38Z</time>
      </trkpt>
      <trkpt lat="44.74065" lon="3.26983">
        <ele>1018.7</ele>
        <time>2022-08-01T15:05:44Z</time>
      </trkpt>
      <trkpt lat="44.74065" lon="3.26992">
        <ele>1018.1</ele>
        <time>2022-08-01T15:05:50Z</time>
      </trkpt>
      <trkpt lat="44.74065" lon="3.27009">
        <ele>1017.3</ele>
        <time>2022-08-01T15:05:59Z</time>
      </trkpt>
      <trkpt lat="44.74063" lon="3.27026">
        <ele>1016.4</ele>
        <time>2022-08-01T15:06:09Z</time>
      </trkpt>
      <trkpt lat="44.74062" lon="3.27038">
        <ele>1015.9</ele>
        <time>2022-08-01T15:06:16Z</time>
      </trkpt>
      <trkpt lat="44.74061" lon="3.27042">
        <ele>1015.7</ele>
        <time>2022-08-01T15:06:19Z</time>
      </trkpt>
      <trkpt lat="44.7406" lon="3.27053">
        <ele>1015.2</ele>
        <time>2022-08-01T15:06:25Z</time>
      </trkpt>
      <trkpt lat="44.74058" lon="3.2706">
        <ele>1014.9</ele>
        <time>2022-08-01T15:06:29Z</time>
      </trkpt>
      <trkpt lat="44.74053" lon="3.27074">
        <ele>1014.1</ele>
        <time>2022-08-01T15:06:38Z</time>
      </trkpt>
      <trkpt lat="44.7405" lon="3.27086">
        <ele>1013.5</ele>
        <time>2022-08-01T15:06:45Z</time>
      </trkpt>
      <trkpt lat="44.74048" lon="3.27088">
        <ele>1013.3</ele>
        <time>2022-08-01T15:06:47Z</time>
      </trkpt>
      <trkpt lat="44.74047" lon="3.2709">
        <ele>1013.2</ele>
        <time>2022-08-01T15:06:48Z</time>
      </trkpt>
      <trkpt lat="44.74045" lon="3.27096">
        <ele>1012.7</ele>
        <time>2022-08-01T15:06:52Z</time>
      </trkpt>
      <trkpt lat="44.74041" lon="3.27107">
        <ele>1012.1</ele>
        <time>2022-08-01T15:06:58Z</time>
      </trkpt>
      <trkpt lat="44.74036" lon="3.27119">
        <ele>1011.3</ele>
        <time>2022-08-01T15:07:06Z</time>
      </trkpt>
      <trkpt lat="44.74035" lon="3.27123">
        <ele>1011.1</ele>
        <time>2022-08-01T15:07:08Z</time>
      </trkpt>
      <trkpt lat="44.7403" lon="3.27136">
        <ele>1010.3</ele>
        <time>2022-08-01T15:07:16Z</time>
      </trkpt>
      <trkpt lat="44.74028" lon="3.27142">
        <ele>1009.9</ele>
        <time>2022-08-01T15:07:20Z</time>
      </trkpt>
      <trkpt lat="44.74024" lon="3.2716">
        <ele>1009</ele>
        <time>2022-08-01T15:07:30Z</time>
      </trkpt>
      <trkpt lat="44.74022" lon="3.27169">
        <ele>1008.5</ele>
        <time>2022-08-01T15:07:36Z</time>
      </trkpt>
      <trkpt lat="44.74019" lon="3.27179">
        <ele>1007.8</ele>
        <time>2022-08-01T15:07:42Z</time>
      </trkpt>
      <trkpt lat="44.74014" lon="3.27199">
        <ele>1006.3</ele>
        <time>2022-08-01T15:07:54Z</time>
      </trkpt>
      <trkpt lat="44.74014" lon="3.27201">
        <ele>1006.2</ele>
        <time>2022-08-01T15:07:55Z</time>
      </trkpt>
      <trkpt lat="44.7401" lon="3.27213">
        <ele>1005.2</ele>
        <time>2022-08-01T15:08:03Z</time>
      </trkpt>
      <trkpt lat="44.74008" lon="3.27219">
        <ele>1004.7</ele>
        <time>2022-08-01T15:08:07Z</time>
      </trkpt>
      <trkpt lat="44.74002" lon="3.27233">
        <ele>1003.3</ele>
        <time>2022-08-01T15:08:17Z</time>
      </trkpt>
      <trkpt lat="44.74001" lon="3.27235">
        <ele>1003.2</ele>
        <time>2022-08-01T15:08:18Z</time>
      </trkpt>
      <trkpt lat="44.73997" lon="3.27249">
        <ele>1001.8</ele>
        <time>2022-08-01T15:08:27Z</time>
      </trkpt>
      <trkpt lat="44.73994" lon="3.27257">
        <ele>1001.5</ele>
        <time>2022-08-01T15:08:32Z</time>
      </trkpt>
      <trkpt lat="44.73993" lon="3.27261">
        <ele>1001.4</ele>
        <time>2022-08-01T15:08:34Z</time>
      </trkpt>
      <trkpt lat="44.73989" lon="3.2727">
        <ele>1000.9</ele>
        <time>2022-08-01T15:08:40Z</time>
      </trkpt>
      <trkpt lat="44.73986" lon="3.27276">
        <ele>1000.5</ele>
        <time>2022-08-01T15:08:44Z</time>
      </trkpt>
      <trkpt lat="44.73983" lon="3.27281">
        <ele>999.9</ele>
        <time>2022-08-01T15:08:48Z</time>
      </trkpt>
      <trkpt lat="44.73979" lon="3.27286">
        <ele>999.1</ele>
        <time>2022-08-01T15:08:52Z</time>
      </trkpt>
      <trkpt lat="44.73978" lon="3.27286">
        <ele>999</ele>
        <time>2022-08-01T15:08:53Z</time>
      </trkpt>
      <trkpt lat="44.73973" lon="3.2729">
        <ele>998.2</ele>
        <time>2022-08-01T15:08:58Z</time>
      </trkpt>
      <trkpt lat="44.73969" lon="3.27293">
        <ele>997.6</ele>
        <time>2022-08-01T15:09:02Z</time>
      </trkpt>
      <trkpt lat="44.73962" lon="3.27297">
        <ele>996.7</ele>
        <time>2022-08-01T15:09:08Z</time>
      </trkpt>
      <trkpt lat="44.73956" lon="3.273">
        <ele>996</ele>
        <time>2022-08-01T15:09:13Z</time>
      </trkpt>
      <trkpt lat="44.73955" lon="3.273">
        <ele>995.9</ele>
        <time>2022-08-01T15:09:14Z</time>
      </trkpt>
      <trkpt lat="44.73942" lon="3.27305">
        <ele>994.8</ele>
        <time>2022-08-01T15:09:25Z</time>
      </trkpt>
      <trkpt lat="44.7394" lon="3.27306">
        <ele>994.6</ele>
        <time>2022-08-01T15:09:26Z</time>
      </trkpt>
      <trkpt lat="44.73931" lon="3.2731">
        <ele>993.7</ele>
        <time>2022-08-01T15:09:34Z</time>
      </trkpt>
      <trkpt lat="44.7393" lon="3.27311">
        <ele>993.5</ele>
        <time>2022-08-01T15:09:35Z</time>
      </trkpt>
      <trkpt lat="44.7392" lon="3.27313">
        <ele>992.9</ele>
        <time>2022-08-01T15:09:43Z</time>
      </trkpt>
      <trkpt lat="44.73916" lon="3.27313">
        <ele>992.7</ele>
        <time>2022-08-01T15:09:46Z</time>
      </trkpt>
      <trkpt lat="44.73905" lon="3.27316">
        <ele>992.9</ele>
        <time>2022-08-01T15:09:55Z</time>
      </trkpt>
      <trkpt lat="44.73898" lon="3.27317">
        <ele>993.1</ele>
        <time>2022-08-01T15:10:03Z</time>
      </trkpt>
      <trkpt lat="44.73899" lon="3.27317">
        <ele>993.1</ele>
        <time>2022-08-01T15:10:06Z</time>
      </trkpt>
      <trkpt lat="44.739" lon="3.27316">
        <ele>993.1</ele>
        <time>2022-08-01T15:10:10Z</time>
      </trkpt>
      <trkpt lat="44.73901" lon="3.27316">
        <ele>993.1</ele>
        <time>2022-08-01T15:10:14Z</time>
      </trkpt>
      <trkpt lat="44.73901" lon="3.27316">
        <ele>993.1</ele>
        <time>2022-08-01T15:10:16Z</time>
      </trkpt>
      <trkpt lat="44.73888" lon="3.27321">
        <ele>993.7</ele>
        <time>2022-08-01T15:12:16Z</time>
      </trkpt>
      <trkpt lat="44.7388" lon="3.27329">
        <ele>995.2</ele>
        <time>2022-08-01T15:12:23Z</time>
      </trkpt>
      <trkpt lat="44.73879" lon="3.27329">
        <ele>995.3</ele>
        <time>2022-08-01T15:12:24Z</time>
      </trkpt>
      <trkpt lat="44.73872" lon="3.27333">
        <ele>996.5</ele>
        <time>2022-08-01T15:12:33Z</time>
      </trkpt>
      <trkpt lat="44.73869" lon="3.27334">
        <ele>996.9</ele>
        <time>2022-08-01T15:12:36Z</time>
      </trkpt>
      <trkpt lat="44.73867" lon="3.27337">
        <ele>997.4</ele>
        <time>2022-08-01T15:12:40Z</time>
      </trkpt>
      <trkpt lat="44.73864" lon="3.27339">
        <ele>997.9</ele>
        <time>2022-08-01T15:12:44Z</time>
      </trkpt>
      <trkpt lat="44.73862" lon="3.27342">
        <ele>998.5</ele>
        <time>2022-08-01T15:12:47Z</time>
      </trkpt>
      <trkpt lat="44.73858" lon="3.27346">
        <ele>999.2</ele>
        <time>2022-08-01T15:12:52Z</time>
      </trkpt>
      <trkpt lat="44.73857" lon="3.27346">
        <ele>999.4</ele>
        <time>2022-08-01T15:12:54Z</time>
      </trkpt>
      <trkpt lat="44.73854" lon="3.2735">
        <ele>999.9</ele>
        <time>2022-08-01T15:12:59Z</time>
      </trkpt>
      <trkpt lat="44.73852" lon="3.27352">
        <ele>1000.2</ele>
        <time>2022-08-01T15:13:01Z</time>
      </trkpt>
      <trkpt lat="44.73843" lon="3.2736">
        <ele>1001.3</ele>
        <time>2022-08-01T15:13:10Z</time>
      </trkpt>
      <trkpt lat="44.73842" lon="3.2736">
        <ele>1001.4</ele>
        <time>2022-08-01T15:13:11Z</time>
      </trkpt>
      <trkpt lat="44.73834" lon="3.27365">
        <ele>1002.3</ele>
        <time>2022-08-01T15:13:18Z</time>
      </trkpt>
      <trkpt lat="44.73832" lon="3.27366">
        <ele>1002.6</ele>
        <time>2022-08-01T15:13:20Z</time>
      </trkpt>
      <trkpt lat="44.7383" lon="3.27367">
        <ele>1003</ele>
        <time>2022-08-01T15:13:23Z</time>
      </trkpt>
      <trkpt lat="44.73827" lon="3.27368">
        <ele>1003.2</ele>
        <time>2022-08-01T15:13:26Z</time>
      </trkpt>
      <trkpt lat="44.73825" lon="3.27369">
        <ele>1003.6</ele>
        <time>2022-08-01T15:13:29Z</time>
      </trkpt>
      <trkpt lat="44.73819" lon="3.27372">
        <ele>1004.3</ele>
        <time>2022-08-01T15:13:35Z</time>
      </trkpt>
      <trkpt lat="44.73817" lon="3.27373">
        <ele>1004.5</ele>
        <time>2022-08-01T15:13:37Z</time>
      </trkpt>
      <trkpt lat="44.73811" lon="3.27377">
        <ele>1005.2</ele>
        <time>2022-08-01T15:13:43Z</time>
      </trkpt>
      <trkpt lat="44.73809" lon="3.27376">
        <ele>1005.3</ele>
        <time>2022-08-01T15:13:44Z</time>
      </trkpt>
      <trkpt lat="44.73801" lon="3.27378">
        <ele>1006.2</ele>
        <time>2022-08-01T15:13:52Z</time>
      </trkpt>
      <trkpt lat="44.738" lon="3.27379">
        <ele>1006.3</ele>
        <time>2022-08-01T15:13:53Z</time>
      </trkpt>
      <trkpt lat="44.73795" lon="3.27382">
        <ele>1007</ele>
        <time>2022-08-01T15:13:58Z</time>
      </trkpt>
      <trkpt lat="44.73794" lon="3.27383">
        <ele>1007.1</ele>
        <time>2022-08-01T15:13:59Z</time>
      </trkpt>
      <trkpt lat="44.73791" lon="3.27384">
        <ele>1007.5</ele>
        <time>2022-08-01T15:14:02Z</time>
      </trkpt>
      <trkpt lat="44.73788" lon="3.27386">
        <ele>1007.9</ele>
        <time>2022-08-01T15:14:05Z</time>
      </trkpt>
      <trkpt lat="44.73787" lon="3.27386">
        <ele>1008</ele>
        <time>2022-08-01T15:14:06Z</time>
      </trkpt>
      <trkpt lat="44.73778" lon="3.27388">
        <ele>1009</ele>
        <time>2022-08-01T15:14:15Z</time>
      </trkpt>
      <trkpt lat="44.7377" lon="3.27393">
        <ele>1009.9</ele>
        <time>2022-08-01T15:14:24Z</time>
      </trkpt>
      <trkpt lat="44.73759" lon="3.27396">
        <ele>1010.8</ele>
        <time>2022-08-01T15:14:33Z</time>
      </trkpt>
      <trkpt lat="44.73757" lon="3.27397">
        <ele>1011</ele>
        <time>2022-08-01T15:14:35Z</time>
      </trkpt>
      <trkpt lat="44.73746" lon="3.27401">
        <ele>1011.7</ele>
        <time>2022-08-01T15:14:46Z</time>
      </trkpt>
      <trkpt lat="44.73735" lon="3.27402">
        <ele>1012</ele>
        <time>2022-08-01T15:14:55Z</time>
      </trkpt>
      <trkpt lat="44.73734" lon="3.27403">
        <ele>1012.1</ele>
        <time>2022-08-01T15:14:56Z</time>
      </trkpt>
      <trkpt lat="44.73725" lon="3.27405">
        <ele>1012.3</ele>
        <time>2022-08-01T15:15:04Z</time>
      </trkpt>
      <trkpt lat="44.73716" lon="3.27409">
        <ele>1012.5</ele>
        <time>2022-08-01T15:15:12Z</time>
      </trkpt>
      <trkpt lat="44.73712" lon="3.27411">
        <ele>1012.6</ele>
        <time>2022-08-01T15:15:16Z</time>
      </trkpt>
      <trkpt lat="44.73708" lon="3.27412">
        <ele>1012.7</ele>
        <time>2022-08-01T15:15:19Z</time>
      </trkpt>
      <trkpt lat="44.73706" lon="3.27412">
        <ele>1012.8</ele>
        <time>2022-08-01T15:15:20Z</time>
      </trkpt>
      <trkpt lat="44.73704" lon="3.27412">
        <ele>1012.8</ele>
        <time>2022-08-01T15:15:23Z</time>
      </trkpt>
      <trkpt lat="44.73704" lon="3.27412">
        <ele>1012.8</ele>
        <time>2022-08-01T15:15:25Z</time>
      </trkpt>
      <trkpt lat="44.73704" lon="3.27412">
        <ele>1012.8</ele>
        <time>2022-08-01T15:15:26Z</time>
      </trkpt>
      <trkpt lat="44.73705" lon="3.27412">
        <ele>1012.8</ele>
        <time>2022-08-01T15:15:30Z</time>
      </trkpt>
      <trkpt lat="44.73704" lon="3.27411">
        <ele>1012.8</ele>
        <time>2022-08-01T15:15:32Z</time>
      </trkpt>
      <trkpt lat="44.73704" lon="3.27411">
        <ele>1012.9</ele>
        <time>2022-08-01T15:15:35Z</time>
      </trkpt>
      <trkpt lat="44.73698" lon="3.27412">
        <ele>1013.1</ele>
        <time>2022-08-01T15:15:57Z</time>
      </trkpt>
      <trkpt lat="44.73684" lon="3.27414">
        <ele>1013.1</ele>
        <time>2022-08-01T15:16:07Z</time>
      </trkpt>
      <trkpt lat="44.73668" lon="3.27414">
        <ele>1013.1</ele>
        <time>2022-08-01T15:16:20Z</time>
      </trkpt>
      <trkpt lat="44.73658" lon="3.27413">
        <ele>1012.9</ele>
        <time>2022-08-01T15:16:29Z</time>
      </trkpt>
      <trkpt lat="44.73643" lon="3.2741">
        <ele>1012.6</ele>
        <time>2022-08-01T15:16:40Z</time>
      </trkpt>
      <trkpt lat="44.73629" lon="3.27411">
        <ele>1012.8</ele>
        <time>2022-08-01T15:16:51Z</time>
      </trkpt>
      <trkpt lat="44.73619" lon="3.27411">
        <ele>1013.1</ele>
        <time>2022-08-01T15:17:00Z</time>
      </trkpt>
      <trkpt lat="44.73604" lon="3.27413">
        <ele>1013.8</ele>
        <time>2022-08-01T15:17:12Z</time>
      </trkpt>
      <trkpt lat="44.73586" lon="3.27417">
        <ele>1014.7</ele>
        <time>2022-08-01T15:17:27Z</time>
      </trkpt>
      <trkpt lat="44.73571" lon="3.27422">
        <ele>1015.2</ele>
        <time>2022-08-01T15:17:39Z</time>
      </trkpt>
      <trkpt lat="44.73561" lon="3.27426">
        <ele>1015.7</ele>
        <time>2022-08-01T15:17:48Z</time>
      </trkpt>
      <trkpt lat="44.73559" lon="3.27426">
        <ele>1015.7</ele>
        <time>2022-08-01T15:17:49Z</time>
      </trkpt>
      <trkpt lat="44.73551" lon="3.27429">
        <ele>1015.8</ele>
        <time>2022-08-01T15:17:56Z</time>
      </trkpt>
      <trkpt lat="44.73549" lon="3.2743">
        <ele>1015.9</ele>
        <time>2022-08-01T15:17:58Z</time>
      </trkpt>
      <trkpt lat="44.73543" lon="3.27431">
        <ele>1015.9</ele>
        <time>2022-08-01T15:18:03Z</time>
      </trkpt>
      <trkpt lat="44.73536" lon="3.27433">
        <ele>1015.9</ele>
        <time>2022-08-01T15:18:08Z</time>
      </trkpt>
      <trkpt lat="44.73523" lon="3.27436">
        <ele>1016.1</ele>
        <time>2022-08-01T15:18:18Z</time>
      </trkpt>
      <trkpt lat="44.7351" lon="3.27441">
        <ele>1015.9</ele>
        <time>2022-08-01T15:18:28Z</time>
      </trkpt>
      <trkpt lat="44.73499" lon="3.27446">
        <ele>1015.8</ele>
        <time>2022-08-01T15:18:37Z</time>
      </trkpt>
      <trkpt lat="44.73498" lon="3.27446">
        <ele>1016</ele>
        <time>2022-08-01T15:18:38Z</time>
      </trkpt>
      <trkpt lat="44.73497" lon="3.27447">
        <ele>1015.9</ele>
        <time>2022-08-01T15:18:39Z</time>
      </trkpt>
      <trkpt lat="44.73491" lon="3.27451">
        <ele>1016.1</ele>
        <time>2022-08-01T15:18:44Z</time>
      </trkpt>
      <trkpt lat="44.73483" lon="3.27456">
        <ele>1016.2</ele>
        <time>2022-08-01T15:18:51Z</time>
      </trkpt>
      <trkpt lat="44.7348" lon="3.27459">
        <ele>1016.2</ele>
        <time>2022-08-01T15:18:54Z</time>
      </trkpt>
      <trkpt lat="44.73474" lon="3.27468">
        <ele>1016.2</ele>
        <time>2022-08-01T15:19:01Z</time>
      </trkpt>
      <trkpt lat="44.73466" lon="3.2748">
        <ele>1017</ele>
        <time>2022-08-01T15:19:11Z</time>
      </trkpt>
      <trkpt lat="44.73465" lon="3.27481">
        <ele>1017.1</ele>
        <time>2022-08-01T15:19:12Z</time>
      </trkpt>
      <trkpt lat="44.73458" lon="3.2749">
        <ele>1018.3</ele>
        <time>2022-08-01T15:19:19Z</time>
      </trkpt>
      <trkpt lat="44.73457" lon="3.27493">
        <ele>1018.6</ele>
        <time>2022-08-01T15:19:21Z</time>
      </trkpt>
      <trkpt lat="44.73454" lon="3.27508">
        <ele>1019.6</ele>
        <time>2022-08-01T15:19:30Z</time>
      </trkpt>
      <trkpt lat="44.73452" lon="3.27516">
        <ele>1020.2</ele>
        <time>2022-08-01T15:19:36Z</time>
      </trkpt>
      <trkpt lat="44.73452" lon="3.27516">
        <ele>1020.3</ele>
        <time>2022-08-01T15:19:37Z</time>
      </trkpt>
      <trkpt lat="44.73451" lon="3.27515">
        <ele>1020.3</ele>
        <time>2022-08-01T15:19:40Z</time>
      </trkpt>
      <trkpt lat="44.73452" lon="3.27515">
        <ele>1020.1</ele>
        <time>2022-08-01T15:19:45Z</time>
      </trkpt>
      <trkpt lat="44.73453" lon="3.27517">
        <ele>1020.1</ele>
        <time>2022-08-01T15:20:09Z</time>
      </trkpt>
      <trkpt lat="44.73455" lon="3.27522">
        <ele>1019.8</ele>
        <time>2022-08-01T15:21:12Z</time>
      </trkpt>
      <trkpt lat="44.73455" lon="3.27531">
        <ele>1020.1</ele>
        <time>2022-08-01T15:21:17Z</time>
      </trkpt>
      <trkpt lat="44.73454" lon="3.27536">
        <ele>1020.4</ele>
        <time>2022-08-01T15:21:23Z</time>
      </trkpt>
      <trkpt lat="44.73451" lon="3.27546">
        <ele>1020.8</ele>
        <time>2022-08-01T15:21:30Z</time>
      </trkpt>
      <trkpt lat="44.73451" lon="3.27548">
        <ele>1020.9</ele>
        <time>2022-08-01T15:21:31Z</time>
      </trkpt>
      <trkpt lat="44.7345" lon="3.27549">
        <ele>1021</ele>
        <time>2022-08-01T15:21:32Z</time>
      </trkpt>
      <trkpt lat="44.7345" lon="3.27558">
        <ele>1021.1</ele>
        <time>2022-08-01T15:21:39Z</time>
      </trkpt>
      <trkpt lat="44.7345" lon="3.27561">
        <ele>1021.3</ele>
        <time>2022-08-01T15:21:41Z</time>
      </trkpt>
      <trkpt lat="44.73449" lon="3.27571">
        <ele>1021.7</ele>
        <time>2022-08-01T15:21:48Z</time>
      </trkpt>
      <trkpt lat="44.73449" lon="3.27572">
        <ele>1021.8</ele>
        <time>2022-08-01T15:21:49Z</time>
      </trkpt>
      <trkpt lat="44.73447" lon="3.2758">
        <ele>1022.4</ele>
        <time>2022-08-01T15:21:55Z</time>
      </trkpt>
      <trkpt lat="44.73448" lon="3.27582">
        <ele>1022.3</ele>
        <time>2022-08-01T15:21:56Z</time>
      </trkpt>
      <trkpt lat="44.73446" lon="3.27586">
        <ele>1022.4</ele>
        <time>2022-08-01T15:22:01Z</time>
      </trkpt>
      <trkpt lat="44.73445" lon="3.27596">
        <ele>1022</ele>
        <time>2022-08-01T15:22:07Z</time>
      </trkpt>
      <trkpt lat="44.73444" lon="3.27599">
        <ele>1022</ele>
        <time>2022-08-01T15:22:09Z</time>
      </trkpt>
      <trkpt lat="44.73442" lon="3.27605">
        <ele>1021.8</ele>
        <time>2022-08-01T15:22:13Z</time>
      </trkpt>
      <trkpt lat="44.73441" lon="3.27608">
        <ele>1021.7</ele>
        <time>2022-08-01T15:22:15Z</time>
      </trkpt>
      <trkpt lat="44.73437" lon="3.27621">
        <ele>1021.3</ele>
        <time>2022-08-01T15:22:24Z</time>
      </trkpt>
      <trkpt lat="44.73433" lon="3.27631">
        <ele>1021.2</ele>
        <time>2022-08-01T15:22:31Z</time>
      </trkpt>
      <trkpt lat="44.73433" lon="3.27632">
        <ele>1021.2</ele>
        <time>2022-08-01T15:22:32Z</time>
      </trkpt>
      <trkpt lat="44.73425" lon="3.27645">
        <ele>1021.2</ele>
        <time>2022-08-01T15:22:42Z</time>
      </trkpt>
      <trkpt lat="44.73419" lon="3.27653">
        <ele>1021.2</ele>
        <time>2022-08-01T15:22:50Z</time>
      </trkpt>
      <trkpt lat="44.73418" lon="3.27654">
        <ele>1021.2</ele>
        <time>2022-08-01T15:22:51Z</time>
      </trkpt>
      <trkpt lat="44.73408" lon="3.27664">
        <ele>1020.9</ele>
        <time>2022-08-01T15:23:01Z</time>
      </trkpt>
      <trkpt lat="44.734" lon="3.27672">
        <ele>1020.7</ele>
        <time>2022-08-01T15:23:09Z</time>
      </trkpt>
      <trkpt lat="44.73392" lon="3.27679">
        <ele>1020.6</ele>
        <time>2022-08-01T15:23:17Z</time>
      </trkpt>
      <trkpt lat="44.73383" lon="3.27684">
        <ele>1020.5</ele>
        <time>2022-08-01T15:23:25Z</time>
      </trkpt>
      <trkpt lat="44.73378" lon="3.27688">
        <ele>1020.4</ele>
        <time>2022-08-01T15:23:30Z</time>
      </trkpt>
      <trkpt lat="44.73367" lon="3.27693">
        <ele>1020.7</ele>
        <time>2022-08-01T15:23:39Z</time>
      </trkpt>
      <trkpt lat="44.73359" lon="3.27696">
        <ele>1020.8</ele>
        <time>2022-08-01T15:23:46Z</time>
      </trkpt>
      <trkpt lat="44.73359" lon="3.27696">
        <ele>1020.8</ele>
        <time>2022-08-01T15:23:47Z</time>
      </trkpt>
      <trkpt lat="44.73348" lon="3.27703">
        <ele>1020.2</ele>
        <time>2022-08-01T15:23:57Z</time>
      </trkpt>
      <trkpt lat="44.73336" lon="3.27708">
        <ele>1020</ele>
        <time>2022-08-01T15:24:07Z</time>
      </trkpt>
      <trkpt lat="44.73335" lon="3.27709">
        <ele>1019.9</ele>
        <time>2022-08-01T15:24:08Z</time>
      </trkpt>
      <trkpt lat="44.73329" lon="3.27709">
        <ele>1020</ele>
        <time>2022-08-01T15:24:15Z</time>
      </trkpt>
      <trkpt lat="44.73329" lon="3.27709">
        <ele>1019.9</ele>
        <time>2022-08-01T15:24:16Z</time>
      </trkpt>
      <trkpt lat="44.73327" lon="3.2771">
        <ele>1019.9</ele>
        <time>2022-08-01T15:24:21Z</time>
      </trkpt>
      <trkpt lat="44.73326" lon="3.2771">
        <ele>1019.9</ele>
        <time>2022-08-01T15:24:22Z</time>
      </trkpt>
      <trkpt lat="44.7332" lon="3.27711">
        <ele>1019.8</ele>
        <time>2022-08-01T15:24:28Z</time>
      </trkpt>
      <trkpt lat="44.73312" lon="3.27712">
        <ele>1019.7</ele>
        <time>2022-08-01T15:24:34Z</time>
      </trkpt>
      <trkpt lat="44.73309" lon="3.27713">
        <ele>1019.7</ele>
        <time>2022-08-01T15:24:37Z</time>
      </trkpt>
      <trkpt lat="44.73301" lon="3.27712">
        <ele>1019.5</ele>
        <time>2022-08-01T15:24:43Z</time>
      </trkpt>
      <trkpt lat="44.73294" lon="3.27711">
        <ele>1019.2</ele>
        <time>2022-08-01T15:24:49Z</time>
      </trkpt>
      <trkpt lat="44.73287" lon="3.27709">
        <ele>1019</ele>
        <time>2022-08-01T15:24:55Z</time>
      </trkpt>
      <trkpt lat="44.73281" lon="3.27707">
        <ele>1018.7</ele>
        <time>2022-08-01T15:25:00Z</time>
      </trkpt>
      <trkpt lat="44.7327" lon="3.27705">
        <ele>1018.1</ele>
        <time>2022-08-01T15:25:08Z</time>
      </trkpt>
      <trkpt lat="44.73265" lon="3.27704">
        <ele>1017.8</ele>
        <time>2022-08-01T15:25:12Z</time>
      </trkpt>
      <trkpt lat="44.73256" lon="3.27701">
        <ele>1017.2</ele>
        <time>2022-08-01T15:25:20Z</time>
      </trkpt>
      <trkpt lat="44.73254" lon="3.277">
        <ele>1017.1</ele>
        <time>2022-08-01T15:25:22Z</time>
      </trkpt>
      <trkpt lat="44.73247" lon="3.27696">
        <ele>1016.6</ele>
        <time>2022-08-01T15:25:28Z</time>
      </trkpt>
      <trkpt lat="44.73241" lon="3.27692">
        <ele>1016.1</ele>
        <time>2022-08-01T15:25:33Z</time>
      </trkpt>
      <trkpt lat="44.73236" lon="3.2769">
        <ele>1015.7</ele>
        <time>2022-08-01T15:25:37Z</time>
      </trkpt>
      <trkpt lat="44.73229" lon="3.27685">
        <ele>1015</ele>
        <time>2022-08-01T15:25:44Z</time>
      </trkpt>
      <trkpt lat="44.73227" lon="3.27684">
        <ele>1014.9</ele>
        <time>2022-08-01T15:25:46Z</time>
      </trkpt>
      <trkpt lat="44.73219" lon="3.27682">
        <ele>1013.9</ele>
        <time>2022-08-01T15:25:53Z</time>
      </trkpt>
      <trkpt lat="44.73217" lon="3.27682">
        <ele>1013.8</ele>
        <time>2022-08-01T15:25:54Z</time>
      </trkpt>
      <trkpt lat="44.73208" lon="3.27679">
        <ele>1012.4</ele>
        <time>2022-08-01T15:26:03Z</time>
      </trkpt>
      <trkpt lat="44.73197" lon="3.27677">
        <ele>1011</ele>
        <time>2022-08-01T15:26:12Z</time>
      </trkpt>
      <trkpt lat="44.73194" lon="3.27677">
        <ele>1010.5</ele>
        <time>2022-08-01T15:26:15Z</time>
      </trkpt>
      <trkpt lat="44.73191" lon="3.27677">
        <ele>1010.1</ele>
        <time>2022-08-01T15:26:18Z</time>
      </trkpt>
      <trkpt lat="44.73185" lon="3.27676">
        <ele>1009.4</ele>
        <time>2022-08-01T15:26:23Z</time>
      </trkpt>
      <trkpt lat="44.73183" lon="3.27676">
        <ele>1009.1</ele>
        <time>2022-08-01T15:26:25Z</time>
      </trkpt>
      <trkpt lat="44.73176" lon="3.27678">
        <ele>1008.2</ele>
        <time>2022-08-01T15:26:32Z</time>
      </trkpt>
      <trkpt lat="44.73173" lon="3.27678">
        <ele>1007.9</ele>
        <time>2022-08-01T15:26:34Z</time>
      </trkpt>
      <trkpt lat="44.7317" lon="3.27679">
        <ele>1007.4</ele>
        <time>2022-08-01T15:26:37Z</time>
      </trkpt>
      <trkpt lat="44.73163" lon="3.27679">
        <ele>1006.6</ele>
        <time>2022-08-01T15:26:45Z</time>
      </trkpt>
      <trkpt lat="44.73163" lon="3.27678">
        <ele>1006.6</ele>
        <time>2022-08-01T15:26:46Z</time>
      </trkpt>
      <trkpt lat="44.73161" lon="3.27679">
        <ele>1006.4</ele>
        <time>2022-08-01T15:26:52Z</time>
      </trkpt>
      <trkpt lat="44.73152" lon="3.27681">
        <ele>1005.4</ele>
        <time>2022-08-01T15:27:00Z</time>
      </trkpt>
      <trkpt lat="44.7315" lon="3.27682">
        <ele>1005.2</ele>
        <time>2022-08-01T15:27:02Z</time>
      </trkpt>
      <trkpt lat="44.73138" lon="3.27689">
        <ele>1003.9</ele>
        <time>2022-08-01T15:27:13Z</time>
      </trkpt>
      <trkpt lat="44.73137" lon="3.2769">
        <ele>1003.8</ele>
        <time>2022-08-01T15:27:14Z</time>
      </trkpt>
      <trkpt lat="44.73129" lon="3.27696">
        <ele>1003.3</ele>
        <time>2022-08-01T15:27:21Z</time>
      </trkpt>
      <trkpt lat="44.7312" lon="3.27702">
        <ele>1002.7</ele>
        <time>2022-08-01T15:27:28Z</time>
      </trkpt>
      <trkpt lat="44.73118" lon="3.27704">
        <ele>1002.5</ele>
        <time>2022-08-01T15:27:30Z</time>
      </trkpt>
      <trkpt lat="44.73106" lon="3.27708">
        <ele>1001.8</ele>
        <time>2022-08-01T15:27:39Z</time>
      </trkpt>
      <trkpt lat="44.73101" lon="3.27709">
        <ele>1001.6</ele>
        <time>2022-08-01T15:27:43Z</time>
      </trkpt>
      <trkpt lat="44.73098" lon="3.27708">
        <ele>1001.5</ele>
        <time>2022-08-01T15:27:46Z</time>
      </trkpt>
      <trkpt lat="44.73086" lon="3.27703">
        <ele>1001.1</ele>
        <time>2022-08-01T15:27:55Z</time>
      </trkpt>
      <trkpt lat="44.73077" lon="3.27695">
        <ele>1000.6</ele>
        <time>2022-08-01T15:28:03Z</time>
      </trkpt>
      <trkpt lat="44.73068" lon="3.27685">
        <ele>999.9</ele>
        <time>2022-08-01T15:28:13Z</time>
      </trkpt>
      <trkpt lat="44.73058" lon="3.27677">
        <ele>999.2</ele>
        <time>2022-08-01T15:28:22Z</time>
      </trkpt>
      <trkpt lat="44.73056" lon="3.27675">
        <ele>999</ele>
        <time>2022-08-01T15:28:24Z</time>
      </trkpt>
      <trkpt lat="44.73042" lon="3.27667">
        <ele>998.5</ele>
        <time>2022-08-01T15:28:37Z</time>
      </trkpt>
      <trkpt lat="44.73041" lon="3.27666">
        <ele>998.5</ele>
        <time>2022-08-01T15:28:39Z</time>
      </trkpt>
      <trkpt lat="44.73041" lon="3.27667">
        <ele>998.5</ele>
        <time>2022-08-01T15:28:40Z</time>
      </trkpt>
      <trkpt lat="44.73041" lon="3.27668">
        <ele>998.5</ele>
        <time>2022-08-01T15:28:42Z</time>
      </trkpt>
      <trkpt lat="44.73041" lon="3.27668">
        <ele>998.5</ele>
        <time>2022-08-01T15:28:43Z</time>
      </trkpt>
      <trkpt lat="44.73041" lon="3.27667">
        <ele>998.5</ele>
        <time>2022-08-01T15:28:50Z</time>
      </trkpt>
      <trkpt lat="44.73042" lon="3.27667">
        <ele>998.5</ele>
        <time>2022-08-01T15:29:14Z</time>
      </trkpt>
      <trkpt lat="44.73042" lon="3.27666">
        <ele>998.5</ele>
        <time>2022-08-01T15:29:39Z</time>
      </trkpt>
      <trkpt lat="44.73041" lon="3.27668">
        <ele>998.5</ele>
        <time>2022-08-01T15:30:35Z</time>
      </trkpt>
      <trkpt lat="44.7304" lon="3.27665">
        <ele>998.4</ele>
        <time>2022-08-01T15:31:23Z</time>
      </trkpt>
      <trkpt lat="44.73039" lon="3.27666">
        <ele>998.4</ele>
        <time>2022-08-01T15:31:36Z</time>
      </trkpt>
      <trkpt lat="44.7304" lon="3.27666">
        <ele>998.4</ele>
        <time>2022-08-01T15:32:41Z</time>
      </trkpt>
      <trkpt lat="44.7304" lon="3.27666">
        <ele>998.4</ele>
        <time>2022-08-01T15:33:16Z</time>
      </trkpt>
      <trkpt lat="44.73032" lon="3.27667">
        <ele>998.2</ele>
        <time>2022-08-01T15:34:12Z</time>
      </trkpt>
      <trkpt lat="44.73017" lon="3.27667">
        <ele>998.4</ele>
        <time>2022-08-01T15:34:23Z</time>
      </trkpt>
      <trkpt lat="44.73005" lon="3.27667">
        <ele>998.8</ele>
        <time>2022-08-01T15:34:33Z</time>
      </trkpt>
      <trkpt lat="44.72994" lon="3.27666">
        <ele>999.8</ele>
        <time>2022-08-01T15:34:43Z</time>
      </trkpt>
      <trkpt lat="44.72992" lon="3.27666">
        <ele>1000.2</ele>
        <time>2022-08-01T15:34:45Z</time>
      </trkpt>
      <trkpt lat="44.72983" lon="3.27664">
        <ele>1001.8</ele>
        <time>2022-08-01T15:34:55Z</time>
      </trkpt>
      <trkpt lat="44.7298" lon="3.27663">
        <ele>1002.3</ele>
        <time>2022-08-01T15:34:58Z</time>
      </trkpt>
      <trkpt lat="44.72975" lon="3.27661">
        <ele>1003.3</ele>
        <time>2022-08-01T15:35:04Z</time>
      </trkpt>
      <trkpt lat="44.72971" lon="3.27661">
        <ele>1004.1</ele>
        <time>2022-08-01T15:35:09Z</time>
      </trkpt>
      <trkpt lat="44.72969" lon="3.2766">
        <ele>1004.5</ele>
        <time>2022-08-01T15:35:11Z</time>
      </trkpt>
      <trkpt lat="44.72968" lon="3.2766">
        <ele>1004.7</ele>
        <time>2022-08-01T15:35:12Z</time>
      </trkpt>
      <trkpt lat="44.72963" lon="3.27658">
        <ele>1005.9</ele>
        <time>2022-08-01T15:35:18Z</time>
      </trkpt>
      <trkpt lat="44.72956" lon="3.27656">
        <ele>1007.2</ele>
        <time>2022-08-01T15:35:26Z</time>
      </trkpt>
      <trkpt lat="44.72955" lon="3.27656">
        <ele>1007.4</ele>
        <time>2022-08-01T15:35:27Z</time>
      </trkpt>
      <trkpt lat="44.7295" lon="3.27653">
        <ele>1008.5</ele>
        <time>2022-08-01T15:35:33Z</time>
      </trkpt>
      <trkpt lat="44.72943" lon="3.2765">
        <ele>1009.9</ele>
        <time>2022-08-01T15:35:40Z</time>
      </trkpt>
      <trkpt lat="44.72942" lon="3.27649">
        <ele>1010</ele>
        <time>2022-08-01T15:35:41Z</time>
      </trkpt>
      <trkpt lat="44.72936" lon="3.27646">
        <ele>1010.5</ele>
        <time>2022-08-01T15:35:47Z</time>
      </trkpt>
      <trkpt lat="44.72935" lon="3.27646">
        <ele>1010.6</ele>
        <time>2022-08-01T15:35:48Z</time>
      </trkpt>
      <trkpt lat="44.72928" lon="3.27644">
        <ele>1011.1</ele>
        <time>2022-08-01T15:35:54Z</time>
      </trkpt>
      <trkpt lat="44.72927" lon="3.27643">
        <ele>1011.1</ele>
        <time>2022-08-01T15:35:57Z</time>
      </trkpt>
      <trkpt lat="44.72928" lon="3.27643">
        <ele>1011.1</ele>
        <time>2022-08-01T15:35:58Z</time>
      </trkpt>
      <trkpt lat="44.72928" lon="3.27644">
        <ele>1011.1</ele>
        <time>2022-08-01T15:36:00Z</time>
      </trkpt>
      <trkpt lat="44.72928" lon="3.27643">
        <ele>1011.1</ele>
        <time>2022-08-01T15:36:02Z</time>
      </trkpt>
      <trkpt lat="44.72928" lon="3.27642">
        <ele>1011.3</ele>
        <time>2022-08-01T15:36:06Z</time>
      </trkpt>
      <trkpt lat="44.72925" lon="3.27639">
        <ele>1011.7</ele>
        <time>2022-08-01T15:36:15Z</time>
      </trkpt>
      <trkpt lat="44.72923" lon="3.27636">
        <ele>1011.8</ele>
        <time>2022-08-01T15:36:22Z</time>
      </trkpt>
      <trkpt lat="44.72924" lon="3.27638">
        <ele>1011.8</ele>
        <time>2022-08-01T15:36:30Z</time>
      </trkpt>
      <trkpt lat="44.72918" lon="3.27636">
        <ele>1011.9</ele>
        <time>2022-08-01T15:37:03Z</time>
      </trkpt>
      <trkpt lat="44.72909" lon="3.27631">
        <ele>1011.4</ele>
        <time>2022-08-01T15:37:11Z</time>
      </trkpt>
      <trkpt lat="44.729" lon="3.27627">
        <ele>1010.8</ele>
        <time>2022-08-01T15:37:19Z</time>
      </trkpt>
      <trkpt lat="44.72884" lon="3.2762">
        <ele>1010</ele>
        <time>2022-08-01T15:37:34Z</time>
      </trkpt>
      <trkpt lat="44.72879" lon="3.27619">
        <ele>1010</ele>
        <time>2022-08-01T15:37:40Z</time>
      </trkpt>
      <trkpt lat="44.72878" lon="3.27618">
        <ele>1010</ele>
        <time>2022-08-01T15:37:41Z</time>
      </trkpt>
      <trkpt lat="44.72871" lon="3.27614">
        <ele>1010</ele>
        <time>2022-08-01T15:37:48Z</time>
      </trkpt>
      <trkpt lat="44.7286" lon="3.27611">
        <ele>1010</ele>
        <time>2022-08-01T15:37:57Z</time>
      </trkpt>
      <trkpt lat="44.7285" lon="3.27607">
        <ele>1010</ele>
        <time>2022-08-01T15:38:06Z</time>
      </trkpt>
      <trkpt lat="44.72832" lon="3.276">
        <ele>1010</ele>
        <time>2022-08-01T15:38:21Z</time>
      </trkpt>
      <trkpt lat="44.72823" lon="3.27597">
        <ele>1009.6</ele>
        <time>2022-08-01T15:38:29Z</time>
      </trkpt>
      <trkpt lat="44.72807" lon="3.27591">
        <ele>1009.5</ele>
        <time>2022-08-01T15:38:42Z</time>
      </trkpt>
      <trkpt lat="44.72796" lon="3.27587">
        <ele>1009.8</ele>
        <time>2022-08-01T15:38:52Z</time>
      </trkpt>
      <trkpt lat="44.7279" lon="3.27584">
        <ele>1010</ele>
        <time>2022-08-01T15:38:57Z</time>
      </trkpt>
      <trkpt lat="44.72783" lon="3.27583">
        <ele>1010.1</ele>
        <time>2022-08-01T15:39:02Z</time>
      </trkpt>
      <trkpt lat="44.72773" lon="3.27581">
        <ele>1010.5</ele>
        <time>2022-08-01T15:39:10Z</time>
      </trkpt>
      <trkpt lat="44.72768" lon="3.27585">
        <ele>1010.7</ele>
        <time>2022-08-01T15:39:16Z</time>
      </trkpt>
      <trkpt lat="44.72767" lon="3.27584">
        <ele>1010.7</ele>
        <time>2022-08-01T15:39:19Z</time>
      </trkpt>
      <trkpt lat="44.72767" lon="3.27584">
        <ele>1010.8</ele>
        <time>2022-08-01T15:39:23Z</time>
      </trkpt>
      <trkpt lat="44.72766" lon="3.27586">
        <ele>1010.8</ele>
        <time>2022-08-01T15:39:26Z</time>
      </trkpt>
      <trkpt lat="44.72761" lon="3.27597">
        <ele>1010.7</ele>
        <time>2022-08-01T15:39:34Z</time>
      </trkpt>
      <trkpt lat="44.72755" lon="3.2761">
        <ele>1010.7</ele>
        <time>2022-08-01T15:39:45Z</time>
      </trkpt>
      <trkpt lat="44.72754" lon="3.27614">
        <ele>1010.5</ele>
        <time>2022-08-01T15:39:51Z</time>
      </trkpt>
      <trkpt lat="44.72753" lon="3.27615">
        <ele>1010.5</ele>
        <time>2022-08-01T15:39:52Z</time>
      </trkpt>
      <trkpt lat="44.72749" lon="3.27627">
        <ele>1009.9</ele>
        <time>2022-08-01T15:40:00Z</time>
      </trkpt>
      <trkpt lat="44.72743" lon="3.27649">
        <ele>1008.9</ele>
        <time>2022-08-01T15:40:14Z</time>
      </trkpt>
      <trkpt lat="44.72741" lon="3.27657">
        <ele>1008.6</ele>
        <time>2022-08-01T15:40:19Z</time>
      </trkpt>
      <trkpt lat="44.72741" lon="3.27659">
        <ele>1008.5</ele>
        <time>2022-08-01T15:40:20Z</time>
      </trkpt>
      <trkpt lat="44.72739" lon="3.27664">
        <ele>1008.3</ele>
        <time>2022-08-01T15:40:23Z</time>
      </trkpt>
      <trkpt lat="44.72737" lon="3.27676">
        <ele>1008.1</ele>
        <time>2022-08-01T15:40:30Z</time>
      </trkpt>
      <trkpt lat="44.72736" lon="3.27687">
        <ele>1007.8</ele>
        <time>2022-08-01T15:40:36Z</time>
      </trkpt>
      <trkpt lat="44.72731" lon="3.27702">
        <ele>1007.9</ele>
        <time>2022-08-01T15:40:45Z</time>
      </trkpt>
      <trkpt lat="44.72725" lon="3.27723">
        <ele>1008.5</ele>
        <time>2022-08-01T15:40:57Z</time>
      </trkpt>
      <trkpt lat="44.72724" lon="3.27726">
        <ele>1008.4</ele>
        <time>2022-08-01T15:40:59Z</time>
      </trkpt>
      <trkpt lat="44.72719" lon="3.27741">
        <ele>1007.9</ele>
        <time>2022-08-01T15:41:08Z</time>
      </trkpt>
      <trkpt lat="44.72713" lon="3.27754">
        <ele>1007.9</ele>
        <time>2022-08-01T15:41:17Z</time>
      </trkpt>
      <trkpt lat="44.7271" lon="3.27762">
        <ele>1008.1</ele>
        <time>2022-08-01T15:41:23Z</time>
      </trkpt>
      <trkpt lat="44.72705" lon="3.27773">
        <ele>1008.6</ele>
        <time>2022-08-01T15:41:30Z</time>
      </trkpt>
      <trkpt lat="44.72701" lon="3.27779">
        <ele>1009</ele>
        <time>2022-08-01T15:41:35Z</time>
      </trkpt>
      <trkpt lat="44.72692" lon="3.27796">
        <ele>1009.6</ele>
        <time>2022-08-01T15:41:48Z</time>
      </trkpt>
      <trkpt lat="44.72684" lon="3.27809">
        <ele>1010.1</ele>
        <time>2022-08-01T15:41:57Z</time>
      </trkpt>
      <trkpt lat="44.72672" lon="3.27821">
        <ele>1011.4</ele>
        <time>2022-08-01T15:42:09Z</time>
      </trkpt>
      <trkpt lat="44.72664" lon="3.2783">
        <ele>1012.2</ele>
        <time>2022-08-01T15:42:17Z</time>
      </trkpt>
      <trkpt lat="44.72651" lon="3.27844">
        <ele>1012.8</ele>
        <time>2022-08-01T15:42:30Z</time>
      </trkpt>
      <trkpt lat="44.7264" lon="3.27859">
        <ele>1013</ele>
        <time>2022-08-01T15:42:42Z</time>
      </trkpt>
      <trkpt lat="44.72633" lon="3.27869">
        <ele>1014.8</ele>
        <time>2022-08-01T15:42:50Z</time>
      </trkpt>
      <trkpt lat="44.72628" lon="3.27876">
        <ele>1015.7</ele>
        <time>2022-08-01T15:42:55Z</time>
      </trkpt>
      <trkpt lat="44.72624" lon="3.27885">
        <ele>1016.1</ele>
        <time>2022-08-01T15:43:02Z</time>
      </trkpt>
      <trkpt lat="44.72617" lon="3.27895">
        <ele>1016.5</ele>
        <time>2022-08-01T15:43:10Z</time>
      </trkpt>
      <trkpt lat="44.72605" lon="3.27913">
        <ele>1017.1</ele>
        <time>2022-08-01T15:43:24Z</time>
      </trkpt>
      <trkpt lat="44.726" lon="3.27919">
        <ele>1017.4</ele>
        <time>2022-08-01T15:43:29Z</time>
      </trkpt>
      <trkpt lat="44.72598" lon="3.27923">
        <ele>1017.4</ele>
        <time>2022-08-01T15:43:32Z</time>
      </trkpt>
      <trkpt lat="44.7259" lon="3.2793">
        <ele>1017.2</ele>
        <time>2022-08-01T15:43:42Z</time>
      </trkpt>
      <trkpt lat="44.7259" lon="3.27931">
        <ele>1017.1</ele>
        <time>2022-08-01T15:43:49Z</time>
      </trkpt>
      <trkpt lat="44.7259" lon="3.27931">
        <ele>1017</ele>
        <time>2022-08-01T15:44:08Z</time>
      </trkpt>
      <trkpt lat="44.7259" lon="3.27932">
        <ele>1017</ele>
        <time>2022-08-01T15:44:20Z</time>
      </trkpt>
      <trkpt lat="44.72585" lon="3.27935">
        <ele>1016.7</ele>
        <time>2022-08-01T15:44:29Z</time>
      </trkpt>
      <trkpt lat="44.72573" lon="3.27942">
        <ele>1015.8</ele>
        <time>2022-08-01T15:44:38Z</time>
      </trkpt>
      <trkpt lat="44.72566" lon="3.27947">
        <ele>1015.3</ele>
        <time>2022-08-01T15:44:45Z</time>
      </trkpt>
      <trkpt lat="44.72556" lon="3.27951">
        <ele>1014.7</ele>
        <time>2022-08-01T15:44:54Z</time>
      </trkpt>
      <trkpt lat="44.72547" lon="3.27955">
        <ele>1014.4</ele>
        <time>2022-08-01T15:45:02Z</time>
      </trkpt>
      <trkpt lat="44.72546" lon="3.27955">
        <ele>1014.3</ele>
        <time>2022-08-01T15:45:03Z</time>
      </trkpt>
      <trkpt lat="44.72541" lon="3.27959">
        <ele>1013.9</ele>
        <time>2022-08-01T15:45:08Z</time>
      </trkpt>
      <trkpt lat="44.72539" lon="3.27961">
        <ele>1013.7</ele>
        <time>2022-08-01T15:45:11Z</time>
      </trkpt>
      <trkpt lat="44.72529" lon="3.27966">
        <ele>1013.4</ele>
        <time>2022-08-01T15:45:19Z</time>
      </trkpt>
      <trkpt lat="44.7252" lon="3.2797">
        <ele>1012.8</ele>
        <time>2022-08-01T15:45:27Z</time>
      </trkpt>
      <trkpt lat="44.72513" lon="3.27971">
        <ele>1012.8</ele>
        <time>2022-08-01T15:45:33Z</time>
      </trkpt>
      <trkpt lat="44.72511" lon="3.27971">
        <ele>1012.8</ele>
        <time>2022-08-01T15:45:34Z</time>
      </trkpt>
      <trkpt lat="44.72499" lon="3.27973">
        <ele>1012.8</ele>
        <time>2022-08-01T15:45:45Z</time>
      </trkpt>
      <trkpt lat="44.72488" lon="3.27973">
        <ele>1012.9</ele>
        <time>2022-08-01T15:45:54Z</time>
      </trkpt>
      <trkpt lat="44.72474" lon="3.27971">
        <ele>1013.3</ele>
        <time>2022-08-01T15:46:06Z</time>
      </trkpt>
      <trkpt lat="44.72463" lon="3.2797">
        <ele>1013.8</ele>
        <time>2022-08-01T15:46:15Z</time>
      </trkpt>
      <trkpt lat="44.72461" lon="3.27969">
        <ele>1014</ele>
        <time>2022-08-01T15:46:17Z</time>
      </trkpt>
      <trkpt lat="44.72445" lon="3.27964">
        <ele>1014.5</ele>
        <time>2022-08-01T15:46:30Z</time>
      </trkpt>
      <trkpt lat="44.72433" lon="3.27963">
        <ele>1014.4</ele>
        <time>2022-08-01T15:46:40Z</time>
      </trkpt>
      <trkpt lat="44.72428" lon="3.27961">
        <ele>1014.5</ele>
        <time>2022-08-01T15:46:45Z</time>
      </trkpt>
      <trkpt lat="44.72422" lon="3.2796">
        <ele>1014.5</ele>
        <time>2022-08-01T15:46:50Z</time>
      </trkpt>
      <trkpt lat="44.72411" lon="3.27963">
        <ele>1014.2</ele>
        <time>2022-08-01T15:47:00Z</time>
      </trkpt>
      <trkpt lat="44.72405" lon="3.27966">
        <ele>1014</ele>
        <time>2022-08-01T15:47:05Z</time>
      </trkpt>
      <trkpt lat="44.724" lon="3.27967">
        <ele>1014</ele>
        <time>2022-08-01T15:47:10Z</time>
      </trkpt>
      <trkpt lat="44.72391" lon="3.27972">
        <ele>1013.9</ele>
        <time>2022-08-01T15:47:18Z</time>
      </trkpt>
      <trkpt lat="44.72391" lon="3.27975">
        <ele>1014.3</ele>
        <time>2022-08-01T15:47:19Z</time>
      </trkpt>
      <trkpt lat="44.72369" lon="3.27995">
        <ele>1015.6</ele>
        <time>2022-08-01T15:47:56Z</time>
      </trkpt>
      <trkpt lat="44.72361" lon="3.28002">
        <ele>1014</ele>
        <time>2022-08-01T15:48:05Z</time>
      </trkpt>
      <trkpt lat="44.72347" lon="3.28011">
        <ele>1014.7</ele>
        <time>2022-08-01T15:48:17Z</time>
      </trkpt>
      <trkpt lat="44.72345" lon="3.28012">
        <ele>1014.8</ele>
        <time>2022-08-01T15:48:18Z</time>
      </trkpt>
      <trkpt lat="44.72336" lon="3.28016">
        <ele>1015.4</ele>
        <time>2022-08-01T15:48:27Z</time>
      </trkpt>
      <trkpt lat="44.72334" lon="3.28017">
        <ele>1015.6</ele>
        <time>2022-08-01T15:48:29Z</time>
      </trkpt>
      <trkpt lat="44.72329" lon="3.28018">
        <ele>1015.9</ele>
        <time>2022-08-01T15:48:33Z</time>
      </trkpt>
      <trkpt lat="44.72324" lon="3.2802">
        <ele>1016.3</ele>
        <time>2022-08-01T15:48:38Z</time>
      </trkpt>
      <trkpt lat="44.72316" lon="3.28021">
        <ele>1016.9</ele>
        <time>2022-08-01T15:48:44Z</time>
      </trkpt>
      <trkpt lat="44.72313" lon="3.28022">
        <ele>1017.1</ele>
        <time>2022-08-01T15:48:46Z</time>
      </trkpt>
      <trkpt lat="44.72307" lon="3.28024">
        <ele>1017.6</ele>
        <time>2022-08-01T15:48:51Z</time>
      </trkpt>
      <trkpt lat="44.72306" lon="3.28025">
        <ele>1017.7</ele>
        <time>2022-08-01T15:48:52Z</time>
      </trkpt>
      <trkpt lat="44.72306" lon="3.28026">
        <ele>1017.8</ele>
        <time>2022-08-01T15:48:53Z</time>
      </trkpt>
      <trkpt lat="44.72306" lon="3.28027">
        <ele>1017.9</ele>
        <time>2022-08-01T15:48:54Z</time>
      </trkpt>
      <trkpt lat="44.72307" lon="3.28033">
        <ele>1018.3</ele>
        <time>2022-08-01T15:48:59Z</time>
      </trkpt>
      <trkpt lat="44.72307" lon="3.28034">
        <ele>1018.3</ele>
        <time>2022-08-01T15:49:00Z</time>
      </trkpt>
      <trkpt lat="44.72312" lon="3.28042">
        <ele>1018.4</ele>
        <time>2022-08-01T15:49:07Z</time>
      </trkpt>
      <trkpt lat="44.72312" lon="3.28043">
        <ele>1018.4</ele>
        <time>2022-08-01T15:49:09Z</time>
      </trkpt>
      <trkpt lat="44.72313" lon="3.28043">
        <ele>1018.4</ele>
        <time>2022-08-01T15:49:12Z</time>
      </trkpt>
      <trkpt lat="44.72312" lon="3.28043">
        <ele>1018.5</ele>
        <time>2022-08-01T15:49:35Z</time>
      </trkpt>
      <trkpt lat="44.72312" lon="3.28044">
        <ele>1018.5</ele>
        <time>2022-08-01T15:49:44Z</time>
      </trkpt>
      <trkpt lat="44.72314" lon="3.28046">
        <ele>1018.5</ele>
        <time>2022-08-01T15:49:51Z</time>
      </trkpt>
      <trkpt lat="44.72317" lon="3.2805">
        <ele>1018.5</ele>
        <time>2022-08-01T15:49:54Z</time>
      </trkpt>
      <trkpt lat="44.72323" lon="3.2806">
        <ele>1018.8</ele>
        <time>2022-08-01T15:50:01Z</time>
      </trkpt>
      <trkpt lat="44.72325" lon="3.28062">
        <ele>1019</ele>
        <time>2022-08-01T15:50:03Z</time>
      </trkpt>
      <trkpt lat="44.72328" lon="3.28068">
        <ele>1019.6</ele>
        <time>2022-08-01T15:50:08Z</time>
      </trkpt>
      <trkpt lat="44.72332" lon="3.28079">
        <ele>1021.2</ele>
        <time>2022-08-01T15:50:16Z</time>
      </trkpt>
      <trkpt lat="44.72332" lon="3.2808">
        <ele>1021.4</ele>
        <time>2022-08-01T15:50:17Z</time>
      </trkpt>
      <trkpt lat="44.72333" lon="3.28089">
        <ele>1021.8</ele>
        <time>2022-08-01T15:50:22Z</time>
      </trkpt>
      <trkpt lat="44.72332" lon="3.28093">
        <ele>1021.7</ele>
        <time>2022-08-01T15:50:25Z</time>
      </trkpt>
      <trkpt lat="44.72329" lon="3.281">
        <ele>1021.8</ele>
        <time>2022-08-01T15:50:30Z</time>
      </trkpt>
      <trkpt lat="44.72329" lon="3.281">
        <ele>1021.8</ele>
        <time>2022-08-01T15:50:33Z</time>
      </trkpt>
      <trkpt lat="44.72328" lon="3.28101">
        <ele>1021.9</ele>
        <time>2022-08-01T15:50:44Z</time>
      </trkpt>
      <trkpt lat="44.72325" lon="3.28109">
        <ele>1022.2</ele>
        <time>2022-08-01T15:50:51Z</time>
      </trkpt>
      <trkpt lat="44.72319" lon="3.28124">
        <ele>1025.3</ele>
        <time>2022-08-01T15:51:01Z</time>
      </trkpt>
      <trkpt lat="44.72315" lon="3.28135">
        <ele>1027.7</ele>
        <time>2022-08-01T15:51:10Z</time>
      </trkpt>
      <trkpt lat="44.72315" lon="3.28137">
        <ele>1028</ele>
        <time>2022-08-01T15:51:11Z</time>
      </trkpt>
      <trkpt lat="44.72314" lon="3.28138">
        <ele>1028.3</ele>
        <time>2022-08-01T15:51:13Z</time>
      </trkpt>
      <trkpt lat="44.72313" lon="3.28137">
        <ele>1028.2</ele>
        <time>2022-08-01T15:51:15Z</time>
      </trkpt>
      <trkpt lat="44.72313" lon="3.28138">
        <ele>1028.3</ele>
        <time>2022-08-01T15:51:16Z</time>
      </trkpt>
      <trkpt lat="44.72315" lon="3.28141">
        <ele>1028.6</ele>
        <time>2022-08-01T15:51:18Z</time>
      </trkpt>
      <trkpt lat="44.72316" lon="3.28147">
        <ele>1029</ele>
        <time>2022-08-01T15:51:20Z</time>
      </trkpt>
      <trkpt lat="44.72311" lon="3.28148">
        <ele>1029.3</ele>
        <time>2022-08-01T15:51:22Z</time>
      </trkpt>
      <trkpt lat="44.72309" lon="3.28154">
        <ele>1029.6</ele>
        <time>2022-08-01T15:51:24Z</time>
      </trkpt>
      <trkpt lat="44.72309" lon="3.28155">
        <ele>1029.7</ele>
        <time>2022-08-01T15:51:25Z</time>
      </trkpt>
      <trkpt lat="44.72308" lon="3.28162">
        <ele>1030</ele>
        <time>2022-08-01T15:51:29Z</time>
      </trkpt>
      <trkpt lat="44.72307" lon="3.28167">
        <ele>1030.2</ele>
        <time>2022-08-01T15:51:34Z</time>
      </trkpt>
      <trkpt lat="44.72307" lon="3.28169">
        <ele>1030.5</ele>
        <time>2022-08-01T15:51:35Z</time>
      </trkpt>
      <trkpt lat="44.72305" lon="3.28176">
        <ele>1031.4</ele>
        <time>2022-08-01T15:51:41Z</time>
      </trkpt>
      <trkpt lat="44.72305" lon="3.28177">
        <ele>1031.6</ele>
        <time>2022-08-01T15:51:42Z</time>
      </trkpt>
      <trkpt lat="44.72304" lon="3.28187">
        <ele>1033</ele>
        <time>2022-08-01T15:51:49Z</time>
      </trkpt>
      <trkpt lat="44.72303" lon="3.28194">
        <ele>1034.2</ele>
        <time>2022-08-01T15:51:55Z</time>
      </trkpt>
      <trkpt lat="44.72302" lon="3.28195">
        <ele>1034.4</ele>
        <time>2022-08-01T15:51:57Z</time>
      </trkpt>
      <trkpt lat="44.72302" lon="3.28199">
        <ele>1035</ele>
        <time>2022-08-01T15:52:00Z</time>
      </trkpt>
      <trkpt lat="44.723" lon="3.28203">
        <ele>1036</ele>
        <time>2022-08-01T15:52:05Z</time>
      </trkpt>
      <trkpt lat="44.72299" lon="3.2821">
        <ele>1037.3</ele>
        <time>2022-08-01T15:52:11Z</time>
      </trkpt>
      <trkpt lat="44.72298" lon="3.28214">
        <ele>1038</ele>
        <time>2022-08-01T15:52:14Z</time>
      </trkpt>
      <trkpt lat="44.72298" lon="3.28214">
        <ele>1038.1</ele>
        <time>2022-08-01T15:52:16Z</time>
      </trkpt>
      <trkpt lat="44.72298" lon="3.28213">
        <ele>1038</ele>
        <time>2022-08-01T15:52:21Z</time>
      </trkpt>
      <trkpt lat="44.72297" lon="3.28214">
        <ele>1038</ele>
        <time>2022-08-01T15:52:30Z</time>
      </trkpt>
      <trkpt lat="44.72297" lon="3.28211">
        <ele>1037.6</ele>
        <time>2022-08-01T15:54:10Z</time>
      </trkpt>
      <trkpt lat="44.72298" lon="3.28214">
        <ele>1038</ele>
        <time>2022-08-01T15:54:23Z</time>
      </trkpt>
      <trkpt lat="44.72299" lon="3.28218">
        <ele>1038.8</ele>
        <time>2022-08-01T15:54:26Z</time>
      </trkpt>
      <trkpt lat="44.72299" lon="3.2823">
        <ele>1040</ele>
        <time>2022-08-01T15:54:32Z</time>
      </trkpt>
      <trkpt lat="44.723" lon="3.28231">
        <ele>1040.1</ele>
        <time>2022-08-01T15:54:33Z</time>
      </trkpt>
      <trkpt lat="44.72301" lon="3.28237">
        <ele>1040.4</ele>
        <time>2022-08-01T15:54:37Z</time>
      </trkpt>
      <trkpt lat="44.72301" lon="3.28239">
        <ele>1040.6</ele>
        <time>2022-08-01T15:54:39Z</time>
      </trkpt>
      <trkpt lat="44.723" lon="3.28243">
        <ele>1040.9</ele>
        <time>2022-08-01T15:54:42Z</time>
      </trkpt>
      <trkpt lat="44.723" lon="3.28245">
        <ele>1041</ele>
        <time>2022-08-01T15:54:44Z</time>
      </trkpt>
      <trkpt lat="44.72301" lon="3.28248">
        <ele>1041.2</ele>
        <time>2022-08-01T15:54:46Z</time>
      </trkpt>
      <trkpt lat="44.72301" lon="3.2825">
        <ele>1041.3</ele>
        <time>2022-08-01T15:54:48Z</time>
      </trkpt>
      <trkpt lat="44.72301" lon="3.28253">
        <ele>1041.6</ele>
        <time>2022-08-01T15:54:51Z</time>
      </trkpt>
      <trkpt lat="44.72302" lon="3.28255">
        <ele>1041.6</ele>
        <time>2022-08-01T15:54:52Z</time>
      </trkpt>
      <trkpt lat="44.72302" lon="3.28257">
        <ele>1041.7</ele>
        <time>2022-08-01T15:54:54Z</time>
      </trkpt>
      <trkpt lat="44.72302" lon="3.28258">
        <ele>1041.8</ele>
        <time>2022-08-01T15:54:55Z</time>
      </trkpt>
      <trkpt lat="44.72302" lon="3.2826">
        <ele>1042</ele>
        <time>2022-08-01T15:54:56Z</time>
      </trkpt>
      <trkpt lat="44.72302" lon="3.28261">
        <ele>1042.1</ele>
        <time>2022-08-01T15:54:57Z</time>
      </trkpt>
      <trkpt lat="44.72304" lon="3.28264">
        <ele>1042.2</ele>
        <time>2022-08-01T15:55:00Z</time>
      </trkpt>
      <trkpt lat="44.72303" lon="3.28265">
        <ele>1042.3</ele>
        <time>2022-08-01T15:55:01Z</time>
      </trkpt>
      <trkpt lat="44.72303" lon="3.28269">
        <ele>1042.5</ele>
        <time>2022-08-01T15:55:04Z</time>
      </trkpt>
      <trkpt lat="44.72304" lon="3.28272">
        <ele>1042.7</ele>
        <time>2022-08-01T15:55:06Z</time>
      </trkpt>
      <trkpt lat="44.72304" lon="3.28274">
        <ele>1042.9</ele>
        <time>2022-08-01T15:55:07Z</time>
      </trkpt>
      <trkpt lat="44.72303" lon="3.2828">
        <ele>1043.3</ele>
        <time>2022-08-01T15:55:10Z</time>
      </trkpt>
      <trkpt lat="44.72302" lon="3.28283">
        <ele>1043.6</ele>
        <time>2022-08-01T15:55:13Z</time>
      </trkpt>
      <trkpt lat="44.72301" lon="3.28284">
        <ele>1043.7</ele>
        <time>2022-08-01T15:55:15Z</time>
      </trkpt>
      <trkpt lat="44.72302" lon="3.28284">
        <ele>1043.7</ele>
        <time>2022-08-01T15:55:16Z</time>
      </trkpt>
      <trkpt lat="44.72302" lon="3.28284">
        <ele>1043.7</ele>
        <time>2022-08-01T15:55:17Z</time>
      </trkpt>
      <trkpt lat="44.72303" lon="3.28285">
        <ele>1043.7</ele>
        <time>2022-08-01T15:55:18Z</time>
      </trkpt>
      <trkpt lat="44.72304" lon="3.28291">
        <ele>1044.1</ele>
        <time>2022-08-01T15:55:22Z</time>
      </trkpt>
      <trkpt lat="44.72305" lon="3.28296">
        <ele>1044.3</ele>
        <time>2022-08-01T15:55:25Z</time>
      </trkpt>
      <trkpt lat="44.72304" lon="3.28306">
        <ele>1045.1</ele>
        <time>2022-08-01T15:55:31Z</time>
      </trkpt>
      <trkpt lat="44.72303" lon="3.28307">
        <ele>1045.1</ele>
        <time>2022-08-01T15:55:32Z</time>
      </trkpt>
      <trkpt lat="44.72302" lon="3.28307">
        <ele>1045.1</ele>
        <time>2022-08-01T15:55:33Z</time>
      </trkpt>
      <trkpt lat="44.72302" lon="3.28307">
        <ele>1045.1</ele>
        <time>2022-08-01T15:55:34Z</time>
      </trkpt>
      <trkpt lat="44.72303" lon="3.28308">
        <ele>1045.1</ele>
        <time>2022-08-01T15:55:38Z</time>
      </trkpt>
      <trkpt lat="44.72303" lon="3.28308">
        <ele>1045.1</ele>
        <time>2022-08-01T15:55:46Z</time>
      </trkpt>
      <trkpt lat="44.72304" lon="3.28308">
        <ele>1045.1</ele>
        <time>2022-08-01T15:55:49Z</time>
      </trkpt>
      <trkpt lat="44.72304" lon="3.28308">
        <ele>1045.1</ele>
        <time>2022-08-01T15:55:50Z</time>
      </trkpt>
      <trkpt lat="44.72303" lon="3.28308">
        <ele>1045.1</ele>
        <time>2022-08-01T15:56:06Z</time>
      </trkpt>
      <trkpt lat="44.72304" lon="3.28316">
        <ele>1045.1</ele>
        <time>2022-08-01T15:56:13Z</time>
      </trkpt>
      <trkpt lat="44.72303" lon="3.28318">
        <ele>1045.1</ele>
        <time>2022-08-01T15:56:14Z</time>
      </trkpt>
      <trkpt lat="44.72304" lon="3.28329">
        <ele>1045</ele>
        <time>2022-08-01T15:56:20Z</time>
      </trkpt>
      <trkpt lat="44.72305" lon="3.28341">
        <ele>1044.8</ele>
        <time>2022-08-01T15:56:28Z</time>
      </trkpt>
      <trkpt lat="44.72305" lon="3.28358">
        <ele>1044.2</ele>
        <time>2022-08-01T15:56:39Z</time>
      </trkpt>
      <trkpt lat="44.72305" lon="3.28364">
        <ele>1043.9</ele>
        <time>2022-08-01T15:56:44Z</time>
      </trkpt>
      <trkpt lat="44.72305" lon="3.28367">
        <ele>1043.8</ele>
        <time>2022-08-01T15:56:46Z</time>
      </trkpt>
      <trkpt lat="44.72303" lon="3.28379">
        <ele>1043.6</ele>
        <time>2022-08-01T15:56:54Z</time>
      </trkpt>
      <trkpt lat="44.72303" lon="3.28386">
        <ele>1043.3</ele>
        <time>2022-08-01T15:56:58Z</time>
      </trkpt>
      <trkpt lat="44.72303" lon="3.2839">
        <ele>1043.2</ele>
        <time>2022-08-01T15:57:01Z</time>
      </trkpt>
      <trkpt lat="44.72307" lon="3.28399">
        <ele>1042.8</ele>
        <time>2022-08-01T15:57:08Z</time>
      </trkpt>
      <trkpt lat="44.72313" lon="3.28415">
        <ele>1041.5</ele>
        <time>2022-08-01T15:57:17Z</time>
      </trkpt>
      <trkpt lat="44.72316" lon="3.28428">
        <ele>1041.1</ele>
        <time>2022-08-01T15:57:25Z</time>
      </trkpt>
      <trkpt lat="44.72317" lon="3.28436">
        <ele>1041.2</ele>
        <time>2022-08-01T15:57:30Z</time>
      </trkpt>
      <trkpt lat="44.72316" lon="3.28439">
        <ele>1041.4</ele>
        <time>2022-08-01T15:57:32Z</time>
      </trkpt>
      <trkpt lat="44.72314" lon="3.28443">
        <ele>1041.7</ele>
        <time>2022-08-01T15:57:35Z</time>
      </trkpt>
      <trkpt lat="44.72313" lon="3.28442">
        <ele>1041.9</ele>
        <time>2022-08-01T15:57:38Z</time>
      </trkpt>
      <trkpt lat="44.72313" lon="3.28442">
        <ele>1041.9</ele>
        <time>2022-08-01T15:57:39Z</time>
      </trkpt>
      <trkpt lat="44.72313" lon="3.28444">
        <ele>1041.9</ele>
        <time>2022-08-01T15:57:45Z</time>
      </trkpt>
      <trkpt lat="44.72311" lon="3.2845">
        <ele>1042.2</ele>
        <time>2022-08-01T15:57:52Z</time>
      </trkpt>
      <trkpt lat="44.72303" lon="3.28449">
        <ele>1043.2</ele>
        <time>2022-08-01T15:57:57Z</time>
      </trkpt>
      <trkpt lat="44.72297" lon="3.2845">
        <ele>1043.9</ele>
        <time>2022-08-01T15:58:04Z</time>
      </trkpt>
      <trkpt lat="44.72294" lon="3.28448">
        <ele>1044.3</ele>
        <time>2022-08-01T15:58:08Z</time>
      </trkpt>
      <trkpt lat="44.72289" lon="3.28446">
        <ele>1044.7</ele>
        <time>2022-08-01T15:58:11Z</time>
      </trkpt>
      <trkpt lat="44.72282" lon="3.28443">
        <ele>1045.5</ele>
        <time>2022-08-01T15:58:17Z</time>
      </trkpt>
      <trkpt lat="44.72279" lon="3.28443">
        <ele>1045.8</ele>
        <time>2022-08-01T15:58:19Z</time>
      </trkpt>
      <trkpt lat="44.72276" lon="3.28442">
        <ele>1045.9</ele>
        <time>2022-08-01T15:58:24Z</time>
      </trkpt>
      <trkpt lat="44.72276" lon="3.28443">
        <ele>1046</ele>
        <time>2022-08-01T15:58:25Z</time>
      </trkpt>
      <trkpt lat="44.72275" lon="3.28443">
        <ele>1046</ele>
        <time>2022-08-01T15:58:26Z</time>
      </trkpt>
      <trkpt lat="44.72276" lon="3.28443">
        <ele>1046</ele>
        <time>2022-08-01T15:58:31Z</time>
      </trkpt>
      <trkpt lat="44.72276" lon="3.28443">
        <ele>1046</ele>
        <time>2022-08-01T15:58:33Z</time>
      </trkpt>
      <trkpt lat="44.72277" lon="3.28444">
        <ele>1046</ele>
        <time>2022-08-01T15:58:39Z</time>
      </trkpt>
      <trkpt lat="44.72277" lon="3.28444">
        <ele>1046</ele>
        <time>2022-08-01T15:58:42Z</time>
      </trkpt>
      <trkpt lat="44.7227" lon="3.2845">
        <ele>1046.3</ele>
        <time>2022-08-01T15:59:13Z</time>
      </trkpt>
      <trkpt lat="44.72269" lon="3.28455">
        <ele>1046.4</ele>
        <time>2022-08-01T15:59:16Z</time>
      </trkpt>
      <trkpt lat="44.72267" lon="3.28458">
        <ele>1046.6</ele>
        <time>2022-08-01T15:59:20Z</time>
      </trkpt>
      <trkpt lat="44.72267" lon="3.28458">
        <ele>1046.6</ele>
        <time>2022-08-01T15:59:21Z</time>
      </trkpt>
      <trkpt lat="44.72266" lon="3.28461">
        <ele>1046.7</ele>
        <time>2022-08-01T15:59:25Z</time>
      </trkpt>
      <trkpt lat="44.72262" lon="3.28463">
        <ele>1046.9</ele>
        <time>2022-08-01T15:59:29Z</time>
      </trkpt>
      <trkpt lat="44.72262" lon="3.28463">
        <ele>1047</ele>
        <time>2022-08-01T15:59:30Z</time>
      </trkpt>
      <trkpt lat="44.72261" lon="3.2846">
        <ele>1047</ele>
        <time>2022-08-01T15:59:37Z</time>
      </trkpt>
      <trkpt lat="44.72261" lon="3.2846">
        <ele>1046.9</ele>
        <time>2022-08-01T15:59:38Z</time>
      </trkpt>
      <trkpt lat="44.72259" lon="3.28466">
        <ele>1047.2</ele>
        <time>2022-08-01T15:59:45Z</time>
      </trkpt>
      <trkpt lat="44.72257" lon="3.28464">
        <ele>1047.3</ele>
        <time>2022-08-01T15:59:49Z</time>
      </trkpt>
      <trkpt lat="44.72259" lon="3.28466">
        <ele>1047.2</ele>
        <time>2022-08-01T15:59:54Z</time>
      </trkpt>
      <trkpt lat="44.7226" lon="3.28467">
        <ele>1047.2</ele>
        <time>2022-08-01T15:59:59Z</time>
      </trkpt>
      <trkpt lat="44.72262" lon="3.28468">
        <ele>1047.1</ele>
        <time>2022-08-01T16:00:06Z</time>
      </trkpt>
      <trkpt lat="44.72262" lon="3.28476">
        <ele>1047.2</ele>
        <time>2022-08-01T16:01:58Z</time>
      </trkpt>
      <trkpt lat="44.72263" lon="3.28474">
        <ele>1047.1</ele>
        <time>2022-08-01T16:02:30Z</time>
      </trkpt>
      <trkpt lat="44.72225" lon="3.28729">
        <ele>1055</ele>
        <time>2022-08-02T07:35:06Z</time>
      </trkpt>
      <trkpt lat="44.7223" lon="3.28727">
        <ele>1054.6</ele>
        <time>2022-08-02T07:35:09Z</time>
      </trkpt>
      <trkpt lat="44.72232" lon="3.28734">
        <ele>1054.7</ele>
        <time>2022-08-02T07:35:12Z</time>
      </trkpt>
      <trkpt lat="44.72238" lon="3.28721">
        <ele>1053.8</ele>
        <time>2022-08-02T07:35:19Z</time>
      </trkpt>
      <trkpt lat="44.72239" lon="3.28719">
        <ele>1053.7</ele>
        <time>2022-08-02T07:35:21Z</time>
      </trkpt>
      <trkpt lat="44.72242" lon="3.28711">
        <ele>1053.2</ele>
        <time>2022-08-02T07:35:25Z</time>
      </trkpt>
      <trkpt lat="44.72242" lon="3.2871">
        <ele>1053.1</ele>
        <time>2022-08-02T07:35:26Z</time>
      </trkpt>
      <trkpt lat="44.72245" lon="3.287">
        <ele>1052.5</ele>
        <time>2022-08-02T07:35:30Z</time>
      </trkpt>
      <trkpt lat="44.72248" lon="3.28693">
        <ele>1052</ele>
        <time>2022-08-02T07:35:34Z</time>
      </trkpt>
      <trkpt lat="44.7225" lon="3.2869">
        <ele>1051.5</ele>
        <time>2022-08-02T07:35:36Z</time>
      </trkpt>
      <trkpt lat="44.72254" lon="3.28682">
        <ele>1050.4</ele>
        <time>2022-08-02T07:35:41Z</time>
      </trkpt>
      <trkpt lat="44.72256" lon="3.28677">
        <ele>1049.8</ele>
        <time>2022-08-02T07:35:44Z</time>
      </trkpt>
      <trkpt lat="44.72257" lon="3.28674">
        <ele>1049.5</ele>
        <time>2022-08-02T07:35:46Z</time>
      </trkpt>
      <trkpt lat="44.72258" lon="3.28671">
        <ele>1049.1</ele>
        <time>2022-08-02T07:35:48Z</time>
      </trkpt>
      <trkpt lat="44.72262" lon="3.28666">
        <ele>1048.6</ele>
        <time>2022-08-02T07:35:52Z</time>
      </trkpt>
      <trkpt lat="44.72263" lon="3.28662">
        <ele>1048.4</ele>
        <time>2022-08-02T07:35:54Z</time>
      </trkpt>
      <trkpt lat="44.72264" lon="3.28655">
        <ele>1048.1</ele>
        <time>2022-08-02T07:35:58Z</time>
      </trkpt>
      <trkpt lat="44.72265" lon="3.28648">
        <ele>1047.8</ele>
        <time>2022-08-02T07:36:02Z</time>
      </trkpt>
      <trkpt lat="44.72265" lon="3.28645">
        <ele>1047.6</ele>
        <time>2022-08-02T07:36:04Z</time>
      </trkpt>
      <trkpt lat="44.72265" lon="3.28634">
        <ele>1047.2</ele>
        <time>2022-08-02T07:36:10Z</time>
      </trkpt>
      <trkpt lat="44.72266" lon="3.28631">
        <ele>1047</ele>
        <time>2022-08-02T07:36:12Z</time>
      </trkpt>
      <trkpt lat="44.72264" lon="3.28621">
        <ele>1046.8</ele>
        <time>2022-08-02T07:36:17Z</time>
      </trkpt>
      <trkpt lat="44.72263" lon="3.28615">
        <ele>1046.8</ele>
        <time>2022-08-02T07:36:20Z</time>
      </trkpt>
      <trkpt lat="44.72262" lon="3.28612">
        <ele>1046.7</ele>
        <time>2022-08-02T07:36:22Z</time>
      </trkpt>
      <trkpt lat="44.72261" lon="3.28608">
        <ele>1046.6</ele>
        <time>2022-08-02T07:36:24Z</time>
      </trkpt>
      <trkpt lat="44.72261" lon="3.28605">
        <ele>1046.6</ele>
        <time>2022-08-02T07:36:26Z</time>
      </trkpt>
      <trkpt lat="44.72262" lon="3.28601">
        <ele>1046.4</ele>
        <time>2022-08-02T07:36:29Z</time>
      </trkpt>
      <trkpt lat="44.72261" lon="3.28599">
        <ele>1046.4</ele>
        <time>2022-08-02T07:36:30Z</time>
      </trkpt>
      <trkpt lat="44.72261" lon="3.28593">
        <ele>1046.2</ele>
        <time>2022-08-02T07:36:34Z</time>
      </trkpt>
      <trkpt lat="44.72261" lon="3.28591">
        <ele>1046.1</ele>
        <time>2022-08-02T07:36:35Z</time>
      </trkpt>
      <trkpt lat="44.7226" lon="3.28588">
        <ele>1046.1</ele>
        <time>2022-08-02T07:36:37Z</time>
      </trkpt>
      <trkpt lat="44.7226" lon="3.28584">
        <ele>1046</ele>
        <time>2022-08-02T07:36:39Z</time>
      </trkpt>
      <trkpt lat="44.72259" lon="3.28581">
        <ele>1046.1</ele>
        <time>2022-08-02T07:36:41Z</time>
      </trkpt>
      <trkpt lat="44.7226" lon="3.28578">
        <ele>1046.1</ele>
        <time>2022-08-02T07:36:43Z</time>
      </trkpt>
      <trkpt lat="44.72257" lon="3.2856">
        <ele>1046.8</ele>
        <time>2022-08-02T07:36:53Z</time>
      </trkpt>
      <trkpt lat="44.72258" lon="3.28554">
        <ele>1046.8</ele>
        <time>2022-08-02T07:36:57Z</time>
      </trkpt>
      <trkpt lat="44.72257" lon="3.2855">
        <ele>1046.8</ele>
        <time>2022-08-02T07:36:59Z</time>
      </trkpt>
      <trkpt lat="44.72255" lon="3.28531">
        <ele>1046.7</ele>
        <time>2022-08-02T07:37:09Z</time>
      </trkpt>
      <trkpt lat="44.72254" lon="3.28513">
        <ele>1047.8</ele>
        <time>2022-08-02T07:37:19Z</time>
      </trkpt>
      <trkpt lat="44.72254" lon="3.28506">
        <ele>1048.2</ele>
        <time>2022-08-02T07:37:23Z</time>
      </trkpt>
      <trkpt lat="44.72254" lon="3.28501">
        <ele>1048.6</ele>
        <time>2022-08-02T07:37:26Z</time>
      </trkpt>
      <trkpt lat="44.72253" lon="3.28497">
        <ele>1048.6</ele>
        <time>2022-08-02T07:37:28Z</time>
      </trkpt>
      <trkpt lat="44.72255" lon="3.28489">
        <ele>1048.2</ele>
        <time>2022-08-02T07:37:32Z</time>
      </trkpt>
      <trkpt lat="44.72256" lon="3.28474">
        <ele>1047.6</ele>
        <time>2022-08-02T07:37:41Z</time>
      </trkpt>
      <trkpt lat="44.72257" lon="3.28468">
        <ele>1047.4</ele>
        <time>2022-08-02T07:37:45Z</time>
      </trkpt>
      <trkpt lat="44.72257" lon="3.28467">
        <ele>1047.4</ele>
        <time>2022-08-02T07:37:46Z</time>
      </trkpt>
      <trkpt lat="44.72257" lon="3.28462">
        <ele>1047.2</ele>
        <time>2022-08-02T07:37:50Z</time>
      </trkpt>
      <trkpt lat="44.72257" lon="3.28461">
        <ele>1047.2</ele>
        <time>2022-08-02T07:37:52Z</time>
      </trkpt>
      <trkpt lat="44.72258" lon="3.2846">
        <ele>1047.1</ele>
        <time>2022-08-02T07:37:53Z</time>
      </trkpt>
      <trkpt lat="44.72259" lon="3.28453">
        <ele>1046.9</ele>
        <time>2022-08-02T07:37:56Z</time>
      </trkpt>
      <trkpt lat="44.72266" lon="3.28444">
        <ele>1046.4</ele>
        <time>2022-08-02T07:38:05Z</time>
      </trkpt>
      <trkpt lat="44.72269" lon="3.28441">
        <ele>1046.1</ele>
        <time>2022-08-02T07:38:10Z</time>
      </trkpt>
      <trkpt lat="44.7227" lon="3.2844">
        <ele>1046</ele>
        <time>2022-08-02T07:38:12Z</time>
      </trkpt>
      <trkpt lat="44.72271" lon="3.28441">
        <ele>1046</ele>
        <time>2022-08-02T07:38:15Z</time>
      </trkpt>
      <trkpt lat="44.72271" lon="3.2844">
        <ele>1046</ele>
        <time>2022-08-02T07:38:17Z</time>
      </trkpt>
      <trkpt lat="44.72274" lon="3.28442">
        <ele>1045.9</ele>
        <time>2022-08-02T07:38:21Z</time>
      </trkpt>
      <trkpt lat="44.72276" lon="3.28443">
        <ele>1046</ele>
        <time>2022-08-02T07:38:23Z</time>
      </trkpt>
      <trkpt lat="44.72282" lon="3.28451">
        <ele>1045.5</ele>
        <time>2022-08-02T07:38:29Z</time>
      </trkpt>
      <trkpt lat="44.72284" lon="3.28457">
        <ele>1045.3</ele>
        <time>2022-08-02T07:38:33Z</time>
      </trkpt>
      <trkpt lat="44.72285" lon="3.28457">
        <ele>1045.2</ele>
        <time>2022-08-02T07:38:34Z</time>
      </trkpt>
      <trkpt lat="44.72287" lon="3.28456">
        <ele>1045.1</ele>
        <time>2022-08-02T07:38:35Z</time>
      </trkpt>
      <trkpt lat="44.72293" lon="3.28453">
        <ele>1044.4</ele>
        <time>2022-08-02T07:38:40Z</time>
      </trkpt>
      <trkpt lat="44.72296" lon="3.28451">
        <ele>1044</ele>
        <time>2022-08-02T07:38:42Z</time>
      </trkpt>
      <trkpt lat="44.72303" lon="3.28446">
        <ele>1043.3</ele>
        <time>2022-08-02T07:38:47Z</time>
      </trkpt>
      <trkpt lat="44.72305" lon="3.28445">
        <ele>1043</ele>
        <time>2022-08-02T07:38:49Z</time>
      </trkpt>
      <trkpt lat="44.72308" lon="3.28444">
        <ele>1042.7</ele>
        <time>2022-08-02T07:38:51Z</time>
      </trkpt>
      <trkpt lat="44.72312" lon="3.28442">
        <ele>1042.1</ele>
        <time>2022-08-02T07:38:54Z</time>
      </trkpt>
      <trkpt lat="44.72312" lon="3.28442">
        <ele>1042</ele>
        <time>2022-08-02T07:38:55Z</time>
      </trkpt>
      <trkpt lat="44.72312" lon="3.28442">
        <ele>1042</ele>
        <time>2022-08-02T07:38:57Z</time>
      </trkpt>
      <trkpt lat="44.72312" lon="3.28443">
        <ele>1042.1</ele>
        <time>2022-08-02T07:38:59Z</time>
      </trkpt>
      <trkpt lat="44.72313" lon="3.28444">
        <ele>1041.9</ele>
        <time>2022-08-02T07:39:03Z</time>
      </trkpt>
      <trkpt lat="44.72312" lon="3.28447">
        <ele>1042.1</ele>
        <time>2022-08-02T07:39:08Z</time>
      </trkpt>
      <trkpt lat="44.72307" lon="3.28447">
        <ele>1042.7</ele>
        <time>2022-08-02T07:39:13Z</time>
      </trkpt>
      <trkpt lat="44.72306" lon="3.28447">
        <ele>1042.9</ele>
        <time>2022-08-02T07:39:15Z</time>
      </trkpt>
      <trkpt lat="44.72305" lon="3.28446">
        <ele>1043</ele>
        <time>2022-08-02T07:39:17Z</time>
      </trkpt>
      <trkpt lat="44.72302" lon="3.28446">
        <ele>1043.4</ele>
        <time>2022-08-02T07:39:24Z</time>
      </trkpt>
      <trkpt lat="44.72299" lon="3.28446">
        <ele>1043.8</ele>
        <time>2022-08-02T07:39:26Z</time>
      </trkpt>
      <trkpt lat="44.72294" lon="3.28448">
        <ele>1044.3</ele>
        <time>2022-08-02T07:39:30Z</time>
      </trkpt>
      <trkpt lat="44.72288" lon="3.28448">
        <ele>1044.9</ele>
        <time>2022-08-02T07:39:35Z</time>
      </trkpt>
      <trkpt lat="44.72284" lon="3.28448">
        <ele>1045.4</ele>
        <time>2022-08-02T07:39:37Z</time>
      </trkpt>
      <trkpt lat="44.7228" lon="3.28448">
        <ele>1045.8</ele>
        <time>2022-08-02T07:39:39Z</time>
      </trkpt>
      <trkpt lat="44.72279" lon="3.28448">
        <ele>1045.9</ele>
        <time>2022-08-02T07:39:40Z</time>
      </trkpt>
      <trkpt lat="44.72275" lon="3.28447">
        <ele>1046.1</ele>
        <time>2022-08-02T07:39:42Z</time>
      </trkpt>
      <trkpt lat="44.72273" lon="3.28444">
        <ele>1046.2</ele>
        <time>2022-08-02T07:39:46Z</time>
      </trkpt>
      <trkpt lat="44.72268" lon="3.2844">
        <ele>1046.1</ele>
        <time>2022-08-02T07:39:51Z</time>
      </trkpt>
      <trkpt lat="44.72265" lon="3.28437">
        <ele>1046.1</ele>
        <time>2022-08-02T07:39:54Z</time>
      </trkpt>
      <trkpt lat="44.72266" lon="3.28435">
        <ele>1046</ele>
        <time>2022-08-02T07:39:57Z</time>
      </trkpt>
      <trkpt lat="44.72265" lon="3.28434">
        <ele>1046</ele>
        <time>2022-08-02T07:40:00Z</time>
      </trkpt>
      <trkpt lat="44.72262" lon="3.28425">
        <ele>1046</ele>
        <time>2022-08-02T07:40:09Z</time>
      </trkpt>
      <trkpt lat="44.72263" lon="3.28425">
        <ele>1045.9</ele>
        <time>2022-08-02T07:40:15Z</time>
      </trkpt>
      <trkpt lat="44.72262" lon="3.28422">
        <ele>1045.9</ele>
        <time>2022-08-02T07:40:22Z</time>
      </trkpt>
      <trkpt lat="44.7226" lon="3.28421">
        <ele>1046</ele>
        <time>2022-08-02T07:40:30Z</time>
      </trkpt>
      <trkpt lat="44.72254" lon="3.2842">
        <ele>1046.6</ele>
        <time>2022-08-02T07:40:35Z</time>
      </trkpt>
      <trkpt lat="44.72253" lon="3.28418">
        <ele>1046.7</ele>
        <time>2022-08-02T07:40:37Z</time>
      </trkpt>
      <trkpt lat="44.7225" lon="3.2841">
        <ele>1047</ele>
        <time>2022-08-02T07:40:43Z</time>
      </trkpt>
      <trkpt lat="44.72249" lon="3.28408">
        <ele>1047.1</ele>
        <time>2022-08-02T07:40:44Z</time>
      </trkpt>
      <trkpt lat="44.72248" lon="3.28407">
        <ele>1047.1</ele>
        <time>2022-08-02T07:40:45Z</time>
      </trkpt>
      <trkpt lat="44.72243" lon="3.28402">
        <ele>1047.4</ele>
        <time>2022-08-02T07:40:49Z</time>
      </trkpt>
      <trkpt lat="44.72242" lon="3.28401">
        <ele>1047.4</ele>
        <time>2022-08-02T07:40:50Z</time>
      </trkpt>
      <trkpt lat="44.7224" lon="3.28394">
        <ele>1047.4</ele>
        <time>2022-08-02T07:40:54Z</time>
      </trkpt>
      <trkpt lat="44.72239" lon="3.28392">
        <ele>1047.4</ele>
        <time>2022-08-02T07:40:56Z</time>
      </trkpt>
      <trkpt lat="44.72237" lon="3.28389">
        <ele>1047.5</ele>
        <time>2022-08-02T07:40:59Z</time>
      </trkpt>
      <trkpt lat="44.72236" lon="3.28383">
        <ele>1047.4</ele>
        <time>2022-08-02T07:41:03Z</time>
      </trkpt>
      <trkpt lat="44.72235" lon="3.28382">
        <ele>1047.4</ele>
        <time>2022-08-02T07:41:04Z</time>
      </trkpt>
      <trkpt lat="44.72232" lon="3.2838">
        <ele>1047.4</ele>
        <time>2022-08-02T07:41:06Z</time>
      </trkpt>
      <trkpt lat="44.7223" lon="3.28378">
        <ele>1047.4</ele>
        <time>2022-08-02T07:41:08Z</time>
      </trkpt>
      <trkpt lat="44.7223" lon="3.28377">
        <ele>1047.4</ele>
        <time>2022-08-02T07:41:09Z</time>
      </trkpt>
      <trkpt lat="44.72227" lon="3.28373">
        <ele>1047.3</ele>
        <time>2022-08-02T07:41:13Z</time>
      </trkpt>
      <trkpt lat="44.72225" lon="3.28371">
        <ele>1047.3</ele>
        <time>2022-08-02T07:41:15Z</time>
      </trkpt>
      <trkpt lat="44.72223" lon="3.28368">
        <ele>1047.2</ele>
        <time>2022-08-02T07:41:17Z</time>
      </trkpt>
      <trkpt lat="44.72222" lon="3.28368">
        <ele>1047.3</ele>
        <time>2022-08-02T07:41:18Z</time>
      </trkpt>
      <trkpt lat="44.72214" lon="3.28367">
        <ele>1047.8</ele>
        <time>2022-08-02T07:41:24Z</time>
      </trkpt>
      <trkpt lat="44.72215" lon="3.28367">
        <ele>1047.7</ele>
        <time>2022-08-02T07:41:32Z</time>
      </trkpt>
      <trkpt lat="44.72215" lon="3.28367">
        <ele>1047.7</ele>
        <time>2022-08-02T07:41:33Z</time>
      </trkpt>
      <trkpt lat="44.72214" lon="3.28368">
        <ele>1047.8</ele>
        <time>2022-08-02T07:41:38Z</time>
      </trkpt>
      <trkpt lat="44.72212" lon="3.2837">
        <ele>1048.1</ele>
        <time>2022-08-02T07:41:47Z</time>
      </trkpt>
      <trkpt lat="44.7221" lon="3.28363">
        <ele>1047.9</ele>
        <time>2022-08-02T07:42:04Z</time>
      </trkpt>
      <trkpt lat="44.72203" lon="3.28352">
        <ele>1048.3</ele>
        <time>2022-08-02T07:42:12Z</time>
      </trkpt>
      <trkpt lat="44.72195" lon="3.28343">
        <ele>1048.3</ele>
        <time>2022-08-02T07:42:20Z</time>
      </trkpt>
      <trkpt lat="44.72188" lon="3.28332">
        <ele>1048.2</ele>
        <time>2022-08-02T07:42:28Z</time>
      </trkpt>
      <trkpt lat="44.72182" lon="3.28327">
        <ele>1048.1</ele>
        <time>2022-08-02T07:42:33Z</time>
      </trkpt>
      <trkpt lat="44.72181" lon="3.28324">
        <ele>1048</ele>
        <time>2022-08-02T07:42:35Z</time>
      </trkpt>
      <trkpt lat="44.72172" lon="3.28314">
        <ele>1047.5</ele>
        <time>2022-08-02T07:42:43Z</time>
      </trkpt>
      <trkpt lat="44.72162" lon="3.28308">
        <ele>1047.2</ele>
        <time>2022-08-02T07:42:51Z</time>
      </trkpt>
      <trkpt lat="44.72158" lon="3.28306">
        <ele>1047</ele>
        <time>2022-08-02T07:42:54Z</time>
      </trkpt>
      <trkpt lat="44.72155" lon="3.28305">
        <ele>1047</ele>
        <time>2022-08-02T07:42:56Z</time>
      </trkpt>
      <trkpt lat="44.72148" lon="3.28306">
        <ele>1047</ele>
        <time>2022-08-02T07:43:00Z</time>
      </trkpt>
      <trkpt lat="44.72146" lon="3.28305">
        <ele>1047</ele>
        <time>2022-08-02T07:43:02Z</time>
      </trkpt>
      <trkpt lat="44.72144" lon="3.28305">
        <ele>1047</ele>
        <time>2022-08-02T07:43:03Z</time>
      </trkpt>
      <trkpt lat="44.72137" lon="3.28304">
        <ele>1046.9</ele>
        <time>2022-08-02T07:43:07Z</time>
      </trkpt>
      <trkpt lat="44.72128" lon="3.28303">
        <ele>1046.8</ele>
        <time>2022-08-02T07:43:12Z</time>
      </trkpt>
      <trkpt lat="44.72126" lon="3.283">
        <ele>1046.6</ele>
        <time>2022-08-02T07:43:14Z</time>
      </trkpt>
      <trkpt lat="44.72127" lon="3.28291">
        <ele>1046</ele>
        <time>2022-08-02T07:43:17Z</time>
      </trkpt>
      <trkpt lat="44.72124" lon="3.28284">
        <ele>1045.4</ele>
        <time>2022-08-02T07:43:22Z</time>
      </trkpt>
      <trkpt lat="44.72122" lon="3.28278">
        <ele>1044.8</ele>
        <time>2022-08-02T07:43:26Z</time>
      </trkpt>
      <trkpt lat="44.72122" lon="3.28275">
        <ele>1044.8</ele>
        <time>2022-08-02T07:43:28Z</time>
      </trkpt>
      <trkpt lat="44.72121" lon="3.28272">
        <ele>1044.7</ele>
        <time>2022-08-02T07:43:30Z</time>
      </trkpt>
      <trkpt lat="44.72121" lon="3.2827">
        <ele>1044.7</ele>
        <time>2022-08-02T07:43:33Z</time>
      </trkpt>
      <trkpt lat="44.72121" lon="3.28269">
        <ele>1044.7</ele>
        <time>2022-08-02T07:43:34Z</time>
      </trkpt>
      <trkpt lat="44.72125" lon="3.28267">
        <ele>1045</ele>
        <time>2022-08-02T07:43:39Z</time>
      </trkpt>
      <trkpt lat="44.72125" lon="3.28268">
        <ele>1045</ele>
        <time>2022-08-02T07:43:49Z</time>
      </trkpt>
      <trkpt lat="44.7212" lon="3.28262">
        <ele>1044.6</ele>
        <time>2022-08-02T07:44:08Z</time>
      </trkpt>
      <trkpt lat="44.72118" lon="3.28259">
        <ele>1044.5</ele>
        <time>2022-08-02T07:44:10Z</time>
      </trkpt>
      <trkpt lat="44.72108" lon="3.28247">
        <ele>1043.8</ele>
        <time>2022-08-02T07:44:18Z</time>
      </trkpt>
      <trkpt lat="44.72107" lon="3.28246">
        <ele>1043.8</ele>
        <time>2022-08-02T07:44:19Z</time>
      </trkpt>
      <trkpt lat="44.72106" lon="3.28245">
        <ele>1043.8</ele>
        <time>2022-08-02T07:44:20Z</time>
      </trkpt>
      <trkpt lat="44.72104" lon="3.28241">
        <ele>1043.7</ele>
        <time>2022-08-02T07:44:23Z</time>
      </trkpt>
      <trkpt lat="44.721" lon="3.2824">
        <ele>1043.2</ele>
        <time>2022-08-02T07:44:26Z</time>
      </trkpt>
      <trkpt lat="44.72097" lon="3.28237">
        <ele>1042.9</ele>
        <time>2022-08-02T07:44:28Z</time>
      </trkpt>
      <trkpt lat="44.72096" lon="3.28237">
        <ele>1042.7</ele>
        <time>2022-08-02T07:44:29Z</time>
      </trkpt>
      <trkpt lat="44.72092" lon="3.28236">
        <ele>1042.3</ele>
        <time>2022-08-02T07:44:31Z</time>
      </trkpt>
      <trkpt lat="44.7209" lon="3.28234">
        <ele>1042</ele>
        <time>2022-08-02T07:44:33Z</time>
      </trkpt>
      <trkpt lat="44.72087" lon="3.28233">
        <ele>1041.6</ele>
        <time>2022-08-02T07:44:35Z</time>
      </trkpt>
      <trkpt lat="44.72081" lon="3.28229">
        <ele>1040.9</ele>
        <time>2022-08-02T07:44:39Z</time>
      </trkpt>
      <trkpt lat="44.72081" lon="3.28228">
        <ele>1040.8</ele>
        <time>2022-08-02T07:44:40Z</time>
      </trkpt>
      <trkpt lat="44.72077" lon="3.28222">
        <ele>1040.6</ele>
        <time>2022-08-02T07:44:44Z</time>
      </trkpt>
      <trkpt lat="44.72075" lon="3.28217">
        <ele>1040.7</ele>
        <time>2022-08-02T07:44:47Z</time>
      </trkpt>
      <trkpt lat="44.72074" lon="3.28211">
        <ele>1040.8</ele>
        <time>2022-08-02T07:44:50Z</time>
      </trkpt>
      <trkpt lat="44.72071" lon="3.28205">
        <ele>1040.8</ele>
        <time>2022-08-02T07:44:54Z</time>
      </trkpt>
      <trkpt lat="44.72068" lon="3.28201">
        <ele>1040.5</ele>
        <time>2022-08-02T07:44:58Z</time>
      </trkpt>
      <trkpt lat="44.72056" lon="3.282">
        <ele>1039.1</ele>
        <time>2022-08-02T07:45:07Z</time>
      </trkpt>
      <trkpt lat="44.72055" lon="3.282">
        <ele>1039</ele>
        <time>2022-08-02T07:45:08Z</time>
      </trkpt>
      <trkpt lat="44.72048" lon="3.28203">
        <ele>1038.5</ele>
        <time>2022-08-02T07:45:14Z</time>
      </trkpt>
      <trkpt lat="44.72047" lon="3.28203">
        <ele>1038.4</ele>
        <time>2022-08-02T07:45:15Z</time>
      </trkpt>
      <trkpt lat="44.72047" lon="3.28205">
        <ele>1038.4</ele>
        <time>2022-08-02T07:45:16Z</time>
      </trkpt>
      <trkpt lat="44.72044" lon="3.28209">
        <ele>1038.2</ele>
        <time>2022-08-02T07:45:18Z</time>
      </trkpt>
      <trkpt lat="44.72043" lon="3.28211">
        <ele>1038.1</ele>
        <time>2022-08-02T07:45:19Z</time>
      </trkpt>
      <trkpt lat="44.7204" lon="3.28213">
        <ele>1037.9</ele>
        <time>2022-08-02T07:45:22Z</time>
      </trkpt>
      <trkpt lat="44.72036" lon="3.28214">
        <ele>1037.6</ele>
        <time>2022-08-02T07:45:26Z</time>
      </trkpt>
      <trkpt lat="44.72027" lon="3.28219">
        <ele>1037</ele>
        <time>2022-08-02T07:45:33Z</time>
      </trkpt>
      <trkpt lat="44.72026" lon="3.28219">
        <ele>1036.9</ele>
        <time>2022-08-02T07:45:34Z</time>
      </trkpt>
      <trkpt lat="44.72025" lon="3.28218">
        <ele>1036.9</ele>
        <time>2022-08-02T07:45:35Z</time>
      </trkpt>
      <trkpt lat="44.72019" lon="3.28214">
        <ele>1036.9</ele>
        <time>2022-08-02T07:45:39Z</time>
      </trkpt>
      <trkpt lat="44.72009" lon="3.28202">
        <ele>1037.3</ele>
        <time>2022-08-02T07:45:49Z</time>
      </trkpt>
      <trkpt lat="44.72003" lon="3.28197">
        <ele>1037.7</ele>
        <time>2022-08-02T07:45:54Z</time>
      </trkpt>
      <trkpt lat="44.72" lon="3.28193">
        <ele>1037.8</ele>
        <time>2022-08-02T07:45:56Z</time>
      </trkpt>
      <trkpt lat="44.72" lon="3.28173">
        <ele>1034.9</ele>
        <time>2022-08-02T07:46:05Z</time>
      </trkpt>
      <trkpt lat="44.71998" lon="3.28158">
        <ele>1033.9</ele>
        <time>2022-08-02T07:46:14Z</time>
      </trkpt>
      <trkpt lat="44.71997" lon="3.28153">
        <ele>1033.9</ele>
        <time>2022-08-02T07:46:17Z</time>
      </trkpt>
      <trkpt lat="44.71996" lon="3.28141">
        <ele>1034</ele>
        <time>2022-08-02T07:46:24Z</time>
      </trkpt>
      <trkpt lat="44.71994" lon="3.28125">
        <ele>1033.6</ele>
        <time>2022-08-02T07:46:33Z</time>
      </trkpt>
      <trkpt lat="44.71996" lon="3.28116">
        <ele>1033.9</ele>
        <time>2022-08-02T07:46:36Z</time>
      </trkpt>
      <trkpt lat="44.71996" lon="3.28103">
        <ele>1032.9</ele>
        <time>2022-08-02T07:46:43Z</time>
      </trkpt>
      <trkpt lat="44.71998" lon="3.28095">
        <ele>1032.2</ele>
        <time>2022-08-02T07:46:47Z</time>
      </trkpt>
      <trkpt lat="44.72001" lon="3.28087">
        <ele>1031.7</ele>
        <time>2022-08-02T07:46:53Z</time>
      </trkpt>
      <trkpt lat="44.72004" lon="3.28082">
        <ele>1031.5</ele>
        <time>2022-08-02T07:46:56Z</time>
      </trkpt>
      <trkpt lat="44.72006" lon="3.28076">
        <ele>1031</ele>
        <time>2022-08-02T07:46:59Z</time>
      </trkpt>
      <trkpt lat="44.7201" lon="3.28068">
        <ele>1030.3</ele>
        <time>2022-08-02T07:47:03Z</time>
      </trkpt>
      <trkpt lat="44.72016" lon="3.28059">
        <ele>1029.9</ele>
        <time>2022-08-02T07:47:10Z</time>
      </trkpt>
      <trkpt lat="44.72017" lon="3.28055">
        <ele>1029.3</ele>
        <time>2022-08-02T07:47:12Z</time>
      </trkpt>
      <trkpt lat="44.72026" lon="3.28046">
        <ele>1029.1</ele>
        <time>2022-08-02T07:47:21Z</time>
      </trkpt>
      <trkpt lat="44.72028" lon="3.28043">
        <ele>1028.8</ele>
        <time>2022-08-02T07:47:23Z</time>
      </trkpt>
      <trkpt lat="44.72035" lon="3.28036">
        <ele>1027.7</ele>
        <time>2022-08-02T07:47:31Z</time>
      </trkpt>
      <trkpt lat="44.72038" lon="3.28034">
        <ele>1027.4</ele>
        <time>2022-08-02T07:47:33Z</time>
      </trkpt>
      <trkpt lat="44.72045" lon="3.28024">
        <ele>1026.3</ele>
        <time>2022-08-02T07:47:41Z</time>
      </trkpt>
      <trkpt lat="44.72052" lon="3.28016">
        <ele>1026</ele>
        <time>2022-08-02T07:47:48Z</time>
      </trkpt>
      <trkpt lat="44.72056" lon="3.28012">
        <ele>1025.9</ele>
        <time>2022-08-02T07:47:51Z</time>
      </trkpt>
      <trkpt lat="44.72056" lon="3.28011">
        <ele>1025.8</ele>
        <time>2022-08-02T07:47:52Z</time>
      </trkpt>
      <trkpt lat="44.72067" lon="3.27999">
        <ele>1025.3</ele>
        <time>2022-08-02T07:48:01Z</time>
      </trkpt>
      <trkpt lat="44.72067" lon="3.27997">
        <ele>1025.2</ele>
        <time>2022-08-02T07:48:02Z</time>
      </trkpt>
      <trkpt lat="44.72075" lon="3.27982">
        <ele>1024.4</ele>
        <time>2022-08-02T07:48:13Z</time>
      </trkpt>
      <trkpt lat="44.72082" lon="3.27972">
        <ele>1023.9</ele>
        <time>2022-08-02T07:48:20Z</time>
      </trkpt>
      <trkpt lat="44.72084" lon="3.27969">
        <ele>1023.8</ele>
        <time>2022-08-02T07:48:22Z</time>
      </trkpt>
      <trkpt lat="44.7209" lon="3.27963">
        <ele>1023.7</ele>
        <time>2022-08-02T07:48:28Z</time>
      </trkpt>
      <trkpt lat="44.72092" lon="3.27961">
        <ele>1023.5</ele>
        <time>2022-08-02T07:48:30Z</time>
      </trkpt>
      <trkpt lat="44.72094" lon="3.27958">
        <ele>1023.3</ele>
        <time>2022-08-02T07:48:32Z</time>
      </trkpt>
      <trkpt lat="44.72102" lon="3.27952">
        <ele>1022.9</ele>
        <time>2022-08-02T07:48:40Z</time>
      </trkpt>
      <trkpt lat="44.72104" lon="3.2795">
        <ele>1022.7</ele>
        <time>2022-08-02T07:48:42Z</time>
      </trkpt>
      <trkpt lat="44.72105" lon="3.27949">
        <ele>1022.5</ele>
        <time>2022-08-02T07:48:43Z</time>
      </trkpt>
      <trkpt lat="44.72109" lon="3.27943">
        <ele>1021.8</ele>
        <time>2022-08-02T07:48:47Z</time>
      </trkpt>
      <trkpt lat="44.72115" lon="3.27935">
        <ele>1021.1</ele>
        <time>2022-08-02T07:48:54Z</time>
      </trkpt>
      <trkpt lat="44.7212" lon="3.27928">
        <ele>1020.5</ele>
        <time>2022-08-02T07:48:59Z</time>
      </trkpt>
      <trkpt lat="44.72125" lon="3.27924">
        <ele>1020.3</ele>
        <time>2022-08-02T07:49:03Z</time>
      </trkpt>
      <trkpt lat="44.72134" lon="3.2791">
        <ele>1019.6</ele>
        <time>2022-08-02T07:49:13Z</time>
      </trkpt>
      <trkpt lat="44.72143" lon="3.27893">
        <ele>1018.9</ele>
        <time>2022-08-02T07:49:25Z</time>
      </trkpt>
      <trkpt lat="44.72143" lon="3.27892">
        <ele>1018.8</ele>
        <time>2022-08-02T07:49:26Z</time>
      </trkpt>
      <trkpt lat="44.72144" lon="3.27886">
        <ele>1018.6</ele>
        <time>2022-08-02T07:49:29Z</time>
      </trkpt>
      <trkpt lat="44.72145" lon="3.27875">
        <ele>1018.7</ele>
        <time>2022-08-02T07:49:36Z</time>
      </trkpt>
      <trkpt lat="44.72145" lon="3.27859">
        <ele>1018.9</ele>
        <time>2022-08-02T07:49:46Z</time>
      </trkpt>
      <trkpt lat="44.72143" lon="3.2784">
        <ele>1019.9</ele>
        <time>2022-08-02T07:49:57Z</time>
      </trkpt>
      <trkpt lat="44.72143" lon="3.27839">
        <ele>1020</ele>
        <time>2022-08-02T07:49:58Z</time>
      </trkpt>
      <trkpt lat="44.72138" lon="3.27825">
        <ele>1020.8</ele>
        <time>2022-08-02T07:50:07Z</time>
      </trkpt>
      <trkpt lat="44.72136" lon="3.27821">
        <ele>1021.2</ele>
        <time>2022-08-02T07:50:11Z</time>
      </trkpt>
      <trkpt lat="44.72134" lon="3.27815">
        <ele>1021.7</ele>
        <time>2022-08-02T07:50:16Z</time>
      </trkpt>
      <trkpt lat="44.72133" lon="3.27812">
        <ele>1021.9</ele>
        <time>2022-08-02T07:50:18Z</time>
      </trkpt>
      <trkpt lat="44.7213" lon="3.27804">
        <ele>1022.6</ele>
        <time>2022-08-02T07:50:25Z</time>
      </trkpt>
      <trkpt lat="44.72128" lon="3.27797">
        <ele>1023.4</ele>
        <time>2022-08-02T07:50:30Z</time>
      </trkpt>
      <trkpt lat="44.72127" lon="3.27791">
        <ele>1024</ele>
        <time>2022-08-02T07:50:34Z</time>
      </trkpt>
      <trkpt lat="44.72126" lon="3.2779">
        <ele>1024.1</ele>
        <time>2022-08-02T07:50:35Z</time>
      </trkpt>
      <trkpt lat="44.72123" lon="3.27779">
        <ele>1025.1</ele>
        <time>2022-08-02T07:50:43Z</time>
      </trkpt>
      <trkpt lat="44.72123" lon="3.27777">
        <ele>1025.2</ele>
        <time>2022-08-02T07:50:44Z</time>
      </trkpt>
      <trkpt lat="44.72122" lon="3.27769">
        <ele>1025.9</ele>
        <time>2022-08-02T07:50:51Z</time>
      </trkpt>
      <trkpt lat="44.72121" lon="3.27766">
        <ele>1026.1</ele>
        <time>2022-08-02T07:50:53Z</time>
      </trkpt>
      <trkpt lat="44.72121" lon="3.27765">
        <ele>1026.3</ele>
        <time>2022-08-02T07:50:54Z</time>
      </trkpt>
      <trkpt lat="44.72121" lon="3.27761">
        <ele>1026.7</ele>
        <time>2022-08-02T07:50:57Z</time>
      </trkpt>
      <trkpt lat="44.72121" lon="3.27755">
        <ele>1027.2</ele>
        <time>2022-08-02T07:51:01Z</time>
      </trkpt>
      <trkpt lat="44.72122" lon="3.27748">
        <ele>1028.1</ele>
        <time>2022-08-02T07:51:06Z</time>
      </trkpt>
      <trkpt lat="44.72122" lon="3.27747">
        <ele>1028.2</ele>
        <time>2022-08-02T07:51:07Z</time>
      </trkpt>
      <trkpt lat="44.72122" lon="3.27743">
        <ele>1028.5</ele>
        <time>2022-08-02T07:51:09Z</time>
      </trkpt>
      <trkpt lat="44.72124" lon="3.27734">
        <ele>1029.5</ele>
        <time>2022-08-02T07:51:16Z</time>
      </trkpt>
      <trkpt lat="44.72125" lon="3.2773">
        <ele>1030</ele>
        <time>2022-08-02T07:51:22Z</time>
      </trkpt>
      <trkpt lat="44.72125" lon="3.27729">
        <ele>1030</ele>
        <time>2022-08-02T07:51:24Z</time>
      </trkpt>
      <trkpt lat="44.72127" lon="3.27719">
        <ele>1030.9</ele>
        <time>2022-08-02T07:51:30Z</time>
      </trkpt>
      <trkpt lat="44.72127" lon="3.27716">
        <ele>1031.1</ele>
        <time>2022-08-02T07:51:32Z</time>
      </trkpt>
      <trkpt lat="44.72129" lon="3.27706">
        <ele>1031.8</ele>
        <time>2022-08-02T07:51:39Z</time>
      </trkpt>
      <trkpt lat="44.72129" lon="3.27705">
        <ele>1031.8</ele>
        <time>2022-08-02T07:51:40Z</time>
      </trkpt>
      <trkpt lat="44.7213" lon="3.27704">
        <ele>1032</ele>
        <time>2022-08-02T07:51:43Z</time>
      </trkpt>
      <trkpt lat="44.7213" lon="3.27704">
        <ele>1032</ele>
        <time>2022-08-02T07:51:46Z</time>
      </trkpt>
      <trkpt lat="44.7213" lon="3.27701">
        <ele>1032.2</ele>
        <time>2022-08-02T07:51:54Z</time>
      </trkpt>
      <trkpt lat="44.72132" lon="3.27691">
        <ele>1032.9</ele>
        <time>2022-08-02T07:52:05Z</time>
      </trkpt>
      <trkpt lat="44.72134" lon="3.27678">
        <ele>1033.1</ele>
        <time>2022-08-02T07:52:12Z</time>
      </trkpt>
      <trkpt lat="44.72133" lon="3.27665">
        <ele>1033.2</ele>
        <time>2022-08-02T07:52:20Z</time>
      </trkpt>
      <trkpt lat="44.72131" lon="3.27648">
        <ele>1033.5</ele>
        <time>2022-08-02T07:52:30Z</time>
      </trkpt>
      <trkpt lat="44.7213" lon="3.27647">
        <ele>1033.4</ele>
        <time>2022-08-02T07:52:31Z</time>
      </trkpt>
      <trkpt lat="44.72126" lon="3.27633">
        <ele>1033.7</ele>
        <time>2022-08-02T07:52:40Z</time>
      </trkpt>
      <trkpt lat="44.72119" lon="3.27621">
        <ele>1034.1</ele>
        <time>2022-08-02T07:52:50Z</time>
      </trkpt>
      <trkpt lat="44.72112" lon="3.27608">
        <ele>1034.2</ele>
        <time>2022-08-02T07:53:00Z</time>
      </trkpt>
      <trkpt lat="44.72102" lon="3.2759">
        <ele>1034.1</ele>
        <time>2022-08-02T07:53:13Z</time>
      </trkpt>
      <trkpt lat="44.721" lon="3.27585">
        <ele>1034.1</ele>
        <time>2022-08-02T07:53:17Z</time>
      </trkpt>
      <trkpt lat="44.72095" lon="3.27577">
        <ele>1034.3</ele>
        <time>2022-08-02T07:53:23Z</time>
      </trkpt>
      <trkpt lat="44.72087" lon="3.27562">
        <ele>1034.9</ele>
        <time>2022-08-02T07:53:34Z</time>
      </trkpt>
      <trkpt lat="44.72081" lon="3.27548">
        <ele>1035.2</ele>
        <time>2022-08-02T07:53:44Z</time>
      </trkpt>
      <trkpt lat="44.72075" lon="3.27528">
        <ele>1036</ele>
        <time>2022-08-02T07:53:57Z</time>
      </trkpt>
      <trkpt lat="44.72074" lon="3.27527">
        <ele>1036.1</ele>
        <time>2022-08-02T07:53:58Z</time>
      </trkpt>
      <trkpt lat="44.72072" lon="3.27511">
        <ele>1037.3</ele>
        <time>2022-08-02T07:54:12Z</time>
      </trkpt>
      <trkpt lat="44.72067" lon="3.27503">
        <ele>1037.6</ele>
        <time>2022-08-02T07:54:20Z</time>
      </trkpt>
      <trkpt lat="44.72065" lon="3.27498">
        <ele>1037.8</ele>
        <time>2022-08-02T07:54:24Z</time>
      </trkpt>
      <trkpt lat="44.72064" lon="3.27493">
        <ele>1037.9</ele>
        <time>2022-08-02T07:54:27Z</time>
      </trkpt>
      <trkpt lat="44.7206" lon="3.27477">
        <ele>1038.3</ele>
        <time>2022-08-02T07:54:38Z</time>
      </trkpt>
      <trkpt lat="44.7206" lon="3.27475">
        <ele>1038.3</ele>
        <time>2022-08-02T07:54:39Z</time>
      </trkpt>
      <trkpt lat="44.72055" lon="3.27463">
        <ele>1038.6</ele>
        <time>2022-08-02T07:54:48Z</time>
      </trkpt>
      <trkpt lat="44.72047" lon="3.2745">
        <ele>1038.4</ele>
        <time>2022-08-02T07:54:59Z</time>
      </trkpt>
      <trkpt lat="44.72041" lon="3.27442">
        <ele>1038.2</ele>
        <time>2022-08-02T07:55:06Z</time>
      </trkpt>
      <trkpt lat="44.7204" lon="3.2744">
        <ele>1038.1</ele>
        <time>2022-08-02T07:55:07Z</time>
      </trkpt>
      <trkpt lat="44.72032" lon="3.27428">
        <ele>1037.7</ele>
        <time>2022-08-02T07:55:17Z</time>
      </trkpt>
      <trkpt lat="44.72021" lon="3.27415">
        <ele>1037.6</ele>
        <time>2022-08-02T07:55:28Z</time>
      </trkpt>
      <trkpt lat="44.72011" lon="3.27403">
        <ele>1037.6</ele>
        <time>2022-08-02T07:55:38Z</time>
      </trkpt>
      <trkpt lat="44.72008" lon="3.27396">
        <ele>1037.8</ele>
        <time>2022-08-02T07:55:43Z</time>
      </trkpt>
      <trkpt lat="44.72009" lon="3.2739">
        <ele>1038.1</ele>
        <time>2022-08-02T07:55:46Z</time>
      </trkpt>
      <trkpt lat="44.72013" lon="3.27383">
        <ele>1039.3</ele>
        <time>2022-08-02T07:55:52Z</time>
      </trkpt>
      <trkpt lat="44.72034" lon="3.27342">
        <ele>1042.3</ele>
        <time>2022-08-02T07:56:18Z</time>
      </trkpt>
      <trkpt lat="44.72036" lon="3.27344">
        <ele>1042.4</ele>
        <time>2022-08-02T07:56:19Z</time>
      </trkpt>
      <trkpt lat="44.72039" lon="3.27342">
        <ele>1042.6</ele>
        <time>2022-08-02T07:56:21Z</time>
      </trkpt>
      <trkpt lat="44.72039" lon="3.2734">
        <ele>1042.6</ele>
        <time>2022-08-02T07:56:22Z</time>
      </trkpt>
      <trkpt lat="44.72039" lon="3.27338">
        <ele>1042.7</ele>
        <time>2022-08-02T07:56:23Z</time>
      </trkpt>
      <trkpt lat="44.72042" lon="3.27335">
        <ele>1042.9</ele>
        <time>2022-08-02T07:56:26Z</time>
      </trkpt>
      <trkpt lat="44.72039" lon="3.27331">
        <ele>1042.8</ele>
        <time>2022-08-02T07:56:30Z</time>
      </trkpt>
      <trkpt lat="44.72033" lon="3.2732">
        <ele>1042.1</ele>
        <time>2022-08-02T07:56:38Z</time>
      </trkpt>
      <trkpt lat="44.7203" lon="3.2731">
        <ele>1041.5</ele>
        <time>2022-08-02T07:56:45Z</time>
      </trkpt>
      <trkpt lat="44.7203" lon="3.27309">
        <ele>1041.4</ele>
        <time>2022-08-02T07:56:46Z</time>
      </trkpt>
      <trkpt lat="44.72029" lon="3.27308">
        <ele>1041.3</ele>
        <time>2022-08-02T07:56:47Z</time>
      </trkpt>
      <trkpt lat="44.72029" lon="3.27305">
        <ele>1041.2</ele>
        <time>2022-08-02T07:56:51Z</time>
      </trkpt>
      <trkpt lat="44.72028" lon="3.27304">
        <ele>1041.3</ele>
        <time>2022-08-02T07:56:52Z</time>
      </trkpt>
      <trkpt lat="44.72028" lon="3.27303">
        <ele>1041.3</ele>
        <time>2022-08-02T07:56:53Z</time>
      </trkpt>
      <trkpt lat="44.72026" lon="3.27297">
        <ele>1042</ele>
        <time>2022-08-02T07:56:57Z</time>
      </trkpt>
      <trkpt lat="44.72025" lon="3.27294">
        <ele>1042.4</ele>
        <time>2022-08-02T07:56:59Z</time>
      </trkpt>
      <trkpt lat="44.72019" lon="3.27275">
        <ele>1043.7</ele>
        <time>2022-08-02T07:57:11Z</time>
      </trkpt>
      <trkpt lat="44.7202" lon="3.27275">
        <ele>1043.7</ele>
        <time>2022-08-02T07:57:12Z</time>
      </trkpt>
      <trkpt lat="44.7202" lon="3.27274">
        <ele>1043.8</ele>
        <time>2022-08-02T07:57:14Z</time>
      </trkpt>
      <trkpt lat="44.7202" lon="3.27273">
        <ele>1043.8</ele>
        <time>2022-08-02T07:57:15Z</time>
      </trkpt>
      <trkpt lat="44.72019" lon="3.27272">
        <ele>1043.8</ele>
        <time>2022-08-02T07:57:16Z</time>
      </trkpt>
      <trkpt lat="44.72019" lon="3.27265">
        <ele>1043.8</ele>
        <time>2022-08-02T07:57:21Z</time>
      </trkpt>
      <trkpt lat="44.72018" lon="3.27255">
        <ele>1043.9</ele>
        <time>2022-08-02T07:57:27Z</time>
      </trkpt>
      <trkpt lat="44.72018" lon="3.27249">
        <ele>1044</ele>
        <time>2022-08-02T07:57:31Z</time>
      </trkpt>
      <trkpt lat="44.72019" lon="3.2723">
        <ele>1044</ele>
        <time>2022-08-02T07:57:43Z</time>
      </trkpt>
      <trkpt lat="44.72021" lon="3.27213">
        <ele>1043.9</ele>
        <time>2022-08-02T07:57:53Z</time>
      </trkpt>
      <trkpt lat="44.72023" lon="3.27199">
        <ele>1043.8</ele>
        <time>2022-08-02T07:58:02Z</time>
      </trkpt>
      <trkpt lat="44.72023" lon="3.27198">
        <ele>1043.8</ele>
        <time>2022-08-02T07:58:03Z</time>
      </trkpt>
      <trkpt lat="44.72026" lon="3.27176">
        <ele>1043.3</ele>
        <time>2022-08-02T07:58:16Z</time>
      </trkpt>
      <trkpt lat="44.72029" lon="3.27159">
        <ele>1043.1</ele>
        <time>2022-08-02T07:58:26Z</time>
      </trkpt>
      <trkpt lat="44.72034" lon="3.27139">
        <ele>1043.2</ele>
        <time>2022-08-02T07:58:39Z</time>
      </trkpt>
      <trkpt lat="44.72036" lon="3.27133">
        <ele>1043.1</ele>
        <time>2022-08-02T07:58:43Z</time>
      </trkpt>
      <trkpt lat="44.72037" lon="3.27129">
        <ele>1043</ele>
        <time>2022-08-02T07:58:45Z</time>
      </trkpt>
      <trkpt lat="44.72042" lon="3.27105">
        <ele>1042.3</ele>
        <time>2022-08-02T07:59:00Z</time>
      </trkpt>
      <trkpt lat="44.72042" lon="3.27102">
        <ele>1042.2</ele>
        <time>2022-08-02T07:59:02Z</time>
      </trkpt>
      <trkpt lat="44.72044" lon="3.27092">
        <ele>1042</ele>
        <time>2022-08-02T07:59:08Z</time>
      </trkpt>
      <trkpt lat="44.72044" lon="3.2708">
        <ele>1041.6</ele>
        <time>2022-08-02T07:59:15Z</time>
      </trkpt>
      <trkpt lat="44.72043" lon="3.27075">
        <ele>1041.3</ele>
        <time>2022-08-02T07:59:18Z</time>
      </trkpt>
      <trkpt lat="44.72043" lon="3.27055">
        <ele>1040.6</ele>
        <time>2022-08-02T07:59:30Z</time>
      </trkpt>
      <trkpt lat="44.72044" lon="3.27052">
        <ele>1040.4</ele>
        <time>2022-08-02T07:59:32Z</time>
      </trkpt>
      <trkpt lat="44.72044" lon="3.27034">
        <ele>1039.2</ele>
        <time>2022-08-02T07:59:43Z</time>
      </trkpt>
      <trkpt lat="44.72045" lon="3.27027">
        <ele>1038.8</ele>
        <time>2022-08-02T07:59:46Z</time>
      </trkpt>
      <trkpt lat="44.72047" lon="3.27009">
        <ele>1037.7</ele>
        <time>2022-08-02T07:59:57Z</time>
      </trkpt>
      <trkpt lat="44.72048" lon="3.27003">
        <ele>1037.4</ele>
        <time>2022-08-02T08:00:00Z</time>
      </trkpt>
      <trkpt lat="44.72049" lon="3.26993">
        <ele>1036.9</ele>
        <time>2022-08-02T08:00:06Z</time>
      </trkpt>
      <trkpt lat="44.7205" lon="3.26977">
        <ele>1036.1</ele>
        <time>2022-08-02T08:00:16Z</time>
      </trkpt>
      <trkpt lat="44.72051" lon="3.26967">
        <ele>1035.8</ele>
        <time>2022-08-02T08:00:21Z</time>
      </trkpt>
      <trkpt lat="44.72051" lon="3.26955">
        <ele>1035.8</ele>
        <time>2022-08-02T08:00:28Z</time>
      </trkpt>
      <trkpt lat="44.72049" lon="3.2694">
        <ele>1035.8</ele>
        <time>2022-08-02T08:00:37Z</time>
      </trkpt>
      <trkpt lat="44.72047" lon="3.26928">
        <ele>1036.1</ele>
        <time>2022-08-02T08:00:45Z</time>
      </trkpt>
      <trkpt lat="44.72047" lon="3.26923">
        <ele>1036.2</ele>
        <time>2022-08-02T08:00:48Z</time>
      </trkpt>
      <trkpt lat="44.72046" lon="3.26918">
        <ele>1036.3</ele>
        <time>2022-08-02T08:00:51Z</time>
      </trkpt>
      <trkpt lat="44.72046" lon="3.26916">
        <ele>1036.4</ele>
        <time>2022-08-02T08:00:53Z</time>
      </trkpt>
      <trkpt lat="44.72045" lon="3.26909">
        <ele>1036.6</ele>
        <time>2022-08-02T08:00:57Z</time>
      </trkpt>
      <trkpt lat="44.72043" lon="3.26894">
        <ele>1037.3</ele>
        <time>2022-08-02T08:01:06Z</time>
      </trkpt>
      <trkpt lat="44.72043" lon="3.26892">
        <ele>1037.3</ele>
        <time>2022-08-02T08:01:07Z</time>
      </trkpt>
      <trkpt lat="44.72041" lon="3.26887">
        <ele>1037.6</ele>
        <time>2022-08-02T08:01:10Z</time>
      </trkpt>
      <trkpt lat="44.72041" lon="3.26884">
        <ele>1037.7</ele>
        <time>2022-08-02T08:01:12Z</time>
      </trkpt>
      <trkpt lat="44.72039" lon="3.2687">
        <ele>1038.5</ele>
        <time>2022-08-02T08:01:20Z</time>
      </trkpt>
      <trkpt lat="44.72039" lon="3.26866">
        <ele>1038.6</ele>
        <time>2022-08-02T08:01:23Z</time>
      </trkpt>
      <trkpt lat="44.72039" lon="3.26861">
        <ele>1038.8</ele>
        <time>2022-08-02T08:01:26Z</time>
      </trkpt>
      <trkpt lat="44.72038" lon="3.2686">
        <ele>1038.9</ele>
        <time>2022-08-02T08:01:27Z</time>
      </trkpt>
      <trkpt lat="44.72037" lon="3.2685">
        <ele>1039.2</ele>
        <time>2022-08-02T08:01:34Z</time>
      </trkpt>
      <trkpt lat="44.72036" lon="3.26842">
        <ele>1039.3</ele>
        <time>2022-08-02T08:01:39Z</time>
      </trkpt>
      <trkpt lat="44.72037" lon="3.26838">
        <ele>1039.3</ele>
        <time>2022-08-02T08:01:41Z</time>
      </trkpt>
      <trkpt lat="44.72037" lon="3.26837">
        <ele>1039.3</ele>
        <time>2022-08-02T08:01:42Z</time>
      </trkpt>
      <trkpt lat="44.72034" lon="3.26828">
        <ele>1039.8</ele>
        <time>2022-08-02T08:01:49Z</time>
      </trkpt>
      <trkpt lat="44.72033" lon="3.26826">
        <ele>1039.9</ele>
        <time>2022-08-02T08:01:50Z</time>
      </trkpt>
      <trkpt lat="44.72032" lon="3.2682">
        <ele>1040.1</ele>
        <time>2022-08-02T08:01:54Z</time>
      </trkpt>
      <trkpt lat="44.7203" lon="3.26818">
        <ele>1040.4</ele>
        <time>2022-08-02T08:01:56Z</time>
      </trkpt>
      <trkpt lat="44.7203" lon="3.26817">
        <ele>1040.5</ele>
        <time>2022-08-02T08:01:57Z</time>
      </trkpt>
      <trkpt lat="44.72025" lon="3.2681">
        <ele>1040.9</ele>
        <time>2022-08-02T08:02:03Z</time>
      </trkpt>
      <trkpt lat="44.72022" lon="3.26806">
        <ele>1041.2</ele>
        <time>2022-08-02T08:02:09Z</time>
      </trkpt>
      <trkpt lat="44.72022" lon="3.26806">
        <ele>1041.2</ele>
        <time>2022-08-02T08:02:10Z</time>
      </trkpt>
      <trkpt lat="44.72021" lon="3.26805">
        <ele>1041.3</ele>
        <time>2022-08-02T08:02:11Z</time>
      </trkpt>
      <trkpt lat="44.7202" lon="3.26803">
        <ele>1041.5</ele>
        <time>2022-08-02T08:02:13Z</time>
      </trkpt>
      <trkpt lat="44.72017" lon="3.26797">
        <ele>1041.9</ele>
        <time>2022-08-02T08:02:16Z</time>
      </trkpt>
      <trkpt lat="44.72016" lon="3.26795">
        <ele>1042</ele>
        <time>2022-08-02T08:02:18Z</time>
      </trkpt>
      <trkpt lat="44.72015" lon="3.26791">
        <ele>1042.3</ele>
        <time>2022-08-02T08:02:22Z</time>
      </trkpt>
      <trkpt lat="44.72015" lon="3.26788">
        <ele>1042.4</ele>
        <time>2022-08-02T08:02:24Z</time>
      </trkpt>
      <trkpt lat="44.72011" lon="3.2678">
        <ele>1042.9</ele>
        <time>2022-08-02T08:02:30Z</time>
      </trkpt>
      <trkpt lat="44.72009" lon="3.26776">
        <ele>1043.1</ele>
        <time>2022-08-02T08:02:35Z</time>
      </trkpt>
      <trkpt lat="44.72009" lon="3.26775">
        <ele>1043.1</ele>
        <time>2022-08-02T08:02:36Z</time>
      </trkpt>
      <trkpt lat="44.72007" lon="3.26767">
        <ele>1043.6</ele>
        <time>2022-08-02T08:02:43Z</time>
      </trkpt>
      <trkpt lat="44.72007" lon="3.26759">
        <ele>1044.1</ele>
        <time>2022-08-02T08:02:48Z</time>
      </trkpt>
      <trkpt lat="44.72004" lon="3.26748">
        <ele>1044.8</ele>
        <time>2022-08-02T08:02:55Z</time>
      </trkpt>
      <trkpt lat="44.72004" lon="3.26747">
        <ele>1044.9</ele>
        <time>2022-08-02T08:02:56Z</time>
      </trkpt>
      <trkpt lat="44.72003" lon="3.26743">
        <ele>1045</ele>
        <time>2022-08-02T08:02:58Z</time>
      </trkpt>
      <trkpt lat="44.72001" lon="3.26735">
        <ele>1045.4</ele>
        <time>2022-08-02T08:03:03Z</time>
      </trkpt>
      <trkpt lat="44.72001" lon="3.26734">
        <ele>1045.5</ele>
        <time>2022-08-02T08:03:04Z</time>
      </trkpt>
      <trkpt lat="44.72" lon="3.26721">
        <ele>1046</ele>
        <time>2022-08-02T08:03:13Z</time>
      </trkpt>
      <trkpt lat="44.71999" lon="3.26716">
        <ele>1046</ele>
        <time>2022-08-02T08:03:16Z</time>
      </trkpt>
      <trkpt lat="44.71999" lon="3.26715">
        <ele>1046</ele>
        <time>2022-08-02T08:03:17Z</time>
      </trkpt>
      <trkpt lat="44.71997" lon="3.26712">
        <ele>1045.9</ele>
        <time>2022-08-02T08:03:19Z</time>
      </trkpt>
      <trkpt lat="44.71995" lon="3.26703">
        <ele>1045.9</ele>
        <time>2022-08-02T08:03:25Z</time>
      </trkpt>
      <trkpt lat="44.71994" lon="3.2669">
        <ele>1046</ele>
        <time>2022-08-02T08:03:33Z</time>
      </trkpt>
      <trkpt lat="44.71989" lon="3.26678">
        <ele>1046.2</ele>
        <time>2022-08-02T08:03:43Z</time>
      </trkpt>
      <trkpt lat="44.71988" lon="3.26659">
        <ele>1046.7</ele>
        <time>2022-08-02T08:03:54Z</time>
      </trkpt>
      <trkpt lat="44.71988" lon="3.26654">
        <ele>1046.9</ele>
        <time>2022-08-02T08:03:57Z</time>
      </trkpt>
      <trkpt lat="44.71989" lon="3.26648">
        <ele>1047.1</ele>
        <time>2022-08-02T08:04:01Z</time>
      </trkpt>
      <trkpt lat="44.71989" lon="3.2664">
        <ele>1047.3</ele>
        <time>2022-08-02T08:04:05Z</time>
      </trkpt>
      <trkpt lat="44.7199" lon="3.26636">
        <ele>1047.5</ele>
        <time>2022-08-02T08:04:08Z</time>
      </trkpt>
      <trkpt lat="44.71992" lon="3.26632">
        <ele>1047.6</ele>
        <time>2022-08-02T08:04:12Z</time>
      </trkpt>
      <trkpt lat="44.71992" lon="3.26632">
        <ele>1047.6</ele>
        <time>2022-08-02T08:04:13Z</time>
      </trkpt>
      <trkpt lat="44.71992" lon="3.26631">
        <ele>1047.7</ele>
        <time>2022-08-02T08:04:14Z</time>
      </trkpt>
      <trkpt lat="44.71993" lon="3.26628">
        <ele>1047.7</ele>
        <time>2022-08-02T08:04:16Z</time>
      </trkpt>
      <trkpt lat="44.71994" lon="3.26624">
        <ele>1047.9</ele>
        <time>2022-08-02T08:04:19Z</time>
      </trkpt>
      <trkpt lat="44.71995" lon="3.26621">
        <ele>1048</ele>
        <time>2022-08-02T08:04:21Z</time>
      </trkpt>
      <trkpt lat="44.71997" lon="3.26613">
        <ele>1048.1</ele>
        <time>2022-08-02T08:04:26Z</time>
      </trkpt>
      <trkpt lat="44.71998" lon="3.2661">
        <ele>1048.2</ele>
        <time>2022-08-02T08:04:28Z</time>
      </trkpt>
      <trkpt lat="44.72001" lon="3.26606">
        <ele>1048.3</ele>
        <time>2022-08-02T08:04:31Z</time>
      </trkpt>
      <trkpt lat="44.72003" lon="3.26602">
        <ele>1048.5</ele>
        <time>2022-08-02T08:04:33Z</time>
      </trkpt>
      <trkpt lat="44.72003" lon="3.26601">
        <ele>1048.6</ele>
        <time>2022-08-02T08:04:34Z</time>
      </trkpt>
      <trkpt lat="44.72004" lon="3.26597">
        <ele>1048.8</ele>
        <time>2022-08-02T08:04:36Z</time>
      </trkpt>
      <trkpt lat="44.72006" lon="3.26594">
        <ele>1048.9</ele>
        <time>2022-08-02T08:04:38Z</time>
      </trkpt>
      <trkpt lat="44.72007" lon="3.26592">
        <ele>1048.9</ele>
        <time>2022-08-02T08:04:39Z</time>
      </trkpt>
      <trkpt lat="44.72008" lon="3.26588">
        <ele>1049.1</ele>
        <time>2022-08-02T08:04:42Z</time>
      </trkpt>
      <trkpt lat="44.72008" lon="3.26587">
        <ele>1049.2</ele>
        <time>2022-08-02T08:04:43Z</time>
      </trkpt>
      <trkpt lat="44.72009" lon="3.26586">
        <ele>1049.2</ele>
        <time>2022-08-02T08:04:44Z</time>
      </trkpt>
      <trkpt lat="44.7201" lon="3.26583">
        <ele>1049.3</ele>
        <time>2022-08-02T08:04:46Z</time>
      </trkpt>
      <trkpt lat="44.72011" lon="3.26577">
        <ele>1049.7</ele>
        <time>2022-08-02T08:04:50Z</time>
      </trkpt>
      <trkpt lat="44.72011" lon="3.26575">
        <ele>1049.8</ele>
        <time>2022-08-02T08:04:51Z</time>
      </trkpt>
      <trkpt lat="44.72012" lon="3.26568">
        <ele>1050.2</ele>
        <time>2022-08-02T08:04:55Z</time>
      </trkpt>
      <trkpt lat="44.72013" lon="3.26568">
        <ele>1050.2</ele>
        <time>2022-08-02T08:04:57Z</time>
      </trkpt>
      <trkpt lat="44.72013" lon="3.26567">
        <ele>1050.3</ele>
        <time>2022-08-02T08:04:58Z</time>
      </trkpt>
      <trkpt lat="44.72014" lon="3.26565">
        <ele>1050.4</ele>
        <time>2022-08-02T08:05:01Z</time>
      </trkpt>
      <trkpt lat="44.72013" lon="3.26559">
        <ele>1050.8</ele>
        <time>2022-08-02T08:05:03Z</time>
      </trkpt>
      <trkpt lat="44.72013" lon="3.26558">
        <ele>1050.8</ele>
        <time>2022-08-02T08:05:04Z</time>
      </trkpt>
      <trkpt lat="44.72013" lon="3.26555">
        <ele>1051.1</ele>
        <time>2022-08-02T08:05:07Z</time>
      </trkpt>
      <trkpt lat="44.72012" lon="3.26549">
        <ele>1051.4</ele>
        <time>2022-08-02T08:05:10Z</time>
      </trkpt>
      <trkpt lat="44.72011" lon="3.26545">
        <ele>1051.6</ele>
        <time>2022-08-02T08:05:13Z</time>
      </trkpt>
      <trkpt lat="44.72011" lon="3.2654">
        <ele>1051.8</ele>
        <time>2022-08-02T08:05:17Z</time>
      </trkpt>
      <trkpt lat="44.72011" lon="3.26539">
        <ele>1051.8</ele>
        <time>2022-08-02T08:05:18Z</time>
      </trkpt>
      <trkpt lat="44.72013" lon="3.2653">
        <ele>1052</ele>
        <time>2022-08-02T08:05:25Z</time>
      </trkpt>
      <trkpt lat="44.72013" lon="3.26527">
        <ele>1052.2</ele>
        <time>2022-08-02T08:05:27Z</time>
      </trkpt>
      <trkpt lat="44.72015" lon="3.26516">
        <ele>1052.8</ele>
        <time>2022-08-02T08:05:33Z</time>
      </trkpt>
      <trkpt lat="44.72017" lon="3.26509">
        <ele>1053.1</ele>
        <time>2022-08-02T08:05:39Z</time>
      </trkpt>
      <trkpt lat="44.72017" lon="3.26507">
        <ele>1053.3</ele>
        <time>2022-08-02T08:05:40Z</time>
      </trkpt>
      <trkpt lat="44.72018" lon="3.26502">
        <ele>1053.6</ele>
        <time>2022-08-02T08:05:45Z</time>
      </trkpt>
      <trkpt lat="44.72018" lon="3.26502">
        <ele>1053.5</ele>
        <time>2022-08-02T08:05:46Z</time>
      </trkpt>
      <trkpt lat="44.72019" lon="3.26501">
        <ele>1053.5</ele>
        <time>2022-08-02T08:05:47Z</time>
      </trkpt>
      <trkpt lat="44.72021" lon="3.265">
        <ele>1053.5</ele>
        <time>2022-08-02T08:05:49Z</time>
      </trkpt>
      <trkpt lat="44.72023" lon="3.26498">
        <ele>1053.5</ele>
        <time>2022-08-02T08:05:51Z</time>
      </trkpt>
      <trkpt lat="44.72023" lon="3.26495">
        <ele>1053.6</ele>
        <time>2022-08-02T08:05:53Z</time>
      </trkpt>
      <trkpt lat="44.72024" lon="3.26488">
        <ele>1053.7</ele>
        <time>2022-08-02T08:05:57Z</time>
      </trkpt>
      <trkpt lat="44.72025" lon="3.26476">
        <ele>1054.2</ele>
        <time>2022-08-02T08:06:05Z</time>
      </trkpt>
      <trkpt lat="44.72024" lon="3.26472">
        <ele>1054.4</ele>
        <time>2022-08-02T08:06:08Z</time>
      </trkpt>
      <trkpt lat="44.72025" lon="3.26468">
        <ele>1054.6</ele>
        <time>2022-08-02T08:06:11Z</time>
      </trkpt>
      <trkpt lat="44.72024" lon="3.26466">
        <ele>1054.9</ele>
        <time>2022-08-02T08:06:13Z</time>
      </trkpt>
      <trkpt lat="44.72025" lon="3.26461">
        <ele>1055.1</ele>
        <time>2022-08-02T08:06:16Z</time>
      </trkpt>
      <trkpt lat="44.72025" lon="3.26453">
        <ele>1055.7</ele>
        <time>2022-08-02T08:06:21Z</time>
      </trkpt>
      <trkpt lat="44.72025" lon="3.26448">
        <ele>1056</ele>
        <time>2022-08-02T08:06:24Z</time>
      </trkpt>
      <trkpt lat="44.72026" lon="3.26442">
        <ele>1056.2</ele>
        <time>2022-08-02T08:06:28Z</time>
      </trkpt>
      <trkpt lat="44.72027" lon="3.26439">
        <ele>1056.1</ele>
        <time>2022-08-02T08:06:30Z</time>
      </trkpt>
      <trkpt lat="44.72028" lon="3.26438">
        <ele>1056</ele>
        <time>2022-08-02T08:06:31Z</time>
      </trkpt>
      <trkpt lat="44.72025" lon="3.26427">
        <ele>1056.4</ele>
        <time>2022-08-02T08:06:38Z</time>
      </trkpt>
      <trkpt lat="44.72025" lon="3.26423">
        <ele>1056.4</ele>
        <time>2022-08-02T08:06:40Z</time>
      </trkpt>
      <trkpt lat="44.72024" lon="3.26421">
        <ele>1056.5</ele>
        <time>2022-08-02T08:06:41Z</time>
      </trkpt>
      <trkpt lat="44.72024" lon="3.26417">
        <ele>1056.6</ele>
        <time>2022-08-02T08:06:44Z</time>
      </trkpt>
      <trkpt lat="44.72024" lon="3.26415">
        <ele>1056.7</ele>
        <time>2022-08-02T08:06:45Z</time>
      </trkpt>
      <trkpt lat="44.72022" lon="3.264">
        <ele>1057.5</ele>
        <time>2022-08-02T08:06:55Z</time>
      </trkpt>
      <trkpt lat="44.72022" lon="3.26395">
        <ele>1057.7</ele>
        <time>2022-08-02T08:06:58Z</time>
      </trkpt>
      <trkpt lat="44.72021" lon="3.2639">
        <ele>1058.1</ele>
        <time>2022-08-02T08:07:01Z</time>
      </trkpt>
      <trkpt lat="44.72022" lon="3.26388">
        <ele>1058.1</ele>
        <time>2022-08-02T08:07:03Z</time>
      </trkpt>
      <trkpt lat="44.72022" lon="3.26386">
        <ele>1058.1</ele>
        <time>2022-08-02T08:07:04Z</time>
      </trkpt>
      <trkpt lat="44.72022" lon="3.26384">
        <ele>1058.1</ele>
        <time>2022-08-02T08:07:05Z</time>
      </trkpt>
      <trkpt lat="44.7202" lon="3.2638">
        <ele>1058.5</ele>
        <time>2022-08-02T08:07:08Z</time>
      </trkpt>
      <trkpt lat="44.72018" lon="3.26375">
        <ele>1059</ele>
        <time>2022-08-02T08:07:11Z</time>
      </trkpt>
      <trkpt lat="44.72017" lon="3.26374">
        <ele>1059.2</ele>
        <time>2022-08-02T08:07:12Z</time>
      </trkpt>
      <trkpt lat="44.72017" lon="3.2637">
        <ele>1059.2</ele>
        <time>2022-08-02T08:07:14Z</time>
      </trkpt>
      <trkpt lat="44.72017" lon="3.26367">
        <ele>1059.3</ele>
        <time>2022-08-02T08:07:16Z</time>
      </trkpt>
      <trkpt lat="44.72016" lon="3.26362">
        <ele>1059.5</ele>
        <time>2022-08-02T08:07:19Z</time>
      </trkpt>
      <trkpt lat="44.72015" lon="3.26361">
        <ele>1059.8</ele>
        <time>2022-08-02T08:07:21Z</time>
      </trkpt>
      <trkpt lat="44.72014" lon="3.26359">
        <ele>1060</ele>
        <time>2022-08-02T08:07:22Z</time>
      </trkpt>
      <trkpt lat="44.72013" lon="3.26357">
        <ele>1060.2</ele>
        <time>2022-08-02T08:07:24Z</time>
      </trkpt>
      <trkpt lat="44.72012" lon="3.26351">
        <ele>1060.5</ele>
        <time>2022-08-02T08:07:28Z</time>
      </trkpt>
      <trkpt lat="44.72012" lon="3.2634">
        <ele>1060.5</ele>
        <time>2022-08-02T08:07:34Z</time>
      </trkpt>
      <trkpt lat="44.7201" lon="3.26331">
        <ele>1061</ele>
        <time>2022-08-02T08:07:41Z</time>
      </trkpt>
      <trkpt lat="44.72009" lon="3.26326">
        <ele>1061.3</ele>
        <time>2022-08-02T08:07:44Z</time>
      </trkpt>
      <trkpt lat="44.72006" lon="3.26313">
        <ele>1062</ele>
        <time>2022-08-02T08:07:53Z</time>
      </trkpt>
      <trkpt lat="44.72006" lon="3.26309">
        <ele>1062.1</ele>
        <time>2022-08-02T08:07:57Z</time>
      </trkpt>
      <trkpt lat="44.72006" lon="3.26309">
        <ele>1062.1</ele>
        <time>2022-08-02T08:07:59Z</time>
      </trkpt>
      <trkpt lat="44.72006" lon="3.26309">
        <ele>1062</ele>
        <time>2022-08-02T08:08:01Z</time>
      </trkpt>
      <trkpt lat="44.72007" lon="3.26307">
        <ele>1062</ele>
        <time>2022-08-02T08:08:05Z</time>
      </trkpt>
      <trkpt lat="44.72007" lon="3.26305">
        <ele>1062</ele>
        <time>2022-08-02T08:08:06Z</time>
      </trkpt>
      <trkpt lat="44.72007" lon="3.26303">
        <ele>1062</ele>
        <time>2022-08-02T08:08:08Z</time>
      </trkpt>
      <trkpt lat="44.72006" lon="3.263">
        <ele>1062.2</ele>
        <time>2022-08-02T08:08:10Z</time>
      </trkpt>
      <trkpt lat="44.72005" lon="3.26298">
        <ele>1062.4</ele>
        <time>2022-08-02T08:08:11Z</time>
      </trkpt>
      <trkpt lat="44.72003" lon="3.26292">
        <ele>1062.7</ele>
        <time>2022-08-02T08:08:15Z</time>
      </trkpt>
      <trkpt lat="44.72002" lon="3.26287">
        <ele>1062.8</ele>
        <time>2022-08-02T08:08:18Z</time>
      </trkpt>
      <trkpt lat="44.71999" lon="3.26277">
        <ele>1063</ele>
        <time>2022-08-02T08:08:25Z</time>
      </trkpt>
      <trkpt lat="44.71995" lon="3.2627">
        <ele>1062.9</ele>
        <time>2022-08-02T08:08:30Z</time>
      </trkpt>
      <trkpt lat="44.71994" lon="3.26266">
        <ele>1062.9</ele>
        <time>2022-08-02T08:08:33Z</time>
      </trkpt>
      <trkpt lat="44.7199" lon="3.26251">
        <ele>1062.8</ele>
        <time>2022-08-02T08:08:42Z</time>
      </trkpt>
      <trkpt lat="44.71987" lon="3.26235">
        <ele>1063.2</ele>
        <time>2022-08-02T08:08:52Z</time>
      </trkpt>
      <trkpt lat="44.71985" lon="3.26225">
        <ele>1063.5</ele>
        <time>2022-08-02T08:09:00Z</time>
      </trkpt>
      <trkpt lat="44.71985" lon="3.26223">
        <ele>1063.5</ele>
        <time>2022-08-02T08:09:02Z</time>
      </trkpt>
      <trkpt lat="44.71985" lon="3.26214">
        <ele>1063.7</ele>
        <time>2022-08-02T08:09:07Z</time>
      </trkpt>
      <trkpt lat="44.71984" lon="3.26206">
        <ele>1063.8</ele>
        <time>2022-08-02T08:09:12Z</time>
      </trkpt>
      <trkpt lat="44.71984" lon="3.26203">
        <ele>1063.9</ele>
        <time>2022-08-02T08:09:14Z</time>
      </trkpt>
      <trkpt lat="44.71983" lon="3.26192">
        <ele>1064.1</ele>
        <time>2022-08-02T08:09:21Z</time>
      </trkpt>
      <trkpt lat="44.71985" lon="3.26176">
        <ele>1064.4</ele>
        <time>2022-08-02T08:09:30Z</time>
      </trkpt>
      <trkpt lat="44.71985" lon="3.26165">
        <ele>1064.6</ele>
        <time>2022-08-02T08:09:37Z</time>
      </trkpt>
      <trkpt lat="44.71985" lon="3.26152">
        <ele>1064.8</ele>
        <time>2022-08-02T08:09:45Z</time>
      </trkpt>
      <trkpt lat="44.71987" lon="3.26133">
        <ele>1065.1</ele>
        <time>2022-08-02T08:09:57Z</time>
      </trkpt>
      <trkpt lat="44.71989" lon="3.26117">
        <ele>1065.5</ele>
        <time>2022-08-02T08:10:06Z</time>
      </trkpt>
      <trkpt lat="44.7199" lon="3.26105">
        <ele>1065.7</ele>
        <time>2022-08-02T08:10:13Z</time>
      </trkpt>
      <trkpt lat="44.71994" lon="3.26092">
        <ele>1065.9</ele>
        <time>2022-08-02T08:10:21Z</time>
      </trkpt>
      <trkpt lat="44.71994" lon="3.26091">
        <ele>1065.9</ele>
        <time>2022-08-02T08:10:22Z</time>
      </trkpt>
      <trkpt lat="44.71998" lon="3.26078">
        <ele>1066.2</ele>
        <time>2022-08-02T08:10:30Z</time>
      </trkpt>
      <trkpt lat="44.72002" lon="3.26063">
        <ele>1066.8</ele>
        <time>2022-08-02T08:10:40Z</time>
      </trkpt>
      <trkpt lat="44.72006" lon="3.26044">
        <ele>1067.1</ele>
        <time>2022-08-02T08:10:52Z</time>
      </trkpt>
      <trkpt lat="44.72007" lon="3.2604">
        <ele>1067.1</ele>
        <time>2022-08-02T08:10:55Z</time>
      </trkpt>
      <trkpt lat="44.72009" lon="3.26025">
        <ele>1067.3</ele>
        <time>2022-08-02T08:11:05Z</time>
      </trkpt>
      <trkpt lat="44.72012" lon="3.26009">
        <ele>1067.4</ele>
        <time>2022-08-02T08:11:15Z</time>
      </trkpt>
      <trkpt lat="44.72014" lon="3.26001">
        <ele>1067.5</ele>
        <time>2022-08-02T08:11:23Z</time>
      </trkpt>
      <trkpt lat="44.72013" lon="3.26001">
        <ele>1067.5</ele>
        <time>2022-08-02T08:11:24Z</time>
      </trkpt>
      <trkpt lat="44.72013" lon="3.26001">
        <ele>1067.5</ele>
        <time>2022-08-02T08:11:25Z</time>
      </trkpt>
      <trkpt lat="44.72013" lon="3.26001">
        <ele>1067.5</ele>
        <time>2022-08-02T08:11:44Z</time>
      </trkpt>
      <trkpt lat="44.72014" lon="3.25994">
        <ele>1067.6</ele>
        <time>2022-08-02T08:12:03Z</time>
      </trkpt>
      <trkpt lat="44.72019" lon="3.25976">
        <ele>1068.3</ele>
        <time>2022-08-02T08:12:11Z</time>
      </trkpt>
      <trkpt lat="44.72024" lon="3.25959">
        <ele>1068.7</ele>
        <time>2022-08-02T08:12:20Z</time>
      </trkpt>
      <trkpt lat="44.72029" lon="3.25938">
        <ele>1069.1</ele>
        <time>2022-08-02T08:12:31Z</time>
      </trkpt>
      <trkpt lat="44.72032" lon="3.25926">
        <ele>1069.2</ele>
        <time>2022-08-02T08:12:37Z</time>
      </trkpt>
      <trkpt lat="44.72033" lon="3.2592">
        <ele>1069.3</ele>
        <time>2022-08-02T08:12:40Z</time>
      </trkpt>
      <trkpt lat="44.72037" lon="3.25902">
        <ele>1069.6</ele>
        <time>2022-08-02T08:12:50Z</time>
      </trkpt>
      <trkpt lat="44.72041" lon="3.25887">
        <ele>1070</ele>
        <time>2022-08-02T08:12:59Z</time>
      </trkpt>
      <trkpt lat="44.72042" lon="3.25885">
        <ele>1070.1</ele>
        <time>2022-08-02T08:13:00Z</time>
      </trkpt>
      <trkpt lat="44.72044" lon="3.25874">
        <ele>1070.5</ele>
        <time>2022-08-02T08:13:08Z</time>
      </trkpt>
      <trkpt lat="44.72045" lon="3.25873">
        <ele>1070.6</ele>
        <time>2022-08-02T08:13:11Z</time>
      </trkpt>
      <trkpt lat="44.72045" lon="3.25874">
        <ele>1070.6</ele>
        <time>2022-08-02T08:13:13Z</time>
      </trkpt>
      <trkpt lat="44.72045" lon="3.25873">
        <ele>1070.5</ele>
        <time>2022-08-02T08:13:33Z</time>
      </trkpt>
      <trkpt lat="44.72042" lon="3.25874">
        <ele>1070.3</ele>
        <time>2022-08-02T08:14:19Z</time>
      </trkpt>
      <trkpt lat="44.72044" lon="3.25865">
        <ele>1070.7</ele>
        <time>2022-08-02T08:14:28Z</time>
      </trkpt>
      <trkpt lat="44.72046" lon="3.25845">
        <ele>1071.2</ele>
        <time>2022-08-02T08:14:37Z</time>
      </trkpt>
      <trkpt lat="44.72048" lon="3.25829">
        <ele>1071.5</ele>
        <time>2022-08-02T08:14:46Z</time>
      </trkpt>
      <trkpt lat="44.7205" lon="3.25818">
        <ele>1071.6</ele>
        <time>2022-08-02T08:14:55Z</time>
      </trkpt>
      <trkpt lat="44.72051" lon="3.25807">
        <ele>1071.6</ele>
        <time>2022-08-02T08:15:03Z</time>
      </trkpt>
      <trkpt lat="44.72052" lon="3.25789">
        <ele>1072.3</ele>
        <time>2022-08-02T08:15:14Z</time>
      </trkpt>
      <trkpt lat="44.72054" lon="3.25771">
        <ele>1072.9</ele>
        <time>2022-08-02T08:15:25Z</time>
      </trkpt>
      <trkpt lat="44.72056" lon="3.25756">
        <ele>1073</ele>
        <time>2022-08-02T08:15:36Z</time>
      </trkpt>
      <trkpt lat="44.72056" lon="3.25755">
        <ele>1073</ele>
        <time>2022-08-02T08:15:37Z</time>
      </trkpt>
      <trkpt lat="44.72059" lon="3.25741">
        <ele>1073.3</ele>
        <time>2022-08-02T08:15:46Z</time>
      </trkpt>
      <trkpt lat="44.7206" lon="3.25738">
        <ele>1073.3</ele>
        <time>2022-08-02T08:15:48Z</time>
      </trkpt>
      <trkpt lat="44.72062" lon="3.2573">
        <ele>1073.5</ele>
        <time>2022-08-02T08:15:53Z</time>
      </trkpt>
      <trkpt lat="44.72064" lon="3.25721">
        <ele>1073.7</ele>
        <time>2022-08-02T08:16:00Z</time>
      </trkpt>
      <trkpt lat="44.72069" lon="3.25703">
        <ele>1074.3</ele>
        <time>2022-08-02T08:16:12Z</time>
      </trkpt>
      <trkpt lat="44.72072" lon="3.25694">
        <ele>1074.6</ele>
        <time>2022-08-02T08:16:18Z</time>
      </trkpt>
      <trkpt lat="44.72075" lon="3.25688">
        <ele>1074.9</ele>
        <time>2022-08-02T08:16:23Z</time>
      </trkpt>
      <trkpt lat="44.72079" lon="3.25676">
        <ele>1075.5</ele>
        <time>2022-08-02T08:16:32Z</time>
      </trkpt>
      <trkpt lat="44.72085" lon="3.25664">
        <ele>1076.1</ele>
        <time>2022-08-02T08:16:41Z</time>
      </trkpt>
      <trkpt lat="44.72087" lon="3.25658">
        <ele>1076.2</ele>
        <time>2022-08-02T08:16:46Z</time>
      </trkpt>
      <trkpt lat="44.72088" lon="3.25657">
        <ele>1076.2</ele>
        <time>2022-08-02T08:16:47Z</time>
      </trkpt>
      <trkpt lat="44.72088" lon="3.25655">
        <ele>1076.3</ele>
        <time>2022-08-02T08:16:49Z</time>
      </trkpt>
      <trkpt lat="44.72088" lon="3.25655">
        <ele>1076.3</ele>
        <time>2022-08-02T08:16:51Z</time>
      </trkpt>
      <trkpt lat="44.72088" lon="3.25655">
        <ele>1076.2</ele>
        <time>2022-08-02T08:16:53Z</time>
      </trkpt>
      <trkpt lat="44.72087" lon="3.25654">
        <ele>1076.2</ele>
        <time>2022-08-02T08:16:54Z</time>
      </trkpt>
      <trkpt lat="44.72087" lon="3.25654">
        <ele>1076.2</ele>
        <time>2022-08-02T08:17:03Z</time>
      </trkpt>
      <trkpt lat="44.72091" lon="3.25646">
        <ele>1076.5</ele>
        <time>2022-08-02T08:17:25Z</time>
      </trkpt>
      <trkpt lat="44.72096" lon="3.25639">
        <ele>1076.9</ele>
        <time>2022-08-02T08:17:30Z</time>
      </trkpt>
      <trkpt lat="44.72099" lon="3.25632">
        <ele>1077.2</ele>
        <time>2022-08-02T08:17:35Z</time>
      </trkpt>
      <trkpt lat="44.72104" lon="3.25621">
        <ele>1077.6</ele>
        <time>2022-08-02T08:17:44Z</time>
      </trkpt>
      <trkpt lat="44.72107" lon="3.25615">
        <ele>1077.8</ele>
        <time>2022-08-02T08:17:50Z</time>
      </trkpt>
      <trkpt lat="44.72108" lon="3.25615">
        <ele>1077.9</ele>
        <time>2022-08-02T08:17:52Z</time>
      </trkpt>
      <trkpt lat="44.72109" lon="3.25611">
        <ele>1077.9</ele>
        <time>2022-08-02T08:17:55Z</time>
      </trkpt>
      <trkpt lat="44.72111" lon="3.25607">
        <ele>1078</ele>
        <time>2022-08-02T08:17:58Z</time>
      </trkpt>
      <trkpt lat="44.72113" lon="3.25602">
        <ele>1078.1</ele>
        <time>2022-08-02T08:18:02Z</time>
      </trkpt>
      <trkpt lat="44.72116" lon="3.25596">
        <ele>1078.4</ele>
        <time>2022-08-02T08:18:07Z</time>
      </trkpt>
      <trkpt lat="44.72124" lon="3.25582">
        <ele>1078.9</ele>
        <time>2022-08-02T08:18:18Z</time>
      </trkpt>
      <trkpt lat="44.72126" lon="3.25577">
        <ele>1079</ele>
        <time>2022-08-02T08:18:21Z</time>
      </trkpt>
      <trkpt lat="44.7213" lon="3.25569">
        <ele>1079</ele>
        <time>2022-08-02T08:18:27Z</time>
      </trkpt>
      <trkpt lat="44.72135" lon="3.25559">
        <ele>1079</ele>
        <time>2022-08-02T08:18:34Z</time>
      </trkpt>
      <trkpt lat="44.72143" lon="3.2554">
        <ele>1079.5</ele>
        <time>2022-08-02T08:18:47Z</time>
      </trkpt>
      <trkpt lat="44.72149" lon="3.25525">
        <ele>1080</ele>
        <time>2022-08-02T08:18:58Z</time>
      </trkpt>
      <trkpt lat="44.72149" lon="3.25524">
        <ele>1080.1</ele>
        <time>2022-08-02T08:19:00Z</time>
      </trkpt>
      <trkpt lat="44.7215" lon="3.25521">
        <ele>1080.1</ele>
        <time>2022-08-02T08:19:03Z</time>
      </trkpt>
      <trkpt lat="44.72153" lon="3.2551">
        <ele>1080.2</ele>
        <time>2022-08-02T08:19:10Z</time>
      </trkpt>
      <trkpt lat="44.72157" lon="3.25497">
        <ele>1080.2</ele>
        <time>2022-08-02T08:19:19Z</time>
      </trkpt>
      <trkpt lat="44.72162" lon="3.25481">
        <ele>1080</ele>
        <time>2022-08-02T08:19:29Z</time>
      </trkpt>
      <trkpt lat="44.72169" lon="3.2546">
        <ele>1079.7</ele>
        <time>2022-08-02T08:19:43Z</time>
      </trkpt>
      <trkpt lat="44.72173" lon="3.25441">
        <ele>1079.6</ele>
        <time>2022-08-02T08:19:54Z</time>
      </trkpt>
      <trkpt lat="44.72176" lon="3.25433">
        <ele>1079.7</ele>
        <time>2022-08-02T08:19:59Z</time>
      </trkpt>
      <trkpt lat="44.72178" lon="3.25428">
        <ele>1079.8</ele>
        <time>2022-08-02T08:20:02Z</time>
      </trkpt>
      <trkpt lat="44.72178" lon="3.25425">
        <ele>1079.8</ele>
        <time>2022-08-02T08:20:04Z</time>
      </trkpt>
      <trkpt lat="44.7218" lon="3.2541">
        <ele>1080</ele>
        <time>2022-08-02T08:20:13Z</time>
      </trkpt>
      <trkpt lat="44.72183" lon="3.25396">
        <ele>1080.4</ele>
        <time>2022-08-02T08:20:23Z</time>
      </trkpt>
      <trkpt lat="44.72186" lon="3.25385">
        <ele>1080.7</ele>
        <time>2022-08-02T08:20:30Z</time>
      </trkpt>
      <trkpt lat="44.72186" lon="3.25383">
        <ele>1080.7</ele>
        <time>2022-08-02T08:20:31Z</time>
      </trkpt>
      <trkpt lat="44.72187" lon="3.25379">
        <ele>1080.8</ele>
        <time>2022-08-02T08:20:34Z</time>
      </trkpt>
      <trkpt lat="44.72187" lon="3.25376">
        <ele>1080.7</ele>
        <time>2022-08-02T08:20:36Z</time>
      </trkpt>
      <trkpt lat="44.7219" lon="3.25366">
        <ele>1080.8</ele>
        <time>2022-08-02T08:20:43Z</time>
      </trkpt>
      <trkpt lat="44.72193" lon="3.25356">
        <ele>1080.9</ele>
        <time>2022-08-02T08:20:50Z</time>
      </trkpt>
      <trkpt lat="44.72193" lon="3.25355">
        <ele>1080.9</ele>
        <time>2022-08-02T08:20:51Z</time>
      </trkpt>
      <trkpt lat="44.72193" lon="3.25347">
        <ele>1080.9</ele>
        <time>2022-08-02T08:20:57Z</time>
      </trkpt>
      <trkpt lat="44.72192" lon="3.25348">
        <ele>1080.9</ele>
        <time>2022-08-02T08:20:58Z</time>
      </trkpt>
      <trkpt lat="44.72192" lon="3.25349">
        <ele>1080.8</ele>
        <time>2022-08-02T08:21:03Z</time>
      </trkpt>
      <trkpt lat="44.72191" lon="3.25345">
        <ele>1080.8</ele>
        <time>2022-08-02T08:21:10Z</time>
      </trkpt>
      <trkpt lat="44.72194" lon="3.25334">
        <ele>1080.9</ele>
        <time>2022-08-02T08:21:17Z</time>
      </trkpt>
      <trkpt lat="44.72195" lon="3.25328">
        <ele>1081.2</ele>
        <time>2022-08-02T08:21:23Z</time>
      </trkpt>
      <trkpt lat="44.72198" lon="3.25327">
        <ele>1081.5</ele>
        <time>2022-08-02T08:21:30Z</time>
      </trkpt>
      <trkpt lat="44.722" lon="3.25317">
        <ele>1082</ele>
        <time>2022-08-02T08:21:37Z</time>
      </trkpt>
      <trkpt lat="44.72201" lon="3.25304">
        <ele>1082.5</ele>
        <time>2022-08-02T08:21:44Z</time>
      </trkpt>
      <trkpt lat="44.722" lon="3.25302">
        <ele>1082.4</ele>
        <time>2022-08-02T08:21:45Z</time>
      </trkpt>
      <trkpt lat="44.72202" lon="3.25287">
        <ele>1082.5</ele>
        <time>2022-08-02T08:21:53Z</time>
      </trkpt>
      <trkpt lat="44.72202" lon="3.25284">
        <ele>1082.6</ele>
        <time>2022-08-02T08:21:56Z</time>
      </trkpt>
      <trkpt lat="44.72204" lon="3.25286">
        <ele>1082.7</ele>
        <time>2022-08-02T08:21:59Z</time>
      </trkpt>
      <trkpt lat="44.72204" lon="3.25277">
        <ele>1082.7</ele>
        <time>2022-08-02T08:22:04Z</time>
      </trkpt>
      <trkpt lat="44.72206" lon="3.25263">
        <ele>1083.1</ele>
        <time>2022-08-02T08:22:13Z</time>
      </trkpt>
      <trkpt lat="44.72206" lon="3.2526">
        <ele>1083.2</ele>
        <time>2022-08-02T08:22:15Z</time>
      </trkpt>
      <trkpt lat="44.72207" lon="3.25252">
        <ele>1083.4</ele>
        <time>2022-08-02T08:22:19Z</time>
      </trkpt>
      <trkpt lat="44.72208" lon="3.25246">
        <ele>1083.6</ele>
        <time>2022-08-02T08:22:22Z</time>
      </trkpt>
      <trkpt lat="44.72208" lon="3.25245">
        <ele>1083.7</ele>
        <time>2022-08-02T08:22:23Z</time>
      </trkpt>
      <trkpt lat="44.72209" lon="3.25242">
        <ele>1083.8</ele>
        <time>2022-08-02T08:22:25Z</time>
      </trkpt>
      <trkpt lat="44.7221" lon="3.25237">
        <ele>1084</ele>
        <time>2022-08-02T08:22:28Z</time>
      </trkpt>
      <trkpt lat="44.72209" lon="3.25231">
        <ele>1084.2</ele>
        <time>2022-08-02T08:22:31Z</time>
      </trkpt>
      <trkpt lat="44.72209" lon="3.25227">
        <ele>1084.3</ele>
        <time>2022-08-02T08:22:33Z</time>
      </trkpt>
      <trkpt lat="44.7221" lon="3.25217">
        <ele>1084.7</ele>
        <time>2022-08-02T08:22:39Z</time>
      </trkpt>
      <trkpt lat="44.72211" lon="3.25215">
        <ele>1084.8</ele>
        <time>2022-08-02T08:22:41Z</time>
      </trkpt>
      <trkpt lat="44.72214" lon="3.25205">
        <ele>1085.2</ele>
        <time>2022-08-02T08:22:47Z</time>
      </trkpt>
      <trkpt lat="44.72215" lon="3.25204">
        <ele>1085.2</ele>
        <time>2022-08-02T08:22:48Z</time>
      </trkpt>
      <trkpt lat="44.72216" lon="3.25199">
        <ele>1085.4</ele>
        <time>2022-08-02T08:22:51Z</time>
      </trkpt>
      <trkpt lat="44.72218" lon="3.25195">
        <ele>1085.7</ele>
        <time>2022-08-02T08:22:54Z</time>
      </trkpt>
      <trkpt lat="44.7222" lon="3.25186">
        <ele>1086.2</ele>
        <time>2022-08-02T08:23:00Z</time>
      </trkpt>
      <trkpt lat="44.72221" lon="3.25183">
        <ele>1086.3</ele>
        <time>2022-08-02T08:23:02Z</time>
      </trkpt>
      <trkpt lat="44.72222" lon="3.25182">
        <ele>1086.4</ele>
        <time>2022-08-02T08:23:03Z</time>
      </trkpt>
      <trkpt lat="44.72221" lon="3.25172">
        <ele>1086.8</ele>
        <time>2022-08-02T08:23:10Z</time>
      </trkpt>
      <trkpt lat="44.72219" lon="3.25158">
        <ele>1086.5</ele>
        <time>2022-08-02T08:23:18Z</time>
      </trkpt>
      <trkpt lat="44.72219" lon="3.25155">
        <ele>1086.4</ele>
        <time>2022-08-02T08:23:20Z</time>
      </trkpt>
      <trkpt lat="44.72216" lon="3.25141">
        <ele>1085.8</ele>
        <time>2022-08-02T08:23:29Z</time>
      </trkpt>
      <trkpt lat="44.72214" lon="3.25129">
        <ele>1085.5</ele>
        <time>2022-08-02T08:23:37Z</time>
      </trkpt>
      <trkpt lat="44.72212" lon="3.25113">
        <ele>1085</ele>
        <time>2022-08-02T08:23:47Z</time>
      </trkpt>
      <trkpt lat="44.72208" lon="3.25097">
        <ele>1085.3</ele>
        <time>2022-08-02T08:23:57Z</time>
      </trkpt>
      <trkpt lat="44.72206" lon="3.25084">
        <ele>1085.6</ele>
        <time>2022-08-02T08:24:05Z</time>
      </trkpt>
      <trkpt lat="44.72204" lon="3.25076">
        <ele>1086.1</ele>
        <time>2022-08-02T08:24:12Z</time>
      </trkpt>
      <trkpt lat="44.72204" lon="3.25076">
        <ele>1086.1</ele>
        <time>2022-08-02T08:24:13Z</time>
      </trkpt>
      <trkpt lat="44.72205" lon="3.25075">
        <ele>1086.1</ele>
        <time>2022-08-02T08:24:14Z</time>
      </trkpt>
      <trkpt lat="44.72205" lon="3.25075">
        <ele>1086.1</ele>
        <time>2022-08-02T08:24:17Z</time>
      </trkpt>
      <trkpt lat="44.72206" lon="3.25074">
        <ele>1086.2</ele>
        <time>2022-08-02T08:24:21Z</time>
      </trkpt>
      <trkpt lat="44.72205" lon="3.25073">
        <ele>1086.2</ele>
        <time>2022-08-02T08:24:41Z</time>
      </trkpt>
      <trkpt lat="44.72209" lon="3.25064">
        <ele>1086.5</ele>
        <time>2022-08-02T08:24:46Z</time>
      </trkpt>
      <trkpt lat="44.72215" lon="3.25046">
        <ele>1087.4</ele>
        <time>2022-08-02T08:24:56Z</time>
      </trkpt>
      <trkpt lat="44.72216" lon="3.25043">
        <ele>1087.6</ele>
        <time>2022-08-02T08:24:58Z</time>
      </trkpt>
      <trkpt lat="44.72218" lon="3.25037">
        <ele>1088.1</ele>
        <time>2022-08-02T08:25:02Z</time>
      </trkpt>
      <trkpt lat="44.72222" lon="3.25027">
        <ele>1089</ele>
        <time>2022-08-02T08:25:09Z</time>
      </trkpt>
      <trkpt lat="44.72226" lon="3.2502">
        <ele>1089.2</ele>
        <time>2022-08-02T08:25:14Z</time>
      </trkpt>
      <trkpt lat="44.72228" lon="3.25017">
        <ele>1089.3</ele>
        <time>2022-08-02T08:25:18Z</time>
      </trkpt>
      <trkpt lat="44.72228" lon="3.25017">
        <ele>1089.3</ele>
        <time>2022-08-02T08:25:19Z</time>
      </trkpt>
      <trkpt lat="44.72229" lon="3.25016">
        <ele>1089.3</ele>
        <time>2022-08-02T08:25:21Z</time>
      </trkpt>
      <trkpt lat="44.7223" lon="3.25013">
        <ele>1089.4</ele>
        <time>2022-08-02T08:25:24Z</time>
      </trkpt>
      <trkpt lat="44.72234" lon="3.25004">
        <ele>1089.8</ele>
        <time>2022-08-02T08:25:30Z</time>
      </trkpt>
      <trkpt lat="44.72236" lon="3.24999">
        <ele>1090.1</ele>
        <time>2022-08-02T08:25:34Z</time>
      </trkpt>
      <trkpt lat="44.72241" lon="3.24991">
        <ele>1090.6</ele>
        <time>2022-08-02T08:25:41Z</time>
      </trkpt>
      <trkpt lat="44.72241" lon="3.2499">
        <ele>1090.7</ele>
        <time>2022-08-02T08:25:43Z</time>
      </trkpt>
      <trkpt lat="44.72242" lon="3.24988">
        <ele>1090.9</ele>
        <time>2022-08-02T08:25:45Z</time>
      </trkpt>
      <trkpt lat="44.72244" lon="3.24985">
        <ele>1091.1</ele>
        <time>2022-08-02T08:25:47Z</time>
      </trkpt>
      <trkpt lat="44.72247" lon="3.24979">
        <ele>1091.5</ele>
        <time>2022-08-02T08:25:51Z</time>
      </trkpt>
      <trkpt lat="44.72249" lon="3.24974">
        <ele>1091.9</ele>
        <time>2022-08-02T08:25:55Z</time>
      </trkpt>
      <trkpt lat="44.7225" lon="3.24971">
        <ele>1092.1</ele>
        <time>2022-08-02T08:25:57Z</time>
      </trkpt>
      <trkpt lat="44.72252" lon="3.24966">
        <ele>1092.8</ele>
        <time>2022-08-02T08:26:01Z</time>
      </trkpt>
      <trkpt lat="44.72256" lon="3.24955">
        <ele>1093.9</ele>
        <time>2022-08-02T08:26:09Z</time>
      </trkpt>
      <trkpt lat="44.72256" lon="3.24954">
        <ele>1094.1</ele>
        <time>2022-08-02T08:26:10Z</time>
      </trkpt>
      <trkpt lat="44.72258" lon="3.24949">
        <ele>1094.5</ele>
        <time>2022-08-02T08:26:14Z</time>
      </trkpt>
      <trkpt lat="44.72259" lon="3.24947">
        <ele>1094.8</ele>
        <time>2022-08-02T08:26:16Z</time>
      </trkpt>
      <trkpt lat="44.7226" lon="3.24943">
        <ele>1095.1</ele>
        <time>2022-08-02T08:26:19Z</time>
      </trkpt>
      <trkpt lat="44.7226" lon="3.24942">
        <ele>1095.2</ele>
        <time>2022-08-02T08:26:23Z</time>
      </trkpt>
      <trkpt lat="44.7226" lon="3.24943">
        <ele>1095.1</ele>
        <time>2022-08-02T08:26:34Z</time>
      </trkpt>
      <trkpt lat="44.72263" lon="3.24935">
        <ele>1095.7</ele>
        <time>2022-08-02T08:26:42Z</time>
      </trkpt>
      <trkpt lat="44.72267" lon="3.24922">
        <ele>1096.6</ele>
        <time>2022-08-02T08:26:49Z</time>
      </trkpt>
      <trkpt lat="44.72268" lon="3.24918">
        <ele>1096.9</ele>
        <time>2022-08-02T08:26:52Z</time>
      </trkpt>
      <trkpt lat="44.72273" lon="3.2491">
        <ele>1097.7</ele>
        <time>2022-08-02T08:26:59Z</time>
      </trkpt>
      <trkpt lat="44.72273" lon="3.24908">
        <ele>1097.9</ele>
        <time>2022-08-02T08:27:00Z</time>
      </trkpt>
      <trkpt lat="44.72279" lon="3.24899">
        <ele>1099</ele>
        <time>2022-08-02T08:27:08Z</time>
      </trkpt>
      <trkpt lat="44.7228" lon="3.24898">
        <ele>1099.1</ele>
        <time>2022-08-02T08:27:09Z</time>
      </trkpt>
      <trkpt lat="44.7228" lon="3.24897">
        <ele>1099.2</ele>
        <time>2022-08-02T08:27:10Z</time>
      </trkpt>
      <trkpt lat="44.72283" lon="3.24891">
        <ele>1099.8</ele>
        <time>2022-08-02T08:27:15Z</time>
      </trkpt>
      <trkpt lat="44.72284" lon="3.24887">
        <ele>1100.1</ele>
        <time>2022-08-02T08:27:18Z</time>
      </trkpt>
      <trkpt lat="44.72286" lon="3.24881">
        <ele>1100.3</ele>
        <time>2022-08-02T08:27:22Z</time>
      </trkpt>
      <trkpt lat="44.72287" lon="3.24872">
        <ele>1100.6</ele>
        <time>2022-08-02T08:27:28Z</time>
      </trkpt>
      <trkpt lat="44.72287" lon="3.24866">
        <ele>1100.8</ele>
        <time>2022-08-02T08:27:32Z</time>
      </trkpt>
      <trkpt lat="44.7229" lon="3.24854">
        <ele>1101.2</ele>
        <time>2022-08-02T08:27:40Z</time>
      </trkpt>
      <trkpt lat="44.72291" lon="3.2485">
        <ele>1101.4</ele>
        <time>2022-08-02T08:27:43Z</time>
      </trkpt>
      <trkpt lat="44.72291" lon="3.24845">
        <ele>1101.6</ele>
        <time>2022-08-02T08:27:46Z</time>
      </trkpt>
      <trkpt lat="44.72293" lon="3.24845">
        <ele>1101.6</ele>
        <time>2022-08-02T08:27:49Z</time>
      </trkpt>
      <trkpt lat="44.72293" lon="3.24846">
        <ele>1101.6</ele>
        <time>2022-08-02T08:27:52Z</time>
      </trkpt>
      <trkpt lat="44.72293" lon="3.24839">
        <ele>1101.8</ele>
        <time>2022-08-02T08:27:57Z</time>
      </trkpt>
      <trkpt lat="44.72296" lon="3.24823">
        <ele>1102.4</ele>
        <time>2022-08-02T08:28:07Z</time>
      </trkpt>
      <trkpt lat="44.72297" lon="3.24815">
        <ele>1102.7</ele>
        <time>2022-08-02T08:28:12Z</time>
      </trkpt>
      <trkpt lat="44.72299" lon="3.24813">
        <ele>1102.8</ele>
        <time>2022-08-02T08:28:15Z</time>
      </trkpt>
      <trkpt lat="44.72299" lon="3.24813">
        <ele>1102.7</ele>
        <time>2022-08-02T08:28:16Z</time>
      </trkpt>
      <trkpt lat="44.72298" lon="3.24807">
        <ele>1102.9</ele>
        <time>2022-08-02T08:28:21Z</time>
      </trkpt>
      <trkpt lat="44.723" lon="3.24794">
        <ele>1103</ele>
        <time>2022-08-02T08:28:29Z</time>
      </trkpt>
      <trkpt lat="44.72305" lon="3.24776">
        <ele>1103</ele>
        <time>2022-08-02T08:28:40Z</time>
      </trkpt>
      <trkpt lat="44.72309" lon="3.24761">
        <ele>1103</ele>
        <time>2022-08-02T08:28:49Z</time>
      </trkpt>
      <trkpt lat="44.72312" lon="3.24748">
        <ele>1102.9</ele>
        <time>2022-08-02T08:28:57Z</time>
      </trkpt>
      <trkpt lat="44.72317" lon="3.24735">
        <ele>1102.7</ele>
        <time>2022-08-02T08:29:05Z</time>
      </trkpt>
      <trkpt lat="44.72323" lon="3.24718">
        <ele>1102.5</ele>
        <time>2022-08-02T08:29:17Z</time>
      </trkpt>
      <trkpt lat="44.72323" lon="3.24716">
        <ele>1102.4</ele>
        <time>2022-08-02T08:29:18Z</time>
      </trkpt>
      <trkpt lat="44.72328" lon="3.24703">
        <ele>1102.1</ele>
        <time>2022-08-02T08:29:28Z</time>
      </trkpt>
      <trkpt lat="44.72328" lon="3.24702">
        <ele>1102.1</ele>
        <time>2022-08-02T08:29:29Z</time>
      </trkpt>
      <trkpt lat="44.7233" lon="3.24701">
        <ele>1102.1</ele>
        <time>2022-08-02T08:29:33Z</time>
      </trkpt>
      <trkpt lat="44.7233" lon="3.247">
        <ele>1102.1</ele>
        <time>2022-08-02T08:29:34Z</time>
      </trkpt>
      <trkpt lat="44.72333" lon="3.2469">
        <ele>1101.8</ele>
        <time>2022-08-02T08:29:41Z</time>
      </trkpt>
      <trkpt lat="44.72337" lon="3.24683">
        <ele>1101.7</ele>
        <time>2022-08-02T08:29:46Z</time>
      </trkpt>
      <trkpt lat="44.72338" lon="3.24679">
        <ele>1101.5</ele>
        <time>2022-08-02T08:29:49Z</time>
      </trkpt>
      <trkpt lat="44.72339" lon="3.24678">
        <ele>1101.5</ele>
        <time>2022-08-02T08:29:50Z</time>
      </trkpt>
      <trkpt lat="44.7234" lon="3.24675">
        <ele>1101.3</ele>
        <time>2022-08-02T08:29:52Z</time>
      </trkpt>
      <trkpt lat="44.72344" lon="3.24666">
        <ele>1101</ele>
        <time>2022-08-02T08:29:58Z</time>
      </trkpt>
      <trkpt lat="44.72348" lon="3.24654">
        <ele>1100.8</ele>
        <time>2022-08-02T08:30:07Z</time>
      </trkpt>
      <trkpt lat="44.72348" lon="3.24652">
        <ele>1100.8</ele>
        <time>2022-08-02T08:30:08Z</time>
      </trkpt>
      <trkpt lat="44.72351" lon="3.24648">
        <ele>1100.7</ele>
        <time>2022-08-02T08:30:11Z</time>
      </trkpt>
      <trkpt lat="44.72353" lon="3.24644">
        <ele>1100.8</ele>
        <time>2022-08-02T08:30:14Z</time>
      </trkpt>
      <trkpt lat="44.7236" lon="3.24629">
        <ele>1101</ele>
        <time>2022-08-02T08:30:24Z</time>
      </trkpt>
      <trkpt lat="44.72366" lon="3.24617">
        <ele>1101</ele>
        <time>2022-08-02T08:30:32Z</time>
      </trkpt>
      <trkpt lat="44.7237" lon="3.24608">
        <ele>1100.9</ele>
        <time>2022-08-02T08:30:38Z</time>
      </trkpt>
      <trkpt lat="44.72374" lon="3.24597">
        <ele>1100.7</ele>
        <time>2022-08-02T08:30:45Z</time>
      </trkpt>
      <trkpt lat="44.72375" lon="3.24594">
        <ele>1100.7</ele>
        <time>2022-08-02T08:30:47Z</time>
      </trkpt>
      <trkpt lat="44.7238" lon="3.24586">
        <ele>1100.7</ele>
        <time>2022-08-02T08:30:54Z</time>
      </trkpt>
      <trkpt lat="44.72384" lon="3.24574">
        <ele>1100.5</ele>
        <time>2022-08-02T08:31:02Z</time>
      </trkpt>
      <trkpt lat="44.72384" lon="3.24567">
        <ele>1100.3</ele>
        <time>2022-08-02T08:31:06Z</time>
      </trkpt>
      <trkpt lat="44.72385" lon="3.24562">
        <ele>1100.2</ele>
        <time>2022-08-02T08:31:09Z</time>
      </trkpt>
      <trkpt lat="44.72389" lon="3.24547">
        <ele>1100</ele>
        <time>2022-08-02T08:31:18Z</time>
      </trkpt>
      <trkpt lat="44.7239" lon="3.24543">
        <ele>1100</ele>
        <time>2022-08-02T08:31:22Z</time>
      </trkpt>
      <trkpt lat="44.7239" lon="3.24542">
        <ele>1100</ele>
        <time>2022-08-02T08:31:23Z</time>
      </trkpt>
      <trkpt lat="44.72391" lon="3.24541">
        <ele>1100.1</ele>
        <time>2022-08-02T08:31:24Z</time>
      </trkpt>
      <trkpt lat="44.72393" lon="3.24529">
        <ele>1100.2</ele>
        <time>2022-08-02T08:31:31Z</time>
      </trkpt>
      <trkpt lat="44.72397" lon="3.24512">
        <ele>1100.3</ele>
        <time>2022-08-02T08:31:42Z</time>
      </trkpt>
      <trkpt lat="44.72399" lon="3.24505">
        <ele>1100.4</ele>
        <time>2022-08-02T08:31:46Z</time>
      </trkpt>
      <trkpt lat="44.724" lon="3.245">
        <ele>1100.4</ele>
        <time>2022-08-02T08:31:49Z</time>
      </trkpt>
      <trkpt lat="44.72402" lon="3.24487">
        <ele>1100.3</ele>
        <time>2022-08-02T08:31:57Z</time>
      </trkpt>
      <trkpt lat="44.72403" lon="3.2447">
        <ele>1099.9</ele>
        <time>2022-08-02T08:32:07Z</time>
      </trkpt>
      <trkpt lat="44.72404" lon="3.2446">
        <ele>1099.3</ele>
        <time>2022-08-02T08:32:13Z</time>
      </trkpt>
      <trkpt lat="44.72404" lon="3.24454">
        <ele>1099</ele>
        <time>2022-08-02T08:32:16Z</time>
      </trkpt>
      <trkpt lat="44.72404" lon="3.24448">
        <ele>1098.6</ele>
        <time>2022-08-02T08:32:20Z</time>
      </trkpt>
      <trkpt lat="44.72405" lon="3.24445">
        <ele>1098.4</ele>
        <time>2022-08-02T08:32:22Z</time>
      </trkpt>
      <trkpt lat="44.72405" lon="3.24439">
        <ele>1098.6</ele>
        <time>2022-08-02T08:32:26Z</time>
      </trkpt>
      <trkpt lat="44.72405" lon="3.24438">
        <ele>1098.7</ele>
        <time>2022-08-02T08:32:29Z</time>
      </trkpt>
      <trkpt lat="44.72404" lon="3.24434">
        <ele>1098.8</ele>
        <time>2022-08-02T08:32:35Z</time>
      </trkpt>
      <trkpt lat="44.72403" lon="3.24432">
        <ele>1098.9</ele>
        <time>2022-08-02T08:32:44Z</time>
      </trkpt>
      <trkpt lat="44.72404" lon="3.24434">
        <ele>1098.9</ele>
        <time>2022-08-02T08:33:11Z</time>
      </trkpt>
      <trkpt lat="44.72406" lon="3.2443">
        <ele>1098.9</ele>
        <time>2022-08-02T08:33:25Z</time>
      </trkpt>
      <trkpt lat="44.72407" lon="3.24426">
        <ele>1099</ele>
        <time>2022-08-02T08:33:38Z</time>
      </trkpt>
      <trkpt lat="44.7241" lon="3.24416">
        <ele>1099.3</ele>
        <time>2022-08-02T08:33:49Z</time>
      </trkpt>
      <trkpt lat="44.72415" lon="3.24399">
        <ele>1100.2</ele>
        <time>2022-08-02T08:33:58Z</time>
      </trkpt>
      <trkpt lat="44.72416" lon="3.24398">
        <ele>1100.4</ele>
        <time>2022-08-02T08:34:02Z</time>
      </trkpt>
      <trkpt lat="44.72416" lon="3.24397">
        <ele>1100.4</ele>
        <time>2022-08-02T08:34:03Z</time>
      </trkpt>
      <trkpt lat="44.72417" lon="3.24394">
        <ele>1100.6</ele>
        <time>2022-08-02T08:34:05Z</time>
      </trkpt>
      <trkpt lat="44.72421" lon="3.24387">
        <ele>1100.9</ele>
        <time>2022-08-02T08:34:10Z</time>
      </trkpt>
      <trkpt lat="44.72424" lon="3.24382">
        <ele>1101.1</ele>
        <time>2022-08-02T08:34:14Z</time>
      </trkpt>
      <trkpt lat="44.72426" lon="3.24376">
        <ele>1101.4</ele>
        <time>2022-08-02T08:34:18Z</time>
      </trkpt>
      <trkpt lat="44.7243" lon="3.24372">
        <ele>1101.7</ele>
        <time>2022-08-02T08:34:22Z</time>
      </trkpt>
      <trkpt lat="44.72432" lon="3.24366">
        <ele>1102.2</ele>
        <time>2022-08-02T08:34:28Z</time>
      </trkpt>
      <trkpt lat="44.72433" lon="3.24365">
        <ele>1102.2</ele>
        <time>2022-08-02T08:34:29Z</time>
      </trkpt>
      <trkpt lat="44.72434" lon="3.24362">
        <ele>1102.5</ele>
        <time>2022-08-02T08:34:32Z</time>
      </trkpt>
      <trkpt lat="44.7244" lon="3.24353">
        <ele>1103.5</ele>
        <time>2022-08-02T08:34:39Z</time>
      </trkpt>
      <trkpt lat="44.72441" lon="3.2435">
        <ele>1103.7</ele>
        <time>2022-08-02T08:34:41Z</time>
      </trkpt>
      <trkpt lat="44.72441" lon="3.24347">
        <ele>1104</ele>
        <time>2022-08-02T08:34:43Z</time>
      </trkpt>
      <trkpt lat="44.72441" lon="3.24345">
        <ele>1104.1</ele>
        <time>2022-08-02T08:34:44Z</time>
      </trkpt>
      <trkpt lat="44.72444" lon="3.24342">
        <ele>1104.4</ele>
        <time>2022-08-02T08:34:47Z</time>
      </trkpt>
      <trkpt lat="44.72447" lon="3.24334">
        <ele>1105</ele>
        <time>2022-08-02T08:34:53Z</time>
      </trkpt>
      <trkpt lat="44.7245" lon="3.24327">
        <ele>1105.7</ele>
        <time>2022-08-02T08:34:58Z</time>
      </trkpt>
      <trkpt lat="44.72451" lon="3.24325">
        <ele>1105.8</ele>
        <time>2022-08-02T08:34:59Z</time>
      </trkpt>
      <trkpt lat="44.72452" lon="3.24321">
        <ele>1106.1</ele>
        <time>2022-08-02T08:35:02Z</time>
      </trkpt>
      <trkpt lat="44.72453" lon="3.24317">
        <ele>1106.5</ele>
        <time>2022-08-02T08:35:05Z</time>
      </trkpt>
      <trkpt lat="44.72453" lon="3.24313">
        <ele>1106.8</ele>
        <time>2022-08-02T08:35:07Z</time>
      </trkpt>
      <trkpt lat="44.72455" lon="3.24306">
        <ele>1107.3</ele>
        <time>2022-08-02T08:35:12Z</time>
      </trkpt>
      <trkpt lat="44.72458" lon="3.24299">
        <ele>1107.8</ele>
        <time>2022-08-02T08:35:17Z</time>
      </trkpt>
      <trkpt lat="44.7246" lon="3.24294">
        <ele>1108.2</ele>
        <time>2022-08-02T08:35:22Z</time>
      </trkpt>
      <trkpt lat="44.72461" lon="3.24295">
        <ele>1108.1</ele>
        <time>2022-08-02T08:35:23Z</time>
      </trkpt>
      <trkpt lat="44.7246" lon="3.24296">
        <ele>1108</ele>
        <time>2022-08-02T08:35:27Z</time>
      </trkpt>
      <trkpt lat="44.72458" lon="3.24298">
        <ele>1107.9</ele>
        <time>2022-08-02T08:35:30Z</time>
      </trkpt>
      <trkpt lat="44.7246" lon="3.2429">
        <ele>1108.4</ele>
        <time>2022-08-02T08:35:37Z</time>
      </trkpt>
      <trkpt lat="44.72462" lon="3.24279">
        <ele>1108.9</ele>
        <time>2022-08-02T08:35:43Z</time>
      </trkpt>
      <trkpt lat="44.72465" lon="3.24274">
        <ele>1109.2</ele>
        <time>2022-08-02T08:35:47Z</time>
      </trkpt>
      <trkpt lat="44.72466" lon="3.24272">
        <ele>1109.3</ele>
        <time>2022-08-02T08:35:48Z</time>
      </trkpt>
      <trkpt lat="44.72468" lon="3.2426">
        <ele>1110.1</ele>
        <time>2022-08-02T08:35:56Z</time>
      </trkpt>
      <trkpt lat="44.72469" lon="3.24259">
        <ele>1110.2</ele>
        <time>2022-08-02T08:35:57Z</time>
      </trkpt>
      <trkpt lat="44.7247" lon="3.24258">
        <ele>1110.3</ele>
        <time>2022-08-02T08:35:59Z</time>
      </trkpt>
      <trkpt lat="44.72471" lon="3.24254">
        <ele>1110.6</ele>
        <time>2022-08-02T08:36:02Z</time>
      </trkpt>
      <trkpt lat="44.72473" lon="3.24247">
        <ele>1111</ele>
        <time>2022-08-02T08:36:07Z</time>
      </trkpt>
      <trkpt lat="44.72473" lon="3.24244">
        <ele>1111</ele>
        <time>2022-08-02T08:36:09Z</time>
      </trkpt>
      <trkpt lat="44.72477" lon="3.2423">
        <ele>1110.8</ele>
        <time>2022-08-02T08:36:17Z</time>
      </trkpt>
      <trkpt lat="44.72481" lon="3.24219">
        <ele>1110.6</ele>
        <time>2022-08-02T08:36:25Z</time>
      </trkpt>
      <trkpt lat="44.72483" lon="3.24217">
        <ele>1110.6</ele>
        <time>2022-08-02T08:36:27Z</time>
      </trkpt>
      <trkpt lat="44.72485" lon="3.24211">
        <ele>1110.5</ele>
        <time>2022-08-02T08:36:31Z</time>
      </trkpt>
      <trkpt lat="44.72489" lon="3.24197">
        <ele>1110.6</ele>
        <time>2022-08-02T08:36:40Z</time>
      </trkpt>
      <trkpt lat="44.72493" lon="3.24188">
        <ele>1110.7</ele>
        <time>2022-08-02T08:36:46Z</time>
      </trkpt>
      <trkpt lat="44.72494" lon="3.24186">
        <ele>1110.8</ele>
        <time>2022-08-02T08:36:48Z</time>
      </trkpt>
      <trkpt lat="44.72495" lon="3.24178">
        <ele>1110.8</ele>
        <time>2022-08-02T08:36:53Z</time>
      </trkpt>
      <trkpt lat="44.72496" lon="3.24175">
        <ele>1110.9</ele>
        <time>2022-08-02T08:36:55Z</time>
      </trkpt>
      <trkpt lat="44.72503" lon="3.24165">
        <ele>1111</ele>
        <time>2022-08-02T08:37:03Z</time>
      </trkpt>
      <trkpt lat="44.72503" lon="3.24165">
        <ele>1111.1</ele>
        <time>2022-08-02T08:37:04Z</time>
      </trkpt>
      <trkpt lat="44.72504" lon="3.24163">
        <ele>1111.1</ele>
        <time>2022-08-02T08:37:05Z</time>
      </trkpt>
      <trkpt lat="44.72509" lon="3.24155">
        <ele>1111.4</ele>
        <time>2022-08-02T08:37:13Z</time>
      </trkpt>
      <trkpt lat="44.7251" lon="3.24152">
        <ele>1111.5</ele>
        <time>2022-08-02T08:37:15Z</time>
      </trkpt>
      <trkpt lat="44.72511" lon="3.2415">
        <ele>1111.6</ele>
        <time>2022-08-02T08:37:18Z</time>
      </trkpt>
      <trkpt lat="44.72511" lon="3.24146">
        <ele>1111.8</ele>
        <time>2022-08-02T08:37:21Z</time>
      </trkpt>
      <trkpt lat="44.72513" lon="3.24141">
        <ele>1111.9</ele>
        <time>2022-08-02T08:37:24Z</time>
      </trkpt>
      <trkpt lat="44.72517" lon="3.24136">
        <ele>1112.1</ele>
        <time>2022-08-02T08:37:28Z</time>
      </trkpt>
      <trkpt lat="44.72523" lon="3.24121">
        <ele>1112.5</ele>
        <time>2022-08-02T08:37:38Z</time>
      </trkpt>
      <trkpt lat="44.72526" lon="3.24108">
        <ele>1112.9</ele>
        <time>2022-08-02T08:37:46Z</time>
      </trkpt>
      <trkpt lat="44.72529" lon="3.24102">
        <ele>1113</ele>
        <time>2022-08-02T08:37:51Z</time>
      </trkpt>
      <trkpt lat="44.72532" lon="3.24097">
        <ele>1113.1</ele>
        <time>2022-08-02T08:37:55Z</time>
      </trkpt>
      <trkpt lat="44.72536" lon="3.24085">
        <ele>1113.3</ele>
        <time>2022-08-02T08:38:03Z</time>
      </trkpt>
      <trkpt lat="44.7254" lon="3.24074">
        <ele>1113.8</ele>
        <time>2022-08-02T08:38:10Z</time>
      </trkpt>
      <trkpt lat="44.72542" lon="3.24067">
        <ele>1114.1</ele>
        <time>2022-08-02T08:38:15Z</time>
      </trkpt>
      <trkpt lat="44.72545" lon="3.24058">
        <ele>1114.5</ele>
        <time>2022-08-02T08:38:21Z</time>
      </trkpt>
      <trkpt lat="44.72547" lon="3.2404">
        <ele>1115.6</ele>
        <time>2022-08-02T08:38:32Z</time>
      </trkpt>
      <trkpt lat="44.72548" lon="3.24033">
        <ele>1116.1</ele>
        <time>2022-08-02T08:38:36Z</time>
      </trkpt>
      <trkpt lat="44.72548" lon="3.24031">
        <ele>1116.2</ele>
        <time>2022-08-02T08:38:37Z</time>
      </trkpt>
      <trkpt lat="44.72548" lon="3.24026">
        <ele>1116.5</ele>
        <time>2022-08-02T08:38:40Z</time>
      </trkpt>
      <trkpt lat="44.7255" lon="3.24015">
        <ele>1117</ele>
        <time>2022-08-02T08:38:47Z</time>
      </trkpt>
      <trkpt lat="44.7255" lon="3.24012">
        <ele>1117.1</ele>
        <time>2022-08-02T08:38:49Z</time>
      </trkpt>
      <trkpt lat="44.72553" lon="3.23995">
        <ele>1118</ele>
        <time>2022-08-02T08:39:00Z</time>
      </trkpt>
      <trkpt lat="44.72553" lon="3.23993">
        <ele>1118</ele>
        <time>2022-08-02T08:39:01Z</time>
      </trkpt>
      <trkpt lat="44.72554" lon="3.23977">
        <ele>1118.7</ele>
        <time>2022-08-02T08:39:11Z</time>
      </trkpt>
      <trkpt lat="44.72554" lon="3.23976">
        <ele>1118.8</ele>
        <time>2022-08-02T08:39:12Z</time>
      </trkpt>
      <trkpt lat="44.72556" lon="3.23965">
        <ele>1119.3</ele>
        <time>2022-08-02T08:39:19Z</time>
      </trkpt>
      <trkpt lat="44.72557" lon="3.23963">
        <ele>1119.3</ele>
        <time>2022-08-02T08:39:20Z</time>
      </trkpt>
      <trkpt lat="44.72558" lon="3.23957">
        <ele>1119.5</ele>
        <time>2022-08-02T08:39:24Z</time>
      </trkpt>
      <trkpt lat="44.7256" lon="3.23951">
        <ele>1119.8</ele>
        <time>2022-08-02T08:39:29Z</time>
      </trkpt>
      <trkpt lat="44.72561" lon="3.23946">
        <ele>1119.9</ele>
        <time>2022-08-02T08:39:36Z</time>
      </trkpt>
      <trkpt lat="44.72559" lon="3.23946">
        <ele>1119.9</ele>
        <time>2022-08-02T08:39:40Z</time>
      </trkpt>
      <trkpt lat="44.7256" lon="3.23945">
        <ele>1120</ele>
        <time>2022-08-02T08:39:42Z</time>
      </trkpt>
      <trkpt lat="44.72563" lon="3.23939">
        <ele>1120.2</ele>
        <time>2022-08-02T08:39:49Z</time>
      </trkpt>
      <trkpt lat="44.72566" lon="3.2393">
        <ele>1120.5</ele>
        <time>2022-08-02T08:39:55Z</time>
      </trkpt>
      <trkpt lat="44.72571" lon="3.23921">
        <ele>1120.8</ele>
        <time>2022-08-02T08:40:02Z</time>
      </trkpt>
      <trkpt lat="44.72572" lon="3.2392">
        <ele>1120.9</ele>
        <time>2022-08-02T08:40:03Z</time>
      </trkpt>
      <trkpt lat="44.72575" lon="3.23908">
        <ele>1121.2</ele>
        <time>2022-08-02T08:40:11Z</time>
      </trkpt>
      <trkpt lat="44.72578" lon="3.23895">
        <ele>1121.6</ele>
        <time>2022-08-02T08:40:19Z</time>
      </trkpt>
      <trkpt lat="44.72581" lon="3.23888">
        <ele>1121.9</ele>
        <time>2022-08-02T08:40:24Z</time>
      </trkpt>
      <trkpt lat="44.72582" lon="3.23886">
        <ele>1122.1</ele>
        <time>2022-08-02T08:40:26Z</time>
      </trkpt>
      <trkpt lat="44.72583" lon="3.23884">
        <ele>1122.2</ele>
        <time>2022-08-02T08:40:27Z</time>
      </trkpt>
      <trkpt lat="44.72586" lon="3.23874">
        <ele>1122.4</ele>
        <time>2022-08-02T08:40:36Z</time>
      </trkpt>
      <trkpt lat="44.72589" lon="3.23868">
        <ele>1122.5</ele>
        <time>2022-08-02T08:40:43Z</time>
      </trkpt>
      <trkpt lat="44.72592" lon="3.23856">
        <ele>1122.9</ele>
        <time>2022-08-02T08:40:51Z</time>
      </trkpt>
      <trkpt lat="44.72596" lon="3.23845">
        <ele>1123.1</ele>
        <time>2022-08-02T08:40:59Z</time>
      </trkpt>
      <trkpt lat="44.72597" lon="3.23842">
        <ele>1123.2</ele>
        <time>2022-08-02T08:41:01Z</time>
      </trkpt>
      <trkpt lat="44.72607" lon="3.23822">
        <ele>1123.5</ele>
        <time>2022-08-02T08:41:16Z</time>
      </trkpt>
      <trkpt lat="44.72609" lon="3.23815">
        <ele>1123.7</ele>
        <time>2022-08-02T08:41:21Z</time>
      </trkpt>
      <trkpt lat="44.7261" lon="3.23815">
        <ele>1123.7</ele>
        <time>2022-08-02T08:41:23Z</time>
      </trkpt>
      <trkpt lat="44.72611" lon="3.23812">
        <ele>1123.8</ele>
        <time>2022-08-02T08:41:26Z</time>
      </trkpt>
      <trkpt lat="44.72612" lon="3.23809">
        <ele>1123.8</ele>
        <time>2022-08-02T08:41:28Z</time>
      </trkpt>
      <trkpt lat="44.72619" lon="3.23796">
        <ele>1124.2</ele>
        <time>2022-08-02T08:41:37Z</time>
      </trkpt>
      <trkpt lat="44.72622" lon="3.23787">
        <ele>1124.5</ele>
        <time>2022-08-02T08:41:43Z</time>
      </trkpt>
      <trkpt lat="44.72627" lon="3.23775">
        <ele>1125.1</ele>
        <time>2022-08-02T08:41:52Z</time>
      </trkpt>
      <trkpt lat="44.72632" lon="3.2376">
        <ele>1125.6</ele>
        <time>2022-08-02T08:42:01Z</time>
      </trkpt>
      <trkpt lat="44.72634" lon="3.23755">
        <ele>1125.8</ele>
        <time>2022-08-02T08:42:04Z</time>
      </trkpt>
      <trkpt lat="44.7264" lon="3.23741">
        <ele>1126.3</ele>
        <time>2022-08-02T08:42:14Z</time>
      </trkpt>
      <trkpt lat="44.72644" lon="3.23727">
        <ele>1126.7</ele>
        <time>2022-08-02T08:42:23Z</time>
      </trkpt>
      <trkpt lat="44.72649" lon="3.23715">
        <ele>1126.9</ele>
        <time>2022-08-02T08:42:32Z</time>
      </trkpt>
      <trkpt lat="44.72652" lon="3.23711">
        <ele>1127</ele>
        <time>2022-08-02T08:42:35Z</time>
      </trkpt>
      <trkpt lat="44.72653" lon="3.23706">
        <ele>1127.1</ele>
        <time>2022-08-02T08:42:39Z</time>
      </trkpt>
      <trkpt lat="44.72655" lon="3.23702">
        <ele>1127.2</ele>
        <time>2022-08-02T08:42:45Z</time>
      </trkpt>
      <trkpt lat="44.72656" lon="3.23699">
        <ele>1127.3</ele>
        <time>2022-08-02T08:42:48Z</time>
      </trkpt>
      <trkpt lat="44.72657" lon="3.23695">
        <ele>1127.3</ele>
        <time>2022-08-02T08:42:51Z</time>
      </trkpt>
      <trkpt lat="44.7266" lon="3.23691">
        <ele>1127.4</ele>
        <time>2022-08-02T08:42:56Z</time>
      </trkpt>
      <trkpt lat="44.7266" lon="3.2369">
        <ele>1127.4</ele>
        <time>2022-08-02T08:42:57Z</time>
      </trkpt>
      <trkpt lat="44.72662" lon="3.23685">
        <ele>1127.5</ele>
        <time>2022-08-02T08:43:05Z</time>
      </trkpt>
      <trkpt lat="44.72666" lon="3.23675">
        <ele>1127.7</ele>
        <time>2022-08-02T08:43:12Z</time>
      </trkpt>
      <trkpt lat="44.72667" lon="3.23671">
        <ele>1127.9</ele>
        <time>2022-08-02T08:43:15Z</time>
      </trkpt>
      <trkpt lat="44.72672" lon="3.2366">
        <ele>1128.3</ele>
        <time>2022-08-02T08:43:22Z</time>
      </trkpt>
      <trkpt lat="44.72673" lon="3.2365">
        <ele>1128.8</ele>
        <time>2022-08-02T08:43:30Z</time>
      </trkpt>
      <trkpt lat="44.72673" lon="3.23648">
        <ele>1128.8</ele>
        <time>2022-08-02T08:43:32Z</time>
      </trkpt>
      <trkpt lat="44.72671" lon="3.23647">
        <ele>1128.8</ele>
        <time>2022-08-02T08:43:34Z</time>
      </trkpt>
      <trkpt lat="44.72671" lon="3.23647">
        <ele>1128.8</ele>
        <time>2022-08-02T08:43:35Z</time>
      </trkpt>
      <trkpt lat="44.72671" lon="3.23647">
        <ele>1128.8</ele>
        <time>2022-08-02T08:43:36Z</time>
      </trkpt>
      <trkpt lat="44.72671" lon="3.23647">
        <ele>1128.8</ele>
        <time>2022-08-02T08:43:42Z</time>
      </trkpt>
      <trkpt lat="44.72672" lon="3.23654">
        <ele>1128.5</ele>
        <time>2022-08-02T08:43:49Z</time>
      </trkpt>
      <trkpt lat="44.72672" lon="3.23652">
        <ele>1128.6</ele>
        <time>2022-08-02T08:43:56Z</time>
      </trkpt>
      <trkpt lat="44.72672" lon="3.23649">
        <ele>1128.8</ele>
        <time>2022-08-02T08:44:01Z</time>
      </trkpt>
      <trkpt lat="44.72664" lon="3.23642">
        <ele>1129</ele>
        <time>2022-08-02T08:44:36Z</time>
      </trkpt>
      <trkpt lat="44.72658" lon="3.23639">
        <ele>1129.3</ele>
        <time>2022-08-02T08:44:41Z</time>
      </trkpt>
      <trkpt lat="44.72655" lon="3.23637">
        <ele>1129.5</ele>
        <time>2022-08-02T08:44:43Z</time>
      </trkpt>
      <trkpt lat="44.72655" lon="3.23637">
        <ele>1129.5</ele>
        <time>2022-08-02T08:44:45Z</time>
      </trkpt>
      <trkpt lat="44.72655" lon="3.23637">
        <ele>1129.5</ele>
        <time>2022-08-02T08:44:47Z</time>
      </trkpt>
      <trkpt lat="44.72654" lon="3.23637">
        <ele>1129.6</ele>
        <time>2022-08-02T08:44:49Z</time>
      </trkpt>
      <trkpt lat="44.72653" lon="3.23636">
        <ele>1129.7</ele>
        <time>2022-08-02T08:44:51Z</time>
      </trkpt>
      <trkpt lat="44.72646" lon="3.23633">
        <ele>1130</ele>
        <time>2022-08-02T08:44:57Z</time>
      </trkpt>
      <trkpt lat="44.72642" lon="3.23631">
        <ele>1130.2</ele>
        <time>2022-08-02T08:45:00Z</time>
      </trkpt>
      <trkpt lat="44.72637" lon="3.23628">
        <ele>1130.4</ele>
        <time>2022-08-02T08:45:05Z</time>
      </trkpt>
      <trkpt lat="44.72627" lon="3.23622">
        <ele>1130.6</ele>
        <time>2022-08-02T08:45:13Z</time>
      </trkpt>
      <trkpt lat="44.72622" lon="3.23619">
        <ele>1130.7</ele>
        <time>2022-08-02T08:45:17Z</time>
      </trkpt>
      <trkpt lat="44.72619" lon="3.23615">
        <ele>1130.9</ele>
        <time>2022-08-02T08:45:20Z</time>
      </trkpt>
      <trkpt lat="44.72612" lon="3.23611">
        <ele>1131</ele>
        <time>2022-08-02T08:45:27Z</time>
      </trkpt>
      <trkpt lat="44.72605" lon="3.23606">
        <ele>1130.4</ele>
        <time>2022-08-02T08:45:35Z</time>
      </trkpt>
      <trkpt lat="44.72604" lon="3.23605">
        <ele>1130.3</ele>
        <time>2022-08-02T08:45:38Z</time>
      </trkpt>
      <trkpt lat="44.72602" lon="3.23603">
        <ele>1130.1</ele>
        <time>2022-08-02T08:45:40Z</time>
      </trkpt>
      <trkpt lat="44.72595" lon="3.23597">
        <ele>1129.6</ele>
        <time>2022-08-02T08:45:47Z</time>
      </trkpt>
      <trkpt lat="44.72588" lon="3.23588">
        <ele>1129.2</ele>
        <time>2022-08-02T08:45:54Z</time>
      </trkpt>
      <trkpt lat="44.72587" lon="3.23586">
        <ele>1129.2</ele>
        <time>2022-08-02T08:45:56Z</time>
      </trkpt>
      <trkpt lat="44.72588" lon="3.23586">
        <ele>1129.2</ele>
        <time>2022-08-02T08:45:57Z</time>
      </trkpt>
      <trkpt lat="44.72588" lon="3.23586">
        <ele>1129.2</ele>
        <time>2022-08-02T08:45:58Z</time>
      </trkpt>
      <trkpt lat="44.72588" lon="3.23584">
        <ele>1129.3</ele>
        <time>2022-08-02T08:46:06Z</time>
      </trkpt>
      <trkpt lat="44.72585" lon="3.23581">
        <ele>1129.2</ele>
        <time>2022-08-02T08:46:19Z</time>
      </trkpt>
      <trkpt lat="44.72577" lon="3.23569">
        <ele>1128.7</ele>
        <time>2022-08-02T08:46:26Z</time>
      </trkpt>
      <trkpt lat="44.72574" lon="3.23562">
        <ele>1128.4</ele>
        <time>2022-08-02T08:46:31Z</time>
      </trkpt>
      <trkpt lat="44.72569" lon="3.23556">
        <ele>1127.9</ele>
        <time>2022-08-02T08:46:36Z</time>
      </trkpt>
      <trkpt lat="44.72565" lon="3.23552">
        <ele>1127.7</ele>
        <time>2022-08-02T08:46:40Z</time>
      </trkpt>
      <trkpt lat="44.72562" lon="3.23548">
        <ele>1127.9</ele>
        <time>2022-08-02T08:46:44Z</time>
      </trkpt>
      <trkpt lat="44.72562" lon="3.23547">
        <ele>1128</ele>
        <time>2022-08-02T08:46:47Z</time>
      </trkpt>
      <trkpt lat="44.72561" lon="3.23546">
        <ele>1127.9</ele>
        <time>2022-08-02T08:46:49Z</time>
      </trkpt>
      <trkpt lat="44.72557" lon="3.23542">
        <ele>1128</ele>
        <time>2022-08-02T08:46:55Z</time>
      </trkpt>
      <trkpt lat="44.72549" lon="3.23534">
        <ele>1128.4</ele>
        <time>2022-08-02T08:47:02Z</time>
      </trkpt>
      <trkpt lat="44.72539" lon="3.23523">
        <ele>1128.1</ele>
        <time>2022-08-02T08:47:11Z</time>
      </trkpt>
      <trkpt lat="44.7253" lon="3.23516">
        <ele>1127.9</ele>
        <time>2022-08-02T08:47:19Z</time>
      </trkpt>
      <trkpt lat="44.72518" lon="3.23506">
        <ele>1128.6</ele>
        <time>2022-08-02T08:47:31Z</time>
      </trkpt>
      <trkpt lat="44.72511" lon="3.23502">
        <ele>1128.6</ele>
        <time>2022-08-02T08:47:38Z</time>
      </trkpt>
      <trkpt lat="44.72506" lon="3.23499">
        <ele>1128.6</ele>
        <time>2022-08-02T08:47:42Z</time>
      </trkpt>
      <trkpt lat="44.72496" lon="3.23492">
        <ele>1128.7</ele>
        <time>2022-08-02T08:47:51Z</time>
      </trkpt>
      <trkpt lat="44.72496" lon="3.23491">
        <ele>1128.8</ele>
        <time>2022-08-02T08:47:52Z</time>
      </trkpt>
      <trkpt lat="44.72489" lon="3.23486">
        <ele>1129.1</ele>
        <time>2022-08-02T08:47:58Z</time>
      </trkpt>
      <trkpt lat="44.72482" lon="3.23481">
        <ele>1129.2</ele>
        <time>2022-08-02T08:48:06Z</time>
      </trkpt>
      <trkpt lat="44.72478" lon="3.23474">
        <ele>1129.3</ele>
        <time>2022-08-02T08:48:13Z</time>
      </trkpt>
      <trkpt lat="44.72478" lon="3.23474">
        <ele>1129.3</ele>
        <time>2022-08-02T08:48:14Z</time>
      </trkpt>
      <trkpt lat="44.72477" lon="3.23473">
        <ele>1129.3</ele>
        <time>2022-08-02T08:48:17Z</time>
      </trkpt>
      <trkpt lat="44.72477" lon="3.23473">
        <ele>1129.3</ele>
        <time>2022-08-02T08:48:18Z</time>
      </trkpt>
      <trkpt lat="44.72475" lon="3.2347">
        <ele>1129.4</ele>
        <time>2022-08-02T08:48:21Z</time>
      </trkpt>
      <trkpt lat="44.72472" lon="3.23464">
        <ele>1129.6</ele>
        <time>2022-08-02T08:48:25Z</time>
      </trkpt>
      <trkpt lat="44.72465" lon="3.23456">
        <ele>1129.5</ele>
        <time>2022-08-02T08:48:32Z</time>
      </trkpt>
      <trkpt lat="44.72463" lon="3.23453">
        <ele>1129.5</ele>
        <time>2022-08-02T08:48:34Z</time>
      </trkpt>
      <trkpt lat="44.7246" lon="3.2345">
        <ele>1129.4</ele>
        <time>2022-08-02T08:48:37Z</time>
      </trkpt>
      <trkpt lat="44.72453" lon="3.23443">
        <ele>1129.1</ele>
        <time>2022-08-02T08:48:44Z</time>
      </trkpt>
      <trkpt lat="44.72445" lon="3.23433">
        <ele>1129.3</ele>
        <time>2022-08-02T08:48:53Z</time>
      </trkpt>
      <trkpt lat="44.72437" lon="3.23419">
        <ele>1129.9</ele>
        <time>2022-08-02T08:49:03Z</time>
      </trkpt>
      <trkpt lat="44.72429" lon="3.2341">
        <ele>1129.7</ele>
        <time>2022-08-02T08:49:11Z</time>
      </trkpt>
      <trkpt lat="44.72426" lon="3.23406">
        <ele>1129.6</ele>
        <time>2022-08-02T08:49:14Z</time>
      </trkpt>
      <trkpt lat="44.72421" lon="3.23401">
        <ele>1129.5</ele>
        <time>2022-08-02T08:49:19Z</time>
      </trkpt>
      <trkpt lat="44.72413" lon="3.23392">
        <ele>1129.5</ele>
        <time>2022-08-02T08:49:27Z</time>
      </trkpt>
      <trkpt lat="44.72407" lon="3.23383">
        <ele>1129.6</ele>
        <time>2022-08-02T08:49:35Z</time>
      </trkpt>
      <trkpt lat="44.72399" lon="3.23371">
        <ele>1129.1</ele>
        <time>2022-08-02T08:49:45Z</time>
      </trkpt>
      <trkpt lat="44.72395" lon="3.23367">
        <ele>1128.8</ele>
        <time>2022-08-02T08:49:49Z</time>
      </trkpt>
      <trkpt lat="44.72392" lon="3.23361">
        <ele>1128.4</ele>
        <time>2022-08-02T08:49:54Z</time>
      </trkpt>
      <trkpt lat="44.72387" lon="3.23351">
        <ele>1127.9</ele>
        <time>2022-08-02T08:50:02Z</time>
      </trkpt>
      <trkpt lat="44.72387" lon="3.2335">
        <ele>1127.9</ele>
        <time>2022-08-02T08:50:04Z</time>
      </trkpt>
      <trkpt lat="44.72387" lon="3.23349">
        <ele>1127.9</ele>
        <time>2022-08-02T08:50:06Z</time>
      </trkpt>
      <trkpt lat="44.72386" lon="3.23347">
        <ele>1127.8</ele>
        <time>2022-08-02T08:50:08Z</time>
      </trkpt>
      <trkpt lat="44.72382" lon="3.23341">
        <ele>1127.5</ele>
        <time>2022-08-02T08:50:12Z</time>
      </trkpt>
      <trkpt lat="44.72379" lon="3.23338">
        <ele>1127.4</ele>
        <time>2022-08-02T08:50:14Z</time>
      </trkpt>
      <trkpt lat="44.72375" lon="3.23328">
        <ele>1127</ele>
        <time>2022-08-02T08:50:20Z</time>
      </trkpt>
      <trkpt lat="44.72374" lon="3.23327">
        <ele>1126.9</ele>
        <time>2022-08-02T08:50:21Z</time>
      </trkpt>
      <trkpt lat="44.72373" lon="3.23325">
        <ele>1126.9</ele>
        <time>2022-08-02T08:50:23Z</time>
      </trkpt>
      <trkpt lat="44.72372" lon="3.23323">
        <ele>1126.8</ele>
        <time>2022-08-02T08:50:25Z</time>
      </trkpt>
      <trkpt lat="44.7237" lon="3.23322">
        <ele>1126.7</ele>
        <time>2022-08-02T08:50:26Z</time>
      </trkpt>
      <trkpt lat="44.72368" lon="3.23316">
        <ele>1126.5</ele>
        <time>2022-08-02T08:50:31Z</time>
      </trkpt>
      <trkpt lat="44.72367" lon="3.23312">
        <ele>1126.4</ele>
        <time>2022-08-02T08:50:33Z</time>
      </trkpt>
      <trkpt lat="44.72361" lon="3.23301">
        <ele>1125.8</ele>
        <time>2022-08-02T08:50:42Z</time>
      </trkpt>
      <trkpt lat="44.7236" lon="3.23299">
        <ele>1125.7</ele>
        <time>2022-08-02T08:50:43Z</time>
      </trkpt>
      <trkpt lat="44.72355" lon="3.23288">
        <ele>1125.1</ele>
        <time>2022-08-02T08:50:50Z</time>
      </trkpt>
      <trkpt lat="44.72348" lon="3.23273">
        <ele>1124.4</ele>
        <time>2022-08-02T08:51:00Z</time>
      </trkpt>
      <trkpt lat="44.72344" lon="3.23265">
        <ele>1123.9</ele>
        <time>2022-08-02T08:51:05Z</time>
      </trkpt>
      <trkpt lat="44.72341" lon="3.23261">
        <ele>1123.7</ele>
        <time>2022-08-02T08:51:08Z</time>
      </trkpt>
      <trkpt lat="44.72333" lon="3.23251">
        <ele>1123</ele>
        <time>2022-08-02T08:51:17Z</time>
      </trkpt>
      <trkpt lat="44.72325" lon="3.23239">
        <ele>1123</ele>
        <time>2022-08-02T08:51:27Z</time>
      </trkpt>
      <trkpt lat="44.72322" lon="3.23233">
        <ele>1123</ele>
        <time>2022-08-02T08:51:31Z</time>
      </trkpt>
      <trkpt lat="44.72317" lon="3.23228">
        <ele>1123</ele>
        <time>2022-08-02T08:51:36Z</time>
      </trkpt>
      <trkpt lat="44.72311" lon="3.2322">
        <ele>1123</ele>
        <time>2022-08-02T08:51:44Z</time>
      </trkpt>
      <trkpt lat="44.72309" lon="3.23218">
        <ele>1123</ele>
        <time>2022-08-02T08:51:46Z</time>
      </trkpt>
      <trkpt lat="44.72301" lon="3.23212">
        <ele>1123.1</ele>
        <time>2022-08-02T08:51:53Z</time>
      </trkpt>
      <trkpt lat="44.72292" lon="3.23206">
        <ele>1123.3</ele>
        <time>2022-08-02T08:52:01Z</time>
      </trkpt>
      <trkpt lat="44.72284" lon="3.23199">
        <ele>1123.7</ele>
        <time>2022-08-02T08:52:09Z</time>
      </trkpt>
      <trkpt lat="44.72275" lon="3.2319">
        <ele>1124.1</ele>
        <time>2022-08-02T08:52:19Z</time>
      </trkpt>
      <trkpt lat="44.72265" lon="3.23184">
        <ele>1123.9</ele>
        <time>2022-08-02T08:52:27Z</time>
      </trkpt>
      <trkpt lat="44.7226" lon="3.23177">
        <ele>1124</ele>
        <time>2022-08-02T08:52:34Z</time>
      </trkpt>
      <trkpt lat="44.72259" lon="3.23177">
        <ele>1124</ele>
        <time>2022-08-02T08:52:37Z</time>
      </trkpt>
      <trkpt lat="44.72258" lon="3.23175">
        <ele>1124</ele>
        <time>2022-08-02T08:52:39Z</time>
      </trkpt>
      <trkpt lat="44.72256" lon="3.23174">
        <ele>1124</ele>
        <time>2022-08-02T08:52:41Z</time>
      </trkpt>
      <trkpt lat="44.72248" lon="3.23165">
        <ele>1123.9</ele>
        <time>2022-08-02T08:52:50Z</time>
      </trkpt>
      <trkpt lat="44.72244" lon="3.23159">
        <ele>1123.9</ele>
        <time>2022-08-02T08:52:54Z</time>
      </trkpt>
      <trkpt lat="44.72243" lon="3.23157">
        <ele>1123.8</ele>
        <time>2022-08-02T08:52:56Z</time>
      </trkpt>
      <trkpt lat="44.72242" lon="3.23155">
        <ele>1123.8</ele>
        <time>2022-08-02T08:52:58Z</time>
      </trkpt>
      <trkpt lat="44.72235" lon="3.23145">
        <ele>1123.9</ele>
        <time>2022-08-02T08:53:06Z</time>
      </trkpt>
      <trkpt lat="44.72229" lon="3.23139">
        <ele>1124</ele>
        <time>2022-08-02T08:53:12Z</time>
      </trkpt>
      <trkpt lat="44.72222" lon="3.23131">
        <ele>1124.3</ele>
        <time>2022-08-02T08:53:20Z</time>
      </trkpt>
      <trkpt lat="44.72219" lon="3.23127">
        <ele>1124.3</ele>
        <time>2022-08-02T08:53:26Z</time>
      </trkpt>
      <trkpt lat="44.72217" lon="3.23124">
        <ele>1124.4</ele>
        <time>2022-08-02T08:53:29Z</time>
      </trkpt>
      <trkpt lat="44.72216" lon="3.23122">
        <ele>1124.4</ele>
        <time>2022-08-02T08:53:32Z</time>
      </trkpt>
      <trkpt lat="44.72214" lon="3.2312">
        <ele>1124.4</ele>
        <time>2022-08-02T08:53:34Z</time>
      </trkpt>
      <trkpt lat="44.72208" lon="3.23113">
        <ele>1124.4</ele>
        <time>2022-08-02T08:53:39Z</time>
      </trkpt>
      <trkpt lat="44.72204" lon="3.23103">
        <ele>1124.5</ele>
        <time>2022-08-02T08:53:46Z</time>
      </trkpt>
      <trkpt lat="44.72201" lon="3.23101">
        <ele>1124.5</ele>
        <time>2022-08-02T08:53:48Z</time>
      </trkpt>
      <trkpt lat="44.722" lon="3.23099">
        <ele>1124.6</ele>
        <time>2022-08-02T08:53:50Z</time>
      </trkpt>
      <trkpt lat="44.72201" lon="3.23098">
        <ele>1124.6</ele>
        <time>2022-08-02T08:53:52Z</time>
      </trkpt>
      <trkpt lat="44.72199" lon="3.23094">
        <ele>1124.7</ele>
        <time>2022-08-02T08:53:55Z</time>
      </trkpt>
      <trkpt lat="44.72196" lon="3.23092">
        <ele>1124.7</ele>
        <time>2022-08-02T08:53:58Z</time>
      </trkpt>
      <trkpt lat="44.72193" lon="3.23087">
        <ele>1124.8</ele>
        <time>2022-08-02T08:54:02Z</time>
      </trkpt>
      <trkpt lat="44.72188" lon="3.2308">
        <ele>1124.8</ele>
        <time>2022-08-02T08:54:07Z</time>
      </trkpt>
      <trkpt lat="44.72181" lon="3.23068">
        <ele>1125</ele>
        <time>2022-08-02T08:54:17Z</time>
      </trkpt>
      <trkpt lat="44.72173" lon="3.23061">
        <ele>1125.4</ele>
        <time>2022-08-02T08:54:25Z</time>
      </trkpt>
      <trkpt lat="44.72173" lon="3.23059">
        <ele>1125.6</ele>
        <time>2022-08-02T08:54:26Z</time>
      </trkpt>
      <trkpt lat="44.72173" lon="3.23055">
        <ele>1125.8</ele>
        <time>2022-08-02T08:54:29Z</time>
      </trkpt>
      <trkpt lat="44.7217" lon="3.23053">
        <ele>1126</ele>
        <time>2022-08-02T08:54:32Z</time>
      </trkpt>
      <trkpt lat="44.72168" lon="3.23049">
        <ele>1126.2</ele>
        <time>2022-08-02T08:54:37Z</time>
      </trkpt>
      <trkpt lat="44.72168" lon="3.23048">
        <ele>1126.2</ele>
        <time>2022-08-02T08:54:38Z</time>
      </trkpt>
      <trkpt lat="44.72166" lon="3.23046">
        <ele>1126.3</ele>
        <time>2022-08-02T08:54:41Z</time>
      </trkpt>
      <trkpt lat="44.72165" lon="3.23045">
        <ele>1126.3</ele>
        <time>2022-08-02T08:54:42Z</time>
      </trkpt>
      <trkpt lat="44.72163" lon="3.23043">
        <ele>1126.4</ele>
        <time>2022-08-02T08:54:44Z</time>
      </trkpt>
      <trkpt lat="44.72156" lon="3.23035">
        <ele>1126.6</ele>
        <time>2022-08-02T08:54:51Z</time>
      </trkpt>
      <trkpt lat="44.72155" lon="3.23034">
        <ele>1126.7</ele>
        <time>2022-08-02T08:54:52Z</time>
      </trkpt>
      <trkpt lat="44.72151" lon="3.2303">
        <ele>1126.9</ele>
        <time>2022-08-02T08:54:56Z</time>
      </trkpt>
      <trkpt lat="44.72141" lon="3.23025">
        <ele>1127.1</ele>
        <time>2022-08-02T08:55:06Z</time>
      </trkpt>
      <trkpt lat="44.72141" lon="3.23025">
        <ele>1127.1</ele>
        <time>2022-08-02T08:55:07Z</time>
      </trkpt>
      <trkpt lat="44.72135" lon="3.23025">
        <ele>1127.2</ele>
        <time>2022-08-02T08:55:14Z</time>
      </trkpt>
      <trkpt lat="44.72135" lon="3.23024">
        <ele>1127.3</ele>
        <time>2022-08-02T08:55:16Z</time>
      </trkpt>
      <trkpt lat="44.72135" lon="3.2302">
        <ele>1127.5</ele>
        <time>2022-08-02T08:55:21Z</time>
      </trkpt>
      <trkpt lat="44.72131" lon="3.23019">
        <ele>1127.7</ele>
        <time>2022-08-02T08:55:28Z</time>
      </trkpt>
      <trkpt lat="44.72129" lon="3.23016">
        <ele>1127.9</ele>
        <time>2022-08-02T08:55:35Z</time>
      </trkpt>
      <trkpt lat="44.72125" lon="3.23012">
        <ele>1128.3</ele>
        <time>2022-08-02T08:55:42Z</time>
      </trkpt>
      <trkpt lat="44.72125" lon="3.23012">
        <ele>1128.4</ele>
        <time>2022-08-02T08:55:43Z</time>
      </trkpt>
      <trkpt lat="44.72123" lon="3.23007">
        <ele>1128.8</ele>
        <time>2022-08-02T08:55:48Z</time>
      </trkpt>
      <trkpt lat="44.72117" lon="3.22999">
        <ele>1129.6</ele>
        <time>2022-08-02T08:55:56Z</time>
      </trkpt>
      <trkpt lat="44.72116" lon="3.22996">
        <ele>1129.9</ele>
        <time>2022-08-02T08:55:59Z</time>
      </trkpt>
      <trkpt lat="44.72113" lon="3.2299">
        <ele>1130.6</ele>
        <time>2022-08-02T08:56:05Z</time>
      </trkpt>
      <trkpt lat="44.72111" lon="3.22987">
        <ele>1131</ele>
        <time>2022-08-02T08:56:09Z</time>
      </trkpt>
      <trkpt lat="44.72108" lon="3.2298">
        <ele>1131.6</ele>
        <time>2022-08-02T08:56:14Z</time>
      </trkpt>
      <trkpt lat="44.72104" lon="3.22979">
        <ele>1132</ele>
        <time>2022-08-02T08:56:19Z</time>
      </trkpt>
      <trkpt lat="44.72104" lon="3.22978">
        <ele>1132.1</ele>
        <time>2022-08-02T08:56:20Z</time>
      </trkpt>
      <trkpt lat="44.72098" lon="3.22971">
        <ele>1133</ele>
        <time>2022-08-02T08:56:27Z</time>
      </trkpt>
      <trkpt lat="44.72097" lon="3.2297">
        <ele>1133.2</ele>
        <time>2022-08-02T08:56:29Z</time>
      </trkpt>
      <trkpt lat="44.72096" lon="3.22969">
        <ele>1133.3</ele>
        <time>2022-08-02T08:56:30Z</time>
      </trkpt>
      <trkpt lat="44.72096" lon="3.22969">
        <ele>1133.3</ele>
        <time>2022-08-02T08:56:32Z</time>
      </trkpt>
      <trkpt lat="44.72095" lon="3.22969">
        <ele>1133.4</ele>
        <time>2022-08-02T08:56:34Z</time>
      </trkpt>
      <trkpt lat="44.72093" lon="3.22968">
        <ele>1133.6</ele>
        <time>2022-08-02T08:56:36Z</time>
      </trkpt>
      <trkpt lat="44.72091" lon="3.22965">
        <ele>1134</ele>
        <time>2022-08-02T08:56:39Z</time>
      </trkpt>
      <trkpt lat="44.72088" lon="3.22963">
        <ele>1134.3</ele>
        <time>2022-08-02T08:56:42Z</time>
      </trkpt>
      <trkpt lat="44.72086" lon="3.22961">
        <ele>1134.6</ele>
        <time>2022-08-02T08:56:44Z</time>
      </trkpt>
      <trkpt lat="44.72084" lon="3.2296">
        <ele>1134.9</ele>
        <time>2022-08-02T08:56:47Z</time>
      </trkpt>
      <trkpt lat="44.72079" lon="3.22957">
        <ele>1135.5</ele>
        <time>2022-08-02T08:56:52Z</time>
      </trkpt>
      <trkpt lat="44.72076" lon="3.22955">
        <ele>1135.9</ele>
        <time>2022-08-02T08:56:56Z</time>
      </trkpt>
      <trkpt lat="44.72074" lon="3.22951">
        <ele>1136.4</ele>
        <time>2022-08-02T08:57:00Z</time>
      </trkpt>
      <trkpt lat="44.72071" lon="3.22948">
        <ele>1137</ele>
        <time>2022-08-02T08:57:04Z</time>
      </trkpt>
      <trkpt lat="44.72069" lon="3.22946">
        <ele>1137.4</ele>
        <time>2022-08-02T08:57:07Z</time>
      </trkpt>
      <trkpt lat="44.72069" lon="3.22946">
        <ele>1137.4</ele>
        <time>2022-08-02T08:57:11Z</time>
      </trkpt>
      <trkpt lat="44.72066" lon="3.22945">
        <ele>1137.8</ele>
        <time>2022-08-02T08:57:17Z</time>
      </trkpt>
      <trkpt lat="44.72062" lon="3.2294">
        <ele>1138.8</ele>
        <time>2022-08-02T08:57:23Z</time>
      </trkpt>
      <trkpt lat="44.72056" lon="3.22935">
        <ele>1140</ele>
        <time>2022-08-02T08:57:31Z</time>
      </trkpt>
      <trkpt lat="44.72055" lon="3.22934">
        <ele>1140.1</ele>
        <time>2022-08-02T08:57:32Z</time>
      </trkpt>
      <trkpt lat="44.72047" lon="3.2293">
        <ele>1140.9</ele>
        <time>2022-08-02T08:57:41Z</time>
      </trkpt>
      <trkpt lat="44.72045" lon="3.22928">
        <ele>1141.1</ele>
        <time>2022-08-02T08:57:45Z</time>
      </trkpt>
      <trkpt lat="44.72042" lon="3.22927">
        <ele>1141.4</ele>
        <time>2022-08-02T08:57:52Z</time>
      </trkpt>
      <trkpt lat="44.72035" lon="3.22924">
        <ele>1141.9</ele>
        <time>2022-08-02T08:57:59Z</time>
      </trkpt>
      <trkpt lat="44.72034" lon="3.22924">
        <ele>1141.9</ele>
        <time>2022-08-02T08:58:00Z</time>
      </trkpt>
      <trkpt lat="44.72029" lon="3.22922">
        <ele>1142.4</ele>
        <time>2022-08-02T08:58:05Z</time>
      </trkpt>
      <trkpt lat="44.72023" lon="3.22916">
        <ele>1143</ele>
        <time>2022-08-02T08:58:11Z</time>
      </trkpt>
      <trkpt lat="44.72015" lon="3.22907">
        <ele>1143.9</ele>
        <time>2022-08-02T08:58:20Z</time>
      </trkpt>
      <trkpt lat="44.72008" lon="3.22898">
        <ele>1144.5</ele>
        <time>2022-08-02T08:58:28Z</time>
      </trkpt>
      <trkpt lat="44.72004" lon="3.22895">
        <ele>1144.7</ele>
        <time>2022-08-02T08:58:33Z</time>
      </trkpt>
      <trkpt lat="44.72" lon="3.22891">
        <ele>1144.9</ele>
        <time>2022-08-02T08:58:37Z</time>
      </trkpt>
      <trkpt lat="44.71997" lon="3.22888">
        <ele>1145</ele>
        <time>2022-08-02T08:58:43Z</time>
      </trkpt>
      <trkpt lat="44.71997" lon="3.22888">
        <ele>1145</ele>
        <time>2022-08-02T08:58:44Z</time>
      </trkpt>
      <trkpt lat="44.71997" lon="3.22887">
        <ele>1145.1</ele>
        <time>2022-08-02T08:58:46Z</time>
      </trkpt>
      <trkpt lat="44.71994" lon="3.22885">
        <ele>1145.2</ele>
        <time>2022-08-02T08:58:51Z</time>
      </trkpt>
      <trkpt lat="44.71988" lon="3.22877">
        <ele>1145.8</ele>
        <time>2022-08-02T08:58:58Z</time>
      </trkpt>
      <trkpt lat="44.71983" lon="3.22873">
        <ele>1146.1</ele>
        <time>2022-08-02T08:59:04Z</time>
      </trkpt>
      <trkpt lat="44.7198" lon="3.22869">
        <ele>1146.4</ele>
        <time>2022-08-02T08:59:08Z</time>
      </trkpt>
      <trkpt lat="44.71975" lon="3.22864">
        <ele>1146.8</ele>
        <time>2022-08-02T08:59:14Z</time>
      </trkpt>
      <trkpt lat="44.71972" lon="3.22862">
        <ele>1146.9</ele>
        <time>2022-08-02T08:59:19Z</time>
      </trkpt>
      <trkpt lat="44.71971" lon="3.22861">
        <ele>1147</ele>
        <time>2022-08-02T08:59:21Z</time>
      </trkpt>
      <trkpt lat="44.7197" lon="3.22861">
        <ele>1147</ele>
        <time>2022-08-02T08:59:23Z</time>
      </trkpt>
      <trkpt lat="44.71969" lon="3.2286">
        <ele>1147</ele>
        <time>2022-08-02T08:59:25Z</time>
      </trkpt>
      <trkpt lat="44.71967" lon="3.22859">
        <ele>1147.1</ele>
        <time>2022-08-02T08:59:29Z</time>
      </trkpt>
      <trkpt lat="44.71963" lon="3.22856">
        <ele>1147.2</ele>
        <time>2022-08-02T08:59:33Z</time>
      </trkpt>
      <trkpt lat="44.71959" lon="3.22851">
        <ele>1147.6</ele>
        <time>2022-08-02T08:59:37Z</time>
      </trkpt>
      <trkpt lat="44.71957" lon="3.22847">
        <ele>1148</ele>
        <time>2022-08-02T08:59:40Z</time>
      </trkpt>
      <trkpt lat="44.71956" lon="3.22846">
        <ele>1148.1</ele>
        <time>2022-08-02T08:59:41Z</time>
      </trkpt>
      <trkpt lat="44.71949" lon="3.22832">
        <ele>1149.3</ele>
        <time>2022-08-02T08:59:50Z</time>
      </trkpt>
      <trkpt lat="44.71947" lon="3.22829">
        <ele>1149.5</ele>
        <time>2022-08-02T08:59:53Z</time>
      </trkpt>
      <trkpt lat="44.71943" lon="3.22826">
        <ele>1149.8</ele>
        <time>2022-08-02T08:59:58Z</time>
      </trkpt>
      <trkpt lat="44.71936" lon="3.22818">
        <ele>1150.7</ele>
        <time>2022-08-02T09:00:07Z</time>
      </trkpt>
      <trkpt lat="44.71934" lon="3.22815">
        <ele>1150.9</ele>
        <time>2022-08-02T09:00:09Z</time>
      </trkpt>
      <trkpt lat="44.71929" lon="3.22812">
        <ele>1151</ele>
        <time>2022-08-02T09:00:16Z</time>
      </trkpt>
      <trkpt lat="44.71929" lon="3.22811">
        <ele>1151.1</ele>
        <time>2022-08-02T09:00:17Z</time>
      </trkpt>
      <trkpt lat="44.71924" lon="3.22807">
        <ele>1151.2</ele>
        <time>2022-08-02T09:00:22Z</time>
      </trkpt>
      <trkpt lat="44.71922" lon="3.22805">
        <ele>1151.2</ele>
        <time>2022-08-02T09:00:24Z</time>
      </trkpt>
      <trkpt lat="44.71915" lon="3.22797">
        <ele>1151.4</ele>
        <time>2022-08-02T09:00:32Z</time>
      </trkpt>
      <trkpt lat="44.71914" lon="3.22795">
        <ele>1151.5</ele>
        <time>2022-08-02T09:00:34Z</time>
      </trkpt>
      <trkpt lat="44.71907" lon="3.22789">
        <ele>1151.9</ele>
        <time>2022-08-02T09:00:41Z</time>
      </trkpt>
      <trkpt lat="44.71905" lon="3.22788">
        <ele>1152.1</ele>
        <time>2022-08-02T09:00:43Z</time>
      </trkpt>
      <trkpt lat="44.71904" lon="3.22786">
        <ele>1152.1</ele>
        <time>2022-08-02T09:00:46Z</time>
      </trkpt>
      <trkpt lat="44.71904" lon="3.22786">
        <ele>1152.2</ele>
        <time>2022-08-02T09:00:48Z</time>
      </trkpt>
      <trkpt lat="44.71903" lon="3.22783">
        <ele>1152.3</ele>
        <time>2022-08-02T09:00:51Z</time>
      </trkpt>
      <trkpt lat="44.71904" lon="3.22783">
        <ele>1152.3</ele>
        <time>2022-08-02T09:00:52Z</time>
      </trkpt>
      <trkpt lat="44.71901" lon="3.2278">
        <ele>1152.5</ele>
        <time>2022-08-02T09:00:55Z</time>
      </trkpt>
      <trkpt lat="44.71899" lon="3.22776">
        <ele>1152.7</ele>
        <time>2022-08-02T09:00:58Z</time>
      </trkpt>
      <trkpt lat="44.71893" lon="3.2277">
        <ele>1153.1</ele>
        <time>2022-08-02T09:01:04Z</time>
      </trkpt>
      <trkpt lat="44.71891" lon="3.22767">
        <ele>1153.3</ele>
        <time>2022-08-02T09:01:07Z</time>
      </trkpt>
      <trkpt lat="44.71883" lon="3.22759">
        <ele>1153.7</ele>
        <time>2022-08-02T09:01:15Z</time>
      </trkpt>
      <trkpt lat="44.71877" lon="3.22752">
        <ele>1154</ele>
        <time>2022-08-02T09:01:22Z</time>
      </trkpt>
      <trkpt lat="44.71873" lon="3.22749">
        <ele>1154</ele>
        <time>2022-08-02T09:01:26Z</time>
      </trkpt>
      <trkpt lat="44.71872" lon="3.22747">
        <ele>1154</ele>
        <time>2022-08-02T09:01:28Z</time>
      </trkpt>
      <trkpt lat="44.71868" lon="3.22744">
        <ele>1154</ele>
        <time>2022-08-02T09:01:32Z</time>
      </trkpt>
      <trkpt lat="44.71858" lon="3.22734">
        <ele>1154</ele>
        <time>2022-08-02T09:01:43Z</time>
      </trkpt>
      <trkpt lat="44.71851" lon="3.22727">
        <ele>1154</ele>
        <time>2022-08-02T09:01:51Z</time>
      </trkpt>
      <trkpt lat="44.71839" lon="3.22719">
        <ele>1153.9</ele>
        <time>2022-08-02T09:02:02Z</time>
      </trkpt>
      <trkpt lat="44.71829" lon="3.22713">
        <ele>1153.4</ele>
        <time>2022-08-02T09:02:11Z</time>
      </trkpt>
      <trkpt lat="44.71819" lon="3.22705">
        <ele>1152.6</ele>
        <time>2022-08-02T09:02:21Z</time>
      </trkpt>
      <trkpt lat="44.71814" lon="3.22702">
        <ele>1152.4</ele>
        <time>2022-08-02T09:02:27Z</time>
      </trkpt>
      <trkpt lat="44.7181" lon="3.22701">
        <ele>1152.2</ele>
        <time>2022-08-02T09:02:31Z</time>
      </trkpt>
      <trkpt lat="44.71807" lon="3.22699">
        <ele>1152</ele>
        <time>2022-08-02T09:02:34Z</time>
      </trkpt>
      <trkpt lat="44.71803" lon="3.22699">
        <ele>1151.8</ele>
        <time>2022-08-02T09:02:37Z</time>
      </trkpt>
      <trkpt lat="44.71803" lon="3.22698">
        <ele>1151.7</ele>
        <time>2022-08-02T09:02:38Z</time>
      </trkpt>
      <trkpt lat="44.71794" lon="3.22695">
        <ele>1150.8</ele>
        <time>2022-08-02T09:02:45Z</time>
      </trkpt>
      <trkpt lat="44.71791" lon="3.22694">
        <ele>1150.4</ele>
        <time>2022-08-02T09:02:48Z</time>
      </trkpt>
      <trkpt lat="44.71785" lon="3.22692">
        <ele>1149.7</ele>
        <time>2022-08-02T09:02:53Z</time>
      </trkpt>
      <trkpt lat="44.71778" lon="3.22687">
        <ele>1149.1</ele>
        <time>2022-08-02T09:02:59Z</time>
      </trkpt>
      <trkpt lat="44.71774" lon="3.22687">
        <ele>1148.7</ele>
        <time>2022-08-02T09:03:03Z</time>
      </trkpt>
      <trkpt lat="44.71768" lon="3.22684">
        <ele>1148.3</ele>
        <time>2022-08-02T09:03:08Z</time>
      </trkpt>
      <trkpt lat="44.71757" lon="3.22678">
        <ele>1147.5</ele>
        <time>2022-08-02T09:03:18Z</time>
      </trkpt>
      <trkpt lat="44.7175" lon="3.22676">
        <ele>1147</ele>
        <time>2022-08-02T09:03:24Z</time>
      </trkpt>
      <trkpt lat="44.71744" lon="3.22672">
        <ele>1146.8</ele>
        <time>2022-08-02T09:03:29Z</time>
      </trkpt>
      <trkpt lat="44.71732" lon="3.22662">
        <ele>1146.2</ele>
        <time>2022-08-02T09:03:41Z</time>
      </trkpt>
      <trkpt lat="44.71721" lon="3.22654">
        <ele>1145.5</ele>
        <time>2022-08-02T09:03:51Z</time>
      </trkpt>
      <trkpt lat="44.7172" lon="3.22653">
        <ele>1145.4</ele>
        <time>2022-08-02T09:03:52Z</time>
      </trkpt>
      <trkpt lat="44.71712" lon="3.22646">
        <ele>1144.8</ele>
        <time>2022-08-02T09:04:00Z</time>
      </trkpt>
      <trkpt lat="44.71711" lon="3.22645">
        <ele>1144.7</ele>
        <time>2022-08-02T09:04:01Z</time>
      </trkpt>
      <trkpt lat="44.71704" lon="3.22637">
        <ele>1144.3</ele>
        <time>2022-08-02T09:04:10Z</time>
      </trkpt>
      <trkpt lat="44.71703" lon="3.22638">
        <ele>1144.3</ele>
        <time>2022-08-02T09:04:12Z</time>
      </trkpt>
      <trkpt lat="44.71703" lon="3.22638">
        <ele>1144.3</ele>
        <time>2022-08-02T09:04:13Z</time>
      </trkpt>
      <trkpt lat="44.71701" lon="3.22639">
        <ele>1144.2</ele>
        <time>2022-08-02T09:04:18Z</time>
      </trkpt>
      <trkpt lat="44.717" lon="3.22639">
        <ele>1144.2</ele>
        <time>2022-08-02T09:04:20Z</time>
      </trkpt>
      <trkpt lat="44.717" lon="3.22639">
        <ele>1144.2</ele>
        <time>2022-08-02T09:04:27Z</time>
      </trkpt>
      <trkpt lat="44.717" lon="3.22639">
        <ele>1144.2</ele>
        <time>2022-08-02T09:04:30Z</time>
      </trkpt>
      <trkpt lat="44.717" lon="3.22639">
        <ele>1144.2</ele>
        <time>2022-08-02T09:04:31Z</time>
      </trkpt>
      <trkpt lat="44.717" lon="3.2264">
        <ele>1144.2</ele>
        <time>2022-08-02T09:04:59Z</time>
      </trkpt>
      <trkpt lat="44.71701" lon="3.22641">
        <ele>1144.2</ele>
        <time>2022-08-02T09:05:32Z</time>
      </trkpt>
      <trkpt lat="44.71701" lon="3.22632">
        <ele>1144</ele>
        <time>2022-08-02T09:06:13Z</time>
      </trkpt>
      <trkpt lat="44.71699" lon="3.22627">
        <ele>1143.7</ele>
        <time>2022-08-02T09:06:20Z</time>
      </trkpt>
      <trkpt lat="44.71698" lon="3.22623">
        <ele>1143.5</ele>
        <time>2022-08-02T09:06:25Z</time>
      </trkpt>
      <trkpt lat="44.71697" lon="3.22622">
        <ele>1143.5</ele>
        <time>2022-08-02T09:06:26Z</time>
      </trkpt>
      <trkpt lat="44.71697" lon="3.22621">
        <ele>1143.4</ele>
        <time>2022-08-02T09:06:27Z</time>
      </trkpt>
      <trkpt lat="44.7169" lon="3.22608">
        <ele>1142.4</ele>
        <time>2022-08-02T09:06:37Z</time>
      </trkpt>
      <trkpt lat="44.71689" lon="3.22605">
        <ele>1141.9</ele>
        <time>2022-08-02T09:06:40Z</time>
      </trkpt>
      <trkpt lat="44.71687" lon="3.22603">
        <ele>1141.6</ele>
        <time>2022-08-02T09:06:42Z</time>
      </trkpt>
      <trkpt lat="44.71686" lon="3.22601">
        <ele>1141.4</ele>
        <time>2022-08-02T09:06:44Z</time>
      </trkpt>
      <trkpt lat="44.71684" lon="3.22598">
        <ele>1141</ele>
        <time>2022-08-02T09:06:46Z</time>
      </trkpt>
      <trkpt lat="44.71681" lon="3.22592">
        <ele>1140.1</ele>
        <time>2022-08-02T09:06:52Z</time>
      </trkpt>
      <trkpt lat="44.71676" lon="3.22585">
        <ele>1139.1</ele>
        <time>2022-08-02T09:06:58Z</time>
      </trkpt>
      <trkpt lat="44.71675" lon="3.22584">
        <ele>1139</ele>
        <time>2022-08-02T09:06:59Z</time>
      </trkpt>
      <trkpt lat="44.71671" lon="3.22578">
        <ele>1138.1</ele>
        <time>2022-08-02T09:07:05Z</time>
      </trkpt>
      <trkpt lat="44.7167" lon="3.22576">
        <ele>1137.8</ele>
        <time>2022-08-02T09:07:07Z</time>
      </trkpt>
      <trkpt lat="44.71667" lon="3.22572">
        <ele>1137.3</ele>
        <time>2022-08-02T09:07:10Z</time>
      </trkpt>
      <trkpt lat="44.71662" lon="3.22567">
        <ele>1136.1</ele>
        <time>2022-08-02T09:07:16Z</time>
      </trkpt>
      <trkpt lat="44.7166" lon="3.22565">
        <ele>1135.7</ele>
        <time>2022-08-02T09:07:18Z</time>
      </trkpt>
      <trkpt lat="44.71656" lon="3.22557">
        <ele>1134.6</ele>
        <time>2022-08-02T09:07:24Z</time>
      </trkpt>
      <trkpt lat="44.71654" lon="3.22555">
        <ele>1134.2</ele>
        <time>2022-08-02T09:07:26Z</time>
      </trkpt>
      <trkpt lat="44.7165" lon="3.2255">
        <ele>1133</ele>
        <time>2022-08-02T09:07:31Z</time>
      </trkpt>
      <trkpt lat="44.71647" lon="3.22545">
        <ele>1132</ele>
        <time>2022-08-02T09:07:36Z</time>
      </trkpt>
      <trkpt lat="44.71645" lon="3.22541">
        <ele>1131.3</ele>
        <time>2022-08-02T09:07:39Z</time>
      </trkpt>
      <trkpt lat="44.71643" lon="3.22538">
        <ele>1130.7</ele>
        <time>2022-08-02T09:07:42Z</time>
      </trkpt>
      <trkpt lat="44.71639" lon="3.22534">
        <ele>1129.7</ele>
        <time>2022-08-02T09:07:46Z</time>
      </trkpt>
      <trkpt lat="44.71637" lon="3.2253">
        <ele>1128.9</ele>
        <time>2022-08-02T09:07:50Z</time>
      </trkpt>
      <trkpt lat="44.71636" lon="3.2253">
        <ele>1128.7</ele>
        <time>2022-08-02T09:07:51Z</time>
      </trkpt>
      <trkpt lat="44.71632" lon="3.22521">
        <ele>1127.4</ele>
        <time>2022-08-02T09:07:57Z</time>
      </trkpt>
      <trkpt lat="44.7163" lon="3.2252">
        <ele>1127.1</ele>
        <time>2022-08-02T09:07:59Z</time>
      </trkpt>
      <trkpt lat="44.71628" lon="3.22517">
        <ele>1126.6</ele>
        <time>2022-08-02T09:08:03Z</time>
      </trkpt>
      <trkpt lat="44.71623" lon="3.22511">
        <ele>1125.5</ele>
        <time>2022-08-02T09:08:10Z</time>
      </trkpt>
      <trkpt lat="44.71618" lon="3.22505">
        <ele>1124.8</ele>
        <time>2022-08-02T09:08:17Z</time>
      </trkpt>
      <trkpt lat="44.71615" lon="3.22501">
        <ele>1124.3</ele>
        <time>2022-08-02T09:08:21Z</time>
      </trkpt>
      <trkpt lat="44.71611" lon="3.22498">
        <ele>1123.8</ele>
        <time>2022-08-02T09:08:25Z</time>
      </trkpt>
      <trkpt lat="44.71607" lon="3.22493">
        <ele>1123.2</ele>
        <time>2022-08-02T09:08:30Z</time>
      </trkpt>
      <trkpt lat="44.71601" lon="3.22487">
        <ele>1122.3</ele>
        <time>2022-08-02T09:08:37Z</time>
      </trkpt>
      <trkpt lat="44.716" lon="3.22486">
        <ele>1122.2</ele>
        <time>2022-08-02T09:08:38Z</time>
      </trkpt>
      <trkpt lat="44.71592" lon="3.22482">
        <ele>1121.3</ele>
        <time>2022-08-02T09:08:45Z</time>
      </trkpt>
      <trkpt lat="44.71589" lon="3.2248">
        <ele>1121</ele>
        <time>2022-08-02T09:08:47Z</time>
      </trkpt>
      <trkpt lat="44.71579" lon="3.22477">
        <ele>1119.9</ele>
        <time>2022-08-02T09:08:56Z</time>
      </trkpt>
      <trkpt lat="44.71576" lon="3.22477">
        <ele>1119.7</ele>
        <time>2022-08-02T09:08:59Z</time>
      </trkpt>
      <trkpt lat="44.71567" lon="3.22477">
        <ele>1119.1</ele>
        <time>2022-08-02T09:09:06Z</time>
      </trkpt>
      <trkpt lat="44.71554" lon="3.22475">
        <ele>1118</ele>
        <time>2022-08-02T09:09:17Z</time>
      </trkpt>
      <trkpt lat="44.71551" lon="3.22474">
        <ele>1117.8</ele>
        <time>2022-08-02T09:09:19Z</time>
      </trkpt>
      <trkpt lat="44.7154" lon="3.22471">
        <ele>1116.8</ele>
        <time>2022-08-02T09:09:28Z</time>
      </trkpt>
      <trkpt lat="44.71538" lon="3.22468">
        <ele>1116.6</ele>
        <time>2022-08-02T09:09:30Z</time>
      </trkpt>
      <trkpt lat="44.71534" lon="3.2246">
        <ele>1116.1</ele>
        <time>2022-08-02T09:09:36Z</time>
      </trkpt>
      <trkpt lat="44.71534" lon="3.22459">
        <ele>1116</ele>
        <time>2022-08-02T09:09:37Z</time>
      </trkpt>
      <trkpt lat="44.71534" lon="3.22455">
        <ele>1115.9</ele>
        <time>2022-08-02T09:09:39Z</time>
      </trkpt>
      <trkpt lat="44.71533" lon="3.22449">
        <ele>1115.7</ele>
        <time>2022-08-02T09:09:43Z</time>
      </trkpt>
      <trkpt lat="44.71533" lon="3.22442">
        <ele>1115.6</ele>
        <time>2022-08-02T09:09:46Z</time>
      </trkpt>
      <trkpt lat="44.71533" lon="3.22438">
        <ele>1115.6</ele>
        <time>2022-08-02T09:09:48Z</time>
      </trkpt>
      <trkpt lat="44.71533" lon="3.22436">
        <ele>1115.5</ele>
        <time>2022-08-02T09:09:49Z</time>
      </trkpt>
      <trkpt lat="44.71533" lon="3.22432">
        <ele>1115.5</ele>
        <time>2022-08-02T09:09:51Z</time>
      </trkpt>
      <trkpt lat="44.71532" lon="3.22424">
        <ele>1115.4</ele>
        <time>2022-08-02T09:09:55Z</time>
      </trkpt>
      <trkpt lat="44.71534" lon="3.2242">
        <ele>1115.4</ele>
        <time>2022-08-02T09:09:58Z</time>
      </trkpt>
      <trkpt lat="44.71534" lon="3.22412">
        <ele>1115.3</ele>
        <time>2022-08-02T09:10:04Z</time>
      </trkpt>
      <trkpt lat="44.71535" lon="3.22418">
        <ele>1115.5</ele>
        <time>2022-08-02T09:10:10Z</time>
      </trkpt>
      <trkpt lat="44.71534" lon="3.22418">
        <ele>1115.5</ele>
        <time>2022-08-02T09:10:12Z</time>
      </trkpt>
      <trkpt lat="44.71533" lon="3.22416">
        <ele>1115.3</ele>
        <time>2022-08-02T09:10:14Z</time>
      </trkpt>
      <trkpt lat="44.71533" lon="3.22411">
        <ele>1115.1</ele>
        <time>2022-08-02T09:10:17Z</time>
      </trkpt>
      <trkpt lat="44.71532" lon="3.22404">
        <ele>1114.8</ele>
        <time>2022-08-02T09:10:20Z</time>
      </trkpt>
      <trkpt lat="44.71532" lon="3.22395">
        <ele>1114.5</ele>
        <time>2022-08-02T09:10:25Z</time>
      </trkpt>
      <trkpt lat="44.71531" lon="3.22389">
        <ele>1114.2</ele>
        <time>2022-08-02T09:10:28Z</time>
      </trkpt>
      <trkpt lat="44.71531" lon="3.22387">
        <ele>1114.1</ele>
        <time>2022-08-02T09:10:29Z</time>
      </trkpt>
      <trkpt lat="44.71531" lon="3.22384">
        <ele>1114</ele>
        <time>2022-08-02T09:10:31Z</time>
      </trkpt>
      <trkpt lat="44.71531" lon="3.2238">
        <ele>1113.9</ele>
        <time>2022-08-02T09:10:33Z</time>
      </trkpt>
      <trkpt lat="44.71531" lon="3.22378">
        <ele>1113.8</ele>
        <time>2022-08-02T09:10:34Z</time>
      </trkpt>
      <trkpt lat="44.7153" lon="3.22372">
        <ele>1113.5</ele>
        <time>2022-08-02T09:10:37Z</time>
      </trkpt>
      <trkpt lat="44.71529" lon="3.22368">
        <ele>1113.3</ele>
        <time>2022-08-02T09:10:40Z</time>
      </trkpt>
      <trkpt lat="44.71528" lon="3.22359">
        <ele>1113</ele>
        <time>2022-08-02T09:10:45Z</time>
      </trkpt>
      <trkpt lat="44.71528" lon="3.22356">
        <ele>1113</ele>
        <time>2022-08-02T09:10:47Z</time>
      </trkpt>
      <trkpt lat="44.71526" lon="3.22345">
        <ele>1112.9</ele>
        <time>2022-08-02T09:10:54Z</time>
      </trkpt>
      <trkpt lat="44.71526" lon="3.22341">
        <ele>1112.9</ele>
        <time>2022-08-02T09:10:56Z</time>
      </trkpt>
      <trkpt lat="44.71526" lon="3.22339">
        <ele>1112.9</ele>
        <time>2022-08-02T09:10:58Z</time>
      </trkpt>
      <trkpt lat="44.71526" lon="3.22335">
        <ele>1112.8</ele>
        <time>2022-08-02T09:11:00Z</time>
      </trkpt>
      <trkpt lat="44.71525" lon="3.22324">
        <ele>1112.5</ele>
        <time>2022-08-02T09:11:07Z</time>
      </trkpt>
      <trkpt lat="44.71522" lon="3.22308">
        <ele>1111.8</ele>
        <time>2022-08-02T09:11:17Z</time>
      </trkpt>
      <trkpt lat="44.7152" lon="3.22293">
        <ele>1111.7</ele>
        <time>2022-08-02T09:11:26Z</time>
      </trkpt>
      <trkpt lat="44.71516" lon="3.2228">
        <ele>1111.6</ele>
        <time>2022-08-02T09:11:34Z</time>
      </trkpt>
      <trkpt lat="44.71516" lon="3.22278">
        <ele>1111.6</ele>
        <time>2022-08-02T09:11:35Z</time>
      </trkpt>
      <trkpt lat="44.71516" lon="3.22277">
        <ele>1111.6</ele>
        <time>2022-08-02T09:11:36Z</time>
      </trkpt>
      <trkpt lat="44.71512" lon="3.22264">
        <ele>1111.4</ele>
        <time>2022-08-02T09:11:44Z</time>
      </trkpt>
      <trkpt lat="44.71512" lon="3.22263">
        <ele>1111.4</ele>
        <time>2022-08-02T09:11:45Z</time>
      </trkpt>
      <trkpt lat="44.71507" lon="3.22258">
        <ele>1111.3</ele>
        <time>2022-08-02T09:11:50Z</time>
      </trkpt>
      <trkpt lat="44.71494" lon="3.2225">
        <ele>1111</ele>
        <time>2022-08-02T09:12:01Z</time>
      </trkpt>
      <trkpt lat="44.71488" lon="3.22243">
        <ele>1111.3</ele>
        <time>2022-08-02T09:12:08Z</time>
      </trkpt>
      <trkpt lat="44.71486" lon="3.2224">
        <ele>1111.3</ele>
        <time>2022-08-02T09:12:10Z</time>
      </trkpt>
      <trkpt lat="44.71486" lon="3.2224">
        <ele>1111.4</ele>
        <time>2022-08-02T09:12:11Z</time>
      </trkpt>
      <trkpt lat="44.71481" lon="3.22234">
        <ele>1111.6</ele>
        <time>2022-08-02T09:12:16Z</time>
      </trkpt>
      <trkpt lat="44.7148" lon="3.22219">
        <ele>1112.1</ele>
        <time>2022-08-02T09:12:24Z</time>
      </trkpt>
      <trkpt lat="44.7148" lon="3.22216">
        <ele>1112.2</ele>
        <time>2022-08-02T09:12:26Z</time>
      </trkpt>
      <trkpt lat="44.71479" lon="3.22213">
        <ele>1112.3</ele>
        <time>2022-08-02T09:12:28Z</time>
      </trkpt>
      <trkpt lat="44.71478" lon="3.2221">
        <ele>1112.4</ele>
        <time>2022-08-02T09:12:30Z</time>
      </trkpt>
      <trkpt lat="44.7147" lon="3.22199">
        <ele>1112.8</ele>
        <time>2022-08-02T09:12:40Z</time>
      </trkpt>
      <trkpt lat="44.71466" lon="3.22193">
        <ele>1113</ele>
        <time>2022-08-02T09:12:45Z</time>
      </trkpt>
      <trkpt lat="44.71462" lon="3.22188">
        <ele>1113.1</ele>
        <time>2022-08-02T09:12:49Z</time>
      </trkpt>
      <trkpt lat="44.71458" lon="3.22181">
        <ele>1113.3</ele>
        <time>2022-08-02T09:12:55Z</time>
      </trkpt>
      <trkpt lat="44.71457" lon="3.22179">
        <ele>1113.3</ele>
        <time>2022-08-02T09:12:56Z</time>
      </trkpt>
      <trkpt lat="44.7145" lon="3.2217">
        <ele>1113.7</ele>
        <time>2022-08-02T09:13:05Z</time>
      </trkpt>
      <trkpt lat="44.71443" lon="3.22159">
        <ele>1114.3</ele>
        <time>2022-08-02T09:13:14Z</time>
      </trkpt>
      <trkpt lat="44.71438" lon="3.22151">
        <ele>1114.7</ele>
        <time>2022-08-02T09:13:22Z</time>
      </trkpt>
      <trkpt lat="44.71434" lon="3.22145">
        <ele>1115.1</ele>
        <time>2022-08-02T09:13:27Z</time>
      </trkpt>
      <trkpt lat="44.71432" lon="3.22142">
        <ele>1115.3</ele>
        <time>2022-08-02T09:13:29Z</time>
      </trkpt>
      <trkpt lat="44.71432" lon="3.22141">
        <ele>1115.4</ele>
        <time>2022-08-02T09:13:30Z</time>
      </trkpt>
      <trkpt lat="44.71424" lon="3.22128">
        <ele>1116</ele>
        <time>2022-08-02T09:13:41Z</time>
      </trkpt>
      <trkpt lat="44.71419" lon="3.2212">
        <ele>1116.5</ele>
        <time>2022-08-02T09:13:48Z</time>
      </trkpt>
      <trkpt lat="44.71419" lon="3.22118">
        <ele>1116.6</ele>
        <time>2022-08-02T09:13:49Z</time>
      </trkpt>
      <trkpt lat="44.71414" lon="3.22108">
        <ele>1117.2</ele>
        <time>2022-08-02T09:13:56Z</time>
      </trkpt>
      <trkpt lat="44.71413" lon="3.22103">
        <ele>1117.3</ele>
        <time>2022-08-02T09:14:00Z</time>
      </trkpt>
      <trkpt lat="44.71408" lon="3.22095">
        <ele>1117.8</ele>
        <time>2022-08-02T09:14:07Z</time>
      </trkpt>
      <trkpt lat="44.71406" lon="3.22091">
        <ele>1118</ele>
        <time>2022-08-02T09:14:10Z</time>
      </trkpt>
      <trkpt lat="44.71403" lon="3.22084">
        <ele>1118.5</ele>
        <time>2022-08-02T09:14:16Z</time>
      </trkpt>
      <trkpt lat="44.714" lon="3.22078">
        <ele>1118.8</ele>
        <time>2022-08-02T09:14:21Z</time>
      </trkpt>
      <trkpt lat="44.71399" lon="3.22076">
        <ele>1119</ele>
        <time>2022-08-02T09:14:23Z</time>
      </trkpt>
      <trkpt lat="44.71398" lon="3.22076">
        <ele>1119.1</ele>
        <time>2022-08-02T09:14:24Z</time>
      </trkpt>
      <trkpt lat="44.71392" lon="3.22065">
        <ele>1119.7</ele>
        <time>2022-08-02T09:14:32Z</time>
      </trkpt>
      <trkpt lat="44.71391" lon="3.22063">
        <ele>1119.9</ele>
        <time>2022-08-02T09:14:34Z</time>
      </trkpt>
      <trkpt lat="44.71385" lon="3.22057">
        <ele>1120.3</ele>
        <time>2022-08-02T09:14:40Z</time>
      </trkpt>
      <trkpt lat="44.71379" lon="3.22048">
        <ele>1120.7</ele>
        <time>2022-08-02T09:14:48Z</time>
      </trkpt>
      <trkpt lat="44.71377" lon="3.22046">
        <ele>1120.9</ele>
        <time>2022-08-02T09:14:50Z</time>
      </trkpt>
      <trkpt lat="44.71371" lon="3.22041">
        <ele>1121.3</ele>
        <time>2022-08-02T09:14:56Z</time>
      </trkpt>
      <trkpt lat="44.71371" lon="3.2204">
        <ele>1121.3</ele>
        <time>2022-08-02T09:14:57Z</time>
      </trkpt>
      <trkpt lat="44.71366" lon="3.22036">
        <ele>1121.7</ele>
        <time>2022-08-02T09:15:02Z</time>
      </trkpt>
      <trkpt lat="44.71364" lon="3.22035">
        <ele>1121.8</ele>
        <time>2022-08-02T09:15:04Z</time>
      </trkpt>
      <trkpt lat="44.7136" lon="3.22032">
        <ele>1122</ele>
        <time>2022-08-02T09:15:08Z</time>
      </trkpt>
      <trkpt lat="44.71356" lon="3.22028">
        <ele>1122.2</ele>
        <time>2022-08-02T09:15:13Z</time>
      </trkpt>
      <trkpt lat="44.7135" lon="3.22022">
        <ele>1122.5</ele>
        <time>2022-08-02T09:15:20Z</time>
      </trkpt>
      <trkpt lat="44.71346" lon="3.22019">
        <ele>1122.7</ele>
        <time>2022-08-02T09:15:24Z</time>
      </trkpt>
      <trkpt lat="44.71341" lon="3.22015">
        <ele>1123.1</ele>
        <time>2022-08-02T09:15:29Z</time>
      </trkpt>
      <trkpt lat="44.71339" lon="3.22015">
        <ele>1123.2</ele>
        <time>2022-08-02T09:15:31Z</time>
      </trkpt>
      <trkpt lat="44.7133" lon="3.22009">
        <ele>1123.8</ele>
        <time>2022-08-02T09:15:41Z</time>
      </trkpt>
      <trkpt lat="44.71329" lon="3.22008">
        <ele>1123.9</ele>
        <time>2022-08-02T09:15:43Z</time>
      </trkpt>
      <trkpt lat="44.71327" lon="3.22006">
        <ele>1124</ele>
        <time>2022-08-02T09:15:45Z</time>
      </trkpt>
      <trkpt lat="44.71326" lon="3.22004">
        <ele>1124.1</ele>
        <time>2022-08-02T09:15:47Z</time>
      </trkpt>
      <trkpt lat="44.71319" lon="3.21998">
        <ele>1124.5</ele>
        <time>2022-08-02T09:15:53Z</time>
      </trkpt>
      <trkpt lat="44.71319" lon="3.21998">
        <ele>1124.5</ele>
        <time>2022-08-02T09:15:54Z</time>
      </trkpt>
      <trkpt lat="44.71315" lon="3.21996">
        <ele>1124.7</ele>
        <time>2022-08-02T09:15:57Z</time>
      </trkpt>
      <trkpt lat="44.71313" lon="3.21994">
        <ele>1124.7</ele>
        <time>2022-08-02T09:15:59Z</time>
      </trkpt>
      <trkpt lat="44.71312" lon="3.21994">
        <ele>1124.8</ele>
        <time>2022-08-02T09:16:00Z</time>
      </trkpt>
      <trkpt lat="44.71306" lon="3.2199">
        <ele>1125</ele>
        <time>2022-08-02T09:16:05Z</time>
      </trkpt>
      <trkpt lat="44.71299" lon="3.21984">
        <ele>1125.2</ele>
        <time>2022-08-02T09:16:12Z</time>
      </trkpt>
      <trkpt lat="44.71295" lon="3.2198">
        <ele>1125.4</ele>
        <time>2022-08-02T09:16:16Z</time>
      </trkpt>
      <trkpt lat="44.71292" lon="3.21979">
        <ele>1125.5</ele>
        <time>2022-08-02T09:16:20Z</time>
      </trkpt>
      <trkpt lat="44.71291" lon="3.21976">
        <ele>1125.5</ele>
        <time>2022-08-02T09:16:22Z</time>
      </trkpt>
      <trkpt lat="44.71284" lon="3.2197">
        <ele>1125.8</ele>
        <time>2022-08-02T09:16:26Z</time>
      </trkpt>
      <trkpt lat="44.71283" lon="3.2197">
        <ele>1125.9</ele>
        <time>2022-08-02T09:16:27Z</time>
      </trkpt>
      <trkpt lat="44.71282" lon="3.21969">
        <ele>1125.9</ele>
        <time>2022-08-02T09:16:29Z</time>
      </trkpt>
      <trkpt lat="44.7128" lon="3.21968">
        <ele>1126.1</ele>
        <time>2022-08-02T09:16:32Z</time>
      </trkpt>
      <trkpt lat="44.71272" lon="3.21963">
        <ele>1126.5</ele>
        <time>2022-08-02T09:16:38Z</time>
      </trkpt>
      <trkpt lat="44.71265" lon="3.21959">
        <ele>1126.9</ele>
        <time>2022-08-02T09:16:44Z</time>
      </trkpt>
      <trkpt lat="44.71254" lon="3.21952">
        <ele>1127.6</ele>
        <time>2022-08-02T09:16:52Z</time>
      </trkpt>
      <trkpt lat="44.71251" lon="3.21952">
        <ele>1127.7</ele>
        <time>2022-08-02T09:16:54Z</time>
      </trkpt>
      <trkpt lat="44.71245" lon="3.21947">
        <ele>1128.1</ele>
        <time>2022-08-02T09:17:01Z</time>
      </trkpt>
      <trkpt lat="44.71235" lon="3.21943">
        <ele>1128.6</ele>
        <time>2022-08-02T09:17:11Z</time>
      </trkpt>
      <trkpt lat="44.71234" lon="3.21943">
        <ele>1128.6</ele>
        <time>2022-08-02T09:17:13Z</time>
      </trkpt>
      <trkpt lat="44.71233" lon="3.21944">
        <ele>1128.6</ele>
        <time>2022-08-02T09:17:16Z</time>
      </trkpt>
      <trkpt lat="44.71233" lon="3.21945">
        <ele>1128.6</ele>
        <time>2022-08-02T09:17:17Z</time>
      </trkpt>
      <trkpt lat="44.71232" lon="3.21945">
        <ele>1128.6</ele>
        <time>2022-08-02T09:17:23Z</time>
      </trkpt>
      <trkpt lat="44.71235" lon="3.21947">
        <ele>1128.4</ele>
        <time>2022-08-02T09:17:28Z</time>
      </trkpt>
      <trkpt lat="44.71233" lon="3.21949">
        <ele>1128.3</ele>
        <time>2022-08-02T09:17:35Z</time>
      </trkpt>
      <trkpt lat="44.71232" lon="3.21946">
        <ele>1128.5</ele>
        <time>2022-08-02T09:17:45Z</time>
      </trkpt>
      <trkpt lat="44.71234" lon="3.21944">
        <ele>1128.6</ele>
        <time>2022-08-02T09:17:51Z</time>
      </trkpt>
      <trkpt lat="44.71234" lon="3.21944">
        <ele>1128.6</ele>
        <time>2022-08-02T09:18:01Z</time>
      </trkpt>
      <trkpt lat="44.71229" lon="3.21932">
        <ele>1129.2</ele>
        <time>2022-08-02T09:18:16Z</time>
      </trkpt>
      <trkpt lat="44.71227" lon="3.21928">
        <ele>1129.4</ele>
        <time>2022-08-02T09:18:18Z</time>
      </trkpt>
      <trkpt lat="44.71225" lon="3.21925">
        <ele>1129.6</ele>
        <time>2022-08-02T09:18:20Z</time>
      </trkpt>
      <trkpt lat="44.71224" lon="3.21924">
        <ele>1129.7</ele>
        <time>2022-08-02T09:18:21Z</time>
      </trkpt>
      <trkpt lat="44.71223" lon="3.21927">
        <ele>1129.6</ele>
        <time>2022-08-02T09:18:30Z</time>
      </trkpt>
      <trkpt lat="44.71219" lon="3.21925">
        <ele>1129.7</ele>
        <time>2022-08-02T09:18:43Z</time>
      </trkpt>
      <trkpt lat="44.71219" lon="3.21925">
        <ele>1129.7</ele>
        <time>2022-08-02T09:18:50Z</time>
      </trkpt>
      <trkpt lat="44.7122" lon="3.21924">
        <ele>1129.7</ele>
        <time>2022-08-02T09:19:01Z</time>
      </trkpt>
      <trkpt lat="44.7122" lon="3.21923">
        <ele>1129.8</ele>
        <time>2022-08-02T09:20:56Z</time>
      </trkpt>
      <trkpt lat="44.71219" lon="3.21915">
        <ele>1130</ele>
        <time>2022-08-02T09:21:28Z</time>
      </trkpt>
      <trkpt lat="44.71215" lon="3.21904">
        <ele>1130.1</ele>
        <time>2022-08-02T09:21:34Z</time>
      </trkpt>
      <trkpt lat="44.71215" lon="3.21902">
        <ele>1130.1</ele>
        <time>2022-08-02T09:21:35Z</time>
      </trkpt>
      <trkpt lat="44.71212" lon="3.21893">
        <ele>1130.3</ele>
        <time>2022-08-02T09:21:40Z</time>
      </trkpt>
      <trkpt lat="44.71209" lon="3.21887">
        <ele>1130.5</ele>
        <time>2022-08-02T09:21:45Z</time>
      </trkpt>
      <trkpt lat="44.71207" lon="3.21882">
        <ele>1130.7</ele>
        <time>2022-08-02T09:21:48Z</time>
      </trkpt>
      <trkpt lat="44.712" lon="3.21867">
        <ele>1131</ele>
        <time>2022-08-02T09:21:58Z</time>
      </trkpt>
      <trkpt lat="44.71196" lon="3.21852">
        <ele>1131.3</ele>
        <time>2022-08-02T09:22:08Z</time>
      </trkpt>
      <trkpt lat="44.71191" lon="3.21843">
        <ele>1131.8</ele>
        <time>2022-08-02T09:22:16Z</time>
      </trkpt>
      <trkpt lat="44.71191" lon="3.21842">
        <ele>1131.8</ele>
        <time>2022-08-02T09:22:17Z</time>
      </trkpt>
      <trkpt lat="44.71191" lon="3.21843">
        <ele>1131.8</ele>
        <time>2022-08-02T09:22:23Z</time>
      </trkpt>
      <trkpt lat="44.71191" lon="3.21843">
        <ele>1131.8</ele>
        <time>2022-08-02T09:22:26Z</time>
      </trkpt>
      <trkpt lat="44.71192" lon="3.21839">
        <ele>1131.9</ele>
        <time>2022-08-02T09:22:30Z</time>
      </trkpt>
      <trkpt lat="44.71192" lon="3.21839">
        <ele>1131.9</ele>
        <time>2022-08-02T09:22:33Z</time>
      </trkpt>
      <trkpt lat="44.71192" lon="3.21839">
        <ele>1131.9</ele>
        <time>2022-08-02T09:22:35Z</time>
      </trkpt>
      <trkpt lat="44.71192" lon="3.21839">
        <ele>1131.9</ele>
        <time>2022-08-02T09:22:36Z</time>
      </trkpt>
      <trkpt lat="44.71192" lon="3.21839">
        <ele>1131.9</ele>
        <time>2022-08-02T09:22:38Z</time>
      </trkpt>
      <trkpt lat="44.7119" lon="3.21836">
        <ele>1132.1</ele>
        <time>2022-08-02T09:22:46Z</time>
      </trkpt>
      <trkpt lat="44.71188" lon="3.21834">
        <ele>1132.2</ele>
        <time>2022-08-02T09:22:48Z</time>
      </trkpt>
      <trkpt lat="44.71188" lon="3.21833">
        <ele>1132.3</ele>
        <time>2022-08-02T09:22:49Z</time>
      </trkpt>
      <trkpt lat="44.71187" lon="3.21831">
        <ele>1132.3</ele>
        <time>2022-08-02T09:22:50Z</time>
      </trkpt>
      <trkpt lat="44.71186" lon="3.21829">
        <ele>1132.4</ele>
        <time>2022-08-02T09:22:52Z</time>
      </trkpt>
      <trkpt lat="44.71186" lon="3.21828">
        <ele>1132.4</ele>
        <time>2022-08-02T09:22:53Z</time>
      </trkpt>
      <trkpt lat="44.71186" lon="3.21828">
        <ele>1132.3</ele>
        <time>2022-08-02T09:22:54Z</time>
      </trkpt>
      <trkpt lat="44.71186" lon="3.21828">
        <ele>1132.3</ele>
        <time>2022-08-02T09:22:55Z</time>
      </trkpt>
      <trkpt lat="44.71187" lon="3.21831">
        <ele>1132.3</ele>
        <time>2022-08-02T09:22:57Z</time>
      </trkpt>
      <trkpt lat="44.71186" lon="3.21831">
        <ele>1132.3</ele>
        <time>2022-08-02T09:22:59Z</time>
      </trkpt>
      <trkpt lat="44.71184" lon="3.21831">
        <ele>1132.4</ele>
        <time>2022-08-02T09:23:01Z</time>
      </trkpt>
      <trkpt lat="44.71183" lon="3.2183">
        <ele>1132.5</ele>
        <time>2022-08-02T09:23:02Z</time>
      </trkpt>
      <trkpt lat="44.71178" lon="3.21828">
        <ele>1132.7</ele>
        <time>2022-08-02T09:23:08Z</time>
      </trkpt>
      <trkpt lat="44.71176" lon="3.21831">
        <ele>1132.7</ele>
        <time>2022-08-02T09:23:12Z</time>
      </trkpt>
      <trkpt lat="44.71175" lon="3.21832">
        <ele>1132.8</ele>
        <time>2022-08-02T09:23:14Z</time>
      </trkpt>
      <trkpt lat="44.71173" lon="3.21831">
        <ele>1132.8</ele>
        <time>2022-08-02T09:23:15Z</time>
      </trkpt>
      <trkpt lat="44.71172" lon="3.21831">
        <ele>1132.9</ele>
        <time>2022-08-02T09:23:16Z</time>
      </trkpt>
      <trkpt lat="44.7117" lon="3.21831">
        <ele>1133</ele>
        <time>2022-08-02T09:23:18Z</time>
      </trkpt>
      <trkpt lat="44.71169" lon="3.21831">
        <ele>1133</ele>
        <time>2022-08-02T09:23:20Z</time>
      </trkpt>
      <trkpt lat="44.71168" lon="3.21832">
        <ele>1133</ele>
        <time>2022-08-02T09:23:22Z</time>
      </trkpt>
      <trkpt lat="44.71165" lon="3.21832">
        <ele>1133.1</ele>
        <time>2022-08-02T09:23:26Z</time>
      </trkpt>
      <trkpt lat="44.71164" lon="3.21832">
        <ele>1133.1</ele>
        <time>2022-08-02T09:23:27Z</time>
      </trkpt>
      <trkpt lat="44.71163" lon="3.21832">
        <ele>1133.2</ele>
        <time>2022-08-02T09:23:28Z</time>
      </trkpt>
      <trkpt lat="44.71161" lon="3.21833">
        <ele>1133.2</ele>
        <time>2022-08-02T09:23:30Z</time>
      </trkpt>
      <trkpt lat="44.71159" lon="3.21833">
        <ele>1133.3</ele>
        <time>2022-08-02T09:23:31Z</time>
      </trkpt>
      <trkpt lat="44.71158" lon="3.21834">
        <ele>1133.3</ele>
        <time>2022-08-02T09:23:32Z</time>
      </trkpt>
      <trkpt lat="44.71157" lon="3.21834">
        <ele>1133.3</ele>
        <time>2022-08-02T09:23:33Z</time>
      </trkpt>
      <trkpt lat="44.71156" lon="3.21834">
        <ele>1133.4</ele>
        <time>2022-08-02T09:23:34Z</time>
      </trkpt>
      <trkpt lat="44.71155" lon="3.21834">
        <ele>1133.4</ele>
        <time>2022-08-02T09:23:35Z</time>
      </trkpt>
      <trkpt lat="44.71154" lon="3.21834">
        <ele>1133.4</ele>
        <time>2022-08-02T09:23:36Z</time>
      </trkpt>
      <trkpt lat="44.71153" lon="3.21835">
        <ele>1133.4</ele>
        <time>2022-08-02T09:23:38Z</time>
      </trkpt>
      <trkpt lat="44.71152" lon="3.21835">
        <ele>1133.5</ele>
        <time>2022-08-02T09:23:40Z</time>
      </trkpt>
      <trkpt lat="44.71151" lon="3.21835">
        <ele>1133.5</ele>
        <time>2022-08-02T09:23:41Z</time>
      </trkpt>
      <trkpt lat="44.7115" lon="3.21835">
        <ele>1133.5</ele>
        <time>2022-08-02T09:23:42Z</time>
      </trkpt>
      <trkpt lat="44.71148" lon="3.21834">
        <ele>1133.7</ele>
        <time>2022-08-02T09:23:44Z</time>
      </trkpt>
      <trkpt lat="44.71145" lon="3.21834">
        <ele>1133.8</ele>
        <time>2022-08-02T09:23:46Z</time>
      </trkpt>
      <trkpt lat="44.71139" lon="3.21835">
        <ele>1133.9</ele>
        <time>2022-08-02T09:23:50Z</time>
      </trkpt>
      <trkpt lat="44.71138" lon="3.21835">
        <ele>1134</ele>
        <time>2022-08-02T09:23:51Z</time>
      </trkpt>
      <trkpt lat="44.71136" lon="3.21834">
        <ele>1134.1</ele>
        <time>2022-08-02T09:23:53Z</time>
      </trkpt>
      <trkpt lat="44.71133" lon="3.21835">
        <ele>1134.2</ele>
        <time>2022-08-02T09:23:56Z</time>
      </trkpt>
      <trkpt lat="44.71132" lon="3.21834">
        <ele>1134.2</ele>
        <time>2022-08-02T09:23:57Z</time>
      </trkpt>
      <trkpt lat="44.7113" lon="3.21834">
        <ele>1134.3</ele>
        <time>2022-08-02T09:24:02Z</time>
      </trkpt>
      <trkpt lat="44.7113" lon="3.21834">
        <ele>1134.3</ele>
        <time>2022-08-02T09:24:03Z</time>
      </trkpt>
      <trkpt lat="44.71129" lon="3.21832">
        <ele>1134.4</ele>
        <time>2022-08-02T09:24:05Z</time>
      </trkpt>
      <trkpt lat="44.71127" lon="3.21832">
        <ele>1134.5</ele>
        <time>2022-08-02T09:24:08Z</time>
      </trkpt>
      <trkpt lat="44.71125" lon="3.21831">
        <ele>1134.6</ele>
        <time>2022-08-02T09:24:10Z</time>
      </trkpt>
      <trkpt lat="44.7112" lon="3.21827">
        <ele>1134.9</ele>
        <time>2022-08-02T09:24:12Z</time>
      </trkpt>
      <trkpt lat="44.71117" lon="3.21827">
        <ele>1135</ele>
        <time>2022-08-02T09:24:14Z</time>
      </trkpt>
      <trkpt lat="44.71111" lon="3.21822">
        <ele>1135.4</ele>
        <time>2022-08-02T09:24:18Z</time>
      </trkpt>
      <trkpt lat="44.7111" lon="3.21822">
        <ele>1135.4</ele>
        <time>2022-08-02T09:24:19Z</time>
      </trkpt>
      <trkpt lat="44.71108" lon="3.21822">
        <ele>1135.5</ele>
        <time>2022-08-02T09:24:22Z</time>
      </trkpt>
      <trkpt lat="44.71106" lon="3.21821">
        <ele>1135.6</ele>
        <time>2022-08-02T09:24:24Z</time>
      </trkpt>
      <trkpt lat="44.71105" lon="3.21821">
        <ele>1135.7</ele>
        <time>2022-08-02T09:24:25Z</time>
      </trkpt>
      <trkpt lat="44.71095" lon="3.2182">
        <ele>1136.1</ele>
        <time>2022-08-02T09:24:34Z</time>
      </trkpt>
      <trkpt lat="44.71093" lon="3.2182">
        <ele>1136.1</ele>
        <time>2022-08-02T09:24:35Z</time>
      </trkpt>
      <trkpt lat="44.71092" lon="3.2182">
        <ele>1136.2</ele>
        <time>2022-08-02T09:24:36Z</time>
      </trkpt>
      <trkpt lat="44.7109" lon="3.21819">
        <ele>1136.3</ele>
        <time>2022-08-02T09:24:38Z</time>
      </trkpt>
      <trkpt lat="44.71088" lon="3.21819">
        <ele>1136.4</ele>
        <time>2022-08-02T09:24:40Z</time>
      </trkpt>
      <trkpt lat="44.71087" lon="3.21818">
        <ele>1136.4</ele>
        <time>2022-08-02T09:24:41Z</time>
      </trkpt>
      <trkpt lat="44.71086" lon="3.21817">
        <ele>1136.5</ele>
        <time>2022-08-02T09:24:42Z</time>
      </trkpt>
      <trkpt lat="44.71083" lon="3.21816">
        <ele>1136.6</ele>
        <time>2022-08-02T09:24:46Z</time>
      </trkpt>
      <trkpt lat="44.71082" lon="3.21815">
        <ele>1136.7</ele>
        <time>2022-08-02T09:24:47Z</time>
      </trkpt>
      <trkpt lat="44.71081" lon="3.21813">
        <ele>1136.8</ele>
        <time>2022-08-02T09:24:49Z</time>
      </trkpt>
      <trkpt lat="44.71078" lon="3.21811">
        <ele>1137</ele>
        <time>2022-08-02T09:24:51Z</time>
      </trkpt>
      <trkpt lat="44.71076" lon="3.2181">
        <ele>1137.1</ele>
        <time>2022-08-02T09:24:53Z</time>
      </trkpt>
      <trkpt lat="44.71075" lon="3.21811">
        <ele>1137.1</ele>
        <time>2022-08-02T09:24:54Z</time>
      </trkpt>
      <trkpt lat="44.71073" lon="3.21811">
        <ele>1137.2</ele>
        <time>2022-08-02T09:24:55Z</time>
      </trkpt>
      <trkpt lat="44.71072" lon="3.2181">
        <ele>1137.2</ele>
        <time>2022-08-02T09:24:56Z</time>
      </trkpt>
      <trkpt lat="44.71069" lon="3.21809">
        <ele>1137.4</ele>
        <time>2022-08-02T09:24:58Z</time>
      </trkpt>
      <trkpt lat="44.71068" lon="3.21808">
        <ele>1137.5</ele>
        <time>2022-08-02T09:24:59Z</time>
      </trkpt>
      <trkpt lat="44.71066" lon="3.21808">
        <ele>1137.5</ele>
        <time>2022-08-02T09:25:00Z</time>
      </trkpt>
      <trkpt lat="44.71065" lon="3.21808">
        <ele>1137.6</ele>
        <time>2022-08-02T09:25:01Z</time>
      </trkpt>
      <trkpt lat="44.71062" lon="3.21809">
        <ele>1137.6</ele>
        <time>2022-08-02T09:25:03Z</time>
      </trkpt>
      <trkpt lat="44.71058" lon="3.21808">
        <ele>1137.8</ele>
        <time>2022-08-02T09:25:07Z</time>
      </trkpt>
      <trkpt lat="44.71057" lon="3.21807">
        <ele>1137.9</ele>
        <time>2022-08-02T09:25:08Z</time>
      </trkpt>
      <trkpt lat="44.71054" lon="3.21807">
        <ele>1138</ele>
        <time>2022-08-02T09:25:11Z</time>
      </trkpt>
      <trkpt lat="44.71047" lon="3.21804">
        <ele>1138.4</ele>
        <time>2022-08-02T09:25:17Z</time>
      </trkpt>
      <trkpt lat="44.71041" lon="3.21802">
        <ele>1138.9</ele>
        <time>2022-08-02T09:25:21Z</time>
      </trkpt>
      <trkpt lat="44.7104" lon="3.21803">
        <ele>1138.8</ele>
        <time>2022-08-02T09:25:23Z</time>
      </trkpt>
      <trkpt lat="44.71037" lon="3.21803">
        <ele>1138.9</ele>
        <time>2022-08-02T09:25:25Z</time>
      </trkpt>
      <trkpt lat="44.71035" lon="3.21804">
        <ele>1138.9</ele>
        <time>2022-08-02T09:25:27Z</time>
      </trkpt>
      <trkpt lat="44.71032" lon="3.21804">
        <ele>1139</ele>
        <time>2022-08-02T09:25:30Z</time>
      </trkpt>
      <trkpt lat="44.71031" lon="3.21804">
        <ele>1139.1</ele>
        <time>2022-08-02T09:25:31Z</time>
      </trkpt>
      <trkpt lat="44.71029" lon="3.21804">
        <ele>1139.2</ele>
        <time>2022-08-02T09:25:32Z</time>
      </trkpt>
      <trkpt lat="44.71026" lon="3.21803">
        <ele>1139.3</ele>
        <time>2022-08-02T09:25:35Z</time>
      </trkpt>
      <trkpt lat="44.71023" lon="3.21803">
        <ele>1139.6</ele>
        <time>2022-08-02T09:25:38Z</time>
      </trkpt>
      <trkpt lat="44.7102" lon="3.21803">
        <ele>1139.8</ele>
        <time>2022-08-02T09:25:41Z</time>
      </trkpt>
      <trkpt lat="44.71019" lon="3.21803">
        <ele>1139.9</ele>
        <time>2022-08-02T09:25:42Z</time>
      </trkpt>
      <trkpt lat="44.71014" lon="3.21803">
        <ele>1140.3</ele>
        <time>2022-08-02T09:25:47Z</time>
      </trkpt>
      <trkpt lat="44.71011" lon="3.21803">
        <ele>1140.4</ele>
        <time>2022-08-02T09:25:49Z</time>
      </trkpt>
      <trkpt lat="44.71005" lon="3.21804">
        <ele>1140.8</ele>
        <time>2022-08-02T09:25:55Z</time>
      </trkpt>
      <trkpt lat="44.71003" lon="3.21805">
        <ele>1140.8</ele>
        <time>2022-08-02T09:25:57Z</time>
      </trkpt>
      <trkpt lat="44.70998" lon="3.21804">
        <ele>1141.2</ele>
        <time>2022-08-02T09:26:02Z</time>
      </trkpt>
      <trkpt lat="44.70996" lon="3.21805">
        <ele>1141.3</ele>
        <time>2022-08-02T09:26:04Z</time>
      </trkpt>
      <trkpt lat="44.70991" lon="3.21804">
        <ele>1141.8</ele>
        <time>2022-08-02T09:26:08Z</time>
      </trkpt>
      <trkpt lat="44.70987" lon="3.21805">
        <ele>1142</ele>
        <time>2022-08-02T09:26:12Z</time>
      </trkpt>
      <trkpt lat="44.70984" lon="3.21806">
        <ele>1142.1</ele>
        <time>2022-08-02T09:26:14Z</time>
      </trkpt>
      <trkpt lat="44.70982" lon="3.21809">
        <ele>1142.1</ele>
        <time>2022-08-02T09:26:16Z</time>
      </trkpt>
      <trkpt lat="44.7098" lon="3.21809">
        <ele>1142.1</ele>
        <time>2022-08-02T09:26:17Z</time>
      </trkpt>
      <trkpt lat="44.70979" lon="3.2181">
        <ele>1142.2</ele>
        <time>2022-08-02T09:26:18Z</time>
      </trkpt>
      <trkpt lat="44.70978" lon="3.2181">
        <ele>1142.3</ele>
        <time>2022-08-02T09:26:19Z</time>
      </trkpt>
      <trkpt lat="44.70972" lon="3.21811">
        <ele>1142.6</ele>
        <time>2022-08-02T09:26:24Z</time>
      </trkpt>
      <trkpt lat="44.70968" lon="3.21812">
        <ele>1142.9</ele>
        <time>2022-08-02T09:26:27Z</time>
      </trkpt>
      <trkpt lat="44.70962" lon="3.21815">
        <ele>1143.2</ele>
        <time>2022-08-02T09:26:33Z</time>
      </trkpt>
      <trkpt lat="44.70951" lon="3.21817">
        <ele>1144</ele>
        <time>2022-08-02T09:26:43Z</time>
      </trkpt>
      <trkpt lat="44.70946" lon="3.2182">
        <ele>1144.3</ele>
        <time>2022-08-02T09:26:49Z</time>
      </trkpt>
      <trkpt lat="44.70946" lon="3.21819">
        <ele>1144.4</ele>
        <time>2022-08-02T09:26:50Z</time>
      </trkpt>
      <trkpt lat="44.70946" lon="3.21819">
        <ele>1144.4</ele>
        <time>2022-08-02T09:26:51Z</time>
      </trkpt>
      <trkpt lat="44.70946" lon="3.21819">
        <ele>1144.4</ele>
        <time>2022-08-02T09:26:52Z</time>
      </trkpt>
      <trkpt lat="44.70944" lon="3.2182">
        <ele>1144.6</ele>
        <time>2022-08-02T09:26:54Z</time>
      </trkpt>
      <trkpt lat="44.70942" lon="3.21821">
        <ele>1144.7</ele>
        <time>2022-08-02T09:26:56Z</time>
      </trkpt>
      <trkpt lat="44.70939" lon="3.21821">
        <ele>1144.9</ele>
        <time>2022-08-02T09:26:58Z</time>
      </trkpt>
      <trkpt lat="44.70937" lon="3.21821">
        <ele>1145</ele>
        <time>2022-08-02T09:26:59Z</time>
      </trkpt>
      <trkpt lat="44.70936" lon="3.21822">
        <ele>1145.1</ele>
        <time>2022-08-02T09:27:01Z</time>
      </trkpt>
      <trkpt lat="44.70931" lon="3.21826">
        <ele>1145.2</ele>
        <time>2022-08-02T09:27:06Z</time>
      </trkpt>
      <trkpt lat="44.7093" lon="3.21826">
        <ele>1145.3</ele>
        <time>2022-08-02T09:27:07Z</time>
      </trkpt>
      <trkpt lat="44.70928" lon="3.21826">
        <ele>1145.4</ele>
        <time>2022-08-02T09:27:09Z</time>
      </trkpt>
      <trkpt lat="44.70925" lon="3.21828">
        <ele>1145.6</ele>
        <time>2022-08-02T09:27:11Z</time>
      </trkpt>
      <trkpt lat="44.70924" lon="3.21828">
        <ele>1145.7</ele>
        <time>2022-08-02T09:27:12Z</time>
      </trkpt>
      <trkpt lat="44.70916" lon="3.21831">
        <ele>1146.2</ele>
        <time>2022-08-02T09:27:19Z</time>
      </trkpt>
      <trkpt lat="44.70915" lon="3.21832">
        <ele>1146.3</ele>
        <time>2022-08-02T09:27:20Z</time>
      </trkpt>
      <trkpt lat="44.70911" lon="3.21833">
        <ele>1146.8</ele>
        <time>2022-08-02T09:27:23Z</time>
      </trkpt>
      <trkpt lat="44.70909" lon="3.21835">
        <ele>1147</ele>
        <time>2022-08-02T09:27:25Z</time>
      </trkpt>
      <trkpt lat="44.70909" lon="3.21836">
        <ele>1147.1</ele>
        <time>2022-08-02T09:27:26Z</time>
      </trkpt>
      <trkpt lat="44.70908" lon="3.21836">
        <ele>1147.2</ele>
        <time>2022-08-02T09:27:27Z</time>
      </trkpt>
      <trkpt lat="44.70906" lon="3.21837">
        <ele>1147.3</ele>
        <time>2022-08-02T09:27:30Z</time>
      </trkpt>
      <trkpt lat="44.70902" lon="3.2184">
        <ele>1147.8</ele>
        <time>2022-08-02T09:27:33Z</time>
      </trkpt>
      <trkpt lat="44.70899" lon="3.2184">
        <ele>1148.2</ele>
        <time>2022-08-02T09:27:35Z</time>
      </trkpt>
      <trkpt lat="44.70896" lon="3.21842">
        <ele>1148.4</ele>
        <time>2022-08-02T09:27:37Z</time>
      </trkpt>
      <trkpt lat="44.70895" lon="3.21846">
        <ele>1148.4</ele>
        <time>2022-08-02T09:27:39Z</time>
      </trkpt>
      <trkpt lat="44.70888" lon="3.21849">
        <ele>1149.1</ele>
        <time>2022-08-02T09:27:45Z</time>
      </trkpt>
      <trkpt lat="44.70886" lon="3.21852">
        <ele>1149.2</ele>
        <time>2022-08-02T09:27:47Z</time>
      </trkpt>
      <trkpt lat="44.70884" lon="3.21855">
        <ele>1149.4</ele>
        <time>2022-08-02T09:27:50Z</time>
      </trkpt>
      <trkpt lat="44.70882" lon="3.21855">
        <ele>1149.6</ele>
        <time>2022-08-02T09:27:52Z</time>
      </trkpt>
      <trkpt lat="44.7088" lon="3.21856">
        <ele>1150</ele>
        <time>2022-08-02T09:27:54Z</time>
      </trkpt>
      <trkpt lat="44.70877" lon="3.21857">
        <ele>1150.3</ele>
        <time>2022-08-02T09:27:56Z</time>
      </trkpt>
      <trkpt lat="44.70872" lon="3.21859">
        <ele>1151.2</ele>
        <time>2022-08-02T09:28:00Z</time>
      </trkpt>
      <trkpt lat="44.70871" lon="3.21859">
        <ele>1151.3</ele>
        <time>2022-08-02T09:28:01Z</time>
      </trkpt>
      <trkpt lat="44.7087" lon="3.21859">
        <ele>1151.5</ele>
        <time>2022-08-02T09:28:02Z</time>
      </trkpt>
      <trkpt lat="44.70867" lon="3.21862">
        <ele>1151.9</ele>
        <time>2022-08-02T09:28:06Z</time>
      </trkpt>
      <trkpt lat="44.70864" lon="3.21864">
        <ele>1152.2</ele>
        <time>2022-08-02T09:28:09Z</time>
      </trkpt>
      <trkpt lat="44.70863" lon="3.21865">
        <ele>1152.3</ele>
        <time>2022-08-02T09:28:10Z</time>
      </trkpt>
      <trkpt lat="44.70859" lon="3.21867">
        <ele>1153.1</ele>
        <time>2022-08-02T09:28:15Z</time>
      </trkpt>
      <trkpt lat="44.70858" lon="3.21867">
        <ele>1153.3</ele>
        <time>2022-08-02T09:28:16Z</time>
      </trkpt>
      <trkpt lat="44.70854" lon="3.21867">
        <ele>1154.3</ele>
        <time>2022-08-02T09:28:20Z</time>
      </trkpt>
      <trkpt lat="44.70851" lon="3.21867">
        <ele>1155.2</ele>
        <time>2022-08-02T09:28:23Z</time>
      </trkpt>
      <trkpt lat="44.70848" lon="3.21869">
        <ele>1155.8</ele>
        <time>2022-08-02T09:28:26Z</time>
      </trkpt>
      <trkpt lat="44.70847" lon="3.21869">
        <ele>1156.1</ele>
        <time>2022-08-02T09:28:27Z</time>
      </trkpt>
      <trkpt lat="44.70841" lon="3.21869">
        <ele>1157.6</ele>
        <time>2022-08-02T09:28:32Z</time>
      </trkpt>
      <trkpt lat="44.7084" lon="3.21868">
        <ele>1157.9</ele>
        <time>2022-08-02T09:28:34Z</time>
      </trkpt>
      <trkpt lat="44.70837" lon="3.21869">
        <ele>1158.5</ele>
        <time>2022-08-02T09:28:37Z</time>
      </trkpt>
      <trkpt lat="44.70836" lon="3.2187">
        <ele>1158.7</ele>
        <time>2022-08-02T09:28:39Z</time>
      </trkpt>
      <trkpt lat="44.70834" lon="3.2187">
        <ele>1159.3</ele>
        <time>2022-08-02T09:28:41Z</time>
      </trkpt>
      <trkpt lat="44.70831" lon="3.2187">
        <ele>1159.7</ele>
        <time>2022-08-02T09:28:43Z</time>
      </trkpt>
      <trkpt lat="44.70831" lon="3.2187">
        <ele>1159.8</ele>
        <time>2022-08-02T09:28:44Z</time>
      </trkpt>
      <trkpt lat="44.70829" lon="3.21871">
        <ele>1160.1</ele>
        <time>2022-08-02T09:28:46Z</time>
      </trkpt>
      <trkpt lat="44.70826" lon="3.21872">
        <ele>1160.6</ele>
        <time>2022-08-02T09:28:49Z</time>
      </trkpt>
      <trkpt lat="44.70824" lon="3.21871">
        <ele>1160.9</ele>
        <time>2022-08-02T09:28:51Z</time>
      </trkpt>
      <trkpt lat="44.70823" lon="3.21872">
        <ele>1161.2</ele>
        <time>2022-08-02T09:28:54Z</time>
      </trkpt>
      <trkpt lat="44.7082" lon="3.21873">
        <ele>1161.6</ele>
        <time>2022-08-02T09:28:56Z</time>
      </trkpt>
      <trkpt lat="44.70819" lon="3.21872">
        <ele>1161.8</ele>
        <time>2022-08-02T09:28:57Z</time>
      </trkpt>
      <trkpt lat="44.70818" lon="3.21872">
        <ele>1162.1</ele>
        <time>2022-08-02T09:28:58Z</time>
      </trkpt>
      <trkpt lat="44.70816" lon="3.21872">
        <ele>1162.4</ele>
        <time>2022-08-02T09:29:00Z</time>
      </trkpt>
      <trkpt lat="44.70814" lon="3.21871">
        <ele>1162.8</ele>
        <time>2022-08-02T09:29:02Z</time>
      </trkpt>
      <trkpt lat="44.70812" lon="3.21872">
        <ele>1163</ele>
        <time>2022-08-02T09:29:04Z</time>
      </trkpt>
      <trkpt lat="44.70811" lon="3.21873">
        <ele>1163.2</ele>
        <time>2022-08-02T09:29:05Z</time>
      </trkpt>
      <trkpt lat="44.7081" lon="3.21873">
        <ele>1163.3</ele>
        <time>2022-08-02T09:29:06Z</time>
      </trkpt>
      <trkpt lat="44.70809" lon="3.21874">
        <ele>1163.4</ele>
        <time>2022-08-02T09:29:07Z</time>
      </trkpt>
      <trkpt lat="44.70807" lon="3.21874">
        <ele>1163.8</ele>
        <time>2022-08-02T09:29:09Z</time>
      </trkpt>
      <trkpt lat="44.70801" lon="3.21871">
        <ele>1165</ele>
        <time>2022-08-02T09:29:14Z</time>
      </trkpt>
      <trkpt lat="44.70798" lon="3.2187">
        <ele>1165.5</ele>
        <time>2022-08-02T09:29:17Z</time>
      </trkpt>
      <trkpt lat="44.70797" lon="3.2187">
        <ele>1165.6</ele>
        <time>2022-08-02T09:29:18Z</time>
      </trkpt>
      <trkpt lat="44.70794" lon="3.21871">
        <ele>1166</ele>
        <time>2022-08-02T09:29:21Z</time>
      </trkpt>
      <trkpt lat="44.70794" lon="3.21871">
        <ele>1166</ele>
        <time>2022-08-02T09:29:22Z</time>
      </trkpt>
      <trkpt lat="44.7079" lon="3.21872">
        <ele>1166.4</ele>
        <time>2022-08-02T09:29:25Z</time>
      </trkpt>
      <trkpt lat="44.70787" lon="3.21873">
        <ele>1166.9</ele>
        <time>2022-08-02T09:29:28Z</time>
      </trkpt>
      <trkpt lat="44.70786" lon="3.21873">
        <ele>1166.9</ele>
        <time>2022-08-02T09:29:31Z</time>
      </trkpt>
      <trkpt lat="44.70787" lon="3.21874">
        <ele>1166.8</ele>
        <time>2022-08-02T09:29:33Z</time>
      </trkpt>
      <trkpt lat="44.70788" lon="3.21875">
        <ele>1166.6</ele>
        <time>2022-08-02T09:29:37Z</time>
      </trkpt>
      <trkpt lat="44.70788" lon="3.21875">
        <ele>1166.6</ele>
        <time>2022-08-02T09:29:39Z</time>
      </trkpt>
      <trkpt lat="44.70788" lon="3.21875">
        <ele>1166.6</ele>
        <time>2022-08-02T09:29:43Z</time>
      </trkpt>
      <trkpt lat="44.70788" lon="3.21875">
        <ele>1166.6</ele>
        <time>2022-08-02T09:29:47Z</time>
      </trkpt>
      <trkpt lat="44.70788" lon="3.21875">
        <ele>1166.6</ele>
        <time>2022-08-02T09:29:55Z</time>
      </trkpt>
      <trkpt lat="44.70789" lon="3.21874">
        <ele>1166.5</ele>
        <time>2022-08-02T09:30:09Z</time>
      </trkpt>
      <trkpt lat="44.70781" lon="3.21875">
        <ele>1167.5</ele>
        <time>2022-08-02T09:30:15Z</time>
      </trkpt>
      <trkpt lat="44.70769" lon="3.21875">
        <ele>1168.7</ele>
        <time>2022-08-02T09:30:23Z</time>
      </trkpt>
      <trkpt lat="44.70768" lon="3.21875">
        <ele>1168.8</ele>
        <time>2022-08-02T09:30:24Z</time>
      </trkpt>
      <trkpt lat="44.70767" lon="3.21875">
        <ele>1168.8</ele>
        <time>2022-08-02T09:30:25Z</time>
      </trkpt>
      <trkpt lat="44.70766" lon="3.21875">
        <ele>1168.9</ele>
        <time>2022-08-02T09:30:26Z</time>
      </trkpt>
      <trkpt lat="44.70763" lon="3.21872">
        <ele>1169.3</ele>
        <time>2022-08-02T09:30:29Z</time>
      </trkpt>
      <trkpt lat="44.70762" lon="3.21872">
        <ele>1169.4</ele>
        <time>2022-08-02T09:30:30Z</time>
      </trkpt>
      <trkpt lat="44.70761" lon="3.21871">
        <ele>1169.5</ele>
        <time>2022-08-02T09:30:31Z</time>
      </trkpt>
      <trkpt lat="44.70756" lon="3.21871">
        <ele>1169.9</ele>
        <time>2022-08-02T09:30:35Z</time>
      </trkpt>
      <trkpt lat="44.70755" lon="3.2187">
        <ele>1170</ele>
        <time>2022-08-02T09:30:36Z</time>
      </trkpt>
      <trkpt lat="44.70754" lon="3.21869">
        <ele>1170.1</ele>
        <time>2022-08-02T09:30:37Z</time>
      </trkpt>
      <trkpt lat="44.7075" lon="3.21866">
        <ele>1170.6</ele>
        <time>2022-08-02T09:30:41Z</time>
      </trkpt>
      <trkpt lat="44.70749" lon="3.21866">
        <ele>1170.7</ele>
        <time>2022-08-02T09:30:42Z</time>
      </trkpt>
      <trkpt lat="44.70749" lon="3.21867">
        <ele>1170.6</ele>
        <time>2022-08-02T09:30:43Z</time>
      </trkpt>
      <trkpt lat="44.70748" lon="3.21868">
        <ele>1170.6</ele>
        <time>2022-08-02T09:30:45Z</time>
      </trkpt>
      <trkpt lat="44.70745" lon="3.21866">
        <ele>1170.9</ele>
        <time>2022-08-02T09:30:48Z</time>
      </trkpt>
      <trkpt lat="44.70739" lon="3.21865">
        <ele>1171.1</ele>
        <time>2022-08-02T09:30:52Z</time>
      </trkpt>
      <trkpt lat="44.70738" lon="3.21861">
        <ele>1171.4</ele>
        <time>2022-08-02T09:30:54Z</time>
      </trkpt>
      <trkpt lat="44.70732" lon="3.21858">
        <ele>1171.8</ele>
        <time>2022-08-02T09:30:59Z</time>
      </trkpt>
      <trkpt lat="44.70731" lon="3.21857">
        <ele>1171.9</ele>
        <time>2022-08-02T09:31:00Z</time>
      </trkpt>
      <trkpt lat="44.7073" lon="3.21857">
        <ele>1171.9</ele>
        <time>2022-08-02T09:31:01Z</time>
      </trkpt>
      <trkpt lat="44.70729" lon="3.21857">
        <ele>1171.9</ele>
        <time>2022-08-02T09:31:02Z</time>
      </trkpt>
      <trkpt lat="44.70725" lon="3.21857">
        <ele>1172.1</ele>
        <time>2022-08-02T09:31:05Z</time>
      </trkpt>
      <trkpt lat="44.70722" lon="3.21858">
        <ele>1172.1</ele>
        <time>2022-08-02T09:31:07Z</time>
      </trkpt>
      <trkpt lat="44.70714" lon="3.21856">
        <ele>1172.5</ele>
        <time>2022-08-02T09:31:15Z</time>
      </trkpt>
      <trkpt lat="44.70711" lon="3.21856">
        <ele>1172.6</ele>
        <time>2022-08-02T09:31:17Z</time>
      </trkpt>
      <trkpt lat="44.70703" lon="3.21855">
        <ele>1172.9</ele>
        <time>2022-08-02T09:31:23Z</time>
      </trkpt>
      <trkpt lat="44.70701" lon="3.21855">
        <ele>1173</ele>
        <time>2022-08-02T09:31:25Z</time>
      </trkpt>
      <trkpt lat="44.70693" lon="3.21855">
        <ele>1173.3</ele>
        <time>2022-08-02T09:31:32Z</time>
      </trkpt>
      <trkpt lat="44.70684" lon="3.21854">
        <ele>1173.9</ele>
        <time>2022-08-02T09:31:40Z</time>
      </trkpt>
      <trkpt lat="44.70679" lon="3.21856">
        <ele>1174.2</ele>
        <time>2022-08-02T09:31:45Z</time>
      </trkpt>
      <trkpt lat="44.70672" lon="3.21855">
        <ele>1174.7</ele>
        <time>2022-08-02T09:31:50Z</time>
      </trkpt>
      <trkpt lat="44.70661" lon="3.21857">
        <ele>1175.2</ele>
        <time>2022-08-02T09:31:59Z</time>
      </trkpt>
      <trkpt lat="44.70655" lon="3.21859">
        <ele>1175.4</ele>
        <time>2022-08-02T09:32:04Z</time>
      </trkpt>
      <trkpt lat="44.70648" lon="3.21857">
        <ele>1175.7</ele>
        <time>2022-08-02T09:32:10Z</time>
      </trkpt>
      <trkpt lat="44.70636" lon="3.21857">
        <ele>1176</ele>
        <time>2022-08-02T09:32:19Z</time>
      </trkpt>
      <trkpt lat="44.70628" lon="3.21858">
        <ele>1176</ele>
        <time>2022-08-02T09:32:26Z</time>
      </trkpt>
      <trkpt lat="44.70617" lon="3.21856">
        <ele>1176.1</ele>
        <time>2022-08-02T09:32:36Z</time>
      </trkpt>
      <trkpt lat="44.70615" lon="3.21857">
        <ele>1176.1</ele>
        <time>2022-08-02T09:32:38Z</time>
      </trkpt>
      <trkpt lat="44.7061" lon="3.21858">
        <ele>1176.2</ele>
        <time>2022-08-02T09:32:42Z</time>
      </trkpt>
      <trkpt lat="44.70605" lon="3.21858">
        <ele>1176.3</ele>
        <time>2022-08-02T09:32:46Z</time>
      </trkpt>
      <trkpt lat="44.70604" lon="3.21857">
        <ele>1176.4</ele>
        <time>2022-08-02T09:32:47Z</time>
      </trkpt>
      <trkpt lat="44.70596" lon="3.21858">
        <ele>1176.7</ele>
        <time>2022-08-02T09:32:53Z</time>
      </trkpt>
      <trkpt lat="44.70585" lon="3.21861">
        <ele>1177</ele>
        <time>2022-08-02T09:33:02Z</time>
      </trkpt>
      <trkpt lat="44.70582" lon="3.21861">
        <ele>1177</ele>
        <time>2022-08-02T09:33:05Z</time>
      </trkpt>
      <trkpt lat="44.70579" lon="3.21861">
        <ele>1177</ele>
        <time>2022-08-02T09:33:07Z</time>
      </trkpt>
      <trkpt lat="44.70576" lon="3.2186">
        <ele>1177</ele>
        <time>2022-08-02T09:33:10Z</time>
      </trkpt>
      <trkpt lat="44.70575" lon="3.2186">
        <ele>1177</ele>
        <time>2022-08-02T09:33:11Z</time>
      </trkpt>
      <trkpt lat="44.70562" lon="3.21857">
        <ele>1177.2</ele>
        <time>2022-08-02T09:33:22Z</time>
      </trkpt>
      <trkpt lat="44.70561" lon="3.21857">
        <ele>1177.2</ele>
        <time>2022-08-02T09:33:23Z</time>
      </trkpt>
      <trkpt lat="44.70559" lon="3.21857">
        <ele>1177.1</ele>
        <time>2022-08-02T09:33:25Z</time>
      </trkpt>
      <trkpt lat="44.7055" lon="3.21854">
        <ele>1177.5</ele>
        <time>2022-08-02T09:33:32Z</time>
      </trkpt>
      <trkpt lat="44.70548" lon="3.21854">
        <ele>1177.5</ele>
        <time>2022-08-02T09:33:33Z</time>
      </trkpt>
      <trkpt lat="44.70546" lon="3.21853">
        <ele>1177.7</ele>
        <time>2022-08-02T09:33:35Z</time>
      </trkpt>
      <trkpt lat="44.70542" lon="3.21851">
        <ele>1177.8</ele>
        <time>2022-08-02T09:33:38Z</time>
      </trkpt>
      <trkpt lat="44.7054" lon="3.21851">
        <ele>1177.9</ele>
        <time>2022-08-02T09:33:40Z</time>
      </trkpt>
      <trkpt lat="44.70531" lon="3.21848">
        <ele>1178.4</ele>
        <time>2022-08-02T09:33:48Z</time>
      </trkpt>
      <trkpt lat="44.70519" lon="3.21846">
        <ele>1178.7</ele>
        <time>2022-08-02T09:33:57Z</time>
      </trkpt>
      <trkpt lat="44.70514" lon="3.21846">
        <ele>1178.8</ele>
        <time>2022-08-02T09:34:02Z</time>
      </trkpt>
      <trkpt lat="44.70511" lon="3.21845">
        <ele>1178.9</ele>
        <time>2022-08-02T09:34:04Z</time>
      </trkpt>
      <trkpt lat="44.70509" lon="3.21845">
        <ele>1179</ele>
        <time>2022-08-02T09:34:06Z</time>
      </trkpt>
      <trkpt lat="44.70507" lon="3.21845">
        <ele>1179</ele>
        <time>2022-08-02T09:34:08Z</time>
      </trkpt>
      <trkpt lat="44.705" lon="3.21843">
        <ele>1179.3</ele>
        <time>2022-08-02T09:34:14Z</time>
      </trkpt>
      <trkpt lat="44.70499" lon="3.21843">
        <ele>1179.4</ele>
        <time>2022-08-02T09:34:15Z</time>
      </trkpt>
      <trkpt lat="44.70492" lon="3.21838">
        <ele>1180</ele>
        <time>2022-08-02T09:34:22Z</time>
      </trkpt>
      <trkpt lat="44.70486" lon="3.21834">
        <ele>1180.4</ele>
        <time>2022-08-02T09:34:27Z</time>
      </trkpt>
      <trkpt lat="44.70484" lon="3.21832">
        <ele>1180.6</ele>
        <time>2022-08-02T09:34:29Z</time>
      </trkpt>
      <trkpt lat="44.70483" lon="3.21831">
        <ele>1180.7</ele>
        <time>2022-08-02T09:34:32Z</time>
      </trkpt>
      <trkpt lat="44.70478" lon="3.21828">
        <ele>1181</ele>
        <time>2022-08-02T09:34:40Z</time>
      </trkpt>
      <trkpt lat="44.70474" lon="3.21822">
        <ele>1181.4</ele>
        <time>2022-08-02T09:34:45Z</time>
      </trkpt>
      <trkpt lat="44.70472" lon="3.21822">
        <ele>1181.4</ele>
        <time>2022-08-02T09:34:47Z</time>
      </trkpt>
      <trkpt lat="44.70465" lon="3.2182">
        <ele>1181.7</ele>
        <time>2022-08-02T09:34:53Z</time>
      </trkpt>
      <trkpt lat="44.70463" lon="3.21819">
        <ele>1181.9</ele>
        <time>2022-08-02T09:34:55Z</time>
      </trkpt>
      <trkpt lat="44.7046" lon="3.21817">
        <ele>1182</ele>
        <time>2022-08-02T09:34:58Z</time>
      </trkpt>
      <trkpt lat="44.70457" lon="3.21815">
        <ele>1182.2</ele>
        <time>2022-08-02T09:35:01Z</time>
      </trkpt>
      <trkpt lat="44.70456" lon="3.21815">
        <ele>1182.3</ele>
        <time>2022-08-02T09:35:04Z</time>
      </trkpt>
      <trkpt lat="44.70452" lon="3.21814">
        <ele>1182.4</ele>
        <time>2022-08-02T09:35:09Z</time>
      </trkpt>
      <trkpt lat="44.70448" lon="3.21813">
        <ele>1182.6</ele>
        <time>2022-08-02T09:35:13Z</time>
      </trkpt>
      <trkpt lat="44.70445" lon="3.21812">
        <ele>1182.8</ele>
        <time>2022-08-02T09:35:15Z</time>
      </trkpt>
      <trkpt lat="44.70439" lon="3.2181">
        <ele>1183.3</ele>
        <time>2022-08-02T09:35:20Z</time>
      </trkpt>
      <trkpt lat="44.70436" lon="3.21808">
        <ele>1183.5</ele>
        <time>2022-08-02T09:35:23Z</time>
      </trkpt>
      <trkpt lat="44.70432" lon="3.21807">
        <ele>1183.8</ele>
        <time>2022-08-02T09:35:26Z</time>
      </trkpt>
      <trkpt lat="44.70432" lon="3.21807">
        <ele>1183.9</ele>
        <time>2022-08-02T09:35:27Z</time>
      </trkpt>
      <trkpt lat="44.70427" lon="3.21807">
        <ele>1184.2</ele>
        <time>2022-08-02T09:35:30Z</time>
      </trkpt>
      <trkpt lat="44.70425" lon="3.21808">
        <ele>1184.3</ele>
        <time>2022-08-02T09:35:32Z</time>
      </trkpt>
      <trkpt lat="44.70424" lon="3.21807">
        <ele>1184.4</ele>
        <time>2022-08-02T09:35:33Z</time>
      </trkpt>
      <trkpt lat="44.70422" lon="3.21806">
        <ele>1184.6</ele>
        <time>2022-08-02T09:35:35Z</time>
      </trkpt>
      <trkpt lat="44.70419" lon="3.21805">
        <ele>1184.9</ele>
        <time>2022-08-02T09:35:38Z</time>
      </trkpt>
      <trkpt lat="44.70413" lon="3.21801">
        <ele>1185.1</ele>
        <time>2022-08-02T09:35:43Z</time>
      </trkpt>
      <trkpt lat="44.70412" lon="3.21801">
        <ele>1185.2</ele>
        <time>2022-08-02T09:35:44Z</time>
      </trkpt>
      <trkpt lat="44.70407" lon="3.21799">
        <ele>1185.4</ele>
        <time>2022-08-02T09:35:49Z</time>
      </trkpt>
      <trkpt lat="44.70405" lon="3.21798">
        <ele>1185.5</ele>
        <time>2022-08-02T09:35:51Z</time>
      </trkpt>
      <trkpt lat="44.704" lon="3.21796">
        <ele>1185.8</ele>
        <time>2022-08-02T09:35:55Z</time>
      </trkpt>
      <trkpt lat="44.70399" lon="3.21795">
        <ele>1185.9</ele>
        <time>2022-08-02T09:35:56Z</time>
      </trkpt>
      <trkpt lat="44.70394" lon="3.21792">
        <ele>1186.2</ele>
        <time>2022-08-02T09:36:03Z</time>
      </trkpt>
      <trkpt lat="44.70394" lon="3.21792">
        <ele>1186.2</ele>
        <time>2022-08-02T09:36:04Z</time>
      </trkpt>
      <trkpt lat="44.70391" lon="3.21791">
        <ele>1186.4</ele>
        <time>2022-08-02T09:36:07Z</time>
      </trkpt>
      <trkpt lat="44.70388" lon="3.21791">
        <ele>1186.6</ele>
        <time>2022-08-02T09:36:10Z</time>
      </trkpt>
      <trkpt lat="44.70385" lon="3.21791">
        <ele>1186.6</ele>
        <time>2022-08-02T09:36:12Z</time>
      </trkpt>
      <trkpt lat="44.70383" lon="3.21791">
        <ele>1186.6</ele>
        <time>2022-08-02T09:36:14Z</time>
      </trkpt>
      <trkpt lat="44.70381" lon="3.2179">
        <ele>1186.7</ele>
        <time>2022-08-02T09:36:16Z</time>
      </trkpt>
      <trkpt lat="44.7038" lon="3.21789">
        <ele>1186.7</ele>
        <time>2022-08-02T09:36:17Z</time>
      </trkpt>
      <trkpt lat="44.70376" lon="3.21788">
        <ele>1186.8</ele>
        <time>2022-08-02T09:36:20Z</time>
      </trkpt>
      <trkpt lat="44.70372" lon="3.21786">
        <ele>1186.9</ele>
        <time>2022-08-02T09:36:24Z</time>
      </trkpt>
      <trkpt lat="44.70369" lon="3.21786">
        <ele>1186.9</ele>
        <time>2022-08-02T09:36:26Z</time>
      </trkpt>
      <trkpt lat="44.70365" lon="3.21784">
        <ele>1187</ele>
        <time>2022-08-02T09:36:30Z</time>
      </trkpt>
      <trkpt lat="44.70357" lon="3.21782">
        <ele>1187.2</ele>
        <time>2022-08-02T09:36:37Z</time>
      </trkpt>
      <trkpt lat="44.70356" lon="3.21782">
        <ele>1187.2</ele>
        <time>2022-08-02T09:36:38Z</time>
      </trkpt>
      <trkpt lat="44.70344" lon="3.21782">
        <ele>1187.6</ele>
        <time>2022-08-02T09:36:48Z</time>
      </trkpt>
      <trkpt lat="44.70341" lon="3.21781">
        <ele>1187.7</ele>
        <time>2022-08-02T09:36:50Z</time>
      </trkpt>
      <trkpt lat="44.70337" lon="3.2178">
        <ele>1187.9</ele>
        <time>2022-08-02T09:36:53Z</time>
      </trkpt>
      <trkpt lat="44.70334" lon="3.21779">
        <ele>1188</ele>
        <time>2022-08-02T09:36:56Z</time>
      </trkpt>
      <trkpt lat="44.70326" lon="3.21778">
        <ele>1188</ele>
        <time>2022-08-02T09:37:02Z</time>
      </trkpt>
      <trkpt lat="44.70322" lon="3.21777">
        <ele>1188</ele>
        <time>2022-08-02T09:37:06Z</time>
      </trkpt>
      <trkpt lat="44.70321" lon="3.21777">
        <ele>1188</ele>
        <time>2022-08-02T09:37:07Z</time>
      </trkpt>
      <trkpt lat="44.70313" lon="3.21775">
        <ele>1188</ele>
        <time>2022-08-02T09:37:13Z</time>
      </trkpt>
      <trkpt lat="44.7031" lon="3.21774">
        <ele>1188</ele>
        <time>2022-08-02T09:37:16Z</time>
      </trkpt>
      <trkpt lat="44.70299" lon="3.21771">
        <ele>1187.9</ele>
        <time>2022-08-02T09:37:25Z</time>
      </trkpt>
      <trkpt lat="44.70292" lon="3.21768">
        <ele>1187.8</ele>
        <time>2022-08-02T09:37:32Z</time>
      </trkpt>
      <trkpt lat="44.70289" lon="3.21767">
        <ele>1187.8</ele>
        <time>2022-08-02T09:37:34Z</time>
      </trkpt>
      <trkpt lat="44.70276" lon="3.21763">
        <ele>1187.5</ele>
        <time>2022-08-02T09:37:45Z</time>
      </trkpt>
      <trkpt lat="44.70271" lon="3.21762">
        <ele>1187.5</ele>
        <time>2022-08-02T09:37:49Z</time>
      </trkpt>
      <trkpt lat="44.70262" lon="3.21759">
        <ele>1187.5</ele>
        <time>2022-08-02T09:37:57Z</time>
      </trkpt>
      <trkpt lat="44.70257" lon="3.21758">
        <ele>1187.5</ele>
        <time>2022-08-02T09:38:01Z</time>
      </trkpt>
      <trkpt lat="44.70249" lon="3.21756">
        <ele>1187.4</ele>
        <time>2022-08-02T09:38:07Z</time>
      </trkpt>
      <trkpt lat="44.70242" lon="3.21755">
        <ele>1187.1</ele>
        <time>2022-08-02T09:38:13Z</time>
      </trkpt>
      <trkpt lat="44.70238" lon="3.21754">
        <ele>1186.9</ele>
        <time>2022-08-02T09:38:16Z</time>
      </trkpt>
      <trkpt lat="44.70237" lon="3.21753">
        <ele>1186.8</ele>
        <time>2022-08-02T09:38:17Z</time>
      </trkpt>
      <trkpt lat="44.70228" lon="3.21753">
        <ele>1186.5</ele>
        <time>2022-08-02T09:38:24Z</time>
      </trkpt>
      <trkpt lat="44.70218" lon="3.21754">
        <ele>1186.4</ele>
        <time>2022-08-02T09:38:32Z</time>
      </trkpt>
      <trkpt lat="44.70217" lon="3.21754">
        <ele>1186.4</ele>
        <time>2022-08-02T09:38:33Z</time>
      </trkpt>
      <trkpt lat="44.70215" lon="3.21754">
        <ele>1186.4</ele>
        <time>2022-08-02T09:38:35Z</time>
      </trkpt>
      <trkpt lat="44.70212" lon="3.21755">
        <ele>1186.5</ele>
        <time>2022-08-02T09:38:37Z</time>
      </trkpt>
      <trkpt lat="44.70206" lon="3.21757">
        <ele>1186.6</ele>
        <time>2022-08-02T09:38:42Z</time>
      </trkpt>
      <trkpt lat="44.70195" lon="3.21761">
        <ele>1186.8</ele>
        <time>2022-08-02T09:38:51Z</time>
      </trkpt>
      <trkpt lat="44.70189" lon="3.21763">
        <ele>1186.8</ele>
        <time>2022-08-02T09:38:57Z</time>
      </trkpt>
      <trkpt lat="44.70187" lon="3.21764">
        <ele>1186.7</ele>
        <time>2022-08-02T09:38:59Z</time>
      </trkpt>
      <trkpt lat="44.70177" lon="3.21768">
        <ele>1186.7</ele>
        <time>2022-08-02T09:39:08Z</time>
      </trkpt>
      <trkpt lat="44.70174" lon="3.21769">
        <ele>1186.6</ele>
        <time>2022-08-02T09:39:11Z</time>
      </trkpt>
      <trkpt lat="44.7017" lon="3.2177">
        <ele>1186.5</ele>
        <time>2022-08-02T09:39:14Z</time>
      </trkpt>
      <trkpt lat="44.70168" lon="3.2177">
        <ele>1186.5</ele>
        <time>2022-08-02T09:39:16Z</time>
      </trkpt>
      <trkpt lat="44.70166" lon="3.2177">
        <ele>1186.4</ele>
        <time>2022-08-02T09:39:17Z</time>
      </trkpt>
      <trkpt lat="44.70159" lon="3.21773">
        <ele>1186.3</ele>
        <time>2022-08-02T09:39:23Z</time>
      </trkpt>
      <trkpt lat="44.70154" lon="3.21774">
        <ele>1186.2</ele>
        <time>2022-08-02T09:39:27Z</time>
      </trkpt>
      <trkpt lat="44.70151" lon="3.21774">
        <ele>1186.1</ele>
        <time>2022-08-02T09:39:29Z</time>
      </trkpt>
      <trkpt lat="44.70145" lon="3.21777">
        <ele>1186.2</ele>
        <time>2022-08-02T09:39:34Z</time>
      </trkpt>
      <trkpt lat="44.70141" lon="3.21778">
        <ele>1186.1</ele>
        <time>2022-08-02T09:39:37Z</time>
      </trkpt>
      <trkpt lat="44.70136" lon="3.21777">
        <ele>1185.9</ele>
        <time>2022-08-02T09:39:42Z</time>
      </trkpt>
      <trkpt lat="44.70131" lon="3.21778">
        <ele>1186</ele>
        <time>2022-08-02T09:39:47Z</time>
      </trkpt>
      <trkpt lat="44.70126" lon="3.21778">
        <ele>1186</ele>
        <time>2022-08-02T09:39:51Z</time>
      </trkpt>
      <trkpt lat="44.70125" lon="3.21778">
        <ele>1186</ele>
        <time>2022-08-02T09:39:52Z</time>
      </trkpt>
      <trkpt lat="44.70122" lon="3.21777">
        <ele>1186</ele>
        <time>2022-08-02T09:39:54Z</time>
      </trkpt>
      <trkpt lat="44.70121" lon="3.21778">
        <ele>1186</ele>
        <time>2022-08-02T09:39:55Z</time>
      </trkpt>
      <trkpt lat="44.70118" lon="3.21777">
        <ele>1185.9</ele>
        <time>2022-08-02T09:39:57Z</time>
      </trkpt>
      <trkpt lat="44.70108" lon="3.21774">
        <ele>1185.9</ele>
        <time>2022-08-02T09:40:04Z</time>
      </trkpt>
      <trkpt lat="44.70107" lon="3.21774">
        <ele>1185.8</ele>
        <time>2022-08-02T09:40:05Z</time>
      </trkpt>
      <trkpt lat="44.70101" lon="3.21773">
        <ele>1185.9</ele>
        <time>2022-08-02T09:40:10Z</time>
      </trkpt>
      <trkpt lat="44.70099" lon="3.21772">
        <ele>1185.9</ele>
        <time>2022-08-02T09:40:12Z</time>
      </trkpt>
      <trkpt lat="44.70098" lon="3.21772">
        <ele>1185.9</ele>
        <time>2022-08-02T09:40:13Z</time>
      </trkpt>
      <trkpt lat="44.70094" lon="3.2177">
        <ele>1185.9</ele>
        <time>2022-08-02T09:40:18Z</time>
      </trkpt>
      <trkpt lat="44.70086" lon="3.21767">
        <ele>1185.8</ele>
        <time>2022-08-02T09:40:26Z</time>
      </trkpt>
      <trkpt lat="44.70084" lon="3.21767">
        <ele>1185.8</ele>
        <time>2022-08-02T09:40:29Z</time>
      </trkpt>
      <trkpt lat="44.70084" lon="3.21766">
        <ele>1185.7</ele>
        <time>2022-08-02T09:40:32Z</time>
      </trkpt>
      <trkpt lat="44.70083" lon="3.21765">
        <ele>1185.6</ele>
        <time>2022-08-02T09:40:33Z</time>
      </trkpt>
      <trkpt lat="44.70081" lon="3.21763">
        <ele>1185.5</ele>
        <time>2022-08-02T09:40:35Z</time>
      </trkpt>
      <trkpt lat="44.70077" lon="3.21761">
        <ele>1185.5</ele>
        <time>2022-08-02T09:40:38Z</time>
      </trkpt>
      <trkpt lat="44.70076" lon="3.2176">
        <ele>1185.6</ele>
        <time>2022-08-02T09:40:39Z</time>
      </trkpt>
      <trkpt lat="44.70067" lon="3.21755">
        <ele>1185.6</ele>
        <time>2022-08-02T09:40:46Z</time>
      </trkpt>
      <trkpt lat="44.70063" lon="3.21753">
        <ele>1185.7</ele>
        <time>2022-08-02T09:40:50Z</time>
      </trkpt>
      <trkpt lat="44.70061" lon="3.21752">
        <ele>1185.7</ele>
        <time>2022-08-02T09:40:51Z</time>
      </trkpt>
      <trkpt lat="44.70059" lon="3.21751">
        <ele>1185.8</ele>
        <time>2022-08-02T09:40:52Z</time>
      </trkpt>
      <trkpt lat="44.7005" lon="3.21744">
        <ele>1186</ele>
        <time>2022-08-02T09:41:01Z</time>
      </trkpt>
      <trkpt lat="44.70048" lon="3.21742">
        <ele>1186</ele>
        <time>2022-08-02T09:41:03Z</time>
      </trkpt>
      <trkpt lat="44.70046" lon="3.21742">
        <ele>1186.1</ele>
        <time>2022-08-02T09:41:05Z</time>
      </trkpt>
      <trkpt lat="44.70043" lon="3.21741">
        <ele>1186.2</ele>
        <time>2022-08-02T09:41:07Z</time>
      </trkpt>
      <trkpt lat="44.70041" lon="3.2174">
        <ele>1186.3</ele>
        <time>2022-08-02T09:41:10Z</time>
      </trkpt>
      <trkpt lat="44.70038" lon="3.21738">
        <ele>1186.4</ele>
        <time>2022-08-02T09:41:12Z</time>
      </trkpt>
      <trkpt lat="44.70034" lon="3.21735">
        <ele>1186.5</ele>
        <time>2022-08-02T09:41:15Z</time>
      </trkpt>
      <trkpt lat="44.70033" lon="3.21734">
        <ele>1186.4</ele>
        <time>2022-08-02T09:41:16Z</time>
      </trkpt>
      <trkpt lat="44.70023" lon="3.21726">
        <ele>1186.6</ele>
        <time>2022-08-02T09:41:25Z</time>
      </trkpt>
      <trkpt lat="44.70018" lon="3.21722">
        <ele>1186.7</ele>
        <time>2022-08-02T09:41:30Z</time>
      </trkpt>
      <trkpt lat="44.70015" lon="3.21718">
        <ele>1186.7</ele>
        <time>2022-08-02T09:41:34Z</time>
      </trkpt>
      <trkpt lat="44.70014" lon="3.21717">
        <ele>1186.7</ele>
        <time>2022-08-02T09:41:35Z</time>
      </trkpt>
      <trkpt lat="44.70004" lon="3.21712">
        <ele>1187</ele>
        <time>2022-08-02T09:41:44Z</time>
      </trkpt>
      <trkpt lat="44.7" lon="3.2171">
        <ele>1187.1</ele>
        <time>2022-08-02T09:41:48Z</time>
      </trkpt>
      <trkpt lat="44.69998" lon="3.21709">
        <ele>1187.2</ele>
        <time>2022-08-02T09:41:51Z</time>
      </trkpt>
      <trkpt lat="44.69987" lon="3.21702">
        <ele>1187.5</ele>
        <time>2022-08-02T09:41:59Z</time>
      </trkpt>
      <trkpt lat="44.69983" lon="3.217">
        <ele>1187.6</ele>
        <time>2022-08-02T09:42:02Z</time>
      </trkpt>
      <trkpt lat="44.69976" lon="3.21692">
        <ele>1187.5</ele>
        <time>2022-08-02T09:42:10Z</time>
      </trkpt>
      <trkpt lat="44.69975" lon="3.21691">
        <ele>1187.6</ele>
        <time>2022-08-02T09:42:11Z</time>
      </trkpt>
      <trkpt lat="44.69972" lon="3.21689">
        <ele>1187.7</ele>
        <time>2022-08-02T09:42:14Z</time>
      </trkpt>
      <trkpt lat="44.6997" lon="3.21689">
        <ele>1187.7</ele>
        <time>2022-08-02T09:42:16Z</time>
      </trkpt>
      <trkpt lat="44.69968" lon="3.21687">
        <ele>1187.8</ele>
        <time>2022-08-02T09:42:18Z</time>
      </trkpt>
      <trkpt lat="44.69959" lon="3.21679">
        <ele>1187.9</ele>
        <time>2022-08-02T09:42:27Z</time>
      </trkpt>
      <trkpt lat="44.69948" lon="3.2167">
        <ele>1188</ele>
        <time>2022-08-02T09:42:37Z</time>
      </trkpt>
      <trkpt lat="44.69941" lon="3.21664">
        <ele>1187.9</ele>
        <time>2022-08-02T09:42:44Z</time>
      </trkpt>
      <trkpt lat="44.6993" lon="3.21658">
        <ele>1187.9</ele>
        <time>2022-08-02T09:42:53Z</time>
      </trkpt>
      <trkpt lat="44.69929" lon="3.21658">
        <ele>1187.9</ele>
        <time>2022-08-02T09:42:54Z</time>
      </trkpt>
      <trkpt lat="44.69924" lon="3.21656">
        <ele>1188</ele>
        <time>2022-08-02T09:42:58Z</time>
      </trkpt>
      <trkpt lat="44.69922" lon="3.21655">
        <ele>1188</ele>
        <time>2022-08-02T09:43:00Z</time>
      </trkpt>
      <trkpt lat="44.69921" lon="3.21654">
        <ele>1187.9</ele>
        <time>2022-08-02T09:43:02Z</time>
      </trkpt>
      <trkpt lat="44.6992" lon="3.21653">
        <ele>1187.9</ele>
        <time>2022-08-02T09:43:03Z</time>
      </trkpt>
      <trkpt lat="44.69909" lon="3.21647">
        <ele>1188.1</ele>
        <time>2022-08-02T09:43:13Z</time>
      </trkpt>
      <trkpt lat="44.69899" lon="3.21641">
        <ele>1188.4</ele>
        <time>2022-08-02T09:43:22Z</time>
      </trkpt>
      <trkpt lat="44.69889" lon="3.21633">
        <ele>1188.8</ele>
        <time>2022-08-02T09:43:31Z</time>
      </trkpt>
      <trkpt lat="44.69879" lon="3.21627">
        <ele>1189.1</ele>
        <time>2022-08-02T09:43:40Z</time>
      </trkpt>
      <trkpt lat="44.69865" lon="3.21619">
        <ele>1189.4</ele>
        <time>2022-08-02T09:43:53Z</time>
      </trkpt>
      <trkpt lat="44.69862" lon="3.21618">
        <ele>1189.5</ele>
        <time>2022-08-02T09:43:56Z</time>
      </trkpt>
      <trkpt lat="44.69857" lon="3.21616">
        <ele>1189.6</ele>
        <time>2022-08-02T09:44:00Z</time>
      </trkpt>
      <trkpt lat="44.69854" lon="3.21614">
        <ele>1189.7</ele>
        <time>2022-08-02T09:44:03Z</time>
      </trkpt>
      <trkpt lat="44.69849" lon="3.2161">
        <ele>1189.8</ele>
        <time>2022-08-02T09:44:08Z</time>
      </trkpt>
      <trkpt lat="44.6984" lon="3.21603">
        <ele>1190</ele>
        <time>2022-08-02T09:44:16Z</time>
      </trkpt>
      <trkpt lat="44.69836" lon="3.216">
        <ele>1190</ele>
        <time>2022-08-02T09:44:20Z</time>
      </trkpt>
      <trkpt lat="44.6983" lon="3.21594">
        <ele>1189.9</ele>
        <time>2022-08-02T09:44:26Z</time>
      </trkpt>
      <trkpt lat="44.69827" lon="3.21593">
        <ele>1189.9</ele>
        <time>2022-08-02T09:44:28Z</time>
      </trkpt>
      <trkpt lat="44.69821" lon="3.21589">
        <ele>1189.9</ele>
        <time>2022-08-02T09:44:34Z</time>
      </trkpt>
      <trkpt lat="44.69816" lon="3.21586">
        <ele>1189.8</ele>
        <time>2022-08-02T09:44:38Z</time>
      </trkpt>
      <trkpt lat="44.69805" lon="3.21578">
        <ele>1189.7</ele>
        <time>2022-08-02T09:44:48Z</time>
      </trkpt>
      <trkpt lat="44.69796" lon="3.21573">
        <ele>1190</ele>
        <time>2022-08-02T09:44:56Z</time>
      </trkpt>
      <trkpt lat="44.6979" lon="3.21569">
        <ele>1190.1</ele>
        <time>2022-08-02T09:45:01Z</time>
      </trkpt>
      <trkpt lat="44.69787" lon="3.21567">
        <ele>1190.2</ele>
        <time>2022-08-02T09:45:04Z</time>
      </trkpt>
      <trkpt lat="44.69779" lon="3.21563">
        <ele>1190.4</ele>
        <time>2022-08-02T09:45:11Z</time>
      </trkpt>
      <trkpt lat="44.69775" lon="3.21559">
        <ele>1190.5</ele>
        <time>2022-08-02T09:45:15Z</time>
      </trkpt>
      <trkpt lat="44.69766" lon="3.21551">
        <ele>1190.6</ele>
        <time>2022-08-02T09:45:24Z</time>
      </trkpt>
      <trkpt lat="44.69753" lon="3.21544">
        <ele>1191.3</ele>
        <time>2022-08-02T09:45:35Z</time>
      </trkpt>
      <trkpt lat="44.69746" lon="3.2154">
        <ele>1191.7</ele>
        <time>2022-08-02T09:45:42Z</time>
      </trkpt>
      <trkpt lat="44.69742" lon="3.21538">
        <ele>1191.8</ele>
        <time>2022-08-02T09:45:45Z</time>
      </trkpt>
      <trkpt lat="44.69731" lon="3.2153">
        <ele>1192.4</ele>
        <time>2022-08-02T09:45:55Z</time>
      </trkpt>
      <trkpt lat="44.6973" lon="3.21529">
        <ele>1192.4</ele>
        <time>2022-08-02T09:45:56Z</time>
      </trkpt>
      <trkpt lat="44.69727" lon="3.21528">
        <ele>1192.7</ele>
        <time>2022-08-02T09:45:59Z</time>
      </trkpt>
      <trkpt lat="44.69724" lon="3.21526">
        <ele>1192.9</ele>
        <time>2022-08-02T09:46:02Z</time>
      </trkpt>
      <trkpt lat="44.6972" lon="3.21525">
        <ele>1193</ele>
        <time>2022-08-02T09:46:05Z</time>
      </trkpt>
      <trkpt lat="44.69714" lon="3.21522">
        <ele>1193.2</ele>
        <time>2022-08-02T09:46:11Z</time>
      </trkpt>
      <trkpt lat="44.69708" lon="3.2152">
        <ele>1193.4</ele>
        <time>2022-08-02T09:46:16Z</time>
      </trkpt>
      <trkpt lat="44.69705" lon="3.21519">
        <ele>1193.5</ele>
        <time>2022-08-02T09:46:19Z</time>
      </trkpt>
      <trkpt lat="44.69701" lon="3.21516">
        <ele>1193.7</ele>
        <time>2022-08-02T09:46:24Z</time>
      </trkpt>
      <trkpt lat="44.697" lon="3.21515">
        <ele>1193.7</ele>
        <time>2022-08-02T09:46:26Z</time>
      </trkpt>
      <trkpt lat="44.69688" lon="3.21508">
        <ele>1194.3</ele>
        <time>2022-08-02T09:46:37Z</time>
      </trkpt>
      <trkpt lat="44.69677" lon="3.21502">
        <ele>1194.7</ele>
        <time>2022-08-02T09:46:48Z</time>
      </trkpt>
      <trkpt lat="44.69675" lon="3.21501">
        <ele>1194.7</ele>
        <time>2022-08-02T09:46:50Z</time>
      </trkpt>
      <trkpt lat="44.69673" lon="3.215">
        <ele>1194.8</ele>
        <time>2022-08-02T09:46:51Z</time>
      </trkpt>
      <trkpt lat="44.69668" lon="3.21497">
        <ele>1195</ele>
        <time>2022-08-02T09:46:56Z</time>
      </trkpt>
      <trkpt lat="44.69662" lon="3.21494">
        <ele>1195.3</ele>
        <time>2022-08-02T09:47:01Z</time>
      </trkpt>
      <trkpt lat="44.69659" lon="3.21492">
        <ele>1195.4</ele>
        <time>2022-08-02T09:47:04Z</time>
      </trkpt>
      <trkpt lat="44.69658" lon="3.21491">
        <ele>1195.5</ele>
        <time>2022-08-02T09:47:05Z</time>
      </trkpt>
      <trkpt lat="44.69655" lon="3.2149">
        <ele>1195.7</ele>
        <time>2022-08-02T09:47:08Z</time>
      </trkpt>
      <trkpt lat="44.69645" lon="3.21484">
        <ele>1196.1</ele>
        <time>2022-08-02T09:47:18Z</time>
      </trkpt>
      <trkpt lat="44.69632" lon="3.21478">
        <ele>1196.5</ele>
        <time>2022-08-02T09:47:29Z</time>
      </trkpt>
      <trkpt lat="44.69627" lon="3.21476">
        <ele>1196.6</ele>
        <time>2022-08-02T09:47:34Z</time>
      </trkpt>
      <trkpt lat="44.69623" lon="3.21474">
        <ele>1196.6</ele>
        <time>2022-08-02T09:47:37Z</time>
      </trkpt>
      <trkpt lat="44.69621" lon="3.21473">
        <ele>1196.7</ele>
        <time>2022-08-02T09:47:39Z</time>
      </trkpt>
      <trkpt lat="44.69616" lon="3.2147">
        <ele>1196.8</ele>
        <time>2022-08-02T09:47:43Z</time>
      </trkpt>
      <trkpt lat="44.69603" lon="3.21463">
        <ele>1197.5</ele>
        <time>2022-08-02T09:47:54Z</time>
      </trkpt>
      <trkpt lat="44.69594" lon="3.21456">
        <ele>1197.9</ele>
        <time>2022-08-02T09:48:05Z</time>
      </trkpt>
      <trkpt lat="44.69594" lon="3.21456">
        <ele>1197.9</ele>
        <time>2022-08-02T09:48:06Z</time>
      </trkpt>
      <trkpt lat="44.69593" lon="3.21456">
        <ele>1197.9</ele>
        <time>2022-08-02T09:48:07Z</time>
      </trkpt>
      <trkpt lat="44.69591" lon="3.21455">
        <ele>1198</ele>
        <time>2022-08-02T09:48:09Z</time>
      </trkpt>
      <trkpt lat="44.69587" lon="3.21454">
        <ele>1198.2</ele>
        <time>2022-08-02T09:48:12Z</time>
      </trkpt>
      <trkpt lat="44.69586" lon="3.21453">
        <ele>1198.2</ele>
        <time>2022-08-02T09:48:13Z</time>
      </trkpt>
      <trkpt lat="44.69584" lon="3.21452">
        <ele>1198.3</ele>
        <time>2022-08-02T09:48:15Z</time>
      </trkpt>
      <trkpt lat="44.69579" lon="3.21451">
        <ele>1198.5</ele>
        <time>2022-08-02T09:48:19Z</time>
      </trkpt>
      <trkpt lat="44.69568" lon="3.21448">
        <ele>1199.2</ele>
        <time>2022-08-02T09:48:29Z</time>
      </trkpt>
      <trkpt lat="44.69558" lon="3.21448">
        <ele>1200</ele>
        <time>2022-08-02T09:48:38Z</time>
      </trkpt>
      <trkpt lat="44.69554" lon="3.21448">
        <ele>1200.3</ele>
        <time>2022-08-02T09:48:42Z</time>
      </trkpt>
      <trkpt lat="44.69553" lon="3.21448">
        <ele>1200.3</ele>
        <time>2022-08-02T09:48:43Z</time>
      </trkpt>
      <trkpt lat="44.69553" lon="3.21447">
        <ele>1200.3</ele>
        <time>2022-08-02T09:48:44Z</time>
      </trkpt>
      <trkpt lat="44.69552" lon="3.21446">
        <ele>1200.3</ele>
        <time>2022-08-02T09:48:46Z</time>
      </trkpt>
      <trkpt lat="44.69548" lon="3.21442">
        <ele>1200.5</ele>
        <time>2022-08-02T09:48:49Z</time>
      </trkpt>
      <trkpt lat="44.69543" lon="3.21444">
        <ele>1200.9</ele>
        <time>2022-08-02T09:48:53Z</time>
      </trkpt>
      <trkpt lat="44.69542" lon="3.21444">
        <ele>1200.9</ele>
        <time>2022-08-02T09:48:54Z</time>
      </trkpt>
      <trkpt lat="44.69537" lon="3.21442">
        <ele>1201.2</ele>
        <time>2022-08-02T09:48:58Z</time>
      </trkpt>
      <trkpt lat="44.69534" lon="3.21442">
        <ele>1201.5</ele>
        <time>2022-08-02T09:49:01Z</time>
      </trkpt>
      <trkpt lat="44.69533" lon="3.21442">
        <ele>1201.5</ele>
        <time>2022-08-02T09:49:02Z</time>
      </trkpt>
      <trkpt lat="44.69533" lon="3.21444">
        <ele>1201.6</ele>
        <time>2022-08-02T09:49:06Z</time>
      </trkpt>
      <trkpt lat="44.69532" lon="3.21443">
        <ele>1201.6</ele>
        <time>2022-08-02T09:49:08Z</time>
      </trkpt>
      <trkpt lat="44.69531" lon="3.21442">
        <ele>1201.7</ele>
        <time>2022-08-02T09:49:10Z</time>
      </trkpt>
      <trkpt lat="44.69527" lon="3.21441">
        <ele>1201.9</ele>
        <time>2022-08-02T09:49:13Z</time>
      </trkpt>
      <trkpt lat="44.69524" lon="3.2144">
        <ele>1202</ele>
        <time>2022-08-02T09:49:17Z</time>
      </trkpt>
      <trkpt lat="44.6952" lon="3.21438">
        <ele>1202.1</ele>
        <time>2022-08-02T09:49:20Z</time>
      </trkpt>
      <trkpt lat="44.69514" lon="3.21436">
        <ele>1202.2</ele>
        <time>2022-08-02T09:49:24Z</time>
      </trkpt>
      <trkpt lat="44.69512" lon="3.21435">
        <ele>1202.2</ele>
        <time>2022-08-02T09:49:26Z</time>
      </trkpt>
      <trkpt lat="44.69506" lon="3.21432">
        <ele>1202.3</ele>
        <time>2022-08-02T09:49:31Z</time>
      </trkpt>
      <trkpt lat="44.695" lon="3.21428">
        <ele>1202.4</ele>
        <time>2022-08-02T09:49:36Z</time>
      </trkpt>
      <trkpt lat="44.695" lon="3.21427">
        <ele>1202.4</ele>
        <time>2022-08-02T09:49:37Z</time>
      </trkpt>
      <trkpt lat="44.69492" lon="3.21424">
        <ele>1202.8</ele>
        <time>2022-08-02T09:49:42Z</time>
      </trkpt>
      <trkpt lat="44.69485" lon="3.21418">
        <ele>1203.1</ele>
        <time>2022-08-02T09:49:49Z</time>
      </trkpt>
      <trkpt lat="44.69484" lon="3.21417">
        <ele>1203.2</ele>
        <time>2022-08-02T09:49:50Z</time>
      </trkpt>
      <trkpt lat="44.69475" lon="3.2141">
        <ele>1203.3</ele>
        <time>2022-08-02T09:49:58Z</time>
      </trkpt>
      <trkpt lat="44.69466" lon="3.214">
        <ele>1203.2</ele>
        <time>2022-08-02T09:50:07Z</time>
      </trkpt>
      <trkpt lat="44.69465" lon="3.21399">
        <ele>1203.2</ele>
        <time>2022-08-02T09:50:08Z</time>
      </trkpt>
      <trkpt lat="44.69456" lon="3.21391">
        <ele>1203.3</ele>
        <time>2022-08-02T09:50:18Z</time>
      </trkpt>
      <trkpt lat="44.69449" lon="3.21386">
        <ele>1203.5</ele>
        <time>2022-08-02T09:50:24Z</time>
      </trkpt>
      <trkpt lat="44.69446" lon="3.21384">
        <ele>1203.5</ele>
        <time>2022-08-02T09:50:27Z</time>
      </trkpt>
      <trkpt lat="44.69438" lon="3.21379">
        <ele>1203.6</ele>
        <time>2022-08-02T09:50:34Z</time>
      </trkpt>
      <trkpt lat="44.6943" lon="3.21377">
        <ele>1203.9</ele>
        <time>2022-08-02T09:50:41Z</time>
      </trkpt>
      <trkpt lat="44.69429" lon="3.21376">
        <ele>1203.9</ele>
        <time>2022-08-02T09:50:42Z</time>
      </trkpt>
      <trkpt lat="44.69423" lon="3.21375">
        <ele>1204.2</ele>
        <time>2022-08-02T09:50:46Z</time>
      </trkpt>
      <trkpt lat="44.69417" lon="3.21373">
        <ele>1204.4</ele>
        <time>2022-08-02T09:50:51Z</time>
      </trkpt>
      <trkpt lat="44.69405" lon="3.21368">
        <ele>1204.7</ele>
        <time>2022-08-02T09:51:01Z</time>
      </trkpt>
      <trkpt lat="44.69402" lon="3.21367">
        <ele>1204.7</ele>
        <time>2022-08-02T09:51:04Z</time>
      </trkpt>
      <trkpt lat="44.69401" lon="3.21366">
        <ele>1204.7</ele>
        <time>2022-08-02T09:51:06Z</time>
      </trkpt>
      <trkpt lat="44.69401" lon="3.21365">
        <ele>1204.7</ele>
        <time>2022-08-02T09:51:10Z</time>
      </trkpt>
      <trkpt lat="44.69399" lon="3.21365">
        <ele>1204.8</ele>
        <time>2022-08-02T09:51:12Z</time>
      </trkpt>
      <trkpt lat="44.69398" lon="3.21365">
        <ele>1204.8</ele>
        <time>2022-08-02T09:51:13Z</time>
      </trkpt>
      <trkpt lat="44.69397" lon="3.21364">
        <ele>1204.8</ele>
        <time>2022-08-02T09:51:14Z</time>
      </trkpt>
      <trkpt lat="44.69394" lon="3.21364">
        <ele>1204.9</ele>
        <time>2022-08-02T09:51:16Z</time>
      </trkpt>
      <trkpt lat="44.69387" lon="3.21362">
        <ele>1205.1</ele>
        <time>2022-08-02T09:51:23Z</time>
      </trkpt>
      <trkpt lat="44.69384" lon="3.2136">
        <ele>1205.2</ele>
        <time>2022-08-02T09:51:26Z</time>
      </trkpt>
      <trkpt lat="44.69379" lon="3.21358">
        <ele>1205.3</ele>
        <time>2022-08-02T09:51:30Z</time>
      </trkpt>
      <trkpt lat="44.69375" lon="3.21357">
        <ele>1205.4</ele>
        <time>2022-08-02T09:51:33Z</time>
      </trkpt>
      <trkpt lat="44.69373" lon="3.21356">
        <ele>1205.4</ele>
        <time>2022-08-02T09:51:35Z</time>
      </trkpt>
      <trkpt lat="44.69367" lon="3.21353">
        <ele>1205.5</ele>
        <time>2022-08-02T09:51:40Z</time>
      </trkpt>
      <trkpt lat="44.69365" lon="3.21351">
        <ele>1205.5</ele>
        <time>2022-08-02T09:51:42Z</time>
      </trkpt>
      <trkpt lat="44.69363" lon="3.2135">
        <ele>1205.5</ele>
        <time>2022-08-02T09:51:44Z</time>
      </trkpt>
      <trkpt lat="44.69355" lon="3.21345">
        <ele>1205.8</ele>
        <time>2022-08-02T09:51:51Z</time>
      </trkpt>
      <trkpt lat="44.69354" lon="3.21345">
        <ele>1205.8</ele>
        <time>2022-08-02T09:51:52Z</time>
      </trkpt>
      <trkpt lat="44.69354" lon="3.21344">
        <ele>1205.8</ele>
        <time>2022-08-02T09:51:54Z</time>
      </trkpt>
      <trkpt lat="44.69354" lon="3.21343">
        <ele>1205.8</ele>
        <time>2022-08-02T09:51:57Z</time>
      </trkpt>
      <trkpt lat="44.6935" lon="3.21342">
        <ele>1206</ele>
        <time>2022-08-02T09:52:02Z</time>
      </trkpt>
      <trkpt lat="44.69349" lon="3.21342">
        <ele>1206.1</ele>
        <time>2022-08-02T09:52:03Z</time>
      </trkpt>
      <trkpt lat="44.69346" lon="3.2134">
        <ele>1206.2</ele>
        <time>2022-08-02T09:52:09Z</time>
      </trkpt>
      <trkpt lat="44.69347" lon="3.2134">
        <ele>1206.2</ele>
        <time>2022-08-02T09:52:12Z</time>
      </trkpt>
      <trkpt lat="44.69347" lon="3.2134">
        <ele>1206.1</ele>
        <time>2022-08-02T09:52:15Z</time>
      </trkpt>
      <trkpt lat="44.69349" lon="3.21342">
        <ele>1206.1</ele>
        <time>2022-08-02T09:52:20Z</time>
      </trkpt>
      <trkpt lat="44.69349" lon="3.21342">
        <ele>1206.1</ele>
        <time>2022-08-02T09:52:22Z</time>
      </trkpt>
      <trkpt lat="44.69349" lon="3.21342">
        <ele>1206.1</ele>
        <time>2022-08-02T09:52:24Z</time>
      </trkpt>
      <trkpt lat="44.69349" lon="3.21342">
        <ele>1206.1</ele>
        <time>2022-08-02T09:52:28Z</time>
      </trkpt>
      <trkpt lat="44.69348" lon="3.21343">
        <ele>1206.1</ele>
        <time>2022-08-02T09:52:43Z</time>
      </trkpt>
      <trkpt lat="44.69348" lon="3.21344">
        <ele>1206.1</ele>
        <time>2022-08-02T09:52:48Z</time>
      </trkpt>
      <trkpt lat="44.69348" lon="3.21341">
        <ele>1206.1</ele>
        <time>2022-08-02T09:53:21Z</time>
      </trkpt>
      <trkpt lat="44.69348" lon="3.21341">
        <ele>1206.1</ele>
        <time>2022-08-02T09:53:24Z</time>
      </trkpt>
      <trkpt lat="44.69349" lon="3.2134">
        <ele>1206</ele>
        <time>2022-08-02T09:53:38Z</time>
      </trkpt>
      <trkpt lat="44.6935" lon="3.2134">
        <ele>1206</ele>
        <time>2022-08-02T09:53:49Z</time>
      </trkpt>
      <trkpt lat="44.69349" lon="3.21339">
        <ele>1206</ele>
        <time>2022-08-02T09:54:03Z</time>
      </trkpt>
      <trkpt lat="44.69349" lon="3.21339">
        <ele>1206</ele>
        <time>2022-08-02T09:54:04Z</time>
      </trkpt>
      <trkpt lat="44.69348" lon="3.21339">
        <ele>1206</ele>
        <time>2022-08-02T09:54:06Z</time>
      </trkpt>
      <trkpt lat="44.69345" lon="3.21344">
        <ele>1206.3</ele>
        <time>2022-08-02T09:54:33Z</time>
      </trkpt>
      <trkpt lat="44.69344" lon="3.21344">
        <ele>1206.4</ele>
        <time>2022-08-02T09:54:39Z</time>
      </trkpt>
      <trkpt lat="44.69344" lon="3.21344">
        <ele>1206.4</ele>
        <time>2022-08-02T09:54:40Z</time>
      </trkpt>
      <trkpt lat="44.69342" lon="3.21343">
        <ele>1206.5</ele>
        <time>2022-08-02T09:54:45Z</time>
      </trkpt>
      <trkpt lat="44.69335" lon="3.21335">
        <ele>1206.9</ele>
        <time>2022-08-02T09:54:49Z</time>
      </trkpt>
      <trkpt lat="44.69333" lon="3.21333">
        <ele>1207</ele>
        <time>2022-08-02T09:54:50Z</time>
      </trkpt>
      <trkpt lat="44.69331" lon="3.21332">
        <ele>1207</ele>
        <time>2022-08-02T09:54:51Z</time>
      </trkpt>
      <trkpt lat="44.6933" lon="3.2133">
        <ele>1207</ele>
        <time>2022-08-02T09:54:52Z</time>
      </trkpt>
      <trkpt lat="44.69326" lon="3.21328">
        <ele>1207.1</ele>
        <time>2022-08-02T09:54:54Z</time>
      </trkpt>
      <trkpt lat="44.69325" lon="3.21327">
        <ele>1207.1</ele>
        <time>2022-08-02T09:54:55Z</time>
      </trkpt>
      <trkpt lat="44.69325" lon="3.21326">
        <ele>1207.1</ele>
        <time>2022-08-02T09:54:56Z</time>
      </trkpt>
      <trkpt lat="44.69323" lon="3.21324">
        <ele>1207.2</ele>
        <time>2022-08-02T09:54:58Z</time>
      </trkpt>
      <trkpt lat="44.69322" lon="3.21323">
        <ele>1207.2</ele>
        <time>2022-08-02T09:54:59Z</time>
      </trkpt>
      <trkpt lat="44.6932" lon="3.21322">
        <ele>1207.2</ele>
        <time>2022-08-02T09:55:00Z</time>
      </trkpt>
      <trkpt lat="44.6932" lon="3.21321">
        <ele>1207.3</ele>
        <time>2022-08-02T09:55:01Z</time>
      </trkpt>
      <trkpt lat="44.69318" lon="3.2132">
        <ele>1207.3</ele>
        <time>2022-08-02T09:55:02Z</time>
      </trkpt>
      <trkpt lat="44.69311" lon="3.21313">
        <ele>1207.7</ele>
        <time>2022-08-02T09:55:11Z</time>
      </trkpt>
      <trkpt lat="44.69309" lon="3.21313">
        <ele>1207.8</ele>
        <time>2022-08-02T09:55:12Z</time>
      </trkpt>
      <trkpt lat="44.69301" lon="3.21306">
        <ele>1208.3</ele>
        <time>2022-08-02T09:55:19Z</time>
      </trkpt>
      <trkpt lat="44.69299" lon="3.21304">
        <ele>1208.5</ele>
        <time>2022-08-02T09:55:21Z</time>
      </trkpt>
      <trkpt lat="44.69298" lon="3.21303">
        <ele>1208.5</ele>
        <time>2022-08-02T09:55:22Z</time>
      </trkpt>
      <trkpt lat="44.69297" lon="3.21303">
        <ele>1208.6</ele>
        <time>2022-08-02T09:55:23Z</time>
      </trkpt>
      <trkpt lat="44.69295" lon="3.21301">
        <ele>1208.7</ele>
        <time>2022-08-02T09:55:25Z</time>
      </trkpt>
      <trkpt lat="44.69291" lon="3.21297">
        <ele>1208.9</ele>
        <time>2022-08-02T09:55:30Z</time>
      </trkpt>
      <trkpt lat="44.6929" lon="3.21296">
        <ele>1208.9</ele>
        <time>2022-08-02T09:55:31Z</time>
      </trkpt>
      <trkpt lat="44.69287" lon="3.21293">
        <ele>1209</ele>
        <time>2022-08-02T09:55:34Z</time>
      </trkpt>
      <trkpt lat="44.69286" lon="3.21292">
        <ele>1209.1</ele>
        <time>2022-08-02T09:55:36Z</time>
      </trkpt>
      <trkpt lat="44.69285" lon="3.21291">
        <ele>1209.1</ele>
        <time>2022-08-02T09:55:37Z</time>
      </trkpt>
      <trkpt lat="44.69284" lon="3.21291">
        <ele>1209.2</ele>
        <time>2022-08-02T09:55:38Z</time>
      </trkpt>
      <trkpt lat="44.69283" lon="3.2129">
        <ele>1209.2</ele>
        <time>2022-08-02T09:55:39Z</time>
      </trkpt>
      <trkpt lat="44.69281" lon="3.21289">
        <ele>1209.2</ele>
        <time>2022-08-02T09:55:40Z</time>
      </trkpt>
      <trkpt lat="44.69281" lon="3.21288">
        <ele>1209.2</ele>
        <time>2022-08-02T09:55:41Z</time>
      </trkpt>
      <trkpt lat="44.69278" lon="3.21287">
        <ele>1209.3</ele>
        <time>2022-08-02T09:55:43Z</time>
      </trkpt>
      <trkpt lat="44.69273" lon="3.21282">
        <ele>1209.5</ele>
        <time>2022-08-02T09:55:48Z</time>
      </trkpt>
      <trkpt lat="44.69264" lon="3.21276">
        <ele>1209.9</ele>
        <time>2022-08-02T09:55:58Z</time>
      </trkpt>
      <trkpt lat="44.69256" lon="3.2127">
        <ele>1210.3</ele>
        <time>2022-08-02T09:56:07Z</time>
      </trkpt>
      <trkpt lat="44.69248" lon="3.21263">
        <ele>1210.5</ele>
        <time>2022-08-02T09:56:17Z</time>
      </trkpt>
      <trkpt lat="44.69246" lon="3.21262">
        <ele>1210.5</ele>
        <time>2022-08-02T09:56:18Z</time>
      </trkpt>
      <trkpt lat="44.69243" lon="3.2126">
        <ele>1210.5</ele>
        <time>2022-08-02T09:56:21Z</time>
      </trkpt>
      <trkpt lat="44.6924" lon="3.21258">
        <ele>1210.4</ele>
        <time>2022-08-02T09:56:24Z</time>
      </trkpt>
      <trkpt lat="44.69239" lon="3.21257">
        <ele>1210.4</ele>
        <time>2022-08-02T09:56:25Z</time>
      </trkpt>
      <trkpt lat="44.69236" lon="3.21256">
        <ele>1210.3</ele>
        <time>2022-08-02T09:56:27Z</time>
      </trkpt>
      <trkpt lat="44.69235" lon="3.21256">
        <ele>1210.3</ele>
        <time>2022-08-02T09:56:28Z</time>
      </trkpt>
      <trkpt lat="44.69225" lon="3.21251">
        <ele>1210.1</ele>
        <time>2022-08-02T09:56:37Z</time>
      </trkpt>
      <trkpt lat="44.69224" lon="3.21251">
        <ele>1210</ele>
        <time>2022-08-02T09:56:38Z</time>
      </trkpt>
      <trkpt lat="44.69222" lon="3.2125">
        <ele>1210.1</ele>
        <time>2022-08-02T09:56:40Z</time>
      </trkpt>
      <trkpt lat="44.69219" lon="3.21249">
        <ele>1210.1</ele>
        <time>2022-08-02T09:56:42Z</time>
      </trkpt>
      <trkpt lat="44.69215" lon="3.21247">
        <ele>1210.1</ele>
        <time>2022-08-02T09:56:45Z</time>
      </trkpt>
      <trkpt lat="44.69214" lon="3.21247">
        <ele>1210.2</ele>
        <time>2022-08-02T09:56:47Z</time>
      </trkpt>
      <trkpt lat="44.69212" lon="3.21247">
        <ele>1210.2</ele>
        <time>2022-08-02T09:56:49Z</time>
      </trkpt>
      <trkpt lat="44.69208" lon="3.21247">
        <ele>1210.3</ele>
        <time>2022-08-02T09:56:52Z</time>
      </trkpt>
      <trkpt lat="44.69204" lon="3.21246">
        <ele>1210.4</ele>
        <time>2022-08-02T09:56:55Z</time>
      </trkpt>
      <trkpt lat="44.69204" lon="3.21245">
        <ele>1210.4</ele>
        <time>2022-08-02T09:56:56Z</time>
      </trkpt>
      <trkpt lat="44.69207" lon="3.21244">
        <ele>1210.2</ele>
        <time>2022-08-02T09:56:59Z</time>
      </trkpt>
      <trkpt lat="44.69207" lon="3.21244">
        <ele>1210.2</ele>
        <time>2022-08-02T09:57:00Z</time>
      </trkpt>
      <trkpt lat="44.69209" lon="3.21242">
        <ele>1210.1</ele>
        <time>2022-08-02T09:57:03Z</time>
      </trkpt>
      <trkpt lat="44.69208" lon="3.21243">
        <ele>1210.1</ele>
        <time>2022-08-02T09:57:05Z</time>
      </trkpt>
      <trkpt lat="44.69205" lon="3.21242">
        <ele>1210.1</ele>
        <time>2022-08-02T09:57:07Z</time>
      </trkpt>
      <trkpt lat="44.69203" lon="3.21241">
        <ele>1210.1</ele>
        <time>2022-08-02T09:57:08Z</time>
      </trkpt>
      <trkpt lat="44.69201" lon="3.2124">
        <ele>1210.1</ele>
        <time>2022-08-02T09:57:10Z</time>
      </trkpt>
      <trkpt lat="44.69199" lon="3.2124">
        <ele>1210.1</ele>
        <time>2022-08-02T09:57:12Z</time>
      </trkpt>
      <trkpt lat="44.6919" lon="3.21237">
        <ele>1210.1</ele>
        <time>2022-08-02T09:57:18Z</time>
      </trkpt>
      <trkpt lat="44.69187" lon="3.21236">
        <ele>1210</ele>
        <time>2022-08-02T09:57:21Z</time>
      </trkpt>
      <trkpt lat="44.69186" lon="3.21236">
        <ele>1210</ele>
        <time>2022-08-02T09:57:22Z</time>
      </trkpt>
      <trkpt lat="44.69181" lon="3.21234">
        <ele>1209.8</ele>
        <time>2022-08-02T09:57:27Z</time>
      </trkpt>
      <trkpt lat="44.69175" lon="3.21231">
        <ele>1209.6</ele>
        <time>2022-08-02T09:57:32Z</time>
      </trkpt>
      <trkpt lat="44.69173" lon="3.21231">
        <ele>1209.6</ele>
        <time>2022-08-02T09:57:33Z</time>
      </trkpt>
      <trkpt lat="44.69171" lon="3.2123">
        <ele>1209.6</ele>
        <time>2022-08-02T09:57:34Z</time>
      </trkpt>
      <trkpt lat="44.69168" lon="3.2123">
        <ele>1209.5</ele>
        <time>2022-08-02T09:57:36Z</time>
      </trkpt>
      <trkpt lat="44.69155" lon="3.21226">
        <ele>1209.7</ele>
        <time>2022-08-02T09:57:47Z</time>
      </trkpt>
      <trkpt lat="44.69145" lon="3.21223">
        <ele>1209.8</ele>
        <time>2022-08-02T09:57:55Z</time>
      </trkpt>
      <trkpt lat="44.69141" lon="3.21222">
        <ele>1209.9</ele>
        <time>2022-08-02T09:57:58Z</time>
      </trkpt>
      <trkpt lat="44.69136" lon="3.21221">
        <ele>1209.9</ele>
        <time>2022-08-02T09:58:03Z</time>
      </trkpt>
      <trkpt lat="44.69129" lon="3.21219">
        <ele>1209.7</ele>
        <time>2022-08-02T09:58:09Z</time>
      </trkpt>
      <trkpt lat="44.69128" lon="3.21219">
        <ele>1209.7</ele>
        <time>2022-08-02T09:58:10Z</time>
      </trkpt>
      <trkpt lat="44.69121" lon="3.21219">
        <ele>1209.6</ele>
        <time>2022-08-02T09:58:15Z</time>
      </trkpt>
      <trkpt lat="44.69118" lon="3.21218">
        <ele>1209.6</ele>
        <time>2022-08-02T09:58:18Z</time>
      </trkpt>
      <trkpt lat="44.69112" lon="3.21217">
        <ele>1209.5</ele>
        <time>2022-08-02T09:58:23Z</time>
      </trkpt>
      <trkpt lat="44.69111" lon="3.21217">
        <ele>1209.4</ele>
        <time>2022-08-02T09:58:24Z</time>
      </trkpt>
      <trkpt lat="44.69107" lon="3.21216">
        <ele>1209.1</ele>
        <time>2022-08-02T09:58:27Z</time>
      </trkpt>
      <trkpt lat="44.69103" lon="3.21216">
        <ele>1208.7</ele>
        <time>2022-08-02T09:58:31Z</time>
      </trkpt>
      <trkpt lat="44.69099" lon="3.21216">
        <ele>1208.4</ele>
        <time>2022-08-02T09:58:34Z</time>
      </trkpt>
      <trkpt lat="44.69097" lon="3.21216">
        <ele>1208.4</ele>
        <time>2022-08-02T09:58:35Z</time>
      </trkpt>
      <trkpt lat="44.69095" lon="3.21217">
        <ele>1208.3</ele>
        <time>2022-08-02T09:58:37Z</time>
      </trkpt>
      <trkpt lat="44.69088" lon="3.21218">
        <ele>1207.8</ele>
        <time>2022-08-02T09:58:43Z</time>
      </trkpt>
      <trkpt lat="44.69083" lon="3.21218">
        <ele>1207.6</ele>
        <time>2022-08-02T09:58:47Z</time>
      </trkpt>
      <trkpt lat="44.6908" lon="3.21219">
        <ele>1207.4</ele>
        <time>2022-08-02T09:58:50Z</time>
      </trkpt>
      <trkpt lat="44.69076" lon="3.2122">
        <ele>1207.3</ele>
        <time>2022-08-02T09:58:53Z</time>
      </trkpt>
      <trkpt lat="44.69072" lon="3.21222">
        <ele>1207.1</ele>
        <time>2022-08-02T09:58:57Z</time>
      </trkpt>
      <trkpt lat="44.69066" lon="3.21224">
        <ele>1206.8</ele>
        <time>2022-08-02T09:59:02Z</time>
      </trkpt>
      <trkpt lat="44.69057" lon="3.21226">
        <ele>1206.3</ele>
        <time>2022-08-02T09:59:08Z</time>
      </trkpt>
      <trkpt lat="44.69055" lon="3.21227">
        <ele>1206.1</ele>
        <time>2022-08-02T09:59:10Z</time>
      </trkpt>
      <trkpt lat="44.69044" lon="3.21227">
        <ele>1205.4</ele>
        <time>2022-08-02T09:59:18Z</time>
      </trkpt>
      <trkpt lat="44.69042" lon="3.21228">
        <ele>1205.2</ele>
        <time>2022-08-02T09:59:20Z</time>
      </trkpt>
      <trkpt lat="44.6904" lon="3.21229">
        <ele>1205.1</ele>
        <time>2022-08-02T09:59:22Z</time>
      </trkpt>
      <trkpt lat="44.69039" lon="3.21229">
        <ele>1205</ele>
        <time>2022-08-02T09:59:23Z</time>
      </trkpt>
      <trkpt lat="44.69038" lon="3.2123">
        <ele>1205</ele>
        <time>2022-08-02T09:59:24Z</time>
      </trkpt>
      <trkpt lat="44.69035" lon="3.21231">
        <ele>1204.9</ele>
        <time>2022-08-02T09:59:26Z</time>
      </trkpt>
      <trkpt lat="44.69034" lon="3.21231">
        <ele>1204.8</ele>
        <time>2022-08-02T09:59:27Z</time>
      </trkpt>
      <trkpt lat="44.69021" lon="3.21233">
        <ele>1204.2</ele>
        <time>2022-08-02T09:59:36Z</time>
      </trkpt>
      <trkpt lat="44.69014" lon="3.21235">
        <ele>1204</ele>
        <time>2022-08-02T09:59:42Z</time>
      </trkpt>
      <trkpt lat="44.69012" lon="3.21236">
        <ele>1203.9</ele>
        <time>2022-08-02T09:59:43Z</time>
      </trkpt>
      <trkpt lat="44.69007" lon="3.21237">
        <ele>1203.8</ele>
        <time>2022-08-02T09:59:48Z</time>
      </trkpt>
      <trkpt lat="44.69" lon="3.21239">
        <ele>1203.6</ele>
        <time>2022-08-02T09:59:53Z</time>
      </trkpt>
      <trkpt lat="44.68996" lon="3.21239">
        <ele>1203.6</ele>
        <time>2022-08-02T09:59:57Z</time>
      </trkpt>
      <trkpt lat="44.68991" lon="3.21241">
        <ele>1203.7</ele>
        <time>2022-08-02T10:00:01Z</time>
      </trkpt>
      <trkpt lat="44.68988" lon="3.21243">
        <ele>1203.7</ele>
        <time>2022-08-02T10:00:04Z</time>
      </trkpt>
      <trkpt lat="44.68983" lon="3.21243">
        <ele>1203.8</ele>
        <time>2022-08-02T10:00:07Z</time>
      </trkpt>
      <trkpt lat="44.68981" lon="3.21245">
        <ele>1203.8</ele>
        <time>2022-08-02T10:00:09Z</time>
      </trkpt>
      <trkpt lat="44.6898" lon="3.21245">
        <ele>1203.8</ele>
        <time>2022-08-02T10:00:10Z</time>
      </trkpt>
      <trkpt lat="44.68976" lon="3.21246">
        <ele>1203.9</ele>
        <time>2022-08-02T10:00:13Z</time>
      </trkpt>
      <trkpt lat="44.6897" lon="3.21247">
        <ele>1203.8</ele>
        <time>2022-08-02T10:00:18Z</time>
      </trkpt>
      <trkpt lat="44.68968" lon="3.21248">
        <ele>1203.8</ele>
        <time>2022-08-02T10:00:20Z</time>
      </trkpt>
      <trkpt lat="44.68962" lon="3.2125">
        <ele>1203.6</ele>
        <time>2022-08-02T10:00:25Z</time>
      </trkpt>
      <trkpt lat="44.6896" lon="3.2125">
        <ele>1203.6</ele>
        <time>2022-08-02T10:00:26Z</time>
      </trkpt>
      <trkpt lat="44.68958" lon="3.21251">
        <ele>1203.5</ele>
        <time>2022-08-02T10:00:28Z</time>
      </trkpt>
      <trkpt lat="44.68955" lon="3.21252">
        <ele>1203.4</ele>
        <time>2022-08-02T10:00:30Z</time>
      </trkpt>
      <trkpt lat="44.6895" lon="3.21254">
        <ele>1203.2</ele>
        <time>2022-08-02T10:00:36Z</time>
      </trkpt>
      <trkpt lat="44.68947" lon="3.21254">
        <ele>1203.1</ele>
        <time>2022-08-02T10:00:38Z</time>
      </trkpt>
      <trkpt lat="44.68938" lon="3.21256">
        <ele>1203</ele>
        <time>2022-08-02T10:00:46Z</time>
      </trkpt>
      <trkpt lat="44.68935" lon="3.21257">
        <ele>1203</ele>
        <time>2022-08-02T10:00:49Z</time>
      </trkpt>
      <trkpt lat="44.68928" lon="3.21259">
        <ele>1203</ele>
        <time>2022-08-02T10:00:55Z</time>
      </trkpt>
      <trkpt lat="44.68922" lon="3.21261">
        <ele>1203</ele>
        <time>2022-08-02T10:01:00Z</time>
      </trkpt>
      <trkpt lat="44.6892" lon="3.21262">
        <ele>1203</ele>
        <time>2022-08-02T10:01:01Z</time>
      </trkpt>
      <trkpt lat="44.68919" lon="3.21263">
        <ele>1203</ele>
        <time>2022-08-02T10:01:02Z</time>
      </trkpt>
      <trkpt lat="44.68913" lon="3.21263">
        <ele>1202.9</ele>
        <time>2022-08-02T10:01:06Z</time>
      </trkpt>
      <trkpt lat="44.68909" lon="3.21264">
        <ele>1202.7</ele>
        <time>2022-08-02T10:01:10Z</time>
      </trkpt>
      <trkpt lat="44.68901" lon="3.21265">
        <ele>1202.4</ele>
        <time>2022-08-02T10:01:16Z</time>
      </trkpt>
      <trkpt lat="44.68898" lon="3.21265">
        <ele>1202.3</ele>
        <time>2022-08-02T10:01:18Z</time>
      </trkpt>
      <trkpt lat="44.68892" lon="3.21261">
        <ele>1202.1</ele>
        <time>2022-08-02T10:01:23Z</time>
      </trkpt>
      <trkpt lat="44.68889" lon="3.21258">
        <ele>1202</ele>
        <time>2022-08-02T10:01:26Z</time>
      </trkpt>
      <trkpt lat="44.68881" lon="3.21248">
        <ele>1201.7</ele>
        <time>2022-08-02T10:01:34Z</time>
      </trkpt>
      <trkpt lat="44.68879" lon="3.21245">
        <ele>1201.7</ele>
        <time>2022-08-02T10:01:36Z</time>
      </trkpt>
      <trkpt lat="44.68874" lon="3.2124">
        <ele>1201.7</ele>
        <time>2022-08-02T10:01:42Z</time>
      </trkpt>
      <trkpt lat="44.68871" lon="3.21238">
        <ele>1201.6</ele>
        <time>2022-08-02T10:01:45Z</time>
      </trkpt>
      <trkpt lat="44.6887" lon="3.21237">
        <ele>1201.6</ele>
        <time>2022-08-02T10:01:46Z</time>
      </trkpt>
      <trkpt lat="44.68867" lon="3.21229">
        <ele>1201.8</ele>
        <time>2022-08-02T10:01:51Z</time>
      </trkpt>
      <trkpt lat="44.68866" lon="3.21228">
        <ele>1201.8</ele>
        <time>2022-08-02T10:01:52Z</time>
      </trkpt>
      <trkpt lat="44.68866" lon="3.21226">
        <ele>1201.9</ele>
        <time>2022-08-02T10:01:53Z</time>
      </trkpt>
      <trkpt lat="44.68866" lon="3.21222">
        <ele>1202</ele>
        <time>2022-08-02T10:01:55Z</time>
      </trkpt>
      <trkpt lat="44.68866" lon="3.21221">
        <ele>1202.1</ele>
        <time>2022-08-02T10:01:56Z</time>
      </trkpt>
      <trkpt lat="44.68866" lon="3.21219">
        <ele>1202.1</ele>
        <time>2022-08-02T10:01:57Z</time>
      </trkpt>
      <trkpt lat="44.68866" lon="3.21218">
        <ele>1202.2</ele>
        <time>2022-08-02T10:01:58Z</time>
      </trkpt>
      <trkpt lat="44.68867" lon="3.21216">
        <ele>1202.2</ele>
        <time>2022-08-02T10:01:59Z</time>
      </trkpt>
      <trkpt lat="44.68867" lon="3.21215">
        <ele>1202.3</ele>
        <time>2022-08-02T10:02:00Z</time>
      </trkpt>
      <trkpt lat="44.68868" lon="3.21211">
        <ele>1202.4</ele>
        <time>2022-08-02T10:02:02Z</time>
      </trkpt>
      <trkpt lat="44.68871" lon="3.21208">
        <ele>1202.5</ele>
        <time>2022-08-02T10:02:05Z</time>
      </trkpt>
      <trkpt lat="44.68872" lon="3.21205">
        <ele>1202.6</ele>
        <time>2022-08-02T10:02:07Z</time>
      </trkpt>
      <trkpt lat="44.68875" lon="3.21201">
        <ele>1202.7</ele>
        <time>2022-08-02T10:02:10Z</time>
      </trkpt>
      <trkpt lat="44.68876" lon="3.21197">
        <ele>1202.9</ele>
        <time>2022-08-02T10:02:13Z</time>
      </trkpt>
      <trkpt lat="44.68878" lon="3.21191">
        <ele>1203.1</ele>
        <time>2022-08-02T10:02:17Z</time>
      </trkpt>
      <trkpt lat="44.68876" lon="3.21188">
        <ele>1203.1</ele>
        <time>2022-08-02T10:02:20Z</time>
      </trkpt>
      <trkpt lat="44.68876" lon="3.21188">
        <ele>1203.1</ele>
        <time>2022-08-02T10:02:21Z</time>
      </trkpt>
      <trkpt lat="44.68876" lon="3.21188">
        <ele>1203.1</ele>
        <time>2022-08-02T10:02:22Z</time>
      </trkpt>
      <trkpt lat="44.68876" lon="3.21188">
        <ele>1203.1</ele>
        <time>2022-08-02T10:02:25Z</time>
      </trkpt>
      <trkpt lat="44.68875" lon="3.21188">
        <ele>1203.1</ele>
        <time>2022-08-02T10:02:27Z</time>
      </trkpt>
      <trkpt lat="44.68876" lon="3.21188">
        <ele>1203.1</ele>
        <time>2022-08-02T10:02:29Z</time>
      </trkpt>
      <trkpt lat="44.68877" lon="3.21188">
        <ele>1203.1</ele>
        <time>2022-08-02T10:02:36Z</time>
      </trkpt>
      <trkpt lat="44.68875" lon="3.21191">
        <ele>1203.1</ele>
        <time>2022-08-02T10:02:44Z</time>
      </trkpt>
      <trkpt lat="44.68872" lon="3.21193">
        <ele>1203</ele>
        <time>2022-08-02T10:02:48Z</time>
      </trkpt>
      <trkpt lat="44.6887" lon="3.21195">
        <ele>1203</ele>
        <time>2022-08-02T10:02:50Z</time>
      </trkpt>
      <trkpt lat="44.68869" lon="3.21196">
        <ele>1203</ele>
        <time>2022-08-02T10:02:51Z</time>
      </trkpt>
      <trkpt lat="44.68863" lon="3.21197">
        <ele>1202.9</ele>
        <time>2022-08-02T10:02:57Z</time>
      </trkpt>
      <trkpt lat="44.68862" lon="3.21198">
        <ele>1202.9</ele>
        <time>2022-08-02T10:02:58Z</time>
      </trkpt>
      <trkpt lat="44.68861" lon="3.21198">
        <ele>1202.9</ele>
        <time>2022-08-02T10:02:59Z</time>
      </trkpt>
      <trkpt lat="44.6886" lon="3.21198">
        <ele>1202.9</ele>
        <time>2022-08-02T10:03:01Z</time>
      </trkpt>
      <trkpt lat="44.68858" lon="3.21199">
        <ele>1202.9</ele>
        <time>2022-08-02T10:03:05Z</time>
      </trkpt>
      <trkpt lat="44.68857" lon="3.21199">
        <ele>1202.9</ele>
        <time>2022-08-02T10:03:06Z</time>
      </trkpt>
      <trkpt lat="44.68857" lon="3.21199">
        <ele>1202.9</ele>
        <time>2022-08-02T10:03:07Z</time>
      </trkpt>
      <trkpt lat="44.68856" lon="3.21196">
        <ele>1203.1</ele>
        <time>2022-08-02T10:03:10Z</time>
      </trkpt>
      <trkpt lat="44.68855" lon="3.21198">
        <ele>1203.1</ele>
        <time>2022-08-02T10:03:16Z</time>
      </trkpt>
      <trkpt lat="44.68852" lon="3.212">
        <ele>1203.1</ele>
        <time>2022-08-02T10:03:19Z</time>
      </trkpt>
      <trkpt lat="44.6885" lon="3.212">
        <ele>1203.1</ele>
        <time>2022-08-02T10:03:22Z</time>
      </trkpt>
      <trkpt lat="44.6885" lon="3.21199">
        <ele>1203.2</ele>
        <time>2022-08-02T10:03:23Z</time>
      </trkpt>
      <trkpt lat="44.6885" lon="3.21199">
        <ele>1203.2</ele>
        <time>2022-08-02T10:03:24Z</time>
      </trkpt>
      <trkpt lat="44.68853" lon="3.21191">
        <ele>1203.4</ele>
        <time>2022-08-02T10:03:29Z</time>
      </trkpt>
      <trkpt lat="44.68854" lon="3.21187">
        <ele>1203.5</ele>
        <time>2022-08-02T10:03:31Z</time>
      </trkpt>
      <trkpt lat="44.68856" lon="3.21185">
        <ele>1203.5</ele>
        <time>2022-08-02T10:03:33Z</time>
      </trkpt>
      <trkpt lat="44.68857" lon="3.21184">
        <ele>1203.5</ele>
        <time>2022-08-02T10:03:34Z</time>
      </trkpt>
      <trkpt lat="44.6886" lon="3.21181">
        <ele>1203.5</ele>
        <time>2022-08-02T10:03:37Z</time>
      </trkpt>
      <trkpt lat="44.68861" lon="3.2118">
        <ele>1203.6</ele>
        <time>2022-08-02T10:03:38Z</time>
      </trkpt>
      <trkpt lat="44.68861" lon="3.21178">
        <ele>1203.6</ele>
        <time>2022-08-02T10:03:39Z</time>
      </trkpt>
      <trkpt lat="44.68864" lon="3.21176">
        <ele>1203.6</ele>
        <time>2022-08-02T10:03:42Z</time>
      </trkpt>
      <trkpt lat="44.6887" lon="3.21176">
        <ele>1203.5</ele>
        <time>2022-08-02T10:03:46Z</time>
      </trkpt>
      <trkpt lat="44.68878" lon="3.21172">
        <ele>1203.3</ele>
        <time>2022-08-02T10:03:52Z</time>
      </trkpt>
      <trkpt lat="44.68887" lon="3.21169">
        <ele>1203.1</ele>
        <time>2022-08-02T10:03:59Z</time>
      </trkpt>
      <trkpt lat="44.68888" lon="3.21167">
        <ele>1203</ele>
        <time>2022-08-02T10:04:00Z</time>
      </trkpt>
      <trkpt lat="44.68889" lon="3.21166">
        <ele>1203</ele>
        <time>2022-08-02T10:04:01Z</time>
      </trkpt>
      <trkpt lat="44.6889" lon="3.21165">
        <ele>1203</ele>
        <time>2022-08-02T10:04:02Z</time>
      </trkpt>
      <trkpt lat="44.68891" lon="3.21162">
        <ele>1203.1</ele>
        <time>2022-08-02T10:04:04Z</time>
      </trkpt>
      <trkpt lat="44.68895" lon="3.21159">
        <ele>1203.1</ele>
        <time>2022-08-02T10:04:07Z</time>
      </trkpt>
      <trkpt lat="44.689" lon="3.21154">
        <ele>1203</ele>
        <time>2022-08-02T10:04:11Z</time>
      </trkpt>
      <trkpt lat="44.68901" lon="3.21153">
        <ele>1203</ele>
        <time>2022-08-02T10:04:12Z</time>
      </trkpt>
      <trkpt lat="44.68904" lon="3.21149">
        <ele>1203.1</ele>
        <time>2022-08-02T10:04:15Z</time>
      </trkpt>
      <trkpt lat="44.68907" lon="3.21138">
        <ele>1203.3</ele>
        <time>2022-08-02T10:04:21Z</time>
      </trkpt>
      <trkpt lat="44.68908" lon="3.21137">
        <ele>1203.3</ele>
        <time>2022-08-02T10:04:22Z</time>
      </trkpt>
      <trkpt lat="44.68915" lon="3.21129">
        <ele>1203.1</ele>
        <time>2022-08-02T10:04:29Z</time>
      </trkpt>
      <trkpt lat="44.68917" lon="3.21124">
        <ele>1203</ele>
        <time>2022-08-02T10:04:32Z</time>
      </trkpt>
      <trkpt lat="44.68917" lon="3.21118">
        <ele>1203</ele>
        <time>2022-08-02T10:04:36Z</time>
      </trkpt>
      <trkpt lat="44.68917" lon="3.21116">
        <ele>1203</ele>
        <time>2022-08-02T10:04:37Z</time>
      </trkpt>
      <trkpt lat="44.68918" lon="3.21098">
        <ele>1203</ele>
        <time>2022-08-02T10:04:47Z</time>
      </trkpt>
      <trkpt lat="44.68918" lon="3.21096">
        <ele>1203</ele>
        <time>2022-08-02T10:04:49Z</time>
      </trkpt>
      <trkpt lat="44.68917" lon="3.21093">
        <ele>1203</ele>
        <time>2022-08-02T10:04:51Z</time>
      </trkpt>
      <trkpt lat="44.68917" lon="3.21089">
        <ele>1203</ele>
        <time>2022-08-02T10:04:53Z</time>
      </trkpt>
      <trkpt lat="44.68917" lon="3.21088">
        <ele>1203</ele>
        <time>2022-08-02T10:04:54Z</time>
      </trkpt>
      <trkpt lat="44.68917" lon="3.21086">
        <ele>1203</ele>
        <time>2022-08-02T10:04:55Z</time>
      </trkpt>
      <trkpt lat="44.68916" lon="3.21082">
        <ele>1203.1</ele>
        <time>2022-08-02T10:04:58Z</time>
      </trkpt>
      <trkpt lat="44.68917" lon="3.21079">
        <ele>1203</ele>
        <time>2022-08-02T10:05:00Z</time>
      </trkpt>
      <trkpt lat="44.68916" lon="3.21066">
        <ele>1203.1</ele>
        <time>2022-08-02T10:05:06Z</time>
      </trkpt>
      <trkpt lat="44.68915" lon="3.21063">
        <ele>1203.2</ele>
        <time>2022-08-02T10:05:08Z</time>
      </trkpt>
      <trkpt lat="44.68916" lon="3.2106">
        <ele>1203.1</ele>
        <time>2022-08-02T10:05:10Z</time>
      </trkpt>
      <trkpt lat="44.68916" lon="3.21059">
        <ele>1203.1</ele>
        <time>2022-08-02T10:05:11Z</time>
      </trkpt>
      <trkpt lat="44.68916" lon="3.21057">
        <ele>1203.1</ele>
        <time>2022-08-02T10:05:12Z</time>
      </trkpt>
      <trkpt lat="44.68916" lon="3.21055">
        <ele>1203.1</ele>
        <time>2022-08-02T10:05:13Z</time>
      </trkpt>
      <trkpt lat="44.68917" lon="3.21054">
        <ele>1203.1</ele>
        <time>2022-08-02T10:05:14Z</time>
      </trkpt>
      <trkpt lat="44.68917" lon="3.21052">
        <ele>1203.1</ele>
        <time>2022-08-02T10:05:15Z</time>
      </trkpt>
      <trkpt lat="44.68918" lon="3.21049">
        <ele>1203.1</ele>
        <time>2022-08-02T10:05:17Z</time>
      </trkpt>
      <trkpt lat="44.68918" lon="3.21047">
        <ele>1203.2</ele>
        <time>2022-08-02T10:05:19Z</time>
      </trkpt>
      <trkpt lat="44.68917" lon="3.21035">
        <ele>1203.7</ele>
        <time>2022-08-02T10:05:27Z</time>
      </trkpt>
      <trkpt lat="44.68917" lon="3.21031">
        <ele>1203.9</ele>
        <time>2022-08-02T10:05:30Z</time>
      </trkpt>
      <trkpt lat="44.68917" lon="3.21026">
        <ele>1204.1</ele>
        <time>2022-08-02T10:05:34Z</time>
      </trkpt>
      <trkpt lat="44.68916" lon="3.21023">
        <ele>1204.3</ele>
        <time>2022-08-02T10:05:36Z</time>
      </trkpt>
      <trkpt lat="44.68915" lon="3.21015">
        <ele>1204.7</ele>
        <time>2022-08-02T10:05:41Z</time>
      </trkpt>
      <trkpt lat="44.68915" lon="3.21011">
        <ele>1204.9</ele>
        <time>2022-08-02T10:05:44Z</time>
      </trkpt>
      <trkpt lat="44.68914" lon="3.21008">
        <ele>1205.1</ele>
        <time>2022-08-02T10:05:46Z</time>
      </trkpt>
      <trkpt lat="44.68913" lon="3.21005">
        <ele>1205.3</ele>
        <time>2022-08-02T10:05:48Z</time>
      </trkpt>
      <trkpt lat="44.68913" lon="3.21002">
        <ele>1205.5</ele>
        <time>2022-08-02T10:05:50Z</time>
      </trkpt>
      <trkpt lat="44.68913" lon="3.21">
        <ele>1205.6</ele>
        <time>2022-08-02T10:05:52Z</time>
      </trkpt>
      <trkpt lat="44.68913" lon="3.20996">
        <ele>1205.6</ele>
        <time>2022-08-02T10:05:54Z</time>
      </trkpt>
      <trkpt lat="44.68911" lon="3.2099">
        <ele>1205.8</ele>
        <time>2022-08-02T10:05:57Z</time>
      </trkpt>
      <trkpt lat="44.68911" lon="3.20986">
        <ele>1205.9</ele>
        <time>2022-08-02T10:05:59Z</time>
      </trkpt>
      <trkpt lat="44.68912" lon="3.20985">
        <ele>1205.8</ele>
        <time>2022-08-02T10:06:00Z</time>
      </trkpt>
      <trkpt lat="44.68912" lon="3.20983">
        <ele>1205.8</ele>
        <time>2022-08-02T10:06:01Z</time>
      </trkpt>
      <trkpt lat="44.68914" lon="3.20973">
        <ele>1205.5</ele>
        <time>2022-08-02T10:06:07Z</time>
      </trkpt>
      <trkpt lat="44.68914" lon="3.20964">
        <ele>1205.6</ele>
        <time>2022-08-02T10:06:13Z</time>
      </trkpt>
      <trkpt lat="44.68914" lon="3.2096">
        <ele>1205.5</ele>
        <time>2022-08-02T10:06:15Z</time>
      </trkpt>
      <trkpt lat="44.68913" lon="3.20957">
        <ele>1205.6</ele>
        <time>2022-08-02T10:06:18Z</time>
      </trkpt>
      <trkpt lat="44.68914" lon="3.20953">
        <ele>1205.4</ele>
        <time>2022-08-02T10:06:21Z</time>
      </trkpt>
      <trkpt lat="44.68914" lon="3.20947">
        <ele>1205.5</ele>
        <time>2022-08-02T10:06:27Z</time>
      </trkpt>
      <trkpt lat="44.68914" lon="3.20946">
        <ele>1205.6</ele>
        <time>2022-08-02T10:06:28Z</time>
      </trkpt>
      <trkpt lat="44.68914" lon="3.20938">
        <ele>1205.8</ele>
        <time>2022-08-02T10:06:33Z</time>
      </trkpt>
      <trkpt lat="44.68913" lon="3.20935">
        <ele>1205.9</ele>
        <time>2022-08-02T10:06:35Z</time>
      </trkpt>
      <trkpt lat="44.68913" lon="3.20931">
        <ele>1206.2</ele>
        <time>2022-08-02T10:06:37Z</time>
      </trkpt>
      <trkpt lat="44.68912" lon="3.20925">
        <ele>1206.5</ele>
        <time>2022-08-02T10:06:40Z</time>
      </trkpt>
      <trkpt lat="44.68912" lon="3.20918">
        <ele>1206.8</ele>
        <time>2022-08-02T10:06:44Z</time>
      </trkpt>
      <trkpt lat="44.68912" lon="3.20911">
        <ele>1206.8</ele>
        <time>2022-08-02T10:06:48Z</time>
      </trkpt>
      <trkpt lat="44.68912" lon="3.20909">
        <ele>1206.8</ele>
        <time>2022-08-02T10:06:49Z</time>
      </trkpt>
      <trkpt lat="44.68913" lon="3.20899">
        <ele>1206.8</ele>
        <time>2022-08-02T10:06:54Z</time>
      </trkpt>
      <trkpt lat="44.68913" lon="3.20897">
        <ele>1206.8</ele>
        <time>2022-08-02T10:06:55Z</time>
      </trkpt>
      <trkpt lat="44.68913" lon="3.20892">
        <ele>1206.7</ele>
        <time>2022-08-02T10:06:57Z</time>
      </trkpt>
      <trkpt lat="44.68913" lon="3.20891">
        <ele>1206.7</ele>
        <time>2022-08-02T10:06:58Z</time>
      </trkpt>
      <trkpt lat="44.68913" lon="3.20889">
        <ele>1206.6</ele>
        <time>2022-08-02T10:06:59Z</time>
      </trkpt>
      <trkpt lat="44.68915" lon="3.2088">
        <ele>1206.5</ele>
        <time>2022-08-02T10:07:05Z</time>
      </trkpt>
      <trkpt lat="44.68915" lon="3.20876">
        <ele>1206.7</ele>
        <time>2022-08-02T10:07:07Z</time>
      </trkpt>
      <trkpt lat="44.68916" lon="3.20866">
        <ele>1206.9</ele>
        <time>2022-08-02T10:07:13Z</time>
      </trkpt>
      <trkpt lat="44.68916" lon="3.20864">
        <ele>1207</ele>
        <time>2022-08-02T10:07:14Z</time>
      </trkpt>
      <trkpt lat="44.68916" lon="3.20848">
        <ele>1207.1</ele>
        <time>2022-08-02T10:07:24Z</time>
      </trkpt>
      <trkpt lat="44.68916" lon="3.20835">
        <ele>1207.1</ele>
        <time>2022-08-02T10:07:32Z</time>
      </trkpt>
      <trkpt lat="44.68916" lon="3.20834">
        <ele>1207.1</ele>
        <time>2022-08-02T10:07:33Z</time>
      </trkpt>
      <trkpt lat="44.68916" lon="3.20818">
        <ele>1207.6</ele>
        <time>2022-08-02T10:07:42Z</time>
      </trkpt>
      <trkpt lat="44.68915" lon="3.20807">
        <ele>1208.1</ele>
        <time>2022-08-02T10:07:49Z</time>
      </trkpt>
      <trkpt lat="44.68915" lon="3.20803">
        <ele>1208.2</ele>
        <time>2022-08-02T10:07:53Z</time>
      </trkpt>
      <trkpt lat="44.68915" lon="3.20803">
        <ele>1208.1</ele>
        <time>2022-08-02T10:07:54Z</time>
      </trkpt>
      <trkpt lat="44.68915" lon="3.208">
        <ele>1208.2</ele>
        <time>2022-08-02T10:07:58Z</time>
      </trkpt>
      <trkpt lat="44.68915" lon="3.20797">
        <ele>1208.3</ele>
        <time>2022-08-02T10:08:00Z</time>
      </trkpt>
      <trkpt lat="44.68914" lon="3.20796">
        <ele>1208.3</ele>
        <time>2022-08-02T10:08:01Z</time>
      </trkpt>
      <trkpt lat="44.68914" lon="3.20787">
        <ele>1208.4</ele>
        <time>2022-08-02T10:08:06Z</time>
      </trkpt>
      <trkpt lat="44.68913" lon="3.20782">
        <ele>1208.5</ele>
        <time>2022-08-02T10:08:09Z</time>
      </trkpt>
      <trkpt lat="44.68911" lon="3.20772">
        <ele>1208.7</ele>
        <time>2022-08-02T10:08:15Z</time>
      </trkpt>
      <trkpt lat="44.68906" lon="3.20755">
        <ele>1209.3</ele>
        <time>2022-08-02T10:08:26Z</time>
      </trkpt>
      <trkpt lat="44.68904" lon="3.20748">
        <ele>1209.3</ele>
        <time>2022-08-02T10:08:31Z</time>
      </trkpt>
      <trkpt lat="44.68903" lon="3.20747">
        <ele>1209.3</ele>
        <time>2022-08-02T10:08:32Z</time>
      </trkpt>
      <trkpt lat="44.68902" lon="3.20743">
        <ele>1209.4</ele>
        <time>2022-08-02T10:08:34Z</time>
      </trkpt>
      <trkpt lat="44.68898" lon="3.20737">
        <ele>1209.6</ele>
        <time>2022-08-02T10:08:40Z</time>
      </trkpt>
      <trkpt lat="44.68897" lon="3.20735">
        <ele>1209.6</ele>
        <time>2022-08-02T10:08:42Z</time>
      </trkpt>
      <trkpt lat="44.68894" lon="3.20729">
        <ele>1209.7</ele>
        <time>2022-08-02T10:08:47Z</time>
      </trkpt>
      <trkpt lat="44.68893" lon="3.20727">
        <ele>1209.7</ele>
        <time>2022-08-02T10:08:48Z</time>
      </trkpt>
      <trkpt lat="44.68889" lon="3.20722">
        <ele>1210</ele>
        <time>2022-08-02T10:08:52Z</time>
      </trkpt>
      <trkpt lat="44.68887" lon="3.2072">
        <ele>1210.2</ele>
        <time>2022-08-02T10:08:54Z</time>
      </trkpt>
      <trkpt lat="44.68885" lon="3.20716">
        <ele>1210.4</ele>
        <time>2022-08-02T10:08:57Z</time>
      </trkpt>
      <trkpt lat="44.68883" lon="3.20713">
        <ele>1210.6</ele>
        <time>2022-08-02T10:09:00Z</time>
      </trkpt>
      <trkpt lat="44.6888" lon="3.2071">
        <ele>1210.8</ele>
        <time>2022-08-02T10:09:04Z</time>
      </trkpt>
      <trkpt lat="44.68876" lon="3.20704">
        <ele>1211.1</ele>
        <time>2022-08-02T10:09:09Z</time>
      </trkpt>
      <trkpt lat="44.68875" lon="3.20703">
        <ele>1211.1</ele>
        <time>2022-08-02T10:09:10Z</time>
      </trkpt>
      <trkpt lat="44.68872" lon="3.20698">
        <ele>1211.3</ele>
        <time>2022-08-02T10:09:13Z</time>
      </trkpt>
      <trkpt lat="44.6887" lon="3.20695">
        <ele>1211.4</ele>
        <time>2022-08-02T10:09:16Z</time>
      </trkpt>
      <trkpt lat="44.68868" lon="3.20694">
        <ele>1211.5</ele>
        <time>2022-08-02T10:09:18Z</time>
      </trkpt>
      <trkpt lat="44.68866" lon="3.20692">
        <ele>1211.5</ele>
        <time>2022-08-02T10:09:20Z</time>
      </trkpt>
      <trkpt lat="44.68866" lon="3.20691">
        <ele>1211.5</ele>
        <time>2022-08-02T10:09:21Z</time>
      </trkpt>
      <trkpt lat="44.68864" lon="3.20688">
        <ele>1211.6</ele>
        <time>2022-08-02T10:09:23Z</time>
      </trkpt>
      <trkpt lat="44.68863" lon="3.20687">
        <ele>1211.6</ele>
        <time>2022-08-02T10:09:24Z</time>
      </trkpt>
      <trkpt lat="44.68858" lon="3.20678">
        <ele>1211.7</ele>
        <time>2022-08-02T10:09:31Z</time>
      </trkpt>
      <trkpt lat="44.68857" lon="3.20676">
        <ele>1211.8</ele>
        <time>2022-08-02T10:09:32Z</time>
      </trkpt>
      <trkpt lat="44.68856" lon="3.20675">
        <ele>1211.8</ele>
        <time>2022-08-02T10:09:33Z</time>
      </trkpt>
      <trkpt lat="44.68853" lon="3.2067">
        <ele>1212</ele>
        <time>2022-08-02T10:09:37Z</time>
      </trkpt>
      <trkpt lat="44.68852" lon="3.20669">
        <ele>1212.1</ele>
        <time>2022-08-02T10:09:38Z</time>
      </trkpt>
      <trkpt lat="44.68849" lon="3.20666">
        <ele>1212.3</ele>
        <time>2022-08-02T10:09:41Z</time>
      </trkpt>
      <trkpt lat="44.68842" lon="3.20655">
        <ele>1212.7</ele>
        <time>2022-08-02T10:09:50Z</time>
      </trkpt>
      <trkpt lat="44.68836" lon="3.20647">
        <ele>1213.1</ele>
        <time>2022-08-02T10:09:57Z</time>
      </trkpt>
      <trkpt lat="44.68834" lon="3.20641">
        <ele>1213</ele>
        <time>2022-08-02T10:10:01Z</time>
      </trkpt>
      <trkpt lat="44.6883" lon="3.20637">
        <ele>1213.3</ele>
        <time>2022-08-02T10:10:06Z</time>
      </trkpt>
      <trkpt lat="44.68829" lon="3.20634">
        <ele>1213.3</ele>
        <time>2022-08-02T10:10:08Z</time>
      </trkpt>
      <trkpt lat="44.68828" lon="3.20633">
        <ele>1213.4</ele>
        <time>2022-08-02T10:10:09Z</time>
      </trkpt>
      <trkpt lat="44.68826" lon="3.20632">
        <ele>1213.4</ele>
        <time>2022-08-02T10:10:10Z</time>
      </trkpt>
      <trkpt lat="44.68826" lon="3.20631">
        <ele>1213.5</ele>
        <time>2022-08-02T10:10:11Z</time>
      </trkpt>
      <trkpt lat="44.68824" lon="3.20629">
        <ele>1213.6</ele>
        <time>2022-08-02T10:10:13Z</time>
      </trkpt>
      <trkpt lat="44.68819" lon="3.20626">
        <ele>1213.8</ele>
        <time>2022-08-02T10:10:17Z</time>
      </trkpt>
      <trkpt lat="44.68815" lon="3.20623">
        <ele>1214</ele>
        <time>2022-08-02T10:10:21Z</time>
      </trkpt>
      <trkpt lat="44.68814" lon="3.20623">
        <ele>1214</ele>
        <time>2022-08-02T10:10:22Z</time>
      </trkpt>
      <trkpt lat="44.68805" lon="3.20617">
        <ele>1214.2</ele>
        <time>2022-08-02T10:10:29Z</time>
      </trkpt>
      <trkpt lat="44.68805" lon="3.20616">
        <ele>1214.2</ele>
        <time>2022-08-02T10:10:30Z</time>
      </trkpt>
      <trkpt lat="44.68804" lon="3.20615">
        <ele>1214.2</ele>
        <time>2022-08-02T10:10:31Z</time>
      </trkpt>
      <trkpt lat="44.68797" lon="3.2061">
        <ele>1213.9</ele>
        <time>2022-08-02T10:10:37Z</time>
      </trkpt>
      <trkpt lat="44.68794" lon="3.20606">
        <ele>1213.6</ele>
        <time>2022-08-02T10:10:41Z</time>
      </trkpt>
      <trkpt lat="44.68793" lon="3.20605">
        <ele>1213.5</ele>
        <time>2022-08-02T10:10:42Z</time>
      </trkpt>
      <trkpt lat="44.68792" lon="3.20604">
        <ele>1213.5</ele>
        <time>2022-08-02T10:10:43Z</time>
      </trkpt>
      <trkpt lat="44.68791" lon="3.20604">
        <ele>1213.5</ele>
        <time>2022-08-02T10:10:44Z</time>
      </trkpt>
      <trkpt lat="44.68792" lon="3.20604">
        <ele>1213.5</ele>
        <time>2022-08-02T10:10:45Z</time>
      </trkpt>
      <trkpt lat="44.68793" lon="3.20604">
        <ele>1213.5</ele>
        <time>2022-08-02T10:10:50Z</time>
      </trkpt>
      <trkpt lat="44.68793" lon="3.20604">
        <ele>1213.5</ele>
        <time>2022-08-02T10:10:51Z</time>
      </trkpt>
      <trkpt lat="44.68793" lon="3.20604">
        <ele>1213.5</ele>
        <time>2022-08-02T10:10:53Z</time>
      </trkpt>
      <trkpt lat="44.68792" lon="3.20603">
        <ele>1213.4</ele>
        <time>2022-08-02T10:10:54Z</time>
      </trkpt>
      <trkpt lat="44.68791" lon="3.20603">
        <ele>1213.4</ele>
        <time>2022-08-02T10:10:55Z</time>
      </trkpt>
      <trkpt lat="44.68787" lon="3.206">
        <ele>1213.2</ele>
        <time>2022-08-02T10:10:57Z</time>
      </trkpt>
      <trkpt lat="44.68786" lon="3.206">
        <ele>1213.2</ele>
        <time>2022-08-02T10:10:58Z</time>
      </trkpt>
      <trkpt lat="44.68781" lon="3.20595">
        <ele>1212.9</ele>
        <time>2022-08-02T10:11:03Z</time>
      </trkpt>
      <trkpt lat="44.68775" lon="3.20591">
        <ele>1212.7</ele>
        <time>2022-08-02T10:11:08Z</time>
      </trkpt>
      <trkpt lat="44.6877" lon="3.20588">
        <ele>1212.7</ele>
        <time>2022-08-02T10:11:14Z</time>
      </trkpt>
      <trkpt lat="44.68763" lon="3.20584">
        <ele>1212.6</ele>
        <time>2022-08-02T10:11:18Z</time>
      </trkpt>
      <trkpt lat="44.6876" lon="3.20582">
        <ele>1212.6</ele>
        <time>2022-08-02T10:11:22Z</time>
      </trkpt>
      <trkpt lat="44.68758" lon="3.20579">
        <ele>1212.5</ele>
        <time>2022-08-02T10:11:26Z</time>
      </trkpt>
      <trkpt lat="44.68757" lon="3.20579">
        <ele>1212.5</ele>
        <time>2022-08-02T10:11:27Z</time>
      </trkpt>
      <trkpt lat="44.68756" lon="3.20578">
        <ele>1212.4</ele>
        <time>2022-08-02T10:11:29Z</time>
      </trkpt>
      <trkpt lat="44.68753" lon="3.20575">
        <ele>1212.3</ele>
        <time>2022-08-02T10:11:33Z</time>
      </trkpt>
      <trkpt lat="44.68752" lon="3.20575">
        <ele>1212.3</ele>
        <time>2022-08-02T10:11:34Z</time>
      </trkpt>
      <trkpt lat="44.6875" lon="3.20574">
        <ele>1212.4</ele>
        <time>2022-08-02T10:11:36Z</time>
      </trkpt>
      <trkpt lat="44.68748" lon="3.20574">
        <ele>1212.4</ele>
        <time>2022-08-02T10:11:37Z</time>
      </trkpt>
      <trkpt lat="44.68745" lon="3.20573">
        <ele>1212.4</ele>
        <time>2022-08-02T10:11:39Z</time>
      </trkpt>
      <trkpt lat="44.68744" lon="3.20572">
        <ele>1212.4</ele>
        <time>2022-08-02T10:11:40Z</time>
      </trkpt>
      <trkpt lat="44.68741" lon="3.2057">
        <ele>1212.4</ele>
        <time>2022-08-02T10:11:43Z</time>
      </trkpt>
      <trkpt lat="44.68737" lon="3.20569">
        <ele>1212.4</ele>
        <time>2022-08-02T10:11:46Z</time>
      </trkpt>
      <trkpt lat="44.68736" lon="3.20567">
        <ele>1212.3</ele>
        <time>2022-08-02T10:11:47Z</time>
      </trkpt>
      <trkpt lat="44.68735" lon="3.20565">
        <ele>1212.3</ele>
        <time>2022-08-02T10:11:48Z</time>
      </trkpt>
      <trkpt lat="44.68733" lon="3.20563">
        <ele>1212.2</ele>
        <time>2022-08-02T10:11:50Z</time>
      </trkpt>
      <trkpt lat="44.68728" lon="3.2056">
        <ele>1212.1</ele>
        <time>2022-08-02T10:11:56Z</time>
      </trkpt>
      <trkpt lat="44.68727" lon="3.20559">
        <ele>1212.1</ele>
        <time>2022-08-02T10:11:57Z</time>
      </trkpt>
      <trkpt lat="44.68724" lon="3.20558">
        <ele>1212.1</ele>
        <time>2022-08-02T10:11:59Z</time>
      </trkpt>
      <trkpt lat="44.68723" lon="3.20557">
        <ele>1212.1</ele>
        <time>2022-08-02T10:12:00Z</time>
      </trkpt>
      <trkpt lat="44.68722" lon="3.20556">
        <ele>1212.1</ele>
        <time>2022-08-02T10:12:01Z</time>
      </trkpt>
      <trkpt lat="44.68721" lon="3.20555">
        <ele>1212</ele>
        <time>2022-08-02T10:12:02Z</time>
      </trkpt>
      <trkpt lat="44.6872" lon="3.20554">
        <ele>1212</ele>
        <time>2022-08-02T10:12:03Z</time>
      </trkpt>
      <trkpt lat="44.68719" lon="3.20552">
        <ele>1212</ele>
        <time>2022-08-02T10:12:05Z</time>
      </trkpt>
      <trkpt lat="44.68718" lon="3.20552">
        <ele>1212</ele>
        <time>2022-08-02T10:12:06Z</time>
      </trkpt>
      <trkpt lat="44.68717" lon="3.20551">
        <ele>1212</ele>
        <time>2022-08-02T10:12:07Z</time>
      </trkpt>
      <trkpt lat="44.68714" lon="3.20549">
        <ele>1212.1</ele>
        <time>2022-08-02T10:12:10Z</time>
      </trkpt>
      <trkpt lat="44.68709" lon="3.20546">
        <ele>1212.1</ele>
        <time>2022-08-02T10:12:15Z</time>
      </trkpt>
      <trkpt lat="44.68707" lon="3.20546">
        <ele>1212.2</ele>
        <time>2022-08-02T10:12:16Z</time>
      </trkpt>
      <trkpt lat="44.68704" lon="3.20544">
        <ele>1212.2</ele>
        <time>2022-08-02T10:12:19Z</time>
      </trkpt>
      <trkpt lat="44.68702" lon="3.20544">
        <ele>1212.3</ele>
        <time>2022-08-02T10:12:21Z</time>
      </trkpt>
      <trkpt lat="44.687" lon="3.20543">
        <ele>1212.3</ele>
        <time>2022-08-02T10:12:22Z</time>
      </trkpt>
      <trkpt lat="44.687" lon="3.20543">
        <ele>1212.3</ele>
        <time>2022-08-02T10:12:23Z</time>
      </trkpt>
      <trkpt lat="44.68697" lon="3.20543">
        <ele>1212.5</ele>
        <time>2022-08-02T10:12:24Z</time>
      </trkpt>
      <trkpt lat="44.68695" lon="3.20542">
        <ele>1212.5</ele>
        <time>2022-08-02T10:12:26Z</time>
      </trkpt>
      <trkpt lat="44.68692" lon="3.20537">
        <ele>1212.1</ele>
        <time>2022-08-02T10:12:30Z</time>
      </trkpt>
      <trkpt lat="44.68691" lon="3.20535">
        <ele>1212</ele>
        <time>2022-08-02T10:12:31Z</time>
      </trkpt>
      <trkpt lat="44.68685" lon="3.20531">
        <ele>1211.9</ele>
        <time>2022-08-02T10:12:37Z</time>
      </trkpt>
      <trkpt lat="44.68677" lon="3.20523">
        <ele>1211.7</ele>
        <time>2022-08-02T10:12:44Z</time>
      </trkpt>
      <trkpt lat="44.68677" lon="3.20521">
        <ele>1211.7</ele>
        <time>2022-08-02T10:12:45Z</time>
      </trkpt>
      <trkpt lat="44.68673" lon="3.20518">
        <ele>1211.6</ele>
        <time>2022-08-02T10:12:49Z</time>
      </trkpt>
      <trkpt lat="44.68671" lon="3.20517">
        <ele>1211.6</ele>
        <time>2022-08-02T10:12:51Z</time>
      </trkpt>
      <trkpt lat="44.6867" lon="3.20516">
        <ele>1211.5</ele>
        <time>2022-08-02T10:12:52Z</time>
      </trkpt>
      <trkpt lat="44.68669" lon="3.20515">
        <ele>1211.5</ele>
        <time>2022-08-02T10:12:53Z</time>
      </trkpt>
      <trkpt lat="44.68669" lon="3.20515">
        <ele>1211.5</ele>
        <time>2022-08-02T10:12:54Z</time>
      </trkpt>
      <trkpt lat="44.68668" lon="3.20514">
        <ele>1211.4</ele>
        <time>2022-08-02T10:12:55Z</time>
      </trkpt>
      <trkpt lat="44.68666" lon="3.20511">
        <ele>1211.2</ele>
        <time>2022-08-02T10:12:58Z</time>
      </trkpt>
      <trkpt lat="44.68665" lon="3.20507">
        <ele>1210.9</ele>
        <time>2022-08-02T10:13:01Z</time>
      </trkpt>
      <trkpt lat="44.68664" lon="3.20506">
        <ele>1210.8</ele>
        <time>2022-08-02T10:13:02Z</time>
      </trkpt>
      <trkpt lat="44.68657" lon="3.20499">
        <ele>1210.6</ele>
        <time>2022-08-02T10:13:07Z</time>
      </trkpt>
      <trkpt lat="44.68657" lon="3.20498">
        <ele>1210.5</ele>
        <time>2022-08-02T10:13:08Z</time>
      </trkpt>
      <trkpt lat="44.68656" lon="3.20497">
        <ele>1210.5</ele>
        <time>2022-08-02T10:13:09Z</time>
      </trkpt>
      <trkpt lat="44.68655" lon="3.20496">
        <ele>1210.5</ele>
        <time>2022-08-02T10:13:10Z</time>
      </trkpt>
      <trkpt lat="44.68654" lon="3.20496">
        <ele>1210.6</ele>
        <time>2022-08-02T10:13:11Z</time>
      </trkpt>
      <trkpt lat="44.68653" lon="3.20495">
        <ele>1210.6</ele>
        <time>2022-08-02T10:13:12Z</time>
      </trkpt>
      <trkpt lat="44.6865" lon="3.20493">
        <ele>1210.6</ele>
        <time>2022-08-02T10:13:14Z</time>
      </trkpt>
      <trkpt lat="44.68645" lon="3.2049">
        <ele>1210.8</ele>
        <time>2022-08-02T10:13:18Z</time>
      </trkpt>
      <trkpt lat="44.68641" lon="3.2049">
        <ele>1211.1</ele>
        <time>2022-08-02T10:13:21Z</time>
      </trkpt>
      <trkpt lat="44.68637" lon="3.20487">
        <ele>1211.1</ele>
        <time>2022-08-02T10:13:24Z</time>
      </trkpt>
      <trkpt lat="44.68632" lon="3.20479">
        <ele>1210.7</ele>
        <time>2022-08-02T10:13:31Z</time>
      </trkpt>
      <trkpt lat="44.68628" lon="3.20476">
        <ele>1210.7</ele>
        <time>2022-08-02T10:13:35Z</time>
      </trkpt>
      <trkpt lat="44.68626" lon="3.20475">
        <ele>1210.6</ele>
        <time>2022-08-02T10:13:37Z</time>
      </trkpt>
      <trkpt lat="44.68625" lon="3.20474">
        <ele>1210.6</ele>
        <time>2022-08-02T10:13:38Z</time>
      </trkpt>
      <trkpt lat="44.68619" lon="3.20471">
        <ele>1210.6</ele>
        <time>2022-08-02T10:13:43Z</time>
      </trkpt>
      <trkpt lat="44.68618" lon="3.2047">
        <ele>1210.6</ele>
        <time>2022-08-02T10:13:44Z</time>
      </trkpt>
      <trkpt lat="44.68617" lon="3.20468">
        <ele>1210.5</ele>
        <time>2022-08-02T10:13:45Z</time>
      </trkpt>
      <trkpt lat="44.68617" lon="3.20467">
        <ele>1210.4</ele>
        <time>2022-08-02T10:13:46Z</time>
      </trkpt>
      <trkpt lat="44.68613" lon="3.20463">
        <ele>1210.3</ele>
        <time>2022-08-02T10:13:49Z</time>
      </trkpt>
      <trkpt lat="44.68608" lon="3.20461">
        <ele>1210.2</ele>
        <time>2022-08-02T10:13:52Z</time>
      </trkpt>
      <trkpt lat="44.68606" lon="3.20458">
        <ele>1210.1</ele>
        <time>2022-08-02T10:13:54Z</time>
      </trkpt>
      <trkpt lat="44.68604" lon="3.20456">
        <ele>1210</ele>
        <time>2022-08-02T10:13:56Z</time>
      </trkpt>
      <trkpt lat="44.68603" lon="3.20455">
        <ele>1210</ele>
        <time>2022-08-02T10:13:57Z</time>
      </trkpt>
      <trkpt lat="44.686" lon="3.20453">
        <ele>1209.9</ele>
        <time>2022-08-02T10:13:59Z</time>
      </trkpt>
      <trkpt lat="44.68596" lon="3.20449">
        <ele>1209.8</ele>
        <time>2022-08-02T10:14:03Z</time>
      </trkpt>
      <trkpt lat="44.68595" lon="3.20447">
        <ele>1209.7</ele>
        <time>2022-08-02T10:14:04Z</time>
      </trkpt>
      <trkpt lat="44.68588" lon="3.20442">
        <ele>1209.7</ele>
        <time>2022-08-02T10:14:12Z</time>
      </trkpt>
      <trkpt lat="44.68588" lon="3.20441">
        <ele>1209.7</ele>
        <time>2022-08-02T10:14:13Z</time>
      </trkpt>
      <trkpt lat="44.68584" lon="3.20437">
        <ele>1209.7</ele>
        <time>2022-08-02T10:14:17Z</time>
      </trkpt>
      <trkpt lat="44.68583" lon="3.20437">
        <ele>1209.7</ele>
        <time>2022-08-02T10:14:18Z</time>
      </trkpt>
      <trkpt lat="44.68582" lon="3.20436">
        <ele>1209.7</ele>
        <time>2022-08-02T10:14:19Z</time>
      </trkpt>
      <trkpt lat="44.68581" lon="3.20435">
        <ele>1209.7</ele>
        <time>2022-08-02T10:14:20Z</time>
      </trkpt>
      <trkpt lat="44.68574" lon="3.2043">
        <ele>1209.8</ele>
        <time>2022-08-02T10:14:25Z</time>
      </trkpt>
      <trkpt lat="44.68572" lon="3.20426">
        <ele>1209.7</ele>
        <time>2022-08-02T10:14:28Z</time>
      </trkpt>
      <trkpt lat="44.68571" lon="3.20424">
        <ele>1209.7</ele>
        <time>2022-08-02T10:14:29Z</time>
      </trkpt>
      <trkpt lat="44.68571" lon="3.20423">
        <ele>1209.7</ele>
        <time>2022-08-02T10:14:30Z</time>
      </trkpt>
      <trkpt lat="44.68567" lon="3.20417">
        <ele>1209.6</ele>
        <time>2022-08-02T10:14:34Z</time>
      </trkpt>
      <trkpt lat="44.68564" lon="3.2041">
        <ele>1209.5</ele>
        <time>2022-08-02T10:14:38Z</time>
      </trkpt>
      <trkpt lat="44.68563" lon="3.20408">
        <ele>1209.4</ele>
        <time>2022-08-02T10:14:39Z</time>
      </trkpt>
      <trkpt lat="44.68559" lon="3.20397">
        <ele>1209.2</ele>
        <time>2022-08-02T10:14:47Z</time>
      </trkpt>
      <trkpt lat="44.68559" lon="3.20396">
        <ele>1209.1</ele>
        <time>2022-08-02T10:14:48Z</time>
      </trkpt>
      <trkpt lat="44.68558" lon="3.20394">
        <ele>1209.1</ele>
        <time>2022-08-02T10:14:49Z</time>
      </trkpt>
      <trkpt lat="44.68557" lon="3.20386">
        <ele>1208.9</ele>
        <time>2022-08-02T10:14:55Z</time>
      </trkpt>
      <trkpt lat="44.68557" lon="3.20385">
        <ele>1209</ele>
        <time>2022-08-02T10:14:56Z</time>
      </trkpt>
      <trkpt lat="44.68557" lon="3.20385">
        <ele>1208.9</ele>
        <time>2022-08-02T10:14:57Z</time>
      </trkpt>
      <trkpt lat="44.68557" lon="3.20385">
        <ele>1209</ele>
        <time>2022-08-02T10:14:58Z</time>
      </trkpt>
      <trkpt lat="44.68555" lon="3.20379">
        <ele>1209.1</ele>
        <time>2022-08-02T10:15:03Z</time>
      </trkpt>
      <trkpt lat="44.68554" lon="3.20377">
        <ele>1209.1</ele>
        <time>2022-08-02T10:15:04Z</time>
      </trkpt>
      <trkpt lat="44.68553" lon="3.20376">
        <ele>1209.2</ele>
        <time>2022-08-02T10:15:05Z</time>
      </trkpt>
      <trkpt lat="44.68553" lon="3.20374">
        <ele>1209.2</ele>
        <time>2022-08-02T10:15:06Z</time>
      </trkpt>
      <trkpt lat="44.68553" lon="3.20372">
        <ele>1209.2</ele>
        <time>2022-08-02T10:15:07Z</time>
      </trkpt>
      <trkpt lat="44.68552" lon="3.20369">
        <ele>1209.3</ele>
        <time>2022-08-02T10:15:09Z</time>
      </trkpt>
      <trkpt lat="44.6855" lon="3.20366">
        <ele>1209.4</ele>
        <time>2022-08-02T10:15:11Z</time>
      </trkpt>
      <trkpt lat="44.68549" lon="3.20363">
        <ele>1209.5</ele>
        <time>2022-08-02T10:15:13Z</time>
      </trkpt>
      <trkpt lat="44.68549" lon="3.20361">
        <ele>1209.5</ele>
        <time>2022-08-02T10:15:14Z</time>
      </trkpt>
      <trkpt lat="44.68548" lon="3.20357">
        <ele>1209.3</ele>
        <time>2022-08-02T10:15:16Z</time>
      </trkpt>
      <trkpt lat="44.68548" lon="3.20352">
        <ele>1209.1</ele>
        <time>2022-08-02T10:15:19Z</time>
      </trkpt>
      <trkpt lat="44.68547" lon="3.2035">
        <ele>1209</ele>
        <time>2022-08-02T10:15:21Z</time>
      </trkpt>
      <trkpt lat="44.68543" lon="3.20338">
        <ele>1209</ele>
        <time>2022-08-02T10:15:29Z</time>
      </trkpt>
      <trkpt lat="44.68543" lon="3.20334">
        <ele>1208.8</ele>
        <time>2022-08-02T10:15:31Z</time>
      </trkpt>
      <trkpt lat="44.68543" lon="3.20332">
        <ele>1208.8</ele>
        <time>2022-08-02T10:15:32Z</time>
      </trkpt>
      <trkpt lat="44.68541" lon="3.20328">
        <ele>1208.9</ele>
        <time>2022-08-02T10:15:35Z</time>
      </trkpt>
      <trkpt lat="44.6854" lon="3.20325">
        <ele>1208.9</ele>
        <time>2022-08-02T10:15:37Z</time>
      </trkpt>
      <trkpt lat="44.68539" lon="3.20321">
        <ele>1209</ele>
        <time>2022-08-02T10:15:40Z</time>
      </trkpt>
      <trkpt lat="44.68538" lon="3.20318">
        <ele>1208.9</ele>
        <time>2022-08-02T10:15:42Z</time>
      </trkpt>
      <trkpt lat="44.68537" lon="3.20313">
        <ele>1208.9</ele>
        <time>2022-08-02T10:15:45Z</time>
      </trkpt>
      <trkpt lat="44.68534" lon="3.20309">
        <ele>1209.2</ele>
        <time>2022-08-02T10:15:48Z</time>
      </trkpt>
      <trkpt lat="44.68533" lon="3.20308">
        <ele>1209.3</ele>
        <time>2022-08-02T10:15:49Z</time>
      </trkpt>
      <trkpt lat="44.68528" lon="3.20296">
        <ele>1209.7</ele>
        <time>2022-08-02T10:15:57Z</time>
      </trkpt>
      <trkpt lat="44.68522" lon="3.20286">
        <ele>1209.7</ele>
        <time>2022-08-02T10:16:05Z</time>
      </trkpt>
      <trkpt lat="44.6852" lon="3.20282">
        <ele>1209.7</ele>
        <time>2022-08-02T10:16:08Z</time>
      </trkpt>
      <trkpt lat="44.68519" lon="3.20281">
        <ele>1209.7</ele>
        <time>2022-08-02T10:16:09Z</time>
      </trkpt>
      <trkpt lat="44.68519" lon="3.20279">
        <ele>1209.7</ele>
        <time>2022-08-02T10:16:10Z</time>
      </trkpt>
      <trkpt lat="44.68518" lon="3.20277">
        <ele>1209.7</ele>
        <time>2022-08-02T10:16:11Z</time>
      </trkpt>
      <trkpt lat="44.68516" lon="3.20274">
        <ele>1209.7</ele>
        <time>2022-08-02T10:16:13Z</time>
      </trkpt>
      <trkpt lat="44.68516" lon="3.20273">
        <ele>1209.7</ele>
        <time>2022-08-02T10:16:14Z</time>
      </trkpt>
      <trkpt lat="44.68515" lon="3.20273">
        <ele>1209.7</ele>
        <time>2022-08-02T10:16:15Z</time>
      </trkpt>
      <trkpt lat="44.68513" lon="3.20268">
        <ele>1209.7</ele>
        <time>2022-08-02T10:16:18Z</time>
      </trkpt>
      <trkpt lat="44.68512" lon="3.20267">
        <ele>1209.7</ele>
        <time>2022-08-02T10:16:19Z</time>
      </trkpt>
      <trkpt lat="44.6851" lon="3.20262">
        <ele>1209.7</ele>
        <time>2022-08-02T10:16:23Z</time>
      </trkpt>
      <trkpt lat="44.68509" lon="3.20261">
        <ele>1209.8</ele>
        <time>2022-08-02T10:16:24Z</time>
      </trkpt>
      <trkpt lat="44.68508" lon="3.2026">
        <ele>1209.8</ele>
        <time>2022-08-02T10:16:25Z</time>
      </trkpt>
      <trkpt lat="44.68507" lon="3.20257">
        <ele>1209.7</ele>
        <time>2022-08-02T10:16:27Z</time>
      </trkpt>
      <trkpt lat="44.68506" lon="3.20255">
        <ele>1209.7</ele>
        <time>2022-08-02T10:16:29Z</time>
      </trkpt>
      <trkpt lat="44.68504" lon="3.20251">
        <ele>1209.8</ele>
        <time>2022-08-02T10:16:32Z</time>
      </trkpt>
      <trkpt lat="44.68503" lon="3.2025">
        <ele>1209.8</ele>
        <time>2022-08-02T10:16:33Z</time>
      </trkpt>
      <trkpt lat="44.68497" lon="3.20239">
        <ele>1209.9</ele>
        <time>2022-08-02T10:16:42Z</time>
      </trkpt>
      <trkpt lat="44.68494" lon="3.20235">
        <ele>1210.1</ele>
        <time>2022-08-02T10:16:47Z</time>
      </trkpt>
      <trkpt lat="44.68492" lon="3.20232">
        <ele>1210.3</ele>
        <time>2022-08-02T10:16:50Z</time>
      </trkpt>
      <trkpt lat="44.68489" lon="3.20227">
        <ele>1210.4</ele>
        <time>2022-08-02T10:16:54Z</time>
      </trkpt>
      <trkpt lat="44.68488" lon="3.20224">
        <ele>1210.4</ele>
        <time>2022-08-02T10:16:56Z</time>
      </trkpt>
      <trkpt lat="44.68487" lon="3.20222">
        <ele>1210.4</ele>
        <time>2022-08-02T10:16:57Z</time>
      </trkpt>
      <trkpt lat="44.6848" lon="3.20214">
        <ele>1210.6</ele>
        <time>2022-08-02T10:17:03Z</time>
      </trkpt>
      <trkpt lat="44.6848" lon="3.20212">
        <ele>1210.6</ele>
        <time>2022-08-02T10:17:04Z</time>
      </trkpt>
      <trkpt lat="44.68479" lon="3.20211">
        <ele>1210.6</ele>
        <time>2022-08-02T10:17:05Z</time>
      </trkpt>
      <trkpt lat="44.68478" lon="3.2021">
        <ele>1210.6</ele>
        <time>2022-08-02T10:17:06Z</time>
      </trkpt>
      <trkpt lat="44.68477" lon="3.20209">
        <ele>1210.6</ele>
        <time>2022-08-02T10:17:07Z</time>
      </trkpt>
      <trkpt lat="44.68477" lon="3.20208">
        <ele>1210.5</ele>
        <time>2022-08-02T10:17:08Z</time>
      </trkpt>
      <trkpt lat="44.68476" lon="3.20205">
        <ele>1210.4</ele>
        <time>2022-08-02T10:17:11Z</time>
      </trkpt>
      <trkpt lat="44.68475" lon="3.20203">
        <ele>1210.4</ele>
        <time>2022-08-02T10:17:12Z</time>
      </trkpt>
      <trkpt lat="44.68475" lon="3.20202">
        <ele>1210.3</ele>
        <time>2022-08-02T10:17:13Z</time>
      </trkpt>
      <trkpt lat="44.68474" lon="3.202">
        <ele>1210.3</ele>
        <time>2022-08-02T10:17:14Z</time>
      </trkpt>
      <trkpt lat="44.68472" lon="3.20196">
        <ele>1210.1</ele>
        <time>2022-08-02T10:17:16Z</time>
      </trkpt>
      <trkpt lat="44.6847" lon="3.20193">
        <ele>1210.2</ele>
        <time>2022-08-02T10:17:18Z</time>
      </trkpt>
      <trkpt lat="44.68469" lon="3.20192">
        <ele>1210.3</ele>
        <time>2022-08-02T10:17:19Z</time>
      </trkpt>
      <trkpt lat="44.68469" lon="3.20192">
        <ele>1210.3</ele>
        <time>2022-08-02T10:17:20Z</time>
      </trkpt>
      <trkpt lat="44.68465" lon="3.20187">
        <ele>1210.5</ele>
        <time>2022-08-02T10:17:23Z</time>
      </trkpt>
      <trkpt lat="44.6846" lon="3.2018">
        <ele>1210.8</ele>
        <time>2022-08-02T10:17:29Z</time>
      </trkpt>
      <trkpt lat="44.68454" lon="3.2017">
        <ele>1211.1</ele>
        <time>2022-08-02T10:17:36Z</time>
      </trkpt>
      <trkpt lat="44.68452" lon="3.20166">
        <ele>1211.2</ele>
        <time>2022-08-02T10:17:40Z</time>
      </trkpt>
      <trkpt lat="44.68451" lon="3.20164">
        <ele>1211.2</ele>
        <time>2022-08-02T10:17:41Z</time>
      </trkpt>
      <trkpt lat="44.6845" lon="3.20163">
        <ele>1211.3</ele>
        <time>2022-08-02T10:17:42Z</time>
      </trkpt>
      <trkpt lat="44.68446" lon="3.20155">
        <ele>1211.4</ele>
        <time>2022-08-02T10:17:48Z</time>
      </trkpt>
      <trkpt lat="44.68445" lon="3.20151">
        <ele>1211.4</ele>
        <time>2022-08-02T10:17:51Z</time>
      </trkpt>
      <trkpt lat="44.68439" lon="3.20141">
        <ele>1211.8</ele>
        <time>2022-08-02T10:17:59Z</time>
      </trkpt>
      <trkpt lat="44.68436" lon="3.20134">
        <ele>1211.9</ele>
        <time>2022-08-02T10:18:05Z</time>
      </trkpt>
      <trkpt lat="44.68436" lon="3.20132">
        <ele>1211.9</ele>
        <time>2022-08-02T10:18:06Z</time>
      </trkpt>
      <trkpt lat="44.68435" lon="3.20131">
        <ele>1212</ele>
        <time>2022-08-02T10:18:07Z</time>
      </trkpt>
      <trkpt lat="44.68434" lon="3.2013">
        <ele>1212</ele>
        <time>2022-08-02T10:18:08Z</time>
      </trkpt>
      <trkpt lat="44.68433" lon="3.20128">
        <ele>1212.1</ele>
        <time>2022-08-02T10:18:10Z</time>
      </trkpt>
      <trkpt lat="44.68432" lon="3.20126">
        <ele>1212.1</ele>
        <time>2022-08-02T10:18:11Z</time>
      </trkpt>
      <trkpt lat="44.68431" lon="3.20124">
        <ele>1212.2</ele>
        <time>2022-08-02T10:18:13Z</time>
      </trkpt>
      <trkpt lat="44.68429" lon="3.20121">
        <ele>1212.2</ele>
        <time>2022-08-02T10:18:15Z</time>
      </trkpt>
      <trkpt lat="44.68429" lon="3.2012">
        <ele>1212.2</ele>
        <time>2022-08-02T10:18:16Z</time>
      </trkpt>
      <trkpt lat="44.68427" lon="3.20117">
        <ele>1212.2</ele>
        <time>2022-08-02T10:18:19Z</time>
      </trkpt>
      <trkpt lat="44.68426" lon="3.20115">
        <ele>1212.2</ele>
        <time>2022-08-02T10:18:21Z</time>
      </trkpt>
      <trkpt lat="44.68424" lon="3.20113">
        <ele>1212.3</ele>
        <time>2022-08-02T10:18:23Z</time>
      </trkpt>
      <trkpt lat="44.68423" lon="3.20111">
        <ele>1212.3</ele>
        <time>2022-08-02T10:18:24Z</time>
      </trkpt>
      <trkpt lat="44.68423" lon="3.2011">
        <ele>1212.3</ele>
        <time>2022-08-02T10:18:25Z</time>
      </trkpt>
      <trkpt lat="44.68422" lon="3.20105">
        <ele>1212.3</ele>
        <time>2022-08-02T10:18:28Z</time>
      </trkpt>
      <trkpt lat="44.68421" lon="3.20104">
        <ele>1212.3</ele>
        <time>2022-08-02T10:18:29Z</time>
      </trkpt>
      <trkpt lat="44.68419" lon="3.20102">
        <ele>1212.4</ele>
        <time>2022-08-02T10:18:30Z</time>
      </trkpt>
      <trkpt lat="44.68415" lon="3.20095">
        <ele>1212.6</ele>
        <time>2022-08-02T10:18:34Z</time>
      </trkpt>
      <trkpt lat="44.68413" lon="3.20092">
        <ele>1212.8</ele>
        <time>2022-08-02T10:18:37Z</time>
      </trkpt>
      <trkpt lat="44.68412" lon="3.2009">
        <ele>1212.8</ele>
        <time>2022-08-02T10:18:39Z</time>
      </trkpt>
      <trkpt lat="44.68409" lon="3.20087">
        <ele>1213</ele>
        <time>2022-08-02T10:18:43Z</time>
      </trkpt>
      <trkpt lat="44.68408" lon="3.20089">
        <ele>1213.2</ele>
        <time>2022-08-02T10:18:46Z</time>
      </trkpt>
      <trkpt lat="44.68407" lon="3.2009">
        <ele>1213.4</ele>
        <time>2022-08-02T10:18:48Z</time>
      </trkpt>
      <trkpt lat="44.68406" lon="3.20089">
        <ele>1213.4</ele>
        <time>2022-08-02T10:18:50Z</time>
      </trkpt>
      <trkpt lat="44.68406" lon="3.20088">
        <ele>1213.4</ele>
        <time>2022-08-02T10:18:51Z</time>
      </trkpt>
      <trkpt lat="44.68406" lon="3.20088">
        <ele>1213.4</ele>
        <time>2022-08-02T10:18:52Z</time>
      </trkpt>
      <trkpt lat="44.68406" lon="3.20088">
        <ele>1213.4</ele>
        <time>2022-08-02T10:18:55Z</time>
      </trkpt>
      <trkpt lat="44.68407" lon="3.20089">
        <ele>1213.4</ele>
        <time>2022-08-02T10:18:56Z</time>
      </trkpt>
      <trkpt lat="44.68408" lon="3.20092">
        <ele>1213.4</ele>
        <time>2022-08-02T10:18:59Z</time>
      </trkpt>
      <trkpt lat="44.68408" lon="3.20092">
        <ele>1213.4</ele>
        <time>2022-08-02T10:19:00Z</time>
      </trkpt>
      <trkpt lat="44.68408" lon="3.20092">
        <ele>1213.4</ele>
        <time>2022-08-02T10:19:01Z</time>
      </trkpt>
      <trkpt lat="44.68408" lon="3.20092">
        <ele>1213.4</ele>
        <time>2022-08-02T10:19:03Z</time>
      </trkpt>
      <trkpt lat="44.68408" lon="3.20092">
        <ele>1213.4</ele>
        <time>2022-08-02T10:19:05Z</time>
      </trkpt>
      <trkpt lat="44.68408" lon="3.20092">
        <ele>1213.4</ele>
        <time>2022-08-02T10:19:06Z</time>
      </trkpt>
      <trkpt lat="44.68408" lon="3.20092">
        <ele>1213.4</ele>
        <time>2022-08-02T10:19:07Z</time>
      </trkpt>
      <trkpt lat="44.68408" lon="3.20092">
        <ele>1213.4</ele>
        <time>2022-08-02T10:19:08Z</time>
      </trkpt>
      <trkpt lat="44.68408" lon="3.20092">
        <ele>1213.4</ele>
        <time>2022-08-02T10:19:09Z</time>
      </trkpt>
      <trkpt lat="44.68408" lon="3.20092">
        <ele>1213.4</ele>
        <time>2022-08-02T10:19:11Z</time>
      </trkpt>
      <trkpt lat="44.68408" lon="3.20092">
        <ele>1213.4</ele>
        <time>2022-08-02T10:19:13Z</time>
      </trkpt>
      <trkpt lat="44.68408" lon="3.20092">
        <ele>1213.4</ele>
        <time>2022-08-02T10:19:16Z</time>
      </trkpt>
      <trkpt lat="44.68408" lon="3.20093">
        <ele>1213.4</ele>
        <time>2022-08-02T10:19:18Z</time>
      </trkpt>
      <trkpt lat="44.68408" lon="3.20095">
        <ele>1213.5</ele>
        <time>2022-08-02T10:19:21Z</time>
      </trkpt>
      <trkpt lat="44.68408" lon="3.20095">
        <ele>1213.5</ele>
        <time>2022-08-02T10:19:24Z</time>
      </trkpt>
      <trkpt lat="44.68408" lon="3.20095">
        <ele>1213.4</ele>
        <time>2022-08-02T10:19:25Z</time>
      </trkpt>
      <trkpt lat="44.68409" lon="3.20095">
        <ele>1213.4</ele>
        <time>2022-08-02T10:19:26Z</time>
      </trkpt>
      <trkpt lat="44.6841" lon="3.20095">
        <ele>1213.3</ele>
        <time>2022-08-02T10:19:27Z</time>
      </trkpt>
      <trkpt lat="44.6841" lon="3.20095">
        <ele>1213.3</ele>
        <time>2022-08-02T10:19:28Z</time>
      </trkpt>
      <trkpt lat="44.6841" lon="3.20095">
        <ele>1213.3</ele>
        <time>2022-08-02T10:19:29Z</time>
      </trkpt>
      <trkpt lat="44.6841" lon="3.20095">
        <ele>1213.2</ele>
        <time>2022-08-02T10:19:30Z</time>
      </trkpt>
      <trkpt lat="44.6841" lon="3.20095">
        <ele>1213.2</ele>
        <time>2022-08-02T10:19:31Z</time>
      </trkpt>
      <trkpt lat="44.6841" lon="3.20095">
        <ele>1213.2</ele>
        <time>2022-08-02T10:19:32Z</time>
      </trkpt>
      <trkpt lat="44.6841" lon="3.20095">
        <ele>1213.2</ele>
        <time>2022-08-02T10:19:33Z</time>
      </trkpt>
      <trkpt lat="44.6841" lon="3.20095">
        <ele>1213.2</ele>
        <time>2022-08-02T10:19:34Z</time>
      </trkpt>
      <trkpt lat="44.6841" lon="3.20095">
        <ele>1213.2</ele>
        <time>2022-08-02T10:19:35Z</time>
      </trkpt>
      <trkpt lat="44.68394" lon="3.2008">
        <ele>1214.3</ele>
        <time>2022-08-02T10:48:12Z</time>
      </trkpt>
      <trkpt lat="44.68387" lon="3.201">
        <ele>1216.5</ele>
        <time>2022-08-02T10:48:13Z</time>
      </trkpt>
      <trkpt lat="44.68392" lon="3.2009">
        <ele>1215.1</ele>
        <time>2022-08-02T10:48:14Z</time>
      </trkpt>
      <trkpt lat="44.68393" lon="3.20086">
        <ele>1214.7</ele>
        <time>2022-08-02T10:48:15Z</time>
      </trkpt>
      <trkpt lat="44.68397" lon="3.20072">
        <ele>1213.6</ele>
        <time>2022-08-02T10:48:17Z</time>
      </trkpt>
      <trkpt lat="44.68396" lon="3.2006">
        <ele>1213.1</ele>
        <time>2022-08-02T10:48:22Z</time>
      </trkpt>
      <trkpt lat="44.68392" lon="3.20053">
        <ele>1213.4</ele>
        <time>2022-08-02T10:48:30Z</time>
      </trkpt>
      <trkpt lat="44.68388" lon="3.20044">
        <ele>1213.7</ele>
        <time>2022-08-02T10:48:36Z</time>
      </trkpt>
      <trkpt lat="44.68382" lon="3.20036">
        <ele>1214.3</ele>
        <time>2022-08-02T10:48:46Z</time>
      </trkpt>
      <trkpt lat="44.68379" lon="3.20028">
        <ele>1214.4</ele>
        <time>2022-08-02T10:48:53Z</time>
      </trkpt>
      <trkpt lat="44.6838" lon="3.20028">
        <ele>1214.4</ele>
        <time>2022-08-02T10:48:54Z</time>
      </trkpt>
      <trkpt lat="44.68379" lon="3.20028">
        <ele>1214.5</ele>
        <time>2022-08-02T10:48:57Z</time>
      </trkpt>
      <trkpt lat="44.68378" lon="3.20028">
        <ele>1214.6</ele>
        <time>2022-08-02T10:48:58Z</time>
      </trkpt>
      <trkpt lat="44.68376" lon="3.20026">
        <ele>1214.8</ele>
        <time>2022-08-02T10:49:01Z</time>
      </trkpt>
      <trkpt lat="44.68374" lon="3.20022">
        <ele>1215.1</ele>
        <time>2022-08-02T10:49:05Z</time>
      </trkpt>
      <trkpt lat="44.68371" lon="3.20017">
        <ele>1215.3</ele>
        <time>2022-08-02T10:49:10Z</time>
      </trkpt>
      <trkpt lat="44.68369" lon="3.20011">
        <ele>1215.5</ele>
        <time>2022-08-02T10:49:15Z</time>
      </trkpt>
      <trkpt lat="44.68363" lon="3.20002">
        <ele>1215.9</ele>
        <time>2022-08-02T10:49:23Z</time>
      </trkpt>
      <trkpt lat="44.68362" lon="3.2">
        <ele>1215.9</ele>
        <time>2022-08-02T10:49:24Z</time>
      </trkpt>
      <trkpt lat="44.68359" lon="3.19991">
        <ele>1216.3</ele>
        <time>2022-08-02T10:49:31Z</time>
      </trkpt>
      <trkpt lat="44.68356" lon="3.19984">
        <ele>1216.7</ele>
        <time>2022-08-02T10:49:35Z</time>
      </trkpt>
      <trkpt lat="44.6835" lon="3.19977">
        <ele>1217.3</ele>
        <time>2022-08-02T10:49:41Z</time>
      </trkpt>
      <trkpt lat="44.68344" lon="3.1997">
        <ele>1217.9</ele>
        <time>2022-08-02T10:49:49Z</time>
      </trkpt>
      <trkpt lat="44.68342" lon="3.19967">
        <ele>1218</ele>
        <time>2022-08-02T10:49:51Z</time>
      </trkpt>
      <trkpt lat="44.6834" lon="3.19965">
        <ele>1218.2</ele>
        <time>2022-08-02T10:49:54Z</time>
      </trkpt>
      <trkpt lat="44.68338" lon="3.19963">
        <ele>1218.3</ele>
        <time>2022-08-02T10:49:56Z</time>
      </trkpt>
      <trkpt lat="44.68335" lon="3.1996">
        <ele>1218.4</ele>
        <time>2022-08-02T10:49:59Z</time>
      </trkpt>
      <trkpt lat="44.68331" lon="3.19957">
        <ele>1218.5</ele>
        <time>2022-08-02T10:50:03Z</time>
      </trkpt>
      <trkpt lat="44.68329" lon="3.19955">
        <ele>1218.4</ele>
        <time>2022-08-02T10:50:05Z</time>
      </trkpt>
      <trkpt lat="44.68327" lon="3.1995">
        <ele>1218.2</ele>
        <time>2022-08-02T10:50:08Z</time>
      </trkpt>
      <trkpt lat="44.68326" lon="3.1995">
        <ele>1218.2</ele>
        <time>2022-08-02T10:50:09Z</time>
      </trkpt>
      <trkpt lat="44.68325" lon="3.1995">
        <ele>1218.2</ele>
        <time>2022-08-02T10:50:10Z</time>
      </trkpt>
      <trkpt lat="44.68321" lon="3.19947">
        <ele>1218.1</ele>
        <time>2022-08-02T10:50:14Z</time>
      </trkpt>
      <trkpt lat="44.68313" lon="3.19943">
        <ele>1217.9</ele>
        <time>2022-08-02T10:50:21Z</time>
      </trkpt>
      <trkpt lat="44.68308" lon="3.19938">
        <ele>1217.8</ele>
        <time>2022-08-02T10:50:27Z</time>
      </trkpt>
      <trkpt lat="44.68306" lon="3.19937">
        <ele>1217.7</ele>
        <time>2022-08-02T10:50:30Z</time>
      </trkpt>
      <trkpt lat="44.68306" lon="3.19937">
        <ele>1217.7</ele>
        <time>2022-08-02T10:50:31Z</time>
      </trkpt>
      <trkpt lat="44.68305" lon="3.19936">
        <ele>1217.7</ele>
        <time>2022-08-02T10:50:34Z</time>
      </trkpt>
      <trkpt lat="44.68304" lon="3.19936">
        <ele>1217.7</ele>
        <time>2022-08-02T10:50:36Z</time>
      </trkpt>
      <trkpt lat="44.68303" lon="3.19934">
        <ele>1217.6</ele>
        <time>2022-08-02T10:50:45Z</time>
      </trkpt>
      <trkpt lat="44.68304" lon="3.19936">
        <ele>1217.7</ele>
        <time>2022-08-02T10:50:52Z</time>
      </trkpt>
      <trkpt lat="44.68305" lon="3.19936">
        <ele>1217.7</ele>
        <time>2022-08-02T10:51:00Z</time>
      </trkpt>
      <trkpt lat="44.683" lon="3.19936">
        <ele>1217.6</ele>
        <time>2022-08-02T10:51:06Z</time>
      </trkpt>
      <trkpt lat="44.68298" lon="3.19935">
        <ele>1217.5</ele>
        <time>2022-08-02T10:51:08Z</time>
      </trkpt>
      <trkpt lat="44.6829" lon="3.19929">
        <ele>1217.1</ele>
        <time>2022-08-02T10:51:15Z</time>
      </trkpt>
      <trkpt lat="44.68279" lon="3.19925">
        <ele>1216.6</ele>
        <time>2022-08-02T10:51:23Z</time>
      </trkpt>
      <trkpt lat="44.68278" lon="3.19924">
        <ele>1216.5</ele>
        <time>2022-08-02T10:51:24Z</time>
      </trkpt>
      <trkpt lat="44.68271" lon="3.19921">
        <ele>1216.5</ele>
        <time>2022-08-02T10:51:30Z</time>
      </trkpt>
      <trkpt lat="44.6826" lon="3.19914">
        <ele>1216.5</ele>
        <time>2022-08-02T10:51:39Z</time>
      </trkpt>
      <trkpt lat="44.68252" lon="3.19911">
        <ele>1216.7</ele>
        <time>2022-08-02T10:51:46Z</time>
      </trkpt>
      <trkpt lat="44.68243" lon="3.19907">
        <ele>1216.6</ele>
        <time>2022-08-02T10:51:53Z</time>
      </trkpt>
      <trkpt lat="44.68231" lon="3.199">
        <ele>1216.4</ele>
        <time>2022-08-02T10:52:02Z</time>
      </trkpt>
      <trkpt lat="44.68229" lon="3.19899">
        <ele>1216.4</ele>
        <time>2022-08-02T10:52:04Z</time>
      </trkpt>
      <trkpt lat="44.68222" lon="3.19898">
        <ele>1216.3</ele>
        <time>2022-08-02T10:52:10Z</time>
      </trkpt>
      <trkpt lat="44.68208" lon="3.19895">
        <ele>1216.7</ele>
        <time>2022-08-02T10:52:22Z</time>
      </trkpt>
      <trkpt lat="44.68198" lon="3.19892">
        <ele>1217</ele>
        <time>2022-08-02T10:52:31Z</time>
      </trkpt>
      <trkpt lat="44.68188" lon="3.19885">
        <ele>1217.1</ele>
        <time>2022-08-02T10:52:39Z</time>
      </trkpt>
      <trkpt lat="44.68179" lon="3.19881">
        <ele>1217.3</ele>
        <time>2022-08-02T10:52:46Z</time>
      </trkpt>
      <trkpt lat="44.68176" lon="3.19881">
        <ele>1217.4</ele>
        <time>2022-08-02T10:52:48Z</time>
      </trkpt>
      <trkpt lat="44.6817" lon="3.1988">
        <ele>1217.5</ele>
        <time>2022-08-02T10:52:52Z</time>
      </trkpt>
      <trkpt lat="44.68157" lon="3.19876">
        <ele>1217.9</ele>
        <time>2022-08-02T10:53:02Z</time>
      </trkpt>
      <trkpt lat="44.68151" lon="3.19874">
        <ele>1218.1</ele>
        <time>2022-08-02T10:53:06Z</time>
      </trkpt>
      <trkpt lat="44.68148" lon="3.19874">
        <ele>1218.1</ele>
        <time>2022-08-02T10:53:08Z</time>
      </trkpt>
      <trkpt lat="44.68146" lon="3.19873">
        <ele>1218.2</ele>
        <time>2022-08-02T10:53:10Z</time>
      </trkpt>
      <trkpt lat="44.68135" lon="3.1987">
        <ele>1218.4</ele>
        <time>2022-08-02T10:53:17Z</time>
      </trkpt>
      <trkpt lat="44.68134" lon="3.1987">
        <ele>1218.4</ele>
        <time>2022-08-02T10:53:18Z</time>
      </trkpt>
      <trkpt lat="44.68129" lon="3.19867">
        <ele>1218.5</ele>
        <time>2022-08-02T10:53:22Z</time>
      </trkpt>
      <trkpt lat="44.68122" lon="3.19865">
        <ele>1218.7</ele>
        <time>2022-08-02T10:53:27Z</time>
      </trkpt>
      <trkpt lat="44.68112" lon="3.19863">
        <ele>1219</ele>
        <time>2022-08-02T10:53:35Z</time>
      </trkpt>
      <trkpt lat="44.68111" lon="3.19863">
        <ele>1219</ele>
        <time>2022-08-02T10:53:38Z</time>
      </trkpt>
      <trkpt lat="44.68111" lon="3.19862">
        <ele>1219</ele>
        <time>2022-08-02T10:53:40Z</time>
      </trkpt>
      <trkpt lat="44.68113" lon="3.19861">
        <ele>1218.9</ele>
        <time>2022-08-02T10:53:55Z</time>
      </trkpt>
      <trkpt lat="44.68105" lon="3.19858">
        <ele>1219.1</ele>
        <time>2022-08-02T10:54:21Z</time>
      </trkpt>
      <trkpt lat="44.68094" lon="3.19855">
        <ele>1219.4</ele>
        <time>2022-08-02T10:54:28Z</time>
      </trkpt>
      <trkpt lat="44.68093" lon="3.19854">
        <ele>1219.4</ele>
        <time>2022-08-02T10:54:29Z</time>
      </trkpt>
      <trkpt lat="44.68082" lon="3.19851">
        <ele>1219.7</ele>
        <time>2022-08-02T10:54:37Z</time>
      </trkpt>
      <trkpt lat="44.68081" lon="3.19851">
        <ele>1219.7</ele>
        <time>2022-08-02T10:54:38Z</time>
      </trkpt>
      <trkpt lat="44.68072" lon="3.19845">
        <ele>1219.6</ele>
        <time>2022-08-02T10:54:46Z</time>
      </trkpt>
      <trkpt lat="44.68061" lon="3.1984">
        <ele>1219.9</ele>
        <time>2022-08-02T10:54:55Z</time>
      </trkpt>
      <trkpt lat="44.68051" lon="3.19833">
        <ele>1220</ele>
        <time>2022-08-02T10:55:04Z</time>
      </trkpt>
      <trkpt lat="44.68048" lon="3.19832">
        <ele>1220</ele>
        <time>2022-08-02T10:55:06Z</time>
      </trkpt>
      <trkpt lat="44.68039" lon="3.19829">
        <ele>1219.9</ele>
        <time>2022-08-02T10:55:14Z</time>
      </trkpt>
      <trkpt lat="44.68027" lon="3.19827">
        <ele>1220</ele>
        <time>2022-08-02T10:55:23Z</time>
      </trkpt>
      <trkpt lat="44.68011" lon="3.19827">
        <ele>1219.4</ele>
        <time>2022-08-02T10:55:35Z</time>
      </trkpt>
      <trkpt lat="44.68008" lon="3.19826">
        <ele>1219.3</ele>
        <time>2022-08-02T10:55:38Z</time>
      </trkpt>
      <trkpt lat="44.68002" lon="3.19827">
        <ele>1219.1</ele>
        <time>2022-08-02T10:55:43Z</time>
      </trkpt>
      <trkpt lat="44.67996" lon="3.19825">
        <ele>1218.6</ele>
        <time>2022-08-02T10:55:48Z</time>
      </trkpt>
      <trkpt lat="44.67995" lon="3.19825">
        <ele>1218.5</ele>
        <time>2022-08-02T10:55:51Z</time>
      </trkpt>
      <trkpt lat="44.67994" lon="3.19824">
        <ele>1218.4</ele>
        <time>2022-08-02T10:55:58Z</time>
      </trkpt>
      <trkpt lat="44.67987" lon="3.19826">
        <ele>1217.6</ele>
        <time>2022-08-02T10:56:24Z</time>
      </trkpt>
      <trkpt lat="44.67982" lon="3.19826">
        <ele>1217</ele>
        <time>2022-08-02T10:56:27Z</time>
      </trkpt>
      <trkpt lat="44.67979" lon="3.19827">
        <ele>1216.7</ele>
        <time>2022-08-02T10:56:29Z</time>
      </trkpt>
      <trkpt lat="44.67978" lon="3.19826">
        <ele>1216.6</ele>
        <time>2022-08-02T10:56:31Z</time>
      </trkpt>
      <trkpt lat="44.67978" lon="3.19826">
        <ele>1216.6</ele>
        <time>2022-08-02T10:56:33Z</time>
      </trkpt>
      <trkpt lat="44.67977" lon="3.19828">
        <ele>1216.5</ele>
        <time>2022-08-02T10:56:37Z</time>
      </trkpt>
      <trkpt lat="44.67977" lon="3.19827">
        <ele>1216.5</ele>
        <time>2022-08-02T10:56:50Z</time>
      </trkpt>
      <trkpt lat="44.67977" lon="3.19827">
        <ele>1216.5</ele>
        <time>2022-08-02T10:56:53Z</time>
      </trkpt>
      <trkpt lat="44.67972" lon="3.19827">
        <ele>1216</ele>
        <time>2022-08-02T10:56:57Z</time>
      </trkpt>
      <trkpt lat="44.6796" lon="3.19828">
        <ele>1215.1</ele>
        <time>2022-08-02T10:57:04Z</time>
      </trkpt>
      <trkpt lat="44.67953" lon="3.19825">
        <ele>1214.6</ele>
        <time>2022-08-02T10:57:09Z</time>
      </trkpt>
      <trkpt lat="44.67951" lon="3.19823">
        <ele>1214.4</ele>
        <time>2022-08-02T10:57:11Z</time>
      </trkpt>
      <trkpt lat="44.6794" lon="3.19814">
        <ele>1213.7</ele>
        <time>2022-08-02T10:57:20Z</time>
      </trkpt>
      <trkpt lat="44.67933" lon="3.19806">
        <ele>1213.2</ele>
        <time>2022-08-02T10:57:26Z</time>
      </trkpt>
      <trkpt lat="44.67928" lon="3.19798">
        <ele>1213</ele>
        <time>2022-08-02T10:57:32Z</time>
      </trkpt>
      <trkpt lat="44.67924" lon="3.19792">
        <ele>1212.9</ele>
        <time>2022-08-02T10:57:38Z</time>
      </trkpt>
      <trkpt lat="44.67918" lon="3.19786">
        <ele>1212.8</ele>
        <time>2022-08-02T10:57:44Z</time>
      </trkpt>
      <trkpt lat="44.67912" lon="3.19779">
        <ele>1212.8</ele>
        <time>2022-08-02T10:57:49Z</time>
      </trkpt>
      <trkpt lat="44.67907" lon="3.19773">
        <ele>1212.7</ele>
        <time>2022-08-02T10:57:54Z</time>
      </trkpt>
      <trkpt lat="44.67898" lon="3.19762">
        <ele>1212.7</ele>
        <time>2022-08-02T10:58:03Z</time>
      </trkpt>
      <trkpt lat="44.67891" lon="3.19753">
        <ele>1212.9</ele>
        <time>2022-08-02T10:58:12Z</time>
      </trkpt>
      <trkpt lat="44.67891" lon="3.19752">
        <ele>1212.9</ele>
        <time>2022-08-02T10:58:13Z</time>
      </trkpt>
      <trkpt lat="44.67893" lon="3.19755">
        <ele>1212.9</ele>
        <time>2022-08-02T10:58:16Z</time>
      </trkpt>
      <trkpt lat="44.67895" lon="3.19757">
        <ele>1212.8</ele>
        <time>2022-08-02T10:58:21Z</time>
      </trkpt>
      <trkpt lat="44.67895" lon="3.19758">
        <ele>1212.8</ele>
        <time>2022-08-02T10:58:23Z</time>
      </trkpt>
      <trkpt lat="44.67895" lon="3.1976">
        <ele>1212.7</ele>
        <time>2022-08-02T10:58:30Z</time>
      </trkpt>
      <trkpt lat="44.67892" lon="3.19755">
        <ele>1212.8</ele>
        <time>2022-08-02T10:58:40Z</time>
      </trkpt>
      <trkpt lat="44.67883" lon="3.19748">
        <ele>1213.1</ele>
        <time>2022-08-02T10:58:48Z</time>
      </trkpt>
      <trkpt lat="44.67873" lon="3.19748">
        <ele>1213.2</ele>
        <time>2022-08-02T10:58:55Z</time>
      </trkpt>
      <trkpt lat="44.6786" lon="3.19746">
        <ele>1213.3</ele>
        <time>2022-08-02T10:59:05Z</time>
      </trkpt>
      <trkpt lat="44.67853" lon="3.19746">
        <ele>1212.9</ele>
        <time>2022-08-02T10:59:10Z</time>
      </trkpt>
      <trkpt lat="44.6785" lon="3.19746">
        <ele>1212.7</ele>
        <time>2022-08-02T10:59:12Z</time>
      </trkpt>
      <trkpt lat="44.67835" lon="3.19745">
        <ele>1211.8</ele>
        <time>2022-08-02T10:59:22Z</time>
      </trkpt>
      <trkpt lat="44.6782" lon="3.19743">
        <ele>1211.7</ele>
        <time>2022-08-02T10:59:33Z</time>
      </trkpt>
      <trkpt lat="44.67815" lon="3.19742">
        <ele>1211.6</ele>
        <time>2022-08-02T10:59:37Z</time>
      </trkpt>
      <trkpt lat="44.67807" lon="3.19741">
        <ele>1211.7</ele>
        <time>2022-08-02T10:59:42Z</time>
      </trkpt>
      <trkpt lat="44.67793" lon="3.19737">
        <ele>1211.6</ele>
        <time>2022-08-02T10:59:52Z</time>
      </trkpt>
      <trkpt lat="44.67782" lon="3.19736">
        <ele>1211.3</ele>
        <time>2022-08-02T11:00:00Z</time>
      </trkpt>
      <trkpt lat="44.6778" lon="3.19737">
        <ele>1211</ele>
        <time>2022-08-02T11:00:01Z</time>
      </trkpt>
      <trkpt lat="44.67769" lon="3.19736">
        <ele>1211</ele>
        <time>2022-08-02T11:00:09Z</time>
      </trkpt>
      <trkpt lat="44.67759" lon="3.19738">
        <ele>1210.8</ele>
        <time>2022-08-02T11:00:16Z</time>
      </trkpt>
      <trkpt lat="44.67747" lon="3.19741">
        <ele>1210.3</ele>
        <time>2022-08-02T11:00:25Z</time>
      </trkpt>
      <trkpt lat="44.67741" lon="3.19745">
        <ele>1210</ele>
        <time>2022-08-02T11:00:29Z</time>
      </trkpt>
      <trkpt lat="44.67731" lon="3.19751">
        <ele>1209.6</ele>
        <time>2022-08-02T11:00:37Z</time>
      </trkpt>
      <trkpt lat="44.67717" lon="3.19762">
        <ele>1208.7</ele>
        <time>2022-08-02T11:00:48Z</time>
      </trkpt>
      <trkpt lat="44.67713" lon="3.19765">
        <ele>1208.3</ele>
        <time>2022-08-02T11:00:51Z</time>
      </trkpt>
      <trkpt lat="44.6771" lon="3.19766">
        <ele>1208.3</ele>
        <time>2022-08-02T11:00:53Z</time>
      </trkpt>
      <trkpt lat="44.67703" lon="3.19769">
        <ele>1208</ele>
        <time>2022-08-02T11:00:58Z</time>
      </trkpt>
      <trkpt lat="44.67699" lon="3.19769">
        <ele>1208</ele>
        <time>2022-08-02T11:01:01Z</time>
      </trkpt>
      <trkpt lat="44.67691" lon="3.19768">
        <ele>1207.8</ele>
        <time>2022-08-02T11:01:07Z</time>
      </trkpt>
      <trkpt lat="44.67679" lon="3.19767">
        <ele>1207.3</ele>
        <time>2022-08-02T11:01:15Z</time>
      </trkpt>
      <trkpt lat="44.67674" lon="3.19768">
        <ele>1206.9</ele>
        <time>2022-08-02T11:01:18Z</time>
      </trkpt>
      <trkpt lat="44.6767" lon="3.1977">
        <ele>1206.3</ele>
        <time>2022-08-02T11:01:20Z</time>
      </trkpt>
      <trkpt lat="44.67668" lon="3.1977">
        <ele>1206.3</ele>
        <time>2022-08-02T11:01:21Z</time>
      </trkpt>
      <trkpt lat="44.67667" lon="3.19769">
        <ele>1206.3</ele>
        <time>2022-08-02T11:01:22Z</time>
      </trkpt>
      <trkpt lat="44.67664" lon="3.19768">
        <ele>1206.5</ele>
        <time>2022-08-02T11:01:25Z</time>
      </trkpt>
      <trkpt lat="44.67661" lon="3.19768">
        <ele>1206.5</ele>
        <time>2022-08-02T11:01:27Z</time>
      </trkpt>
      <trkpt lat="44.67653" lon="3.19768">
        <ele>1206.5</ele>
        <time>2022-08-02T11:01:32Z</time>
      </trkpt>
      <trkpt lat="44.67646" lon="3.19769">
        <ele>1206.3</ele>
        <time>2022-08-02T11:01:37Z</time>
      </trkpt>
      <trkpt lat="44.67636" lon="3.1977">
        <ele>1206.2</ele>
        <time>2022-08-02T11:01:44Z</time>
      </trkpt>
      <trkpt lat="44.67628" lon="3.1977">
        <ele>1206.3</ele>
        <time>2022-08-02T11:01:50Z</time>
      </trkpt>
      <trkpt lat="44.67612" lon="3.19772">
        <ele>1206.1</ele>
        <time>2022-08-02T11:02:02Z</time>
      </trkpt>
      <trkpt lat="44.67606" lon="3.19773">
        <ele>1205.9</ele>
        <time>2022-08-02T11:02:06Z</time>
      </trkpt>
      <trkpt lat="44.67602" lon="3.19773">
        <ele>1205.8</ele>
        <time>2022-08-02T11:02:09Z</time>
      </trkpt>
      <trkpt lat="44.67594" lon="3.19774">
        <ele>1205.6</ele>
        <time>2022-08-02T11:02:15Z</time>
      </trkpt>
      <trkpt lat="44.67588" lon="3.19774">
        <ele>1205.5</ele>
        <time>2022-08-02T11:02:19Z</time>
      </trkpt>
      <trkpt lat="44.67583" lon="3.19776">
        <ele>1205.3</ele>
        <time>2022-08-02T11:02:23Z</time>
      </trkpt>
      <trkpt lat="44.6757" lon="3.19778">
        <ele>1204.6</ele>
        <time>2022-08-02T11:02:32Z</time>
      </trkpt>
      <trkpt lat="44.67559" lon="3.1978">
        <ele>1204</ele>
        <time>2022-08-02T11:02:40Z</time>
      </trkpt>
      <trkpt lat="44.67555" lon="3.19781">
        <ele>1203.9</ele>
        <time>2022-08-02T11:02:43Z</time>
      </trkpt>
      <trkpt lat="44.67548" lon="3.19785">
        <ele>1203.4</ele>
        <time>2022-08-02T11:02:49Z</time>
      </trkpt>
      <trkpt lat="44.67542" lon="3.1979">
        <ele>1202.8</ele>
        <time>2022-08-02T11:02:53Z</time>
      </trkpt>
      <trkpt lat="44.6753" lon="3.19796">
        <ele>1201.8</ele>
        <time>2022-08-02T11:03:02Z</time>
      </trkpt>
      <trkpt lat="44.67529" lon="3.19796">
        <ele>1201.8</ele>
        <time>2022-08-02T11:03:03Z</time>
      </trkpt>
      <trkpt lat="44.67522" lon="3.19798">
        <ele>1201</ele>
        <time>2022-08-02T11:03:08Z</time>
      </trkpt>
      <trkpt lat="44.6752" lon="3.198">
        <ele>1200.6</ele>
        <time>2022-08-02T11:03:10Z</time>
      </trkpt>
      <trkpt lat="44.67519" lon="3.198">
        <ele>1200.5</ele>
        <time>2022-08-02T11:03:11Z</time>
      </trkpt>
      <trkpt lat="44.67515" lon="3.198">
        <ele>1200.2</ele>
        <time>2022-08-02T11:03:14Z</time>
      </trkpt>
      <trkpt lat="44.67513" lon="3.198">
        <ele>1199.9</ele>
        <time>2022-08-02T11:03:16Z</time>
      </trkpt>
      <trkpt lat="44.6751" lon="3.19801">
        <ele>1199.6</ele>
        <time>2022-08-02T11:03:18Z</time>
      </trkpt>
      <trkpt lat="44.67501" lon="3.198">
        <ele>1198.6</ele>
        <time>2022-08-02T11:03:26Z</time>
      </trkpt>
      <trkpt lat="44.67499" lon="3.198">
        <ele>1198.5</ele>
        <time>2022-08-02T11:03:27Z</time>
      </trkpt>
      <trkpt lat="44.67489" lon="3.19798">
        <ele>1197.5</ele>
        <time>2022-08-02T11:03:36Z</time>
      </trkpt>
      <trkpt lat="44.67486" lon="3.19796">
        <ele>1197.4</ele>
        <time>2022-08-02T11:03:38Z</time>
      </trkpt>
      <trkpt lat="44.6748" lon="3.19793">
        <ele>1196.9</ele>
        <time>2022-08-02T11:03:44Z</time>
      </trkpt>
      <trkpt lat="44.67479" lon="3.19792">
        <ele>1196.8</ele>
        <time>2022-08-02T11:03:45Z</time>
      </trkpt>
      <trkpt lat="44.67471" lon="3.1979">
        <ele>1195.9</ele>
        <time>2022-08-02T11:03:51Z</time>
      </trkpt>
      <trkpt lat="44.67458" lon="3.19787">
        <ele>1194.3</ele>
        <time>2022-08-02T11:04:02Z</time>
      </trkpt>
      <trkpt lat="44.67452" lon="3.19778">
        <ele>1194.1</ele>
        <time>2022-08-02T11:04:09Z</time>
      </trkpt>
      <trkpt lat="44.67451" lon="3.19777">
        <ele>1194.1</ele>
        <time>2022-08-02T11:04:10Z</time>
      </trkpt>
      <trkpt lat="44.67444" lon="3.19773">
        <ele>1193.8</ele>
        <time>2022-08-02T11:04:17Z</time>
      </trkpt>
      <trkpt lat="44.6744" lon="3.19772">
        <ele>1193.4</ele>
        <time>2022-08-02T11:04:20Z</time>
      </trkpt>
      <trkpt lat="44.6743" lon="3.19768">
        <ele>1192.8</ele>
        <time>2022-08-02T11:04:29Z</time>
      </trkpt>
      <trkpt lat="44.67429" lon="3.19769">
        <ele>1192.6</ele>
        <time>2022-08-02T11:04:31Z</time>
      </trkpt>
      <trkpt lat="44.67428" lon="3.19769">
        <ele>1192.5</ele>
        <time>2022-08-02T11:04:33Z</time>
      </trkpt>
      <trkpt lat="44.67428" lon="3.1977">
        <ele>1192.3</ele>
        <time>2022-08-02T11:04:34Z</time>
      </trkpt>
      <trkpt lat="44.67425" lon="3.19767">
        <ele>1192.2</ele>
        <time>2022-08-02T11:04:41Z</time>
      </trkpt>
      <trkpt lat="44.67417" lon="3.19766">
        <ele>1191.3</ele>
        <time>2022-08-02T11:04:49Z</time>
      </trkpt>
      <trkpt lat="44.67416" lon="3.19766">
        <ele>1191.2</ele>
        <time>2022-08-02T11:04:50Z</time>
      </trkpt>
      <trkpt lat="44.67413" lon="3.19766">
        <ele>1191.1</ele>
        <time>2022-08-02T11:04:53Z</time>
      </trkpt>
      <trkpt lat="44.67412" lon="3.19765">
        <ele>1191.1</ele>
        <time>2022-08-02T11:04:54Z</time>
      </trkpt>
      <trkpt lat="44.67413" lon="3.19769">
        <ele>1190.8</ele>
        <time>2022-08-02T11:04:58Z</time>
      </trkpt>
      <trkpt lat="44.67414" lon="3.19772">
        <ele>1190.5</ele>
        <time>2022-08-02T11:05:00Z</time>
      </trkpt>
      <trkpt lat="44.67413" lon="3.19773">
        <ele>1190.4</ele>
        <time>2022-08-02T11:05:01Z</time>
      </trkpt>
      <trkpt lat="44.67413" lon="3.19778">
        <ele>1189.9</ele>
        <time>2022-08-02T11:05:05Z</time>
      </trkpt>
      <trkpt lat="44.67413" lon="3.19781">
        <ele>1189.6</ele>
        <time>2022-08-02T11:05:07Z</time>
      </trkpt>
      <trkpt lat="44.67413" lon="3.19783">
        <ele>1189.4</ele>
        <time>2022-08-02T11:05:09Z</time>
      </trkpt>
      <trkpt lat="44.67413" lon="3.19784">
        <ele>1189.3</ele>
        <time>2022-08-02T11:05:10Z</time>
      </trkpt>
      <trkpt lat="44.67412" lon="3.19785">
        <ele>1189.2</ele>
        <time>2022-08-02T11:05:11Z</time>
      </trkpt>
      <trkpt lat="44.67411" lon="3.19783">
        <ele>1189.3</ele>
        <time>2022-08-02T11:05:13Z</time>
      </trkpt>
      <trkpt lat="44.67412" lon="3.19781">
        <ele>1189.5</ele>
        <time>2022-08-02T11:05:15Z</time>
      </trkpt>
      <trkpt lat="44.67414" lon="3.19781">
        <ele>1189.6</ele>
        <time>2022-08-02T11:05:18Z</time>
      </trkpt>
      <trkpt lat="44.67415" lon="3.19786">
        <ele>1189.3</ele>
        <time>2022-08-02T11:05:23Z</time>
      </trkpt>
      <trkpt lat="44.6742" lon="3.19793">
        <ele>1189.2</ele>
        <time>2022-08-02T11:05:30Z</time>
      </trkpt>
      <trkpt lat="44.6742" lon="3.19793">
        <ele>1189.3</ele>
        <time>2022-08-02T11:05:31Z</time>
      </trkpt>
      <trkpt lat="44.6742" lon="3.19793">
        <ele>1189.2</ele>
        <time>2022-08-02T11:05:32Z</time>
      </trkpt>
      <trkpt lat="44.67421" lon="3.1979">
        <ele>1189.6</ele>
        <time>2022-08-02T11:05:38Z</time>
      </trkpt>
      <trkpt lat="44.6742" lon="3.19789">
        <ele>1189.6</ele>
        <time>2022-08-02T11:05:45Z</time>
      </trkpt>
      <trkpt lat="44.67418" lon="3.1979">
        <ele>1189.2</ele>
        <time>2022-08-02T11:05:50Z</time>
      </trkpt>
      <trkpt lat="44.67418" lon="3.1979">
        <ele>1189.3</ele>
        <time>2022-08-02T11:05:52Z</time>
      </trkpt>
      <trkpt lat="44.67419" lon="3.19792">
        <ele>1189.2</ele>
        <time>2022-08-02T11:05:55Z</time>
      </trkpt>
      <trkpt lat="44.67419" lon="3.19791">
        <ele>1189.3</ele>
        <time>2022-08-02T11:06:01Z</time>
      </trkpt>
      <trkpt lat="44.67419" lon="3.19791">
        <ele>1189.3</ele>
        <time>2022-08-02T11:06:06Z</time>
      </trkpt>
      <trkpt lat="44.67416" lon="3.1979">
        <ele>1189</ele>
        <time>2022-08-02T11:06:13Z</time>
      </trkpt>
      <trkpt lat="44.67411" lon="3.19784">
        <ele>1189.2</ele>
        <time>2022-08-02T11:06:19Z</time>
      </trkpt>
      <trkpt lat="44.67409" lon="3.19775">
        <ele>1190</ele>
        <time>2022-08-02T11:06:26Z</time>
      </trkpt>
      <trkpt lat="44.67409" lon="3.19772">
        <ele>1190.3</ele>
        <time>2022-08-02T11:06:28Z</time>
      </trkpt>
      <trkpt lat="44.67409" lon="3.19765">
        <ele>1191</ele>
        <time>2022-08-02T11:06:33Z</time>
      </trkpt>
      <trkpt lat="44.67407" lon="3.19758">
        <ele>1191.6</ele>
        <time>2022-08-02T11:06:38Z</time>
      </trkpt>
      <trkpt lat="44.67407" lon="3.19756">
        <ele>1191.7</ele>
        <time>2022-08-02T11:06:39Z</time>
      </trkpt>
      <trkpt lat="44.67406" lon="3.19751">
        <ele>1192.1</ele>
        <time>2022-08-02T11:06:42Z</time>
      </trkpt>
      <trkpt lat="44.67406" lon="3.19747">
        <ele>1192.7</ele>
        <time>2022-08-02T11:06:46Z</time>
      </trkpt>
      <trkpt lat="44.67406" lon="3.19746">
        <ele>1192.8</ele>
        <time>2022-08-02T11:06:47Z</time>
      </trkpt>
      <trkpt lat="44.674" lon="3.19744">
        <ele>1192.7</ele>
        <time>2022-08-02T11:06:52Z</time>
      </trkpt>
      <trkpt lat="44.67398" lon="3.19742">
        <ele>1192.9</ele>
        <time>2022-08-02T11:06:54Z</time>
      </trkpt>
      <trkpt lat="44.67397" lon="3.19742">
        <ele>1192.8</ele>
        <time>2022-08-02T11:06:55Z</time>
      </trkpt>
      <trkpt lat="44.67394" lon="3.19741">
        <ele>1192.6</ele>
        <time>2022-08-02T11:06:58Z</time>
      </trkpt>
      <trkpt lat="44.67393" lon="3.19741">
        <ele>1192.6</ele>
        <time>2022-08-02T11:06:59Z</time>
      </trkpt>
      <trkpt lat="44.6739" lon="3.19739">
        <ele>1192.7</ele>
        <time>2022-08-02T11:07:02Z</time>
      </trkpt>
      <trkpt lat="44.67391" lon="3.19738">
        <ele>1192.9</ele>
        <time>2022-08-02T11:07:03Z</time>
      </trkpt>
      <trkpt lat="44.67389" lon="3.19735">
        <ele>1193.2</ele>
        <time>2022-08-02T11:07:06Z</time>
      </trkpt>
      <trkpt lat="44.67389" lon="3.19735">
        <ele>1193.2</ele>
        <time>2022-08-02T11:07:08Z</time>
      </trkpt>
      <trkpt lat="44.67388" lon="3.19733">
        <ele>1193.4</ele>
        <time>2022-08-02T11:07:10Z</time>
      </trkpt>
      <trkpt lat="44.67385" lon="3.1973">
        <ele>1193.6</ele>
        <time>2022-08-02T11:07:16Z</time>
      </trkpt>
      <trkpt lat="44.67384" lon="3.19728">
        <ele>1193.8</ele>
        <time>2022-08-02T11:07:18Z</time>
      </trkpt>
      <trkpt lat="44.67379" lon="3.19724">
        <ele>1194</ele>
        <time>2022-08-02T11:07:25Z</time>
      </trkpt>
      <trkpt lat="44.67377" lon="3.19724">
        <ele>1193.9</ele>
        <time>2022-08-02T11:07:27Z</time>
      </trkpt>
      <trkpt lat="44.67371" lon="3.1972">
        <ele>1194.1</ele>
        <time>2022-08-02T11:07:34Z</time>
      </trkpt>
      <trkpt lat="44.67371" lon="3.19719">
        <ele>1194.3</ele>
        <time>2022-08-02T11:07:35Z</time>
      </trkpt>
      <trkpt lat="44.67366" lon="3.19715">
        <ele>1194.6</ele>
        <time>2022-08-02T11:07:40Z</time>
      </trkpt>
      <trkpt lat="44.67359" lon="3.1971">
        <ele>1194.7</ele>
        <time>2022-08-02T11:07:47Z</time>
      </trkpt>
      <trkpt lat="44.67353" lon="3.1971">
        <ele>1193.7</ele>
        <time>2022-08-02T11:07:51Z</time>
      </trkpt>
      <trkpt lat="44.67348" lon="3.19695">
        <ele>1194.7</ele>
        <time>2022-08-02T11:07:59Z</time>
      </trkpt>
      <trkpt lat="44.67348" lon="3.19692">
        <ele>1194.9</ele>
        <time>2022-08-02T11:08:01Z</time>
      </trkpt>
      <trkpt lat="44.67343" lon="3.19678">
        <ele>1194.8</ele>
        <time>2022-08-02T11:08:10Z</time>
      </trkpt>
      <trkpt lat="44.67337" lon="3.19657">
        <ele>1194.2</ele>
        <time>2022-08-02T11:08:23Z</time>
      </trkpt>
      <trkpt lat="44.67331" lon="3.19633">
        <ele>1192.7</ele>
        <time>2022-08-02T11:08:38Z</time>
      </trkpt>
      <trkpt lat="44.67331" lon="3.19632">
        <ele>1192.5</ele>
        <time>2022-08-02T11:08:40Z</time>
      </trkpt>
      <trkpt lat="44.67328" lon="3.19624">
        <ele>1192</ele>
        <time>2022-08-02T11:08:45Z</time>
      </trkpt>
      <trkpt lat="44.67327" lon="3.19612">
        <ele>1191.9</ele>
        <time>2022-08-02T11:08:52Z</time>
      </trkpt>
      <trkpt lat="44.67325" lon="3.19594">
        <ele>1191</ele>
        <time>2022-08-02T11:09:02Z</time>
      </trkpt>
      <trkpt lat="44.67325" lon="3.19591">
        <ele>1190.9</ele>
        <time>2022-08-02T11:09:04Z</time>
      </trkpt>
      <trkpt lat="44.67327" lon="3.19574">
        <ele>1190.8</ele>
        <time>2022-08-02T11:09:13Z</time>
      </trkpt>
      <trkpt lat="44.67327" lon="3.19565">
        <ele>1190.6</ele>
        <time>2022-08-02T11:09:18Z</time>
      </trkpt>
      <trkpt lat="44.67328" lon="3.19556">
        <ele>1190.6</ele>
        <time>2022-08-02T11:09:23Z</time>
      </trkpt>
      <trkpt lat="44.6733" lon="3.19543">
        <ele>1189.9</ele>
        <time>2022-08-02T11:09:30Z</time>
      </trkpt>
      <trkpt lat="44.67331" lon="3.19538">
        <ele>1189.6</ele>
        <time>2022-08-02T11:09:33Z</time>
      </trkpt>
      <trkpt lat="44.67334" lon="3.19528">
        <ele>1189.1</ele>
        <time>2022-08-02T11:09:39Z</time>
      </trkpt>
      <trkpt lat="44.67337" lon="3.19518">
        <ele>1189.2</ele>
        <time>2022-08-02T11:09:45Z</time>
      </trkpt>
      <trkpt lat="44.67338" lon="3.19513">
        <ele>1189</ele>
        <time>2022-08-02T11:09:48Z</time>
      </trkpt>
      <trkpt lat="44.67344" lon="3.19494">
        <ele>1188.4</ele>
        <time>2022-08-02T11:10:00Z</time>
      </trkpt>
      <trkpt lat="44.6735" lon="3.19475">
        <ele>1187.6</ele>
        <time>2022-08-02T11:10:12Z</time>
      </trkpt>
      <trkpt lat="44.67351" lon="3.19465">
        <ele>1187.3</ele>
        <time>2022-08-02T11:10:18Z</time>
      </trkpt>
      <trkpt lat="44.67351" lon="3.19463">
        <ele>1187.3</ele>
        <time>2022-08-02T11:10:19Z</time>
      </trkpt>
      <trkpt lat="44.67352" lon="3.19461">
        <ele>1187.2</ele>
        <time>2022-08-02T11:10:20Z</time>
      </trkpt>
      <trkpt lat="44.67351" lon="3.19445">
        <ele>1186.6</ele>
        <time>2022-08-02T11:10:29Z</time>
      </trkpt>
      <trkpt lat="44.6735" lon="3.19429">
        <ele>1186</ele>
        <time>2022-08-02T11:10:38Z</time>
      </trkpt>
      <trkpt lat="44.67344" lon="3.19413">
        <ele>1185</ele>
        <time>2022-08-02T11:10:48Z</time>
      </trkpt>
      <trkpt lat="44.67344" lon="3.19411">
        <ele>1184.8</ele>
        <time>2022-08-02T11:10:49Z</time>
      </trkpt>
      <trkpt lat="44.67338" lon="3.19403">
        <ele>1183.9</ele>
        <time>2022-08-02T11:10:56Z</time>
      </trkpt>
      <trkpt lat="44.67336" lon="3.194">
        <ele>1183.6</ele>
        <time>2022-08-02T11:10:58Z</time>
      </trkpt>
      <trkpt lat="44.67327" lon="3.19398">
        <ele>1182.6</ele>
        <time>2022-08-02T11:11:05Z</time>
      </trkpt>
      <trkpt lat="44.67321" lon="3.19399">
        <ele>1182</ele>
        <time>2022-08-02T11:11:10Z</time>
      </trkpt>
      <trkpt lat="44.67317" lon="3.194">
        <ele>1181.6</ele>
        <time>2022-08-02T11:11:13Z</time>
      </trkpt>
      <trkpt lat="44.67315" lon="3.194">
        <ele>1181.4</ele>
        <time>2022-08-02T11:11:14Z</time>
      </trkpt>
      <trkpt lat="44.67304" lon="3.19401">
        <ele>1180.3</ele>
        <time>2022-08-02T11:11:23Z</time>
      </trkpt>
      <trkpt lat="44.67298" lon="3.19402">
        <ele>1179.8</ele>
        <time>2022-08-02T11:11:27Z</time>
      </trkpt>
      <trkpt lat="44.67295" lon="3.194">
        <ele>1179.6</ele>
        <time>2022-08-02T11:11:30Z</time>
      </trkpt>
      <trkpt lat="44.67292" lon="3.19401">
        <ele>1179.3</ele>
        <time>2022-08-02T11:11:32Z</time>
      </trkpt>
      <trkpt lat="44.67286" lon="3.194">
        <ele>1178.8</ele>
        <time>2022-08-02T11:11:36Z</time>
      </trkpt>
      <trkpt lat="44.67275" lon="3.19394">
        <ele>1178.4</ele>
        <time>2022-08-02T11:11:45Z</time>
      </trkpt>
      <trkpt lat="44.67268" lon="3.19378">
        <ele>1178.7</ele>
        <time>2022-08-02T11:11:56Z</time>
      </trkpt>
      <trkpt lat="44.67264" lon="3.19357">
        <ele>1179.2</ele>
        <time>2022-08-02T11:12:08Z</time>
      </trkpt>
      <trkpt lat="44.6726" lon="3.19335">
        <ele>1180.2</ele>
        <time>2022-08-02T11:12:21Z</time>
      </trkpt>
      <trkpt lat="44.67259" lon="3.19332">
        <ele>1180.5</ele>
        <time>2022-08-02T11:12:23Z</time>
      </trkpt>
      <trkpt lat="44.67258" lon="3.19323">
        <ele>1181.5</ele>
        <time>2022-08-02T11:12:28Z</time>
      </trkpt>
      <trkpt lat="44.67257" lon="3.1932">
        <ele>1181.8</ele>
        <time>2022-08-02T11:12:30Z</time>
      </trkpt>
      <trkpt lat="44.67254" lon="3.19309">
        <ele>1182.9</ele>
        <time>2022-08-02T11:12:37Z</time>
      </trkpt>
      <trkpt lat="44.67252" lon="3.19301">
        <ele>1183.6</ele>
        <time>2022-08-02T11:12:42Z</time>
      </trkpt>
      <trkpt lat="44.67251" lon="3.19299">
        <ele>1183.8</ele>
        <time>2022-08-02T11:12:43Z</time>
      </trkpt>
      <trkpt lat="44.67249" lon="3.19288">
        <ele>1184.9</ele>
        <time>2022-08-02T11:12:50Z</time>
      </trkpt>
      <trkpt lat="44.67246" lon="3.19279">
        <ele>1185.7</ele>
        <time>2022-08-02T11:12:56Z</time>
      </trkpt>
      <trkpt lat="44.67245" lon="3.19274">
        <ele>1185.9</ele>
        <time>2022-08-02T11:12:59Z</time>
      </trkpt>
      <trkpt lat="44.67242" lon="3.19266">
        <ele>1186</ele>
        <time>2022-08-02T11:13:04Z</time>
      </trkpt>
      <trkpt lat="44.67239" lon="3.19255">
        <ele>1186.1</ele>
        <time>2022-08-02T11:13:11Z</time>
      </trkpt>
      <trkpt lat="44.67235" lon="3.19239">
        <ele>1185.9</ele>
        <time>2022-08-02T11:13:21Z</time>
      </trkpt>
      <trkpt lat="44.67229" lon="3.19225">
        <ele>1185.5</ele>
        <time>2022-08-02T11:13:30Z</time>
      </trkpt>
      <trkpt lat="44.67222" lon="3.19211">
        <ele>1185.4</ele>
        <time>2022-08-02T11:13:40Z</time>
      </trkpt>
      <trkpt lat="44.67218" lon="3.192">
        <ele>1185.4</ele>
        <time>2022-08-02T11:13:50Z</time>
      </trkpt>
      <trkpt lat="44.67219" lon="3.19201">
        <ele>1185.4</ele>
        <time>2022-08-02T11:13:52Z</time>
      </trkpt>
      <trkpt lat="44.67219" lon="3.19202">
        <ele>1185.4</ele>
        <time>2022-08-02T11:13:58Z</time>
      </trkpt>
      <trkpt lat="44.67222" lon="3.192">
        <ele>1185.7</ele>
        <time>2022-08-02T11:14:06Z</time>
      </trkpt>
      <trkpt lat="44.67223" lon="3.19201">
        <ele>1185.8</ele>
        <time>2022-08-02T11:14:07Z</time>
      </trkpt>
      <trkpt lat="44.6722" lon="3.19196">
        <ele>1185.7</ele>
        <time>2022-08-02T11:14:16Z</time>
      </trkpt>
      <trkpt lat="44.67216" lon="3.19188">
        <ele>1185.3</ele>
        <time>2022-08-02T11:14:20Z</time>
      </trkpt>
      <trkpt lat="44.67211" lon="3.19177">
        <ele>1184.7</ele>
        <time>2022-08-02T11:14:25Z</time>
      </trkpt>
      <trkpt lat="44.67207" lon="3.19154">
        <ele>1183.9</ele>
        <time>2022-08-02T11:14:37Z</time>
      </trkpt>
      <trkpt lat="44.67205" lon="3.19134">
        <ele>1183.1</ele>
        <time>2022-08-02T11:14:47Z</time>
      </trkpt>
      <trkpt lat="44.67202" lon="3.19111">
        <ele>1182.8</ele>
        <time>2022-08-02T11:14:59Z</time>
      </trkpt>
      <trkpt lat="44.67201" lon="3.19084">
        <ele>1182.7</ele>
        <time>2022-08-02T11:15:13Z</time>
      </trkpt>
      <trkpt lat="44.672" lon="3.19076">
        <ele>1182.6</ele>
        <time>2022-08-02T11:15:17Z</time>
      </trkpt>
      <trkpt lat="44.67199" lon="3.19063">
        <ele>1182.5</ele>
        <time>2022-08-02T11:15:24Z</time>
      </trkpt>
      <trkpt lat="44.67198" lon="3.1904">
        <ele>1182.3</ele>
        <time>2022-08-02T11:15:36Z</time>
      </trkpt>
      <trkpt lat="44.67198" lon="3.19039">
        <ele>1182.3</ele>
        <time>2022-08-02T11:15:37Z</time>
      </trkpt>
      <trkpt lat="44.67198" lon="3.19022">
        <ele>1182.2</ele>
        <time>2022-08-02T11:15:46Z</time>
      </trkpt>
      <trkpt lat="44.67197" lon="3.19016">
        <ele>1182.1</ele>
        <time>2022-08-02T11:15:49Z</time>
      </trkpt>
      <trkpt lat="44.67197" lon="3.18997">
        <ele>1182.2</ele>
        <time>2022-08-02T11:15:59Z</time>
      </trkpt>
      <trkpt lat="44.67198" lon="3.18982">
        <ele>1182.8</ele>
        <time>2022-08-02T11:16:08Z</time>
      </trkpt>
      <trkpt lat="44.67198" lon="3.1898">
        <ele>1182.8</ele>
        <time>2022-08-02T11:16:09Z</time>
      </trkpt>
      <trkpt lat="44.67198" lon="3.18964">
        <ele>1183.2</ele>
        <time>2022-08-02T11:16:18Z</time>
      </trkpt>
      <trkpt lat="44.67197" lon="3.18954">
        <ele>1183.2</ele>
        <time>2022-08-02T11:16:24Z</time>
      </trkpt>
      <trkpt lat="44.67198" lon="3.18939">
        <ele>1183.4</ele>
        <time>2022-08-02T11:16:33Z</time>
      </trkpt>
      <trkpt lat="44.67198" lon="3.18932">
        <ele>1183.7</ele>
        <time>2022-08-02T11:16:37Z</time>
      </trkpt>
      <trkpt lat="44.67198" lon="3.1891">
        <ele>1184.4</ele>
        <time>2022-08-02T11:16:50Z</time>
      </trkpt>
      <trkpt lat="44.67197" lon="3.18894">
        <ele>1184.9</ele>
        <time>2022-08-02T11:16:59Z</time>
      </trkpt>
      <trkpt lat="44.67197" lon="3.18889">
        <ele>1185.1</ele>
        <time>2022-08-02T11:17:02Z</time>
      </trkpt>
      <trkpt lat="44.67196" lon="3.1887">
        <ele>1185.1</ele>
        <time>2022-08-02T11:17:13Z</time>
      </trkpt>
      <trkpt lat="44.67196" lon="3.18851">
        <ele>1185.1</ele>
        <time>2022-08-02T11:17:24Z</time>
      </trkpt>
      <trkpt lat="44.67194" lon="3.18833">
        <ele>1185</ele>
        <time>2022-08-02T11:17:35Z</time>
      </trkpt>
      <trkpt lat="44.67194" lon="3.18831">
        <ele>1184.9</ele>
        <time>2022-08-02T11:17:36Z</time>
      </trkpt>
      <trkpt lat="44.67192" lon="3.1881">
        <ele>1184.7</ele>
        <time>2022-08-02T11:17:48Z</time>
      </trkpt>
      <trkpt lat="44.67191" lon="3.1879">
        <ele>1185</ele>
        <time>2022-08-02T11:18:00Z</time>
      </trkpt>
      <trkpt lat="44.6719" lon="3.18777">
        <ele>1185.4</ele>
        <time>2022-08-02T11:18:08Z</time>
      </trkpt>
      <trkpt lat="44.6719" lon="3.18775">
        <ele>1185.4</ele>
        <time>2022-08-02T11:18:09Z</time>
      </trkpt>
      <trkpt lat="44.67189" lon="3.18757">
        <ele>1185.9</ele>
        <time>2022-08-02T11:18:20Z</time>
      </trkpt>
      <trkpt lat="44.67188" lon="3.18745">
        <ele>1186</ele>
        <time>2022-08-02T11:18:27Z</time>
      </trkpt>
      <trkpt lat="44.67189" lon="3.18731">
        <ele>1186</ele>
        <time>2022-08-02T11:18:35Z</time>
      </trkpt>
      <trkpt lat="44.6719" lon="3.18723">
        <ele>1186.3</ele>
        <time>2022-08-02T11:18:40Z</time>
      </trkpt>
      <trkpt lat="44.67191" lon="3.18719">
        <ele>1186.3</ele>
        <time>2022-08-02T11:18:42Z</time>
      </trkpt>
      <trkpt lat="44.67192" lon="3.18709">
        <ele>1186.1</ele>
        <time>2022-08-02T11:18:49Z</time>
      </trkpt>
      <trkpt lat="44.67193" lon="3.18706">
        <ele>1186.1</ele>
        <time>2022-08-02T11:18:51Z</time>
      </trkpt>
      <trkpt lat="44.67194" lon="3.18696">
        <ele>1186</ele>
        <time>2022-08-02T11:18:56Z</time>
      </trkpt>
      <trkpt lat="44.67195" lon="3.18685">
        <ele>1186</ele>
        <time>2022-08-02T11:19:03Z</time>
      </trkpt>
      <trkpt lat="44.67197" lon="3.1867">
        <ele>1186.3</ele>
        <time>2022-08-02T11:19:12Z</time>
      </trkpt>
      <trkpt lat="44.67198" lon="3.18668">
        <ele>1186.4</ele>
        <time>2022-08-02T11:19:13Z</time>
      </trkpt>
      <trkpt lat="44.672" lon="3.18656">
        <ele>1185.9</ele>
        <time>2022-08-02T11:19:20Z</time>
      </trkpt>
      <trkpt lat="44.67208" lon="3.1864">
        <ele>1185.9</ele>
        <time>2022-08-02T11:19:30Z</time>
      </trkpt>
      <trkpt lat="44.67215" lon="3.18627">
        <ele>1186.1</ele>
        <time>2022-08-02T11:19:40Z</time>
      </trkpt>
      <trkpt lat="44.67221" lon="3.18622">
        <ele>1186.5</ele>
        <time>2022-08-02T11:19:45Z</time>
      </trkpt>
      <trkpt lat="44.67223" lon="3.18619">
        <ele>1186.7</ele>
        <time>2022-08-02T11:19:48Z</time>
      </trkpt>
      <trkpt lat="44.67232" lon="3.18611">
        <ele>1187.3</ele>
        <time>2022-08-02T11:19:57Z</time>
      </trkpt>
      <trkpt lat="44.67235" lon="3.18608">
        <ele>1187.3</ele>
        <time>2022-08-02T11:20:01Z</time>
      </trkpt>
      <trkpt lat="44.67238" lon="3.18604">
        <ele>1187.4</ele>
        <time>2022-08-02T11:20:05Z</time>
      </trkpt>
      <trkpt lat="44.67246" lon="3.18598">
        <ele>1187.6</ele>
        <time>2022-08-02T11:20:12Z</time>
      </trkpt>
      <trkpt lat="44.67251" lon="3.18592">
        <ele>1187.3</ele>
        <time>2022-08-02T11:20:18Z</time>
      </trkpt>
      <trkpt lat="44.67253" lon="3.1859">
        <ele>1187.2</ele>
        <time>2022-08-02T11:20:20Z</time>
      </trkpt>
      <trkpt lat="44.67257" lon="3.18586">
        <ele>1187</ele>
        <time>2022-08-02T11:20:24Z</time>
      </trkpt>
      <trkpt lat="44.67261" lon="3.18583">
        <ele>1187.2</ele>
        <time>2022-08-02T11:20:28Z</time>
      </trkpt>
      <trkpt lat="44.67262" lon="3.18582">
        <ele>1187.2</ele>
        <time>2022-08-02T11:20:29Z</time>
      </trkpt>
      <trkpt lat="44.67269" lon="3.18577">
        <ele>1187.7</ele>
        <time>2022-08-02T11:20:36Z</time>
      </trkpt>
      <trkpt lat="44.67274" lon="3.18572">
        <ele>1188.1</ele>
        <time>2022-08-02T11:20:41Z</time>
      </trkpt>
      <trkpt lat="44.67277" lon="3.18569">
        <ele>1188.3</ele>
        <time>2022-08-02T11:20:45Z</time>
      </trkpt>
      <trkpt lat="44.67279" lon="3.18566">
        <ele>1188.5</ele>
        <time>2022-08-02T11:20:49Z</time>
      </trkpt>
      <trkpt lat="44.6728" lon="3.18565">
        <ele>1188.5</ele>
        <time>2022-08-02T11:20:50Z</time>
      </trkpt>
      <trkpt lat="44.67283" lon="3.18563">
        <ele>1188.6</ele>
        <time>2022-08-02T11:20:53Z</time>
      </trkpt>
      <trkpt lat="44.67286" lon="3.18556">
        <ele>1188.6</ele>
        <time>2022-08-02T11:20:59Z</time>
      </trkpt>
      <trkpt lat="44.67287" lon="3.18554">
        <ele>1188.6</ele>
        <time>2022-08-02T11:21:00Z</time>
      </trkpt>
      <trkpt lat="44.6729" lon="3.18542">
        <ele>1188.3</ele>
        <time>2022-08-02T11:21:08Z</time>
      </trkpt>
      <trkpt lat="44.67293" lon="3.18528">
        <ele>1188.2</ele>
        <time>2022-08-02T11:21:17Z</time>
      </trkpt>
      <trkpt lat="44.67294" lon="3.18522">
        <ele>1188.5</ele>
        <time>2022-08-02T11:21:21Z</time>
      </trkpt>
      <trkpt lat="44.67295" lon="3.18517">
        <ele>1188.7</ele>
        <time>2022-08-02T11:21:26Z</time>
      </trkpt>
      <trkpt lat="44.67295" lon="3.18515">
        <ele>1188.7</ele>
        <time>2022-08-02T11:21:27Z</time>
      </trkpt>
      <trkpt lat="44.67294" lon="3.18509">
        <ele>1188.7</ele>
        <time>2022-08-02T11:21:31Z</time>
      </trkpt>
      <trkpt lat="44.67295" lon="3.18505">
        <ele>1188.9</ele>
        <time>2022-08-02T11:21:34Z</time>
      </trkpt>
      <trkpt lat="44.67294" lon="3.18499">
        <ele>1189</ele>
        <time>2022-08-02T11:21:38Z</time>
      </trkpt>
      <trkpt lat="44.67292" lon="3.1849">
        <ele>1189.5</ele>
        <time>2022-08-02T11:21:44Z</time>
      </trkpt>
      <trkpt lat="44.6729" lon="3.1848">
        <ele>1190</ele>
        <time>2022-08-02T11:21:50Z</time>
      </trkpt>
      <trkpt lat="44.67289" lon="3.18479">
        <ele>1190</ele>
        <time>2022-08-02T11:21:51Z</time>
      </trkpt>
      <trkpt lat="44.67287" lon="3.18473">
        <ele>1190.3</ele>
        <time>2022-08-02T11:21:57Z</time>
      </trkpt>
      <trkpt lat="44.67284" lon="3.18465">
        <ele>1190.5</ele>
        <time>2022-08-02T11:22:03Z</time>
      </trkpt>
      <trkpt lat="44.67279" lon="3.18449">
        <ele>1190.9</ele>
        <time>2022-08-02T11:22:13Z</time>
      </trkpt>
      <trkpt lat="44.67279" lon="3.18448">
        <ele>1190.9</ele>
        <time>2022-08-02T11:22:14Z</time>
      </trkpt>
      <trkpt lat="44.67274" lon="3.18433">
        <ele>1191.1</ele>
        <time>2022-08-02T11:22:23Z</time>
      </trkpt>
      <trkpt lat="44.67273" lon="3.18424">
        <ele>1191.4</ele>
        <time>2022-08-02T11:22:28Z</time>
      </trkpt>
      <trkpt lat="44.67271" lon="3.1842">
        <ele>1191.4</ele>
        <time>2022-08-02T11:22:31Z</time>
      </trkpt>
      <trkpt lat="44.67266" lon="3.18401">
        <ele>1191.2</ele>
        <time>2022-08-02T11:22:43Z</time>
      </trkpt>
      <trkpt lat="44.67262" lon="3.18386">
        <ele>1191</ele>
        <time>2022-08-02T11:22:53Z</time>
      </trkpt>
      <trkpt lat="44.67258" lon="3.18369">
        <ele>1190.5</ele>
        <time>2022-08-02T11:23:04Z</time>
      </trkpt>
      <trkpt lat="44.67257" lon="3.18363">
        <ele>1190.5</ele>
        <time>2022-08-02T11:23:07Z</time>
      </trkpt>
      <trkpt lat="44.67257" lon="3.18355">
        <ele>1190.7</ele>
        <time>2022-08-02T11:23:12Z</time>
      </trkpt>
      <trkpt lat="44.67258" lon="3.18353">
        <ele>1190.8</ele>
        <time>2022-08-02T11:23:13Z</time>
      </trkpt>
      <trkpt lat="44.67257" lon="3.18348">
        <ele>1190.9</ele>
        <time>2022-08-02T11:23:16Z</time>
      </trkpt>
      <trkpt lat="44.67258" lon="3.1834">
        <ele>1191.3</ele>
        <time>2022-08-02T11:23:21Z</time>
      </trkpt>
      <trkpt lat="44.67257" lon="3.18333">
        <ele>1191.3</ele>
        <time>2022-08-02T11:23:25Z</time>
      </trkpt>
      <trkpt lat="44.67256" lon="3.18327">
        <ele>1191.1</ele>
        <time>2022-08-02T11:23:28Z</time>
      </trkpt>
      <trkpt lat="44.67256" lon="3.18323">
        <ele>1191.1</ele>
        <time>2022-08-02T11:23:30Z</time>
      </trkpt>
      <trkpt lat="44.67256" lon="3.18314">
        <ele>1190.9</ele>
        <time>2022-08-02T11:23:35Z</time>
      </trkpt>
      <trkpt lat="44.67258" lon="3.18296">
        <ele>1190.8</ele>
        <time>2022-08-02T11:23:46Z</time>
      </trkpt>
      <trkpt lat="44.67258" lon="3.18294">
        <ele>1190.8</ele>
        <time>2022-08-02T11:23:47Z</time>
      </trkpt>
      <trkpt lat="44.67258" lon="3.18292">
        <ele>1190.7</ele>
        <time>2022-08-02T11:23:50Z</time>
      </trkpt>
      <trkpt lat="44.67258" lon="3.18291">
        <ele>1190.7</ele>
        <time>2022-08-02T11:23:52Z</time>
      </trkpt>
      <trkpt lat="44.6726" lon="3.18279">
        <ele>1190.5</ele>
        <time>2022-08-02T11:24:00Z</time>
      </trkpt>
      <trkpt lat="44.67261" lon="3.18274">
        <ele>1190.4</ele>
        <time>2022-08-02T11:24:03Z</time>
      </trkpt>
      <trkpt lat="44.67263" lon="3.18264">
        <ele>1190.1</ele>
        <time>2022-08-02T11:24:09Z</time>
      </trkpt>
      <trkpt lat="44.67266" lon="3.18246">
        <ele>1189.4</ele>
        <time>2022-08-02T11:24:19Z</time>
      </trkpt>
      <trkpt lat="44.6727" lon="3.1823">
        <ele>1188.6</ele>
        <time>2022-08-02T11:24:28Z</time>
      </trkpt>
      <trkpt lat="44.6727" lon="3.18227">
        <ele>1188.3</ele>
        <time>2022-08-02T11:24:30Z</time>
      </trkpt>
      <trkpt lat="44.67272" lon="3.18216">
        <ele>1187.7</ele>
        <time>2022-08-02T11:24:37Z</time>
      </trkpt>
      <trkpt lat="44.67274" lon="3.18206">
        <ele>1187.3</ele>
        <time>2022-08-02T11:24:43Z</time>
      </trkpt>
      <trkpt lat="44.67278" lon="3.18194">
        <ele>1187</ele>
        <time>2022-08-02T11:24:50Z</time>
      </trkpt>
      <trkpt lat="44.67284" lon="3.1818">
        <ele>1186.2</ele>
        <time>2022-08-02T11:24:59Z</time>
      </trkpt>
      <trkpt lat="44.67288" lon="3.18167">
        <ele>1185.5</ele>
        <time>2022-08-02T11:25:07Z</time>
      </trkpt>
      <trkpt lat="44.67289" lon="3.18162">
        <ele>1185.2</ele>
        <time>2022-08-02T11:25:10Z</time>
      </trkpt>
      <trkpt lat="44.67291" lon="3.18156">
        <ele>1185.1</ele>
        <time>2022-08-02T11:25:14Z</time>
      </trkpt>
      <trkpt lat="44.67292" lon="3.18152">
        <ele>1185.1</ele>
        <time>2022-08-02T11:25:16Z</time>
      </trkpt>
      <trkpt lat="44.67293" lon="3.18151">
        <ele>1185</ele>
        <time>2022-08-02T11:25:17Z</time>
      </trkpt>
      <trkpt lat="44.67294" lon="3.18146">
        <ele>1184.8</ele>
        <time>2022-08-02T11:25:20Z</time>
      </trkpt>
      <trkpt lat="44.67295" lon="3.18138">
        <ele>1184.4</ele>
        <time>2022-08-02T11:25:24Z</time>
      </trkpt>
      <trkpt lat="44.67295" lon="3.18135">
        <ele>1184.2</ele>
        <time>2022-08-02T11:25:26Z</time>
      </trkpt>
      <trkpt lat="44.67298" lon="3.18123">
        <ele>1183.8</ele>
        <time>2022-08-02T11:25:33Z</time>
      </trkpt>
      <trkpt lat="44.673" lon="3.1812">
        <ele>1183.7</ele>
        <time>2022-08-02T11:25:35Z</time>
      </trkpt>
      <trkpt lat="44.67302" lon="3.18113">
        <ele>1183.7</ele>
        <time>2022-08-02T11:25:39Z</time>
      </trkpt>
      <trkpt lat="44.67305" lon="3.18107">
        <ele>1183.5</ele>
        <time>2022-08-02T11:25:43Z</time>
      </trkpt>
      <trkpt lat="44.67312" lon="3.18093">
        <ele>1182.4</ele>
        <time>2022-08-02T11:25:52Z</time>
      </trkpt>
      <trkpt lat="44.67312" lon="3.18092">
        <ele>1182.3</ele>
        <time>2022-08-02T11:25:53Z</time>
      </trkpt>
      <trkpt lat="44.67314" lon="3.1809">
        <ele>1182.2</ele>
        <time>2022-08-02T11:25:54Z</time>
      </trkpt>
      <trkpt lat="44.67317" lon="3.18086">
        <ele>1182.1</ele>
        <time>2022-08-02T11:25:57Z</time>
      </trkpt>
      <trkpt lat="44.67319" lon="3.18083">
        <ele>1181.9</ele>
        <time>2022-08-02T11:25:59Z</time>
      </trkpt>
      <trkpt lat="44.6732" lon="3.18078">
        <ele>1181.6</ele>
        <time>2022-08-02T11:26:02Z</time>
      </trkpt>
      <trkpt lat="44.67321" lon="3.18071">
        <ele>1181</ele>
        <time>2022-08-02T11:26:07Z</time>
      </trkpt>
      <trkpt lat="44.67322" lon="3.18069">
        <ele>1180.9</ele>
        <time>2022-08-02T11:26:08Z</time>
      </trkpt>
      <trkpt lat="44.67325" lon="3.18061">
        <ele>1180.6</ele>
        <time>2022-08-02T11:26:14Z</time>
      </trkpt>
      <trkpt lat="44.67332" lon="3.1805">
        <ele>1180.2</ele>
        <time>2022-08-02T11:26:22Z</time>
      </trkpt>
      <trkpt lat="44.67337" lon="3.18036">
        <ele>1179.2</ele>
        <time>2022-08-02T11:26:31Z</time>
      </trkpt>
      <trkpt lat="44.67345" lon="3.18024">
        <ele>1178.5</ele>
        <time>2022-08-02T11:26:40Z</time>
      </trkpt>
      <trkpt lat="44.67346" lon="3.18023">
        <ele>1178.5</ele>
        <time>2022-08-02T11:26:41Z</time>
      </trkpt>
      <trkpt lat="44.67351" lon="3.18015">
        <ele>1178.4</ele>
        <time>2022-08-02T11:26:47Z</time>
      </trkpt>
      <trkpt lat="44.67353" lon="3.18012">
        <ele>1178.5</ele>
        <time>2022-08-02T11:26:49Z</time>
      </trkpt>
      <trkpt lat="44.67358" lon="3.17999">
        <ele>1178.4</ele>
        <time>2022-08-02T11:26:57Z</time>
      </trkpt>
      <trkpt lat="44.67364" lon="3.17984">
        <ele>1178</ele>
        <time>2022-08-02T11:27:07Z</time>
      </trkpt>
      <trkpt lat="44.67364" lon="3.17983">
        <ele>1177.9</ele>
        <time>2022-08-02T11:27:08Z</time>
      </trkpt>
      <trkpt lat="44.67366" lon="3.17976">
        <ele>1177.6</ele>
        <time>2022-08-02T11:27:12Z</time>
      </trkpt>
      <trkpt lat="44.67367" lon="3.17974">
        <ele>1177.5</ele>
        <time>2022-08-02T11:27:14Z</time>
      </trkpt>
      <trkpt lat="44.67372" lon="3.17958">
        <ele>1177.2</ele>
        <time>2022-08-02T11:27:23Z</time>
      </trkpt>
      <trkpt lat="44.67377" lon="3.17944">
        <ele>1177.1</ele>
        <time>2022-08-02T11:27:32Z</time>
      </trkpt>
      <trkpt lat="44.67379" lon="3.17939">
        <ele>1177.1</ele>
        <time>2022-08-02T11:27:35Z</time>
      </trkpt>
      <trkpt lat="44.67381" lon="3.17928">
        <ele>1176.9</ele>
        <time>2022-08-02T11:27:41Z</time>
      </trkpt>
      <trkpt lat="44.67385" lon="3.17916">
        <ele>1176.7</ele>
        <time>2022-08-02T11:27:48Z</time>
      </trkpt>
      <trkpt lat="44.67386" lon="3.17909">
        <ele>1176.8</ele>
        <time>2022-08-02T11:27:53Z</time>
      </trkpt>
      <trkpt lat="44.6739" lon="3.179">
        <ele>1177.1</ele>
        <time>2022-08-02T11:27:58Z</time>
      </trkpt>
      <trkpt lat="44.67393" lon="3.17892">
        <ele>1177.4</ele>
        <time>2022-08-02T11:28:02Z</time>
      </trkpt>
      <trkpt lat="44.67395" lon="3.17881">
        <ele>1177.8</ele>
        <time>2022-08-02T11:28:09Z</time>
      </trkpt>
      <trkpt lat="44.67397" lon="3.17867">
        <ele>1178.3</ele>
        <time>2022-08-02T11:28:17Z</time>
      </trkpt>
      <trkpt lat="44.674" lon="3.17854">
        <ele>1179.2</ele>
        <time>2022-08-02T11:28:25Z</time>
      </trkpt>
      <trkpt lat="44.67402" lon="3.17841">
        <ele>1180</ele>
        <time>2022-08-02T11:28:33Z</time>
      </trkpt>
      <trkpt lat="44.67403" lon="3.17828">
        <ele>1180.6</ele>
        <time>2022-08-02T11:28:41Z</time>
      </trkpt>
      <trkpt lat="44.67404" lon="3.17817">
        <ele>1180.9</ele>
        <time>2022-08-02T11:28:48Z</time>
      </trkpt>
      <trkpt lat="44.67403" lon="3.1781">
        <ele>1181</ele>
        <time>2022-08-02T11:28:52Z</time>
      </trkpt>
      <trkpt lat="44.67403" lon="3.17797">
        <ele>1181.7</ele>
        <time>2022-08-02T11:29:00Z</time>
      </trkpt>
      <trkpt lat="44.67403" lon="3.17796">
        <ele>1181.7</ele>
        <time>2022-08-02T11:29:01Z</time>
      </trkpt>
      <trkpt lat="44.67403" lon="3.17796">
        <ele>1181.8</ele>
        <time>2022-08-02T11:29:03Z</time>
      </trkpt>
      <trkpt lat="44.67403" lon="3.17796">
        <ele>1181.7</ele>
        <time>2022-08-02T11:29:05Z</time>
      </trkpt>
      <trkpt lat="44.674" lon="3.17786">
        <ele>1181.5</ele>
        <time>2022-08-02T11:29:12Z</time>
      </trkpt>
      <trkpt lat="44.67397" lon="3.1778">
        <ele>1181.3</ele>
        <time>2022-08-02T11:29:19Z</time>
      </trkpt>
      <trkpt lat="44.67396" lon="3.17775">
        <ele>1181.3</ele>
        <time>2022-08-02T11:29:28Z</time>
      </trkpt>
      <trkpt lat="44.67395" lon="3.17773">
        <ele>1181.1</ele>
        <time>2022-08-02T11:29:30Z</time>
      </trkpt>
      <trkpt lat="44.67393" lon="3.17764">
        <ele>1181.1</ele>
        <time>2022-08-02T11:29:36Z</time>
      </trkpt>
      <trkpt lat="44.67389" lon="3.17756">
        <ele>1180.5</ele>
        <time>2022-08-02T11:29:42Z</time>
      </trkpt>
      <trkpt lat="44.67385" lon="3.17752">
        <ele>1180.1</ele>
        <time>2022-08-02T11:29:46Z</time>
      </trkpt>
      <trkpt lat="44.67382" lon="3.17746">
        <ele>1180</ele>
        <time>2022-08-02T11:29:51Z</time>
      </trkpt>
      <trkpt lat="44.67375" lon="3.17734">
        <ele>1179.7</ele>
        <time>2022-08-02T11:30:00Z</time>
      </trkpt>
      <trkpt lat="44.67369" lon="3.17723">
        <ele>1179.2</ele>
        <time>2022-08-02T11:30:09Z</time>
      </trkpt>
      <trkpt lat="44.67368" lon="3.17722">
        <ele>1179.1</ele>
        <time>2022-08-02T11:30:10Z</time>
      </trkpt>
      <trkpt lat="44.67365" lon="3.17716">
        <ele>1178.7</ele>
        <time>2022-08-02T11:30:14Z</time>
      </trkpt>
      <trkpt lat="44.67362" lon="3.17709">
        <ele>1178.3</ele>
        <time>2022-08-02T11:30:19Z</time>
      </trkpt>
      <trkpt lat="44.67362" lon="3.17707">
        <ele>1178.2</ele>
        <time>2022-08-02T11:30:20Z</time>
      </trkpt>
      <trkpt lat="44.67357" lon="3.1769">
        <ele>1178.4</ele>
        <time>2022-08-02T11:30:32Z</time>
      </trkpt>
      <trkpt lat="44.67357" lon="3.17687">
        <ele>1178.4</ele>
        <time>2022-08-02T11:30:34Z</time>
      </trkpt>
      <trkpt lat="44.67356" lon="3.17679">
        <ele>1178.6</ele>
        <time>2022-08-02T11:30:39Z</time>
      </trkpt>
      <trkpt lat="44.67356" lon="3.17676">
        <ele>1178.7</ele>
        <time>2022-08-02T11:30:41Z</time>
      </trkpt>
      <trkpt lat="44.67357" lon="3.1767">
        <ele>1179.1</ele>
        <time>2022-08-02T11:30:45Z</time>
      </trkpt>
      <trkpt lat="44.67357" lon="3.17668">
        <ele>1179.2</ele>
        <time>2022-08-02T11:30:46Z</time>
      </trkpt>
      <trkpt lat="44.67357" lon="3.17668">
        <ele>1179.2</ele>
        <time>2022-08-02T11:30:47Z</time>
      </trkpt>
      <trkpt lat="44.67357" lon="3.1765">
        <ele>1179.1</ele>
        <time>2022-08-02T11:30:56Z</time>
      </trkpt>
      <trkpt lat="44.67357" lon="3.17645">
        <ele>1179.2</ele>
        <time>2022-08-02T11:30:59Z</time>
      </trkpt>
      <trkpt lat="44.67358" lon="3.1764">
        <ele>1179.3</ele>
        <time>2022-08-02T11:31:02Z</time>
      </trkpt>
      <trkpt lat="44.67359" lon="3.17629">
        <ele>1179.1</ele>
        <time>2022-08-02T11:31:08Z</time>
      </trkpt>
      <trkpt lat="44.67359" lon="3.17626">
        <ele>1179.1</ele>
        <time>2022-08-02T11:31:10Z</time>
      </trkpt>
      <trkpt lat="44.67359" lon="3.1761">
        <ele>1178.6</ele>
        <time>2022-08-02T11:31:19Z</time>
      </trkpt>
      <trkpt lat="44.67359" lon="3.17608">
        <ele>1178.6</ele>
        <time>2022-08-02T11:31:20Z</time>
      </trkpt>
      <trkpt lat="44.67359" lon="3.17599">
        <ele>1178.6</ele>
        <time>2022-08-02T11:31:25Z</time>
      </trkpt>
      <trkpt lat="44.67359" lon="3.17594">
        <ele>1178.7</ele>
        <time>2022-08-02T11:31:28Z</time>
      </trkpt>
      <trkpt lat="44.6736" lon="3.17592">
        <ele>1178.7</ele>
        <time>2022-08-02T11:31:29Z</time>
      </trkpt>
      <trkpt lat="44.67362" lon="3.17584">
        <ele>1179.1</ele>
        <time>2022-08-02T11:31:35Z</time>
      </trkpt>
      <trkpt lat="44.67362" lon="3.17584">
        <ele>1179.2</ele>
        <time>2022-08-02T11:31:36Z</time>
      </trkpt>
      <trkpt lat="44.67362" lon="3.17583">
        <ele>1179.2</ele>
        <time>2022-08-02T11:31:37Z</time>
      </trkpt>
      <trkpt lat="44.67362" lon="3.17579">
        <ele>1179.5</ele>
        <time>2022-08-02T11:31:40Z</time>
      </trkpt>
      <trkpt lat="44.67362" lon="3.17576">
        <ele>1179.5</ele>
        <time>2022-08-02T11:31:42Z</time>
      </trkpt>
      <trkpt lat="44.67365" lon="3.17558">
        <ele>1180.6</ele>
        <time>2022-08-02T11:31:52Z</time>
      </trkpt>
      <trkpt lat="44.67367" lon="3.17546">
        <ele>1180.8</ele>
        <time>2022-08-02T11:32:00Z</time>
      </trkpt>
      <trkpt lat="44.67367" lon="3.17545">
        <ele>1180.8</ele>
        <time>2022-08-02T11:32:01Z</time>
      </trkpt>
      <trkpt lat="44.67365" lon="3.1754">
        <ele>1180.5</ele>
        <time>2022-08-02T11:32:05Z</time>
      </trkpt>
      <trkpt lat="44.67366" lon="3.17539">
        <ele>1180.5</ele>
        <time>2022-08-02T11:32:08Z</time>
      </trkpt>
      <trkpt lat="44.67366" lon="3.17538">
        <ele>1180.5</ele>
        <time>2022-08-02T11:32:09Z</time>
      </trkpt>
      <trkpt lat="44.67365" lon="3.17538">
        <ele>1180.5</ele>
        <time>2022-08-02T11:32:10Z</time>
      </trkpt>
      <trkpt lat="44.67364" lon="3.17539">
        <ele>1180.3</ele>
        <time>2022-08-02T11:32:16Z</time>
      </trkpt>
      <trkpt lat="44.67363" lon="3.17537">
        <ele>1180.2</ele>
        <time>2022-08-02T11:32:18Z</time>
      </trkpt>
      <trkpt lat="44.67361" lon="3.17533">
        <ele>1180</ele>
        <time>2022-08-02T11:32:22Z</time>
      </trkpt>
      <trkpt lat="44.67361" lon="3.17531">
        <ele>1180</ele>
        <time>2022-08-02T11:32:23Z</time>
      </trkpt>
      <trkpt lat="44.6736" lon="3.17526">
        <ele>1179.8</ele>
        <time>2022-08-02T11:32:30Z</time>
      </trkpt>
      <trkpt lat="44.67362" lon="3.17527">
        <ele>1180</ele>
        <time>2022-08-02T11:32:34Z</time>
      </trkpt>
      <trkpt lat="44.67363" lon="3.17529">
        <ele>1180.2</ele>
        <time>2022-08-02T11:32:37Z</time>
      </trkpt>
      <trkpt lat="44.67363" lon="3.1753">
        <ele>1180.2</ele>
        <time>2022-08-02T11:32:45Z</time>
      </trkpt>
      <trkpt lat="44.67361" lon="3.1753">
        <ele>1180</ele>
        <time>2022-08-02T11:33:45Z</time>
      </trkpt>
      <trkpt lat="44.67361" lon="3.17528">
        <ele>1180</ele>
        <time>2022-08-02T11:34:16Z</time>
      </trkpt>
      <trkpt lat="44.67361" lon="3.17528">
        <ele>1180</ele>
        <time>2022-08-02T11:34:19Z</time>
      </trkpt>
      <trkpt lat="44.67361" lon="3.17527">
        <ele>1179.9</ele>
        <time>2022-08-02T11:34:24Z</time>
      </trkpt>
      <trkpt lat="44.6736" lon="3.17527">
        <ele>1179.8</ele>
        <time>2022-08-02T11:34:32Z</time>
      </trkpt>
      <trkpt lat="44.6736" lon="3.17527">
        <ele>1179.8</ele>
        <time>2022-08-02T11:34:33Z</time>
      </trkpt>
      <trkpt lat="44.6736" lon="3.17527">
        <ele>1179.8</ele>
        <time>2022-08-02T11:34:39Z</time>
      </trkpt>
      <trkpt lat="44.6736" lon="3.17527">
        <ele>1179.8</ele>
        <time>2022-08-02T11:34:50Z</time>
      </trkpt>
      <trkpt lat="44.6736" lon="3.17527">
        <ele>1179.8</ele>
        <time>2022-08-02T11:34:51Z</time>
      </trkpt>
      <trkpt lat="44.6736" lon="3.17527">
        <ele>1179.8</ele>
        <time>2022-08-02T11:34:52Z</time>
      </trkpt>
      <trkpt lat="44.67361" lon="3.17527">
        <ele>1179.9</ele>
        <time>2022-08-02T11:34:58Z</time>
      </trkpt>
      <trkpt lat="44.67361" lon="3.17527">
        <ele>1179.9</ele>
        <time>2022-08-02T11:35:02Z</time>
      </trkpt>
      <trkpt lat="44.67361" lon="3.17527">
        <ele>1180</ele>
        <time>2022-08-02T11:35:03Z</time>
      </trkpt>
      <trkpt lat="44.67361" lon="3.17527">
        <ele>1180</ele>
        <time>2022-08-02T11:35:04Z</time>
      </trkpt>
      <trkpt lat="44.67361" lon="3.17527">
        <ele>1180</ele>
        <time>2022-08-02T11:35:05Z</time>
      </trkpt>
      <trkpt lat="44.67361" lon="3.17527">
        <ele>1180</ele>
        <time>2022-08-02T11:35:06Z</time>
      </trkpt>
      <trkpt lat="44.67361" lon="3.17527">
        <ele>1180</ele>
        <time>2022-08-02T11:35:07Z</time>
      </trkpt>
      <trkpt lat="44.67361" lon="3.17527">
        <ele>1180</ele>
        <time>2022-08-02T11:35:09Z</time>
      </trkpt>
      <trkpt lat="44.67361" lon="3.17527">
        <ele>1180</ele>
        <time>2022-08-02T11:35:11Z</time>
      </trkpt>
      <trkpt lat="44.67361" lon="3.17527">
        <ele>1180</ele>
        <time>2022-08-02T11:35:12Z</time>
      </trkpt>
      <trkpt lat="44.67361" lon="3.17527">
        <ele>1180</ele>
        <time>2022-08-02T11:35:13Z</time>
      </trkpt>
      <trkpt lat="44.67361" lon="3.17527">
        <ele>1180</ele>
        <time>2022-08-02T11:35:14Z</time>
      </trkpt>
      <trkpt lat="44.67361" lon="3.17527">
        <ele>1180</ele>
        <time>2022-08-02T11:35:15Z</time>
      </trkpt>
      <trkpt lat="44.67361" lon="3.17527">
        <ele>1180</ele>
        <time>2022-08-02T11:35:16Z</time>
      </trkpt>
      <trkpt lat="44.67361" lon="3.17527">
        <ele>1180</ele>
        <time>2022-08-02T11:35:17Z</time>
      </trkpt>
      <trkpt lat="44.67362" lon="3.17527">
        <ele>1180</ele>
        <time>2022-08-02T11:35:18Z</time>
      </trkpt>
      <trkpt lat="44.67364" lon="3.17529">
        <ele>1180.2</ele>
        <time>2022-08-02T11:35:20Z</time>
      </trkpt>
      <trkpt lat="44.67364" lon="3.17529">
        <ele>1180.2</ele>
        <time>2022-08-02T11:35:21Z</time>
      </trkpt>
      <trkpt lat="44.67365" lon="3.17529">
        <ele>1180.3</ele>
        <time>2022-08-02T11:35:22Z</time>
      </trkpt>
      <trkpt lat="44.67366" lon="3.1753">
        <ele>1180.4</ele>
        <time>2022-08-02T11:35:23Z</time>
      </trkpt>
      <trkpt lat="44.67366" lon="3.1753">
        <ele>1180.4</ele>
        <time>2022-08-02T11:35:24Z</time>
      </trkpt>
      <trkpt lat="44.67367" lon="3.17533">
        <ele>1180.5</ele>
        <time>2022-08-02T11:35:25Z</time>
      </trkpt>
      <trkpt lat="44.67368" lon="3.17533">
        <ele>1180.6</ele>
        <time>2022-08-02T11:35:26Z</time>
      </trkpt>
      <trkpt lat="44.67369" lon="3.17532">
        <ele>1180.7</ele>
        <time>2022-08-02T11:35:27Z</time>
      </trkpt>
      <trkpt lat="44.6737" lon="3.1753">
        <ele>1180.7</ele>
        <time>2022-08-02T11:35:28Z</time>
      </trkpt>
      <trkpt lat="44.6737" lon="3.17528">
        <ele>1180.7</ele>
        <time>2022-08-02T11:35:29Z</time>
      </trkpt>
      <trkpt lat="44.67371" lon="3.17527">
        <ele>1180.7</ele>
        <time>2022-08-02T11:35:30Z</time>
      </trkpt>
      <trkpt lat="44.67371" lon="3.17524">
        <ele>1180.6</ele>
        <time>2022-08-02T11:35:32Z</time>
      </trkpt>
      <trkpt lat="44.67372" lon="3.17521">
        <ele>1180.6</ele>
        <time>2022-08-02T11:35:34Z</time>
      </trkpt>
      <trkpt lat="44.67373" lon="3.17519">
        <ele>1180.5</ele>
        <time>2022-08-02T11:35:36Z</time>
      </trkpt>
      <trkpt lat="44.67374" lon="3.17517">
        <ele>1180.6</ele>
        <time>2022-08-02T11:35:37Z</time>
      </trkpt>
      <trkpt lat="44.67377" lon="3.17509">
        <ele>1180.4</ele>
        <time>2022-08-02T11:35:43Z</time>
      </trkpt>
      <trkpt lat="44.6738" lon="3.17496">
        <ele>1179.9</ele>
        <time>2022-08-02T11:35:52Z</time>
      </trkpt>
      <trkpt lat="44.67381" lon="3.17494">
        <ele>1179.8</ele>
        <time>2022-08-02T11:35:53Z</time>
      </trkpt>
      <trkpt lat="44.67382" lon="3.17488">
        <ele>1179.6</ele>
        <time>2022-08-02T11:35:57Z</time>
      </trkpt>
      <trkpt lat="44.67383" lon="3.17486">
        <ele>1179.5</ele>
        <time>2022-08-02T11:35:59Z</time>
      </trkpt>
      <trkpt lat="44.67384" lon="3.17484">
        <ele>1179.4</ele>
        <time>2022-08-02T11:36:00Z</time>
      </trkpt>
      <trkpt lat="44.67384" lon="3.17483">
        <ele>1179.4</ele>
        <time>2022-08-02T11:36:01Z</time>
      </trkpt>
      <trkpt lat="44.67384" lon="3.1748">
        <ele>1179.3</ele>
        <time>2022-08-02T11:36:03Z</time>
      </trkpt>
      <trkpt lat="44.67386" lon="3.17478">
        <ele>1179.2</ele>
        <time>2022-08-02T11:36:06Z</time>
      </trkpt>
      <trkpt lat="44.67385" lon="3.17479">
        <ele>1179.2</ele>
        <time>2022-08-02T11:36:07Z</time>
      </trkpt>
      <trkpt lat="44.67386" lon="3.17479">
        <ele>1179.2</ele>
        <time>2022-08-02T11:36:09Z</time>
      </trkpt>
      <trkpt lat="44.67388" lon="3.17478">
        <ele>1179.2</ele>
        <time>2022-08-02T11:36:13Z</time>
      </trkpt>
      <trkpt lat="44.6739" lon="3.17477">
        <ele>1179.2</ele>
        <time>2022-08-02T11:36:15Z</time>
      </trkpt>
      <trkpt lat="44.6739" lon="3.17477">
        <ele>1179.2</ele>
        <time>2022-08-02T11:36:17Z</time>
      </trkpt>
      <trkpt lat="44.67389" lon="3.17477">
        <ele>1179.2</ele>
        <time>2022-08-02T11:36:22Z</time>
      </trkpt>
      <trkpt lat="44.6739" lon="3.1747">
        <ele>1178.9</ele>
        <time>2022-08-02T11:36:26Z</time>
      </trkpt>
      <trkpt lat="44.67391" lon="3.17468">
        <ele>1178.9</ele>
        <time>2022-08-02T11:36:27Z</time>
      </trkpt>
      <trkpt lat="44.67392" lon="3.17468">
        <ele>1178.8</ele>
        <time>2022-08-02T11:36:28Z</time>
      </trkpt>
      <trkpt lat="44.67392" lon="3.17467">
        <ele>1178.8</ele>
        <time>2022-08-02T11:36:29Z</time>
      </trkpt>
      <trkpt lat="44.67392" lon="3.17466">
        <ele>1178.8</ele>
        <time>2022-08-02T11:36:31Z</time>
      </trkpt>
      <trkpt lat="44.67392" lon="3.17464">
        <ele>1178.7</ele>
        <time>2022-08-02T11:36:33Z</time>
      </trkpt>
      <trkpt lat="44.67393" lon="3.17463">
        <ele>1178.7</ele>
        <time>2022-08-02T11:36:34Z</time>
      </trkpt>
      <trkpt lat="44.67394" lon="3.17462">
        <ele>1178.6</ele>
        <time>2022-08-02T11:36:35Z</time>
      </trkpt>
      <trkpt lat="44.67394" lon="3.1746">
        <ele>1178.6</ele>
        <time>2022-08-02T11:36:36Z</time>
      </trkpt>
      <trkpt lat="44.67395" lon="3.17459">
        <ele>1178.5</ele>
        <time>2022-08-02T11:36:37Z</time>
      </trkpt>
      <trkpt lat="44.67395" lon="3.17457">
        <ele>1178.5</ele>
        <time>2022-08-02T11:36:38Z</time>
      </trkpt>
      <trkpt lat="44.67396" lon="3.17456">
        <ele>1178.4</ele>
        <time>2022-08-02T11:36:39Z</time>
      </trkpt>
      <trkpt lat="44.67396" lon="3.17455">
        <ele>1178.4</ele>
        <time>2022-08-02T11:36:40Z</time>
      </trkpt>
      <trkpt lat="44.67397" lon="3.17453">
        <ele>1178.3</ele>
        <time>2022-08-02T11:36:41Z</time>
      </trkpt>
      <trkpt lat="44.67397" lon="3.17452">
        <ele>1178.3</ele>
        <time>2022-08-02T11:36:42Z</time>
      </trkpt>
      <trkpt lat="44.67398" lon="3.1745">
        <ele>1178.2</ele>
        <time>2022-08-02T11:36:43Z</time>
      </trkpt>
      <trkpt lat="44.67398" lon="3.17448">
        <ele>1178.1</ele>
        <time>2022-08-02T11:36:44Z</time>
      </trkpt>
      <trkpt lat="44.67398" lon="3.17446">
        <ele>1178.1</ele>
        <time>2022-08-02T11:36:45Z</time>
      </trkpt>
      <trkpt lat="44.67398" lon="3.17445">
        <ele>1178</ele>
        <time>2022-08-02T11:36:46Z</time>
      </trkpt>
      <trkpt lat="44.67399" lon="3.17441">
        <ele>1177.9</ele>
        <time>2022-08-02T11:36:48Z</time>
      </trkpt>
      <trkpt lat="44.67399" lon="3.1744">
        <ele>1177.9</ele>
        <time>2022-08-02T11:36:49Z</time>
      </trkpt>
      <trkpt lat="44.674" lon="3.17439">
        <ele>1177.9</ele>
        <time>2022-08-02T11:36:50Z</time>
      </trkpt>
      <trkpt lat="44.67401" lon="3.17435">
        <ele>1177.8</ele>
        <time>2022-08-02T11:36:52Z</time>
      </trkpt>
      <trkpt lat="44.67402" lon="3.17434">
        <ele>1177.8</ele>
        <time>2022-08-02T11:36:53Z</time>
      </trkpt>
      <trkpt lat="44.67403" lon="3.17429">
        <ele>1177.7</ele>
        <time>2022-08-02T11:36:57Z</time>
      </trkpt>
      <trkpt lat="44.67404" lon="3.17424">
        <ele>1177.7</ele>
        <time>2022-08-02T11:37:00Z</time>
      </trkpt>
      <trkpt lat="44.67405" lon="3.17417">
        <ele>1177.6</ele>
        <time>2022-08-02T11:37:04Z</time>
      </trkpt>
      <trkpt lat="44.67406" lon="3.17412">
        <ele>1177.5</ele>
        <time>2022-08-02T11:37:08Z</time>
      </trkpt>
      <trkpt lat="44.67406" lon="3.17412">
        <ele>1177.5</ele>
        <time>2022-08-02T11:37:09Z</time>
      </trkpt>
      <trkpt lat="44.67406" lon="3.17411">
        <ele>1177.5</ele>
        <time>2022-08-02T11:37:10Z</time>
      </trkpt>
      <trkpt lat="44.67405" lon="3.17411">
        <ele>1177.5</ele>
        <time>2022-08-02T11:37:12Z</time>
      </trkpt>
      <trkpt lat="44.67405" lon="3.17411">
        <ele>1177.5</ele>
        <time>2022-08-02T11:37:13Z</time>
      </trkpt>
      <trkpt lat="44.67406" lon="3.1741">
        <ele>1177.5</ele>
        <time>2022-08-02T11:37:14Z</time>
      </trkpt>
      <trkpt lat="44.67407" lon="3.17404">
        <ele>1177.4</ele>
        <time>2022-08-02T11:37:18Z</time>
      </trkpt>
      <trkpt lat="44.67408" lon="3.17402">
        <ele>1177.3</ele>
        <time>2022-08-02T11:37:19Z</time>
      </trkpt>
      <trkpt lat="44.67409" lon="3.17397">
        <ele>1177.2</ele>
        <time>2022-08-02T11:37:22Z</time>
      </trkpt>
      <trkpt lat="44.67412" lon="3.1739">
        <ele>1177</ele>
        <time>2022-08-02T11:37:27Z</time>
      </trkpt>
      <trkpt lat="44.67412" lon="3.17388">
        <ele>1177</ele>
        <time>2022-08-02T11:37:28Z</time>
      </trkpt>
      <trkpt lat="44.67415" lon="3.1738">
        <ele>1177</ele>
        <time>2022-08-02T11:37:34Z</time>
      </trkpt>
      <trkpt lat="44.67416" lon="3.17375">
        <ele>1177</ele>
        <time>2022-08-02T11:37:37Z</time>
      </trkpt>
      <trkpt lat="44.67417" lon="3.1737">
        <ele>1177</ele>
        <time>2022-08-02T11:37:41Z</time>
      </trkpt>
      <trkpt lat="44.67419" lon="3.17364">
        <ele>1177</ele>
        <time>2022-08-02T11:37:45Z</time>
      </trkpt>
      <trkpt lat="44.67419" lon="3.17361">
        <ele>1177</ele>
        <time>2022-08-02T11:37:47Z</time>
      </trkpt>
      <trkpt lat="44.67419" lon="3.17359">
        <ele>1177</ele>
        <time>2022-08-02T11:37:48Z</time>
      </trkpt>
      <trkpt lat="44.67419" lon="3.17354">
        <ele>1177</ele>
        <time>2022-08-02T11:37:51Z</time>
      </trkpt>
      <trkpt lat="44.6742" lon="3.17343">
        <ele>1177</ele>
        <time>2022-08-02T11:37:58Z</time>
      </trkpt>
      <trkpt lat="44.6742" lon="3.17339">
        <ele>1177</ele>
        <time>2022-08-02T11:38:02Z</time>
      </trkpt>
      <trkpt lat="44.6742" lon="3.17338">
        <ele>1177</ele>
        <time>2022-08-02T11:38:04Z</time>
      </trkpt>
      <trkpt lat="44.6742" lon="3.17334">
        <ele>1177</ele>
        <time>2022-08-02T11:38:07Z</time>
      </trkpt>
      <trkpt lat="44.6742" lon="3.1733">
        <ele>1177.1</ele>
        <time>2022-08-02T11:38:09Z</time>
      </trkpt>
      <trkpt lat="44.67421" lon="3.17325">
        <ele>1177.3</ele>
        <time>2022-08-02T11:38:12Z</time>
      </trkpt>
      <trkpt lat="44.67421" lon="3.1732">
        <ele>1177.4</ele>
        <time>2022-08-02T11:38:15Z</time>
      </trkpt>
      <trkpt lat="44.67421" lon="3.17315">
        <ele>1177.6</ele>
        <time>2022-08-02T11:38:18Z</time>
      </trkpt>
      <trkpt lat="44.67421" lon="3.17313">
        <ele>1177.6</ele>
        <time>2022-08-02T11:38:19Z</time>
      </trkpt>
      <trkpt lat="44.67421" lon="3.17304">
        <ele>1177.8</ele>
        <time>2022-08-02T11:38:24Z</time>
      </trkpt>
      <trkpt lat="44.67422" lon="3.17292">
        <ele>1177.9</ele>
        <time>2022-08-02T11:38:31Z</time>
      </trkpt>
      <trkpt lat="44.67422" lon="3.17269">
        <ele>1178</ele>
        <time>2022-08-02T11:38:44Z</time>
      </trkpt>
      <trkpt lat="44.67422" lon="3.17257">
        <ele>1178</ele>
        <time>2022-08-02T11:38:51Z</time>
      </trkpt>
      <trkpt lat="44.67422" lon="3.17254">
        <ele>1178</ele>
        <time>2022-08-02T11:38:53Z</time>
      </trkpt>
      <trkpt lat="44.67421" lon="3.17234">
        <ele>1178.5</ele>
        <time>2022-08-02T11:39:04Z</time>
      </trkpt>
      <trkpt lat="44.67422" lon="3.1723">
        <ele>1178.6</ele>
        <time>2022-08-02T11:39:10Z</time>
      </trkpt>
      <trkpt lat="44.67422" lon="3.17227">
        <ele>1178.7</ele>
        <time>2022-08-02T11:39:14Z</time>
      </trkpt>
      <trkpt lat="44.67422" lon="3.17224">
        <ele>1178.8</ele>
        <time>2022-08-02T11:39:16Z</time>
      </trkpt>
      <trkpt lat="44.67423" lon="3.17218">
        <ele>1178.8</ele>
        <time>2022-08-02T11:39:19Z</time>
      </trkpt>
      <trkpt lat="44.67423" lon="3.17209">
        <ele>1178.9</ele>
        <time>2022-08-02T11:39:24Z</time>
      </trkpt>
      <trkpt lat="44.67424" lon="3.17201">
        <ele>1178.9</ele>
        <time>2022-08-02T11:39:31Z</time>
      </trkpt>
      <trkpt lat="44.67424" lon="3.17202">
        <ele>1178.9</ele>
        <time>2022-08-02T11:39:34Z</time>
      </trkpt>
      <trkpt lat="44.67424" lon="3.17202">
        <ele>1178.9</ele>
        <time>2022-08-02T11:39:36Z</time>
      </trkpt>
      <trkpt lat="44.67423" lon="3.17198">
        <ele>1179</ele>
        <time>2022-08-02T11:39:42Z</time>
      </trkpt>
      <trkpt lat="44.67423" lon="3.17195">
        <ele>1179</ele>
        <time>2022-08-02T11:39:44Z</time>
      </trkpt>
      <trkpt lat="44.67423" lon="3.17192">
        <ele>1179.1</ele>
        <time>2022-08-02T11:39:46Z</time>
      </trkpt>
      <trkpt lat="44.67422" lon="3.17183">
        <ele>1179.3</ele>
        <time>2022-08-02T11:39:51Z</time>
      </trkpt>
      <trkpt lat="44.67421" lon="3.17175">
        <ele>1179.6</ele>
        <time>2022-08-02T11:39:56Z</time>
      </trkpt>
      <trkpt lat="44.67421" lon="3.17161">
        <ele>1180.3</ele>
        <time>2022-08-02T11:40:05Z</time>
      </trkpt>
      <trkpt lat="44.6742" lon="3.17144">
        <ele>1181.4</ele>
        <time>2022-08-02T11:40:15Z</time>
      </trkpt>
      <trkpt lat="44.67419" lon="3.1713">
        <ele>1182.8</ele>
        <time>2022-08-02T11:40:24Z</time>
      </trkpt>
      <trkpt lat="44.6742" lon="3.17119">
        <ele>1183.9</ele>
        <time>2022-08-02T11:40:31Z</time>
      </trkpt>
      <trkpt lat="44.67421" lon="3.17102">
        <ele>1185.4</ele>
        <time>2022-08-02T11:40:42Z</time>
      </trkpt>
      <trkpt lat="44.67421" lon="3.17087">
        <ele>1186.5</ele>
        <time>2022-08-02T11:40:52Z</time>
      </trkpt>
      <trkpt lat="44.67423" lon="3.17071">
        <ele>1187.8</ele>
        <time>2022-08-02T11:41:02Z</time>
      </trkpt>
      <trkpt lat="44.67423" lon="3.17056">
        <ele>1189</ele>
        <time>2022-08-02T11:41:11Z</time>
      </trkpt>
      <trkpt lat="44.67424" lon="3.17051">
        <ele>1189.3</ele>
        <time>2022-08-02T11:41:14Z</time>
      </trkpt>
      <trkpt lat="44.67425" lon="3.17037">
        <ele>1190.2</ele>
        <time>2022-08-02T11:41:23Z</time>
      </trkpt>
      <trkpt lat="44.67425" lon="3.17033">
        <ele>1190.4</ele>
        <time>2022-08-02T11:41:25Z</time>
      </trkpt>
      <trkpt lat="44.67426" lon="3.17032">
        <ele>1190.4</ele>
        <time>2022-08-02T11:41:26Z</time>
      </trkpt>
      <trkpt lat="44.67424" lon="3.17025">
        <ele>1191</ele>
        <time>2022-08-02T11:41:31Z</time>
      </trkpt>
      <trkpt lat="44.67425" lon="3.17006">
        <ele>1192.3</ele>
        <time>2022-08-02T11:41:43Z</time>
      </trkpt>
      <trkpt lat="44.67426" lon="3.16995">
        <ele>1193.1</ele>
        <time>2022-08-02T11:41:50Z</time>
      </trkpt>
      <trkpt lat="44.67427" lon="3.16988">
        <ele>1193.5</ele>
        <time>2022-08-02T11:41:54Z</time>
      </trkpt>
      <trkpt lat="44.67428" lon="3.16973">
        <ele>1194.6</ele>
        <time>2022-08-02T11:42:04Z</time>
      </trkpt>
      <trkpt lat="44.67429" lon="3.16967">
        <ele>1194.9</ele>
        <time>2022-08-02T11:42:08Z</time>
      </trkpt>
      <trkpt lat="44.67429" lon="3.16965">
        <ele>1195</ele>
        <time>2022-08-02T11:42:09Z</time>
      </trkpt>
      <trkpt lat="44.67429" lon="3.16962">
        <ele>1195.1</ele>
        <time>2022-08-02T11:42:11Z</time>
      </trkpt>
      <trkpt lat="44.6743" lon="3.16958">
        <ele>1195.3</ele>
        <time>2022-08-02T11:42:14Z</time>
      </trkpt>
      <trkpt lat="44.6743" lon="3.16956">
        <ele>1195.4</ele>
        <time>2022-08-02T11:42:15Z</time>
      </trkpt>
      <trkpt lat="44.6743" lon="3.16953">
        <ele>1195.6</ele>
        <time>2022-08-02T11:42:17Z</time>
      </trkpt>
      <trkpt lat="44.67431" lon="3.16941">
        <ele>1196.1</ele>
        <time>2022-08-02T11:42:24Z</time>
      </trkpt>
      <trkpt lat="44.67431" lon="3.16936">
        <ele>1196.3</ele>
        <time>2022-08-02T11:42:27Z</time>
      </trkpt>
      <trkpt lat="44.67431" lon="3.16935">
        <ele>1196.3</ele>
        <time>2022-08-02T11:42:28Z</time>
      </trkpt>
      <trkpt lat="44.67431" lon="3.16932">
        <ele>1196.4</ele>
        <time>2022-08-02T11:42:30Z</time>
      </trkpt>
      <trkpt lat="44.67432" lon="3.16929">
        <ele>1196.4</ele>
        <time>2022-08-02T11:42:32Z</time>
      </trkpt>
      <trkpt lat="44.67434" lon="3.16926">
        <ele>1196.4</ele>
        <time>2022-08-02T11:42:34Z</time>
      </trkpt>
      <trkpt lat="44.67434" lon="3.1692">
        <ele>1196.7</ele>
        <time>2022-08-02T11:42:38Z</time>
      </trkpt>
      <trkpt lat="44.67434" lon="3.16916">
        <ele>1196.8</ele>
        <time>2022-08-02T11:42:41Z</time>
      </trkpt>
      <trkpt lat="44.67434" lon="3.16913">
        <ele>1196.9</ele>
        <time>2022-08-02T11:42:43Z</time>
      </trkpt>
      <trkpt lat="44.67434" lon="3.16912">
        <ele>1197</ele>
        <time>2022-08-02T11:42:44Z</time>
      </trkpt>
      <trkpt lat="44.67435" lon="3.1691">
        <ele>1197.1</ele>
        <time>2022-08-02T11:42:45Z</time>
      </trkpt>
      <trkpt lat="44.67435" lon="3.16908">
        <ele>1197.2</ele>
        <time>2022-08-02T11:42:46Z</time>
      </trkpt>
      <trkpt lat="44.67435" lon="3.16907">
        <ele>1197.3</ele>
        <time>2022-08-02T11:42:47Z</time>
      </trkpt>
      <trkpt lat="44.67435" lon="3.16904">
        <ele>1197.4</ele>
        <time>2022-08-02T11:42:49Z</time>
      </trkpt>
      <trkpt lat="44.67436" lon="3.16901">
        <ele>1197.6</ele>
        <time>2022-08-02T11:42:51Z</time>
      </trkpt>
      <trkpt lat="44.67437" lon="3.16897">
        <ele>1197.8</ele>
        <time>2022-08-02T11:42:54Z</time>
      </trkpt>
      <trkpt lat="44.67439" lon="3.16892">
        <ele>1198</ele>
        <time>2022-08-02T11:42:57Z</time>
      </trkpt>
      <trkpt lat="44.67439" lon="3.1689">
        <ele>1198.1</ele>
        <time>2022-08-02T11:42:58Z</time>
      </trkpt>
      <trkpt lat="44.67439" lon="3.16881">
        <ele>1198.8</ele>
        <time>2022-08-02T11:43:04Z</time>
      </trkpt>
      <trkpt lat="44.67437" lon="3.16877">
        <ele>1199.3</ele>
        <time>2022-08-02T11:43:06Z</time>
      </trkpt>
      <trkpt lat="44.67437" lon="3.1687">
        <ele>1199.8</ele>
        <time>2022-08-02T11:43:11Z</time>
      </trkpt>
      <trkpt lat="44.67437" lon="3.16864">
        <ele>1200.3</ele>
        <time>2022-08-02T11:43:15Z</time>
      </trkpt>
      <trkpt lat="44.67437" lon="3.16859">
        <ele>1200.6</ele>
        <time>2022-08-02T11:43:18Z</time>
      </trkpt>
      <trkpt lat="44.67438" lon="3.16859">
        <ele>1200.6</ele>
        <time>2022-08-02T11:43:21Z</time>
      </trkpt>
      <trkpt lat="44.67439" lon="3.16858">
        <ele>1200.5</ele>
        <time>2022-08-02T11:43:23Z</time>
      </trkpt>
      <trkpt lat="44.6744" lon="3.16858">
        <ele>1200.5</ele>
        <time>2022-08-02T11:43:24Z</time>
      </trkpt>
      <trkpt lat="44.67439" lon="3.16858">
        <ele>1200.5</ele>
        <time>2022-08-02T11:43:25Z</time>
      </trkpt>
      <trkpt lat="44.67439" lon="3.16857">
        <ele>1200.6</ele>
        <time>2022-08-02T11:43:26Z</time>
      </trkpt>
      <trkpt lat="44.67439" lon="3.16857">
        <ele>1200.6</ele>
        <time>2022-08-02T11:43:27Z</time>
      </trkpt>
      <trkpt lat="44.67439" lon="3.16856">
        <ele>1200.6</ele>
        <time>2022-08-02T11:43:28Z</time>
      </trkpt>
      <trkpt lat="44.67439" lon="3.16856">
        <ele>1200.6</ele>
        <time>2022-08-02T11:43:30Z</time>
      </trkpt>
      <trkpt lat="44.67439" lon="3.16856">
        <ele>1200.6</ele>
        <time>2022-08-02T11:43:31Z</time>
      </trkpt>
      <trkpt lat="44.67439" lon="3.16857">
        <ele>1200.5</ele>
        <time>2022-08-02T11:43:33Z</time>
      </trkpt>
      <trkpt lat="44.67439" lon="3.16857">
        <ele>1200.5</ele>
        <time>2022-08-02T11:43:40Z</time>
      </trkpt>
      <trkpt lat="44.67439" lon="3.16857">
        <ele>1200.6</ele>
        <time>2022-08-02T11:43:46Z</time>
      </trkpt>
      <trkpt lat="44.67439" lon="3.16858">
        <ele>1200.5</ele>
        <time>2022-08-02T11:43:51Z</time>
      </trkpt>
      <trkpt lat="44.67439" lon="3.16859">
        <ele>1200.5</ele>
        <time>2022-08-02T11:43:52Z</time>
      </trkpt>
      <trkpt lat="44.67439" lon="3.1686">
        <ele>1200.5</ele>
        <time>2022-08-02T11:43:53Z</time>
      </trkpt>
      <trkpt lat="44.67439" lon="3.1686">
        <ele>1200.4</ele>
        <time>2022-08-02T11:43:54Z</time>
      </trkpt>
      <trkpt lat="44.67439" lon="3.16861">
        <ele>1200.4</ele>
        <time>2022-08-02T11:43:58Z</time>
      </trkpt>
      <trkpt lat="44.67438" lon="3.16861">
        <ele>1200.4</ele>
        <time>2022-08-02T11:44:01Z</time>
      </trkpt>
      <trkpt lat="44.67438" lon="3.16861">
        <ele>1200.5</ele>
        <time>2022-08-02T11:44:05Z</time>
      </trkpt>
      <trkpt lat="44.67438" lon="3.16861">
        <ele>1200.5</ele>
        <time>2022-08-02T11:44:10Z</time>
      </trkpt>
      <trkpt lat="44.67438" lon="3.16861">
        <ele>1200.5</ele>
        <time>2022-08-02T11:44:16Z</time>
      </trkpt>
      <trkpt lat="44.67436" lon="3.16852">
        <ele>1201.1</ele>
        <time>2022-08-02T11:44:23Z</time>
      </trkpt>
      <trkpt lat="44.67435" lon="3.16848">
        <ele>1201.4</ele>
        <time>2022-08-02T11:44:25Z</time>
      </trkpt>
      <trkpt lat="44.67433" lon="3.16841">
        <ele>1201.8</ele>
        <time>2022-08-02T11:44:29Z</time>
      </trkpt>
      <trkpt lat="44.67433" lon="3.16841">
        <ele>1201.8</ele>
        <time>2022-08-02T11:44:30Z</time>
      </trkpt>
      <trkpt lat="44.67433" lon="3.16841">
        <ele>1201.8</ele>
        <time>2022-08-02T11:44:31Z</time>
      </trkpt>
      <trkpt lat="44.67432" lon="3.16842">
        <ele>1201.9</ele>
        <time>2022-08-02T11:44:33Z</time>
      </trkpt>
      <trkpt lat="44.67432" lon="3.16842">
        <ele>1201.9</ele>
        <time>2022-08-02T11:44:34Z</time>
      </trkpt>
      <trkpt lat="44.67432" lon="3.16841">
        <ele>1202</ele>
        <time>2022-08-02T11:44:35Z</time>
      </trkpt>
      <trkpt lat="44.67431" lon="3.16839">
        <ele>1202.2</ele>
        <time>2022-08-02T11:44:36Z</time>
      </trkpt>
      <trkpt lat="44.6743" lon="3.16837">
        <ele>1202.4</ele>
        <time>2022-08-02T11:44:38Z</time>
      </trkpt>
      <trkpt lat="44.67429" lon="3.16835">
        <ele>1202.6</ele>
        <time>2022-08-02T11:44:40Z</time>
      </trkpt>
      <trkpt lat="44.67428" lon="3.16832">
        <ele>1202.9</ele>
        <time>2022-08-02T11:44:42Z</time>
      </trkpt>
      <trkpt lat="44.67427" lon="3.16827">
        <ele>1203.2</ele>
        <time>2022-08-02T11:44:45Z</time>
      </trkpt>
      <trkpt lat="44.67426" lon="3.16825">
        <ele>1203.4</ele>
        <time>2022-08-02T11:44:47Z</time>
      </trkpt>
      <trkpt lat="44.67426" lon="3.16824">
        <ele>1203.6</ele>
        <time>2022-08-02T11:44:49Z</time>
      </trkpt>
      <trkpt lat="44.67424" lon="3.16813">
        <ele>1204.5</ele>
        <time>2022-08-02T11:44:55Z</time>
      </trkpt>
      <trkpt lat="44.67423" lon="3.16809">
        <ele>1204.8</ele>
        <time>2022-08-02T11:44:57Z</time>
      </trkpt>
      <trkpt lat="44.67422" lon="3.16799">
        <ele>1206.1</ele>
        <time>2022-08-02T11:45:04Z</time>
      </trkpt>
      <trkpt lat="44.67423" lon="3.1679">
        <ele>1207.3</ele>
        <time>2022-08-02T11:45:11Z</time>
      </trkpt>
      <trkpt lat="44.67424" lon="3.16789">
        <ele>1207.3</ele>
        <time>2022-08-02T11:45:18Z</time>
      </trkpt>
      <trkpt lat="44.67425" lon="3.16787">
        <ele>1207.4</ele>
        <time>2022-08-02T11:45:25Z</time>
      </trkpt>
      <trkpt lat="44.67425" lon="3.16787">
        <ele>1207.5</ele>
        <time>2022-08-02T11:45:36Z</time>
      </trkpt>
      <trkpt lat="44.67422" lon="3.1679">
        <ele>1207.5</ele>
        <time>2022-08-02T11:46:05Z</time>
      </trkpt>
      <trkpt lat="44.67418" lon="3.1679">
        <ele>1208</ele>
        <time>2022-08-02T11:47:31Z</time>
      </trkpt>
      <trkpt lat="44.6739" lon="3.16821">
        <ele>1209</ele>
        <time>2022-08-03T07:30:21Z</time>
      </trkpt>
      <trkpt lat="44.67386" lon="3.1682">
        <ele>1210</ele>
        <time>2022-08-03T07:30:23Z</time>
      </trkpt>
      <trkpt lat="44.6738" lon="3.16841">
        <ele>1207</ele>
        <time>2022-08-03T07:30:34Z</time>
      </trkpt>
      <trkpt lat="44.67379" lon="3.16842">
        <ele>1207.1</ele>
        <time>2022-08-03T07:30:35Z</time>
      </trkpt>
      <trkpt lat="44.67376" lon="3.16848">
        <ele>1207</ele>
        <time>2022-08-03T07:30:39Z</time>
      </trkpt>
      <trkpt lat="44.67375" lon="3.1685">
        <ele>1207</ele>
        <time>2022-08-03T07:30:40Z</time>
      </trkpt>
      <trkpt lat="44.67371" lon="3.16854">
        <ele>1206.9</ele>
        <time>2022-08-03T07:30:43Z</time>
      </trkpt>
      <trkpt lat="44.67359" lon="3.16871">
        <ele>1205.9</ele>
        <time>2022-08-03T07:30:55Z</time>
      </trkpt>
      <trkpt lat="44.6735" lon="3.16883">
        <ele>1205.1</ele>
        <time>2022-08-03T07:31:05Z</time>
      </trkpt>
      <trkpt lat="44.67344" lon="3.16898">
        <ele>1204</ele>
        <time>2022-08-03T07:31:14Z</time>
      </trkpt>
      <trkpt lat="44.6734" lon="3.16906">
        <ele>1204</ele>
        <time>2022-08-03T07:31:20Z</time>
      </trkpt>
      <trkpt lat="44.67338" lon="3.16909">
        <ele>1203.9</ele>
        <time>2022-08-03T07:31:22Z</time>
      </trkpt>
      <trkpt lat="44.6733" lon="3.16925">
        <ele>1203.8</ele>
        <time>2022-08-03T07:31:33Z</time>
      </trkpt>
      <trkpt lat="44.67326" lon="3.16935">
        <ele>1203.6</ele>
        <time>2022-08-03T07:31:40Z</time>
      </trkpt>
      <trkpt lat="44.67326" lon="3.16937">
        <ele>1203.5</ele>
        <time>2022-08-03T07:31:41Z</time>
      </trkpt>
      <trkpt lat="44.6732" lon="3.16946">
        <ele>1203.8</ele>
        <time>2022-08-03T07:31:47Z</time>
      </trkpt>
      <trkpt lat="44.67313" lon="3.16958">
        <ele>1203.5</ele>
        <time>2022-08-03T07:31:55Z</time>
      </trkpt>
      <trkpt lat="44.67305" lon="3.16973">
        <ele>1202.1</ele>
        <time>2022-08-03T07:32:05Z</time>
      </trkpt>
      <trkpt lat="44.67297" lon="3.1699">
        <ele>1202.9</ele>
        <time>2022-08-03T07:32:16Z</time>
      </trkpt>
      <trkpt lat="44.67292" lon="3.16999">
        <ele>1203</ele>
        <time>2022-08-03T07:32:22Z</time>
      </trkpt>
      <trkpt lat="44.67287" lon="3.17011">
        <ele>1202.4</ele>
        <time>2022-08-03T07:32:30Z</time>
      </trkpt>
      <trkpt lat="44.67279" lon="3.17028">
        <ele>1201</ele>
        <time>2022-08-03T07:32:42Z</time>
      </trkpt>
      <trkpt lat="44.67269" lon="3.17049">
        <ele>1200.8</ele>
        <time>2022-08-03T07:32:55Z</time>
      </trkpt>
      <trkpt lat="44.67268" lon="3.1705">
        <ele>1200.8</ele>
        <time>2022-08-03T07:32:57Z</time>
      </trkpt>
      <trkpt lat="44.67266" lon="3.17054">
        <ele>1200.9</ele>
        <time>2022-08-03T07:32:59Z</time>
      </trkpt>
      <trkpt lat="44.67264" lon="3.17059">
        <ele>1200.8</ele>
        <time>2022-08-03T07:33:02Z</time>
      </trkpt>
      <trkpt lat="44.67257" lon="3.17075">
        <ele>1201.1</ele>
        <time>2022-08-03T07:33:13Z</time>
      </trkpt>
      <trkpt lat="44.67256" lon="3.1708">
        <ele>1201</ele>
        <time>2022-08-03T07:33:17Z</time>
      </trkpt>
      <trkpt lat="44.67257" lon="3.17081">
        <ele>1200.9</ele>
        <time>2022-08-03T07:33:20Z</time>
      </trkpt>
      <trkpt lat="44.67257" lon="3.17081">
        <ele>1200.9</ele>
        <time>2022-08-03T07:33:21Z</time>
      </trkpt>
      <trkpt lat="44.67259" lon="3.17081">
        <ele>1200.5</ele>
        <time>2022-08-03T07:33:51Z</time>
      </trkpt>
      <trkpt lat="44.67259" lon="3.17081">
        <ele>1200.5</ele>
        <time>2022-08-03T07:33:52Z</time>
      </trkpt>
      <trkpt lat="44.67257" lon="3.1709">
        <ele>1200.3</ele>
        <time>2022-08-03T07:34:11Z</time>
      </trkpt>
      <trkpt lat="44.67252" lon="3.17114">
        <ele>1199.5</ele>
        <time>2022-08-03T07:34:21Z</time>
      </trkpt>
      <trkpt lat="44.67247" lon="3.17131">
        <ele>1199.3</ele>
        <time>2022-08-03T07:34:31Z</time>
      </trkpt>
      <trkpt lat="44.67242" lon="3.17147">
        <ele>1199</ele>
        <time>2022-08-03T07:34:40Z</time>
      </trkpt>
      <trkpt lat="44.67236" lon="3.17166">
        <ele>1198.2</ele>
        <time>2022-08-03T07:34:51Z</time>
      </trkpt>
      <trkpt lat="44.67229" lon="3.1718">
        <ele>1198.2</ele>
        <time>2022-08-03T07:34:59Z</time>
      </trkpt>
      <trkpt lat="44.67226" lon="3.17186">
        <ele>1198.3</ele>
        <time>2022-08-03T07:35:03Z</time>
      </trkpt>
      <trkpt lat="44.67214" lon="3.17207">
        <ele>1197.9</ele>
        <time>2022-08-03T07:35:16Z</time>
      </trkpt>
      <trkpt lat="44.67211" lon="3.17211">
        <ele>1197.8</ele>
        <time>2022-08-03T07:35:19Z</time>
      </trkpt>
      <trkpt lat="44.67202" lon="3.17225">
        <ele>1196.8</ele>
        <time>2022-08-03T07:35:29Z</time>
      </trkpt>
      <trkpt lat="44.67197" lon="3.17232">
        <ele>1196.4</ele>
        <time>2022-08-03T07:35:34Z</time>
      </trkpt>
      <trkpt lat="44.6719" lon="3.1724">
        <ele>1196</ele>
        <time>2022-08-03T07:35:41Z</time>
      </trkpt>
      <trkpt lat="44.67181" lon="3.17252">
        <ele>1195.3</ele>
        <time>2022-08-03T07:35:50Z</time>
      </trkpt>
      <trkpt lat="44.67172" lon="3.17269">
        <ele>1195</ele>
        <time>2022-08-03T07:36:00Z</time>
      </trkpt>
      <trkpt lat="44.67161" lon="3.17284">
        <ele>1194.8</ele>
        <time>2022-08-03T07:36:12Z</time>
      </trkpt>
      <trkpt lat="44.67158" lon="3.17288">
        <ele>1194.6</ele>
        <time>2022-08-03T07:36:14Z</time>
      </trkpt>
      <trkpt lat="44.67155" lon="3.17295">
        <ele>1194.3</ele>
        <time>2022-08-03T07:36:19Z</time>
      </trkpt>
      <trkpt lat="44.67149" lon="3.17308">
        <ele>1193.7</ele>
        <time>2022-08-03T07:36:28Z</time>
      </trkpt>
      <trkpt lat="44.67141" lon="3.17325">
        <ele>1193.4</ele>
        <time>2022-08-03T07:36:38Z</time>
      </trkpt>
      <trkpt lat="44.67129" lon="3.17342">
        <ele>1192.9</ele>
        <time>2022-08-03T07:36:50Z</time>
      </trkpt>
      <trkpt lat="44.67122" lon="3.1735">
        <ele>1192.5</ele>
        <time>2022-08-03T07:36:59Z</time>
      </trkpt>
      <trkpt lat="44.67118" lon="3.17352">
        <ele>1192.5</ele>
        <time>2022-08-03T07:37:02Z</time>
      </trkpt>
      <trkpt lat="44.67114" lon="3.17359">
        <ele>1192</ele>
        <time>2022-08-03T07:37:07Z</time>
      </trkpt>
      <trkpt lat="44.67112" lon="3.17361">
        <ele>1191.9</ele>
        <time>2022-08-03T07:37:09Z</time>
      </trkpt>
      <trkpt lat="44.67101" lon="3.1737">
        <ele>1192.5</ele>
        <time>2022-08-03T07:37:18Z</time>
      </trkpt>
      <trkpt lat="44.67094" lon="3.17378">
        <ele>1191.8</ele>
        <time>2022-08-03T07:37:25Z</time>
      </trkpt>
      <trkpt lat="44.67093" lon="3.1738">
        <ele>1191.6</ele>
        <time>2022-08-03T07:37:26Z</time>
      </trkpt>
      <trkpt lat="44.67089" lon="3.17383">
        <ele>1191.7</ele>
        <time>2022-08-03T07:37:29Z</time>
      </trkpt>
      <trkpt lat="44.67085" lon="3.17385">
        <ele>1191.6</ele>
        <time>2022-08-03T07:37:32Z</time>
      </trkpt>
      <trkpt lat="44.6708" lon="3.17393">
        <ele>1190.5</ele>
        <time>2022-08-03T07:37:38Z</time>
      </trkpt>
      <trkpt lat="44.6708" lon="3.17396">
        <ele>1190.1</ele>
        <time>2022-08-03T07:37:40Z</time>
      </trkpt>
      <trkpt lat="44.67079" lon="3.17397">
        <ele>1190</ele>
        <time>2022-08-03T07:37:41Z</time>
      </trkpt>
      <trkpt lat="44.6707" lon="3.17402">
        <ele>1190.3</ele>
        <time>2022-08-03T07:37:45Z</time>
      </trkpt>
      <trkpt lat="44.67057" lon="3.1741">
        <ele>1190.5</ele>
        <time>2022-08-03T07:37:53Z</time>
      </trkpt>
      <trkpt lat="44.67055" lon="3.17411">
        <ele>1190.6</ele>
        <time>2022-08-03T07:37:54Z</time>
      </trkpt>
      <trkpt lat="44.67048" lon="3.17417">
        <ele>1189.9</ele>
        <time>2022-08-03T07:38:02Z</time>
      </trkpt>
      <trkpt lat="44.67035" lon="3.17426">
        <ele>1189.2</ele>
        <time>2022-08-03T07:38:12Z</time>
      </trkpt>
      <trkpt lat="44.67032" lon="3.17428">
        <ele>1189.2</ele>
        <time>2022-08-03T07:38:14Z</time>
      </trkpt>
      <trkpt lat="44.67023" lon="3.17434">
        <ele>1188.6</ele>
        <time>2022-08-03T07:38:21Z</time>
      </trkpt>
      <trkpt lat="44.67013" lon="3.17437">
        <ele>1188.6</ele>
        <time>2022-08-03T07:38:28Z</time>
      </trkpt>
      <trkpt lat="44.67009" lon="3.17438">
        <ele>1188.5</ele>
        <time>2022-08-03T07:38:30Z</time>
      </trkpt>
      <trkpt lat="44.66996" lon="3.17441">
        <ele>1188.7</ele>
        <time>2022-08-03T07:38:41Z</time>
      </trkpt>
      <trkpt lat="44.66988" lon="3.17443">
        <ele>1188.2</ele>
        <time>2022-08-03T07:38:47Z</time>
      </trkpt>
      <trkpt lat="44.66986" lon="3.17444">
        <ele>1188</ele>
        <time>2022-08-03T07:38:48Z</time>
      </trkpt>
      <trkpt lat="44.66974" lon="3.1745">
        <ele>1186.6</ele>
        <time>2022-08-03T07:38:55Z</time>
      </trkpt>
      <trkpt lat="44.66969" lon="3.17451">
        <ele>1186.6</ele>
        <time>2022-08-03T07:38:59Z</time>
      </trkpt>
      <trkpt lat="44.66966" lon="3.17454">
        <ele>1186.1</ele>
        <time>2022-08-03T07:39:02Z</time>
      </trkpt>
      <trkpt lat="44.66966" lon="3.17454">
        <ele>1186.1</ele>
        <time>2022-08-03T07:39:03Z</time>
      </trkpt>
      <trkpt lat="44.66958" lon="3.17458">
        <ele>1185.7</ele>
        <time>2022-08-03T07:39:09Z</time>
      </trkpt>
      <trkpt lat="44.6695" lon="3.17462">
        <ele>1185.2</ele>
        <time>2022-08-03T07:39:16Z</time>
      </trkpt>
      <trkpt lat="44.66946" lon="3.17465">
        <ele>1184.8</ele>
        <time>2022-08-03T07:39:19Z</time>
      </trkpt>
      <trkpt lat="44.6694" lon="3.1747">
        <ele>1184.3</ele>
        <time>2022-08-03T07:39:24Z</time>
      </trkpt>
      <trkpt lat="44.66939" lon="3.1747">
        <ele>1184.5</ele>
        <time>2022-08-03T07:39:25Z</time>
      </trkpt>
      <trkpt lat="44.66932" lon="3.17475">
        <ele>1184.2</ele>
        <time>2022-08-03T07:39:32Z</time>
      </trkpt>
      <trkpt lat="44.66925" lon="3.1748">
        <ele>1183.9</ele>
        <time>2022-08-03T07:39:36Z</time>
      </trkpt>
      <trkpt lat="44.66918" lon="3.17486">
        <ele>1183.4</ele>
        <time>2022-08-03T07:39:42Z</time>
      </trkpt>
      <trkpt lat="44.66915" lon="3.17488">
        <ele>1183.1</ele>
        <time>2022-08-03T07:39:45Z</time>
      </trkpt>
      <trkpt lat="44.6691" lon="3.17495">
        <ele>1182.2</ele>
        <time>2022-08-03T07:39:51Z</time>
      </trkpt>
      <trkpt lat="44.66904" lon="3.17502">
        <ele>1181.5</ele>
        <time>2022-08-03T07:39:57Z</time>
      </trkpt>
      <trkpt lat="44.66897" lon="3.17507">
        <ele>1181.1</ele>
        <time>2022-08-03T07:40:02Z</time>
      </trkpt>
      <trkpt lat="44.66891" lon="3.17518">
        <ele>1179.9</ele>
        <time>2022-08-03T07:40:09Z</time>
      </trkpt>
      <trkpt lat="44.66887" lon="3.17523">
        <ele>1179.4</ele>
        <time>2022-08-03T07:40:13Z</time>
      </trkpt>
      <trkpt lat="44.66884" lon="3.17536">
        <ele>1178.1</ele>
        <time>2022-08-03T07:40:20Z</time>
      </trkpt>
      <trkpt lat="44.66882" lon="3.17541">
        <ele>1177.7</ele>
        <time>2022-08-03T07:40:23Z</time>
      </trkpt>
      <trkpt lat="44.66877" lon="3.17557">
        <ele>1177.2</ele>
        <time>2022-08-03T07:40:32Z</time>
      </trkpt>
      <trkpt lat="44.66876" lon="3.17566">
        <ele>1176.9</ele>
        <time>2022-08-03T07:40:37Z</time>
      </trkpt>
      <trkpt lat="44.66876" lon="3.17568">
        <ele>1176.9</ele>
        <time>2022-08-03T07:40:38Z</time>
      </trkpt>
      <trkpt lat="44.66875" lon="3.17572">
        <ele>1176.9</ele>
        <time>2022-08-03T07:40:40Z</time>
      </trkpt>
      <trkpt lat="44.6687" lon="3.17588">
        <ele>1176.9</ele>
        <time>2022-08-03T07:40:48Z</time>
      </trkpt>
      <trkpt lat="44.66869" lon="3.17593">
        <ele>1176.7</ele>
        <time>2022-08-03T07:40:51Z</time>
      </trkpt>
      <trkpt lat="44.66866" lon="3.17604">
        <ele>1176.4</ele>
        <time>2022-08-03T07:40:58Z</time>
      </trkpt>
      <trkpt lat="44.66861" lon="3.17623">
        <ele>1175.4</ele>
        <time>2022-08-03T07:41:10Z</time>
      </trkpt>
      <trkpt lat="44.66858" lon="3.17627">
        <ele>1175.1</ele>
        <time>2022-08-03T07:41:13Z</time>
      </trkpt>
      <trkpt lat="44.66854" lon="3.17634">
        <ele>1174.8</ele>
        <time>2022-08-03T07:41:18Z</time>
      </trkpt>
      <trkpt lat="44.66848" lon="3.17648">
        <ele>1173.6</ele>
        <time>2022-08-03T07:41:26Z</time>
      </trkpt>
      <trkpt lat="44.66846" lon="3.17653">
        <ele>1173.1</ele>
        <time>2022-08-03T07:41:29Z</time>
      </trkpt>
      <trkpt lat="44.6684" lon="3.17662">
        <ele>1172.7</ele>
        <time>2022-08-03T07:41:36Z</time>
      </trkpt>
      <trkpt lat="44.66839" lon="3.17664">
        <ele>1172.5</ele>
        <time>2022-08-03T07:41:37Z</time>
      </trkpt>
      <trkpt lat="44.66827" lon="3.17675">
        <ele>1172.9</ele>
        <time>2022-08-03T07:41:47Z</time>
      </trkpt>
      <trkpt lat="44.6682" lon="3.17685">
        <ele>1172.2</ele>
        <time>2022-08-03T07:41:53Z</time>
      </trkpt>
      <trkpt lat="44.66812" lon="3.17689">
        <ele>1171.9</ele>
        <time>2022-08-03T07:41:59Z</time>
      </trkpt>
      <trkpt lat="44.66807" lon="3.17691">
        <ele>1171.6</ele>
        <time>2022-08-03T07:42:04Z</time>
      </trkpt>
      <trkpt lat="44.66794" lon="3.17698">
        <ele>1170.5</ele>
        <time>2022-08-03T07:42:12Z</time>
      </trkpt>
      <trkpt lat="44.66786" lon="3.177">
        <ele>1170.1</ele>
        <time>2022-08-03T07:42:19Z</time>
      </trkpt>
      <trkpt lat="44.66783" lon="3.17701">
        <ele>1169.8</ele>
        <time>2022-08-03T07:42:23Z</time>
      </trkpt>
      <trkpt lat="44.66771" lon="3.17708">
        <ele>1168.5</ele>
        <time>2022-08-03T07:42:32Z</time>
      </trkpt>
      <trkpt lat="44.66762" lon="3.17714">
        <ele>1168</ele>
        <time>2022-08-03T07:42:40Z</time>
      </trkpt>
      <trkpt lat="44.66762" lon="3.17715">
        <ele>1167.9</ele>
        <time>2022-08-03T07:42:41Z</time>
      </trkpt>
      <trkpt lat="44.66754" lon="3.17727">
        <ele>1167.3</ele>
        <time>2022-08-03T07:42:50Z</time>
      </trkpt>
      <trkpt lat="44.66752" lon="3.17736">
        <ele>1166.9</ele>
        <time>2022-08-03T07:42:55Z</time>
      </trkpt>
      <trkpt lat="44.66749" lon="3.17741">
        <ele>1166.7</ele>
        <time>2022-08-03T07:42:58Z</time>
      </trkpt>
      <trkpt lat="44.66749" lon="3.17747">
        <ele>1166.4</ele>
        <time>2022-08-03T07:43:01Z</time>
      </trkpt>
      <trkpt lat="44.66748" lon="3.17752">
        <ele>1166.2</ele>
        <time>2022-08-03T07:43:04Z</time>
      </trkpt>
      <trkpt lat="44.66745" lon="3.17766">
        <ele>1165.3</ele>
        <time>2022-08-03T07:43:12Z</time>
      </trkpt>
      <trkpt lat="44.66743" lon="3.17771">
        <ele>1165.4</ele>
        <time>2022-08-03T07:43:15Z</time>
      </trkpt>
      <trkpt lat="44.66743" lon="3.17773">
        <ele>1165.2</ele>
        <time>2022-08-03T07:43:16Z</time>
      </trkpt>
      <trkpt lat="44.66743" lon="3.1778">
        <ele>1164.6</ele>
        <time>2022-08-03T07:43:19Z</time>
      </trkpt>
      <trkpt lat="44.66738" lon="3.17794">
        <ele>1164.5</ele>
        <time>2022-08-03T07:43:28Z</time>
      </trkpt>
      <trkpt lat="44.66735" lon="3.17803">
        <ele>1164.4</ele>
        <time>2022-08-03T07:43:35Z</time>
      </trkpt>
      <trkpt lat="44.66735" lon="3.17805">
        <ele>1164.2</ele>
        <time>2022-08-03T07:43:36Z</time>
      </trkpt>
      <trkpt lat="44.66735" lon="3.17807">
        <ele>1164.2</ele>
        <time>2022-08-03T07:43:37Z</time>
      </trkpt>
      <trkpt lat="44.6673" lon="3.17817">
        <ele>1163.9</ele>
        <time>2022-08-03T07:43:44Z</time>
      </trkpt>
      <trkpt lat="44.66722" lon="3.17832">
        <ele>1163.3</ele>
        <time>2022-08-03T07:43:52Z</time>
      </trkpt>
      <trkpt lat="44.66719" lon="3.17834">
        <ele>1163.4</ele>
        <time>2022-08-03T07:43:54Z</time>
      </trkpt>
      <trkpt lat="44.66715" lon="3.17843">
        <ele>1162.8</ele>
        <time>2022-08-03T07:44:00Z</time>
      </trkpt>
      <trkpt lat="44.66701" lon="3.1786">
        <ele>1162.3</ele>
        <time>2022-08-03T07:44:13Z</time>
      </trkpt>
      <trkpt lat="44.66698" lon="3.17866">
        <ele>1161.9</ele>
        <time>2022-08-03T07:44:17Z</time>
      </trkpt>
      <trkpt lat="44.66691" lon="3.17874">
        <ele>1161.8</ele>
        <time>2022-08-03T07:44:23Z</time>
      </trkpt>
      <trkpt lat="44.6668" lon="3.17886">
        <ele>1161.6</ele>
        <time>2022-08-03T07:44:33Z</time>
      </trkpt>
      <trkpt lat="44.66678" lon="3.17889">
        <ele>1161.4</ele>
        <time>2022-08-03T07:44:35Z</time>
      </trkpt>
      <trkpt lat="44.66667" lon="3.17902">
        <ele>1161.2</ele>
        <time>2022-08-03T07:44:47Z</time>
      </trkpt>
      <trkpt lat="44.6666" lon="3.1791">
        <ele>1160.7</ele>
        <time>2022-08-03T07:44:54Z</time>
      </trkpt>
      <trkpt lat="44.66656" lon="3.17914">
        <ele>1160.6</ele>
        <time>2022-08-03T07:44:58Z</time>
      </trkpt>
      <trkpt lat="44.66649" lon="3.17923">
        <ele>1159.9</ele>
        <time>2022-08-03T07:45:05Z</time>
      </trkpt>
      <trkpt lat="44.66645" lon="3.17928">
        <ele>1159.5</ele>
        <time>2022-08-03T07:45:09Z</time>
      </trkpt>
      <trkpt lat="44.66634" lon="3.17938">
        <ele>1158.5</ele>
        <time>2022-08-03T07:45:17Z</time>
      </trkpt>
      <trkpt lat="44.66629" lon="3.17943">
        <ele>1158</ele>
        <time>2022-08-03T07:45:21Z</time>
      </trkpt>
      <trkpt lat="44.66626" lon="3.17946">
        <ele>1157.7</ele>
        <time>2022-08-03T07:45:24Z</time>
      </trkpt>
      <trkpt lat="44.66616" lon="3.17959">
        <ele>1157.1</ele>
        <time>2022-08-03T07:45:34Z</time>
      </trkpt>
      <trkpt lat="44.66609" lon="3.17969">
        <ele>1156.4</ele>
        <time>2022-08-03T07:45:41Z</time>
      </trkpt>
      <trkpt lat="44.66607" lon="3.17973">
        <ele>1155.9</ele>
        <time>2022-08-03T07:45:44Z</time>
      </trkpt>
      <trkpt lat="44.66603" lon="3.17984">
        <ele>1155.2</ele>
        <time>2022-08-03T07:45:51Z</time>
      </trkpt>
      <trkpt lat="44.66602" lon="3.17988">
        <ele>1154.9</ele>
        <time>2022-08-03T07:45:53Z</time>
      </trkpt>
      <trkpt lat="44.66599" lon="3.18005">
        <ele>1153.8</ele>
        <time>2022-08-03T07:46:03Z</time>
      </trkpt>
      <trkpt lat="44.66599" lon="3.1801">
        <ele>1153.7</ele>
        <time>2022-08-03T07:46:05Z</time>
      </trkpt>
      <trkpt lat="44.66599" lon="3.18029">
        <ele>1153</ele>
        <time>2022-08-03T07:46:15Z</time>
      </trkpt>
      <trkpt lat="44.66599" lon="3.18031">
        <ele>1153</ele>
        <time>2022-08-03T07:46:16Z</time>
      </trkpt>
      <trkpt lat="44.666" lon="3.18053">
        <ele>1153</ele>
        <time>2022-08-03T07:46:29Z</time>
      </trkpt>
      <trkpt lat="44.666" lon="3.18055">
        <ele>1153</ele>
        <time>2022-08-03T07:46:30Z</time>
      </trkpt>
      <trkpt lat="44.66604" lon="3.18067">
        <ele>1153</ele>
        <time>2022-08-03T07:46:37Z</time>
      </trkpt>
      <trkpt lat="44.66606" lon="3.18084">
        <ele>1153</ele>
        <time>2022-08-03T07:46:47Z</time>
      </trkpt>
      <trkpt lat="44.66609" lon="3.18102">
        <ele>1152.4</ele>
        <time>2022-08-03T07:46:57Z</time>
      </trkpt>
      <trkpt lat="44.66611" lon="3.18121">
        <ele>1152</ele>
        <time>2022-08-03T07:47:07Z</time>
      </trkpt>
      <trkpt lat="44.66613" lon="3.18136">
        <ele>1151.9</ele>
        <time>2022-08-03T07:47:16Z</time>
      </trkpt>
      <trkpt lat="44.66617" lon="3.18154">
        <ele>1151.4</ele>
        <time>2022-08-03T07:47:25Z</time>
      </trkpt>
      <trkpt lat="44.66617" lon="3.18162">
        <ele>1151.1</ele>
        <time>2022-08-03T07:47:31Z</time>
      </trkpt>
      <trkpt lat="44.66617" lon="3.18166">
        <ele>1151</ele>
        <time>2022-08-03T07:47:33Z</time>
      </trkpt>
      <trkpt lat="44.66618" lon="3.18188">
        <ele>1150.8</ele>
        <time>2022-08-03T07:47:44Z</time>
      </trkpt>
      <trkpt lat="44.66616" lon="3.18208">
        <ele>1150.4</ele>
        <time>2022-08-03T07:47:55Z</time>
      </trkpt>
      <trkpt lat="44.66615" lon="3.1821">
        <ele>1150.3</ele>
        <time>2022-08-03T07:47:56Z</time>
      </trkpt>
      <trkpt lat="44.66613" lon="3.18227">
        <ele>1149.8</ele>
        <time>2022-08-03T07:48:06Z</time>
      </trkpt>
      <trkpt lat="44.66612" lon="3.18245">
        <ele>1149.2</ele>
        <time>2022-08-03T07:48:17Z</time>
      </trkpt>
      <trkpt lat="44.66608" lon="3.18263">
        <ele>1149</ele>
        <time>2022-08-03T07:48:27Z</time>
      </trkpt>
      <trkpt lat="44.66606" lon="3.18272">
        <ele>1148.8</ele>
        <time>2022-08-03T07:48:35Z</time>
      </trkpt>
      <trkpt lat="44.66604" lon="3.18276">
        <ele>1148.8</ele>
        <time>2022-08-03T07:48:38Z</time>
      </trkpt>
      <trkpt lat="44.66601" lon="3.18283">
        <ele>1148.8</ele>
        <time>2022-08-03T07:48:42Z</time>
      </trkpt>
      <trkpt lat="44.666" lon="3.18284">
        <ele>1148.8</ele>
        <time>2022-08-03T07:48:43Z</time>
      </trkpt>
      <trkpt lat="44.66592" lon="3.18298">
        <ele>1149</ele>
        <time>2022-08-03T07:48:52Z</time>
      </trkpt>
      <trkpt lat="44.66582" lon="3.18312">
        <ele>1149.2</ele>
        <time>2022-08-03T07:49:03Z</time>
      </trkpt>
      <trkpt lat="44.66571" lon="3.18328">
        <ele>1149.3</ele>
        <time>2022-08-03T07:49:15Z</time>
      </trkpt>
      <trkpt lat="44.66558" lon="3.18346">
        <ele>1149.1</ele>
        <time>2022-08-03T07:49:29Z</time>
      </trkpt>
      <trkpt lat="44.66557" lon="3.18347">
        <ele>1149.1</ele>
        <time>2022-08-03T07:49:30Z</time>
      </trkpt>
      <trkpt lat="44.66556" lon="3.18348">
        <ele>1149</ele>
        <time>2022-08-03T07:49:32Z</time>
      </trkpt>
      <trkpt lat="44.66555" lon="3.1835">
        <ele>1149</ele>
        <time>2022-08-03T07:49:34Z</time>
      </trkpt>
      <trkpt lat="44.66553" lon="3.18352">
        <ele>1148.9</ele>
        <time>2022-08-03T07:49:36Z</time>
      </trkpt>
      <trkpt lat="44.66545" lon="3.18365">
        <ele>1148.7</ele>
        <time>2022-08-03T07:49:45Z</time>
      </trkpt>
      <trkpt lat="44.66541" lon="3.1837">
        <ele>1148.6</ele>
        <time>2022-08-03T07:49:49Z</time>
      </trkpt>
      <trkpt lat="44.66531" lon="3.18385">
        <ele>1148.2</ele>
        <time>2022-08-03T07:50:00Z</time>
      </trkpt>
      <trkpt lat="44.66525" lon="3.18392">
        <ele>1147.8</ele>
        <time>2022-08-03T07:50:06Z</time>
      </trkpt>
      <trkpt lat="44.6652" lon="3.184">
        <ele>1147.4</ele>
        <time>2022-08-03T07:50:12Z</time>
      </trkpt>
      <trkpt lat="44.66508" lon="3.18416">
        <ele>1146.6</ele>
        <time>2022-08-03T07:50:24Z</time>
      </trkpt>
      <trkpt lat="44.66504" lon="3.18422">
        <ele>1146.5</ele>
        <time>2022-08-03T07:50:29Z</time>
      </trkpt>
      <trkpt lat="44.66496" lon="3.18434">
        <ele>1146.5</ele>
        <time>2022-08-03T07:50:38Z</time>
      </trkpt>
      <trkpt lat="44.66495" lon="3.18438">
        <ele>1146.6</ele>
        <time>2022-08-03T07:50:44Z</time>
      </trkpt>
      <trkpt lat="44.6649" lon="3.18444">
        <ele>1146.6</ele>
        <time>2022-08-03T07:50:56Z</time>
      </trkpt>
      <trkpt lat="44.66481" lon="3.18454">
        <ele>1146.1</ele>
        <time>2022-08-03T07:51:06Z</time>
      </trkpt>
      <trkpt lat="44.6648" lon="3.18455">
        <ele>1146</ele>
        <time>2022-08-03T07:51:08Z</time>
      </trkpt>
      <trkpt lat="44.66476" lon="3.18459">
        <ele>1145.7</ele>
        <time>2022-08-03T07:51:15Z</time>
      </trkpt>
      <trkpt lat="44.6647" lon="3.18457">
        <ele>1145.4</ele>
        <time>2022-08-03T07:51:20Z</time>
      </trkpt>
      <trkpt lat="44.66467" lon="3.18455">
        <ele>1145.4</ele>
        <time>2022-08-03T07:51:26Z</time>
      </trkpt>
      <trkpt lat="44.66464" lon="3.18449">
        <ele>1145.6</ele>
        <time>2022-08-03T07:51:33Z</time>
      </trkpt>
      <trkpt lat="44.66456" lon="3.18443">
        <ele>1145.4</ele>
        <time>2022-08-03T07:51:40Z</time>
      </trkpt>
      <trkpt lat="44.66454" lon="3.18441">
        <ele>1145.3</ele>
        <time>2022-08-03T07:51:42Z</time>
      </trkpt>
      <trkpt lat="44.66452" lon="3.1844">
        <ele>1145.2</ele>
        <time>2022-08-03T07:51:44Z</time>
      </trkpt>
      <trkpt lat="44.66449" lon="3.18438">
        <ele>1145.1</ele>
        <time>2022-08-03T07:51:47Z</time>
      </trkpt>
      <trkpt lat="44.66438" lon="3.18436">
        <ele>1144.8</ele>
        <time>2022-08-03T07:51:55Z</time>
      </trkpt>
      <trkpt lat="44.66427" lon="3.18433">
        <ele>1144.6</ele>
        <time>2022-08-03T07:52:04Z</time>
      </trkpt>
      <trkpt lat="44.66409" lon="3.18435">
        <ele>1144.5</ele>
        <time>2022-08-03T07:52:17Z</time>
      </trkpt>
      <trkpt lat="44.66394" lon="3.18436">
        <ele>1144.9</ele>
        <time>2022-08-03T07:52:30Z</time>
      </trkpt>
      <trkpt lat="44.66387" lon="3.18437">
        <ele>1145.2</ele>
        <time>2022-08-03T07:52:36Z</time>
      </trkpt>
      <trkpt lat="44.66383" lon="3.18436">
        <ele>1145.4</ele>
        <time>2022-08-03T07:52:40Z</time>
      </trkpt>
      <trkpt lat="44.66382" lon="3.18436">
        <ele>1145.5</ele>
        <time>2022-08-03T07:52:41Z</time>
      </trkpt>
      <trkpt lat="44.6637" lon="3.18437">
        <ele>1146.4</ele>
        <time>2022-08-03T07:52:51Z</time>
      </trkpt>
      <trkpt lat="44.66363" lon="3.18435">
        <ele>1146.9</ele>
        <time>2022-08-03T07:52:58Z</time>
      </trkpt>
      <trkpt lat="44.66361" lon="3.18434">
        <ele>1147</ele>
        <time>2022-08-03T07:53:00Z</time>
      </trkpt>
      <trkpt lat="44.66351" lon="3.18429">
        <ele>1147.9</ele>
        <time>2022-08-03T07:53:09Z</time>
      </trkpt>
      <trkpt lat="44.66346" lon="3.18427">
        <ele>1148.5</ele>
        <time>2022-08-03T07:53:14Z</time>
      </trkpt>
      <trkpt lat="44.6634" lon="3.18422">
        <ele>1149.2</ele>
        <time>2022-08-03T07:53:21Z</time>
      </trkpt>
      <trkpt lat="44.66335" lon="3.18418">
        <ele>1149.8</ele>
        <time>2022-08-03T07:53:25Z</time>
      </trkpt>
      <trkpt lat="44.66329" lon="3.18409">
        <ele>1150.4</ele>
        <time>2022-08-03T07:53:32Z</time>
      </trkpt>
      <trkpt lat="44.66326" lon="3.18405">
        <ele>1150.9</ele>
        <time>2022-08-03T07:53:36Z</time>
      </trkpt>
      <trkpt lat="44.66323" lon="3.18401">
        <ele>1151.4</ele>
        <time>2022-08-03T07:53:40Z</time>
      </trkpt>
      <trkpt lat="44.66316" lon="3.18392">
        <ele>1152.5</ele>
        <time>2022-08-03T07:53:49Z</time>
      </trkpt>
      <trkpt lat="44.66312" lon="3.18387">
        <ele>1153.2</ele>
        <time>2022-08-03T07:53:53Z</time>
      </trkpt>
      <trkpt lat="44.66311" lon="3.18385">
        <ele>1153.4</ele>
        <time>2022-08-03T07:53:56Z</time>
      </trkpt>
      <trkpt lat="44.66311" lon="3.18385">
        <ele>1153.4</ele>
        <time>2022-08-03T07:53:57Z</time>
      </trkpt>
      <trkpt lat="44.6631" lon="3.18383">
        <ele>1153.6</ele>
        <time>2022-08-03T07:54:01Z</time>
      </trkpt>
      <trkpt lat="44.6631" lon="3.18384">
        <ele>1153.6</ele>
        <time>2022-08-03T07:54:02Z</time>
      </trkpt>
      <trkpt lat="44.6631" lon="3.18384">
        <ele>1153.5</ele>
        <time>2022-08-03T07:54:03Z</time>
      </trkpt>
      <trkpt lat="44.6631" lon="3.18384">
        <ele>1153.5</ele>
        <time>2022-08-03T07:54:05Z</time>
      </trkpt>
      <trkpt lat="44.66307" lon="3.18381">
        <ele>1154.2</ele>
        <time>2022-08-03T07:54:10Z</time>
      </trkpt>
      <trkpt lat="44.663" lon="3.18375">
        <ele>1155</ele>
        <time>2022-08-03T07:54:17Z</time>
      </trkpt>
      <trkpt lat="44.66299" lon="3.18374">
        <ele>1155.1</ele>
        <time>2022-08-03T07:54:18Z</time>
      </trkpt>
      <trkpt lat="44.66293" lon="3.18367">
        <ele>1155.8</ele>
        <time>2022-08-03T07:54:26Z</time>
      </trkpt>
      <trkpt lat="44.66286" lon="3.18362">
        <ele>1156.6</ele>
        <time>2022-08-03T07:54:34Z</time>
      </trkpt>
      <trkpt lat="44.66285" lon="3.1836">
        <ele>1156.6</ele>
        <time>2022-08-03T07:54:36Z</time>
      </trkpt>
      <trkpt lat="44.66284" lon="3.18361">
        <ele>1156.8</ele>
        <time>2022-08-03T07:54:39Z</time>
      </trkpt>
      <trkpt lat="44.66278" lon="3.18357">
        <ele>1157.7</ele>
        <time>2022-08-03T07:54:45Z</time>
      </trkpt>
      <trkpt lat="44.66271" lon="3.18354">
        <ele>1158.3</ele>
        <time>2022-08-03T07:54:51Z</time>
      </trkpt>
      <trkpt lat="44.66269" lon="3.18352">
        <ele>1158.5</ele>
        <time>2022-08-03T07:54:53Z</time>
      </trkpt>
      <trkpt lat="44.66261" lon="3.18349">
        <ele>1159.3</ele>
        <time>2022-08-03T07:55:01Z</time>
      </trkpt>
      <trkpt lat="44.66259" lon="3.18348">
        <ele>1159.5</ele>
        <time>2022-08-03T07:55:03Z</time>
      </trkpt>
      <trkpt lat="44.66252" lon="3.18344">
        <ele>1159.9</ele>
        <time>2022-08-03T07:55:10Z</time>
      </trkpt>
      <trkpt lat="44.66249" lon="3.18342">
        <ele>1160</ele>
        <time>2022-08-03T07:55:13Z</time>
      </trkpt>
      <trkpt lat="44.66247" lon="3.18341">
        <ele>1160.1</ele>
        <time>2022-08-03T07:55:15Z</time>
      </trkpt>
      <trkpt lat="44.66241" lon="3.18339">
        <ele>1160.5</ele>
        <time>2022-08-03T07:55:20Z</time>
      </trkpt>
      <trkpt lat="44.66233" lon="3.18336">
        <ele>1161.1</ele>
        <time>2022-08-03T07:55:27Z</time>
      </trkpt>
      <trkpt lat="44.66229" lon="3.18333">
        <ele>1161.2</ele>
        <time>2022-08-03T07:55:31Z</time>
      </trkpt>
      <trkpt lat="44.66228" lon="3.18333">
        <ele>1161.3</ele>
        <time>2022-08-03T07:55:34Z</time>
      </trkpt>
      <trkpt lat="44.66229" lon="3.18334">
        <ele>1161.3</ele>
        <time>2022-08-03T07:55:36Z</time>
      </trkpt>
      <trkpt lat="44.66222" lon="3.18332">
        <ele>1161.9</ele>
        <time>2022-08-03T07:55:42Z</time>
      </trkpt>
      <trkpt lat="44.66218" lon="3.18331">
        <ele>1162</ele>
        <time>2022-08-03T07:55:45Z</time>
      </trkpt>
      <trkpt lat="44.66211" lon="3.18329">
        <ele>1162.3</ele>
        <time>2022-08-03T07:55:51Z</time>
      </trkpt>
      <trkpt lat="44.66201" lon="3.18323">
        <ele>1162.5</ele>
        <time>2022-08-03T07:56:00Z</time>
      </trkpt>
      <trkpt lat="44.6619" lon="3.18318">
        <ele>1162.7</ele>
        <time>2022-08-03T07:56:09Z</time>
      </trkpt>
      <trkpt lat="44.66186" lon="3.18316">
        <ele>1162.8</ele>
        <time>2022-08-03T07:56:13Z</time>
      </trkpt>
      <trkpt lat="44.66181" lon="3.18314">
        <ele>1163.1</ele>
        <time>2022-08-03T07:56:17Z</time>
      </trkpt>
      <trkpt lat="44.66165" lon="3.18304">
        <ele>1164</ele>
        <time>2022-08-03T07:56:32Z</time>
      </trkpt>
      <trkpt lat="44.6615" lon="3.18299">
        <ele>1164.6</ele>
        <time>2022-08-03T07:56:45Z</time>
      </trkpt>
      <trkpt lat="44.66147" lon="3.18298">
        <ele>1164.8</ele>
        <time>2022-08-03T07:56:47Z</time>
      </trkpt>
      <trkpt lat="44.66138" lon="3.18296">
        <ele>1165.3</ele>
        <time>2022-08-03T07:56:55Z</time>
      </trkpt>
      <trkpt lat="44.66129" lon="3.18289">
        <ele>1165.2</ele>
        <time>2022-08-03T07:57:04Z</time>
      </trkpt>
      <trkpt lat="44.66116" lon="3.18286">
        <ele>1165.8</ele>
        <time>2022-08-03T07:57:13Z</time>
      </trkpt>
      <trkpt lat="44.66115" lon="3.18285">
        <ele>1165.8</ele>
        <time>2022-08-03T07:57:14Z</time>
      </trkpt>
      <trkpt lat="44.6611" lon="3.1828">
        <ele>1166</ele>
        <time>2022-08-03T07:57:19Z</time>
      </trkpt>
      <trkpt lat="44.66107" lon="3.18278">
        <ele>1166.1</ele>
        <time>2022-08-03T07:57:22Z</time>
      </trkpt>
      <trkpt lat="44.66102" lon="3.18275">
        <ele>1166.3</ele>
        <time>2022-08-03T07:57:29Z</time>
      </trkpt>
      <trkpt lat="44.66102" lon="3.18275">
        <ele>1166.3</ele>
        <time>2022-08-03T07:57:30Z</time>
      </trkpt>
      <trkpt lat="44.66101" lon="3.18271">
        <ele>1166.4</ele>
        <time>2022-08-03T07:57:40Z</time>
      </trkpt>
      <trkpt lat="44.66091" lon="3.18265">
        <ele>1166.7</ele>
        <time>2022-08-03T07:57:48Z</time>
      </trkpt>
      <trkpt lat="44.6609" lon="3.18264">
        <ele>1166.8</ele>
        <time>2022-08-03T07:57:49Z</time>
      </trkpt>
      <trkpt lat="44.66083" lon="3.18258">
        <ele>1167</ele>
        <time>2022-08-03T07:57:57Z</time>
      </trkpt>
      <trkpt lat="44.66076" lon="3.18253">
        <ele>1167.2</ele>
        <time>2022-08-03T07:58:03Z</time>
      </trkpt>
      <trkpt lat="44.66073" lon="3.18252">
        <ele>1167.4</ele>
        <time>2022-08-03T07:58:06Z</time>
      </trkpt>
      <trkpt lat="44.66072" lon="3.18251">
        <ele>1167.4</ele>
        <time>2022-08-03T07:58:07Z</time>
      </trkpt>
      <trkpt lat="44.66071" lon="3.1825">
        <ele>1167.4</ele>
        <time>2022-08-03T07:58:10Z</time>
      </trkpt>
      <trkpt lat="44.66071" lon="3.1825">
        <ele>1167.4</ele>
        <time>2022-08-03T07:58:11Z</time>
      </trkpt>
      <trkpt lat="44.66071" lon="3.1825">
        <ele>1167.5</ele>
        <time>2022-08-03T07:58:12Z</time>
      </trkpt>
      <trkpt lat="44.66067" lon="3.18247">
        <ele>1167.7</ele>
        <time>2022-08-03T07:58:16Z</time>
      </trkpt>
      <trkpt lat="44.66059" lon="3.18243">
        <ele>1168.3</ele>
        <time>2022-08-03T07:58:23Z</time>
      </trkpt>
      <trkpt lat="44.66054" lon="3.1824">
        <ele>1168.8</ele>
        <time>2022-08-03T07:58:28Z</time>
      </trkpt>
      <trkpt lat="44.66052" lon="3.18238">
        <ele>1168.9</ele>
        <time>2022-08-03T07:58:30Z</time>
      </trkpt>
      <trkpt lat="44.66043" lon="3.18231">
        <ele>1169.5</ele>
        <time>2022-08-03T07:58:38Z</time>
      </trkpt>
      <trkpt lat="44.66038" lon="3.18227">
        <ele>1169.8</ele>
        <time>2022-08-03T07:58:44Z</time>
      </trkpt>
      <trkpt lat="44.66035" lon="3.18225">
        <ele>1169.9</ele>
        <time>2022-08-03T07:58:45Z</time>
      </trkpt>
      <trkpt lat="44.66031" lon="3.18214">
        <ele>1170.9</ele>
        <time>2022-08-03T07:58:53Z</time>
      </trkpt>
      <trkpt lat="44.6603" lon="3.18213">
        <ele>1171</ele>
        <time>2022-08-03T07:58:54Z</time>
      </trkpt>
      <trkpt lat="44.66025" lon="3.18205">
        <ele>1171.9</ele>
        <time>2022-08-03T07:59:01Z</time>
      </trkpt>
      <trkpt lat="44.66023" lon="3.18202">
        <ele>1172.2</ele>
        <time>2022-08-03T07:59:05Z</time>
      </trkpt>
      <trkpt lat="44.66015" lon="3.18193">
        <ele>1173.2</ele>
        <time>2022-08-03T07:59:12Z</time>
      </trkpt>
      <trkpt lat="44.66014" lon="3.18193">
        <ele>1173.2</ele>
        <time>2022-08-03T07:59:13Z</time>
      </trkpt>
      <trkpt lat="44.66012" lon="3.18192">
        <ele>1173.3</ele>
        <time>2022-08-03T07:59:15Z</time>
      </trkpt>
      <trkpt lat="44.66011" lon="3.18192">
        <ele>1173.3</ele>
        <time>2022-08-03T07:59:16Z</time>
      </trkpt>
      <trkpt lat="44.66009" lon="3.1819">
        <ele>1173.6</ele>
        <time>2022-08-03T07:59:20Z</time>
      </trkpt>
      <trkpt lat="44.66007" lon="3.18189">
        <ele>1173.7</ele>
        <time>2022-08-03T07:59:21Z</time>
      </trkpt>
      <trkpt lat="44.66002" lon="3.18189">
        <ele>1173.6</ele>
        <time>2022-08-03T07:59:27Z</time>
      </trkpt>
      <trkpt lat="44.66002" lon="3.18189">
        <ele>1173.6</ele>
        <time>2022-08-03T07:59:30Z</time>
      </trkpt>
      <trkpt lat="44.66002" lon="3.18189">
        <ele>1173.6</ele>
        <time>2022-08-03T07:59:32Z</time>
      </trkpt>
      <trkpt lat="44.66005" lon="3.18191">
        <ele>1173.4</ele>
        <time>2022-08-03T07:59:43Z</time>
      </trkpt>
      <trkpt lat="44.66004" lon="3.18191">
        <ele>1173.4</ele>
        <time>2022-08-03T07:59:44Z</time>
      </trkpt>
      <trkpt lat="44.65994" lon="3.18191">
        <ele>1173.5</ele>
        <time>2022-08-03T07:59:50Z</time>
      </trkpt>
      <trkpt lat="44.65991" lon="3.18188">
        <ele>1173.7</ele>
        <time>2022-08-03T07:59:52Z</time>
      </trkpt>
      <trkpt lat="44.65988" lon="3.18188">
        <ele>1173.8</ele>
        <time>2022-08-03T07:59:56Z</time>
      </trkpt>
      <trkpt lat="44.65978" lon="3.18188">
        <ele>1173.9</ele>
        <time>2022-08-03T08:00:05Z</time>
      </trkpt>
      <trkpt lat="44.65977" lon="3.18187">
        <ele>1174</ele>
        <time>2022-08-03T08:00:06Z</time>
      </trkpt>
      <trkpt lat="44.65976" lon="3.18187">
        <ele>1174</ele>
        <time>2022-08-03T08:00:09Z</time>
      </trkpt>
      <trkpt lat="44.65975" lon="3.18187">
        <ele>1174</ele>
        <time>2022-08-03T08:00:10Z</time>
      </trkpt>
      <trkpt lat="44.65975" lon="3.18188">
        <ele>1173.8</ele>
        <time>2022-08-03T08:00:29Z</time>
      </trkpt>
      <trkpt lat="44.65975" lon="3.18188">
        <ele>1173.8</ele>
        <time>2022-08-03T08:00:31Z</time>
      </trkpt>
      <trkpt lat="44.6597" lon="3.1819">
        <ele>1173.4</ele>
        <time>2022-08-03T08:00:38Z</time>
      </trkpt>
      <trkpt lat="44.65963" lon="3.18194">
        <ele>1172.5</ele>
        <time>2022-08-03T08:00:44Z</time>
      </trkpt>
      <trkpt lat="44.65961" lon="3.18194">
        <ele>1172.2</ele>
        <time>2022-08-03T08:00:46Z</time>
      </trkpt>
      <trkpt lat="44.65954" lon="3.18195">
        <ele>1171.7</ele>
        <time>2022-08-03T08:00:52Z</time>
      </trkpt>
      <trkpt lat="44.65949" lon="3.18192">
        <ele>1171.7</ele>
        <time>2022-08-03T08:00:57Z</time>
      </trkpt>
      <trkpt lat="44.65945" lon="3.18191">
        <ele>1171.7</ele>
        <time>2022-08-03T08:01:00Z</time>
      </trkpt>
      <trkpt lat="44.65938" lon="3.18185">
        <ele>1172.2</ele>
        <time>2022-08-03T08:01:07Z</time>
      </trkpt>
      <trkpt lat="44.65937" lon="3.18184">
        <ele>1172.3</ele>
        <time>2022-08-03T08:01:08Z</time>
      </trkpt>
      <trkpt lat="44.65931" lon="3.18178">
        <ele>1172.5</ele>
        <time>2022-08-03T08:01:14Z</time>
      </trkpt>
      <trkpt lat="44.65925" lon="3.18171">
        <ele>1172.7</ele>
        <time>2022-08-03T08:01:22Z</time>
      </trkpt>
      <trkpt lat="44.65917" lon="3.18168">
        <ele>1172</ele>
        <time>2022-08-03T08:01:29Z</time>
      </trkpt>
      <trkpt lat="44.65907" lon="3.18166">
        <ele>1171.8</ele>
        <time>2022-08-03T08:01:39Z</time>
      </trkpt>
      <trkpt lat="44.65899" lon="3.18165">
        <ele>1171.5</ele>
        <time>2022-08-03T08:01:47Z</time>
      </trkpt>
      <trkpt lat="44.65897" lon="3.18166">
        <ele>1171.4</ele>
        <time>2022-08-03T08:01:50Z</time>
      </trkpt>
      <trkpt lat="44.65895" lon="3.18166">
        <ele>1171.3</ele>
        <time>2022-08-03T08:01:52Z</time>
      </trkpt>
      <trkpt lat="44.65892" lon="3.18165">
        <ele>1171.2</ele>
        <time>2022-08-03T08:01:55Z</time>
      </trkpt>
      <trkpt lat="44.65885" lon="3.18166">
        <ele>1171</ele>
        <time>2022-08-03T08:02:01Z</time>
      </trkpt>
      <trkpt lat="44.65874" lon="3.18171">
        <ele>1170.7</ele>
        <time>2022-08-03T08:02:10Z</time>
      </trkpt>
      <trkpt lat="44.65863" lon="3.18176">
        <ele>1170.6</ele>
        <time>2022-08-03T08:02:18Z</time>
      </trkpt>
      <trkpt lat="44.65853" lon="3.18184">
        <ele>1171.5</ele>
        <time>2022-08-03T08:02:27Z</time>
      </trkpt>
      <trkpt lat="44.65844" lon="3.18193">
        <ele>1172</ele>
        <time>2022-08-03T08:02:37Z</time>
      </trkpt>
      <trkpt lat="44.65835" lon="3.18204">
        <ele>1172.1</ele>
        <time>2022-08-03T08:02:47Z</time>
      </trkpt>
      <trkpt lat="44.6583" lon="3.18209">
        <ele>1172.7</ele>
        <time>2022-08-03T08:02:53Z</time>
      </trkpt>
      <trkpt lat="44.65826" lon="3.18212">
        <ele>1173.3</ele>
        <time>2022-08-03T08:02:58Z</time>
      </trkpt>
      <trkpt lat="44.65819" lon="3.18215">
        <ele>1174.3</ele>
        <time>2022-08-03T08:03:05Z</time>
      </trkpt>
      <trkpt lat="44.65817" lon="3.18217">
        <ele>1174.5</ele>
        <time>2022-08-03T08:03:07Z</time>
      </trkpt>
      <trkpt lat="44.65813" lon="3.18219">
        <ele>1174.9</ele>
        <time>2022-08-03T08:03:12Z</time>
      </trkpt>
      <trkpt lat="44.65813" lon="3.1822">
        <ele>1175</ele>
        <time>2022-08-03T08:03:13Z</time>
      </trkpt>
      <trkpt lat="44.65812" lon="3.18222">
        <ele>1174.9</ele>
        <time>2022-08-03T08:03:15Z</time>
      </trkpt>
      <trkpt lat="44.65811" lon="3.18224">
        <ele>1174.7</ele>
        <time>2022-08-03T08:03:17Z</time>
      </trkpt>
      <trkpt lat="44.65811" lon="3.18226">
        <ele>1174.5</ele>
        <time>2022-08-03T08:03:19Z</time>
      </trkpt>
      <trkpt lat="44.65809" lon="3.18229">
        <ele>1174.3</ele>
        <time>2022-08-03T08:03:22Z</time>
      </trkpt>
      <trkpt lat="44.65799" lon="3.1824">
        <ele>1175.3</ele>
        <time>2022-08-03T08:03:31Z</time>
      </trkpt>
      <trkpt lat="44.65798" lon="3.18239">
        <ele>1175.7</ele>
        <time>2022-08-03T08:03:32Z</time>
      </trkpt>
      <trkpt lat="44.65798" lon="3.18239">
        <ele>1175.8</ele>
        <time>2022-08-03T08:03:33Z</time>
      </trkpt>
      <trkpt lat="44.65798" lon="3.18238">
        <ele>1175.9</ele>
        <time>2022-08-03T08:03:35Z</time>
      </trkpt>
      <trkpt lat="44.65795" lon="3.18244">
        <ele>1176.1</ele>
        <time>2022-08-03T08:03:41Z</time>
      </trkpt>
      <trkpt lat="44.65786" lon="3.18252">
        <ele>1177.4</ele>
        <time>2022-08-03T08:03:51Z</time>
      </trkpt>
      <trkpt lat="44.65787" lon="3.18251">
        <ele>1177.5</ele>
        <time>2022-08-03T08:03:52Z</time>
      </trkpt>
      <trkpt lat="44.65787" lon="3.1825">
        <ele>1177.9</ele>
        <time>2022-08-03T08:03:53Z</time>
      </trkpt>
      <trkpt lat="44.65786" lon="3.18249">
        <ele>1178.5</ele>
        <time>2022-08-03T08:04:00Z</time>
      </trkpt>
      <trkpt lat="44.65781" lon="3.18255">
        <ele>1178.6</ele>
        <time>2022-08-03T08:04:14Z</time>
      </trkpt>
      <trkpt lat="44.65773" lon="3.18267">
        <ele>1177.6</ele>
        <time>2022-08-03T08:04:23Z</time>
      </trkpt>
      <trkpt lat="44.65764" lon="3.18273">
        <ele>1177.4</ele>
        <time>2022-08-03T08:04:31Z</time>
      </trkpt>
      <trkpt lat="44.65756" lon="3.18275">
        <ele>1178.1</ele>
        <time>2022-08-03T08:04:38Z</time>
      </trkpt>
      <trkpt lat="44.65752" lon="3.18276">
        <ele>1178.5</ele>
        <time>2022-08-03T08:04:41Z</time>
      </trkpt>
      <trkpt lat="44.65744" lon="3.18273">
        <ele>1179.1</ele>
        <time>2022-08-03T08:04:48Z</time>
      </trkpt>
      <trkpt lat="44.65743" lon="3.18273">
        <ele>1179</ele>
        <time>2022-08-03T08:04:49Z</time>
      </trkpt>
      <trkpt lat="44.65735" lon="3.18271">
        <ele>1179.1</ele>
        <time>2022-08-03T08:04:56Z</time>
      </trkpt>
      <trkpt lat="44.65724" lon="3.18269">
        <ele>1179.2</ele>
        <time>2022-08-03T08:05:05Z</time>
      </trkpt>
      <trkpt lat="44.65716" lon="3.18267">
        <ele>1180.4</ele>
        <time>2022-08-03T08:05:12Z</time>
      </trkpt>
      <trkpt lat="44.65714" lon="3.18266">
        <ele>1180.6</ele>
        <time>2022-08-03T08:05:13Z</time>
      </trkpt>
      <trkpt lat="44.65713" lon="3.18265">
        <ele>1181</ele>
        <time>2022-08-03T08:05:14Z</time>
      </trkpt>
      <trkpt lat="44.65712" lon="3.18265">
        <ele>1181.1</ele>
        <time>2022-08-03T08:05:15Z</time>
      </trkpt>
      <trkpt lat="44.65709" lon="3.18264">
        <ele>1181.7</ele>
        <time>2022-08-03T08:05:18Z</time>
      </trkpt>
      <trkpt lat="44.65701" lon="3.18263">
        <ele>1182.4</ele>
        <time>2022-08-03T08:05:27Z</time>
      </trkpt>
      <trkpt lat="44.65697" lon="3.18263">
        <ele>1182.8</ele>
        <time>2022-08-03T08:05:29Z</time>
      </trkpt>
      <trkpt lat="44.6569" lon="3.18265">
        <ele>1182.3</ele>
        <time>2022-08-03T08:05:36Z</time>
      </trkpt>
      <trkpt lat="44.65685" lon="3.18266">
        <ele>1182.2</ele>
        <time>2022-08-03T08:05:40Z</time>
      </trkpt>
      <trkpt lat="44.65679" lon="3.18266">
        <ele>1182.2</ele>
        <time>2022-08-03T08:05:44Z</time>
      </trkpt>
      <trkpt lat="44.6567" lon="3.18265">
        <ele>1182.9</ele>
        <time>2022-08-03T08:05:54Z</time>
      </trkpt>
      <trkpt lat="44.65668" lon="3.18265">
        <ele>1183.1</ele>
        <time>2022-08-03T08:05:55Z</time>
      </trkpt>
      <trkpt lat="44.65668" lon="3.18265">
        <ele>1183.2</ele>
        <time>2022-08-03T08:05:57Z</time>
      </trkpt>
      <trkpt lat="44.65668" lon="3.18265">
        <ele>1182.9</ele>
        <time>2022-08-03T08:06:00Z</time>
      </trkpt>
      <trkpt lat="44.65668" lon="3.18266">
        <ele>1182.7</ele>
        <time>2022-08-03T08:06:01Z</time>
      </trkpt>
      <trkpt lat="44.65663" lon="3.18266">
        <ele>1182.4</ele>
        <time>2022-08-03T08:06:10Z</time>
      </trkpt>
      <trkpt lat="44.6566" lon="3.18265">
        <ele>1182.6</ele>
        <time>2022-08-03T08:06:16Z</time>
      </trkpt>
      <trkpt lat="44.65654" lon="3.18264">
        <ele>1182.7</ele>
        <time>2022-08-03T08:06:24Z</time>
      </trkpt>
      <trkpt lat="44.65647" lon="3.1826">
        <ele>1183.6</ele>
        <time>2022-08-03T08:06:31Z</time>
      </trkpt>
      <trkpt lat="44.65636" lon="3.18258">
        <ele>1183.9</ele>
        <time>2022-08-03T08:06:40Z</time>
      </trkpt>
      <trkpt lat="44.65634" lon="3.18258">
        <ele>1183.5</ele>
        <time>2022-08-03T08:06:42Z</time>
      </trkpt>
      <trkpt lat="44.65633" lon="3.18258">
        <ele>1183.6</ele>
        <time>2022-08-03T08:06:43Z</time>
      </trkpt>
      <trkpt lat="44.65627" lon="3.18256">
        <ele>1183.9</ele>
        <time>2022-08-03T08:06:49Z</time>
      </trkpt>
      <trkpt lat="44.65626" lon="3.18255">
        <ele>1184.1</ele>
        <time>2022-08-03T08:06:50Z</time>
      </trkpt>
      <trkpt lat="44.65621" lon="3.18253">
        <ele>1184.5</ele>
        <time>2022-08-03T08:06:56Z</time>
      </trkpt>
      <trkpt lat="44.6561" lon="3.18252">
        <ele>1184.3</ele>
        <time>2022-08-03T08:07:05Z</time>
      </trkpt>
      <trkpt lat="44.65606" lon="3.18251">
        <ele>1184.2</ele>
        <time>2022-08-03T08:07:09Z</time>
      </trkpt>
      <trkpt lat="44.65602" lon="3.1825">
        <ele>1184.5</ele>
        <time>2022-08-03T08:07:13Z</time>
      </trkpt>
      <trkpt lat="44.65589" lon="3.18249">
        <ele>1183.7</ele>
        <time>2022-08-03T08:07:23Z</time>
      </trkpt>
      <trkpt lat="44.65587" lon="3.18247">
        <ele>1184.3</ele>
        <time>2022-08-03T08:07:27Z</time>
      </trkpt>
      <trkpt lat="44.65585" lon="3.18247">
        <ele>1183.9</ele>
        <time>2022-08-03T08:07:29Z</time>
      </trkpt>
      <trkpt lat="44.65584" lon="3.18248">
        <ele>1183.8</ele>
        <time>2022-08-03T08:07:30Z</time>
      </trkpt>
      <trkpt lat="44.65575" lon="3.18247">
        <ele>1183.9</ele>
        <time>2022-08-03T08:07:37Z</time>
      </trkpt>
      <trkpt lat="44.65572" lon="3.18246">
        <ele>1184.4</ele>
        <time>2022-08-03T08:07:40Z</time>
      </trkpt>
      <trkpt lat="44.65566" lon="3.18246">
        <ele>1184.2</ele>
        <time>2022-08-03T08:07:45Z</time>
      </trkpt>
      <trkpt lat="44.65561" lon="3.18246">
        <ele>1184.3</ele>
        <time>2022-08-03T08:07:49Z</time>
      </trkpt>
      <trkpt lat="44.65553" lon="3.18244">
        <ele>1184.7</ele>
        <time>2022-08-03T08:07:57Z</time>
      </trkpt>
      <trkpt lat="44.65544" lon="3.18246">
        <ele>1184.2</ele>
        <time>2022-08-03T08:08:04Z</time>
      </trkpt>
      <trkpt lat="44.65534" lon="3.18246">
        <ele>1184</ele>
        <time>2022-08-03T08:08:12Z</time>
      </trkpt>
      <trkpt lat="44.65519" lon="3.18244">
        <ele>1184.2</ele>
        <time>2022-08-03T08:08:24Z</time>
      </trkpt>
      <trkpt lat="44.65507" lon="3.18244">
        <ele>1183.9</ele>
        <time>2022-08-03T08:08:34Z</time>
      </trkpt>
      <trkpt lat="44.65493" lon="3.18242">
        <ele>1184.9</ele>
        <time>2022-08-03T08:08:45Z</time>
      </trkpt>
      <trkpt lat="44.65484" lon="3.18244">
        <ele>1186.2</ele>
        <time>2022-08-03T08:08:55Z</time>
      </trkpt>
      <trkpt lat="44.65474" lon="3.18244">
        <ele>1187.6</ele>
        <time>2022-08-03T08:09:03Z</time>
      </trkpt>
      <trkpt lat="44.65474" lon="3.18244">
        <ele>1187.6</ele>
        <time>2022-08-03T08:09:04Z</time>
      </trkpt>
      <trkpt lat="44.65467" lon="3.18248">
        <ele>1187.9</ele>
        <time>2022-08-03T08:09:10Z</time>
      </trkpt>
      <trkpt lat="44.65466" lon="3.18247">
        <ele>1188.1</ele>
        <time>2022-08-03T08:09:12Z</time>
      </trkpt>
      <trkpt lat="44.65459" lon="3.1825">
        <ele>1188.4</ele>
        <time>2022-08-03T08:09:19Z</time>
      </trkpt>
      <trkpt lat="44.65456" lon="3.18249">
        <ele>1188.9</ele>
        <time>2022-08-03T08:09:23Z</time>
      </trkpt>
      <trkpt lat="44.65451" lon="3.18246">
        <ele>1189.9</ele>
        <time>2022-08-03T08:09:29Z</time>
      </trkpt>
      <trkpt lat="44.65448" lon="3.18246">
        <ele>1190.2</ele>
        <time>2022-08-03T08:09:32Z</time>
      </trkpt>
      <trkpt lat="44.65447" lon="3.18246">
        <ele>1190.4</ele>
        <time>2022-08-03T08:09:33Z</time>
      </trkpt>
      <trkpt lat="44.65439" lon="3.18248">
        <ele>1191.2</ele>
        <time>2022-08-03T08:09:37Z</time>
      </trkpt>
      <trkpt lat="44.65438" lon="3.18249">
        <ele>1191.2</ele>
        <time>2022-08-03T08:09:38Z</time>
      </trkpt>
      <trkpt lat="44.65436" lon="3.18249">
        <ele>1191.3</ele>
        <time>2022-08-03T08:09:39Z</time>
      </trkpt>
      <trkpt lat="44.65428" lon="3.18249">
        <ele>1192.5</ele>
        <time>2022-08-03T08:09:46Z</time>
      </trkpt>
      <trkpt lat="44.65428" lon="3.18249">
        <ele>1192.6</ele>
        <time>2022-08-03T08:09:47Z</time>
      </trkpt>
      <trkpt lat="44.65426" lon="3.18249">
        <ele>1192.9</ele>
        <time>2022-08-03T08:09:49Z</time>
      </trkpt>
      <trkpt lat="44.6542" lon="3.18248">
        <ele>1193.9</ele>
        <time>2022-08-03T08:09:55Z</time>
      </trkpt>
      <trkpt lat="44.65419" lon="3.18248">
        <ele>1194</ele>
        <time>2022-08-03T08:09:56Z</time>
      </trkpt>
      <trkpt lat="44.65411" lon="3.18247">
        <ele>1194.9</ele>
        <time>2022-08-03T08:10:03Z</time>
      </trkpt>
      <trkpt lat="44.65411" lon="3.18247">
        <ele>1194.9</ele>
        <time>2022-08-03T08:10:04Z</time>
      </trkpt>
      <trkpt lat="44.6541" lon="3.18247">
        <ele>1194.9</ele>
        <time>2022-08-03T08:10:05Z</time>
      </trkpt>
      <trkpt lat="44.65409" lon="3.18245">
        <ele>1195.2</ele>
        <time>2022-08-03T08:10:10Z</time>
      </trkpt>
      <trkpt lat="44.65409" lon="3.18245">
        <ele>1195.3</ele>
        <time>2022-08-03T08:10:12Z</time>
      </trkpt>
      <trkpt lat="44.65409" lon="3.18245">
        <ele>1195.4</ele>
        <time>2022-08-03T08:10:13Z</time>
      </trkpt>
      <trkpt lat="44.65409" lon="3.18243">
        <ele>1195.6</ele>
        <time>2022-08-03T08:10:17Z</time>
      </trkpt>
      <trkpt lat="44.65409" lon="3.18243">
        <ele>1195.6</ele>
        <time>2022-08-03T08:10:19Z</time>
      </trkpt>
      <trkpt lat="44.65407" lon="3.18241">
        <ele>1196</ele>
        <time>2022-08-03T08:10:26Z</time>
      </trkpt>
      <trkpt lat="44.65401" lon="3.18246">
        <ele>1195.7</ele>
        <time>2022-08-03T08:10:32Z</time>
      </trkpt>
      <trkpt lat="44.65398" lon="3.18246">
        <ele>1195.9</ele>
        <time>2022-08-03T08:10:34Z</time>
      </trkpt>
      <trkpt lat="44.65399" lon="3.18245">
        <ele>1196.1</ele>
        <time>2022-08-03T08:10:38Z</time>
      </trkpt>
      <trkpt lat="44.654" lon="3.18241">
        <ele>1196.5</ele>
        <time>2022-08-03T08:10:52Z</time>
      </trkpt>
      <trkpt lat="44.65399" lon="3.18241">
        <ele>1196.6</ele>
        <time>2022-08-03T08:10:56Z</time>
      </trkpt>
      <trkpt lat="44.65397" lon="3.18242">
        <ele>1196.6</ele>
        <time>2022-08-03T08:10:58Z</time>
      </trkpt>
      <trkpt lat="44.65386" lon="3.18243">
        <ele>1197</ele>
        <time>2022-08-03T08:11:06Z</time>
      </trkpt>
      <trkpt lat="44.65379" lon="3.18242">
        <ele>1197.2</ele>
        <time>2022-08-03T08:11:11Z</time>
      </trkpt>
      <trkpt lat="44.65377" lon="3.18245">
        <ele>1196.9</ele>
        <time>2022-08-03T08:11:13Z</time>
      </trkpt>
      <trkpt lat="44.65371" lon="3.18246">
        <ele>1196.6</ele>
        <time>2022-08-03T08:11:16Z</time>
      </trkpt>
      <trkpt lat="44.65364" lon="3.1825">
        <ele>1196.1</ele>
        <time>2022-08-03T08:11:21Z</time>
      </trkpt>
      <trkpt lat="44.65363" lon="3.18251">
        <ele>1195.9</ele>
        <time>2022-08-03T08:11:22Z</time>
      </trkpt>
      <trkpt lat="44.65361" lon="3.18251">
        <ele>1195.9</ele>
        <time>2022-08-03T08:11:23Z</time>
      </trkpt>
      <trkpt lat="44.65355" lon="3.18249">
        <ele>1196.6</ele>
        <time>2022-08-03T08:11:28Z</time>
      </trkpt>
      <trkpt lat="44.65354" lon="3.1825">
        <ele>1196.5</ele>
        <time>2022-08-03T08:11:29Z</time>
      </trkpt>
      <trkpt lat="44.65349" lon="3.18248">
        <ele>1197.2</ele>
        <time>2022-08-03T08:11:33Z</time>
      </trkpt>
      <trkpt lat="44.65348" lon="3.18248">
        <ele>1197.4</ele>
        <time>2022-08-03T08:11:34Z</time>
      </trkpt>
      <trkpt lat="44.65339" lon="3.18248">
        <ele>1197.9</ele>
        <time>2022-08-03T08:11:40Z</time>
      </trkpt>
      <trkpt lat="44.65336" lon="3.18248">
        <ele>1198.2</ele>
        <time>2022-08-03T08:11:43Z</time>
      </trkpt>
      <trkpt lat="44.65334" lon="3.18247">
        <ele>1198.6</ele>
        <time>2022-08-03T08:11:46Z</time>
      </trkpt>
      <trkpt lat="44.65336" lon="3.18246">
        <ele>1198.6</ele>
        <time>2022-08-03T08:11:49Z</time>
      </trkpt>
      <trkpt lat="44.65336" lon="3.18245">
        <ele>1198.7</ele>
        <time>2022-08-03T08:11:50Z</time>
      </trkpt>
      <trkpt lat="44.65339" lon="3.18245">
        <ele>1198.5</ele>
        <time>2022-08-03T08:11:53Z</time>
      </trkpt>
      <trkpt lat="44.6534" lon="3.18245">
        <ele>1198.4</ele>
        <time>2022-08-03T08:11:56Z</time>
      </trkpt>
      <trkpt lat="44.6534" lon="3.18245">
        <ele>1198.4</ele>
        <time>2022-08-03T08:11:58Z</time>
      </trkpt>
      <trkpt lat="44.65336" lon="3.18244">
        <ele>1198.9</ele>
        <time>2022-08-03T08:12:17Z</time>
      </trkpt>
      <trkpt lat="44.65329" lon="3.18243">
        <ele>1199.6</ele>
        <time>2022-08-03T08:12:24Z</time>
      </trkpt>
      <trkpt lat="44.65321" lon="3.18245">
        <ele>1199.6</ele>
        <time>2022-08-03T08:12:31Z</time>
      </trkpt>
      <trkpt lat="44.65313" lon="3.18243">
        <ele>1200.3</ele>
        <time>2022-08-03T08:12:39Z</time>
      </trkpt>
      <trkpt lat="44.65302" lon="3.1824">
        <ele>1200.6</ele>
        <time>2022-08-03T08:12:48Z</time>
      </trkpt>
      <trkpt lat="44.65295" lon="3.18237">
        <ele>1200.1</ele>
        <time>2022-08-03T08:12:55Z</time>
      </trkpt>
      <trkpt lat="44.65291" lon="3.18235">
        <ele>1199.9</ele>
        <time>2022-08-03T08:12:57Z</time>
      </trkpt>
      <trkpt lat="44.65279" lon="3.18225">
        <ele>1199.7</ele>
        <time>2022-08-03T08:13:08Z</time>
      </trkpt>
      <trkpt lat="44.65271" lon="3.18217">
        <ele>1200</ele>
        <time>2022-08-03T08:13:16Z</time>
      </trkpt>
      <trkpt lat="44.65259" lon="3.18209">
        <ele>1199.9</ele>
        <time>2022-08-03T08:13:27Z</time>
      </trkpt>
      <trkpt lat="44.65251" lon="3.182">
        <ele>1200.1</ele>
        <time>2022-08-03T08:13:36Z</time>
      </trkpt>
      <trkpt lat="44.6525" lon="3.18199">
        <ele>1200</ele>
        <time>2022-08-03T08:13:37Z</time>
      </trkpt>
      <trkpt lat="44.65243" lon="3.18194">
        <ele>1199.8</ele>
        <time>2022-08-03T08:13:43Z</time>
      </trkpt>
      <trkpt lat="44.65232" lon="3.18185">
        <ele>1199.4</ele>
        <time>2022-08-03T08:13:54Z</time>
      </trkpt>
      <trkpt lat="44.65222" lon="3.18173">
        <ele>1199.1</ele>
        <time>2022-08-03T08:14:04Z</time>
      </trkpt>
      <trkpt lat="44.65221" lon="3.18171">
        <ele>1199.2</ele>
        <time>2022-08-03T08:14:05Z</time>
      </trkpt>
      <trkpt lat="44.65216" lon="3.18161">
        <ele>1200</ele>
        <time>2022-08-03T08:14:13Z</time>
      </trkpt>
      <trkpt lat="44.65209" lon="3.18151">
        <ele>1200.3</ele>
        <time>2022-08-03T08:14:22Z</time>
      </trkpt>
      <trkpt lat="44.65202" lon="3.1814">
        <ele>1200</ele>
        <time>2022-08-03T08:14:30Z</time>
      </trkpt>
      <trkpt lat="44.65196" lon="3.18131">
        <ele>1199.6</ele>
        <time>2022-08-03T08:14:36Z</time>
      </trkpt>
      <trkpt lat="44.65194" lon="3.18126">
        <ele>1199.8</ele>
        <time>2022-08-03T08:14:39Z</time>
      </trkpt>
      <trkpt lat="44.65188" lon="3.18112">
        <ele>1200.4</ele>
        <time>2022-08-03T08:14:49Z</time>
      </trkpt>
      <trkpt lat="44.65181" lon="3.18098">
        <ele>1201</ele>
        <time>2022-08-03T08:14:59Z</time>
      </trkpt>
      <trkpt lat="44.65176" lon="3.18088">
        <ele>1201.2</ele>
        <time>2022-08-03T08:15:06Z</time>
      </trkpt>
      <trkpt lat="44.65171" lon="3.18077">
        <ele>1201.1</ele>
        <time>2022-08-03T08:15:14Z</time>
      </trkpt>
      <trkpt lat="44.65172" lon="3.18075">
        <ele>1201.4</ele>
        <time>2022-08-03T08:15:15Z</time>
      </trkpt>
      <trkpt lat="44.65172" lon="3.18075">
        <ele>1201.6</ele>
        <time>2022-08-03T08:15:18Z</time>
      </trkpt>
      <trkpt lat="44.65172" lon="3.18075">
        <ele>1201.6</ele>
        <time>2022-08-03T08:15:20Z</time>
      </trkpt>
      <trkpt lat="44.65169" lon="3.18074">
        <ele>1200.7</ele>
        <time>2022-08-03T08:15:26Z</time>
      </trkpt>
      <trkpt lat="44.65166" lon="3.18067">
        <ele>1200.8</ele>
        <time>2022-08-03T08:15:36Z</time>
      </trkpt>
      <trkpt lat="44.6516" lon="3.1805">
        <ele>1201.2</ele>
        <time>2022-08-03T08:15:45Z</time>
      </trkpt>
      <trkpt lat="44.65154" lon="3.18037">
        <ele>1201.1</ele>
        <time>2022-08-03T08:15:54Z</time>
      </trkpt>
      <trkpt lat="44.65149" lon="3.18023">
        <ele>1200.8</ele>
        <time>2022-08-03T08:16:03Z</time>
      </trkpt>
      <trkpt lat="44.65142" lon="3.18005">
        <ele>1200.3</ele>
        <time>2022-08-03T08:16:15Z</time>
      </trkpt>
      <trkpt lat="44.65132" lon="3.18002">
        <ele>1199.5</ele>
        <time>2022-08-03T08:16:24Z</time>
      </trkpt>
      <trkpt lat="44.65131" lon="3.1801">
        <ele>1198.9</ele>
        <time>2022-08-03T08:16:29Z</time>
      </trkpt>
      <trkpt lat="44.6513" lon="3.18014">
        <ele>1198.7</ele>
        <time>2022-08-03T08:16:31Z</time>
      </trkpt>
      <trkpt lat="44.65128" lon="3.18018">
        <ele>1198.4</ele>
        <time>2022-08-03T08:16:36Z</time>
      </trkpt>
      <trkpt lat="44.65129" lon="3.18017">
        <ele>1198.5</ele>
        <time>2022-08-03T08:16:38Z</time>
      </trkpt>
      <trkpt lat="44.65129" lon="3.18017">
        <ele>1198.5</ele>
        <time>2022-08-03T08:16:39Z</time>
      </trkpt>
      <trkpt lat="44.65129" lon="3.18018">
        <ele>1198.4</ele>
        <time>2022-08-03T08:16:41Z</time>
      </trkpt>
      <trkpt lat="44.65127" lon="3.1802">
        <ele>1198.3</ele>
        <time>2022-08-03T08:16:45Z</time>
      </trkpt>
      <trkpt lat="44.65127" lon="3.1802">
        <ele>1198.3</ele>
        <time>2022-08-03T08:17:07Z</time>
      </trkpt>
      <trkpt lat="44.65127" lon="3.1802">
        <ele>1198.3</ele>
        <time>2022-08-03T08:17:10Z</time>
      </trkpt>
      <trkpt lat="44.65126" lon="3.18022">
        <ele>1198.2</ele>
        <time>2022-08-03T08:18:03Z</time>
      </trkpt>
      <trkpt lat="44.65128" lon="3.18029">
        <ele>1198</ele>
        <time>2022-08-03T08:18:11Z</time>
      </trkpt>
      <trkpt lat="44.65131" lon="3.18049">
        <ele>1197.5</ele>
        <time>2022-08-03T08:18:19Z</time>
      </trkpt>
      <trkpt lat="44.65131" lon="3.18058">
        <ele>1197.3</ele>
        <time>2022-08-03T08:18:25Z</time>
      </trkpt>
      <trkpt lat="44.65129" lon="3.1807">
        <ele>1197.4</ele>
        <time>2022-08-03T08:18:33Z</time>
      </trkpt>
      <trkpt lat="44.65129" lon="3.18076">
        <ele>1197.4</ele>
        <time>2022-08-03T08:18:37Z</time>
      </trkpt>
      <trkpt lat="44.65128" lon="3.18085">
        <ele>1197.4</ele>
        <time>2022-08-03T08:18:43Z</time>
      </trkpt>
      <trkpt lat="44.65125" lon="3.18101">
        <ele>1197.2</ele>
        <time>2022-08-03T08:18:53Z</time>
      </trkpt>
      <trkpt lat="44.65121" lon="3.18113">
        <ele>1197.3</ele>
        <time>2022-08-03T08:19:02Z</time>
      </trkpt>
      <trkpt lat="44.65119" lon="3.18117">
        <ele>1197.4</ele>
        <time>2022-08-03T08:19:08Z</time>
      </trkpt>
      <trkpt lat="44.65117" lon="3.18119">
        <ele>1197.6</ele>
        <time>2022-08-03T08:19:13Z</time>
      </trkpt>
      <trkpt lat="44.65116" lon="3.18121">
        <ele>1197.7</ele>
        <time>2022-08-03T08:19:19Z</time>
      </trkpt>
      <trkpt lat="44.65117" lon="3.18123">
        <ele>1197.6</ele>
        <time>2022-08-03T08:19:33Z</time>
      </trkpt>
      <trkpt lat="44.65119" lon="3.18137">
        <ele>1197.5</ele>
        <time>2022-08-03T08:19:40Z</time>
      </trkpt>
      <trkpt lat="44.65118" lon="3.1814">
        <ele>1197.5</ele>
        <time>2022-08-03T08:19:42Z</time>
      </trkpt>
      <trkpt lat="44.65119" lon="3.18151">
        <ele>1197.5</ele>
        <time>2022-08-03T08:19:49Z</time>
      </trkpt>
      <trkpt lat="44.6512" lon="3.18155">
        <ele>1197.4</ele>
        <time>2022-08-03T08:19:51Z</time>
      </trkpt>
      <trkpt lat="44.65123" lon="3.18162">
        <ele>1197.1</ele>
        <time>2022-08-03T08:19:55Z</time>
      </trkpt>
      <trkpt lat="44.65125" lon="3.18168">
        <ele>1197</ele>
        <time>2022-08-03T08:19:58Z</time>
      </trkpt>
      <trkpt lat="44.65127" lon="3.18174">
        <ele>1197.2</ele>
        <time>2022-08-03T08:20:02Z</time>
      </trkpt>
      <trkpt lat="44.65129" lon="3.18178">
        <ele>1197.2</ele>
        <time>2022-08-03T08:20:04Z</time>
      </trkpt>
      <trkpt lat="44.6513" lon="3.18182">
        <ele>1197.2</ele>
        <time>2022-08-03T08:20:07Z</time>
      </trkpt>
      <trkpt lat="44.65131" lon="3.18186">
        <ele>1197.1</ele>
        <time>2022-08-03T08:20:09Z</time>
      </trkpt>
      <trkpt lat="44.65132" lon="3.18188">
        <ele>1197.1</ele>
        <time>2022-08-03T08:20:10Z</time>
      </trkpt>
      <trkpt lat="44.65134" lon="3.18194">
        <ele>1196.8</ele>
        <time>2022-08-03T08:20:15Z</time>
      </trkpt>
      <trkpt lat="44.65135" lon="3.18197">
        <ele>1196.7</ele>
        <time>2022-08-03T08:20:17Z</time>
      </trkpt>
      <trkpt lat="44.65137" lon="3.182">
        <ele>1196.6</ele>
        <time>2022-08-03T08:20:19Z</time>
      </trkpt>
      <trkpt lat="44.65137" lon="3.18203">
        <ele>1196.7</ele>
        <time>2022-08-03T08:20:21Z</time>
      </trkpt>
      <trkpt lat="44.65141" lon="3.18216">
        <ele>1196.6</ele>
        <time>2022-08-03T08:20:30Z</time>
      </trkpt>
      <trkpt lat="44.65141" lon="3.18218">
        <ele>1196.7</ele>
        <time>2022-08-03T08:20:31Z</time>
      </trkpt>
      <trkpt lat="44.65141" lon="3.1822">
        <ele>1196.8</ele>
        <time>2022-08-03T08:20:33Z</time>
      </trkpt>
      <trkpt lat="44.65141" lon="3.18224">
        <ele>1197</ele>
        <time>2022-08-03T08:20:35Z</time>
      </trkpt>
      <trkpt lat="44.65141" lon="3.18225">
        <ele>1197</ele>
        <time>2022-08-03T08:20:36Z</time>
      </trkpt>
      <trkpt lat="44.65142" lon="3.18226">
        <ele>1197.1</ele>
        <time>2022-08-03T08:20:37Z</time>
      </trkpt>
      <trkpt lat="44.65143" lon="3.18232">
        <ele>1197.4</ele>
        <time>2022-08-03T08:20:41Z</time>
      </trkpt>
      <trkpt lat="44.65146" lon="3.18241">
        <ele>1197.7</ele>
        <time>2022-08-03T08:20:47Z</time>
      </trkpt>
      <trkpt lat="44.65147" lon="3.18243">
        <ele>1197.7</ele>
        <time>2022-08-03T08:20:49Z</time>
      </trkpt>
      <trkpt lat="44.65147" lon="3.18249">
        <ele>1198</ele>
        <time>2022-08-03T08:20:53Z</time>
      </trkpt>
      <trkpt lat="44.65147" lon="3.18253">
        <ele>1198.2</ele>
        <time>2022-08-03T08:20:56Z</time>
      </trkpt>
      <trkpt lat="44.65149" lon="3.18267">
        <ele>1198.3</ele>
        <time>2022-08-03T08:21:05Z</time>
      </trkpt>
      <trkpt lat="44.65149" lon="3.18269">
        <ele>1198.4</ele>
        <time>2022-08-03T08:21:06Z</time>
      </trkpt>
      <trkpt lat="44.6515" lon="3.18273">
        <ele>1198.3</ele>
        <time>2022-08-03T08:21:09Z</time>
      </trkpt>
      <trkpt lat="44.65152" lon="3.18277">
        <ele>1198.1</ele>
        <time>2022-08-03T08:21:12Z</time>
      </trkpt>
      <trkpt lat="44.65154" lon="3.18286">
        <ele>1198.2</ele>
        <time>2022-08-03T08:21:19Z</time>
      </trkpt>
      <trkpt lat="44.65153" lon="3.18287">
        <ele>1198.3</ele>
        <time>2022-08-03T08:21:20Z</time>
      </trkpt>
      <trkpt lat="44.65154" lon="3.18291">
        <ele>1198.4</ele>
        <time>2022-08-03T08:21:23Z</time>
      </trkpt>
      <trkpt lat="44.65153" lon="3.18292">
        <ele>1198.5</ele>
        <time>2022-08-03T08:21:24Z</time>
      </trkpt>
      <trkpt lat="44.65153" lon="3.183">
        <ele>1198.8</ele>
        <time>2022-08-03T08:21:30Z</time>
      </trkpt>
      <trkpt lat="44.65155" lon="3.18312">
        <ele>1198.7</ele>
        <time>2022-08-03T08:21:36Z</time>
      </trkpt>
      <trkpt lat="44.65155" lon="3.18315">
        <ele>1198.8</ele>
        <time>2022-08-03T08:21:37Z</time>
      </trkpt>
      <trkpt lat="44.65153" lon="3.18321">
        <ele>1198.9</ele>
        <time>2022-08-03T08:21:41Z</time>
      </trkpt>
      <trkpt lat="44.65152" lon="3.1833">
        <ele>1199.1</ele>
        <time>2022-08-03T08:21:46Z</time>
      </trkpt>
      <trkpt lat="44.65151" lon="3.18334">
        <ele>1199.2</ele>
        <time>2022-08-03T08:21:48Z</time>
      </trkpt>
      <trkpt lat="44.65153" lon="3.18351">
        <ele>1198.7</ele>
        <time>2022-08-03T08:21:59Z</time>
      </trkpt>
      <trkpt lat="44.65152" lon="3.18354">
        <ele>1198.7</ele>
        <time>2022-08-03T08:22:01Z</time>
      </trkpt>
      <trkpt lat="44.65152" lon="3.18358">
        <ele>1198.6</ele>
        <time>2022-08-03T08:22:04Z</time>
      </trkpt>
      <trkpt lat="44.65151" lon="3.18363">
        <ele>1198.7</ele>
        <time>2022-08-03T08:22:07Z</time>
      </trkpt>
      <trkpt lat="44.6515" lon="3.18369">
        <ele>1198.9</ele>
        <time>2022-08-03T08:22:11Z</time>
      </trkpt>
      <trkpt lat="44.65152" lon="3.18373">
        <ele>1198.8</ele>
        <time>2022-08-03T08:22:13Z</time>
      </trkpt>
      <trkpt lat="44.65152" lon="3.18375">
        <ele>1198.8</ele>
        <time>2022-08-03T08:22:14Z</time>
      </trkpt>
      <trkpt lat="44.65153" lon="3.18379">
        <ele>1198.8</ele>
        <time>2022-08-03T08:22:18Z</time>
      </trkpt>
      <trkpt lat="44.65153" lon="3.18381">
        <ele>1198.8</ele>
        <time>2022-08-03T08:22:19Z</time>
      </trkpt>
      <trkpt lat="44.65154" lon="3.18385">
        <ele>1198.8</ele>
        <time>2022-08-03T08:22:21Z</time>
      </trkpt>
      <trkpt lat="44.65154" lon="3.1839">
        <ele>1198.9</ele>
        <time>2022-08-03T08:22:24Z</time>
      </trkpt>
      <trkpt lat="44.65153" lon="3.18394">
        <ele>1199</ele>
        <time>2022-08-03T08:22:27Z</time>
      </trkpt>
      <trkpt lat="44.65153" lon="3.18396">
        <ele>1199</ele>
        <time>2022-08-03T08:22:30Z</time>
      </trkpt>
      <trkpt lat="44.65157" lon="3.18411">
        <ele>1198.7</ele>
        <time>2022-08-03T08:22:38Z</time>
      </trkpt>
      <trkpt lat="44.65157" lon="3.18413">
        <ele>1198.7</ele>
        <time>2022-08-03T08:22:39Z</time>
      </trkpt>
      <trkpt lat="44.65157" lon="3.18417">
        <ele>1198.7</ele>
        <time>2022-08-03T08:22:43Z</time>
      </trkpt>
      <trkpt lat="44.65158" lon="3.1842">
        <ele>1198.7</ele>
        <time>2022-08-03T08:22:45Z</time>
      </trkpt>
      <trkpt lat="44.65159" lon="3.18425">
        <ele>1198.5</ele>
        <time>2022-08-03T08:22:48Z</time>
      </trkpt>
      <trkpt lat="44.65162" lon="3.18434">
        <ele>1198.3</ele>
        <time>2022-08-03T08:22:53Z</time>
      </trkpt>
      <trkpt lat="44.65163" lon="3.18439">
        <ele>1198.3</ele>
        <time>2022-08-03T08:22:56Z</time>
      </trkpt>
      <trkpt lat="44.65162" lon="3.18442">
        <ele>1198.4</ele>
        <time>2022-08-03T08:22:59Z</time>
      </trkpt>
      <trkpt lat="44.65158" lon="3.18456">
        <ele>1198.6</ele>
        <time>2022-08-03T08:23:05Z</time>
      </trkpt>
      <trkpt lat="44.65158" lon="3.1846">
        <ele>1198.6</ele>
        <time>2022-08-03T08:23:07Z</time>
      </trkpt>
      <trkpt lat="44.65154" lon="3.18465">
        <ele>1198.9</ele>
        <time>2022-08-03T08:23:11Z</time>
      </trkpt>
      <trkpt lat="44.65155" lon="3.18467">
        <ele>1198.8</ele>
        <time>2022-08-03T08:23:13Z</time>
      </trkpt>
      <trkpt lat="44.65157" lon="3.1847">
        <ele>1198.7</ele>
        <time>2022-08-03T08:23:15Z</time>
      </trkpt>
      <trkpt lat="44.65158" lon="3.18475">
        <ele>1198.7</ele>
        <time>2022-08-03T08:23:19Z</time>
      </trkpt>
      <trkpt lat="44.65158" lon="3.18477">
        <ele>1198.8</ele>
        <time>2022-08-03T08:23:21Z</time>
      </trkpt>
      <trkpt lat="44.65159" lon="3.18479">
        <ele>1198.8</ele>
        <time>2022-08-03T08:23:23Z</time>
      </trkpt>
      <trkpt lat="44.65163" lon="3.18484">
        <ele>1198.7</ele>
        <time>2022-08-03T08:23:27Z</time>
      </trkpt>
      <trkpt lat="44.65164" lon="3.18487">
        <ele>1198.7</ele>
        <time>2022-08-03T08:23:29Z</time>
      </trkpt>
      <trkpt lat="44.65164" lon="3.18491">
        <ele>1198.8</ele>
        <time>2022-08-03T08:23:31Z</time>
      </trkpt>
      <trkpt lat="44.65164" lon="3.18493">
        <ele>1199</ele>
        <time>2022-08-03T08:23:32Z</time>
      </trkpt>
      <trkpt lat="44.65163" lon="3.18495">
        <ele>1199.1</ele>
        <time>2022-08-03T08:23:33Z</time>
      </trkpt>
      <trkpt lat="44.65164" lon="3.18502">
        <ele>1199.2</ele>
        <time>2022-08-03T08:23:36Z</time>
      </trkpt>
      <trkpt lat="44.65164" lon="3.18507">
        <ele>1199.1</ele>
        <time>2022-08-03T08:23:38Z</time>
      </trkpt>
      <trkpt lat="44.65167" lon="3.18519">
        <ele>1199</ele>
        <time>2022-08-03T08:23:45Z</time>
      </trkpt>
      <trkpt lat="44.65166" lon="3.18521">
        <ele>1199</ele>
        <time>2022-08-03T08:23:46Z</time>
      </trkpt>
      <trkpt lat="44.65169" lon="3.18538">
        <ele>1199.1</ele>
        <time>2022-08-03T08:23:57Z</time>
      </trkpt>
      <trkpt lat="44.65168" lon="3.18544">
        <ele>1199</ele>
        <time>2022-08-03T08:24:00Z</time>
      </trkpt>
      <trkpt lat="44.65165" lon="3.18551">
        <ele>1198.9</ele>
        <time>2022-08-03T08:24:04Z</time>
      </trkpt>
      <trkpt lat="44.65164" lon="3.18552">
        <ele>1198.8</ele>
        <time>2022-08-03T08:24:06Z</time>
      </trkpt>
      <trkpt lat="44.65163" lon="3.18552">
        <ele>1198.7</ele>
        <time>2022-08-03T08:24:08Z</time>
      </trkpt>
      <trkpt lat="44.65162" lon="3.18552">
        <ele>1198.7</ele>
        <time>2022-08-03T08:24:10Z</time>
      </trkpt>
      <trkpt lat="44.65161" lon="3.18552">
        <ele>1198.6</ele>
        <time>2022-08-03T08:24:14Z</time>
      </trkpt>
      <trkpt lat="44.65161" lon="3.18552">
        <ele>1198.6</ele>
        <time>2022-08-03T08:24:29Z</time>
      </trkpt>
      <trkpt lat="44.65161" lon="3.18559">
        <ele>1198.7</ele>
        <time>2022-08-03T08:24:48Z</time>
      </trkpt>
      <trkpt lat="44.65154" lon="3.18581">
        <ele>1198.5</ele>
        <time>2022-08-03T08:24:58Z</time>
      </trkpt>
      <trkpt lat="44.65145" lon="3.18597">
        <ele>1199</ele>
        <time>2022-08-03T08:25:07Z</time>
      </trkpt>
      <trkpt lat="44.65135" lon="3.18611">
        <ele>1199.4</ele>
        <time>2022-08-03T08:25:17Z</time>
      </trkpt>
      <trkpt lat="44.65128" lon="3.18626">
        <ele>1199.3</ele>
        <time>2022-08-03T08:25:26Z</time>
      </trkpt>
      <trkpt lat="44.65126" lon="3.18628">
        <ele>1199.2</ele>
        <time>2022-08-03T08:25:32Z</time>
      </trkpt>
      <trkpt lat="44.65125" lon="3.18626">
        <ele>1198.9</ele>
        <time>2022-08-03T08:25:41Z</time>
      </trkpt>
      <trkpt lat="44.65122" lon="3.18635">
        <ele>1199.2</ele>
        <time>2022-08-03T08:25:51Z</time>
      </trkpt>
      <trkpt lat="44.65116" lon="3.1865">
        <ele>1199.5</ele>
        <time>2022-08-03T08:25:58Z</time>
      </trkpt>
      <trkpt lat="44.65115" lon="3.18655">
        <ele>1199.7</ele>
        <time>2022-08-03T08:26:01Z</time>
      </trkpt>
      <trkpt lat="44.65112" lon="3.18671">
        <ele>1200.1</ele>
        <time>2022-08-03T08:26:10Z</time>
      </trkpt>
      <trkpt lat="44.65109" lon="3.18686">
        <ele>1199.5</ele>
        <time>2022-08-03T08:26:19Z</time>
      </trkpt>
      <trkpt lat="44.65108" lon="3.18695">
        <ele>1199.2</ele>
        <time>2022-08-03T08:26:25Z</time>
      </trkpt>
      <trkpt lat="44.65109" lon="3.18698">
        <ele>1199.1</ele>
        <time>2022-08-03T08:26:27Z</time>
      </trkpt>
      <trkpt lat="44.65109" lon="3.18702">
        <ele>1198.9</ele>
        <time>2022-08-03T08:26:30Z</time>
      </trkpt>
      <trkpt lat="44.6511" lon="3.18709">
        <ele>1198.5</ele>
        <time>2022-08-03T08:26:35Z</time>
      </trkpt>
      <trkpt lat="44.65108" lon="3.18709">
        <ele>1198.1</ele>
        <time>2022-08-03T08:26:40Z</time>
      </trkpt>
      <trkpt lat="44.65109" lon="3.1871">
        <ele>1198.2</ele>
        <time>2022-08-03T08:26:42Z</time>
      </trkpt>
      <trkpt lat="44.6511" lon="3.18714">
        <ele>1198.3</ele>
        <time>2022-08-03T08:26:45Z</time>
      </trkpt>
      <trkpt lat="44.65112" lon="3.1872">
        <ele>1198.3</ele>
        <time>2022-08-03T08:26:49Z</time>
      </trkpt>
      <trkpt lat="44.65114" lon="3.18729">
        <ele>1197.7</ele>
        <time>2022-08-03T08:26:55Z</time>
      </trkpt>
      <trkpt lat="44.65117" lon="3.18744">
        <ele>1196.7</ele>
        <time>2022-08-03T08:27:04Z</time>
      </trkpt>
      <trkpt lat="44.65118" lon="3.18746">
        <ele>1196.6</ele>
        <time>2022-08-03T08:27:05Z</time>
      </trkpt>
      <trkpt lat="44.65119" lon="3.1875">
        <ele>1196.4</ele>
        <time>2022-08-03T08:27:08Z</time>
      </trkpt>
      <trkpt lat="44.6512" lon="3.18756">
        <ele>1196.2</ele>
        <time>2022-08-03T08:27:12Z</time>
      </trkpt>
      <trkpt lat="44.65119" lon="3.18768">
        <ele>1195.3</ele>
        <time>2022-08-03T08:27:18Z</time>
      </trkpt>
      <trkpt lat="44.65118" lon="3.18768">
        <ele>1195.2</ele>
        <time>2022-08-03T08:27:19Z</time>
      </trkpt>
      <trkpt lat="44.65119" lon="3.18769">
        <ele>1195.2</ele>
        <time>2022-08-03T08:27:20Z</time>
      </trkpt>
      <trkpt lat="44.65119" lon="3.18776">
        <ele>1194.9</ele>
        <time>2022-08-03T08:27:24Z</time>
      </trkpt>
      <trkpt lat="44.6512" lon="3.18778">
        <ele>1194.8</ele>
        <time>2022-08-03T08:27:25Z</time>
      </trkpt>
      <trkpt lat="44.65118" lon="3.18794">
        <ele>1195.1</ele>
        <time>2022-08-03T08:27:34Z</time>
      </trkpt>
      <trkpt lat="44.65117" lon="3.18797">
        <ele>1195</ele>
        <time>2022-08-03T08:27:36Z</time>
      </trkpt>
      <trkpt lat="44.65114" lon="3.18805">
        <ele>1194.6</ele>
        <time>2022-08-03T08:27:42Z</time>
      </trkpt>
      <trkpt lat="44.65111" lon="3.18809">
        <ele>1193.9</ele>
        <time>2022-08-03T08:27:47Z</time>
      </trkpt>
      <trkpt lat="44.6511" lon="3.18808">
        <ele>1193.7</ele>
        <time>2022-08-03T08:27:48Z</time>
      </trkpt>
      <trkpt lat="44.65109" lon="3.18808">
        <ele>1193.4</ele>
        <time>2022-08-03T08:27:49Z</time>
      </trkpt>
      <trkpt lat="44.65108" lon="3.18814">
        <ele>1193.3</ele>
        <time>2022-08-03T08:27:53Z</time>
      </trkpt>
      <trkpt lat="44.65108" lon="3.18816">
        <ele>1193.2</ele>
        <time>2022-08-03T08:27:54Z</time>
      </trkpt>
      <trkpt lat="44.65104" lon="3.18824">
        <ele>1192.4</ele>
        <time>2022-08-03T08:27:59Z</time>
      </trkpt>
      <trkpt lat="44.65102" lon="3.18832">
        <ele>1192</ele>
        <time>2022-08-03T08:28:04Z</time>
      </trkpt>
      <trkpt lat="44.651" lon="3.18842">
        <ele>1191.6</ele>
        <time>2022-08-03T08:28:10Z</time>
      </trkpt>
      <trkpt lat="44.65099" lon="3.18847">
        <ele>1191.6</ele>
        <time>2022-08-03T08:28:13Z</time>
      </trkpt>
      <trkpt lat="44.65098" lon="3.18863">
        <ele>1191.6</ele>
        <time>2022-08-03T08:28:23Z</time>
      </trkpt>
      <trkpt lat="44.65098" lon="3.18866">
        <ele>1191.5</ele>
        <time>2022-08-03T08:28:24Z</time>
      </trkpt>
      <trkpt lat="44.65096" lon="3.18877">
        <ele>1191</ele>
        <time>2022-08-03T08:28:30Z</time>
      </trkpt>
      <trkpt lat="44.65096" lon="3.18879">
        <ele>1190.7</ele>
        <time>2022-08-03T08:28:32Z</time>
      </trkpt>
      <trkpt lat="44.65094" lon="3.18884">
        <ele>1190.2</ele>
        <time>2022-08-03T08:28:36Z</time>
      </trkpt>
      <trkpt lat="44.65093" lon="3.18894">
        <ele>1189.9</ele>
        <time>2022-08-03T08:28:42Z</time>
      </trkpt>
      <trkpt lat="44.65093" lon="3.18897">
        <ele>1189.8</ele>
        <time>2022-08-03T08:28:44Z</time>
      </trkpt>
      <trkpt lat="44.65092" lon="3.18908">
        <ele>1189.6</ele>
        <time>2022-08-03T08:28:51Z</time>
      </trkpt>
      <trkpt lat="44.6509" lon="3.1891">
        <ele>1189.2</ele>
        <time>2022-08-03T08:28:53Z</time>
      </trkpt>
      <trkpt lat="44.6509" lon="3.18911">
        <ele>1189.1</ele>
        <time>2022-08-03T08:28:55Z</time>
      </trkpt>
      <trkpt lat="44.65089" lon="3.18911">
        <ele>1188.9</ele>
        <time>2022-08-03T08:28:58Z</time>
      </trkpt>
      <trkpt lat="44.65089" lon="3.18914">
        <ele>1188.8</ele>
        <time>2022-08-03T08:29:01Z</time>
      </trkpt>
      <trkpt lat="44.6509" lon="3.18915">
        <ele>1189.1</ele>
        <time>2022-08-03T08:29:04Z</time>
      </trkpt>
      <trkpt lat="44.65091" lon="3.18915">
        <ele>1189.4</ele>
        <time>2022-08-03T08:29:06Z</time>
      </trkpt>
      <trkpt lat="44.6509" lon="3.18915">
        <ele>1189.2</ele>
        <time>2022-08-03T08:29:12Z</time>
      </trkpt>
      <trkpt lat="44.65087" lon="3.18917">
        <ele>1188.3</ele>
        <time>2022-08-03T08:29:24Z</time>
      </trkpt>
      <trkpt lat="44.65084" lon="3.18926">
        <ele>1187.5</ele>
        <time>2022-08-03T08:29:30Z</time>
      </trkpt>
      <trkpt lat="44.65083" lon="3.18929">
        <ele>1187.4</ele>
        <time>2022-08-03T08:29:32Z</time>
      </trkpt>
      <trkpt lat="44.65081" lon="3.18936">
        <ele>1186.7</ele>
        <time>2022-08-03T08:29:36Z</time>
      </trkpt>
      <trkpt lat="44.6508" lon="3.18939">
        <ele>1186.4</ele>
        <time>2022-08-03T08:29:38Z</time>
      </trkpt>
      <trkpt lat="44.65076" lon="3.18949">
        <ele>1185.5</ele>
        <time>2022-08-03T08:29:45Z</time>
      </trkpt>
      <trkpt lat="44.65076" lon="3.1895">
        <ele>1185.4</ele>
        <time>2022-08-03T08:29:46Z</time>
      </trkpt>
      <trkpt lat="44.65075" lon="3.18951">
        <ele>1185.3</ele>
        <time>2022-08-03T08:29:47Z</time>
      </trkpt>
      <trkpt lat="44.65072" lon="3.18955">
        <ele>1184.4</ele>
        <time>2022-08-03T08:29:53Z</time>
      </trkpt>
      <trkpt lat="44.65072" lon="3.18957">
        <ele>1184.5</ele>
        <time>2022-08-03T08:29:54Z</time>
      </trkpt>
      <trkpt lat="44.65071" lon="3.1896">
        <ele>1184.3</ele>
        <time>2022-08-03T08:29:57Z</time>
      </trkpt>
      <trkpt lat="44.6507" lon="3.18961">
        <ele>1184</ele>
        <time>2022-08-03T08:29:58Z</time>
      </trkpt>
      <trkpt lat="44.65069" lon="3.18963">
        <ele>1183.5</ele>
        <time>2022-08-03T08:30:00Z</time>
      </trkpt>
      <trkpt lat="44.65064" lon="3.18975">
        <ele>1182.6</ele>
        <time>2022-08-03T08:30:09Z</time>
      </trkpt>
      <trkpt lat="44.65064" lon="3.18976">
        <ele>1182.3</ele>
        <time>2022-08-03T08:30:10Z</time>
      </trkpt>
      <trkpt lat="44.65061" lon="3.18991">
        <ele>1181.6</ele>
        <time>2022-08-03T08:30:17Z</time>
      </trkpt>
      <trkpt lat="44.6506" lon="3.18993">
        <ele>1181.7</ele>
        <time>2022-08-03T08:30:18Z</time>
      </trkpt>
      <trkpt lat="44.65058" lon="3.19">
        <ele>1181</ele>
        <time>2022-08-03T08:30:22Z</time>
      </trkpt>
      <trkpt lat="44.65057" lon="3.19005">
        <ele>1180.9</ele>
        <time>2022-08-03T08:30:25Z</time>
      </trkpt>
      <trkpt lat="44.65058" lon="3.19014">
        <ele>1181.3</ele>
        <time>2022-08-03T08:30:31Z</time>
      </trkpt>
      <trkpt lat="44.65053" lon="3.19025">
        <ele>1180.2</ele>
        <time>2022-08-03T08:30:39Z</time>
      </trkpt>
      <trkpt lat="44.6505" lon="3.19033">
        <ele>1179.5</ele>
        <time>2022-08-03T08:30:44Z</time>
      </trkpt>
      <trkpt lat="44.65049" lon="3.19034">
        <ele>1179.3</ele>
        <time>2022-08-03T08:30:45Z</time>
      </trkpt>
      <trkpt lat="44.65047" lon="3.19037">
        <ele>1178.9</ele>
        <time>2022-08-03T08:30:47Z</time>
      </trkpt>
      <trkpt lat="44.65045" lon="3.19054">
        <ele>1178.5</ele>
        <time>2022-08-03T08:30:56Z</time>
      </trkpt>
      <trkpt lat="44.65044" lon="3.19058">
        <ele>1178.3</ele>
        <time>2022-08-03T08:30:59Z</time>
      </trkpt>
      <trkpt lat="44.65041" lon="3.19066">
        <ele>1177.7</ele>
        <time>2022-08-03T08:31:04Z</time>
      </trkpt>
      <trkpt lat="44.65041" lon="3.1907">
        <ele>1177.7</ele>
        <time>2022-08-03T08:31:07Z</time>
      </trkpt>
      <trkpt lat="44.6504" lon="3.19072">
        <ele>1177.5</ele>
        <time>2022-08-03T08:31:08Z</time>
      </trkpt>
      <trkpt lat="44.6504" lon="3.19075">
        <ele>1177.6</ele>
        <time>2022-08-03T08:31:10Z</time>
      </trkpt>
      <trkpt lat="44.65039" lon="3.19082">
        <ele>1177.4</ele>
        <time>2022-08-03T08:31:14Z</time>
      </trkpt>
      <trkpt lat="44.65038" lon="3.19084">
        <ele>1176.9</ele>
        <time>2022-08-03T08:31:16Z</time>
      </trkpt>
      <trkpt lat="44.65037" lon="3.19085">
        <ele>1176.6</ele>
        <time>2022-08-03T08:31:17Z</time>
      </trkpt>
      <trkpt lat="44.65035" lon="3.1909">
        <ele>1176</ele>
        <time>2022-08-03T08:31:20Z</time>
      </trkpt>
      <trkpt lat="44.65035" lon="3.19093">
        <ele>1175.7</ele>
        <time>2022-08-03T08:31:22Z</time>
      </trkpt>
      <trkpt lat="44.65034" lon="3.19097">
        <ele>1175.2</ele>
        <time>2022-08-03T08:31:24Z</time>
      </trkpt>
      <trkpt lat="44.65032" lon="3.19101">
        <ele>1174.3</ele>
        <time>2022-08-03T08:31:27Z</time>
      </trkpt>
      <trkpt lat="44.6503" lon="3.19108">
        <ele>1173.3</ele>
        <time>2022-08-03T08:31:31Z</time>
      </trkpt>
      <trkpt lat="44.6503" lon="3.19113">
        <ele>1173.3</ele>
        <time>2022-08-03T08:31:33Z</time>
      </trkpt>
      <trkpt lat="44.6503" lon="3.19116">
        <ele>1173.2</ele>
        <time>2022-08-03T08:31:35Z</time>
      </trkpt>
      <trkpt lat="44.6503" lon="3.1912">
        <ele>1172.8</ele>
        <time>2022-08-03T08:31:37Z</time>
      </trkpt>
      <trkpt lat="44.6503" lon="3.19121">
        <ele>1172.8</ele>
        <time>2022-08-03T08:31:38Z</time>
      </trkpt>
      <trkpt lat="44.65029" lon="3.19127">
        <ele>1172.4</ele>
        <time>2022-08-03T08:31:41Z</time>
      </trkpt>
      <trkpt lat="44.65029" lon="3.19128">
        <ele>1172.4</ele>
        <time>2022-08-03T08:31:42Z</time>
      </trkpt>
      <trkpt lat="44.65029" lon="3.19128">
        <ele>1172.4</ele>
        <time>2022-08-03T08:31:43Z</time>
      </trkpt>
      <trkpt lat="44.65028" lon="3.19132">
        <ele>1172</ele>
        <time>2022-08-03T08:31:45Z</time>
      </trkpt>
      <trkpt lat="44.65026" lon="3.19138">
        <ele>1171.4</ele>
        <time>2022-08-03T08:31:50Z</time>
      </trkpt>
      <trkpt lat="44.65027" lon="3.1914">
        <ele>1171.5</ele>
        <time>2022-08-03T08:31:51Z</time>
      </trkpt>
      <trkpt lat="44.65026" lon="3.19144">
        <ele>1170.9</ele>
        <time>2022-08-03T08:31:54Z</time>
      </trkpt>
      <trkpt lat="44.65027" lon="3.19149">
        <ele>1170.6</ele>
        <time>2022-08-03T08:31:57Z</time>
      </trkpt>
      <trkpt lat="44.65027" lon="3.19153">
        <ele>1170.2</ele>
        <time>2022-08-03T08:31:59Z</time>
      </trkpt>
      <trkpt lat="44.65027" lon="3.19155">
        <ele>1170.1</ele>
        <time>2022-08-03T08:32:00Z</time>
      </trkpt>
      <trkpt lat="44.65026" lon="3.19158">
        <ele>1169.4</ele>
        <time>2022-08-03T08:32:02Z</time>
      </trkpt>
      <trkpt lat="44.65025" lon="3.19162">
        <ele>1168.6</ele>
        <time>2022-08-03T08:32:04Z</time>
      </trkpt>
      <trkpt lat="44.65024" lon="3.19164">
        <ele>1168.1</ele>
        <time>2022-08-03T08:32:06Z</time>
      </trkpt>
      <trkpt lat="44.65025" lon="3.19166">
        <ele>1168.2</ele>
        <time>2022-08-03T08:32:07Z</time>
      </trkpt>
      <trkpt lat="44.65026" lon="3.1917">
        <ele>1168.1</ele>
        <time>2022-08-03T08:32:10Z</time>
      </trkpt>
      <trkpt lat="44.65024" lon="3.19175">
        <ele>1167</ele>
        <time>2022-08-03T08:32:16Z</time>
      </trkpt>
      <trkpt lat="44.65024" lon="3.19176">
        <ele>1166.9</ele>
        <time>2022-08-03T08:32:17Z</time>
      </trkpt>
      <trkpt lat="44.65023" lon="3.19178">
        <ele>1166.7</ele>
        <time>2022-08-03T08:32:18Z</time>
      </trkpt>
      <trkpt lat="44.65021" lon="3.19188">
        <ele>1165.2</ele>
        <time>2022-08-03T08:32:25Z</time>
      </trkpt>
      <trkpt lat="44.65019" lon="3.19194">
        <ele>1164.1</ele>
        <time>2022-08-03T08:32:29Z</time>
      </trkpt>
      <trkpt lat="44.65018" lon="3.19203">
        <ele>1163</ele>
        <time>2022-08-03T08:32:34Z</time>
      </trkpt>
      <trkpt lat="44.65018" lon="3.19208">
        <ele>1162.6</ele>
        <time>2022-08-03T08:32:37Z</time>
      </trkpt>
      <trkpt lat="44.65019" lon="3.19209">
        <ele>1162.5</ele>
        <time>2022-08-03T08:32:38Z</time>
      </trkpt>
      <trkpt lat="44.65019" lon="3.19212">
        <ele>1162.2</ele>
        <time>2022-08-03T08:32:40Z</time>
      </trkpt>
      <trkpt lat="44.65019" lon="3.19214">
        <ele>1162</ele>
        <time>2022-08-03T08:32:42Z</time>
      </trkpt>
      <trkpt lat="44.65021" lon="3.19222">
        <ele>1161.3</ele>
        <time>2022-08-03T08:32:46Z</time>
      </trkpt>
      <trkpt lat="44.65022" lon="3.19229">
        <ele>1160.5</ele>
        <time>2022-08-03T08:32:51Z</time>
      </trkpt>
      <trkpt lat="44.65022" lon="3.19231">
        <ele>1160.4</ele>
        <time>2022-08-03T08:32:52Z</time>
      </trkpt>
      <trkpt lat="44.65024" lon="3.19242">
        <ele>1159.4</ele>
        <time>2022-08-03T08:32:58Z</time>
      </trkpt>
      <trkpt lat="44.65024" lon="3.19243">
        <ele>1159.2</ele>
        <time>2022-08-03T08:33:00Z</time>
      </trkpt>
      <trkpt lat="44.65026" lon="3.19255">
        <ele>1158.3</ele>
        <time>2022-08-03T08:33:06Z</time>
      </trkpt>
      <trkpt lat="44.65027" lon="3.19259">
        <ele>1157.9</ele>
        <time>2022-08-03T08:33:09Z</time>
      </trkpt>
      <trkpt lat="44.65028" lon="3.19263">
        <ele>1157.6</ele>
        <time>2022-08-03T08:33:12Z</time>
      </trkpt>
      <trkpt lat="44.65027" lon="3.19275">
        <ele>1156.1</ele>
        <time>2022-08-03T08:33:20Z</time>
      </trkpt>
      <trkpt lat="44.65026" lon="3.19276">
        <ele>1155.9</ele>
        <time>2022-08-03T08:33:21Z</time>
      </trkpt>
      <trkpt lat="44.65026" lon="3.19277">
        <ele>1155.7</ele>
        <time>2022-08-03T08:33:23Z</time>
      </trkpt>
      <trkpt lat="44.65026" lon="3.19276">
        <ele>1155.8</ele>
        <time>2022-08-03T08:33:25Z</time>
      </trkpt>
      <trkpt lat="44.65025" lon="3.19275">
        <ele>1155.8</ele>
        <time>2022-08-03T08:33:26Z</time>
      </trkpt>
      <trkpt lat="44.65021" lon="3.19277">
        <ele>1154.8</ele>
        <time>2022-08-03T08:33:30Z</time>
      </trkpt>
      <trkpt lat="44.65021" lon="3.19277">
        <ele>1154.6</ele>
        <time>2022-08-03T08:33:31Z</time>
      </trkpt>
      <trkpt lat="44.65021" lon="3.19276">
        <ele>1154.7</ele>
        <time>2022-08-03T08:33:33Z</time>
      </trkpt>
      <trkpt lat="44.65021" lon="3.19277">
        <ele>1154.6</ele>
        <time>2022-08-03T08:33:36Z</time>
      </trkpt>
      <trkpt lat="44.65021" lon="3.19276">
        <ele>1154.7</ele>
        <time>2022-08-03T08:33:38Z</time>
      </trkpt>
      <trkpt lat="44.65024" lon="3.19278">
        <ele>1155.1</ele>
        <time>2022-08-03T08:33:45Z</time>
      </trkpt>
      <trkpt lat="44.65028" lon="3.19284">
        <ele>1155.1</ele>
        <time>2022-08-03T08:33:49Z</time>
      </trkpt>
      <trkpt lat="44.6503" lon="3.19293">
        <ele>1154.2</ele>
        <time>2022-08-03T08:33:54Z</time>
      </trkpt>
      <trkpt lat="44.65033" lon="3.19296">
        <ele>1154.2</ele>
        <time>2022-08-03T08:33:58Z</time>
      </trkpt>
      <trkpt lat="44.65033" lon="3.19297">
        <ele>1154</ele>
        <time>2022-08-03T08:33:59Z</time>
      </trkpt>
      <trkpt lat="44.65032" lon="3.193">
        <ele>1153.4</ele>
        <time>2022-08-03T08:34:01Z</time>
      </trkpt>
      <trkpt lat="44.65032" lon="3.19301">
        <ele>1153.2</ele>
        <time>2022-08-03T08:34:02Z</time>
      </trkpt>
      <trkpt lat="44.65031" lon="3.19301">
        <ele>1153.1</ele>
        <time>2022-08-03T08:34:03Z</time>
      </trkpt>
      <trkpt lat="44.6503" lon="3.19301">
        <ele>1153</ele>
        <time>2022-08-03T08:34:04Z</time>
      </trkpt>
      <trkpt lat="44.65028" lon="3.193">
        <ele>1152.8</ele>
        <time>2022-08-03T08:34:06Z</time>
      </trkpt>
      <trkpt lat="44.65024" lon="3.19297">
        <ele>1152.7</ele>
        <time>2022-08-03T08:34:09Z</time>
      </trkpt>
      <trkpt lat="44.65019" lon="3.19297">
        <ele>1152.2</ele>
        <time>2022-08-03T08:34:15Z</time>
      </trkpt>
      <trkpt lat="44.65017" lon="3.19297">
        <ele>1151.9</ele>
        <time>2022-08-03T08:34:27Z</time>
      </trkpt>
      <trkpt lat="44.65016" lon="3.19292">
        <ele>1152.3</ele>
        <time>2022-08-03T08:34:33Z</time>
      </trkpt>
      <trkpt lat="44.65017" lon="3.19293">
        <ele>1152.3</ele>
        <time>2022-08-03T08:34:41Z</time>
      </trkpt>
      <trkpt lat="44.65021" lon="3.19295">
        <ele>1152.6</ele>
        <time>2022-08-03T08:34:44Z</time>
      </trkpt>
      <trkpt lat="44.65023" lon="3.19296">
        <ele>1152.8</ele>
        <time>2022-08-03T08:34:46Z</time>
      </trkpt>
      <trkpt lat="44.65034" lon="3.19304">
        <ele>1153.1</ele>
        <time>2022-08-03T08:34:55Z</time>
      </trkpt>
      <trkpt lat="44.65035" lon="3.19305">
        <ele>1153.1</ele>
        <time>2022-08-03T08:34:56Z</time>
      </trkpt>
      <trkpt lat="44.65039" lon="3.19309">
        <ele>1153.4</ele>
        <time>2022-08-03T08:35:01Z</time>
      </trkpt>
      <trkpt lat="44.65049" lon="3.19316">
        <ele>1154.4</ele>
        <time>2022-08-03T08:35:08Z</time>
      </trkpt>
      <trkpt lat="44.65057" lon="3.19327">
        <ele>1154.6</ele>
        <time>2022-08-03T08:35:15Z</time>
      </trkpt>
      <trkpt lat="44.65062" lon="3.19335">
        <ele>1154.3</ele>
        <time>2022-08-03T08:35:22Z</time>
      </trkpt>
      <trkpt lat="44.65066" lon="3.1934">
        <ele>1153.9</ele>
        <time>2022-08-03T08:35:26Z</time>
      </trkpt>
      <trkpt lat="44.6507" lon="3.19345">
        <ele>1153.8</ele>
        <time>2022-08-03T08:35:31Z</time>
      </trkpt>
      <trkpt lat="44.65077" lon="3.19356">
        <ele>1154</ele>
        <time>2022-08-03T08:35:39Z</time>
      </trkpt>
      <trkpt lat="44.65077" lon="3.1936">
        <ele>1153.7</ele>
        <time>2022-08-03T08:35:42Z</time>
      </trkpt>
      <trkpt lat="44.65078" lon="3.19366">
        <ele>1153.7</ele>
        <time>2022-08-03T08:35:46Z</time>
      </trkpt>
      <trkpt lat="44.6508" lon="3.19379">
        <ele>1153.5</ele>
        <time>2022-08-03T08:35:53Z</time>
      </trkpt>
      <trkpt lat="44.65078" lon="3.19392">
        <ele>1152.8</ele>
        <time>2022-08-03T08:36:01Z</time>
      </trkpt>
      <trkpt lat="44.65076" lon="3.19404">
        <ele>1152.2</ele>
        <time>2022-08-03T08:36:08Z</time>
      </trkpt>
      <trkpt lat="44.65075" lon="3.19406">
        <ele>1152</ele>
        <time>2022-08-03T08:36:11Z</time>
      </trkpt>
      <trkpt lat="44.65075" lon="3.19406">
        <ele>1152</ele>
        <time>2022-08-03T08:36:12Z</time>
      </trkpt>
      <trkpt lat="44.65074" lon="3.19407">
        <ele>1151.7</ele>
        <time>2022-08-03T08:36:14Z</time>
      </trkpt>
      <trkpt lat="44.65074" lon="3.19407">
        <ele>1151.5</ele>
        <time>2022-08-03T08:36:15Z</time>
      </trkpt>
      <trkpt lat="44.65072" lon="3.1941">
        <ele>1151.1</ele>
        <time>2022-08-03T08:36:19Z</time>
      </trkpt>
      <trkpt lat="44.65071" lon="3.19413">
        <ele>1150.8</ele>
        <time>2022-08-03T08:36:27Z</time>
      </trkpt>
      <trkpt lat="44.6507" lon="3.19418">
        <ele>1150.8</ele>
        <time>2022-08-03T08:36:32Z</time>
      </trkpt>
      <trkpt lat="44.65069" lon="3.1943">
        <ele>1150.6</ele>
        <time>2022-08-03T08:36:40Z</time>
      </trkpt>
      <trkpt lat="44.65068" lon="3.19429">
        <ele>1150.2</ele>
        <time>2022-08-03T08:36:44Z</time>
      </trkpt>
      <trkpt lat="44.65072" lon="3.19421">
        <ele>1151.3</ele>
        <time>2022-08-03T08:36:52Z</time>
      </trkpt>
      <trkpt lat="44.65072" lon="3.19408">
        <ele>1151.2</ele>
        <time>2022-08-03T08:36:59Z</time>
      </trkpt>
      <trkpt lat="44.65074" lon="3.19395">
        <ele>1151.6</ele>
        <time>2022-08-03T08:37:05Z</time>
      </trkpt>
      <trkpt lat="44.65074" lon="3.19393">
        <ele>1151.6</ele>
        <time>2022-08-03T08:37:06Z</time>
      </trkpt>
      <trkpt lat="44.65075" lon="3.19383">
        <ele>1152.2</ele>
        <time>2022-08-03T08:37:11Z</time>
      </trkpt>
      <trkpt lat="44.65075" lon="3.19368">
        <ele>1152.8</ele>
        <time>2022-08-03T08:37:19Z</time>
      </trkpt>
      <trkpt lat="44.65075" lon="3.19363">
        <ele>1153</ele>
        <time>2022-08-03T08:37:22Z</time>
      </trkpt>
      <trkpt lat="44.65072" lon="3.19354">
        <ele>1153.3</ele>
        <time>2022-08-03T08:37:27Z</time>
      </trkpt>
      <trkpt lat="44.65066" lon="3.19344">
        <ele>1153.4</ele>
        <time>2022-08-03T08:37:35Z</time>
      </trkpt>
      <trkpt lat="44.65057" lon="3.19338">
        <ele>1153.4</ele>
        <time>2022-08-03T08:37:42Z</time>
      </trkpt>
      <trkpt lat="44.65048" lon="3.19329">
        <ele>1153.4</ele>
        <time>2022-08-03T08:37:49Z</time>
      </trkpt>
      <trkpt lat="44.65039" lon="3.19319">
        <ele>1153</ele>
        <time>2022-08-03T08:37:56Z</time>
      </trkpt>
      <trkpt lat="44.65038" lon="3.19317">
        <ele>1152.9</ele>
        <time>2022-08-03T08:37:59Z</time>
      </trkpt>
      <trkpt lat="44.65035" lon="3.19313">
        <ele>1152.7</ele>
        <time>2022-08-03T08:38:02Z</time>
      </trkpt>
      <trkpt lat="44.65033" lon="3.19309">
        <ele>1152.7</ele>
        <time>2022-08-03T08:38:05Z</time>
      </trkpt>
      <trkpt lat="44.65034" lon="3.19307">
        <ele>1152.8</ele>
        <time>2022-08-03T08:38:07Z</time>
      </trkpt>
      <trkpt lat="44.65036" lon="3.19306">
        <ele>1153.1</ele>
        <time>2022-08-03T08:38:09Z</time>
      </trkpt>
      <trkpt lat="44.65036" lon="3.19306">
        <ele>1153.1</ele>
        <time>2022-08-03T08:38:10Z</time>
      </trkpt>
      <trkpt lat="44.65036" lon="3.19306">
        <ele>1153.1</ele>
        <time>2022-08-03T08:38:11Z</time>
      </trkpt>
      <trkpt lat="44.65035" lon="3.19308">
        <ele>1153</ele>
        <time>2022-08-03T08:38:13Z</time>
      </trkpt>
      <trkpt lat="44.65035" lon="3.19309">
        <ele>1152.9</ele>
        <time>2022-08-03T08:38:14Z</time>
      </trkpt>
      <trkpt lat="44.65035" lon="3.1931">
        <ele>1152.9</ele>
        <time>2022-08-03T08:38:16Z</time>
      </trkpt>
      <trkpt lat="44.65034" lon="3.1931">
        <ele>1152.7</ele>
        <time>2022-08-03T08:38:20Z</time>
      </trkpt>
      <trkpt lat="44.65036" lon="3.19315">
        <ele>1152.8</ele>
        <time>2022-08-03T08:38:28Z</time>
      </trkpt>
      <trkpt lat="44.65045" lon="3.19322">
        <ele>1153.6</ele>
        <time>2022-08-03T08:38:36Z</time>
      </trkpt>
      <trkpt lat="44.65052" lon="3.1933">
        <ele>1153.8</ele>
        <time>2022-08-03T08:38:43Z</time>
      </trkpt>
      <trkpt lat="44.65057" lon="3.19334">
        <ele>1154</ele>
        <time>2022-08-03T08:38:47Z</time>
      </trkpt>
      <trkpt lat="44.65058" lon="3.19336">
        <ele>1153.7</ele>
        <time>2022-08-03T08:38:49Z</time>
      </trkpt>
      <trkpt lat="44.65058" lon="3.19337">
        <ele>1153.5</ele>
        <time>2022-08-03T08:38:51Z</time>
      </trkpt>
      <trkpt lat="44.65059" lon="3.19345">
        <ele>1152.3</ele>
        <time>2022-08-03T08:38:58Z</time>
      </trkpt>
      <trkpt lat="44.6506" lon="3.19346">
        <ele>1152.3</ele>
        <time>2022-08-03T08:39:00Z</time>
      </trkpt>
      <trkpt lat="44.65058" lon="3.19346">
        <ele>1152</ele>
        <time>2022-08-03T08:39:04Z</time>
      </trkpt>
      <trkpt lat="44.65058" lon="3.19348">
        <ele>1151.8</ele>
        <time>2022-08-03T08:39:13Z</time>
      </trkpt>
      <trkpt lat="44.65063" lon="3.19354">
        <ele>1151.5</ele>
        <time>2022-08-03T08:39:20Z</time>
      </trkpt>
      <trkpt lat="44.65062" lon="3.1935">
        <ele>1152.1</ele>
        <time>2022-08-03T08:40:19Z</time>
      </trkpt>
      <trkpt lat="44.65066" lon="3.19346">
        <ele>1153.1</ele>
        <time>2022-08-03T08:41:06Z</time>
      </trkpt>
      <trkpt lat="44.65063" lon="3.19349">
        <ele>1152.3</ele>
        <time>2022-08-03T08:41:11Z</time>
      </trkpt>
      <trkpt lat="44.65062" lon="3.19353">
        <ele>1151.6</ele>
        <time>2022-08-03T08:41:18Z</time>
      </trkpt>
      <trkpt lat="44.65061" lon="3.19355">
        <ele>1151.1</ele>
        <time>2022-08-03T08:41:26Z</time>
      </trkpt>
      <trkpt lat="44.65059" lon="3.19352">
        <ele>1151.2</ele>
        <time>2022-08-03T08:44:06Z</time>
      </trkpt>
      <trkpt lat="44.65066" lon="3.19355">
        <ele>1152.1</ele>
        <time>2022-08-03T08:44:37Z</time>
      </trkpt>
      <trkpt lat="44.65075" lon="3.19364">
        <ele>1153.1</ele>
        <time>2022-08-03T08:44:45Z</time>
      </trkpt>
      <trkpt lat="44.65078" lon="3.19372">
        <ele>1153.3</ele>
        <time>2022-08-03T08:44:50Z</time>
      </trkpt>
      <trkpt lat="44.65078" lon="3.19373">
        <ele>1153.3</ele>
        <time>2022-08-03T08:44:51Z</time>
      </trkpt>
      <trkpt lat="44.65078" lon="3.19376">
        <ele>1153.3</ele>
        <time>2022-08-03T08:44:53Z</time>
      </trkpt>
      <trkpt lat="44.65079" lon="3.19381">
        <ele>1153.1</ele>
        <time>2022-08-03T08:44:57Z</time>
      </trkpt>
      <trkpt lat="44.65079" lon="3.1939">
        <ele>1152.9</ele>
        <time>2022-08-03T08:45:04Z</time>
      </trkpt>
      <trkpt lat="44.65079" lon="3.19392">
        <ele>1153</ele>
        <time>2022-08-03T08:45:06Z</time>
      </trkpt>
      <trkpt lat="44.65077" lon="3.19406">
        <ele>1152.5</ele>
        <time>2022-08-03T08:45:15Z</time>
      </trkpt>
      <trkpt lat="44.65076" lon="3.19409">
        <ele>1152.2</ele>
        <time>2022-08-03T08:45:20Z</time>
      </trkpt>
      <trkpt lat="44.65077" lon="3.19403">
        <ele>1152.4</ele>
        <time>2022-08-03T08:45:27Z</time>
      </trkpt>
      <trkpt lat="44.65077" lon="3.19403">
        <ele>1152.3</ele>
        <time>2022-08-03T08:45:44Z</time>
      </trkpt>
      <trkpt lat="44.65075" lon="3.1941">
        <ele>1151.9</ele>
        <time>2022-08-03T08:46:07Z</time>
      </trkpt>
      <trkpt lat="44.65075" lon="3.1943">
        <ele>1152.2</ele>
        <time>2022-08-03T08:46:16Z</time>
      </trkpt>
      <trkpt lat="44.65074" lon="3.19444">
        <ele>1152.3</ele>
        <time>2022-08-03T08:46:22Z</time>
      </trkpt>
      <trkpt lat="44.65072" lon="3.19446">
        <ele>1151.7</ele>
        <time>2022-08-03T08:46:24Z</time>
      </trkpt>
      <trkpt lat="44.65072" lon="3.19447">
        <ele>1151.6</ele>
        <time>2022-08-03T08:46:25Z</time>
      </trkpt>
      <trkpt lat="44.65072" lon="3.19449">
        <ele>1151.4</ele>
        <time>2022-08-03T08:46:27Z</time>
      </trkpt>
      <trkpt lat="44.65072" lon="3.19456">
        <ele>1150.9</ele>
        <time>2022-08-03T08:46:30Z</time>
      </trkpt>
      <trkpt lat="44.65073" lon="3.19459">
        <ele>1151.1</ele>
        <time>2022-08-03T08:46:32Z</time>
      </trkpt>
      <trkpt lat="44.65075" lon="3.19473">
        <ele>1150.6</ele>
        <time>2022-08-03T08:46:39Z</time>
      </trkpt>
      <trkpt lat="44.65076" lon="3.19475">
        <ele>1150.4</ele>
        <time>2022-08-03T08:46:41Z</time>
      </trkpt>
      <trkpt lat="44.65078" lon="3.19484">
        <ele>1149.7</ele>
        <time>2022-08-03T08:46:46Z</time>
      </trkpt>
      <trkpt lat="44.65078" lon="3.19489">
        <ele>1149.1</ele>
        <time>2022-08-03T08:46:49Z</time>
      </trkpt>
      <trkpt lat="44.65077" lon="3.19495">
        <ele>1147.9</ele>
        <time>2022-08-03T08:46:52Z</time>
      </trkpt>
      <trkpt lat="44.65079" lon="3.19503">
        <ele>1147.5</ele>
        <time>2022-08-03T08:46:57Z</time>
      </trkpt>
      <trkpt lat="44.65081" lon="3.19506">
        <ele>1147.5</ele>
        <time>2022-08-03T08:46:59Z</time>
      </trkpt>
      <trkpt lat="44.65087" lon="3.19518">
        <ele>1146.6</ele>
        <time>2022-08-03T08:47:07Z</time>
      </trkpt>
      <trkpt lat="44.65092" lon="3.19527">
        <ele>1146.3</ele>
        <time>2022-08-03T08:47:13Z</time>
      </trkpt>
      <trkpt lat="44.65094" lon="3.19529">
        <ele>1146.4</ele>
        <time>2022-08-03T08:47:15Z</time>
      </trkpt>
      <trkpt lat="44.65105" lon="3.19541">
        <ele>1145.6</ele>
        <time>2022-08-03T08:47:24Z</time>
      </trkpt>
      <trkpt lat="44.65108" lon="3.19545">
        <ele>1144.8</ele>
        <time>2022-08-03T08:47:28Z</time>
      </trkpt>
      <trkpt lat="44.65111" lon="3.19549">
        <ele>1144</ele>
        <time>2022-08-03T08:47:31Z</time>
      </trkpt>
      <trkpt lat="44.65112" lon="3.1955">
        <ele>1143.8</ele>
        <time>2022-08-03T08:47:32Z</time>
      </trkpt>
      <trkpt lat="44.6512" lon="3.19558">
        <ele>1143.8</ele>
        <time>2022-08-03T08:47:40Z</time>
      </trkpt>
      <trkpt lat="44.65121" lon="3.19559">
        <ele>1143.9</ele>
        <time>2022-08-03T08:47:41Z</time>
      </trkpt>
      <trkpt lat="44.65121" lon="3.19559">
        <ele>1143.9</ele>
        <time>2022-08-03T08:47:42Z</time>
      </trkpt>
      <trkpt lat="44.65123" lon="3.1956">
        <ele>1144.1</ele>
        <time>2022-08-03T08:47:43Z</time>
      </trkpt>
      <trkpt lat="44.65125" lon="3.19563">
        <ele>1143.9</ele>
        <time>2022-08-03T08:47:45Z</time>
      </trkpt>
      <trkpt lat="44.65126" lon="3.19564">
        <ele>1143.8</ele>
        <time>2022-08-03T08:47:47Z</time>
      </trkpt>
      <trkpt lat="44.65127" lon="3.19569">
        <ele>1142.9</ele>
        <time>2022-08-03T08:47:50Z</time>
      </trkpt>
      <trkpt lat="44.65131" lon="3.19574">
        <ele>1142.5</ele>
        <time>2022-08-03T08:47:55Z</time>
      </trkpt>
      <trkpt lat="44.65133" lon="3.19577">
        <ele>1142</ele>
        <time>2022-08-03T08:47:58Z</time>
      </trkpt>
      <trkpt lat="44.65138" lon="3.19581">
        <ele>1141.5</ele>
        <time>2022-08-03T08:48:02Z</time>
      </trkpt>
      <trkpt lat="44.65145" lon="3.19589">
        <ele>1141.1</ele>
        <time>2022-08-03T08:48:09Z</time>
      </trkpt>
      <trkpt lat="44.6515" lon="3.19592">
        <ele>1141.2</ele>
        <time>2022-08-03T08:48:12Z</time>
      </trkpt>
      <trkpt lat="44.6516" lon="3.19599">
        <ele>1140.8</ele>
        <time>2022-08-03T08:48:20Z</time>
      </trkpt>
      <trkpt lat="44.65167" lon="3.19604">
        <ele>1140.2</ele>
        <time>2022-08-03T08:48:26Z</time>
      </trkpt>
      <trkpt lat="44.65169" lon="3.19605">
        <ele>1139.8</ele>
        <time>2022-08-03T08:48:28Z</time>
      </trkpt>
      <trkpt lat="44.6517" lon="3.19608">
        <ele>1138.9</ele>
        <time>2022-08-03T08:48:31Z</time>
      </trkpt>
      <trkpt lat="44.65171" lon="3.19609">
        <ele>1138.6</ele>
        <time>2022-08-03T08:48:32Z</time>
      </trkpt>
      <trkpt lat="44.65179" lon="3.19613">
        <ele>1137.4</ele>
        <time>2022-08-03T08:48:38Z</time>
      </trkpt>
      <trkpt lat="44.65182" lon="3.19615">
        <ele>1137</ele>
        <time>2022-08-03T08:48:41Z</time>
      </trkpt>
      <trkpt lat="44.65183" lon="3.19618">
        <ele>1136.2</ele>
        <time>2022-08-03T08:48:42Z</time>
      </trkpt>
      <trkpt lat="44.65181" lon="3.19623">
        <ele>1134.9</ele>
        <time>2022-08-03T08:48:45Z</time>
      </trkpt>
      <trkpt lat="44.65173" lon="3.19626">
        <ele>1133.8</ele>
        <time>2022-08-03T08:48:52Z</time>
      </trkpt>
      <trkpt lat="44.65172" lon="3.19626">
        <ele>1133.7</ele>
        <time>2022-08-03T08:48:53Z</time>
      </trkpt>
      <trkpt lat="44.65164" lon="3.19629">
        <ele>1133</ele>
        <time>2022-08-03T08:49:00Z</time>
      </trkpt>
      <trkpt lat="44.65162" lon="3.19629">
        <ele>1133</ele>
        <time>2022-08-03T08:49:02Z</time>
      </trkpt>
      <trkpt lat="44.6515" lon="3.1963">
        <ele>1133.1</ele>
        <time>2022-08-03T08:49:10Z</time>
      </trkpt>
      <trkpt lat="44.65148" lon="3.1963">
        <ele>1133.2</ele>
        <time>2022-08-03T08:49:12Z</time>
      </trkpt>
      <trkpt lat="44.6514" lon="3.19639">
        <ele>1131.9</ele>
        <time>2022-08-03T08:49:19Z</time>
      </trkpt>
      <trkpt lat="44.65135" lon="3.19649">
        <ele>1130.5</ele>
        <time>2022-08-03T08:49:28Z</time>
      </trkpt>
      <trkpt lat="44.65135" lon="3.19651">
        <ele>1130.1</ele>
        <time>2022-08-03T08:49:30Z</time>
      </trkpt>
      <trkpt lat="44.65134" lon="3.19657">
        <ele>1129.1</ele>
        <time>2022-08-03T08:49:34Z</time>
      </trkpt>
      <trkpt lat="44.65134" lon="3.1966">
        <ele>1128.7</ele>
        <time>2022-08-03T08:49:38Z</time>
      </trkpt>
      <trkpt lat="44.65134" lon="3.19659">
        <ele>1128.8</ele>
        <time>2022-08-03T08:49:40Z</time>
      </trkpt>
      <trkpt lat="44.65134" lon="3.19657">
        <ele>1129.1</ele>
        <time>2022-08-03T08:49:43Z</time>
      </trkpt>
      <trkpt lat="44.65131" lon="3.19663">
        <ele>1128.4</ele>
        <time>2022-08-03T08:49:50Z</time>
      </trkpt>
      <trkpt lat="44.65129" lon="3.19669">
        <ele>1127.8</ele>
        <time>2022-08-03T08:49:54Z</time>
      </trkpt>
      <trkpt lat="44.65125" lon="3.19675">
        <ele>1127.3</ele>
        <time>2022-08-03T08:49:59Z</time>
      </trkpt>
      <trkpt lat="44.65121" lon="3.19682">
        <ele>1126.9</ele>
        <time>2022-08-03T08:50:04Z</time>
      </trkpt>
      <trkpt lat="44.65117" lon="3.19692">
        <ele>1126.3</ele>
        <time>2022-08-03T08:50:09Z</time>
      </trkpt>
      <trkpt lat="44.65112" lon="3.19704">
        <ele>1126.2</ele>
        <time>2022-08-03T08:50:17Z</time>
      </trkpt>
      <trkpt lat="44.65111" lon="3.19705">
        <ele>1126.2</ele>
        <time>2022-08-03T08:50:18Z</time>
      </trkpt>
      <trkpt lat="44.65108" lon="3.19717">
        <ele>1125</ele>
        <time>2022-08-03T08:50:25Z</time>
      </trkpt>
      <trkpt lat="44.65099" lon="3.1973">
        <ele>1123.5</ele>
        <time>2022-08-03T08:50:34Z</time>
      </trkpt>
      <trkpt lat="44.65098" lon="3.19731">
        <ele>1123.4</ele>
        <time>2022-08-03T08:50:35Z</time>
      </trkpt>
      <trkpt lat="44.65097" lon="3.19733">
        <ele>1123.3</ele>
        <time>2022-08-03T08:50:37Z</time>
      </trkpt>
      <trkpt lat="44.65093" lon="3.19739">
        <ele>1123</ele>
        <time>2022-08-03T08:50:41Z</time>
      </trkpt>
      <trkpt lat="44.65087" lon="3.1975">
        <ele>1122.9</ele>
        <time>2022-08-03T08:50:49Z</time>
      </trkpt>
      <trkpt lat="44.65083" lon="3.19758">
        <ele>1121.5</ele>
        <time>2022-08-03T08:50:54Z</time>
      </trkpt>
      <trkpt lat="44.65078" lon="3.19764">
        <ele>1119.9</ele>
        <time>2022-08-03T08:50:59Z</time>
      </trkpt>
      <trkpt lat="44.65073" lon="3.19774">
        <ele>1118.4</ele>
        <time>2022-08-03T08:51:06Z</time>
      </trkpt>
      <trkpt lat="44.65072" lon="3.19779">
        <ele>1118</ele>
        <time>2022-08-03T08:51:09Z</time>
      </trkpt>
      <trkpt lat="44.65066" lon="3.19789">
        <ele>1118.6</ele>
        <time>2022-08-03T08:51:17Z</time>
      </trkpt>
      <trkpt lat="44.65059" lon="3.19799">
        <ele>1119.9</ele>
        <time>2022-08-03T08:51:25Z</time>
      </trkpt>
      <trkpt lat="44.65057" lon="3.19804">
        <ele>1120.7</ele>
        <time>2022-08-03T08:51:28Z</time>
      </trkpt>
      <trkpt lat="44.65053" lon="3.19808">
        <ele>1120.9</ele>
        <time>2022-08-03T08:51:35Z</time>
      </trkpt>
      <trkpt lat="44.65054" lon="3.19808">
        <ele>1120.9</ele>
        <time>2022-08-03T08:51:36Z</time>
      </trkpt>
      <trkpt lat="44.65054" lon="3.19808">
        <ele>1120.9</ele>
        <time>2022-08-03T08:51:37Z</time>
      </trkpt>
      <trkpt lat="44.65054" lon="3.19805">
        <ele>1120.8</ele>
        <time>2022-08-03T08:51:43Z</time>
      </trkpt>
      <trkpt lat="44.65053" lon="3.19804">
        <ele>1120.6</ele>
        <time>2022-08-03T08:51:44Z</time>
      </trkpt>
      <trkpt lat="44.65054" lon="3.19805">
        <ele>1120.8</ele>
        <time>2022-08-03T08:51:50Z</time>
      </trkpt>
      <trkpt lat="44.65055" lon="3.19806">
        <ele>1120.9</ele>
        <time>2022-08-03T08:52:13Z</time>
      </trkpt>
      <trkpt lat="44.65055" lon="3.19806">
        <ele>1120.9</ele>
        <time>2022-08-03T08:52:23Z</time>
      </trkpt>
      <trkpt lat="44.65054" lon="3.19809">
        <ele>1120.9</ele>
        <time>2022-08-03T08:52:27Z</time>
      </trkpt>
      <trkpt lat="44.65052" lon="3.1981">
        <ele>1120.8</ele>
        <time>2022-08-03T08:52:31Z</time>
      </trkpt>
      <trkpt lat="44.65052" lon="3.19811">
        <ele>1120.8</ele>
        <time>2022-08-03T08:52:39Z</time>
      </trkpt>
      <trkpt lat="44.65049" lon="3.19815">
        <ele>1120.8</ele>
        <time>2022-08-03T08:53:03Z</time>
      </trkpt>
      <trkpt lat="44.6505" lon="3.19816">
        <ele>1120.8</ele>
        <time>2022-08-03T08:53:05Z</time>
      </trkpt>
      <trkpt lat="44.65049" lon="3.19818">
        <ele>1120.8</ele>
        <time>2022-08-03T08:53:11Z</time>
      </trkpt>
      <trkpt lat="44.65046" lon="3.19822">
        <ele>1120.9</ele>
        <time>2022-08-03T08:53:27Z</time>
      </trkpt>
      <trkpt lat="44.65041" lon="3.19827">
        <ele>1121.2</ele>
        <time>2022-08-03T08:53:33Z</time>
      </trkpt>
      <trkpt lat="44.65037" lon="3.19837">
        <ele>1122</ele>
        <time>2022-08-03T08:53:40Z</time>
      </trkpt>
      <trkpt lat="44.6503" lon="3.1985">
        <ele>1123.1</ele>
        <time>2022-08-03T08:53:49Z</time>
      </trkpt>
      <trkpt lat="44.65031" lon="3.1985">
        <ele>1123.2</ele>
        <time>2022-08-03T08:53:52Z</time>
      </trkpt>
      <trkpt lat="44.65031" lon="3.1985">
        <ele>1123.1</ele>
        <time>2022-08-03T08:53:53Z</time>
      </trkpt>
      <trkpt lat="44.65031" lon="3.19849">
        <ele>1123.1</ele>
        <time>2022-08-03T08:53:54Z</time>
      </trkpt>
      <trkpt lat="44.65032" lon="3.19848">
        <ele>1123</ele>
        <time>2022-08-03T08:54:00Z</time>
      </trkpt>
      <trkpt lat="44.65028" lon="3.19856">
        <ele>1123.6</ele>
        <time>2022-08-03T08:54:14Z</time>
      </trkpt>
      <trkpt lat="44.65019" lon="3.19875">
        <ele>1124.9</ele>
        <time>2022-08-03T08:54:23Z</time>
      </trkpt>
      <trkpt lat="44.65017" lon="3.1988">
        <ele>1125.3</ele>
        <time>2022-08-03T08:54:26Z</time>
      </trkpt>
      <trkpt lat="44.65011" lon="3.19892">
        <ele>1125.9</ele>
        <time>2022-08-03T08:54:34Z</time>
      </trkpt>
      <trkpt lat="44.6501" lon="3.19894">
        <ele>1126</ele>
        <time>2022-08-03T08:54:35Z</time>
      </trkpt>
      <trkpt lat="44.65008" lon="3.19898">
        <ele>1126.2</ele>
        <time>2022-08-03T08:54:38Z</time>
      </trkpt>
      <trkpt lat="44.65004" lon="3.19905">
        <ele>1126.8</ele>
        <time>2022-08-03T08:54:43Z</time>
      </trkpt>
      <trkpt lat="44.65" lon="3.19912">
        <ele>1127.3</ele>
        <time>2022-08-03T08:54:48Z</time>
      </trkpt>
      <trkpt lat="44.64997" lon="3.19915">
        <ele>1127.5</ele>
        <time>2022-08-03T08:54:51Z</time>
      </trkpt>
      <trkpt lat="44.64991" lon="3.19921">
        <ele>1127.8</ele>
        <time>2022-08-03T08:54:57Z</time>
      </trkpt>
      <trkpt lat="44.6499" lon="3.19922">
        <ele>1127.8</ele>
        <time>2022-08-03T08:54:58Z</time>
      </trkpt>
      <trkpt lat="44.64987" lon="3.19927">
        <ele>1128.2</ele>
        <time>2022-08-03T08:55:01Z</time>
      </trkpt>
      <trkpt lat="44.64979" lon="3.19939">
        <ele>1129.3</ele>
        <time>2022-08-03T08:55:09Z</time>
      </trkpt>
      <trkpt lat="44.64978" lon="3.19942">
        <ele>1129.6</ele>
        <time>2022-08-03T08:55:11Z</time>
      </trkpt>
      <trkpt lat="44.64977" lon="3.19943">
        <ele>1129.8</ele>
        <time>2022-08-03T08:55:12Z</time>
      </trkpt>
      <trkpt lat="44.64972" lon="3.19949">
        <ele>1130.3</ele>
        <time>2022-08-03T08:55:17Z</time>
      </trkpt>
      <trkpt lat="44.64969" lon="3.19952">
        <ele>1130.4</ele>
        <time>2022-08-03T08:55:20Z</time>
      </trkpt>
      <trkpt lat="44.64962" lon="3.19961">
        <ele>1130.9</ele>
        <time>2022-08-03T08:55:28Z</time>
      </trkpt>
      <trkpt lat="44.64958" lon="3.19964">
        <ele>1131.1</ele>
        <time>2022-08-03T08:55:32Z</time>
      </trkpt>
      <trkpt lat="44.64952" lon="3.1997">
        <ele>1131.7</ele>
        <time>2022-08-03T08:55:38Z</time>
      </trkpt>
      <trkpt lat="44.64946" lon="3.19979">
        <ele>1132.4</ele>
        <time>2022-08-03T08:55:45Z</time>
      </trkpt>
      <trkpt lat="44.64944" lon="3.1998">
        <ele>1132.6</ele>
        <time>2022-08-03T08:55:47Z</time>
      </trkpt>
      <trkpt lat="44.64936" lon="3.19989">
        <ele>1133</ele>
        <time>2022-08-03T08:55:56Z</time>
      </trkpt>
      <trkpt lat="44.64934" lon="3.19992">
        <ele>1133.3</ele>
        <time>2022-08-03T08:55:59Z</time>
      </trkpt>
      <trkpt lat="44.64925" lon="3.20003">
        <ele>1134.2</ele>
        <time>2022-08-03T08:56:08Z</time>
      </trkpt>
      <trkpt lat="44.64923" lon="3.20006">
        <ele>1134.4</ele>
        <time>2022-08-03T08:56:10Z</time>
      </trkpt>
      <trkpt lat="44.64913" lon="3.20017">
        <ele>1135</ele>
        <time>2022-08-03T08:56:21Z</time>
      </trkpt>
      <trkpt lat="44.6491" lon="3.20021">
        <ele>1135.2</ele>
        <time>2022-08-03T08:56:26Z</time>
      </trkpt>
      <trkpt lat="44.64908" lon="3.20025">
        <ele>1135.4</ele>
        <time>2022-08-03T08:56:29Z</time>
      </trkpt>
      <trkpt lat="44.64901" lon="3.20038">
        <ele>1136</ele>
        <time>2022-08-03T08:56:38Z</time>
      </trkpt>
      <trkpt lat="44.64899" lon="3.20047">
        <ele>1136.5</ele>
        <time>2022-08-03T08:56:44Z</time>
      </trkpt>
      <trkpt lat="44.64896" lon="3.20056">
        <ele>1137</ele>
        <time>2022-08-03T08:56:50Z</time>
      </trkpt>
      <trkpt lat="44.64895" lon="3.20071">
        <ele>1137</ele>
        <time>2022-08-03T08:56:59Z</time>
      </trkpt>
      <trkpt lat="44.64894" lon="3.20094">
        <ele>1137</ele>
        <time>2022-08-03T08:57:13Z</time>
      </trkpt>
      <trkpt lat="44.64896" lon="3.20104">
        <ele>1137</ele>
        <time>2022-08-03T08:57:22Z</time>
      </trkpt>
      <trkpt lat="44.64896" lon="3.20104">
        <ele>1137</ele>
        <time>2022-08-03T08:57:28Z</time>
      </trkpt>
      <trkpt lat="44.64895" lon="3.20108">
        <ele>1137</ele>
        <time>2022-08-03T08:57:35Z</time>
      </trkpt>
      <trkpt lat="44.64895" lon="3.20118">
        <ele>1137</ele>
        <time>2022-08-03T08:57:44Z</time>
      </trkpt>
      <trkpt lat="44.64895" lon="3.20118">
        <ele>1137</ele>
        <time>2022-08-03T08:57:45Z</time>
      </trkpt>
      <trkpt lat="44.64897" lon="3.2012">
        <ele>1137</ele>
        <time>2022-08-03T08:57:54Z</time>
      </trkpt>
      <trkpt lat="44.64896" lon="3.20134">
        <ele>1137</ele>
        <time>2022-08-03T08:58:43Z</time>
      </trkpt>
      <trkpt lat="44.64893" lon="3.20152">
        <ele>1137.1</ele>
        <time>2022-08-03T08:58:51Z</time>
      </trkpt>
      <trkpt lat="44.64893" lon="3.20155">
        <ele>1137.1</ele>
        <time>2022-08-03T08:58:53Z</time>
      </trkpt>
      <trkpt lat="44.6489" lon="3.20171">
        <ele>1137</ele>
        <time>2022-08-03T08:59:02Z</time>
      </trkpt>
      <trkpt lat="44.64887" lon="3.20189">
        <ele>1137</ele>
        <time>2022-08-03T08:59:11Z</time>
      </trkpt>
      <trkpt lat="44.64886" lon="3.20193">
        <ele>1137</ele>
        <time>2022-08-03T08:59:14Z</time>
      </trkpt>
      <trkpt lat="44.64883" lon="3.20204">
        <ele>1137.3</ele>
        <time>2022-08-03T08:59:20Z</time>
      </trkpt>
      <trkpt lat="44.64878" lon="3.20227">
        <ele>1137.8</ele>
        <time>2022-08-03T08:59:32Z</time>
      </trkpt>
      <trkpt lat="44.64876" lon="3.20233">
        <ele>1137.9</ele>
        <time>2022-08-03T08:59:36Z</time>
      </trkpt>
      <trkpt lat="44.64874" lon="3.20243">
        <ele>1138.2</ele>
        <time>2022-08-03T08:59:42Z</time>
      </trkpt>
      <trkpt lat="44.64869" lon="3.20263">
        <ele>1138.7</ele>
        <time>2022-08-03T08:59:53Z</time>
      </trkpt>
      <trkpt lat="44.64866" lon="3.2028">
        <ele>1139.2</ele>
        <time>2022-08-03T09:00:03Z</time>
      </trkpt>
      <trkpt lat="44.64862" lon="3.20296">
        <ele>1139</ele>
        <time>2022-08-03T09:00:12Z</time>
      </trkpt>
      <trkpt lat="44.64861" lon="3.20299">
        <ele>1139</ele>
        <time>2022-08-03T09:00:14Z</time>
      </trkpt>
      <trkpt lat="44.64857" lon="3.20315">
        <ele>1138.7</ele>
        <time>2022-08-03T09:00:23Z</time>
      </trkpt>
      <trkpt lat="44.64851" lon="3.20337">
        <ele>1138.3</ele>
        <time>2022-08-03T09:00:35Z</time>
      </trkpt>
      <trkpt lat="44.64845" lon="3.20355">
        <ele>1137.9</ele>
        <time>2022-08-03T09:00:45Z</time>
      </trkpt>
      <trkpt lat="44.64843" lon="3.20363">
        <ele>1137.8</ele>
        <time>2022-08-03T09:00:50Z</time>
      </trkpt>
      <trkpt lat="44.64842" lon="3.2037">
        <ele>1137.9</ele>
        <time>2022-08-03T09:00:54Z</time>
      </trkpt>
      <trkpt lat="44.64836" lon="3.20387">
        <ele>1138.1</ele>
        <time>2022-08-03T09:01:04Z</time>
      </trkpt>
      <trkpt lat="44.6483" lon="3.20406">
        <ele>1138.5</ele>
        <time>2022-08-03T09:01:15Z</time>
      </trkpt>
      <trkpt lat="44.64826" lon="3.20419">
        <ele>1138.8</ele>
        <time>2022-08-03T09:01:22Z</time>
      </trkpt>
      <trkpt lat="44.64822" lon="3.20432">
        <ele>1138.9</ele>
        <time>2022-08-03T09:01:30Z</time>
      </trkpt>
      <trkpt lat="44.64818" lon="3.20453">
        <ele>1138.9</ele>
        <time>2022-08-03T09:01:42Z</time>
      </trkpt>
      <trkpt lat="44.64817" lon="3.20461">
        <ele>1138.8</ele>
        <time>2022-08-03T09:01:48Z</time>
      </trkpt>
      <trkpt lat="44.64817" lon="3.20462">
        <ele>1138.9</ele>
        <time>2022-08-03T09:01:49Z</time>
      </trkpt>
      <trkpt lat="44.64822" lon="3.20462">
        <ele>1139.2</ele>
        <time>2022-08-03T09:01:54Z</time>
      </trkpt>
      <trkpt lat="44.64823" lon="3.20462">
        <ele>1139.2</ele>
        <time>2022-08-03T09:01:55Z</time>
      </trkpt>
      <trkpt lat="44.64824" lon="3.20462">
        <ele>1139.3</ele>
        <time>2022-08-03T09:01:56Z</time>
      </trkpt>
      <trkpt lat="44.6483" lon="3.20465">
        <ele>1139.8</ele>
        <time>2022-08-03T09:02:03Z</time>
      </trkpt>
      <trkpt lat="44.64831" lon="3.20465">
        <ele>1139.8</ele>
        <time>2022-08-03T09:02:04Z</time>
      </trkpt>
      <trkpt lat="44.64837" lon="3.20467">
        <ele>1140.4</ele>
        <time>2022-08-03T09:02:11Z</time>
      </trkpt>
      <trkpt lat="44.64843" lon="3.20467">
        <ele>1141.3</ele>
        <time>2022-08-03T09:02:16Z</time>
      </trkpt>
      <trkpt lat="44.64846" lon="3.20465">
        <ele>1141.7</ele>
        <time>2022-08-03T09:02:19Z</time>
      </trkpt>
      <trkpt lat="44.64847" lon="3.20465">
        <ele>1141.8</ele>
        <time>2022-08-03T09:02:20Z</time>
      </trkpt>
      <trkpt lat="44.64852" lon="3.20466">
        <ele>1142.6</ele>
        <time>2022-08-03T09:02:25Z</time>
      </trkpt>
      <trkpt lat="44.64855" lon="3.20466">
        <ele>1142.9</ele>
        <time>2022-08-03T09:02:26Z</time>
      </trkpt>
      <trkpt lat="44.64857" lon="3.20465">
        <ele>1143.2</ele>
        <time>2022-08-03T09:02:32Z</time>
      </trkpt>
      <trkpt lat="44.64857" lon="3.20465">
        <ele>1143.2</ele>
        <time>2022-08-03T09:02:34Z</time>
      </trkpt>
      <trkpt lat="44.64859" lon="3.20464">
        <ele>1143.4</ele>
        <time>2022-08-03T09:02:47Z</time>
      </trkpt>
      <trkpt lat="44.64867" lon="3.20465">
        <ele>1144.1</ele>
        <time>2022-08-03T09:02:53Z</time>
      </trkpt>
      <trkpt lat="44.64869" lon="3.20465">
        <ele>1144.3</ele>
        <time>2022-08-03T09:02:55Z</time>
      </trkpt>
      <trkpt lat="44.64876" lon="3.20462">
        <ele>1144.7</ele>
        <time>2022-08-03T09:03:02Z</time>
      </trkpt>
      <trkpt lat="44.64883" lon="3.20459">
        <ele>1145.1</ele>
        <time>2022-08-03T09:03:10Z</time>
      </trkpt>
      <trkpt lat="44.64895" lon="3.20456">
        <ele>1145.5</ele>
        <time>2022-08-03T09:03:20Z</time>
      </trkpt>
      <trkpt lat="44.64899" lon="3.20455">
        <ele>1145.6</ele>
        <time>2022-08-03T09:03:23Z</time>
      </trkpt>
      <trkpt lat="44.64902" lon="3.20456">
        <ele>1145.7</ele>
        <time>2022-08-03T09:03:26Z</time>
      </trkpt>
      <trkpt lat="44.64905" lon="3.20457">
        <ele>1145.8</ele>
        <time>2022-08-03T09:03:29Z</time>
      </trkpt>
      <trkpt lat="44.64903" lon="3.20458">
        <ele>1145.7</ele>
        <time>2022-08-03T09:03:31Z</time>
      </trkpt>
      <trkpt lat="44.64899" lon="3.20458">
        <ele>1145.7</ele>
        <time>2022-08-03T09:03:34Z</time>
      </trkpt>
      <trkpt lat="44.64889" lon="3.2046">
        <ele>1145.6</ele>
        <time>2022-08-03T09:03:41Z</time>
      </trkpt>
      <trkpt lat="44.64874" lon="3.20465">
        <ele>1144.6</ele>
        <time>2022-08-03T09:03:51Z</time>
      </trkpt>
      <trkpt lat="44.64862" lon="3.20467">
        <ele>1143.9</ele>
        <time>2022-08-03T09:03:59Z</time>
      </trkpt>
      <trkpt lat="44.64859" lon="3.20467">
        <ele>1143.5</ele>
        <time>2022-08-03T09:04:01Z</time>
      </trkpt>
      <trkpt lat="44.64858" lon="3.20467">
        <ele>1143.3</ele>
        <time>2022-08-03T09:04:02Z</time>
      </trkpt>
      <trkpt lat="44.64852" lon="3.20466">
        <ele>1142.5</ele>
        <time>2022-08-03T09:04:06Z</time>
      </trkpt>
      <trkpt lat="44.64846" lon="3.20469">
        <ele>1141.7</ele>
        <time>2022-08-03T09:04:11Z</time>
      </trkpt>
      <trkpt lat="44.64843" lon="3.20469">
        <ele>1141.3</ele>
        <time>2022-08-03T09:04:13Z</time>
      </trkpt>
      <trkpt lat="44.64836" lon="3.20467">
        <ele>1140.3</ele>
        <time>2022-08-03T09:04:19Z</time>
      </trkpt>
      <trkpt lat="44.6483" lon="3.20466">
        <ele>1139.7</ele>
        <time>2022-08-03T09:04:22Z</time>
      </trkpt>
      <trkpt lat="44.64825" lon="3.20465">
        <ele>1139.4</ele>
        <time>2022-08-03T09:04:25Z</time>
      </trkpt>
      <trkpt lat="44.64817" lon="3.2047">
        <ele>1138.8</ele>
        <time>2022-08-03T09:04:31Z</time>
      </trkpt>
      <trkpt lat="44.64815" lon="3.20482">
        <ele>1138.3</ele>
        <time>2022-08-03T09:04:37Z</time>
      </trkpt>
      <trkpt lat="44.64815" lon="3.20507">
        <ele>1137.6</ele>
        <time>2022-08-03T09:04:49Z</time>
      </trkpt>
      <trkpt lat="44.64815" lon="3.2053">
        <ele>1137.4</ele>
        <time>2022-08-03T09:05:00Z</time>
      </trkpt>
      <trkpt lat="44.64815" lon="3.20545">
        <ele>1137.3</ele>
        <time>2022-08-03T09:05:07Z</time>
      </trkpt>
      <trkpt lat="44.64814" lon="3.20561">
        <ele>1137.2</ele>
        <time>2022-08-03T09:05:14Z</time>
      </trkpt>
      <trkpt lat="44.64811" lon="3.20576">
        <ele>1136.6</ele>
        <time>2022-08-03T09:05:21Z</time>
      </trkpt>
      <trkpt lat="44.64805" lon="3.20593">
        <ele>1136.1</ele>
        <time>2022-08-03T09:05:30Z</time>
      </trkpt>
      <trkpt lat="44.64795" lon="3.2061">
        <ele>1136.4</ele>
        <time>2022-08-03T09:05:41Z</time>
      </trkpt>
      <trkpt lat="44.64782" lon="3.20629">
        <ele>1135.7</ele>
        <time>2022-08-03T09:05:53Z</time>
      </trkpt>
      <trkpt lat="44.64782" lon="3.2063">
        <ele>1135.6</ele>
        <time>2022-08-03T09:05:54Z</time>
      </trkpt>
      <trkpt lat="44.64779" lon="3.20634">
        <ele>1135.3</ele>
        <time>2022-08-03T09:05:57Z</time>
      </trkpt>
      <trkpt lat="44.64775" lon="3.20643">
        <ele>1135</ele>
        <time>2022-08-03T09:06:02Z</time>
      </trkpt>
      <trkpt lat="44.64764" lon="3.20659">
        <ele>1134.6</ele>
        <time>2022-08-03T09:06:12Z</time>
      </trkpt>
      <trkpt lat="44.64763" lon="3.2066">
        <ele>1134.5</ele>
        <time>2022-08-03T09:06:13Z</time>
      </trkpt>
      <trkpt lat="44.64757" lon="3.20672">
        <ele>1133.8</ele>
        <time>2022-08-03T09:06:20Z</time>
      </trkpt>
      <trkpt lat="44.64752" lon="3.20681">
        <ele>1133.5</ele>
        <time>2022-08-03T09:06:26Z</time>
      </trkpt>
      <trkpt lat="44.64746" lon="3.2069">
        <ele>1133.5</ele>
        <time>2022-08-03T09:06:33Z</time>
      </trkpt>
      <trkpt lat="44.64742" lon="3.20695">
        <ele>1133.5</ele>
        <time>2022-08-03T09:06:38Z</time>
      </trkpt>
      <trkpt lat="44.64741" lon="3.20697">
        <ele>1133.4</ele>
        <time>2022-08-03T09:06:40Z</time>
      </trkpt>
      <trkpt lat="44.64731" lon="3.20713">
        <ele>1132.6</ele>
        <time>2022-08-03T09:06:50Z</time>
      </trkpt>
      <trkpt lat="44.64725" lon="3.20722">
        <ele>1131.9</ele>
        <time>2022-08-03T09:06:57Z</time>
      </trkpt>
      <trkpt lat="44.64723" lon="3.20725">
        <ele>1131.7</ele>
        <time>2022-08-03T09:06:59Z</time>
      </trkpt>
      <trkpt lat="44.64714" lon="3.20737">
        <ele>1131.3</ele>
        <time>2022-08-03T09:07:09Z</time>
      </trkpt>
      <trkpt lat="44.64704" lon="3.20748">
        <ele>1131.1</ele>
        <time>2022-08-03T09:07:17Z</time>
      </trkpt>
      <trkpt lat="44.64696" lon="3.20752">
        <ele>1131.5</ele>
        <time>2022-08-03T09:07:23Z</time>
      </trkpt>
      <trkpt lat="44.64684" lon="3.20757">
        <ele>1130.9</ele>
        <time>2022-08-03T09:07:33Z</time>
      </trkpt>
      <trkpt lat="44.64668" lon="3.2076">
        <ele>1130.2</ele>
        <time>2022-08-03T09:07:44Z</time>
      </trkpt>
      <trkpt lat="44.64653" lon="3.20764">
        <ele>1129.9</ele>
        <time>2022-08-03T09:07:55Z</time>
      </trkpt>
      <trkpt lat="44.64641" lon="3.2077">
        <ele>1129.8</ele>
        <time>2022-08-03T09:08:05Z</time>
      </trkpt>
      <trkpt lat="44.64629" lon="3.20777">
        <ele>1129.8</ele>
        <time>2022-08-03T09:08:14Z</time>
      </trkpt>
      <trkpt lat="44.64615" lon="3.20783">
        <ele>1130.3</ele>
        <time>2022-08-03T09:08:25Z</time>
      </trkpt>
      <trkpt lat="44.64601" lon="3.20785">
        <ele>1130.8</ele>
        <time>2022-08-03T09:08:37Z</time>
      </trkpt>
      <trkpt lat="44.64589" lon="3.20785">
        <ele>1131.1</ele>
        <time>2022-08-03T09:08:46Z</time>
      </trkpt>
      <trkpt lat="44.64586" lon="3.20785">
        <ele>1131.2</ele>
        <time>2022-08-03T09:08:48Z</time>
      </trkpt>
      <trkpt lat="44.64577" lon="3.20785">
        <ele>1131.4</ele>
        <time>2022-08-03T09:08:55Z</time>
      </trkpt>
      <trkpt lat="44.64564" lon="3.20784">
        <ele>1132</ele>
        <time>2022-08-03T09:09:05Z</time>
      </trkpt>
      <trkpt lat="44.64551" lon="3.20786">
        <ele>1132.1</ele>
        <time>2022-08-03T09:09:14Z</time>
      </trkpt>
      <trkpt lat="44.6455" lon="3.20786">
        <ele>1132.2</ele>
        <time>2022-08-03T09:09:15Z</time>
      </trkpt>
      <trkpt lat="44.64539" lon="3.20784">
        <ele>1132.4</ele>
        <time>2022-08-03T09:09:24Z</time>
      </trkpt>
      <trkpt lat="44.6453" lon="3.20783">
        <ele>1132.6</ele>
        <time>2022-08-03T09:09:31Z</time>
      </trkpt>
      <trkpt lat="44.64524" lon="3.20782">
        <ele>1132.7</ele>
        <time>2022-08-03T09:09:36Z</time>
      </trkpt>
      <trkpt lat="44.64511" lon="3.20782">
        <ele>1132.8</ele>
        <time>2022-08-03T09:09:46Z</time>
      </trkpt>
      <trkpt lat="44.645" lon="3.20785">
        <ele>1132.7</ele>
        <time>2022-08-03T09:09:54Z</time>
      </trkpt>
      <trkpt lat="44.64498" lon="3.20787">
        <ele>1132.8</ele>
        <time>2022-08-03T09:09:56Z</time>
      </trkpt>
      <trkpt lat="44.64487" lon="3.20795">
        <ele>1133.4</ele>
        <time>2022-08-03T09:10:05Z</time>
      </trkpt>
      <trkpt lat="44.64478" lon="3.20804">
        <ele>1134.3</ele>
        <time>2022-08-03T09:10:13Z</time>
      </trkpt>
      <trkpt lat="44.64475" lon="3.20808">
        <ele>1134.8</ele>
        <time>2022-08-03T09:10:17Z</time>
      </trkpt>
      <trkpt lat="44.64472" lon="3.20818">
        <ele>1135</ele>
        <time>2022-08-03T09:10:23Z</time>
      </trkpt>
      <trkpt lat="44.64471" lon="3.2083">
        <ele>1135.1</ele>
        <time>2022-08-03T09:10:31Z</time>
      </trkpt>
      <trkpt lat="44.64473" lon="3.20838">
        <ele>1135.2</ele>
        <time>2022-08-03T09:10:36Z</time>
      </trkpt>
      <trkpt lat="44.64476" lon="3.20841">
        <ele>1135.2</ele>
        <time>2022-08-03T09:10:40Z</time>
      </trkpt>
      <trkpt lat="44.64475" lon="3.2084">
        <ele>1135.2</ele>
        <time>2022-08-03T09:10:41Z</time>
      </trkpt>
      <trkpt lat="44.64476" lon="3.2084">
        <ele>1135.1</ele>
        <time>2022-08-03T09:10:43Z</time>
      </trkpt>
      <trkpt lat="44.64478" lon="3.20844">
        <ele>1135.2</ele>
        <time>2022-08-03T09:10:49Z</time>
      </trkpt>
      <trkpt lat="44.64481" lon="3.20853">
        <ele>1135.7</ele>
        <time>2022-08-03T09:10:55Z</time>
      </trkpt>
      <trkpt lat="44.64489" lon="3.20862">
        <ele>1135.9</ele>
        <time>2022-08-03T09:11:03Z</time>
      </trkpt>
      <trkpt lat="44.64498" lon="3.20869">
        <ele>1136.6</ele>
        <time>2022-08-03T09:11:10Z</time>
      </trkpt>
      <trkpt lat="44.64499" lon="3.20871">
        <ele>1136.8</ele>
        <time>2022-08-03T09:11:11Z</time>
      </trkpt>
      <trkpt lat="44.64503" lon="3.20877">
        <ele>1137.8</ele>
        <time>2022-08-03T09:11:16Z</time>
      </trkpt>
      <trkpt lat="44.64504" lon="3.20878">
        <ele>1137.9</ele>
        <time>2022-08-03T09:11:17Z</time>
      </trkpt>
      <trkpt lat="44.64508" lon="3.20886">
        <ele>1138.9</ele>
        <time>2022-08-03T09:11:23Z</time>
      </trkpt>
      <trkpt lat="44.64509" lon="3.20888">
        <ele>1139.1</ele>
        <time>2022-08-03T09:11:24Z</time>
      </trkpt>
      <trkpt lat="44.6451" lon="3.20889">
        <ele>1139.3</ele>
        <time>2022-08-03T09:11:25Z</time>
      </trkpt>
      <trkpt lat="44.64511" lon="3.20898">
        <ele>1139.2</ele>
        <time>2022-08-03T09:11:32Z</time>
      </trkpt>
      <trkpt lat="44.64512" lon="3.20902">
        <ele>1139.2</ele>
        <time>2022-08-03T09:11:35Z</time>
      </trkpt>
      <trkpt lat="44.64512" lon="3.20905">
        <ele>1139.1</ele>
        <time>2022-08-03T09:11:37Z</time>
      </trkpt>
      <trkpt lat="44.64512" lon="3.20907">
        <ele>1139.2</ele>
        <time>2022-08-03T09:11:38Z</time>
      </trkpt>
      <trkpt lat="44.64511" lon="3.20911">
        <ele>1139.2</ele>
        <time>2022-08-03T09:11:40Z</time>
      </trkpt>
      <trkpt lat="44.64511" lon="3.20918">
        <ele>1139.2</ele>
        <time>2022-08-03T09:11:43Z</time>
      </trkpt>
      <trkpt lat="44.64511" lon="3.20924">
        <ele>1139.1</ele>
        <time>2022-08-03T09:11:46Z</time>
      </trkpt>
      <trkpt lat="44.64511" lon="3.20938">
        <ele>1138.9</ele>
        <time>2022-08-03T09:11:53Z</time>
      </trkpt>
      <trkpt lat="44.6451" lon="3.20944">
        <ele>1138.9</ele>
        <time>2022-08-03T09:11:57Z</time>
      </trkpt>
      <trkpt lat="44.64509" lon="3.20951">
        <ele>1139</ele>
        <time>2022-08-03T09:12:00Z</time>
      </trkpt>
      <trkpt lat="44.64508" lon="3.20953">
        <ele>1139.1</ele>
        <time>2022-08-03T09:12:01Z</time>
      </trkpt>
      <trkpt lat="44.64503" lon="3.20964">
        <ele>1139.7</ele>
        <time>2022-08-03T09:12:07Z</time>
      </trkpt>
      <trkpt lat="44.64494" lon="3.20979">
        <ele>1140.5</ele>
        <time>2022-08-03T09:12:17Z</time>
      </trkpt>
      <trkpt lat="44.64488" lon="3.2099">
        <ele>1140.9</ele>
        <time>2022-08-03T09:12:25Z</time>
      </trkpt>
      <trkpt lat="44.64479" lon="3.21002">
        <ele>1141.9</ele>
        <time>2022-08-03T09:12:37Z</time>
      </trkpt>
      <trkpt lat="44.64477" lon="3.21004">
        <ele>1142</ele>
        <time>2022-08-03T09:12:41Z</time>
      </trkpt>
      <trkpt lat="44.64476" lon="3.21005">
        <ele>1142.1</ele>
        <time>2022-08-03T09:12:43Z</time>
      </trkpt>
      <trkpt lat="44.64475" lon="3.21006">
        <ele>1142.2</ele>
        <time>2022-08-03T09:12:45Z</time>
      </trkpt>
      <trkpt lat="44.64473" lon="3.21007">
        <ele>1142.4</ele>
        <time>2022-08-03T09:12:47Z</time>
      </trkpt>
      <trkpt lat="44.64469" lon="3.21011">
        <ele>1142.5</ele>
        <time>2022-08-03T09:12:51Z</time>
      </trkpt>
      <trkpt lat="44.64463" lon="3.2102">
        <ele>1142.5</ele>
        <time>2022-08-03T09:13:01Z</time>
      </trkpt>
      <trkpt lat="44.64463" lon="3.21021">
        <ele>1142.4</ele>
        <time>2022-08-03T09:13:05Z</time>
      </trkpt>
      <trkpt lat="44.64465" lon="3.21023">
        <ele>1142.1</ele>
        <time>2022-08-03T09:13:07Z</time>
      </trkpt>
      <trkpt lat="44.64465" lon="3.21022">
        <ele>1142.1</ele>
        <time>2022-08-03T09:13:15Z</time>
      </trkpt>
      <trkpt lat="44.6446" lon="3.21026">
        <ele>1142.5</ele>
        <time>2022-08-03T09:13:27Z</time>
      </trkpt>
      <trkpt lat="44.64454" lon="3.21031">
        <ele>1142.7</ele>
        <time>2022-08-03T09:13:31Z</time>
      </trkpt>
      <trkpt lat="44.6445" lon="3.21033">
        <ele>1142.9</ele>
        <time>2022-08-03T09:13:33Z</time>
      </trkpt>
      <trkpt lat="44.64449" lon="3.21033">
        <ele>1143</ele>
        <time>2022-08-03T09:13:35Z</time>
      </trkpt>
      <trkpt lat="44.64448" lon="3.21034">
        <ele>1143</ele>
        <time>2022-08-03T09:13:36Z</time>
      </trkpt>
      <trkpt lat="44.64436" lon="3.21041">
        <ele>1143.3</ele>
        <time>2022-08-03T09:13:45Z</time>
      </trkpt>
      <trkpt lat="44.64425" lon="3.2105">
        <ele>1143.5</ele>
        <time>2022-08-03T09:13:54Z</time>
      </trkpt>
      <trkpt lat="44.64414" lon="3.21054">
        <ele>1144.2</ele>
        <time>2022-08-03T09:14:02Z</time>
      </trkpt>
      <trkpt lat="44.64412" lon="3.21054">
        <ele>1144.3</ele>
        <time>2022-08-03T09:14:04Z</time>
      </trkpt>
      <trkpt lat="44.64406" lon="3.21056">
        <ele>1144.3</ele>
        <time>2022-08-03T09:14:08Z</time>
      </trkpt>
      <trkpt lat="44.64404" lon="3.21056">
        <ele>1144.4</ele>
        <time>2022-08-03T09:14:10Z</time>
      </trkpt>
      <trkpt lat="44.64388" lon="3.21058">
        <ele>1144.9</ele>
        <time>2022-08-03T09:14:22Z</time>
      </trkpt>
      <trkpt lat="44.64375" lon="3.21058">
        <ele>1145.8</ele>
        <time>2022-08-03T09:14:33Z</time>
      </trkpt>
      <trkpt lat="44.64367" lon="3.2106">
        <ele>1146.2</ele>
        <time>2022-08-03T09:14:40Z</time>
      </trkpt>
      <trkpt lat="44.6436" lon="3.2106">
        <ele>1146.5</ele>
        <time>2022-08-03T09:14:45Z</time>
      </trkpt>
      <trkpt lat="44.64347" lon="3.21061">
        <ele>1147</ele>
        <time>2022-08-03T09:14:55Z</time>
      </trkpt>
      <trkpt lat="44.64346" lon="3.21061">
        <ele>1147</ele>
        <time>2022-08-03T09:14:56Z</time>
      </trkpt>
      <trkpt lat="44.64338" lon="3.21062">
        <ele>1147.2</ele>
        <time>2022-08-03T09:15:02Z</time>
      </trkpt>
      <trkpt lat="44.64327" lon="3.21063">
        <ele>1147.5</ele>
        <time>2022-08-03T09:15:11Z</time>
      </trkpt>
      <trkpt lat="44.64318" lon="3.21068">
        <ele>1147.4</ele>
        <time>2022-08-03T09:15:18Z</time>
      </trkpt>
      <trkpt lat="44.64304" lon="3.21081">
        <ele>1147.3</ele>
        <time>2022-08-03T09:15:30Z</time>
      </trkpt>
      <trkpt lat="44.64297" lon="3.21092">
        <ele>1147.8</ele>
        <time>2022-08-03T09:15:39Z</time>
      </trkpt>
      <trkpt lat="44.64296" lon="3.21093">
        <ele>1147.9</ele>
        <time>2022-08-03T09:15:43Z</time>
      </trkpt>
      <trkpt lat="44.64295" lon="3.21095">
        <ele>1148</ele>
        <time>2022-08-03T09:15:45Z</time>
      </trkpt>
      <trkpt lat="44.64291" lon="3.21102">
        <ele>1148.2</ele>
        <time>2022-08-03T09:15:50Z</time>
      </trkpt>
      <trkpt lat="44.64284" lon="3.21115">
        <ele>1148.6</ele>
        <time>2022-08-03T09:16:00Z</time>
      </trkpt>
      <trkpt lat="44.64281" lon="3.21121">
        <ele>1148.8</ele>
        <time>2022-08-03T09:16:04Z</time>
      </trkpt>
      <trkpt lat="44.64279" lon="3.21125">
        <ele>1149</ele>
        <time>2022-08-03T09:16:07Z</time>
      </trkpt>
      <trkpt lat="44.64275" lon="3.21133">
        <ele>1149.1</ele>
        <time>2022-08-03T09:16:12Z</time>
      </trkpt>
      <trkpt lat="44.64263" lon="3.21151">
        <ele>1150</ele>
        <time>2022-08-03T09:16:25Z</time>
      </trkpt>
      <trkpt lat="44.64258" lon="3.21157">
        <ele>1150.4</ele>
        <time>2022-08-03T09:16:30Z</time>
      </trkpt>
      <trkpt lat="44.64257" lon="3.21159">
        <ele>1150.5</ele>
        <time>2022-08-03T09:16:32Z</time>
      </trkpt>
      <trkpt lat="44.64256" lon="3.21161">
        <ele>1150.6</ele>
        <time>2022-08-03T09:16:33Z</time>
      </trkpt>
      <trkpt lat="44.64249" lon="3.21172">
        <ele>1151</ele>
        <time>2022-08-03T09:16:41Z</time>
      </trkpt>
      <trkpt lat="44.64237" lon="3.21187">
        <ele>1150.6</ele>
        <time>2022-08-03T09:16:54Z</time>
      </trkpt>
      <trkpt lat="44.64233" lon="3.21188">
        <ele>1150.5</ele>
        <time>2022-08-03T09:17:00Z</time>
      </trkpt>
      <trkpt lat="44.64227" lon="3.21181">
        <ele>1150.6</ele>
        <time>2022-08-03T09:17:06Z</time>
      </trkpt>
      <trkpt lat="44.64215" lon="3.21169">
        <ele>1150.6</ele>
        <time>2022-08-03T09:17:17Z</time>
      </trkpt>
      <trkpt lat="44.64206" lon="3.2116">
        <ele>1150.6</ele>
        <time>2022-08-03T09:17:25Z</time>
      </trkpt>
      <trkpt lat="44.64198" lon="3.21152">
        <ele>1150.6</ele>
        <time>2022-08-03T09:17:33Z</time>
      </trkpt>
      <trkpt lat="44.64195" lon="3.2115">
        <ele>1150.6</ele>
        <time>2022-08-03T09:17:35Z</time>
      </trkpt>
      <trkpt lat="44.64186" lon="3.21141">
        <ele>1151.2</ele>
        <time>2022-08-03T09:17:44Z</time>
      </trkpt>
      <trkpt lat="44.64179" lon="3.21135">
        <ele>1151.7</ele>
        <time>2022-08-03T09:17:51Z</time>
      </trkpt>
      <trkpt lat="44.64174" lon="3.2113">
        <ele>1152</ele>
        <time>2022-08-03T09:17:56Z</time>
      </trkpt>
      <trkpt lat="44.64172" lon="3.21127">
        <ele>1152.2</ele>
        <time>2022-08-03T09:18:01Z</time>
      </trkpt>
      <trkpt lat="44.64171" lon="3.21127">
        <ele>1152.3</ele>
        <time>2022-08-03T09:18:03Z</time>
      </trkpt>
      <trkpt lat="44.64171" lon="3.21125">
        <ele>1152.3</ele>
        <time>2022-08-03T09:18:13Z</time>
      </trkpt>
      <trkpt lat="44.64164" lon="3.21123">
        <ele>1152.6</ele>
        <time>2022-08-03T09:18:20Z</time>
      </trkpt>
      <trkpt lat="44.6416" lon="3.2112">
        <ele>1152.9</ele>
        <time>2022-08-03T09:18:26Z</time>
      </trkpt>
      <trkpt lat="44.64153" lon="3.21113">
        <ele>1153.4</ele>
        <time>2022-08-03T09:18:33Z</time>
      </trkpt>
      <trkpt lat="44.64149" lon="3.21111">
        <ele>1153.6</ele>
        <time>2022-08-03T09:18:36Z</time>
      </trkpt>
      <trkpt lat="44.64142" lon="3.21107">
        <ele>1154.2</ele>
        <time>2022-08-03T09:18:43Z</time>
      </trkpt>
      <trkpt lat="44.6414" lon="3.21106">
        <ele>1154.3</ele>
        <time>2022-08-03T09:18:44Z</time>
      </trkpt>
      <trkpt lat="44.64134" lon="3.21102">
        <ele>1154.6</ele>
        <time>2022-08-03T09:18:50Z</time>
      </trkpt>
      <trkpt lat="44.64131" lon="3.21101">
        <ele>1154.7</ele>
        <time>2022-08-03T09:18:53Z</time>
      </trkpt>
      <trkpt lat="44.64119" lon="3.21098">
        <ele>1155</ele>
        <time>2022-08-03T09:19:03Z</time>
      </trkpt>
      <trkpt lat="44.64108" lon="3.21095">
        <ele>1155.2</ele>
        <time>2022-08-03T09:19:12Z</time>
      </trkpt>
      <trkpt lat="44.64094" lon="3.21094">
        <ele>1155.6</ele>
        <time>2022-08-03T09:19:23Z</time>
      </trkpt>
      <trkpt lat="44.64088" lon="3.21093">
        <ele>1155.8</ele>
        <time>2022-08-03T09:19:28Z</time>
      </trkpt>
      <trkpt lat="44.64084" lon="3.21093">
        <ele>1156</ele>
        <time>2022-08-03T09:19:31Z</time>
      </trkpt>
      <trkpt lat="44.6407" lon="3.2109">
        <ele>1156.2</ele>
        <time>2022-08-03T09:19:42Z</time>
      </trkpt>
      <trkpt lat="44.64057" lon="3.21088">
        <ele>1156.5</ele>
        <time>2022-08-03T09:19:54Z</time>
      </trkpt>
      <trkpt lat="44.64057" lon="3.21088">
        <ele>1156.5</ele>
        <time>2022-08-03T09:19:55Z</time>
      </trkpt>
      <trkpt lat="44.64057" lon="3.21088">
        <ele>1156.5</ele>
        <time>2022-08-03T09:19:57Z</time>
      </trkpt>
      <trkpt lat="44.64051" lon="3.21089">
        <ele>1156.7</ele>
        <time>2022-08-03T09:20:03Z</time>
      </trkpt>
      <trkpt lat="44.64042" lon="3.21087">
        <ele>1157.6</ele>
        <time>2022-08-03T09:20:10Z</time>
      </trkpt>
      <trkpt lat="44.64039" lon="3.21086">
        <ele>1157.9</ele>
        <time>2022-08-03T09:20:13Z</time>
      </trkpt>
      <trkpt lat="44.64033" lon="3.21085">
        <ele>1158.5</ele>
        <time>2022-08-03T09:20:18Z</time>
      </trkpt>
      <trkpt lat="44.64026" lon="3.21084">
        <ele>1159</ele>
        <time>2022-08-03T09:20:23Z</time>
      </trkpt>
      <trkpt lat="44.64022" lon="3.21083">
        <ele>1159.4</ele>
        <time>2022-08-03T09:20:27Z</time>
      </trkpt>
      <trkpt lat="44.64015" lon="3.21082">
        <ele>1160</ele>
        <time>2022-08-03T09:20:33Z</time>
      </trkpt>
      <trkpt lat="44.64012" lon="3.21082">
        <ele>1160.2</ele>
        <time>2022-08-03T09:20:35Z</time>
      </trkpt>
      <trkpt lat="44.64008" lon="3.21082">
        <ele>1160.5</ele>
        <time>2022-08-03T09:20:39Z</time>
      </trkpt>
      <trkpt lat="44.64002" lon="3.2108">
        <ele>1161.1</ele>
        <time>2022-08-03T09:20:44Z</time>
      </trkpt>
      <trkpt lat="44.64001" lon="3.21079">
        <ele>1161.2</ele>
        <time>2022-08-03T09:20:45Z</time>
      </trkpt>
      <trkpt lat="44.6399" lon="3.21077">
        <ele>1162.3</ele>
        <time>2022-08-03T09:20:55Z</time>
      </trkpt>
      <trkpt lat="44.63984" lon="3.21075">
        <ele>1162.9</ele>
        <time>2022-08-03T09:21:00Z</time>
      </trkpt>
      <trkpt lat="44.63977" lon="3.21075">
        <ele>1163.5</ele>
        <time>2022-08-03T09:21:05Z</time>
      </trkpt>
      <trkpt lat="44.6397" lon="3.21074">
        <ele>1164.2</ele>
        <time>2022-08-03T09:21:11Z</time>
      </trkpt>
      <trkpt lat="44.63963" lon="3.21071">
        <ele>1164.9</ele>
        <time>2022-08-03T09:21:17Z</time>
      </trkpt>
      <trkpt lat="44.63961" lon="3.2107">
        <ele>1165.1</ele>
        <time>2022-08-03T09:21:19Z</time>
      </trkpt>
      <trkpt lat="44.63948" lon="3.21068">
        <ele>1165.9</ele>
        <time>2022-08-03T09:21:29Z</time>
      </trkpt>
      <trkpt lat="44.63944" lon="3.21069">
        <ele>1166.1</ele>
        <time>2022-08-03T09:21:32Z</time>
      </trkpt>
      <trkpt lat="44.63935" lon="3.2107">
        <ele>1166.7</ele>
        <time>2022-08-03T09:21:40Z</time>
      </trkpt>
      <trkpt lat="44.63926" lon="3.21073">
        <ele>1167.1</ele>
        <time>2022-08-03T09:21:48Z</time>
      </trkpt>
      <trkpt lat="44.63915" lon="3.21077">
        <ele>1167.6</ele>
        <time>2022-08-03T09:21:57Z</time>
      </trkpt>
      <trkpt lat="44.63914" lon="3.21077">
        <ele>1167.7</ele>
        <time>2022-08-03T09:21:59Z</time>
      </trkpt>
      <trkpt lat="44.63914" lon="3.21076">
        <ele>1167.8</ele>
        <time>2022-08-03T09:22:01Z</time>
      </trkpt>
      <trkpt lat="44.63912" lon="3.21078">
        <ele>1167.7</ele>
        <time>2022-08-03T09:22:05Z</time>
      </trkpt>
      <trkpt lat="44.6391" lon="3.2108">
        <ele>1167.8</ele>
        <time>2022-08-03T09:22:07Z</time>
      </trkpt>
      <trkpt lat="44.63902" lon="3.21083">
        <ele>1168.1</ele>
        <time>2022-08-03T09:22:14Z</time>
      </trkpt>
      <trkpt lat="44.63888" lon="3.21089">
        <ele>1168.6</ele>
        <time>2022-08-03T09:22:25Z</time>
      </trkpt>
      <trkpt lat="44.63882" lon="3.21091">
        <ele>1169</ele>
        <time>2022-08-03T09:22:30Z</time>
      </trkpt>
      <trkpt lat="44.63877" lon="3.21092">
        <ele>1169.2</ele>
        <time>2022-08-03T09:22:34Z</time>
      </trkpt>
      <trkpt lat="44.63872" lon="3.21093">
        <ele>1169.5</ele>
        <time>2022-08-03T09:22:39Z</time>
      </trkpt>
      <trkpt lat="44.6387" lon="3.21093">
        <ele>1169.6</ele>
        <time>2022-08-03T09:22:40Z</time>
      </trkpt>
      <trkpt lat="44.63863" lon="3.21096">
        <ele>1169.9</ele>
        <time>2022-08-03T09:22:47Z</time>
      </trkpt>
      <trkpt lat="44.63851" lon="3.21102">
        <ele>1170.6</ele>
        <time>2022-08-03T09:22:58Z</time>
      </trkpt>
      <trkpt lat="44.63846" lon="3.21101">
        <ele>1171</ele>
        <time>2022-08-03T09:23:05Z</time>
      </trkpt>
      <trkpt lat="44.63846" lon="3.21101">
        <ele>1171</ele>
        <time>2022-08-03T09:23:06Z</time>
      </trkpt>
      <trkpt lat="44.6384" lon="3.21107">
        <ele>1170.9</ele>
        <time>2022-08-03T09:23:13Z</time>
      </trkpt>
      <trkpt lat="44.63835" lon="3.2111">
        <ele>1171</ele>
        <time>2022-08-03T09:23:19Z</time>
      </trkpt>
      <trkpt lat="44.63834" lon="3.2111">
        <ele>1171.1</ele>
        <time>2022-08-03T09:23:24Z</time>
      </trkpt>
      <trkpt lat="44.63824" lon="3.21114">
        <ele>1171</ele>
        <time>2022-08-03T09:23:31Z</time>
      </trkpt>
      <trkpt lat="44.63814" lon="3.21117">
        <ele>1171.1</ele>
        <time>2022-08-03T09:23:39Z</time>
      </trkpt>
      <trkpt lat="44.63804" lon="3.2112">
        <ele>1171.2</ele>
        <time>2022-08-03T09:23:47Z</time>
      </trkpt>
      <trkpt lat="44.638" lon="3.21121">
        <ele>1171.3</ele>
        <time>2022-08-03T09:23:50Z</time>
      </trkpt>
      <trkpt lat="44.63794" lon="3.21125">
        <ele>1171.3</ele>
        <time>2022-08-03T09:23:55Z</time>
      </trkpt>
      <trkpt lat="44.63785" lon="3.21127">
        <ele>1171.7</ele>
        <time>2022-08-03T09:24:02Z</time>
      </trkpt>
      <trkpt lat="44.63783" lon="3.21127">
        <ele>1171.9</ele>
        <time>2022-08-03T09:24:04Z</time>
      </trkpt>
      <trkpt lat="44.6378" lon="3.21127">
        <ele>1172.1</ele>
        <time>2022-08-03T09:24:06Z</time>
      </trkpt>
      <trkpt lat="44.6377" lon="3.21128">
        <ele>1172.9</ele>
        <time>2022-08-03T09:24:14Z</time>
      </trkpt>
      <trkpt lat="44.63766" lon="3.21128">
        <ele>1173.2</ele>
        <time>2022-08-03T09:24:16Z</time>
      </trkpt>
      <trkpt lat="44.63756" lon="3.21127">
        <ele>1174.3</ele>
        <time>2022-08-03T09:24:24Z</time>
      </trkpt>
      <trkpt lat="44.63752" lon="3.21125">
        <ele>1174.8</ele>
        <time>2022-08-03T09:24:27Z</time>
      </trkpt>
      <trkpt lat="44.63748" lon="3.21125">
        <ele>1175.2</ele>
        <time>2022-08-03T09:24:31Z</time>
      </trkpt>
      <trkpt lat="44.63737" lon="3.21125">
        <ele>1176.3</ele>
        <time>2022-08-03T09:24:41Z</time>
      </trkpt>
      <trkpt lat="44.63726" lon="3.21125">
        <ele>1177.3</ele>
        <time>2022-08-03T09:24:49Z</time>
      </trkpt>
      <trkpt lat="44.63725" lon="3.21125">
        <ele>1177.2</ele>
        <time>2022-08-03T09:24:50Z</time>
      </trkpt>
      <trkpt lat="44.63719" lon="3.21126">
        <ele>1177.6</ele>
        <time>2022-08-03T09:24:55Z</time>
      </trkpt>
      <trkpt lat="44.63718" lon="3.21127">
        <ele>1177.6</ele>
        <time>2022-08-03T09:24:56Z</time>
      </trkpt>
      <trkpt lat="44.63715" lon="3.21126">
        <ele>1177.9</ele>
        <time>2022-08-03T09:24:58Z</time>
      </trkpt>
      <trkpt lat="44.63711" lon="3.21129">
        <ele>1177.7</ele>
        <time>2022-08-03T09:25:01Z</time>
      </trkpt>
      <trkpt lat="44.63707" lon="3.2113">
        <ele>1177.9</ele>
        <time>2022-08-03T09:25:03Z</time>
      </trkpt>
      <trkpt lat="44.63707" lon="3.21131">
        <ele>1177.7</ele>
        <time>2022-08-03T09:25:05Z</time>
      </trkpt>
      <trkpt lat="44.63701" lon="3.21132">
        <ele>1178</ele>
        <time>2022-08-03T09:25:08Z</time>
      </trkpt>
      <trkpt lat="44.63696" lon="3.21135">
        <ele>1177.7</ele>
        <time>2022-08-03T09:25:12Z</time>
      </trkpt>
      <trkpt lat="44.63691" lon="3.21136">
        <ele>1178</ele>
        <time>2022-08-03T09:25:15Z</time>
      </trkpt>
      <trkpt lat="44.6369" lon="3.21136">
        <ele>1178</ele>
        <time>2022-08-03T09:25:16Z</time>
      </trkpt>
      <trkpt lat="44.63689" lon="3.21137">
        <ele>1178.1</ele>
        <time>2022-08-03T09:25:17Z</time>
      </trkpt>
      <trkpt lat="44.63683" lon="3.21137">
        <ele>1178.7</ele>
        <time>2022-08-03T09:25:22Z</time>
      </trkpt>
      <trkpt lat="44.63676" lon="3.2114">
        <ele>1178.9</ele>
        <time>2022-08-03T09:25:27Z</time>
      </trkpt>
      <trkpt lat="44.63675" lon="3.2114">
        <ele>1179</ele>
        <time>2022-08-03T09:25:28Z</time>
      </trkpt>
      <trkpt lat="44.63664" lon="3.2115">
        <ele>1179.1</ele>
        <time>2022-08-03T09:25:38Z</time>
      </trkpt>
      <trkpt lat="44.63656" lon="3.21155">
        <ele>1179.6</ele>
        <time>2022-08-03T09:25:47Z</time>
      </trkpt>
      <trkpt lat="44.63656" lon="3.21155">
        <ele>1179.6</ele>
        <time>2022-08-03T09:25:49Z</time>
      </trkpt>
      <trkpt lat="44.63655" lon="3.21156">
        <ele>1179.7</ele>
        <time>2022-08-03T09:25:51Z</time>
      </trkpt>
      <trkpt lat="44.63654" lon="3.21157">
        <ele>1179.5</ele>
        <time>2022-08-03T09:25:53Z</time>
      </trkpt>
      <trkpt lat="44.63654" lon="3.21158">
        <ele>1179.5</ele>
        <time>2022-08-03T09:25:54Z</time>
      </trkpt>
      <trkpt lat="44.63654" lon="3.21159">
        <ele>1179.4</ele>
        <time>2022-08-03T09:25:55Z</time>
      </trkpt>
      <trkpt lat="44.63653" lon="3.21161">
        <ele>1179.2</ele>
        <time>2022-08-03T09:25:58Z</time>
      </trkpt>
      <trkpt lat="44.63652" lon="3.2116">
        <ele>1179.4</ele>
        <time>2022-08-03T09:26:00Z</time>
      </trkpt>
      <trkpt lat="44.63651" lon="3.21162">
        <ele>1179.2</ele>
        <time>2022-08-03T09:26:06Z</time>
      </trkpt>
      <trkpt lat="44.63649" lon="3.21167">
        <ele>1178.9</ele>
        <time>2022-08-03T09:26:16Z</time>
      </trkpt>
      <trkpt lat="44.63643" lon="3.21174">
        <ele>1178.5</ele>
        <time>2022-08-03T09:26:23Z</time>
      </trkpt>
      <trkpt lat="44.63638" lon="3.21179">
        <ele>1178.5</ele>
        <time>2022-08-03T09:26:28Z</time>
      </trkpt>
      <trkpt lat="44.63637" lon="3.2118">
        <ele>1178.5</ele>
        <time>2022-08-03T09:26:29Z</time>
      </trkpt>
      <trkpt lat="44.63634" lon="3.21183">
        <ele>1178.5</ele>
        <time>2022-08-03T09:26:32Z</time>
      </trkpt>
      <trkpt lat="44.63627" lon="3.21195">
        <ele>1178.1</ele>
        <time>2022-08-03T09:26:42Z</time>
      </trkpt>
      <trkpt lat="44.63622" lon="3.212">
        <ele>1178.2</ele>
        <time>2022-08-03T09:26:47Z</time>
      </trkpt>
      <trkpt lat="44.63621" lon="3.21202">
        <ele>1178.1</ele>
        <time>2022-08-03T09:26:49Z</time>
      </trkpt>
      <trkpt lat="44.6362" lon="3.21203">
        <ele>1178.2</ele>
        <time>2022-08-03T09:26:50Z</time>
      </trkpt>
      <trkpt lat="44.63617" lon="3.21205">
        <ele>1178.2</ele>
        <time>2022-08-03T09:26:52Z</time>
      </trkpt>
      <trkpt lat="44.63615" lon="3.21209">
        <ele>1177.8</ele>
        <time>2022-08-03T09:26:55Z</time>
      </trkpt>
      <trkpt lat="44.63607" lon="3.21224">
        <ele>1176.5</ele>
        <time>2022-08-03T09:27:04Z</time>
      </trkpt>
      <trkpt lat="44.63593" lon="3.21238">
        <ele>1175.8</ele>
        <time>2022-08-03T09:27:16Z</time>
      </trkpt>
      <trkpt lat="44.63592" lon="3.21238">
        <ele>1175.8</ele>
        <time>2022-08-03T09:27:17Z</time>
      </trkpt>
      <trkpt lat="44.63585" lon="3.21243">
        <ele>1175.6</ele>
        <time>2022-08-03T09:27:22Z</time>
      </trkpt>
      <trkpt lat="44.63576" lon="3.21249">
        <ele>1175.2</ele>
        <time>2022-08-03T09:27:29Z</time>
      </trkpt>
      <trkpt lat="44.63573" lon="3.2125">
        <ele>1175.4</ele>
        <time>2022-08-03T09:27:31Z</time>
      </trkpt>
      <trkpt lat="44.63571" lon="3.21251">
        <ele>1175.6</ele>
        <time>2022-08-03T09:27:33Z</time>
      </trkpt>
      <trkpt lat="44.63569" lon="3.21252">
        <ele>1175.6</ele>
        <time>2022-08-03T09:27:35Z</time>
      </trkpt>
      <trkpt lat="44.63558" lon="3.21255">
        <ele>1176.5</ele>
        <time>2022-08-03T09:27:43Z</time>
      </trkpt>
      <trkpt lat="44.63546" lon="3.21256">
        <ele>1177.2</ele>
        <time>2022-08-03T09:27:52Z</time>
      </trkpt>
      <trkpt lat="44.63533" lon="3.21257">
        <ele>1178.1</ele>
        <time>2022-08-03T09:28:01Z</time>
      </trkpt>
      <trkpt lat="44.63526" lon="3.21259">
        <ele>1178</ele>
        <time>2022-08-03T09:28:06Z</time>
      </trkpt>
      <trkpt lat="44.63523" lon="3.2126">
        <ele>1178.1</ele>
        <time>2022-08-03T09:28:08Z</time>
      </trkpt>
      <trkpt lat="44.63514" lon="3.2126">
        <ele>1178.3</ele>
        <time>2022-08-03T09:28:15Z</time>
      </trkpt>
      <trkpt lat="44.63506" lon="3.21262">
        <ele>1178.2</ele>
        <time>2022-08-03T09:28:21Z</time>
      </trkpt>
      <trkpt lat="44.635" lon="3.21262">
        <ele>1178.4</ele>
        <time>2022-08-03T09:28:25Z</time>
      </trkpt>
      <trkpt lat="44.63489" lon="3.21261">
        <ele>1178.4</ele>
        <time>2022-08-03T09:28:34Z</time>
      </trkpt>
      <trkpt lat="44.63488" lon="3.21261">
        <ele>1178.5</ele>
        <time>2022-08-03T09:28:35Z</time>
      </trkpt>
      <trkpt lat="44.63479" lon="3.21259">
        <ele>1178.5</ele>
        <time>2022-08-03T09:28:41Z</time>
      </trkpt>
      <trkpt lat="44.63468" lon="3.21256">
        <ele>1178.5</ele>
        <time>2022-08-03T09:28:50Z</time>
      </trkpt>
      <trkpt lat="44.63457" lon="3.2125">
        <ele>1178.3</ele>
        <time>2022-08-03T09:28:59Z</time>
      </trkpt>
      <trkpt lat="44.63449" lon="3.21245">
        <ele>1178.5</ele>
        <time>2022-08-03T09:29:06Z</time>
      </trkpt>
      <trkpt lat="44.63447" lon="3.21243">
        <ele>1178.7</ele>
        <time>2022-08-03T09:29:08Z</time>
      </trkpt>
      <trkpt lat="44.63444" lon="3.21242">
        <ele>1178.4</ele>
        <time>2022-08-03T09:29:10Z</time>
      </trkpt>
      <trkpt lat="44.63443" lon="3.21242">
        <ele>1178.3</ele>
        <time>2022-08-03T09:29:11Z</time>
      </trkpt>
      <trkpt lat="44.6344" lon="3.21239">
        <ele>1178.2</ele>
        <time>2022-08-03T09:29:14Z</time>
      </trkpt>
      <trkpt lat="44.63431" lon="3.21236">
        <ele>1177.3</ele>
        <time>2022-08-03T09:29:20Z</time>
      </trkpt>
      <trkpt lat="44.63425" lon="3.21234">
        <ele>1176.7</ele>
        <time>2022-08-03T09:29:25Z</time>
      </trkpt>
      <trkpt lat="44.63424" lon="3.21233">
        <ele>1176.5</ele>
        <time>2022-08-03T09:29:26Z</time>
      </trkpt>
      <trkpt lat="44.63417" lon="3.21232">
        <ele>1175.3</ele>
        <time>2022-08-03T09:29:31Z</time>
      </trkpt>
      <trkpt lat="44.63414" lon="3.21231">
        <ele>1175.1</ele>
        <time>2022-08-03T09:29:34Z</time>
      </trkpt>
      <trkpt lat="44.63403" lon="3.21227">
        <ele>1174.3</ele>
        <time>2022-08-03T09:29:42Z</time>
      </trkpt>
      <trkpt lat="44.63399" lon="3.21225">
        <ele>1174</ele>
        <time>2022-08-03T09:29:45Z</time>
      </trkpt>
      <trkpt lat="44.63389" lon="3.21222">
        <ele>1173</ele>
        <time>2022-08-03T09:29:53Z</time>
      </trkpt>
      <trkpt lat="44.63382" lon="3.21218">
        <ele>1172.9</ele>
        <time>2022-08-03T09:29:58Z</time>
      </trkpt>
      <trkpt lat="44.63379" lon="3.21217">
        <ele>1172.8</ele>
        <time>2022-08-03T09:30:01Z</time>
      </trkpt>
      <trkpt lat="44.63377" lon="3.21215">
        <ele>1172.9</ele>
        <time>2022-08-03T09:30:02Z</time>
      </trkpt>
      <trkpt lat="44.63375" lon="3.21212">
        <ele>1172.9</ele>
        <time>2022-08-03T09:30:05Z</time>
      </trkpt>
      <trkpt lat="44.63374" lon="3.21211">
        <ele>1172.9</ele>
        <time>2022-08-03T09:30:06Z</time>
      </trkpt>
      <trkpt lat="44.6337" lon="3.21208">
        <ele>1172.8</ele>
        <time>2022-08-03T09:30:13Z</time>
      </trkpt>
      <trkpt lat="44.63371" lon="3.21208">
        <ele>1172.9</ele>
        <time>2022-08-03T09:30:17Z</time>
      </trkpt>
      <trkpt lat="44.63371" lon="3.21209">
        <ele>1172.9</ele>
        <time>2022-08-03T09:30:21Z</time>
      </trkpt>
      <trkpt lat="44.63369" lon="3.21206">
        <ele>1172.9</ele>
        <time>2022-08-03T09:30:31Z</time>
      </trkpt>
      <trkpt lat="44.63369" lon="3.21206">
        <ele>1172.9</ele>
        <time>2022-08-03T09:30:39Z</time>
      </trkpt>
      <trkpt lat="44.63365" lon="3.21202">
        <ele>1172.8</ele>
        <time>2022-08-03T09:30:44Z</time>
      </trkpt>
      <trkpt lat="44.63354" lon="3.21191">
        <ele>1172.3</ele>
        <time>2022-08-03T09:30:53Z</time>
      </trkpt>
      <trkpt lat="44.6335" lon="3.21186">
        <ele>1172.2</ele>
        <time>2022-08-03T09:30:58Z</time>
      </trkpt>
      <trkpt lat="44.63348" lon="3.21186">
        <ele>1171.9</ele>
        <time>2022-08-03T09:31:01Z</time>
      </trkpt>
      <trkpt lat="44.63339" lon="3.2118">
        <ele>1171.7</ele>
        <time>2022-08-03T09:31:08Z</time>
      </trkpt>
      <trkpt lat="44.63325" lon="3.2117">
        <ele>1172.2</ele>
        <time>2022-08-03T09:31:20Z</time>
      </trkpt>
      <trkpt lat="44.63315" lon="3.21167">
        <ele>1172.2</ele>
        <time>2022-08-03T09:31:28Z</time>
      </trkpt>
      <trkpt lat="44.63305" lon="3.21165">
        <ele>1172.3</ele>
        <time>2022-08-03T09:31:36Z</time>
      </trkpt>
      <trkpt lat="44.63296" lon="3.21157">
        <ele>1173.2</ele>
        <time>2022-08-03T09:31:45Z</time>
      </trkpt>
      <trkpt lat="44.63293" lon="3.21155">
        <ele>1173.4</ele>
        <time>2022-08-03T09:31:48Z</time>
      </trkpt>
      <trkpt lat="44.63291" lon="3.21153">
        <ele>1173.7</ele>
        <time>2022-08-03T09:31:50Z</time>
      </trkpt>
      <trkpt lat="44.63288" lon="3.21149">
        <ele>1174.2</ele>
        <time>2022-08-03T09:31:53Z</time>
      </trkpt>
      <trkpt lat="44.63281" lon="3.21141">
        <ele>1174.9</ele>
        <time>2022-08-03T09:32:00Z</time>
      </trkpt>
      <trkpt lat="44.63277" lon="3.21137">
        <ele>1175.2</ele>
        <time>2022-08-03T09:32:05Z</time>
      </trkpt>
      <trkpt lat="44.63273" lon="3.21134">
        <ele>1175.3</ele>
        <time>2022-08-03T09:32:08Z</time>
      </trkpt>
      <trkpt lat="44.63264" lon="3.21128">
        <ele>1175.3</ele>
        <time>2022-08-03T09:32:16Z</time>
      </trkpt>
      <trkpt lat="44.63257" lon="3.2112">
        <ele>1175.7</ele>
        <time>2022-08-03T09:32:23Z</time>
      </trkpt>
      <trkpt lat="44.63256" lon="3.21118">
        <ele>1175.8</ele>
        <time>2022-08-03T09:32:24Z</time>
      </trkpt>
      <trkpt lat="44.63253" lon="3.21113">
        <ele>1176.1</ele>
        <time>2022-08-03T09:32:28Z</time>
      </trkpt>
      <trkpt lat="44.63251" lon="3.21108">
        <ele>1176.4</ele>
        <time>2022-08-03T09:32:31Z</time>
      </trkpt>
      <trkpt lat="44.63245" lon="3.21094">
        <ele>1177.3</ele>
        <time>2022-08-03T09:32:41Z</time>
      </trkpt>
      <trkpt lat="44.63237" lon="3.21079">
        <ele>1177.9</ele>
        <time>2022-08-03T09:32:51Z</time>
      </trkpt>
      <trkpt lat="44.63231" lon="3.21076">
        <ele>1177.3</ele>
        <time>2022-08-03T09:32:58Z</time>
      </trkpt>
      <trkpt lat="44.63224" lon="3.21077">
        <ele>1176.6</ele>
        <time>2022-08-03T09:33:06Z</time>
      </trkpt>
      <trkpt lat="44.63224" lon="3.21077">
        <ele>1176.7</ele>
        <time>2022-08-03T09:33:07Z</time>
      </trkpt>
      <trkpt lat="44.63224" lon="3.21077">
        <ele>1176.7</ele>
        <time>2022-08-03T09:33:09Z</time>
      </trkpt>
      <trkpt lat="44.63224" lon="3.21077">
        <ele>1176.6</ele>
        <time>2022-08-03T09:33:11Z</time>
      </trkpt>
      <trkpt lat="44.63218" lon="3.21083">
        <ele>1175.9</ele>
        <time>2022-08-03T09:33:17Z</time>
      </trkpt>
      <trkpt lat="44.63211" lon="3.21091">
        <ele>1175</ele>
        <time>2022-08-03T09:33:24Z</time>
      </trkpt>
      <trkpt lat="44.63206" lon="3.21094">
        <ele>1174.5</ele>
        <time>2022-08-03T09:33:30Z</time>
      </trkpt>
      <trkpt lat="44.63204" lon="3.21094">
        <ele>1174.3</ele>
        <time>2022-08-03T09:33:33Z</time>
      </trkpt>
      <trkpt lat="44.63199" lon="3.21096">
        <ele>1173.9</ele>
        <time>2022-08-03T09:33:37Z</time>
      </trkpt>
      <trkpt lat="44.6319" lon="3.21092">
        <ele>1173.4</ele>
        <time>2022-08-03T09:33:44Z</time>
      </trkpt>
      <trkpt lat="44.63183" lon="3.21079">
        <ele>1172.9</ele>
        <time>2022-08-03T09:33:53Z</time>
      </trkpt>
      <trkpt lat="44.63178" lon="3.21064">
        <ele>1172</ele>
        <time>2022-08-03T09:34:02Z</time>
      </trkpt>
      <trkpt lat="44.63177" lon="3.21063">
        <ele>1171.8</ele>
        <time>2022-08-03T09:34:03Z</time>
      </trkpt>
      <trkpt lat="44.63172" lon="3.2105">
        <ele>1171.3</ele>
        <time>2022-08-03T09:34:10Z</time>
      </trkpt>
      <trkpt lat="44.63167" lon="3.21043">
        <ele>1171</ele>
        <time>2022-08-03T09:34:15Z</time>
      </trkpt>
      <trkpt lat="44.63163" lon="3.21039">
        <ele>1170.7</ele>
        <time>2022-08-03T09:34:19Z</time>
      </trkpt>
      <trkpt lat="44.63157" lon="3.21034">
        <ele>1170.3</ele>
        <time>2022-08-03T09:34:24Z</time>
      </trkpt>
      <trkpt lat="44.63155" lon="3.21033">
        <ele>1170.1</ele>
        <time>2022-08-03T09:34:26Z</time>
      </trkpt>
      <trkpt lat="44.63149" lon="3.21028">
        <ele>1169.4</ele>
        <time>2022-08-03T09:34:32Z</time>
      </trkpt>
      <trkpt lat="44.63148" lon="3.21027">
        <ele>1169.3</ele>
        <time>2022-08-03T09:34:35Z</time>
      </trkpt>
      <trkpt lat="44.63147" lon="3.21026">
        <ele>1169.2</ele>
        <time>2022-08-03T09:34:37Z</time>
      </trkpt>
      <trkpt lat="44.63144" lon="3.21023">
        <ele>1169</ele>
        <time>2022-08-03T09:34:40Z</time>
      </trkpt>
      <trkpt lat="44.63135" lon="3.2102">
        <ele>1167.8</ele>
        <time>2022-08-03T09:34:49Z</time>
      </trkpt>
      <trkpt lat="44.63134" lon="3.2102">
        <ele>1167.7</ele>
        <time>2022-08-03T09:34:50Z</time>
      </trkpt>
      <trkpt lat="44.63127" lon="3.21013">
        <ele>1166.7</ele>
        <time>2022-08-03T09:34:57Z</time>
      </trkpt>
      <trkpt lat="44.63123" lon="3.21009">
        <ele>1166.2</ele>
        <time>2022-08-03T09:35:01Z</time>
      </trkpt>
      <trkpt lat="44.63123" lon="3.21007">
        <ele>1166.1</ele>
        <time>2022-08-03T09:35:02Z</time>
      </trkpt>
      <trkpt lat="44.63115" lon="3.20989">
        <ele>1164.8</ele>
        <time>2022-08-03T09:35:12Z</time>
      </trkpt>
      <trkpt lat="44.63114" lon="3.20984">
        <ele>1164.5</ele>
        <time>2022-08-03T09:35:16Z</time>
      </trkpt>
      <trkpt lat="44.63112" lon="3.2098">
        <ele>1164.1</ele>
        <time>2022-08-03T09:35:19Z</time>
      </trkpt>
      <trkpt lat="44.6311" lon="3.20976">
        <ele>1163.8</ele>
        <time>2022-08-03T09:35:22Z</time>
      </trkpt>
      <trkpt lat="44.63104" lon="3.20966">
        <ele>1162.7</ele>
        <time>2022-08-03T09:35:29Z</time>
      </trkpt>
      <trkpt lat="44.63104" lon="3.20965">
        <ele>1162.6</ele>
        <time>2022-08-03T09:35:30Z</time>
      </trkpt>
      <trkpt lat="44.63099" lon="3.20957">
        <ele>1162</ele>
        <time>2022-08-03T09:35:37Z</time>
      </trkpt>
      <trkpt lat="44.63096" lon="3.20953">
        <ele>1161.7</ele>
        <time>2022-08-03T09:35:41Z</time>
      </trkpt>
      <trkpt lat="44.63091" lon="3.20952">
        <ele>1161.3</ele>
        <time>2022-08-03T09:35:45Z</time>
      </trkpt>
      <trkpt lat="44.63086" lon="3.20949">
        <ele>1160.9</ele>
        <time>2022-08-03T09:35:52Z</time>
      </trkpt>
      <trkpt lat="44.63084" lon="3.20948">
        <ele>1160.8</ele>
        <time>2022-08-03T09:35:54Z</time>
      </trkpt>
      <trkpt lat="44.63083" lon="3.20947">
        <ele>1160.8</ele>
        <time>2022-08-03T09:35:55Z</time>
      </trkpt>
      <trkpt lat="44.63081" lon="3.20947">
        <ele>1160.8</ele>
        <time>2022-08-03T09:35:57Z</time>
      </trkpt>
      <trkpt lat="44.63074" lon="3.20947">
        <ele>1160.8</ele>
        <time>2022-08-03T09:36:02Z</time>
      </trkpt>
      <trkpt lat="44.63064" lon="3.2094">
        <ele>1161.1</ele>
        <time>2022-08-03T09:36:11Z</time>
      </trkpt>
      <trkpt lat="44.63055" lon="3.20932">
        <ele>1161.4</ele>
        <time>2022-08-03T09:36:19Z</time>
      </trkpt>
      <trkpt lat="44.63053" lon="3.20931">
        <ele>1161.4</ele>
        <time>2022-08-03T09:36:20Z</time>
      </trkpt>
      <trkpt lat="44.63045" lon="3.20925">
        <ele>1161.6</ele>
        <time>2022-08-03T09:36:28Z</time>
      </trkpt>
      <trkpt lat="44.63043" lon="3.20924">
        <ele>1161.6</ele>
        <time>2022-08-03T09:36:30Z</time>
      </trkpt>
      <trkpt lat="44.63042" lon="3.20925">
        <ele>1161.6</ele>
        <time>2022-08-03T09:36:33Z</time>
      </trkpt>
      <trkpt lat="44.63041" lon="3.20925">
        <ele>1161.6</ele>
        <time>2022-08-03T09:36:34Z</time>
      </trkpt>
      <trkpt lat="44.63041" lon="3.20925">
        <ele>1161.6</ele>
        <time>2022-08-03T09:36:35Z</time>
      </trkpt>
      <trkpt lat="44.63037" lon="3.20925">
        <ele>1161.5</ele>
        <time>2022-08-03T09:36:39Z</time>
      </trkpt>
      <trkpt lat="44.63034" lon="3.20926">
        <ele>1161.4</ele>
        <time>2022-08-03T09:36:42Z</time>
      </trkpt>
      <trkpt lat="44.6303" lon="3.20928">
        <ele>1161.2</ele>
        <time>2022-08-03T09:36:48Z</time>
      </trkpt>
      <trkpt lat="44.6303" lon="3.20929">
        <ele>1161.2</ele>
        <time>2022-08-03T09:36:50Z</time>
      </trkpt>
      <trkpt lat="44.6303" lon="3.2093">
        <ele>1161.1</ele>
        <time>2022-08-03T09:36:51Z</time>
      </trkpt>
      <trkpt lat="44.63031" lon="3.2093">
        <ele>1161.1</ele>
        <time>2022-08-03T09:36:53Z</time>
      </trkpt>
      <trkpt lat="44.63032" lon="3.20929">
        <ele>1161.2</ele>
        <time>2022-08-03T09:36:55Z</time>
      </trkpt>
      <trkpt lat="44.6303" lon="3.20928">
        <ele>1161.3</ele>
        <time>2022-08-03T09:37:09Z</time>
      </trkpt>
      <trkpt lat="44.63021" lon="3.20926">
        <ele>1160.8</ele>
        <time>2022-08-03T09:37:15Z</time>
      </trkpt>
      <trkpt lat="44.6302" lon="3.20926">
        <ele>1160.8</ele>
        <time>2022-08-03T09:37:16Z</time>
      </trkpt>
      <trkpt lat="44.6302" lon="3.20927">
        <ele>1160.7</ele>
        <time>2022-08-03T09:37:17Z</time>
      </trkpt>
      <trkpt lat="44.63014" lon="3.20928">
        <ele>1160.2</ele>
        <time>2022-08-03T09:37:22Z</time>
      </trkpt>
      <trkpt lat="44.63014" lon="3.20928">
        <ele>1160.2</ele>
        <time>2022-08-03T09:37:24Z</time>
      </trkpt>
      <trkpt lat="44.63014" lon="3.20928">
        <ele>1160.2</ele>
        <time>2022-08-03T09:37:26Z</time>
      </trkpt>
      <trkpt lat="44.63014" lon="3.20929">
        <ele>1160.1</ele>
        <time>2022-08-03T09:37:27Z</time>
      </trkpt>
      <trkpt lat="44.63008" lon="3.20925">
        <ele>1160</ele>
        <time>2022-08-03T09:37:34Z</time>
      </trkpt>
      <trkpt lat="44.6301" lon="3.20919">
        <ele>1160.6</ele>
        <time>2022-08-03T09:37:40Z</time>
      </trkpt>
      <trkpt lat="44.63009" lon="3.20918">
        <ele>1160.5</ele>
        <time>2022-08-03T09:37:45Z</time>
      </trkpt>
      <trkpt lat="44.63008" lon="3.20917">
        <ele>1160.6</ele>
        <time>2022-08-03T09:37:52Z</time>
      </trkpt>
      <trkpt lat="44.63008" lon="3.20918">
        <ele>1160.5</ele>
        <time>2022-08-03T09:38:00Z</time>
      </trkpt>
      <trkpt lat="44.63007" lon="3.2092">
        <ele>1160.2</ele>
        <time>2022-08-03T09:38:07Z</time>
      </trkpt>
      <trkpt lat="44.63007" lon="3.2092">
        <ele>1160.2</ele>
        <time>2022-08-03T09:38:09Z</time>
      </trkpt>
      <trkpt lat="44.63008" lon="3.20921">
        <ele>1160.3</ele>
        <time>2022-08-03T09:38:44Z</time>
      </trkpt>
      <trkpt lat="44.63008" lon="3.2092">
        <ele>1160.4</ele>
        <time>2022-08-03T09:39:50Z</time>
      </trkpt>
      <trkpt lat="44.63008" lon="3.20919">
        <ele>1160.4</ele>
        <time>2022-08-03T09:40:17Z</time>
      </trkpt>
      <trkpt lat="44.63008" lon="3.20919">
        <ele>1160.4</ele>
        <time>2022-08-03T09:40:30Z</time>
      </trkpt>
      <trkpt lat="44.63009" lon="3.2092">
        <ele>1160.4</ele>
        <time>2022-08-03T09:41:14Z</time>
      </trkpt>
      <trkpt lat="44.63009" lon="3.2092">
        <ele>1160.4</ele>
        <time>2022-08-03T09:41:34Z</time>
      </trkpt>
      <trkpt lat="44.63009" lon="3.2092">
        <ele>1160.4</ele>
        <time>2022-08-03T09:43:15Z</time>
      </trkpt>
      <trkpt lat="44.63009" lon="3.20922">
        <ele>1160.3</ele>
        <time>2022-08-03T09:43:24Z</time>
      </trkpt>
      <trkpt lat="44.6301" lon="3.20926">
        <ele>1160.1</ele>
        <time>2022-08-03T09:43:29Z</time>
      </trkpt>
      <trkpt lat="44.6301" lon="3.20925">
        <ele>1160.1</ele>
        <time>2022-08-03T09:43:36Z</time>
      </trkpt>
      <trkpt lat="44.63009" lon="3.20926">
        <ele>1160</ele>
        <time>2022-08-03T09:43:41Z</time>
      </trkpt>
      <trkpt lat="44.63009" lon="3.20925">
        <ele>1160</ele>
        <time>2022-08-03T09:43:47Z</time>
      </trkpt>
      <trkpt lat="44.63008" lon="3.20923">
        <ele>1160.1</ele>
        <time>2022-08-03T09:44:24Z</time>
      </trkpt>
      <trkpt lat="44.63004" lon="3.2093">
        <ele>1159.4</ele>
        <time>2022-08-03T09:45:18Z</time>
      </trkpt>
      <trkpt lat="44.63001" lon="3.20942">
        <ele>1158.2</ele>
        <time>2022-08-03T09:45:23Z</time>
      </trkpt>
      <trkpt lat="44.63001" lon="3.20946">
        <ele>1158</ele>
        <time>2022-08-03T09:45:25Z</time>
      </trkpt>
      <trkpt lat="44.63001" lon="3.2096">
        <ele>1157.5</ele>
        <time>2022-08-03T09:45:33Z</time>
      </trkpt>
      <trkpt lat="44.63" lon="3.20967">
        <ele>1157.2</ele>
        <time>2022-08-03T09:45:37Z</time>
      </trkpt>
      <trkpt lat="44.63" lon="3.20971">
        <ele>1157</ele>
        <time>2022-08-03T09:45:40Z</time>
      </trkpt>
      <trkpt lat="44.62998" lon="3.20976">
        <ele>1156.7</ele>
        <time>2022-08-03T09:45:43Z</time>
      </trkpt>
      <trkpt lat="44.62996" lon="3.20979">
        <ele>1156.5</ele>
        <time>2022-08-03T09:45:45Z</time>
      </trkpt>
      <trkpt lat="44.62993" lon="3.20982">
        <ele>1156.2</ele>
        <time>2022-08-03T09:45:48Z</time>
      </trkpt>
      <trkpt lat="44.62987" lon="3.20987">
        <ele>1156</ele>
        <time>2022-08-03T09:45:53Z</time>
      </trkpt>
      <trkpt lat="44.62984" lon="3.20988">
        <ele>1156</ele>
        <time>2022-08-03T09:45:55Z</time>
      </trkpt>
      <trkpt lat="44.62976" lon="3.20997">
        <ele>1155.9</ele>
        <time>2022-08-03T09:46:04Z</time>
      </trkpt>
      <trkpt lat="44.62975" lon="3.20999">
        <ele>1155.9</ele>
        <time>2022-08-03T09:46:06Z</time>
      </trkpt>
      <trkpt lat="44.62975" lon="3.21">
        <ele>1155.9</ele>
        <time>2022-08-03T09:46:09Z</time>
      </trkpt>
      <trkpt lat="44.62975" lon="3.21">
        <ele>1155.9</ele>
        <time>2022-08-03T09:46:10Z</time>
      </trkpt>
      <trkpt lat="44.62974" lon="3.21">
        <ele>1156</ele>
        <time>2022-08-03T09:46:12Z</time>
      </trkpt>
      <trkpt lat="44.62972" lon="3.21001">
        <ele>1156</ele>
        <time>2022-08-03T09:46:14Z</time>
      </trkpt>
      <trkpt lat="44.62971" lon="3.21003">
        <ele>1155.8</ele>
        <time>2022-08-03T09:46:16Z</time>
      </trkpt>
      <trkpt lat="44.62971" lon="3.21003">
        <ele>1155.8</ele>
        <time>2022-08-03T09:46:19Z</time>
      </trkpt>
      <trkpt lat="44.62971" lon="3.21002">
        <ele>1155.8</ele>
        <time>2022-08-03T09:46:21Z</time>
      </trkpt>
      <trkpt lat="44.62967" lon="3.21009">
        <ele>1155.4</ele>
        <time>2022-08-03T09:46:28Z</time>
      </trkpt>
      <trkpt lat="44.62966" lon="3.21011">
        <ele>1155.3</ele>
        <time>2022-08-03T09:46:29Z</time>
      </trkpt>
      <trkpt lat="44.62962" lon="3.2102">
        <ele>1154.8</ele>
        <time>2022-08-03T09:46:35Z</time>
      </trkpt>
      <trkpt lat="44.62956" lon="3.21032">
        <ele>1154.3</ele>
        <time>2022-08-03T09:46:43Z</time>
      </trkpt>
      <trkpt lat="44.62956" lon="3.21034">
        <ele>1154.2</ele>
        <time>2022-08-03T09:46:46Z</time>
      </trkpt>
      <trkpt lat="44.62955" lon="3.21037">
        <ele>1154.1</ele>
        <time>2022-08-03T09:46:48Z</time>
      </trkpt>
      <trkpt lat="44.62953" lon="3.21043">
        <ele>1153.8</ele>
        <time>2022-08-03T09:46:52Z</time>
      </trkpt>
      <trkpt lat="44.62952" lon="3.21051">
        <ele>1153.4</ele>
        <time>2022-08-03T09:46:56Z</time>
      </trkpt>
      <trkpt lat="44.62952" lon="3.21055">
        <ele>1153.3</ele>
        <time>2022-08-03T09:46:58Z</time>
      </trkpt>
      <trkpt lat="44.62951" lon="3.21069">
        <ele>1152.7</ele>
        <time>2022-08-03T09:47:06Z</time>
      </trkpt>
      <trkpt lat="44.62951" lon="3.21073">
        <ele>1152.6</ele>
        <time>2022-08-03T09:47:08Z</time>
      </trkpt>
      <trkpt lat="44.62954" lon="3.21098">
        <ele>1152</ele>
        <time>2022-08-03T09:47:22Z</time>
      </trkpt>
      <trkpt lat="44.62952" lon="3.21115">
        <ele>1151.5</ele>
        <time>2022-08-03T09:47:31Z</time>
      </trkpt>
      <trkpt lat="44.62951" lon="3.21128">
        <ele>1151.2</ele>
        <time>2022-08-03T09:47:38Z</time>
      </trkpt>
      <trkpt lat="44.62944" lon="3.21143">
        <ele>1151.4</ele>
        <time>2022-08-03T09:47:48Z</time>
      </trkpt>
      <trkpt lat="44.62943" lon="3.21144">
        <ele>1151.5</ele>
        <time>2022-08-03T09:47:51Z</time>
      </trkpt>
      <trkpt lat="44.62942" lon="3.21147">
        <ele>1151.7</ele>
        <time>2022-08-03T09:47:54Z</time>
      </trkpt>
      <trkpt lat="44.62933" lon="3.21159">
        <ele>1152.1</ele>
        <time>2022-08-03T09:48:04Z</time>
      </trkpt>
      <trkpt lat="44.62926" lon="3.21164">
        <ele>1151.8</ele>
        <time>2022-08-03T09:48:09Z</time>
      </trkpt>
      <trkpt lat="44.62918" lon="3.21165">
        <ele>1151.1</ele>
        <time>2022-08-03T09:48:15Z</time>
      </trkpt>
      <trkpt lat="44.62904" lon="3.21163">
        <ele>1150</ele>
        <time>2022-08-03T09:48:26Z</time>
      </trkpt>
      <trkpt lat="44.62903" lon="3.21162">
        <ele>1149.8</ele>
        <time>2022-08-03T09:48:29Z</time>
      </trkpt>
      <trkpt lat="44.629" lon="3.21161">
        <ele>1149.6</ele>
        <time>2022-08-03T09:48:31Z</time>
      </trkpt>
      <trkpt lat="44.62887" lon="3.2116">
        <ele>1149</ele>
        <time>2022-08-03T09:48:41Z</time>
      </trkpt>
      <trkpt lat="44.62874" lon="3.2116">
        <ele>1149.3</ele>
        <time>2022-08-03T09:48:51Z</time>
      </trkpt>
      <trkpt lat="44.62861" lon="3.21165">
        <ele>1149.2</ele>
        <time>2022-08-03T09:49:01Z</time>
      </trkpt>
      <trkpt lat="44.62851" lon="3.21177">
        <ele>1149.8</ele>
        <time>2022-08-03T09:49:12Z</time>
      </trkpt>
      <trkpt lat="44.62849" lon="3.21179">
        <ele>1150</ele>
        <time>2022-08-03T09:49:14Z</time>
      </trkpt>
      <trkpt lat="44.62848" lon="3.21183">
        <ele>1150.1</ele>
        <time>2022-08-03T09:49:16Z</time>
      </trkpt>
      <trkpt lat="44.62844" lon="3.21198">
        <ele>1150.8</ele>
        <time>2022-08-03T09:49:25Z</time>
      </trkpt>
      <trkpt lat="44.62844" lon="3.212">
        <ele>1150.9</ele>
        <time>2022-08-03T09:49:26Z</time>
      </trkpt>
      <trkpt lat="44.62844" lon="3.21203">
        <ele>1151</ele>
        <time>2022-08-03T09:49:28Z</time>
      </trkpt>
      <trkpt lat="44.62844" lon="3.2121">
        <ele>1151.2</ele>
        <time>2022-08-03T09:49:32Z</time>
      </trkpt>
      <trkpt lat="44.62845" lon="3.21212">
        <ele>1151</ele>
        <time>2022-08-03T09:49:33Z</time>
      </trkpt>
      <trkpt lat="44.62845" lon="3.21222">
        <ele>1151.1</ele>
        <time>2022-08-03T09:49:39Z</time>
      </trkpt>
      <trkpt lat="44.62845" lon="3.21225">
        <ele>1151.3</ele>
        <time>2022-08-03T09:49:41Z</time>
      </trkpt>
      <trkpt lat="44.62845" lon="3.21225">
        <ele>1151.5</ele>
        <time>2022-08-03T09:49:44Z</time>
      </trkpt>
      <trkpt lat="44.62845" lon="3.21225">
        <ele>1151.3</ele>
        <time>2022-08-03T09:49:46Z</time>
      </trkpt>
      <trkpt lat="44.62847" lon="3.21229">
        <ele>1151.1</ele>
        <time>2022-08-03T09:49:49Z</time>
      </trkpt>
      <trkpt lat="44.62847" lon="3.21231">
        <ele>1151.3</ele>
        <time>2022-08-03T09:49:51Z</time>
      </trkpt>
      <trkpt lat="44.62848" lon="3.21241">
        <ele>1151.5</ele>
        <time>2022-08-03T09:49:56Z</time>
      </trkpt>
      <trkpt lat="44.62848" lon="3.21244">
        <ele>1151.6</ele>
        <time>2022-08-03T09:49:58Z</time>
      </trkpt>
      <trkpt lat="44.62849" lon="3.21249">
        <ele>1151.8</ele>
        <time>2022-08-03T09:50:00Z</time>
      </trkpt>
      <trkpt lat="44.62852" lon="3.21262">
        <ele>1151.8</ele>
        <time>2022-08-03T09:50:07Z</time>
      </trkpt>
      <trkpt lat="44.62852" lon="3.21267">
        <ele>1152.4</ele>
        <time>2022-08-03T09:50:10Z</time>
      </trkpt>
      <trkpt lat="44.62853" lon="3.21272">
        <ele>1152.5</ele>
        <time>2022-08-03T09:50:13Z</time>
      </trkpt>
      <trkpt lat="44.62853" lon="3.21276">
        <ele>1152.9</ele>
        <time>2022-08-03T09:50:16Z</time>
      </trkpt>
      <trkpt lat="44.62852" lon="3.21275">
        <ele>1153</ele>
        <time>2022-08-03T09:50:18Z</time>
      </trkpt>
      <trkpt lat="44.62853" lon="3.21284">
        <ele>1153.1</ele>
        <time>2022-08-03T09:50:27Z</time>
      </trkpt>
      <trkpt lat="44.62854" lon="3.21289">
        <ele>1153.2</ele>
        <time>2022-08-03T09:50:30Z</time>
      </trkpt>
      <trkpt lat="44.62854" lon="3.21295">
        <ele>1153.5</ele>
        <time>2022-08-03T09:50:33Z</time>
      </trkpt>
      <trkpt lat="44.62854" lon="3.21298">
        <ele>1153.8</ele>
        <time>2022-08-03T09:50:35Z</time>
      </trkpt>
      <trkpt lat="44.62853" lon="3.21304">
        <ele>1154.2</ele>
        <time>2022-08-03T09:50:38Z</time>
      </trkpt>
      <trkpt lat="44.62855" lon="3.21318">
        <ele>1154.4</ele>
        <time>2022-08-03T09:50:45Z</time>
      </trkpt>
      <trkpt lat="44.62854" lon="3.21325">
        <ele>1154.9</ele>
        <time>2022-08-03T09:50:49Z</time>
      </trkpt>
      <trkpt lat="44.62853" lon="3.21335">
        <ele>1155.5</ele>
        <time>2022-08-03T09:50:55Z</time>
      </trkpt>
      <trkpt lat="44.62846" lon="3.21354">
        <ele>1155.5</ele>
        <time>2022-08-03T09:51:07Z</time>
      </trkpt>
      <trkpt lat="44.62842" lon="3.21363">
        <ele>1155.1</ele>
        <time>2022-08-03T09:51:13Z</time>
      </trkpt>
      <trkpt lat="44.62841" lon="3.21366">
        <ele>1154.9</ele>
        <time>2022-08-03T09:51:15Z</time>
      </trkpt>
      <trkpt lat="44.6284" lon="3.21368">
        <ele>1154.8</ele>
        <time>2022-08-03T09:51:16Z</time>
      </trkpt>
      <trkpt lat="44.62835" lon="3.21378">
        <ele>1154</ele>
        <time>2022-08-03T09:51:24Z</time>
      </trkpt>
      <trkpt lat="44.62835" lon="3.21379">
        <ele>1154</ele>
        <time>2022-08-03T09:51:26Z</time>
      </trkpt>
      <trkpt lat="44.62834" lon="3.21379">
        <ele>1154.1</ele>
        <time>2022-08-03T09:51:28Z</time>
      </trkpt>
      <trkpt lat="44.62832" lon="3.21383">
        <ele>1153.8</ele>
        <time>2022-08-03T09:51:31Z</time>
      </trkpt>
      <trkpt lat="44.62832" lon="3.21385">
        <ele>1153.6</ele>
        <time>2022-08-03T09:51:32Z</time>
      </trkpt>
      <trkpt lat="44.62825" lon="3.214">
        <ele>1152.7</ele>
        <time>2022-08-03T09:51:42Z</time>
      </trkpt>
      <trkpt lat="44.62824" lon="3.21403">
        <ele>1152.5</ele>
        <time>2022-08-03T09:51:44Z</time>
      </trkpt>
      <trkpt lat="44.62822" lon="3.2141">
        <ele>1152</ele>
        <time>2022-08-03T09:51:48Z</time>
      </trkpt>
      <trkpt lat="44.62819" lon="3.21423">
        <ele>1151.3</ele>
        <time>2022-08-03T09:51:57Z</time>
      </trkpt>
      <trkpt lat="44.62819" lon="3.21424">
        <ele>1151.2</ele>
        <time>2022-08-03T09:51:58Z</time>
      </trkpt>
      <trkpt lat="44.62819" lon="3.21427">
        <ele>1151.1</ele>
        <time>2022-08-03T09:52:00Z</time>
      </trkpt>
      <trkpt lat="44.62818" lon="3.21432">
        <ele>1151.1</ele>
        <time>2022-08-03T09:52:03Z</time>
      </trkpt>
      <trkpt lat="44.62815" lon="3.21441">
        <ele>1151.2</ele>
        <time>2022-08-03T09:52:09Z</time>
      </trkpt>
      <trkpt lat="44.62813" lon="3.21446">
        <ele>1151.2</ele>
        <time>2022-08-03T09:52:12Z</time>
      </trkpt>
      <trkpt lat="44.62812" lon="3.2145">
        <ele>1151.3</ele>
        <time>2022-08-03T09:52:14Z</time>
      </trkpt>
      <trkpt lat="44.62811" lon="3.21455">
        <ele>1151.5</ele>
        <time>2022-08-03T09:52:18Z</time>
      </trkpt>
      <trkpt lat="44.6281" lon="3.21472">
        <ele>1151.5</ele>
        <time>2022-08-03T09:52:26Z</time>
      </trkpt>
      <trkpt lat="44.62808" lon="3.21474">
        <ele>1151.7</ele>
        <time>2022-08-03T09:52:30Z</time>
      </trkpt>
      <trkpt lat="44.62805" lon="3.21471">
        <ele>1152</ele>
        <time>2022-08-03T09:52:37Z</time>
      </trkpt>
      <trkpt lat="44.62804" lon="3.21471">
        <ele>1152</ele>
        <time>2022-08-03T09:52:41Z</time>
      </trkpt>
      <trkpt lat="44.62808" lon="3.21476">
        <ele>1151.8</ele>
        <time>2022-08-03T09:52:44Z</time>
      </trkpt>
      <trkpt lat="44.6281" lon="3.21491">
        <ele>1151.6</ele>
        <time>2022-08-03T09:52:52Z</time>
      </trkpt>
      <trkpt lat="44.62813" lon="3.21504">
        <ele>1151.7</ele>
        <time>2022-08-03T09:53:00Z</time>
      </trkpt>
      <trkpt lat="44.62813" lon="3.21517">
        <ele>1152.4</ele>
        <time>2022-08-03T09:53:08Z</time>
      </trkpt>
      <trkpt lat="44.62813" lon="3.21519">
        <ele>1152.5</ele>
        <time>2022-08-03T09:53:09Z</time>
      </trkpt>
      <trkpt lat="44.62814" lon="3.21525">
        <ele>1152.8</ele>
        <time>2022-08-03T09:53:12Z</time>
      </trkpt>
      <trkpt lat="44.62813" lon="3.21526">
        <ele>1152.9</ele>
        <time>2022-08-03T09:53:13Z</time>
      </trkpt>
      <trkpt lat="44.62813" lon="3.21534">
        <ele>1153.3</ele>
        <time>2022-08-03T09:53:18Z</time>
      </trkpt>
      <trkpt lat="44.62813" lon="3.21535">
        <ele>1153.3</ele>
        <time>2022-08-03T09:53:19Z</time>
      </trkpt>
      <trkpt lat="44.62813" lon="3.21539">
        <ele>1153.5</ele>
        <time>2022-08-03T09:53:21Z</time>
      </trkpt>
      <trkpt lat="44.62815" lon="3.21547">
        <ele>1153.9</ele>
        <time>2022-08-03T09:53:27Z</time>
      </trkpt>
      <trkpt lat="44.62817" lon="3.2155">
        <ele>1154.1</ele>
        <time>2022-08-03T09:53:29Z</time>
      </trkpt>
      <trkpt lat="44.62818" lon="3.21559">
        <ele>1154.6</ele>
        <time>2022-08-03T09:53:34Z</time>
      </trkpt>
      <trkpt lat="44.62819" lon="3.21565">
        <ele>1155</ele>
        <time>2022-08-03T09:53:38Z</time>
      </trkpt>
      <trkpt lat="44.62819" lon="3.21576">
        <ele>1155.5</ele>
        <time>2022-08-03T09:53:43Z</time>
      </trkpt>
      <trkpt lat="44.62818" lon="3.21579">
        <ele>1155.6</ele>
        <time>2022-08-03T09:53:45Z</time>
      </trkpt>
      <trkpt lat="44.62816" lon="3.21581">
        <ele>1155.6</ele>
        <time>2022-08-03T09:53:49Z</time>
      </trkpt>
      <trkpt lat="44.62814" lon="3.21582">
        <ele>1155.6</ele>
        <time>2022-08-03T09:53:54Z</time>
      </trkpt>
      <trkpt lat="44.62815" lon="3.21583">
        <ele>1155.6</ele>
        <time>2022-08-03T09:53:56Z</time>
      </trkpt>
      <trkpt lat="44.62815" lon="3.21582">
        <ele>1155.6</ele>
        <time>2022-08-03T09:53:58Z</time>
      </trkpt>
      <trkpt lat="44.62815" lon="3.21582">
        <ele>1155.6</ele>
        <time>2022-08-03T09:54:01Z</time>
      </trkpt>
      <trkpt lat="44.62814" lon="3.2158">
        <ele>1155.5</ele>
        <time>2022-08-03T09:54:07Z</time>
      </trkpt>
      <trkpt lat="44.62814" lon="3.21581">
        <ele>1155.5</ele>
        <time>2022-08-03T09:54:25Z</time>
      </trkpt>
      <trkpt lat="44.62809" lon="3.21581">
        <ele>1155.2</ele>
        <time>2022-08-03T09:54:49Z</time>
      </trkpt>
      <trkpt lat="44.62813" lon="3.21586">
        <ele>1155.6</ele>
        <time>2022-08-03T09:55:15Z</time>
      </trkpt>
      <trkpt lat="44.62816" lon="3.21586">
        <ele>1155.8</ele>
        <time>2022-08-03T09:56:08Z</time>
      </trkpt>
      <trkpt lat="44.62816" lon="3.2159">
        <ele>1155.9</ele>
        <time>2022-08-03T09:56:10Z</time>
      </trkpt>
      <trkpt lat="44.62816" lon="3.216">
        <ele>1156.1</ele>
        <time>2022-08-03T09:56:15Z</time>
      </trkpt>
      <trkpt lat="44.62816" lon="3.21605">
        <ele>1156.2</ele>
        <time>2022-08-03T09:56:17Z</time>
      </trkpt>
      <trkpt lat="44.62815" lon="3.21611">
        <ele>1156.3</ele>
        <time>2022-08-03T09:56:21Z</time>
      </trkpt>
      <trkpt lat="44.62816" lon="3.21615">
        <ele>1156.4</ele>
        <time>2022-08-03T09:56:24Z</time>
      </trkpt>
      <trkpt lat="44.62815" lon="3.21619">
        <ele>1156.3</ele>
        <time>2022-08-03T09:56:26Z</time>
      </trkpt>
      <trkpt lat="44.62815" lon="3.21624">
        <ele>1156.3</ele>
        <time>2022-08-03T09:56:28Z</time>
      </trkpt>
      <trkpt lat="44.62813" lon="3.21633">
        <ele>1156.3</ele>
        <time>2022-08-03T09:56:34Z</time>
      </trkpt>
      <trkpt lat="44.62813" lon="3.21638">
        <ele>1156.3</ele>
        <time>2022-08-03T09:56:36Z</time>
      </trkpt>
      <trkpt lat="44.62811" lon="3.21653">
        <ele>1156</ele>
        <time>2022-08-03T09:56:43Z</time>
      </trkpt>
      <trkpt lat="44.6281" lon="3.21658">
        <ele>1155.9</ele>
        <time>2022-08-03T09:56:46Z</time>
      </trkpt>
      <trkpt lat="44.62811" lon="3.21665">
        <ele>1155.8</ele>
        <time>2022-08-03T09:56:50Z</time>
      </trkpt>
      <trkpt lat="44.62811" lon="3.2167">
        <ele>1155.8</ele>
        <time>2022-08-03T09:56:53Z</time>
      </trkpt>
      <trkpt lat="44.62811" lon="3.21677">
        <ele>1155.8</ele>
        <time>2022-08-03T09:56:58Z</time>
      </trkpt>
      <trkpt lat="44.62811" lon="3.2168">
        <ele>1155.8</ele>
        <time>2022-08-03T09:57:00Z</time>
      </trkpt>
      <trkpt lat="44.62809" lon="3.21694">
        <ele>1155.9</ele>
        <time>2022-08-03T09:57:08Z</time>
      </trkpt>
      <trkpt lat="44.62805" lon="3.21698">
        <ele>1156</ele>
        <time>2022-08-03T09:57:14Z</time>
      </trkpt>
      <trkpt lat="44.62804" lon="3.21697">
        <ele>1156.3</ele>
        <time>2022-08-03T09:57:16Z</time>
      </trkpt>
      <trkpt lat="44.62801" lon="3.21698">
        <ele>1156.6</ele>
        <time>2022-08-03T09:57:19Z</time>
      </trkpt>
      <trkpt lat="44.62801" lon="3.21699">
        <ele>1156.6</ele>
        <time>2022-08-03T09:57:20Z</time>
      </trkpt>
      <trkpt lat="44.62801" lon="3.21701">
        <ele>1156.6</ele>
        <time>2022-08-03T09:57:21Z</time>
      </trkpt>
      <trkpt lat="44.628" lon="3.21706">
        <ele>1156.6</ele>
        <time>2022-08-03T09:57:24Z</time>
      </trkpt>
      <trkpt lat="44.62799" lon="3.21718">
        <ele>1156.6</ele>
        <time>2022-08-03T09:57:30Z</time>
      </trkpt>
      <trkpt lat="44.62791" lon="3.21738">
        <ele>1156.8</ele>
        <time>2022-08-03T09:57:41Z</time>
      </trkpt>
      <trkpt lat="44.62785" lon="3.21751">
        <ele>1157.2</ele>
        <time>2022-08-03T09:57:49Z</time>
      </trkpt>
      <trkpt lat="44.62782" lon="3.21757">
        <ele>1157.3</ele>
        <time>2022-08-03T09:57:53Z</time>
      </trkpt>
      <trkpt lat="44.62777" lon="3.21769">
        <ele>1157.5</ele>
        <time>2022-08-03T09:58:01Z</time>
      </trkpt>
      <trkpt lat="44.62768" lon="3.21789">
        <ele>1157.9</ele>
        <time>2022-08-03T09:58:14Z</time>
      </trkpt>
      <trkpt lat="44.62761" lon="3.21808">
        <ele>1158.2</ele>
        <time>2022-08-03T09:58:25Z</time>
      </trkpt>
      <trkpt lat="44.62754" lon="3.21826">
        <ele>1158.6</ele>
        <time>2022-08-03T09:58:36Z</time>
      </trkpt>
      <trkpt lat="44.62753" lon="3.21833">
        <ele>1158.6</ele>
        <time>2022-08-03T09:58:40Z</time>
      </trkpt>
      <trkpt lat="44.62752" lon="3.21839">
        <ele>1158.8</ele>
        <time>2022-08-03T09:58:43Z</time>
      </trkpt>
      <trkpt lat="44.62751" lon="3.21844">
        <ele>1158.9</ele>
        <time>2022-08-03T09:58:46Z</time>
      </trkpt>
      <trkpt lat="44.62751" lon="3.21856">
        <ele>1158.9</ele>
        <time>2022-08-03T09:58:52Z</time>
      </trkpt>
      <trkpt lat="44.6275" lon="3.21872">
        <ele>1159</ele>
        <time>2022-08-03T09:59:01Z</time>
      </trkpt>
      <trkpt lat="44.62749" lon="3.21876">
        <ele>1159.1</ele>
        <time>2022-08-03T09:59:05Z</time>
      </trkpt>
      <trkpt lat="44.62749" lon="3.21877">
        <ele>1159.1</ele>
        <time>2022-08-03T09:59:07Z</time>
      </trkpt>
      <trkpt lat="44.62749" lon="3.21877">
        <ele>1159.1</ele>
        <time>2022-08-03T09:59:08Z</time>
      </trkpt>
      <trkpt lat="44.62749" lon="3.21884">
        <ele>1159.1</ele>
        <time>2022-08-03T09:59:12Z</time>
      </trkpt>
      <trkpt lat="44.6275" lon="3.21885">
        <ele>1159.1</ele>
        <time>2022-08-03T09:59:13Z</time>
      </trkpt>
      <trkpt lat="44.62748" lon="3.21884">
        <ele>1159.2</ele>
        <time>2022-08-03T09:59:17Z</time>
      </trkpt>
      <trkpt lat="44.62748" lon="3.21893">
        <ele>1159.1</ele>
        <time>2022-08-03T09:59:22Z</time>
      </trkpt>
      <trkpt lat="44.62748" lon="3.21901">
        <ele>1158.8</ele>
        <time>2022-08-03T09:59:28Z</time>
      </trkpt>
      <trkpt lat="44.62747" lon="3.219">
        <ele>1158.9</ele>
        <time>2022-08-03T09:59:32Z</time>
      </trkpt>
      <trkpt lat="44.62745" lon="3.21898">
        <ele>1159.2</ele>
        <time>2022-08-03T09:59:39Z</time>
      </trkpt>
      <trkpt lat="44.62745" lon="3.21898">
        <ele>1159.2</ele>
        <time>2022-08-03T09:59:40Z</time>
      </trkpt>
      <trkpt lat="44.62745" lon="3.21898">
        <ele>1159.2</ele>
        <time>2022-08-03T09:59:47Z</time>
      </trkpt>
      <trkpt lat="44.62746" lon="3.21898">
        <ele>1159.1</ele>
        <time>2022-08-03T10:00:01Z</time>
      </trkpt>
      <trkpt lat="44.62746" lon="3.21908">
        <ele>1158.8</ele>
        <time>2022-08-03T10:00:09Z</time>
      </trkpt>
      <trkpt lat="44.62745" lon="3.21913">
        <ele>1158.7</ele>
        <time>2022-08-03T10:00:14Z</time>
      </trkpt>
      <trkpt lat="44.62745" lon="3.21914">
        <ele>1158.6</ele>
        <time>2022-08-03T10:00:21Z</time>
      </trkpt>
      <trkpt lat="44.62745" lon="3.21922">
        <ele>1158.6</ele>
        <time>2022-08-03T10:00:27Z</time>
      </trkpt>
      <trkpt lat="44.62745" lon="3.21923">
        <ele>1158.6</ele>
        <time>2022-08-03T10:00:28Z</time>
      </trkpt>
      <trkpt lat="44.62744" lon="3.21925">
        <ele>1158.7</ele>
        <time>2022-08-03T10:00:32Z</time>
      </trkpt>
      <trkpt lat="44.62742" lon="3.21938">
        <ele>1158.8</ele>
        <time>2022-08-03T10:00:40Z</time>
      </trkpt>
      <trkpt lat="44.6274" lon="3.21948">
        <ele>1159</ele>
        <time>2022-08-03T10:00:47Z</time>
      </trkpt>
      <trkpt lat="44.6274" lon="3.21948">
        <ele>1159</ele>
        <time>2022-08-03T10:00:48Z</time>
      </trkpt>
      <trkpt lat="44.6274" lon="3.21955">
        <ele>1158.9</ele>
        <time>2022-08-03T10:00:57Z</time>
      </trkpt>
      <trkpt lat="44.62739" lon="3.21968">
        <ele>1158.8</ele>
        <time>2022-08-03T10:01:04Z</time>
      </trkpt>
      <trkpt lat="44.62738" lon="3.21974">
        <ele>1158.9</ele>
        <time>2022-08-03T10:01:08Z</time>
      </trkpt>
      <trkpt lat="44.62737" lon="3.21986">
        <ele>1158.9</ele>
        <time>2022-08-03T10:01:14Z</time>
      </trkpt>
      <trkpt lat="44.62736" lon="3.22005">
        <ele>1159</ele>
        <time>2022-08-03T10:01:25Z</time>
      </trkpt>
      <trkpt lat="44.62734" lon="3.22019">
        <ele>1159.2</ele>
        <time>2022-08-03T10:01:33Z</time>
      </trkpt>
      <trkpt lat="44.62733" lon="3.22023">
        <ele>1159.2</ele>
        <time>2022-08-03T10:01:36Z</time>
      </trkpt>
      <trkpt lat="44.6273" lon="3.22026">
        <ele>1159.5</ele>
        <time>2022-08-03T10:01:40Z</time>
      </trkpt>
      <trkpt lat="44.62726" lon="3.22028">
        <ele>1159.7</ele>
        <time>2022-08-03T10:01:43Z</time>
      </trkpt>
      <trkpt lat="44.62725" lon="3.22027">
        <ele>1159.8</ele>
        <time>2022-08-03T10:01:45Z</time>
      </trkpt>
      <trkpt lat="44.62725" lon="3.22028">
        <ele>1159.8</ele>
        <time>2022-08-03T10:01:46Z</time>
      </trkpt>
      <trkpt lat="44.62725" lon="3.22026">
        <ele>1159.8</ele>
        <time>2022-08-03T10:01:48Z</time>
      </trkpt>
      <trkpt lat="44.62724" lon="3.22026">
        <ele>1159.9</ele>
        <time>2022-08-03T10:01:51Z</time>
      </trkpt>
      <trkpt lat="44.62723" lon="3.22025">
        <ele>1159.9</ele>
        <time>2022-08-03T10:01:58Z</time>
      </trkpt>
      <trkpt lat="44.62717" lon="3.22019">
        <ele>1160.1</ele>
        <time>2022-08-03T10:02:17Z</time>
      </trkpt>
      <trkpt lat="44.62709" lon="3.22008">
        <ele>1160.3</ele>
        <time>2022-08-03T10:02:25Z</time>
      </trkpt>
      <trkpt lat="44.62709" lon="3.22007">
        <ele>1160.4</ele>
        <time>2022-08-03T10:02:29Z</time>
      </trkpt>
      <trkpt lat="44.62709" lon="3.22007">
        <ele>1160.4</ele>
        <time>2022-08-03T10:02:30Z</time>
      </trkpt>
      <trkpt lat="44.62704" lon="3.22001">
        <ele>1160.6</ele>
        <time>2022-08-03T10:02:36Z</time>
      </trkpt>
      <trkpt lat="44.627" lon="3.21996">
        <ele>1160.9</ele>
        <time>2022-08-03T10:02:40Z</time>
      </trkpt>
      <trkpt lat="44.62698" lon="3.21993">
        <ele>1161.1</ele>
        <time>2022-08-03T10:02:43Z</time>
      </trkpt>
      <trkpt lat="44.62692" lon="3.21986">
        <ele>1161.7</ele>
        <time>2022-08-03T10:02:49Z</time>
      </trkpt>
      <trkpt lat="44.62689" lon="3.21983">
        <ele>1162</ele>
        <time>2022-08-03T10:02:52Z</time>
      </trkpt>
      <trkpt lat="44.62684" lon="3.21977">
        <ele>1162.6</ele>
        <time>2022-08-03T10:02:58Z</time>
      </trkpt>
      <trkpt lat="44.62683" lon="3.21976">
        <ele>1162.7</ele>
        <time>2022-08-03T10:02:59Z</time>
      </trkpt>
      <trkpt lat="44.62679" lon="3.21963">
        <ele>1163.3</ele>
        <time>2022-08-03T10:03:07Z</time>
      </trkpt>
      <trkpt lat="44.62678" lon="3.21958">
        <ele>1163.5</ele>
        <time>2022-08-03T10:03:11Z</time>
      </trkpt>
      <trkpt lat="44.62677" lon="3.21955">
        <ele>1163.6</ele>
        <time>2022-08-03T10:03:14Z</time>
      </trkpt>
      <trkpt lat="44.62677" lon="3.21956">
        <ele>1163.6</ele>
        <time>2022-08-03T10:03:17Z</time>
      </trkpt>
      <trkpt lat="44.62677" lon="3.21956">
        <ele>1163.6</ele>
        <time>2022-08-03T10:03:18Z</time>
      </trkpt>
      <trkpt lat="44.62677" lon="3.21954">
        <ele>1163.7</ele>
        <time>2022-08-03T10:03:20Z</time>
      </trkpt>
      <trkpt lat="44.62677" lon="3.21953">
        <ele>1163.7</ele>
        <time>2022-08-03T10:03:21Z</time>
      </trkpt>
      <trkpt lat="44.62676" lon="3.21952">
        <ele>1163.8</ele>
        <time>2022-08-03T10:03:22Z</time>
      </trkpt>
      <trkpt lat="44.62678" lon="3.2195">
        <ele>1163.7</ele>
        <time>2022-08-03T10:03:24Z</time>
      </trkpt>
      <trkpt lat="44.62678" lon="3.21945">
        <ele>1163.8</ele>
        <time>2022-08-03T10:03:26Z</time>
      </trkpt>
      <trkpt lat="44.62678" lon="3.21936">
        <ele>1164.3</ele>
        <time>2022-08-03T10:03:32Z</time>
      </trkpt>
      <trkpt lat="44.62677" lon="3.21931">
        <ele>1164.6</ele>
        <time>2022-08-03T10:03:35Z</time>
      </trkpt>
      <trkpt lat="44.62677" lon="3.21927">
        <ele>1165</ele>
        <time>2022-08-03T10:03:38Z</time>
      </trkpt>
      <trkpt lat="44.62677" lon="3.21924">
        <ele>1165.1</ele>
        <time>2022-08-03T10:03:40Z</time>
      </trkpt>
      <trkpt lat="44.62676" lon="3.21924">
        <ele>1165.2</ele>
        <time>2022-08-03T10:03:41Z</time>
      </trkpt>
      <trkpt lat="44.62676" lon="3.21922">
        <ele>1165.3</ele>
        <time>2022-08-03T10:03:43Z</time>
      </trkpt>
      <trkpt lat="44.62676" lon="3.21919">
        <ele>1165.5</ele>
        <time>2022-08-03T10:03:45Z</time>
      </trkpt>
      <trkpt lat="44.62676" lon="3.21914">
        <ele>1165.9</ele>
        <time>2022-08-03T10:03:49Z</time>
      </trkpt>
      <trkpt lat="44.62676" lon="3.21908">
        <ele>1166.5</ele>
        <time>2022-08-03T10:03:53Z</time>
      </trkpt>
      <trkpt lat="44.62675" lon="3.21894">
        <ele>1168.1</ele>
        <time>2022-08-03T10:04:00Z</time>
      </trkpt>
      <trkpt lat="44.62674" lon="3.21892">
        <ele>1168.3</ele>
        <time>2022-08-03T10:04:01Z</time>
      </trkpt>
      <trkpt lat="44.62673" lon="3.21887">
        <ele>1169.1</ele>
        <time>2022-08-03T10:04:05Z</time>
      </trkpt>
      <trkpt lat="44.62672" lon="3.21884">
        <ele>1169.4</ele>
        <time>2022-08-03T10:04:08Z</time>
      </trkpt>
      <trkpt lat="44.62673" lon="3.21881">
        <ele>1169.5</ele>
        <time>2022-08-03T10:04:10Z</time>
      </trkpt>
      <trkpt lat="44.62673" lon="3.2188">
        <ele>1169.6</ele>
        <time>2022-08-03T10:04:11Z</time>
      </trkpt>
      <trkpt lat="44.62673" lon="3.21876">
        <ele>1169.9</ele>
        <time>2022-08-03T10:04:13Z</time>
      </trkpt>
      <trkpt lat="44.62674" lon="3.21871">
        <ele>1169.9</ele>
        <time>2022-08-03T10:04:16Z</time>
      </trkpt>
      <trkpt lat="44.62673" lon="3.21862">
        <ele>1170.8</ele>
        <time>2022-08-03T10:04:21Z</time>
      </trkpt>
      <trkpt lat="44.62673" lon="3.2186">
        <ele>1171</ele>
        <time>2022-08-03T10:04:23Z</time>
      </trkpt>
      <trkpt lat="44.62671" lon="3.21853">
        <ele>1171.4</ele>
        <time>2022-08-03T10:04:27Z</time>
      </trkpt>
      <trkpt lat="44.62671" lon="3.2185">
        <ele>1171.7</ele>
        <time>2022-08-03T10:04:29Z</time>
      </trkpt>
      <trkpt lat="44.62668" lon="3.21838">
        <ele>1172.6</ele>
        <time>2022-08-03T10:04:36Z</time>
      </trkpt>
      <trkpt lat="44.62668" lon="3.21837">
        <ele>1172.6</ele>
        <time>2022-08-03T10:04:38Z</time>
      </trkpt>
      <trkpt lat="44.62669" lon="3.21838">
        <ele>1172.4</ele>
        <time>2022-08-03T10:04:41Z</time>
      </trkpt>
      <trkpt lat="44.62669" lon="3.2184">
        <ele>1172.3</ele>
        <time>2022-08-03T10:04:49Z</time>
      </trkpt>
      <trkpt lat="44.62669" lon="3.21836">
        <ele>1172.5</ele>
        <time>2022-08-03T10:04:57Z</time>
      </trkpt>
      <trkpt lat="44.62668" lon="3.21833">
        <ele>1172.8</ele>
        <time>2022-08-03T10:05:02Z</time>
      </trkpt>
      <trkpt lat="44.62662" lon="3.21831">
        <ele>1174.1</ele>
        <time>2022-08-03T10:05:07Z</time>
      </trkpt>
      <trkpt lat="44.62661" lon="3.2183">
        <ele>1174.6</ele>
        <time>2022-08-03T10:05:13Z</time>
      </trkpt>
      <trkpt lat="44.62661" lon="3.21829">
        <ele>1174.5</ele>
        <time>2022-08-03T10:05:22Z</time>
      </trkpt>
      <trkpt lat="44.62662" lon="3.21825">
        <ele>1174.7</ele>
        <time>2022-08-03T10:05:28Z</time>
      </trkpt>
      <trkpt lat="44.62664" lon="3.21817">
        <ele>1174.8</ele>
        <time>2022-08-03T10:05:34Z</time>
      </trkpt>
      <trkpt lat="44.62665" lon="3.21815">
        <ele>1174.7</ele>
        <time>2022-08-03T10:05:38Z</time>
      </trkpt>
      <trkpt lat="44.62666" lon="3.21814">
        <ele>1174.6</ele>
        <time>2022-08-03T10:05:39Z</time>
      </trkpt>
      <trkpt lat="44.62666" lon="3.21805">
        <ele>1175.2</ele>
        <time>2022-08-03T10:05:46Z</time>
      </trkpt>
      <trkpt lat="44.62664" lon="3.21794">
        <ele>1176</ele>
        <time>2022-08-03T10:05:54Z</time>
      </trkpt>
      <trkpt lat="44.62663" lon="3.21789">
        <ele>1176.3</ele>
        <time>2022-08-03T10:05:57Z</time>
      </trkpt>
      <trkpt lat="44.62664" lon="3.21786">
        <ele>1176.4</ele>
        <time>2022-08-03T10:05:59Z</time>
      </trkpt>
      <trkpt lat="44.62663" lon="3.21785">
        <ele>1176.5</ele>
        <time>2022-08-03T10:06:01Z</time>
      </trkpt>
      <trkpt lat="44.62664" lon="3.21783">
        <ele>1176.4</ele>
        <time>2022-08-03T10:06:03Z</time>
      </trkpt>
      <trkpt lat="44.62662" lon="3.21776">
        <ele>1177.2</ele>
        <time>2022-08-03T10:06:07Z</time>
      </trkpt>
      <trkpt lat="44.62659" lon="3.21773">
        <ele>1178</ele>
        <time>2022-08-03T10:06:09Z</time>
      </trkpt>
      <trkpt lat="44.62658" lon="3.21769">
        <ele>1178.6</ele>
        <time>2022-08-03T10:06:12Z</time>
      </trkpt>
      <trkpt lat="44.62657" lon="3.21764">
        <ele>1179.1</ele>
        <time>2022-08-03T10:06:15Z</time>
      </trkpt>
      <trkpt lat="44.62657" lon="3.21761">
        <ele>1179.4</ele>
        <time>2022-08-03T10:06:17Z</time>
      </trkpt>
      <trkpt lat="44.62657" lon="3.21755">
        <ele>1179.8</ele>
        <time>2022-08-03T10:06:21Z</time>
      </trkpt>
      <trkpt lat="44.62655" lon="3.21752">
        <ele>1180.3</ele>
        <time>2022-08-03T10:06:23Z</time>
      </trkpt>
      <trkpt lat="44.62654" lon="3.2175">
        <ele>1180.7</ele>
        <time>2022-08-03T10:06:25Z</time>
      </trkpt>
      <trkpt lat="44.62654" lon="3.21748">
        <ele>1180.8</ele>
        <time>2022-08-03T10:06:26Z</time>
      </trkpt>
      <trkpt lat="44.62654" lon="3.21744">
        <ele>1181.2</ele>
        <time>2022-08-03T10:06:29Z</time>
      </trkpt>
      <trkpt lat="44.62654" lon="3.21742">
        <ele>1181.3</ele>
        <time>2022-08-03T10:06:31Z</time>
      </trkpt>
      <trkpt lat="44.62654" lon="3.21741">
        <ele>1181.4</ele>
        <time>2022-08-03T10:06:32Z</time>
      </trkpt>
      <trkpt lat="44.62652" lon="3.21738">
        <ele>1181.9</ele>
        <time>2022-08-03T10:06:35Z</time>
      </trkpt>
      <trkpt lat="44.62652" lon="3.21737">
        <ele>1182.1</ele>
        <time>2022-08-03T10:06:36Z</time>
      </trkpt>
      <trkpt lat="44.62651" lon="3.21735">
        <ele>1182.4</ele>
        <time>2022-08-03T10:06:38Z</time>
      </trkpt>
      <trkpt lat="44.62651" lon="3.21732">
        <ele>1182.8</ele>
        <time>2022-08-03T10:06:40Z</time>
      </trkpt>
      <trkpt lat="44.62651" lon="3.2173">
        <ele>1182.9</ele>
        <time>2022-08-03T10:06:41Z</time>
      </trkpt>
      <trkpt lat="44.62651" lon="3.21728">
        <ele>1183</ele>
        <time>2022-08-03T10:06:43Z</time>
      </trkpt>
      <trkpt lat="44.6265" lon="3.21725">
        <ele>1183.4</ele>
        <time>2022-08-03T10:06:45Z</time>
      </trkpt>
      <trkpt lat="44.62649" lon="3.21723">
        <ele>1183.8</ele>
        <time>2022-08-03T10:06:47Z</time>
      </trkpt>
      <trkpt lat="44.62648" lon="3.21721">
        <ele>1184.2</ele>
        <time>2022-08-03T10:06:49Z</time>
      </trkpt>
      <trkpt lat="44.62646" lon="3.21709">
        <ele>1185.7</ele>
        <time>2022-08-03T10:06:57Z</time>
      </trkpt>
      <trkpt lat="44.62646" lon="3.21708">
        <ele>1185.8</ele>
        <time>2022-08-03T10:06:58Z</time>
      </trkpt>
      <trkpt lat="44.62646" lon="3.21703">
        <ele>1186.5</ele>
        <time>2022-08-03T10:07:03Z</time>
      </trkpt>
      <trkpt lat="44.62645" lon="3.21701">
        <ele>1186.7</ele>
        <time>2022-08-03T10:07:04Z</time>
      </trkpt>
      <trkpt lat="44.62645" lon="3.21698">
        <ele>1187</ele>
        <time>2022-08-03T10:07:06Z</time>
      </trkpt>
      <trkpt lat="44.62645" lon="3.21697">
        <ele>1187.1</ele>
        <time>2022-08-03T10:07:07Z</time>
      </trkpt>
      <trkpt lat="44.62645" lon="3.21694">
        <ele>1187.5</ele>
        <time>2022-08-03T10:07:09Z</time>
      </trkpt>
      <trkpt lat="44.62645" lon="3.2169">
        <ele>1187.9</ele>
        <time>2022-08-03T10:07:13Z</time>
      </trkpt>
      <trkpt lat="44.62645" lon="3.21688">
        <ele>1188.1</ele>
        <time>2022-08-03T10:07:14Z</time>
      </trkpt>
      <trkpt lat="44.62642" lon="3.21681">
        <ele>1189.1</ele>
        <time>2022-08-03T10:07:19Z</time>
      </trkpt>
      <trkpt lat="44.62642" lon="3.2168">
        <ele>1189.2</ele>
        <time>2022-08-03T10:07:20Z</time>
      </trkpt>
      <trkpt lat="44.62641" lon="3.21675">
        <ele>1189.9</ele>
        <time>2022-08-03T10:07:24Z</time>
      </trkpt>
      <trkpt lat="44.62641" lon="3.21673">
        <ele>1190.1</ele>
        <time>2022-08-03T10:07:25Z</time>
      </trkpt>
      <trkpt lat="44.6264" lon="3.21669">
        <ele>1190.6</ele>
        <time>2022-08-03T10:07:28Z</time>
      </trkpt>
      <trkpt lat="44.6264" lon="3.21663">
        <ele>1191.1</ele>
        <time>2022-08-03T10:07:33Z</time>
      </trkpt>
      <trkpt lat="44.6264" lon="3.21661">
        <ele>1191.2</ele>
        <time>2022-08-03T10:07:34Z</time>
      </trkpt>
      <trkpt lat="44.62639" lon="3.2166">
        <ele>1191.4</ele>
        <time>2022-08-03T10:07:35Z</time>
      </trkpt>
      <trkpt lat="44.62638" lon="3.21657">
        <ele>1191.8</ele>
        <time>2022-08-03T10:07:37Z</time>
      </trkpt>
      <trkpt lat="44.62635" lon="3.21653">
        <ele>1192.9</ele>
        <time>2022-08-03T10:07:42Z</time>
      </trkpt>
      <trkpt lat="44.62634" lon="3.21651">
        <ele>1193</ele>
        <time>2022-08-03T10:07:45Z</time>
      </trkpt>
      <trkpt lat="44.62635" lon="3.2165">
        <ele>1193.1</ele>
        <time>2022-08-03T10:07:48Z</time>
      </trkpt>
      <trkpt lat="44.62634" lon="3.21648">
        <ele>1193.3</ele>
        <time>2022-08-03T10:07:49Z</time>
      </trkpt>
      <trkpt lat="44.62633" lon="3.21641">
        <ele>1194</ele>
        <time>2022-08-03T10:07:54Z</time>
      </trkpt>
      <trkpt lat="44.62632" lon="3.21635">
        <ele>1194.4</ele>
        <time>2022-08-03T10:07:58Z</time>
      </trkpt>
      <trkpt lat="44.62631" lon="3.21632">
        <ele>1194.6</ele>
        <time>2022-08-03T10:08:00Z</time>
      </trkpt>
      <trkpt lat="44.62631" lon="3.2163">
        <ele>1194.8</ele>
        <time>2022-08-03T10:08:02Z</time>
      </trkpt>
      <trkpt lat="44.62627" lon="3.21619">
        <ele>1195.8</ele>
        <time>2022-08-03T10:08:09Z</time>
      </trkpt>
      <trkpt lat="44.62627" lon="3.21618">
        <ele>1196</ele>
        <time>2022-08-03T10:08:10Z</time>
      </trkpt>
      <trkpt lat="44.62626" lon="3.21614">
        <ele>1196.3</ele>
        <time>2022-08-03T10:08:16Z</time>
      </trkpt>
      <trkpt lat="44.62628" lon="3.21613">
        <ele>1195.9</ele>
        <time>2022-08-03T10:08:24Z</time>
      </trkpt>
      <trkpt lat="44.62625" lon="3.2161">
        <ele>1196.6</ele>
        <time>2022-08-03T10:08:33Z</time>
      </trkpt>
      <trkpt lat="44.62625" lon="3.21609">
        <ele>1196.6</ele>
        <time>2022-08-03T10:08:38Z</time>
      </trkpt>
      <trkpt lat="44.62623" lon="3.21606">
        <ele>1197</ele>
        <time>2022-08-03T10:08:44Z</time>
      </trkpt>
      <trkpt lat="44.62622" lon="3.21603">
        <ele>1197.3</ele>
        <time>2022-08-03T10:09:01Z</time>
      </trkpt>
      <trkpt lat="44.6262" lon="3.21603">
        <ele>1197.5</ele>
        <time>2022-08-03T10:09:14Z</time>
      </trkpt>
      <trkpt lat="44.62617" lon="3.21601">
        <ele>1198.3</ele>
        <time>2022-08-03T10:09:21Z</time>
      </trkpt>
      <trkpt lat="44.62616" lon="3.21601">
        <ele>1198.3</ele>
        <time>2022-08-03T10:09:27Z</time>
      </trkpt>
      <trkpt lat="44.62617" lon="3.216">
        <ele>1198.3</ele>
        <time>2022-08-03T10:09:28Z</time>
      </trkpt>
      <trkpt lat="44.62614" lon="3.21596">
        <ele>1199</ele>
        <time>2022-08-03T10:09:34Z</time>
      </trkpt>
      <trkpt lat="44.62612" lon="3.21591">
        <ele>1199.5</ele>
        <time>2022-08-03T10:09:38Z</time>
      </trkpt>
      <trkpt lat="44.6261" lon="3.21588">
        <ele>1200.1</ele>
        <time>2022-08-03T10:09:41Z</time>
      </trkpt>
      <trkpt lat="44.62607" lon="3.21585">
        <ele>1200.7</ele>
        <time>2022-08-03T10:09:46Z</time>
      </trkpt>
      <trkpt lat="44.62606" lon="3.21584">
        <ele>1200.9</ele>
        <time>2022-08-03T10:09:47Z</time>
      </trkpt>
      <trkpt lat="44.62604" lon="3.21582">
        <ele>1201.3</ele>
        <time>2022-08-03T10:09:50Z</time>
      </trkpt>
      <trkpt lat="44.62604" lon="3.2158">
        <ele>1201.4</ele>
        <time>2022-08-03T10:09:52Z</time>
      </trkpt>
      <trkpt lat="44.62603" lon="3.21575">
        <ele>1201.6</ele>
        <time>2022-08-03T10:09:56Z</time>
      </trkpt>
      <trkpt lat="44.62602" lon="3.21573">
        <ele>1201.8</ele>
        <time>2022-08-03T10:09:57Z</time>
      </trkpt>
      <trkpt lat="44.626" lon="3.21569">
        <ele>1202.1</ele>
        <time>2022-08-03T10:10:01Z</time>
      </trkpt>
      <trkpt lat="44.626" lon="3.21568">
        <ele>1202.2</ele>
        <time>2022-08-03T10:10:03Z</time>
      </trkpt>
      <trkpt lat="44.626" lon="3.21568">
        <ele>1202.3</ele>
        <time>2022-08-03T10:10:04Z</time>
      </trkpt>
      <trkpt lat="44.626" lon="3.21568">
        <ele>1202.3</ele>
        <time>2022-08-03T10:10:06Z</time>
      </trkpt>
      <trkpt lat="44.626" lon="3.21566">
        <ele>1202.3</ele>
        <time>2022-08-03T10:10:09Z</time>
      </trkpt>
      <trkpt lat="44.62598" lon="3.2156">
        <ele>1202.7</ele>
        <time>2022-08-03T10:10:18Z</time>
      </trkpt>
      <trkpt lat="44.62598" lon="3.21559">
        <ele>1202.8</ele>
        <time>2022-08-03T10:10:19Z</time>
      </trkpt>
      <trkpt lat="44.62596" lon="3.2155">
        <ele>1203.2</ele>
        <time>2022-08-03T10:10:24Z</time>
      </trkpt>
      <trkpt lat="44.62594" lon="3.21547">
        <ele>1203.6</ele>
        <time>2022-08-03T10:10:28Z</time>
      </trkpt>
      <trkpt lat="44.62593" lon="3.21544">
        <ele>1203.9</ele>
        <time>2022-08-03T10:10:31Z</time>
      </trkpt>
      <trkpt lat="44.62587" lon="3.21536">
        <ele>1205</ele>
        <time>2022-08-03T10:10:38Z</time>
      </trkpt>
      <trkpt lat="44.62583" lon="3.2153">
        <ele>1206.1</ele>
        <time>2022-08-03T10:10:43Z</time>
      </trkpt>
      <trkpt lat="44.62583" lon="3.21528">
        <ele>1206.1</ele>
        <time>2022-08-03T10:10:44Z</time>
      </trkpt>
      <trkpt lat="44.62582" lon="3.21525">
        <ele>1206</ele>
        <time>2022-08-03T10:10:46Z</time>
      </trkpt>
      <trkpt lat="44.6258" lon="3.21519">
        <ele>1205.9</ele>
        <time>2022-08-03T10:10:49Z</time>
      </trkpt>
      <trkpt lat="44.62579" lon="3.21516">
        <ele>1205.9</ele>
        <time>2022-08-03T10:10:51Z</time>
      </trkpt>
      <trkpt lat="44.62578" lon="3.21514">
        <ele>1205.9</ele>
        <time>2022-08-03T10:10:53Z</time>
      </trkpt>
      <trkpt lat="44.62576" lon="3.21512">
        <ele>1206</ele>
        <time>2022-08-03T10:10:56Z</time>
      </trkpt>
      <trkpt lat="44.62575" lon="3.2151">
        <ele>1206.2</ele>
        <time>2022-08-03T10:10:58Z</time>
      </trkpt>
      <trkpt lat="44.62573" lon="3.21505">
        <ele>1206.1</ele>
        <time>2022-08-03T10:11:02Z</time>
      </trkpt>
      <trkpt lat="44.62574" lon="3.21501">
        <ele>1205.7</ele>
        <time>2022-08-03T10:11:04Z</time>
      </trkpt>
      <trkpt lat="44.62574" lon="3.21499">
        <ele>1205.6</ele>
        <time>2022-08-03T10:11:05Z</time>
      </trkpt>
      <trkpt lat="44.62574" lon="3.21497">
        <ele>1205.4</ele>
        <time>2022-08-03T10:11:07Z</time>
      </trkpt>
      <trkpt lat="44.62573" lon="3.21495">
        <ele>1205.5</ele>
        <time>2022-08-03T10:11:14Z</time>
      </trkpt>
      <trkpt lat="44.62568" lon="3.2149">
        <ele>1206</ele>
        <time>2022-08-03T10:11:20Z</time>
      </trkpt>
      <trkpt lat="44.62566" lon="3.21487">
        <ele>1206</ele>
        <time>2022-08-03T10:11:26Z</time>
      </trkpt>
      <trkpt lat="44.62566" lon="3.21486">
        <ele>1206</ele>
        <time>2022-08-03T10:11:27Z</time>
      </trkpt>
      <trkpt lat="44.62562" lon="3.21479">
        <ele>1206.2</ele>
        <time>2022-08-03T10:11:33Z</time>
      </trkpt>
      <trkpt lat="44.62555" lon="3.21471">
        <ele>1206.9</ele>
        <time>2022-08-03T10:11:40Z</time>
      </trkpt>
      <trkpt lat="44.62548" lon="3.21466">
        <ele>1207.5</ele>
        <time>2022-08-03T10:11:48Z</time>
      </trkpt>
      <trkpt lat="44.62548" lon="3.21465">
        <ele>1207.5</ele>
        <time>2022-08-03T10:11:49Z</time>
      </trkpt>
      <trkpt lat="44.62544" lon="3.21462">
        <ele>1207.9</ele>
        <time>2022-08-03T10:11:54Z</time>
      </trkpt>
      <trkpt lat="44.62542" lon="3.21459">
        <ele>1208.1</ele>
        <time>2022-08-03T10:11:56Z</time>
      </trkpt>
      <trkpt lat="44.62539" lon="3.21451">
        <ele>1208</ele>
        <time>2022-08-03T10:12:01Z</time>
      </trkpt>
      <trkpt lat="44.62537" lon="3.21448">
        <ele>1208.1</ele>
        <time>2022-08-03T10:12:04Z</time>
      </trkpt>
      <trkpt lat="44.62538" lon="3.21446">
        <ele>1207.9</ele>
        <time>2022-08-03T10:12:06Z</time>
      </trkpt>
      <trkpt lat="44.62538" lon="3.21445">
        <ele>1207.8</ele>
        <time>2022-08-03T10:12:09Z</time>
      </trkpt>
      <trkpt lat="44.62538" lon="3.21444">
        <ele>1207.7</ele>
        <time>2022-08-03T10:12:10Z</time>
      </trkpt>
      <trkpt lat="44.62535" lon="3.21444">
        <ele>1208.3</ele>
        <time>2022-08-03T10:12:14Z</time>
      </trkpt>
      <trkpt lat="44.62535" lon="3.21443">
        <ele>1208.4</ele>
        <time>2022-08-03T10:12:15Z</time>
      </trkpt>
      <trkpt lat="44.62534" lon="3.21442">
        <ele>1208.3</ele>
        <time>2022-08-03T10:12:16Z</time>
      </trkpt>
      <trkpt lat="44.62534" lon="3.21437">
        <ele>1207.9</ele>
        <time>2022-08-03T10:12:21Z</time>
      </trkpt>
      <trkpt lat="44.62535" lon="3.21433">
        <ele>1207.2</ele>
        <time>2022-08-03T10:12:28Z</time>
      </trkpt>
      <trkpt lat="44.6253" lon="3.21429">
        <ele>1207.9</ele>
        <time>2022-08-03T10:12:36Z</time>
      </trkpt>
      <trkpt lat="44.62523" lon="3.21423">
        <ele>1208.4</ele>
        <time>2022-08-03T10:12:44Z</time>
      </trkpt>
      <trkpt lat="44.62517" lon="3.21419">
        <ele>1208.7</ele>
        <time>2022-08-03T10:12:51Z</time>
      </trkpt>
      <trkpt lat="44.62515" lon="3.21417">
        <ele>1208.9</ele>
        <time>2022-08-03T10:12:53Z</time>
      </trkpt>
      <trkpt lat="44.62512" lon="3.21415">
        <ele>1209</ele>
        <time>2022-08-03T10:12:57Z</time>
      </trkpt>
      <trkpt lat="44.62511" lon="3.21414">
        <ele>1208.9</ele>
        <time>2022-08-03T10:12:58Z</time>
      </trkpt>
      <trkpt lat="44.6251" lon="3.21413">
        <ele>1208.9</ele>
        <time>2022-08-03T10:12:59Z</time>
      </trkpt>
      <trkpt lat="44.62508" lon="3.21414">
        <ele>1209.4</ele>
        <time>2022-08-03T10:13:01Z</time>
      </trkpt>
      <trkpt lat="44.62505" lon="3.21414">
        <ele>1209.8</ele>
        <time>2022-08-03T10:13:03Z</time>
      </trkpt>
      <trkpt lat="44.62503" lon="3.21411">
        <ele>1209.6</ele>
        <time>2022-08-03T10:13:06Z</time>
      </trkpt>
      <trkpt lat="44.625" lon="3.21408">
        <ele>1209.4</ele>
        <time>2022-08-03T10:13:09Z</time>
      </trkpt>
      <trkpt lat="44.62497" lon="3.21406">
        <ele>1209.3</ele>
        <time>2022-08-03T10:13:11Z</time>
      </trkpt>
      <trkpt lat="44.6249" lon="3.21398">
        <ele>1209</ele>
        <time>2022-08-03T10:13:19Z</time>
      </trkpt>
      <trkpt lat="44.62482" lon="3.21392">
        <ele>1209</ele>
        <time>2022-08-03T10:13:27Z</time>
      </trkpt>
      <trkpt lat="44.62472" lon="3.21383">
        <ele>1209.2</ele>
        <time>2022-08-03T10:13:36Z</time>
      </trkpt>
      <trkpt lat="44.62463" lon="3.21376">
        <ele>1209.1</ele>
        <time>2022-08-03T10:13:46Z</time>
      </trkpt>
      <trkpt lat="44.62461" lon="3.2137">
        <ele>1208.5</ele>
        <time>2022-08-03T10:13:50Z</time>
      </trkpt>
      <trkpt lat="44.62461" lon="3.21371">
        <ele>1208.6</ele>
        <time>2022-08-03T10:13:53Z</time>
      </trkpt>
      <trkpt lat="44.62459" lon="3.2137">
        <ele>1208.6</ele>
        <time>2022-08-03T10:13:59Z</time>
      </trkpt>
      <trkpt lat="44.62458" lon="3.21368">
        <ele>1208.6</ele>
        <time>2022-08-03T10:14:00Z</time>
      </trkpt>
      <trkpt lat="44.62452" lon="3.21359">
        <ele>1207.7</ele>
        <time>2022-08-03T10:14:07Z</time>
      </trkpt>
      <trkpt lat="44.6245" lon="3.2135">
        <ele>1206.5</ele>
        <time>2022-08-03T10:14:11Z</time>
      </trkpt>
      <trkpt lat="44.62447" lon="3.21345">
        <ele>1205.9</ele>
        <time>2022-08-03T10:14:16Z</time>
      </trkpt>
      <trkpt lat="44.6244" lon="3.21338">
        <ele>1205.4</ele>
        <time>2022-08-03T10:14:23Z</time>
      </trkpt>
      <trkpt lat="44.62438" lon="3.21335">
        <ele>1205.2</ele>
        <time>2022-08-03T10:14:25Z</time>
      </trkpt>
      <trkpt lat="44.62432" lon="3.21324">
        <ele>1204.4</ele>
        <time>2022-08-03T10:14:33Z</time>
      </trkpt>
      <trkpt lat="44.62431" lon="3.21323">
        <ele>1204.4</ele>
        <time>2022-08-03T10:14:35Z</time>
      </trkpt>
      <trkpt lat="44.62429" lon="3.2132">
        <ele>1204.3</ele>
        <time>2022-08-03T10:14:38Z</time>
      </trkpt>
      <trkpt lat="44.62429" lon="3.21319">
        <ele>1204.2</ele>
        <time>2022-08-03T10:14:39Z</time>
      </trkpt>
      <trkpt lat="44.62424" lon="3.21315">
        <ele>1204.3</ele>
        <time>2022-08-03T10:14:45Z</time>
      </trkpt>
      <trkpt lat="44.62421" lon="3.21312">
        <ele>1204.2</ele>
        <time>2022-08-03T10:14:49Z</time>
      </trkpt>
      <trkpt lat="44.62419" lon="3.21307">
        <ele>1203.9</ele>
        <time>2022-08-03T10:14:51Z</time>
      </trkpt>
      <trkpt lat="44.62418" lon="3.21306">
        <ele>1203.9</ele>
        <time>2022-08-03T10:14:52Z</time>
      </trkpt>
      <trkpt lat="44.62414" lon="3.21301">
        <ele>1203.7</ele>
        <time>2022-08-03T10:14:57Z</time>
      </trkpt>
      <trkpt lat="44.62405" lon="3.21294">
        <ele>1204</ele>
        <time>2022-08-03T10:15:04Z</time>
      </trkpt>
      <trkpt lat="44.62403" lon="3.21293">
        <ele>1204.1</ele>
        <time>2022-08-03T10:15:06Z</time>
      </trkpt>
      <trkpt lat="44.62399" lon="3.21289">
        <ele>1204.1</ele>
        <time>2022-08-03T10:15:10Z</time>
      </trkpt>
      <trkpt lat="44.62392" lon="3.21283">
        <ele>1204.2</ele>
        <time>2022-08-03T10:15:17Z</time>
      </trkpt>
      <trkpt lat="44.62383" lon="3.21272">
        <ele>1203.7</ele>
        <time>2022-08-03T10:15:25Z</time>
      </trkpt>
      <trkpt lat="44.62382" lon="3.2127">
        <ele>1203.5</ele>
        <time>2022-08-03T10:15:27Z</time>
      </trkpt>
      <trkpt lat="44.62378" lon="3.21265">
        <ele>1203.2</ele>
        <time>2022-08-03T10:15:30Z</time>
      </trkpt>
      <trkpt lat="44.6237" lon="3.2126">
        <ele>1203</ele>
        <time>2022-08-03T10:15:35Z</time>
      </trkpt>
      <trkpt lat="44.62367" lon="3.21259">
        <ele>1203.1</ele>
        <time>2022-08-03T10:15:37Z</time>
      </trkpt>
      <trkpt lat="44.6236" lon="3.21252">
        <ele>1202.6</ele>
        <time>2022-08-03T10:15:44Z</time>
      </trkpt>
      <trkpt lat="44.62358" lon="3.21248">
        <ele>1202.2</ele>
        <time>2022-08-03T10:15:46Z</time>
      </trkpt>
      <trkpt lat="44.62356" lon="3.21244">
        <ele>1202</ele>
        <time>2022-08-03T10:15:48Z</time>
      </trkpt>
      <trkpt lat="44.62353" lon="3.21243">
        <ele>1202.3</ele>
        <time>2022-08-03T10:15:51Z</time>
      </trkpt>
      <trkpt lat="44.62346" lon="3.21235">
        <ele>1202.3</ele>
        <time>2022-08-03T10:16:00Z</time>
      </trkpt>
      <trkpt lat="44.62345" lon="3.21232">
        <ele>1202</ele>
        <time>2022-08-03T10:16:02Z</time>
      </trkpt>
      <trkpt lat="44.62346" lon="3.21231">
        <ele>1201.7</ele>
        <time>2022-08-03T10:16:05Z</time>
      </trkpt>
      <trkpt lat="44.62345" lon="3.2123">
        <ele>1201.7</ele>
        <time>2022-08-03T10:16:07Z</time>
      </trkpt>
      <trkpt lat="44.62346" lon="3.2123">
        <ele>1201.6</ele>
        <time>2022-08-03T10:16:09Z</time>
      </trkpt>
      <trkpt lat="44.62347" lon="3.2123">
        <ele>1201.5</ele>
        <time>2022-08-03T10:16:10Z</time>
      </trkpt>
      <trkpt lat="44.62349" lon="3.21232">
        <ele>1201.5</ele>
        <time>2022-08-03T10:16:17Z</time>
      </trkpt>
      <trkpt lat="44.62346" lon="3.21231">
        <ele>1201.8</ele>
        <time>2022-08-03T10:16:26Z</time>
      </trkpt>
      <trkpt lat="44.62341" lon="3.21229">
        <ele>1202</ele>
        <time>2022-08-03T10:16:31Z</time>
      </trkpt>
      <trkpt lat="44.62338" lon="3.21226">
        <ele>1202.1</ele>
        <time>2022-08-03T10:16:39Z</time>
      </trkpt>
      <trkpt lat="44.62331" lon="3.21223">
        <ele>1202.2</ele>
        <time>2022-08-03T10:16:45Z</time>
      </trkpt>
      <trkpt lat="44.62329" lon="3.21222">
        <ele>1202.3</ele>
        <time>2022-08-03T10:16:51Z</time>
      </trkpt>
      <trkpt lat="44.62322" lon="3.21217">
        <ele>1202.3</ele>
        <time>2022-08-03T10:16:57Z</time>
      </trkpt>
      <trkpt lat="44.62316" lon="3.21214">
        <ele>1202.3</ele>
        <time>2022-08-03T10:17:02Z</time>
      </trkpt>
      <trkpt lat="44.62316" lon="3.21214">
        <ele>1202.4</ele>
        <time>2022-08-03T10:17:03Z</time>
      </trkpt>
      <trkpt lat="44.62304" lon="3.21209">
        <ele>1202.7</ele>
        <time>2022-08-03T10:17:13Z</time>
      </trkpt>
      <trkpt lat="44.62303" lon="3.21208">
        <ele>1202.7</ele>
        <time>2022-08-03T10:17:14Z</time>
      </trkpt>
      <trkpt lat="44.62301" lon="3.21208">
        <ele>1202.7</ele>
        <time>2022-08-03T10:17:16Z</time>
      </trkpt>
      <trkpt lat="44.62298" lon="3.21209">
        <ele>1203</ele>
        <time>2022-08-03T10:17:19Z</time>
      </trkpt>
      <trkpt lat="44.62297" lon="3.21209">
        <ele>1203.1</ele>
        <time>2022-08-03T10:17:20Z</time>
      </trkpt>
      <trkpt lat="44.62295" lon="3.2121">
        <ele>1203.3</ele>
        <time>2022-08-03T10:17:22Z</time>
      </trkpt>
      <trkpt lat="44.62292" lon="3.21212">
        <ele>1203.6</ele>
        <time>2022-08-03T10:17:25Z</time>
      </trkpt>
      <trkpt lat="44.62287" lon="3.21211">
        <ele>1203.9</ele>
        <time>2022-08-03T10:17:30Z</time>
      </trkpt>
      <trkpt lat="44.62286" lon="3.21211">
        <ele>1203.9</ele>
        <time>2022-08-03T10:17:31Z</time>
      </trkpt>
      <trkpt lat="44.62275" lon="3.21211">
        <ele>1204.3</ele>
        <time>2022-08-03T10:17:38Z</time>
      </trkpt>
      <trkpt lat="44.62273" lon="3.21211">
        <ele>1204.4</ele>
        <time>2022-08-03T10:17:40Z</time>
      </trkpt>
      <trkpt lat="44.62269" lon="3.21212">
        <ele>1204.5</ele>
        <time>2022-08-03T10:17:44Z</time>
      </trkpt>
      <trkpt lat="44.62264" lon="3.21214">
        <ele>1204.8</ele>
        <time>2022-08-03T10:17:49Z</time>
      </trkpt>
      <trkpt lat="44.6226" lon="3.21217">
        <ele>1205.3</ele>
        <time>2022-08-03T10:17:53Z</time>
      </trkpt>
      <trkpt lat="44.62258" lon="3.21217">
        <ele>1205.3</ele>
        <time>2022-08-03T10:17:54Z</time>
      </trkpt>
      <trkpt lat="44.62256" lon="3.21217">
        <ele>1205.3</ele>
        <time>2022-08-03T10:17:56Z</time>
      </trkpt>
      <trkpt lat="44.62253" lon="3.21217">
        <ele>1205.3</ele>
        <time>2022-08-03T10:17:59Z</time>
      </trkpt>
      <trkpt lat="44.6225" lon="3.21218">
        <ele>1205.4</ele>
        <time>2022-08-03T10:18:03Z</time>
      </trkpt>
      <trkpt lat="44.62249" lon="3.2122">
        <ele>1205.6</ele>
        <time>2022-08-03T10:18:05Z</time>
      </trkpt>
      <trkpt lat="44.62244" lon="3.21225">
        <ele>1206.1</ele>
        <time>2022-08-03T10:18:11Z</time>
      </trkpt>
      <trkpt lat="44.62242" lon="3.21227">
        <ele>1206.4</ele>
        <time>2022-08-03T10:18:13Z</time>
      </trkpt>
      <trkpt lat="44.62237" lon="3.2123">
        <ele>1206.9</ele>
        <time>2022-08-03T10:18:17Z</time>
      </trkpt>
      <trkpt lat="44.62235" lon="3.2123">
        <ele>1206.8</ele>
        <time>2022-08-03T10:18:18Z</time>
      </trkpt>
      <trkpt lat="44.62233" lon="3.21231">
        <ele>1206.9</ele>
        <time>2022-08-03T10:18:20Z</time>
      </trkpt>
      <trkpt lat="44.62232" lon="3.21232">
        <ele>1207.1</ele>
        <time>2022-08-03T10:18:21Z</time>
      </trkpt>
      <trkpt lat="44.62226" lon="3.21242">
        <ele>1208.6</ele>
        <time>2022-08-03T10:18:30Z</time>
      </trkpt>
      <trkpt lat="44.6222" lon="3.2125">
        <ele>1209.8</ele>
        <time>2022-08-03T10:18:38Z</time>
      </trkpt>
      <trkpt lat="44.62218" lon="3.21253">
        <ele>1209.8</ele>
        <time>2022-08-03T10:18:40Z</time>
      </trkpt>
      <trkpt lat="44.6221" lon="3.21259">
        <ele>1209.6</ele>
        <time>2022-08-03T10:18:46Z</time>
      </trkpt>
      <trkpt lat="44.62206" lon="3.21265">
        <ele>1209.9</ele>
        <time>2022-08-03T10:18:51Z</time>
      </trkpt>
      <trkpt lat="44.62206" lon="3.21267">
        <ele>1210.1</ele>
        <time>2022-08-03T10:18:53Z</time>
      </trkpt>
      <trkpt lat="44.62204" lon="3.21272">
        <ele>1210.4</ele>
        <time>2022-08-03T10:18:57Z</time>
      </trkpt>
      <trkpt lat="44.62203" lon="3.21274">
        <ele>1210.5</ele>
        <time>2022-08-03T10:18:59Z</time>
      </trkpt>
      <trkpt lat="44.62203" lon="3.21276">
        <ele>1210.7</ele>
        <time>2022-08-03T10:19:00Z</time>
      </trkpt>
      <trkpt lat="44.62203" lon="3.21284">
        <ele>1211.4</ele>
        <time>2022-08-03T10:19:05Z</time>
      </trkpt>
      <trkpt lat="44.62202" lon="3.21285">
        <ele>1211.5</ele>
        <time>2022-08-03T10:19:06Z</time>
      </trkpt>
      <trkpt lat="44.62197" lon="3.21294">
        <ele>1211.4</ele>
        <time>2022-08-03T10:19:13Z</time>
      </trkpt>
      <trkpt lat="44.62195" lon="3.21295">
        <ele>1211.4</ele>
        <time>2022-08-03T10:19:14Z</time>
      </trkpt>
      <trkpt lat="44.62189" lon="3.21304">
        <ele>1211.2</ele>
        <time>2022-08-03T10:19:21Z</time>
      </trkpt>
      <trkpt lat="44.62185" lon="3.21308">
        <ele>1211.3</ele>
        <time>2022-08-03T10:19:25Z</time>
      </trkpt>
      <trkpt lat="44.62182" lon="3.2131">
        <ele>1211.1</ele>
        <time>2022-08-03T10:19:28Z</time>
      </trkpt>
      <trkpt lat="44.6218" lon="3.21315">
        <ele>1211.4</ele>
        <time>2022-08-03T10:19:32Z</time>
      </trkpt>
      <trkpt lat="44.62174" lon="3.21323">
        <ele>1211.7</ele>
        <time>2022-08-03T10:19:38Z</time>
      </trkpt>
      <trkpt lat="44.62167" lon="3.21336">
        <ele>1212.2</ele>
        <time>2022-08-03T10:19:48Z</time>
      </trkpt>
      <trkpt lat="44.62165" lon="3.21338">
        <ele>1212.2</ele>
        <time>2022-08-03T10:19:50Z</time>
      </trkpt>
      <trkpt lat="44.62164" lon="3.21339">
        <ele>1212.2</ele>
        <time>2022-08-03T10:19:51Z</time>
      </trkpt>
      <trkpt lat="44.62161" lon="3.21344">
        <ele>1212.3</ele>
        <time>2022-08-03T10:19:55Z</time>
      </trkpt>
      <trkpt lat="44.62161" lon="3.21346">
        <ele>1212.4</ele>
        <time>2022-08-03T10:19:56Z</time>
      </trkpt>
      <trkpt lat="44.62159" lon="3.21352">
        <ele>1212.6</ele>
        <time>2022-08-03T10:20:00Z</time>
      </trkpt>
      <trkpt lat="44.62159" lon="3.21352">
        <ele>1212.6</ele>
        <time>2022-08-03T10:20:02Z</time>
      </trkpt>
      <trkpt lat="44.62159" lon="3.21351">
        <ele>1212.5</ele>
        <time>2022-08-03T10:20:03Z</time>
      </trkpt>
      <trkpt lat="44.62158" lon="3.21353">
        <ele>1212.6</ele>
        <time>2022-08-03T10:20:05Z</time>
      </trkpt>
      <trkpt lat="44.62156" lon="3.21358">
        <ele>1212.6</ele>
        <time>2022-08-03T10:20:09Z</time>
      </trkpt>
      <trkpt lat="44.62156" lon="3.21363">
        <ele>1213</ele>
        <time>2022-08-03T10:20:12Z</time>
      </trkpt>
      <trkpt lat="44.62155" lon="3.21363">
        <ele>1212.9</ele>
        <time>2022-08-03T10:20:14Z</time>
      </trkpt>
      <trkpt lat="44.62154" lon="3.21365">
        <ele>1212.9</ele>
        <time>2022-08-03T10:20:16Z</time>
      </trkpt>
      <trkpt lat="44.62151" lon="3.21369">
        <ele>1212.9</ele>
        <time>2022-08-03T10:20:20Z</time>
      </trkpt>
      <trkpt lat="44.62151" lon="3.2137">
        <ele>1212.9</ele>
        <time>2022-08-03T10:20:22Z</time>
      </trkpt>
      <trkpt lat="44.62148" lon="3.21373">
        <ele>1212.8</ele>
        <time>2022-08-03T10:20:26Z</time>
      </trkpt>
      <trkpt lat="44.6215" lon="3.21375">
        <ele>1213.2</ele>
        <time>2022-08-03T10:20:31Z</time>
      </trkpt>
      <trkpt lat="44.62151" lon="3.21372">
        <ele>1213</ele>
        <time>2022-08-03T10:20:40Z</time>
      </trkpt>
      <trkpt lat="44.62152" lon="3.21368">
        <ele>1212.9</ele>
        <time>2022-08-03T10:20:47Z</time>
      </trkpt>
      <trkpt lat="44.62151" lon="3.21367">
        <ele>1212.8</ele>
        <time>2022-08-03T10:20:57Z</time>
      </trkpt>
      <trkpt lat="44.62148" lon="3.21375">
        <ele>1213</ele>
        <time>2022-08-03T10:21:03Z</time>
      </trkpt>
      <trkpt lat="44.62149" lon="3.21381">
        <ele>1213.5</ele>
        <time>2022-08-03T10:21:07Z</time>
      </trkpt>
      <trkpt lat="44.62149" lon="3.21382">
        <ele>1213.6</ele>
        <time>2022-08-03T10:21:09Z</time>
      </trkpt>
      <trkpt lat="44.62149" lon="3.21384">
        <ele>1213.8</ele>
        <time>2022-08-03T10:21:15Z</time>
      </trkpt>
      <trkpt lat="44.62149" lon="3.21384">
        <ele>1213.8</ele>
        <time>2022-08-03T10:21:24Z</time>
      </trkpt>
      <trkpt lat="44.62148" lon="3.21388">
        <ele>1214</ele>
        <time>2022-08-03T10:21:43Z</time>
      </trkpt>
      <trkpt lat="44.62147" lon="3.21393">
        <ele>1214</ele>
        <time>2022-08-03T10:21:45Z</time>
      </trkpt>
      <trkpt lat="44.62146" lon="3.21398">
        <ele>1214.1</ele>
        <time>2022-08-03T10:21:49Z</time>
      </trkpt>
      <trkpt lat="44.62146" lon="3.21399">
        <ele>1214.2</ele>
        <time>2022-08-03T10:21:51Z</time>
      </trkpt>
      <trkpt lat="44.62148" lon="3.21401">
        <ele>1214.4</ele>
        <time>2022-08-03T10:21:57Z</time>
      </trkpt>
      <trkpt lat="44.62146" lon="3.21399">
        <ele>1214.1</ele>
        <time>2022-08-03T10:22:10Z</time>
      </trkpt>
      <trkpt lat="44.62143" lon="3.21405">
        <ele>1214</ele>
        <time>2022-08-03T10:22:26Z</time>
      </trkpt>
      <trkpt lat="44.62142" lon="3.21409">
        <ele>1214.1</ele>
        <time>2022-08-03T10:22:28Z</time>
      </trkpt>
      <trkpt lat="44.6214" lon="3.21414">
        <ele>1214</ele>
        <time>2022-08-03T10:22:32Z</time>
      </trkpt>
      <trkpt lat="44.62139" lon="3.21415">
        <ele>1214</ele>
        <time>2022-08-03T10:22:33Z</time>
      </trkpt>
      <trkpt lat="44.62135" lon="3.2142">
        <ele>1213.8</ele>
        <time>2022-08-03T10:22:37Z</time>
      </trkpt>
      <trkpt lat="44.62135" lon="3.21422">
        <ele>1214</ele>
        <time>2022-08-03T10:22:38Z</time>
      </trkpt>
      <trkpt lat="44.62134" lon="3.21424">
        <ele>1214</ele>
        <time>2022-08-03T10:22:39Z</time>
      </trkpt>
      <trkpt lat="44.62131" lon="3.21429">
        <ele>1214</ele>
        <time>2022-08-03T10:22:42Z</time>
      </trkpt>
      <trkpt lat="44.62131" lon="3.21432">
        <ele>1214.2</ele>
        <time>2022-08-03T10:22:44Z</time>
      </trkpt>
      <trkpt lat="44.62126" lon="3.21441">
        <ele>1214.4</ele>
        <time>2022-08-03T10:22:51Z</time>
      </trkpt>
      <trkpt lat="44.62127" lon="3.21443">
        <ele>1214.6</ele>
        <time>2022-08-03T10:22:52Z</time>
      </trkpt>
      <trkpt lat="44.62125" lon="3.21447">
        <ele>1214.7</ele>
        <time>2022-08-03T10:22:56Z</time>
      </trkpt>
      <trkpt lat="44.62124" lon="3.21448">
        <ele>1214.6</ele>
        <time>2022-08-03T10:22:57Z</time>
      </trkpt>
      <trkpt lat="44.62123" lon="3.21449">
        <ele>1214.6</ele>
        <time>2022-08-03T10:22:58Z</time>
      </trkpt>
      <trkpt lat="44.62121" lon="3.21456">
        <ele>1214.7</ele>
        <time>2022-08-03T10:23:03Z</time>
      </trkpt>
      <trkpt lat="44.6212" lon="3.21457">
        <ele>1214.7</ele>
        <time>2022-08-03T10:23:04Z</time>
      </trkpt>
      <trkpt lat="44.62115" lon="3.21462">
        <ele>1214.6</ele>
        <time>2022-08-03T10:23:10Z</time>
      </trkpt>
      <trkpt lat="44.6211" lon="3.21468">
        <ele>1214.6</ele>
        <time>2022-08-03T10:23:14Z</time>
      </trkpt>
      <trkpt lat="44.62108" lon="3.21472">
        <ele>1214.7</ele>
        <time>2022-08-03T10:23:16Z</time>
      </trkpt>
      <trkpt lat="44.62105" lon="3.21476">
        <ele>1214.8</ele>
        <time>2022-08-03T10:23:21Z</time>
      </trkpt>
      <trkpt lat="44.62102" lon="3.2148">
        <ele>1214.9</ele>
        <time>2022-08-03T10:23:24Z</time>
      </trkpt>
      <trkpt lat="44.62101" lon="3.21488">
        <ele>1215.4</ele>
        <time>2022-08-03T10:23:30Z</time>
      </trkpt>
      <trkpt lat="44.62101" lon="3.21489">
        <ele>1215.5</ele>
        <time>2022-08-03T10:23:31Z</time>
      </trkpt>
      <trkpt lat="44.621" lon="3.21491">
        <ele>1215.5</ele>
        <time>2022-08-03T10:23:32Z</time>
      </trkpt>
      <trkpt lat="44.62097" lon="3.21496">
        <ele>1215.7</ele>
        <time>2022-08-03T10:23:36Z</time>
      </trkpt>
      <trkpt lat="44.62095" lon="3.21497">
        <ele>1215.6</ele>
        <time>2022-08-03T10:23:37Z</time>
      </trkpt>
      <trkpt lat="44.62094" lon="3.21499">
        <ele>1215.7</ele>
        <time>2022-08-03T10:23:41Z</time>
      </trkpt>
      <trkpt lat="44.62089" lon="3.21505">
        <ele>1215.9</ele>
        <time>2022-08-03T10:23:46Z</time>
      </trkpt>
      <trkpt lat="44.62089" lon="3.21506">
        <ele>1215.9</ele>
        <time>2022-08-03T10:23:47Z</time>
      </trkpt>
      <trkpt lat="44.62084" lon="3.21511">
        <ele>1215.9</ele>
        <time>2022-08-03T10:23:51Z</time>
      </trkpt>
      <trkpt lat="44.62084" lon="3.21512">
        <ele>1215.9</ele>
        <time>2022-08-03T10:23:52Z</time>
      </trkpt>
      <trkpt lat="44.62083" lon="3.21515">
        <ele>1216.1</ele>
        <time>2022-08-03T10:23:54Z</time>
      </trkpt>
      <trkpt lat="44.62082" lon="3.21521">
        <ele>1216.4</ele>
        <time>2022-08-03T10:23:58Z</time>
      </trkpt>
      <trkpt lat="44.62077" lon="3.21529">
        <ele>1216.9</ele>
        <time>2022-08-03T10:24:03Z</time>
      </trkpt>
      <trkpt lat="44.62076" lon="3.21532">
        <ele>1217.1</ele>
        <time>2022-08-03T10:24:06Z</time>
      </trkpt>
      <trkpt lat="44.62076" lon="3.21536">
        <ele>1217.4</ele>
        <time>2022-08-03T10:24:09Z</time>
      </trkpt>
      <trkpt lat="44.62073" lon="3.21544">
        <ele>1218</ele>
        <time>2022-08-03T10:24:14Z</time>
      </trkpt>
      <trkpt lat="44.62072" lon="3.21549">
        <ele>1218.2</ele>
        <time>2022-08-03T10:24:16Z</time>
      </trkpt>
      <trkpt lat="44.62069" lon="3.21553">
        <ele>1218.3</ele>
        <time>2022-08-03T10:24:19Z</time>
      </trkpt>
      <trkpt lat="44.62068" lon="3.21554">
        <ele>1218.3</ele>
        <time>2022-08-03T10:24:20Z</time>
      </trkpt>
      <trkpt lat="44.62067" lon="3.21558">
        <ele>1218.5</ele>
        <time>2022-08-03T10:24:23Z</time>
      </trkpt>
      <trkpt lat="44.62067" lon="3.21559">
        <ele>1218.6</ele>
        <time>2022-08-03T10:24:25Z</time>
      </trkpt>
      <trkpt lat="44.62066" lon="3.21563">
        <ele>1218.8</ele>
        <time>2022-08-03T10:24:28Z</time>
      </trkpt>
      <trkpt lat="44.62065" lon="3.21564">
        <ele>1218.8</ele>
        <time>2022-08-03T10:24:29Z</time>
      </trkpt>
      <trkpt lat="44.62063" lon="3.21565">
        <ele>1218.6</ele>
        <time>2022-08-03T10:24:31Z</time>
      </trkpt>
      <trkpt lat="44.62058" lon="3.2157">
        <ele>1218.3</ele>
        <time>2022-08-03T10:24:36Z</time>
      </trkpt>
      <trkpt lat="44.62051" lon="3.21578">
        <ele>1218.3</ele>
        <time>2022-08-03T10:24:45Z</time>
      </trkpt>
      <trkpt lat="44.6205" lon="3.21581">
        <ele>1218.4</ele>
        <time>2022-08-03T10:24:47Z</time>
      </trkpt>
      <trkpt lat="44.62049" lon="3.21585">
        <ele>1218.7</ele>
        <time>2022-08-03T10:24:49Z</time>
      </trkpt>
      <trkpt lat="44.62047" lon="3.21591">
        <ele>1219.1</ele>
        <time>2022-08-03T10:24:52Z</time>
      </trkpt>
      <trkpt lat="44.62045" lon="3.21597">
        <ele>1219.5</ele>
        <time>2022-08-03T10:24:56Z</time>
      </trkpt>
      <trkpt lat="44.62042" lon="3.21602">
        <ele>1219.6</ele>
        <time>2022-08-03T10:25:00Z</time>
      </trkpt>
      <trkpt lat="44.62041" lon="3.21603">
        <ele>1219.6</ele>
        <time>2022-08-03T10:25:01Z</time>
      </trkpt>
      <trkpt lat="44.62035" lon="3.21607">
        <ele>1219.4</ele>
        <time>2022-08-03T10:25:06Z</time>
      </trkpt>
      <trkpt lat="44.62034" lon="3.21611">
        <ele>1219.7</ele>
        <time>2022-08-03T10:25:09Z</time>
      </trkpt>
      <trkpt lat="44.62035" lon="3.21614">
        <ele>1220</ele>
        <time>2022-08-03T10:25:11Z</time>
      </trkpt>
      <trkpt lat="44.62035" lon="3.21614">
        <ele>1220</ele>
        <time>2022-08-03T10:25:12Z</time>
      </trkpt>
      <trkpt lat="44.62035" lon="3.21617">
        <ele>1220.2</ele>
        <time>2022-08-03T10:25:13Z</time>
      </trkpt>
      <trkpt lat="44.62035" lon="3.21621">
        <ele>1220.5</ele>
        <time>2022-08-03T10:25:16Z</time>
      </trkpt>
      <trkpt lat="44.62035" lon="3.21624">
        <ele>1220.7</ele>
        <time>2022-08-03T10:25:18Z</time>
      </trkpt>
      <trkpt lat="44.62034" lon="3.21627">
        <ele>1220.8</ele>
        <time>2022-08-03T10:25:21Z</time>
      </trkpt>
      <trkpt lat="44.62033" lon="3.21629">
        <ele>1220.8</ele>
        <time>2022-08-03T10:25:23Z</time>
      </trkpt>
      <trkpt lat="44.6203" lon="3.21635">
        <ele>1221</ele>
        <time>2022-08-03T10:25:26Z</time>
      </trkpt>
      <trkpt lat="44.62029" lon="3.21639">
        <ele>1221.2</ele>
        <time>2022-08-03T10:25:28Z</time>
      </trkpt>
      <trkpt lat="44.62028" lon="3.21643">
        <ele>1221.4</ele>
        <time>2022-08-03T10:25:30Z</time>
      </trkpt>
      <trkpt lat="44.62024" lon="3.21654">
        <ele>1222.5</ele>
        <time>2022-08-03T10:25:38Z</time>
      </trkpt>
      <trkpt lat="44.62022" lon="3.21655">
        <ele>1222.5</ele>
        <time>2022-08-03T10:25:39Z</time>
      </trkpt>
      <trkpt lat="44.62022" lon="3.21656">
        <ele>1222.6</ele>
        <time>2022-08-03T10:25:42Z</time>
      </trkpt>
      <trkpt lat="44.62022" lon="3.21655">
        <ele>1222.5</ele>
        <time>2022-08-03T10:25:49Z</time>
      </trkpt>
      <trkpt lat="44.62021" lon="3.21655">
        <ele>1222.5</ele>
        <time>2022-08-03T10:26:01Z</time>
      </trkpt>
      <trkpt lat="44.6202" lon="3.21661">
        <ele>1223</ele>
        <time>2022-08-03T10:26:08Z</time>
      </trkpt>
      <trkpt lat="44.62017" lon="3.21668">
        <ele>1223.3</ele>
        <time>2022-08-03T10:26:11Z</time>
      </trkpt>
      <trkpt lat="44.62016" lon="3.21672">
        <ele>1223.4</ele>
        <time>2022-08-03T10:26:13Z</time>
      </trkpt>
      <trkpt lat="44.62014" lon="3.21674">
        <ele>1223.4</ele>
        <time>2022-08-03T10:26:15Z</time>
      </trkpt>
      <trkpt lat="44.6201" lon="3.21686">
        <ele>1223.7</ele>
        <time>2022-08-03T10:26:22Z</time>
      </trkpt>
      <trkpt lat="44.6201" lon="3.21688">
        <ele>1223.8</ele>
        <time>2022-08-03T10:26:23Z</time>
      </trkpt>
      <trkpt lat="44.62008" lon="3.21695">
        <ele>1223.9</ele>
        <time>2022-08-03T10:26:28Z</time>
      </trkpt>
      <trkpt lat="44.62003" lon="3.217">
        <ele>1223.7</ele>
        <time>2022-08-03T10:26:33Z</time>
      </trkpt>
      <trkpt lat="44.62001" lon="3.21703">
        <ele>1223.7</ele>
        <time>2022-08-03T10:26:35Z</time>
      </trkpt>
      <trkpt lat="44.62" lon="3.21707">
        <ele>1223.9</ele>
        <time>2022-08-03T10:26:37Z</time>
      </trkpt>
      <trkpt lat="44.62" lon="3.21708">
        <ele>1224</ele>
        <time>2022-08-03T10:26:38Z</time>
      </trkpt>
      <trkpt lat="44.61997" lon="3.21715">
        <ele>1224.4</ele>
        <time>2022-08-03T10:26:42Z</time>
      </trkpt>
      <trkpt lat="44.61996" lon="3.21716">
        <ele>1224.5</ele>
        <time>2022-08-03T10:26:43Z</time>
      </trkpt>
      <trkpt lat="44.61993" lon="3.21724">
        <ele>1224.8</ele>
        <time>2022-08-03T10:26:48Z</time>
      </trkpt>
      <trkpt lat="44.61988" lon="3.21733">
        <ele>1224.8</ele>
        <time>2022-08-03T10:26:55Z</time>
      </trkpt>
      <trkpt lat="44.61981" lon="3.21747">
        <ele>1224.6</ele>
        <time>2022-08-03T10:27:04Z</time>
      </trkpt>
      <trkpt lat="44.61972" lon="3.21752">
        <ele>1224.1</ele>
        <time>2022-08-03T10:27:11Z</time>
      </trkpt>
      <trkpt lat="44.61966" lon="3.21751">
        <ele>1224.5</ele>
        <time>2022-08-03T10:27:16Z</time>
      </trkpt>
      <trkpt lat="44.61964" lon="3.21751">
        <ele>1224.6</ele>
        <time>2022-08-03T10:27:17Z</time>
      </trkpt>
      <trkpt lat="44.61958" lon="3.21752">
        <ele>1225</ele>
        <time>2022-08-03T10:27:22Z</time>
      </trkpt>
      <trkpt lat="44.61957" lon="3.21753">
        <ele>1225.2</ele>
        <time>2022-08-03T10:27:24Z</time>
      </trkpt>
      <trkpt lat="44.61947" lon="3.21754">
        <ele>1225.8</ele>
        <time>2022-08-03T10:27:32Z</time>
      </trkpt>
      <trkpt lat="44.61946" lon="3.21755">
        <ele>1225.9</ele>
        <time>2022-08-03T10:27:33Z</time>
      </trkpt>
      <trkpt lat="44.61943" lon="3.21756">
        <ele>1226.1</ele>
        <time>2022-08-03T10:27:35Z</time>
      </trkpt>
      <trkpt lat="44.61942" lon="3.21756">
        <ele>1226.3</ele>
        <time>2022-08-03T10:27:36Z</time>
      </trkpt>
      <trkpt lat="44.6194" lon="3.21758">
        <ele>1226.5</ele>
        <time>2022-08-03T10:27:38Z</time>
      </trkpt>
      <trkpt lat="44.61931" lon="3.2176">
        <ele>1227.3</ele>
        <time>2022-08-03T10:27:45Z</time>
      </trkpt>
      <trkpt lat="44.61926" lon="3.21761">
        <ele>1227.7</ele>
        <time>2022-08-03T10:27:48Z</time>
      </trkpt>
      <trkpt lat="44.61921" lon="3.21763">
        <ele>1228.2</ele>
        <time>2022-08-03T10:27:53Z</time>
      </trkpt>
      <trkpt lat="44.61917" lon="3.21763">
        <ele>1228.5</ele>
        <time>2022-08-03T10:27:56Z</time>
      </trkpt>
      <trkpt lat="44.61914" lon="3.21762">
        <ele>1228.8</ele>
        <time>2022-08-03T10:27:58Z</time>
      </trkpt>
      <trkpt lat="44.61913" lon="3.21761">
        <ele>1228.9</ele>
        <time>2022-08-03T10:27:59Z</time>
      </trkpt>
      <trkpt lat="44.61912" lon="3.2176">
        <ele>1229</ele>
        <time>2022-08-03T10:28:00Z</time>
      </trkpt>
      <trkpt lat="44.6191" lon="3.21759">
        <ele>1229.2</ele>
        <time>2022-08-03T10:28:02Z</time>
      </trkpt>
      <trkpt lat="44.61905" lon="3.21756">
        <ele>1229.8</ele>
        <time>2022-08-03T10:28:06Z</time>
      </trkpt>
      <trkpt lat="44.61903" lon="3.21755">
        <ele>1230.1</ele>
        <time>2022-08-03T10:28:09Z</time>
      </trkpt>
      <trkpt lat="44.61901" lon="3.21755">
        <ele>1230.3</ele>
        <time>2022-08-03T10:28:12Z</time>
      </trkpt>
      <trkpt lat="44.619" lon="3.21757">
        <ele>1230.3</ele>
        <time>2022-08-03T10:28:14Z</time>
      </trkpt>
      <trkpt lat="44.61897" lon="3.21758">
        <ele>1230.4</ele>
        <time>2022-08-03T10:28:18Z</time>
      </trkpt>
      <trkpt lat="44.61896" lon="3.21759">
        <ele>1230.4</ele>
        <time>2022-08-03T10:28:19Z</time>
      </trkpt>
      <trkpt lat="44.61894" lon="3.21761">
        <ele>1230.4</ele>
        <time>2022-08-03T10:28:21Z</time>
      </trkpt>
      <trkpt lat="44.61891" lon="3.21767">
        <ele>1230.1</ele>
        <time>2022-08-03T10:28:25Z</time>
      </trkpt>
      <trkpt lat="44.61885" lon="3.21773">
        <ele>1229.8</ele>
        <time>2022-08-03T10:28:31Z</time>
      </trkpt>
      <trkpt lat="44.61883" lon="3.21773">
        <ele>1230</ele>
        <time>2022-08-03T10:28:33Z</time>
      </trkpt>
      <trkpt lat="44.61874" lon="3.21774">
        <ele>1230.4</ele>
        <time>2022-08-03T10:28:39Z</time>
      </trkpt>
      <trkpt lat="44.61874" lon="3.21774">
        <ele>1230.4</ele>
        <time>2022-08-03T10:28:40Z</time>
      </trkpt>
      <trkpt lat="44.61873" lon="3.21777">
        <ele>1230.2</ele>
        <time>2022-08-03T10:28:42Z</time>
      </trkpt>
      <trkpt lat="44.61868" lon="3.2178">
        <ele>1230.3</ele>
        <time>2022-08-03T10:28:46Z</time>
      </trkpt>
      <trkpt lat="44.61866" lon="3.21781">
        <ele>1230.4</ele>
        <time>2022-08-03T10:28:47Z</time>
      </trkpt>
      <trkpt lat="44.6186" lon="3.21787">
        <ele>1230.4</ele>
        <time>2022-08-03T10:28:52Z</time>
      </trkpt>
      <trkpt lat="44.61854" lon="3.21794">
        <ele>1230.1</ele>
        <time>2022-08-03T10:28:58Z</time>
      </trkpt>
      <trkpt lat="44.61845" lon="3.21801">
        <ele>1229.9</ele>
        <time>2022-08-03T10:29:06Z</time>
      </trkpt>
      <trkpt lat="44.61844" lon="3.21803">
        <ele>1229.8</ele>
        <time>2022-08-03T10:29:07Z</time>
      </trkpt>
      <trkpt lat="44.61834" lon="3.21805">
        <ele>1230</ele>
        <time>2022-08-03T10:29:14Z</time>
      </trkpt>
      <trkpt lat="44.61831" lon="3.21805">
        <ele>1230.2</ele>
        <time>2022-08-03T10:29:17Z</time>
      </trkpt>
      <trkpt lat="44.61826" lon="3.21803">
        <ele>1230.4</ele>
        <time>2022-08-03T10:29:21Z</time>
      </trkpt>
      <trkpt lat="44.61824" lon="3.21805">
        <ele>1230.4</ele>
        <time>2022-08-03T10:29:24Z</time>
      </trkpt>
      <trkpt lat="44.61822" lon="3.21807">
        <ele>1230.3</ele>
        <time>2022-08-03T10:29:27Z</time>
      </trkpt>
      <trkpt lat="44.61821" lon="3.21807">
        <ele>1230.3</ele>
        <time>2022-08-03T10:29:28Z</time>
      </trkpt>
      <trkpt lat="44.6182" lon="3.21807">
        <ele>1230.4</ele>
        <time>2022-08-03T10:29:29Z</time>
      </trkpt>
      <trkpt lat="44.61817" lon="3.21807">
        <ele>1230.5</ele>
        <time>2022-08-03T10:29:31Z</time>
      </trkpt>
      <trkpt lat="44.61813" lon="3.21808">
        <ele>1230.6</ele>
        <time>2022-08-03T10:29:34Z</time>
      </trkpt>
      <trkpt lat="44.61802" lon="3.21806">
        <ele>1231.2</ele>
        <time>2022-08-03T10:29:43Z</time>
      </trkpt>
      <trkpt lat="44.61799" lon="3.21807">
        <ele>1231.4</ele>
        <time>2022-08-03T10:29:47Z</time>
      </trkpt>
      <trkpt lat="44.61797" lon="3.21808">
        <ele>1231.5</ele>
        <time>2022-08-03T10:29:49Z</time>
      </trkpt>
      <trkpt lat="44.61796" lon="3.21808">
        <ele>1231.6</ele>
        <time>2022-08-03T10:29:50Z</time>
      </trkpt>
      <trkpt lat="44.61788" lon="3.21811">
        <ele>1232.1</ele>
        <time>2022-08-03T10:29:57Z</time>
      </trkpt>
      <trkpt lat="44.61779" lon="3.21818">
        <ele>1232.5</ele>
        <time>2022-08-03T10:30:04Z</time>
      </trkpt>
      <trkpt lat="44.61778" lon="3.21818">
        <ele>1232.6</ele>
        <time>2022-08-03T10:30:05Z</time>
      </trkpt>
      <trkpt lat="44.61777" lon="3.21818">
        <ele>1232.6</ele>
        <time>2022-08-03T10:30:07Z</time>
      </trkpt>
      <trkpt lat="44.61777" lon="3.21818">
        <ele>1232.7</ele>
        <time>2022-08-03T10:30:08Z</time>
      </trkpt>
      <trkpt lat="44.61774" lon="3.2182">
        <ele>1233.1</ele>
        <time>2022-08-03T10:30:11Z</time>
      </trkpt>
      <trkpt lat="44.61772" lon="3.21821">
        <ele>1233.4</ele>
        <time>2022-08-03T10:30:13Z</time>
      </trkpt>
      <trkpt lat="44.6177" lon="3.21822">
        <ele>1233.5</ele>
        <time>2022-08-03T10:30:14Z</time>
      </trkpt>
      <trkpt lat="44.61767" lon="3.21826">
        <ele>1233.9</ele>
        <time>2022-08-03T10:30:17Z</time>
      </trkpt>
      <trkpt lat="44.61766" lon="3.21827">
        <ele>1233.9</ele>
        <time>2022-08-03T10:30:18Z</time>
      </trkpt>
      <trkpt lat="44.61764" lon="3.21829">
        <ele>1234.1</ele>
        <time>2022-08-03T10:30:20Z</time>
      </trkpt>
      <trkpt lat="44.6176" lon="3.21836">
        <ele>1234.5</ele>
        <time>2022-08-03T10:30:25Z</time>
      </trkpt>
      <trkpt lat="44.61756" lon="3.21845">
        <ele>1234.8</ele>
        <time>2022-08-03T10:30:32Z</time>
      </trkpt>
      <trkpt lat="44.61756" lon="3.21849">
        <ele>1234.7</ele>
        <time>2022-08-03T10:30:34Z</time>
      </trkpt>
      <trkpt lat="44.61753" lon="3.21862">
        <ele>1234.6</ele>
        <time>2022-08-03T10:30:43Z</time>
      </trkpt>
      <trkpt lat="44.61753" lon="3.21864">
        <ele>1234.6</ele>
        <time>2022-08-03T10:30:44Z</time>
      </trkpt>
      <trkpt lat="44.61751" lon="3.21868">
        <ele>1234.7</ele>
        <time>2022-08-03T10:30:47Z</time>
      </trkpt>
      <trkpt lat="44.61751" lon="3.21868">
        <ele>1234.7</ele>
        <time>2022-08-03T10:30:49Z</time>
      </trkpt>
      <trkpt lat="44.61751" lon="3.21868">
        <ele>1234.7</ele>
        <time>2022-08-03T10:30:50Z</time>
      </trkpt>
      <trkpt lat="44.6175" lon="3.21869">
        <ele>1234.8</ele>
        <time>2022-08-03T10:30:53Z</time>
      </trkpt>
      <trkpt lat="44.61748" lon="3.21875">
        <ele>1234.8</ele>
        <time>2022-08-03T10:30:56Z</time>
      </trkpt>
      <trkpt lat="44.61745" lon="3.21882">
        <ele>1235.2</ele>
        <time>2022-08-03T10:31:02Z</time>
      </trkpt>
      <trkpt lat="44.61741" lon="3.21892">
        <ele>1235.6</ele>
        <time>2022-08-03T10:31:09Z</time>
      </trkpt>
      <trkpt lat="44.61738" lon="3.21898">
        <ele>1236.1</ele>
        <time>2022-08-03T10:31:14Z</time>
      </trkpt>
      <trkpt lat="44.61737" lon="3.21902">
        <ele>1236.3</ele>
        <time>2022-08-03T10:31:16Z</time>
      </trkpt>
      <trkpt lat="44.61736" lon="3.21909">
        <ele>1236.6</ele>
        <time>2022-08-03T10:31:20Z</time>
      </trkpt>
      <trkpt lat="44.61736" lon="3.21914">
        <ele>1236.5</ele>
        <time>2022-08-03T10:31:23Z</time>
      </trkpt>
      <trkpt lat="44.61736" lon="3.21915">
        <ele>1236.6</ele>
        <time>2022-08-03T10:31:24Z</time>
      </trkpt>
      <trkpt lat="44.61735" lon="3.21919">
        <ele>1236.6</ele>
        <time>2022-08-03T10:31:26Z</time>
      </trkpt>
      <trkpt lat="44.61734" lon="3.21923">
        <ele>1236.8</ele>
        <time>2022-08-03T10:31:29Z</time>
      </trkpt>
      <trkpt lat="44.61733" lon="3.21924">
        <ele>1236.9</ele>
        <time>2022-08-03T10:31:30Z</time>
      </trkpt>
      <trkpt lat="44.61733" lon="3.21925">
        <ele>1236.9</ele>
        <time>2022-08-03T10:31:31Z</time>
      </trkpt>
      <trkpt lat="44.61732" lon="3.21928">
        <ele>1237.1</ele>
        <time>2022-08-03T10:31:33Z</time>
      </trkpt>
      <trkpt lat="44.6173" lon="3.2193">
        <ele>1237.4</ele>
        <time>2022-08-03T10:31:35Z</time>
      </trkpt>
      <trkpt lat="44.61729" lon="3.21934">
        <ele>1237.6</ele>
        <time>2022-08-03T10:31:38Z</time>
      </trkpt>
      <trkpt lat="44.61727" lon="3.21942">
        <ele>1238</ele>
        <time>2022-08-03T10:31:43Z</time>
      </trkpt>
      <trkpt lat="44.61723" lon="3.21955">
        <ele>1238.4</ele>
        <time>2022-08-03T10:31:52Z</time>
      </trkpt>
      <trkpt lat="44.61723" lon="3.21958">
        <ele>1238.4</ele>
        <time>2022-08-03T10:31:53Z</time>
      </trkpt>
      <trkpt lat="44.61722" lon="3.21962">
        <ele>1238.4</ele>
        <time>2022-08-03T10:31:55Z</time>
      </trkpt>
      <trkpt lat="44.6172" lon="3.21963">
        <ele>1238.7</ele>
        <time>2022-08-03T10:31:57Z</time>
      </trkpt>
      <trkpt lat="44.61717" lon="3.21967">
        <ele>1239</ele>
        <time>2022-08-03T10:32:00Z</time>
      </trkpt>
      <trkpt lat="44.61714" lon="3.21975">
        <ele>1239.1</ele>
        <time>2022-08-03T10:32:05Z</time>
      </trkpt>
      <trkpt lat="44.61709" lon="3.21986">
        <ele>1239.4</ele>
        <time>2022-08-03T10:32:12Z</time>
      </trkpt>
      <trkpt lat="44.61709" lon="3.21987">
        <ele>1239.4</ele>
        <time>2022-08-03T10:32:14Z</time>
      </trkpt>
      <trkpt lat="44.61708" lon="3.21987">
        <ele>1239.6</ele>
        <time>2022-08-03T10:32:16Z</time>
      </trkpt>
      <trkpt lat="44.61707" lon="3.21985">
        <ele>1239.7</ele>
        <time>2022-08-03T10:32:23Z</time>
      </trkpt>
      <trkpt lat="44.61706" lon="3.2198">
        <ele>1240.1</ele>
        <time>2022-08-03T10:32:29Z</time>
      </trkpt>
      <trkpt lat="44.61708" lon="3.21984">
        <ele>1239.6</ele>
        <time>2022-08-03T10:32:36Z</time>
      </trkpt>
      <trkpt lat="44.6171" lon="3.21986">
        <ele>1239.3</ele>
        <time>2022-08-03T10:32:45Z</time>
      </trkpt>
      <trkpt lat="44.61707" lon="3.21983">
        <ele>1239.8</ele>
        <time>2022-08-03T10:32:54Z</time>
      </trkpt>
      <trkpt lat="44.61704" lon="3.21989">
        <ele>1240</ele>
        <time>2022-08-03T10:33:08Z</time>
      </trkpt>
      <trkpt lat="44.617" lon="3.21998">
        <ele>1240.3</ele>
        <time>2022-08-03T10:33:13Z</time>
      </trkpt>
      <trkpt lat="44.61698" lon="3.22">
        <ele>1240.5</ele>
        <time>2022-08-03T10:33:15Z</time>
      </trkpt>
      <trkpt lat="44.61695" lon="3.22001">
        <ele>1240.8</ele>
        <time>2022-08-03T10:33:17Z</time>
      </trkpt>
      <trkpt lat="44.61694" lon="3.22007">
        <ele>1240.6</ele>
        <time>2022-08-03T10:33:21Z</time>
      </trkpt>
      <trkpt lat="44.61692" lon="3.2201">
        <ele>1240.5</ele>
        <time>2022-08-03T10:33:23Z</time>
      </trkpt>
      <trkpt lat="44.61687" lon="3.22015">
        <ele>1240.7</ele>
        <time>2022-08-03T10:33:28Z</time>
      </trkpt>
      <trkpt lat="44.61686" lon="3.22015">
        <ele>1240.8</ele>
        <time>2022-08-03T10:33:29Z</time>
      </trkpt>
      <trkpt lat="44.61684" lon="3.22016">
        <ele>1240.9</ele>
        <time>2022-08-03T10:33:31Z</time>
      </trkpt>
      <trkpt lat="44.61681" lon="3.22019">
        <ele>1241.1</ele>
        <time>2022-08-03T10:33:34Z</time>
      </trkpt>
      <trkpt lat="44.6168" lon="3.22019">
        <ele>1241.1</ele>
        <time>2022-08-03T10:33:35Z</time>
      </trkpt>
      <trkpt lat="44.61674" lon="3.22024">
        <ele>1241.5</ele>
        <time>2022-08-03T10:33:40Z</time>
      </trkpt>
      <trkpt lat="44.6167" lon="3.2203">
        <ele>1241.4</ele>
        <time>2022-08-03T10:33:45Z</time>
      </trkpt>
      <trkpt lat="44.61669" lon="3.2203">
        <ele>1241.5</ele>
        <time>2022-08-03T10:33:47Z</time>
      </trkpt>
      <trkpt lat="44.61667" lon="3.22035">
        <ele>1241.2</ele>
        <time>2022-08-03T10:33:52Z</time>
      </trkpt>
      <trkpt lat="44.61659" lon="3.22047">
        <ele>1240.4</ele>
        <time>2022-08-03T10:34:00Z</time>
      </trkpt>
      <trkpt lat="44.61655" lon="3.22051">
        <ele>1240.3</ele>
        <time>2022-08-03T10:34:03Z</time>
      </trkpt>
      <trkpt lat="44.61654" lon="3.22054">
        <ele>1240.1</ele>
        <time>2022-08-03T10:34:05Z</time>
      </trkpt>
      <trkpt lat="44.61652" lon="3.22056">
        <ele>1240</ele>
        <time>2022-08-03T10:34:07Z</time>
      </trkpt>
      <trkpt lat="44.61644" lon="3.22061">
        <ele>1240.2</ele>
        <time>2022-08-03T10:34:14Z</time>
      </trkpt>
      <trkpt lat="44.6164" lon="3.22063">
        <ele>1240.4</ele>
        <time>2022-08-03T10:34:17Z</time>
      </trkpt>
      <trkpt lat="44.61635" lon="3.22065">
        <ele>1240.6</ele>
        <time>2022-08-03T10:34:21Z</time>
      </trkpt>
      <trkpt lat="44.61632" lon="3.22065">
        <ele>1240.7</ele>
        <time>2022-08-03T10:34:23Z</time>
      </trkpt>
      <trkpt lat="44.61626" lon="3.22068">
        <ele>1240.9</ele>
        <time>2022-08-03T10:34:28Z</time>
      </trkpt>
      <trkpt lat="44.61616" lon="3.22071">
        <ele>1241.1</ele>
        <time>2022-08-03T10:34:36Z</time>
      </trkpt>
      <trkpt lat="44.61609" lon="3.22076">
        <ele>1240.8</ele>
        <time>2022-08-03T10:34:40Z</time>
      </trkpt>
      <trkpt lat="44.61606" lon="3.22076">
        <ele>1240.8</ele>
        <time>2022-08-03T10:34:42Z</time>
      </trkpt>
      <trkpt lat="44.61604" lon="3.22076">
        <ele>1240.7</ele>
        <time>2022-08-03T10:34:44Z</time>
      </trkpt>
      <trkpt lat="44.61601" lon="3.22079">
        <ele>1240.4</ele>
        <time>2022-08-03T10:34:48Z</time>
      </trkpt>
      <trkpt lat="44.61599" lon="3.2208">
        <ele>1240.3</ele>
        <time>2022-08-03T10:34:49Z</time>
      </trkpt>
      <trkpt lat="44.616" lon="3.22083">
        <ele>1240</ele>
        <time>2022-08-03T10:34:52Z</time>
      </trkpt>
      <trkpt lat="44.616" lon="3.22086">
        <ele>1239.9</ele>
        <time>2022-08-03T10:34:54Z</time>
      </trkpt>
      <trkpt lat="44.61601" lon="3.22091">
        <ele>1239.7</ele>
        <time>2022-08-03T10:34:59Z</time>
      </trkpt>
      <trkpt lat="44.61599" lon="3.22091">
        <ele>1239.7</ele>
        <time>2022-08-03T10:35:01Z</time>
      </trkpt>
      <trkpt lat="44.61597" lon="3.2209">
        <ele>1239.8</ele>
        <time>2022-08-03T10:35:03Z</time>
      </trkpt>
      <trkpt lat="44.61593" lon="3.22089">
        <ele>1239.8</ele>
        <time>2022-08-03T10:35:06Z</time>
      </trkpt>
      <trkpt lat="44.61591" lon="3.22088">
        <ele>1239.8</ele>
        <time>2022-08-03T10:35:07Z</time>
      </trkpt>
      <trkpt lat="44.6158" lon="3.22087">
        <ele>1239.6</ele>
        <time>2022-08-03T10:35:14Z</time>
      </trkpt>
      <trkpt lat="44.61574" lon="3.22089">
        <ele>1239.2</ele>
        <time>2022-08-03T10:35:19Z</time>
      </trkpt>
      <trkpt lat="44.61572" lon="3.22089">
        <ele>1239</ele>
        <time>2022-08-03T10:35:21Z</time>
      </trkpt>
      <trkpt lat="44.61568" lon="3.22089">
        <ele>1238.8</ele>
        <time>2022-08-03T10:35:24Z</time>
      </trkpt>
      <trkpt lat="44.6156" lon="3.22091">
        <ele>1238.3</ele>
        <time>2022-08-03T10:35:31Z</time>
      </trkpt>
      <trkpt lat="44.61551" lon="3.2209">
        <ele>1237.6</ele>
        <time>2022-08-03T10:35:39Z</time>
      </trkpt>
      <trkpt lat="44.61545" lon="3.22085">
        <ele>1236.9</ele>
        <time>2022-08-03T10:35:45Z</time>
      </trkpt>
      <trkpt lat="44.61543" lon="3.22083">
        <ele>1236.7</ele>
        <time>2022-08-03T10:35:48Z</time>
      </trkpt>
      <trkpt lat="44.61543" lon="3.22082">
        <ele>1236.7</ele>
        <time>2022-08-03T10:35:49Z</time>
      </trkpt>
      <trkpt lat="44.61543" lon="3.22082">
        <ele>1236.7</ele>
        <time>2022-08-03T10:35:51Z</time>
      </trkpt>
      <trkpt lat="44.61542" lon="3.2208">
        <ele>1236.7</ele>
        <time>2022-08-03T10:35:53Z</time>
      </trkpt>
      <trkpt lat="44.61541" lon="3.22078">
        <ele>1236.6</ele>
        <time>2022-08-03T10:35:55Z</time>
      </trkpt>
      <trkpt lat="44.61532" lon="3.22071">
        <ele>1235.9</ele>
        <time>2022-08-03T10:36:03Z</time>
      </trkpt>
      <trkpt lat="44.61531" lon="3.2207">
        <ele>1235.8</ele>
        <time>2022-08-03T10:36:04Z</time>
      </trkpt>
      <trkpt lat="44.61523" lon="3.22059">
        <ele>1235.4</ele>
        <time>2022-08-03T10:36:13Z</time>
      </trkpt>
      <trkpt lat="44.61523" lon="3.22058">
        <ele>1235.4</ele>
        <time>2022-08-03T10:36:15Z</time>
      </trkpt>
      <trkpt lat="44.61521" lon="3.22056">
        <ele>1235.2</ele>
        <time>2022-08-03T10:36:18Z</time>
      </trkpt>
      <trkpt lat="44.61513" lon="3.22044">
        <ele>1235.4</ele>
        <time>2022-08-03T10:36:27Z</time>
      </trkpt>
      <trkpt lat="44.61506" lon="3.22034">
        <ele>1235.4</ele>
        <time>2022-08-03T10:36:35Z</time>
      </trkpt>
      <trkpt lat="44.61496" lon="3.22024">
        <ele>1235.1</ele>
        <time>2022-08-03T10:36:45Z</time>
      </trkpt>
      <trkpt lat="44.61485" lon="3.22016">
        <ele>1234.3</ele>
        <time>2022-08-03T10:36:55Z</time>
      </trkpt>
      <trkpt lat="44.61483" lon="3.22015">
        <ele>1234.2</ele>
        <time>2022-08-03T10:36:57Z</time>
      </trkpt>
      <trkpt lat="44.61478" lon="3.22009">
        <ele>1233.7</ele>
        <time>2022-08-03T10:37:02Z</time>
      </trkpt>
      <trkpt lat="44.61472" lon="3.22006">
        <ele>1232.7</ele>
        <time>2022-08-03T10:37:07Z</time>
      </trkpt>
      <trkpt lat="44.61466" lon="3.22001">
        <ele>1231.8</ele>
        <time>2022-08-03T10:37:13Z</time>
      </trkpt>
      <trkpt lat="44.61464" lon="3.21998">
        <ele>1231.6</ele>
        <time>2022-08-03T10:37:15Z</time>
      </trkpt>
      <trkpt lat="44.6146" lon="3.21992">
        <ele>1231.1</ele>
        <time>2022-08-03T10:37:20Z</time>
      </trkpt>
      <trkpt lat="44.61457" lon="3.21985">
        <ele>1230.4</ele>
        <time>2022-08-03T10:37:25Z</time>
      </trkpt>
      <trkpt lat="44.61456" lon="3.21984">
        <ele>1230.2</ele>
        <time>2022-08-03T10:37:26Z</time>
      </trkpt>
      <trkpt lat="44.61451" lon="3.21975">
        <ele>1228.8</ele>
        <time>2022-08-03T10:37:33Z</time>
      </trkpt>
      <trkpt lat="44.6145" lon="3.21974">
        <ele>1228.7</ele>
        <time>2022-08-03T10:37:35Z</time>
      </trkpt>
      <trkpt lat="44.6145" lon="3.21973">
        <ele>1228.7</ele>
        <time>2022-08-03T10:37:36Z</time>
      </trkpt>
      <trkpt lat="44.61449" lon="3.21968">
        <ele>1228</ele>
        <time>2022-08-03T10:37:40Z</time>
      </trkpt>
      <trkpt lat="44.61447" lon="3.21964">
        <ele>1227.5</ele>
        <time>2022-08-03T10:37:43Z</time>
      </trkpt>
      <trkpt lat="44.61447" lon="3.21962">
        <ele>1227.3</ele>
        <time>2022-08-03T10:37:44Z</time>
      </trkpt>
      <trkpt lat="44.61444" lon="3.21955">
        <ele>1226.3</ele>
        <time>2022-08-03T10:37:49Z</time>
      </trkpt>
      <trkpt lat="44.61441" lon="3.21948">
        <ele>1225.3</ele>
        <time>2022-08-03T10:37:55Z</time>
      </trkpt>
      <trkpt lat="44.61439" lon="3.21946">
        <ele>1224.9</ele>
        <time>2022-08-03T10:37:57Z</time>
      </trkpt>
      <trkpt lat="44.61433" lon="3.21937">
        <ele>1224</ele>
        <time>2022-08-03T10:38:04Z</time>
      </trkpt>
      <trkpt lat="44.61431" lon="3.21933">
        <ele>1223.8</ele>
        <time>2022-08-03T10:38:07Z</time>
      </trkpt>
      <trkpt lat="44.61429" lon="3.21931">
        <ele>1223.4</ele>
        <time>2022-08-03T10:38:09Z</time>
      </trkpt>
      <trkpt lat="44.61425" lon="3.21929">
        <ele>1222.4</ele>
        <time>2022-08-03T10:38:13Z</time>
      </trkpt>
      <trkpt lat="44.61421" lon="3.21928">
        <ele>1221.7</ele>
        <time>2022-08-03T10:38:16Z</time>
      </trkpt>
      <trkpt lat="44.61418" lon="3.21925">
        <ele>1220.9</ele>
        <time>2022-08-03T10:38:20Z</time>
      </trkpt>
      <trkpt lat="44.61415" lon="3.21923">
        <ele>1220.6</ele>
        <time>2022-08-03T10:38:23Z</time>
      </trkpt>
      <trkpt lat="44.61412" lon="3.21922">
        <ele>1220.3</ele>
        <time>2022-08-03T10:38:25Z</time>
      </trkpt>
      <trkpt lat="44.61401" lon="3.2192">
        <ele>1219.2</ele>
        <time>2022-08-03T10:38:34Z</time>
      </trkpt>
      <trkpt lat="44.614" lon="3.2192">
        <ele>1219.1</ele>
        <time>2022-08-03T10:38:35Z</time>
      </trkpt>
      <trkpt lat="44.614" lon="3.2192">
        <ele>1219.1</ele>
        <time>2022-08-03T10:38:38Z</time>
      </trkpt>
      <trkpt lat="44.61401" lon="3.2192">
        <ele>1219.1</ele>
        <time>2022-08-03T10:38:40Z</time>
      </trkpt>
      <trkpt lat="44.61396" lon="3.21919">
        <ele>1218.7</ele>
        <time>2022-08-03T10:38:47Z</time>
      </trkpt>
      <trkpt lat="44.61387" lon="3.21924">
        <ele>1217.5</ele>
        <time>2022-08-03T10:38:56Z</time>
      </trkpt>
      <trkpt lat="44.61384" lon="3.21924">
        <ele>1217.3</ele>
        <time>2022-08-03T10:38:59Z</time>
      </trkpt>
      <trkpt lat="44.61384" lon="3.21925">
        <ele>1217.2</ele>
        <time>2022-08-03T10:39:02Z</time>
      </trkpt>
      <trkpt lat="44.61384" lon="3.21926">
        <ele>1217.2</ele>
        <time>2022-08-03T10:39:09Z</time>
      </trkpt>
      <trkpt lat="44.61384" lon="3.21926">
        <ele>1217.2</ele>
        <time>2022-08-03T10:39:30Z</time>
      </trkpt>
      <trkpt lat="44.61381" lon="3.21934">
        <ele>1216.7</ele>
        <time>2022-08-03T10:39:38Z</time>
      </trkpt>
      <trkpt lat="44.61376" lon="3.21943">
        <ele>1216.1</ele>
        <time>2022-08-03T10:39:43Z</time>
      </trkpt>
      <trkpt lat="44.61373" lon="3.21948">
        <ele>1216</ele>
        <time>2022-08-03T10:39:46Z</time>
      </trkpt>
      <trkpt lat="44.61372" lon="3.21949">
        <ele>1216</ele>
        <time>2022-08-03T10:39:49Z</time>
      </trkpt>
      <trkpt lat="44.61373" lon="3.2195">
        <ele>1216</ele>
        <time>2022-08-03T10:39:50Z</time>
      </trkpt>
      <trkpt lat="44.61372" lon="3.21954">
        <ele>1216.1</ele>
        <time>2022-08-03T10:39:56Z</time>
      </trkpt>
      <trkpt lat="44.61369" lon="3.21952">
        <ele>1215.9</ele>
        <time>2022-08-03T10:40:04Z</time>
      </trkpt>
      <trkpt lat="44.61365" lon="3.21965">
        <ele>1216</ele>
        <time>2022-08-03T10:40:12Z</time>
      </trkpt>
      <trkpt lat="44.61359" lon="3.2198">
        <ele>1216.4</ele>
        <time>2022-08-03T10:40:22Z</time>
      </trkpt>
      <trkpt lat="44.61357" lon="3.21984">
        <ele>1216.6</ele>
        <time>2022-08-03T10:40:25Z</time>
      </trkpt>
      <trkpt lat="44.61353" lon="3.21989">
        <ele>1217</ele>
        <time>2022-08-03T10:40:30Z</time>
      </trkpt>
      <trkpt lat="44.61347" lon="3.21994">
        <ele>1217.3</ele>
        <time>2022-08-03T10:40:37Z</time>
      </trkpt>
      <trkpt lat="44.61347" lon="3.21994">
        <ele>1217.3</ele>
        <time>2022-08-03T10:40:38Z</time>
      </trkpt>
      <trkpt lat="44.61348" lon="3.21995">
        <ele>1217.5</ele>
        <time>2022-08-03T10:40:40Z</time>
      </trkpt>
      <trkpt lat="44.61349" lon="3.21996">
        <ele>1217.6</ele>
        <time>2022-08-03T10:40:43Z</time>
      </trkpt>
      <trkpt lat="44.61349" lon="3.21996">
        <ele>1217.6</ele>
        <time>2022-08-03T10:40:51Z</time>
      </trkpt>
      <trkpt lat="44.61343" lon="3.21996">
        <ele>1217.6</ele>
        <time>2022-08-03T10:41:01Z</time>
      </trkpt>
      <trkpt lat="44.61336" lon="3.21995">
        <ele>1217.3</ele>
        <time>2022-08-03T10:41:05Z</time>
      </trkpt>
      <trkpt lat="44.61333" lon="3.21992">
        <ele>1216.9</ele>
        <time>2022-08-03T10:41:07Z</time>
      </trkpt>
      <trkpt lat="44.61318" lon="3.21984">
        <ele>1215.7</ele>
        <time>2022-08-03T10:41:19Z</time>
      </trkpt>
      <trkpt lat="44.61309" lon="3.21978">
        <ele>1215.3</ele>
        <time>2022-08-03T10:41:28Z</time>
      </trkpt>
      <trkpt lat="44.61297" lon="3.21965">
        <ele>1213.7</ele>
        <time>2022-08-03T10:41:40Z</time>
      </trkpt>
      <trkpt lat="44.61294" lon="3.21962">
        <ele>1213.2</ele>
        <time>2022-08-03T10:41:43Z</time>
      </trkpt>
      <trkpt lat="44.61291" lon="3.21957">
        <ele>1212.6</ele>
        <time>2022-08-03T10:41:47Z</time>
      </trkpt>
      <trkpt lat="44.61286" lon="3.21951">
        <ele>1211.8</ele>
        <time>2022-08-03T10:41:55Z</time>
      </trkpt>
      <trkpt lat="44.61285" lon="3.2195">
        <ele>1211.7</ele>
        <time>2022-08-03T10:41:56Z</time>
      </trkpt>
      <trkpt lat="44.61279" lon="3.21945">
        <ele>1211.1</ele>
        <time>2022-08-03T10:42:02Z</time>
      </trkpt>
      <trkpt lat="44.61276" lon="3.21941">
        <ele>1210.4</ele>
        <time>2022-08-03T10:42:06Z</time>
      </trkpt>
      <trkpt lat="44.61272" lon="3.21937">
        <ele>1209.5</ele>
        <time>2022-08-03T10:42:12Z</time>
      </trkpt>
      <trkpt lat="44.61272" lon="3.21937">
        <ele>1209.5</ele>
        <time>2022-08-03T10:42:13Z</time>
      </trkpt>
      <trkpt lat="44.61271" lon="3.21936">
        <ele>1209.3</ele>
        <time>2022-08-03T10:42:14Z</time>
      </trkpt>
      <trkpt lat="44.61271" lon="3.21933">
        <ele>1209.1</ele>
        <time>2022-08-03T10:42:20Z</time>
      </trkpt>
      <trkpt lat="44.61273" lon="3.21932">
        <ele>1209.2</ele>
        <time>2022-08-03T10:42:27Z</time>
      </trkpt>
      <trkpt lat="44.61268" lon="3.21931">
        <ele>1208.5</ele>
        <time>2022-08-03T10:42:35Z</time>
      </trkpt>
      <trkpt lat="44.61255" lon="3.21931">
        <ele>1207.1</ele>
        <time>2022-08-03T10:42:44Z</time>
      </trkpt>
      <trkpt lat="44.61254" lon="3.21931">
        <ele>1207</ele>
        <time>2022-08-03T10:42:45Z</time>
      </trkpt>
      <trkpt lat="44.61243" lon="3.21939">
        <ele>1206.3</ele>
        <time>2022-08-03T10:42:55Z</time>
      </trkpt>
      <trkpt lat="44.61242" lon="3.2194">
        <ele>1206.2</ele>
        <time>2022-08-03T10:42:56Z</time>
      </trkpt>
      <trkpt lat="44.61236" lon="3.21948">
        <ele>1206.1</ele>
        <time>2022-08-03T10:43:03Z</time>
      </trkpt>
      <trkpt lat="44.61235" lon="3.2195">
        <ele>1206</ele>
        <time>2022-08-03T10:43:04Z</time>
      </trkpt>
      <trkpt lat="44.61232" lon="3.21957">
        <ele>1205.6</ele>
        <time>2022-08-03T10:43:09Z</time>
      </trkpt>
      <trkpt lat="44.61227" lon="3.21966">
        <ele>1204.9</ele>
        <time>2022-08-03T10:43:15Z</time>
      </trkpt>
      <trkpt lat="44.61221" lon="3.21973">
        <ele>1203.9</ele>
        <time>2022-08-03T10:43:22Z</time>
      </trkpt>
      <trkpt lat="44.61216" lon="3.21977">
        <ele>1203.6</ele>
        <time>2022-08-03T10:43:27Z</time>
      </trkpt>
      <trkpt lat="44.61212" lon="3.21979">
        <ele>1203.2</ele>
        <time>2022-08-03T10:43:31Z</time>
      </trkpt>
      <trkpt lat="44.61204" lon="3.21981">
        <ele>1202.5</ele>
        <time>2022-08-03T10:43:37Z</time>
      </trkpt>
      <trkpt lat="44.61203" lon="3.21981">
        <ele>1202.4</ele>
        <time>2022-08-03T10:43:38Z</time>
      </trkpt>
      <trkpt lat="44.61202" lon="3.21982">
        <ele>1202.4</ele>
        <time>2022-08-03T10:43:41Z</time>
      </trkpt>
      <trkpt lat="44.61201" lon="3.21982">
        <ele>1202.4</ele>
        <time>2022-08-03T10:43:43Z</time>
      </trkpt>
      <trkpt lat="44.61195" lon="3.21983">
        <ele>1201.8</ele>
        <time>2022-08-03T10:43:48Z</time>
      </trkpt>
      <trkpt lat="44.61195" lon="3.21982">
        <ele>1201.7</ele>
        <time>2022-08-03T10:43:50Z</time>
      </trkpt>
      <trkpt lat="44.61191" lon="3.21982">
        <ele>1201.2</ele>
        <time>2022-08-03T10:43:58Z</time>
      </trkpt>
      <trkpt lat="44.61186" lon="3.21981">
        <ele>1200.4</ele>
        <time>2022-08-03T10:44:02Z</time>
      </trkpt>
      <trkpt lat="44.6118" lon="3.2198">
        <ele>1199.5</ele>
        <time>2022-08-03T10:44:07Z</time>
      </trkpt>
      <trkpt lat="44.61177" lon="3.2198">
        <ele>1199.1</ele>
        <time>2022-08-03T10:44:10Z</time>
      </trkpt>
      <trkpt lat="44.61171" lon="3.21978">
        <ele>1198.1</ele>
        <time>2022-08-03T10:44:16Z</time>
      </trkpt>
      <trkpt lat="44.61168" lon="3.21977">
        <ele>1197.5</ele>
        <time>2022-08-03T10:44:21Z</time>
      </trkpt>
      <trkpt lat="44.61167" lon="3.21976">
        <ele>1197.3</ele>
        <time>2022-08-03T10:44:22Z</time>
      </trkpt>
      <trkpt lat="44.61161" lon="3.21973">
        <ele>1196.9</ele>
        <time>2022-08-03T10:44:27Z</time>
      </trkpt>
      <trkpt lat="44.61152" lon="3.21968">
        <ele>1196.2</ele>
        <time>2022-08-03T10:44:35Z</time>
      </trkpt>
      <trkpt lat="44.61151" lon="3.21968">
        <ele>1196.1</ele>
        <time>2022-08-03T10:44:36Z</time>
      </trkpt>
      <trkpt lat="44.61142" lon="3.21962">
        <ele>1195.4</ele>
        <time>2022-08-03T10:44:44Z</time>
      </trkpt>
      <trkpt lat="44.61139" lon="3.21961">
        <ele>1195.2</ele>
        <time>2022-08-03T10:44:47Z</time>
      </trkpt>
      <trkpt lat="44.61133" lon="3.21958">
        <ele>1194.5</ele>
        <time>2022-08-03T10:44:51Z</time>
      </trkpt>
      <trkpt lat="44.61129" lon="3.21955">
        <ele>1193.9</ele>
        <time>2022-08-03T10:44:55Z</time>
      </trkpt>
      <trkpt lat="44.61125" lon="3.21954">
        <ele>1193.5</ele>
        <time>2022-08-03T10:44:58Z</time>
      </trkpt>
      <trkpt lat="44.6112" lon="3.21953">
        <ele>1193</ele>
        <time>2022-08-03T10:45:02Z</time>
      </trkpt>
      <trkpt lat="44.61116" lon="3.21952">
        <ele>1192.7</ele>
        <time>2022-08-03T10:45:05Z</time>
      </trkpt>
      <trkpt lat="44.61108" lon="3.21946">
        <ele>1191.9</ele>
        <time>2022-08-03T10:45:12Z</time>
      </trkpt>
      <trkpt lat="44.61106" lon="3.21945">
        <ele>1191.8</ele>
        <time>2022-08-03T10:45:14Z</time>
      </trkpt>
      <trkpt lat="44.61096" lon="3.21943">
        <ele>1191.3</ele>
        <time>2022-08-03T10:45:21Z</time>
      </trkpt>
      <trkpt lat="44.61093" lon="3.21941">
        <ele>1191.1</ele>
        <time>2022-08-03T10:45:24Z</time>
      </trkpt>
      <trkpt lat="44.61086" lon="3.21938">
        <ele>1190.6</ele>
        <time>2022-08-03T10:45:29Z</time>
      </trkpt>
      <trkpt lat="44.61077" lon="3.21934">
        <ele>1189.9</ele>
        <time>2022-08-03T10:45:36Z</time>
      </trkpt>
      <trkpt lat="44.61073" lon="3.21932">
        <ele>1189.5</ele>
        <time>2022-08-03T10:45:40Z</time>
      </trkpt>
      <trkpt lat="44.61063" lon="3.21928">
        <ele>1188.8</ele>
        <time>2022-08-03T10:45:48Z</time>
      </trkpt>
      <trkpt lat="44.61062" lon="3.21927">
        <ele>1188.7</ele>
        <time>2022-08-03T10:45:49Z</time>
      </trkpt>
      <trkpt lat="44.61054" lon="3.21922">
        <ele>1188.3</ele>
        <time>2022-08-03T10:45:56Z</time>
      </trkpt>
      <trkpt lat="44.61052" lon="3.2192">
        <ele>1188.2</ele>
        <time>2022-08-03T10:45:58Z</time>
      </trkpt>
      <trkpt lat="44.61047" lon="3.21916">
        <ele>1188.2</ele>
        <time>2022-08-03T10:46:03Z</time>
      </trkpt>
      <trkpt lat="44.61046" lon="3.21915">
        <ele>1188.1</ele>
        <time>2022-08-03T10:46:04Z</time>
      </trkpt>
      <trkpt lat="44.61042" lon="3.21912">
        <ele>1187.7</ele>
        <time>2022-08-03T10:46:09Z</time>
      </trkpt>
      <trkpt lat="44.61041" lon="3.21911">
        <ele>1187.6</ele>
        <time>2022-08-03T10:46:10Z</time>
      </trkpt>
      <trkpt lat="44.61041" lon="3.21911">
        <ele>1187.6</ele>
        <time>2022-08-03T10:46:13Z</time>
      </trkpt>
      <trkpt lat="44.6104" lon="3.2191">
        <ele>1187.4</ele>
        <time>2022-08-03T10:46:15Z</time>
      </trkpt>
      <trkpt lat="44.61034" lon="3.21902">
        <ele>1186</ele>
        <time>2022-08-03T10:46:22Z</time>
      </trkpt>
      <trkpt lat="44.61033" lon="3.21901">
        <ele>1185.7</ele>
        <time>2022-08-03T10:46:23Z</time>
      </trkpt>
      <trkpt lat="44.61025" lon="3.2189">
        <ele>1183.5</ele>
        <time>2022-08-03T10:46:33Z</time>
      </trkpt>
      <trkpt lat="44.61024" lon="3.21889">
        <ele>1183.4</ele>
        <time>2022-08-03T10:46:34Z</time>
      </trkpt>
      <trkpt lat="44.61016" lon="3.21882">
        <ele>1182.8</ele>
        <time>2022-08-03T10:46:42Z</time>
      </trkpt>
      <trkpt lat="44.61012" lon="3.2188">
        <ele>1182.6</ele>
        <time>2022-08-03T10:46:46Z</time>
      </trkpt>
      <trkpt lat="44.6101" lon="3.21879">
        <ele>1182.5</ele>
        <time>2022-08-03T10:46:48Z</time>
      </trkpt>
      <trkpt lat="44.61005" lon="3.21872">
        <ele>1181.3</ele>
        <time>2022-08-03T10:46:54Z</time>
      </trkpt>
      <trkpt lat="44.61" lon="3.21867">
        <ele>1180.2</ele>
        <time>2022-08-03T10:46:59Z</time>
      </trkpt>
      <trkpt lat="44.60999" lon="3.21864">
        <ele>1179.6</ele>
        <time>2022-08-03T10:47:01Z</time>
      </trkpt>
      <trkpt lat="44.60992" lon="3.21854">
        <ele>1178</ele>
        <time>2022-08-03T10:47:09Z</time>
      </trkpt>
      <trkpt lat="44.60989" lon="3.21851">
        <ele>1177.4</ele>
        <time>2022-08-03T10:47:12Z</time>
      </trkpt>
      <trkpt lat="44.60988" lon="3.21848">
        <ele>1177</ele>
        <time>2022-08-03T10:47:14Z</time>
      </trkpt>
      <trkpt lat="44.60982" lon="3.2184">
        <ele>1175.4</ele>
        <time>2022-08-03T10:47:21Z</time>
      </trkpt>
      <trkpt lat="44.60981" lon="3.21838">
        <ele>1175.2</ele>
        <time>2022-08-03T10:47:22Z</time>
      </trkpt>
      <trkpt lat="44.60975" lon="3.21833">
        <ele>1174.1</ele>
        <time>2022-08-03T10:47:28Z</time>
      </trkpt>
      <trkpt lat="44.60974" lon="3.2183">
        <ele>1173.7</ele>
        <time>2022-08-03T10:47:30Z</time>
      </trkpt>
      <trkpt lat="44.60969" lon="3.21822">
        <ele>1172.6</ele>
        <time>2022-08-03T10:47:36Z</time>
      </trkpt>
      <trkpt lat="44.60966" lon="3.21821">
        <ele>1172.3</ele>
        <time>2022-08-03T10:47:39Z</time>
      </trkpt>
      <trkpt lat="44.6096" lon="3.21816">
        <ele>1171.5</ele>
        <time>2022-08-03T10:47:44Z</time>
      </trkpt>
      <trkpt lat="44.60957" lon="3.21814">
        <ele>1171.2</ele>
        <time>2022-08-03T10:47:47Z</time>
      </trkpt>
      <trkpt lat="44.60955" lon="3.21812">
        <ele>1170.9</ele>
        <time>2022-08-03T10:47:49Z</time>
      </trkpt>
      <trkpt lat="44.6095" lon="3.21809">
        <ele>1170.5</ele>
        <time>2022-08-03T10:47:53Z</time>
      </trkpt>
      <trkpt lat="44.60949" lon="3.21808">
        <ele>1170.4</ele>
        <time>2022-08-03T10:47:54Z</time>
      </trkpt>
      <trkpt lat="44.60939" lon="3.21803">
        <ele>1169.7</ele>
        <time>2022-08-03T10:48:03Z</time>
      </trkpt>
      <trkpt lat="44.60937" lon="3.21803">
        <ele>1169.6</ele>
        <time>2022-08-03T10:48:04Z</time>
      </trkpt>
      <trkpt lat="44.60928" lon="3.218">
        <ele>1169.1</ele>
        <time>2022-08-03T10:48:11Z</time>
      </trkpt>
      <trkpt lat="44.6092" lon="3.21796">
        <ele>1168.7</ele>
        <time>2022-08-03T10:48:18Z</time>
      </trkpt>
      <trkpt lat="44.60909" lon="3.21789">
        <ele>1167.8</ele>
        <time>2022-08-03T10:48:28Z</time>
      </trkpt>
      <trkpt lat="44.60909" lon="3.21788">
        <ele>1167.7</ele>
        <time>2022-08-03T10:48:30Z</time>
      </trkpt>
      <trkpt lat="44.60907" lon="3.21786">
        <ele>1167.6</ele>
        <time>2022-08-03T10:48:34Z</time>
      </trkpt>
      <trkpt lat="44.60901" lon="3.21779">
        <ele>1167.4</ele>
        <time>2022-08-03T10:48:41Z</time>
      </trkpt>
      <trkpt lat="44.6089" lon="3.21768">
        <ele>1167</ele>
        <time>2022-08-03T10:48:51Z</time>
      </trkpt>
      <trkpt lat="44.60883" lon="3.21758">
        <ele>1167.1</ele>
        <time>2022-08-03T10:48:59Z</time>
      </trkpt>
      <trkpt lat="44.60872" lon="3.21743">
        <ele>1167.9</ele>
        <time>2022-08-03T10:49:12Z</time>
      </trkpt>
      <trkpt lat="44.60866" lon="3.21732">
        <ele>1168.5</ele>
        <time>2022-08-03T10:49:20Z</time>
      </trkpt>
      <trkpt lat="44.60865" lon="3.21732">
        <ele>1168.5</ele>
        <time>2022-08-03T10:49:21Z</time>
      </trkpt>
      <trkpt lat="44.60861" lon="3.21726">
        <ele>1168.8</ele>
        <time>2022-08-03T10:49:25Z</time>
      </trkpt>
      <trkpt lat="44.60853" lon="3.21717">
        <ele>1169.3</ele>
        <time>2022-08-03T10:49:34Z</time>
      </trkpt>
      <trkpt lat="44.60852" lon="3.21716">
        <ele>1169.3</ele>
        <time>2022-08-03T10:49:35Z</time>
      </trkpt>
      <trkpt lat="44.60847" lon="3.21709">
        <ele>1169.5</ele>
        <time>2022-08-03T10:49:41Z</time>
      </trkpt>
      <trkpt lat="44.60843" lon="3.21703">
        <ele>1169.5</ele>
        <time>2022-08-03T10:49:47Z</time>
      </trkpt>
      <trkpt lat="44.60842" lon="3.21699">
        <ele>1169.5</ele>
        <time>2022-08-03T10:49:52Z</time>
      </trkpt>
      <trkpt lat="44.60842" lon="3.21699">
        <ele>1169.5</ele>
        <time>2022-08-03T10:49:53Z</time>
      </trkpt>
      <trkpt lat="44.60839" lon="3.21698">
        <ele>1169.3</ele>
        <time>2022-08-03T10:49:56Z</time>
      </trkpt>
      <trkpt lat="44.60837" lon="3.21695">
        <ele>1169.3</ele>
        <time>2022-08-03T10:49:58Z</time>
      </trkpt>
      <trkpt lat="44.60832" lon="3.2169">
        <ele>1168.6</ele>
        <time>2022-08-03T10:50:01Z</time>
      </trkpt>
      <trkpt lat="44.60831" lon="3.21687">
        <ele>1168.5</ele>
        <time>2022-08-03T10:50:03Z</time>
      </trkpt>
      <trkpt lat="44.60827" lon="3.21672">
        <ele>1167.4</ele>
        <time>2022-08-03T10:50:11Z</time>
      </trkpt>
      <trkpt lat="44.60824" lon="3.21658">
        <ele>1166.8</ele>
        <time>2022-08-03T10:50:19Z</time>
      </trkpt>
      <trkpt lat="44.60824" lon="3.21657">
        <ele>1166.9</ele>
        <time>2022-08-03T10:50:20Z</time>
      </trkpt>
      <trkpt lat="44.60822" lon="3.21651">
        <ele>1166.5</ele>
        <time>2022-08-03T10:50:24Z</time>
      </trkpt>
      <trkpt lat="44.6082" lon="3.21647">
        <ele>1165.9</ele>
        <time>2022-08-03T10:50:27Z</time>
      </trkpt>
      <trkpt lat="44.60817" lon="3.21642">
        <ele>1165.3</ele>
        <time>2022-08-03T10:50:31Z</time>
      </trkpt>
      <trkpt lat="44.60817" lon="3.21642">
        <ele>1165.3</ele>
        <time>2022-08-03T10:50:33Z</time>
      </trkpt>
      <trkpt lat="44.60817" lon="3.21642">
        <ele>1165.2</ele>
        <time>2022-08-03T10:50:35Z</time>
      </trkpt>
      <trkpt lat="44.60818" lon="3.21641">
        <ele>1165.5</ele>
        <time>2022-08-03T10:50:40Z</time>
      </trkpt>
      <trkpt lat="44.60818" lon="3.21636">
        <ele>1165.8</ele>
        <time>2022-08-03T10:50:47Z</time>
      </trkpt>
      <trkpt lat="44.60821" lon="3.21636">
        <ele>1166.5</ele>
        <time>2022-08-03T10:50:54Z</time>
      </trkpt>
      <trkpt lat="44.60825" lon="3.21638">
        <ele>1167.6</ele>
        <time>2022-08-03T10:51:00Z</time>
      </trkpt>
      <trkpt lat="44.60825" lon="3.21638">
        <ele>1167.7</ele>
        <time>2022-08-03T10:51:02Z</time>
      </trkpt>
      <trkpt lat="44.60826" lon="3.21642">
        <ele>1167.7</ele>
        <time>2022-08-03T10:51:09Z</time>
      </trkpt>
      <trkpt lat="44.60822" lon="3.21644">
        <ele>1166.7</ele>
        <time>2022-08-03T10:51:15Z</time>
      </trkpt>
      <trkpt lat="44.60821" lon="3.21644">
        <ele>1166.4</ele>
        <time>2022-08-03T10:51:35Z</time>
      </trkpt>
      <trkpt lat="44.60821" lon="3.21646">
        <ele>1166.3</ele>
        <time>2022-08-03T10:51:40Z</time>
      </trkpt>
      <trkpt lat="44.6082" lon="3.21644">
        <ele>1166</ele>
        <time>2022-08-03T10:52:14Z</time>
      </trkpt>
      <trkpt lat="44.60819" lon="3.21632">
        <ele>1166.1</ele>
        <time>2022-08-03T10:52:37Z</time>
      </trkpt>
      <trkpt lat="44.60815" lon="3.21622">
        <ele>1165.1</ele>
        <time>2022-08-03T10:52:43Z</time>
      </trkpt>
      <trkpt lat="44.60814" lon="3.21621">
        <ele>1164.9</ele>
        <time>2022-08-03T10:52:44Z</time>
      </trkpt>
      <trkpt lat="44.60809" lon="3.21614">
        <ele>1163.8</ele>
        <time>2022-08-03T10:52:50Z</time>
      </trkpt>
      <trkpt lat="44.60809" lon="3.21613">
        <ele>1163.8</ele>
        <time>2022-08-03T10:52:51Z</time>
      </trkpt>
      <trkpt lat="44.60808" lon="3.21607">
        <ele>1163.5</ele>
        <time>2022-08-03T10:52:55Z</time>
      </trkpt>
      <trkpt lat="44.60808" lon="3.21604">
        <ele>1163.5</ele>
        <time>2022-08-03T10:52:57Z</time>
      </trkpt>
      <trkpt lat="44.60806" lon="3.21591">
        <ele>1163.1</ele>
        <time>2022-08-03T10:53:05Z</time>
      </trkpt>
      <trkpt lat="44.60804" lon="3.21581">
        <ele>1162.3</ele>
        <time>2022-08-03T10:53:11Z</time>
      </trkpt>
      <trkpt lat="44.60802" lon="3.21574">
        <ele>1161.4</ele>
        <time>2022-08-03T10:53:15Z</time>
      </trkpt>
      <trkpt lat="44.60801" lon="3.21567">
        <ele>1160.4</ele>
        <time>2022-08-03T10:53:20Z</time>
      </trkpt>
      <trkpt lat="44.60799" lon="3.21563">
        <ele>1160</ele>
        <time>2022-08-03T10:53:23Z</time>
      </trkpt>
      <trkpt lat="44.60798" lon="3.2156">
        <ele>1159.5</ele>
        <time>2022-08-03T10:53:26Z</time>
      </trkpt>
      <trkpt lat="44.60794" lon="3.21553">
        <ele>1158.8</ele>
        <time>2022-08-03T10:53:31Z</time>
      </trkpt>
      <trkpt lat="44.60792" lon="3.21551">
        <ele>1158.6</ele>
        <time>2022-08-03T10:53:33Z</time>
      </trkpt>
      <trkpt lat="44.6079" lon="3.21546">
        <ele>1158.6</ele>
        <time>2022-08-03T10:53:36Z</time>
      </trkpt>
      <trkpt lat="44.60789" lon="3.21537">
        <ele>1158.7</ele>
        <time>2022-08-03T10:53:41Z</time>
      </trkpt>
      <trkpt lat="44.60788" lon="3.21533">
        <ele>1158.8</ele>
        <time>2022-08-03T10:53:43Z</time>
      </trkpt>
      <trkpt lat="44.60783" lon="3.21517">
        <ele>1159.3</ele>
        <time>2022-08-03T10:53:53Z</time>
      </trkpt>
      <trkpt lat="44.6078" lon="3.21504">
        <ele>1159.7</ele>
        <time>2022-08-03T10:54:01Z</time>
      </trkpt>
      <trkpt lat="44.60778" lon="3.21498">
        <ele>1160.1</ele>
        <time>2022-08-03T10:54:05Z</time>
      </trkpt>
      <trkpt lat="44.6077" lon="3.21489">
        <ele>1161.8</ele>
        <time>2022-08-03T10:54:14Z</time>
      </trkpt>
      <trkpt lat="44.60769" lon="3.21487">
        <ele>1162</ele>
        <time>2022-08-03T10:54:16Z</time>
      </trkpt>
      <trkpt lat="44.60769" lon="3.21485">
        <ele>1162.1</ele>
        <time>2022-08-03T10:54:17Z</time>
      </trkpt>
      <trkpt lat="44.60768" lon="3.21483">
        <ele>1162.3</ele>
        <time>2022-08-03T10:54:19Z</time>
      </trkpt>
      <trkpt lat="44.60767" lon="3.21481">
        <ele>1162.6</ele>
        <time>2022-08-03T10:54:21Z</time>
      </trkpt>
      <trkpt lat="44.60767" lon="3.21479">
        <ele>1162.8</ele>
        <time>2022-08-03T10:54:22Z</time>
      </trkpt>
      <trkpt lat="44.60767" lon="3.21473">
        <ele>1163</ele>
        <time>2022-08-03T10:54:29Z</time>
      </trkpt>
      <trkpt lat="44.60764" lon="3.2147">
        <ele>1163.6</ele>
        <time>2022-08-03T10:54:38Z</time>
      </trkpt>
      <trkpt lat="44.60764" lon="3.2147">
        <ele>1163.6</ele>
        <time>2022-08-03T10:54:47Z</time>
      </trkpt>
      <trkpt lat="44.60767" lon="3.21473">
        <ele>1162.9</ele>
        <time>2022-08-03T10:55:53Z</time>
      </trkpt>
      <trkpt lat="44.60771" lon="3.2148">
        <ele>1162</ele>
        <time>2022-08-03T10:57:26Z</time>
      </trkpt>
      <trkpt lat="44.6077" lon="3.21479">
        <ele>1162.1</ele>
        <time>2022-08-03T10:57:36Z</time>
      </trkpt>
      <trkpt lat="44.60772" lon="3.21477">
        <ele>1162</ele>
        <time>2022-08-03T10:57:51Z</time>
      </trkpt>
      <trkpt lat="44.60772" lon="3.21476">
        <ele>1161.9</ele>
        <time>2022-08-03T10:58:26Z</time>
      </trkpt>
      <trkpt lat="44.60774" lon="3.21477">
        <ele>1161.6</ele>
        <time>2022-08-03T10:58:31Z</time>
      </trkpt>
      <trkpt lat="44.60774" lon="3.21477">
        <ele>1161.4</ele>
        <time>2022-08-03T10:58:36Z</time>
      </trkpt>
      <trkpt lat="44.6077" lon="3.21476">
        <ele>1162.2</ele>
        <time>2022-08-03T10:58:43Z</time>
      </trkpt>
      <trkpt lat="44.60772" lon="3.21475">
        <ele>1162</ele>
        <time>2022-08-03T10:58:51Z</time>
      </trkpt>
      <trkpt lat="44.60769" lon="3.21474">
        <ele>1162.5</ele>
        <time>2022-08-03T10:59:26Z</time>
      </trkpt>
      <trkpt lat="44.60769" lon="3.21472">
        <ele>1162.7</ele>
        <time>2022-08-03T11:00:02Z</time>
      </trkpt>
      <trkpt lat="44.6077" lon="3.21472">
        <ele>1162.5</ele>
        <time>2022-08-03T11:00:08Z</time>
      </trkpt>
      <trkpt lat="44.60769" lon="3.21473">
        <ele>1162.6</ele>
        <time>2022-08-03T11:00:12Z</time>
      </trkpt>
      <trkpt lat="44.60769" lon="3.21473">
        <ele>1162.5</ele>
        <time>2022-08-03T11:00:19Z</time>
      </trkpt>
      <trkpt lat="44.60767" lon="3.21473">
        <ele>1163</ele>
        <time>2022-08-03T11:00:51Z</time>
      </trkpt>
      <trkpt lat="44.60767" lon="3.21473">
        <ele>1163</ele>
        <time>2022-08-03T11:00:52Z</time>
      </trkpt>
      <trkpt lat="44.6076" lon="3.21465">
        <ele>1164.3</ele>
        <time>2022-08-03T11:00:55Z</time>
      </trkpt>
      <trkpt lat="44.60752" lon="3.21449">
        <ele>1165.7</ele>
        <time>2022-08-03T11:01:04Z</time>
      </trkpt>
      <trkpt lat="44.60752" lon="3.21447">
        <ele>1165.7</ele>
        <time>2022-08-03T11:01:05Z</time>
      </trkpt>
      <trkpt lat="44.60749" lon="3.21437">
        <ele>1166.2</ele>
        <time>2022-08-03T11:01:11Z</time>
      </trkpt>
      <trkpt lat="44.60748" lon="3.21431">
        <ele>1166.5</ele>
        <time>2022-08-03T11:01:15Z</time>
      </trkpt>
      <trkpt lat="44.60747" lon="3.21428">
        <ele>1166.7</ele>
        <time>2022-08-03T11:01:17Z</time>
      </trkpt>
      <trkpt lat="44.60744" lon="3.21421">
        <ele>1167.2</ele>
        <time>2022-08-03T11:01:22Z</time>
      </trkpt>
      <trkpt lat="44.6074" lon="3.21406">
        <ele>1168</ele>
        <time>2022-08-03T11:01:31Z</time>
      </trkpt>
      <trkpt lat="44.60739" lon="3.21405">
        <ele>1168.2</ele>
        <time>2022-08-03T11:01:32Z</time>
      </trkpt>
      <trkpt lat="44.60739" lon="3.21403">
        <ele>1168.2</ele>
        <time>2022-08-03T11:01:33Z</time>
      </trkpt>
      <trkpt lat="44.60738" lon="3.21397">
        <ele>1168.3</ele>
        <time>2022-08-03T11:01:37Z</time>
      </trkpt>
      <trkpt lat="44.60738" lon="3.21395">
        <ele>1168.3</ele>
        <time>2022-08-03T11:01:38Z</time>
      </trkpt>
      <trkpt lat="44.60736" lon="3.21387">
        <ele>1168.6</ele>
        <time>2022-08-03T11:01:43Z</time>
      </trkpt>
      <trkpt lat="44.60734" lon="3.2138">
        <ele>1168.8</ele>
        <time>2022-08-03T11:01:47Z</time>
      </trkpt>
      <trkpt lat="44.60733" lon="3.21377">
        <ele>1169</ele>
        <time>2022-08-03T11:01:49Z</time>
      </trkpt>
      <trkpt lat="44.6073" lon="3.21362">
        <ele>1169.5</ele>
        <time>2022-08-03T11:01:57Z</time>
      </trkpt>
      <trkpt lat="44.60725" lon="3.21346">
        <ele>1170.5</ele>
        <time>2022-08-03T11:02:07Z</time>
      </trkpt>
      <trkpt lat="44.60724" lon="3.21345">
        <ele>1170.6</ele>
        <time>2022-08-03T11:02:08Z</time>
      </trkpt>
      <trkpt lat="44.6072" lon="3.21339">
        <ele>1171.3</ele>
        <time>2022-08-03T11:02:13Z</time>
      </trkpt>
      <trkpt lat="44.60718" lon="3.21334">
        <ele>1171.7</ele>
        <time>2022-08-03T11:02:16Z</time>
      </trkpt>
      <trkpt lat="44.60715" lon="3.21326">
        <ele>1172.4</ele>
        <time>2022-08-03T11:02:21Z</time>
      </trkpt>
      <trkpt lat="44.60711" lon="3.21319">
        <ele>1173</ele>
        <time>2022-08-03T11:02:26Z</time>
      </trkpt>
      <trkpt lat="44.60709" lon="3.21317">
        <ele>1173.4</ele>
        <time>2022-08-03T11:02:28Z</time>
      </trkpt>
      <trkpt lat="44.60708" lon="3.21316">
        <ele>1173.5</ele>
        <time>2022-08-03T11:02:29Z</time>
      </trkpt>
      <trkpt lat="44.60704" lon="3.21303">
        <ele>1174.2</ele>
        <time>2022-08-03T11:02:37Z</time>
      </trkpt>
      <trkpt lat="44.60699" lon="3.21292">
        <ele>1174.8</ele>
        <time>2022-08-03T11:02:44Z</time>
      </trkpt>
      <trkpt lat="44.60698" lon="3.21289">
        <ele>1174.9</ele>
        <time>2022-08-03T11:02:46Z</time>
      </trkpt>
      <trkpt lat="44.60694" lon="3.21285">
        <ele>1175.3</ele>
        <time>2022-08-03T11:02:50Z</time>
      </trkpt>
      <trkpt lat="44.60692" lon="3.21281">
        <ele>1175.6</ele>
        <time>2022-08-03T11:02:53Z</time>
      </trkpt>
      <trkpt lat="44.60684" lon="3.21275">
        <ele>1176.8</ele>
        <time>2022-08-03T11:03:00Z</time>
      </trkpt>
      <trkpt lat="44.60682" lon="3.21273">
        <ele>1177.1</ele>
        <time>2022-08-03T11:03:02Z</time>
      </trkpt>
      <trkpt lat="44.60676" lon="3.21266">
        <ele>1177.8</ele>
        <time>2022-08-03T11:03:08Z</time>
      </trkpt>
      <trkpt lat="44.6067" lon="3.21261">
        <ele>1178.4</ele>
        <time>2022-08-03T11:03:13Z</time>
      </trkpt>
      <trkpt lat="44.60666" lon="3.21257">
        <ele>1178.6</ele>
        <time>2022-08-03T11:03:17Z</time>
      </trkpt>
      <trkpt lat="44.60661" lon="3.21249">
        <ele>1179.3</ele>
        <time>2022-08-03T11:03:23Z</time>
      </trkpt>
      <trkpt lat="44.60657" lon="3.21246">
        <ele>1180.1</ele>
        <time>2022-08-03T11:03:26Z</time>
      </trkpt>
      <trkpt lat="44.6065" lon="3.21239">
        <ele>1181.4</ele>
        <time>2022-08-03T11:03:33Z</time>
      </trkpt>
      <trkpt lat="44.60649" lon="3.21236">
        <ele>1181.7</ele>
        <time>2022-08-03T11:03:35Z</time>
      </trkpt>
      <trkpt lat="44.60644" lon="3.21228">
        <ele>1182.4</ele>
        <time>2022-08-03T11:03:41Z</time>
      </trkpt>
      <trkpt lat="44.6064" lon="3.21222">
        <ele>1182.8</ele>
        <time>2022-08-03T11:03:45Z</time>
      </trkpt>
      <trkpt lat="44.60635" lon="3.21212">
        <ele>1183.5</ele>
        <time>2022-08-03T11:03:52Z</time>
      </trkpt>
      <trkpt lat="44.60632" lon="3.21206">
        <ele>1183.7</ele>
        <time>2022-08-03T11:03:56Z</time>
      </trkpt>
      <trkpt lat="44.60627" lon="3.21197">
        <ele>1183.9</ele>
        <time>2022-08-03T11:04:02Z</time>
      </trkpt>
      <trkpt lat="44.60624" lon="3.21189">
        <ele>1184.1</ele>
        <time>2022-08-03T11:04:08Z</time>
      </trkpt>
      <trkpt lat="44.6062" lon="3.21179">
        <ele>1184.2</ele>
        <time>2022-08-03T11:04:17Z</time>
      </trkpt>
      <trkpt lat="44.6062" lon="3.21179">
        <ele>1184.2</ele>
        <time>2022-08-03T11:04:18Z</time>
      </trkpt>
      <trkpt lat="44.6062" lon="3.21179">
        <ele>1184.2</ele>
        <time>2022-08-03T11:04:19Z</time>
      </trkpt>
      <trkpt lat="44.6062" lon="3.21179">
        <ele>1184.2</ele>
        <time>2022-08-03T11:04:20Z</time>
      </trkpt>
      <trkpt lat="44.60621" lon="3.21178">
        <ele>1184.2</ele>
        <time>2022-08-03T11:04:26Z</time>
      </trkpt>
      <trkpt lat="44.6062" lon="3.21178">
        <ele>1184.2</ele>
        <time>2022-08-03T11:04:34Z</time>
      </trkpt>
      <trkpt lat="44.60617" lon="3.2117">
        <ele>1184.2</ele>
        <time>2022-08-03T11:05:03Z</time>
      </trkpt>
      <trkpt lat="44.60616" lon="3.21168">
        <ele>1184.2</ele>
        <time>2022-08-03T11:05:04Z</time>
      </trkpt>
      <trkpt lat="44.6061" lon="3.21151">
        <ele>1183.9</ele>
        <time>2022-08-03T11:05:14Z</time>
      </trkpt>
      <trkpt lat="44.60601" lon="3.21128">
        <ele>1182.2</ele>
        <time>2022-08-03T11:05:29Z</time>
      </trkpt>
      <trkpt lat="44.60591" lon="3.21108">
        <ele>1180.7</ele>
        <time>2022-08-03T11:05:42Z</time>
      </trkpt>
      <trkpt lat="44.6059" lon="3.21105">
        <ele>1180.4</ele>
        <time>2022-08-03T11:05:44Z</time>
      </trkpt>
      <trkpt lat="44.60585" lon="3.2109">
        <ele>1179.3</ele>
        <time>2022-08-03T11:05:54Z</time>
      </trkpt>
      <trkpt lat="44.60576" lon="3.21066">
        <ele>1178.6</ele>
        <time>2022-08-03T11:06:09Z</time>
      </trkpt>
      <trkpt lat="44.60575" lon="3.21064">
        <ele>1178.5</ele>
        <time>2022-08-03T11:06:10Z</time>
      </trkpt>
      <trkpt lat="44.60574" lon="3.21061">
        <ele>1178.4</ele>
        <time>2022-08-03T11:06:12Z</time>
      </trkpt>
      <trkpt lat="44.60568" lon="3.21044">
        <ele>1177.3</ele>
        <time>2022-08-03T11:06:24Z</time>
      </trkpt>
      <trkpt lat="44.60568" lon="3.21043">
        <ele>1177.2</ele>
        <time>2022-08-03T11:06:25Z</time>
      </trkpt>
      <trkpt lat="44.60567" lon="3.21042">
        <ele>1177.1</ele>
        <time>2022-08-03T11:06:27Z</time>
      </trkpt>
      <trkpt lat="44.60568" lon="3.21039">
        <ele>1177</ele>
        <time>2022-08-03T11:06:29Z</time>
      </trkpt>
      <trkpt lat="44.60571" lon="3.21027">
        <ele>1176.7</ele>
        <time>2022-08-03T11:06:37Z</time>
      </trkpt>
      <trkpt lat="44.60571" lon="3.21015">
        <ele>1176.8</ele>
        <time>2022-08-03T11:06:45Z</time>
      </trkpt>
      <trkpt lat="44.60568" lon="3.21001">
        <ele>1176.9</ele>
        <time>2022-08-03T11:06:53Z</time>
      </trkpt>
      <trkpt lat="44.60568" lon="3.21">
        <ele>1176.9</ele>
        <time>2022-08-03T11:06:55Z</time>
      </trkpt>
      <trkpt lat="44.60568" lon="3.21002">
        <ele>1176.9</ele>
        <time>2022-08-03T11:06:58Z</time>
      </trkpt>
      <trkpt lat="44.60566" lon="3.21">
        <ele>1176.7</ele>
        <time>2022-08-03T11:07:04Z</time>
      </trkpt>
      <trkpt lat="44.60559" lon="3.20996">
        <ele>1176.5</ele>
        <time>2022-08-03T11:07:10Z</time>
      </trkpt>
      <trkpt lat="44.60549" lon="3.20987">
        <ele>1175.7</ele>
        <time>2022-08-03T11:07:18Z</time>
      </trkpt>
      <trkpt lat="44.60541" lon="3.20972">
        <ele>1174.9</ele>
        <time>2022-08-03T11:07:28Z</time>
      </trkpt>
      <trkpt lat="44.6054" lon="3.20971">
        <ele>1174.7</ele>
        <time>2022-08-03T11:07:29Z</time>
      </trkpt>
      <trkpt lat="44.60537" lon="3.2096">
        <ele>1174.4</ele>
        <time>2022-08-03T11:07:36Z</time>
      </trkpt>
      <trkpt lat="44.60532" lon="3.20945">
        <ele>1173.9</ele>
        <time>2022-08-03T11:07:45Z</time>
      </trkpt>
      <trkpt lat="44.60527" lon="3.20929">
        <ele>1173.9</ele>
        <time>2022-08-03T11:07:55Z</time>
      </trkpt>
      <trkpt lat="44.60517" lon="3.20912">
        <ele>1173.2</ele>
        <time>2022-08-03T11:08:06Z</time>
      </trkpt>
      <trkpt lat="44.60514" lon="3.20909">
        <ele>1172.9</ele>
        <time>2022-08-03T11:08:08Z</time>
      </trkpt>
      <trkpt lat="44.60504" lon="3.20901">
        <ele>1172.2</ele>
        <time>2022-08-03T11:08:16Z</time>
      </trkpt>
      <trkpt lat="44.60495" lon="3.20895">
        <ele>1172</ele>
        <time>2022-08-03T11:08:24Z</time>
      </trkpt>
      <trkpt lat="44.60492" lon="3.20894">
        <ele>1171.9</ele>
        <time>2022-08-03T11:08:26Z</time>
      </trkpt>
      <trkpt lat="44.60484" lon="3.2089">
        <ele>1171.7</ele>
        <time>2022-08-03T11:08:32Z</time>
      </trkpt>
      <trkpt lat="44.60472" lon="3.20883">
        <ele>1171.4</ele>
        <time>2022-08-03T11:08:42Z</time>
      </trkpt>
      <trkpt lat="44.60469" lon="3.20882">
        <ele>1171.3</ele>
        <time>2022-08-03T11:08:44Z</time>
      </trkpt>
      <trkpt lat="44.60458" lon="3.20876">
        <ele>1171.2</ele>
        <time>2022-08-03T11:08:53Z</time>
      </trkpt>
      <trkpt lat="44.60443" lon="3.20867">
        <ele>1171.3</ele>
        <time>2022-08-03T11:09:05Z</time>
      </trkpt>
      <trkpt lat="44.60429" lon="3.20861">
        <ele>1171.4</ele>
        <time>2022-08-03T11:09:15Z</time>
      </trkpt>
      <trkpt lat="44.60421" lon="3.20858">
        <ele>1171.4</ele>
        <time>2022-08-03T11:09:21Z</time>
      </trkpt>
      <trkpt lat="44.60416" lon="3.20857">
        <ele>1171.2</ele>
        <time>2022-08-03T11:09:26Z</time>
      </trkpt>
      <trkpt lat="44.60412" lon="3.20856">
        <ele>1171.1</ele>
        <time>2022-08-03T11:09:29Z</time>
      </trkpt>
      <trkpt lat="44.6041" lon="3.20855">
        <ele>1171</ele>
        <time>2022-08-03T11:09:31Z</time>
      </trkpt>
      <trkpt lat="44.60405" lon="3.20854">
        <ele>1170.8</ele>
        <time>2022-08-03T11:09:35Z</time>
      </trkpt>
      <trkpt lat="44.60401" lon="3.20852">
        <ele>1170.7</ele>
        <time>2022-08-03T11:09:38Z</time>
      </trkpt>
      <trkpt lat="44.60394" lon="3.2085">
        <ele>1170.4</ele>
        <time>2022-08-03T11:09:44Z</time>
      </trkpt>
      <trkpt lat="44.60392" lon="3.2085">
        <ele>1170.4</ele>
        <time>2022-08-03T11:09:46Z</time>
      </trkpt>
      <trkpt lat="44.60379" lon="3.20847">
        <ele>1170.1</ele>
        <time>2022-08-03T11:09:56Z</time>
      </trkpt>
      <trkpt lat="44.60367" lon="3.20846">
        <ele>1170</ele>
        <time>2022-08-03T11:10:04Z</time>
      </trkpt>
      <trkpt lat="44.60366" lon="3.20846">
        <ele>1169.9</ele>
        <time>2022-08-03T11:10:05Z</time>
      </trkpt>
      <trkpt lat="44.60352" lon="3.20845">
        <ele>1170</ele>
        <time>2022-08-03T11:10:15Z</time>
      </trkpt>
      <trkpt lat="44.60341" lon="3.20846">
        <ele>1170</ele>
        <time>2022-08-03T11:10:24Z</time>
      </trkpt>
      <trkpt lat="44.60334" lon="3.20848">
        <ele>1169.9</ele>
        <time>2022-08-03T11:10:33Z</time>
      </trkpt>
      <trkpt lat="44.60334" lon="3.20847">
        <ele>1170</ele>
        <time>2022-08-03T11:10:34Z</time>
      </trkpt>
      <trkpt lat="44.60334" lon="3.20847">
        <ele>1170</ele>
        <time>2022-08-03T11:10:37Z</time>
      </trkpt>
      <trkpt lat="44.60334" lon="3.20848">
        <ele>1169.9</ele>
        <time>2022-08-03T11:10:41Z</time>
      </trkpt>
      <trkpt lat="44.60327" lon="3.20847">
        <ele>1170.5</ele>
        <time>2022-08-03T11:10:58Z</time>
      </trkpt>
      <trkpt lat="44.60322" lon="3.20846">
        <ele>1171.1</ele>
        <time>2022-08-03T11:11:01Z</time>
      </trkpt>
      <trkpt lat="44.60317" lon="3.20847">
        <ele>1171.5</ele>
        <time>2022-08-03T11:11:05Z</time>
      </trkpt>
      <trkpt lat="44.60308" lon="3.20849">
        <ele>1172.1</ele>
        <time>2022-08-03T11:11:11Z</time>
      </trkpt>
      <trkpt lat="44.60305" lon="3.2085">
        <ele>1172.3</ele>
        <time>2022-08-03T11:11:14Z</time>
      </trkpt>
      <trkpt lat="44.60293" lon="3.20848">
        <ele>1172.6</ele>
        <time>2022-08-03T11:11:23Z</time>
      </trkpt>
      <trkpt lat="44.60285" lon="3.20847">
        <ele>1172.9</ele>
        <time>2022-08-03T11:11:29Z</time>
      </trkpt>
      <trkpt lat="44.60281" lon="3.20846">
        <ele>1173</ele>
        <time>2022-08-03T11:11:32Z</time>
      </trkpt>
      <trkpt lat="44.60274" lon="3.20842">
        <ele>1173.4</ele>
        <time>2022-08-03T11:11:39Z</time>
      </trkpt>
      <trkpt lat="44.60273" lon="3.20841">
        <ele>1173.5</ele>
        <time>2022-08-03T11:11:41Z</time>
      </trkpt>
      <trkpt lat="44.60271" lon="3.20839">
        <ele>1173.6</ele>
        <time>2022-08-03T11:11:43Z</time>
      </trkpt>
      <trkpt lat="44.6027" lon="3.20838">
        <ele>1173.6</ele>
        <time>2022-08-03T11:11:44Z</time>
      </trkpt>
      <trkpt lat="44.6027" lon="3.20838">
        <ele>1173.7</ele>
        <time>2022-08-03T11:11:45Z</time>
      </trkpt>
      <trkpt lat="44.6027" lon="3.20841">
        <ele>1173.4</ele>
        <time>2022-08-03T11:11:48Z</time>
      </trkpt>
      <trkpt lat="44.60271" lon="3.20843">
        <ele>1173.3</ele>
        <time>2022-08-03T11:11:49Z</time>
      </trkpt>
      <trkpt lat="44.60269" lon="3.20858">
        <ele>1172.2</ele>
        <time>2022-08-03T11:11:57Z</time>
      </trkpt>
      <trkpt lat="44.60268" lon="3.20861">
        <ele>1172</ele>
        <time>2022-08-03T11:11:59Z</time>
      </trkpt>
      <trkpt lat="44.60262" lon="3.20867">
        <ele>1171.4</ele>
        <time>2022-08-03T11:12:05Z</time>
      </trkpt>
      <trkpt lat="44.6026" lon="3.20868">
        <ele>1171.3</ele>
        <time>2022-08-03T11:12:06Z</time>
      </trkpt>
      <trkpt lat="44.60253" lon="3.20869">
        <ele>1171.2</ele>
        <time>2022-08-03T11:12:12Z</time>
      </trkpt>
      <trkpt lat="44.60251" lon="3.20868">
        <ele>1171.3</ele>
        <time>2022-08-03T11:12:13Z</time>
      </trkpt>
      <trkpt lat="44.60247" lon="3.20861">
        <ele>1171.6</ele>
        <time>2022-08-03T11:12:18Z</time>
      </trkpt>
      <trkpt lat="44.60239" lon="3.2085">
        <ele>1171.9</ele>
        <time>2022-08-03T11:12:27Z</time>
      </trkpt>
      <trkpt lat="44.60232" lon="3.20842">
        <ele>1172.3</ele>
        <time>2022-08-03T11:12:34Z</time>
      </trkpt>
      <trkpt lat="44.60228" lon="3.20836">
        <ele>1172.9</ele>
        <time>2022-08-03T11:12:42Z</time>
      </trkpt>
      <trkpt lat="44.60227" lon="3.20835">
        <ele>1173</ele>
        <time>2022-08-03T11:12:44Z</time>
      </trkpt>
      <trkpt lat="44.60224" lon="3.20829">
        <ele>1173.4</ele>
        <time>2022-08-03T11:12:48Z</time>
      </trkpt>
      <trkpt lat="44.60219" lon="3.2082">
        <ele>1173.8</ele>
        <time>2022-08-03T11:12:56Z</time>
      </trkpt>
      <trkpt lat="44.60217" lon="3.20817">
        <ele>1174</ele>
        <time>2022-08-03T11:12:58Z</time>
      </trkpt>
      <trkpt lat="44.60214" lon="3.20812">
        <ele>1174.4</ele>
        <time>2022-08-03T11:13:02Z</time>
      </trkpt>
      <trkpt lat="44.60214" lon="3.20802">
        <ele>1175.2</ele>
        <time>2022-08-03T11:13:08Z</time>
      </trkpt>
      <trkpt lat="44.60214" lon="3.20799">
        <ele>1175.5</ele>
        <time>2022-08-03T11:13:10Z</time>
      </trkpt>
      <trkpt lat="44.60218" lon="3.20788">
        <ele>1176.2</ele>
        <time>2022-08-03T11:13:18Z</time>
      </trkpt>
      <trkpt lat="44.60218" lon="3.20788">
        <ele>1176.3</ele>
        <time>2022-08-03T11:13:19Z</time>
      </trkpt>
      <trkpt lat="44.60219" lon="3.20787">
        <ele>1176.3</ele>
        <time>2022-08-03T11:13:20Z</time>
      </trkpt>
      <trkpt lat="44.60221" lon="3.20784">
        <ele>1176.5</ele>
        <time>2022-08-03T11:13:24Z</time>
      </trkpt>
      <trkpt lat="44.60223" lon="3.20782">
        <ele>1176.7</ele>
        <time>2022-08-03T11:13:26Z</time>
      </trkpt>
      <trkpt lat="44.60223" lon="3.20784">
        <ele>1176.6</ele>
        <time>2022-08-03T11:13:29Z</time>
      </trkpt>
      <trkpt lat="44.60224" lon="3.20783">
        <ele>1176.6</ele>
        <time>2022-08-03T11:13:31Z</time>
      </trkpt>
      <trkpt lat="44.60228" lon="3.20782">
        <ele>1176.7</ele>
        <time>2022-08-03T11:13:34Z</time>
      </trkpt>
      <trkpt lat="44.60228" lon="3.20783">
        <ele>1176.7</ele>
        <time>2022-08-03T11:13:35Z</time>
      </trkpt>
      <trkpt lat="44.60228" lon="3.20786">
        <ele>1176.5</ele>
        <time>2022-08-03T11:13:41Z</time>
      </trkpt>
      <trkpt lat="44.60227" lon="3.20787">
        <ele>1176.5</ele>
        <time>2022-08-03T11:13:56Z</time>
      </trkpt>
      <trkpt lat="44.60228" lon="3.20787">
        <ele>1176.5</ele>
        <time>2022-08-03T11:14:06Z</time>
      </trkpt>
      <trkpt lat="44.60228" lon="3.20788">
        <ele>1176.4</ele>
        <time>2022-08-03T11:14:41Z</time>
      </trkpt>
      <trkpt lat="44.60225" lon="3.20789">
        <ele>1176.3</ele>
        <time>2022-08-03T11:14:46Z</time>
      </trkpt>
      <trkpt lat="44.60225" lon="3.20789">
        <ele>1176.3</ele>
        <time>2022-08-03T11:14:49Z</time>
      </trkpt>
      <trkpt lat="44.60225" lon="3.20789">
        <ele>1176.3</ele>
        <time>2022-08-03T11:14:59Z</time>
      </trkpt>
      <trkpt lat="44.60222" lon="3.20787">
        <ele>1176.4</ele>
        <time>2022-08-03T11:15:49Z</time>
      </trkpt>
      <trkpt lat="44.60222" lon="3.20785">
        <ele>1176.5</ele>
        <time>2022-08-03T11:16:24Z</time>
      </trkpt>
      <trkpt lat="44.60222" lon="3.20781">
        <ele>1176.8</ele>
        <time>2022-08-03T11:17:08Z</time>
      </trkpt>
      <trkpt lat="44.6022" lon="3.20785">
        <ele>1176.5</ele>
        <time>2022-08-03T11:17:13Z</time>
      </trkpt>
      <trkpt lat="44.6022" lon="3.2078">
        <ele>1176.8</ele>
        <time>2022-08-03T11:17:19Z</time>
      </trkpt>
      <trkpt lat="44.60221" lon="3.20783">
        <ele>1176.7</ele>
        <time>2022-08-03T11:17:22Z</time>
      </trkpt>
      <trkpt lat="44.60223" lon="3.20788">
        <ele>1176.3</ele>
        <time>2022-08-03T11:17:30Z</time>
      </trkpt>
      <trkpt lat="44.60223" lon="3.20784">
        <ele>1176.6</ele>
        <time>2022-08-03T11:17:34Z</time>
      </trkpt>
      <trkpt lat="44.60224" lon="3.20783">
        <ele>1176.6</ele>
        <time>2022-08-03T11:17:41Z</time>
      </trkpt>
      <trkpt lat="44.60223" lon="3.2078">
        <ele>1176.8</ele>
        <time>2022-08-03T11:17:45Z</time>
      </trkpt>
      <trkpt lat="44.60222" lon="3.20779">
        <ele>1176.9</ele>
        <time>2022-08-03T11:17:50Z</time>
      </trkpt>
      <trkpt lat="44.60222" lon="3.20779">
        <ele>1176.9</ele>
        <time>2022-08-03T11:17:56Z</time>
      </trkpt>
      <trkpt lat="44.60223" lon="3.20783">
        <ele>1176.6</ele>
        <time>2022-08-03T11:18:00Z</time>
      </trkpt>
      <trkpt lat="44.60223" lon="3.20784">
        <ele>1176.6</ele>
        <time>2022-08-03T11:18:06Z</time>
      </trkpt>
      <trkpt lat="44.60221" lon="3.20786">
        <ele>1176.4</ele>
        <time>2022-08-03T11:18:10Z</time>
      </trkpt>
      <trkpt lat="44.60221" lon="3.20786">
        <ele>1176.4</ele>
        <time>2022-08-03T11:18:16Z</time>
      </trkpt>
      <trkpt lat="44.60221" lon="3.20786">
        <ele>1176.4</ele>
        <time>2022-08-03T11:18:17Z</time>
      </trkpt>
      <trkpt lat="44.6022" lon="3.20786">
        <ele>1176.4</ele>
        <time>2022-08-03T11:18:20Z</time>
      </trkpt>
      <trkpt lat="44.60199" lon="3.20723">
        <ele>1180.6</ele>
        <time>2022-08-03T11:41:29Z</time>
      </trkpt>
      <trkpt lat="44.60203" lon="3.20707">
        <ele>1180.7</ele>
        <time>2022-08-03T11:41:40Z</time>
      </trkpt>
      <trkpt lat="44.60203" lon="3.20705">
        <ele>1180.8</ele>
        <time>2022-08-03T11:41:41Z</time>
      </trkpt>
      <trkpt lat="44.60208" lon="3.20691">
        <ele>1180.8</ele>
        <time>2022-08-03T11:41:49Z</time>
      </trkpt>
      <trkpt lat="44.60207" lon="3.2069">
        <ele>1180.6</ele>
        <time>2022-08-03T11:41:50Z</time>
      </trkpt>
      <trkpt lat="44.60209" lon="3.20681">
        <ele>1180.1</ele>
        <time>2022-08-03T11:41:55Z</time>
      </trkpt>
      <trkpt lat="44.6021" lon="3.2068">
        <ele>1180</ele>
        <time>2022-08-03T11:41:56Z</time>
      </trkpt>
      <trkpt lat="44.60211" lon="3.20678">
        <ele>1179.9</ele>
        <time>2022-08-03T11:41:57Z</time>
      </trkpt>
      <trkpt lat="44.6022" lon="3.20671">
        <ele>1180</ele>
        <time>2022-08-03T11:42:05Z</time>
      </trkpt>
      <trkpt lat="44.60235" lon="3.2066">
        <ele>1179.8</ele>
        <time>2022-08-03T11:42:19Z</time>
      </trkpt>
      <trkpt lat="44.60243" lon="3.20652">
        <ele>1180.1</ele>
        <time>2022-08-03T11:42:27Z</time>
      </trkpt>
      <trkpt lat="44.60248" lon="3.20646">
        <ele>1180.6</ele>
        <time>2022-08-03T11:42:34Z</time>
      </trkpt>
      <trkpt lat="44.60249" lon="3.20643">
        <ele>1180.8</ele>
        <time>2022-08-03T11:42:37Z</time>
      </trkpt>
      <trkpt lat="44.60248" lon="3.20636">
        <ele>1180.8</ele>
        <time>2022-08-03T11:42:41Z</time>
      </trkpt>
      <trkpt lat="44.60248" lon="3.20624">
        <ele>1180.8</ele>
        <time>2022-08-03T11:42:49Z</time>
      </trkpt>
      <trkpt lat="44.60249" lon="3.20624">
        <ele>1180.9</ele>
        <time>2022-08-03T11:42:50Z</time>
      </trkpt>
      <trkpt lat="44.60251" lon="3.20622">
        <ele>1181.1</ele>
        <time>2022-08-03T11:42:55Z</time>
      </trkpt>
      <trkpt lat="44.60251" lon="3.20622">
        <ele>1181.1</ele>
        <time>2022-08-03T11:42:56Z</time>
      </trkpt>
      <trkpt lat="44.60248" lon="3.20617">
        <ele>1180.8</ele>
        <time>2022-08-03T11:43:04Z</time>
      </trkpt>
      <trkpt lat="44.60246" lon="3.20609">
        <ele>1180.4</ele>
        <time>2022-08-03T11:43:09Z</time>
      </trkpt>
      <trkpt lat="44.60245" lon="3.20607">
        <ele>1180.2</ele>
        <time>2022-08-03T11:43:12Z</time>
      </trkpt>
      <trkpt lat="44.60244" lon="3.20605">
        <ele>1179.9</ele>
        <time>2022-08-03T11:43:16Z</time>
      </trkpt>
      <trkpt lat="44.60244" lon="3.20606">
        <ele>1180</ele>
        <time>2022-08-03T11:43:18Z</time>
      </trkpt>
      <trkpt lat="44.60244" lon="3.20601">
        <ele>1179.7</ele>
        <time>2022-08-03T11:43:30Z</time>
      </trkpt>
      <trkpt lat="44.6024" lon="3.20587">
        <ele>1178.6</ele>
        <time>2022-08-03T11:43:37Z</time>
      </trkpt>
      <trkpt lat="44.60236" lon="3.20573">
        <ele>1178.4</ele>
        <time>2022-08-03T11:43:46Z</time>
      </trkpt>
      <trkpt lat="44.60231" lon="3.20563">
        <ele>1178.2</ele>
        <time>2022-08-03T11:43:53Z</time>
      </trkpt>
      <trkpt lat="44.60229" lon="3.20556">
        <ele>1177.9</ele>
        <time>2022-08-03T11:43:57Z</time>
      </trkpt>
      <trkpt lat="44.60228" lon="3.20552">
        <ele>1177.8</ele>
        <time>2022-08-03T11:44:00Z</time>
      </trkpt>
      <trkpt lat="44.60226" lon="3.20549">
        <ele>1177.5</ele>
        <time>2022-08-03T11:44:03Z</time>
      </trkpt>
      <trkpt lat="44.60223" lon="3.20538">
        <ele>1177.1</ele>
        <time>2022-08-03T11:44:10Z</time>
      </trkpt>
      <trkpt lat="44.60219" lon="3.20529">
        <ele>1176.6</ele>
        <time>2022-08-03T11:44:19Z</time>
      </trkpt>
      <trkpt lat="44.60221" lon="3.20529">
        <ele>1176.9</ele>
        <time>2022-08-03T11:44:30Z</time>
      </trkpt>
      <trkpt lat="44.6022" lon="3.20525">
        <ele>1176.5</ele>
        <time>2022-08-03T11:44:53Z</time>
      </trkpt>
      <trkpt lat="44.60215" lon="3.20507">
        <ele>1175.4</ele>
        <time>2022-08-03T11:45:01Z</time>
      </trkpt>
      <trkpt lat="44.60214" lon="3.20491">
        <ele>1175.2</ele>
        <time>2022-08-03T11:45:10Z</time>
      </trkpt>
      <trkpt lat="44.60215" lon="3.2049">
        <ele>1175.3</ele>
        <time>2022-08-03T11:45:12Z</time>
      </trkpt>
      <trkpt lat="44.60213" lon="3.20488">
        <ele>1175.2</ele>
        <time>2022-08-03T11:45:19Z</time>
      </trkpt>
      <trkpt lat="44.60209" lon="3.20486">
        <ele>1174.9</ele>
        <time>2022-08-03T11:45:24Z</time>
      </trkpt>
      <trkpt lat="44.60208" lon="3.20486">
        <ele>1174.7</ele>
        <time>2022-08-03T11:45:25Z</time>
      </trkpt>
      <trkpt lat="44.60199" lon="3.20486">
        <ele>1173.9</ele>
        <time>2022-08-03T11:45:31Z</time>
      </trkpt>
      <trkpt lat="44.60195" lon="3.20485">
        <ele>1173.6</ele>
        <time>2022-08-03T11:45:34Z</time>
      </trkpt>
      <trkpt lat="44.60187" lon="3.20484">
        <ele>1172.8</ele>
        <time>2022-08-03T11:45:41Z</time>
      </trkpt>
      <trkpt lat="44.60185" lon="3.20484">
        <ele>1172.7</ele>
        <time>2022-08-03T11:45:42Z</time>
      </trkpt>
      <trkpt lat="44.60176" lon="3.20482">
        <ele>1171.9</ele>
        <time>2022-08-03T11:45:49Z</time>
      </trkpt>
      <trkpt lat="44.60169" lon="3.20479">
        <ele>1171.2</ele>
        <time>2022-08-03T11:45:55Z</time>
      </trkpt>
      <trkpt lat="44.60162" lon="3.20477">
        <ele>1170.8</ele>
        <time>2022-08-03T11:46:00Z</time>
      </trkpt>
      <trkpt lat="44.60153" lon="3.20472">
        <ele>1170.5</ele>
        <time>2022-08-03T11:46:07Z</time>
      </trkpt>
      <trkpt lat="44.60151" lon="3.20471">
        <ele>1170.5</ele>
        <time>2022-08-03T11:46:08Z</time>
      </trkpt>
      <trkpt lat="44.60145" lon="3.20467">
        <ele>1170.3</ele>
        <time>2022-08-03T11:46:14Z</time>
      </trkpt>
      <trkpt lat="44.60138" lon="3.20461">
        <ele>1169.9</ele>
        <time>2022-08-03T11:46:21Z</time>
      </trkpt>
      <trkpt lat="44.60136" lon="3.20459">
        <ele>1169.7</ele>
        <time>2022-08-03T11:46:23Z</time>
      </trkpt>
      <trkpt lat="44.60126" lon="3.20449">
        <ele>1169</ele>
        <time>2022-08-03T11:46:32Z</time>
      </trkpt>
      <trkpt lat="44.60117" lon="3.20442">
        <ele>1168.5</ele>
        <time>2022-08-03T11:46:39Z</time>
      </trkpt>
      <trkpt lat="44.60114" lon="3.2044">
        <ele>1168.3</ele>
        <time>2022-08-03T11:46:42Z</time>
      </trkpt>
      <trkpt lat="44.60104" lon="3.20433">
        <ele>1167.6</ele>
        <time>2022-08-03T11:46:51Z</time>
      </trkpt>
      <trkpt lat="44.60091" lon="3.20427">
        <ele>1167</ele>
        <time>2022-08-03T11:47:01Z</time>
      </trkpt>
      <trkpt lat="44.60087" lon="3.20427">
        <ele>1166.8</ele>
        <time>2022-08-03T11:47:04Z</time>
      </trkpt>
      <trkpt lat="44.6008" lon="3.20427">
        <ele>1166.6</ele>
        <time>2022-08-03T11:47:09Z</time>
      </trkpt>
      <trkpt lat="44.60069" lon="3.20425">
        <ele>1166.6</ele>
        <time>2022-08-03T11:47:18Z</time>
      </trkpt>
      <trkpt lat="44.60059" lon="3.20422">
        <ele>1166.6</ele>
        <time>2022-08-03T11:47:26Z</time>
      </trkpt>
      <trkpt lat="44.60045" lon="3.20418">
        <ele>1166.9</ele>
        <time>2022-08-03T11:47:38Z</time>
      </trkpt>
      <trkpt lat="44.60037" lon="3.20411">
        <ele>1166.9</ele>
        <time>2022-08-03T11:47:45Z</time>
      </trkpt>
      <trkpt lat="44.60026" lon="3.20403">
        <ele>1167.1</ele>
        <time>2022-08-03T11:47:55Z</time>
      </trkpt>
      <trkpt lat="44.60024" lon="3.20401">
        <ele>1167.2</ele>
        <time>2022-08-03T11:47:57Z</time>
      </trkpt>
      <trkpt lat="44.60019" lon="3.20398">
        <ele>1167.5</ele>
        <time>2022-08-03T11:48:00Z</time>
      </trkpt>
      <trkpt lat="44.60014" lon="3.20395">
        <ele>1167.9</ele>
        <time>2022-08-03T11:48:06Z</time>
      </trkpt>
      <trkpt lat="44.60002" lon="3.20388">
        <ele>1168.9</ele>
        <time>2022-08-03T11:48:15Z</time>
      </trkpt>
      <trkpt lat="44.59994" lon="3.20383">
        <ele>1169</ele>
        <time>2022-08-03T11:48:22Z</time>
      </trkpt>
      <trkpt lat="44.59985" lon="3.20374">
        <ele>1169.3</ele>
        <time>2022-08-03T11:48:31Z</time>
      </trkpt>
      <trkpt lat="44.59984" lon="3.20372">
        <ele>1169.4</ele>
        <time>2022-08-03T11:48:33Z</time>
      </trkpt>
      <trkpt lat="44.59983" lon="3.2037">
        <ele>1169.4</ele>
        <time>2022-08-03T11:48:35Z</time>
      </trkpt>
      <trkpt lat="44.59982" lon="3.20369">
        <ele>1169.5</ele>
        <time>2022-08-03T11:48:38Z</time>
      </trkpt>
      <trkpt lat="44.59982" lon="3.20368">
        <ele>1169.5</ele>
        <time>2022-08-03T11:48:40Z</time>
      </trkpt>
      <trkpt lat="44.59983" lon="3.20368">
        <ele>1169.5</ele>
        <time>2022-08-03T11:48:41Z</time>
      </trkpt>
      <trkpt lat="44.59983" lon="3.20368">
        <ele>1169.4</ele>
        <time>2022-08-03T11:48:46Z</time>
      </trkpt>
      <trkpt lat="44.59983" lon="3.20368">
        <ele>1169.5</ele>
        <time>2022-08-03T11:48:48Z</time>
      </trkpt>
      <trkpt lat="44.59983" lon="3.20368">
        <ele>1169.5</ele>
        <time>2022-08-03T11:48:57Z</time>
      </trkpt>
      <trkpt lat="44.59979" lon="3.20365">
        <ele>1169.7</ele>
        <time>2022-08-03T11:49:04Z</time>
      </trkpt>
      <trkpt lat="44.59967" lon="3.20356">
        <ele>1170.2</ele>
        <time>2022-08-03T11:49:12Z</time>
      </trkpt>
      <trkpt lat="44.59967" lon="3.20354">
        <ele>1170.3</ele>
        <time>2022-08-03T11:49:15Z</time>
      </trkpt>
      <trkpt lat="44.59967" lon="3.20355">
        <ele>1170.2</ele>
        <time>2022-08-03T11:49:17Z</time>
      </trkpt>
      <trkpt lat="44.59966" lon="3.20353">
        <ele>1170.3</ele>
        <time>2022-08-03T11:49:23Z</time>
      </trkpt>
      <trkpt lat="44.59959" lon="3.20345">
        <ele>1170.8</ele>
        <time>2022-08-03T11:49:30Z</time>
      </trkpt>
      <trkpt lat="44.59948" lon="3.20332">
        <ele>1171.8</ele>
        <time>2022-08-03T11:49:40Z</time>
      </trkpt>
      <trkpt lat="44.59945" lon="3.20328">
        <ele>1172.2</ele>
        <time>2022-08-03T11:49:43Z</time>
      </trkpt>
      <trkpt lat="44.59944" lon="3.20326">
        <ele>1172.3</ele>
        <time>2022-08-03T11:49:45Z</time>
      </trkpt>
      <trkpt lat="44.59944" lon="3.20324">
        <ele>1172.4</ele>
        <time>2022-08-03T11:49:48Z</time>
      </trkpt>
      <trkpt lat="44.5994" lon="3.20319">
        <ele>1173.2</ele>
        <time>2022-08-03T11:49:56Z</time>
      </trkpt>
      <trkpt lat="44.59938" lon="3.20315">
        <ele>1173.6</ele>
        <time>2022-08-03T11:49:59Z</time>
      </trkpt>
      <trkpt lat="44.59933" lon="3.20309">
        <ele>1174.5</ele>
        <time>2022-08-03T11:50:04Z</time>
      </trkpt>
      <trkpt lat="44.5993" lon="3.20305">
        <ele>1175.1</ele>
        <time>2022-08-03T11:50:09Z</time>
      </trkpt>
      <trkpt lat="44.59927" lon="3.20301">
        <ele>1175.7</ele>
        <time>2022-08-03T11:50:13Z</time>
      </trkpt>
      <trkpt lat="44.59923" lon="3.20296">
        <ele>1176.4</ele>
        <time>2022-08-03T11:50:18Z</time>
      </trkpt>
      <trkpt lat="44.59918" lon="3.20292">
        <ele>1177.3</ele>
        <time>2022-08-03T11:50:23Z</time>
      </trkpt>
      <trkpt lat="44.59917" lon="3.2029">
        <ele>1177.6</ele>
        <time>2022-08-03T11:50:25Z</time>
      </trkpt>
      <trkpt lat="44.59914" lon="3.20286">
        <ele>1178.3</ele>
        <time>2022-08-03T11:50:30Z</time>
      </trkpt>
      <trkpt lat="44.59912" lon="3.20283">
        <ele>1178.8</ele>
        <time>2022-08-03T11:50:33Z</time>
      </trkpt>
      <trkpt lat="44.59912" lon="3.20281">
        <ele>1178.9</ele>
        <time>2022-08-03T11:50:34Z</time>
      </trkpt>
      <trkpt lat="44.59911" lon="3.20279">
        <ele>1179.2</ele>
        <time>2022-08-03T11:50:37Z</time>
      </trkpt>
      <trkpt lat="44.59907" lon="3.20274">
        <ele>1180.1</ele>
        <time>2022-08-03T11:50:42Z</time>
      </trkpt>
      <trkpt lat="44.59906" lon="3.20272">
        <ele>1180.4</ele>
        <time>2022-08-03T11:50:43Z</time>
      </trkpt>
      <trkpt lat="44.59903" lon="3.20267">
        <ele>1181.1</ele>
        <time>2022-08-03T11:50:48Z</time>
      </trkpt>
      <trkpt lat="44.59902" lon="3.20266">
        <ele>1181.2</ele>
        <time>2022-08-03T11:50:49Z</time>
      </trkpt>
      <trkpt lat="44.59898" lon="3.20259">
        <ele>1181.8</ele>
        <time>2022-08-03T11:50:55Z</time>
      </trkpt>
      <trkpt lat="44.59896" lon="3.20258">
        <ele>1182.1</ele>
        <time>2022-08-03T11:50:57Z</time>
      </trkpt>
      <trkpt lat="44.59889" lon="3.20254">
        <ele>1183.1</ele>
        <time>2022-08-03T11:51:02Z</time>
      </trkpt>
      <trkpt lat="44.59889" lon="3.20253">
        <ele>1183.1</ele>
        <time>2022-08-03T11:51:04Z</time>
      </trkpt>
      <trkpt lat="44.59888" lon="3.20252">
        <ele>1183.3</ele>
        <time>2022-08-03T11:51:05Z</time>
      </trkpt>
      <trkpt lat="44.59884" lon="3.20251">
        <ele>1183.9</ele>
        <time>2022-08-03T11:51:09Z</time>
      </trkpt>
      <trkpt lat="44.59884" lon="3.2025">
        <ele>1184</ele>
        <time>2022-08-03T11:51:12Z</time>
      </trkpt>
      <trkpt lat="44.59884" lon="3.2025">
        <ele>1184</ele>
        <time>2022-08-03T11:51:13Z</time>
      </trkpt>
      <trkpt lat="44.59883" lon="3.20248">
        <ele>1184.1</ele>
        <time>2022-08-03T11:51:15Z</time>
      </trkpt>
      <trkpt lat="44.59883" lon="3.20248">
        <ele>1184.2</ele>
        <time>2022-08-03T11:51:17Z</time>
      </trkpt>
      <trkpt lat="44.59881" lon="3.20245">
        <ele>1184.4</ele>
        <time>2022-08-03T11:51:23Z</time>
      </trkpt>
      <trkpt lat="44.59878" lon="3.20244">
        <ele>1185</ele>
        <time>2022-08-03T11:51:27Z</time>
      </trkpt>
      <trkpt lat="44.59875" lon="3.20241">
        <ele>1185.6</ele>
        <time>2022-08-03T11:51:32Z</time>
      </trkpt>
      <trkpt lat="44.5987" lon="3.20236">
        <ele>1186.5</ele>
        <time>2022-08-03T11:51:38Z</time>
      </trkpt>
      <trkpt lat="44.5987" lon="3.20235">
        <ele>1186.5</ele>
        <time>2022-08-03T11:51:39Z</time>
      </trkpt>
      <trkpt lat="44.59866" lon="3.2023">
        <ele>1187.1</ele>
        <time>2022-08-03T11:51:44Z</time>
      </trkpt>
      <trkpt lat="44.59863" lon="3.20223">
        <ele>1187.7</ele>
        <time>2022-08-03T11:51:49Z</time>
      </trkpt>
      <trkpt lat="44.59861" lon="3.2022">
        <ele>1188.1</ele>
        <time>2022-08-03T11:51:52Z</time>
      </trkpt>
      <trkpt lat="44.59859" lon="3.20217">
        <ele>1188.4</ele>
        <time>2022-08-03T11:51:54Z</time>
      </trkpt>
      <trkpt lat="44.59857" lon="3.20207">
        <ele>1188.9</ele>
        <time>2022-08-03T11:51:59Z</time>
      </trkpt>
      <trkpt lat="44.59851" lon="3.20201">
        <ele>1190.1</ele>
        <time>2022-08-03T11:52:05Z</time>
      </trkpt>
      <trkpt lat="44.59851" lon="3.202">
        <ele>1190.2</ele>
        <time>2022-08-03T11:52:06Z</time>
      </trkpt>
      <trkpt lat="44.59846" lon="3.20196">
        <ele>1191.2</ele>
        <time>2022-08-03T11:52:12Z</time>
      </trkpt>
      <trkpt lat="44.59845" lon="3.20195">
        <ele>1191.4</ele>
        <time>2022-08-03T11:52:13Z</time>
      </trkpt>
      <trkpt lat="44.59838" lon="3.20187">
        <ele>1192.4</ele>
        <time>2022-08-03T11:52:22Z</time>
      </trkpt>
      <trkpt lat="44.59836" lon="3.20184">
        <ele>1192.8</ele>
        <time>2022-08-03T11:52:25Z</time>
      </trkpt>
      <trkpt lat="44.59834" lon="3.20181">
        <ele>1192.8</ele>
        <time>2022-08-03T11:52:27Z</time>
      </trkpt>
      <trkpt lat="44.59833" lon="3.2018">
        <ele>1193.1</ele>
        <time>2022-08-03T11:52:28Z</time>
      </trkpt>
      <trkpt lat="44.59826" lon="3.20172">
        <ele>1193.9</ele>
        <time>2022-08-03T11:52:35Z</time>
      </trkpt>
      <trkpt lat="44.59821" lon="3.20166">
        <ele>1194.5</ele>
        <time>2022-08-03T11:52:42Z</time>
      </trkpt>
      <trkpt lat="44.59821" lon="3.20165">
        <ele>1194.5</ele>
        <time>2022-08-03T11:52:43Z</time>
      </trkpt>
      <trkpt lat="44.59818" lon="3.20162">
        <ele>1195</ele>
        <time>2022-08-03T11:52:47Z</time>
      </trkpt>
      <trkpt lat="44.59818" lon="3.20161">
        <ele>1195.1</ele>
        <time>2022-08-03T11:52:48Z</time>
      </trkpt>
      <trkpt lat="44.59816" lon="3.2016">
        <ele>1195.3</ele>
        <time>2022-08-03T11:52:49Z</time>
      </trkpt>
      <trkpt lat="44.5981" lon="3.20156">
        <ele>1196.5</ele>
        <time>2022-08-03T11:52:55Z</time>
      </trkpt>
      <trkpt lat="44.5981" lon="3.20155">
        <ele>1196.6</ele>
        <time>2022-08-03T11:52:56Z</time>
      </trkpt>
      <trkpt lat="44.59807" lon="3.20152">
        <ele>1197.1</ele>
        <time>2022-08-03T11:53:02Z</time>
      </trkpt>
      <trkpt lat="44.59805" lon="3.20148">
        <ele>1197.5</ele>
        <time>2022-08-03T11:53:07Z</time>
      </trkpt>
      <trkpt lat="44.59804" lon="3.20146">
        <ele>1197.6</ele>
        <time>2022-08-03T11:53:08Z</time>
      </trkpt>
      <trkpt lat="44.59802" lon="3.20142">
        <ele>1197.6</ele>
        <time>2022-08-03T11:53:10Z</time>
      </trkpt>
      <trkpt lat="44.59802" lon="3.2014">
        <ele>1197.6</ele>
        <time>2022-08-03T11:53:11Z</time>
      </trkpt>
      <trkpt lat="44.59801" lon="3.20138">
        <ele>1197.7</ele>
        <time>2022-08-03T11:53:13Z</time>
      </trkpt>
      <trkpt lat="44.59794" lon="3.20135">
        <ele>1198.5</ele>
        <time>2022-08-03T11:53:19Z</time>
      </trkpt>
      <trkpt lat="44.59793" lon="3.20134">
        <ele>1198.6</ele>
        <time>2022-08-03T11:53:20Z</time>
      </trkpt>
      <trkpt lat="44.59791" lon="3.2013">
        <ele>1198.6</ele>
        <time>2022-08-03T11:53:23Z</time>
      </trkpt>
      <trkpt lat="44.59789" lon="3.20127">
        <ele>1198.7</ele>
        <time>2022-08-03T11:53:26Z</time>
      </trkpt>
      <trkpt lat="44.59789" lon="3.20125">
        <ele>1198.7</ele>
        <time>2022-08-03T11:53:27Z</time>
      </trkpt>
      <trkpt lat="44.59789" lon="3.20123">
        <ele>1198.6</ele>
        <time>2022-08-03T11:53:29Z</time>
      </trkpt>
      <trkpt lat="44.59789" lon="3.2012">
        <ele>1198.5</ele>
        <time>2022-08-03T11:53:31Z</time>
      </trkpt>
      <trkpt lat="44.59782" lon="3.20114">
        <ele>1199.4</ele>
        <time>2022-08-03T11:53:37Z</time>
      </trkpt>
      <trkpt lat="44.59781" lon="3.20113">
        <ele>1199.5</ele>
        <time>2022-08-03T11:53:38Z</time>
      </trkpt>
      <trkpt lat="44.59775" lon="3.20105">
        <ele>1200</ele>
        <time>2022-08-03T11:53:46Z</time>
      </trkpt>
      <trkpt lat="44.59773" lon="3.20103">
        <ele>1200.4</ele>
        <time>2022-08-03T11:53:48Z</time>
      </trkpt>
      <trkpt lat="44.59772" lon="3.20102">
        <ele>1200.5</ele>
        <time>2022-08-03T11:53:51Z</time>
      </trkpt>
      <trkpt lat="44.59767" lon="3.20099">
        <ele>1201.5</ele>
        <time>2022-08-03T11:53:56Z</time>
      </trkpt>
      <trkpt lat="44.59766" lon="3.20098">
        <ele>1201.6</ele>
        <time>2022-08-03T11:53:57Z</time>
      </trkpt>
      <trkpt lat="44.59765" lon="3.20097">
        <ele>1201.8</ele>
        <time>2022-08-03T11:53:58Z</time>
      </trkpt>
      <trkpt lat="44.59762" lon="3.20096">
        <ele>1202.3</ele>
        <time>2022-08-03T11:54:00Z</time>
      </trkpt>
      <trkpt lat="44.59761" lon="3.20094">
        <ele>1202.6</ele>
        <time>2022-08-03T11:54:03Z</time>
      </trkpt>
      <trkpt lat="44.5976" lon="3.20094">
        <ele>1202.8</ele>
        <time>2022-08-03T11:54:04Z</time>
      </trkpt>
      <trkpt lat="44.5976" lon="3.20094">
        <ele>1202.8</ele>
        <time>2022-08-03T11:54:05Z</time>
      </trkpt>
      <trkpt lat="44.59757" lon="3.20092">
        <ele>1203.3</ele>
        <time>2022-08-03T11:54:08Z</time>
      </trkpt>
      <trkpt lat="44.59756" lon="3.20091">
        <ele>1203.6</ele>
        <time>2022-08-03T11:54:09Z</time>
      </trkpt>
      <trkpt lat="44.59753" lon="3.20083">
        <ele>1204.2</ele>
        <time>2022-08-03T11:54:14Z</time>
      </trkpt>
      <trkpt lat="44.59753" lon="3.20077">
        <ele>1204</ele>
        <time>2022-08-03T11:54:17Z</time>
      </trkpt>
      <trkpt lat="44.59753" lon="3.20075">
        <ele>1204</ele>
        <time>2022-08-03T11:54:19Z</time>
      </trkpt>
      <trkpt lat="44.59752" lon="3.20073">
        <ele>1204.1</ele>
        <time>2022-08-03T11:54:21Z</time>
      </trkpt>
      <trkpt lat="44.59751" lon="3.2007">
        <ele>1204.4</ele>
        <time>2022-08-03T11:54:23Z</time>
      </trkpt>
      <trkpt lat="44.59748" lon="3.20064">
        <ele>1205.1</ele>
        <time>2022-08-03T11:54:28Z</time>
      </trkpt>
      <trkpt lat="44.59745" lon="3.20061">
        <ele>1205.9</ele>
        <time>2022-08-03T11:54:30Z</time>
      </trkpt>
      <trkpt lat="44.59745" lon="3.2006">
        <ele>1206.1</ele>
        <time>2022-08-03T11:54:31Z</time>
      </trkpt>
      <trkpt lat="44.59745" lon="3.20056">
        <ele>1205.8</ele>
        <time>2022-08-03T11:54:33Z</time>
      </trkpt>
      <trkpt lat="44.59745" lon="3.20046">
        <ele>1205.9</ele>
        <time>2022-08-03T11:54:39Z</time>
      </trkpt>
      <trkpt lat="44.59744" lon="3.20043">
        <ele>1206.1</ele>
        <time>2022-08-03T11:54:41Z</time>
      </trkpt>
      <trkpt lat="44.59743" lon="3.20037">
        <ele>1206.3</ele>
        <time>2022-08-03T11:54:46Z</time>
      </trkpt>
      <trkpt lat="44.59743" lon="3.20033">
        <ele>1206.3</ele>
        <time>2022-08-03T11:54:48Z</time>
      </trkpt>
      <trkpt lat="44.59741" lon="3.20023">
        <ele>1206.7</ele>
        <time>2022-08-03T11:54:53Z</time>
      </trkpt>
      <trkpt lat="44.5974" lon="3.20018">
        <ele>1207.1</ele>
        <time>2022-08-03T11:54:55Z</time>
      </trkpt>
      <trkpt lat="44.59738" lon="3.20017">
        <ele>1207.6</ele>
        <time>2022-08-03T11:54:56Z</time>
      </trkpt>
      <trkpt lat="44.59735" lon="3.20011">
        <ele>1208.7</ele>
        <time>2022-08-03T11:55:00Z</time>
      </trkpt>
      <trkpt lat="44.59734" lon="3.20009">
        <ele>1208.9</ele>
        <time>2022-08-03T11:55:01Z</time>
      </trkpt>
      <trkpt lat="44.59734" lon="3.20007">
        <ele>1208.9</ele>
        <time>2022-08-03T11:55:02Z</time>
      </trkpt>
      <trkpt lat="44.59734" lon="3.20005">
        <ele>1209</ele>
        <time>2022-08-03T11:55:04Z</time>
      </trkpt>
      <trkpt lat="44.59734" lon="3.20004">
        <ele>1209</ele>
        <time>2022-08-03T11:55:05Z</time>
      </trkpt>
      <trkpt lat="44.59734" lon="3.19994">
        <ele>1209</ele>
        <time>2022-08-03T11:55:12Z</time>
      </trkpt>
      <trkpt lat="44.59733" lon="3.19993">
        <ele>1209.3</ele>
        <time>2022-08-03T11:55:17Z</time>
      </trkpt>
      <trkpt lat="44.59733" lon="3.19991">
        <ele>1209.3</ele>
        <time>2022-08-03T11:55:25Z</time>
      </trkpt>
      <trkpt lat="44.59733" lon="3.1999">
        <ele>1209.4</ele>
        <time>2022-08-03T11:55:29Z</time>
      </trkpt>
      <trkpt lat="44.59734" lon="3.19986">
        <ele>1208.9</ele>
        <time>2022-08-03T11:55:33Z</time>
      </trkpt>
      <trkpt lat="44.59733" lon="3.19984">
        <ele>1209.4</ele>
        <time>2022-08-03T11:55:38Z</time>
      </trkpt>
      <trkpt lat="44.59734" lon="3.19983">
        <ele>1209.3</ele>
        <time>2022-08-03T11:55:43Z</time>
      </trkpt>
      <trkpt lat="44.59732" lon="3.1998">
        <ele>1209.8</ele>
        <time>2022-08-03T11:55:49Z</time>
      </trkpt>
      <trkpt lat="44.59731" lon="3.19974">
        <ele>1210.5</ele>
        <time>2022-08-03T11:55:54Z</time>
      </trkpt>
      <trkpt lat="44.5973" lon="3.19967">
        <ele>1211</ele>
        <time>2022-08-03T11:55:59Z</time>
      </trkpt>
      <trkpt lat="44.59729" lon="3.19963">
        <ele>1211.3</ele>
        <time>2022-08-03T11:56:05Z</time>
      </trkpt>
      <trkpt lat="44.59728" lon="3.19963">
        <ele>1211.7</ele>
        <time>2022-08-03T11:56:13Z</time>
      </trkpt>
      <trkpt lat="44.59726" lon="3.19962">
        <ele>1212.5</ele>
        <time>2022-08-03T11:56:21Z</time>
      </trkpt>
      <trkpt lat="44.59726" lon="3.19962">
        <ele>1212.7</ele>
        <time>2022-08-03T11:56:25Z</time>
      </trkpt>
      <trkpt lat="44.59726" lon="3.19961">
        <ele>1212.6</ele>
        <time>2022-08-03T11:56:27Z</time>
      </trkpt>
      <trkpt lat="44.59723" lon="3.19957">
        <ele>1213.6</ele>
        <time>2022-08-03T11:56:34Z</time>
      </trkpt>
      <trkpt lat="44.59723" lon="3.19953">
        <ele>1213.8</ele>
        <time>2022-08-03T11:56:39Z</time>
      </trkpt>
      <trkpt lat="44.59724" lon="3.19945">
        <ele>1213.3</ele>
        <time>2022-08-03T11:56:47Z</time>
      </trkpt>
      <trkpt lat="44.59724" lon="3.19942">
        <ele>1213.5</ele>
        <time>2022-08-03T11:56:52Z</time>
      </trkpt>
      <trkpt lat="44.59721" lon="3.19936">
        <ele>1214.9</ele>
        <time>2022-08-03T11:56:57Z</time>
      </trkpt>
      <trkpt lat="44.59717" lon="3.19927">
        <ele>1216.3</ele>
        <time>2022-08-03T11:57:02Z</time>
      </trkpt>
      <trkpt lat="44.59717" lon="3.19926">
        <ele>1216.3</ele>
        <time>2022-08-03T11:57:03Z</time>
      </trkpt>
      <trkpt lat="44.59715" lon="3.1992">
        <ele>1217</ele>
        <time>2022-08-03T11:57:08Z</time>
      </trkpt>
      <trkpt lat="44.59713" lon="3.19909">
        <ele>1218.1</ele>
        <time>2022-08-03T11:57:15Z</time>
      </trkpt>
      <trkpt lat="44.59714" lon="3.19909">
        <ele>1218</ele>
        <time>2022-08-03T11:57:16Z</time>
      </trkpt>
      <trkpt lat="44.59714" lon="3.19908">
        <ele>1218</ele>
        <time>2022-08-03T11:57:18Z</time>
      </trkpt>
      <trkpt lat="44.59716" lon="3.19906">
        <ele>1217.9</ele>
        <time>2022-08-03T11:57:22Z</time>
      </trkpt>
      <trkpt lat="44.59715" lon="3.19904">
        <ele>1218</ele>
        <time>2022-08-03T11:57:23Z</time>
      </trkpt>
      <trkpt lat="44.59717" lon="3.19899">
        <ele>1218.1</ele>
        <time>2022-08-03T11:57:28Z</time>
      </trkpt>
      <trkpt lat="44.59718" lon="3.19898">
        <ele>1218</ele>
        <time>2022-08-03T11:57:29Z</time>
      </trkpt>
      <trkpt lat="44.59719" lon="3.19896">
        <ele>1218</ele>
        <time>2022-08-03T11:57:31Z</time>
      </trkpt>
      <trkpt lat="44.59719" lon="3.19894">
        <ele>1218.2</ele>
        <time>2022-08-03T11:57:33Z</time>
      </trkpt>
      <trkpt lat="44.59719" lon="3.19888">
        <ele>1218.8</ele>
        <time>2022-08-03T11:57:37Z</time>
      </trkpt>
      <trkpt lat="44.59719" lon="3.19885">
        <ele>1219</ele>
        <time>2022-08-03T11:57:38Z</time>
      </trkpt>
      <trkpt lat="44.59721" lon="3.19883">
        <ele>1219.2</ele>
        <time>2022-08-03T11:57:40Z</time>
      </trkpt>
      <trkpt lat="44.59722" lon="3.19881">
        <ele>1219.3</ele>
        <time>2022-08-03T11:57:41Z</time>
      </trkpt>
      <trkpt lat="44.59722" lon="3.19874">
        <ele>1220.2</ele>
        <time>2022-08-03T11:57:44Z</time>
      </trkpt>
      <trkpt lat="44.59723" lon="3.19869">
        <ele>1220.6</ele>
        <time>2022-08-03T11:57:48Z</time>
      </trkpt>
      <trkpt lat="44.59725" lon="3.19865">
        <ele>1220.8</ele>
        <time>2022-08-03T11:57:50Z</time>
      </trkpt>
      <trkpt lat="44.59725" lon="3.19859">
        <ele>1221.6</ele>
        <time>2022-08-03T11:57:54Z</time>
      </trkpt>
      <trkpt lat="44.59726" lon="3.19858">
        <ele>1221.7</ele>
        <time>2022-08-03T11:57:55Z</time>
      </trkpt>
      <trkpt lat="44.59725" lon="3.19853">
        <ele>1222.7</ele>
        <time>2022-08-03T11:57:58Z</time>
      </trkpt>
      <trkpt lat="44.59726" lon="3.19849">
        <ele>1223.3</ele>
        <time>2022-08-03T11:58:00Z</time>
      </trkpt>
      <trkpt lat="44.59732" lon="3.19845">
        <ele>1222.8</ele>
        <time>2022-08-03T11:58:04Z</time>
      </trkpt>
      <trkpt lat="44.59734" lon="3.19844">
        <ele>1222.3</ele>
        <time>2022-08-03T11:58:06Z</time>
      </trkpt>
      <trkpt lat="44.59736" lon="3.1984">
        <ele>1222.8</ele>
        <time>2022-08-03T11:58:09Z</time>
      </trkpt>
      <trkpt lat="44.59738" lon="3.19837">
        <ele>1222.9</ele>
        <time>2022-08-03T11:58:12Z</time>
      </trkpt>
      <trkpt lat="44.59739" lon="3.19831">
        <ele>1223.7</ele>
        <time>2022-08-03T11:58:17Z</time>
      </trkpt>
      <trkpt lat="44.59739" lon="3.19829">
        <ele>1223.9</ele>
        <time>2022-08-03T11:58:18Z</time>
      </trkpt>
      <trkpt lat="44.5974" lon="3.19828">
        <ele>1224</ele>
        <time>2022-08-03T11:58:19Z</time>
      </trkpt>
      <trkpt lat="44.5974" lon="3.19827">
        <ele>1224.2</ele>
        <time>2022-08-03T11:58:20Z</time>
      </trkpt>
      <trkpt lat="44.5974" lon="3.19824">
        <ele>1224.5</ele>
        <time>2022-08-03T11:58:22Z</time>
      </trkpt>
      <trkpt lat="44.59741" lon="3.19822">
        <ele>1224.7</ele>
        <time>2022-08-03T11:58:24Z</time>
      </trkpt>
      <trkpt lat="44.59741" lon="3.19811">
        <ele>1226.2</ele>
        <time>2022-08-03T11:58:30Z</time>
      </trkpt>
      <trkpt lat="44.59742" lon="3.19803">
        <ele>1226.9</ele>
        <time>2022-08-03T11:58:35Z</time>
      </trkpt>
      <trkpt lat="44.59742" lon="3.19802">
        <ele>1227</ele>
        <time>2022-08-03T11:58:36Z</time>
      </trkpt>
      <trkpt lat="44.5974" lon="3.19795">
        <ele>1228.4</ele>
        <time>2022-08-03T11:58:42Z</time>
      </trkpt>
      <trkpt lat="44.59741" lon="3.19793">
        <ele>1228.3</ele>
        <time>2022-08-03T11:58:43Z</time>
      </trkpt>
      <trkpt lat="44.59741" lon="3.19792">
        <ele>1228.4</ele>
        <time>2022-08-03T11:58:44Z</time>
      </trkpt>
      <trkpt lat="44.59741" lon="3.19791">
        <ele>1228.6</ele>
        <time>2022-08-03T11:58:45Z</time>
      </trkpt>
      <trkpt lat="44.59741" lon="3.19789">
        <ele>1228.7</ele>
        <time>2022-08-03T11:58:47Z</time>
      </trkpt>
      <trkpt lat="44.59741" lon="3.19788">
        <ele>1228.8</ele>
        <time>2022-08-03T11:58:48Z</time>
      </trkpt>
      <trkpt lat="44.59741" lon="3.19785">
        <ele>1229.2</ele>
        <time>2022-08-03T11:58:50Z</time>
      </trkpt>
      <trkpt lat="44.59742" lon="3.19783">
        <ele>1229.3</ele>
        <time>2022-08-03T11:58:52Z</time>
      </trkpt>
      <trkpt lat="44.59742" lon="3.19781">
        <ele>1229.5</ele>
        <time>2022-08-03T11:58:54Z</time>
      </trkpt>
      <trkpt lat="44.59742" lon="3.1978">
        <ele>1229.6</ele>
        <time>2022-08-03T11:58:56Z</time>
      </trkpt>
      <trkpt lat="44.59742" lon="3.19779">
        <ele>1229.6</ele>
        <time>2022-08-03T11:58:57Z</time>
      </trkpt>
      <trkpt lat="44.59743" lon="3.19777">
        <ele>1229.5</ele>
        <time>2022-08-03T11:58:58Z</time>
      </trkpt>
      <trkpt lat="44.59742" lon="3.19771">
        <ele>1230.5</ele>
        <time>2022-08-03T11:59:04Z</time>
      </trkpt>
      <trkpt lat="44.59742" lon="3.1977">
        <ele>1230.7</ele>
        <time>2022-08-03T11:59:05Z</time>
      </trkpt>
      <trkpt lat="44.59739" lon="3.19763">
        <ele>1232</ele>
        <time>2022-08-03T11:59:12Z</time>
      </trkpt>
      <trkpt lat="44.59736" lon="3.19757">
        <ele>1233.2</ele>
        <time>2022-08-03T11:59:17Z</time>
      </trkpt>
      <trkpt lat="44.59735" lon="3.19756">
        <ele>1233.5</ele>
        <time>2022-08-03T11:59:18Z</time>
      </trkpt>
      <trkpt lat="44.59735" lon="3.19753">
        <ele>1234</ele>
        <time>2022-08-03T11:59:20Z</time>
      </trkpt>
      <trkpt lat="44.59733" lon="3.19748">
        <ele>1234.8</ele>
        <time>2022-08-03T11:59:25Z</time>
      </trkpt>
      <trkpt lat="44.59731" lon="3.19743">
        <ele>1235.6</ele>
        <time>2022-08-03T11:59:29Z</time>
      </trkpt>
      <trkpt lat="44.5973" lon="3.1974">
        <ele>1235.9</ele>
        <time>2022-08-03T11:59:32Z</time>
      </trkpt>
      <trkpt lat="44.5973" lon="3.19738">
        <ele>1236.2</ele>
        <time>2022-08-03T11:59:35Z</time>
      </trkpt>
      <trkpt lat="44.59729" lon="3.19736">
        <ele>1236.6</ele>
        <time>2022-08-03T11:59:37Z</time>
      </trkpt>
      <trkpt lat="44.59727" lon="3.19732">
        <ele>1237.2</ele>
        <time>2022-08-03T11:59:39Z</time>
      </trkpt>
      <trkpt lat="44.59727" lon="3.19731">
        <ele>1237.3</ele>
        <time>2022-08-03T11:59:40Z</time>
      </trkpt>
      <trkpt lat="44.59725" lon="3.19726">
        <ele>1238</ele>
        <time>2022-08-03T11:59:43Z</time>
      </trkpt>
      <trkpt lat="44.59724" lon="3.19725">
        <ele>1238.4</ele>
        <time>2022-08-03T11:59:45Z</time>
      </trkpt>
      <trkpt lat="44.59723" lon="3.19724">
        <ele>1238.6</ele>
        <time>2022-08-03T11:59:46Z</time>
      </trkpt>
      <trkpt lat="44.59722" lon="3.19723">
        <ele>1238.9</ele>
        <time>2022-08-03T11:59:47Z</time>
      </trkpt>
      <trkpt lat="44.59721" lon="3.19721">
        <ele>1239.2</ele>
        <time>2022-08-03T11:59:49Z</time>
      </trkpt>
      <trkpt lat="44.59719" lon="3.19718">
        <ele>1239.6</ele>
        <time>2022-08-03T11:59:52Z</time>
      </trkpt>
      <trkpt lat="44.59718" lon="3.19716">
        <ele>1239.8</ele>
        <time>2022-08-03T11:59:54Z</time>
      </trkpt>
      <trkpt lat="44.59716" lon="3.19714">
        <ele>1240.1</ele>
        <time>2022-08-03T11:59:56Z</time>
      </trkpt>
      <trkpt lat="44.59713" lon="3.19709">
        <ele>1240.5</ele>
        <time>2022-08-03T12:00:00Z</time>
      </trkpt>
      <trkpt lat="44.59712" lon="3.19707">
        <ele>1240.6</ele>
        <time>2022-08-03T12:00:01Z</time>
      </trkpt>
      <trkpt lat="44.59709" lon="3.19706">
        <ele>1241</ele>
        <time>2022-08-03T12:00:04Z</time>
      </trkpt>
      <trkpt lat="44.59708" lon="3.19703">
        <ele>1241.2</ele>
        <time>2022-08-03T12:00:06Z</time>
      </trkpt>
      <trkpt lat="44.59704" lon="3.19693">
        <ele>1241.5</ele>
        <time>2022-08-03T12:00:13Z</time>
      </trkpt>
      <trkpt lat="44.59703" lon="3.19692">
        <ele>1241.5</ele>
        <time>2022-08-03T12:00:14Z</time>
      </trkpt>
      <trkpt lat="44.59699" lon="3.19686">
        <ele>1241.7</ele>
        <time>2022-08-03T12:00:21Z</time>
      </trkpt>
      <trkpt lat="44.59697" lon="3.19684">
        <ele>1241.9</ele>
        <time>2022-08-03T12:00:22Z</time>
      </trkpt>
      <trkpt lat="44.59692" lon="3.1968">
        <ele>1242.4</ele>
        <time>2022-08-03T12:00:27Z</time>
      </trkpt>
      <trkpt lat="44.59691" lon="3.19679">
        <ele>1242.5</ele>
        <time>2022-08-03T12:00:28Z</time>
      </trkpt>
      <trkpt lat="44.59682" lon="3.19672">
        <ele>1243.5</ele>
        <time>2022-08-03T12:00:37Z</time>
      </trkpt>
      <trkpt lat="44.59681" lon="3.19672">
        <ele>1243.6</ele>
        <time>2022-08-03T12:00:38Z</time>
      </trkpt>
      <trkpt lat="44.59675" lon="3.19667">
        <ele>1243.9</ele>
        <time>2022-08-03T12:00:45Z</time>
      </trkpt>
      <trkpt lat="44.59665" lon="3.19662">
        <ele>1244.6</ele>
        <time>2022-08-03T12:00:53Z</time>
      </trkpt>
      <trkpt lat="44.59659" lon="3.19657">
        <ele>1244.7</ele>
        <time>2022-08-03T12:00:59Z</time>
      </trkpt>
      <trkpt lat="44.59656" lon="3.19655">
        <ele>1244.7</ele>
        <time>2022-08-03T12:01:01Z</time>
      </trkpt>
      <trkpt lat="44.59653" lon="3.19654">
        <ele>1244.8</ele>
        <time>2022-08-03T12:01:05Z</time>
      </trkpt>
      <trkpt lat="44.59653" lon="3.19653">
        <ele>1244.7</ele>
        <time>2022-08-03T12:01:07Z</time>
      </trkpt>
      <trkpt lat="44.59653" lon="3.19652">
        <ele>1244.6</ele>
        <time>2022-08-03T12:01:08Z</time>
      </trkpt>
      <trkpt lat="44.59653" lon="3.19651">
        <ele>1244.5</ele>
        <time>2022-08-03T12:01:12Z</time>
      </trkpt>
      <trkpt lat="44.59653" lon="3.1965">
        <ele>1244.5</ele>
        <time>2022-08-03T12:01:14Z</time>
      </trkpt>
      <trkpt lat="44.59652" lon="3.19651">
        <ele>1244.6</ele>
        <time>2022-08-03T12:01:16Z</time>
      </trkpt>
      <trkpt lat="44.59655" lon="3.19648">
        <ele>1243.9</ele>
        <time>2022-08-03T12:01:23Z</time>
      </trkpt>
      <trkpt lat="44.59653" lon="3.19647">
        <ele>1244</ele>
        <time>2022-08-03T12:01:38Z</time>
      </trkpt>
      <trkpt lat="44.59648" lon="3.1965">
        <ele>1244.7</ele>
        <time>2022-08-03T12:02:08Z</time>
      </trkpt>
      <trkpt lat="44.59638" lon="3.19657">
        <ele>1246.7</ele>
        <time>2022-08-03T12:02:16Z</time>
      </trkpt>
      <trkpt lat="44.59628" lon="3.19658">
        <ele>1246.6</ele>
        <time>2022-08-03T12:02:25Z</time>
      </trkpt>
      <trkpt lat="44.59616" lon="3.19652">
        <ele>1245.9</ele>
        <time>2022-08-03T12:02:35Z</time>
      </trkpt>
      <trkpt lat="44.59608" lon="3.19642">
        <ele>1245.3</ele>
        <time>2022-08-03T12:02:43Z</time>
      </trkpt>
      <trkpt lat="44.59599" lon="3.19628">
        <ele>1245.6</ele>
        <time>2022-08-03T12:02:53Z</time>
      </trkpt>
      <trkpt lat="44.59596" lon="3.19624">
        <ele>1245.8</ele>
        <time>2022-08-03T12:02:57Z</time>
      </trkpt>
      <trkpt lat="44.59593" lon="3.19621">
        <ele>1246.1</ele>
        <time>2022-08-03T12:03:00Z</time>
      </trkpt>
      <trkpt lat="44.59586" lon="3.19614">
        <ele>1246.7</ele>
        <time>2022-08-03T12:03:07Z</time>
      </trkpt>
      <trkpt lat="44.59585" lon="3.19613">
        <ele>1246.8</ele>
        <time>2022-08-03T12:03:08Z</time>
      </trkpt>
      <trkpt lat="44.59583" lon="3.19611">
        <ele>1247</ele>
        <time>2022-08-03T12:03:10Z</time>
      </trkpt>
      <trkpt lat="44.59579" lon="3.19606">
        <ele>1247.4</ele>
        <time>2022-08-03T12:03:14Z</time>
      </trkpt>
      <trkpt lat="44.59575" lon="3.19602">
        <ele>1247.7</ele>
        <time>2022-08-03T12:03:18Z</time>
      </trkpt>
      <trkpt lat="44.59571" lon="3.19599">
        <ele>1248.1</ele>
        <time>2022-08-03T12:03:22Z</time>
      </trkpt>
      <trkpt lat="44.59567" lon="3.19594">
        <ele>1248.6</ele>
        <time>2022-08-03T12:03:27Z</time>
      </trkpt>
      <trkpt lat="44.59563" lon="3.19592">
        <ele>1248.9</ele>
        <time>2022-08-03T12:03:30Z</time>
      </trkpt>
      <trkpt lat="44.59554" lon="3.19584">
        <ele>1250</ele>
        <time>2022-08-03T12:03:40Z</time>
      </trkpt>
      <trkpt lat="44.59552" lon="3.19582">
        <ele>1250.3</ele>
        <time>2022-08-03T12:03:42Z</time>
      </trkpt>
      <trkpt lat="44.59551" lon="3.1958">
        <ele>1250.6</ele>
        <time>2022-08-03T12:03:44Z</time>
      </trkpt>
      <trkpt lat="44.59549" lon="3.19574">
        <ele>1251.5</ele>
        <time>2022-08-03T12:03:49Z</time>
      </trkpt>
      <trkpt lat="44.59549" lon="3.19573">
        <ele>1251.6</ele>
        <time>2022-08-03T12:03:50Z</time>
      </trkpt>
      <trkpt lat="44.59546" lon="3.19567">
        <ele>1252.5</ele>
        <time>2022-08-03T12:03:57Z</time>
      </trkpt>
      <trkpt lat="44.59546" lon="3.19567">
        <ele>1252.4</ele>
        <time>2022-08-03T12:03:58Z</time>
      </trkpt>
      <trkpt lat="44.59546" lon="3.19568">
        <ele>1252.4</ele>
        <time>2022-08-03T12:03:59Z</time>
      </trkpt>
      <trkpt lat="44.59544" lon="3.19569">
        <ele>1252.3</ele>
        <time>2022-08-03T12:04:05Z</time>
      </trkpt>
      <trkpt lat="44.59542" lon="3.19567">
        <ele>1252.5</ele>
        <time>2022-08-03T12:04:11Z</time>
      </trkpt>
      <trkpt lat="44.59542" lon="3.19567">
        <ele>1252.5</ele>
        <time>2022-08-03T12:04:19Z</time>
      </trkpt>
      <trkpt lat="44.59541" lon="3.19565">
        <ele>1252.8</ele>
        <time>2022-08-03T12:04:32Z</time>
      </trkpt>
      <trkpt lat="44.59532" lon="3.19557">
        <ele>1253.8</ele>
        <time>2022-08-03T12:04:39Z</time>
      </trkpt>
      <trkpt lat="44.59527" lon="3.1955">
        <ele>1254.6</ele>
        <time>2022-08-03T12:04:45Z</time>
      </trkpt>
      <trkpt lat="44.59521" lon="3.19543">
        <ele>1255.3</ele>
        <time>2022-08-03T12:04:51Z</time>
      </trkpt>
      <trkpt lat="44.59511" lon="3.19534">
        <ele>1255.9</ele>
        <time>2022-08-03T12:05:01Z</time>
      </trkpt>
      <trkpt lat="44.59502" lon="3.19522">
        <ele>1256.4</ele>
        <time>2022-08-03T12:05:10Z</time>
      </trkpt>
      <trkpt lat="44.59499" lon="3.19519">
        <ele>1256.6</ele>
        <time>2022-08-03T12:05:13Z</time>
      </trkpt>
      <trkpt lat="44.59492" lon="3.19513">
        <ele>1257.1</ele>
        <time>2022-08-03T12:05:19Z</time>
      </trkpt>
      <trkpt lat="44.59485" lon="3.19504">
        <ele>1257.7</ele>
        <time>2022-08-03T12:05:27Z</time>
      </trkpt>
      <trkpt lat="44.59482" lon="3.195">
        <ele>1258</ele>
        <time>2022-08-03T12:05:30Z</time>
      </trkpt>
      <trkpt lat="44.59477" lon="3.19495">
        <ele>1258.2</ele>
        <time>2022-08-03T12:05:36Z</time>
      </trkpt>
      <trkpt lat="44.59473" lon="3.19491">
        <ele>1258.3</ele>
        <time>2022-08-03T12:05:40Z</time>
      </trkpt>
      <trkpt lat="44.59466" lon="3.19484">
        <ele>1258.6</ele>
        <time>2022-08-03T12:05:48Z</time>
      </trkpt>
      <trkpt lat="44.5946" lon="3.19477">
        <ele>1258.8</ele>
        <time>2022-08-03T12:05:54Z</time>
      </trkpt>
      <trkpt lat="44.59457" lon="3.19473">
        <ele>1259</ele>
        <time>2022-08-03T12:05:58Z</time>
      </trkpt>
      <trkpt lat="44.59448" lon="3.19463">
        <ele>1259.6</ele>
        <time>2022-08-03T12:06:07Z</time>
      </trkpt>
      <trkpt lat="44.59443" lon="3.19459">
        <ele>1260</ele>
        <time>2022-08-03T12:06:12Z</time>
      </trkpt>
      <trkpt lat="44.59438" lon="3.19454">
        <ele>1260.4</ele>
        <time>2022-08-03T12:06:17Z</time>
      </trkpt>
      <trkpt lat="44.59428" lon="3.19444">
        <ele>1261</ele>
        <time>2022-08-03T12:06:28Z</time>
      </trkpt>
      <trkpt lat="44.59423" lon="3.19438">
        <ele>1261.4</ele>
        <time>2022-08-03T12:06:34Z</time>
      </trkpt>
      <trkpt lat="44.5942" lon="3.19435">
        <ele>1261.7</ele>
        <time>2022-08-03T12:06:39Z</time>
      </trkpt>
      <trkpt lat="44.5942" lon="3.19435">
        <ele>1261.7</ele>
        <time>2022-08-03T12:06:40Z</time>
      </trkpt>
      <trkpt lat="44.59419" lon="3.19435">
        <ele>1261.7</ele>
        <time>2022-08-03T12:06:54Z</time>
      </trkpt>
      <trkpt lat="44.59419" lon="3.19435">
        <ele>1261.7</ele>
        <time>2022-08-03T12:06:55Z</time>
      </trkpt>
      <trkpt lat="44.59419" lon="3.19435">
        <ele>1261.7</ele>
        <time>2022-08-03T12:06:59Z</time>
      </trkpt>
      <trkpt lat="44.59415" lon="3.1943">
        <ele>1262</ele>
        <time>2022-08-03T12:07:12Z</time>
      </trkpt>
      <trkpt lat="44.59405" lon="3.19419">
        <ele>1262.5</ele>
        <time>2022-08-03T12:07:20Z</time>
      </trkpt>
      <trkpt lat="44.59404" lon="3.19418">
        <ele>1262.5</ele>
        <time>2022-08-03T12:07:21Z</time>
      </trkpt>
      <trkpt lat="44.59398" lon="3.19412">
        <ele>1262.4</ele>
        <time>2022-08-03T12:07:27Z</time>
      </trkpt>
      <trkpt lat="44.59395" lon="3.19408">
        <ele>1262.5</ele>
        <time>2022-08-03T12:07:30Z</time>
      </trkpt>
      <trkpt lat="44.59389" lon="3.19401">
        <ele>1262.6</ele>
        <time>2022-08-03T12:07:37Z</time>
      </trkpt>
      <trkpt lat="44.59386" lon="3.19395">
        <ele>1262.9</ele>
        <time>2022-08-03T12:07:41Z</time>
      </trkpt>
      <trkpt lat="44.59382" lon="3.19387">
        <ele>1263.2</ele>
        <time>2022-08-03T12:07:47Z</time>
      </trkpt>
      <trkpt lat="44.59381" lon="3.19384">
        <ele>1263.1</ele>
        <time>2022-08-03T12:07:49Z</time>
      </trkpt>
      <trkpt lat="44.5938" lon="3.19382">
        <ele>1263.1</ele>
        <time>2022-08-03T12:07:53Z</time>
      </trkpt>
      <trkpt lat="44.5938" lon="3.19382">
        <ele>1263.1</ele>
        <time>2022-08-03T12:07:55Z</time>
      </trkpt>
      <trkpt lat="44.5938" lon="3.19381">
        <ele>1263</ele>
        <time>2022-08-03T12:08:08Z</time>
      </trkpt>
      <trkpt lat="44.59375" lon="3.19363">
        <ele>1262.6</ele>
        <time>2022-08-03T12:08:17Z</time>
      </trkpt>
      <trkpt lat="44.59373" lon="3.19357">
        <ele>1262.5</ele>
        <time>2022-08-03T12:08:20Z</time>
      </trkpt>
      <trkpt lat="44.59368" lon="3.19343">
        <ele>1262.3</ele>
        <time>2022-08-03T12:08:28Z</time>
      </trkpt>
      <trkpt lat="44.59366" lon="3.19338">
        <ele>1262.1</ele>
        <time>2022-08-03T12:08:31Z</time>
      </trkpt>
      <trkpt lat="44.59366" lon="3.19322">
        <ele>1261.6</ele>
        <time>2022-08-03T12:08:39Z</time>
      </trkpt>
      <trkpt lat="44.59368" lon="3.19308">
        <ele>1261.1</ele>
        <time>2022-08-03T12:08:47Z</time>
      </trkpt>
      <trkpt lat="44.59368" lon="3.19304">
        <ele>1260.9</ele>
        <time>2022-08-03T12:08:49Z</time>
      </trkpt>
      <trkpt lat="44.5937" lon="3.19288">
        <ele>1260.2</ele>
        <time>2022-08-03T12:08:59Z</time>
      </trkpt>
      <trkpt lat="44.59369" lon="3.19277">
        <ele>1259.7</ele>
        <time>2022-08-03T12:09:06Z</time>
      </trkpt>
      <trkpt lat="44.59369" lon="3.19269">
        <ele>1259.4</ele>
        <time>2022-08-03T12:09:11Z</time>
      </trkpt>
      <trkpt lat="44.59369" lon="3.19257">
        <ele>1259</ele>
        <time>2022-08-03T12:09:18Z</time>
      </trkpt>
      <trkpt lat="44.59369" lon="3.19254">
        <ele>1258.9</ele>
        <time>2022-08-03T12:09:20Z</time>
      </trkpt>
      <trkpt lat="44.59371" lon="3.19235">
        <ele>1258.1</ele>
        <time>2022-08-03T12:09:32Z</time>
      </trkpt>
      <trkpt lat="44.59371" lon="3.19222">
        <ele>1257.6</ele>
        <time>2022-08-03T12:09:40Z</time>
      </trkpt>
      <trkpt lat="44.59371" lon="3.19214">
        <ele>1257.3</ele>
        <time>2022-08-03T12:09:45Z</time>
      </trkpt>
      <trkpt lat="44.5937" lon="3.19202">
        <ele>1256.9</ele>
        <time>2022-08-03T12:09:52Z</time>
      </trkpt>
      <trkpt lat="44.59373" lon="3.19186">
        <ele>1256.2</ele>
        <time>2022-08-03T12:10:01Z</time>
      </trkpt>
      <trkpt lat="44.59373" lon="3.19175">
        <ele>1255.6</ele>
        <time>2022-08-03T12:10:09Z</time>
      </trkpt>
      <trkpt lat="44.59373" lon="3.19173">
        <ele>1255.5</ele>
        <time>2022-08-03T12:10:10Z</time>
      </trkpt>
      <trkpt lat="44.59374" lon="3.1916">
        <ele>1254.7</ele>
        <time>2022-08-03T12:10:18Z</time>
      </trkpt>
      <trkpt lat="44.59374" lon="3.19154">
        <ele>1254.4</ele>
        <time>2022-08-03T12:10:22Z</time>
      </trkpt>
      <trkpt lat="44.59376" lon="3.1914">
        <ele>1253.5</ele>
        <time>2022-08-03T12:10:31Z</time>
      </trkpt>
      <trkpt lat="44.59376" lon="3.1914">
        <ele>1253.5</ele>
        <time>2022-08-03T12:10:32Z</time>
      </trkpt>
      <trkpt lat="44.59377" lon="3.19126">
        <ele>1252.7</ele>
        <time>2022-08-03T12:10:40Z</time>
      </trkpt>
      <trkpt lat="44.59375" lon="3.19111">
        <ele>1252</ele>
        <time>2022-08-03T12:10:49Z</time>
      </trkpt>
      <trkpt lat="44.59375" lon="3.19108">
        <ele>1251.9</ele>
        <time>2022-08-03T12:10:51Z</time>
      </trkpt>
      <trkpt lat="44.59372" lon="3.19094">
        <ele>1251.6</ele>
        <time>2022-08-03T12:10:59Z</time>
      </trkpt>
      <trkpt lat="44.59368" lon="3.1907">
        <ele>1250.7</ele>
        <time>2022-08-03T12:11:14Z</time>
      </trkpt>
      <trkpt lat="44.59366" lon="3.19053">
        <ele>1249.8</ele>
        <time>2022-08-03T12:11:24Z</time>
      </trkpt>
      <trkpt lat="44.59368" lon="3.19034">
        <ele>1249.8</ele>
        <time>2022-08-03T12:11:35Z</time>
      </trkpt>
      <trkpt lat="44.59368" lon="3.19027">
        <ele>1249.7</ele>
        <time>2022-08-03T12:11:39Z</time>
      </trkpt>
      <trkpt lat="44.59367" lon="3.1901">
        <ele>1249.1</ele>
        <time>2022-08-03T12:11:49Z</time>
      </trkpt>
      <trkpt lat="44.59367" lon="3.18994">
        <ele>1248.6</ele>
        <time>2022-08-03T12:11:59Z</time>
      </trkpt>
      <trkpt lat="44.59367" lon="3.18994">
        <ele>1248.6</ele>
        <time>2022-08-03T12:12:00Z</time>
      </trkpt>
      <trkpt lat="44.59367" lon="3.18993">
        <ele>1248.5</ele>
        <time>2022-08-03T12:12:04Z</time>
      </trkpt>
      <trkpt lat="44.59366" lon="3.18993">
        <ele>1248.6</ele>
        <time>2022-08-03T12:12:08Z</time>
      </trkpt>
      <trkpt lat="44.59366" lon="3.18993">
        <ele>1248.6</ele>
        <time>2022-08-03T12:12:09Z</time>
      </trkpt>
      <trkpt lat="44.59365" lon="3.1899">
        <ele>1248.5</ele>
        <time>2022-08-03T12:12:13Z</time>
      </trkpt>
      <trkpt lat="44.59366" lon="3.18985">
        <ele>1248.3</ele>
        <time>2022-08-03T12:12:19Z</time>
      </trkpt>
      <trkpt lat="44.59365" lon="3.18982">
        <ele>1248.2</ele>
        <time>2022-08-03T12:12:26Z</time>
      </trkpt>
      <trkpt lat="44.59365" lon="3.18976">
        <ele>1248</ele>
        <time>2022-08-03T12:12:29Z</time>
      </trkpt>
      <trkpt lat="44.59359" lon="3.18958">
        <ele>1247</ele>
        <time>2022-08-03T12:12:39Z</time>
      </trkpt>
      <trkpt lat="44.59359" lon="3.18956">
        <ele>1246.9</ele>
        <time>2022-08-03T12:12:40Z</time>
      </trkpt>
      <trkpt lat="44.59356" lon="3.18945">
        <ele>1246.1</ele>
        <time>2022-08-03T12:12:47Z</time>
      </trkpt>
      <trkpt lat="44.59355" lon="3.18939">
        <ele>1245.8</ele>
        <time>2022-08-03T12:12:51Z</time>
      </trkpt>
      <trkpt lat="44.59355" lon="3.18937">
        <ele>1245.7</ele>
        <time>2022-08-03T12:12:52Z</time>
      </trkpt>
      <trkpt lat="44.59353" lon="3.18933">
        <ele>1245.5</ele>
        <time>2022-08-03T12:12:55Z</time>
      </trkpt>
      <trkpt lat="44.59352" lon="3.18926">
        <ele>1245.1</ele>
        <time>2022-08-03T12:12:59Z</time>
      </trkpt>
      <trkpt lat="44.59345" lon="3.18912">
        <ele>1244.4</ele>
        <time>2022-08-03T12:13:09Z</time>
      </trkpt>
      <trkpt lat="44.59343" lon="3.18908">
        <ele>1244.4</ele>
        <time>2022-08-03T12:13:12Z</time>
      </trkpt>
      <trkpt lat="44.59336" lon="3.18899">
        <ele>1244.1</ele>
        <time>2022-08-03T12:13:20Z</time>
      </trkpt>
      <trkpt lat="44.59327" lon="3.1889">
        <ele>1244</ele>
        <time>2022-08-03T12:13:29Z</time>
      </trkpt>
      <trkpt lat="44.59318" lon="3.18877">
        <ele>1244</ele>
        <time>2022-08-03T12:13:40Z</time>
      </trkpt>
      <trkpt lat="44.59317" lon="3.18877">
        <ele>1244</ele>
        <time>2022-08-03T12:13:41Z</time>
      </trkpt>
      <trkpt lat="44.59307" lon="3.18863">
        <ele>1244</ele>
        <time>2022-08-03T12:13:54Z</time>
      </trkpt>
      <trkpt lat="44.59306" lon="3.1886">
        <ele>1244</ele>
        <time>2022-08-03T12:13:57Z</time>
      </trkpt>
      <trkpt lat="44.59301" lon="3.18857">
        <ele>1243.9</ele>
        <time>2022-08-03T12:14:02Z</time>
      </trkpt>
      <trkpt lat="44.59293" lon="3.18851">
        <ele>1243.7</ele>
        <time>2022-08-03T12:14:10Z</time>
      </trkpt>
      <trkpt lat="44.59284" lon="3.18839">
        <ele>1243.8</ele>
        <time>2022-08-03T12:14:21Z</time>
      </trkpt>
      <trkpt lat="44.59283" lon="3.18838">
        <ele>1243.9</ele>
        <time>2022-08-03T12:14:23Z</time>
      </trkpt>
      <trkpt lat="44.59282" lon="3.18838">
        <ele>1243.9</ele>
        <time>2022-08-03T12:14:25Z</time>
      </trkpt>
      <trkpt lat="44.59282" lon="3.18837">
        <ele>1243.9</ele>
        <time>2022-08-03T12:14:26Z</time>
      </trkpt>
      <trkpt lat="44.59281" lon="3.18836">
        <ele>1243.9</ele>
        <time>2022-08-03T12:14:27Z</time>
      </trkpt>
      <trkpt lat="44.59272" lon="3.18825">
        <ele>1244.1</ele>
        <time>2022-08-03T12:14:37Z</time>
      </trkpt>
      <trkpt lat="44.59261" lon="3.18811">
        <ele>1244.5</ele>
        <time>2022-08-03T12:14:49Z</time>
      </trkpt>
      <trkpt lat="44.59254" lon="3.18798">
        <ele>1245.1</ele>
        <time>2022-08-03T12:14:59Z</time>
      </trkpt>
      <trkpt lat="44.59244" lon="3.18786">
        <ele>1245.7</ele>
        <time>2022-08-03T12:15:10Z</time>
      </trkpt>
      <trkpt lat="44.59239" lon="3.1878">
        <ele>1245.9</ele>
        <time>2022-08-03T12:15:15Z</time>
      </trkpt>
      <trkpt lat="44.59238" lon="3.18779">
        <ele>1246</ele>
        <time>2022-08-03T12:15:16Z</time>
      </trkpt>
      <trkpt lat="44.59235" lon="3.18774">
        <ele>1246.2</ele>
        <time>2022-08-03T12:15:20Z</time>
      </trkpt>
      <trkpt lat="44.59229" lon="3.18764">
        <ele>1246.9</ele>
        <time>2022-08-03T12:15:28Z</time>
      </trkpt>
      <trkpt lat="44.59228" lon="3.18763">
        <ele>1247</ele>
        <time>2022-08-03T12:15:29Z</time>
      </trkpt>
      <trkpt lat="44.59226" lon="3.18758">
        <ele>1247.3</ele>
        <time>2022-08-03T12:15:35Z</time>
      </trkpt>
      <trkpt lat="44.59226" lon="3.18758">
        <ele>1247.3</ele>
        <time>2022-08-03T12:15:36Z</time>
      </trkpt>
      <trkpt lat="44.59227" lon="3.18758">
        <ele>1247.3</ele>
        <time>2022-08-03T12:15:46Z</time>
      </trkpt>
      <trkpt lat="44.59226" lon="3.18757">
        <ele>1247.4</ele>
        <time>2022-08-03T12:16:15Z</time>
      </trkpt>
      <trkpt lat="44.59226" lon="3.18757">
        <ele>1247.4</ele>
        <time>2022-08-03T12:16:16Z</time>
      </trkpt>
      <trkpt lat="44.59225" lon="3.18757">
        <ele>1247.4</ele>
        <time>2022-08-03T12:16:28Z</time>
      </trkpt>
      <trkpt lat="44.59219" lon="3.18753">
        <ele>1247.9</ele>
        <time>2022-08-03T12:16:33Z</time>
      </trkpt>
      <trkpt lat="44.59216" lon="3.18749">
        <ele>1248.3</ele>
        <time>2022-08-03T12:16:36Z</time>
      </trkpt>
      <trkpt lat="44.59214" lon="3.18744">
        <ele>1248.9</ele>
        <time>2022-08-03T12:16:40Z</time>
      </trkpt>
      <trkpt lat="44.59209" lon="3.18737">
        <ele>1249.8</ele>
        <time>2022-08-03T12:16:46Z</time>
      </trkpt>
      <trkpt lat="44.59208" lon="3.18737">
        <ele>1250</ele>
        <time>2022-08-03T12:16:47Z</time>
      </trkpt>
      <trkpt lat="44.59197" lon="3.18724">
        <ele>1251.7</ele>
        <time>2022-08-03T12:16:58Z</time>
      </trkpt>
      <trkpt lat="44.59191" lon="3.18716">
        <ele>1252.5</ele>
        <time>2022-08-03T12:17:05Z</time>
      </trkpt>
      <trkpt lat="44.59189" lon="3.18714">
        <ele>1252.6</ele>
        <time>2022-08-03T12:17:07Z</time>
      </trkpt>
      <trkpt lat="44.59188" lon="3.18712">
        <ele>1252.8</ele>
        <time>2022-08-03T12:17:09Z</time>
      </trkpt>
      <trkpt lat="44.59181" lon="3.18704">
        <ele>1253.3</ele>
        <time>2022-08-03T12:17:16Z</time>
      </trkpt>
      <trkpt lat="44.59173" lon="3.18695">
        <ele>1254</ele>
        <time>2022-08-03T12:17:25Z</time>
      </trkpt>
      <trkpt lat="44.59165" lon="3.18686">
        <ele>1254.7</ele>
        <time>2022-08-03T12:17:33Z</time>
      </trkpt>
      <trkpt lat="44.59163" lon="3.18683">
        <ele>1254.8</ele>
        <time>2022-08-03T12:17:35Z</time>
      </trkpt>
      <trkpt lat="44.59155" lon="3.18672">
        <ele>1255.3</ele>
        <time>2022-08-03T12:17:44Z</time>
      </trkpt>
      <trkpt lat="44.59154" lon="3.1867">
        <ele>1255.4</ele>
        <time>2022-08-03T12:17:46Z</time>
      </trkpt>
      <trkpt lat="44.59145" lon="3.18657">
        <ele>1255.4</ele>
        <time>2022-08-03T12:17:56Z</time>
      </trkpt>
      <trkpt lat="44.59143" lon="3.18653">
        <ele>1255.3</ele>
        <time>2022-08-03T12:18:00Z</time>
      </trkpt>
      <trkpt lat="44.59143" lon="3.18652">
        <ele>1255.3</ele>
        <time>2022-08-03T12:18:02Z</time>
      </trkpt>
      <trkpt lat="44.59143" lon="3.18652">
        <ele>1255.3</ele>
        <time>2022-08-03T12:18:03Z</time>
      </trkpt>
      <trkpt lat="44.5914" lon="3.18649">
        <ele>1255.1</ele>
        <time>2022-08-03T12:18:19Z</time>
      </trkpt>
      <trkpt lat="44.59135" lon="3.18643">
        <ele>1254.7</ele>
        <time>2022-08-03T12:18:26Z</time>
      </trkpt>
      <trkpt lat="44.5913" lon="3.18636">
        <ele>1254.5</ele>
        <time>2022-08-03T12:18:31Z</time>
      </trkpt>
      <trkpt lat="44.59126" lon="3.18629">
        <ele>1254.3</ele>
        <time>2022-08-03T12:18:36Z</time>
      </trkpt>
      <trkpt lat="44.59116" lon="3.18611">
        <ele>1253.5</ele>
        <time>2022-08-03T12:18:48Z</time>
      </trkpt>
      <trkpt lat="44.59108" lon="3.18599">
        <ele>1253.2</ele>
        <time>2022-08-03T12:18:57Z</time>
      </trkpt>
      <trkpt lat="44.59106" lon="3.18598">
        <ele>1253.1</ele>
        <time>2022-08-03T12:18:58Z</time>
      </trkpt>
      <trkpt lat="44.591" lon="3.18587">
        <ele>1252.8</ele>
        <time>2022-08-03T12:19:06Z</time>
      </trkpt>
      <trkpt lat="44.59092" lon="3.18573">
        <ele>1251.6</ele>
        <time>2022-08-03T12:19:17Z</time>
      </trkpt>
      <trkpt lat="44.59091" lon="3.18571">
        <ele>1251.5</ele>
        <time>2022-08-03T12:19:18Z</time>
      </trkpt>
      <trkpt lat="44.59085" lon="3.18563">
        <ele>1250.4</ele>
        <time>2022-08-03T12:19:27Z</time>
      </trkpt>
      <trkpt lat="44.59084" lon="3.1856">
        <ele>1250.3</ele>
        <time>2022-08-03T12:19:29Z</time>
      </trkpt>
      <trkpt lat="44.59081" lon="3.18554">
        <ele>1249.8</ele>
        <time>2022-08-03T12:19:34Z</time>
      </trkpt>
      <trkpt lat="44.59078" lon="3.18548">
        <ele>1249.4</ele>
        <time>2022-08-03T12:19:39Z</time>
      </trkpt>
      <trkpt lat="44.59076" lon="3.18542">
        <ele>1249</ele>
        <time>2022-08-03T12:19:43Z</time>
      </trkpt>
      <trkpt lat="44.59075" lon="3.18537">
        <ele>1248.8</ele>
        <time>2022-08-03T12:19:46Z</time>
      </trkpt>
      <trkpt lat="44.59072" lon="3.18522">
        <ele>1247.9</ele>
        <time>2022-08-03T12:19:56Z</time>
      </trkpt>
      <trkpt lat="44.59067" lon="3.18508">
        <ele>1246.7</ele>
        <time>2022-08-03T12:20:07Z</time>
      </trkpt>
      <trkpt lat="44.59066" lon="3.18506">
        <ele>1246.5</ele>
        <time>2022-08-03T12:20:09Z</time>
      </trkpt>
      <trkpt lat="44.59063" lon="3.18496">
        <ele>1245.5</ele>
        <time>2022-08-03T12:20:19Z</time>
      </trkpt>
      <trkpt lat="44.59063" lon="3.18493">
        <ele>1245.2</ele>
        <time>2022-08-03T12:20:22Z</time>
      </trkpt>
      <trkpt lat="44.59062" lon="3.18491">
        <ele>1244.9</ele>
        <time>2022-08-03T12:20:24Z</time>
      </trkpt>
      <trkpt lat="44.59061" lon="3.18485">
        <ele>1244.1</ele>
        <time>2022-08-03T12:20:29Z</time>
      </trkpt>
      <trkpt lat="44.5906" lon="3.18481">
        <ele>1243.7</ele>
        <time>2022-08-03T12:20:32Z</time>
      </trkpt>
      <trkpt lat="44.5906" lon="3.18479">
        <ele>1243.5</ele>
        <time>2022-08-03T12:20:35Z</time>
      </trkpt>
      <trkpt lat="44.59058" lon="3.18475">
        <ele>1242.8</ele>
        <time>2022-08-03T12:20:39Z</time>
      </trkpt>
      <trkpt lat="44.59059" lon="3.18472">
        <ele>1242.6</ele>
        <time>2022-08-03T12:20:42Z</time>
      </trkpt>
      <trkpt lat="44.59059" lon="3.18471">
        <ele>1242.5</ele>
        <time>2022-08-03T12:20:43Z</time>
      </trkpt>
      <trkpt lat="44.59059" lon="3.18466">
        <ele>1242.1</ele>
        <time>2022-08-03T12:20:48Z</time>
      </trkpt>
      <trkpt lat="44.59059" lon="3.18462">
        <ele>1241.5</ele>
        <time>2022-08-03T12:20:52Z</time>
      </trkpt>
      <trkpt lat="44.59058" lon="3.18456">
        <ele>1240.8</ele>
        <time>2022-08-03T12:20:57Z</time>
      </trkpt>
      <trkpt lat="44.59058" lon="3.18453">
        <ele>1240.3</ele>
        <time>2022-08-03T12:21:00Z</time>
      </trkpt>
      <trkpt lat="44.59057" lon="3.18447">
        <ele>1239.6</ele>
        <time>2022-08-03T12:21:05Z</time>
      </trkpt>
      <trkpt lat="44.59058" lon="3.18446">
        <ele>1239.6</ele>
        <time>2022-08-03T12:21:06Z</time>
      </trkpt>
      <trkpt lat="44.59056" lon="3.18439">
        <ele>1238.5</ele>
        <time>2022-08-03T12:21:13Z</time>
      </trkpt>
      <trkpt lat="44.59054" lon="3.18433">
        <ele>1237.6</ele>
        <time>2022-08-03T12:21:20Z</time>
      </trkpt>
      <trkpt lat="44.59054" lon="3.18432">
        <ele>1237.5</ele>
        <time>2022-08-03T12:21:21Z</time>
      </trkpt>
      <trkpt lat="44.59055" lon="3.18427">
        <ele>1237</ele>
        <time>2022-08-03T12:21:26Z</time>
      </trkpt>
      <trkpt lat="44.59055" lon="3.18426">
        <ele>1236.9</ele>
        <time>2022-08-03T12:21:27Z</time>
      </trkpt>
      <trkpt lat="44.59054" lon="3.18425">
        <ele>1236.8</ele>
        <time>2022-08-03T12:21:31Z</time>
      </trkpt>
      <trkpt lat="44.59055" lon="3.18419">
        <ele>1236.2</ele>
        <time>2022-08-03T12:21:38Z</time>
      </trkpt>
      <trkpt lat="44.59055" lon="3.18411">
        <ele>1235.1</ele>
        <time>2022-08-03T12:21:45Z</time>
      </trkpt>
      <trkpt lat="44.59053" lon="3.18403">
        <ele>1233.7</ele>
        <time>2022-08-03T12:21:51Z</time>
      </trkpt>
      <trkpt lat="44.59052" lon="3.18399">
        <ele>1233.1</ele>
        <time>2022-08-03T12:21:54Z</time>
      </trkpt>
      <trkpt lat="44.59052" lon="3.18394">
        <ele>1232.5</ele>
        <time>2022-08-03T12:21:57Z</time>
      </trkpt>
      <trkpt lat="44.59051" lon="3.18381">
        <ele>1231.1</ele>
        <time>2022-08-03T12:22:07Z</time>
      </trkpt>
      <trkpt lat="44.59051" lon="3.18374">
        <ele>1230.5</ele>
        <time>2022-08-03T12:22:12Z</time>
      </trkpt>
      <trkpt lat="44.5905" lon="3.18366">
        <ele>1229.7</ele>
        <time>2022-08-03T12:22:17Z</time>
      </trkpt>
      <trkpt lat="44.59048" lon="3.18348">
        <ele>1228.3</ele>
        <time>2022-08-03T12:22:28Z</time>
      </trkpt>
      <trkpt lat="44.59047" lon="3.18332">
        <ele>1227</ele>
        <time>2022-08-03T12:22:39Z</time>
      </trkpt>
      <trkpt lat="44.59047" lon="3.18331">
        <ele>1226.9</ele>
        <time>2022-08-03T12:22:40Z</time>
      </trkpt>
      <trkpt lat="44.59048" lon="3.1832">
        <ele>1226.3</ele>
        <time>2022-08-03T12:22:49Z</time>
      </trkpt>
      <trkpt lat="44.59048" lon="3.18318">
        <ele>1226.2</ele>
        <time>2022-08-03T12:22:50Z</time>
      </trkpt>
      <trkpt lat="44.59044" lon="3.1831">
        <ele>1225.4</ele>
        <time>2022-08-03T12:22:57Z</time>
      </trkpt>
      <trkpt lat="44.59043" lon="3.18305">
        <ele>1225.1</ele>
        <time>2022-08-03T12:23:00Z</time>
      </trkpt>
      <trkpt lat="44.59041" lon="3.18298">
        <ele>1224.6</ele>
        <time>2022-08-03T12:23:05Z</time>
      </trkpt>
      <trkpt lat="44.59041" lon="3.18295">
        <ele>1224.4</ele>
        <time>2022-08-03T12:23:07Z</time>
      </trkpt>
      <trkpt lat="44.59036" lon="3.18284">
        <ele>1223.6</ele>
        <time>2022-08-03T12:23:15Z</time>
      </trkpt>
      <trkpt lat="44.59034" lon="3.1828">
        <ele>1223.3</ele>
        <time>2022-08-03T12:23:18Z</time>
      </trkpt>
      <trkpt lat="44.59033" lon="3.18277">
        <ele>1223.2</ele>
        <time>2022-08-03T12:23:22Z</time>
      </trkpt>
      <trkpt lat="44.59033" lon="3.18277">
        <ele>1223.2</ele>
        <time>2022-08-03T12:23:25Z</time>
      </trkpt>
      <trkpt lat="44.59033" lon="3.18277">
        <ele>1223.2</ele>
        <time>2022-08-03T12:23:34Z</time>
      </trkpt>
      <trkpt lat="44.5903" lon="3.18272">
        <ele>1222.9</ele>
        <time>2022-08-03T12:23:54Z</time>
      </trkpt>
      <trkpt lat="44.59026" lon="3.18263">
        <ele>1222.3</ele>
        <time>2022-08-03T12:23:59Z</time>
      </trkpt>
      <trkpt lat="44.59026" lon="3.1826">
        <ele>1222.2</ele>
        <time>2022-08-03T12:24:01Z</time>
      </trkpt>
      <trkpt lat="44.59029" lon="3.18257">
        <ele>1222.3</ele>
        <time>2022-08-03T12:24:07Z</time>
      </trkpt>
      <trkpt lat="44.59029" lon="3.1825">
        <ele>1222.1</ele>
        <time>2022-08-03T12:24:13Z</time>
      </trkpt>
      <trkpt lat="44.59029" lon="3.18249">
        <ele>1222.1</ele>
        <time>2022-08-03T12:24:14Z</time>
      </trkpt>
      <trkpt lat="44.59028" lon="3.18242">
        <ele>1222</ele>
        <time>2022-08-03T12:24:20Z</time>
      </trkpt>
      <trkpt lat="44.59027" lon="3.1824">
        <ele>1222</ele>
        <time>2022-08-03T12:24:22Z</time>
      </trkpt>
      <trkpt lat="44.59027" lon="3.18238">
        <ele>1222</ele>
        <time>2022-08-03T12:24:29Z</time>
      </trkpt>
      <trkpt lat="44.59027" lon="3.18239">
        <ele>1222</ele>
        <time>2022-08-03T12:24:34Z</time>
      </trkpt>
      <trkpt lat="44.59023" lon="3.18239">
        <ele>1222</ele>
        <time>2022-08-03T12:24:46Z</time>
      </trkpt>
      <trkpt lat="44.5902" lon="3.18239">
        <ele>1221.9</ele>
        <time>2022-08-03T12:24:48Z</time>
      </trkpt>
      <trkpt lat="44.59015" lon="3.18235">
        <ele>1222</ele>
        <time>2022-08-03T12:24:53Z</time>
      </trkpt>
      <trkpt lat="44.59015" lon="3.18235">
        <ele>1222</ele>
        <time>2022-08-03T12:24:54Z</time>
      </trkpt>
      <trkpt lat="44.59014" lon="3.18234">
        <ele>1222.1</ele>
        <time>2022-08-03T12:25:01Z</time>
      </trkpt>
      <trkpt lat="44.5901" lon="3.18229">
        <ele>1222.3</ele>
        <time>2022-08-03T12:25:08Z</time>
      </trkpt>
      <trkpt lat="44.59009" lon="3.18227">
        <ele>1222.5</ele>
        <time>2022-08-03T12:25:10Z</time>
      </trkpt>
      <trkpt lat="44.59007" lon="3.18223">
        <ele>1222.7</ele>
        <time>2022-08-03T12:25:16Z</time>
      </trkpt>
      <trkpt lat="44.59007" lon="3.18213">
        <ele>1222.8</ele>
        <time>2022-08-03T12:25:22Z</time>
      </trkpt>
      <trkpt lat="44.59007" lon="3.18211">
        <ele>1222.8</ele>
        <time>2022-08-03T12:25:23Z</time>
      </trkpt>
      <trkpt lat="44.59004" lon="3.18194">
        <ele>1222.9</ele>
        <time>2022-08-03T12:25:33Z</time>
      </trkpt>
      <trkpt lat="44.59002" lon="3.18177">
        <ele>1223.5</ele>
        <time>2022-08-03T12:25:43Z</time>
      </trkpt>
      <trkpt lat="44.59002" lon="3.18172">
        <ele>1223.8</ele>
        <time>2022-08-03T12:25:48Z</time>
      </trkpt>
      <trkpt lat="44.59002" lon="3.18171">
        <ele>1223.8</ele>
        <time>2022-08-03T12:25:50Z</time>
      </trkpt>
      <trkpt lat="44.59001" lon="3.18167">
        <ele>1223.9</ele>
        <time>2022-08-03T12:25:53Z</time>
      </trkpt>
      <trkpt lat="44.59001" lon="3.18162">
        <ele>1224.5</ele>
        <time>2022-08-03T12:25:56Z</time>
      </trkpt>
      <trkpt lat="44.59" lon="3.18153">
        <ele>1225.5</ele>
        <time>2022-08-03T12:26:02Z</time>
      </trkpt>
      <trkpt lat="44.58999" lon="3.18147">
        <ele>1226.3</ele>
        <time>2022-08-03T12:26:06Z</time>
      </trkpt>
      <trkpt lat="44.58999" lon="3.18145">
        <ele>1226.5</ele>
        <time>2022-08-03T12:26:08Z</time>
      </trkpt>
      <trkpt lat="44.58999" lon="3.18137">
        <ele>1227.4</ele>
        <time>2022-08-03T12:26:14Z</time>
      </trkpt>
      <trkpt lat="44.58999" lon="3.18129">
        <ele>1228.2</ele>
        <time>2022-08-03T12:26:19Z</time>
      </trkpt>
      <trkpt lat="44.59" lon="3.18123">
        <ele>1228.8</ele>
        <time>2022-08-03T12:26:24Z</time>
      </trkpt>
      <trkpt lat="44.59" lon="3.18106">
        <ele>1230.5</ele>
        <time>2022-08-03T12:26:35Z</time>
      </trkpt>
      <trkpt lat="44.59" lon="3.18105">
        <ele>1230.7</ele>
        <time>2022-08-03T12:26:36Z</time>
      </trkpt>
      <trkpt lat="44.59" lon="3.18092">
        <ele>1232.1</ele>
        <time>2022-08-03T12:26:45Z</time>
      </trkpt>
      <trkpt lat="44.59" lon="3.18091">
        <ele>1232.2</ele>
        <time>2022-08-03T12:26:46Z</time>
      </trkpt>
      <trkpt lat="44.59" lon="3.18087">
        <ele>1232.6</ele>
        <time>2022-08-03T12:26:49Z</time>
      </trkpt>
      <trkpt lat="44.59" lon="3.18076">
        <ele>1233.9</ele>
        <time>2022-08-03T12:26:57Z</time>
      </trkpt>
      <trkpt lat="44.58999" lon="3.18073">
        <ele>1234.3</ele>
        <time>2022-08-03T12:26:59Z</time>
      </trkpt>
      <trkpt lat="44.58997" lon="3.18071">
        <ele>1234.7</ele>
        <time>2022-08-03T12:27:01Z</time>
      </trkpt>
      <trkpt lat="44.58995" lon="3.18067">
        <ele>1235.4</ele>
        <time>2022-08-03T12:27:05Z</time>
      </trkpt>
      <trkpt lat="44.58991" lon="3.18066">
        <ele>1235.9</ele>
        <time>2022-08-03T12:27:09Z</time>
      </trkpt>
      <trkpt lat="44.58989" lon="3.18066">
        <ele>1236</ele>
        <time>2022-08-03T12:27:11Z</time>
      </trkpt>
      <trkpt lat="44.58983" lon="3.18067">
        <ele>1236.7</ele>
        <time>2022-08-03T12:27:18Z</time>
      </trkpt>
      <trkpt lat="44.58979" lon="3.18067">
        <ele>1237.1</ele>
        <time>2022-08-03T12:27:22Z</time>
      </trkpt>
      <trkpt lat="44.58973" lon="3.18065">
        <ele>1237.9</ele>
        <time>2022-08-03T12:27:28Z</time>
      </trkpt>
      <trkpt lat="44.58964" lon="3.18063">
        <ele>1238.8</ele>
        <time>2022-08-03T12:27:37Z</time>
      </trkpt>
      <trkpt lat="44.58963" lon="3.18063">
        <ele>1238.9</ele>
        <time>2022-08-03T12:27:38Z</time>
      </trkpt>
      <trkpt lat="44.58956" lon="3.18058">
        <ele>1239.9</ele>
        <time>2022-08-03T12:27:45Z</time>
      </trkpt>
      <trkpt lat="44.58953" lon="3.18056">
        <ele>1240.4</ele>
        <time>2022-08-03T12:27:48Z</time>
      </trkpt>
      <trkpt lat="44.5895" lon="3.18053">
        <ele>1240.9</ele>
        <time>2022-08-03T12:27:52Z</time>
      </trkpt>
      <trkpt lat="44.58949" lon="3.18051">
        <ele>1241</ele>
        <time>2022-08-03T12:27:53Z</time>
      </trkpt>
      <trkpt lat="44.58947" lon="3.18048">
        <ele>1241.4</ele>
        <time>2022-08-03T12:27:56Z</time>
      </trkpt>
      <trkpt lat="44.58942" lon="3.18038">
        <ele>1242.6</ele>
        <time>2022-08-03T12:28:04Z</time>
      </trkpt>
      <trkpt lat="44.58941" lon="3.18037">
        <ele>1242.7</ele>
        <time>2022-08-03T12:28:05Z</time>
      </trkpt>
      <trkpt lat="44.58936" lon="3.18025">
        <ele>1244.2</ele>
        <time>2022-08-03T12:28:14Z</time>
      </trkpt>
      <trkpt lat="44.58934" lon="3.1802">
        <ele>1244.9</ele>
        <time>2022-08-03T12:28:18Z</time>
      </trkpt>
      <trkpt lat="44.5893" lon="3.1801">
        <ele>1246.1</ele>
        <time>2022-08-03T12:28:25Z</time>
      </trkpt>
      <trkpt lat="44.5893" lon="3.18009">
        <ele>1246.3</ele>
        <time>2022-08-03T12:28:26Z</time>
      </trkpt>
      <trkpt lat="44.58925" lon="3.18">
        <ele>1247.4</ele>
        <time>2022-08-03T12:28:33Z</time>
      </trkpt>
      <trkpt lat="44.58922" lon="3.17993">
        <ele>1248</ele>
        <time>2022-08-03T12:28:39Z</time>
      </trkpt>
      <trkpt lat="44.5892" lon="3.17988">
        <ele>1248.2</ele>
        <time>2022-08-03T12:28:42Z</time>
      </trkpt>
      <trkpt lat="44.58918" lon="3.17984">
        <ele>1248.5</ele>
        <time>2022-08-03T12:28:45Z</time>
      </trkpt>
      <trkpt lat="44.58915" lon="3.17978">
        <ele>1249</ele>
        <time>2022-08-03T12:28:51Z</time>
      </trkpt>
      <trkpt lat="44.58914" lon="3.17976">
        <ele>1249.1</ele>
        <time>2022-08-03T12:28:52Z</time>
      </trkpt>
      <trkpt lat="44.58911" lon="3.17968">
        <ele>1249.8</ele>
        <time>2022-08-03T12:28:59Z</time>
      </trkpt>
      <trkpt lat="44.58908" lon="3.17963">
        <ele>1250.2</ele>
        <time>2022-08-03T12:29:03Z</time>
      </trkpt>
      <trkpt lat="44.58905" lon="3.17957">
        <ele>1250.6</ele>
        <time>2022-08-03T12:29:08Z</time>
      </trkpt>
      <trkpt lat="44.58902" lon="3.17952">
        <ele>1250.9</ele>
        <time>2022-08-03T12:29:12Z</time>
      </trkpt>
      <trkpt lat="44.589" lon="3.17948">
        <ele>1251.1</ele>
        <time>2022-08-03T12:29:15Z</time>
      </trkpt>
      <trkpt lat="44.58898" lon="3.17943">
        <ele>1251.3</ele>
        <time>2022-08-03T12:29:19Z</time>
      </trkpt>
      <trkpt lat="44.58896" lon="3.17938">
        <ele>1251.3</ele>
        <time>2022-08-03T12:29:23Z</time>
      </trkpt>
      <trkpt lat="44.58889" lon="3.17927">
        <ele>1251.4</ele>
        <time>2022-08-03T12:29:32Z</time>
      </trkpt>
      <trkpt lat="44.58881" lon="3.17914">
        <ele>1251.2</ele>
        <time>2022-08-03T12:29:42Z</time>
      </trkpt>
      <trkpt lat="44.58873" lon="3.17903">
        <ele>1250.8</ele>
        <time>2022-08-03T12:29:52Z</time>
      </trkpt>
      <trkpt lat="44.58874" lon="3.17903">
        <ele>1250.8</ele>
        <time>2022-08-03T12:29:53Z</time>
      </trkpt>
      <trkpt lat="44.58874" lon="3.17903">
        <ele>1250.8</ele>
        <time>2022-08-03T12:29:54Z</time>
      </trkpt>
      <trkpt lat="44.58874" lon="3.17903">
        <ele>1250.8</ele>
        <time>2022-08-03T12:30:03Z</time>
      </trkpt>
      <trkpt lat="44.58874" lon="3.17903">
        <ele>1250.8</ele>
        <time>2022-08-03T12:30:05Z</time>
      </trkpt>
      <trkpt lat="44.58869" lon="3.17897">
        <ele>1250.5</ele>
        <time>2022-08-03T12:30:31Z</time>
      </trkpt>
      <trkpt lat="44.58855" lon="3.17884">
        <ele>1249.6</ele>
        <time>2022-08-03T12:30:44Z</time>
      </trkpt>
      <trkpt lat="44.58849" lon="3.17878">
        <ele>1249.2</ele>
        <time>2022-08-03T12:30:51Z</time>
      </trkpt>
      <trkpt lat="44.58844" lon="3.17875">
        <ele>1249</ele>
        <time>2022-08-03T12:30:55Z</time>
      </trkpt>
      <trkpt lat="44.58834" lon="3.1787">
        <ele>1248.7</ele>
        <time>2022-08-03T12:31:04Z</time>
      </trkpt>
      <trkpt lat="44.58829" lon="3.17868">
        <ele>1248.3</ele>
        <time>2022-08-03T12:31:08Z</time>
      </trkpt>
      <trkpt lat="44.58817" lon="3.17861">
        <ele>1247.4</ele>
        <time>2022-08-03T12:31:19Z</time>
      </trkpt>
      <trkpt lat="44.58814" lon="3.17861">
        <ele>1247.3</ele>
        <time>2022-08-03T12:31:22Z</time>
      </trkpt>
      <trkpt lat="44.58803" lon="3.17857">
        <ele>1246.5</ele>
        <time>2022-08-03T12:31:30Z</time>
      </trkpt>
      <trkpt lat="44.58794" lon="3.17853">
        <ele>1245.7</ele>
        <time>2022-08-03T12:31:38Z</time>
      </trkpt>
      <trkpt lat="44.58788" lon="3.17851">
        <ele>1245.3</ele>
        <time>2022-08-03T12:31:43Z</time>
      </trkpt>
      <trkpt lat="44.58779" lon="3.17845">
        <ele>1244.2</ele>
        <time>2022-08-03T12:31:51Z</time>
      </trkpt>
      <trkpt lat="44.58777" lon="3.17843">
        <ele>1244</ele>
        <time>2022-08-03T12:31:53Z</time>
      </trkpt>
      <trkpt lat="44.58769" lon="3.17841">
        <ele>1243.8</ele>
        <time>2022-08-03T12:31:59Z</time>
      </trkpt>
      <trkpt lat="44.58766" lon="3.1784">
        <ele>1243.6</ele>
        <time>2022-08-03T12:32:02Z</time>
      </trkpt>
      <trkpt lat="44.58761" lon="3.17836">
        <ele>1243.2</ele>
        <time>2022-08-03T12:32:06Z</time>
      </trkpt>
      <trkpt lat="44.58755" lon="3.17832">
        <ele>1242.9</ele>
        <time>2022-08-03T12:32:12Z</time>
      </trkpt>
      <trkpt lat="44.58751" lon="3.17828">
        <ele>1242.6</ele>
        <time>2022-08-03T12:32:16Z</time>
      </trkpt>
      <trkpt lat="44.58746" lon="3.17825">
        <ele>1242.4</ele>
        <time>2022-08-03T12:32:20Z</time>
      </trkpt>
      <trkpt lat="44.58736" lon="3.17815">
        <ele>1241.7</ele>
        <time>2022-08-03T12:32:30Z</time>
      </trkpt>
      <trkpt lat="44.58734" lon="3.17814">
        <ele>1241.6</ele>
        <time>2022-08-03T12:32:32Z</time>
      </trkpt>
      <trkpt lat="44.58727" lon="3.17807">
        <ele>1241.1</ele>
        <time>2022-08-03T12:32:39Z</time>
      </trkpt>
      <trkpt lat="44.58718" lon="3.17797">
        <ele>1240.7</ele>
        <time>2022-08-03T12:32:49Z</time>
      </trkpt>
      <trkpt lat="44.58708" lon="3.17788">
        <ele>1240.4</ele>
        <time>2022-08-03T12:32:59Z</time>
      </trkpt>
      <trkpt lat="44.58706" lon="3.17785">
        <ele>1240.3</ele>
        <time>2022-08-03T12:33:01Z</time>
      </trkpt>
      <trkpt lat="44.58696" lon="3.17775">
        <ele>1239.9</ele>
        <time>2022-08-03T12:33:12Z</time>
      </trkpt>
      <trkpt lat="44.58683" lon="3.17763">
        <ele>1239.9</ele>
        <time>2022-08-03T12:33:24Z</time>
      </trkpt>
      <trkpt lat="44.58672" lon="3.17751">
        <ele>1239.8</ele>
        <time>2022-08-03T12:33:35Z</time>
      </trkpt>
      <trkpt lat="44.58658" lon="3.17734">
        <ele>1239.2</ele>
        <time>2022-08-03T12:33:50Z</time>
      </trkpt>
      <trkpt lat="44.58649" lon="3.17725">
        <ele>1238.8</ele>
        <time>2022-08-03T12:33:59Z</time>
      </trkpt>
      <trkpt lat="44.58647" lon="3.17722">
        <ele>1238.7</ele>
        <time>2022-08-03T12:34:01Z</time>
      </trkpt>
      <trkpt lat="44.58636" lon="3.17711">
        <ele>1238.6</ele>
        <time>2022-08-03T12:34:12Z</time>
      </trkpt>
      <trkpt lat="44.58624" lon="3.177">
        <ele>1239</ele>
        <time>2022-08-03T12:34:24Z</time>
      </trkpt>
      <trkpt lat="44.58612" lon="3.1769">
        <ele>1239.4</ele>
        <time>2022-08-03T12:34:34Z</time>
      </trkpt>
      <trkpt lat="44.58598" lon="3.17678">
        <ele>1239.2</ele>
        <time>2022-08-03T12:34:46Z</time>
      </trkpt>
      <trkpt lat="44.58585" lon="3.17668">
        <ele>1239.8</ele>
        <time>2022-08-03T12:34:58Z</time>
      </trkpt>
      <trkpt lat="44.58575" lon="3.17659">
        <ele>1239</ele>
        <time>2022-08-03T12:35:08Z</time>
      </trkpt>
      <trkpt lat="44.58572" lon="3.17656">
        <ele>1238.6</ele>
        <time>2022-08-03T12:35:11Z</time>
      </trkpt>
      <trkpt lat="44.58559" lon="3.17647">
        <ele>1237.8</ele>
        <time>2022-08-03T12:35:22Z</time>
      </trkpt>
      <trkpt lat="44.58544" lon="3.1764">
        <ele>1237.5</ele>
        <time>2022-08-03T12:35:35Z</time>
      </trkpt>
      <trkpt lat="44.5853" lon="3.17634">
        <ele>1237.5</ele>
        <time>2022-08-03T12:35:46Z</time>
      </trkpt>
      <trkpt lat="44.58517" lon="3.17627">
        <ele>1237.5</ele>
        <time>2022-08-03T12:35:57Z</time>
      </trkpt>
      <trkpt lat="44.58512" lon="3.17624">
        <ele>1237.5</ele>
        <time>2022-08-03T12:36:01Z</time>
      </trkpt>
      <trkpt lat="44.58501" lon="3.17618">
        <ele>1237.5</ele>
        <time>2022-08-03T12:36:10Z</time>
      </trkpt>
      <trkpt lat="44.58489" lon="3.17612">
        <ele>1237.9</ele>
        <time>2022-08-03T12:36:20Z</time>
      </trkpt>
      <trkpt lat="44.58477" lon="3.17605">
        <ele>1238.1</ele>
        <time>2022-08-03T12:36:31Z</time>
      </trkpt>
      <trkpt lat="44.58467" lon="3.17597">
        <ele>1238</ele>
        <time>2022-08-03T12:36:40Z</time>
      </trkpt>
      <trkpt lat="44.58461" lon="3.17592">
        <ele>1238</ele>
        <time>2022-08-03T12:36:46Z</time>
      </trkpt>
      <trkpt lat="44.5846" lon="3.1759">
        <ele>1237.9</ele>
        <time>2022-08-03T12:36:49Z</time>
      </trkpt>
      <trkpt lat="44.58461" lon="3.1759">
        <ele>1237.9</ele>
        <time>2022-08-03T12:36:51Z</time>
      </trkpt>
      <trkpt lat="44.58459" lon="3.17589">
        <ele>1238</ele>
        <time>2022-08-03T12:36:56Z</time>
      </trkpt>
      <trkpt lat="44.58456" lon="3.17587">
        <ele>1238.1</ele>
        <time>2022-08-03T12:37:02Z</time>
      </trkpt>
      <trkpt lat="44.58457" lon="3.17585">
        <ele>1237.8</ele>
        <time>2022-08-03T12:37:11Z</time>
      </trkpt>
      <trkpt lat="44.5845" lon="3.17579">
        <ele>1238</ele>
        <time>2022-08-03T12:37:18Z</time>
      </trkpt>
      <trkpt lat="44.58445" lon="3.17571">
        <ele>1237.7</ele>
        <time>2022-08-03T12:37:25Z</time>
      </trkpt>
      <trkpt lat="44.58444" lon="3.17571">
        <ele>1237.7</ele>
        <time>2022-08-03T12:37:26Z</time>
      </trkpt>
      <trkpt lat="44.58439" lon="3.17561">
        <ele>1237</ele>
        <time>2022-08-03T12:37:34Z</time>
      </trkpt>
      <trkpt lat="44.58436" lon="3.17556">
        <ele>1236.7</ele>
        <time>2022-08-03T12:37:38Z</time>
      </trkpt>
      <trkpt lat="44.58433" lon="3.1755">
        <ele>1236.4</ele>
        <time>2022-08-03T12:37:42Z</time>
      </trkpt>
      <trkpt lat="44.58431" lon="3.17545">
        <ele>1236.2</ele>
        <time>2022-08-03T12:37:46Z</time>
      </trkpt>
      <trkpt lat="44.5843" lon="3.17544">
        <ele>1236.2</ele>
        <time>2022-08-03T12:37:48Z</time>
      </trkpt>
      <trkpt lat="44.58429" lon="3.17543">
        <ele>1236.2</ele>
        <time>2022-08-03T12:37:49Z</time>
      </trkpt>
      <trkpt lat="44.58427" lon="3.1754">
        <ele>1236.1</ele>
        <time>2022-08-03T12:37:52Z</time>
      </trkpt>
      <trkpt lat="44.58423" lon="3.17533">
        <ele>1235.9</ele>
        <time>2022-08-03T12:37:57Z</time>
      </trkpt>
      <trkpt lat="44.58417" lon="3.17525">
        <ele>1235.8</ele>
        <time>2022-08-03T12:38:05Z</time>
      </trkpt>
      <trkpt lat="44.58409" lon="3.17514">
        <ele>1235.5</ele>
        <time>2022-08-03T12:38:13Z</time>
      </trkpt>
      <trkpt lat="44.58407" lon="3.1751">
        <ele>1235.5</ele>
        <time>2022-08-03T12:38:16Z</time>
      </trkpt>
      <trkpt lat="44.58403" lon="3.17504">
        <ele>1235.3</ele>
        <time>2022-08-03T12:38:20Z</time>
      </trkpt>
      <trkpt lat="44.58397" lon="3.17493">
        <ele>1235.1</ele>
        <time>2022-08-03T12:38:27Z</time>
      </trkpt>
      <trkpt lat="44.58396" lon="3.17489">
        <ele>1235.1</ele>
        <time>2022-08-03T12:38:29Z</time>
      </trkpt>
      <trkpt lat="44.58396" lon="3.17487">
        <ele>1235</ele>
        <time>2022-08-03T12:38:30Z</time>
      </trkpt>
      <trkpt lat="44.5839" lon="3.17478">
        <ele>1235.1</ele>
        <time>2022-08-03T12:38:38Z</time>
      </trkpt>
      <trkpt lat="44.58387" lon="3.17474">
        <ele>1235.1</ele>
        <time>2022-08-03T12:38:41Z</time>
      </trkpt>
      <trkpt lat="44.58383" lon="3.17467">
        <ele>1234.8</ele>
        <time>2022-08-03T12:38:47Z</time>
      </trkpt>
      <trkpt lat="44.58377" lon="3.17454">
        <ele>1234.1</ele>
        <time>2022-08-03T12:38:56Z</time>
      </trkpt>
      <trkpt lat="44.58371" lon="3.17443">
        <ele>1233.6</ele>
        <time>2022-08-03T12:39:04Z</time>
      </trkpt>
      <trkpt lat="44.58364" lon="3.17427">
        <ele>1233.3</ele>
        <time>2022-08-03T12:39:14Z</time>
      </trkpt>
      <trkpt lat="44.58358" lon="3.17414">
        <ele>1233</ele>
        <time>2022-08-03T12:39:22Z</time>
      </trkpt>
      <trkpt lat="44.58357" lon="3.17411">
        <ele>1232.9</ele>
        <time>2022-08-03T12:39:24Z</time>
      </trkpt>
      <trkpt lat="44.58355" lon="3.17402">
        <ele>1232.8</ele>
        <time>2022-08-03T12:39:30Z</time>
      </trkpt>
      <trkpt lat="44.58352" lon="3.17395">
        <ele>1232.5</ele>
        <time>2022-08-03T12:39:34Z</time>
      </trkpt>
      <trkpt lat="44.58348" lon="3.17385">
        <ele>1232</ele>
        <time>2022-08-03T12:39:40Z</time>
      </trkpt>
      <trkpt lat="44.58346" lon="3.17379">
        <ele>1231.7</ele>
        <time>2022-08-03T12:39:44Z</time>
      </trkpt>
      <trkpt lat="44.58345" lon="3.17376">
        <ele>1231.6</ele>
        <time>2022-08-03T12:39:47Z</time>
      </trkpt>
      <trkpt lat="44.58343" lon="3.17372">
        <ele>1231.5</ele>
        <time>2022-08-03T12:39:52Z</time>
      </trkpt>
      <trkpt lat="44.58342" lon="3.17371">
        <ele>1231.4</ele>
        <time>2022-08-03T12:39:53Z</time>
      </trkpt>
      <trkpt lat="44.58339" lon="3.17366">
        <ele>1231.2</ele>
        <time>2022-08-03T12:39:57Z</time>
      </trkpt>
      <trkpt lat="44.58338" lon="3.17362">
        <ele>1231.2</ele>
        <time>2022-08-03T12:39:59Z</time>
      </trkpt>
      <trkpt lat="44.58336" lon="3.17357">
        <ele>1231.1</ele>
        <time>2022-08-03T12:40:02Z</time>
      </trkpt>
      <trkpt lat="44.58336" lon="3.17349">
        <ele>1231.1</ele>
        <time>2022-08-03T12:40:06Z</time>
      </trkpt>
      <trkpt lat="44.58336" lon="3.17347">
        <ele>1231.1</ele>
        <time>2022-08-03T12:40:07Z</time>
      </trkpt>
      <trkpt lat="44.58335" lon="3.17331">
        <ele>1231.1</ele>
        <time>2022-08-03T12:40:15Z</time>
      </trkpt>
      <trkpt lat="44.58336" lon="3.17312">
        <ele>1231.1</ele>
        <time>2022-08-03T12:40:25Z</time>
      </trkpt>
      <trkpt lat="44.58336" lon="3.17311">
        <ele>1231.1</ele>
        <time>2022-08-03T12:40:26Z</time>
      </trkpt>
      <trkpt lat="44.58335" lon="3.17294">
        <ele>1231.5</ele>
        <time>2022-08-03T12:40:36Z</time>
      </trkpt>
      <trkpt lat="44.58335" lon="3.17284">
        <ele>1231.9</ele>
        <time>2022-08-03T12:40:43Z</time>
      </trkpt>
      <trkpt lat="44.58335" lon="3.1728">
        <ele>1232</ele>
        <time>2022-08-03T12:40:45Z</time>
      </trkpt>
      <trkpt lat="44.58332" lon="3.17267">
        <ele>1232.2</ele>
        <time>2022-08-03T12:40:53Z</time>
      </trkpt>
      <trkpt lat="44.5833" lon="3.1726">
        <ele>1232.4</ele>
        <time>2022-08-03T12:40:58Z</time>
      </trkpt>
      <trkpt lat="44.5833" lon="3.17255">
        <ele>1232.6</ele>
        <time>2022-08-03T12:41:01Z</time>
      </trkpt>
      <trkpt lat="44.5833" lon="3.17251">
        <ele>1232.7</ele>
        <time>2022-08-03T12:41:03Z</time>
      </trkpt>
      <trkpt lat="44.5833" lon="3.17246">
        <ele>1233.2</ele>
        <time>2022-08-03T12:41:07Z</time>
      </trkpt>
      <trkpt lat="44.58329" lon="3.17244">
        <ele>1233.3</ele>
        <time>2022-08-03T12:41:08Z</time>
      </trkpt>
      <trkpt lat="44.58326" lon="3.1723">
        <ele>1234.4</ele>
        <time>2022-08-03T12:41:16Z</time>
      </trkpt>
      <trkpt lat="44.58325" lon="3.17225">
        <ele>1234.8</ele>
        <time>2022-08-03T12:41:19Z</time>
      </trkpt>
      <trkpt lat="44.58325" lon="3.17224">
        <ele>1234.9</ele>
        <time>2022-08-03T12:41:20Z</time>
      </trkpt>
      <trkpt lat="44.58322" lon="3.17209">
        <ele>1236.7</ele>
        <time>2022-08-03T12:41:30Z</time>
      </trkpt>
      <trkpt lat="44.58322" lon="3.17207">
        <ele>1237</ele>
        <time>2022-08-03T12:41:32Z</time>
      </trkpt>
      <trkpt lat="44.5832" lon="3.17201">
        <ele>1237.6</ele>
        <time>2022-08-03T12:41:36Z</time>
      </trkpt>
      <trkpt lat="44.58319" lon="3.172">
        <ele>1237.7</ele>
        <time>2022-08-03T12:41:37Z</time>
      </trkpt>
      <trkpt lat="44.58318" lon="3.17198">
        <ele>1237.9</ele>
        <time>2022-08-03T12:41:39Z</time>
      </trkpt>
      <trkpt lat="44.58316" lon="3.17194">
        <ele>1238.2</ele>
        <time>2022-08-03T12:41:42Z</time>
      </trkpt>
      <trkpt lat="44.58315" lon="3.17191">
        <ele>1238.5</ele>
        <time>2022-08-03T12:41:44Z</time>
      </trkpt>
      <trkpt lat="44.58315" lon="3.17189">
        <ele>1238.8</ele>
        <time>2022-08-03T12:41:46Z</time>
      </trkpt>
      <trkpt lat="44.58315" lon="3.17187">
        <ele>1239.1</ele>
        <time>2022-08-03T12:41:48Z</time>
      </trkpt>
      <trkpt lat="44.58313" lon="3.17181">
        <ele>1239.8</ele>
        <time>2022-08-03T12:41:53Z</time>
      </trkpt>
      <trkpt lat="44.58312" lon="3.1718">
        <ele>1239.9</ele>
        <time>2022-08-03T12:41:54Z</time>
      </trkpt>
      <trkpt lat="44.58309" lon="3.17174">
        <ele>1240.3</ele>
        <time>2022-08-03T12:41:59Z</time>
      </trkpt>
      <trkpt lat="44.58305" lon="3.17167">
        <ele>1240.9</ele>
        <time>2022-08-03T12:42:05Z</time>
      </trkpt>
      <trkpt lat="44.58299" lon="3.17162">
        <ele>1241.5</ele>
        <time>2022-08-03T12:42:13Z</time>
      </trkpt>
      <trkpt lat="44.58298" lon="3.17161">
        <ele>1241.6</ele>
        <time>2022-08-03T12:42:14Z</time>
      </trkpt>
      <trkpt lat="44.58291" lon="3.17151">
        <ele>1242.4</ele>
        <time>2022-08-03T12:42:24Z</time>
      </trkpt>
      <trkpt lat="44.58286" lon="3.17141">
        <ele>1243.2</ele>
        <time>2022-08-03T12:42:32Z</time>
      </trkpt>
      <trkpt lat="44.58283" lon="3.17133">
        <ele>1243.5</ele>
        <time>2022-08-03T12:42:38Z</time>
      </trkpt>
      <trkpt lat="44.58283" lon="3.17128">
        <ele>1243.7</ele>
        <time>2022-08-03T12:42:42Z</time>
      </trkpt>
      <trkpt lat="44.58279" lon="3.17116">
        <ele>1244</ele>
        <time>2022-08-03T12:42:49Z</time>
      </trkpt>
      <trkpt lat="44.58279" lon="3.17114">
        <ele>1244</ele>
        <time>2022-08-03T12:42:51Z</time>
      </trkpt>
      <trkpt lat="44.58279" lon="3.1711">
        <ele>1244.2</ele>
        <time>2022-08-03T12:42:55Z</time>
      </trkpt>
      <trkpt lat="44.58279" lon="3.17111">
        <ele>1244.2</ele>
        <time>2022-08-03T12:42:58Z</time>
      </trkpt>
      <trkpt lat="44.58278" lon="3.17109">
        <ele>1244.2</ele>
        <time>2022-08-03T12:43:02Z</time>
      </trkpt>
      <trkpt lat="44.58279" lon="3.17106">
        <ele>1244.4</ele>
        <time>2022-08-03T12:43:09Z</time>
      </trkpt>
      <trkpt lat="44.58277" lon="3.171">
        <ele>1244.7</ele>
        <time>2022-08-03T12:43:20Z</time>
      </trkpt>
      <trkpt lat="44.58276" lon="3.17093">
        <ele>1245.1</ele>
        <time>2022-08-03T12:43:24Z</time>
      </trkpt>
      <trkpt lat="44.58274" lon="3.17086">
        <ele>1245.3</ele>
        <time>2022-08-03T12:43:28Z</time>
      </trkpt>
      <trkpt lat="44.58273" lon="3.17081">
        <ele>1245.5</ele>
        <time>2022-08-03T12:43:31Z</time>
      </trkpt>
      <trkpt lat="44.58271" lon="3.17072">
        <ele>1246</ele>
        <time>2022-08-03T12:43:37Z</time>
      </trkpt>
      <trkpt lat="44.58267" lon="3.17059">
        <ele>1246.3</ele>
        <time>2022-08-03T12:43:46Z</time>
      </trkpt>
      <trkpt lat="44.58266" lon="3.17058">
        <ele>1246.4</ele>
        <time>2022-08-03T12:43:47Z</time>
      </trkpt>
      <trkpt lat="44.58263" lon="3.17044">
        <ele>1246.4</ele>
        <time>2022-08-03T12:43:55Z</time>
      </trkpt>
      <trkpt lat="44.58258" lon="3.17025">
        <ele>1246.7</ele>
        <time>2022-08-03T12:44:06Z</time>
      </trkpt>
      <trkpt lat="44.58253" lon="3.17006">
        <ele>1247</ele>
        <time>2022-08-03T12:44:17Z</time>
      </trkpt>
      <trkpt lat="44.58248" lon="3.16993">
        <ele>1246.8</ele>
        <time>2022-08-03T12:44:26Z</time>
      </trkpt>
      <trkpt lat="44.58241" lon="3.1698">
        <ele>1246.3</ele>
        <time>2022-08-03T12:44:36Z</time>
      </trkpt>
      <trkpt lat="44.58233" lon="3.1697">
        <ele>1245.7</ele>
        <time>2022-08-03T12:44:46Z</time>
      </trkpt>
      <trkpt lat="44.5823" lon="3.16967">
        <ele>1245.4</ele>
        <time>2022-08-03T12:44:51Z</time>
      </trkpt>
      <trkpt lat="44.5823" lon="3.16967">
        <ele>1245.5</ele>
        <time>2022-08-03T12:44:52Z</time>
      </trkpt>
      <trkpt lat="44.58231" lon="3.16967">
        <ele>1245.5</ele>
        <time>2022-08-03T12:44:53Z</time>
      </trkpt>
      <trkpt lat="44.58231" lon="3.16967">
        <ele>1245.5</ele>
        <time>2022-08-03T12:45:00Z</time>
      </trkpt>
      <trkpt lat="44.58231" lon="3.16967">
        <ele>1245.5</ele>
        <time>2022-08-03T12:45:04Z</time>
      </trkpt>
      <trkpt lat="44.58228" lon="3.16959">
        <ele>1245</ele>
        <time>2022-08-03T12:45:10Z</time>
      </trkpt>
      <trkpt lat="44.58222" lon="3.16945">
        <ele>1244</ele>
        <time>2022-08-03T12:45:18Z</time>
      </trkpt>
      <trkpt lat="44.58216" lon="3.16929">
        <ele>1243.3</ele>
        <time>2022-08-03T12:45:28Z</time>
      </trkpt>
      <trkpt lat="44.58212" lon="3.16914">
        <ele>1242.8</ele>
        <time>2022-08-03T12:45:37Z</time>
      </trkpt>
      <trkpt lat="44.58208" lon="3.169">
        <ele>1241.9</ele>
        <time>2022-08-03T12:45:45Z</time>
      </trkpt>
      <trkpt lat="44.58207" lon="3.1689">
        <ele>1241.3</ele>
        <time>2022-08-03T12:45:51Z</time>
      </trkpt>
      <trkpt lat="44.58204" lon="3.16877">
        <ele>1241.1</ele>
        <time>2022-08-03T12:45:59Z</time>
      </trkpt>
      <trkpt lat="44.58203" lon="3.16873">
        <ele>1241</ele>
        <time>2022-08-03T12:46:01Z</time>
      </trkpt>
      <trkpt lat="44.58198" lon="3.1686">
        <ele>1240.4</ele>
        <time>2022-08-03T12:46:10Z</time>
      </trkpt>
      <trkpt lat="44.58198" lon="3.16858">
        <ele>1240.3</ele>
        <time>2022-08-03T12:46:11Z</time>
      </trkpt>
      <trkpt lat="44.58194" lon="3.16843">
        <ele>1240</ele>
        <time>2022-08-03T12:46:20Z</time>
      </trkpt>
      <trkpt lat="44.58195" lon="3.16843">
        <ele>1240</ele>
        <time>2022-08-03T12:46:22Z</time>
      </trkpt>
      <trkpt lat="44.58195" lon="3.16843">
        <ele>1240</ele>
        <time>2022-08-03T12:46:23Z</time>
      </trkpt>
      <trkpt lat="44.58194" lon="3.16843">
        <ele>1240</ele>
        <time>2022-08-03T12:46:27Z</time>
      </trkpt>
      <trkpt lat="44.58192" lon="3.16835">
        <ele>1239.8</ele>
        <time>2022-08-03T12:46:33Z</time>
      </trkpt>
      <trkpt lat="44.5819" lon="3.16829">
        <ele>1239.8</ele>
        <time>2022-08-03T12:46:42Z</time>
      </trkpt>
      <trkpt lat="44.58187" lon="3.1681">
        <ele>1240</ele>
        <time>2022-08-03T12:46:55Z</time>
      </trkpt>
      <trkpt lat="44.58186" lon="3.16805">
        <ele>1240.1</ele>
        <time>2022-08-03T12:47:03Z</time>
      </trkpt>
      <trkpt lat="44.58182" lon="3.16789">
        <ele>1240</ele>
        <time>2022-08-03T12:47:13Z</time>
      </trkpt>
      <trkpt lat="44.58182" lon="3.16785">
        <ele>1240.1</ele>
        <time>2022-08-03T12:47:18Z</time>
      </trkpt>
      <trkpt lat="44.58182" lon="3.16785">
        <ele>1240.1</ele>
        <time>2022-08-03T12:47:20Z</time>
      </trkpt>
      <trkpt lat="44.58182" lon="3.16785">
        <ele>1240</ele>
        <time>2022-08-03T12:47:30Z</time>
      </trkpt>
      <trkpt lat="44.58182" lon="3.16784">
        <ele>1240</ele>
        <time>2022-08-03T12:47:37Z</time>
      </trkpt>
      <trkpt lat="44.58179" lon="3.16779">
        <ele>1239.8</ele>
        <time>2022-08-03T12:47:40Z</time>
      </trkpt>
      <trkpt lat="44.58175" lon="3.16765">
        <ele>1239.3</ele>
        <time>2022-08-03T12:47:47Z</time>
      </trkpt>
      <trkpt lat="44.58168" lon="3.16747">
        <ele>1238.4</ele>
        <time>2022-08-03T12:47:59Z</time>
      </trkpt>
      <trkpt lat="44.58161" lon="3.16725">
        <ele>1237.9</ele>
        <time>2022-08-03T12:48:12Z</time>
      </trkpt>
      <trkpt lat="44.58161" lon="3.16724">
        <ele>1237.9</ele>
        <time>2022-08-03T12:48:13Z</time>
      </trkpt>
      <trkpt lat="44.58158" lon="3.16708">
        <ele>1237.6</ele>
        <time>2022-08-03T12:48:21Z</time>
      </trkpt>
      <trkpt lat="44.58154" lon="3.16695">
        <ele>1236.8</ele>
        <time>2022-08-03T12:48:30Z</time>
      </trkpt>
      <trkpt lat="44.58153" lon="3.1669">
        <ele>1236.5</ele>
        <time>2022-08-03T12:48:33Z</time>
      </trkpt>
      <trkpt lat="44.58151" lon="3.16682">
        <ele>1236.2</ele>
        <time>2022-08-03T12:48:38Z</time>
      </trkpt>
      <trkpt lat="44.58149" lon="3.16676">
        <ele>1235.9</ele>
        <time>2022-08-03T12:48:42Z</time>
      </trkpt>
      <trkpt lat="44.58147" lon="3.16666">
        <ele>1235.7</ele>
        <time>2022-08-03T12:48:48Z</time>
      </trkpt>
      <trkpt lat="44.58145" lon="3.16663">
        <ele>1235.3</ele>
        <time>2022-08-03T12:48:50Z</time>
      </trkpt>
      <trkpt lat="44.58143" lon="3.16655">
        <ele>1234.6</ele>
        <time>2022-08-03T12:48:55Z</time>
      </trkpt>
      <trkpt lat="44.58141" lon="3.16647">
        <ele>1233.7</ele>
        <time>2022-08-03T12:49:00Z</time>
      </trkpt>
      <trkpt lat="44.58137" lon="3.16634">
        <ele>1232.8</ele>
        <time>2022-08-03T12:49:08Z</time>
      </trkpt>
      <trkpt lat="44.58136" lon="3.16632">
        <ele>1232.7</ele>
        <time>2022-08-03T12:49:09Z</time>
      </trkpt>
      <trkpt lat="44.58129" lon="3.16616">
        <ele>1232.4</ele>
        <time>2022-08-03T12:49:19Z</time>
      </trkpt>
      <trkpt lat="44.58127" lon="3.16608">
        <ele>1232.3</ele>
        <time>2022-08-03T12:49:24Z</time>
      </trkpt>
      <trkpt lat="44.58121" lon="3.16597">
        <ele>1231.6</ele>
        <time>2022-08-03T12:49:32Z</time>
      </trkpt>
      <trkpt lat="44.58113" lon="3.16588">
        <ele>1230.3</ele>
        <time>2022-08-03T12:49:40Z</time>
      </trkpt>
      <trkpt lat="44.58112" lon="3.16586">
        <ele>1230.1</ele>
        <time>2022-08-03T12:49:42Z</time>
      </trkpt>
      <trkpt lat="44.58106" lon="3.16577">
        <ele>1228.9</ele>
        <time>2022-08-03T12:49:49Z</time>
      </trkpt>
      <trkpt lat="44.58101" lon="3.16569">
        <ele>1227.7</ele>
        <time>2022-08-03T12:49:56Z</time>
      </trkpt>
      <trkpt lat="44.58098" lon="3.16564">
        <ele>1227.1</ele>
        <time>2022-08-03T12:50:00Z</time>
      </trkpt>
      <trkpt lat="44.58094" lon="3.16558">
        <ele>1226.3</ele>
        <time>2022-08-03T12:50:05Z</time>
      </trkpt>
      <trkpt lat="44.58093" lon="3.16555">
        <ele>1226.1</ele>
        <time>2022-08-03T12:50:07Z</time>
      </trkpt>
      <trkpt lat="44.58089" lon="3.16548">
        <ele>1225.1</ele>
        <time>2022-08-03T12:50:13Z</time>
      </trkpt>
      <trkpt lat="44.58087" lon="3.16544">
        <ele>1224.4</ele>
        <time>2022-08-03T12:50:16Z</time>
      </trkpt>
      <trkpt lat="44.58085" lon="3.16538">
        <ele>1223.8</ele>
        <time>2022-08-03T12:50:20Z</time>
      </trkpt>
      <trkpt lat="44.58083" lon="3.1653">
        <ele>1223</ele>
        <time>2022-08-03T12:50:25Z</time>
      </trkpt>
      <trkpt lat="44.58082" lon="3.16528">
        <ele>1222.8</ele>
        <time>2022-08-03T12:50:27Z</time>
      </trkpt>
      <trkpt lat="44.58078" lon="3.16518">
        <ele>1221.6</ele>
        <time>2022-08-03T12:50:33Z</time>
      </trkpt>
      <trkpt lat="44.58076" lon="3.16515">
        <ele>1221.1</ele>
        <time>2022-08-03T12:50:36Z</time>
      </trkpt>
      <trkpt lat="44.58074" lon="3.16511">
        <ele>1220.7</ele>
        <time>2022-08-03T12:50:39Z</time>
      </trkpt>
      <trkpt lat="44.58074" lon="3.1651">
        <ele>1220.6</ele>
        <time>2022-08-03T12:50:40Z</time>
      </trkpt>
      <trkpt lat="44.5807" lon="3.16499">
        <ele>1219.5</ele>
        <time>2022-08-03T12:50:47Z</time>
      </trkpt>
      <trkpt lat="44.58068" lon="3.16494">
        <ele>1219.1</ele>
        <time>2022-08-03T12:50:50Z</time>
      </trkpt>
      <trkpt lat="44.58064" lon="3.16478">
        <ele>1217.6</ele>
        <time>2022-08-03T12:51:00Z</time>
      </trkpt>
      <trkpt lat="44.58064" lon="3.16472">
        <ele>1217.2</ele>
        <time>2022-08-03T12:51:04Z</time>
      </trkpt>
      <trkpt lat="44.58066" lon="3.1646">
        <ele>1216.8</ele>
        <time>2022-08-03T12:51:11Z</time>
      </trkpt>
      <trkpt lat="44.58068" lon="3.16451">
        <ele>1216.6</ele>
        <time>2022-08-03T12:51:16Z</time>
      </trkpt>
      <trkpt lat="44.5807" lon="3.16436">
        <ele>1216</ele>
        <time>2022-08-03T12:51:25Z</time>
      </trkpt>
      <trkpt lat="44.58073" lon="3.16421">
        <ele>1215.2</ele>
        <time>2022-08-03T12:51:34Z</time>
      </trkpt>
      <trkpt lat="44.58075" lon="3.16412">
        <ele>1214.8</ele>
        <time>2022-08-03T12:51:39Z</time>
      </trkpt>
      <trkpt lat="44.58076" lon="3.16402">
        <ele>1214.1</ele>
        <time>2022-08-03T12:51:45Z</time>
      </trkpt>
      <trkpt lat="44.58077" lon="3.16395">
        <ele>1213.7</ele>
        <time>2022-08-03T12:51:49Z</time>
      </trkpt>
      <trkpt lat="44.58079" lon="3.16381">
        <ele>1213.2</ele>
        <time>2022-08-03T12:51:57Z</time>
      </trkpt>
      <trkpt lat="44.5808" lon="3.16378">
        <ele>1213.2</ele>
        <time>2022-08-03T12:51:58Z</time>
      </trkpt>
      <trkpt lat="44.5808" lon="3.16366">
        <ele>1212.7</ele>
        <time>2022-08-03T12:52:05Z</time>
      </trkpt>
      <trkpt lat="44.5808" lon="3.16364">
        <ele>1212.7</ele>
        <time>2022-08-03T12:52:06Z</time>
      </trkpt>
      <trkpt lat="44.58081" lon="3.16353">
        <ele>1212.1</ele>
        <time>2022-08-03T12:52:13Z</time>
      </trkpt>
      <trkpt lat="44.58081" lon="3.16351">
        <ele>1212</ele>
        <time>2022-08-03T12:52:14Z</time>
      </trkpt>
      <trkpt lat="44.58081" lon="3.16349">
        <ele>1211.9</ele>
        <time>2022-08-03T12:52:15Z</time>
      </trkpt>
      <trkpt lat="44.58082" lon="3.16338">
        <ele>1211.2</ele>
        <time>2022-08-03T12:52:21Z</time>
      </trkpt>
      <trkpt lat="44.58083" lon="3.16334">
        <ele>1210.9</ele>
        <time>2022-08-03T12:52:23Z</time>
      </trkpt>
      <trkpt lat="44.58083" lon="3.16321">
        <ele>1210.1</ele>
        <time>2022-08-03T12:52:30Z</time>
      </trkpt>
      <trkpt lat="44.58083" lon="3.16311">
        <ele>1209.4</ele>
        <time>2022-08-03T12:52:36Z</time>
      </trkpt>
      <trkpt lat="44.58084" lon="3.16308">
        <ele>1209.2</ele>
        <time>2022-08-03T12:52:38Z</time>
      </trkpt>
      <trkpt lat="44.58084" lon="3.16307">
        <ele>1209.2</ele>
        <time>2022-08-03T12:52:40Z</time>
      </trkpt>
      <trkpt lat="44.58085" lon="3.16307">
        <ele>1209.3</ele>
        <time>2022-08-03T12:52:42Z</time>
      </trkpt>
      <trkpt lat="44.58085" lon="3.16306">
        <ele>1209.3</ele>
        <time>2022-08-03T12:52:43Z</time>
      </trkpt>
      <trkpt lat="44.58084" lon="3.16298">
        <ele>1208.8</ele>
        <time>2022-08-03T12:52:49Z</time>
      </trkpt>
      <trkpt lat="44.58084" lon="3.16293">
        <ele>1208.6</ele>
        <time>2022-08-03T12:52:52Z</time>
      </trkpt>
      <trkpt lat="44.58084" lon="3.16276">
        <ele>1207.9</ele>
        <time>2022-08-03T12:53:02Z</time>
      </trkpt>
      <trkpt lat="44.58084" lon="3.16273">
        <ele>1207.7</ele>
        <time>2022-08-03T12:53:04Z</time>
      </trkpt>
      <trkpt lat="44.58082" lon="3.16258">
        <ele>1206.4</ele>
        <time>2022-08-03T12:53:13Z</time>
      </trkpt>
      <trkpt lat="44.58082" lon="3.16251">
        <ele>1205.8</ele>
        <time>2022-08-03T12:53:17Z</time>
      </trkpt>
      <trkpt lat="44.5808" lon="3.16235">
        <ele>1205.5</ele>
        <time>2022-08-03T12:53:26Z</time>
      </trkpt>
      <trkpt lat="44.58081" lon="3.16226">
        <ele>1205.5</ele>
        <time>2022-08-03T12:53:31Z</time>
      </trkpt>
      <trkpt lat="44.5808" lon="3.16208">
        <ele>1204.4</ele>
        <time>2022-08-03T12:53:41Z</time>
      </trkpt>
      <trkpt lat="44.58079" lon="3.16203">
        <ele>1204.1</ele>
        <time>2022-08-03T12:53:44Z</time>
      </trkpt>
      <trkpt lat="44.58079" lon="3.16194">
        <ele>1203.5</ele>
        <time>2022-08-03T12:53:49Z</time>
      </trkpt>
      <trkpt lat="44.58075" lon="3.16179">
        <ele>1202.9</ele>
        <time>2022-08-03T12:53:58Z</time>
      </trkpt>
      <trkpt lat="44.5807" lon="3.16171">
        <ele>1202.2</ele>
        <time>2022-08-03T12:54:04Z</time>
      </trkpt>
      <trkpt lat="44.58068" lon="3.16168">
        <ele>1201.9</ele>
        <time>2022-08-03T12:54:06Z</time>
      </trkpt>
      <trkpt lat="44.58065" lon="3.16159">
        <ele>1201.6</ele>
        <time>2022-08-03T12:54:12Z</time>
      </trkpt>
      <trkpt lat="44.58065" lon="3.16157">
        <ele>1201.5</ele>
        <time>2022-08-03T12:54:13Z</time>
      </trkpt>
      <trkpt lat="44.58063" lon="3.16156">
        <ele>1201.4</ele>
        <time>2022-08-03T12:54:15Z</time>
      </trkpt>
      <trkpt lat="44.58062" lon="3.16153">
        <ele>1201.3</ele>
        <time>2022-08-03T12:54:18Z</time>
      </trkpt>
      <trkpt lat="44.58063" lon="3.16149">
        <ele>1201.5</ele>
        <time>2022-08-03T12:54:21Z</time>
      </trkpt>
      <trkpt lat="44.58062" lon="3.16147">
        <ele>1201.5</ele>
        <time>2022-08-03T12:54:24Z</time>
      </trkpt>
      <trkpt lat="44.58062" lon="3.16146">
        <ele>1201.5</ele>
        <time>2022-08-03T12:54:27Z</time>
      </trkpt>
      <trkpt lat="44.58061" lon="3.16144">
        <ele>1201.5</ele>
        <time>2022-08-03T12:54:29Z</time>
      </trkpt>
      <trkpt lat="44.58061" lon="3.1614">
        <ele>1201.5</ele>
        <time>2022-08-03T12:54:33Z</time>
      </trkpt>
      <trkpt lat="44.58062" lon="3.16139">
        <ele>1201.6</ele>
        <time>2022-08-03T12:54:39Z</time>
      </trkpt>
      <trkpt lat="44.58062" lon="3.1613">
        <ele>1201.9</ele>
        <time>2022-08-03T12:54:46Z</time>
      </trkpt>
      <trkpt lat="44.58058" lon="3.16123">
        <ele>1201.8</ele>
        <time>2022-08-03T12:54:53Z</time>
      </trkpt>
      <trkpt lat="44.58051" lon="3.16116">
        <ele>1201.1</ele>
        <time>2022-08-03T12:55:01Z</time>
      </trkpt>
      <trkpt lat="44.5805" lon="3.16115">
        <ele>1201</ele>
        <time>2022-08-03T12:55:02Z</time>
      </trkpt>
      <trkpt lat="44.58045" lon="3.16112">
        <ele>1200.5</ele>
        <time>2022-08-03T12:55:08Z</time>
      </trkpt>
      <trkpt lat="44.58045" lon="3.16112">
        <ele>1200.5</ele>
        <time>2022-08-03T12:55:09Z</time>
      </trkpt>
      <trkpt lat="44.58048" lon="3.16113">
        <ele>1200.9</ele>
        <time>2022-08-03T12:55:16Z</time>
      </trkpt>
      <trkpt lat="44.58049" lon="3.16113">
        <ele>1201</ele>
        <time>2022-08-03T12:55:17Z</time>
      </trkpt>
      <trkpt lat="44.58055" lon="3.16119">
        <ele>1201.7</ele>
        <time>2022-08-03T12:55:24Z</time>
      </trkpt>
      <trkpt lat="44.58062" lon="3.16133">
        <ele>1201.8</ele>
        <time>2022-08-03T12:55:33Z</time>
      </trkpt>
      <trkpt lat="44.58063" lon="3.16143">
        <ele>1201.7</ele>
        <time>2022-08-03T12:55:41Z</time>
      </trkpt>
      <trkpt lat="44.58063" lon="3.16143">
        <ele>1201.7</ele>
        <time>2022-08-03T12:55:42Z</time>
      </trkpt>
      <trkpt lat="44.58062" lon="3.16141">
        <ele>1201.7</ele>
        <time>2022-08-03T12:55:50Z</time>
      </trkpt>
      <trkpt lat="44.58066" lon="3.16142">
        <ele>1202</ele>
        <time>2022-08-03T12:56:21Z</time>
      </trkpt>
      <trkpt lat="44.58066" lon="3.16144">
        <ele>1202</ele>
        <time>2022-08-03T12:56:56Z</time>
      </trkpt>
      <trkpt lat="44.5806" lon="3.16129">
        <ele>1201.8</ele>
        <time>2022-08-03T13:36:32Z</time>
      </trkpt>
      <trkpt lat="44.58058" lon="3.16126">
        <ele>1201.6</ele>
        <time>2022-08-03T13:36:35Z</time>
      </trkpt>
      <trkpt lat="44.58055" lon="3.16118">
        <ele>1201.7</ele>
        <time>2022-08-03T13:36:41Z</time>
      </trkpt>
      <trkpt lat="44.58053" lon="3.16116">
        <ele>1201.4</ele>
        <time>2022-08-03T13:36:43Z</time>
      </trkpt>
      <trkpt lat="44.58047" lon="3.16113">
        <ele>1200.7</ele>
        <time>2022-08-03T13:36:50Z</time>
      </trkpt>
      <trkpt lat="44.58046" lon="3.16113">
        <ele>1200.6</ele>
        <time>2022-08-03T13:36:51Z</time>
      </trkpt>
      <trkpt lat="44.58045" lon="3.16113">
        <ele>1200.5</ele>
        <time>2022-08-03T13:36:52Z</time>
      </trkpt>
      <trkpt lat="44.58039" lon="3.16113">
        <ele>1199.6</ele>
        <time>2022-08-03T13:36:59Z</time>
      </trkpt>
      <trkpt lat="44.58039" lon="3.16113">
        <ele>1199.5</ele>
        <time>2022-08-03T13:37:00Z</time>
      </trkpt>
      <trkpt lat="44.58036" lon="3.16114">
        <ele>1199.1</ele>
        <time>2022-08-03T13:37:03Z</time>
      </trkpt>
      <trkpt lat="44.58032" lon="3.16115">
        <ele>1198.5</ele>
        <time>2022-08-03T13:37:07Z</time>
      </trkpt>
      <trkpt lat="44.58027" lon="3.16118">
        <ele>1197.9</ele>
        <time>2022-08-03T13:37:11Z</time>
      </trkpt>
      <trkpt lat="44.58021" lon="3.16123">
        <ele>1196.9</ele>
        <time>2022-08-03T13:37:18Z</time>
      </trkpt>
      <trkpt lat="44.5802" lon="3.16124">
        <ele>1196.8</ele>
        <time>2022-08-03T13:37:19Z</time>
      </trkpt>
      <trkpt lat="44.58016" lon="3.16125">
        <ele>1196</ele>
        <time>2022-08-03T13:37:24Z</time>
      </trkpt>
      <trkpt lat="44.58014" lon="3.16125">
        <ele>1195.7</ele>
        <time>2022-08-03T13:37:27Z</time>
      </trkpt>
      <trkpt lat="44.58014" lon="3.16125">
        <ele>1195.7</ele>
        <time>2022-08-03T13:37:28Z</time>
      </trkpt>
      <trkpt lat="44.58012" lon="3.16124">
        <ele>1195.5</ele>
        <time>2022-08-03T13:37:30Z</time>
      </trkpt>
      <trkpt lat="44.58009" lon="3.16124">
        <ele>1195</ele>
        <time>2022-08-03T13:37:33Z</time>
      </trkpt>
      <trkpt lat="44.58003" lon="3.16117">
        <ele>1194.3</ele>
        <time>2022-08-03T13:37:40Z</time>
      </trkpt>
      <trkpt lat="44.58" lon="3.16114">
        <ele>1193.9</ele>
        <time>2022-08-03T13:37:44Z</time>
      </trkpt>
      <trkpt lat="44.5799" lon="3.16105">
        <ele>1192.5</ele>
        <time>2022-08-03T13:37:54Z</time>
      </trkpt>
      <trkpt lat="44.57987" lon="3.16101">
        <ele>1192.1</ele>
        <time>2022-08-03T13:37:58Z</time>
      </trkpt>
      <trkpt lat="44.5798" lon="3.1609">
        <ele>1191.5</ele>
        <time>2022-08-03T13:38:07Z</time>
      </trkpt>
      <trkpt lat="44.57978" lon="3.16086">
        <ele>1191.4</ele>
        <time>2022-08-03T13:38:10Z</time>
      </trkpt>
      <trkpt lat="44.57974" lon="3.16079">
        <ele>1191</ele>
        <time>2022-08-03T13:38:17Z</time>
      </trkpt>
      <trkpt lat="44.57973" lon="3.16079">
        <ele>1190.9</ele>
        <time>2022-08-03T13:38:18Z</time>
      </trkpt>
      <trkpt lat="44.57972" lon="3.1608">
        <ele>1190.8</ele>
        <time>2022-08-03T13:38:20Z</time>
      </trkpt>
      <trkpt lat="44.57972" lon="3.16079">
        <ele>1190.8</ele>
        <time>2022-08-03T13:38:23Z</time>
      </trkpt>
      <trkpt lat="44.57972" lon="3.16079">
        <ele>1190.9</ele>
        <time>2022-08-03T13:38:28Z</time>
      </trkpt>
      <trkpt lat="44.57974" lon="3.16078">
        <ele>1191</ele>
        <time>2022-08-03T13:38:35Z</time>
      </trkpt>
      <trkpt lat="44.57969" lon="3.16071">
        <ele>1190.1</ele>
        <time>2022-08-03T13:38:55Z</time>
      </trkpt>
      <trkpt lat="44.57963" lon="3.16065">
        <ele>1189.1</ele>
        <time>2022-08-03T13:39:00Z</time>
      </trkpt>
      <trkpt lat="44.57958" lon="3.16058">
        <ele>1188.1</ele>
        <time>2022-08-03T13:39:06Z</time>
      </trkpt>
      <trkpt lat="44.57958" lon="3.16055">
        <ele>1187.8</ele>
        <time>2022-08-03T13:39:08Z</time>
      </trkpt>
      <trkpt lat="44.57957" lon="3.16043">
        <ele>1187</ele>
        <time>2022-08-03T13:39:15Z</time>
      </trkpt>
      <trkpt lat="44.57957" lon="3.16035">
        <ele>1186.4</ele>
        <time>2022-08-03T13:39:20Z</time>
      </trkpt>
      <trkpt lat="44.57956" lon="3.16028">
        <ele>1185.8</ele>
        <time>2022-08-03T13:39:26Z</time>
      </trkpt>
      <trkpt lat="44.57956" lon="3.16028">
        <ele>1185.9</ele>
        <time>2022-08-03T13:39:27Z</time>
      </trkpt>
      <trkpt lat="44.57955" lon="3.16028">
        <ele>1185.8</ele>
        <time>2022-08-03T13:39:31Z</time>
      </trkpt>
      <trkpt lat="44.57955" lon="3.16027">
        <ele>1185.8</ele>
        <time>2022-08-03T13:39:32Z</time>
      </trkpt>
      <trkpt lat="44.57953" lon="3.1602">
        <ele>1185.4</ele>
        <time>2022-08-03T13:39:37Z</time>
      </trkpt>
      <trkpt lat="44.57947" lon="3.16007">
        <ele>1184.5</ele>
        <time>2022-08-03T13:39:46Z</time>
      </trkpt>
      <trkpt lat="44.57941" lon="3.15989">
        <ele>1183.6</ele>
        <time>2022-08-03T13:39:57Z</time>
      </trkpt>
      <trkpt lat="44.57939" lon="3.15983">
        <ele>1183.6</ele>
        <time>2022-08-03T13:40:02Z</time>
      </trkpt>
      <trkpt lat="44.5794" lon="3.15983">
        <ele>1183.7</ele>
        <time>2022-08-03T13:40:04Z</time>
      </trkpt>
      <trkpt lat="44.57942" lon="3.15983">
        <ele>1183.8</ele>
        <time>2022-08-03T13:40:08Z</time>
      </trkpt>
      <trkpt lat="44.57942" lon="3.15983">
        <ele>1183.8</ele>
        <time>2022-08-03T13:40:09Z</time>
      </trkpt>
      <trkpt lat="44.5794" lon="3.15982">
        <ele>1183.7</ele>
        <time>2022-08-03T13:40:18Z</time>
      </trkpt>
      <trkpt lat="44.57936" lon="3.15976">
        <ele>1183.5</ele>
        <time>2022-08-03T13:40:23Z</time>
      </trkpt>
      <trkpt lat="44.57927" lon="3.15967">
        <ele>1183.7</ele>
        <time>2022-08-03T13:40:33Z</time>
      </trkpt>
      <trkpt lat="44.57926" lon="3.15967">
        <ele>1183.8</ele>
        <time>2022-08-03T13:40:35Z</time>
      </trkpt>
      <trkpt lat="44.57925" lon="3.15966">
        <ele>1183.8</ele>
        <time>2022-08-03T13:40:37Z</time>
      </trkpt>
      <trkpt lat="44.57923" lon="3.15966">
        <ele>1183.7</ele>
        <time>2022-08-03T13:40:38Z</time>
      </trkpt>
      <trkpt lat="44.57922" lon="3.15965">
        <ele>1183.7</ele>
        <time>2022-08-03T13:40:39Z</time>
      </trkpt>
      <trkpt lat="44.5791" lon="3.15961">
        <ele>1183.8</ele>
        <time>2022-08-03T13:40:49Z</time>
      </trkpt>
      <trkpt lat="44.57908" lon="3.1596">
        <ele>1183.9</ele>
        <time>2022-08-03T13:40:51Z</time>
      </trkpt>
      <trkpt lat="44.57901" lon="3.15956">
        <ele>1184.1</ele>
        <time>2022-08-03T13:40:57Z</time>
      </trkpt>
      <trkpt lat="44.57895" lon="3.15953">
        <ele>1184.4</ele>
        <time>2022-08-03T13:41:02Z</time>
      </trkpt>
      <trkpt lat="44.5789" lon="3.1595">
        <ele>1184.6</ele>
        <time>2022-08-03T13:41:07Z</time>
      </trkpt>
      <trkpt lat="44.5788" lon="3.15943">
        <ele>1185.1</ele>
        <time>2022-08-03T13:41:16Z</time>
      </trkpt>
      <trkpt lat="44.57872" lon="3.15931">
        <ele>1186.1</ele>
        <time>2022-08-03T13:41:26Z</time>
      </trkpt>
      <trkpt lat="44.57868" lon="3.15923">
        <ele>1186.8</ele>
        <time>2022-08-03T13:41:32Z</time>
      </trkpt>
      <trkpt lat="44.57868" lon="3.1592">
        <ele>1187</ele>
        <time>2022-08-03T13:41:34Z</time>
      </trkpt>
      <trkpt lat="44.57867" lon="3.15917">
        <ele>1187.2</ele>
        <time>2022-08-03T13:41:36Z</time>
      </trkpt>
      <trkpt lat="44.57866" lon="3.15913">
        <ele>1187.5</ele>
        <time>2022-08-03T13:41:39Z</time>
      </trkpt>
      <trkpt lat="44.57864" lon="3.15907">
        <ele>1187.8</ele>
        <time>2022-08-03T13:41:43Z</time>
      </trkpt>
      <trkpt lat="44.57861" lon="3.15898">
        <ele>1188.3</ele>
        <time>2022-08-03T13:41:50Z</time>
      </trkpt>
      <trkpt lat="44.57861" lon="3.15898">
        <ele>1188.4</ele>
        <time>2022-08-03T13:41:51Z</time>
      </trkpt>
      <trkpt lat="44.57863" lon="3.15894">
        <ele>1188.8</ele>
        <time>2022-08-03T13:41:55Z</time>
      </trkpt>
      <trkpt lat="44.57863" lon="3.15893">
        <ele>1188.9</ele>
        <time>2022-08-03T13:41:56Z</time>
      </trkpt>
      <trkpt lat="44.57863" lon="3.15894">
        <ele>1188.8</ele>
        <time>2022-08-03T13:41:58Z</time>
      </trkpt>
      <trkpt lat="44.57861" lon="3.15894">
        <ele>1188.6</ele>
        <time>2022-08-03T13:42:00Z</time>
      </trkpt>
      <trkpt lat="44.57858" lon="3.1589">
        <ele>1188.6</ele>
        <time>2022-08-03T13:42:06Z</time>
      </trkpt>
      <trkpt lat="44.57858" lon="3.1589">
        <ele>1188.6</ele>
        <time>2022-08-03T13:42:07Z</time>
      </trkpt>
      <trkpt lat="44.57858" lon="3.1589">
        <ele>1188.5</ele>
        <time>2022-08-03T13:42:12Z</time>
      </trkpt>
      <trkpt lat="44.57857" lon="3.15891">
        <ele>1188.4</ele>
        <time>2022-08-03T13:42:18Z</time>
      </trkpt>
      <trkpt lat="44.5786" lon="3.15895">
        <ele>1188.4</ele>
        <time>2022-08-03T13:42:24Z</time>
      </trkpt>
      <trkpt lat="44.5786" lon="3.15895">
        <ele>1188.5</ele>
        <time>2022-08-03T13:42:34Z</time>
      </trkpt>
      <trkpt lat="44.57861" lon="3.15895">
        <ele>1188.5</ele>
        <time>2022-08-03T13:42:47Z</time>
      </trkpt>
      <trkpt lat="44.57862" lon="3.15895">
        <ele>1188.6</ele>
        <time>2022-08-03T13:43:05Z</time>
      </trkpt>
      <trkpt lat="44.57862" lon="3.15894">
        <ele>1188.7</ele>
        <time>2022-08-03T13:44:48Z</time>
      </trkpt>
      <trkpt lat="44.57864" lon="3.15894">
        <ele>1188.8</ele>
        <time>2022-08-03T13:45:03Z</time>
      </trkpt>
      <trkpt lat="44.57866" lon="3.15892">
        <ele>1189.1</ele>
        <time>2022-08-03T13:45:05Z</time>
      </trkpt>
      <trkpt lat="44.5787" lon="3.15879">
        <ele>1190.4</ele>
        <time>2022-08-03T13:45:14Z</time>
      </trkpt>
      <trkpt lat="44.57869" lon="3.15872">
        <ele>1190.8</ele>
        <time>2022-08-03T13:45:22Z</time>
      </trkpt>
      <trkpt lat="44.57869" lon="3.15872">
        <ele>1190.8</ele>
        <time>2022-08-03T13:45:23Z</time>
      </trkpt>
      <trkpt lat="44.5787" lon="3.15872">
        <ele>1190.8</ele>
        <time>2022-08-03T13:45:31Z</time>
      </trkpt>
      <trkpt lat="44.5787" lon="3.15872">
        <ele>1190.9</ele>
        <time>2022-08-03T13:45:32Z</time>
      </trkpt>
      <trkpt lat="44.57869" lon="3.15873">
        <ele>1190.7</ele>
        <time>2022-08-03T13:46:23Z</time>
      </trkpt>
      <trkpt lat="44.57869" lon="3.15877">
        <ele>1190.4</ele>
        <time>2022-08-03T13:46:52Z</time>
      </trkpt>
      <trkpt lat="44.57869" lon="3.15878">
        <ele>1190.3</ele>
        <time>2022-08-03T13:46:53Z</time>
      </trkpt>
      <trkpt lat="44.5787" lon="3.15883">
        <ele>1190.1</ele>
        <time>2022-08-03T13:46:58Z</time>
      </trkpt>
      <trkpt lat="44.5787" lon="3.15883">
        <ele>1190.1</ele>
        <time>2022-08-03T13:47:00Z</time>
      </trkpt>
      <trkpt lat="44.57868" lon="3.1589">
        <ele>1189.4</ele>
        <time>2022-08-03T13:47:07Z</time>
      </trkpt>
      <trkpt lat="44.57867" lon="3.15893">
        <ele>1189.1</ele>
        <time>2022-08-03T13:47:10Z</time>
      </trkpt>
      <trkpt lat="44.57867" lon="3.15893">
        <ele>1189.1</ele>
        <time>2022-08-03T13:47:14Z</time>
      </trkpt>
      <trkpt lat="44.57863" lon="3.15895">
        <ele>1188.6</ele>
        <time>2022-08-03T13:47:22Z</time>
      </trkpt>
      <trkpt lat="44.57862" lon="3.15894">
        <ele>1188.7</ele>
        <time>2022-08-03T13:47:27Z</time>
      </trkpt>
      <trkpt lat="44.57862" lon="3.15895">
        <ele>1188.6</ele>
        <time>2022-08-03T13:47:33Z</time>
      </trkpt>
      <trkpt lat="44.57862" lon="3.15895">
        <ele>1188.6</ele>
        <time>2022-08-03T13:47:52Z</time>
      </trkpt>
      <trkpt lat="44.57861" lon="3.15893">
        <ele>1188.7</ele>
        <time>2022-08-03T13:48:38Z</time>
      </trkpt>
      <trkpt lat="44.57861" lon="3.15893">
        <ele>1188.7</ele>
        <time>2022-08-03T13:48:50Z</time>
      </trkpt>
      <trkpt lat="44.57862" lon="3.15896">
        <ele>1188.6</ele>
        <time>2022-08-03T13:49:32Z</time>
      </trkpt>
      <trkpt lat="44.57862" lon="3.15894">
        <ele>1188.7</ele>
        <time>2022-08-03T13:49:47Z</time>
      </trkpt>
      <trkpt lat="44.57858" lon="3.15889">
        <ele>1188.7</ele>
        <time>2022-08-03T13:50:02Z</time>
      </trkpt>
      <trkpt lat="44.57855" lon="3.15884">
        <ele>1188.7</ele>
        <time>2022-08-03T13:50:05Z</time>
      </trkpt>
      <trkpt lat="44.57855" lon="3.15882">
        <ele>1188.7</ele>
        <time>2022-08-03T13:50:07Z</time>
      </trkpt>
      <trkpt lat="44.57853" lon="3.1588">
        <ele>1188.7</ele>
        <time>2022-08-03T13:50:09Z</time>
      </trkpt>
      <trkpt lat="44.5785" lon="3.15873">
        <ele>1188.8</ele>
        <time>2022-08-03T13:50:14Z</time>
      </trkpt>
      <trkpt lat="44.5785" lon="3.15871">
        <ele>1188.9</ele>
        <time>2022-08-03T13:50:17Z</time>
      </trkpt>
      <trkpt lat="44.5785" lon="3.1587">
        <ele>1188.9</ele>
        <time>2022-08-03T13:50:18Z</time>
      </trkpt>
      <trkpt lat="44.57849" lon="3.15868">
        <ele>1188.9</ele>
        <time>2022-08-03T13:50:19Z</time>
      </trkpt>
      <trkpt lat="44.57845" lon="3.15856">
        <ele>1188.6</ele>
        <time>2022-08-03T13:50:27Z</time>
      </trkpt>
      <trkpt lat="44.57839" lon="3.15844">
        <ele>1187.5</ele>
        <time>2022-08-03T13:50:35Z</time>
      </trkpt>
      <trkpt lat="44.57839" lon="3.15843">
        <ele>1187.4</ele>
        <time>2022-08-03T13:50:36Z</time>
      </trkpt>
      <trkpt lat="44.5783" lon="3.15833">
        <ele>1185.4</ele>
        <time>2022-08-03T13:50:46Z</time>
      </trkpt>
      <trkpt lat="44.57826" lon="3.15829">
        <ele>1184.7</ele>
        <time>2022-08-03T13:50:50Z</time>
      </trkpt>
      <trkpt lat="44.57824" lon="3.15825">
        <ele>1184.2</ele>
        <time>2022-08-03T13:50:53Z</time>
      </trkpt>
      <trkpt lat="44.57822" lon="3.15823">
        <ele>1184</ele>
        <time>2022-08-03T13:50:57Z</time>
      </trkpt>
      <trkpt lat="44.57822" lon="3.15823">
        <ele>1184</ele>
        <time>2022-08-03T13:50:59Z</time>
      </trkpt>
      <trkpt lat="44.57818" lon="3.15817">
        <ele>1183.2</ele>
        <time>2022-08-03T13:51:07Z</time>
      </trkpt>
      <trkpt lat="44.57813" lon="3.1581">
        <ele>1182.4</ele>
        <time>2022-08-03T13:51:13Z</time>
      </trkpt>
      <trkpt lat="44.57811" lon="3.15807">
        <ele>1182</ele>
        <time>2022-08-03T13:51:16Z</time>
      </trkpt>
      <trkpt lat="44.57809" lon="3.15801">
        <ele>1181.5</ele>
        <time>2022-08-03T13:51:20Z</time>
      </trkpt>
      <trkpt lat="44.57808" lon="3.158">
        <ele>1181.4</ele>
        <time>2022-08-03T13:51:21Z</time>
      </trkpt>
      <trkpt lat="44.57807" lon="3.15795">
        <ele>1181.2</ele>
        <time>2022-08-03T13:51:24Z</time>
      </trkpt>
      <trkpt lat="44.57804" lon="3.15781">
        <ele>1180.8</ele>
        <time>2022-08-03T13:51:32Z</time>
      </trkpt>
      <trkpt lat="44.57803" lon="3.15769">
        <ele>1180.2</ele>
        <time>2022-08-03T13:51:39Z</time>
      </trkpt>
      <trkpt lat="44.57803" lon="3.15759">
        <ele>1179.8</ele>
        <time>2022-08-03T13:51:45Z</time>
      </trkpt>
      <trkpt lat="44.57803" lon="3.15755">
        <ele>1179.6</ele>
        <time>2022-08-03T13:51:48Z</time>
      </trkpt>
      <trkpt lat="44.57802" lon="3.15749">
        <ele>1179.3</ele>
        <time>2022-08-03T13:51:52Z</time>
      </trkpt>
      <trkpt lat="44.57801" lon="3.15741">
        <ele>1178.5</ele>
        <time>2022-08-03T13:51:57Z</time>
      </trkpt>
      <trkpt lat="44.57801" lon="3.15739">
        <ele>1178.3</ele>
        <time>2022-08-03T13:51:58Z</time>
      </trkpt>
      <trkpt lat="44.57799" lon="3.15734">
        <ele>1177.7</ele>
        <time>2022-08-03T13:52:01Z</time>
      </trkpt>
      <trkpt lat="44.57797" lon="3.15729">
        <ele>1177</ele>
        <time>2022-08-03T13:52:05Z</time>
      </trkpt>
      <trkpt lat="44.57796" lon="3.15727">
        <ele>1176.8</ele>
        <time>2022-08-03T13:52:06Z</time>
      </trkpt>
      <trkpt lat="44.5779" lon="3.15718">
        <ele>1175.9</ele>
        <time>2022-08-03T13:52:14Z</time>
      </trkpt>
      <trkpt lat="44.57789" lon="3.15717">
        <ele>1175.8</ele>
        <time>2022-08-03T13:52:15Z</time>
      </trkpt>
      <trkpt lat="44.57788" lon="3.15717">
        <ele>1175.6</ele>
        <time>2022-08-03T13:52:16Z</time>
      </trkpt>
      <trkpt lat="44.57783" lon="3.15716">
        <ele>1175</ele>
        <time>2022-08-03T13:52:21Z</time>
      </trkpt>
      <trkpt lat="44.5777" lon="3.15713">
        <ele>1173.6</ele>
        <time>2022-08-03T13:52:32Z</time>
      </trkpt>
      <trkpt lat="44.57761" lon="3.15711">
        <ele>1172.9</ele>
        <time>2022-08-03T13:52:39Z</time>
      </trkpt>
      <trkpt lat="44.57752" lon="3.15711">
        <ele>1172.2</ele>
        <time>2022-08-03T13:52:45Z</time>
      </trkpt>
      <trkpt lat="44.57745" lon="3.15709">
        <ele>1171.3</ele>
        <time>2022-08-03T13:52:52Z</time>
      </trkpt>
      <trkpt lat="44.57739" lon="3.15704">
        <ele>1170.7</ele>
        <time>2022-08-03T13:52:57Z</time>
      </trkpt>
      <trkpt lat="44.57734" lon="3.15698">
        <ele>1170.2</ele>
        <time>2022-08-03T13:53:02Z</time>
      </trkpt>
      <trkpt lat="44.57732" lon="3.15696">
        <ele>1170</ele>
        <time>2022-08-03T13:53:04Z</time>
      </trkpt>
      <trkpt lat="44.57727" lon="3.15687">
        <ele>1169.8</ele>
        <time>2022-08-03T13:53:12Z</time>
      </trkpt>
      <trkpt lat="44.57721" lon="3.15677">
        <ele>1169.4</ele>
        <time>2022-08-03T13:53:20Z</time>
      </trkpt>
      <trkpt lat="44.57718" lon="3.15667">
        <ele>1169.5</ele>
        <time>2022-08-03T13:53:25Z</time>
      </trkpt>
      <trkpt lat="44.57712" lon="3.15654">
        <ele>1170.1</ele>
        <time>2022-08-03T13:53:33Z</time>
      </trkpt>
      <trkpt lat="44.5771" lon="3.15651">
        <ele>1170.2</ele>
        <time>2022-08-03T13:53:36Z</time>
      </trkpt>
      <trkpt lat="44.57709" lon="3.1565">
        <ele>1170.1</ele>
        <time>2022-08-03T13:53:38Z</time>
      </trkpt>
      <trkpt lat="44.57707" lon="3.15649">
        <ele>1169.9</ele>
        <time>2022-08-03T13:53:40Z</time>
      </trkpt>
      <trkpt lat="44.57706" lon="3.1565">
        <ele>1169.8</ele>
        <time>2022-08-03T13:53:41Z</time>
      </trkpt>
      <trkpt lat="44.57703" lon="3.1565">
        <ele>1169.2</ele>
        <time>2022-08-03T13:53:47Z</time>
      </trkpt>
      <trkpt lat="44.57701" lon="3.15649">
        <ele>1169.1</ele>
        <time>2022-08-03T13:53:52Z</time>
      </trkpt>
      <trkpt lat="44.57701" lon="3.15649">
        <ele>1169.1</ele>
        <time>2022-08-03T13:53:53Z</time>
      </trkpt>
      <trkpt lat="44.57701" lon="3.15649">
        <ele>1169.1</ele>
        <time>2022-08-03T13:53:58Z</time>
      </trkpt>
      <trkpt lat="44.57704" lon="3.15646">
        <ele>1169.8</ele>
        <time>2022-08-03T13:54:04Z</time>
      </trkpt>
      <trkpt lat="44.57706" lon="3.15647">
        <ele>1169.9</ele>
        <time>2022-08-03T13:54:11Z</time>
      </trkpt>
      <trkpt lat="44.57704" lon="3.15649">
        <ele>1169.6</ele>
        <time>2022-08-03T13:54:19Z</time>
      </trkpt>
      <trkpt lat="44.57698" lon="3.15653">
        <ele>1168.5</ele>
        <time>2022-08-03T13:54:25Z</time>
      </trkpt>
      <trkpt lat="44.57692" lon="3.15658">
        <ele>1167.9</ele>
        <time>2022-08-03T13:54:31Z</time>
      </trkpt>
      <trkpt lat="44.57691" lon="3.15659">
        <ele>1167.9</ele>
        <time>2022-08-03T13:54:32Z</time>
      </trkpt>
      <trkpt lat="44.57687" lon="3.15663">
        <ele>1168</ele>
        <time>2022-08-03T13:54:38Z</time>
      </trkpt>
      <trkpt lat="44.57686" lon="3.15664">
        <ele>1168.1</ele>
        <time>2022-08-03T13:54:40Z</time>
      </trkpt>
      <trkpt lat="44.57684" lon="3.15666">
        <ele>1168.2</ele>
        <time>2022-08-03T13:54:43Z</time>
      </trkpt>
      <trkpt lat="44.57684" lon="3.15666">
        <ele>1168.2</ele>
        <time>2022-08-03T13:54:44Z</time>
      </trkpt>
      <trkpt lat="44.57682" lon="3.15667">
        <ele>1168.3</ele>
        <time>2022-08-03T13:54:45Z</time>
      </trkpt>
      <trkpt lat="44.57678" lon="3.1567">
        <ele>1168.5</ele>
        <time>2022-08-03T13:54:50Z</time>
      </trkpt>
      <trkpt lat="44.57677" lon="3.15671">
        <ele>1168.5</ele>
        <time>2022-08-03T13:54:51Z</time>
      </trkpt>
      <trkpt lat="44.57668" lon="3.15677">
        <ele>1168.8</ele>
        <time>2022-08-03T13:54:57Z</time>
      </trkpt>
      <trkpt lat="44.57657" lon="3.15679">
        <ele>1169.3</ele>
        <time>2022-08-03T13:55:05Z</time>
      </trkpt>
      <trkpt lat="44.57655" lon="3.15679">
        <ele>1169.5</ele>
        <time>2022-08-03T13:55:07Z</time>
      </trkpt>
      <trkpt lat="44.57655" lon="3.15679">
        <ele>1169.6</ele>
        <time>2022-08-03T13:55:08Z</time>
      </trkpt>
      <trkpt lat="44.57655" lon="3.15678">
        <ele>1169.6</ele>
        <time>2022-08-03T13:55:09Z</time>
      </trkpt>
      <trkpt lat="44.57654" lon="3.1568">
        <ele>1169.5</ele>
        <time>2022-08-03T13:55:14Z</time>
      </trkpt>
      <trkpt lat="44.57652" lon="3.15678">
        <ele>1169.8</ele>
        <time>2022-08-03T13:55:21Z</time>
      </trkpt>
      <trkpt lat="44.57646" lon="3.15687">
        <ele>1169.3</ele>
        <time>2022-08-03T13:55:28Z</time>
      </trkpt>
      <trkpt lat="44.57637" lon="3.1569">
        <ele>1169.5</ele>
        <time>2022-08-03T13:55:34Z</time>
      </trkpt>
      <trkpt lat="44.57635" lon="3.15691">
        <ele>1169.7</ele>
        <time>2022-08-03T13:55:36Z</time>
      </trkpt>
      <trkpt lat="44.57629" lon="3.15694">
        <ele>1169.8</ele>
        <time>2022-08-03T13:55:42Z</time>
      </trkpt>
      <trkpt lat="44.57627" lon="3.15694">
        <ele>1169.8</ele>
        <time>2022-08-03T13:55:43Z</time>
      </trkpt>
      <trkpt lat="44.57624" lon="3.15695">
        <ele>1170.1</ele>
        <time>2022-08-03T13:55:46Z</time>
      </trkpt>
      <trkpt lat="44.57618" lon="3.15698">
        <ele>1170.4</ele>
        <time>2022-08-03T13:55:51Z</time>
      </trkpt>
      <trkpt lat="44.57617" lon="3.15698">
        <ele>1170.4</ele>
        <time>2022-08-03T13:55:52Z</time>
      </trkpt>
      <trkpt lat="44.5761" lon="3.15701">
        <ele>1171</ele>
        <time>2022-08-03T13:55:59Z</time>
      </trkpt>
      <trkpt lat="44.57609" lon="3.15702">
        <ele>1171.2</ele>
        <time>2022-08-03T13:56:01Z</time>
      </trkpt>
      <trkpt lat="44.57606" lon="3.15707">
        <ele>1171.5</ele>
        <time>2022-08-03T13:56:06Z</time>
      </trkpt>
      <trkpt lat="44.57605" lon="3.15708">
        <ele>1171.6</ele>
        <time>2022-08-03T13:56:07Z</time>
      </trkpt>
      <trkpt lat="44.57605" lon="3.15708">
        <ele>1171.7</ele>
        <time>2022-08-03T13:56:08Z</time>
      </trkpt>
      <trkpt lat="44.576" lon="3.15713">
        <ele>1172.4</ele>
        <time>2022-08-03T13:56:12Z</time>
      </trkpt>
      <trkpt lat="44.57599" lon="3.15714">
        <ele>1172.5</ele>
        <time>2022-08-03T13:56:13Z</time>
      </trkpt>
      <trkpt lat="44.57597" lon="3.15717">
        <ele>1172.7</ele>
        <time>2022-08-03T13:56:16Z</time>
      </trkpt>
      <trkpt lat="44.57595" lon="3.15721">
        <ele>1173</ele>
        <time>2022-08-03T13:56:19Z</time>
      </trkpt>
      <trkpt lat="44.57591" lon="3.15727">
        <ele>1173.6</ele>
        <time>2022-08-03T13:56:24Z</time>
      </trkpt>
      <trkpt lat="44.57589" lon="3.15731">
        <ele>1173.8</ele>
        <time>2022-08-03T13:56:27Z</time>
      </trkpt>
      <trkpt lat="44.57584" lon="3.15739">
        <ele>1174.3</ele>
        <time>2022-08-03T13:56:34Z</time>
      </trkpt>
      <trkpt lat="44.57582" lon="3.15742">
        <ele>1174.5</ele>
        <time>2022-08-03T13:56:36Z</time>
      </trkpt>
      <trkpt lat="44.57583" lon="3.15746">
        <ele>1174.2</ele>
        <time>2022-08-03T13:56:39Z</time>
      </trkpt>
      <trkpt lat="44.57583" lon="3.15747">
        <ele>1174.1</ele>
        <time>2022-08-03T13:56:40Z</time>
      </trkpt>
      <trkpt lat="44.57583" lon="3.15748">
        <ele>1174.2</ele>
        <time>2022-08-03T13:56:41Z</time>
      </trkpt>
      <trkpt lat="44.57579" lon="3.15753">
        <ele>1174.5</ele>
        <time>2022-08-03T13:56:45Z</time>
      </trkpt>
      <trkpt lat="44.57579" lon="3.15754">
        <ele>1174.5</ele>
        <time>2022-08-03T13:56:46Z</time>
      </trkpt>
      <trkpt lat="44.57577" lon="3.15757">
        <ele>1174.6</ele>
        <time>2022-08-03T13:56:48Z</time>
      </trkpt>
      <trkpt lat="44.57577" lon="3.15758">
        <ele>1174.7</ele>
        <time>2022-08-03T13:56:49Z</time>
      </trkpt>
      <trkpt lat="44.57574" lon="3.15764">
        <ele>1174.8</ele>
        <time>2022-08-03T13:56:54Z</time>
      </trkpt>
      <trkpt lat="44.57569" lon="3.15772">
        <ele>1175.3</ele>
        <time>2022-08-03T13:57:00Z</time>
      </trkpt>
      <trkpt lat="44.57565" lon="3.15776">
        <ele>1175.7</ele>
        <time>2022-08-03T13:57:03Z</time>
      </trkpt>
      <trkpt lat="44.57564" lon="3.1578">
        <ele>1175.7</ele>
        <time>2022-08-03T13:57:07Z</time>
      </trkpt>
      <trkpt lat="44.57562" lon="3.15787">
        <ele>1175.8</ele>
        <time>2022-08-03T13:57:13Z</time>
      </trkpt>
      <trkpt lat="44.57558" lon="3.1579">
        <ele>1176.2</ele>
        <time>2022-08-03T13:57:16Z</time>
      </trkpt>
      <trkpt lat="44.57556" lon="3.15793">
        <ele>1176.4</ele>
        <time>2022-08-03T13:57:18Z</time>
      </trkpt>
      <trkpt lat="44.57554" lon="3.15795">
        <ele>1176.6</ele>
        <time>2022-08-03T13:57:20Z</time>
      </trkpt>
      <trkpt lat="44.57553" lon="3.15797">
        <ele>1176.7</ele>
        <time>2022-08-03T13:57:22Z</time>
      </trkpt>
      <trkpt lat="44.57552" lon="3.158">
        <ele>1176.8</ele>
        <time>2022-08-03T13:57:24Z</time>
      </trkpt>
      <trkpt lat="44.57548" lon="3.15804">
        <ele>1177.1</ele>
        <time>2022-08-03T13:57:27Z</time>
      </trkpt>
      <trkpt lat="44.57545" lon="3.15808">
        <ele>1177.3</ele>
        <time>2022-08-03T13:57:31Z</time>
      </trkpt>
      <trkpt lat="44.57542" lon="3.15815">
        <ele>1177.4</ele>
        <time>2022-08-03T13:57:36Z</time>
      </trkpt>
      <trkpt lat="44.57535" lon="3.15824">
        <ele>1177.6</ele>
        <time>2022-08-03T13:57:43Z</time>
      </trkpt>
      <trkpt lat="44.57533" lon="3.15828">
        <ele>1177.6</ele>
        <time>2022-08-03T13:57:46Z</time>
      </trkpt>
      <trkpt lat="44.5753" lon="3.1583">
        <ele>1177.9</ele>
        <time>2022-08-03T13:57:49Z</time>
      </trkpt>
      <trkpt lat="44.57528" lon="3.15834">
        <ele>1177.9</ele>
        <time>2022-08-03T13:57:52Z</time>
      </trkpt>
      <trkpt lat="44.57527" lon="3.15836">
        <ele>1177.9</ele>
        <time>2022-08-03T13:57:53Z</time>
      </trkpt>
      <trkpt lat="44.57526" lon="3.15836">
        <ele>1178.1</ele>
        <time>2022-08-03T13:57:54Z</time>
      </trkpt>
      <trkpt lat="44.5752" lon="3.15843">
        <ele>1179.4</ele>
        <time>2022-08-03T13:58:00Z</time>
      </trkpt>
      <trkpt lat="44.57519" lon="3.15846">
        <ele>1179.4</ele>
        <time>2022-08-03T13:58:02Z</time>
      </trkpt>
      <trkpt lat="44.57518" lon="3.15847">
        <ele>1179.3</ele>
        <time>2022-08-03T13:58:03Z</time>
      </trkpt>
      <trkpt lat="44.57518" lon="3.1585">
        <ele>1179.1</ele>
        <time>2022-08-03T13:58:05Z</time>
      </trkpt>
      <trkpt lat="44.57517" lon="3.15851">
        <ele>1179.1</ele>
        <time>2022-08-03T13:58:06Z</time>
      </trkpt>
      <trkpt lat="44.57513" lon="3.15856">
        <ele>1179.4</ele>
        <time>2022-08-03T13:58:11Z</time>
      </trkpt>
      <trkpt lat="44.57513" lon="3.15858">
        <ele>1179.3</ele>
        <time>2022-08-03T13:58:12Z</time>
      </trkpt>
      <trkpt lat="44.57512" lon="3.15859">
        <ele>1179.2</ele>
        <time>2022-08-03T13:58:13Z</time>
      </trkpt>
      <trkpt lat="44.57511" lon="3.15862">
        <ele>1179.1</ele>
        <time>2022-08-03T13:58:16Z</time>
      </trkpt>
      <trkpt lat="44.57511" lon="3.15862">
        <ele>1179.1</ele>
        <time>2022-08-03T13:58:18Z</time>
      </trkpt>
      <trkpt lat="44.57511" lon="3.15862">
        <ele>1179.2</ele>
        <time>2022-08-03T13:58:19Z</time>
      </trkpt>
      <trkpt lat="44.57511" lon="3.15861">
        <ele>1179.2</ele>
        <time>2022-08-03T13:58:20Z</time>
      </trkpt>
      <trkpt lat="44.57517" lon="3.15856">
        <ele>1178.4</ele>
        <time>2022-08-03T13:58:28Z</time>
      </trkpt>
      <trkpt lat="44.57516" lon="3.15856">
        <ele>1178.6</ele>
        <time>2022-08-03T13:59:02Z</time>
      </trkpt>
      <trkpt lat="44.57512" lon="3.1586">
        <ele>1179.1</ele>
        <time>2022-08-03T13:59:28Z</time>
      </trkpt>
      <trkpt lat="44.57511" lon="3.15863">
        <ele>1178.9</ele>
        <time>2022-08-03T13:59:30Z</time>
      </trkpt>
      <trkpt lat="44.57509" lon="3.15868">
        <ele>1178.6</ele>
        <time>2022-08-03T13:59:32Z</time>
      </trkpt>
      <trkpt lat="44.57506" lon="3.15872">
        <ele>1178.8</ele>
        <time>2022-08-03T13:59:34Z</time>
      </trkpt>
      <trkpt lat="44.57502" lon="3.15876">
        <ele>1179</ele>
        <time>2022-08-03T13:59:37Z</time>
      </trkpt>
      <trkpt lat="44.57499" lon="3.15879">
        <ele>1179</ele>
        <time>2022-08-03T13:59:39Z</time>
      </trkpt>
      <trkpt lat="44.57499" lon="3.15881">
        <ele>1178.7</ele>
        <time>2022-08-03T13:59:40Z</time>
      </trkpt>
      <trkpt lat="44.57499" lon="3.15882">
        <ele>1178.5</ele>
        <time>2022-08-03T13:59:41Z</time>
      </trkpt>
      <trkpt lat="44.57497" lon="3.15887">
        <ele>1178.4</ele>
        <time>2022-08-03T13:59:44Z</time>
      </trkpt>
      <trkpt lat="44.57496" lon="3.15888">
        <ele>1178.6</ele>
        <time>2022-08-03T13:59:45Z</time>
      </trkpt>
      <trkpt lat="44.57495" lon="3.15891">
        <ele>1178.5</ele>
        <time>2022-08-03T13:59:48Z</time>
      </trkpt>
      <trkpt lat="44.57495" lon="3.15894">
        <ele>1178.4</ele>
        <time>2022-08-03T13:59:50Z</time>
      </trkpt>
      <trkpt lat="44.57494" lon="3.15895">
        <ele>1178.6</ele>
        <time>2022-08-03T13:59:51Z</time>
      </trkpt>
      <trkpt lat="44.5749" lon="3.159">
        <ele>1179.3</ele>
        <time>2022-08-03T13:59:55Z</time>
      </trkpt>
      <trkpt lat="44.57485" lon="3.15913">
        <ele>1179.4</ele>
        <time>2022-08-03T14:00:03Z</time>
      </trkpt>
      <trkpt lat="44.57484" lon="3.15914">
        <ele>1179.4</ele>
        <time>2022-08-03T14:00:04Z</time>
      </trkpt>
      <trkpt lat="44.57484" lon="3.15915">
        <ele>1179.4</ele>
        <time>2022-08-03T14:00:05Z</time>
      </trkpt>
      <trkpt lat="44.5748" lon="3.1592">
        <ele>1180</ele>
        <time>2022-08-03T14:00:09Z</time>
      </trkpt>
      <trkpt lat="44.57478" lon="3.15927">
        <ele>1179.9</ele>
        <time>2022-08-03T14:00:13Z</time>
      </trkpt>
      <trkpt lat="44.57477" lon="3.15931">
        <ele>1179.4</ele>
        <time>2022-08-03T14:00:15Z</time>
      </trkpt>
      <trkpt lat="44.57477" lon="3.15932">
        <ele>1179.4</ele>
        <time>2022-08-03T14:00:16Z</time>
      </trkpt>
      <trkpt lat="44.57473" lon="3.15937">
        <ele>1179.8</ele>
        <time>2022-08-03T14:00:20Z</time>
      </trkpt>
      <trkpt lat="44.57473" lon="3.15937">
        <ele>1179.8</ele>
        <time>2022-08-03T14:00:21Z</time>
      </trkpt>
      <trkpt lat="44.5747" lon="3.15941">
        <ele>1180.3</ele>
        <time>2022-08-03T14:00:24Z</time>
      </trkpt>
      <trkpt lat="44.57469" lon="3.15942">
        <ele>1180.5</ele>
        <time>2022-08-03T14:00:25Z</time>
      </trkpt>
      <trkpt lat="44.57464" lon="3.15948">
        <ele>1180.7</ele>
        <time>2022-08-03T14:00:29Z</time>
      </trkpt>
      <trkpt lat="44.57463" lon="3.15951">
        <ele>1180.7</ele>
        <time>2022-08-03T14:00:31Z</time>
      </trkpt>
      <trkpt lat="44.57462" lon="3.15953">
        <ele>1180.8</ele>
        <time>2022-08-03T14:00:32Z</time>
      </trkpt>
      <trkpt lat="44.5746" lon="3.15955">
        <ele>1180.9</ele>
        <time>2022-08-03T14:00:34Z</time>
      </trkpt>
      <trkpt lat="44.57461" lon="3.15956">
        <ele>1180.7</ele>
        <time>2022-08-03T14:00:35Z</time>
      </trkpt>
      <trkpt lat="44.5746" lon="3.15957">
        <ele>1180.7</ele>
        <time>2022-08-03T14:00:36Z</time>
      </trkpt>
      <trkpt lat="44.57459" lon="3.1596">
        <ele>1180.6</ele>
        <time>2022-08-03T14:00:38Z</time>
      </trkpt>
      <trkpt lat="44.57457" lon="3.15965">
        <ele>1180.4</ele>
        <time>2022-08-03T14:00:41Z</time>
      </trkpt>
      <trkpt lat="44.57453" lon="3.1597">
        <ele>1180.9</ele>
        <time>2022-08-03T14:00:45Z</time>
      </trkpt>
      <trkpt lat="44.57439" lon="3.15981">
        <ele>1182.8</ele>
        <time>2022-08-03T14:00:56Z</time>
      </trkpt>
      <trkpt lat="44.57434" lon="3.15986">
        <ele>1183.3</ele>
        <time>2022-08-03T14:01:02Z</time>
      </trkpt>
      <trkpt lat="44.57434" lon="3.15987">
        <ele>1183.1</ele>
        <time>2022-08-03T14:01:03Z</time>
      </trkpt>
      <trkpt lat="44.57433" lon="3.15988">
        <ele>1183</ele>
        <time>2022-08-03T14:01:04Z</time>
      </trkpt>
      <trkpt lat="44.57431" lon="3.15991">
        <ele>1183</ele>
        <time>2022-08-03T14:01:06Z</time>
      </trkpt>
      <trkpt lat="44.57428" lon="3.15992">
        <ele>1183.2</ele>
        <time>2022-08-03T14:01:08Z</time>
      </trkpt>
      <trkpt lat="44.57421" lon="3.15997">
        <ele>1183.8</ele>
        <time>2022-08-03T14:01:13Z</time>
      </trkpt>
      <trkpt lat="44.57417" lon="3.15998">
        <ele>1184.5</ele>
        <time>2022-08-03T14:01:16Z</time>
      </trkpt>
      <trkpt lat="44.57414" lon="3.15999">
        <ele>1184.8</ele>
        <time>2022-08-03T14:01:17Z</time>
      </trkpt>
      <trkpt lat="44.57408" lon="3.16003">
        <ele>1185.8</ele>
        <time>2022-08-03T14:01:22Z</time>
      </trkpt>
      <trkpt lat="44.57406" lon="3.16003">
        <ele>1186.1</ele>
        <time>2022-08-03T14:01:23Z</time>
      </trkpt>
      <trkpt lat="44.57398" lon="3.16008">
        <ele>1187.2</ele>
        <time>2022-08-03T14:01:30Z</time>
      </trkpt>
      <trkpt lat="44.57395" lon="3.16009">
        <ele>1187.6</ele>
        <time>2022-08-03T14:01:32Z</time>
      </trkpt>
      <trkpt lat="44.57388" lon="3.16013">
        <ele>1188.4</ele>
        <time>2022-08-03T14:01:37Z</time>
      </trkpt>
      <trkpt lat="44.57387" lon="3.16013">
        <ele>1188.7</ele>
        <time>2022-08-03T14:01:38Z</time>
      </trkpt>
      <trkpt lat="44.57378" lon="3.16016">
        <ele>1190.2</ele>
        <time>2022-08-03T14:01:46Z</time>
      </trkpt>
      <trkpt lat="44.57374" lon="3.16022">
        <ele>1189.8</ele>
        <time>2022-08-03T14:01:53Z</time>
      </trkpt>
      <trkpt lat="44.57372" lon="3.16023">
        <ele>1189.9</ele>
        <time>2022-08-03T14:01:55Z</time>
      </trkpt>
      <trkpt lat="44.57369" lon="3.16023">
        <ele>1190.6</ele>
        <time>2022-08-03T14:01:59Z</time>
      </trkpt>
      <trkpt lat="44.57368" lon="3.16023">
        <ele>1190.7</ele>
        <time>2022-08-03T14:02:01Z</time>
      </trkpt>
      <trkpt lat="44.57367" lon="3.16027">
        <ele>1190</ele>
        <time>2022-08-03T14:02:05Z</time>
      </trkpt>
      <trkpt lat="44.57366" lon="3.16028">
        <ele>1190</ele>
        <time>2022-08-03T14:02:06Z</time>
      </trkpt>
      <trkpt lat="44.57364" lon="3.1603">
        <ele>1189.9</ele>
        <time>2022-08-03T14:02:10Z</time>
      </trkpt>
      <trkpt lat="44.57364" lon="3.16032">
        <ele>1189.8</ele>
        <time>2022-08-03T14:02:11Z</time>
      </trkpt>
      <trkpt lat="44.57363" lon="3.16035">
        <ele>1189.5</ele>
        <time>2022-08-03T14:02:13Z</time>
      </trkpt>
      <trkpt lat="44.5736" lon="3.16038">
        <ele>1189.8</ele>
        <time>2022-08-03T14:02:16Z</time>
      </trkpt>
      <trkpt lat="44.57359" lon="3.16041">
        <ele>1189.8</ele>
        <time>2022-08-03T14:02:19Z</time>
      </trkpt>
      <trkpt lat="44.57357" lon="3.16043">
        <ele>1189.9</ele>
        <time>2022-08-03T14:02:21Z</time>
      </trkpt>
      <trkpt lat="44.57357" lon="3.16044">
        <ele>1189.8</ele>
        <time>2022-08-03T14:02:22Z</time>
      </trkpt>
      <trkpt lat="44.57353" lon="3.16052">
        <ele>1189.8</ele>
        <time>2022-08-03T14:02:27Z</time>
      </trkpt>
      <trkpt lat="44.57346" lon="3.16058">
        <ele>1190.4</ele>
        <time>2022-08-03T14:02:33Z</time>
      </trkpt>
      <trkpt lat="44.57345" lon="3.16059">
        <ele>1190.4</ele>
        <time>2022-08-03T14:02:34Z</time>
      </trkpt>
      <trkpt lat="44.57343" lon="3.16061">
        <ele>1190.5</ele>
        <time>2022-08-03T14:02:36Z</time>
      </trkpt>
      <trkpt lat="44.57342" lon="3.16063">
        <ele>1190.5</ele>
        <time>2022-08-03T14:02:38Z</time>
      </trkpt>
      <trkpt lat="44.5734" lon="3.16065">
        <ele>1190.5</ele>
        <time>2022-08-03T14:02:41Z</time>
      </trkpt>
      <trkpt lat="44.57338" lon="3.16068">
        <ele>1190.5</ele>
        <time>2022-08-03T14:02:43Z</time>
      </trkpt>
      <trkpt lat="44.57338" lon="3.16069">
        <ele>1190.4</ele>
        <time>2022-08-03T14:02:44Z</time>
      </trkpt>
      <trkpt lat="44.57337" lon="3.16071">
        <ele>1190.4</ele>
        <time>2022-08-03T14:02:45Z</time>
      </trkpt>
      <trkpt lat="44.57333" lon="3.16073">
        <ele>1191</ele>
        <time>2022-08-03T14:02:47Z</time>
      </trkpt>
      <trkpt lat="44.57327" lon="3.16078">
        <ele>1191.8</ele>
        <time>2022-08-03T14:02:52Z</time>
      </trkpt>
      <trkpt lat="44.57326" lon="3.16078">
        <ele>1192.2</ele>
        <time>2022-08-03T14:02:53Z</time>
      </trkpt>
      <trkpt lat="44.57323" lon="3.16082">
        <ele>1192.2</ele>
        <time>2022-08-03T14:02:57Z</time>
      </trkpt>
      <trkpt lat="44.57321" lon="3.16085">
        <ele>1192.3</ele>
        <time>2022-08-03T14:03:00Z</time>
      </trkpt>
      <trkpt lat="44.5732" lon="3.16089">
        <ele>1192.1</ele>
        <time>2022-08-03T14:03:02Z</time>
      </trkpt>
      <trkpt lat="44.57319" lon="3.1609">
        <ele>1192.2</ele>
        <time>2022-08-03T14:03:03Z</time>
      </trkpt>
      <trkpt lat="44.57319" lon="3.1609">
        <ele>1192.3</ele>
        <time>2022-08-03T14:03:06Z</time>
      </trkpt>
      <trkpt lat="44.57321" lon="3.16089">
        <ele>1191.7</ele>
        <time>2022-08-03T14:03:09Z</time>
      </trkpt>
      <trkpt lat="44.57322" lon="3.16088">
        <ele>1191.4</ele>
        <time>2022-08-03T14:03:12Z</time>
      </trkpt>
      <trkpt lat="44.57323" lon="3.16088">
        <ele>1191.3</ele>
        <time>2022-08-03T14:03:14Z</time>
      </trkpt>
      <trkpt lat="44.57323" lon="3.16087">
        <ele>1191.5</ele>
        <time>2022-08-03T14:03:19Z</time>
      </trkpt>
      <trkpt lat="44.57322" lon="3.16085">
        <ele>1192.2</ele>
        <time>2022-08-03T14:03:24Z</time>
      </trkpt>
      <trkpt lat="44.57322" lon="3.16088">
        <ele>1191.6</ele>
        <time>2022-08-03T14:03:32Z</time>
      </trkpt>
      <trkpt lat="44.57322" lon="3.16088">
        <ele>1191.6</ele>
        <time>2022-08-03T14:03:39Z</time>
      </trkpt>
      <trkpt lat="44.57322" lon="3.16088">
        <ele>1191.7</ele>
        <time>2022-08-03T14:03:42Z</time>
      </trkpt>
      <trkpt lat="44.57318" lon="3.16093">
        <ele>1192</ele>
        <time>2022-08-03T14:03:48Z</time>
      </trkpt>
      <trkpt lat="44.57314" lon="3.16096">
        <ele>1192.8</ele>
        <time>2022-08-03T14:03:51Z</time>
      </trkpt>
      <trkpt lat="44.5731" lon="3.16101">
        <ele>1193</ele>
        <time>2022-08-03T14:03:54Z</time>
      </trkpt>
      <trkpt lat="44.57308" lon="3.16105">
        <ele>1193.1</ele>
        <time>2022-08-03T14:03:58Z</time>
      </trkpt>
      <trkpt lat="44.57307" lon="3.16107">
        <ele>1193.3</ele>
        <time>2022-08-03T14:04:00Z</time>
      </trkpt>
      <trkpt lat="44.57301" lon="3.16115">
        <ele>1193.7</ele>
        <time>2022-08-03T14:04:06Z</time>
      </trkpt>
      <trkpt lat="44.573" lon="3.16116">
        <ele>1193.9</ele>
        <time>2022-08-03T14:04:07Z</time>
      </trkpt>
      <trkpt lat="44.57296" lon="3.16121">
        <ele>1194.4</ele>
        <time>2022-08-03T14:04:12Z</time>
      </trkpt>
      <trkpt lat="44.57292" lon="3.16123">
        <ele>1195.3</ele>
        <time>2022-08-03T14:04:15Z</time>
      </trkpt>
      <trkpt lat="44.57288" lon="3.16128">
        <ele>1195.6</ele>
        <time>2022-08-03T14:04:18Z</time>
      </trkpt>
      <trkpt lat="44.57288" lon="3.1613">
        <ele>1195.5</ele>
        <time>2022-08-03T14:04:19Z</time>
      </trkpt>
      <trkpt lat="44.57288" lon="3.16131">
        <ele>1195.2</ele>
        <time>2022-08-03T14:04:21Z</time>
      </trkpt>
      <trkpt lat="44.57287" lon="3.16132">
        <ele>1195.3</ele>
        <time>2022-08-03T14:04:22Z</time>
      </trkpt>
      <trkpt lat="44.57286" lon="3.16132">
        <ele>1195.6</ele>
        <time>2022-08-03T14:04:23Z</time>
      </trkpt>
      <trkpt lat="44.5728" lon="3.16136">
        <ele>1196.9</ele>
        <time>2022-08-03T14:04:28Z</time>
      </trkpt>
      <trkpt lat="44.57276" lon="3.16141">
        <ele>1197</ele>
        <time>2022-08-03T14:04:34Z</time>
      </trkpt>
      <trkpt lat="44.57276" lon="3.16142">
        <ele>1197.1</ele>
        <time>2022-08-03T14:04:35Z</time>
      </trkpt>
      <trkpt lat="44.57272" lon="3.16149">
        <ele>1197</ele>
        <time>2022-08-03T14:04:40Z</time>
      </trkpt>
      <trkpt lat="44.57269" lon="3.16151">
        <ele>1197.4</ele>
        <time>2022-08-03T14:04:42Z</time>
      </trkpt>
      <trkpt lat="44.57268" lon="3.16153">
        <ele>1197.1</ele>
        <time>2022-08-03T14:04:44Z</time>
      </trkpt>
      <trkpt lat="44.57266" lon="3.16156">
        <ele>1197.4</ele>
        <time>2022-08-03T14:04:46Z</time>
      </trkpt>
      <trkpt lat="44.57265" lon="3.16158">
        <ele>1197.3</ele>
        <time>2022-08-03T14:04:47Z</time>
      </trkpt>
      <trkpt lat="44.57264" lon="3.16161">
        <ele>1197.2</ele>
        <time>2022-08-03T14:04:49Z</time>
      </trkpt>
      <trkpt lat="44.57262" lon="3.16163">
        <ele>1197.3</ele>
        <time>2022-08-03T14:04:51Z</time>
      </trkpt>
      <trkpt lat="44.57262" lon="3.16165">
        <ele>1197.2</ele>
        <time>2022-08-03T14:04:52Z</time>
      </trkpt>
      <trkpt lat="44.5726" lon="3.16169">
        <ele>1197.2</ele>
        <time>2022-08-03T14:04:55Z</time>
      </trkpt>
      <trkpt lat="44.57256" lon="3.16179">
        <ele>1197.1</ele>
        <time>2022-08-03T14:05:01Z</time>
      </trkpt>
      <trkpt lat="44.57256" lon="3.1618">
        <ele>1197.1</ele>
        <time>2022-08-03T14:05:02Z</time>
      </trkpt>
      <trkpt lat="44.57253" lon="3.16186">
        <ele>1197.2</ele>
        <time>2022-08-03T14:05:06Z</time>
      </trkpt>
      <trkpt lat="44.57251" lon="3.16189">
        <ele>1197.3</ele>
        <time>2022-08-03T14:05:08Z</time>
      </trkpt>
      <trkpt lat="44.57249" lon="3.16193">
        <ele>1197.5</ele>
        <time>2022-08-03T14:05:11Z</time>
      </trkpt>
      <trkpt lat="44.57247" lon="3.16197">
        <ele>1197.5</ele>
        <time>2022-08-03T14:05:15Z</time>
      </trkpt>
      <trkpt lat="44.57247" lon="3.16198">
        <ele>1197.4</ele>
        <time>2022-08-03T14:05:16Z</time>
      </trkpt>
      <trkpt lat="44.57246" lon="3.162">
        <ele>1197.6</ele>
        <time>2022-08-03T14:05:19Z</time>
      </trkpt>
      <trkpt lat="44.57246" lon="3.16201">
        <ele>1197.7</ele>
        <time>2022-08-03T14:05:20Z</time>
      </trkpt>
      <trkpt lat="44.57244" lon="3.16201">
        <ele>1198.2</ele>
        <time>2022-08-03T14:05:22Z</time>
      </trkpt>
      <trkpt lat="44.57244" lon="3.16201">
        <ele>1198.2</ele>
        <time>2022-08-03T14:05:26Z</time>
      </trkpt>
      <trkpt lat="44.5724" lon="3.16199">
        <ele>1199.3</ele>
        <time>2022-08-03T14:05:31Z</time>
      </trkpt>
      <trkpt lat="44.57239" lon="3.16204">
        <ele>1199.3</ele>
        <time>2022-08-03T14:05:37Z</time>
      </trkpt>
      <trkpt lat="44.57238" lon="3.16205">
        <ele>1199.5</ele>
        <time>2022-08-03T14:05:41Z</time>
      </trkpt>
      <trkpt lat="44.57236" lon="3.16211">
        <ele>1200.1</ele>
        <time>2022-08-03T14:05:46Z</time>
      </trkpt>
      <trkpt lat="44.57234" lon="3.16215">
        <ele>1200.5</ele>
        <time>2022-08-03T14:05:49Z</time>
      </trkpt>
      <trkpt lat="44.57233" lon="3.1622">
        <ele>1200.6</ele>
        <time>2022-08-03T14:05:52Z</time>
      </trkpt>
      <trkpt lat="44.57232" lon="3.16222">
        <ele>1201</ele>
        <time>2022-08-03T14:05:54Z</time>
      </trkpt>
      <trkpt lat="44.57231" lon="3.16227">
        <ele>1200.9</ele>
        <time>2022-08-03T14:05:57Z</time>
      </trkpt>
      <trkpt lat="44.5723" lon="3.16232">
        <ele>1201</ele>
        <time>2022-08-03T14:06:02Z</time>
      </trkpt>
      <trkpt lat="44.5723" lon="3.16235">
        <ele>1200.7</ele>
        <time>2022-08-03T14:06:04Z</time>
      </trkpt>
      <trkpt lat="44.5723" lon="3.16238">
        <ele>1200.7</ele>
        <time>2022-08-03T14:06:05Z</time>
      </trkpt>
      <trkpt lat="44.57228" lon="3.16245">
        <ele>1200.7</ele>
        <time>2022-08-03T14:06:09Z</time>
      </trkpt>
      <trkpt lat="44.57228" lon="3.16247">
        <ele>1200.5</ele>
        <time>2022-08-03T14:06:11Z</time>
      </trkpt>
      <trkpt lat="44.57227" lon="3.16255">
        <ele>1200.6</ele>
        <time>2022-08-03T14:06:16Z</time>
      </trkpt>
      <trkpt lat="44.57224" lon="3.16262">
        <ele>1201.4</ele>
        <time>2022-08-03T14:06:20Z</time>
      </trkpt>
      <trkpt lat="44.57225" lon="3.16266">
        <ele>1201.2</ele>
        <time>2022-08-03T14:06:22Z</time>
      </trkpt>
      <trkpt lat="44.57223" lon="3.16269">
        <ele>1201.7</ele>
        <time>2022-08-03T14:06:24Z</time>
      </trkpt>
      <trkpt lat="44.57224" lon="3.16275">
        <ele>1201.5</ele>
        <time>2022-08-03T14:06:27Z</time>
      </trkpt>
      <trkpt lat="44.57223" lon="3.16276">
        <ele>1201.7</ele>
        <time>2022-08-03T14:06:28Z</time>
      </trkpt>
      <trkpt lat="44.57219" lon="3.16286">
        <ele>1202.4</ele>
        <time>2022-08-03T14:06:35Z</time>
      </trkpt>
      <trkpt lat="44.57219" lon="3.16288">
        <ele>1202.3</ele>
        <time>2022-08-03T14:06:36Z</time>
      </trkpt>
      <trkpt lat="44.57219" lon="3.1629">
        <ele>1202.3</ele>
        <time>2022-08-03T14:06:37Z</time>
      </trkpt>
      <trkpt lat="44.57217" lon="3.16295">
        <ele>1202.6</ele>
        <time>2022-08-03T14:06:41Z</time>
      </trkpt>
      <trkpt lat="44.57216" lon="3.16299">
        <ele>1202.7</ele>
        <time>2022-08-03T14:06:43Z</time>
      </trkpt>
      <trkpt lat="44.57215" lon="3.16303">
        <ele>1202.9</ele>
        <time>2022-08-03T14:06:46Z</time>
      </trkpt>
      <trkpt lat="44.57213" lon="3.16307">
        <ele>1203.2</ele>
        <time>2022-08-03T14:06:48Z</time>
      </trkpt>
      <trkpt lat="44.5721" lon="3.16315">
        <ele>1203.7</ele>
        <time>2022-08-03T14:06:54Z</time>
      </trkpt>
      <trkpt lat="44.57209" lon="3.16318">
        <ele>1204</ele>
        <time>2022-08-03T14:06:56Z</time>
      </trkpt>
      <trkpt lat="44.57208" lon="3.16323">
        <ele>1204.1</ele>
        <time>2022-08-03T14:06:59Z</time>
      </trkpt>
      <trkpt lat="44.57205" lon="3.16328">
        <ele>1204.6</ele>
        <time>2022-08-03T14:07:03Z</time>
      </trkpt>
      <trkpt lat="44.57204" lon="3.1633">
        <ele>1205</ele>
        <time>2022-08-03T14:07:05Z</time>
      </trkpt>
      <trkpt lat="44.57203" lon="3.16332">
        <ele>1205.4</ele>
        <time>2022-08-03T14:07:06Z</time>
      </trkpt>
      <trkpt lat="44.57202" lon="3.16334">
        <ele>1205.5</ele>
        <time>2022-08-03T14:07:07Z</time>
      </trkpt>
      <trkpt lat="44.57204" lon="3.16337">
        <ele>1204.9</ele>
        <time>2022-08-03T14:07:09Z</time>
      </trkpt>
      <trkpt lat="44.57204" lon="3.16339">
        <ele>1205</ele>
        <time>2022-08-03T14:07:10Z</time>
      </trkpt>
      <trkpt lat="44.57204" lon="3.1634">
        <ele>1205.1</ele>
        <time>2022-08-03T14:07:11Z</time>
      </trkpt>
      <trkpt lat="44.57204" lon="3.16343">
        <ele>1205.1</ele>
        <time>2022-08-03T14:07:13Z</time>
      </trkpt>
      <trkpt lat="44.57204" lon="3.16346">
        <ele>1205.3</ele>
        <time>2022-08-03T14:07:15Z</time>
      </trkpt>
      <trkpt lat="44.57203" lon="3.16347">
        <ele>1205.7</ele>
        <time>2022-08-03T14:07:16Z</time>
      </trkpt>
      <trkpt lat="44.57202" lon="3.16348">
        <ele>1205.8</ele>
        <time>2022-08-03T14:07:17Z</time>
      </trkpt>
      <trkpt lat="44.57202" lon="3.16351">
        <ele>1206.2</ele>
        <time>2022-08-03T14:07:19Z</time>
      </trkpt>
      <trkpt lat="44.57201" lon="3.16352">
        <ele>1206.4</ele>
        <time>2022-08-03T14:07:20Z</time>
      </trkpt>
      <trkpt lat="44.572" lon="3.16355">
        <ele>1206.9</ele>
        <time>2022-08-03T14:07:22Z</time>
      </trkpt>
      <trkpt lat="44.572" lon="3.16357">
        <ele>1206.9</ele>
        <time>2022-08-03T14:07:23Z</time>
      </trkpt>
      <trkpt lat="44.572" lon="3.16361">
        <ele>1207.2</ele>
        <time>2022-08-03T14:07:26Z</time>
      </trkpt>
      <trkpt lat="44.57199" lon="3.16363">
        <ele>1207.4</ele>
        <time>2022-08-03T14:07:27Z</time>
      </trkpt>
      <trkpt lat="44.57199" lon="3.16364">
        <ele>1207.4</ele>
        <time>2022-08-03T14:07:28Z</time>
      </trkpt>
      <trkpt lat="44.57199" lon="3.16371">
        <ele>1207.2</ele>
        <time>2022-08-03T14:07:31Z</time>
      </trkpt>
      <trkpt lat="44.57199" lon="3.16372">
        <ele>1207.3</ele>
        <time>2022-08-03T14:07:32Z</time>
      </trkpt>
      <trkpt lat="44.57196" lon="3.16382">
        <ele>1208.4</ele>
        <time>2022-08-03T14:07:37Z</time>
      </trkpt>
      <trkpt lat="44.57196" lon="3.16385">
        <ele>1208.3</ele>
        <time>2022-08-03T14:07:39Z</time>
      </trkpt>
      <trkpt lat="44.57197" lon="3.16387">
        <ele>1208.1</ele>
        <time>2022-08-03T14:07:40Z</time>
      </trkpt>
      <trkpt lat="44.57197" lon="3.1639">
        <ele>1208</ele>
        <time>2022-08-03T14:07:42Z</time>
      </trkpt>
      <trkpt lat="44.57197" lon="3.16398">
        <ele>1208.6</ele>
        <time>2022-08-03T14:07:47Z</time>
      </trkpt>
      <trkpt lat="44.57198" lon="3.16411">
        <ele>1209.4</ele>
        <time>2022-08-03T14:07:55Z</time>
      </trkpt>
      <trkpt lat="44.57198" lon="3.16415">
        <ele>1209.5</ele>
        <time>2022-08-03T14:07:57Z</time>
      </trkpt>
      <trkpt lat="44.57199" lon="3.16419">
        <ele>1209.4</ele>
        <time>2022-08-03T14:08:00Z</time>
      </trkpt>
      <trkpt lat="44.57199" lon="3.16421">
        <ele>1209.3</ele>
        <time>2022-08-03T14:08:01Z</time>
      </trkpt>
      <trkpt lat="44.572" lon="3.16424">
        <ele>1209.4</ele>
        <time>2022-08-03T14:08:03Z</time>
      </trkpt>
      <trkpt lat="44.572" lon="3.16426">
        <ele>1209.3</ele>
        <time>2022-08-03T14:08:05Z</time>
      </trkpt>
      <trkpt lat="44.57201" lon="3.16428">
        <ele>1209.4</ele>
        <time>2022-08-03T14:08:06Z</time>
      </trkpt>
      <trkpt lat="44.572" lon="3.1643">
        <ele>1209.7</ele>
        <time>2022-08-03T14:08:07Z</time>
      </trkpt>
      <trkpt lat="44.572" lon="3.16432">
        <ele>1210</ele>
        <time>2022-08-03T14:08:09Z</time>
      </trkpt>
      <trkpt lat="44.57198" lon="3.16435">
        <ele>1210.9</ele>
        <time>2022-08-03T14:08:11Z</time>
      </trkpt>
      <trkpt lat="44.57192" lon="3.16438">
        <ele>1213.5</ele>
        <time>2022-08-03T14:08:17Z</time>
      </trkpt>
      <trkpt lat="44.57191" lon="3.16436">
        <ele>1213.6</ele>
        <time>2022-08-03T14:08:18Z</time>
      </trkpt>
      <trkpt lat="44.57185" lon="3.16429">
        <ele>1215</ele>
        <time>2022-08-03T14:08:23Z</time>
      </trkpt>
      <trkpt lat="44.57184" lon="3.16428">
        <ele>1215.1</ele>
        <time>2022-08-03T14:08:24Z</time>
      </trkpt>
      <trkpt lat="44.57184" lon="3.16425">
        <ele>1215.1</ele>
        <time>2022-08-03T14:08:26Z</time>
      </trkpt>
      <trkpt lat="44.57183" lon="3.16422">
        <ele>1215.1</ele>
        <time>2022-08-03T14:08:28Z</time>
      </trkpt>
      <trkpt lat="44.57183" lon="3.16421">
        <ele>1215.2</ele>
        <time>2022-08-03T14:08:29Z</time>
      </trkpt>
      <trkpt lat="44.57182" lon="3.16418">
        <ele>1215.2</ele>
        <time>2022-08-03T14:08:31Z</time>
      </trkpt>
      <trkpt lat="44.57183" lon="3.16416">
        <ele>1214.8</ele>
        <time>2022-08-03T14:08:32Z</time>
      </trkpt>
      <trkpt lat="44.57183" lon="3.16415">
        <ele>1214.6</ele>
        <time>2022-08-03T14:08:33Z</time>
      </trkpt>
      <trkpt lat="44.57182" lon="3.16414">
        <ele>1215</ele>
        <time>2022-08-03T14:08:34Z</time>
      </trkpt>
      <trkpt lat="44.57178" lon="3.1641">
        <ele>1216</ele>
        <time>2022-08-03T14:08:37Z</time>
      </trkpt>
      <trkpt lat="44.57177" lon="3.16408">
        <ele>1216.2</ele>
        <time>2022-08-03T14:08:39Z</time>
      </trkpt>
      <trkpt lat="44.57174" lon="3.16406">
        <ele>1217</ele>
        <time>2022-08-03T14:08:41Z</time>
      </trkpt>
      <trkpt lat="44.57174" lon="3.16405">
        <ele>1217.3</ele>
        <time>2022-08-03T14:08:42Z</time>
      </trkpt>
      <trkpt lat="44.57172" lon="3.16399">
        <ele>1217.4</ele>
        <time>2022-08-03T14:08:47Z</time>
      </trkpt>
      <trkpt lat="44.57172" lon="3.16397">
        <ele>1217.4</ele>
        <time>2022-08-03T14:08:48Z</time>
      </trkpt>
      <trkpt lat="44.57172" lon="3.16394">
        <ele>1217.5</ele>
        <time>2022-08-03T14:08:50Z</time>
      </trkpt>
      <trkpt lat="44.57171" lon="3.16392">
        <ele>1217.7</ele>
        <time>2022-08-03T14:08:52Z</time>
      </trkpt>
      <trkpt lat="44.57169" lon="3.16386">
        <ele>1218.3</ele>
        <time>2022-08-03T14:08:56Z</time>
      </trkpt>
      <trkpt lat="44.57165" lon="3.16383">
        <ele>1219.4</ele>
        <time>2022-08-03T14:08:59Z</time>
      </trkpt>
      <trkpt lat="44.57163" lon="3.1638">
        <ele>1219.7</ele>
        <time>2022-08-03T14:09:02Z</time>
      </trkpt>
      <trkpt lat="44.57162" lon="3.16378">
        <ele>1220</ele>
        <time>2022-08-03T14:09:04Z</time>
      </trkpt>
      <trkpt lat="44.5716" lon="3.16376">
        <ele>1220.2</ele>
        <time>2022-08-03T14:09:06Z</time>
      </trkpt>
      <trkpt lat="44.57157" lon="3.16374">
        <ele>1221</ele>
        <time>2022-08-03T14:09:09Z</time>
      </trkpt>
      <trkpt lat="44.57156" lon="3.16372">
        <ele>1221.3</ele>
        <time>2022-08-03T14:09:14Z</time>
      </trkpt>
      <trkpt lat="44.57156" lon="3.16373">
        <ele>1221.2</ele>
        <time>2022-08-03T14:09:16Z</time>
      </trkpt>
      <trkpt lat="44.57156" lon="3.16372">
        <ele>1221.3</ele>
        <time>2022-08-03T14:09:18Z</time>
      </trkpt>
      <trkpt lat="44.57155" lon="3.16371">
        <ele>1221.5</ele>
        <time>2022-08-03T14:09:22Z</time>
      </trkpt>
      <trkpt lat="44.57153" lon="3.16371">
        <ele>1222</ele>
        <time>2022-08-03T14:09:28Z</time>
      </trkpt>
      <trkpt lat="44.5715" lon="3.16366">
        <ele>1222.5</ele>
        <time>2022-08-03T14:09:34Z</time>
      </trkpt>
      <trkpt lat="44.57145" lon="3.1636">
        <ele>1223.3</ele>
        <time>2022-08-03T14:09:39Z</time>
      </trkpt>
      <trkpt lat="44.57145" lon="3.16359">
        <ele>1223.3</ele>
        <time>2022-08-03T14:09:40Z</time>
      </trkpt>
      <trkpt lat="44.57145" lon="3.16357">
        <ele>1223.2</ele>
        <time>2022-08-03T14:09:41Z</time>
      </trkpt>
      <trkpt lat="44.57148" lon="3.16348">
        <ele>1221.9</ele>
        <time>2022-08-03T14:09:45Z</time>
      </trkpt>
      <trkpt lat="44.57149" lon="3.16345">
        <ele>1221.3</ele>
        <time>2022-08-03T14:09:47Z</time>
      </trkpt>
      <trkpt lat="44.57147" lon="3.1634">
        <ele>1221.5</ele>
        <time>2022-08-03T14:09:51Z</time>
      </trkpt>
      <trkpt lat="44.57147" lon="3.16339">
        <ele>1221.4</ele>
        <time>2022-08-03T14:09:52Z</time>
      </trkpt>
      <trkpt lat="44.57147" lon="3.16336">
        <ele>1221.2</ele>
        <time>2022-08-03T14:09:54Z</time>
      </trkpt>
      <trkpt lat="44.57147" lon="3.16332">
        <ele>1220.9</ele>
        <time>2022-08-03T14:09:56Z</time>
      </trkpt>
      <trkpt lat="44.57146" lon="3.16322">
        <ele>1220.8</ele>
        <time>2022-08-03T14:10:02Z</time>
      </trkpt>
      <trkpt lat="44.57146" lon="3.1632">
        <ele>1220.9</ele>
        <time>2022-08-03T14:10:03Z</time>
      </trkpt>
      <trkpt lat="44.57145" lon="3.16319">
        <ele>1221</ele>
        <time>2022-08-03T14:10:04Z</time>
      </trkpt>
      <trkpt lat="44.57144" lon="3.16316">
        <ele>1221.1</ele>
        <time>2022-08-03T14:10:06Z</time>
      </trkpt>
      <trkpt lat="44.57143" lon="3.16312">
        <ele>1221.4</ele>
        <time>2022-08-03T14:10:08Z</time>
      </trkpt>
      <trkpt lat="44.57139" lon="3.16302">
        <ele>1221.8</ele>
        <time>2022-08-03T14:10:16Z</time>
      </trkpt>
      <trkpt lat="44.57139" lon="3.16302">
        <ele>1221.8</ele>
        <time>2022-08-03T14:10:17Z</time>
      </trkpt>
      <trkpt lat="44.57135" lon="3.16291">
        <ele>1222.3</ele>
        <time>2022-08-03T14:10:26Z</time>
      </trkpt>
      <trkpt lat="44.57133" lon="3.16288">
        <ele>1222.7</ele>
        <time>2022-08-03T14:10:28Z</time>
      </trkpt>
      <trkpt lat="44.57131" lon="3.16285">
        <ele>1222.9</ele>
        <time>2022-08-03T14:10:31Z</time>
      </trkpt>
      <trkpt lat="44.57131" lon="3.16284">
        <ele>1222.9</ele>
        <time>2022-08-03T14:10:33Z</time>
      </trkpt>
      <trkpt lat="44.57131" lon="3.16282">
        <ele>1222.9</ele>
        <time>2022-08-03T14:10:35Z</time>
      </trkpt>
      <trkpt lat="44.5713" lon="3.16281">
        <ele>1223</ele>
        <time>2022-08-03T14:10:36Z</time>
      </trkpt>
      <trkpt lat="44.57122" lon="3.16272">
        <ele>1224.5</ele>
        <time>2022-08-03T14:10:43Z</time>
      </trkpt>
      <trkpt lat="44.57122" lon="3.1627">
        <ele>1224.4</ele>
        <time>2022-08-03T14:10:45Z</time>
      </trkpt>
      <trkpt lat="44.57122" lon="3.16267">
        <ele>1224.4</ele>
        <time>2022-08-03T14:10:48Z</time>
      </trkpt>
      <trkpt lat="44.5712" lon="3.16262">
        <ele>1224.6</ele>
        <time>2022-08-03T14:10:52Z</time>
      </trkpt>
      <trkpt lat="44.5712" lon="3.16258">
        <ele>1224.7</ele>
        <time>2022-08-03T14:10:54Z</time>
      </trkpt>
      <trkpt lat="44.57118" lon="3.16254">
        <ele>1225</ele>
        <time>2022-08-03T14:10:56Z</time>
      </trkpt>
      <trkpt lat="44.57114" lon="3.16245">
        <ele>1225.4</ele>
        <time>2022-08-03T14:11:02Z</time>
      </trkpt>
      <trkpt lat="44.57113" lon="3.16244">
        <ele>1225.4</ele>
        <time>2022-08-03T14:11:03Z</time>
      </trkpt>
      <trkpt lat="44.5711" lon="3.16234">
        <ele>1225.5</ele>
        <time>2022-08-03T14:11:10Z</time>
      </trkpt>
      <trkpt lat="44.57108" lon="3.16226">
        <ele>1225.4</ele>
        <time>2022-08-03T14:11:15Z</time>
      </trkpt>
      <trkpt lat="44.57107" lon="3.16224">
        <ele>1225.4</ele>
        <time>2022-08-03T14:11:17Z</time>
      </trkpt>
      <trkpt lat="44.57103" lon="3.16216">
        <ele>1225.1</ele>
        <time>2022-08-03T14:11:23Z</time>
      </trkpt>
      <trkpt lat="44.57099" lon="3.16206">
        <ele>1224.7</ele>
        <time>2022-08-03T14:11:30Z</time>
      </trkpt>
      <trkpt lat="44.57096" lon="3.16203">
        <ele>1224.7</ele>
        <time>2022-08-03T14:11:35Z</time>
      </trkpt>
      <trkpt lat="44.57094" lon="3.16201">
        <ele>1224.7</ele>
        <time>2022-08-03T14:11:37Z</time>
      </trkpt>
      <trkpt lat="44.57086" lon="3.16197">
        <ele>1225</ele>
        <time>2022-08-03T14:11:46Z</time>
      </trkpt>
      <trkpt lat="44.57081" lon="3.16196">
        <ele>1225.4</ele>
        <time>2022-08-03T14:11:52Z</time>
      </trkpt>
      <trkpt lat="44.57079" lon="3.16195">
        <ele>1225.5</ele>
        <time>2022-08-03T14:11:54Z</time>
      </trkpt>
      <trkpt lat="44.57077" lon="3.16193">
        <ele>1225.7</ele>
        <time>2022-08-03T14:11:57Z</time>
      </trkpt>
      <trkpt lat="44.57069" lon="3.16191">
        <ele>1226.4</ele>
        <time>2022-08-03T14:12:04Z</time>
      </trkpt>
      <trkpt lat="44.57068" lon="3.16191">
        <ele>1226.5</ele>
        <time>2022-08-03T14:12:05Z</time>
      </trkpt>
      <trkpt lat="44.5706" lon="3.16188">
        <ele>1227.2</ele>
        <time>2022-08-03T14:12:12Z</time>
      </trkpt>
      <trkpt lat="44.57059" lon="3.16188">
        <ele>1227.2</ele>
        <time>2022-08-03T14:12:13Z</time>
      </trkpt>
      <trkpt lat="44.57055" lon="3.16187">
        <ele>1227.5</ele>
        <time>2022-08-03T14:12:17Z</time>
      </trkpt>
      <trkpt lat="44.57054" lon="3.16187">
        <ele>1227.6</ele>
        <time>2022-08-03T14:12:18Z</time>
      </trkpt>
      <trkpt lat="44.5705" lon="3.16187">
        <ele>1228.1</ele>
        <time>2022-08-03T14:12:22Z</time>
      </trkpt>
      <trkpt lat="44.57049" lon="3.16187">
        <ele>1228.1</ele>
        <time>2022-08-03T14:12:23Z</time>
      </trkpt>
      <trkpt lat="44.57043" lon="3.16186">
        <ele>1228.5</ele>
        <time>2022-08-03T14:12:30Z</time>
      </trkpt>
      <trkpt lat="44.57036" lon="3.16184">
        <ele>1229.1</ele>
        <time>2022-08-03T14:12:36Z</time>
      </trkpt>
      <trkpt lat="44.57033" lon="3.16183">
        <ele>1229.3</ele>
        <time>2022-08-03T14:12:38Z</time>
      </trkpt>
      <trkpt lat="44.57022" lon="3.16181">
        <ele>1229.9</ele>
        <time>2022-08-03T14:12:45Z</time>
      </trkpt>
      <trkpt lat="44.57018" lon="3.1618">
        <ele>1230.2</ele>
        <time>2022-08-03T14:12:48Z</time>
      </trkpt>
      <trkpt lat="44.57015" lon="3.16181">
        <ele>1230.4</ele>
        <time>2022-08-03T14:12:52Z</time>
      </trkpt>
      <trkpt lat="44.57013" lon="3.16182">
        <ele>1230.7</ele>
        <time>2022-08-03T14:12:56Z</time>
      </trkpt>
      <trkpt lat="44.57008" lon="3.16178">
        <ele>1230.8</ele>
        <time>2022-08-03T14:13:01Z</time>
      </trkpt>
      <trkpt lat="44.57006" lon="3.16178">
        <ele>1231</ele>
        <time>2022-08-03T14:13:05Z</time>
      </trkpt>
      <trkpt lat="44.57004" lon="3.16177">
        <ele>1231.1</ele>
        <time>2022-08-03T14:13:11Z</time>
      </trkpt>
      <trkpt lat="44.57004" lon="3.16178">
        <ele>1231.1</ele>
        <time>2022-08-03T14:13:18Z</time>
      </trkpt>
      <trkpt lat="44.57004" lon="3.16178">
        <ele>1231.1</ele>
        <time>2022-08-03T14:13:38Z</time>
      </trkpt>
      <trkpt lat="44.57004" lon="3.16177">
        <ele>1231</ele>
        <time>2022-08-03T14:14:10Z</time>
      </trkpt>
      <trkpt lat="44.56996" lon="3.1618">
        <ele>1231.6</ele>
        <time>2022-08-03T14:14:17Z</time>
      </trkpt>
      <trkpt lat="44.56985" lon="3.16186">
        <ele>1232.2</ele>
        <time>2022-08-03T14:14:25Z</time>
      </trkpt>
      <trkpt lat="44.56979" lon="3.16189">
        <ele>1232.6</ele>
        <time>2022-08-03T14:14:32Z</time>
      </trkpt>
      <trkpt lat="44.56972" lon="3.1619">
        <ele>1232.9</ele>
        <time>2022-08-03T14:14:39Z</time>
      </trkpt>
      <trkpt lat="44.5697" lon="3.16191">
        <ele>1232.9</ele>
        <time>2022-08-03T14:14:40Z</time>
      </trkpt>
      <trkpt lat="44.56968" lon="3.16192">
        <ele>1233.1</ele>
        <time>2022-08-03T14:14:42Z</time>
      </trkpt>
      <trkpt lat="44.56957" lon="3.16196">
        <ele>1233.7</ele>
        <time>2022-08-03T14:14:51Z</time>
      </trkpt>
      <trkpt lat="44.56951" lon="3.16199">
        <ele>1234.1</ele>
        <time>2022-08-03T14:14:55Z</time>
      </trkpt>
      <trkpt lat="44.56948" lon="3.16199">
        <ele>1234.2</ele>
        <time>2022-08-03T14:14:58Z</time>
      </trkpt>
      <trkpt lat="44.56947" lon="3.16199">
        <ele>1234.3</ele>
        <time>2022-08-03T14:14:59Z</time>
      </trkpt>
      <trkpt lat="44.56942" lon="3.16198">
        <ele>1234.4</ele>
        <time>2022-08-03T14:15:05Z</time>
      </trkpt>
      <trkpt lat="44.56934" lon="3.16201">
        <ele>1234.9</ele>
        <time>2022-08-03T14:15:11Z</time>
      </trkpt>
      <trkpt lat="44.5693" lon="3.16202">
        <ele>1235.2</ele>
        <time>2022-08-03T14:15:15Z</time>
      </trkpt>
      <trkpt lat="44.56921" lon="3.16206">
        <ele>1236</ele>
        <time>2022-08-03T14:15:23Z</time>
      </trkpt>
      <trkpt lat="44.5692" lon="3.16206">
        <ele>1236.1</ele>
        <time>2022-08-03T14:15:24Z</time>
      </trkpt>
      <trkpt lat="44.56914" lon="3.16209">
        <ele>1236.6</ele>
        <time>2022-08-03T14:15:30Z</time>
      </trkpt>
      <trkpt lat="44.56909" lon="3.16211">
        <ele>1237</ele>
        <time>2022-08-03T14:15:35Z</time>
      </trkpt>
      <trkpt lat="44.56906" lon="3.16212">
        <ele>1237.2</ele>
        <time>2022-08-03T14:15:37Z</time>
      </trkpt>
      <trkpt lat="44.56899" lon="3.16214">
        <ele>1237.7</ele>
        <time>2022-08-03T14:15:44Z</time>
      </trkpt>
      <trkpt lat="44.56898" lon="3.16213">
        <ele>1237.7</ele>
        <time>2022-08-03T14:15:45Z</time>
      </trkpt>
      <trkpt lat="44.56896" lon="3.16214">
        <ele>1237.8</ele>
        <time>2022-08-03T14:15:47Z</time>
      </trkpt>
      <trkpt lat="44.56892" lon="3.16216">
        <ele>1238.2</ele>
        <time>2022-08-03T14:15:52Z</time>
      </trkpt>
      <trkpt lat="44.56886" lon="3.16217">
        <ele>1238.4</ele>
        <time>2022-08-03T14:15:57Z</time>
      </trkpt>
      <trkpt lat="44.56884" lon="3.16219">
        <ele>1238.4</ele>
        <time>2022-08-03T14:15:59Z</time>
      </trkpt>
      <trkpt lat="44.56873" lon="3.16226">
        <ele>1238.8</ele>
        <time>2022-08-03T14:16:09Z</time>
      </trkpt>
      <trkpt lat="44.56866" lon="3.16232">
        <ele>1239.3</ele>
        <time>2022-08-03T14:16:15Z</time>
      </trkpt>
      <trkpt lat="44.56865" lon="3.16233">
        <ele>1239.3</ele>
        <time>2022-08-03T14:16:16Z</time>
      </trkpt>
      <trkpt lat="44.5686" lon="3.16237">
        <ele>1239.6</ele>
        <time>2022-08-03T14:16:21Z</time>
      </trkpt>
      <trkpt lat="44.56859" lon="3.16238">
        <ele>1239.6</ele>
        <time>2022-08-03T14:16:22Z</time>
      </trkpt>
      <trkpt lat="44.56854" lon="3.16239">
        <ele>1239.6</ele>
        <time>2022-08-03T14:16:26Z</time>
      </trkpt>
      <trkpt lat="44.5685" lon="3.1624">
        <ele>1239.6</ele>
        <time>2022-08-03T14:16:30Z</time>
      </trkpt>
      <trkpt lat="44.56849" lon="3.16241">
        <ele>1239.6</ele>
        <time>2022-08-03T14:16:32Z</time>
      </trkpt>
      <trkpt lat="44.56847" lon="3.16243">
        <ele>1239.7</ele>
        <time>2022-08-03T14:16:34Z</time>
      </trkpt>
      <trkpt lat="44.5684" lon="3.16245">
        <ele>1239.7</ele>
        <time>2022-08-03T14:16:41Z</time>
      </trkpt>
      <trkpt lat="44.56839" lon="3.16247">
        <ele>1239.8</ele>
        <time>2022-08-03T14:16:43Z</time>
      </trkpt>
      <trkpt lat="44.56837" lon="3.16249">
        <ele>1240</ele>
        <time>2022-08-03T14:16:46Z</time>
      </trkpt>
      <trkpt lat="44.56831" lon="3.16253">
        <ele>1240.4</ele>
        <time>2022-08-03T14:16:52Z</time>
      </trkpt>
      <trkpt lat="44.56826" lon="3.16257">
        <ele>1240.9</ele>
        <time>2022-08-03T14:16:59Z</time>
      </trkpt>
      <trkpt lat="44.56823" lon="3.16258">
        <ele>1241.1</ele>
        <time>2022-08-03T14:17:02Z</time>
      </trkpt>
      <trkpt lat="44.5682" lon="3.16262">
        <ele>1241.5</ele>
        <time>2022-08-03T14:17:05Z</time>
      </trkpt>
      <trkpt lat="44.56819" lon="3.16262">
        <ele>1241.5</ele>
        <time>2022-08-03T14:17:06Z</time>
      </trkpt>
      <trkpt lat="44.56814" lon="3.16266">
        <ele>1241.9</ele>
        <time>2022-08-03T14:17:11Z</time>
      </trkpt>
      <trkpt lat="44.56804" lon="3.16271">
        <ele>1242.2</ele>
        <time>2022-08-03T14:17:20Z</time>
      </trkpt>
      <trkpt lat="44.56799" lon="3.16276">
        <ele>1242.6</ele>
        <time>2022-08-03T14:17:26Z</time>
      </trkpt>
      <trkpt lat="44.56794" lon="3.16279">
        <ele>1242.8</ele>
        <time>2022-08-03T14:17:30Z</time>
      </trkpt>
      <trkpt lat="44.56794" lon="3.16278">
        <ele>1242.6</ele>
        <time>2022-08-03T14:17:32Z</time>
      </trkpt>
      <trkpt lat="44.56792" lon="3.16279">
        <ele>1242.7</ele>
        <time>2022-08-03T14:17:33Z</time>
      </trkpt>
      <trkpt lat="44.56791" lon="3.16282">
        <ele>1243</ele>
        <time>2022-08-03T14:17:36Z</time>
      </trkpt>
      <trkpt lat="44.5679" lon="3.16283">
        <ele>1243.2</ele>
        <time>2022-08-03T14:17:37Z</time>
      </trkpt>
      <trkpt lat="44.56783" lon="3.16287">
        <ele>1243.5</ele>
        <time>2022-08-03T14:17:42Z</time>
      </trkpt>
      <trkpt lat="44.56779" lon="3.16288">
        <ele>1243.5</ele>
        <time>2022-08-03T14:17:45Z</time>
      </trkpt>
      <trkpt lat="44.56777" lon="3.1629">
        <ele>1243.7</ele>
        <time>2022-08-03T14:17:46Z</time>
      </trkpt>
      <trkpt lat="44.56775" lon="3.16293">
        <ele>1244.3</ele>
        <time>2022-08-03T14:17:49Z</time>
      </trkpt>
      <trkpt lat="44.56773" lon="3.16294">
        <ele>1244.4</ele>
        <time>2022-08-03T14:17:50Z</time>
      </trkpt>
      <trkpt lat="44.56764" lon="3.16303">
        <ele>1245.6</ele>
        <time>2022-08-03T14:17:58Z</time>
      </trkpt>
      <trkpt lat="44.56758" lon="3.16305">
        <ele>1245.9</ele>
        <time>2022-08-03T14:18:03Z</time>
      </trkpt>
      <trkpt lat="44.56756" lon="3.16306">
        <ele>1246.1</ele>
        <time>2022-08-03T14:18:04Z</time>
      </trkpt>
      <trkpt lat="44.56752" lon="3.16309">
        <ele>1246.5</ele>
        <time>2022-08-03T14:18:07Z</time>
      </trkpt>
      <trkpt lat="44.56749" lon="3.16313">
        <ele>1247.1</ele>
        <time>2022-08-03T14:18:12Z</time>
      </trkpt>
      <trkpt lat="44.56747" lon="3.16315">
        <ele>1247.2</ele>
        <time>2022-08-03T14:18:15Z</time>
      </trkpt>
      <trkpt lat="44.56746" lon="3.16315">
        <ele>1247.3</ele>
        <time>2022-08-03T14:18:16Z</time>
      </trkpt>
      <trkpt lat="44.56745" lon="3.16316">
        <ele>1247.5</ele>
        <time>2022-08-03T14:18:20Z</time>
      </trkpt>
      <trkpt lat="44.56745" lon="3.16316">
        <ele>1247.5</ele>
        <time>2022-08-03T14:18:23Z</time>
      </trkpt>
      <trkpt lat="44.56742" lon="3.16312">
        <ele>1246.8</ele>
        <time>2022-08-03T14:18:31Z</time>
      </trkpt>
      <trkpt lat="44.56743" lon="3.1631">
        <ele>1246.6</ele>
        <time>2022-08-03T14:18:39Z</time>
      </trkpt>
      <trkpt lat="44.56739" lon="3.16307">
        <ele>1246.2</ele>
        <time>2022-08-03T14:18:48Z</time>
      </trkpt>
      <trkpt lat="44.56738" lon="3.16303">
        <ele>1245.7</ele>
        <time>2022-08-03T14:19:13Z</time>
      </trkpt>
      <trkpt lat="44.56738" lon="3.16302">
        <ele>1245.7</ele>
        <time>2022-08-03T14:19:15Z</time>
      </trkpt>
      <trkpt lat="44.56736" lon="3.16312">
        <ele>1246.8</ele>
        <time>2022-08-03T14:19:34Z</time>
      </trkpt>
      <trkpt lat="44.56734" lon="3.16318">
        <ele>1247.6</ele>
        <time>2022-08-03T14:19:38Z</time>
      </trkpt>
      <trkpt lat="44.56732" lon="3.16322">
        <ele>1247.9</ele>
        <time>2022-08-03T14:19:40Z</time>
      </trkpt>
      <trkpt lat="44.56732" lon="3.16323">
        <ele>1248.1</ele>
        <time>2022-08-03T14:19:41Z</time>
      </trkpt>
      <trkpt lat="44.56731" lon="3.16323">
        <ele>1248.1</ele>
        <time>2022-08-03T14:19:42Z</time>
      </trkpt>
      <trkpt lat="44.56728" lon="3.16326">
        <ele>1248.3</ele>
        <time>2022-08-03T14:19:45Z</time>
      </trkpt>
      <trkpt lat="44.56727" lon="3.1633">
        <ele>1248.7</ele>
        <time>2022-08-03T14:19:48Z</time>
      </trkpt>
      <trkpt lat="44.56727" lon="3.16331">
        <ele>1248.9</ele>
        <time>2022-08-03T14:19:49Z</time>
      </trkpt>
      <trkpt lat="44.56726" lon="3.16332">
        <ele>1249</ele>
        <time>2022-08-03T14:19:50Z</time>
      </trkpt>
      <trkpt lat="44.56724" lon="3.16334">
        <ele>1249.2</ele>
        <time>2022-08-03T14:19:52Z</time>
      </trkpt>
      <trkpt lat="44.56721" lon="3.16337">
        <ele>1249.6</ele>
        <time>2022-08-03T14:19:55Z</time>
      </trkpt>
      <trkpt lat="44.5672" lon="3.16337">
        <ele>1249.6</ele>
        <time>2022-08-03T14:19:57Z</time>
      </trkpt>
      <trkpt lat="44.5672" lon="3.16337">
        <ele>1249.6</ele>
        <time>2022-08-03T14:20:00Z</time>
      </trkpt>
      <trkpt lat="44.56718" lon="3.16339">
        <ele>1250</ele>
        <time>2022-08-03T14:20:06Z</time>
      </trkpt>
      <trkpt lat="44.56713" lon="3.16351">
        <ele>1251.7</ele>
        <time>2022-08-03T14:20:13Z</time>
      </trkpt>
      <trkpt lat="44.56708" lon="3.16354">
        <ele>1251.9</ele>
        <time>2022-08-03T14:20:19Z</time>
      </trkpt>
      <trkpt lat="44.56706" lon="3.16358">
        <ele>1252.3</ele>
        <time>2022-08-03T14:20:24Z</time>
      </trkpt>
      <trkpt lat="44.56703" lon="3.16359">
        <ele>1252.3</ele>
        <time>2022-08-03T14:20:26Z</time>
      </trkpt>
      <trkpt lat="44.56697" lon="3.16362">
        <ele>1252.3</ele>
        <time>2022-08-03T14:20:32Z</time>
      </trkpt>
      <trkpt lat="44.56697" lon="3.16362">
        <ele>1252.3</ele>
        <time>2022-08-03T14:20:33Z</time>
      </trkpt>
      <trkpt lat="44.56696" lon="3.16366">
        <ele>1253.1</ele>
        <time>2022-08-03T14:20:38Z</time>
      </trkpt>
      <trkpt lat="44.56695" lon="3.16372">
        <ele>1254.3</ele>
        <time>2022-08-03T14:20:42Z</time>
      </trkpt>
      <trkpt lat="44.56694" lon="3.16372">
        <ele>1254.4</ele>
        <time>2022-08-03T14:20:43Z</time>
      </trkpt>
      <trkpt lat="44.56694" lon="3.16373">
        <ele>1254.5</ele>
        <time>2022-08-03T14:20:44Z</time>
      </trkpt>
      <trkpt lat="44.56693" lon="3.16374">
        <ele>1254.7</ele>
        <time>2022-08-03T14:20:46Z</time>
      </trkpt>
      <trkpt lat="44.56693" lon="3.16374">
        <ele>1254.7</ele>
        <time>2022-08-03T14:20:48Z</time>
      </trkpt>
      <trkpt lat="44.56694" lon="3.16375">
        <ele>1255</ele>
        <time>2022-08-03T14:20:53Z</time>
      </trkpt>
      <trkpt lat="44.5669" lon="3.1638">
        <ele>1255.7</ele>
        <time>2022-08-03T14:20:59Z</time>
      </trkpt>
      <trkpt lat="44.56685" lon="3.16387">
        <ele>1256.7</ele>
        <time>2022-08-03T14:21:06Z</time>
      </trkpt>
      <trkpt lat="44.56684" lon="3.16389">
        <ele>1256.9</ele>
        <time>2022-08-03T14:21:08Z</time>
      </trkpt>
      <trkpt lat="44.56683" lon="3.1639">
        <ele>1256.8</ele>
        <time>2022-08-03T14:21:10Z</time>
      </trkpt>
      <trkpt lat="44.56672" lon="3.16395">
        <ele>1256.8</ele>
        <time>2022-08-03T14:21:16Z</time>
      </trkpt>
      <trkpt lat="44.56668" lon="3.16397">
        <ele>1256.9</ele>
        <time>2022-08-03T14:21:20Z</time>
      </trkpt>
      <trkpt lat="44.56667" lon="3.16398">
        <ele>1256.9</ele>
        <time>2022-08-03T14:21:21Z</time>
      </trkpt>
      <trkpt lat="44.56662" lon="3.16401">
        <ele>1257.7</ele>
        <time>2022-08-03T14:21:24Z</time>
      </trkpt>
      <trkpt lat="44.56656" lon="3.16404">
        <ele>1258.4</ele>
        <time>2022-08-03T14:21:28Z</time>
      </trkpt>
      <trkpt lat="44.56654" lon="3.16408">
        <ele>1259.1</ele>
        <time>2022-08-03T14:21:32Z</time>
      </trkpt>
      <trkpt lat="44.56654" lon="3.16409">
        <ele>1259.3</ele>
        <time>2022-08-03T14:21:33Z</time>
      </trkpt>
      <trkpt lat="44.5665" lon="3.16414">
        <ele>1260</ele>
        <time>2022-08-03T14:21:39Z</time>
      </trkpt>
      <trkpt lat="44.56649" lon="3.16419">
        <ele>1260.6</ele>
        <time>2022-08-03T14:21:43Z</time>
      </trkpt>
      <trkpt lat="44.56648" lon="3.16421">
        <ele>1260.8</ele>
        <time>2022-08-03T14:21:45Z</time>
      </trkpt>
      <trkpt lat="44.56641" lon="3.16427">
        <ele>1261.5</ele>
        <time>2022-08-03T14:21:52Z</time>
      </trkpt>
      <trkpt lat="44.56638" lon="3.16427">
        <ele>1261.4</ele>
        <time>2022-08-03T14:21:54Z</time>
      </trkpt>
      <trkpt lat="44.56634" lon="3.16428">
        <ele>1261.7</ele>
        <time>2022-08-03T14:21:57Z</time>
      </trkpt>
      <trkpt lat="44.56632" lon="3.1643">
        <ele>1262.1</ele>
        <time>2022-08-03T14:22:01Z</time>
      </trkpt>
      <trkpt lat="44.56631" lon="3.16431">
        <ele>1262.2</ele>
        <time>2022-08-03T14:22:03Z</time>
      </trkpt>
      <trkpt lat="44.5663" lon="3.1643">
        <ele>1262.1</ele>
        <time>2022-08-03T14:22:04Z</time>
      </trkpt>
      <trkpt lat="44.56625" lon="3.16429">
        <ele>1262.1</ele>
        <time>2022-08-03T14:22:09Z</time>
      </trkpt>
      <trkpt lat="44.56622" lon="3.16428">
        <ele>1262</ele>
        <time>2022-08-03T14:22:12Z</time>
      </trkpt>
      <trkpt lat="44.56621" lon="3.16426">
        <ele>1261.7</ele>
        <time>2022-08-03T14:22:14Z</time>
      </trkpt>
      <trkpt lat="44.56621" lon="3.16424">
        <ele>1261.5</ele>
        <time>2022-08-03T14:22:16Z</time>
      </trkpt>
      <trkpt lat="44.5662" lon="3.16424">
        <ele>1261.5</ele>
        <time>2022-08-03T14:22:18Z</time>
      </trkpt>
      <trkpt lat="44.56618" lon="3.16422">
        <ele>1261.4</ele>
        <time>2022-08-03T14:22:22Z</time>
      </trkpt>
      <trkpt lat="44.56615" lon="3.16421">
        <ele>1261.4</ele>
        <time>2022-08-03T14:22:27Z</time>
      </trkpt>
      <trkpt lat="44.56615" lon="3.16423">
        <ele>1261.5</ele>
        <time>2022-08-03T14:22:30Z</time>
      </trkpt>
      <trkpt lat="44.56615" lon="3.16422">
        <ele>1261.4</ele>
        <time>2022-08-03T14:22:37Z</time>
      </trkpt>
      <trkpt lat="44.56618" lon="3.16423">
        <ele>1261.5</ele>
        <time>2022-08-03T14:22:42Z</time>
      </trkpt>
      <trkpt lat="44.56612" lon="3.1642">
        <ele>1261.3</ele>
        <time>2022-08-03T14:22:56Z</time>
      </trkpt>
      <trkpt lat="44.56608" lon="3.16419">
        <ele>1261.4</ele>
        <time>2022-08-03T14:23:02Z</time>
      </trkpt>
      <trkpt lat="44.56611" lon="3.1642">
        <ele>1261.4</ele>
        <time>2022-08-03T14:23:07Z</time>
      </trkpt>
      <trkpt lat="44.56615" lon="3.16422">
        <ele>1261.4</ele>
        <time>2022-08-03T14:23:12Z</time>
      </trkpt>
      <trkpt lat="44.56613" lon="3.16423">
        <ele>1261.6</ele>
        <time>2022-08-03T14:23:52Z</time>
      </trkpt>
      <trkpt lat="44.56613" lon="3.16423">
        <ele>1261.6</ele>
        <time>2022-08-03T14:23:59Z</time>
      </trkpt>
      <trkpt lat="44.56612" lon="3.16421">
        <ele>1261.5</ele>
        <time>2022-08-03T14:24:05Z</time>
      </trkpt>
      <trkpt lat="44.5661" lon="3.16418">
        <ele>1261.2</ele>
        <time>2022-08-03T14:24:08Z</time>
      </trkpt>
      <trkpt lat="44.56609" lon="3.16417">
        <ele>1261.2</ele>
        <time>2022-08-03T14:24:09Z</time>
      </trkpt>
      <trkpt lat="44.56606" lon="3.16417">
        <ele>1261.4</ele>
        <time>2022-08-03T14:24:13Z</time>
      </trkpt>
      <trkpt lat="44.56609" lon="3.16415">
        <ele>1261.1</ele>
        <time>2022-08-03T14:24:18Z</time>
      </trkpt>
      <trkpt lat="44.56609" lon="3.16415">
        <ele>1261.1</ele>
        <time>2022-08-03T14:24:20Z</time>
      </trkpt>
      <trkpt lat="44.56609" lon="3.16415">
        <ele>1261.1</ele>
        <time>2022-08-03T14:24:24Z</time>
      </trkpt>
      <trkpt lat="44.56609" lon="3.16415">
        <ele>1261.1</ele>
        <time>2022-08-03T14:24:25Z</time>
      </trkpt>
      <trkpt lat="44.56609" lon="3.16413">
        <ele>1261</ele>
        <time>2022-08-03T14:24:28Z</time>
      </trkpt>
      <trkpt lat="44.56605" lon="3.16409">
        <ele>1261</ele>
        <time>2022-08-03T14:24:40Z</time>
      </trkpt>
      <trkpt lat="44.56604" lon="3.16406">
        <ele>1260.9</ele>
        <time>2022-08-03T14:24:44Z</time>
      </trkpt>
      <trkpt lat="44.56605" lon="3.16407">
        <ele>1260.9</ele>
        <time>2022-08-03T14:24:53Z</time>
      </trkpt>
      <trkpt lat="44.56603" lon="3.16404">
        <ele>1260.9</ele>
        <time>2022-08-03T14:25:00Z</time>
      </trkpt>
      <trkpt lat="44.56605" lon="3.16401">
        <ele>1260.6</ele>
        <time>2022-08-03T14:25:05Z</time>
      </trkpt>
      <trkpt lat="44.5661" lon="3.16413">
        <ele>1260.9</ele>
        <time>2022-08-03T14:25:17Z</time>
      </trkpt>
      <trkpt lat="44.56609" lon="3.16419">
        <ele>1261.4</ele>
        <time>2022-08-03T14:25:25Z</time>
      </trkpt>
      <trkpt lat="44.56612" lon="3.16421">
        <ele>1261.5</ele>
        <time>2022-08-03T14:25:33Z</time>
      </trkpt>
      <trkpt lat="44.56612" lon="3.16419">
        <ele>1261.2</ele>
        <time>2022-08-03T14:25:40Z</time>
      </trkpt>
      <trkpt lat="44.56611" lon="3.16419">
        <ele>1261.2</ele>
        <time>2022-08-03T14:25:41Z</time>
      </trkpt>
      <trkpt lat="44.56612" lon="3.16418">
        <ele>1261.1</ele>
        <time>2022-08-03T14:25:43Z</time>
      </trkpt>
      <trkpt lat="44.56611" lon="3.16417">
        <ele>1261</ele>
        <time>2022-08-03T14:25:45Z</time>
      </trkpt>
      <trkpt lat="44.56609" lon="3.16417">
        <ele>1261.2</ele>
        <time>2022-08-03T14:25:47Z</time>
      </trkpt>
      <trkpt lat="44.56608" lon="3.16418">
        <ele>1261.4</ele>
        <time>2022-08-03T14:25:49Z</time>
      </trkpt>
      <trkpt lat="44.56607" lon="3.16418">
        <ele>1261.4</ele>
        <time>2022-08-03T14:25:51Z</time>
      </trkpt>
      <trkpt lat="44.56607" lon="3.16418">
        <ele>1261.5</ele>
        <time>2022-08-03T14:25:53Z</time>
      </trkpt>
      <trkpt lat="44.56607" lon="3.16418">
        <ele>1261.5</ele>
        <time>2022-08-03T14:25:54Z</time>
      </trkpt>
      <trkpt lat="44.56608" lon="3.16419">
        <ele>1261.5</ele>
        <time>2022-08-03T14:25:56Z</time>
      </trkpt>
      <trkpt lat="44.56609" lon="3.1642">
        <ele>1261.5</ele>
        <time>2022-08-03T14:25:59Z</time>
      </trkpt>
      <trkpt lat="44.5661" lon="3.16421">
        <ele>1261.6</ele>
        <time>2022-08-03T14:26:01Z</time>
      </trkpt>
      <trkpt lat="44.56609" lon="3.16421">
        <ele>1261.6</ele>
        <time>2022-08-03T14:26:03Z</time>
      </trkpt>
      <trkpt lat="44.56606" lon="3.1642">
        <ele>1261.8</ele>
        <time>2022-08-03T14:26:09Z</time>
      </trkpt>
      <trkpt lat="44.56606" lon="3.1642">
        <ele>1261.8</ele>
        <time>2022-08-03T14:26:10Z</time>
      </trkpt>
      <trkpt lat="44.56606" lon="3.1642">
        <ele>1261.8</ele>
        <time>2022-08-03T14:26:11Z</time>
      </trkpt>
      <trkpt lat="44.56606" lon="3.1642">
        <ele>1261.8</ele>
        <time>2022-08-03T14:26:13Z</time>
      </trkpt>
      <trkpt lat="44.56611" lon="3.16421">
        <ele>1261.4</ele>
        <time>2022-08-03T14:27:05Z</time>
      </trkpt>
      <trkpt lat="44.56612" lon="3.1642">
        <ele>1261.3</ele>
        <time>2022-08-03T14:27:23Z</time>
      </trkpt>
      <trkpt lat="44.56612" lon="3.16416">
        <ele>1260.9</ele>
        <time>2022-08-03T14:27:29Z</time>
      </trkpt>
      <trkpt lat="44.56612" lon="3.16416">
        <ele>1260.9</ele>
        <time>2022-08-03T14:27:33Z</time>
      </trkpt>
      <trkpt lat="44.56611" lon="3.16416">
        <ele>1261</ele>
        <time>2022-08-03T14:27:39Z</time>
      </trkpt>
      <trkpt lat="44.56609" lon="3.16411">
        <ele>1260.9</ele>
        <time>2022-08-03T14:27:47Z</time>
      </trkpt>
      <trkpt lat="44.5661" lon="3.16411">
        <ele>1260.9</ele>
        <time>2022-08-03T14:27:52Z</time>
      </trkpt>
      <trkpt lat="44.5661" lon="3.16411">
        <ele>1260.9</ele>
        <time>2022-08-03T14:27:53Z</time>
      </trkpt>
      <trkpt lat="44.56609" lon="3.16409">
        <ele>1260.8</ele>
        <time>2022-08-03T14:27:58Z</time>
      </trkpt>
      <trkpt lat="44.56609" lon="3.16408">
        <ele>1260.8</ele>
        <time>2022-08-03T14:28:01Z</time>
      </trkpt>
      <trkpt lat="44.5661" lon="3.16409">
        <ele>1260.8</ele>
        <time>2022-08-03T14:28:06Z</time>
      </trkpt>
      <trkpt lat="44.5661" lon="3.16409">
        <ele>1260.8</ele>
        <time>2022-08-03T14:28:07Z</time>
      </trkpt>
      <trkpt lat="44.56609" lon="3.16408">
        <ele>1260.8</ele>
        <time>2022-08-03T14:28:08Z</time>
      </trkpt>
      <trkpt lat="44.56608" lon="3.16409">
        <ele>1260.9</ele>
        <time>2022-08-03T14:28:13Z</time>
      </trkpt>
      <trkpt lat="44.56608" lon="3.16411">
        <ele>1261</ele>
        <time>2022-08-03T14:28:18Z</time>
      </trkpt>
      <trkpt lat="44.56608" lon="3.1641">
        <ele>1260.9</ele>
        <time>2022-08-03T14:28:25Z</time>
      </trkpt>
      <trkpt lat="44.56608" lon="3.1641">
        <ele>1260.9</ele>
        <time>2022-08-03T14:28:28Z</time>
      </trkpt>
      <trkpt lat="44.56608" lon="3.16411">
        <ele>1261</ele>
        <time>2022-08-03T14:28:41Z</time>
      </trkpt>
      <trkpt lat="44.56608" lon="3.16412">
        <ele>1261</ele>
        <time>2022-08-03T14:28:47Z</time>
      </trkpt>
      <trkpt lat="44.56608" lon="3.16412">
        <ele>1261</ele>
        <time>2022-08-03T14:28:54Z</time>
      </trkpt>
      <trkpt lat="44.56609" lon="3.16412">
        <ele>1261</ele>
        <time>2022-08-03T14:29:08Z</time>
      </trkpt>
      <trkpt lat="44.56611" lon="3.16421">
        <ele>1261.5</ele>
        <time>2022-08-03T14:29:35Z</time>
      </trkpt>
      <trkpt lat="44.56611" lon="3.16423">
        <ele>1261.7</ele>
        <time>2022-08-03T14:29:43Z</time>
      </trkpt>
      <trkpt lat="44.56609" lon="3.16425">
        <ele>1262.1</ele>
        <time>2022-08-03T14:29:45Z</time>
      </trkpt>
      <trkpt lat="44.56608" lon="3.1643">
        <ele>1262.8</ele>
        <time>2022-08-03T14:29:47Z</time>
      </trkpt>
      <trkpt lat="44.56606" lon="3.16432">
        <ele>1263.3</ele>
        <time>2022-08-03T14:29:49Z</time>
      </trkpt>
      <trkpt lat="44.56604" lon="3.16435">
        <ele>1263.9</ele>
        <time>2022-08-03T14:29:51Z</time>
      </trkpt>
      <trkpt lat="44.56602" lon="3.16437">
        <ele>1264.2</ele>
        <time>2022-08-03T14:29:52Z</time>
      </trkpt>
      <trkpt lat="44.56601" lon="3.16438">
        <ele>1264.6</ele>
        <time>2022-08-03T14:29:53Z</time>
      </trkpt>
      <trkpt lat="44.56598" lon="3.16439">
        <ele>1265.1</ele>
        <time>2022-08-03T14:29:56Z</time>
      </trkpt>
      <trkpt lat="44.56595" lon="3.16441">
        <ele>1265.8</ele>
        <time>2022-08-03T14:29:59Z</time>
      </trkpt>
      <trkpt lat="44.56593" lon="3.16441">
        <ele>1266</ele>
        <time>2022-08-03T14:30:01Z</time>
      </trkpt>
      <trkpt lat="44.56587" lon="3.1644">
        <ele>1266.7</ele>
        <time>2022-08-03T14:30:08Z</time>
      </trkpt>
      <trkpt lat="44.56584" lon="3.16439">
        <ele>1266.9</ele>
        <time>2022-08-03T14:30:10Z</time>
      </trkpt>
      <trkpt lat="44.56581" lon="3.16437">
        <ele>1267.3</ele>
        <time>2022-08-03T14:30:14Z</time>
      </trkpt>
      <trkpt lat="44.56572" lon="3.16437">
        <ele>1269</ele>
        <time>2022-08-03T14:30:21Z</time>
      </trkpt>
      <trkpt lat="44.56569" lon="3.16435">
        <ele>1269.3</ele>
        <time>2022-08-03T14:30:26Z</time>
      </trkpt>
      <trkpt lat="44.56567" lon="3.16432">
        <ele>1269.2</ele>
        <time>2022-08-03T14:30:33Z</time>
      </trkpt>
      <trkpt lat="44.56566" lon="3.16429">
        <ele>1269.2</ele>
        <time>2022-08-03T14:30:36Z</time>
      </trkpt>
      <trkpt lat="44.56564" lon="3.16427">
        <ele>1269.3</ele>
        <time>2022-08-03T14:30:38Z</time>
      </trkpt>
      <trkpt lat="44.56558" lon="3.16423">
        <ele>1270.1</ele>
        <time>2022-08-03T14:30:43Z</time>
      </trkpt>
      <trkpt lat="44.56558" lon="3.16422">
        <ele>1270.1</ele>
        <time>2022-08-03T14:30:44Z</time>
      </trkpt>
      <trkpt lat="44.56551" lon="3.16419">
        <ele>1272</ele>
        <time>2022-08-03T14:30:49Z</time>
      </trkpt>
      <trkpt lat="44.56549" lon="3.16417">
        <ele>1272.5</ele>
        <time>2022-08-03T14:30:54Z</time>
      </trkpt>
      <trkpt lat="44.56548" lon="3.16414">
        <ele>1272.7</ele>
        <time>2022-08-03T14:30:57Z</time>
      </trkpt>
      <trkpt lat="44.56547" lon="3.16412">
        <ele>1273</ele>
        <time>2022-08-03T14:30:59Z</time>
      </trkpt>
      <trkpt lat="44.56547" lon="3.16406">
        <ele>1272.8</ele>
        <time>2022-08-03T14:31:04Z</time>
      </trkpt>
      <trkpt lat="44.56546" lon="3.16405">
        <ele>1273</ele>
        <time>2022-08-03T14:31:05Z</time>
      </trkpt>
      <trkpt lat="44.56543" lon="3.16398">
        <ele>1274.1</ele>
        <time>2022-08-03T14:31:10Z</time>
      </trkpt>
      <trkpt lat="44.56541" lon="3.16394">
        <ele>1274.4</ele>
        <time>2022-08-03T14:31:13Z</time>
      </trkpt>
      <trkpt lat="44.5654" lon="3.16391">
        <ele>1274.9</ele>
        <time>2022-08-03T14:31:16Z</time>
      </trkpt>
      <trkpt lat="44.56537" lon="3.16388">
        <ele>1276.1</ele>
        <time>2022-08-03T14:31:20Z</time>
      </trkpt>
      <trkpt lat="44.56537" lon="3.16384">
        <ele>1275.8</ele>
        <time>2022-08-03T14:31:24Z</time>
      </trkpt>
      <trkpt lat="44.56536" lon="3.16382">
        <ele>1275.8</ele>
        <time>2022-08-03T14:31:26Z</time>
      </trkpt>
      <trkpt lat="44.56537" lon="3.16382">
        <ele>1275.6</ele>
        <time>2022-08-03T14:31:29Z</time>
      </trkpt>
      <trkpt lat="44.56537" lon="3.16383">
        <ele>1275.5</ele>
        <time>2022-08-03T14:31:30Z</time>
      </trkpt>
      <trkpt lat="44.56538" lon="3.16386">
        <ele>1275.1</ele>
        <time>2022-08-03T14:31:37Z</time>
      </trkpt>
      <trkpt lat="44.56532" lon="3.16383">
        <ele>1277.4</ele>
        <time>2022-08-03T14:32:13Z</time>
      </trkpt>
      <trkpt lat="44.5653" lon="3.16375">
        <ele>1277.8</ele>
        <time>2022-08-03T14:32:17Z</time>
      </trkpt>
      <trkpt lat="44.5653" lon="3.16375">
        <ele>1277.7</ele>
        <time>2022-08-03T14:32:18Z</time>
      </trkpt>
      <trkpt lat="44.5653" lon="3.16374">
        <ele>1277.4</ele>
        <time>2022-08-03T14:32:20Z</time>
      </trkpt>
      <trkpt lat="44.56527" lon="3.16368">
        <ele>1277.9</ele>
        <time>2022-08-03T14:32:27Z</time>
      </trkpt>
      <trkpt lat="44.56528" lon="3.16365">
        <ele>1277.5</ele>
        <time>2022-08-03T14:32:34Z</time>
      </trkpt>
      <trkpt lat="44.56533" lon="3.16373">
        <ele>1276.2</ele>
        <time>2022-08-03T14:32:41Z</time>
      </trkpt>
      <trkpt lat="44.56535" lon="3.16378">
        <ele>1275.9</ele>
        <time>2022-08-03T14:32:46Z</time>
      </trkpt>
      <trkpt lat="44.56536" lon="3.16384">
        <ele>1276.1</ele>
        <time>2022-08-03T14:32:52Z</time>
      </trkpt>
      <trkpt lat="44.56532" lon="3.16387">
        <ele>1277.9</ele>
        <time>2022-08-03T14:33:00Z</time>
      </trkpt>
      <trkpt lat="44.56532" lon="3.16387">
        <ele>1277.9</ele>
        <time>2022-08-03T14:33:01Z</time>
      </trkpt>
      <trkpt lat="44.5653" lon="3.16387">
        <ele>1279</ele>
        <time>2022-08-03T14:33:06Z</time>
      </trkpt>
      <trkpt lat="44.56529" lon="3.16387">
        <ele>1279.2</ele>
        <time>2022-08-03T14:33:07Z</time>
      </trkpt>
      <trkpt lat="44.56527" lon="3.16389">
        <ele>1280.1</ele>
        <time>2022-08-03T14:33:12Z</time>
      </trkpt>
      <trkpt lat="44.56525" lon="3.16391">
        <ele>1280.9</ele>
        <time>2022-08-03T14:33:17Z</time>
      </trkpt>
      <trkpt lat="44.56523" lon="3.16393">
        <ele>1281.6</ele>
        <time>2022-08-03T14:33:19Z</time>
      </trkpt>
      <trkpt lat="44.56521" lon="3.16393">
        <ele>1282.5</ele>
        <time>2022-08-03T14:33:23Z</time>
      </trkpt>
      <trkpt lat="44.5652" lon="3.16393">
        <ele>1282.8</ele>
        <time>2022-08-03T14:33:24Z</time>
      </trkpt>
      <trkpt lat="44.56517" lon="3.16392">
        <ele>1283.6</ele>
        <time>2022-08-03T14:33:29Z</time>
      </trkpt>
      <trkpt lat="44.56515" lon="3.16392">
        <ele>1284.5</ele>
        <time>2022-08-03T14:33:33Z</time>
      </trkpt>
      <trkpt lat="44.56513" lon="3.16391">
        <ele>1284.9</ele>
        <time>2022-08-03T14:33:36Z</time>
      </trkpt>
      <trkpt lat="44.56509" lon="3.1639">
        <ele>1286.1</ele>
        <time>2022-08-03T14:33:42Z</time>
      </trkpt>
      <trkpt lat="44.56507" lon="3.1639">
        <ele>1286.7</ele>
        <time>2022-08-03T14:33:44Z</time>
      </trkpt>
      <trkpt lat="44.56506" lon="3.16389">
        <ele>1287.1</ele>
        <time>2022-08-03T14:33:47Z</time>
      </trkpt>
      <trkpt lat="44.56505" lon="3.16388">
        <ele>1287.4</ele>
        <time>2022-08-03T14:33:50Z</time>
      </trkpt>
      <trkpt lat="44.56505" lon="3.1639">
        <ele>1287.7</ele>
        <time>2022-08-03T14:33:54Z</time>
      </trkpt>
      <trkpt lat="44.56504" lon="3.16391">
        <ele>1287.9</ele>
        <time>2022-08-03T14:33:56Z</time>
      </trkpt>
      <trkpt lat="44.56504" lon="3.16392">
        <ele>1288</ele>
        <time>2022-08-03T14:33:59Z</time>
      </trkpt>
      <trkpt lat="44.56502" lon="3.16393">
        <ele>1288.7</ele>
        <time>2022-08-03T14:34:01Z</time>
      </trkpt>
      <trkpt lat="44.56502" lon="3.16394">
        <ele>1288.9</ele>
        <time>2022-08-03T14:34:02Z</time>
      </trkpt>
      <trkpt lat="44.56501" lon="3.16394">
        <ele>1289.3</ele>
        <time>2022-08-03T14:34:03Z</time>
      </trkpt>
      <trkpt lat="44.56499" lon="3.16393">
        <ele>1289.9</ele>
        <time>2022-08-03T14:34:07Z</time>
      </trkpt>
      <trkpt lat="44.56499" lon="3.16392">
        <ele>1289.9</ele>
        <time>2022-08-03T14:34:08Z</time>
      </trkpt>
      <trkpt lat="44.56495" lon="3.16389">
        <ele>1290.8</ele>
        <time>2022-08-03T14:34:14Z</time>
      </trkpt>
      <trkpt lat="44.56495" lon="3.16389">
        <ele>1290.8</ele>
        <time>2022-08-03T14:34:16Z</time>
      </trkpt>
      <trkpt lat="44.56493" lon="3.16387">
        <ele>1291.4</ele>
        <time>2022-08-03T14:34:21Z</time>
      </trkpt>
      <trkpt lat="44.56492" lon="3.16385">
        <ele>1291.4</ele>
        <time>2022-08-03T14:34:27Z</time>
      </trkpt>
      <trkpt lat="44.56492" lon="3.16384">
        <ele>1291.5</ele>
        <time>2022-08-03T14:34:28Z</time>
      </trkpt>
      <trkpt lat="44.56487" lon="3.16379">
        <ele>1292.6</ele>
        <time>2022-08-03T14:34:35Z</time>
      </trkpt>
      <trkpt lat="44.56482" lon="3.16379">
        <ele>1294.6</ele>
        <time>2022-08-03T14:34:42Z</time>
      </trkpt>
      <trkpt lat="44.56481" lon="3.16379">
        <ele>1294.9</ele>
        <time>2022-08-03T14:34:43Z</time>
      </trkpt>
      <trkpt lat="44.56477" lon="3.16376">
        <ele>1295.8</ele>
        <time>2022-08-03T14:34:49Z</time>
      </trkpt>
      <trkpt lat="44.56472" lon="3.16373">
        <ele>1297.2</ele>
        <time>2022-08-03T14:34:55Z</time>
      </trkpt>
      <trkpt lat="44.56472" lon="3.16373">
        <ele>1297.4</ele>
        <time>2022-08-03T14:34:56Z</time>
      </trkpt>
      <trkpt lat="44.56469" lon="3.16374">
        <ele>1298.5</ele>
        <time>2022-08-03T14:35:03Z</time>
      </trkpt>
      <trkpt lat="44.56469" lon="3.16373">
        <ele>1298.6</ele>
        <time>2022-08-03T14:35:04Z</time>
      </trkpt>
      <trkpt lat="44.56469" lon="3.16372">
        <ele>1298.5</ele>
        <time>2022-08-03T14:35:06Z</time>
      </trkpt>
      <trkpt lat="44.56468" lon="3.16373">
        <ele>1298.8</ele>
        <time>2022-08-03T14:35:09Z</time>
      </trkpt>
      <trkpt lat="44.56469" lon="3.16373">
        <ele>1298.5</ele>
        <time>2022-08-03T14:35:14Z</time>
      </trkpt>
      <trkpt lat="44.56469" lon="3.16374">
        <ele>1298.8</ele>
        <time>2022-08-03T14:35:15Z</time>
      </trkpt>
      <trkpt lat="44.56468" lon="3.16374">
        <ele>1298.9</ele>
        <time>2022-08-03T14:35:19Z</time>
      </trkpt>
      <trkpt lat="44.56468" lon="3.16374">
        <ele>1299.1</ele>
        <time>2022-08-03T14:35:21Z</time>
      </trkpt>
      <trkpt lat="44.56467" lon="3.16374">
        <ele>1299.5</ele>
        <time>2022-08-03T14:35:24Z</time>
      </trkpt>
      <trkpt lat="44.56464" lon="3.16376">
        <ele>1301</ele>
        <time>2022-08-03T14:35:28Z</time>
      </trkpt>
      <trkpt lat="44.56462" lon="3.16375">
        <ele>1301.7</ele>
        <time>2022-08-03T14:35:32Z</time>
      </trkpt>
      <trkpt lat="44.56462" lon="3.16375">
        <ele>1301.8</ele>
        <time>2022-08-03T14:35:33Z</time>
      </trkpt>
      <trkpt lat="44.56459" lon="3.16374">
        <ele>1302.5</ele>
        <time>2022-08-03T14:35:38Z</time>
      </trkpt>
      <trkpt lat="44.56459" lon="3.16373">
        <ele>1302.6</ele>
        <time>2022-08-03T14:35:40Z</time>
      </trkpt>
      <trkpt lat="44.56453" lon="3.16372">
        <ele>1304.6</ele>
        <time>2022-08-03T14:35:47Z</time>
      </trkpt>
      <trkpt lat="44.56452" lon="3.16372">
        <ele>1304.9</ele>
        <time>2022-08-03T14:35:48Z</time>
      </trkpt>
      <trkpt lat="44.5645" lon="3.1637">
        <ele>1305.6</ele>
        <time>2022-08-03T14:35:54Z</time>
      </trkpt>
      <trkpt lat="44.56449" lon="3.16369">
        <ele>1305.7</ele>
        <time>2022-08-03T14:35:56Z</time>
      </trkpt>
      <trkpt lat="44.56448" lon="3.16368">
        <ele>1305.7</ele>
        <time>2022-08-03T14:35:57Z</time>
      </trkpt>
      <trkpt lat="44.56447" lon="3.16366">
        <ele>1306</ele>
        <time>2022-08-03T14:36:00Z</time>
      </trkpt>
      <trkpt lat="44.56446" lon="3.16366">
        <ele>1306.3</ele>
        <time>2022-08-03T14:36:01Z</time>
      </trkpt>
      <trkpt lat="44.56443" lon="3.16364">
        <ele>1306.9</ele>
        <time>2022-08-03T14:36:07Z</time>
      </trkpt>
      <trkpt lat="44.56441" lon="3.16364">
        <ele>1307.6</ele>
        <time>2022-08-03T14:36:12Z</time>
      </trkpt>
      <trkpt lat="44.56439" lon="3.16362">
        <ele>1307.8</ele>
        <time>2022-08-03T14:36:15Z</time>
      </trkpt>
      <trkpt lat="44.56436" lon="3.16361">
        <ele>1308.4</ele>
        <time>2022-08-03T14:36:18Z</time>
      </trkpt>
      <trkpt lat="44.56435" lon="3.1636">
        <ele>1308.7</ele>
        <time>2022-08-03T14:36:21Z</time>
      </trkpt>
      <trkpt lat="44.56431" lon="3.16359">
        <ele>1309.5</ele>
        <time>2022-08-03T14:36:24Z</time>
      </trkpt>
      <trkpt lat="44.5643" lon="3.16359">
        <ele>1309.7</ele>
        <time>2022-08-03T14:36:25Z</time>
      </trkpt>
      <trkpt lat="44.56427" lon="3.16357">
        <ele>1310.3</ele>
        <time>2022-08-03T14:36:28Z</time>
      </trkpt>
      <trkpt lat="44.56427" lon="3.16356">
        <ele>1310.2</ele>
        <time>2022-08-03T14:36:29Z</time>
      </trkpt>
      <trkpt lat="44.56422" lon="3.16352">
        <ele>1310.8</ele>
        <time>2022-08-03T14:36:34Z</time>
      </trkpt>
      <trkpt lat="44.56418" lon="3.1635">
        <ele>1311.6</ele>
        <time>2022-08-03T14:36:39Z</time>
      </trkpt>
      <trkpt lat="44.56418" lon="3.1635">
        <ele>1311.7</ele>
        <time>2022-08-03T14:36:41Z</time>
      </trkpt>
      <trkpt lat="44.56416" lon="3.16349">
        <ele>1312</ele>
        <time>2022-08-03T14:36:49Z</time>
      </trkpt>
      <trkpt lat="44.56414" lon="3.16348">
        <ele>1312.2</ele>
        <time>2022-08-03T14:36:57Z</time>
      </trkpt>
      <trkpt lat="44.56415" lon="3.16347">
        <ele>1312</ele>
        <time>2022-08-03T14:37:01Z</time>
      </trkpt>
      <trkpt lat="44.56414" lon="3.16346">
        <ele>1311.9</ele>
        <time>2022-08-03T14:37:03Z</time>
      </trkpt>
      <trkpt lat="44.56421" lon="3.16353">
        <ele>1311.3</ele>
        <time>2022-08-03T14:37:34Z</time>
      </trkpt>
      <trkpt lat="44.56426" lon="3.16357">
        <ele>1310.7</ele>
        <time>2022-08-03T14:37:41Z</time>
      </trkpt>
      <trkpt lat="44.56428" lon="3.16359">
        <ele>1310.5</ele>
        <time>2022-08-03T14:37:48Z</time>
      </trkpt>
      <trkpt lat="44.56428" lon="3.16359">
        <ele>1310.4</ele>
        <time>2022-08-03T14:37:56Z</time>
      </trkpt>
      <trkpt lat="44.56427" lon="3.16357">
        <ele>1310.3</ele>
        <time>2022-08-03T14:38:31Z</time>
      </trkpt>
      <trkpt lat="44.56423" lon="3.16354">
        <ele>1311</ele>
        <time>2022-08-03T14:38:35Z</time>
      </trkpt>
      <trkpt lat="44.5642" lon="3.16352">
        <ele>1311.4</ele>
        <time>2022-08-03T14:38:41Z</time>
      </trkpt>
      <trkpt lat="44.56421" lon="3.16352">
        <ele>1311.1</ele>
        <time>2022-08-03T14:38:43Z</time>
      </trkpt>
      <trkpt lat="44.56422" lon="3.16352">
        <ele>1310.8</ele>
        <time>2022-08-03T14:38:48Z</time>
      </trkpt>
      <trkpt lat="44.56421" lon="3.16351">
        <ele>1311.1</ele>
        <time>2022-08-03T14:39:00Z</time>
      </trkpt>
      <trkpt lat="44.56415" lon="3.16347">
        <ele>1311.9</ele>
        <time>2022-08-03T14:39:05Z</time>
      </trkpt>
      <trkpt lat="44.56408" lon="3.16344">
        <ele>1313</ele>
        <time>2022-08-03T14:39:09Z</time>
      </trkpt>
      <trkpt lat="44.56405" lon="3.16343">
        <ele>1313.5</ele>
        <time>2022-08-03T14:39:12Z</time>
      </trkpt>
      <trkpt lat="44.56397" lon="3.16339">
        <ele>1314.7</ele>
        <time>2022-08-03T14:39:19Z</time>
      </trkpt>
      <trkpt lat="44.56394" lon="3.16337">
        <ele>1315.3</ele>
        <time>2022-08-03T14:39:23Z</time>
      </trkpt>
      <trkpt lat="44.56391" lon="3.16336">
        <ele>1315.8</ele>
        <time>2022-08-03T14:39:26Z</time>
      </trkpt>
      <trkpt lat="44.5639" lon="3.16335">
        <ele>1316</ele>
        <time>2022-08-03T14:39:27Z</time>
      </trkpt>
      <trkpt lat="44.56389" lon="3.16334">
        <ele>1316</ele>
        <time>2022-08-03T14:39:28Z</time>
      </trkpt>
      <trkpt lat="44.56386" lon="3.16334">
        <ele>1316.6</ele>
        <time>2022-08-03T14:39:32Z</time>
      </trkpt>
      <trkpt lat="44.56385" lon="3.16333">
        <ele>1316.6</ele>
        <time>2022-08-03T14:39:33Z</time>
      </trkpt>
      <trkpt lat="44.56384" lon="3.16332">
        <ele>1316.7</ele>
        <time>2022-08-03T14:39:34Z</time>
      </trkpt>
      <trkpt lat="44.56379" lon="3.16328">
        <ele>1317.1</ele>
        <time>2022-08-03T14:39:39Z</time>
      </trkpt>
      <trkpt lat="44.56375" lon="3.16326">
        <ele>1317.6</ele>
        <time>2022-08-03T14:39:43Z</time>
      </trkpt>
      <trkpt lat="44.56372" lon="3.16325">
        <ele>1318.2</ele>
        <time>2022-08-03T14:39:47Z</time>
      </trkpt>
      <trkpt lat="44.56368" lon="3.16326">
        <ele>1318.9</ele>
        <time>2022-08-03T14:39:51Z</time>
      </trkpt>
      <trkpt lat="44.56361" lon="3.16323">
        <ele>1320</ele>
        <time>2022-08-03T14:39:59Z</time>
      </trkpt>
      <trkpt lat="44.56347" lon="3.16319">
        <ele>1321</ele>
        <time>2022-08-03T14:40:08Z</time>
      </trkpt>
      <trkpt lat="44.56345" lon="3.16318">
        <ele>1321.1</ele>
        <time>2022-08-03T14:40:10Z</time>
      </trkpt>
      <trkpt lat="44.56336" lon="3.16314">
        <ele>1321.7</ele>
        <time>2022-08-03T14:40:17Z</time>
      </trkpt>
      <trkpt lat="44.56335" lon="3.16313">
        <ele>1321.7</ele>
        <time>2022-08-03T14:40:18Z</time>
      </trkpt>
      <trkpt lat="44.56333" lon="3.16313">
        <ele>1321.8</ele>
        <time>2022-08-03T14:40:19Z</time>
      </trkpt>
      <trkpt lat="44.56329" lon="3.16309">
        <ele>1322.1</ele>
        <time>2022-08-03T14:40:24Z</time>
      </trkpt>
      <trkpt lat="44.56328" lon="3.16309">
        <ele>1322.3</ele>
        <time>2022-08-03T14:40:26Z</time>
      </trkpt>
      <trkpt lat="44.56327" lon="3.16308">
        <ele>1322.5</ele>
        <time>2022-08-03T14:40:28Z</time>
      </trkpt>
      <trkpt lat="44.56326" lon="3.16308">
        <ele>1322.5</ele>
        <time>2022-08-03T14:40:30Z</time>
      </trkpt>
      <trkpt lat="44.56321" lon="3.16305">
        <ele>1323.2</ele>
        <time>2022-08-03T14:40:35Z</time>
      </trkpt>
      <trkpt lat="44.5632" lon="3.16305">
        <ele>1323.4</ele>
        <time>2022-08-03T14:40:36Z</time>
      </trkpt>
      <trkpt lat="44.56316" lon="3.16303">
        <ele>1324.1</ele>
        <time>2022-08-03T14:40:41Z</time>
      </trkpt>
      <trkpt lat="44.56313" lon="3.16302">
        <ele>1324.5</ele>
        <time>2022-08-03T14:40:44Z</time>
      </trkpt>
      <trkpt lat="44.56308" lon="3.16299">
        <ele>1325.1</ele>
        <time>2022-08-03T14:40:48Z</time>
      </trkpt>
      <trkpt lat="44.56306" lon="3.16299">
        <ele>1325.4</ele>
        <time>2022-08-03T14:40:51Z</time>
      </trkpt>
      <trkpt lat="44.56304" lon="3.16299">
        <ele>1325.9</ele>
        <time>2022-08-03T14:40:52Z</time>
      </trkpt>
      <trkpt lat="44.56299" lon="3.16298">
        <ele>1326.9</ele>
        <time>2022-08-03T14:40:58Z</time>
      </trkpt>
      <trkpt lat="44.56297" lon="3.16297">
        <ele>1327.1</ele>
        <time>2022-08-03T14:41:00Z</time>
      </trkpt>
      <trkpt lat="44.56294" lon="3.16294">
        <ele>1327.6</ele>
        <time>2022-08-03T14:41:01Z</time>
      </trkpt>
      <trkpt lat="44.56293" lon="3.16291">
        <ele>1327.8</ele>
        <time>2022-08-03T14:41:03Z</time>
      </trkpt>
      <trkpt lat="44.56292" lon="3.16291">
        <ele>1327.9</ele>
        <time>2022-08-03T14:41:04Z</time>
      </trkpt>
      <trkpt lat="44.56288" lon="3.16289">
        <ele>1328.5</ele>
        <time>2022-08-03T14:41:08Z</time>
      </trkpt>
      <trkpt lat="44.56287" lon="3.16288">
        <ele>1328.7</ele>
        <time>2022-08-03T14:41:10Z</time>
      </trkpt>
      <trkpt lat="44.56287" lon="3.16287">
        <ele>1328.8</ele>
        <time>2022-08-03T14:41:11Z</time>
      </trkpt>
      <trkpt lat="44.56286" lon="3.16287">
        <ele>1329</ele>
        <time>2022-08-03T14:41:12Z</time>
      </trkpt>
      <trkpt lat="44.56284" lon="3.16285">
        <ele>1329.2</ele>
        <time>2022-08-03T14:41:14Z</time>
      </trkpt>
      <trkpt lat="44.56282" lon="3.16282">
        <ele>1329.4</ele>
        <time>2022-08-03T14:41:17Z</time>
      </trkpt>
      <trkpt lat="44.56281" lon="3.16281">
        <ele>1329.7</ele>
        <time>2022-08-03T14:41:19Z</time>
      </trkpt>
      <trkpt lat="44.56277" lon="3.16281">
        <ele>1330.4</ele>
        <time>2022-08-03T14:41:22Z</time>
      </trkpt>
      <trkpt lat="44.56273" lon="3.16279">
        <ele>1331.1</ele>
        <time>2022-08-03T14:41:26Z</time>
      </trkpt>
      <trkpt lat="44.56269" lon="3.16278">
        <ele>1332</ele>
        <time>2022-08-03T14:41:29Z</time>
      </trkpt>
      <trkpt lat="44.56266" lon="3.16275">
        <ele>1332.4</ele>
        <time>2022-08-03T14:41:33Z</time>
      </trkpt>
      <trkpt lat="44.56264" lon="3.16272">
        <ele>1332.8</ele>
        <time>2022-08-03T14:41:36Z</time>
      </trkpt>
      <trkpt lat="44.5626" lon="3.16269">
        <ele>1333.4</ele>
        <time>2022-08-03T14:41:41Z</time>
      </trkpt>
      <trkpt lat="44.56257" lon="3.16267">
        <ele>1333.8</ele>
        <time>2022-08-03T14:41:45Z</time>
      </trkpt>
      <trkpt lat="44.56255" lon="3.16267">
        <ele>1334.2</ele>
        <time>2022-08-03T14:41:48Z</time>
      </trkpt>
      <trkpt lat="44.56252" lon="3.16265">
        <ele>1334.8</ele>
        <time>2022-08-03T14:41:52Z</time>
      </trkpt>
      <trkpt lat="44.56246" lon="3.16261">
        <ele>1335.7</ele>
        <time>2022-08-03T14:42:00Z</time>
      </trkpt>
      <trkpt lat="44.56243" lon="3.16263">
        <ele>1336.5</ele>
        <time>2022-08-03T14:42:04Z</time>
      </trkpt>
      <trkpt lat="44.5624" lon="3.16262">
        <ele>1337</ele>
        <time>2022-08-03T14:42:09Z</time>
      </trkpt>
      <trkpt lat="44.56238" lon="3.16261">
        <ele>1337.3</ele>
        <time>2022-08-03T14:42:11Z</time>
      </trkpt>
      <trkpt lat="44.56234" lon="3.16261">
        <ele>1338.2</ele>
        <time>2022-08-03T14:42:16Z</time>
      </trkpt>
      <trkpt lat="44.56232" lon="3.16262">
        <ele>1338.7</ele>
        <time>2022-08-03T14:42:19Z</time>
      </trkpt>
      <trkpt lat="44.56231" lon="3.16262">
        <ele>1339</ele>
        <time>2022-08-03T14:42:22Z</time>
      </trkpt>
      <trkpt lat="44.56231" lon="3.16262">
        <ele>1339</ele>
        <time>2022-08-03T14:42:24Z</time>
      </trkpt>
      <trkpt lat="44.56231" lon="3.16262">
        <ele>1339</ele>
        <time>2022-08-03T14:42:25Z</time>
      </trkpt>
      <trkpt lat="44.5623" lon="3.16261">
        <ele>1339.1</ele>
        <time>2022-08-03T14:42:26Z</time>
      </trkpt>
      <trkpt lat="44.56229" lon="3.16261">
        <ele>1339.3</ele>
        <time>2022-08-03T14:42:27Z</time>
      </trkpt>
      <trkpt lat="44.56228" lon="3.16259">
        <ele>1339.3</ele>
        <time>2022-08-03T14:42:31Z</time>
      </trkpt>
      <trkpt lat="44.56227" lon="3.16256">
        <ele>1339.4</ele>
        <time>2022-08-03T14:42:36Z</time>
      </trkpt>
      <trkpt lat="44.56227" lon="3.16255">
        <ele>1339.4</ele>
        <time>2022-08-03T14:42:40Z</time>
      </trkpt>
      <trkpt lat="44.56226" lon="3.16254">
        <ele>1339.6</ele>
        <time>2022-08-03T14:42:44Z</time>
      </trkpt>
      <trkpt lat="44.56224" lon="3.16254">
        <ele>1339.9</ele>
        <time>2022-08-03T14:42:50Z</time>
      </trkpt>
      <trkpt lat="44.56223" lon="3.16256">
        <ele>1340.2</ele>
        <time>2022-08-03T14:42:52Z</time>
      </trkpt>
      <trkpt lat="44.56223" lon="3.16255">
        <ele>1340.2</ele>
        <time>2022-08-03T14:43:02Z</time>
      </trkpt>
      <trkpt lat="44.56223" lon="3.16255">
        <ele>1340.3</ele>
        <time>2022-08-03T14:43:26Z</time>
      </trkpt>
      <trkpt lat="44.56222" lon="3.16255">
        <ele>1340.3</ele>
        <time>2022-08-03T14:43:36Z</time>
      </trkpt>
      <trkpt lat="44.56222" lon="3.16255">
        <ele>1340.4</ele>
        <time>2022-08-03T14:43:38Z</time>
      </trkpt>
      <trkpt lat="44.56222" lon="3.16255">
        <ele>1340.4</ele>
        <time>2022-08-03T14:43:53Z</time>
      </trkpt>
      <trkpt lat="44.56221" lon="3.16254">
        <ele>1340.5</ele>
        <time>2022-08-03T14:44:11Z</time>
      </trkpt>
      <trkpt lat="44.56221" lon="3.16254">
        <ele>1340.5</ele>
        <time>2022-08-03T14:44:27Z</time>
      </trkpt>
      <trkpt lat="44.56219" lon="3.16252">
        <ele>1340.6</ele>
        <time>2022-08-03T14:44:55Z</time>
      </trkpt>
      <trkpt lat="44.56212" lon="3.1625">
        <ele>1341.5</ele>
        <time>2022-08-03T14:45:02Z</time>
      </trkpt>
      <trkpt lat="44.56204" lon="3.16246">
        <ele>1342.2</ele>
        <time>2022-08-03T14:45:08Z</time>
      </trkpt>
      <trkpt lat="44.56198" lon="3.16243">
        <ele>1342.7</ele>
        <time>2022-08-03T14:45:15Z</time>
      </trkpt>
      <trkpt lat="44.56195" lon="3.16242">
        <ele>1343.1</ele>
        <time>2022-08-03T14:45:17Z</time>
      </trkpt>
      <trkpt lat="44.56189" lon="3.16239">
        <ele>1343.9</ele>
        <time>2022-08-03T14:45:22Z</time>
      </trkpt>
      <trkpt lat="44.56186" lon="3.16237">
        <ele>1344.3</ele>
        <time>2022-08-03T14:45:25Z</time>
      </trkpt>
      <trkpt lat="44.56177" lon="3.1623">
        <ele>1345.1</ele>
        <time>2022-08-03T14:45:34Z</time>
      </trkpt>
      <trkpt lat="44.56174" lon="3.16229">
        <ele>1345.6</ele>
        <time>2022-08-03T14:45:37Z</time>
      </trkpt>
      <trkpt lat="44.56172" lon="3.16228">
        <ele>1345.9</ele>
        <time>2022-08-03T14:45:39Z</time>
      </trkpt>
      <trkpt lat="44.56168" lon="3.16228">
        <ele>1346.6</ele>
        <time>2022-08-03T14:45:43Z</time>
      </trkpt>
      <trkpt lat="44.56166" lon="3.16226">
        <ele>1346.7</ele>
        <time>2022-08-03T14:45:46Z</time>
      </trkpt>
      <trkpt lat="44.56164" lon="3.16227">
        <ele>1347</ele>
        <time>2022-08-03T14:45:49Z</time>
      </trkpt>
      <trkpt lat="44.56163" lon="3.16226">
        <ele>1347.2</ele>
        <time>2022-08-03T14:45:51Z</time>
      </trkpt>
      <trkpt lat="44.56156" lon="3.16224">
        <ele>1347.9</ele>
        <time>2022-08-03T14:46:00Z</time>
      </trkpt>
      <trkpt lat="44.5615" lon="3.16221">
        <ele>1348.3</ele>
        <time>2022-08-03T14:46:06Z</time>
      </trkpt>
      <trkpt lat="44.56149" lon="3.16221">
        <ele>1348.4</ele>
        <time>2022-08-03T14:46:07Z</time>
      </trkpt>
      <trkpt lat="44.56147" lon="3.1622">
        <ele>1348.4</ele>
        <time>2022-08-03T14:46:08Z</time>
      </trkpt>
      <trkpt lat="44.56144" lon="3.16216">
        <ele>1348.5</ele>
        <time>2022-08-03T14:46:13Z</time>
      </trkpt>
      <trkpt lat="44.56144" lon="3.16217">
        <ele>1348.5</ele>
        <time>2022-08-03T14:46:14Z</time>
      </trkpt>
      <trkpt lat="44.5614" lon="3.16214">
        <ele>1348.6</ele>
        <time>2022-08-03T14:46:21Z</time>
      </trkpt>
      <trkpt lat="44.56132" lon="3.16208">
        <ele>1348.4</ele>
        <time>2022-08-03T14:46:27Z</time>
      </trkpt>
      <trkpt lat="44.5613" lon="3.16207">
        <ele>1348.5</ele>
        <time>2022-08-03T14:46:30Z</time>
      </trkpt>
      <trkpt lat="44.56121" lon="3.16205">
        <ele>1348.8</ele>
        <time>2022-08-03T14:46:39Z</time>
      </trkpt>
      <trkpt lat="44.56113" lon="3.16204">
        <ele>1349.2</ele>
        <time>2022-08-03T14:46:47Z</time>
      </trkpt>
      <trkpt lat="44.56112" lon="3.16204">
        <ele>1349.3</ele>
        <time>2022-08-03T14:46:48Z</time>
      </trkpt>
      <trkpt lat="44.56104" lon="3.16202">
        <ele>1349.3</ele>
        <time>2022-08-03T14:46:56Z</time>
      </trkpt>
      <trkpt lat="44.56095" lon="3.16201">
        <ele>1349.6</ele>
        <time>2022-08-03T14:47:04Z</time>
      </trkpt>
      <trkpt lat="44.56094" lon="3.16202">
        <ele>1349.6</ele>
        <time>2022-08-03T14:47:05Z</time>
      </trkpt>
      <trkpt lat="44.56087" lon="3.162">
        <ele>1349.7</ele>
        <time>2022-08-03T14:47:10Z</time>
      </trkpt>
      <trkpt lat="44.56084" lon="3.162">
        <ele>1349.8</ele>
        <time>2022-08-03T14:47:13Z</time>
      </trkpt>
      <trkpt lat="44.5608" lon="3.16199">
        <ele>1349.6</ele>
        <time>2022-08-03T14:47:17Z</time>
      </trkpt>
      <trkpt lat="44.5607" lon="3.16196">
        <ele>1349.2</ele>
        <time>2022-08-03T14:47:25Z</time>
      </trkpt>
      <trkpt lat="44.56064" lon="3.16193">
        <ele>1348.9</ele>
        <time>2022-08-03T14:47:30Z</time>
      </trkpt>
      <trkpt lat="44.56058" lon="3.16193">
        <ele>1348.8</ele>
        <time>2022-08-03T14:47:34Z</time>
      </trkpt>
      <trkpt lat="44.5605" lon="3.16193">
        <ele>1349</ele>
        <time>2022-08-03T14:47:41Z</time>
      </trkpt>
      <trkpt lat="44.56048" lon="3.16193">
        <ele>1349.1</ele>
        <time>2022-08-03T14:47:43Z</time>
      </trkpt>
      <trkpt lat="44.56045" lon="3.16192">
        <ele>1349.1</ele>
        <time>2022-08-03T14:47:45Z</time>
      </trkpt>
      <trkpt lat="44.56042" lon="3.16192">
        <ele>1349.1</ele>
        <time>2022-08-03T14:47:48Z</time>
      </trkpt>
      <trkpt lat="44.5604" lon="3.16192">
        <ele>1349.2</ele>
        <time>2022-08-03T14:47:49Z</time>
      </trkpt>
      <trkpt lat="44.56039" lon="3.16191">
        <ele>1349.2</ele>
        <time>2022-08-03T14:47:50Z</time>
      </trkpt>
      <trkpt lat="44.56034" lon="3.16187">
        <ele>1348.8</ele>
        <time>2022-08-03T14:47:56Z</time>
      </trkpt>
      <trkpt lat="44.56033" lon="3.16187">
        <ele>1348.8</ele>
        <time>2022-08-03T14:47:57Z</time>
      </trkpt>
      <trkpt lat="44.56027" lon="3.16183">
        <ele>1348.4</ele>
        <time>2022-08-03T14:48:04Z</time>
      </trkpt>
      <trkpt lat="44.56027" lon="3.16182">
        <ele>1348.2</ele>
        <time>2022-08-03T14:48:12Z</time>
      </trkpt>
      <trkpt lat="44.56028" lon="3.16182">
        <ele>1348.1</ele>
        <time>2022-08-03T14:48:17Z</time>
      </trkpt>
      <trkpt lat="44.56028" lon="3.16182">
        <ele>1348.2</ele>
        <time>2022-08-03T14:48:29Z</time>
      </trkpt>
      <trkpt lat="44.56023" lon="3.16181">
        <ele>1348.2</ele>
        <time>2022-08-03T14:48:41Z</time>
      </trkpt>
      <trkpt lat="44.5602" lon="3.16182">
        <ele>1348.4</ele>
        <time>2022-08-03T14:48:43Z</time>
      </trkpt>
      <trkpt lat="44.5601" lon="3.16181">
        <ele>1348.7</ele>
        <time>2022-08-03T14:48:50Z</time>
      </trkpt>
      <trkpt lat="44.56002" lon="3.1618">
        <ele>1348.9</ele>
        <time>2022-08-03T14:48:57Z</time>
      </trkpt>
      <trkpt lat="44.56001" lon="3.16181">
        <ele>1349</ele>
        <time>2022-08-03T14:48:58Z</time>
      </trkpt>
      <trkpt lat="44.56" lon="3.16182">
        <ele>1349.1</ele>
        <time>2022-08-03T14:49:01Z</time>
      </trkpt>
      <trkpt lat="44.55999" lon="3.16182">
        <ele>1349.2</ele>
        <time>2022-08-03T14:49:02Z</time>
      </trkpt>
      <trkpt lat="44.55999" lon="3.16183">
        <ele>1349.2</ele>
        <time>2022-08-03T14:49:03Z</time>
      </trkpt>
      <trkpt lat="44.55999" lon="3.16183">
        <ele>1349.2</ele>
        <time>2022-08-03T14:49:05Z</time>
      </trkpt>
      <trkpt lat="44.55999" lon="3.16185">
        <ele>1349.4</ele>
        <time>2022-08-03T14:49:07Z</time>
      </trkpt>
      <trkpt lat="44.56001" lon="3.16184">
        <ele>1349.2</ele>
        <time>2022-08-03T14:49:13Z</time>
      </trkpt>
      <trkpt lat="44.56" lon="3.16184">
        <ele>1349.2</ele>
        <time>2022-08-03T14:49:26Z</time>
      </trkpt>
      <trkpt lat="44.55993" lon="3.16173">
        <ele>1349</ele>
        <time>2022-08-03T14:50:13Z</time>
      </trkpt>
      <trkpt lat="44.55998" lon="3.16178">
        <ele>1348.9</ele>
        <time>2022-08-03T14:50:54Z</time>
      </trkpt>
      <trkpt lat="44.55997" lon="3.16176">
        <ele>1348.9</ele>
        <time>2022-08-03T14:51:09Z</time>
      </trkpt>
      <trkpt lat="44.55998" lon="3.16175">
        <ele>1348.7</ele>
        <time>2022-08-03T14:52:07Z</time>
      </trkpt>
      <trkpt lat="44.55993" lon="3.16173">
        <ele>1348.9</ele>
        <time>2022-08-03T14:52:13Z</time>
      </trkpt>
      <trkpt lat="44.55988" lon="3.16173">
        <ele>1349.4</ele>
        <time>2022-08-03T14:52:19Z</time>
      </trkpt>
      <trkpt lat="44.55978" lon="3.16174">
        <ele>1350.1</ele>
        <time>2022-08-03T14:52:28Z</time>
      </trkpt>
      <trkpt lat="44.55968" lon="3.16171">
        <ele>1350.6</ele>
        <time>2022-08-03T14:52:35Z</time>
      </trkpt>
      <trkpt lat="44.55965" lon="3.16169">
        <ele>1350.7</ele>
        <time>2022-08-03T14:52:38Z</time>
      </trkpt>
      <trkpt lat="44.55959" lon="3.16168">
        <ele>1351.1</ele>
        <time>2022-08-03T14:52:44Z</time>
      </trkpt>
      <trkpt lat="44.55952" lon="3.16169">
        <ele>1351.5</ele>
        <time>2022-08-03T14:52:49Z</time>
      </trkpt>
      <trkpt lat="44.5595" lon="3.16168">
        <ele>1351.6</ele>
        <time>2022-08-03T14:52:51Z</time>
      </trkpt>
      <trkpt lat="44.55945" lon="3.16167">
        <ele>1352</ele>
        <time>2022-08-03T14:52:56Z</time>
      </trkpt>
      <trkpt lat="44.55941" lon="3.16166">
        <ele>1352.2</ele>
        <time>2022-08-03T14:52:59Z</time>
      </trkpt>
      <trkpt lat="44.55936" lon="3.16163">
        <ele>1352.6</ele>
        <time>2022-08-03T14:53:04Z</time>
      </trkpt>
      <trkpt lat="44.55933" lon="3.16161">
        <ele>1352.8</ele>
        <time>2022-08-03T14:53:06Z</time>
      </trkpt>
      <trkpt lat="44.5593" lon="3.16161">
        <ele>1353</ele>
        <time>2022-08-03T14:53:09Z</time>
      </trkpt>
      <trkpt lat="44.55928" lon="3.16161">
        <ele>1353.2</ele>
        <time>2022-08-03T14:53:11Z</time>
      </trkpt>
      <trkpt lat="44.55926" lon="3.16161">
        <ele>1353.3</ele>
        <time>2022-08-03T14:53:13Z</time>
      </trkpt>
      <trkpt lat="44.55925" lon="3.16161">
        <ele>1353.4</ele>
        <time>2022-08-03T14:53:14Z</time>
      </trkpt>
      <trkpt lat="44.55916" lon="3.1616">
        <ele>1354</ele>
        <time>2022-08-03T14:53:23Z</time>
      </trkpt>
      <trkpt lat="44.55907" lon="3.16157">
        <ele>1354.5</ele>
        <time>2022-08-03T14:53:31Z</time>
      </trkpt>
      <trkpt lat="44.55903" lon="3.16155">
        <ele>1354.7</ele>
        <time>2022-08-03T14:53:34Z</time>
      </trkpt>
      <trkpt lat="44.55896" lon="3.16154">
        <ele>1355.1</ele>
        <time>2022-08-03T14:53:39Z</time>
      </trkpt>
      <trkpt lat="44.55888" lon="3.16152">
        <ele>1355.6</ele>
        <time>2022-08-03T14:53:46Z</time>
      </trkpt>
      <trkpt lat="44.55881" lon="3.1615">
        <ele>1355.9</ele>
        <time>2022-08-03T14:53:53Z</time>
      </trkpt>
      <trkpt lat="44.55879" lon="3.1615">
        <ele>1356</ele>
        <time>2022-08-03T14:53:55Z</time>
      </trkpt>
      <trkpt lat="44.55875" lon="3.16147">
        <ele>1356.2</ele>
        <time>2022-08-03T14:53:59Z</time>
      </trkpt>
      <trkpt lat="44.55875" lon="3.16147">
        <ele>1356.2</ele>
        <time>2022-08-03T14:54:02Z</time>
      </trkpt>
      <trkpt lat="44.55877" lon="3.16146">
        <ele>1356.2</ele>
        <time>2022-08-03T14:54:09Z</time>
      </trkpt>
      <trkpt lat="44.55877" lon="3.16146">
        <ele>1356.2</ele>
        <time>2022-08-03T14:54:11Z</time>
      </trkpt>
      <trkpt lat="44.55877" lon="3.16146">
        <ele>1356.2</ele>
        <time>2022-08-03T14:54:18Z</time>
      </trkpt>
      <trkpt lat="44.55877" lon="3.16145">
        <ele>1356.2</ele>
        <time>2022-08-03T14:54:40Z</time>
      </trkpt>
      <trkpt lat="44.55871" lon="3.16146">
        <ele>1356.4</ele>
        <time>2022-08-03T14:54:56Z</time>
      </trkpt>
      <trkpt lat="44.55869" lon="3.16146">
        <ele>1356.4</ele>
        <time>2022-08-03T14:54:57Z</time>
      </trkpt>
      <trkpt lat="44.55866" lon="3.16145">
        <ele>1356.6</ele>
        <time>2022-08-03T14:54:59Z</time>
      </trkpt>
      <trkpt lat="44.5586" lon="3.16141">
        <ele>1357</ele>
        <time>2022-08-03T14:55:05Z</time>
      </trkpt>
      <trkpt lat="44.55861" lon="3.1614">
        <ele>1357</ele>
        <time>2022-08-03T14:55:07Z</time>
      </trkpt>
      <trkpt lat="44.5586" lon="3.1614">
        <ele>1357</ele>
        <time>2022-08-03T14:55:11Z</time>
      </trkpt>
      <trkpt lat="44.55854" lon="3.16136">
        <ele>1357.2</ele>
        <time>2022-08-03T14:55:19Z</time>
      </trkpt>
      <trkpt lat="44.55853" lon="3.16137">
        <ele>1357.3</ele>
        <time>2022-08-03T14:55:20Z</time>
      </trkpt>
      <trkpt lat="44.55849" lon="3.16144">
        <ele>1357.3</ele>
        <time>2022-08-03T14:55:27Z</time>
      </trkpt>
      <trkpt lat="44.55845" lon="3.16148">
        <ele>1357.3</ele>
        <time>2022-08-03T14:55:35Z</time>
      </trkpt>
      <trkpt lat="44.55847" lon="3.16148">
        <ele>1357.2</ele>
        <time>2022-08-03T14:55:43Z</time>
      </trkpt>
      <trkpt lat="44.55847" lon="3.16148">
        <ele>1357.2</ele>
        <time>2022-08-03T14:56:01Z</time>
      </trkpt>
      <trkpt lat="44.55844" lon="3.16147">
        <ele>1357.3</ele>
        <time>2022-08-03T14:56:49Z</time>
      </trkpt>
      <trkpt lat="44.55844" lon="3.16147">
        <ele>1357.3</ele>
        <time>2022-08-03T14:56:54Z</time>
      </trkpt>
      <trkpt lat="44.5585" lon="3.16142">
        <ele>1357.3</ele>
        <time>2022-08-03T14:57:09Z</time>
      </trkpt>
      <trkpt lat="44.55854" lon="3.16138">
        <ele>1357.3</ele>
        <time>2022-08-03T14:57:16Z</time>
      </trkpt>
      <trkpt lat="44.55857" lon="3.16129">
        <ele>1357.2</ele>
        <time>2022-08-03T14:57:23Z</time>
      </trkpt>
      <trkpt lat="44.55853" lon="3.16119">
        <ele>1357.3</ele>
        <time>2022-08-03T14:57:30Z</time>
      </trkpt>
      <trkpt lat="44.55844" lon="3.16104">
        <ele>1357.6</ele>
        <time>2022-08-03T14:57:40Z</time>
      </trkpt>
      <trkpt lat="44.55842" lon="3.16102">
        <ele>1357.7</ele>
        <time>2022-08-03T14:57:42Z</time>
      </trkpt>
      <trkpt lat="44.55832" lon="3.16084">
        <ele>1358</ele>
        <time>2022-08-03T14:57:53Z</time>
      </trkpt>
      <trkpt lat="44.55827" lon="3.16069">
        <ele>1357.6</ele>
        <time>2022-08-03T14:58:02Z</time>
      </trkpt>
      <trkpt lat="44.55822" lon="3.16055">
        <ele>1357.4</ele>
        <time>2022-08-03T14:58:10Z</time>
      </trkpt>
      <trkpt lat="44.55819" lon="3.16041">
        <ele>1356.7</ele>
        <time>2022-08-03T14:58:17Z</time>
      </trkpt>
      <trkpt lat="44.55813" lon="3.16025">
        <ele>1356</ele>
        <time>2022-08-03T14:58:26Z</time>
      </trkpt>
      <trkpt lat="44.55806" lon="3.16008">
        <ele>1356</ele>
        <time>2022-08-03T14:58:36Z</time>
      </trkpt>
      <trkpt lat="44.55801" lon="3.15994">
        <ele>1355.7</ele>
        <time>2022-08-03T14:58:44Z</time>
      </trkpt>
      <trkpt lat="44.55799" lon="3.15989">
        <ele>1355.5</ele>
        <time>2022-08-03T14:58:47Z</time>
      </trkpt>
      <trkpt lat="44.55798" lon="3.15985">
        <ele>1355.3</ele>
        <time>2022-08-03T14:58:49Z</time>
      </trkpt>
      <trkpt lat="44.55793" lon="3.15973">
        <ele>1355</ele>
        <time>2022-08-03T14:58:57Z</time>
      </trkpt>
      <trkpt lat="44.55788" lon="3.15958">
        <ele>1355.3</ele>
        <time>2022-08-03T14:59:06Z</time>
      </trkpt>
      <trkpt lat="44.55786" lon="3.1595">
        <ele>1355.6</ele>
        <time>2022-08-03T14:59:12Z</time>
      </trkpt>
      <trkpt lat="44.55785" lon="3.15947">
        <ele>1355.7</ele>
        <time>2022-08-03T14:59:14Z</time>
      </trkpt>
      <trkpt lat="44.55782" lon="3.15938">
        <ele>1356.1</ele>
        <time>2022-08-03T14:59:18Z</time>
      </trkpt>
      <trkpt lat="44.55778" lon="3.15921">
        <ele>1356.8</ele>
        <time>2022-08-03T14:59:25Z</time>
      </trkpt>
      <trkpt lat="44.55778" lon="3.15919">
        <ele>1356.9</ele>
        <time>2022-08-03T14:59:26Z</time>
      </trkpt>
      <trkpt lat="44.55775" lon="3.15905">
        <ele>1357</ele>
        <time>2022-08-03T14:59:34Z</time>
      </trkpt>
      <trkpt lat="44.55774" lon="3.15898">
        <ele>1357</ele>
        <time>2022-08-03T14:59:39Z</time>
      </trkpt>
      <trkpt lat="44.55774" lon="3.15897">
        <ele>1357</ele>
        <time>2022-08-03T14:59:40Z</time>
      </trkpt>
      <trkpt lat="44.55774" lon="3.15893">
        <ele>1357</ele>
        <time>2022-08-03T14:59:42Z</time>
      </trkpt>
      <trkpt lat="44.55772" lon="3.15888">
        <ele>1357</ele>
        <time>2022-08-03T14:59:46Z</time>
      </trkpt>
      <trkpt lat="44.55769" lon="3.1588">
        <ele>1357.3</ele>
        <time>2022-08-03T14:59:50Z</time>
      </trkpt>
      <trkpt lat="44.55768" lon="3.15876">
        <ele>1357.5</ele>
        <time>2022-08-03T14:59:52Z</time>
      </trkpt>
      <trkpt lat="44.55768" lon="3.15865">
        <ele>1357.8</ele>
        <time>2022-08-03T14:59:58Z</time>
      </trkpt>
      <trkpt lat="44.55765" lon="3.15858">
        <ele>1358.3</ele>
        <time>2022-08-03T15:00:06Z</time>
      </trkpt>
      <trkpt lat="44.55765" lon="3.15857">
        <ele>1358.3</ele>
        <time>2022-08-03T15:00:07Z</time>
      </trkpt>
      <trkpt lat="44.55765" lon="3.15855">
        <ele>1358.5</ele>
        <time>2022-08-03T15:00:10Z</time>
      </trkpt>
      <trkpt lat="44.55764" lon="3.15855">
        <ele>1358.5</ele>
        <time>2022-08-03T15:00:13Z</time>
      </trkpt>
      <trkpt lat="44.55762" lon="3.15856">
        <ele>1358.3</ele>
        <time>2022-08-03T15:00:19Z</time>
      </trkpt>
      <trkpt lat="44.55763" lon="3.15856">
        <ele>1358.3</ele>
        <time>2022-08-03T15:00:22Z</time>
      </trkpt>
      <trkpt lat="44.55763" lon="3.15856">
        <ele>1358.3</ele>
        <time>2022-08-03T15:00:27Z</time>
      </trkpt>
      <trkpt lat="44.55769" lon="3.15848">
        <ele>1359.1</ele>
        <time>2022-08-03T15:00:52Z</time>
      </trkpt>
      <trkpt lat="44.5577" lon="3.15845">
        <ele>1359.4</ele>
        <time>2022-08-03T15:00:58Z</time>
      </trkpt>
      <trkpt lat="44.55769" lon="3.15846">
        <ele>1359.3</ele>
        <time>2022-08-03T15:01:02Z</time>
      </trkpt>
      <trkpt lat="44.55769" lon="3.15846">
        <ele>1359.3</ele>
        <time>2022-08-03T15:01:03Z</time>
      </trkpt>
      <trkpt lat="44.55774" lon="3.15838">
        <ele>1360.3</ele>
        <time>2022-08-03T15:01:10Z</time>
      </trkpt>
      <trkpt lat="44.55778" lon="3.15839">
        <ele>1360.4</ele>
        <time>2022-08-03T15:01:16Z</time>
      </trkpt>
      <trkpt lat="44.5578" lon="3.15839">
        <ele>1360.3</ele>
        <time>2022-08-03T15:01:22Z</time>
      </trkpt>
      <trkpt lat="44.5578" lon="3.15839">
        <ele>1360.4</ele>
        <time>2022-08-03T15:01:23Z</time>
      </trkpt>
      <trkpt lat="44.55782" lon="3.15836">
        <ele>1360.6</ele>
        <time>2022-08-03T15:01:31Z</time>
      </trkpt>
      <trkpt lat="44.55785" lon="3.15829">
        <ele>1361</ele>
        <time>2022-08-03T15:01:37Z</time>
      </trkpt>
      <trkpt lat="44.55789" lon="3.15829">
        <ele>1360.9</ele>
        <time>2022-08-03T15:01:43Z</time>
      </trkpt>
      <trkpt lat="44.55792" lon="3.15823">
        <ele>1361.3</ele>
        <time>2022-08-03T15:01:48Z</time>
      </trkpt>
      <trkpt lat="44.55798" lon="3.15816">
        <ele>1361.8</ele>
        <time>2022-08-03T15:01:54Z</time>
      </trkpt>
      <trkpt lat="44.558" lon="3.15811">
        <ele>1362.3</ele>
        <time>2022-08-03T15:01:57Z</time>
      </trkpt>
      <trkpt lat="44.55803" lon="3.15808">
        <ele>1362.7</ele>
        <time>2022-08-03T15:02:00Z</time>
      </trkpt>
      <trkpt lat="44.55806" lon="3.15804">
        <ele>1363.1</ele>
        <time>2022-08-03T15:02:03Z</time>
      </trkpt>
      <trkpt lat="44.55807" lon="3.15802">
        <ele>1363.2</ele>
        <time>2022-08-03T15:02:05Z</time>
      </trkpt>
      <trkpt lat="44.55808" lon="3.15801">
        <ele>1363.2</ele>
        <time>2022-08-03T15:02:06Z</time>
      </trkpt>
      <trkpt lat="44.55809" lon="3.158">
        <ele>1363.3</ele>
        <time>2022-08-03T15:02:07Z</time>
      </trkpt>
      <trkpt lat="44.5581" lon="3.15799">
        <ele>1363.3</ele>
        <time>2022-08-03T15:02:08Z</time>
      </trkpt>
      <trkpt lat="44.55812" lon="3.15797">
        <ele>1363.4</ele>
        <time>2022-08-03T15:02:11Z</time>
      </trkpt>
      <trkpt lat="44.55812" lon="3.15796">
        <ele>1363.4</ele>
        <time>2022-08-03T15:02:12Z</time>
      </trkpt>
      <trkpt lat="44.55815" lon="3.15796">
        <ele>1363.3</ele>
        <time>2022-08-03T15:02:16Z</time>
      </trkpt>
      <trkpt lat="44.55815" lon="3.15797">
        <ele>1363.3</ele>
        <time>2022-08-03T15:02:18Z</time>
      </trkpt>
      <trkpt lat="44.55817" lon="3.15798">
        <ele>1363.2</ele>
        <time>2022-08-03T15:02:23Z</time>
      </trkpt>
      <trkpt lat="44.55817" lon="3.15798">
        <ele>1363.2</ele>
        <time>2022-08-03T15:02:25Z</time>
      </trkpt>
      <trkpt lat="44.55817" lon="3.15797">
        <ele>1363.2</ele>
        <time>2022-08-03T15:02:26Z</time>
      </trkpt>
      <trkpt lat="44.55818" lon="3.15791">
        <ele>1363.6</ele>
        <time>2022-08-03T15:02:30Z</time>
      </trkpt>
      <trkpt lat="44.55823" lon="3.15785">
        <ele>1363.8</ele>
        <time>2022-08-03T15:02:37Z</time>
      </trkpt>
      <trkpt lat="44.55824" lon="3.15792">
        <ele>1363.3</ele>
        <time>2022-08-03T15:02:49Z</time>
      </trkpt>
      <trkpt lat="44.55825" lon="3.15787">
        <ele>1363.6</ele>
        <time>2022-08-03T15:03:02Z</time>
      </trkpt>
      <trkpt lat="44.55831" lon="3.15769">
        <ele>1364.4</ele>
        <time>2022-08-03T15:03:10Z</time>
      </trkpt>
      <trkpt lat="44.55831" lon="3.15766">
        <ele>1364.5</ele>
        <time>2022-08-03T15:03:12Z</time>
      </trkpt>
      <trkpt lat="44.55831" lon="3.15762">
        <ele>1364.7</ele>
        <time>2022-08-03T15:03:15Z</time>
      </trkpt>
      <trkpt lat="44.5583" lon="3.15762">
        <ele>1364.7</ele>
        <time>2022-08-03T15:03:16Z</time>
      </trkpt>
      <trkpt lat="44.5583" lon="3.15762">
        <ele>1364.7</ele>
        <time>2022-08-03T15:03:19Z</time>
      </trkpt>
      <trkpt lat="44.5583" lon="3.15759">
        <ele>1364.8</ele>
        <time>2022-08-03T15:03:21Z</time>
      </trkpt>
      <trkpt lat="44.55829" lon="3.15747">
        <ele>1365.2</ele>
        <time>2022-08-03T15:03:28Z</time>
      </trkpt>
      <trkpt lat="44.55829" lon="3.15736">
        <ele>1365.2</ele>
        <time>2022-08-03T15:03:35Z</time>
      </trkpt>
      <trkpt lat="44.55826" lon="3.15721">
        <ele>1365.6</ele>
        <time>2022-08-03T15:03:44Z</time>
      </trkpt>
      <trkpt lat="44.55824" lon="3.15714">
        <ele>1365.9</ele>
        <time>2022-08-03T15:03:48Z</time>
      </trkpt>
      <trkpt lat="44.55822" lon="3.15702">
        <ele>1366.3</ele>
        <time>2022-08-03T15:03:55Z</time>
      </trkpt>
      <trkpt lat="44.5582" lon="3.15689">
        <ele>1366.5</ele>
        <time>2022-08-03T15:04:02Z</time>
      </trkpt>
      <trkpt lat="44.55818" lon="3.15672">
        <ele>1366.6</ele>
        <time>2022-08-03T15:04:12Z</time>
      </trkpt>
      <trkpt lat="44.55816" lon="3.15658">
        <ele>1366.5</ele>
        <time>2022-08-03T15:04:20Z</time>
      </trkpt>
      <trkpt lat="44.55816" lon="3.15646">
        <ele>1366.4</ele>
        <time>2022-08-03T15:04:27Z</time>
      </trkpt>
      <trkpt lat="44.55815" lon="3.1563">
        <ele>1366.1</ele>
        <time>2022-08-03T15:04:36Z</time>
      </trkpt>
      <trkpt lat="44.55813" lon="3.15617">
        <ele>1365.9</ele>
        <time>2022-08-03T15:04:43Z</time>
      </trkpt>
      <trkpt lat="44.55812" lon="3.15599">
        <ele>1365.9</ele>
        <time>2022-08-03T15:04:52Z</time>
      </trkpt>
      <trkpt lat="44.55811" lon="3.15596">
        <ele>1365.9</ele>
        <time>2022-08-03T15:04:54Z</time>
      </trkpt>
      <trkpt lat="44.5581" lon="3.15579">
        <ele>1366</ele>
        <time>2022-08-03T15:05:03Z</time>
      </trkpt>
      <trkpt lat="44.5581" lon="3.15558">
        <ele>1366</ele>
        <time>2022-08-03T15:05:13Z</time>
      </trkpt>
      <trkpt lat="44.5581" lon="3.15554">
        <ele>1366</ele>
        <time>2022-08-03T15:05:15Z</time>
      </trkpt>
      <trkpt lat="44.5581" lon="3.15546">
        <ele>1366.1</ele>
        <time>2022-08-03T15:05:19Z</time>
      </trkpt>
      <trkpt lat="44.55811" lon="3.15527">
        <ele>1366.2</ele>
        <time>2022-08-03T15:05:29Z</time>
      </trkpt>
      <trkpt lat="44.55812" lon="3.15513">
        <ele>1366.7</ele>
        <time>2022-08-03T15:05:37Z</time>
      </trkpt>
      <trkpt lat="44.55815" lon="3.15499">
        <ele>1367</ele>
        <time>2022-08-03T15:05:45Z</time>
      </trkpt>
      <trkpt lat="44.55818" lon="3.15486">
        <ele>1367</ele>
        <time>2022-08-03T15:05:53Z</time>
      </trkpt>
      <trkpt lat="44.55825" lon="3.15478">
        <ele>1367</ele>
        <time>2022-08-03T15:06:02Z</time>
      </trkpt>
      <trkpt lat="44.5583" lon="3.15481">
        <ele>1367</ele>
        <time>2022-08-03T15:06:10Z</time>
      </trkpt>
      <trkpt lat="44.55835" lon="3.15482">
        <ele>1367</ele>
        <time>2022-08-03T15:06:20Z</time>
      </trkpt>
      <trkpt lat="44.55833" lon="3.15477">
        <ele>1367</ele>
        <time>2022-08-03T15:06:29Z</time>
      </trkpt>
      <trkpt lat="44.55834" lon="3.15473">
        <ele>1367</ele>
        <time>2022-08-03T15:06:35Z</time>
      </trkpt>
      <trkpt lat="44.55838" lon="3.15466">
        <ele>1367.2</ele>
        <time>2022-08-03T15:06:41Z</time>
      </trkpt>
      <trkpt lat="44.55842" lon="3.15455">
        <ele>1367.3</ele>
        <time>2022-08-03T15:06:48Z</time>
      </trkpt>
      <trkpt lat="44.55842" lon="3.15453">
        <ele>1367.3</ele>
        <time>2022-08-03T15:06:49Z</time>
      </trkpt>
      <trkpt lat="44.55844" lon="3.15447">
        <ele>1367.4</ele>
        <time>2022-08-03T15:06:53Z</time>
      </trkpt>
      <trkpt lat="44.55844" lon="3.15445">
        <ele>1367.4</ele>
        <time>2022-08-03T15:06:54Z</time>
      </trkpt>
      <trkpt lat="44.55844" lon="3.15441">
        <ele>1367.4</ele>
        <time>2022-08-03T15:06:56Z</time>
      </trkpt>
      <trkpt lat="44.55847" lon="3.15435">
        <ele>1367.5</ele>
        <time>2022-08-03T15:07:00Z</time>
      </trkpt>
      <trkpt lat="44.5585" lon="3.15422">
        <ele>1367.4</ele>
        <time>2022-08-03T15:07:08Z</time>
      </trkpt>
      <trkpt lat="44.55851" lon="3.1542">
        <ele>1367.4</ele>
        <time>2022-08-03T15:07:09Z</time>
      </trkpt>
      <trkpt lat="44.55851" lon="3.15415">
        <ele>1367.4</ele>
        <time>2022-08-03T15:07:12Z</time>
      </trkpt>
      <trkpt lat="44.55852" lon="3.15414">
        <ele>1367.4</ele>
        <time>2022-08-03T15:07:13Z</time>
      </trkpt>
      <trkpt lat="44.55859" lon="3.15401">
        <ele>1367.6</ele>
        <time>2022-08-03T15:07:22Z</time>
      </trkpt>
      <trkpt lat="44.55862" lon="3.15391">
        <ele>1367.9</ele>
        <time>2022-08-03T15:07:28Z</time>
      </trkpt>
      <trkpt lat="44.55862" lon="3.15387">
        <ele>1368</ele>
        <time>2022-08-03T15:07:30Z</time>
      </trkpt>
      <trkpt lat="44.55865" lon="3.15382">
        <ele>1368</ele>
        <time>2022-08-03T15:07:34Z</time>
      </trkpt>
      <trkpt lat="44.55869" lon="3.15372">
        <ele>1368</ele>
        <time>2022-08-03T15:07:41Z</time>
      </trkpt>
      <trkpt lat="44.55869" lon="3.15372">
        <ele>1368</ele>
        <time>2022-08-03T15:07:42Z</time>
      </trkpt>
      <trkpt lat="44.55872" lon="3.1537">
        <ele>1368</ele>
        <time>2022-08-03T15:07:51Z</time>
      </trkpt>
      <trkpt lat="44.55873" lon="3.15362">
        <ele>1368</ele>
        <time>2022-08-03T15:07:55Z</time>
      </trkpt>
      <trkpt lat="44.55874" lon="3.15351">
        <ele>1368</ele>
        <time>2022-08-03T15:08:01Z</time>
      </trkpt>
      <trkpt lat="44.55876" lon="3.1534">
        <ele>1368</ele>
        <time>2022-08-03T15:08:07Z</time>
      </trkpt>
      <trkpt lat="44.55875" lon="3.15338">
        <ele>1368</ele>
        <time>2022-08-03T15:08:08Z</time>
      </trkpt>
      <trkpt lat="44.55877" lon="3.15325">
        <ele>1368.1</ele>
        <time>2022-08-03T15:08:15Z</time>
      </trkpt>
      <trkpt lat="44.55879" lon="3.15321">
        <ele>1368.2</ele>
        <time>2022-08-03T15:08:18Z</time>
      </trkpt>
      <trkpt lat="44.5588" lon="3.15316">
        <ele>1368.2</ele>
        <time>2022-08-03T15:08:21Z</time>
      </trkpt>
      <trkpt lat="44.55884" lon="3.15306">
        <ele>1368.2</ele>
        <time>2022-08-03T15:08:28Z</time>
      </trkpt>
      <trkpt lat="44.55885" lon="3.15304">
        <ele>1368.2</ele>
        <time>2022-08-03T15:08:29Z</time>
      </trkpt>
      <trkpt lat="44.55886" lon="3.15304">
        <ele>1368.2</ele>
        <time>2022-08-03T15:08:32Z</time>
      </trkpt>
      <trkpt lat="44.55886" lon="3.15305">
        <ele>1368.1</ele>
        <time>2022-08-03T15:08:35Z</time>
      </trkpt>
      <trkpt lat="44.55887" lon="3.15304">
        <ele>1368.1</ele>
        <time>2022-08-03T15:08:38Z</time>
      </trkpt>
      <trkpt lat="44.55888" lon="3.15294">
        <ele>1368.4</ele>
        <time>2022-08-03T15:08:43Z</time>
      </trkpt>
      <trkpt lat="44.55891" lon="3.15286">
        <ele>1368.6</ele>
        <time>2022-08-03T15:08:49Z</time>
      </trkpt>
      <trkpt lat="44.55893" lon="3.1528">
        <ele>1368.8</ele>
        <time>2022-08-03T15:08:52Z</time>
      </trkpt>
      <trkpt lat="44.55895" lon="3.15275">
        <ele>1368.8</ele>
        <time>2022-08-03T15:08:55Z</time>
      </trkpt>
      <trkpt lat="44.559" lon="3.15263">
        <ele>1368.6</ele>
        <time>2022-08-03T15:09:03Z</time>
      </trkpt>
      <trkpt lat="44.55904" lon="3.15256">
        <ele>1368.5</ele>
        <time>2022-08-03T15:09:08Z</time>
      </trkpt>
      <trkpt lat="44.55905" lon="3.15253">
        <ele>1368.4</ele>
        <time>2022-08-03T15:09:10Z</time>
      </trkpt>
      <trkpt lat="44.55908" lon="3.15245">
        <ele>1368.5</ele>
        <time>2022-08-03T15:09:15Z</time>
      </trkpt>
      <trkpt lat="44.55909" lon="3.15235">
        <ele>1368.8</ele>
        <time>2022-08-03T15:09:20Z</time>
      </trkpt>
      <trkpt lat="44.55909" lon="3.15232">
        <ele>1368.9</ele>
        <time>2022-08-03T15:09:22Z</time>
      </trkpt>
      <trkpt lat="44.55911" lon="3.15227">
        <ele>1369</ele>
        <time>2022-08-03T15:09:25Z</time>
      </trkpt>
      <trkpt lat="44.55914" lon="3.15215">
        <ele>1369.1</ele>
        <time>2022-08-03T15:09:33Z</time>
      </trkpt>
      <trkpt lat="44.55916" lon="3.15202">
        <ele>1369</ele>
        <time>2022-08-03T15:09:41Z</time>
      </trkpt>
      <trkpt lat="44.55917" lon="3.152">
        <ele>1369</ele>
        <time>2022-08-03T15:09:43Z</time>
      </trkpt>
      <trkpt lat="44.55917" lon="3.15199">
        <ele>1369</ele>
        <time>2022-08-03T15:09:45Z</time>
      </trkpt>
      <trkpt lat="44.55917" lon="3.15199">
        <ele>1369</ele>
        <time>2022-08-03T15:09:46Z</time>
      </trkpt>
      <trkpt lat="44.55918" lon="3.15191">
        <ele>1369.1</ele>
        <time>2022-08-03T15:09:53Z</time>
      </trkpt>
      <trkpt lat="44.55919" lon="3.1519">
        <ele>1369</ele>
        <time>2022-08-03T15:09:58Z</time>
      </trkpt>
      <trkpt lat="44.5592" lon="3.1519">
        <ele>1368.9</ele>
        <time>2022-08-03T15:09:59Z</time>
      </trkpt>
      <trkpt lat="44.5592" lon="3.1519">
        <ele>1368.9</ele>
        <time>2022-08-03T15:10:05Z</time>
      </trkpt>
      <trkpt lat="44.55921" lon="3.15191">
        <ele>1368.8</ele>
        <time>2022-08-03T15:10:11Z</time>
      </trkpt>
      <trkpt lat="44.5592" lon="3.1519">
        <ele>1368.9</ele>
        <time>2022-08-03T15:10:27Z</time>
      </trkpt>
      <trkpt lat="44.55924" lon="3.1519">
        <ele>1368.6</ele>
        <time>2022-08-03T15:11:21Z</time>
      </trkpt>
      <trkpt lat="44.55927" lon="3.1519">
        <ele>1368.5</ele>
        <time>2022-08-03T15:11:32Z</time>
      </trkpt>
      <trkpt lat="44.55928" lon="3.15187">
        <ele>1368.5</ele>
        <time>2022-08-03T15:11:46Z</time>
      </trkpt>
      <trkpt lat="44.55929" lon="3.15177">
        <ele>1368.8</ele>
        <time>2022-08-03T15:11:51Z</time>
      </trkpt>
      <trkpt lat="44.55932" lon="3.15166">
        <ele>1368.9</ele>
        <time>2022-08-03T15:11:58Z</time>
      </trkpt>
      <trkpt lat="44.55935" lon="3.15157">
        <ele>1369</ele>
        <time>2022-08-03T15:12:04Z</time>
      </trkpt>
      <trkpt lat="44.55936" lon="3.15156">
        <ele>1369</ele>
        <time>2022-08-03T15:12:05Z</time>
      </trkpt>
      <trkpt lat="44.55936" lon="3.15155">
        <ele>1369</ele>
        <time>2022-08-03T15:12:07Z</time>
      </trkpt>
      <trkpt lat="44.55936" lon="3.15154">
        <ele>1369.1</ele>
        <time>2022-08-03T15:12:08Z</time>
      </trkpt>
      <trkpt lat="44.55938" lon="3.15151">
        <ele>1369</ele>
        <time>2022-08-03T15:12:11Z</time>
      </trkpt>
      <trkpt lat="44.55939" lon="3.15146">
        <ele>1369.2</ele>
        <time>2022-08-03T15:12:14Z</time>
      </trkpt>
      <trkpt lat="44.55942" lon="3.15135">
        <ele>1369.4</ele>
        <time>2022-08-03T15:12:21Z</time>
      </trkpt>
      <trkpt lat="44.55944" lon="3.15127">
        <ele>1369.9</ele>
        <time>2022-08-03T15:12:26Z</time>
      </trkpt>
      <trkpt lat="44.55945" lon="3.15124">
        <ele>1370</ele>
        <time>2022-08-03T15:12:28Z</time>
      </trkpt>
      <trkpt lat="44.55948" lon="3.15119">
        <ele>1370.3</ele>
        <time>2022-08-03T15:12:32Z</time>
      </trkpt>
      <trkpt lat="44.55949" lon="3.15118">
        <ele>1370.2</ele>
        <time>2022-08-03T15:12:34Z</time>
      </trkpt>
      <trkpt lat="44.5595" lon="3.15116">
        <ele>1370.3</ele>
        <time>2022-08-03T15:12:38Z</time>
      </trkpt>
      <trkpt lat="44.55951" lon="3.15114">
        <ele>1370.3</ele>
        <time>2022-08-03T15:12:39Z</time>
      </trkpt>
      <trkpt lat="44.55951" lon="3.15113">
        <ele>1370.4</ele>
        <time>2022-08-03T15:12:40Z</time>
      </trkpt>
      <trkpt lat="44.55952" lon="3.15098">
        <ele>1370.6</ele>
        <time>2022-08-03T15:12:48Z</time>
      </trkpt>
      <trkpt lat="44.55956" lon="3.15089">
        <ele>1370.5</ele>
        <time>2022-08-03T15:12:54Z</time>
      </trkpt>
      <trkpt lat="44.55956" lon="3.15087">
        <ele>1370.5</ele>
        <time>2022-08-03T15:12:55Z</time>
      </trkpt>
      <trkpt lat="44.55959" lon="3.15072">
        <ele>1370.9</ele>
        <time>2022-08-03T15:13:03Z</time>
      </trkpt>
      <trkpt lat="44.55963" lon="3.15062">
        <ele>1371.1</ele>
        <time>2022-08-03T15:13:10Z</time>
      </trkpt>
      <trkpt lat="44.55967" lon="3.15053">
        <ele>1371.3</ele>
        <time>2022-08-03T15:13:16Z</time>
      </trkpt>
      <trkpt lat="44.55967" lon="3.15052">
        <ele>1371.3</ele>
        <time>2022-08-03T15:13:18Z</time>
      </trkpt>
      <trkpt lat="44.55968" lon="3.15051">
        <ele>1371.3</ele>
        <time>2022-08-03T15:13:20Z</time>
      </trkpt>
      <trkpt lat="44.55968" lon="3.1505">
        <ele>1371.3</ele>
        <time>2022-08-03T15:13:21Z</time>
      </trkpt>
      <trkpt lat="44.55973" lon="3.15043">
        <ele>1371.4</ele>
        <time>2022-08-03T15:13:27Z</time>
      </trkpt>
      <trkpt lat="44.55974" lon="3.15038">
        <ele>1371.5</ele>
        <time>2022-08-03T15:13:30Z</time>
      </trkpt>
      <trkpt lat="44.55975" lon="3.15036">
        <ele>1371.5</ele>
        <time>2022-08-03T15:13:31Z</time>
      </trkpt>
      <trkpt lat="44.55978" lon="3.15029">
        <ele>1371.6</ele>
        <time>2022-08-03T15:13:36Z</time>
      </trkpt>
      <trkpt lat="44.55981" lon="3.15017">
        <ele>1371.8</ele>
        <time>2022-08-03T15:13:43Z</time>
      </trkpt>
      <trkpt lat="44.55981" lon="3.15015">
        <ele>1371.8</ele>
        <time>2022-08-03T15:13:44Z</time>
      </trkpt>
      <trkpt lat="44.55986" lon="3.15009">
        <ele>1371.7</ele>
        <time>2022-08-03T15:13:49Z</time>
      </trkpt>
      <trkpt lat="44.55991" lon="3.15">
        <ele>1371.7</ele>
        <time>2022-08-03T15:13:56Z</time>
      </trkpt>
      <trkpt lat="44.55991" lon="3.14998">
        <ele>1371.7</ele>
        <time>2022-08-03T15:13:57Z</time>
      </trkpt>
      <trkpt lat="44.55993" lon="3.14991">
        <ele>1371.7</ele>
        <time>2022-08-03T15:14:01Z</time>
      </trkpt>
      <trkpt lat="44.55995" lon="3.14988">
        <ele>1371.7</ele>
        <time>2022-08-03T15:14:03Z</time>
      </trkpt>
      <trkpt lat="44.56" lon="3.1498">
        <ele>1371.7</ele>
        <time>2022-08-03T15:14:09Z</time>
      </trkpt>
      <trkpt lat="44.56002" lon="3.14977">
        <ele>1371.7</ele>
        <time>2022-08-03T15:14:11Z</time>
      </trkpt>
      <trkpt lat="44.56005" lon="3.1497">
        <ele>1371.6</ele>
        <time>2022-08-03T15:14:16Z</time>
      </trkpt>
      <trkpt lat="44.56005" lon="3.14968">
        <ele>1371.6</ele>
        <time>2022-08-03T15:14:17Z</time>
      </trkpt>
      <trkpt lat="44.56009" lon="3.14964">
        <ele>1371.4</ele>
        <time>2022-08-03T15:14:20Z</time>
      </trkpt>
      <trkpt lat="44.56011" lon="3.1496">
        <ele>1371.2</ele>
        <time>2022-08-03T15:14:23Z</time>
      </trkpt>
      <trkpt lat="44.56014" lon="3.14952">
        <ele>1371</ele>
        <time>2022-08-03T15:14:29Z</time>
      </trkpt>
      <trkpt lat="44.56015" lon="3.14951">
        <ele>1370.9</ele>
        <time>2022-08-03T15:14:30Z</time>
      </trkpt>
      <trkpt lat="44.56016" lon="3.1495">
        <ele>1370.9</ele>
        <time>2022-08-03T15:14:31Z</time>
      </trkpt>
      <trkpt lat="44.56019" lon="3.14942">
        <ele>1370.6</ele>
        <time>2022-08-03T15:14:36Z</time>
      </trkpt>
      <trkpt lat="44.56022" lon="3.14931">
        <ele>1370.4</ele>
        <time>2022-08-03T15:14:43Z</time>
      </trkpt>
      <trkpt lat="44.56023" lon="3.1493">
        <ele>1370.3</ele>
        <time>2022-08-03T15:14:44Z</time>
      </trkpt>
      <trkpt lat="44.56027" lon="3.14915">
        <ele>1370.1</ele>
        <time>2022-08-03T15:14:53Z</time>
      </trkpt>
      <trkpt lat="44.56031" lon="3.149">
        <ele>1370.4</ele>
        <time>2022-08-03T15:15:02Z</time>
      </trkpt>
      <trkpt lat="44.56033" lon="3.14894">
        <ele>1370.5</ele>
        <time>2022-08-03T15:15:06Z</time>
      </trkpt>
      <trkpt lat="44.56034" lon="3.14888">
        <ele>1370.5</ele>
        <time>2022-08-03T15:15:09Z</time>
      </trkpt>
      <trkpt lat="44.56036" lon="3.14873">
        <ele>1370.4</ele>
        <time>2022-08-03T15:15:17Z</time>
      </trkpt>
      <trkpt lat="44.56036" lon="3.14868">
        <ele>1370.4</ele>
        <time>2022-08-03T15:15:20Z</time>
      </trkpt>
      <trkpt lat="44.56039" lon="3.14854">
        <ele>1370.2</ele>
        <time>2022-08-03T15:15:28Z</time>
      </trkpt>
      <trkpt lat="44.56041" lon="3.14838">
        <ele>1370.1</ele>
        <time>2022-08-03T15:15:37Z</time>
      </trkpt>
      <trkpt lat="44.5604" lon="3.1482">
        <ele>1369.8</ele>
        <time>2022-08-03T15:15:47Z</time>
      </trkpt>
      <trkpt lat="44.56042" lon="3.14806">
        <ele>1369.5</ele>
        <time>2022-08-03T15:15:55Z</time>
      </trkpt>
      <trkpt lat="44.56042" lon="3.14805">
        <ele>1369.4</ele>
        <time>2022-08-03T15:15:56Z</time>
      </trkpt>
      <trkpt lat="44.56043" lon="3.14803">
        <ele>1369.4</ele>
        <time>2022-08-03T15:15:57Z</time>
      </trkpt>
      <trkpt lat="44.56044" lon="3.14795">
        <ele>1369</ele>
        <time>2022-08-03T15:16:02Z</time>
      </trkpt>
      <trkpt lat="44.56045" lon="3.1478">
        <ele>1368.5</ele>
        <time>2022-08-03T15:16:11Z</time>
      </trkpt>
      <trkpt lat="44.56046" lon="3.14772">
        <ele>1368.1</ele>
        <time>2022-08-03T15:16:16Z</time>
      </trkpt>
      <trkpt lat="44.56046" lon="3.14768">
        <ele>1368</ele>
        <time>2022-08-03T15:16:18Z</time>
      </trkpt>
      <trkpt lat="44.56048" lon="3.14753">
        <ele>1367.4</ele>
        <time>2022-08-03T15:16:27Z</time>
      </trkpt>
      <trkpt lat="44.56048" lon="3.14752">
        <ele>1367.3</ele>
        <time>2022-08-03T15:16:28Z</time>
      </trkpt>
      <trkpt lat="44.56051" lon="3.14738">
        <ele>1367.1</ele>
        <time>2022-08-03T15:16:36Z</time>
      </trkpt>
      <trkpt lat="44.56052" lon="3.14736">
        <ele>1367.1</ele>
        <time>2022-08-03T15:16:38Z</time>
      </trkpt>
      <trkpt lat="44.56053" lon="3.14731">
        <ele>1367</ele>
        <time>2022-08-03T15:16:41Z</time>
      </trkpt>
      <trkpt lat="44.56054" lon="3.14725">
        <ele>1367</ele>
        <time>2022-08-03T15:16:44Z</time>
      </trkpt>
      <trkpt lat="44.56058" lon="3.14713">
        <ele>1367</ele>
        <time>2022-08-03T15:16:52Z</time>
      </trkpt>
      <trkpt lat="44.56062" lon="3.14702">
        <ele>1366.8</ele>
        <time>2022-08-03T15:16:58Z</time>
      </trkpt>
      <trkpt lat="44.56063" lon="3.14698">
        <ele>1366.8</ele>
        <time>2022-08-03T15:17:01Z</time>
      </trkpt>
      <trkpt lat="44.56065" lon="3.14693">
        <ele>1366.6</ele>
        <time>2022-08-03T15:17:04Z</time>
      </trkpt>
      <trkpt lat="44.56065" lon="3.14691">
        <ele>1366.6</ele>
        <time>2022-08-03T15:17:05Z</time>
      </trkpt>
      <trkpt lat="44.56067" lon="3.14683">
        <ele>1366.4</ele>
        <time>2022-08-03T15:17:09Z</time>
      </trkpt>
      <trkpt lat="44.56067" lon="3.14682">
        <ele>1366.3</ele>
        <time>2022-08-03T15:17:10Z</time>
      </trkpt>
      <trkpt lat="44.56069" lon="3.14679">
        <ele>1366.2</ele>
        <time>2022-08-03T15:17:12Z</time>
      </trkpt>
      <trkpt lat="44.56074" lon="3.14668">
        <ele>1366</ele>
        <time>2022-08-03T15:17:19Z</time>
      </trkpt>
      <trkpt lat="44.56078" lon="3.14659">
        <ele>1366</ele>
        <time>2022-08-03T15:17:25Z</time>
      </trkpt>
      <trkpt lat="44.56084" lon="3.14643">
        <ele>1366</ele>
        <time>2022-08-03T15:17:36Z</time>
      </trkpt>
      <trkpt lat="44.56089" lon="3.14632">
        <ele>1365.8</ele>
        <time>2022-08-03T15:17:44Z</time>
      </trkpt>
      <trkpt lat="44.56094" lon="3.14619">
        <ele>1365.6</ele>
        <time>2022-08-03T15:17:53Z</time>
      </trkpt>
      <trkpt lat="44.56098" lon="3.1461">
        <ele>1365.5</ele>
        <time>2022-08-03T15:18:00Z</time>
      </trkpt>
      <trkpt lat="44.56099" lon="3.14609">
        <ele>1365.6</ele>
        <time>2022-08-03T15:18:01Z</time>
      </trkpt>
      <trkpt lat="44.56099" lon="3.14608">
        <ele>1365.6</ele>
        <time>2022-08-03T15:18:02Z</time>
      </trkpt>
      <trkpt lat="44.56101" lon="3.14605">
        <ele>1365.7</ele>
        <time>2022-08-03T15:18:04Z</time>
      </trkpt>
      <trkpt lat="44.56104" lon="3.146">
        <ele>1365.8</ele>
        <time>2022-08-03T15:18:08Z</time>
      </trkpt>
      <trkpt lat="44.56105" lon="3.14599">
        <ele>1365.7</ele>
        <time>2022-08-03T15:18:11Z</time>
      </trkpt>
      <trkpt lat="44.56105" lon="3.14598">
        <ele>1365.8</ele>
        <time>2022-08-03T15:18:13Z</time>
      </trkpt>
      <trkpt lat="44.56106" lon="3.146">
        <ele>1365.7</ele>
        <time>2022-08-03T15:18:20Z</time>
      </trkpt>
      <trkpt lat="44.56107" lon="3.14599">
        <ele>1365.6</ele>
        <time>2022-08-03T15:18:25Z</time>
      </trkpt>
      <trkpt lat="44.56108" lon="3.146">
        <ele>1365.6</ele>
        <time>2022-08-03T15:18:30Z</time>
      </trkpt>
      <trkpt lat="44.56111" lon="3.14594">
        <ele>1365.6</ele>
        <time>2022-08-03T15:18:46Z</time>
      </trkpt>
      <trkpt lat="44.56116" lon="3.14583">
        <ele>1365.7</ele>
        <time>2022-08-03T15:18:52Z</time>
      </trkpt>
      <trkpt lat="44.56117" lon="3.14581">
        <ele>1365.7</ele>
        <time>2022-08-03T15:18:53Z</time>
      </trkpt>
      <trkpt lat="44.56123" lon="3.14572">
        <ele>1365.9</ele>
        <time>2022-08-03T15:19:01Z</time>
      </trkpt>
      <trkpt lat="44.56132" lon="3.1456">
        <ele>1366.2</ele>
        <time>2022-08-03T15:19:11Z</time>
      </trkpt>
      <trkpt lat="44.56134" lon="3.14558">
        <ele>1366.2</ele>
        <time>2022-08-03T15:19:14Z</time>
      </trkpt>
      <trkpt lat="44.56134" lon="3.14558">
        <ele>1366.2</ele>
        <time>2022-08-03T15:19:16Z</time>
      </trkpt>
      <trkpt lat="44.56134" lon="3.14558">
        <ele>1366.2</ele>
        <time>2022-08-03T15:19:17Z</time>
      </trkpt>
      <trkpt lat="44.56134" lon="3.14557">
        <ele>1366.2</ele>
        <time>2022-08-03T15:19:18Z</time>
      </trkpt>
      <trkpt lat="44.56137" lon="3.1455">
        <ele>1366.5</ele>
        <time>2022-08-03T15:19:23Z</time>
      </trkpt>
      <trkpt lat="44.5614" lon="3.14538">
        <ele>1367.2</ele>
        <time>2022-08-03T15:19:31Z</time>
      </trkpt>
      <trkpt lat="44.56145" lon="3.14532">
        <ele>1367.5</ele>
        <time>2022-08-03T15:19:36Z</time>
      </trkpt>
      <trkpt lat="44.56146" lon="3.1453">
        <ele>1367.6</ele>
        <time>2022-08-03T15:19:38Z</time>
      </trkpt>
      <trkpt lat="44.56147" lon="3.1453">
        <ele>1367.6</ele>
        <time>2022-08-03T15:19:39Z</time>
      </trkpt>
      <trkpt lat="44.56146" lon="3.14529">
        <ele>1367.6</ele>
        <time>2022-08-03T15:19:41Z</time>
      </trkpt>
      <trkpt lat="44.56148" lon="3.14528">
        <ele>1367.7</ele>
        <time>2022-08-03T15:19:43Z</time>
      </trkpt>
      <trkpt lat="44.56151" lon="3.14517">
        <ele>1368.4</ele>
        <time>2022-08-03T15:19:50Z</time>
      </trkpt>
      <trkpt lat="44.56156" lon="3.14509">
        <ele>1368.8</ele>
        <time>2022-08-03T15:19:57Z</time>
      </trkpt>
      <trkpt lat="44.56159" lon="3.14504">
        <ele>1369</ele>
        <time>2022-08-03T15:20:01Z</time>
      </trkpt>
      <trkpt lat="44.5616" lon="3.145">
        <ele>1369.2</ele>
        <time>2022-08-03T15:20:03Z</time>
      </trkpt>
      <trkpt lat="44.56162" lon="3.14495">
        <ele>1369.4</ele>
        <time>2022-08-03T15:20:06Z</time>
      </trkpt>
      <trkpt lat="44.56163" lon="3.14488">
        <ele>1369.6</ele>
        <time>2022-08-03T15:20:10Z</time>
      </trkpt>
      <trkpt lat="44.56164" lon="3.14485">
        <ele>1369.7</ele>
        <time>2022-08-03T15:20:12Z</time>
      </trkpt>
      <trkpt lat="44.56169" lon="3.14474">
        <ele>1370</ele>
        <time>2022-08-03T15:20:19Z</time>
      </trkpt>
      <trkpt lat="44.56173" lon="3.14464">
        <ele>1370.8</ele>
        <time>2022-08-03T15:20:26Z</time>
      </trkpt>
      <trkpt lat="44.56175" lon="3.14458">
        <ele>1371.3</ele>
        <time>2022-08-03T15:20:30Z</time>
      </trkpt>
      <trkpt lat="44.56175" lon="3.14456">
        <ele>1371.5</ele>
        <time>2022-08-03T15:20:31Z</time>
      </trkpt>
      <trkpt lat="44.56176" lon="3.14453">
        <ele>1371.7</ele>
        <time>2022-08-03T15:20:33Z</time>
      </trkpt>
      <trkpt lat="44.56177" lon="3.14452">
        <ele>1371.8</ele>
        <time>2022-08-03T15:20:34Z</time>
      </trkpt>
      <trkpt lat="44.56179" lon="3.1445">
        <ele>1372</ele>
        <time>2022-08-03T15:20:36Z</time>
      </trkpt>
      <trkpt lat="44.56179" lon="3.14448">
        <ele>1372.2</ele>
        <time>2022-08-03T15:20:37Z</time>
      </trkpt>
      <trkpt lat="44.5618" lon="3.14447">
        <ele>1372.3</ele>
        <time>2022-08-03T15:20:38Z</time>
      </trkpt>
      <trkpt lat="44.56182" lon="3.14445">
        <ele>1372.5</ele>
        <time>2022-08-03T15:20:40Z</time>
      </trkpt>
      <trkpt lat="44.56184" lon="3.14442">
        <ele>1372.6</ele>
        <time>2022-08-03T15:20:42Z</time>
      </trkpt>
      <trkpt lat="44.56184" lon="3.1444">
        <ele>1372.6</ele>
        <time>2022-08-03T15:20:43Z</time>
      </trkpt>
      <trkpt lat="44.56186" lon="3.14436">
        <ele>1372.7</ele>
        <time>2022-08-03T15:20:46Z</time>
      </trkpt>
      <trkpt lat="44.56186" lon="3.14434">
        <ele>1372.7</ele>
        <time>2022-08-03T15:20:47Z</time>
      </trkpt>
      <trkpt lat="44.56189" lon="3.14429">
        <ele>1372.8</ele>
        <time>2022-08-03T15:20:51Z</time>
      </trkpt>
      <trkpt lat="44.56192" lon="3.14423">
        <ele>1372.9</ele>
        <time>2022-08-03T15:20:55Z</time>
      </trkpt>
      <trkpt lat="44.56199" lon="3.14411">
        <ele>1373.2</ele>
        <time>2022-08-03T15:21:06Z</time>
      </trkpt>
      <trkpt lat="44.56201" lon="3.14409">
        <ele>1373.2</ele>
        <time>2022-08-03T15:21:08Z</time>
      </trkpt>
      <trkpt lat="44.56202" lon="3.14406">
        <ele>1373.3</ele>
        <time>2022-08-03T15:21:10Z</time>
      </trkpt>
      <trkpt lat="44.56204" lon="3.14404">
        <ele>1373.4</ele>
        <time>2022-08-03T15:21:12Z</time>
      </trkpt>
      <trkpt lat="44.56207" lon="3.14402">
        <ele>1373.4</ele>
        <time>2022-08-03T15:21:14Z</time>
      </trkpt>
      <trkpt lat="44.56209" lon="3.14399">
        <ele>1373.5</ele>
        <time>2022-08-03T15:21:17Z</time>
      </trkpt>
      <trkpt lat="44.56214" lon="3.14394">
        <ele>1373.7</ele>
        <time>2022-08-03T15:21:22Z</time>
      </trkpt>
      <trkpt lat="44.56215" lon="3.14392">
        <ele>1373.7</ele>
        <time>2022-08-03T15:21:24Z</time>
      </trkpt>
      <trkpt lat="44.56215" lon="3.14392">
        <ele>1373.8</ele>
        <time>2022-08-03T15:21:28Z</time>
      </trkpt>
      <trkpt lat="44.56216" lon="3.14392">
        <ele>1373.8</ele>
        <time>2022-08-03T15:21:29Z</time>
      </trkpt>
      <trkpt lat="44.56213" lon="3.14393">
        <ele>1373.7</ele>
        <time>2022-08-03T15:21:36Z</time>
      </trkpt>
      <trkpt lat="44.56213" lon="3.14392">
        <ele>1373.7</ele>
        <time>2022-08-03T15:21:55Z</time>
      </trkpt>
      <trkpt lat="44.56214" lon="3.14389">
        <ele>1373.7</ele>
        <time>2022-08-03T15:22:08Z</time>
      </trkpt>
      <trkpt lat="44.56218" lon="3.14383">
        <ele>1374.2</ele>
        <time>2022-08-03T15:22:12Z</time>
      </trkpt>
      <trkpt lat="44.5622" lon="3.14381">
        <ele>1374.5</ele>
        <time>2022-08-03T15:22:14Z</time>
      </trkpt>
      <trkpt lat="44.56227" lon="3.14378">
        <ele>1375</ele>
        <time>2022-08-03T15:22:18Z</time>
      </trkpt>
      <trkpt lat="44.56229" lon="3.14378">
        <ele>1375</ele>
        <time>2022-08-03T15:22:20Z</time>
      </trkpt>
      <trkpt lat="44.56229" lon="3.14378">
        <ele>1375.1</ele>
        <time>2022-08-03T15:22:23Z</time>
      </trkpt>
      <trkpt lat="44.56229" lon="3.14378">
        <ele>1375</ele>
        <time>2022-08-03T15:22:24Z</time>
      </trkpt>
      <trkpt lat="44.56228" lon="3.14371">
        <ele>1375.5</ele>
        <time>2022-08-03T15:22:29Z</time>
      </trkpt>
      <trkpt lat="44.5623" lon="3.14358">
        <ele>1376.6</ele>
        <time>2022-08-03T15:22:36Z</time>
      </trkpt>
      <trkpt lat="44.56233" lon="3.14352">
        <ele>1377.2</ele>
        <time>2022-08-03T15:22:41Z</time>
      </trkpt>
      <trkpt lat="44.56234" lon="3.14351">
        <ele>1377.3</ele>
        <time>2022-08-03T15:22:42Z</time>
      </trkpt>
      <trkpt lat="44.56233" lon="3.14349">
        <ele>1377.5</ele>
        <time>2022-08-03T15:22:47Z</time>
      </trkpt>
      <trkpt lat="44.56237" lon="3.14342">
        <ele>1378.3</ele>
        <time>2022-08-03T15:22:53Z</time>
      </trkpt>
      <trkpt lat="44.56238" lon="3.1434">
        <ele>1378.5</ele>
        <time>2022-08-03T15:22:54Z</time>
      </trkpt>
      <trkpt lat="44.5624" lon="3.14336">
        <ele>1379</ele>
        <time>2022-08-03T15:22:59Z</time>
      </trkpt>
      <trkpt lat="44.56241" lon="3.14336">
        <ele>1379.1</ele>
        <time>2022-08-03T15:23:00Z</time>
      </trkpt>
      <trkpt lat="44.56241" lon="3.14335">
        <ele>1379.2</ele>
        <time>2022-08-03T15:23:07Z</time>
      </trkpt>
      <trkpt lat="44.56246" lon="3.14333">
        <ele>1379.7</ele>
        <time>2022-08-03T15:23:13Z</time>
      </trkpt>
      <trkpt lat="44.56257" lon="3.14328">
        <ele>1380.4</ele>
        <time>2022-08-03T15:23:23Z</time>
      </trkpt>
      <trkpt lat="44.56262" lon="3.14325">
        <ele>1380.6</ele>
        <time>2022-08-03T15:23:28Z</time>
      </trkpt>
      <trkpt lat="44.56263" lon="3.14324">
        <ele>1380.7</ele>
        <time>2022-08-03T15:23:29Z</time>
      </trkpt>
      <trkpt lat="44.56268" lon="3.1432">
        <ele>1380.9</ele>
        <time>2022-08-03T15:23:34Z</time>
      </trkpt>
      <trkpt lat="44.56269" lon="3.14319">
        <ele>1381</ele>
        <time>2022-08-03T15:23:36Z</time>
      </trkpt>
      <trkpt lat="44.56269" lon="3.14318">
        <ele>1381.1</ele>
        <time>2022-08-03T15:23:37Z</time>
      </trkpt>
      <trkpt lat="44.56269" lon="3.14318">
        <ele>1381.1</ele>
        <time>2022-08-03T15:23:38Z</time>
      </trkpt>
      <trkpt lat="44.56268" lon="3.14317">
        <ele>1381.2</ele>
        <time>2022-08-03T15:23:44Z</time>
      </trkpt>
      <trkpt lat="44.56268" lon="3.14317">
        <ele>1381.2</ele>
        <time>2022-08-03T15:23:52Z</time>
      </trkpt>
      <trkpt lat="44.56266" lon="3.14312">
        <ele>1381.6</ele>
        <time>2022-08-03T15:24:17Z</time>
      </trkpt>
      <trkpt lat="44.56271" lon="3.14308">
        <ele>1381.8</ele>
        <time>2022-08-03T15:24:22Z</time>
      </trkpt>
      <trkpt lat="44.56277" lon="3.14301">
        <ele>1382.2</ele>
        <time>2022-08-03T15:24:28Z</time>
      </trkpt>
      <trkpt lat="44.56282" lon="3.14292">
        <ele>1382.3</ele>
        <time>2022-08-03T15:24:34Z</time>
      </trkpt>
      <trkpt lat="44.56283" lon="3.14291">
        <ele>1382.2</ele>
        <time>2022-08-03T15:24:35Z</time>
      </trkpt>
      <trkpt lat="44.56289" lon="3.14281">
        <ele>1382.4</ele>
        <time>2022-08-03T15:24:42Z</time>
      </trkpt>
      <trkpt lat="44.5629" lon="3.1428">
        <ele>1382.5</ele>
        <time>2022-08-03T15:24:43Z</time>
      </trkpt>
      <trkpt lat="44.56293" lon="3.14272">
        <ele>1382.6</ele>
        <time>2022-08-03T15:24:48Z</time>
      </trkpt>
      <trkpt lat="44.56301" lon="3.14262">
        <ele>1382.6</ele>
        <time>2022-08-03T15:24:57Z</time>
      </trkpt>
      <trkpt lat="44.56308" lon="3.14248">
        <ele>1383</ele>
        <time>2022-08-03T15:25:06Z</time>
      </trkpt>
      <trkpt lat="44.56315" lon="3.14237">
        <ele>1383.1</ele>
        <time>2022-08-03T15:25:14Z</time>
      </trkpt>
      <trkpt lat="44.56321" lon="3.14221">
        <ele>1383.5</ele>
        <time>2022-08-03T15:25:24Z</time>
      </trkpt>
      <trkpt lat="44.56325" lon="3.14214">
        <ele>1383.8</ele>
        <time>2022-08-03T15:25:29Z</time>
      </trkpt>
      <trkpt lat="44.56327" lon="3.1421">
        <ele>1384</ele>
        <time>2022-08-03T15:25:32Z</time>
      </trkpt>
      <trkpt lat="44.56332" lon="3.14201">
        <ele>1384.6</ele>
        <time>2022-08-03T15:25:39Z</time>
      </trkpt>
      <trkpt lat="44.56339" lon="3.1419">
        <ele>1384.8</ele>
        <time>2022-08-03T15:25:47Z</time>
      </trkpt>
      <trkpt lat="44.56341" lon="3.14187">
        <ele>1384.7</ele>
        <time>2022-08-03T15:25:50Z</time>
      </trkpt>
      <trkpt lat="44.56347" lon="3.1417">
        <ele>1384.9</ele>
        <time>2022-08-03T15:26:01Z</time>
      </trkpt>
      <trkpt lat="44.56349" lon="3.14161">
        <ele>1385.2</ele>
        <time>2022-08-03T15:26:06Z</time>
      </trkpt>
      <trkpt lat="44.5635" lon="3.14151">
        <ele>1385.7</ele>
        <time>2022-08-03T15:26:12Z</time>
      </trkpt>
      <trkpt lat="44.56355" lon="3.14133">
        <ele>1386.6</ele>
        <time>2022-08-03T15:26:23Z</time>
      </trkpt>
      <trkpt lat="44.56357" lon="3.14124">
        <ele>1387.1</ele>
        <time>2022-08-03T15:26:28Z</time>
      </trkpt>
      <trkpt lat="44.56361" lon="3.14114">
        <ele>1387.8</ele>
        <time>2022-08-03T15:26:35Z</time>
      </trkpt>
      <trkpt lat="44.56365" lon="3.14107">
        <ele>1387.9</ele>
        <time>2022-08-03T15:26:40Z</time>
      </trkpt>
      <trkpt lat="44.56365" lon="3.14105">
        <ele>1388</ele>
        <time>2022-08-03T15:26:41Z</time>
      </trkpt>
      <trkpt lat="44.56366" lon="3.14102">
        <ele>1388</ele>
        <time>2022-08-03T15:26:43Z</time>
      </trkpt>
      <trkpt lat="44.56372" lon="3.14087">
        <ele>1388.4</ele>
        <time>2022-08-03T15:26:53Z</time>
      </trkpt>
      <trkpt lat="44.56375" lon="3.14079">
        <ele>1388.7</ele>
        <time>2022-08-03T15:26:58Z</time>
      </trkpt>
      <trkpt lat="44.56376" lon="3.14074">
        <ele>1388.8</ele>
        <time>2022-08-03T15:27:01Z</time>
      </trkpt>
      <trkpt lat="44.56378" lon="3.14068">
        <ele>1389</ele>
        <time>2022-08-03T15:27:05Z</time>
      </trkpt>
      <trkpt lat="44.56379" lon="3.14063">
        <ele>1389.1</ele>
        <time>2022-08-03T15:27:08Z</time>
      </trkpt>
      <trkpt lat="44.5638" lon="3.14062">
        <ele>1389.1</ele>
        <time>2022-08-03T15:27:09Z</time>
      </trkpt>
      <trkpt lat="44.56379" lon="3.14054">
        <ele>1389.4</ele>
        <time>2022-08-03T15:27:15Z</time>
      </trkpt>
      <trkpt lat="44.56379" lon="3.14055">
        <ele>1389.4</ele>
        <time>2022-08-03T15:27:17Z</time>
      </trkpt>
      <trkpt lat="44.56378" lon="3.14055">
        <ele>1389.4</ele>
        <time>2022-08-03T15:27:20Z</time>
      </trkpt>
      <trkpt lat="44.56379" lon="3.14055">
        <ele>1389.4</ele>
        <time>2022-08-03T15:27:23Z</time>
      </trkpt>
      <trkpt lat="44.56379" lon="3.14055">
        <ele>1389.4</ele>
        <time>2022-08-03T15:27:27Z</time>
      </trkpt>
      <trkpt lat="44.5638" lon="3.14056">
        <ele>1389.3</ele>
        <time>2022-08-03T15:27:59Z</time>
      </trkpt>
      <trkpt lat="44.56383" lon="3.14053">
        <ele>1389.2</ele>
        <time>2022-08-03T15:28:16Z</time>
      </trkpt>
      <trkpt lat="44.56383" lon="3.14049">
        <ele>1389.3</ele>
        <time>2022-08-03T15:28:28Z</time>
      </trkpt>
      <trkpt lat="44.56385" lon="3.14046">
        <ele>1389.2</ele>
        <time>2022-08-03T15:28:47Z</time>
      </trkpt>
      <trkpt lat="44.56385" lon="3.14044">
        <ele>1389.2</ele>
        <time>2022-08-03T15:28:48Z</time>
      </trkpt>
      <trkpt lat="44.56388" lon="3.1402">
        <ele>1389.4</ele>
        <time>2022-08-03T15:29:01Z</time>
      </trkpt>
      <trkpt lat="44.56388" lon="3.14017">
        <ele>1389.4</ele>
        <time>2022-08-03T15:29:03Z</time>
      </trkpt>
      <trkpt lat="44.56389" lon="3.14004">
        <ele>1389.9</ele>
        <time>2022-08-03T15:29:11Z</time>
      </trkpt>
      <trkpt lat="44.56391" lon="3.13988">
        <ele>1390.1</ele>
        <time>2022-08-03T15:29:21Z</time>
      </trkpt>
      <trkpt lat="44.56391" lon="3.13986">
        <ele>1390.1</ele>
        <time>2022-08-03T15:29:23Z</time>
      </trkpt>
      <trkpt lat="44.5639" lon="3.13985">
        <ele>1390.1</ele>
        <time>2022-08-03T15:29:26Z</time>
      </trkpt>
      <trkpt lat="44.5639" lon="3.13985">
        <ele>1390.1</ele>
        <time>2022-08-03T15:29:27Z</time>
      </trkpt>
      <trkpt lat="44.56391" lon="3.13986">
        <ele>1390.1</ele>
        <time>2022-08-03T15:29:37Z</time>
      </trkpt>
      <trkpt lat="44.56394" lon="3.13988">
        <ele>1390.3</ele>
        <time>2022-08-03T15:29:46Z</time>
      </trkpt>
      <trkpt lat="44.56394" lon="3.13985">
        <ele>1390.3</ele>
        <time>2022-08-03T15:29:49Z</time>
      </trkpt>
      <trkpt lat="44.56395" lon="3.13978">
        <ele>1390.4</ele>
        <time>2022-08-03T15:29:53Z</time>
      </trkpt>
      <trkpt lat="44.56395" lon="3.13958">
        <ele>1390.8</ele>
        <time>2022-08-03T15:30:03Z</time>
      </trkpt>
      <trkpt lat="44.56395" lon="3.13952">
        <ele>1391</ele>
        <time>2022-08-03T15:30:06Z</time>
      </trkpt>
      <trkpt lat="44.56396" lon="3.13937">
        <ele>1391</ele>
        <time>2022-08-03T15:30:13Z</time>
      </trkpt>
      <trkpt lat="44.56396" lon="3.13922">
        <ele>1390.7</ele>
        <time>2022-08-03T15:30:21Z</time>
      </trkpt>
      <trkpt lat="44.564" lon="3.13906">
        <ele>1390.4</ele>
        <time>2022-08-03T15:30:30Z</time>
      </trkpt>
      <trkpt lat="44.56403" lon="3.13892">
        <ele>1390.1</ele>
        <time>2022-08-03T15:30:38Z</time>
      </trkpt>
      <trkpt lat="44.56404" lon="3.13889">
        <ele>1390</ele>
        <time>2022-08-03T15:30:40Z</time>
      </trkpt>
      <trkpt lat="44.56408" lon="3.1388">
        <ele>1390.1</ele>
        <time>2022-08-03T15:30:46Z</time>
      </trkpt>
      <trkpt lat="44.56414" lon="3.13872">
        <ele>1390.2</ele>
        <time>2022-08-03T15:30:53Z</time>
      </trkpt>
      <trkpt lat="44.56421" lon="3.13858">
        <ele>1390.2</ele>
        <time>2022-08-03T15:31:03Z</time>
      </trkpt>
      <trkpt lat="44.56425" lon="3.13848">
        <ele>1390.3</ele>
        <time>2022-08-03T15:31:10Z</time>
      </trkpt>
      <trkpt lat="44.5643" lon="3.13831">
        <ele>1390.3</ele>
        <time>2022-08-03T15:31:20Z</time>
      </trkpt>
      <trkpt lat="44.56431" lon="3.13827">
        <ele>1390.3</ele>
        <time>2022-08-03T15:31:23Z</time>
      </trkpt>
      <trkpt lat="44.56435" lon="3.13814">
        <ele>1390.3</ele>
        <time>2022-08-03T15:31:31Z</time>
      </trkpt>
      <trkpt lat="44.56439" lon="3.13798">
        <ele>1390.1</ele>
        <time>2022-08-03T15:31:41Z</time>
      </trkpt>
      <trkpt lat="44.56442" lon="3.13783">
        <ele>1389.9</ele>
        <time>2022-08-03T15:31:50Z</time>
      </trkpt>
      <trkpt lat="44.56445" lon="3.1377">
        <ele>1389.8</ele>
        <time>2022-08-03T15:31:58Z</time>
      </trkpt>
      <trkpt lat="44.56446" lon="3.13768">
        <ele>1389.8</ele>
        <time>2022-08-03T15:31:59Z</time>
      </trkpt>
      <trkpt lat="44.56451" lon="3.13752">
        <ele>1389.8</ele>
        <time>2022-08-03T15:32:09Z</time>
      </trkpt>
      <trkpt lat="44.56455" lon="3.13735">
        <ele>1389.6</ele>
        <time>2022-08-03T15:32:19Z</time>
      </trkpt>
      <trkpt lat="44.56456" lon="3.13734">
        <ele>1389.7</ele>
        <time>2022-08-03T15:32:20Z</time>
      </trkpt>
      <trkpt lat="44.56458" lon="3.13732">
        <ele>1389.8</ele>
        <time>2022-08-03T15:32:22Z</time>
      </trkpt>
      <trkpt lat="44.56459" lon="3.13729">
        <ele>1389.8</ele>
        <time>2022-08-03T15:32:24Z</time>
      </trkpt>
      <trkpt lat="44.5646" lon="3.13727">
        <ele>1389.8</ele>
        <time>2022-08-03T15:32:25Z</time>
      </trkpt>
      <trkpt lat="44.56464" lon="3.13714">
        <ele>1389.8</ele>
        <time>2022-08-03T15:32:33Z</time>
      </trkpt>
      <trkpt lat="44.56467" lon="3.137">
        <ele>1389.6</ele>
        <time>2022-08-03T15:32:41Z</time>
      </trkpt>
      <trkpt lat="44.56468" lon="3.13696">
        <ele>1389.6</ele>
        <time>2022-08-03T15:32:43Z</time>
      </trkpt>
      <trkpt lat="44.56471" lon="3.13685">
        <ele>1389.5</ele>
        <time>2022-08-03T15:32:50Z</time>
      </trkpt>
      <trkpt lat="44.56473" lon="3.13675">
        <ele>1389.4</ele>
        <time>2022-08-03T15:32:56Z</time>
      </trkpt>
      <trkpt lat="44.56475" lon="3.13668">
        <ele>1389.4</ele>
        <time>2022-08-03T15:33:00Z</time>
      </trkpt>
      <trkpt lat="44.56477" lon="3.13662">
        <ele>1389.3</ele>
        <time>2022-08-03T15:33:04Z</time>
      </trkpt>
      <trkpt lat="44.56482" lon="3.13646">
        <ele>1389.3</ele>
        <time>2022-08-03T15:33:14Z</time>
      </trkpt>
      <trkpt lat="44.56486" lon="3.13629">
        <ele>1389.2</ele>
        <time>2022-08-03T15:33:24Z</time>
      </trkpt>
      <trkpt lat="44.56489" lon="3.13617">
        <ele>1389</ele>
        <time>2022-08-03T15:33:31Z</time>
      </trkpt>
      <trkpt lat="44.56489" lon="3.136">
        <ele>1388.8</ele>
        <time>2022-08-03T15:33:40Z</time>
      </trkpt>
      <trkpt lat="44.56489" lon="3.1358">
        <ele>1389</ele>
        <time>2022-08-03T15:33:51Z</time>
      </trkpt>
      <trkpt lat="44.56488" lon="3.13577">
        <ele>1388.9</ele>
        <time>2022-08-03T15:33:53Z</time>
      </trkpt>
      <trkpt lat="44.56488" lon="3.13574">
        <ele>1389</ele>
        <time>2022-08-03T15:33:55Z</time>
      </trkpt>
      <trkpt lat="44.56488" lon="3.13573">
        <ele>1389</ele>
        <time>2022-08-03T15:33:56Z</time>
      </trkpt>
      <trkpt lat="44.56488" lon="3.13573">
        <ele>1389</ele>
        <time>2022-08-03T15:33:57Z</time>
      </trkpt>
      <trkpt lat="44.56488" lon="3.13572">
        <ele>1389.2</ele>
        <time>2022-08-03T15:34:04Z</time>
      </trkpt>
      <trkpt lat="44.56485" lon="3.13562">
        <ele>1389.1</ele>
        <time>2022-08-03T15:34:11Z</time>
      </trkpt>
      <trkpt lat="44.56485" lon="3.13561">
        <ele>1389.2</ele>
        <time>2022-08-03T15:34:13Z</time>
      </trkpt>
      <trkpt lat="44.56484" lon="3.1356">
        <ele>1389.1</ele>
        <time>2022-08-03T15:34:16Z</time>
      </trkpt>
      <trkpt lat="44.56482" lon="3.13548">
        <ele>1389</ele>
        <time>2022-08-03T15:34:24Z</time>
      </trkpt>
      <trkpt lat="44.56482" lon="3.13547">
        <ele>1389.1</ele>
        <time>2022-08-03T15:34:29Z</time>
      </trkpt>
      <trkpt lat="44.56481" lon="3.13539">
        <ele>1388.9</ele>
        <time>2022-08-03T15:34:35Z</time>
      </trkpt>
      <trkpt lat="44.56481" lon="3.13524">
        <ele>1389</ele>
        <time>2022-08-03T15:34:43Z</time>
      </trkpt>
      <trkpt lat="44.56485" lon="3.13503">
        <ele>1389.4</ele>
        <time>2022-08-03T15:34:55Z</time>
      </trkpt>
      <trkpt lat="44.5649" lon="3.1349">
        <ele>1389.6</ele>
        <time>2022-08-03T15:35:04Z</time>
      </trkpt>
      <trkpt lat="44.56496" lon="3.13478">
        <ele>1389.9</ele>
        <time>2022-08-03T15:35:12Z</time>
      </trkpt>
      <trkpt lat="44.56498" lon="3.1347">
        <ele>1389.7</ele>
        <time>2022-08-03T15:35:17Z</time>
      </trkpt>
      <trkpt lat="44.565" lon="3.13467">
        <ele>1389.6</ele>
        <time>2022-08-03T15:35:19Z</time>
      </trkpt>
      <trkpt lat="44.56501" lon="3.13466">
        <ele>1389.6</ele>
        <time>2022-08-03T15:35:20Z</time>
      </trkpt>
      <trkpt lat="44.56504" lon="3.13458">
        <ele>1389.3</ele>
        <time>2022-08-03T15:35:25Z</time>
      </trkpt>
      <trkpt lat="44.56505" lon="3.13455">
        <ele>1389.2</ele>
        <time>2022-08-03T15:35:27Z</time>
      </trkpt>
      <trkpt lat="44.56506" lon="3.13445">
        <ele>1388.7</ele>
        <time>2022-08-03T15:35:32Z</time>
      </trkpt>
      <trkpt lat="44.56505" lon="3.13439">
        <ele>1388.7</ele>
        <time>2022-08-03T15:35:36Z</time>
      </trkpt>
      <trkpt lat="44.56499" lon="3.13418">
        <ele>1389</ele>
        <time>2022-08-03T15:35:48Z</time>
      </trkpt>
      <trkpt lat="44.56498" lon="3.13415">
        <ele>1389.1</ele>
        <time>2022-08-03T15:35:51Z</time>
      </trkpt>
      <trkpt lat="44.56498" lon="3.13415">
        <ele>1389.1</ele>
        <time>2022-08-03T15:35:53Z</time>
      </trkpt>
      <trkpt lat="44.56498" lon="3.13415">
        <ele>1389.1</ele>
        <time>2022-08-03T15:35:55Z</time>
      </trkpt>
      <trkpt lat="44.56498" lon="3.13416">
        <ele>1389</ele>
        <time>2022-08-03T15:36:05Z</time>
      </trkpt>
      <trkpt lat="44.565" lon="3.13417">
        <ele>1389</ele>
        <time>2022-08-03T15:36:15Z</time>
      </trkpt>
      <trkpt lat="44.56504" lon="3.13407">
        <ele>1389.6</ele>
        <time>2022-08-03T15:37:04Z</time>
      </trkpt>
      <trkpt lat="44.56505" lon="3.13405">
        <ele>1389.7</ele>
        <time>2022-08-03T15:37:05Z</time>
      </trkpt>
      <trkpt lat="44.56512" lon="3.13392">
        <ele>1390.4</ele>
        <time>2022-08-03T15:37:13Z</time>
      </trkpt>
      <trkpt lat="44.56514" lon="3.1339">
        <ele>1390.5</ele>
        <time>2022-08-03T15:37:15Z</time>
      </trkpt>
      <trkpt lat="44.56518" lon="3.13387">
        <ele>1390.7</ele>
        <time>2022-08-03T15:37:20Z</time>
      </trkpt>
      <trkpt lat="44.56518" lon="3.13387">
        <ele>1390.7</ele>
        <time>2022-08-03T15:37:21Z</time>
      </trkpt>
      <trkpt lat="44.56531" lon="3.1338">
        <ele>1391.2</ele>
        <time>2022-08-03T15:37:32Z</time>
      </trkpt>
      <trkpt lat="44.56544" lon="3.13371">
        <ele>1391.8</ele>
        <time>2022-08-03T15:37:43Z</time>
      </trkpt>
      <trkpt lat="44.56552" lon="3.13359">
        <ele>1391.8</ele>
        <time>2022-08-03T15:37:52Z</time>
      </trkpt>
      <trkpt lat="44.56561" lon="3.13349">
        <ele>1391.7</ele>
        <time>2022-08-03T15:38:01Z</time>
      </trkpt>
      <trkpt lat="44.56562" lon="3.13348">
        <ele>1391.8</ele>
        <time>2022-08-03T15:38:02Z</time>
      </trkpt>
      <trkpt lat="44.56564" lon="3.13345">
        <ele>1391.7</ele>
        <time>2022-08-03T15:38:04Z</time>
      </trkpt>
      <trkpt lat="44.56566" lon="3.13342">
        <ele>1391.7</ele>
        <time>2022-08-03T15:38:06Z</time>
      </trkpt>
      <trkpt lat="44.56568" lon="3.13337">
        <ele>1391.6</ele>
        <time>2022-08-03T15:38:09Z</time>
      </trkpt>
      <trkpt lat="44.56573" lon="3.1333">
        <ele>1391.6</ele>
        <time>2022-08-03T15:38:15Z</time>
      </trkpt>
      <trkpt lat="44.56582" lon="3.13318">
        <ele>1391.4</ele>
        <time>2022-08-03T15:38:25Z</time>
      </trkpt>
      <trkpt lat="44.56589" lon="3.13305">
        <ele>1391.6</ele>
        <time>2022-08-03T15:38:34Z</time>
      </trkpt>
      <trkpt lat="44.56595" lon="3.13298">
        <ele>1392.1</ele>
        <time>2022-08-03T15:38:41Z</time>
      </trkpt>
      <trkpt lat="44.56595" lon="3.13299">
        <ele>1392.2</ele>
        <time>2022-08-03T15:38:43Z</time>
      </trkpt>
      <trkpt lat="44.56595" lon="3.13299">
        <ele>1392.1</ele>
        <time>2022-08-03T15:38:47Z</time>
      </trkpt>
      <trkpt lat="44.56595" lon="3.13301">
        <ele>1392.1</ele>
        <time>2022-08-03T15:38:55Z</time>
      </trkpt>
      <trkpt lat="44.56599" lon="3.13295">
        <ele>1392.5</ele>
        <time>2022-08-03T15:39:21Z</time>
      </trkpt>
      <trkpt lat="44.56602" lon="3.1329">
        <ele>1392.7</ele>
        <time>2022-08-03T15:39:24Z</time>
      </trkpt>
      <trkpt lat="44.56607" lon="3.13282">
        <ele>1392.8</ele>
        <time>2022-08-03T15:39:29Z</time>
      </trkpt>
      <trkpt lat="44.56608" lon="3.13279">
        <ele>1392.8</ele>
        <time>2022-08-03T15:39:31Z</time>
      </trkpt>
      <trkpt lat="44.56613" lon="3.13273">
        <ele>1392.9</ele>
        <time>2022-08-03T15:39:36Z</time>
      </trkpt>
      <trkpt lat="44.56614" lon="3.13272">
        <ele>1393</ele>
        <time>2022-08-03T15:39:37Z</time>
      </trkpt>
      <trkpt lat="44.56619" lon="3.13266">
        <ele>1393.1</ele>
        <time>2022-08-03T15:39:42Z</time>
      </trkpt>
      <trkpt lat="44.5662" lon="3.13264">
        <ele>1393.1</ele>
        <time>2022-08-03T15:39:44Z</time>
      </trkpt>
      <trkpt lat="44.56625" lon="3.13254">
        <ele>1393.1</ele>
        <time>2022-08-03T15:39:51Z</time>
      </trkpt>
      <trkpt lat="44.56628" lon="3.13248">
        <ele>1393.1</ele>
        <time>2022-08-03T15:39:55Z</time>
      </trkpt>
      <trkpt lat="44.5663" lon="3.13241">
        <ele>1393.1</ele>
        <time>2022-08-03T15:39:59Z</time>
      </trkpt>
      <trkpt lat="44.56635" lon="3.13233">
        <ele>1393.1</ele>
        <time>2022-08-03T15:40:05Z</time>
      </trkpt>
      <trkpt lat="44.56639" lon="3.13224">
        <ele>1393.1</ele>
        <time>2022-08-03T15:40:11Z</time>
      </trkpt>
      <trkpt lat="44.56641" lon="3.1322">
        <ele>1393.1</ele>
        <time>2022-08-03T15:40:14Z</time>
      </trkpt>
      <trkpt lat="44.56647" lon="3.13207">
        <ele>1393</ele>
        <time>2022-08-03T15:40:22Z</time>
      </trkpt>
      <trkpt lat="44.56649" lon="3.13205">
        <ele>1393.1</ele>
        <time>2022-08-03T15:40:24Z</time>
      </trkpt>
      <trkpt lat="44.56651" lon="3.13201">
        <ele>1393.1</ele>
        <time>2022-08-03T15:40:27Z</time>
      </trkpt>
      <trkpt lat="44.56651" lon="3.132">
        <ele>1393.1</ele>
        <time>2022-08-03T15:40:29Z</time>
      </trkpt>
      <trkpt lat="44.56651" lon="3.132">
        <ele>1393</ele>
        <time>2022-08-03T15:40:31Z</time>
      </trkpt>
      <trkpt lat="44.56651" lon="3.13199">
        <ele>1393</ele>
        <time>2022-08-03T15:40:32Z</time>
      </trkpt>
      <trkpt lat="44.56651" lon="3.13199">
        <ele>1393.1</ele>
        <time>2022-08-03T15:40:35Z</time>
      </trkpt>
      <trkpt lat="44.56651" lon="3.13198">
        <ele>1393</ele>
        <time>2022-08-03T15:40:39Z</time>
      </trkpt>
      <trkpt lat="44.56652" lon="3.132">
        <ele>1393.1</ele>
        <time>2022-08-03T15:40:52Z</time>
      </trkpt>
      <trkpt lat="44.56655" lon="3.13195">
        <ele>1393.2</ele>
        <time>2022-08-03T15:41:22Z</time>
      </trkpt>
      <trkpt lat="44.56661" lon="3.13182">
        <ele>1392.8</ele>
        <time>2022-08-03T15:41:29Z</time>
      </trkpt>
      <trkpt lat="44.56661" lon="3.1318">
        <ele>1392.7</ele>
        <time>2022-08-03T15:41:30Z</time>
      </trkpt>
      <trkpt lat="44.56662" lon="3.13179">
        <ele>1392.6</ele>
        <time>2022-08-03T15:41:31Z</time>
      </trkpt>
      <trkpt lat="44.56664" lon="3.13176">
        <ele>1392.5</ele>
        <time>2022-08-03T15:41:33Z</time>
      </trkpt>
      <trkpt lat="44.56666" lon="3.13174">
        <ele>1392.4</ele>
        <time>2022-08-03T15:41:35Z</time>
      </trkpt>
      <trkpt lat="44.56669" lon="3.1316">
        <ele>1392</ele>
        <time>2022-08-03T15:41:43Z</time>
      </trkpt>
      <trkpt lat="44.5667" lon="3.13155">
        <ele>1391.9</ele>
        <time>2022-08-03T15:41:48Z</time>
      </trkpt>
      <trkpt lat="44.5667" lon="3.13155">
        <ele>1391.9</ele>
        <time>2022-08-03T15:41:49Z</time>
      </trkpt>
      <trkpt lat="44.56676" lon="3.13147">
        <ele>1392.3</ele>
        <time>2022-08-03T15:41:56Z</time>
      </trkpt>
      <trkpt lat="44.56681" lon="3.13137">
        <ele>1392.4</ele>
        <time>2022-08-03T15:42:03Z</time>
      </trkpt>
      <trkpt lat="44.5669" lon="3.13123">
        <ele>1392.4</ele>
        <time>2022-08-03T15:42:13Z</time>
      </trkpt>
      <trkpt lat="44.56697" lon="3.13113">
        <ele>1392.3</ele>
        <time>2022-08-03T15:42:21Z</time>
      </trkpt>
      <trkpt lat="44.56697" lon="3.13117">
        <ele>1392.6</ele>
        <time>2022-08-03T15:42:25Z</time>
      </trkpt>
      <trkpt lat="44.56697" lon="3.13121">
        <ele>1392.9</ele>
        <time>2022-08-03T15:42:27Z</time>
      </trkpt>
      <trkpt lat="44.56696" lon="3.13123">
        <ele>1393</ele>
        <time>2022-08-03T15:42:29Z</time>
      </trkpt>
      <trkpt lat="44.56696" lon="3.13123">
        <ele>1393</ele>
        <time>2022-08-03T15:42:30Z</time>
      </trkpt>
      <trkpt lat="44.56695" lon="3.13121">
        <ele>1392.8</ele>
        <time>2022-08-03T15:42:31Z</time>
      </trkpt>
      <trkpt lat="44.56695" lon="3.13115">
        <ele>1392.3</ele>
        <time>2022-08-03T15:42:35Z</time>
      </trkpt>
      <trkpt lat="44.56696" lon="3.13114">
        <ele>1392.3</ele>
        <time>2022-08-03T15:42:36Z</time>
      </trkpt>
      <trkpt lat="44.56701" lon="3.13104">
        <ele>1392.2</ele>
        <time>2022-08-03T15:42:43Z</time>
      </trkpt>
      <trkpt lat="44.56703" lon="3.13099">
        <ele>1392.2</ele>
        <time>2022-08-03T15:42:49Z</time>
      </trkpt>
      <trkpt lat="44.56703" lon="3.13099">
        <ele>1392.2</ele>
        <time>2022-08-03T15:42:50Z</time>
      </trkpt>
      <trkpt lat="44.56707" lon="3.13094">
        <ele>1392.2</ele>
        <time>2022-08-03T15:42:55Z</time>
      </trkpt>
      <trkpt lat="44.56712" lon="3.13085">
        <ele>1392.3</ele>
        <time>2022-08-03T15:43:02Z</time>
      </trkpt>
      <trkpt lat="44.56717" lon="3.13073">
        <ele>1391.9</ele>
        <time>2022-08-03T15:43:10Z</time>
      </trkpt>
      <trkpt lat="44.56721" lon="3.13064">
        <ele>1391.6</ele>
        <time>2022-08-03T15:43:18Z</time>
      </trkpt>
      <trkpt lat="44.56721" lon="3.13064">
        <ele>1391.6</ele>
        <time>2022-08-03T15:43:19Z</time>
      </trkpt>
      <trkpt lat="44.56724" lon="3.13059">
        <ele>1391.4</ele>
        <time>2022-08-03T15:43:25Z</time>
      </trkpt>
      <trkpt lat="44.56726" lon="3.13053">
        <ele>1391.4</ele>
        <time>2022-08-03T15:43:28Z</time>
      </trkpt>
      <trkpt lat="44.56729" lon="3.13047">
        <ele>1391.7</ele>
        <time>2022-08-03T15:43:32Z</time>
      </trkpt>
      <trkpt lat="44.56736" lon="3.13023">
        <ele>1391.7</ele>
        <time>2022-08-03T15:43:46Z</time>
      </trkpt>
      <trkpt lat="44.56737" lon="3.13021">
        <ele>1391.7</ele>
        <time>2022-08-03T15:43:48Z</time>
      </trkpt>
      <trkpt lat="44.56741" lon="3.13009">
        <ele>1391.2</ele>
        <time>2022-08-03T15:43:55Z</time>
      </trkpt>
      <trkpt lat="44.56745" lon="3.12997">
        <ele>1390.7</ele>
        <time>2022-08-03T15:44:03Z</time>
      </trkpt>
      <trkpt lat="44.56751" lon="3.12981">
        <ele>1390.4</ele>
        <time>2022-08-03T15:44:12Z</time>
      </trkpt>
      <trkpt lat="44.56757" lon="3.12968">
        <ele>1390.6</ele>
        <time>2022-08-03T15:44:21Z</time>
      </trkpt>
      <trkpt lat="44.56758" lon="3.12966">
        <ele>1390.7</ele>
        <time>2022-08-03T15:44:22Z</time>
      </trkpt>
      <trkpt lat="44.56762" lon="3.12956">
        <ele>1390.7</ele>
        <time>2022-08-03T15:44:28Z</time>
      </trkpt>
      <trkpt lat="44.56768" lon="3.12942">
        <ele>1390.7</ele>
        <time>2022-08-03T15:44:37Z</time>
      </trkpt>
      <trkpt lat="44.56774" lon="3.12929">
        <ele>1390.5</ele>
        <time>2022-08-03T15:44:45Z</time>
      </trkpt>
      <trkpt lat="44.56785" lon="3.12908">
        <ele>1389.9</ele>
        <time>2022-08-03T15:44:59Z</time>
      </trkpt>
      <trkpt lat="44.56789" lon="3.12897">
        <ele>1389.4</ele>
        <time>2022-08-03T15:45:06Z</time>
      </trkpt>
      <trkpt lat="44.56793" lon="3.12888">
        <ele>1389</ele>
        <time>2022-08-03T15:45:11Z</time>
      </trkpt>
      <trkpt lat="44.56794" lon="3.12882">
        <ele>1388.9</ele>
        <time>2022-08-03T15:45:14Z</time>
      </trkpt>
      <trkpt lat="44.56798" lon="3.12865">
        <ele>1388.6</ele>
        <time>2022-08-03T15:45:24Z</time>
      </trkpt>
      <trkpt lat="44.56799" lon="3.12863">
        <ele>1388.6</ele>
        <time>2022-08-03T15:45:25Z</time>
      </trkpt>
      <trkpt lat="44.56804" lon="3.12855">
        <ele>1388.4</ele>
        <time>2022-08-03T15:45:31Z</time>
      </trkpt>
      <trkpt lat="44.56808" lon="3.12849">
        <ele>1388.2</ele>
        <time>2022-08-03T15:45:35Z</time>
      </trkpt>
      <trkpt lat="44.56812" lon="3.12838">
        <ele>1387.4</ele>
        <time>2022-08-03T15:45:42Z</time>
      </trkpt>
      <trkpt lat="44.56818" lon="3.12828">
        <ele>1386.5</ele>
        <time>2022-08-03T15:45:49Z</time>
      </trkpt>
      <trkpt lat="44.56823" lon="3.12819">
        <ele>1385.8</ele>
        <time>2022-08-03T15:45:55Z</time>
      </trkpt>
      <trkpt lat="44.56825" lon="3.12817">
        <ele>1385.6</ele>
        <time>2022-08-03T15:45:57Z</time>
      </trkpt>
      <trkpt lat="44.56825" lon="3.12816">
        <ele>1385.6</ele>
        <time>2022-08-03T15:46:01Z</time>
      </trkpt>
      <trkpt lat="44.56825" lon="3.12816">
        <ele>1385.6</ele>
        <time>2022-08-03T15:46:03Z</time>
      </trkpt>
      <trkpt lat="44.56826" lon="3.12816">
        <ele>1385.6</ele>
        <time>2022-08-03T15:46:11Z</time>
      </trkpt>
      <trkpt lat="44.56826" lon="3.12816">
        <ele>1385.6</ele>
        <time>2022-08-03T15:46:14Z</time>
      </trkpt>
      <trkpt lat="44.56828" lon="3.12812">
        <ele>1385.3</ele>
        <time>2022-08-03T15:46:26Z</time>
      </trkpt>
      <trkpt lat="44.56834" lon="3.12803">
        <ele>1384.8</ele>
        <time>2022-08-03T15:46:32Z</time>
      </trkpt>
      <trkpt lat="44.56841" lon="3.1279">
        <ele>1383.9</ele>
        <time>2022-08-03T15:46:41Z</time>
      </trkpt>
      <trkpt lat="44.56842" lon="3.12786">
        <ele>1383.6</ele>
        <time>2022-08-03T15:46:44Z</time>
      </trkpt>
      <trkpt lat="44.56846" lon="3.12777">
        <ele>1382.9</ele>
        <time>2022-08-03T15:46:49Z</time>
      </trkpt>
      <trkpt lat="44.56846" lon="3.12775">
        <ele>1382.8</ele>
        <time>2022-08-03T15:46:50Z</time>
      </trkpt>
      <trkpt lat="44.56848" lon="3.12768">
        <ele>1382.2</ele>
        <time>2022-08-03T15:46:54Z</time>
      </trkpt>
      <trkpt lat="44.56852" lon="3.12762">
        <ele>1381.7</ele>
        <time>2022-08-03T15:46:59Z</time>
      </trkpt>
      <trkpt lat="44.56857" lon="3.12755">
        <ele>1381.2</ele>
        <time>2022-08-03T15:47:05Z</time>
      </trkpt>
      <trkpt lat="44.56858" lon="3.12752">
        <ele>1381.1</ele>
        <time>2022-08-03T15:47:07Z</time>
      </trkpt>
      <trkpt lat="44.56863" lon="3.12743">
        <ele>1380.5</ele>
        <time>2022-08-03T15:47:14Z</time>
      </trkpt>
      <trkpt lat="44.56863" lon="3.1274">
        <ele>1380.2</ele>
        <time>2022-08-03T15:47:16Z</time>
      </trkpt>
      <trkpt lat="44.56865" lon="3.12735">
        <ele>1379.9</ele>
        <time>2022-08-03T15:47:19Z</time>
      </trkpt>
      <trkpt lat="44.56867" lon="3.12733">
        <ele>1379.7</ele>
        <time>2022-08-03T15:47:21Z</time>
      </trkpt>
      <trkpt lat="44.56869" lon="3.12731">
        <ele>1379.5</ele>
        <time>2022-08-03T15:47:23Z</time>
      </trkpt>
      <trkpt lat="44.56873" lon="3.12727">
        <ele>1379</ele>
        <time>2022-08-03T15:47:28Z</time>
      </trkpt>
      <trkpt lat="44.56874" lon="3.12727">
        <ele>1379</ele>
        <time>2022-08-03T15:47:30Z</time>
      </trkpt>
      <trkpt lat="44.56874" lon="3.12727">
        <ele>1379</ele>
        <time>2022-08-03T15:47:31Z</time>
      </trkpt>
      <trkpt lat="44.56876" lon="3.1273">
        <ele>1379.1</ele>
        <time>2022-08-03T15:47:49Z</time>
      </trkpt>
      <trkpt lat="44.56879" lon="3.12727">
        <ele>1378.8</ele>
        <time>2022-08-03T15:47:51Z</time>
      </trkpt>
      <trkpt lat="44.56883" lon="3.12726">
        <ele>1378.5</ele>
        <time>2022-08-03T15:47:55Z</time>
      </trkpt>
      <trkpt lat="44.56884" lon="3.12721">
        <ele>1378</ele>
        <time>2022-08-03T15:47:58Z</time>
      </trkpt>
      <trkpt lat="44.56884" lon="3.12719">
        <ele>1377.9</ele>
        <time>2022-08-03T15:48:01Z</time>
      </trkpt>
      <trkpt lat="44.56885" lon="3.12717">
        <ele>1377.6</ele>
        <time>2022-08-03T15:48:08Z</time>
      </trkpt>
      <trkpt lat="44.56884" lon="3.12716">
        <ele>1377.5</ele>
        <time>2022-08-03T15:48:15Z</time>
      </trkpt>
      <trkpt lat="44.56888" lon="3.12712">
        <ele>1376.9</ele>
        <time>2022-08-03T15:48:25Z</time>
      </trkpt>
      <trkpt lat="44.56892" lon="3.12704">
        <ele>1376.2</ele>
        <time>2022-08-03T15:48:29Z</time>
      </trkpt>
      <trkpt lat="44.56895" lon="3.12699">
        <ele>1375.8</ele>
        <time>2022-08-03T15:48:33Z</time>
      </trkpt>
      <trkpt lat="44.56897" lon="3.12693">
        <ele>1375.4</ele>
        <time>2022-08-03T15:48:37Z</time>
      </trkpt>
      <trkpt lat="44.56899" lon="3.12687">
        <ele>1375.1</ele>
        <time>2022-08-03T15:48:41Z</time>
      </trkpt>
      <trkpt lat="44.56902" lon="3.12681">
        <ele>1374.7</ele>
        <time>2022-08-03T15:48:47Z</time>
      </trkpt>
      <trkpt lat="44.56902" lon="3.1268">
        <ele>1374.7</ele>
        <time>2022-08-03T15:48:48Z</time>
      </trkpt>
      <trkpt lat="44.56902" lon="3.12679">
        <ele>1374.5</ele>
        <time>2022-08-03T15:48:49Z</time>
      </trkpt>
      <trkpt lat="44.56904" lon="3.12664">
        <ele>1373.2</ele>
        <time>2022-08-03T15:48:58Z</time>
      </trkpt>
      <trkpt lat="44.56905" lon="3.12659">
        <ele>1372.7</ele>
        <time>2022-08-03T15:49:01Z</time>
      </trkpt>
      <trkpt lat="44.56906" lon="3.12656">
        <ele>1372.4</ele>
        <time>2022-08-03T15:49:03Z</time>
      </trkpt>
      <trkpt lat="44.56909" lon="3.1265">
        <ele>1371.9</ele>
        <time>2022-08-03T15:49:07Z</time>
      </trkpt>
      <trkpt lat="44.56917" lon="3.12639">
        <ele>1371</ele>
        <time>2022-08-03T15:49:17Z</time>
      </trkpt>
      <trkpt lat="44.56921" lon="3.12631">
        <ele>1370.4</ele>
        <time>2022-08-03T15:49:24Z</time>
      </trkpt>
      <trkpt lat="44.56921" lon="3.12625">
        <ele>1369.8</ele>
        <time>2022-08-03T15:49:28Z</time>
      </trkpt>
      <trkpt lat="44.5692" lon="3.1262">
        <ele>1369.2</ele>
        <time>2022-08-03T15:49:32Z</time>
      </trkpt>
      <trkpt lat="44.5692" lon="3.12618">
        <ele>1369</ele>
        <time>2022-08-03T15:49:36Z</time>
      </trkpt>
      <trkpt lat="44.56921" lon="3.12614">
        <ele>1368.6</ele>
        <time>2022-08-03T15:49:46Z</time>
      </trkpt>
      <trkpt lat="44.56921" lon="3.12613">
        <ele>1368.5</ele>
        <time>2022-08-03T15:49:47Z</time>
      </trkpt>
      <trkpt lat="44.56923" lon="3.12603">
        <ele>1367.5</ele>
        <time>2022-08-03T15:49:55Z</time>
      </trkpt>
      <trkpt lat="44.56924" lon="3.12595">
        <ele>1366.8</ele>
        <time>2022-08-03T15:50:00Z</time>
      </trkpt>
      <trkpt lat="44.56927" lon="3.12585">
        <ele>1365.9</ele>
        <time>2022-08-03T15:50:06Z</time>
      </trkpt>
      <trkpt lat="44.56928" lon="3.12582">
        <ele>1365.7</ele>
        <time>2022-08-03T15:50:09Z</time>
      </trkpt>
      <trkpt lat="44.56926" lon="3.12579">
        <ele>1365.3</ele>
        <time>2022-08-03T15:50:12Z</time>
      </trkpt>
      <trkpt lat="44.56926" lon="3.12577">
        <ele>1365.2</ele>
        <time>2022-08-03T15:50:13Z</time>
      </trkpt>
      <trkpt lat="44.56926" lon="3.12577">
        <ele>1365.1</ele>
        <time>2022-08-03T15:50:14Z</time>
      </trkpt>
      <trkpt lat="44.56926" lon="3.12577">
        <ele>1365.1</ele>
        <time>2022-08-03T15:50:16Z</time>
      </trkpt>
      <trkpt lat="44.56926" lon="3.12577">
        <ele>1365.1</ele>
        <time>2022-08-03T15:50:18Z</time>
      </trkpt>
      <trkpt lat="44.56926" lon="3.12577">
        <ele>1365.1</ele>
        <time>2022-08-03T15:50:20Z</time>
      </trkpt>
      <trkpt lat="44.56927" lon="3.12577">
        <ele>1365.2</ele>
        <time>2022-08-03T15:50:25Z</time>
      </trkpt>
      <trkpt lat="44.56927" lon="3.12572">
        <ele>1364.8</ele>
        <time>2022-08-03T15:50:52Z</time>
      </trkpt>
      <trkpt lat="44.56927" lon="3.12572">
        <ele>1364.8</ele>
        <time>2022-08-03T15:50:53Z</time>
      </trkpt>
      <trkpt lat="44.56928" lon="3.12568">
        <ele>1364.4</ele>
        <time>2022-08-03T15:50:55Z</time>
      </trkpt>
      <trkpt lat="44.56928" lon="3.12561">
        <ele>1363.9</ele>
        <time>2022-08-03T15:50:59Z</time>
      </trkpt>
      <trkpt lat="44.56929" lon="3.1255">
        <ele>1362.8</ele>
        <time>2022-08-03T15:51:04Z</time>
      </trkpt>
      <trkpt lat="44.56935" lon="3.1254">
        <ele>1362</ele>
        <time>2022-08-03T15:51:12Z</time>
      </trkpt>
      <trkpt lat="44.56939" lon="3.1253">
        <ele>1361.1</ele>
        <time>2022-08-03T15:51:19Z</time>
      </trkpt>
      <trkpt lat="44.56941" lon="3.12528">
        <ele>1360.9</ele>
        <time>2022-08-03T15:51:21Z</time>
      </trkpt>
      <trkpt lat="44.56948" lon="3.12518">
        <ele>1360</ele>
        <time>2022-08-03T15:51:32Z</time>
      </trkpt>
      <trkpt lat="44.56948" lon="3.12518">
        <ele>1360.1</ele>
        <time>2022-08-03T15:51:34Z</time>
      </trkpt>
      <trkpt lat="44.56948" lon="3.12519">
        <ele>1360.1</ele>
        <time>2022-08-03T15:51:37Z</time>
      </trkpt>
      <trkpt lat="44.56948" lon="3.12518">
        <ele>1360</ele>
        <time>2022-08-03T15:51:39Z</time>
      </trkpt>
      <trkpt lat="44.5695" lon="3.12516">
        <ele>1359.9</ele>
        <time>2022-08-03T15:51:43Z</time>
      </trkpt>
      <trkpt lat="44.56954" lon="3.12512">
        <ele>1359.6</ele>
        <time>2022-08-03T15:51:49Z</time>
      </trkpt>
      <trkpt lat="44.5696" lon="3.12505">
        <ele>1359.1</ele>
        <time>2022-08-03T15:51:57Z</time>
      </trkpt>
      <trkpt lat="44.56971" lon="3.1249">
        <ele>1357.9</ele>
        <time>2022-08-03T15:52:10Z</time>
      </trkpt>
      <trkpt lat="44.56978" lon="3.12486">
        <ele>1357.7</ele>
        <time>2022-08-03T15:52:17Z</time>
      </trkpt>
      <trkpt lat="44.56984" lon="3.12481">
        <ele>1357.4</ele>
        <time>2022-08-03T15:52:23Z</time>
      </trkpt>
      <trkpt lat="44.56986" lon="3.12479">
        <ele>1357.2</ele>
        <time>2022-08-03T15:52:25Z</time>
      </trkpt>
      <trkpt lat="44.56992" lon="3.1247">
        <ele>1356.5</ele>
        <time>2022-08-03T15:52:33Z</time>
      </trkpt>
      <trkpt lat="44.56993" lon="3.12469">
        <ele>1356.4</ele>
        <time>2022-08-03T15:52:34Z</time>
      </trkpt>
      <trkpt lat="44.57001" lon="3.12461">
        <ele>1355.8</ele>
        <time>2022-08-03T15:52:43Z</time>
      </trkpt>
      <trkpt lat="44.57002" lon="3.1246">
        <ele>1355.7</ele>
        <time>2022-08-03T15:52:44Z</time>
      </trkpt>
      <trkpt lat="44.57003" lon="3.12459">
        <ele>1355.6</ele>
        <time>2022-08-03T15:52:45Z</time>
      </trkpt>
      <trkpt lat="44.57009" lon="3.1245">
        <ele>1354.9</ele>
        <time>2022-08-03T15:52:52Z</time>
      </trkpt>
      <trkpt lat="44.57009" lon="3.12449">
        <ele>1354.8</ele>
        <time>2022-08-03T15:52:53Z</time>
      </trkpt>
      <trkpt lat="44.57015" lon="3.12439">
        <ele>1353.9</ele>
        <time>2022-08-03T15:53:02Z</time>
      </trkpt>
      <trkpt lat="44.57016" lon="3.12438">
        <ele>1353.7</ele>
        <time>2022-08-03T15:53:03Z</time>
      </trkpt>
      <trkpt lat="44.57021" lon="3.12429">
        <ele>1352.6</ele>
        <time>2022-08-03T15:53:11Z</time>
      </trkpt>
      <trkpt lat="44.57025" lon="3.12421">
        <ele>1351.5</ele>
        <time>2022-08-03T15:53:18Z</time>
      </trkpt>
      <trkpt lat="44.57027" lon="3.12416">
        <ele>1351</ele>
        <time>2022-08-03T15:53:21Z</time>
      </trkpt>
      <trkpt lat="44.57031" lon="3.12407">
        <ele>1350.3</ele>
        <time>2022-08-03T15:53:28Z</time>
      </trkpt>
      <trkpt lat="44.57033" lon="3.12404">
        <ele>1350.1</ele>
        <time>2022-08-03T15:53:31Z</time>
      </trkpt>
      <trkpt lat="44.57041" lon="3.12397">
        <ele>1349.6</ele>
        <time>2022-08-03T15:53:39Z</time>
      </trkpt>
      <trkpt lat="44.57047" lon="3.12393">
        <ele>1349.3</ele>
        <time>2022-08-03T15:53:46Z</time>
      </trkpt>
      <trkpt lat="44.57047" lon="3.12393">
        <ele>1349.3</ele>
        <time>2022-08-03T15:53:47Z</time>
      </trkpt>
      <trkpt lat="44.57045" lon="3.12389">
        <ele>1349</ele>
        <time>2022-08-03T15:53:53Z</time>
      </trkpt>
      <trkpt lat="44.5705" lon="3.12383">
        <ele>1348.5</ele>
        <time>2022-08-03T15:53:59Z</time>
      </trkpt>
      <trkpt lat="44.57054" lon="3.12376">
        <ele>1348.1</ele>
        <time>2022-08-03T15:54:06Z</time>
      </trkpt>
      <trkpt lat="44.57054" lon="3.12378">
        <ele>1348.2</ele>
        <time>2022-08-03T15:54:15Z</time>
      </trkpt>
      <trkpt lat="44.57059" lon="3.12378">
        <ele>1348.2</ele>
        <time>2022-08-03T15:54:23Z</time>
      </trkpt>
      <trkpt lat="44.57061" lon="3.12379">
        <ele>1348.3</ele>
        <time>2022-08-03T15:54:30Z</time>
      </trkpt>
      <trkpt lat="44.5706" lon="3.12378">
        <ele>1348.2</ele>
        <time>2022-08-03T15:54:36Z</time>
      </trkpt>
      <trkpt lat="44.5706" lon="3.12378">
        <ele>1348.2</ele>
        <time>2022-08-03T15:54:42Z</time>
      </trkpt>
      <trkpt lat="44.5706" lon="3.12378">
        <ele>1348.2</ele>
        <time>2022-08-03T15:54:48Z</time>
      </trkpt>
      <trkpt lat="44.57061" lon="3.12374">
        <ele>1347.9</ele>
        <time>2022-08-03T15:55:27Z</time>
      </trkpt>
      <trkpt lat="44.57061" lon="3.12364">
        <ele>1347.2</ele>
        <time>2022-08-03T15:56:00Z</time>
      </trkpt>
      <trkpt lat="44.57061" lon="3.12362">
        <ele>1347.1</ele>
        <time>2022-08-03T15:56:01Z</time>
      </trkpt>
      <trkpt lat="44.57064" lon="3.12345">
        <ele>1345.8</ele>
        <time>2022-08-03T15:56:11Z</time>
      </trkpt>
      <trkpt lat="44.57064" lon="3.12335">
        <ele>1345.1</ele>
        <time>2022-08-03T15:56:19Z</time>
      </trkpt>
      <trkpt lat="44.57064" lon="3.12334">
        <ele>1345.1</ele>
        <time>2022-08-03T15:56:20Z</time>
      </trkpt>
      <trkpt lat="44.57065" lon="3.12334">
        <ele>1345</ele>
        <time>2022-08-03T15:56:22Z</time>
      </trkpt>
      <trkpt lat="44.57065" lon="3.12334">
        <ele>1345</ele>
        <time>2022-08-03T15:56:27Z</time>
      </trkpt>
      <trkpt lat="44.57066" lon="3.12342">
        <ele>1345.7</ele>
        <time>2022-08-03T15:56:41Z</time>
      </trkpt>
      <trkpt lat="44.57074" lon="3.12352">
        <ele>1346.3</ele>
        <time>2022-08-03T15:56:49Z</time>
      </trkpt>
      <trkpt lat="44.57087" lon="3.12355">
        <ele>1346.6</ele>
        <time>2022-08-03T15:56:59Z</time>
      </trkpt>
      <trkpt lat="44.57091" lon="3.12354">
        <ele>1346.6</ele>
        <time>2022-08-03T15:57:02Z</time>
      </trkpt>
      <trkpt lat="44.57098" lon="3.12356">
        <ele>1346.7</ele>
        <time>2022-08-03T15:57:08Z</time>
      </trkpt>
      <trkpt lat="44.57104" lon="3.12357">
        <ele>1346.8</ele>
        <time>2022-08-03T15:57:13Z</time>
      </trkpt>
      <trkpt lat="44.57115" lon="3.12359">
        <ele>1346.9</ele>
        <time>2022-08-03T15:57:21Z</time>
      </trkpt>
      <trkpt lat="44.57127" lon="3.12359">
        <ele>1346.9</ele>
        <time>2022-08-03T15:57:30Z</time>
      </trkpt>
      <trkpt lat="44.57134" lon="3.12356">
        <ele>1346.8</ele>
        <time>2022-08-03T15:57:37Z</time>
      </trkpt>
      <trkpt lat="44.57134" lon="3.12355">
        <ele>1346.8</ele>
        <time>2022-08-03T15:57:39Z</time>
      </trkpt>
      <trkpt lat="44.57134" lon="3.12354">
        <ele>1346.8</ele>
        <time>2022-08-03T15:57:40Z</time>
      </trkpt>
      <trkpt lat="44.57135" lon="3.12353">
        <ele>1346.7</ele>
        <time>2022-08-03T15:57:46Z</time>
      </trkpt>
      <trkpt lat="44.57135" lon="3.12346">
        <ele>1346.4</ele>
        <time>2022-08-03T15:57:54Z</time>
      </trkpt>
      <trkpt lat="44.57139" lon="3.12331">
        <ele>1345.9</ele>
        <time>2022-08-03T15:58:04Z</time>
      </trkpt>
      <trkpt lat="44.57139" lon="3.12321">
        <ele>1345.6</ele>
        <time>2022-08-03T15:58:10Z</time>
      </trkpt>
      <trkpt lat="44.5714" lon="3.12312">
        <ele>1345.2</ele>
        <time>2022-08-03T15:58:15Z</time>
      </trkpt>
      <trkpt lat="44.57142" lon="3.12293">
        <ele>1344.5</ele>
        <time>2022-08-03T15:58:27Z</time>
      </trkpt>
      <trkpt lat="44.57145" lon="3.12285">
        <ele>1344.2</ele>
        <time>2022-08-03T15:58:33Z</time>
      </trkpt>
      <trkpt lat="44.57146" lon="3.12282">
        <ele>1344.2</ele>
        <time>2022-08-03T15:58:35Z</time>
      </trkpt>
      <trkpt lat="44.57146" lon="3.1228">
        <ele>1344.1</ele>
        <time>2022-08-03T15:58:39Z</time>
      </trkpt>
      <trkpt lat="44.57146" lon="3.12279">
        <ele>1344.1</ele>
        <time>2022-08-03T15:58:40Z</time>
      </trkpt>
      <trkpt lat="44.57146" lon="3.12279">
        <ele>1344</ele>
        <time>2022-08-03T15:58:41Z</time>
      </trkpt>
      <trkpt lat="44.57146" lon="3.12279">
        <ele>1344</ele>
        <time>2022-08-03T15:58:47Z</time>
      </trkpt>
      <trkpt lat="44.57146" lon="3.12274">
        <ele>1343.9</ele>
        <time>2022-08-03T15:58:54Z</time>
      </trkpt>
      <trkpt lat="44.57147" lon="3.12272">
        <ele>1343.9</ele>
        <time>2022-08-03T15:58:55Z</time>
      </trkpt>
      <trkpt lat="44.57148" lon="3.12261">
        <ele>1343.6</ele>
        <time>2022-08-03T15:59:02Z</time>
      </trkpt>
      <trkpt lat="44.57148" lon="3.12241">
        <ele>1343.1</ele>
        <time>2022-08-03T15:59:14Z</time>
      </trkpt>
      <trkpt lat="44.57149" lon="3.12232">
        <ele>1342.9</ele>
        <time>2022-08-03T15:59:22Z</time>
      </trkpt>
      <trkpt lat="44.57149" lon="3.12232">
        <ele>1342.9</ele>
        <time>2022-08-03T15:59:23Z</time>
      </trkpt>
      <trkpt lat="44.57149" lon="3.12233">
        <ele>1343</ele>
        <time>2022-08-03T15:59:30Z</time>
      </trkpt>
      <trkpt lat="44.57147" lon="3.12226">
        <ele>1342.6</ele>
        <time>2022-08-03T15:59:36Z</time>
      </trkpt>
      <trkpt lat="44.57151" lon="3.12213">
        <ele>1342.5</ele>
        <time>2022-08-03T15:59:44Z</time>
      </trkpt>
      <trkpt lat="44.57152" lon="3.12211">
        <ele>1342.5</ele>
        <time>2022-08-03T15:59:45Z</time>
      </trkpt>
      <trkpt lat="44.57158" lon="3.12198">
        <ele>1342.5</ele>
        <time>2022-08-03T15:59:54Z</time>
      </trkpt>
      <trkpt lat="44.57163" lon="3.1219">
        <ele>1342.2</ele>
        <time>2022-08-03T16:00:00Z</time>
      </trkpt>
      <trkpt lat="44.5717" lon="3.12175">
        <ele>1340.9</ele>
        <time>2022-08-03T16:00:09Z</time>
      </trkpt>
      <trkpt lat="44.57173" lon="3.12171">
        <ele>1340.4</ele>
        <time>2022-08-03T16:00:13Z</time>
      </trkpt>
      <trkpt lat="44.57173" lon="3.12171">
        <ele>1340.4</ele>
        <time>2022-08-03T16:00:15Z</time>
      </trkpt>
      <trkpt lat="44.57173" lon="3.12171">
        <ele>1340.5</ele>
        <time>2022-08-03T16:00:16Z</time>
      </trkpt>
      <trkpt lat="44.57173" lon="3.12172">
        <ele>1340.5</ele>
        <time>2022-08-03T16:00:20Z</time>
      </trkpt>
      <trkpt lat="44.57172" lon="3.12171">
        <ele>1340.4</ele>
        <time>2022-08-03T16:00:25Z</time>
      </trkpt>
      <trkpt lat="44.57178" lon="3.12161">
        <ele>1339.4</ele>
        <time>2022-08-03T16:01:19Z</time>
      </trkpt>
      <trkpt lat="44.57185" lon="3.12145">
        <ele>1338.2</ele>
        <time>2022-08-03T16:01:27Z</time>
      </trkpt>
      <trkpt lat="44.57188" lon="3.12135">
        <ele>1337.6</ele>
        <time>2022-08-03T16:01:33Z</time>
      </trkpt>
      <trkpt lat="44.57192" lon="3.12124">
        <ele>1337.3</ele>
        <time>2022-08-03T16:01:40Z</time>
      </trkpt>
      <trkpt lat="44.57196" lon="3.12102">
        <ele>1336.7</ele>
        <time>2022-08-03T16:01:52Z</time>
      </trkpt>
      <trkpt lat="44.57197" lon="3.12096">
        <ele>1336.4</ele>
        <time>2022-08-03T16:01:55Z</time>
      </trkpt>
      <trkpt lat="44.57199" lon="3.12083">
        <ele>1335.8</ele>
        <time>2022-08-03T16:02:03Z</time>
      </trkpt>
      <trkpt lat="44.57198" lon="3.12068">
        <ele>1335.3</ele>
        <time>2022-08-03T16:02:11Z</time>
      </trkpt>
      <trkpt lat="44.57198" lon="3.12059">
        <ele>1335</ele>
        <time>2022-08-03T16:02:19Z</time>
      </trkpt>
      <trkpt lat="44.57197" lon="3.12049">
        <ele>1334.7</ele>
        <time>2022-08-03T16:02:27Z</time>
      </trkpt>
      <trkpt lat="44.57197" lon="3.12035">
        <ele>1334.2</ele>
        <time>2022-08-03T16:02:35Z</time>
      </trkpt>
      <trkpt lat="44.57196" lon="3.12033">
        <ele>1334.1</ele>
        <time>2022-08-03T16:02:36Z</time>
      </trkpt>
      <trkpt lat="44.57195" lon="3.12017">
        <ele>1333.6</ele>
        <time>2022-08-03T16:02:45Z</time>
      </trkpt>
      <trkpt lat="44.57192" lon="3.11998">
        <ele>1332.7</ele>
        <time>2022-08-03T16:02:56Z</time>
      </trkpt>
      <trkpt lat="44.57191" lon="3.11995">
        <ele>1332.5</ele>
        <time>2022-08-03T16:02:58Z</time>
      </trkpt>
      <trkpt lat="44.57188" lon="3.11976">
        <ele>1331.8</ele>
        <time>2022-08-03T16:03:09Z</time>
      </trkpt>
      <trkpt lat="44.57186" lon="3.11961">
        <ele>1331.4</ele>
        <time>2022-08-03T16:03:17Z</time>
      </trkpt>
      <trkpt lat="44.57184" lon="3.11934">
        <ele>1330.6</ele>
        <time>2022-08-03T16:03:32Z</time>
      </trkpt>
      <trkpt lat="44.57183" lon="3.11929">
        <ele>1330.4</ele>
        <time>2022-08-03T16:03:35Z</time>
      </trkpt>
      <trkpt lat="44.57182" lon="3.11908">
        <ele>1329.7</ele>
        <time>2022-08-03T16:03:47Z</time>
      </trkpt>
      <trkpt lat="44.57181" lon="3.11899">
        <ele>1329.4</ele>
        <time>2022-08-03T16:03:52Z</time>
      </trkpt>
      <trkpt lat="44.5718" lon="3.11892">
        <ele>1329.1</ele>
        <time>2022-08-03T16:03:56Z</time>
      </trkpt>
      <trkpt lat="44.57178" lon="3.11881">
        <ele>1328.6</ele>
        <time>2022-08-03T16:04:02Z</time>
      </trkpt>
      <trkpt lat="44.57175" lon="3.11874">
        <ele>1328.3</ele>
        <time>2022-08-03T16:04:06Z</time>
      </trkpt>
      <trkpt lat="44.57172" lon="3.11858">
        <ele>1327.5</ele>
        <time>2022-08-03T16:04:15Z</time>
      </trkpt>
      <trkpt lat="44.57167" lon="3.11837">
        <ele>1327.1</ele>
        <time>2022-08-03T16:04:27Z</time>
      </trkpt>
      <trkpt lat="44.57165" lon="3.11833">
        <ele>1327.1</ele>
        <time>2022-08-03T16:04:29Z</time>
      </trkpt>
      <trkpt lat="44.57159" lon="3.11819">
        <ele>1327.1</ele>
        <time>2022-08-03T16:04:38Z</time>
      </trkpt>
      <trkpt lat="44.57151" lon="3.11804">
        <ele>1327</ele>
        <time>2022-08-03T16:04:48Z</time>
      </trkpt>
      <trkpt lat="44.57144" lon="3.11785">
        <ele>1326.8</ele>
        <time>2022-08-03T16:05:00Z</time>
      </trkpt>
      <trkpt lat="44.57139" lon="3.11763">
        <ele>1327.1</ele>
        <time>2022-08-03T16:05:12Z</time>
      </trkpt>
      <trkpt lat="44.57139" lon="3.11752">
        <ele>1327</ele>
        <time>2022-08-03T16:05:18Z</time>
      </trkpt>
      <trkpt lat="44.57147" lon="3.11736">
        <ele>1327.3</ele>
        <time>2022-08-03T16:05:28Z</time>
      </trkpt>
      <trkpt lat="44.57158" lon="3.11724">
        <ele>1327.5</ele>
        <time>2022-08-03T16:05:38Z</time>
      </trkpt>
      <trkpt lat="44.57159" lon="3.11723">
        <ele>1327.5</ele>
        <time>2022-08-03T16:05:39Z</time>
      </trkpt>
      <trkpt lat="44.57169" lon="3.11716">
        <ele>1327.8</ele>
        <time>2022-08-03T16:05:47Z</time>
      </trkpt>
      <trkpt lat="44.5718" lon="3.1171">
        <ele>1327.9</ele>
        <time>2022-08-03T16:05:56Z</time>
      </trkpt>
      <trkpt lat="44.57191" lon="3.11701">
        <ele>1327.8</ele>
        <time>2022-08-03T16:06:06Z</time>
      </trkpt>
      <trkpt lat="44.57202" lon="3.11691">
        <ele>1327.7</ele>
        <time>2022-08-03T16:06:17Z</time>
      </trkpt>
      <trkpt lat="44.57202" lon="3.1169">
        <ele>1327.7</ele>
        <time>2022-08-03T16:06:19Z</time>
      </trkpt>
      <trkpt lat="44.57202" lon="3.11691">
        <ele>1327.7</ele>
        <time>2022-08-03T16:06:22Z</time>
      </trkpt>
      <trkpt lat="44.57201" lon="3.1169">
        <ele>1327.7</ele>
        <time>2022-08-03T16:06:30Z</time>
      </trkpt>
      <trkpt lat="44.57201" lon="3.1169">
        <ele>1327.7</ele>
        <time>2022-08-03T16:06:34Z</time>
      </trkpt>
      <trkpt lat="44.57202" lon="3.11687">
        <ele>1327.8</ele>
        <time>2022-08-03T16:06:39Z</time>
      </trkpt>
      <trkpt lat="44.57203" lon="3.11685">
        <ele>1327.8</ele>
        <time>2022-08-03T16:06:41Z</time>
      </trkpt>
      <trkpt lat="44.57205" lon="3.11681">
        <ele>1327.9</ele>
        <time>2022-08-03T16:06:46Z</time>
      </trkpt>
      <trkpt lat="44.57206" lon="3.11672">
        <ele>1328.3</ele>
        <time>2022-08-03T16:06:52Z</time>
      </trkpt>
      <trkpt lat="44.57211" lon="3.11658">
        <ele>1328.9</ele>
        <time>2022-08-03T16:07:01Z</time>
      </trkpt>
      <trkpt lat="44.57211" lon="3.11656">
        <ele>1329</ele>
        <time>2022-08-03T16:07:02Z</time>
      </trkpt>
      <trkpt lat="44.57217" lon="3.11639">
        <ele>1330</ele>
        <time>2022-08-03T16:07:13Z</time>
      </trkpt>
      <trkpt lat="44.57218" lon="3.11635">
        <ele>1330.3</ele>
        <time>2022-08-03T16:07:16Z</time>
      </trkpt>
      <trkpt lat="44.57222" lon="3.11625">
        <ele>1331</ele>
        <time>2022-08-03T16:07:23Z</time>
      </trkpt>
      <trkpt lat="44.57223" lon="3.11621">
        <ele>1331.2</ele>
        <time>2022-08-03T16:07:27Z</time>
      </trkpt>
      <trkpt lat="44.57229" lon="3.11605">
        <ele>1332.4</ele>
        <time>2022-08-03T16:07:37Z</time>
      </trkpt>
      <trkpt lat="44.5723" lon="3.11602">
        <ele>1332.7</ele>
        <time>2022-08-03T16:07:39Z</time>
      </trkpt>
      <trkpt lat="44.57235" lon="3.11592">
        <ele>1333.3</ele>
        <time>2022-08-03T16:07:46Z</time>
      </trkpt>
      <trkpt lat="44.57235" lon="3.11592">
        <ele>1333.4</ele>
        <time>2022-08-03T16:07:47Z</time>
      </trkpt>
      <trkpt lat="44.57236" lon="3.11591">
        <ele>1333.4</ele>
        <time>2022-08-03T16:07:48Z</time>
      </trkpt>
      <trkpt lat="44.57237" lon="3.1159">
        <ele>1333.5</ele>
        <time>2022-08-03T16:07:49Z</time>
      </trkpt>
      <trkpt lat="44.57238" lon="3.11584">
        <ele>1334</ele>
        <time>2022-08-03T16:07:53Z</time>
      </trkpt>
      <trkpt lat="44.57243" lon="3.11572">
        <ele>1334.6</ele>
        <time>2022-08-03T16:08:01Z</time>
      </trkpt>
      <trkpt lat="44.57243" lon="3.11571">
        <ele>1334.7</ele>
        <time>2022-08-03T16:08:02Z</time>
      </trkpt>
      <trkpt lat="44.57249" lon="3.11556">
        <ele>1335</ele>
        <time>2022-08-03T16:08:11Z</time>
      </trkpt>
      <trkpt lat="44.5725" lon="3.11555">
        <ele>1335</ele>
        <time>2022-08-03T16:08:12Z</time>
      </trkpt>
      <trkpt lat="44.57254" lon="3.11547">
        <ele>1335.3</ele>
        <time>2022-08-03T16:08:18Z</time>
      </trkpt>
      <trkpt lat="44.57255" lon="3.11544">
        <ele>1335.5</ele>
        <time>2022-08-03T16:08:20Z</time>
      </trkpt>
      <trkpt lat="44.57264" lon="3.11527">
        <ele>1336</ele>
        <time>2022-08-03T16:08:31Z</time>
      </trkpt>
      <trkpt lat="44.57271" lon="3.11513">
        <ele>1336.8</ele>
        <time>2022-08-03T16:08:40Z</time>
      </trkpt>
      <trkpt lat="44.57272" lon="3.1151">
        <ele>1337.1</ele>
        <time>2022-08-03T16:08:42Z</time>
      </trkpt>
      <trkpt lat="44.57277" lon="3.11501">
        <ele>1337.9</ele>
        <time>2022-08-03T16:08:48Z</time>
      </trkpt>
      <trkpt lat="44.57279" lon="3.11497">
        <ele>1338.1</ele>
        <time>2022-08-03T16:08:51Z</time>
      </trkpt>
      <trkpt lat="44.5728" lon="3.11493">
        <ele>1338.2</ele>
        <time>2022-08-03T16:08:54Z</time>
      </trkpt>
      <trkpt lat="44.57284" lon="3.11484">
        <ele>1338.5</ele>
        <time>2022-08-03T16:09:00Z</time>
      </trkpt>
      <trkpt lat="44.57287" lon="3.11478">
        <ele>1338.7</ele>
        <time>2022-08-03T16:09:04Z</time>
      </trkpt>
      <trkpt lat="44.57296" lon="3.11466">
        <ele>1339.2</ele>
        <time>2022-08-03T16:09:13Z</time>
      </trkpt>
      <trkpt lat="44.57302" lon="3.11455">
        <ele>1339.6</ele>
        <time>2022-08-03T16:09:21Z</time>
      </trkpt>
      <trkpt lat="44.57304" lon="3.11452">
        <ele>1339.7</ele>
        <time>2022-08-03T16:09:23Z</time>
      </trkpt>
      <trkpt lat="44.57309" lon="3.11441">
        <ele>1340.2</ele>
        <time>2022-08-03T16:09:30Z</time>
      </trkpt>
      <trkpt lat="44.5731" lon="3.11438">
        <ele>1340.4</ele>
        <time>2022-08-03T16:09:32Z</time>
      </trkpt>
      <trkpt lat="44.57316" lon="3.11426">
        <ele>1341</ele>
        <time>2022-08-03T16:09:41Z</time>
      </trkpt>
      <trkpt lat="44.57317" lon="3.11425">
        <ele>1341.1</ele>
        <time>2022-08-03T16:09:43Z</time>
      </trkpt>
      <trkpt lat="44.57317" lon="3.11425">
        <ele>1341.1</ele>
        <time>2022-08-03T16:09:44Z</time>
      </trkpt>
      <trkpt lat="44.57317" lon="3.11423">
        <ele>1341.2</ele>
        <time>2022-08-03T16:09:47Z</time>
      </trkpt>
      <trkpt lat="44.57324" lon="3.11413">
        <ele>1341.8</ele>
        <time>2022-08-03T16:09:55Z</time>
      </trkpt>
      <trkpt lat="44.57328" lon="3.11408">
        <ele>1342.1</ele>
        <time>2022-08-03T16:09:59Z</time>
      </trkpt>
      <trkpt lat="44.57333" lon="3.11403">
        <ele>1342.5</ele>
        <time>2022-08-03T16:10:04Z</time>
      </trkpt>
      <trkpt lat="44.57341" lon="3.11395">
        <ele>1343.1</ele>
        <time>2022-08-03T16:10:12Z</time>
      </trkpt>
      <trkpt lat="44.57342" lon="3.11394">
        <ele>1343.1</ele>
        <time>2022-08-03T16:10:13Z</time>
      </trkpt>
      <trkpt lat="44.57356" lon="3.11381">
        <ele>1343.8</ele>
        <time>2022-08-03T16:10:26Z</time>
      </trkpt>
      <trkpt lat="44.57369" lon="3.11365">
        <ele>1344.2</ele>
        <time>2022-08-03T16:10:39Z</time>
      </trkpt>
      <trkpt lat="44.57375" lon="3.11349">
        <ele>1344.5</ele>
        <time>2022-08-03T16:10:49Z</time>
      </trkpt>
      <trkpt lat="44.57382" lon="3.11331">
        <ele>1344.8</ele>
        <time>2022-08-03T16:11:00Z</time>
      </trkpt>
      <trkpt lat="44.57388" lon="3.11316">
        <ele>1345</ele>
        <time>2022-08-03T16:11:09Z</time>
      </trkpt>
      <trkpt lat="44.57394" lon="3.11302">
        <ele>1345.6</ele>
        <time>2022-08-03T16:11:18Z</time>
      </trkpt>
      <trkpt lat="44.57396" lon="3.11297">
        <ele>1346</ele>
        <time>2022-08-03T16:11:21Z</time>
      </trkpt>
      <trkpt lat="44.57401" lon="3.11281">
        <ele>1347.2</ele>
        <time>2022-08-03T16:11:31Z</time>
      </trkpt>
      <trkpt lat="44.57402" lon="3.1128">
        <ele>1347.3</ele>
        <time>2022-08-03T16:11:32Z</time>
      </trkpt>
      <trkpt lat="44.57407" lon="3.11267">
        <ele>1348.1</ele>
        <time>2022-08-03T16:11:40Z</time>
      </trkpt>
      <trkpt lat="44.57411" lon="3.11252">
        <ele>1348.7</ele>
        <time>2022-08-03T16:11:49Z</time>
      </trkpt>
      <trkpt lat="44.57412" lon="3.1125">
        <ele>1348.8</ele>
        <time>2022-08-03T16:11:50Z</time>
      </trkpt>
      <trkpt lat="44.57414" lon="3.11238">
        <ele>1349.3</ele>
        <time>2022-08-03T16:11:57Z</time>
      </trkpt>
      <trkpt lat="44.57415" lon="3.11231">
        <ele>1349.6</ele>
        <time>2022-08-03T16:12:01Z</time>
      </trkpt>
      <trkpt lat="44.57419" lon="3.11216">
        <ele>1350.3</ele>
        <time>2022-08-03T16:12:09Z</time>
      </trkpt>
      <trkpt lat="44.5742" lon="3.11213">
        <ele>1350.4</ele>
        <time>2022-08-03T16:12:11Z</time>
      </trkpt>
      <trkpt lat="44.57423" lon="3.11202">
        <ele>1351</ele>
        <time>2022-08-03T16:12:18Z</time>
      </trkpt>
      <trkpt lat="44.57427" lon="3.11188">
        <ele>1351.6</ele>
        <time>2022-08-03T16:12:26Z</time>
      </trkpt>
      <trkpt lat="44.5743" lon="3.11173">
        <ele>1352.3</ele>
        <time>2022-08-03T16:12:35Z</time>
      </trkpt>
      <trkpt lat="44.57434" lon="3.11162">
        <ele>1353</ele>
        <time>2022-08-03T16:12:42Z</time>
      </trkpt>
      <trkpt lat="44.57435" lon="3.11157">
        <ele>1353.3</ele>
        <time>2022-08-03T16:12:45Z</time>
      </trkpt>
      <trkpt lat="44.57439" lon="3.11146">
        <ele>1354.3</ele>
        <time>2022-08-03T16:12:53Z</time>
      </trkpt>
      <trkpt lat="44.57443" lon="3.11132">
        <ele>1355.2</ele>
        <time>2022-08-03T16:13:02Z</time>
      </trkpt>
      <trkpt lat="44.57444" lon="3.11129">
        <ele>1355.4</ele>
        <time>2022-08-03T16:13:04Z</time>
      </trkpt>
      <trkpt lat="44.57447" lon="3.11116">
        <ele>1355.9</ele>
        <time>2022-08-03T16:13:12Z</time>
      </trkpt>
      <trkpt lat="44.57447" lon="3.11114">
        <ele>1356</ele>
        <time>2022-08-03T16:13:13Z</time>
      </trkpt>
      <trkpt lat="44.57447" lon="3.11104">
        <ele>1356.6</ele>
        <time>2022-08-03T16:13:19Z</time>
      </trkpt>
      <trkpt lat="44.57448" lon="3.11096">
        <ele>1357.2</ele>
        <time>2022-08-03T16:13:24Z</time>
      </trkpt>
      <trkpt lat="44.5745" lon="3.11088">
        <ele>1357.9</ele>
        <time>2022-08-03T16:13:29Z</time>
      </trkpt>
      <trkpt lat="44.5745" lon="3.11082">
        <ele>1358.3</ele>
        <time>2022-08-03T16:13:32Z</time>
      </trkpt>
      <trkpt lat="44.57449" lon="3.11067">
        <ele>1359.3</ele>
        <time>2022-08-03T16:13:41Z</time>
      </trkpt>
      <trkpt lat="44.57447" lon="3.11051">
        <ele>1360.6</ele>
        <time>2022-08-03T16:13:51Z</time>
      </trkpt>
      <trkpt lat="44.57447" lon="3.1105">
        <ele>1360.6</ele>
        <time>2022-08-03T16:13:54Z</time>
      </trkpt>
      <trkpt lat="44.57447" lon="3.11051">
        <ele>1360.6</ele>
        <time>2022-08-03T16:13:56Z</time>
      </trkpt>
      <trkpt lat="44.57447" lon="3.11051">
        <ele>1360.6</ele>
        <time>2022-08-03T16:13:58Z</time>
      </trkpt>
      <trkpt lat="44.57447" lon="3.1105">
        <ele>1360.7</ele>
        <time>2022-08-03T16:14:03Z</time>
      </trkpt>
      <trkpt lat="44.57449" lon="3.11054">
        <ele>1360.4</ele>
        <time>2022-08-03T16:14:12Z</time>
      </trkpt>
      <trkpt lat="44.57449" lon="3.11066">
        <ele>1359.4</ele>
        <time>2022-08-03T16:14:20Z</time>
      </trkpt>
      <trkpt lat="44.57451" lon="3.11069">
        <ele>1359.3</ele>
        <time>2022-08-03T16:14:26Z</time>
      </trkpt>
      <trkpt lat="44.5745" lon="3.11068">
        <ele>1359.3</ele>
        <time>2022-08-03T16:14:35Z</time>
      </trkpt>
      <trkpt lat="44.5745" lon="3.11068">
        <ele>1359.3</ele>
        <time>2022-08-03T16:14:37Z</time>
      </trkpt>
      <trkpt lat="44.57451" lon="3.11069">
        <ele>1359.3</ele>
        <time>2022-08-03T16:14:47Z</time>
      </trkpt>
      <trkpt lat="44.57451" lon="3.11069">
        <ele>1359.3</ele>
        <time>2022-08-03T16:14:59Z</time>
      </trkpt>
      <trkpt lat="44.57449" lon="3.11068">
        <ele>1359.2</ele>
        <time>2022-08-03T16:15:51Z</time>
      </trkpt>
      <trkpt lat="44.57447" lon="3.11059">
        <ele>1359.9</ele>
        <time>2022-08-03T16:16:08Z</time>
      </trkpt>
      <trkpt lat="44.57447" lon="3.1105">
        <ele>1360.7</ele>
        <time>2022-08-03T16:16:13Z</time>
      </trkpt>
      <trkpt lat="44.57447" lon="3.1105">
        <ele>1360.7</ele>
        <time>2022-08-03T16:16:14Z</time>
      </trkpt>
      <trkpt lat="44.57447" lon="3.1105">
        <ele>1360.7</ele>
        <time>2022-08-03T16:16:15Z</time>
      </trkpt>
      <trkpt lat="44.57446" lon="3.11049">
        <ele>1360.7</ele>
        <time>2022-08-03T16:16:30Z</time>
      </trkpt>
      <trkpt lat="44.57446" lon="3.11048">
        <ele>1360.9</ele>
        <time>2022-08-03T16:17:37Z</time>
      </trkpt>
      <trkpt lat="44.57446" lon="3.11044">
        <ele>1361.3</ele>
        <time>2022-08-03T16:17:39Z</time>
      </trkpt>
      <trkpt lat="44.57446" lon="3.11042">
        <ele>1361.5</ele>
        <time>2022-08-03T16:17:41Z</time>
      </trkpt>
      <trkpt lat="44.57446" lon="3.11042">
        <ele>1361.5</ele>
        <time>2022-08-03T16:17:45Z</time>
      </trkpt>
      <trkpt lat="44.57446" lon="3.11042">
        <ele>1361.5</ele>
        <time>2022-08-03T16:17:55Z</time>
      </trkpt>
      <trkpt lat="44.57444" lon="3.11037">
        <ele>1362</ele>
        <time>2022-08-03T16:18:00Z</time>
      </trkpt>
      <trkpt lat="44.57443" lon="3.11031">
        <ele>1362.6</ele>
        <time>2022-08-03T16:18:03Z</time>
      </trkpt>
      <trkpt lat="44.5744" lon="3.1102">
        <ele>1363.4</ele>
        <time>2022-08-03T16:18:10Z</time>
      </trkpt>
      <trkpt lat="44.57439" lon="3.11017">
        <ele>1363.6</ele>
        <time>2022-08-03T16:18:12Z</time>
      </trkpt>
      <trkpt lat="44.57437" lon="3.11009">
        <ele>1364</ele>
        <time>2022-08-03T16:18:18Z</time>
      </trkpt>
      <trkpt lat="44.57435" lon="3.11005">
        <ele>1364.3</ele>
        <time>2022-08-03T16:18:21Z</time>
      </trkpt>
      <trkpt lat="44.57433" lon="3.10998">
        <ele>1364.8</ele>
        <time>2022-08-03T16:18:26Z</time>
      </trkpt>
      <trkpt lat="44.57431" lon="3.10991">
        <ele>1365.5</ele>
        <time>2022-08-03T16:18:30Z</time>
      </trkpt>
      <trkpt lat="44.5743" lon="3.10983">
        <ele>1366.3</ele>
        <time>2022-08-03T16:18:35Z</time>
      </trkpt>
      <trkpt lat="44.57429" lon="3.10976">
        <ele>1367</ele>
        <time>2022-08-03T16:18:40Z</time>
      </trkpt>
      <trkpt lat="44.57429" lon="3.10972">
        <ele>1367.5</ele>
        <time>2022-08-03T16:18:43Z</time>
      </trkpt>
      <trkpt lat="44.57428" lon="3.10965">
        <ele>1367.9</ele>
        <time>2022-08-03T16:18:47Z</time>
      </trkpt>
      <trkpt lat="44.57428" lon="3.10962">
        <ele>1368.2</ele>
        <time>2022-08-03T16:18:49Z</time>
      </trkpt>
      <trkpt lat="44.57428" lon="3.10954">
        <ele>1368.7</ele>
        <time>2022-08-03T16:18:54Z</time>
      </trkpt>
      <trkpt lat="44.57427" lon="3.10943">
        <ele>1369.5</ele>
        <time>2022-08-03T16:19:01Z</time>
      </trkpt>
      <trkpt lat="44.57427" lon="3.10941">
        <ele>1369.6</ele>
        <time>2022-08-03T16:19:02Z</time>
      </trkpt>
      <trkpt lat="44.57426" lon="3.10926">
        <ele>1370.5</ele>
        <time>2022-08-03T16:19:12Z</time>
      </trkpt>
      <trkpt lat="44.57426" lon="3.10923">
        <ele>1370.6</ele>
        <time>2022-08-03T16:19:14Z</time>
      </trkpt>
      <trkpt lat="44.57424" lon="3.10911">
        <ele>1371.2</ele>
        <time>2022-08-03T16:19:22Z</time>
      </trkpt>
      <trkpt lat="44.57423" lon="3.10897">
        <ele>1371.7</ele>
        <time>2022-08-03T16:19:31Z</time>
      </trkpt>
      <trkpt lat="44.57423" lon="3.10889">
        <ele>1372</ele>
        <time>2022-08-03T16:19:36Z</time>
      </trkpt>
      <trkpt lat="44.57423" lon="3.10881">
        <ele>1372.5</ele>
        <time>2022-08-03T16:19:41Z</time>
      </trkpt>
      <trkpt lat="44.57422" lon="3.10879">
        <ele>1372.7</ele>
        <time>2022-08-03T16:19:42Z</time>
      </trkpt>
      <trkpt lat="44.57422" lon="3.10874">
        <ele>1373</ele>
        <time>2022-08-03T16:19:45Z</time>
      </trkpt>
      <trkpt lat="44.57421" lon="3.10862">
        <ele>1373.8</ele>
        <time>2022-08-03T16:19:52Z</time>
      </trkpt>
      <trkpt lat="44.5742" lon="3.10857">
        <ele>1374</ele>
        <time>2022-08-03T16:19:55Z</time>
      </trkpt>
      <trkpt lat="44.5742" lon="3.10854">
        <ele>1374.1</ele>
        <time>2022-08-03T16:19:57Z</time>
      </trkpt>
      <trkpt lat="44.5742" lon="3.1085">
        <ele>1374.3</ele>
        <time>2022-08-03T16:19:59Z</time>
      </trkpt>
      <trkpt lat="44.57419" lon="3.10841">
        <ele>1374.6</ele>
        <time>2022-08-03T16:20:05Z</time>
      </trkpt>
      <trkpt lat="44.57419" lon="3.10829">
        <ele>1375.1</ele>
        <time>2022-08-03T16:20:12Z</time>
      </trkpt>
      <trkpt lat="44.57418" lon="3.10825">
        <ele>1375.2</ele>
        <time>2022-08-03T16:20:14Z</time>
      </trkpt>
      <trkpt lat="44.57419" lon="3.10809">
        <ele>1375.7</ele>
        <time>2022-08-03T16:20:24Z</time>
      </trkpt>
      <trkpt lat="44.5742" lon="3.10793">
        <ele>1376.2</ele>
        <time>2022-08-03T16:20:33Z</time>
      </trkpt>
      <trkpt lat="44.5742" lon="3.1079">
        <ele>1376.3</ele>
        <time>2022-08-03T16:20:35Z</time>
      </trkpt>
      <trkpt lat="44.5742" lon="3.10771">
        <ele>1377</ele>
        <time>2022-08-03T16:20:46Z</time>
      </trkpt>
      <trkpt lat="44.57418" lon="3.10754">
        <ele>1377.7</ele>
        <time>2022-08-03T16:20:56Z</time>
      </trkpt>
      <trkpt lat="44.57418" lon="3.10753">
        <ele>1377.8</ele>
        <time>2022-08-03T16:20:57Z</time>
      </trkpt>
      <trkpt lat="44.57416" lon="3.10742">
        <ele>1377.7</ele>
        <time>2022-08-03T16:21:04Z</time>
      </trkpt>
      <trkpt lat="44.57415" lon="3.10735">
        <ele>1377.5</ele>
        <time>2022-08-03T16:21:11Z</time>
      </trkpt>
      <trkpt lat="44.57415" lon="3.10735">
        <ele>1377.5</ele>
        <time>2022-08-03T16:21:12Z</time>
      </trkpt>
      <trkpt lat="44.57416" lon="3.10737">
        <ele>1377.6</ele>
        <time>2022-08-03T16:21:17Z</time>
      </trkpt>
      <trkpt lat="44.57416" lon="3.10737">
        <ele>1377.5</ele>
        <time>2022-08-03T16:21:20Z</time>
      </trkpt>
      <trkpt lat="44.57416" lon="3.10727">
        <ele>1377.3</ele>
        <time>2022-08-03T16:21:52Z</time>
      </trkpt>
      <trkpt lat="44.57416" lon="3.10714">
        <ele>1376.7</ele>
        <time>2022-08-03T16:21:59Z</time>
      </trkpt>
      <trkpt lat="44.57416" lon="3.10713">
        <ele>1376.7</ele>
        <time>2022-08-03T16:22:02Z</time>
      </trkpt>
      <trkpt lat="44.57416" lon="3.1071">
        <ele>1376.6</ele>
        <time>2022-08-03T16:22:08Z</time>
      </trkpt>
      <trkpt lat="44.57416" lon="3.1071">
        <ele>1376.6</ele>
        <time>2022-08-03T16:22:23Z</time>
      </trkpt>
      <trkpt lat="44.57411" lon="3.10704">
        <ele>1376.7</ele>
        <time>2022-08-03T16:22:41Z</time>
      </trkpt>
      <trkpt lat="44.57402" lon="3.1069">
        <ele>1376.9</ele>
        <time>2022-08-03T16:22:49Z</time>
      </trkpt>
      <trkpt lat="44.57398" lon="3.10685">
        <ele>1377</ele>
        <time>2022-08-03T16:22:53Z</time>
      </trkpt>
      <trkpt lat="44.57392" lon="3.10669">
        <ele>1376.9</ele>
        <time>2022-08-03T16:23:03Z</time>
      </trkpt>
      <trkpt lat="44.5739" lon="3.10661">
        <ele>1376.9</ele>
        <time>2022-08-03T16:23:10Z</time>
      </trkpt>
      <trkpt lat="44.57388" lon="3.10657">
        <ele>1377.1</ele>
        <time>2022-08-03T16:23:17Z</time>
      </trkpt>
      <trkpt lat="44.57387" lon="3.10643">
        <ele>1377.1</ele>
        <time>2022-08-03T16:23:27Z</time>
      </trkpt>
      <trkpt lat="44.57387" lon="3.10621">
        <ele>1375.8</ele>
        <time>2022-08-03T16:23:40Z</time>
      </trkpt>
      <trkpt lat="44.57387" lon="3.1062">
        <ele>1375.7</ele>
        <time>2022-08-03T16:23:41Z</time>
      </trkpt>
      <trkpt lat="44.57389" lon="3.10608">
        <ele>1374.9</ele>
        <time>2022-08-03T16:23:49Z</time>
      </trkpt>
      <trkpt lat="44.57391" lon="3.10601">
        <ele>1374.4</ele>
        <time>2022-08-03T16:23:53Z</time>
      </trkpt>
      <trkpt lat="44.57392" lon="3.10597">
        <ele>1374.1</ele>
        <time>2022-08-03T16:23:56Z</time>
      </trkpt>
      <trkpt lat="44.57397" lon="3.10579">
        <ele>1372.9</ele>
        <time>2022-08-03T16:24:08Z</time>
      </trkpt>
      <trkpt lat="44.57397" lon="3.10577">
        <ele>1372.7</ele>
        <time>2022-08-03T16:24:09Z</time>
      </trkpt>
      <trkpt lat="44.57403" lon="3.10559">
        <ele>1371.2</ele>
        <time>2022-08-03T16:24:21Z</time>
      </trkpt>
      <trkpt lat="44.57404" lon="3.10555">
        <ele>1370.9</ele>
        <time>2022-08-03T16:24:24Z</time>
      </trkpt>
      <trkpt lat="44.57406" lon="3.10548">
        <ele>1370.3</ele>
        <time>2022-08-03T16:24:29Z</time>
      </trkpt>
      <trkpt lat="44.57406" lon="3.10547">
        <ele>1370.2</ele>
        <time>2022-08-03T16:24:32Z</time>
      </trkpt>
      <trkpt lat="44.57406" lon="3.10547">
        <ele>1370.2</ele>
        <time>2022-08-03T16:24:33Z</time>
      </trkpt>
      <trkpt lat="44.57407" lon="3.10547">
        <ele>1370.2</ele>
        <time>2022-08-03T16:24:41Z</time>
      </trkpt>
      <trkpt lat="44.57409" lon="3.10542">
        <ele>1369.7</ele>
        <time>2022-08-03T16:24:50Z</time>
      </trkpt>
      <trkpt lat="44.57412" lon="3.10534">
        <ele>1368.9</ele>
        <time>2022-08-03T16:24:57Z</time>
      </trkpt>
      <trkpt lat="44.57412" lon="3.1053">
        <ele>1368.6</ele>
        <time>2022-08-03T16:25:06Z</time>
      </trkpt>
      <trkpt lat="44.57416" lon="3.10518">
        <ele>1367.4</ele>
        <time>2022-08-03T16:25:13Z</time>
      </trkpt>
      <trkpt lat="44.57417" lon="3.10514">
        <ele>1366.9</ele>
        <time>2022-08-03T16:25:16Z</time>
      </trkpt>
      <trkpt lat="44.57419" lon="3.10506">
        <ele>1366</ele>
        <time>2022-08-03T16:25:21Z</time>
      </trkpt>
      <trkpt lat="44.57422" lon="3.10499">
        <ele>1365.3</ele>
        <time>2022-08-03T16:25:25Z</time>
      </trkpt>
      <trkpt lat="44.57426" lon="3.10484">
        <ele>1363.9</ele>
        <time>2022-08-03T16:25:35Z</time>
      </trkpt>
      <trkpt lat="44.57427" lon="3.10482">
        <ele>1363.7</ele>
        <time>2022-08-03T16:25:39Z</time>
      </trkpt>
      <trkpt lat="44.57427" lon="3.1048">
        <ele>1363.6</ele>
        <time>2022-08-03T16:25:41Z</time>
      </trkpt>
      <trkpt lat="44.57428" lon="3.10478">
        <ele>1363.5</ele>
        <time>2022-08-03T16:25:42Z</time>
      </trkpt>
      <trkpt lat="44.57428" lon="3.10477">
        <ele>1363.4</ele>
        <time>2022-08-03T16:25:43Z</time>
      </trkpt>
      <trkpt lat="44.5743" lon="3.10467">
        <ele>1362.8</ele>
        <time>2022-08-03T16:25:49Z</time>
      </trkpt>
      <trkpt lat="44.57432" lon="3.10462">
        <ele>1362.5</ele>
        <time>2022-08-03T16:25:52Z</time>
      </trkpt>
      <trkpt lat="44.57435" lon="3.10452">
        <ele>1361.9</ele>
        <time>2022-08-03T16:25:58Z</time>
      </trkpt>
      <trkpt lat="44.57436" lon="3.10447">
        <ele>1361.7</ele>
        <time>2022-08-03T16:26:01Z</time>
      </trkpt>
      <trkpt lat="44.57438" lon="3.10438">
        <ele>1361</ele>
        <time>2022-08-03T16:26:06Z</time>
      </trkpt>
      <trkpt lat="44.57438" lon="3.10436">
        <ele>1360.9</ele>
        <time>2022-08-03T16:26:07Z</time>
      </trkpt>
      <trkpt lat="44.57439" lon="3.10433">
        <ele>1360.5</ele>
        <time>2022-08-03T16:26:09Z</time>
      </trkpt>
      <trkpt lat="44.57443" lon="3.10422">
        <ele>1359.5</ele>
        <time>2022-08-03T16:26:16Z</time>
      </trkpt>
      <trkpt lat="44.57443" lon="3.1042">
        <ele>1359.4</ele>
        <time>2022-08-03T16:26:17Z</time>
      </trkpt>
      <trkpt lat="44.5745" lon="3.10396">
        <ele>1358.1</ele>
        <time>2022-08-03T16:26:31Z</time>
      </trkpt>
      <trkpt lat="44.57451" lon="3.10394">
        <ele>1358</ele>
        <time>2022-08-03T16:26:32Z</time>
      </trkpt>
      <trkpt lat="44.57457" lon="3.10372">
        <ele>1357.3</ele>
        <time>2022-08-03T16:26:45Z</time>
      </trkpt>
      <trkpt lat="44.57458" lon="3.1037">
        <ele>1357.2</ele>
        <time>2022-08-03T16:26:46Z</time>
      </trkpt>
      <trkpt lat="44.57465" lon="3.10348">
        <ele>1356</ele>
        <time>2022-08-03T16:27:00Z</time>
      </trkpt>
      <trkpt lat="44.57468" lon="3.10336">
        <ele>1355.4</ele>
        <time>2022-08-03T16:27:07Z</time>
      </trkpt>
      <trkpt lat="44.5747" lon="3.1033">
        <ele>1355</ele>
        <time>2022-08-03T16:27:11Z</time>
      </trkpt>
      <trkpt lat="44.57473" lon="3.1032">
        <ele>1354.5</ele>
        <time>2022-08-03T16:27:17Z</time>
      </trkpt>
      <trkpt lat="44.57475" lon="3.10312">
        <ele>1353.9</ele>
        <time>2022-08-03T16:27:22Z</time>
      </trkpt>
      <trkpt lat="44.57477" lon="3.10304">
        <ele>1353.4</ele>
        <time>2022-08-03T16:27:27Z</time>
      </trkpt>
      <trkpt lat="44.5748" lon="3.10291">
        <ele>1352.8</ele>
        <time>2022-08-03T16:27:35Z</time>
      </trkpt>
      <trkpt lat="44.57485" lon="3.10274">
        <ele>1351.8</ele>
        <time>2022-08-03T16:27:46Z</time>
      </trkpt>
      <trkpt lat="44.57491" lon="3.10259">
        <ele>1350.5</ele>
        <time>2022-08-03T16:27:57Z</time>
      </trkpt>
      <trkpt lat="44.57492" lon="3.10254">
        <ele>1350.2</ele>
        <time>2022-08-03T16:28:00Z</time>
      </trkpt>
      <trkpt lat="44.57494" lon="3.10249">
        <ele>1350</ele>
        <time>2022-08-03T16:28:03Z</time>
      </trkpt>
      <trkpt lat="44.57496" lon="3.10242">
        <ele>1349.4</ele>
        <time>2022-08-03T16:28:08Z</time>
      </trkpt>
      <trkpt lat="44.57496" lon="3.10241">
        <ele>1349.3</ele>
        <time>2022-08-03T16:28:09Z</time>
      </trkpt>
      <trkpt lat="44.57499" lon="3.10226">
        <ele>1348.3</ele>
        <time>2022-08-03T16:28:17Z</time>
      </trkpt>
      <trkpt lat="44.575" lon="3.10222">
        <ele>1347.9</ele>
        <time>2022-08-03T16:28:20Z</time>
      </trkpt>
      <trkpt lat="44.57502" lon="3.10211">
        <ele>1347.2</ele>
        <time>2022-08-03T16:28:26Z</time>
      </trkpt>
      <trkpt lat="44.57503" lon="3.10206">
        <ele>1346.8</ele>
        <time>2022-08-03T16:28:29Z</time>
      </trkpt>
      <trkpt lat="44.57507" lon="3.10197">
        <ele>1346.2</ele>
        <time>2022-08-03T16:28:35Z</time>
      </trkpt>
      <trkpt lat="44.57508" lon="3.1019">
        <ele>1345.6</ele>
        <time>2022-08-03T16:28:39Z</time>
      </trkpt>
      <trkpt lat="44.57512" lon="3.10177">
        <ele>1344.4</ele>
        <time>2022-08-03T16:28:47Z</time>
      </trkpt>
      <trkpt lat="44.57513" lon="3.10172">
        <ele>1344</ele>
        <time>2022-08-03T16:28:50Z</time>
      </trkpt>
      <trkpt lat="44.57515" lon="3.1016">
        <ele>1343.2</ele>
        <time>2022-08-03T16:28:57Z</time>
      </trkpt>
      <trkpt lat="44.57516" lon="3.10156">
        <ele>1343.1</ele>
        <time>2022-08-03T16:28:59Z</time>
      </trkpt>
      <trkpt lat="44.5752" lon="3.1014">
        <ele>1342.5</ele>
        <time>2022-08-03T16:29:09Z</time>
      </trkpt>
      <trkpt lat="44.57521" lon="3.10135">
        <ele>1342.2</ele>
        <time>2022-08-03T16:29:12Z</time>
      </trkpt>
      <trkpt lat="44.57523" lon="3.10124">
        <ele>1341.5</ele>
        <time>2022-08-03T16:29:19Z</time>
      </trkpt>
      <trkpt lat="44.57524" lon="3.10117">
        <ele>1341.1</ele>
        <time>2022-08-03T16:29:23Z</time>
      </trkpt>
      <trkpt lat="44.57525" lon="3.10109">
        <ele>1340.4</ele>
        <time>2022-08-03T16:29:28Z</time>
      </trkpt>
      <trkpt lat="44.57525" lon="3.10106">
        <ele>1340.1</ele>
        <time>2022-08-03T16:29:30Z</time>
      </trkpt>
      <trkpt lat="44.57527" lon="3.10099">
        <ele>1339.6</ele>
        <time>2022-08-03T16:29:35Z</time>
      </trkpt>
      <trkpt lat="44.57527" lon="3.10095">
        <ele>1339.2</ele>
        <time>2022-08-03T16:29:38Z</time>
      </trkpt>
      <trkpt lat="44.57528" lon="3.10092">
        <ele>1339</ele>
        <time>2022-08-03T16:29:40Z</time>
      </trkpt>
      <trkpt lat="44.5753" lon="3.10084">
        <ele>1338.2</ele>
        <time>2022-08-03T16:29:46Z</time>
      </trkpt>
      <trkpt lat="44.57531" lon="3.10083">
        <ele>1338</ele>
        <time>2022-08-03T16:29:47Z</time>
      </trkpt>
      <trkpt lat="44.57532" lon="3.10077">
        <ele>1337.1</ele>
        <time>2022-08-03T16:29:51Z</time>
      </trkpt>
      <trkpt lat="44.57534" lon="3.10071">
        <ele>1336.2</ele>
        <time>2022-08-03T16:29:55Z</time>
      </trkpt>
      <trkpt lat="44.57534" lon="3.10065">
        <ele>1335.2</ele>
        <time>2022-08-03T16:29:59Z</time>
      </trkpt>
      <trkpt lat="44.57535" lon="3.1006">
        <ele>1334.4</ele>
        <time>2022-08-03T16:30:03Z</time>
      </trkpt>
      <trkpt lat="44.57536" lon="3.10058">
        <ele>1334.1</ele>
        <time>2022-08-03T16:30:05Z</time>
      </trkpt>
      <trkpt lat="44.57535" lon="3.10057">
        <ele>1334</ele>
        <time>2022-08-03T16:30:07Z</time>
      </trkpt>
      <trkpt lat="44.57536" lon="3.10057">
        <ele>1334.1</ele>
        <time>2022-08-03T16:30:10Z</time>
      </trkpt>
      <trkpt lat="44.57536" lon="3.10059">
        <ele>1334.4</ele>
        <time>2022-08-03T16:30:18Z</time>
      </trkpt>
      <trkpt lat="44.57537" lon="3.10053">
        <ele>1333.6</ele>
        <time>2022-08-03T16:30:31Z</time>
      </trkpt>
      <trkpt lat="44.57538" lon="3.10049">
        <ele>1333.2</ele>
        <time>2022-08-03T16:30:33Z</time>
      </trkpt>
      <trkpt lat="44.57538" lon="3.10047">
        <ele>1332.9</ele>
        <time>2022-08-03T16:30:34Z</time>
      </trkpt>
      <trkpt lat="44.57538" lon="3.10044">
        <ele>1332.4</ele>
        <time>2022-08-03T16:30:36Z</time>
      </trkpt>
      <trkpt lat="44.57537" lon="3.10043">
        <ele>1332.3</ele>
        <time>2022-08-03T16:30:38Z</time>
      </trkpt>
      <trkpt lat="44.57538" lon="3.10038">
        <ele>1331.6</ele>
        <time>2022-08-03T16:30:47Z</time>
      </trkpt>
      <trkpt lat="44.57539" lon="3.10036">
        <ele>1331.4</ele>
        <time>2022-08-03T16:30:48Z</time>
      </trkpt>
      <trkpt lat="44.57542" lon="3.10024">
        <ele>1329.9</ele>
        <time>2022-08-03T16:30:56Z</time>
      </trkpt>
      <trkpt lat="44.57543" lon="3.10019">
        <ele>1329.3</ele>
        <time>2022-08-03T16:30:59Z</time>
      </trkpt>
      <trkpt lat="44.57546" lon="3.10011">
        <ele>1328.3</ele>
        <time>2022-08-03T16:31:04Z</time>
      </trkpt>
      <trkpt lat="44.57546" lon="3.10008">
        <ele>1327.9</ele>
        <time>2022-08-03T16:31:06Z</time>
      </trkpt>
      <trkpt lat="44.57548" lon="3.10001">
        <ele>1326.8</ele>
        <time>2022-08-03T16:31:11Z</time>
      </trkpt>
      <trkpt lat="44.57549" lon="3.09992">
        <ele>1325.9</ele>
        <time>2022-08-03T16:31:16Z</time>
      </trkpt>
      <trkpt lat="44.57549" lon="3.09988">
        <ele>1325.5</ele>
        <time>2022-08-03T16:31:18Z</time>
      </trkpt>
      <trkpt lat="44.57551" lon="3.09982">
        <ele>1324.8</ele>
        <time>2022-08-03T16:31:22Z</time>
      </trkpt>
      <trkpt lat="44.57552" lon="3.09975">
        <ele>1324.2</ele>
        <time>2022-08-03T16:31:26Z</time>
      </trkpt>
      <trkpt lat="44.57553" lon="3.09968">
        <ele>1323.5</ele>
        <time>2022-08-03T16:31:30Z</time>
      </trkpt>
      <trkpt lat="44.57555" lon="3.09958">
        <ele>1322.5</ele>
        <time>2022-08-03T16:31:36Z</time>
      </trkpt>
      <trkpt lat="44.57555" lon="3.09957">
        <ele>1322.3</ele>
        <time>2022-08-03T16:31:37Z</time>
      </trkpt>
      <trkpt lat="44.57556" lon="3.09956">
        <ele>1322.2</ele>
        <time>2022-08-03T16:31:40Z</time>
      </trkpt>
      <trkpt lat="44.57556" lon="3.09953">
        <ele>1321.8</ele>
        <time>2022-08-03T16:31:43Z</time>
      </trkpt>
      <trkpt lat="44.57557" lon="3.09942">
        <ele>1320.8</ele>
        <time>2022-08-03T16:31:50Z</time>
      </trkpt>
      <trkpt lat="44.57558" lon="3.09936">
        <ele>1320.2</ele>
        <time>2022-08-03T16:31:54Z</time>
      </trkpt>
      <trkpt lat="44.57559" lon="3.0993">
        <ele>1319.7</ele>
        <time>2022-08-03T16:31:58Z</time>
      </trkpt>
      <trkpt lat="44.5756" lon="3.09921">
        <ele>1318.9</ele>
        <time>2022-08-03T16:32:03Z</time>
      </trkpt>
      <trkpt lat="44.57563" lon="3.09911">
        <ele>1318</ele>
        <time>2022-08-03T16:32:11Z</time>
      </trkpt>
      <trkpt lat="44.57564" lon="3.09909">
        <ele>1317.9</ele>
        <time>2022-08-03T16:32:12Z</time>
      </trkpt>
      <trkpt lat="44.57566" lon="3.09898">
        <ele>1316.9</ele>
        <time>2022-08-03T16:32:18Z</time>
      </trkpt>
      <trkpt lat="44.57568" lon="3.09891">
        <ele>1316.2</ele>
        <time>2022-08-03T16:32:23Z</time>
      </trkpt>
      <trkpt lat="44.57572" lon="3.09875">
        <ele>1315</ele>
        <time>2022-08-03T16:32:33Z</time>
      </trkpt>
      <trkpt lat="44.57572" lon="3.09872">
        <ele>1314.8</ele>
        <time>2022-08-03T16:32:35Z</time>
      </trkpt>
      <trkpt lat="44.57573" lon="3.09864">
        <ele>1314.3</ele>
        <time>2022-08-03T16:32:40Z</time>
      </trkpt>
      <trkpt lat="44.57575" lon="3.09854">
        <ele>1313.9</ele>
        <time>2022-08-03T16:32:46Z</time>
      </trkpt>
      <trkpt lat="44.57579" lon="3.09846">
        <ele>1313.4</ele>
        <time>2022-08-03T16:32:52Z</time>
      </trkpt>
      <trkpt lat="44.5758" lon="3.09844">
        <ele>1313.4</ele>
        <time>2022-08-03T16:32:54Z</time>
      </trkpt>
      <trkpt lat="44.57583" lon="3.09837">
        <ele>1313.1</ele>
        <time>2022-08-03T16:33:02Z</time>
      </trkpt>
      <trkpt lat="44.57583" lon="3.09835">
        <ele>1313</ele>
        <time>2022-08-03T16:33:09Z</time>
      </trkpt>
      <trkpt lat="44.57583" lon="3.09834">
        <ele>1313</ele>
        <time>2022-08-03T16:33:20Z</time>
      </trkpt>
      <trkpt lat="44.57584" lon="3.09836">
        <ele>1313</ele>
        <time>2022-08-03T16:33:49Z</time>
      </trkpt>
      <trkpt lat="44.57585" lon="3.0983">
        <ele>1313.1</ele>
        <time>2022-08-03T16:34:23Z</time>
      </trkpt>
      <trkpt lat="44.57586" lon="3.09825">
        <ele>1313.2</ele>
        <time>2022-08-03T16:34:26Z</time>
      </trkpt>
      <trkpt lat="44.57586" lon="3.09823">
        <ele>1313.3</ele>
        <time>2022-08-03T16:34:30Z</time>
      </trkpt>
      <trkpt lat="44.57588" lon="3.09816">
        <ele>1313.6</ele>
        <time>2022-08-03T16:34:37Z</time>
      </trkpt>
      <trkpt lat="44.57591" lon="3.098">
        <ele>1314</ele>
        <time>2022-08-03T16:34:47Z</time>
      </trkpt>
      <trkpt lat="44.57593" lon="3.09781">
        <ele>1314</ele>
        <time>2022-08-03T16:34:58Z</time>
      </trkpt>
      <trkpt lat="44.57594" lon="3.09774">
        <ele>1314.1</ele>
        <time>2022-08-03T16:35:03Z</time>
      </trkpt>
      <trkpt lat="44.57594" lon="3.09766">
        <ele>1314.4</ele>
        <time>2022-08-03T16:35:08Z</time>
      </trkpt>
      <trkpt lat="44.57593" lon="3.09763">
        <ele>1314.6</ele>
        <time>2022-08-03T16:35:10Z</time>
      </trkpt>
      <trkpt lat="44.57592" lon="3.09749">
        <ele>1315</ele>
        <time>2022-08-03T16:35:18Z</time>
      </trkpt>
      <trkpt lat="44.57592" lon="3.0974">
        <ele>1315.1</ele>
        <time>2022-08-03T16:35:25Z</time>
      </trkpt>
      <trkpt lat="44.57592" lon="3.0974">
        <ele>1315.1</ele>
        <time>2022-08-03T16:35:26Z</time>
      </trkpt>
      <trkpt lat="44.57592" lon="3.0974">
        <ele>1315.1</ele>
        <time>2022-08-03T16:35:28Z</time>
      </trkpt>
      <trkpt lat="44.5759" lon="3.09733">
        <ele>1315.2</ele>
        <time>2022-08-03T16:35:33Z</time>
      </trkpt>
      <trkpt lat="44.5759" lon="3.09726">
        <ele>1315.2</ele>
        <time>2022-08-03T16:35:37Z</time>
      </trkpt>
      <trkpt lat="44.57592" lon="3.09724">
        <ele>1315.3</ele>
        <time>2022-08-03T16:35:40Z</time>
      </trkpt>
      <trkpt lat="44.57592" lon="3.09723">
        <ele>1315.3</ele>
        <time>2022-08-03T16:35:42Z</time>
      </trkpt>
      <trkpt lat="44.57593" lon="3.09721">
        <ele>1315.4</ele>
        <time>2022-08-03T16:35:44Z</time>
      </trkpt>
      <trkpt lat="44.57593" lon="3.09721">
        <ele>1315.4</ele>
        <time>2022-08-03T16:35:45Z</time>
      </trkpt>
      <trkpt lat="44.57592" lon="3.09724">
        <ele>1315.3</ele>
        <time>2022-08-03T16:35:51Z</time>
      </trkpt>
      <trkpt lat="44.57591" lon="3.09718">
        <ele>1315.4</ele>
        <time>2022-08-03T16:35:56Z</time>
      </trkpt>
      <trkpt lat="44.57591" lon="3.09704">
        <ele>1315.8</ele>
        <time>2022-08-03T16:36:04Z</time>
      </trkpt>
      <trkpt lat="44.57591" lon="3.097">
        <ele>1315.8</ele>
        <time>2022-08-03T16:36:06Z</time>
      </trkpt>
      <trkpt lat="44.57594" lon="3.09689">
        <ele>1316.1</ele>
        <time>2022-08-03T16:36:13Z</time>
      </trkpt>
      <trkpt lat="44.57597" lon="3.09679">
        <ele>1316.3</ele>
        <time>2022-08-03T16:36:19Z</time>
      </trkpt>
      <trkpt lat="44.57598" lon="3.09672">
        <ele>1316.4</ele>
        <time>2022-08-03T16:36:23Z</time>
      </trkpt>
      <trkpt lat="44.57601" lon="3.09654">
        <ele>1316.6</ele>
        <time>2022-08-03T16:36:34Z</time>
      </trkpt>
      <trkpt lat="44.576" lon="3.09639">
        <ele>1317</ele>
        <time>2022-08-03T16:36:43Z</time>
      </trkpt>
      <trkpt lat="44.57599" lon="3.09634">
        <ele>1317.1</ele>
        <time>2022-08-03T16:36:46Z</time>
      </trkpt>
      <trkpt lat="44.57597" lon="3.09622">
        <ele>1317.3</ele>
        <time>2022-08-03T16:36:53Z</time>
      </trkpt>
      <trkpt lat="44.57592" lon="3.09608">
        <ele>1317.7</ele>
        <time>2022-08-03T16:37:02Z</time>
      </trkpt>
      <trkpt lat="44.57592" lon="3.09607">
        <ele>1317.7</ele>
        <time>2022-08-03T16:37:03Z</time>
      </trkpt>
      <trkpt lat="44.57589" lon="3.09598">
        <ele>1317.9</ele>
        <time>2022-08-03T16:37:09Z</time>
      </trkpt>
      <trkpt lat="44.57589" lon="3.09598">
        <ele>1317.9</ele>
        <time>2022-08-03T16:37:11Z</time>
      </trkpt>
      <trkpt lat="44.57589" lon="3.09598">
        <ele>1317.9</ele>
        <time>2022-08-03T16:37:12Z</time>
      </trkpt>
      <trkpt lat="44.57587" lon="3.09591">
        <ele>1318</ele>
        <time>2022-08-03T16:37:18Z</time>
      </trkpt>
      <trkpt lat="44.57584" lon="3.09575">
        <ele>1318.3</ele>
        <time>2022-08-03T16:37:27Z</time>
      </trkpt>
      <trkpt lat="44.57582" lon="3.09558">
        <ele>1318.9</ele>
        <time>2022-08-03T16:37:37Z</time>
      </trkpt>
      <trkpt lat="44.57582" lon="3.09554">
        <ele>1319</ele>
        <time>2022-08-03T16:37:39Z</time>
      </trkpt>
      <trkpt lat="44.57581" lon="3.09543">
        <ele>1319.4</ele>
        <time>2022-08-03T16:37:45Z</time>
      </trkpt>
      <trkpt lat="44.57582" lon="3.09537">
        <ele>1319.6</ele>
        <time>2022-08-03T16:37:49Z</time>
      </trkpt>
      <trkpt lat="44.57583" lon="3.09522">
        <ele>1320.4</ele>
        <time>2022-08-03T16:38:00Z</time>
      </trkpt>
      <trkpt lat="44.57583" lon="3.0952">
        <ele>1320.5</ele>
        <time>2022-08-03T16:38:01Z</time>
      </trkpt>
      <trkpt lat="44.57584" lon="3.09519">
        <ele>1320.6</ele>
        <time>2022-08-03T16:38:04Z</time>
      </trkpt>
      <trkpt lat="44.57584" lon="3.09519">
        <ele>1320.7</ele>
        <time>2022-08-03T16:38:07Z</time>
      </trkpt>
      <trkpt lat="44.57584" lon="3.09517">
        <ele>1320.8</ele>
        <time>2022-08-03T16:38:15Z</time>
      </trkpt>
      <trkpt lat="44.57583" lon="3.09514">
        <ele>1321</ele>
        <time>2022-08-03T16:38:22Z</time>
      </trkpt>
      <trkpt lat="44.57583" lon="3.09504">
        <ele>1321.7</ele>
        <time>2022-08-03T16:38:28Z</time>
      </trkpt>
      <trkpt lat="44.57583" lon="3.095">
        <ele>1321.9</ele>
        <time>2022-08-03T16:38:30Z</time>
      </trkpt>
      <trkpt lat="44.57582" lon="3.09494">
        <ele>1322.3</ele>
        <time>2022-08-03T16:38:34Z</time>
      </trkpt>
      <trkpt lat="44.57581" lon="3.09483">
        <ele>1323</ele>
        <time>2022-08-03T16:38:41Z</time>
      </trkpt>
      <trkpt lat="44.57581" lon="3.09476">
        <ele>1323.5</ele>
        <time>2022-08-03T16:38:45Z</time>
      </trkpt>
      <trkpt lat="44.57581" lon="3.09473">
        <ele>1323.8</ele>
        <time>2022-08-03T16:38:48Z</time>
      </trkpt>
      <trkpt lat="44.57582" lon="3.09472">
        <ele>1323.8</ele>
        <time>2022-08-03T16:38:49Z</time>
      </trkpt>
      <trkpt lat="44.57582" lon="3.09472">
        <ele>1323.9</ele>
        <time>2022-08-03T16:38:50Z</time>
      </trkpt>
      <trkpt lat="44.57582" lon="3.09472">
        <ele>1323.9</ele>
        <time>2022-08-03T16:38:51Z</time>
      </trkpt>
      <trkpt lat="44.57581" lon="3.09465">
        <ele>1324</ele>
        <time>2022-08-03T16:38:58Z</time>
      </trkpt>
      <trkpt lat="44.57582" lon="3.09458">
        <ele>1324.4</ele>
        <time>2022-08-03T16:39:02Z</time>
      </trkpt>
      <trkpt lat="44.57584" lon="3.09451">
        <ele>1324.8</ele>
        <time>2022-08-03T16:39:07Z</time>
      </trkpt>
      <trkpt lat="44.57585" lon="3.09445">
        <ele>1325.1</ele>
        <time>2022-08-03T16:39:11Z</time>
      </trkpt>
      <trkpt lat="44.57587" lon="3.09435">
        <ele>1325.5</ele>
        <time>2022-08-03T16:39:17Z</time>
      </trkpt>
      <trkpt lat="44.57588" lon="3.09431">
        <ele>1325.6</ele>
        <time>2022-08-03T16:39:20Z</time>
      </trkpt>
      <trkpt lat="44.5759" lon="3.09424">
        <ele>1326</ele>
        <time>2022-08-03T16:39:25Z</time>
      </trkpt>
      <trkpt lat="44.57593" lon="3.09418">
        <ele>1326.3</ele>
        <time>2022-08-03T16:39:30Z</time>
      </trkpt>
      <trkpt lat="44.57595" lon="3.09414">
        <ele>1326.6</ele>
        <time>2022-08-03T16:39:33Z</time>
      </trkpt>
      <trkpt lat="44.57598" lon="3.09407">
        <ele>1327</ele>
        <time>2022-08-03T16:39:38Z</time>
      </trkpt>
      <trkpt lat="44.57601" lon="3.09402">
        <ele>1327.5</ele>
        <time>2022-08-03T16:39:42Z</time>
      </trkpt>
      <trkpt lat="44.57604" lon="3.0939">
        <ele>1328.4</ele>
        <time>2022-08-03T16:39:50Z</time>
      </trkpt>
      <trkpt lat="44.57606" lon="3.09388">
        <ele>1328.7</ele>
        <time>2022-08-03T16:39:52Z</time>
      </trkpt>
      <trkpt lat="44.57614" lon="3.09385">
        <ele>1329.4</ele>
        <time>2022-08-03T16:39:59Z</time>
      </trkpt>
      <trkpt lat="44.57615" lon="3.09384">
        <ele>1329.4</ele>
        <time>2022-08-03T16:40:01Z</time>
      </trkpt>
      <trkpt lat="44.57619" lon="3.0938">
        <ele>1329.8</ele>
        <time>2022-08-03T16:40:05Z</time>
      </trkpt>
      <trkpt lat="44.57621" lon="3.09378">
        <ele>1330</ele>
        <time>2022-08-03T16:40:07Z</time>
      </trkpt>
      <trkpt lat="44.57622" lon="3.09375">
        <ele>1330.2</ele>
        <time>2022-08-03T16:40:09Z</time>
      </trkpt>
      <trkpt lat="44.57622" lon="3.09374">
        <ele>1330.3</ele>
        <time>2022-08-03T16:40:10Z</time>
      </trkpt>
      <trkpt lat="44.57623" lon="3.09371">
        <ele>1330.5</ele>
        <time>2022-08-03T16:40:12Z</time>
      </trkpt>
      <trkpt lat="44.57623" lon="3.09369">
        <ele>1330.5</ele>
        <time>2022-08-03T16:40:13Z</time>
      </trkpt>
      <trkpt lat="44.57627" lon="3.09365">
        <ele>1330.8</ele>
        <time>2022-08-03T16:40:19Z</time>
      </trkpt>
      <trkpt lat="44.57628" lon="3.09365">
        <ele>1330.8</ele>
        <time>2022-08-03T16:40:22Z</time>
      </trkpt>
      <trkpt lat="44.57628" lon="3.09366">
        <ele>1330.8</ele>
        <time>2022-08-03T16:40:25Z</time>
      </trkpt>
      <trkpt lat="44.5763" lon="3.09363">
        <ele>1330.9</ele>
        <time>2022-08-03T16:40:30Z</time>
      </trkpt>
      <trkpt lat="44.57631" lon="3.09363">
        <ele>1330.9</ele>
        <time>2022-08-03T16:40:31Z</time>
      </trkpt>
      <trkpt lat="44.57632" lon="3.09362">
        <ele>1330.9</ele>
        <time>2022-08-03T16:40:38Z</time>
      </trkpt>
      <trkpt lat="44.57631" lon="3.09362">
        <ele>1331</ele>
        <time>2022-08-03T16:40:49Z</time>
      </trkpt>
      <trkpt lat="44.57631" lon="3.09362">
        <ele>1331</ele>
        <time>2022-08-03T16:40:53Z</time>
      </trkpt>
      <trkpt lat="44.57633" lon="3.09362">
        <ele>1330.9</ele>
        <time>2022-08-03T16:41:13Z</time>
      </trkpt>
      <trkpt lat="44.57614" lon="3.09274">
        <ele>1336</ele>
        <time>2022-08-04T07:28:26Z</time>
      </trkpt>
      <trkpt lat="44.57612" lon="3.09256">
        <ele>1337.5</ele>
        <time>2022-08-04T07:28:28Z</time>
      </trkpt>
      <trkpt lat="44.57612" lon="3.09246">
        <ele>1338.6</ele>
        <time>2022-08-04T07:28:36Z</time>
      </trkpt>
      <trkpt lat="44.57611" lon="3.09242">
        <ele>1338.8</ele>
        <time>2022-08-04T07:28:38Z</time>
      </trkpt>
      <trkpt lat="44.57611" lon="3.0924">
        <ele>1339.1</ele>
        <time>2022-08-04T07:28:39Z</time>
      </trkpt>
      <trkpt lat="44.57614" lon="3.09234">
        <ele>1340.1</ele>
        <time>2022-08-04T07:28:46Z</time>
      </trkpt>
      <trkpt lat="44.57614" lon="3.09233">
        <ele>1340.1</ele>
        <time>2022-08-04T07:28:47Z</time>
      </trkpt>
      <trkpt lat="44.57614" lon="3.09234">
        <ele>1340</ele>
        <time>2022-08-04T07:29:07Z</time>
      </trkpt>
      <trkpt lat="44.57613" lon="3.09234">
        <ele>1339.9</ele>
        <time>2022-08-04T07:30:17Z</time>
      </trkpt>
      <trkpt lat="44.57618" lon="3.09228">
        <ele>1341</ele>
        <time>2022-08-04T07:30:26Z</time>
      </trkpt>
      <trkpt lat="44.5762" lon="3.09224">
        <ele>1341.5</ele>
        <time>2022-08-04T07:30:29Z</time>
      </trkpt>
      <trkpt lat="44.57621" lon="3.09219">
        <ele>1342.2</ele>
        <time>2022-08-04T07:30:32Z</time>
      </trkpt>
      <trkpt lat="44.57625" lon="3.09212">
        <ele>1343.4</ele>
        <time>2022-08-04T07:30:38Z</time>
      </trkpt>
      <trkpt lat="44.57626" lon="3.09211">
        <ele>1343.7</ele>
        <time>2022-08-04T07:30:40Z</time>
      </trkpt>
      <trkpt lat="44.57626" lon="3.0921">
        <ele>1343.9</ele>
        <time>2022-08-04T07:30:41Z</time>
      </trkpt>
      <trkpt lat="44.57628" lon="3.09204">
        <ele>1344.8</ele>
        <time>2022-08-04T07:30:47Z</time>
      </trkpt>
      <trkpt lat="44.57628" lon="3.09198">
        <ele>1345.5</ele>
        <time>2022-08-04T07:30:52Z</time>
      </trkpt>
      <trkpt lat="44.57628" lon="3.09197">
        <ele>1345.7</ele>
        <time>2022-08-04T07:30:53Z</time>
      </trkpt>
      <trkpt lat="44.57628" lon="3.09194">
        <ele>1346</ele>
        <time>2022-08-04T07:30:56Z</time>
      </trkpt>
      <trkpt lat="44.57627" lon="3.09194">
        <ele>1346</ele>
        <time>2022-08-04T07:30:58Z</time>
      </trkpt>
      <trkpt lat="44.57627" lon="3.09193">
        <ele>1346</ele>
        <time>2022-08-04T07:31:00Z</time>
      </trkpt>
      <trkpt lat="44.57628" lon="3.09192">
        <ele>1346</ele>
        <time>2022-08-04T07:31:04Z</time>
      </trkpt>
      <trkpt lat="44.57773" lon="3.09001">
        <ele>1367.3</ele>
        <time>2022-08-04T07:36:24Z</time>
      </trkpt>
      <trkpt lat="44.57774" lon="3.09">
        <ele>1367.4</ele>
        <time>2022-08-04T07:36:38Z</time>
      </trkpt>
      <trkpt lat="44.57779" lon="3.08997">
        <ele>1367.7</ele>
        <time>2022-08-04T07:36:42Z</time>
      </trkpt>
      <trkpt lat="44.57791" lon="3.08987">
        <ele>1368.6</ele>
        <time>2022-08-04T07:36:53Z</time>
      </trkpt>
      <trkpt lat="44.57795" lon="3.08983">
        <ele>1369</ele>
        <time>2022-08-04T07:36:58Z</time>
      </trkpt>
      <trkpt lat="44.578" lon="3.08978">
        <ele>1369.5</ele>
        <time>2022-08-04T07:37:03Z</time>
      </trkpt>
      <trkpt lat="44.578" lon="3.08977">
        <ele>1369.7</ele>
        <time>2022-08-04T07:37:04Z</time>
      </trkpt>
      <trkpt lat="44.57807" lon="3.08965">
        <ele>1370.8</ele>
        <time>2022-08-04T07:37:14Z</time>
      </trkpt>
      <trkpt lat="44.57809" lon="3.08961">
        <ele>1371.1</ele>
        <time>2022-08-04T07:37:17Z</time>
      </trkpt>
      <trkpt lat="44.57812" lon="3.08955">
        <ele>1371.6</ele>
        <time>2022-08-04T07:37:22Z</time>
      </trkpt>
      <trkpt lat="44.57815" lon="3.08948">
        <ele>1372.1</ele>
        <time>2022-08-04T07:37:27Z</time>
      </trkpt>
      <trkpt lat="44.57819" lon="3.08939">
        <ele>1372.7</ele>
        <time>2022-08-04T07:37:33Z</time>
      </trkpt>
      <trkpt lat="44.57821" lon="3.08932">
        <ele>1373.2</ele>
        <time>2022-08-04T07:37:38Z</time>
      </trkpt>
      <trkpt lat="44.57825" lon="3.08916">
        <ele>1374.3</ele>
        <time>2022-08-04T07:37:49Z</time>
      </trkpt>
      <trkpt lat="44.5783" lon="3.089">
        <ele>1375.4</ele>
        <time>2022-08-04T07:37:59Z</time>
      </trkpt>
      <trkpt lat="44.57831" lon="3.08897">
        <ele>1375.5</ele>
        <time>2022-08-04T07:38:01Z</time>
      </trkpt>
      <trkpt lat="44.57834" lon="3.08881">
        <ele>1376.5</ele>
        <time>2022-08-04T07:38:11Z</time>
      </trkpt>
      <trkpt lat="44.57835" lon="3.08878">
        <ele>1376.7</ele>
        <time>2022-08-04T07:38:13Z</time>
      </trkpt>
      <trkpt lat="44.57838" lon="3.08864">
        <ele>1377.3</ele>
        <time>2022-08-04T07:38:22Z</time>
      </trkpt>
      <trkpt lat="44.57842" lon="3.08851">
        <ele>1378.1</ele>
        <time>2022-08-04T07:38:31Z</time>
      </trkpt>
      <trkpt lat="44.57843" lon="3.08848">
        <ele>1378.2</ele>
        <time>2022-08-04T07:38:33Z</time>
      </trkpt>
      <trkpt lat="44.57847" lon="3.08833">
        <ele>1379</ele>
        <time>2022-08-04T07:38:44Z</time>
      </trkpt>
      <trkpt lat="44.57848" lon="3.08831">
        <ele>1379.3</ele>
        <time>2022-08-04T07:38:46Z</time>
      </trkpt>
      <trkpt lat="44.57851" lon="3.08819">
        <ele>1380.4</ele>
        <time>2022-08-04T07:38:55Z</time>
      </trkpt>
      <trkpt lat="44.57852" lon="3.08815">
        <ele>1380.8</ele>
        <time>2022-08-04T07:38:58Z</time>
      </trkpt>
      <trkpt lat="44.57855" lon="3.08806">
        <ele>1381.6</ele>
        <time>2022-08-04T07:39:04Z</time>
      </trkpt>
      <trkpt lat="44.57857" lon="3.08801">
        <ele>1381.8</ele>
        <time>2022-08-04T07:39:08Z</time>
      </trkpt>
      <trkpt lat="44.57861" lon="3.08787">
        <ele>1382.3</ele>
        <time>2022-08-04T07:39:17Z</time>
      </trkpt>
      <trkpt lat="44.57862" lon="3.08785">
        <ele>1382.4</ele>
        <time>2022-08-04T07:39:18Z</time>
      </trkpt>
      <trkpt lat="44.57866" lon="3.08772">
        <ele>1383.1</ele>
        <time>2022-08-04T07:39:28Z</time>
      </trkpt>
      <trkpt lat="44.57866" lon="3.08769">
        <ele>1383.4</ele>
        <time>2022-08-04T07:39:30Z</time>
      </trkpt>
      <trkpt lat="44.57872" lon="3.08753">
        <ele>1384.5</ele>
        <time>2022-08-04T07:39:42Z</time>
      </trkpt>
      <trkpt lat="44.57877" lon="3.08736">
        <ele>1385.3</ele>
        <time>2022-08-04T07:39:54Z</time>
      </trkpt>
      <trkpt lat="44.5788" lon="3.08723">
        <ele>1385.9</ele>
        <time>2022-08-04T07:40:03Z</time>
      </trkpt>
      <trkpt lat="44.57886" lon="3.08707">
        <ele>1386.4</ele>
        <time>2022-08-04T07:40:14Z</time>
      </trkpt>
      <trkpt lat="44.57887" lon="3.087">
        <ele>1386.8</ele>
        <time>2022-08-04T07:40:18Z</time>
      </trkpt>
      <trkpt lat="44.57888" lon="3.08689">
        <ele>1387.3</ele>
        <time>2022-08-04T07:40:25Z</time>
      </trkpt>
      <trkpt lat="44.57887" lon="3.08684">
        <ele>1387.5</ele>
        <time>2022-08-04T07:40:32Z</time>
      </trkpt>
      <trkpt lat="44.57888" lon="3.08687">
        <ele>1387.3</ele>
        <time>2022-08-04T07:40:38Z</time>
      </trkpt>
      <trkpt lat="44.57887" lon="3.08685">
        <ele>1387.5</ele>
        <time>2022-08-04T07:40:57Z</time>
      </trkpt>
      <trkpt lat="44.57885" lon="3.08682">
        <ele>1387.8</ele>
        <time>2022-08-04T07:41:13Z</time>
      </trkpt>
      <trkpt lat="44.57885" lon="3.08681">
        <ele>1387.9</ele>
        <time>2022-08-04T07:41:20Z</time>
      </trkpt>
      <trkpt lat="44.57882" lon="3.08675">
        <ele>1388.3</ele>
        <time>2022-08-04T07:41:23Z</time>
      </trkpt>
      <trkpt lat="44.57874" lon="3.08655">
        <ele>1389.3</ele>
        <time>2022-08-04T07:41:34Z</time>
      </trkpt>
      <trkpt lat="44.57873" lon="3.0865">
        <ele>1389.4</ele>
        <time>2022-08-04T07:41:37Z</time>
      </trkpt>
      <trkpt lat="44.57868" lon="3.0864">
        <ele>1389.7</ele>
        <time>2022-08-04T07:41:44Z</time>
      </trkpt>
      <trkpt lat="44.57867" lon="3.08627">
        <ele>1390.1</ele>
        <time>2022-08-04T07:41:52Z</time>
      </trkpt>
      <trkpt lat="44.57865" lon="3.08616">
        <ele>1390.6</ele>
        <time>2022-08-04T07:41:59Z</time>
      </trkpt>
      <trkpt lat="44.57865" lon="3.08614">
        <ele>1390.6</ele>
        <time>2022-08-04T07:42:00Z</time>
      </trkpt>
      <trkpt lat="44.5786" lon="3.08599">
        <ele>1391.1</ele>
        <time>2022-08-04T07:42:10Z</time>
      </trkpt>
      <trkpt lat="44.57859" lon="3.08592">
        <ele>1391.2</ele>
        <time>2022-08-04T07:42:18Z</time>
      </trkpt>
      <trkpt lat="44.57858" lon="3.08591">
        <ele>1391.2</ele>
        <time>2022-08-04T07:42:19Z</time>
      </trkpt>
      <trkpt lat="44.57857" lon="3.08585">
        <ele>1391.3</ele>
        <time>2022-08-04T07:42:25Z</time>
      </trkpt>
      <trkpt lat="44.57856" lon="3.08584">
        <ele>1391.3</ele>
        <time>2022-08-04T07:42:26Z</time>
      </trkpt>
      <trkpt lat="44.57853" lon="3.08576">
        <ele>1391.3</ele>
        <time>2022-08-04T07:42:32Z</time>
      </trkpt>
      <trkpt lat="44.5785" lon="3.08562">
        <ele>1391.1</ele>
        <time>2022-08-04T07:42:40Z</time>
      </trkpt>
      <trkpt lat="44.57844" lon="3.08541">
        <ele>1391.3</ele>
        <time>2022-08-04T07:42:53Z</time>
      </trkpt>
      <trkpt lat="44.57842" lon="3.08535">
        <ele>1391.4</ele>
        <time>2022-08-04T07:42:57Z</time>
      </trkpt>
      <trkpt lat="44.57838" lon="3.08524">
        <ele>1391.6</ele>
        <time>2022-08-04T07:43:04Z</time>
      </trkpt>
      <trkpt lat="44.57833" lon="3.08506">
        <ele>1392</ele>
        <time>2022-08-04T07:43:16Z</time>
      </trkpt>
      <trkpt lat="44.57829" lon="3.08493">
        <ele>1392.1</ele>
        <time>2022-08-04T07:43:24Z</time>
      </trkpt>
      <trkpt lat="44.57825" lon="3.08479">
        <ele>1392.1</ele>
        <time>2022-08-04T07:43:33Z</time>
      </trkpt>
      <trkpt lat="44.57825" lon="3.08478">
        <ele>1392.1</ele>
        <time>2022-08-04T07:43:34Z</time>
      </trkpt>
      <trkpt lat="44.5782" lon="3.08462">
        <ele>1392.2</ele>
        <time>2022-08-04T07:43:44Z</time>
      </trkpt>
      <trkpt lat="44.57816" lon="3.08447">
        <ele>1392.3</ele>
        <time>2022-08-04T07:43:53Z</time>
      </trkpt>
      <trkpt lat="44.57813" lon="3.08434">
        <ele>1392.5</ele>
        <time>2022-08-04T07:44:02Z</time>
      </trkpt>
      <trkpt lat="44.57807" lon="3.08417">
        <ele>1392.9</ele>
        <time>2022-08-04T07:44:13Z</time>
      </trkpt>
      <trkpt lat="44.57803" lon="3.08399">
        <ele>1393.8</ele>
        <time>2022-08-04T07:44:24Z</time>
      </trkpt>
      <trkpt lat="44.57802" lon="3.08389">
        <ele>1394.2</ele>
        <time>2022-08-04T07:44:30Z</time>
      </trkpt>
      <trkpt lat="44.57801" lon="3.08379">
        <ele>1394.3</ele>
        <time>2022-08-04T07:44:36Z</time>
      </trkpt>
      <trkpt lat="44.57801" lon="3.08379">
        <ele>1394.3</ele>
        <time>2022-08-04T07:44:41Z</time>
      </trkpt>
      <trkpt lat="44.578" lon="3.08376">
        <ele>1394.4</ele>
        <time>2022-08-04T07:44:44Z</time>
      </trkpt>
      <trkpt lat="44.57798" lon="3.0837">
        <ele>1394.6</ele>
        <time>2022-08-04T07:44:47Z</time>
      </trkpt>
      <trkpt lat="44.57793" lon="3.08357">
        <ele>1394.9</ele>
        <time>2022-08-04T07:44:55Z</time>
      </trkpt>
      <trkpt lat="44.57786" lon="3.08347">
        <ele>1395.4</ele>
        <time>2022-08-04T07:45:03Z</time>
      </trkpt>
      <trkpt lat="44.57784" lon="3.08346">
        <ele>1395.6</ele>
        <time>2022-08-04T07:45:05Z</time>
      </trkpt>
      <trkpt lat="44.57778" lon="3.08335">
        <ele>1396</ele>
        <time>2022-08-04T07:45:13Z</time>
      </trkpt>
      <trkpt lat="44.57768" lon="3.08318">
        <ele>1396.7</ele>
        <time>2022-08-04T07:45:26Z</time>
      </trkpt>
      <trkpt lat="44.57764" lon="3.08304">
        <ele>1397</ele>
        <time>2022-08-04T07:45:37Z</time>
      </trkpt>
      <trkpt lat="44.57764" lon="3.083">
        <ele>1397.1</ele>
        <time>2022-08-04T07:45:43Z</time>
      </trkpt>
      <trkpt lat="44.57765" lon="3.08297">
        <ele>1397.1</ele>
        <time>2022-08-04T07:45:48Z</time>
      </trkpt>
      <trkpt lat="44.57764" lon="3.08296">
        <ele>1397.1</ele>
        <time>2022-08-04T07:45:50Z</time>
      </trkpt>
      <trkpt lat="44.57764" lon="3.08294">
        <ele>1397.2</ele>
        <time>2022-08-04T07:45:57Z</time>
      </trkpt>
      <trkpt lat="44.57763" lon="3.08294">
        <ele>1397.3</ele>
        <time>2022-08-04T07:45:58Z</time>
      </trkpt>
      <trkpt lat="44.57763" lon="3.08292">
        <ele>1397.3</ele>
        <time>2022-08-04T07:46:02Z</time>
      </trkpt>
      <trkpt lat="44.57763" lon="3.08292">
        <ele>1397.3</ele>
        <time>2022-08-04T07:46:11Z</time>
      </trkpt>
      <trkpt lat="44.57762" lon="3.08287">
        <ele>1397.5</ele>
        <time>2022-08-04T07:46:13Z</time>
      </trkpt>
      <trkpt lat="44.57759" lon="3.08271">
        <ele>1398.1</ele>
        <time>2022-08-04T07:46:20Z</time>
      </trkpt>
      <trkpt lat="44.57756" lon="3.08256">
        <ele>1398.3</ele>
        <time>2022-08-04T07:46:29Z</time>
      </trkpt>
      <trkpt lat="44.57755" lon="3.08254">
        <ele>1398.4</ele>
        <time>2022-08-04T07:46:31Z</time>
      </trkpt>
      <trkpt lat="44.57753" lon="3.08245">
        <ele>1398.6</ele>
        <time>2022-08-04T07:46:37Z</time>
      </trkpt>
      <trkpt lat="44.57751" lon="3.08236">
        <ele>1398.9</ele>
        <time>2022-08-04T07:46:43Z</time>
      </trkpt>
      <trkpt lat="44.5775" lon="3.08235">
        <ele>1399</ele>
        <time>2022-08-04T07:46:44Z</time>
      </trkpt>
      <trkpt lat="44.57748" lon="3.08226">
        <ele>1399.2</ele>
        <time>2022-08-04T07:46:50Z</time>
      </trkpt>
      <trkpt lat="44.57748" lon="3.08222">
        <ele>1399.4</ele>
        <time>2022-08-04T07:46:56Z</time>
      </trkpt>
      <trkpt lat="44.57747" lon="3.0822">
        <ele>1399.5</ele>
        <time>2022-08-04T07:47:00Z</time>
      </trkpt>
      <trkpt lat="44.57745" lon="3.08216">
        <ele>1399.9</ele>
        <time>2022-08-04T07:47:03Z</time>
      </trkpt>
      <trkpt lat="44.57744" lon="3.08212">
        <ele>1400.3</ele>
        <time>2022-08-04T07:47:06Z</time>
      </trkpt>
      <trkpt lat="44.5774" lon="3.08205">
        <ele>1401</ele>
        <time>2022-08-04T07:47:11Z</time>
      </trkpt>
      <trkpt lat="44.5774" lon="3.082">
        <ele>1401.3</ele>
        <time>2022-08-04T07:47:17Z</time>
      </trkpt>
      <trkpt lat="44.57739" lon="3.082">
        <ele>1401.3</ele>
        <time>2022-08-04T07:47:18Z</time>
      </trkpt>
      <trkpt lat="44.57737" lon="3.082">
        <ele>1401.7</ele>
        <time>2022-08-04T07:47:26Z</time>
      </trkpt>
      <trkpt lat="44.57733" lon="3.08195">
        <ele>1402.5</ele>
        <time>2022-08-04T07:47:32Z</time>
      </trkpt>
      <trkpt lat="44.57731" lon="3.08193">
        <ele>1402.8</ele>
        <time>2022-08-04T07:47:34Z</time>
      </trkpt>
      <trkpt lat="44.57724" lon="3.08181">
        <ele>1403.8</ele>
        <time>2022-08-04T07:47:44Z</time>
      </trkpt>
      <trkpt lat="44.57721" lon="3.08176">
        <ele>1404.2</ele>
        <time>2022-08-04T07:47:48Z</time>
      </trkpt>
      <trkpt lat="44.5772" lon="3.08173">
        <ele>1404.3</ele>
        <time>2022-08-04T07:47:50Z</time>
      </trkpt>
      <trkpt lat="44.57719" lon="3.08172">
        <ele>1404.5</ele>
        <time>2022-08-04T07:47:52Z</time>
      </trkpt>
      <trkpt lat="44.57717" lon="3.0817">
        <ele>1404.7</ele>
        <time>2022-08-04T07:47:55Z</time>
      </trkpt>
      <trkpt lat="44.57712" lon="3.08163">
        <ele>1405.6</ele>
        <time>2022-08-04T07:48:01Z</time>
      </trkpt>
      <trkpt lat="44.5771" lon="3.08157">
        <ele>1406.3</ele>
        <time>2022-08-04T07:48:05Z</time>
      </trkpt>
      <trkpt lat="44.5771" lon="3.08156">
        <ele>1406.4</ele>
        <time>2022-08-04T07:48:06Z</time>
      </trkpt>
      <trkpt lat="44.57708" lon="3.08142">
        <ele>1407.3</ele>
        <time>2022-08-04T07:48:15Z</time>
      </trkpt>
      <trkpt lat="44.57709" lon="3.0814">
        <ele>1407.3</ele>
        <time>2022-08-04T07:48:16Z</time>
      </trkpt>
      <trkpt lat="44.57712" lon="3.08127">
        <ele>1407.3</ele>
        <time>2022-08-04T07:48:25Z</time>
      </trkpt>
      <trkpt lat="44.57712" lon="3.08127">
        <ele>1407.3</ele>
        <time>2022-08-04T07:48:26Z</time>
      </trkpt>
      <trkpt lat="44.57712" lon="3.08126">
        <ele>1407.3</ele>
        <time>2022-08-04T07:48:30Z</time>
      </trkpt>
      <trkpt lat="44.57713" lon="3.08122">
        <ele>1407.3</ele>
        <time>2022-08-04T07:48:33Z</time>
      </trkpt>
      <trkpt lat="44.57714" lon="3.08118">
        <ele>1407.3</ele>
        <time>2022-08-04T07:48:36Z</time>
      </trkpt>
      <trkpt lat="44.57717" lon="3.08103">
        <ele>1407.2</ele>
        <time>2022-08-04T07:48:45Z</time>
      </trkpt>
      <trkpt lat="44.5772" lon="3.08093">
        <ele>1407.1</ele>
        <time>2022-08-04T07:48:53Z</time>
      </trkpt>
      <trkpt lat="44.5772" lon="3.08091">
        <ele>1407.1</ele>
        <time>2022-08-04T07:48:54Z</time>
      </trkpt>
      <trkpt lat="44.57719" lon="3.08077">
        <ele>1407.5</ele>
        <time>2022-08-04T07:49:02Z</time>
      </trkpt>
      <trkpt lat="44.57718" lon="3.08062">
        <ele>1407.8</ele>
        <time>2022-08-04T07:49:11Z</time>
      </trkpt>
      <trkpt lat="44.57717" lon="3.08047">
        <ele>1408</ele>
        <time>2022-08-04T07:49:21Z</time>
      </trkpt>
      <trkpt lat="44.57715" lon="3.0803">
        <ele>1408.1</ele>
        <time>2022-08-04T07:49:31Z</time>
      </trkpt>
      <trkpt lat="44.57714" lon="3.08016">
        <ele>1408.2</ele>
        <time>2022-08-04T07:49:41Z</time>
      </trkpt>
      <trkpt lat="44.57714" lon="3.08015">
        <ele>1408.2</ele>
        <time>2022-08-04T07:49:42Z</time>
      </trkpt>
      <trkpt lat="44.57713" lon="3.08012">
        <ele>1408.3</ele>
        <time>2022-08-04T07:49:44Z</time>
      </trkpt>
      <trkpt lat="44.57712" lon="3.08002">
        <ele>1408.5</ele>
        <time>2022-08-04T07:49:50Z</time>
      </trkpt>
      <trkpt lat="44.57709" lon="3.07986">
        <ele>1408.8</ele>
        <time>2022-08-04T07:49:59Z</time>
      </trkpt>
      <trkpt lat="44.57708" lon="3.07969">
        <ele>1409</ele>
        <time>2022-08-04T07:50:09Z</time>
      </trkpt>
      <trkpt lat="44.57706" lon="3.07955">
        <ele>1409.3</ele>
        <time>2022-08-04T07:50:17Z</time>
      </trkpt>
      <trkpt lat="44.57703" lon="3.07933">
        <ele>1409.3</ele>
        <time>2022-08-04T07:50:30Z</time>
      </trkpt>
      <trkpt lat="44.57702" lon="3.0792">
        <ele>1409.1</ele>
        <time>2022-08-04T07:50:38Z</time>
      </trkpt>
      <trkpt lat="44.577" lon="3.07904">
        <ele>1409.2</ele>
        <time>2022-08-04T07:50:47Z</time>
      </trkpt>
      <trkpt lat="44.57699" lon="3.07889">
        <ele>1409.3</ele>
        <time>2022-08-04T07:50:56Z</time>
      </trkpt>
      <trkpt lat="44.57699" lon="3.07872">
        <ele>1408.7</ele>
        <time>2022-08-04T07:51:06Z</time>
      </trkpt>
      <trkpt lat="44.57699" lon="3.07849">
        <ele>1407.9</ele>
        <time>2022-08-04T07:51:19Z</time>
      </trkpt>
      <trkpt lat="44.57698" lon="3.07829">
        <ele>1407.4</ele>
        <time>2022-08-04T07:51:30Z</time>
      </trkpt>
      <trkpt lat="44.57698" lon="3.07823">
        <ele>1407.5</ele>
        <time>2022-08-04T07:51:33Z</time>
      </trkpt>
      <trkpt lat="44.57697" lon="3.07812">
        <ele>1407.6</ele>
        <time>2022-08-04T07:51:40Z</time>
      </trkpt>
      <trkpt lat="44.57695" lon="3.07788">
        <ele>1406.7</ele>
        <time>2022-08-04T07:51:54Z</time>
      </trkpt>
      <trkpt lat="44.57692" lon="3.07765">
        <ele>1406.1</ele>
        <time>2022-08-04T07:52:07Z</time>
      </trkpt>
      <trkpt lat="44.57691" lon="3.0776">
        <ele>1406.1</ele>
        <time>2022-08-04T07:52:10Z</time>
      </trkpt>
      <trkpt lat="44.57689" lon="3.07748">
        <ele>1406</ele>
        <time>2022-08-04T07:52:17Z</time>
      </trkpt>
      <trkpt lat="44.57687" lon="3.07733">
        <ele>1405.7</ele>
        <time>2022-08-04T07:52:26Z</time>
      </trkpt>
      <trkpt lat="44.57687" lon="3.07729">
        <ele>1405.6</ele>
        <time>2022-08-04T07:52:28Z</time>
      </trkpt>
      <trkpt lat="44.57685" lon="3.07712">
        <ele>1405.8</ele>
        <time>2022-08-04T07:52:38Z</time>
      </trkpt>
      <trkpt lat="44.57684" lon="3.07696">
        <ele>1406</ele>
        <time>2022-08-04T07:52:47Z</time>
      </trkpt>
      <trkpt lat="44.57684" lon="3.07682">
        <ele>1405.8</ele>
        <time>2022-08-04T07:52:55Z</time>
      </trkpt>
      <trkpt lat="44.57683" lon="3.07674">
        <ele>1405.7</ele>
        <time>2022-08-04T07:53:01Z</time>
      </trkpt>
      <trkpt lat="44.57683" lon="3.07668">
        <ele>1405.6</ele>
        <time>2022-08-04T07:53:04Z</time>
      </trkpt>
      <trkpt lat="44.57682" lon="3.07654">
        <ele>1405.5</ele>
        <time>2022-08-04T07:53:12Z</time>
      </trkpt>
      <trkpt lat="44.57681" lon="3.07635">
        <ele>1405.3</ele>
        <time>2022-08-04T07:53:23Z</time>
      </trkpt>
      <trkpt lat="44.57682" lon="3.07622">
        <ele>1405.3</ele>
        <time>2022-08-04T07:53:31Z</time>
      </trkpt>
      <trkpt lat="44.57683" lon="3.07608">
        <ele>1405.1</ele>
        <time>2022-08-04T07:53:39Z</time>
      </trkpt>
      <trkpt lat="44.57682" lon="3.07597">
        <ele>1405.2</ele>
        <time>2022-08-04T07:53:46Z</time>
      </trkpt>
      <trkpt lat="44.57682" lon="3.07584">
        <ele>1405.2</ele>
        <time>2022-08-04T07:53:54Z</time>
      </trkpt>
      <trkpt lat="44.57683" lon="3.07581">
        <ele>1404.9</ele>
        <time>2022-08-04T07:53:57Z</time>
      </trkpt>
      <trkpt lat="44.57685" lon="3.07573">
        <ele>1404.4</ele>
        <time>2022-08-04T07:54:04Z</time>
      </trkpt>
      <trkpt lat="44.57685" lon="3.07571">
        <ele>1404.3</ele>
        <time>2022-08-04T07:54:08Z</time>
      </trkpt>
      <trkpt lat="44.57685" lon="3.0757">
        <ele>1404.3</ele>
        <time>2022-08-04T07:54:09Z</time>
      </trkpt>
      <trkpt lat="44.57685" lon="3.07556">
        <ele>1403.7</ele>
        <time>2022-08-04T07:54:17Z</time>
      </trkpt>
      <trkpt lat="44.57685" lon="3.07541">
        <ele>1403.5</ele>
        <time>2022-08-04T07:54:25Z</time>
      </trkpt>
      <trkpt lat="44.57685" lon="3.07538">
        <ele>1403.5</ele>
        <time>2022-08-04T07:54:27Z</time>
      </trkpt>
      <trkpt lat="44.57686" lon="3.07529">
        <ele>1403.2</ele>
        <time>2022-08-04T07:54:33Z</time>
      </trkpt>
      <trkpt lat="44.57686" lon="3.07523">
        <ele>1403.1</ele>
        <time>2022-08-04T07:54:36Z</time>
      </trkpt>
      <trkpt lat="44.57687" lon="3.07512">
        <ele>1402.5</ele>
        <time>2022-08-04T07:54:42Z</time>
      </trkpt>
      <trkpt lat="44.57688" lon="3.07509">
        <ele>1402.3</ele>
        <time>2022-08-04T07:54:45Z</time>
      </trkpt>
      <trkpt lat="44.57688" lon="3.07505">
        <ele>1402.1</ele>
        <time>2022-08-04T07:54:49Z</time>
      </trkpt>
      <trkpt lat="44.57689" lon="3.075">
        <ele>1401.9</ele>
        <time>2022-08-04T07:54:52Z</time>
      </trkpt>
      <trkpt lat="44.57687" lon="3.0749">
        <ele>1401.9</ele>
        <time>2022-08-04T07:54:58Z</time>
      </trkpt>
      <trkpt lat="44.57685" lon="3.07486">
        <ele>1402</ele>
        <time>2022-08-04T07:55:01Z</time>
      </trkpt>
      <trkpt lat="44.57679" lon="3.07473">
        <ele>1402.1</ele>
        <time>2022-08-04T07:55:10Z</time>
      </trkpt>
      <trkpt lat="44.57671" lon="3.07458">
        <ele>1402.1</ele>
        <time>2022-08-04T07:55:20Z</time>
      </trkpt>
      <trkpt lat="44.57663" lon="3.07446">
        <ele>1402.4</ele>
        <time>2022-08-04T07:55:31Z</time>
      </trkpt>
      <trkpt lat="44.57665" lon="3.07435">
        <ele>1401.8</ele>
        <time>2022-08-04T07:55:39Z</time>
      </trkpt>
      <trkpt lat="44.57665" lon="3.07422">
        <ele>1401.4</ele>
        <time>2022-08-04T07:55:47Z</time>
      </trkpt>
      <trkpt lat="44.57665" lon="3.07407">
        <ele>1400.9</ele>
        <time>2022-08-04T07:55:56Z</time>
      </trkpt>
      <trkpt lat="44.57665" lon="3.07404">
        <ele>1400.8</ele>
        <time>2022-08-04T07:55:58Z</time>
      </trkpt>
      <trkpt lat="44.57664" lon="3.07387">
        <ele>1400.3</ele>
        <time>2022-08-04T07:56:09Z</time>
      </trkpt>
      <trkpt lat="44.57663" lon="3.07375">
        <ele>1400.1</ele>
        <time>2022-08-04T07:56:16Z</time>
      </trkpt>
      <trkpt lat="44.57663" lon="3.07371">
        <ele>1400</ele>
        <time>2022-08-04T07:56:19Z</time>
      </trkpt>
      <trkpt lat="44.57661" lon="3.07366">
        <ele>1400.2</ele>
        <time>2022-08-04T07:56:26Z</time>
      </trkpt>
      <trkpt lat="44.57661" lon="3.07365">
        <ele>1400.2</ele>
        <time>2022-08-04T07:56:32Z</time>
      </trkpt>
      <trkpt lat="44.5766" lon="3.07365">
        <ele>1400.2</ele>
        <time>2022-08-04T07:56:42Z</time>
      </trkpt>
      <trkpt lat="44.57661" lon="3.07364">
        <ele>1400.1</ele>
        <time>2022-08-04T07:56:56Z</time>
      </trkpt>
      <trkpt lat="44.57665" lon="3.07359">
        <ele>1399.3</ele>
        <time>2022-08-04T07:57:00Z</time>
      </trkpt>
      <trkpt lat="44.57669" lon="3.07353">
        <ele>1398.7</ele>
        <time>2022-08-04T07:57:04Z</time>
      </trkpt>
      <trkpt lat="44.57674" lon="3.07346">
        <ele>1398.1</ele>
        <time>2022-08-04T07:57:10Z</time>
      </trkpt>
      <trkpt lat="44.57679" lon="3.07334">
        <ele>1397.3</ele>
        <time>2022-08-04T07:57:18Z</time>
      </trkpt>
      <trkpt lat="44.57681" lon="3.07325">
        <ele>1396.6</ele>
        <time>2022-08-04T07:57:24Z</time>
      </trkpt>
      <trkpt lat="44.57683" lon="3.07308">
        <ele>1395.8</ele>
        <time>2022-08-04T07:57:34Z</time>
      </trkpt>
      <trkpt lat="44.57683" lon="3.07293">
        <ele>1395.2</ele>
        <time>2022-08-04T07:57:42Z</time>
      </trkpt>
      <trkpt lat="44.57683" lon="3.07289">
        <ele>1395.1</ele>
        <time>2022-08-04T07:57:44Z</time>
      </trkpt>
      <trkpt lat="44.57682" lon="3.07278">
        <ele>1394.7</ele>
        <time>2022-08-04T07:57:50Z</time>
      </trkpt>
      <trkpt lat="44.57684" lon="3.07265">
        <ele>1394</ele>
        <time>2022-08-04T07:57:58Z</time>
      </trkpt>
      <trkpt lat="44.57684" lon="3.07256">
        <ele>1393.7</ele>
        <time>2022-08-04T07:58:04Z</time>
      </trkpt>
      <trkpt lat="44.57682" lon="3.07242">
        <ele>1393.5</ele>
        <time>2022-08-04T07:58:14Z</time>
      </trkpt>
      <trkpt lat="44.57681" lon="3.07227">
        <ele>1393.1</ele>
        <time>2022-08-04T07:58:22Z</time>
      </trkpt>
      <trkpt lat="44.5768" lon="3.07218">
        <ele>1393.1</ele>
        <time>2022-08-04T07:58:27Z</time>
      </trkpt>
      <trkpt lat="44.5768" lon="3.07216">
        <ele>1393</ele>
        <time>2022-08-04T07:58:28Z</time>
      </trkpt>
      <trkpt lat="44.5768" lon="3.07204">
        <ele>1392.7</ele>
        <time>2022-08-04T07:58:35Z</time>
      </trkpt>
      <trkpt lat="44.5768" lon="3.07187">
        <ele>1392.3</ele>
        <time>2022-08-04T07:58:45Z</time>
      </trkpt>
      <trkpt lat="44.5768" lon="3.07168">
        <ele>1391.6</ele>
        <time>2022-08-04T07:58:56Z</time>
      </trkpt>
      <trkpt lat="44.57681" lon="3.07151">
        <ele>1391.5</ele>
        <time>2022-08-04T07:59:06Z</time>
      </trkpt>
      <trkpt lat="44.57681" lon="3.07135">
        <ele>1391.3</ele>
        <time>2022-08-04T07:59:15Z</time>
      </trkpt>
      <trkpt lat="44.57681" lon="3.07131">
        <ele>1391.2</ele>
        <time>2022-08-04T07:59:17Z</time>
      </trkpt>
      <trkpt lat="44.57679" lon="3.07109">
        <ele>1390.6</ele>
        <time>2022-08-04T07:59:29Z</time>
      </trkpt>
      <trkpt lat="44.57676" lon="3.07095">
        <ele>1390</ele>
        <time>2022-08-04T07:59:38Z</time>
      </trkpt>
      <trkpt lat="44.57675" lon="3.07092">
        <ele>1389.9</ele>
        <time>2022-08-04T07:59:40Z</time>
      </trkpt>
      <trkpt lat="44.57674" lon="3.07078">
        <ele>1389.4</ele>
        <time>2022-08-04T07:59:48Z</time>
      </trkpt>
      <trkpt lat="44.57675" lon="3.07066">
        <ele>1389.3</ele>
        <time>2022-08-04T07:59:56Z</time>
      </trkpt>
      <trkpt lat="44.57675" lon="3.07056">
        <ele>1389.1</ele>
        <time>2022-08-04T08:00:01Z</time>
      </trkpt>
      <trkpt lat="44.57678" lon="3.07047">
        <ele>1389</ele>
        <time>2022-08-04T08:00:06Z</time>
      </trkpt>
      <trkpt lat="44.5768" lon="3.07034">
        <ele>1388.9</ele>
        <time>2022-08-04T08:00:15Z</time>
      </trkpt>
      <trkpt lat="44.57683" lon="3.07017">
        <ele>1388.4</ele>
        <time>2022-08-04T08:00:25Z</time>
      </trkpt>
      <trkpt lat="44.57684" lon="3.07013">
        <ele>1388.3</ele>
        <time>2022-08-04T08:00:27Z</time>
      </trkpt>
      <trkpt lat="44.57687" lon="3.06995">
        <ele>1387.7</ele>
        <time>2022-08-04T08:00:37Z</time>
      </trkpt>
      <trkpt lat="44.57688" lon="3.06991">
        <ele>1387.6</ele>
        <time>2022-08-04T08:00:39Z</time>
      </trkpt>
      <trkpt lat="44.57692" lon="3.06976">
        <ele>1386.6</ele>
        <time>2022-08-04T08:00:48Z</time>
      </trkpt>
      <trkpt lat="44.57693" lon="3.06971">
        <ele>1386.3</ele>
        <time>2022-08-04T08:00:51Z</time>
      </trkpt>
      <trkpt lat="44.57697" lon="3.06948">
        <ele>1386.6</ele>
        <time>2022-08-04T08:01:04Z</time>
      </trkpt>
      <trkpt lat="44.577" lon="3.06933">
        <ele>1386.4</ele>
        <time>2022-08-04T08:01:13Z</time>
      </trkpt>
      <trkpt lat="44.57704" lon="3.06918">
        <ele>1386</ele>
        <time>2022-08-04T08:01:22Z</time>
      </trkpt>
      <trkpt lat="44.57707" lon="3.06905">
        <ele>1385.7</ele>
        <time>2022-08-04T08:01:30Z</time>
      </trkpt>
      <trkpt lat="44.57708" lon="3.06902">
        <ele>1385.5</ele>
        <time>2022-08-04T08:01:32Z</time>
      </trkpt>
      <trkpt lat="44.57715" lon="3.06887">
        <ele>1384.8</ele>
        <time>2022-08-04T08:01:43Z</time>
      </trkpt>
      <trkpt lat="44.57718" lon="3.06879">
        <ele>1384.5</ele>
        <time>2022-08-04T08:01:48Z</time>
      </trkpt>
      <trkpt lat="44.57722" lon="3.06871">
        <ele>1384.1</ele>
        <time>2022-08-04T08:01:53Z</time>
      </trkpt>
      <trkpt lat="44.57725" lon="3.06864">
        <ele>1383.8</ele>
        <time>2022-08-04T08:01:59Z</time>
      </trkpt>
      <trkpt lat="44.57728" lon="3.06847">
        <ele>1384</ele>
        <time>2022-08-04T08:02:09Z</time>
      </trkpt>
      <trkpt lat="44.57733" lon="3.06832">
        <ele>1383.9</ele>
        <time>2022-08-04T08:02:18Z</time>
      </trkpt>
      <trkpt lat="44.57735" lon="3.06819">
        <ele>1383.6</ele>
        <time>2022-08-04T08:02:26Z</time>
      </trkpt>
      <trkpt lat="44.57736" lon="3.06815">
        <ele>1383.5</ele>
        <time>2022-08-04T08:02:28Z</time>
      </trkpt>
      <trkpt lat="44.57736" lon="3.06802">
        <ele>1383.5</ele>
        <time>2022-08-04T08:02:36Z</time>
      </trkpt>
      <trkpt lat="44.57737" lon="3.06786">
        <ele>1383.4</ele>
        <time>2022-08-04T08:02:45Z</time>
      </trkpt>
      <trkpt lat="44.57738" lon="3.06765">
        <ele>1383</ele>
        <time>2022-08-04T08:02:57Z</time>
      </trkpt>
      <trkpt lat="44.57736" lon="3.06748">
        <ele>1382.8</ele>
        <time>2022-08-04T08:03:06Z</time>
      </trkpt>
      <trkpt lat="44.57734" lon="3.06736">
        <ele>1382.4</ele>
        <time>2022-08-04T08:03:14Z</time>
      </trkpt>
      <trkpt lat="44.57732" lon="3.0672">
        <ele>1381.9</ele>
        <time>2022-08-04T08:03:23Z</time>
      </trkpt>
      <trkpt lat="44.5773" lon="3.06714">
        <ele>1381.9</ele>
        <time>2022-08-04T08:03:27Z</time>
      </trkpt>
      <trkpt lat="44.57727" lon="3.06697">
        <ele>1381.7</ele>
        <time>2022-08-04T08:03:37Z</time>
      </trkpt>
      <trkpt lat="44.57724" lon="3.06683">
        <ele>1381.9</ele>
        <time>2022-08-04T08:03:46Z</time>
      </trkpt>
      <trkpt lat="44.57719" lon="3.06674">
        <ele>1382.5</ele>
        <time>2022-08-04T08:03:53Z</time>
      </trkpt>
      <trkpt lat="44.57713" lon="3.06659">
        <ele>1382.9</ele>
        <time>2022-08-04T08:04:04Z</time>
      </trkpt>
      <trkpt lat="44.57712" lon="3.06658">
        <ele>1383</ele>
        <time>2022-08-04T08:04:05Z</time>
      </trkpt>
      <trkpt lat="44.57704" lon="3.0664">
        <ele>1383.3</ele>
        <time>2022-08-04T08:04:18Z</time>
      </trkpt>
      <trkpt lat="44.57696" lon="3.06628">
        <ele>1383.9</ele>
        <time>2022-08-04T08:04:28Z</time>
      </trkpt>
      <trkpt lat="44.57695" lon="3.06628">
        <ele>1384</ele>
        <time>2022-08-04T08:04:29Z</time>
      </trkpt>
      <trkpt lat="44.57693" lon="3.06625">
        <ele>1384.1</ele>
        <time>2022-08-04T08:04:34Z</time>
      </trkpt>
      <trkpt lat="44.57692" lon="3.06623">
        <ele>1384.2</ele>
        <time>2022-08-04T08:04:36Z</time>
      </trkpt>
      <trkpt lat="44.57687" lon="3.06619">
        <ele>1384.6</ele>
        <time>2022-08-04T08:04:40Z</time>
      </trkpt>
      <trkpt lat="44.57679" lon="3.0661">
        <ele>1385</ele>
        <time>2022-08-04T08:04:49Z</time>
      </trkpt>
      <trkpt lat="44.57674" lon="3.06605">
        <ele>1385.2</ele>
        <time>2022-08-04T08:04:54Z</time>
      </trkpt>
      <trkpt lat="44.57671" lon="3.06601">
        <ele>1385.3</ele>
        <time>2022-08-04T08:04:59Z</time>
      </trkpt>
      <trkpt lat="44.57669" lon="3.066">
        <ele>1385.4</ele>
        <time>2022-08-04T08:05:07Z</time>
      </trkpt>
      <trkpt lat="44.57662" lon="3.06593">
        <ele>1385.5</ele>
        <time>2022-08-04T08:05:14Z</time>
      </trkpt>
      <trkpt lat="44.57657" lon="3.06586">
        <ele>1385.4</ele>
        <time>2022-08-04T08:05:23Z</time>
      </trkpt>
      <trkpt lat="44.57657" lon="3.06585">
        <ele>1385.4</ele>
        <time>2022-08-04T08:05:31Z</time>
      </trkpt>
      <trkpt lat="44.57658" lon="3.0658">
        <ele>1385.2</ele>
        <time>2022-08-04T08:06:35Z</time>
      </trkpt>
      <trkpt lat="44.57656" lon="3.06583">
        <ele>1385.4</ele>
        <time>2022-08-04T08:06:39Z</time>
      </trkpt>
      <trkpt lat="44.57656" lon="3.06584">
        <ele>1385.4</ele>
        <time>2022-08-04T08:07:01Z</time>
      </trkpt>
      <trkpt lat="44.57655" lon="3.06583">
        <ele>1385.4</ele>
        <time>2022-08-04T08:07:39Z</time>
      </trkpt>
      <trkpt lat="44.57653" lon="3.06578">
        <ele>1385.2</ele>
        <time>2022-08-04T08:08:03Z</time>
      </trkpt>
      <trkpt lat="44.57653" lon="3.06579">
        <ele>1385.2</ele>
        <time>2022-08-04T08:08:12Z</time>
      </trkpt>
      <trkpt lat="44.5765" lon="3.06582">
        <ele>1385.5</ele>
        <time>2022-08-04T08:08:47Z</time>
      </trkpt>
      <trkpt lat="44.5765" lon="3.06582">
        <ele>1385.5</ele>
        <time>2022-08-04T08:08:48Z</time>
      </trkpt>
      <trkpt lat="44.57651" lon="3.06584">
        <ele>1385.6</ele>
        <time>2022-08-04T08:10:33Z</time>
      </trkpt>
      <trkpt lat="44.57652" lon="3.06583">
        <ele>1385.5</ele>
        <time>2022-08-04T08:10:46Z</time>
      </trkpt>
      <trkpt lat="44.57656" lon="3.06577">
        <ele>1385.1</ele>
        <time>2022-08-04T08:10:49Z</time>
      </trkpt>
      <trkpt lat="44.57666" lon="3.06566">
        <ele>1384.4</ele>
        <time>2022-08-04T08:10:57Z</time>
      </trkpt>
      <trkpt lat="44.57677" lon="3.06556">
        <ele>1383.6</ele>
        <time>2022-08-04T08:11:09Z</time>
      </trkpt>
      <trkpt lat="44.57678" lon="3.06555">
        <ele>1383.6</ele>
        <time>2022-08-04T08:11:10Z</time>
      </trkpt>
      <trkpt lat="44.57681" lon="3.06551">
        <ele>1383.3</ele>
        <time>2022-08-04T08:11:15Z</time>
      </trkpt>
      <trkpt lat="44.57682" lon="3.0655">
        <ele>1383.2</ele>
        <time>2022-08-04T08:11:17Z</time>
      </trkpt>
      <trkpt lat="44.57689" lon="3.0654">
        <ele>1382.7</ele>
        <time>2022-08-04T08:11:25Z</time>
      </trkpt>
      <trkpt lat="44.57696" lon="3.06534">
        <ele>1382.2</ele>
        <time>2022-08-04T08:11:33Z</time>
      </trkpt>
      <trkpt lat="44.57697" lon="3.06532">
        <ele>1382</ele>
        <time>2022-08-04T08:11:36Z</time>
      </trkpt>
      <trkpt lat="44.57701" lon="3.06528">
        <ele>1381.8</ele>
        <time>2022-08-04T08:11:40Z</time>
      </trkpt>
      <trkpt lat="44.57712" lon="3.06517">
        <ele>1381</ele>
        <time>2022-08-04T08:11:51Z</time>
      </trkpt>
      <trkpt lat="44.57719" lon="3.06508">
        <ele>1380.4</ele>
        <time>2022-08-04T08:12:00Z</time>
      </trkpt>
      <trkpt lat="44.57725" lon="3.06502">
        <ele>1380</ele>
        <time>2022-08-04T08:12:06Z</time>
      </trkpt>
      <trkpt lat="44.5773" lon="3.06497">
        <ele>1379.7</ele>
        <time>2022-08-04T08:12:11Z</time>
      </trkpt>
      <trkpt lat="44.5774" lon="3.06487">
        <ele>1379.1</ele>
        <time>2022-08-04T08:12:21Z</time>
      </trkpt>
      <trkpt lat="44.57748" lon="3.06478">
        <ele>1378.3</ele>
        <time>2022-08-04T08:12:30Z</time>
      </trkpt>
      <trkpt lat="44.57757" lon="3.06466">
        <ele>1377.2</ele>
        <time>2022-08-04T08:12:41Z</time>
      </trkpt>
      <trkpt lat="44.57758" lon="3.06465">
        <ele>1377.1</ele>
        <time>2022-08-04T08:12:42Z</time>
      </trkpt>
      <trkpt lat="44.57767" lon="3.06454">
        <ele>1376.1</ele>
        <time>2022-08-04T08:12:52Z</time>
      </trkpt>
      <trkpt lat="44.57768" lon="3.06453">
        <ele>1376</ele>
        <time>2022-08-04T08:12:53Z</time>
      </trkpt>
      <trkpt lat="44.57773" lon="3.06447">
        <ele>1375.4</ele>
        <time>2022-08-04T08:12:58Z</time>
      </trkpt>
      <trkpt lat="44.57775" lon="3.06444">
        <ele>1375.2</ele>
        <time>2022-08-04T08:13:01Z</time>
      </trkpt>
      <trkpt lat="44.57779" lon="3.0644">
        <ele>1374.8</ele>
        <time>2022-08-04T08:13:05Z</time>
      </trkpt>
      <trkpt lat="44.57785" lon="3.06431">
        <ele>1374.4</ele>
        <time>2022-08-04T08:13:13Z</time>
      </trkpt>
      <trkpt lat="44.57793" lon="3.06422">
        <ele>1374.1</ele>
        <time>2022-08-04T08:13:22Z</time>
      </trkpt>
      <trkpt lat="44.57794" lon="3.06421">
        <ele>1374.1</ele>
        <time>2022-08-04T08:13:23Z</time>
      </trkpt>
      <trkpt lat="44.57795" lon="3.0642">
        <ele>1374</ele>
        <time>2022-08-04T08:13:24Z</time>
      </trkpt>
      <trkpt lat="44.578" lon="3.06413">
        <ele>1373.9</ele>
        <time>2022-08-04T08:13:30Z</time>
      </trkpt>
      <trkpt lat="44.57803" lon="3.0641">
        <ele>1373.8</ele>
        <time>2022-08-04T08:13:36Z</time>
      </trkpt>
      <trkpt lat="44.57812" lon="3.06402">
        <ele>1373.5</ele>
        <time>2022-08-04T08:13:44Z</time>
      </trkpt>
      <trkpt lat="44.57823" lon="3.06393">
        <ele>1373.2</ele>
        <time>2022-08-04T08:13:53Z</time>
      </trkpt>
      <trkpt lat="44.5783" lon="3.06392">
        <ele>1373.1</ele>
        <time>2022-08-04T08:14:01Z</time>
      </trkpt>
      <trkpt lat="44.5783" lon="3.06392">
        <ele>1373.1</ele>
        <time>2022-08-04T08:14:05Z</time>
      </trkpt>
      <trkpt lat="44.5783" lon="3.06392">
        <ele>1373.1</ele>
        <time>2022-08-04T08:14:06Z</time>
      </trkpt>
      <trkpt lat="44.5783" lon="3.06392">
        <ele>1373.1</ele>
        <time>2022-08-04T08:14:20Z</time>
      </trkpt>
      <trkpt lat="44.5783" lon="3.06392">
        <ele>1373.1</ele>
        <time>2022-08-04T08:14:32Z</time>
      </trkpt>
      <trkpt lat="44.57829" lon="3.06393">
        <ele>1373.1</ele>
        <time>2022-08-04T08:14:41Z</time>
      </trkpt>
      <trkpt lat="44.57832" lon="3.06399">
        <ele>1373.4</ele>
        <time>2022-08-04T08:14:45Z</time>
      </trkpt>
      <trkpt lat="44.57832" lon="3.06405">
        <ele>1373.6</ele>
        <time>2022-08-04T08:14:51Z</time>
      </trkpt>
      <trkpt lat="44.57831" lon="3.06402">
        <ele>1373.5</ele>
        <time>2022-08-04T08:14:58Z</time>
      </trkpt>
      <trkpt lat="44.57829" lon="3.06395">
        <ele>1373.2</ele>
        <time>2022-08-04T08:15:05Z</time>
      </trkpt>
      <trkpt lat="44.57829" lon="3.06392">
        <ele>1373.1</ele>
        <time>2022-08-04T08:15:10Z</time>
      </trkpt>
      <trkpt lat="44.5783" lon="3.06388">
        <ele>1373</ele>
        <time>2022-08-04T08:15:14Z</time>
      </trkpt>
      <trkpt lat="44.57831" lon="3.06384">
        <ele>1373</ele>
        <time>2022-08-04T08:15:17Z</time>
      </trkpt>
      <trkpt lat="44.57832" lon="3.06384">
        <ele>1373</ele>
        <time>2022-08-04T08:15:22Z</time>
      </trkpt>
      <trkpt lat="44.57832" lon="3.06383">
        <ele>1373</ele>
        <time>2022-08-04T08:15:32Z</time>
      </trkpt>
      <trkpt lat="44.57834" lon="3.0638">
        <ele>1373</ele>
        <time>2022-08-04T08:15:34Z</time>
      </trkpt>
      <trkpt lat="44.57839" lon="3.06372">
        <ele>1373.1</ele>
        <time>2022-08-04T08:15:40Z</time>
      </trkpt>
      <trkpt lat="44.57846" lon="3.06359">
        <ele>1372.9</ele>
        <time>2022-08-04T08:15:50Z</time>
      </trkpt>
      <trkpt lat="44.57846" lon="3.06357">
        <ele>1372.8</ele>
        <time>2022-08-04T08:15:51Z</time>
      </trkpt>
      <trkpt lat="44.57849" lon="3.06347">
        <ele>1372.5</ele>
        <time>2022-08-04T08:15:57Z</time>
      </trkpt>
      <trkpt lat="44.57857" lon="3.0633">
        <ele>1372</ele>
        <time>2022-08-04T08:16:09Z</time>
      </trkpt>
      <trkpt lat="44.57861" lon="3.06319">
        <ele>1372</ele>
        <time>2022-08-04T08:16:16Z</time>
      </trkpt>
      <trkpt lat="44.57868" lon="3.06303">
        <ele>1371.8</ele>
        <time>2022-08-04T08:16:27Z</time>
      </trkpt>
      <trkpt lat="44.57875" lon="3.0629">
        <ele>1371.5</ele>
        <time>2022-08-04T08:16:36Z</time>
      </trkpt>
      <trkpt lat="44.57884" lon="3.06272">
        <ele>1371.2</ele>
        <time>2022-08-04T08:16:47Z</time>
      </trkpt>
      <trkpt lat="44.57892" lon="3.06255">
        <ele>1370.9</ele>
        <time>2022-08-04T08:16:58Z</time>
      </trkpt>
      <trkpt lat="44.57896" lon="3.06247">
        <ele>1370.7</ele>
        <time>2022-08-04T08:17:04Z</time>
      </trkpt>
      <trkpt lat="44.579" lon="3.06238">
        <ele>1370.4</ele>
        <time>2022-08-04T08:17:10Z</time>
      </trkpt>
      <trkpt lat="44.57907" lon="3.06222">
        <ele>1369.7</ele>
        <time>2022-08-04T08:17:20Z</time>
      </trkpt>
      <trkpt lat="44.57909" lon="3.06219">
        <ele>1369.6</ele>
        <time>2022-08-04T08:17:22Z</time>
      </trkpt>
      <trkpt lat="44.57912" lon="3.06213">
        <ele>1369.4</ele>
        <time>2022-08-04T08:17:26Z</time>
      </trkpt>
      <trkpt lat="44.57912" lon="3.06212">
        <ele>1369.3</ele>
        <time>2022-08-04T08:17:27Z</time>
      </trkpt>
      <trkpt lat="44.57922" lon="3.06195">
        <ele>1368.5</ele>
        <time>2022-08-04T08:17:37Z</time>
      </trkpt>
      <trkpt lat="44.57929" lon="3.06183">
        <ele>1368.3</ele>
        <time>2022-08-04T08:17:46Z</time>
      </trkpt>
      <trkpt lat="44.57933" lon="3.06174">
        <ele>1368.4</ele>
        <time>2022-08-04T08:17:52Z</time>
      </trkpt>
      <trkpt lat="44.57938" lon="3.06165">
        <ele>1368.4</ele>
        <time>2022-08-04T08:17:58Z</time>
      </trkpt>
      <trkpt lat="44.57946" lon="3.06152">
        <ele>1367.9</ele>
        <time>2022-08-04T08:18:07Z</time>
      </trkpt>
      <trkpt lat="44.57955" lon="3.06135">
        <ele>1367.3</ele>
        <time>2022-08-04T08:18:19Z</time>
      </trkpt>
      <trkpt lat="44.57957" lon="3.06132">
        <ele>1367.2</ele>
        <time>2022-08-04T08:18:21Z</time>
      </trkpt>
      <trkpt lat="44.57964" lon="3.0612">
        <ele>1367.1</ele>
        <time>2022-08-04T08:18:30Z</time>
      </trkpt>
      <trkpt lat="44.57971" lon="3.0611">
        <ele>1367</ele>
        <time>2022-08-04T08:18:37Z</time>
      </trkpt>
      <trkpt lat="44.57974" lon="3.06106">
        <ele>1366.8</ele>
        <time>2022-08-04T08:18:40Z</time>
      </trkpt>
      <trkpt lat="44.57977" lon="3.06103">
        <ele>1366.6</ele>
        <time>2022-08-04T08:18:43Z</time>
      </trkpt>
      <trkpt lat="44.57982" lon="3.061">
        <ele>1366.5</ele>
        <time>2022-08-04T08:18:47Z</time>
      </trkpt>
      <trkpt lat="44.57992" lon="3.0609">
        <ele>1366.6</ele>
        <time>2022-08-04T08:18:56Z</time>
      </trkpt>
      <trkpt lat="44.57995" lon="3.06087">
        <ele>1366.7</ele>
        <time>2022-08-04T08:18:59Z</time>
      </trkpt>
      <trkpt lat="44.58008" lon="3.06081">
        <ele>1367</ele>
        <time>2022-08-04T08:19:09Z</time>
      </trkpt>
      <trkpt lat="44.58008" lon="3.0608">
        <ele>1367</ele>
        <time>2022-08-04T08:19:14Z</time>
      </trkpt>
      <trkpt lat="44.58007" lon="3.0608">
        <ele>1367</ele>
        <time>2022-08-04T08:19:18Z</time>
      </trkpt>
      <trkpt lat="44.58007" lon="3.06079">
        <ele>1367</ele>
        <time>2022-08-04T08:19:24Z</time>
      </trkpt>
      <trkpt lat="44.58008" lon="3.06079">
        <ele>1367</ele>
        <time>2022-08-04T08:19:26Z</time>
      </trkpt>
      <trkpt lat="44.58011" lon="3.06077">
        <ele>1367</ele>
        <time>2022-08-04T08:19:28Z</time>
      </trkpt>
      <trkpt lat="44.58023" lon="3.06068">
        <ele>1367</ele>
        <time>2022-08-04T08:19:36Z</time>
      </trkpt>
      <trkpt lat="44.58032" lon="3.06064">
        <ele>1367</ele>
        <time>2022-08-04T08:19:43Z</time>
      </trkpt>
      <trkpt lat="44.5804" lon="3.06058">
        <ele>1367</ele>
        <time>2022-08-04T08:19:50Z</time>
      </trkpt>
      <trkpt lat="44.58052" lon="3.06051">
        <ele>1366.8</ele>
        <time>2022-08-04T08:20:00Z</time>
      </trkpt>
      <trkpt lat="44.58059" lon="3.06045">
        <ele>1366.6</ele>
        <time>2022-08-04T08:20:06Z</time>
      </trkpt>
      <trkpt lat="44.58062" lon="3.06044">
        <ele>1366.6</ele>
        <time>2022-08-04T08:20:08Z</time>
      </trkpt>
      <trkpt lat="44.58072" lon="3.06037">
        <ele>1366.3</ele>
        <time>2022-08-04T08:20:17Z</time>
      </trkpt>
      <trkpt lat="44.58087" lon="3.06026">
        <ele>1365.9</ele>
        <time>2022-08-04T08:20:29Z</time>
      </trkpt>
      <trkpt lat="44.58095" lon="3.0602">
        <ele>1365.7</ele>
        <time>2022-08-04T08:20:36Z</time>
      </trkpt>
      <trkpt lat="44.58097" lon="3.06017">
        <ele>1365.6</ele>
        <time>2022-08-04T08:20:38Z</time>
      </trkpt>
      <trkpt lat="44.58109" lon="3.06007">
        <ele>1365.3</ele>
        <time>2022-08-04T08:20:49Z</time>
      </trkpt>
      <trkpt lat="44.58112" lon="3.06005">
        <ele>1365.2</ele>
        <time>2022-08-04T08:20:51Z</time>
      </trkpt>
      <trkpt lat="44.58119" lon="3.05999">
        <ele>1364.7</ele>
        <time>2022-08-04T08:20:58Z</time>
      </trkpt>
      <trkpt lat="44.58132" lon="3.0599">
        <ele>1364.2</ele>
        <time>2022-08-04T08:21:10Z</time>
      </trkpt>
      <trkpt lat="44.58133" lon="3.05991">
        <ele>1364.1</ele>
        <time>2022-08-04T08:21:15Z</time>
      </trkpt>
      <trkpt lat="44.58134" lon="3.0599">
        <ele>1364.1</ele>
        <time>2022-08-04T08:21:19Z</time>
      </trkpt>
      <trkpt lat="44.58137" lon="3.05988">
        <ele>1364</ele>
        <time>2022-08-04T08:21:21Z</time>
      </trkpt>
      <trkpt lat="44.58149" lon="3.05979">
        <ele>1363.9</ele>
        <time>2022-08-04T08:21:31Z</time>
      </trkpt>
      <trkpt lat="44.5816" lon="3.0597">
        <ele>1364</ele>
        <time>2022-08-04T08:21:41Z</time>
      </trkpt>
      <trkpt lat="44.58167" lon="3.05963">
        <ele>1364</ele>
        <time>2022-08-04T08:21:48Z</time>
      </trkpt>
      <trkpt lat="44.58177" lon="3.05954">
        <ele>1364.2</ele>
        <time>2022-08-04T08:21:57Z</time>
      </trkpt>
      <trkpt lat="44.58186" lon="3.05946">
        <ele>1364.6</ele>
        <time>2022-08-04T08:22:05Z</time>
      </trkpt>
      <trkpt lat="44.58197" lon="3.05938">
        <ele>1365.3</ele>
        <time>2022-08-04T08:22:14Z</time>
      </trkpt>
      <trkpt lat="44.58204" lon="3.05932">
        <ele>1365.7</ele>
        <time>2022-08-04T08:22:21Z</time>
      </trkpt>
      <trkpt lat="44.58205" lon="3.05931">
        <ele>1365.7</ele>
        <time>2022-08-04T08:22:22Z</time>
      </trkpt>
      <trkpt lat="44.58216" lon="3.05923">
        <ele>1365.9</ele>
        <time>2022-08-04T08:22:31Z</time>
      </trkpt>
      <trkpt lat="44.58226" lon="3.05915">
        <ele>1366.2</ele>
        <time>2022-08-04T08:22:40Z</time>
      </trkpt>
      <trkpt lat="44.58236" lon="3.05906">
        <ele>1366.7</ele>
        <time>2022-08-04T08:22:50Z</time>
      </trkpt>
      <trkpt lat="44.5824" lon="3.05903">
        <ele>1366.8</ele>
        <time>2022-08-04T08:22:53Z</time>
      </trkpt>
      <trkpt lat="44.58245" lon="3.05901">
        <ele>1366.9</ele>
        <time>2022-08-04T08:22:57Z</time>
      </trkpt>
      <trkpt lat="44.58256" lon="3.05891">
        <ele>1367.2</ele>
        <time>2022-08-04T08:23:06Z</time>
      </trkpt>
      <trkpt lat="44.58263" lon="3.05887">
        <ele>1367.4</ele>
        <time>2022-08-04T08:23:12Z</time>
      </trkpt>
      <trkpt lat="44.58266" lon="3.05884">
        <ele>1367.5</ele>
        <time>2022-08-04T08:23:15Z</time>
      </trkpt>
      <trkpt lat="44.58277" lon="3.05877">
        <ele>1367.5</ele>
        <time>2022-08-04T08:23:24Z</time>
      </trkpt>
      <trkpt lat="44.5829" lon="3.05867">
        <ele>1367.7</ele>
        <time>2022-08-04T08:23:36Z</time>
      </trkpt>
      <trkpt lat="44.58294" lon="3.05865">
        <ele>1367.7</ele>
        <time>2022-08-04T08:23:39Z</time>
      </trkpt>
      <trkpt lat="44.58302" lon="3.05859">
        <ele>1367.8</ele>
        <time>2022-08-04T08:23:46Z</time>
      </trkpt>
      <trkpt lat="44.58307" lon="3.05856">
        <ele>1367.9</ele>
        <time>2022-08-04T08:23:50Z</time>
      </trkpt>
      <trkpt lat="44.5831" lon="3.05853">
        <ele>1368</ele>
        <time>2022-08-04T08:23:53Z</time>
      </trkpt>
      <trkpt lat="44.58327" lon="3.05843">
        <ele>1368.4</ele>
        <time>2022-08-04T08:24:06Z</time>
      </trkpt>
      <trkpt lat="44.58336" lon="3.05836">
        <ele>1368.4</ele>
        <time>2022-08-04T08:24:14Z</time>
      </trkpt>
      <trkpt lat="44.58345" lon="3.05829">
        <ele>1368.7</ele>
        <time>2022-08-04T08:24:22Z</time>
      </trkpt>
      <trkpt lat="44.58356" lon="3.0582">
        <ele>1369.1</ele>
        <time>2022-08-04T08:24:32Z</time>
      </trkpt>
      <trkpt lat="44.58363" lon="3.05815">
        <ele>1369.4</ele>
        <time>2022-08-04T08:24:38Z</time>
      </trkpt>
      <trkpt lat="44.58367" lon="3.05812">
        <ele>1369.5</ele>
        <time>2022-08-04T08:24:41Z</time>
      </trkpt>
      <trkpt lat="44.58378" lon="3.05805">
        <ele>1369.6</ele>
        <time>2022-08-04T08:24:51Z</time>
      </trkpt>
      <trkpt lat="44.58386" lon="3.05797">
        <ele>1369.6</ele>
        <time>2022-08-04T08:24:59Z</time>
      </trkpt>
      <trkpt lat="44.58386" lon="3.05797">
        <ele>1369.6</ele>
        <time>2022-08-04T08:25:00Z</time>
      </trkpt>
      <trkpt lat="44.58386" lon="3.05796">
        <ele>1369.5</ele>
        <time>2022-08-04T08:25:05Z</time>
      </trkpt>
      <trkpt lat="44.58386" lon="3.05796">
        <ele>1369.6</ele>
        <time>2022-08-04T08:25:18Z</time>
      </trkpt>
      <trkpt lat="44.58387" lon="3.05796">
        <ele>1369.6</ele>
        <time>2022-08-04T08:25:20Z</time>
      </trkpt>
      <trkpt lat="44.58388" lon="3.05795">
        <ele>1369.6</ele>
        <time>2022-08-04T08:25:21Z</time>
      </trkpt>
      <trkpt lat="44.58392" lon="3.05792">
        <ele>1369.6</ele>
        <time>2022-08-04T08:25:25Z</time>
      </trkpt>
      <trkpt lat="44.58393" lon="3.05791">
        <ele>1369.6</ele>
        <time>2022-08-04T08:25:26Z</time>
      </trkpt>
      <trkpt lat="44.58406" lon="3.05783">
        <ele>1369.4</ele>
        <time>2022-08-04T08:25:37Z</time>
      </trkpt>
      <trkpt lat="44.58416" lon="3.05778">
        <ele>1369</ele>
        <time>2022-08-04T08:25:46Z</time>
      </trkpt>
      <trkpt lat="44.58434" lon="3.0577">
        <ele>1369.3</ele>
        <time>2022-08-04T08:25:59Z</time>
      </trkpt>
      <trkpt lat="44.58435" lon="3.05769">
        <ele>1369.3</ele>
        <time>2022-08-04T08:26:00Z</time>
      </trkpt>
      <trkpt lat="44.58446" lon="3.05763">
        <ele>1369.5</ele>
        <time>2022-08-04T08:26:09Z</time>
      </trkpt>
      <trkpt lat="44.5845" lon="3.05761">
        <ele>1369.5</ele>
        <time>2022-08-04T08:26:12Z</time>
      </trkpt>
      <trkpt lat="44.58466" lon="3.05753">
        <ele>1369.2</ele>
        <time>2022-08-04T08:26:25Z</time>
      </trkpt>
      <trkpt lat="44.58471" lon="3.0575">
        <ele>1369.1</ele>
        <time>2022-08-04T08:26:30Z</time>
      </trkpt>
      <trkpt lat="44.58472" lon="3.0575">
        <ele>1369.1</ele>
        <time>2022-08-04T08:26:32Z</time>
      </trkpt>
      <trkpt lat="44.58474" lon="3.05748">
        <ele>1369.1</ele>
        <time>2022-08-04T08:26:34Z</time>
      </trkpt>
      <trkpt lat="44.58478" lon="3.05745">
        <ele>1369.1</ele>
        <time>2022-08-04T08:26:38Z</time>
      </trkpt>
      <trkpt lat="44.58489" lon="3.05738">
        <ele>1369</ele>
        <time>2022-08-04T08:26:47Z</time>
      </trkpt>
      <trkpt lat="44.5849" lon="3.05738">
        <ele>1369</ele>
        <time>2022-08-04T08:26:48Z</time>
      </trkpt>
      <trkpt lat="44.58502" lon="3.0573">
        <ele>1368.7</ele>
        <time>2022-08-04T08:26:59Z</time>
      </trkpt>
      <trkpt lat="44.58501" lon="3.0573">
        <ele>1368.7</ele>
        <time>2022-08-04T08:27:00Z</time>
      </trkpt>
      <trkpt lat="44.585" lon="3.0573">
        <ele>1368.7</ele>
        <time>2022-08-04T08:27:06Z</time>
      </trkpt>
      <trkpt lat="44.58502" lon="3.05728">
        <ele>1368.7</ele>
        <time>2022-08-04T08:27:10Z</time>
      </trkpt>
      <trkpt lat="44.58505" lon="3.05726">
        <ele>1368.7</ele>
        <time>2022-08-04T08:27:12Z</time>
      </trkpt>
      <trkpt lat="44.58508" lon="3.05724">
        <ele>1368.7</ele>
        <time>2022-08-04T08:27:15Z</time>
      </trkpt>
      <trkpt lat="44.58514" lon="3.05719">
        <ele>1368.6</ele>
        <time>2022-08-04T08:27:21Z</time>
      </trkpt>
      <trkpt lat="44.58528" lon="3.05708">
        <ele>1368.5</ele>
        <time>2022-08-04T08:27:32Z</time>
      </trkpt>
      <trkpt lat="44.58537" lon="3.057">
        <ele>1368.2</ele>
        <time>2022-08-04T08:27:41Z</time>
      </trkpt>
      <trkpt lat="44.5854" lon="3.05698">
        <ele>1368</ele>
        <time>2022-08-04T08:27:44Z</time>
      </trkpt>
      <trkpt lat="44.58542" lon="3.05697">
        <ele>1367.9</ele>
        <time>2022-08-04T08:27:48Z</time>
      </trkpt>
      <trkpt lat="44.58543" lon="3.05696">
        <ele>1367.8</ele>
        <time>2022-08-04T08:27:50Z</time>
      </trkpt>
      <trkpt lat="44.58547" lon="3.05693">
        <ele>1367.6</ele>
        <time>2022-08-04T08:27:54Z</time>
      </trkpt>
      <trkpt lat="44.58552" lon="3.0569">
        <ele>1367.4</ele>
        <time>2022-08-04T08:27:58Z</time>
      </trkpt>
      <trkpt lat="44.58555" lon="3.05688">
        <ele>1367.3</ele>
        <time>2022-08-04T08:28:01Z</time>
      </trkpt>
      <trkpt lat="44.58564" lon="3.05679">
        <ele>1367.1</ele>
        <time>2022-08-04T08:28:10Z</time>
      </trkpt>
      <trkpt lat="44.58567" lon="3.05677">
        <ele>1367</ele>
        <time>2022-08-04T08:28:12Z</time>
      </trkpt>
      <trkpt lat="44.58576" lon="3.0567">
        <ele>1366.5</ele>
        <time>2022-08-04T08:28:20Z</time>
      </trkpt>
      <trkpt lat="44.58582" lon="3.05663">
        <ele>1366.2</ele>
        <time>2022-08-04T08:28:26Z</time>
      </trkpt>
      <trkpt lat="44.58586" lon="3.05658">
        <ele>1366.2</ele>
        <time>2022-08-04T08:28:30Z</time>
      </trkpt>
      <trkpt lat="44.58591" lon="3.05655">
        <ele>1366.1</ele>
        <time>2022-08-04T08:28:34Z</time>
      </trkpt>
      <trkpt lat="44.58595" lon="3.05653">
        <ele>1366.1</ele>
        <time>2022-08-04T08:28:38Z</time>
      </trkpt>
      <trkpt lat="44.58595" lon="3.05653">
        <ele>1366</ele>
        <time>2022-08-04T08:28:39Z</time>
      </trkpt>
      <trkpt lat="44.58597" lon="3.05652">
        <ele>1366</ele>
        <time>2022-08-04T08:28:46Z</time>
      </trkpt>
      <trkpt lat="44.58605" lon="3.05643">
        <ele>1366.1</ele>
        <time>2022-08-04T08:28:53Z</time>
      </trkpt>
      <trkpt lat="44.58612" lon="3.05638">
        <ele>1366</ele>
        <time>2022-08-04T08:29:00Z</time>
      </trkpt>
      <trkpt lat="44.58626" lon="3.05627">
        <ele>1366.4</ele>
        <time>2022-08-04T08:29:12Z</time>
      </trkpt>
      <trkpt lat="44.5864" lon="3.05617">
        <ele>1366.8</ele>
        <time>2022-08-04T08:29:23Z</time>
      </trkpt>
      <trkpt lat="44.58647" lon="3.05611">
        <ele>1366.7</ele>
        <time>2022-08-04T08:29:30Z</time>
      </trkpt>
      <trkpt lat="44.58653" lon="3.05606">
        <ele>1366.6</ele>
        <time>2022-08-04T08:29:35Z</time>
      </trkpt>
      <trkpt lat="44.58665" lon="3.05595">
        <ele>1366.1</ele>
        <time>2022-08-04T08:29:47Z</time>
      </trkpt>
      <trkpt lat="44.58668" lon="3.05593">
        <ele>1365.9</ele>
        <time>2022-08-04T08:29:49Z</time>
      </trkpt>
      <trkpt lat="44.58676" lon="3.05587">
        <ele>1365.3</ele>
        <time>2022-08-04T08:29:56Z</time>
      </trkpt>
      <trkpt lat="44.58687" lon="3.05576">
        <ele>1364.5</ele>
        <time>2022-08-04T08:30:06Z</time>
      </trkpt>
      <trkpt lat="44.58689" lon="3.05575">
        <ele>1364.4</ele>
        <time>2022-08-04T08:30:07Z</time>
      </trkpt>
      <trkpt lat="44.58691" lon="3.05573">
        <ele>1364.3</ele>
        <time>2022-08-04T08:30:09Z</time>
      </trkpt>
      <trkpt lat="44.58693" lon="3.05571">
        <ele>1364.1</ele>
        <time>2022-08-04T08:30:13Z</time>
      </trkpt>
      <trkpt lat="44.58694" lon="3.05571">
        <ele>1364</ele>
        <time>2022-08-04T08:30:15Z</time>
      </trkpt>
      <trkpt lat="44.58695" lon="3.05568">
        <ele>1363.9</ele>
        <time>2022-08-04T08:30:21Z</time>
      </trkpt>
      <trkpt lat="44.58704" lon="3.05554">
        <ele>1363</ele>
        <time>2022-08-04T08:30:30Z</time>
      </trkpt>
      <trkpt lat="44.58712" lon="3.05543">
        <ele>1362.4</ele>
        <time>2022-08-04T08:30:38Z</time>
      </trkpt>
      <trkpt lat="44.58713" lon="3.05542">
        <ele>1362.4</ele>
        <time>2022-08-04T08:30:39Z</time>
      </trkpt>
      <trkpt lat="44.58722" lon="3.05532">
        <ele>1361.9</ele>
        <time>2022-08-04T08:30:48Z</time>
      </trkpt>
      <trkpt lat="44.58728" lon="3.05521">
        <ele>1361.6</ele>
        <time>2022-08-04T08:30:56Z</time>
      </trkpt>
      <trkpt lat="44.58732" lon="3.05516">
        <ele>1361.4</ele>
        <time>2022-08-04T08:31:00Z</time>
      </trkpt>
      <trkpt lat="44.58741" lon="3.05505">
        <ele>1360.8</ele>
        <time>2022-08-04T08:31:08Z</time>
      </trkpt>
      <trkpt lat="44.58742" lon="3.05503">
        <ele>1360.7</ele>
        <time>2022-08-04T08:31:10Z</time>
      </trkpt>
      <trkpt lat="44.58749" lon="3.05493">
        <ele>1360.4</ele>
        <time>2022-08-04T08:31:18Z</time>
      </trkpt>
      <trkpt lat="44.58756" lon="3.05477">
        <ele>1360.2</ele>
        <time>2022-08-04T08:31:28Z</time>
      </trkpt>
      <trkpt lat="44.58764" lon="3.05464">
        <ele>1359.9</ele>
        <time>2022-08-04T08:31:37Z</time>
      </trkpt>
      <trkpt lat="44.58765" lon="3.05463">
        <ele>1359.9</ele>
        <time>2022-08-04T08:31:38Z</time>
      </trkpt>
      <trkpt lat="44.58775" lon="3.05452">
        <ele>1359.7</ele>
        <time>2022-08-04T08:31:47Z</time>
      </trkpt>
      <trkpt lat="44.58785" lon="3.0544">
        <ele>1359</ele>
        <time>2022-08-04T08:31:57Z</time>
      </trkpt>
      <trkpt lat="44.5879" lon="3.05433">
        <ele>1358.6</ele>
        <time>2022-08-04T08:32:02Z</time>
      </trkpt>
      <trkpt lat="44.58795" lon="3.05423">
        <ele>1358.5</ele>
        <time>2022-08-04T08:32:09Z</time>
      </trkpt>
      <trkpt lat="44.58807" lon="3.05406">
        <ele>1358.6</ele>
        <time>2022-08-04T08:32:22Z</time>
      </trkpt>
      <trkpt lat="44.58816" lon="3.05393">
        <ele>1358.6</ele>
        <time>2022-08-04T08:32:32Z</time>
      </trkpt>
      <trkpt lat="44.5882" lon="3.05387">
        <ele>1358.6</ele>
        <time>2022-08-04T08:32:36Z</time>
      </trkpt>
      <trkpt lat="44.58823" lon="3.05382">
        <ele>1358.5</ele>
        <time>2022-08-04T08:32:40Z</time>
      </trkpt>
      <trkpt lat="44.58833" lon="3.05362">
        <ele>1358.1</ele>
        <time>2022-08-04T08:32:53Z</time>
      </trkpt>
      <trkpt lat="44.58844" lon="3.05348">
        <ele>1357.8</ele>
        <time>2022-08-04T08:33:04Z</time>
      </trkpt>
      <trkpt lat="44.58854" lon="3.05334">
        <ele>1357.8</ele>
        <time>2022-08-04T08:33:14Z</time>
      </trkpt>
      <trkpt lat="44.58861" lon="3.05324">
        <ele>1357.7</ele>
        <time>2022-08-04T08:33:22Z</time>
      </trkpt>
      <trkpt lat="44.58869" lon="3.05312">
        <ele>1358</ele>
        <time>2022-08-04T08:33:31Z</time>
      </trkpt>
      <trkpt lat="44.5887" lon="3.05311">
        <ele>1358</ele>
        <time>2022-08-04T08:33:32Z</time>
      </trkpt>
      <trkpt lat="44.5887" lon="3.05312">
        <ele>1357.9</ele>
        <time>2022-08-04T08:33:35Z</time>
      </trkpt>
      <trkpt lat="44.58866" lon="3.05321">
        <ele>1357.5</ele>
        <time>2022-08-04T08:33:41Z</time>
      </trkpt>
      <trkpt lat="44.58859" lon="3.05333">
        <ele>1357.3</ele>
        <time>2022-08-04T08:33:49Z</time>
      </trkpt>
      <trkpt lat="44.58854" lon="3.05337">
        <ele>1357.4</ele>
        <time>2022-08-04T08:33:55Z</time>
      </trkpt>
      <trkpt lat="44.58855" lon="3.05335">
        <ele>1357.5</ele>
        <time>2022-08-04T08:33:58Z</time>
      </trkpt>
      <trkpt lat="44.58858" lon="3.05333">
        <ele>1357.3</ele>
        <time>2022-08-04T08:34:00Z</time>
      </trkpt>
      <trkpt lat="44.58864" lon="3.0532">
        <ele>1357.7</ele>
        <time>2022-08-04T08:34:08Z</time>
      </trkpt>
      <trkpt lat="44.58865" lon="3.05319">
        <ele>1357.7</ele>
        <time>2022-08-04T08:34:09Z</time>
      </trkpt>
      <trkpt lat="44.58875" lon="3.05306">
        <ele>1358</ele>
        <time>2022-08-04T08:34:19Z</time>
      </trkpt>
      <trkpt lat="44.58883" lon="3.05293">
        <ele>1357.6</ele>
        <time>2022-08-04T08:34:28Z</time>
      </trkpt>
      <trkpt lat="44.58895" lon="3.05277">
        <ele>1356.5</ele>
        <time>2022-08-04T08:34:40Z</time>
      </trkpt>
      <trkpt lat="44.58904" lon="3.05267">
        <ele>1355.7</ele>
        <time>2022-08-04T08:34:48Z</time>
      </trkpt>
      <trkpt lat="44.58905" lon="3.05264">
        <ele>1355.5</ele>
        <time>2022-08-04T08:34:50Z</time>
      </trkpt>
      <trkpt lat="44.5891" lon="3.05251">
        <ele>1354.8</ele>
        <time>2022-08-04T08:34:58Z</time>
      </trkpt>
      <trkpt lat="44.5892" lon="3.05239">
        <ele>1353.7</ele>
        <time>2022-08-04T08:35:08Z</time>
      </trkpt>
      <trkpt lat="44.58923" lon="3.05233">
        <ele>1353.4</ele>
        <time>2022-08-04T08:35:12Z</time>
      </trkpt>
      <trkpt lat="44.58926" lon="3.05229">
        <ele>1353.1</ele>
        <time>2022-08-04T08:35:15Z</time>
      </trkpt>
      <trkpt lat="44.58934" lon="3.05217">
        <ele>1352.2</ele>
        <time>2022-08-04T08:35:24Z</time>
      </trkpt>
      <trkpt lat="44.58937" lon="3.05213">
        <ele>1352</ele>
        <time>2022-08-04T08:35:27Z</time>
      </trkpt>
      <trkpt lat="44.58945" lon="3.052">
        <ele>1351.8</ele>
        <time>2022-08-04T08:35:36Z</time>
      </trkpt>
      <trkpt lat="44.58953" lon="3.05186">
        <ele>1351.1</ele>
        <time>2022-08-04T08:35:46Z</time>
      </trkpt>
      <trkpt lat="44.58966" lon="3.05169">
        <ele>1350.5</ele>
        <time>2022-08-04T08:35:59Z</time>
      </trkpt>
      <trkpt lat="44.58972" lon="3.05159">
        <ele>1350</ele>
        <time>2022-08-04T08:36:06Z</time>
      </trkpt>
      <trkpt lat="44.58982" lon="3.05145">
        <ele>1349.5</ele>
        <time>2022-08-04T08:36:17Z</time>
      </trkpt>
      <trkpt lat="44.5899" lon="3.0513">
        <ele>1349.4</ele>
        <time>2022-08-04T08:36:27Z</time>
      </trkpt>
      <trkpt lat="44.5899" lon="3.05128">
        <ele>1349.4</ele>
        <time>2022-08-04T08:36:28Z</time>
      </trkpt>
      <trkpt lat="44.59" lon="3.05113">
        <ele>1349</ele>
        <time>2022-08-04T08:36:39Z</time>
      </trkpt>
      <trkpt lat="44.59002" lon="3.05109">
        <ele>1348.9</ele>
        <time>2022-08-04T08:36:42Z</time>
      </trkpt>
      <trkpt lat="44.59007" lon="3.05101">
        <ele>1348.7</ele>
        <time>2022-08-04T08:36:48Z</time>
      </trkpt>
      <trkpt lat="44.59013" lon="3.0509">
        <ele>1348.5</ele>
        <time>2022-08-04T08:36:56Z</time>
      </trkpt>
      <trkpt lat="44.59015" lon="3.05088">
        <ele>1348.5</ele>
        <time>2022-08-04T08:36:58Z</time>
      </trkpt>
      <trkpt lat="44.59022" lon="3.05078">
        <ele>1348</ele>
        <time>2022-08-04T08:37:06Z</time>
      </trkpt>
      <trkpt lat="44.59023" lon="3.05077">
        <ele>1348</ele>
        <time>2022-08-04T08:37:08Z</time>
      </trkpt>
      <trkpt lat="44.59023" lon="3.05077">
        <ele>1348</ele>
        <time>2022-08-04T08:37:11Z</time>
      </trkpt>
      <trkpt lat="44.59025" lon="3.05076">
        <ele>1347.8</ele>
        <time>2022-08-04T08:37:19Z</time>
      </trkpt>
      <trkpt lat="44.59028" lon="3.05073">
        <ele>1347.6</ele>
        <time>2022-08-04T08:37:22Z</time>
      </trkpt>
      <trkpt lat="44.59041" lon="3.0506">
        <ele>1346.6</ele>
        <time>2022-08-04T08:37:34Z</time>
      </trkpt>
      <trkpt lat="44.59051" lon="3.05046">
        <ele>1345.8</ele>
        <time>2022-08-04T08:37:45Z</time>
      </trkpt>
      <trkpt lat="44.59052" lon="3.05045">
        <ele>1345.7</ele>
        <time>2022-08-04T08:37:46Z</time>
      </trkpt>
      <trkpt lat="44.59061" lon="3.05031">
        <ele>1345.1</ele>
        <time>2022-08-04T08:37:56Z</time>
      </trkpt>
      <trkpt lat="44.59063" lon="3.05028">
        <ele>1345</ele>
        <time>2022-08-04T08:37:58Z</time>
      </trkpt>
      <trkpt lat="44.59069" lon="3.05016">
        <ele>1344.2</ele>
        <time>2022-08-04T08:38:06Z</time>
      </trkpt>
      <trkpt lat="44.59073" lon="3.05011">
        <ele>1343.8</ele>
        <time>2022-08-04T08:38:10Z</time>
      </trkpt>
      <trkpt lat="44.59076" lon="3.05005">
        <ele>1343.4</ele>
        <time>2022-08-04T08:38:14Z</time>
      </trkpt>
      <trkpt lat="44.59081" lon="3.04992">
        <ele>1342.4</ele>
        <time>2022-08-04T08:38:22Z</time>
      </trkpt>
      <trkpt lat="44.59083" lon="3.04989">
        <ele>1342.2</ele>
        <time>2022-08-04T08:38:24Z</time>
      </trkpt>
      <trkpt lat="44.5909" lon="3.04975">
        <ele>1341.4</ele>
        <time>2022-08-04T08:38:33Z</time>
      </trkpt>
      <trkpt lat="44.59091" lon="3.0497">
        <ele>1341.1</ele>
        <time>2022-08-04T08:38:36Z</time>
      </trkpt>
      <trkpt lat="44.59095" lon="3.0496">
        <ele>1340.5</ele>
        <time>2022-08-04T08:38:42Z</time>
      </trkpt>
      <trkpt lat="44.59097" lon="3.04952">
        <ele>1340</ele>
        <time>2022-08-04T08:38:47Z</time>
      </trkpt>
      <trkpt lat="44.591" lon="3.04945">
        <ele>1339.8</ele>
        <time>2022-08-04T08:38:51Z</time>
      </trkpt>
      <trkpt lat="44.59103" lon="3.04937">
        <ele>1339.6</ele>
        <time>2022-08-04T08:38:56Z</time>
      </trkpt>
      <trkpt lat="44.59106" lon="3.04929">
        <ele>1339.4</ele>
        <time>2022-08-04T08:39:01Z</time>
      </trkpt>
      <trkpt lat="44.5911" lon="3.04918">
        <ele>1339</ele>
        <time>2022-08-04T08:39:08Z</time>
      </trkpt>
      <trkpt lat="44.59112" lon="3.04909">
        <ele>1338.8</ele>
        <time>2022-08-04T08:39:12Z</time>
      </trkpt>
      <trkpt lat="44.59116" lon="3.049">
        <ele>1338.6</ele>
        <time>2022-08-04T08:39:18Z</time>
      </trkpt>
      <trkpt lat="44.59121" lon="3.04887">
        <ele>1338.2</ele>
        <time>2022-08-04T08:39:26Z</time>
      </trkpt>
      <trkpt lat="44.59121" lon="3.04883">
        <ele>1338</ele>
        <time>2022-08-04T08:39:28Z</time>
      </trkpt>
      <trkpt lat="44.59125" lon="3.04876">
        <ele>1337.6</ele>
        <time>2022-08-04T08:39:33Z</time>
      </trkpt>
      <trkpt lat="44.59129" lon="3.04868">
        <ele>1337.1</ele>
        <time>2022-08-04T08:39:38Z</time>
      </trkpt>
      <trkpt lat="44.59131" lon="3.04861">
        <ele>1336.7</ele>
        <time>2022-08-04T08:39:42Z</time>
      </trkpt>
      <trkpt lat="44.59133" lon="3.04857">
        <ele>1336.6</ele>
        <time>2022-08-04T08:39:45Z</time>
      </trkpt>
      <trkpt lat="44.59134" lon="3.04855">
        <ele>1336.6</ele>
        <time>2022-08-04T08:39:50Z</time>
      </trkpt>
      <trkpt lat="44.59135" lon="3.04852">
        <ele>1336.5</ele>
        <time>2022-08-04T08:40:01Z</time>
      </trkpt>
      <trkpt lat="44.59138" lon="3.04845">
        <ele>1336.4</ele>
        <time>2022-08-04T08:40:06Z</time>
      </trkpt>
      <trkpt lat="44.5914" lon="3.0484">
        <ele>1336.3</ele>
        <time>2022-08-04T08:40:09Z</time>
      </trkpt>
      <trkpt lat="44.59145" lon="3.04826">
        <ele>1335.7</ele>
        <time>2022-08-04T08:40:17Z</time>
      </trkpt>
      <trkpt lat="44.59146" lon="3.04822">
        <ele>1335.5</ele>
        <time>2022-08-04T08:40:19Z</time>
      </trkpt>
      <trkpt lat="44.59152" lon="3.04811">
        <ele>1334.8</ele>
        <time>2022-08-04T08:40:27Z</time>
      </trkpt>
      <trkpt lat="44.59154" lon="3.04804">
        <ele>1334.5</ele>
        <time>2022-08-04T08:40:31Z</time>
      </trkpt>
      <trkpt lat="44.59156" lon="3.04798">
        <ele>1334.2</ele>
        <time>2022-08-04T08:40:35Z</time>
      </trkpt>
      <trkpt lat="44.59159" lon="3.04794">
        <ele>1334</ele>
        <time>2022-08-04T08:40:38Z</time>
      </trkpt>
      <trkpt lat="44.59159" lon="3.04792">
        <ele>1333.9</ele>
        <time>2022-08-04T08:40:39Z</time>
      </trkpt>
      <trkpt lat="44.59162" lon="3.04785">
        <ele>1333.5</ele>
        <time>2022-08-04T08:40:43Z</time>
      </trkpt>
      <trkpt lat="44.59165" lon="3.04778">
        <ele>1333</ele>
        <time>2022-08-04T08:40:48Z</time>
      </trkpt>
      <trkpt lat="44.59169" lon="3.04764">
        <ele>1332</ele>
        <time>2022-08-04T08:40:55Z</time>
      </trkpt>
      <trkpt lat="44.59169" lon="3.0476">
        <ele>1331.7</ele>
        <time>2022-08-04T08:40:57Z</time>
      </trkpt>
      <trkpt lat="44.59173" lon="3.04751">
        <ele>1331.1</ele>
        <time>2022-08-04T08:41:03Z</time>
      </trkpt>
      <trkpt lat="44.59176" lon="3.04745">
        <ele>1330.7</ele>
        <time>2022-08-04T08:41:07Z</time>
      </trkpt>
      <trkpt lat="44.59179" lon="3.04741">
        <ele>1330.3</ele>
        <time>2022-08-04T08:41:10Z</time>
      </trkpt>
      <trkpt lat="44.59184" lon="3.04727">
        <ele>1328.6</ele>
        <time>2022-08-04T08:41:19Z</time>
      </trkpt>
      <trkpt lat="44.59185" lon="3.04724">
        <ele>1328.3</ele>
        <time>2022-08-04T08:41:20Z</time>
      </trkpt>
      <trkpt lat="44.5919" lon="3.04711">
        <ele>1327.1</ele>
        <time>2022-08-04T08:41:29Z</time>
      </trkpt>
      <trkpt lat="44.5919" lon="3.0471">
        <ele>1327</ele>
        <time>2022-08-04T08:41:30Z</time>
      </trkpt>
      <trkpt lat="44.59197" lon="3.04695">
        <ele>1325.7</ele>
        <time>2022-08-04T08:41:39Z</time>
      </trkpt>
      <trkpt lat="44.59198" lon="3.04694">
        <ele>1325.6</ele>
        <time>2022-08-04T08:41:40Z</time>
      </trkpt>
      <trkpt lat="44.59201" lon="3.04682">
        <ele>1324.6</ele>
        <time>2022-08-04T08:41:47Z</time>
      </trkpt>
      <trkpt lat="44.59202" lon="3.04678">
        <ele>1324.3</ele>
        <time>2022-08-04T08:41:49Z</time>
      </trkpt>
      <trkpt lat="44.59209" lon="3.04662">
        <ele>1323.5</ele>
        <time>2022-08-04T08:41:59Z</time>
      </trkpt>
      <trkpt lat="44.59214" lon="3.04652">
        <ele>1323.3</ele>
        <time>2022-08-04T08:42:06Z</time>
      </trkpt>
      <trkpt lat="44.59217" lon="3.04646">
        <ele>1323.2</ele>
        <time>2022-08-04T08:42:09Z</time>
      </trkpt>
      <trkpt lat="44.59223" lon="3.0463">
        <ele>1322.9</ele>
        <time>2022-08-04T08:42:19Z</time>
      </trkpt>
      <trkpt lat="44.59224" lon="3.04624">
        <ele>1322.8</ele>
        <time>2022-08-04T08:42:22Z</time>
      </trkpt>
      <trkpt lat="44.59231" lon="3.04611">
        <ele>1322</ele>
        <time>2022-08-04T08:42:31Z</time>
      </trkpt>
      <trkpt lat="44.59233" lon="3.04605">
        <ele>1322</ele>
        <time>2022-08-04T08:42:35Z</time>
      </trkpt>
      <trkpt lat="44.59234" lon="3.04602">
        <ele>1321.9</ele>
        <time>2022-08-04T08:42:37Z</time>
      </trkpt>
      <trkpt lat="44.59235" lon="3.046">
        <ele>1321.8</ele>
        <time>2022-08-04T08:42:38Z</time>
      </trkpt>
      <trkpt lat="44.59237" lon="3.04593">
        <ele>1321.7</ele>
        <time>2022-08-04T08:42:42Z</time>
      </trkpt>
      <trkpt lat="44.5924" lon="3.04585">
        <ele>1321.5</ele>
        <time>2022-08-04T08:42:47Z</time>
      </trkpt>
      <trkpt lat="44.59241" lon="3.04578">
        <ele>1321</ele>
        <time>2022-08-04T08:42:51Z</time>
      </trkpt>
      <trkpt lat="44.59242" lon="3.04574">
        <ele>1320.8</ele>
        <time>2022-08-04T08:42:53Z</time>
      </trkpt>
      <trkpt lat="44.59246" lon="3.04565">
        <ele>1320</ele>
        <time>2022-08-04T08:42:58Z</time>
      </trkpt>
      <trkpt lat="44.5925" lon="3.04554">
        <ele>1319.1</ele>
        <time>2022-08-04T08:43:05Z</time>
      </trkpt>
      <trkpt lat="44.59256" lon="3.04541">
        <ele>1319.1</ele>
        <time>2022-08-04T08:43:13Z</time>
      </trkpt>
      <trkpt lat="44.59259" lon="3.04537">
        <ele>1318.9</ele>
        <time>2022-08-04T08:43:16Z</time>
      </trkpt>
      <trkpt lat="44.59263" lon="3.04524">
        <ele>1318.8</ele>
        <time>2022-08-04T08:43:24Z</time>
      </trkpt>
      <trkpt lat="44.59269" lon="3.0451">
        <ele>1318.7</ele>
        <time>2022-08-04T08:43:33Z</time>
      </trkpt>
      <trkpt lat="44.59276" lon="3.04493">
        <ele>1318.2</ele>
        <time>2022-08-04T08:43:43Z</time>
      </trkpt>
      <trkpt lat="44.59278" lon="3.0449">
        <ele>1318</ele>
        <time>2022-08-04T08:43:45Z</time>
      </trkpt>
      <trkpt lat="44.5928" lon="3.0448">
        <ele>1318</ele>
        <time>2022-08-04T08:43:51Z</time>
      </trkpt>
      <trkpt lat="44.59285" lon="3.04463">
        <ele>1318.2</ele>
        <time>2022-08-04T08:44:00Z</time>
      </trkpt>
      <trkpt lat="44.59291" lon="3.0445">
        <ele>1318.4</ele>
        <time>2022-08-04T08:44:10Z</time>
      </trkpt>
      <trkpt lat="44.59292" lon="3.04451">
        <ele>1318.4</ele>
        <time>2022-08-04T08:44:18Z</time>
      </trkpt>
      <trkpt lat="44.59291" lon="3.0445">
        <ele>1318.4</ele>
        <time>2022-08-04T08:44:59Z</time>
      </trkpt>
      <trkpt lat="44.59294" lon="3.04443">
        <ele>1318.5</ele>
        <time>2022-08-04T08:45:03Z</time>
      </trkpt>
      <trkpt lat="44.59296" lon="3.0444">
        <ele>1318.6</ele>
        <time>2022-08-04T08:45:05Z</time>
      </trkpt>
      <trkpt lat="44.59302" lon="3.04427">
        <ele>1318.9</ele>
        <time>2022-08-04T08:45:12Z</time>
      </trkpt>
      <trkpt lat="44.59305" lon="3.0442">
        <ele>1319</ele>
        <time>2022-08-04T08:45:19Z</time>
      </trkpt>
      <trkpt lat="44.59306" lon="3.04418">
        <ele>1318.9</ele>
        <time>2022-08-04T08:45:21Z</time>
      </trkpt>
      <trkpt lat="44.59309" lon="3.0441">
        <ele>1319.1</ele>
        <time>2022-08-04T08:45:26Z</time>
      </trkpt>
      <trkpt lat="44.59315" lon="3.04396">
        <ele>1319.4</ele>
        <time>2022-08-04T08:45:35Z</time>
      </trkpt>
      <trkpt lat="44.59321" lon="3.04382">
        <ele>1319.8</ele>
        <time>2022-08-04T08:45:44Z</time>
      </trkpt>
      <trkpt lat="44.59326" lon="3.0437">
        <ele>1320.7</ele>
        <time>2022-08-04T08:45:52Z</time>
      </trkpt>
      <trkpt lat="44.59328" lon="3.04366">
        <ele>1321.1</ele>
        <time>2022-08-04T08:45:55Z</time>
      </trkpt>
      <trkpt lat="44.59335" lon="3.04354">
        <ele>1322.9</ele>
        <time>2022-08-04T08:46:05Z</time>
      </trkpt>
      <trkpt lat="44.5934" lon="3.04338">
        <ele>1324.8</ele>
        <time>2022-08-04T08:46:15Z</time>
      </trkpt>
      <trkpt lat="44.59345" lon="3.04324">
        <ele>1325.8</ele>
        <time>2022-08-04T08:46:24Z</time>
      </trkpt>
      <trkpt lat="44.59349" lon="3.04314">
        <ele>1326.2</ele>
        <time>2022-08-04T08:46:31Z</time>
      </trkpt>
      <trkpt lat="44.59355" lon="3.04301">
        <ele>1326.2</ele>
        <time>2022-08-04T08:46:40Z</time>
      </trkpt>
      <trkpt lat="44.59357" lon="3.04298">
        <ele>1326.1</ele>
        <time>2022-08-04T08:46:42Z</time>
      </trkpt>
      <trkpt lat="44.59359" lon="3.04289">
        <ele>1326</ele>
        <time>2022-08-04T08:46:47Z</time>
      </trkpt>
      <trkpt lat="44.59364" lon="3.0428">
        <ele>1325.8</ele>
        <time>2022-08-04T08:46:53Z</time>
      </trkpt>
      <trkpt lat="44.59365" lon="3.04276">
        <ele>1325.7</ele>
        <time>2022-08-04T08:46:55Z</time>
      </trkpt>
      <trkpt lat="44.59367" lon="3.04272">
        <ele>1325.5</ele>
        <time>2022-08-04T08:46:58Z</time>
      </trkpt>
      <trkpt lat="44.59371" lon="3.04259">
        <ele>1325</ele>
        <time>2022-08-04T08:47:06Z</time>
      </trkpt>
      <trkpt lat="44.59374" lon="3.04249">
        <ele>1324.7</ele>
        <time>2022-08-04T08:47:12Z</time>
      </trkpt>
      <trkpt lat="44.5938" lon="3.04235">
        <ele>1324.3</ele>
        <time>2022-08-04T08:47:21Z</time>
      </trkpt>
      <trkpt lat="44.59381" lon="3.04234">
        <ele>1324.3</ele>
        <time>2022-08-04T08:47:22Z</time>
      </trkpt>
      <trkpt lat="44.59387" lon="3.0422">
        <ele>1324.2</ele>
        <time>2022-08-04T08:47:31Z</time>
      </trkpt>
      <trkpt lat="44.59389" lon="3.04217">
        <ele>1324.2</ele>
        <time>2022-08-04T08:47:33Z</time>
      </trkpt>
      <trkpt lat="44.59392" lon="3.04206">
        <ele>1324.3</ele>
        <time>2022-08-04T08:47:40Z</time>
      </trkpt>
      <trkpt lat="44.59394" lon="3.04202">
        <ele>1324.3</ele>
        <time>2022-08-04T08:47:42Z</time>
      </trkpt>
      <trkpt lat="44.59397" lon="3.04188">
        <ele>1324.6</ele>
        <time>2022-08-04T08:47:50Z</time>
      </trkpt>
      <trkpt lat="44.59399" lon="3.04181">
        <ele>1324.8</ele>
        <time>2022-08-04T08:47:54Z</time>
      </trkpt>
      <trkpt lat="44.594" lon="3.04177">
        <ele>1324.9</ele>
        <time>2022-08-04T08:47:57Z</time>
      </trkpt>
      <trkpt lat="44.59405" lon="3.04166">
        <ele>1324.9</ele>
        <time>2022-08-04T08:48:04Z</time>
      </trkpt>
      <trkpt lat="44.59406" lon="3.04164">
        <ele>1324.9</ele>
        <time>2022-08-04T08:48:05Z</time>
      </trkpt>
      <trkpt lat="44.5941" lon="3.04155">
        <ele>1325.2</ele>
        <time>2022-08-04T08:48:11Z</time>
      </trkpt>
      <trkpt lat="44.59413" lon="3.04149">
        <ele>1325.5</ele>
        <time>2022-08-04T08:48:15Z</time>
      </trkpt>
      <trkpt lat="44.59416" lon="3.04137">
        <ele>1326.2</ele>
        <time>2022-08-04T08:48:22Z</time>
      </trkpt>
      <trkpt lat="44.59419" lon="3.04126">
        <ele>1326.9</ele>
        <time>2022-08-04T08:48:29Z</time>
      </trkpt>
      <trkpt lat="44.59419" lon="3.04124">
        <ele>1327</ele>
        <time>2022-08-04T08:48:30Z</time>
      </trkpt>
      <trkpt lat="44.59424" lon="3.04111">
        <ele>1327.7</ele>
        <time>2022-08-04T08:48:38Z</time>
      </trkpt>
      <trkpt lat="44.59424" lon="3.0411">
        <ele>1327.8</ele>
        <time>2022-08-04T08:48:39Z</time>
      </trkpt>
      <trkpt lat="44.59426" lon="3.04103">
        <ele>1327.7</ele>
        <time>2022-08-04T08:48:43Z</time>
      </trkpt>
      <trkpt lat="44.5943" lon="3.04097">
        <ele>1327.6</ele>
        <time>2022-08-04T08:48:47Z</time>
      </trkpt>
      <trkpt lat="44.59432" lon="3.04091">
        <ele>1327.4</ele>
        <time>2022-08-04T08:48:51Z</time>
      </trkpt>
      <trkpt lat="44.59434" lon="3.04084">
        <ele>1327.2</ele>
        <time>2022-08-04T08:48:55Z</time>
      </trkpt>
      <trkpt lat="44.59441" lon="3.04068">
        <ele>1327</ele>
        <time>2022-08-04T08:49:05Z</time>
      </trkpt>
      <trkpt lat="44.59445" lon="3.04053">
        <ele>1326.9</ele>
        <time>2022-08-04T08:49:14Z</time>
      </trkpt>
      <trkpt lat="44.59451" lon="3.04041">
        <ele>1326.8</ele>
        <time>2022-08-04T08:49:22Z</time>
      </trkpt>
      <trkpt lat="44.59459" lon="3.04019">
        <ele>1327.3</ele>
        <time>2022-08-04T08:49:35Z</time>
      </trkpt>
      <trkpt lat="44.59465" lon="3.04004">
        <ele>1327.8</ele>
        <time>2022-08-04T08:49:45Z</time>
      </trkpt>
      <trkpt lat="44.59471" lon="3.03989">
        <ele>1328.4</ele>
        <time>2022-08-04T08:49:55Z</time>
      </trkpt>
      <trkpt lat="44.59474" lon="3.03981">
        <ele>1328.7</ele>
        <time>2022-08-04T08:50:00Z</time>
      </trkpt>
      <trkpt lat="44.59475" lon="3.03976">
        <ele>1329</ele>
        <time>2022-08-04T08:50:03Z</time>
      </trkpt>
      <trkpt lat="44.59479" lon="3.03965">
        <ele>1329.3</ele>
        <time>2022-08-04T08:50:10Z</time>
      </trkpt>
      <trkpt lat="44.59481" lon="3.03959">
        <ele>1329.6</ele>
        <time>2022-08-04T08:50:14Z</time>
      </trkpt>
      <trkpt lat="44.59483" lon="3.03955">
        <ele>1329.9</ele>
        <time>2022-08-04T08:50:17Z</time>
      </trkpt>
      <trkpt lat="44.5949" lon="3.03937">
        <ele>1331</ele>
        <time>2022-08-04T08:50:28Z</time>
      </trkpt>
      <trkpt lat="44.59494" lon="3.0392">
        <ele>1331.5</ele>
        <time>2022-08-04T08:50:38Z</time>
      </trkpt>
      <trkpt lat="44.59495" lon="3.03916">
        <ele>1331.6</ele>
        <time>2022-08-04T08:50:40Z</time>
      </trkpt>
      <trkpt lat="44.59497" lon="3.03906">
        <ele>1331.8</ele>
        <time>2022-08-04T08:50:46Z</time>
      </trkpt>
      <trkpt lat="44.59502" lon="3.03892">
        <ele>1332</ele>
        <time>2022-08-04T08:50:55Z</time>
      </trkpt>
      <trkpt lat="44.59507" lon="3.03876">
        <ele>1331.6</ele>
        <time>2022-08-04T08:51:04Z</time>
      </trkpt>
      <trkpt lat="44.5951" lon="3.0386">
        <ele>1331</ele>
        <time>2022-08-04T08:51:13Z</time>
      </trkpt>
      <trkpt lat="44.59514" lon="3.03851">
        <ele>1331.4</ele>
        <time>2022-08-04T08:51:19Z</time>
      </trkpt>
      <trkpt lat="44.59516" lon="3.03845">
        <ele>1331.6</ele>
        <time>2022-08-04T08:51:23Z</time>
      </trkpt>
      <trkpt lat="44.59516" lon="3.03843">
        <ele>1331.7</ele>
        <time>2022-08-04T08:51:24Z</time>
      </trkpt>
      <trkpt lat="44.59522" lon="3.03829">
        <ele>1332</ele>
        <time>2022-08-04T08:51:33Z</time>
      </trkpt>
      <trkpt lat="44.59527" lon="3.03812">
        <ele>1332</ele>
        <time>2022-08-04T08:51:43Z</time>
      </trkpt>
      <trkpt lat="44.59533" lon="3.03798">
        <ele>1332</ele>
        <time>2022-08-04T08:51:52Z</time>
      </trkpt>
      <trkpt lat="44.59533" lon="3.03796">
        <ele>1332.1</ele>
        <time>2022-08-04T08:51:53Z</time>
      </trkpt>
      <trkpt lat="44.59538" lon="3.03784">
        <ele>1332.1</ele>
        <time>2022-08-04T08:52:01Z</time>
      </trkpt>
      <trkpt lat="44.59538" lon="3.03785">
        <ele>1332.1</ele>
        <time>2022-08-04T08:52:05Z</time>
      </trkpt>
      <trkpt lat="44.59538" lon="3.03784">
        <ele>1332.1</ele>
        <time>2022-08-04T08:52:12Z</time>
      </trkpt>
      <trkpt lat="44.59538" lon="3.03783">
        <ele>1332.1</ele>
        <time>2022-08-04T08:52:39Z</time>
      </trkpt>
      <trkpt lat="44.5954" lon="3.03776">
        <ele>1332.1</ele>
        <time>2022-08-04T08:52:43Z</time>
      </trkpt>
      <trkpt lat="44.59544" lon="3.03762">
        <ele>1331.6</ele>
        <time>2022-08-04T08:52:50Z</time>
      </trkpt>
      <trkpt lat="44.59546" lon="3.03757">
        <ele>1331.4</ele>
        <time>2022-08-04T08:52:53Z</time>
      </trkpt>
      <trkpt lat="44.5955" lon="3.03744">
        <ele>1331.6</ele>
        <time>2022-08-04T08:53:01Z</time>
      </trkpt>
      <trkpt lat="44.59555" lon="3.0373">
        <ele>1332.5</ele>
        <time>2022-08-04T08:53:09Z</time>
      </trkpt>
      <trkpt lat="44.5956" lon="3.03717">
        <ele>1333.3</ele>
        <time>2022-08-04T08:53:17Z</time>
      </trkpt>
      <trkpt lat="44.59565" lon="3.03701">
        <ele>1333.7</ele>
        <time>2022-08-04T08:53:28Z</time>
      </trkpt>
      <trkpt lat="44.59571" lon="3.03686">
        <ele>1334.6</ele>
        <time>2022-08-04T08:53:38Z</time>
      </trkpt>
      <trkpt lat="44.59572" lon="3.03685">
        <ele>1334.7</ele>
        <time>2022-08-04T08:53:39Z</time>
      </trkpt>
      <trkpt lat="44.59574" lon="3.03677">
        <ele>1335.4</ele>
        <time>2022-08-04T08:53:44Z</time>
      </trkpt>
      <trkpt lat="44.59576" lon="3.03671">
        <ele>1335.9</ele>
        <time>2022-08-04T08:53:48Z</time>
      </trkpt>
      <trkpt lat="44.59576" lon="3.03668">
        <ele>1336.1</ele>
        <time>2022-08-04T08:53:49Z</time>
      </trkpt>
      <trkpt lat="44.5958" lon="3.03657">
        <ele>1337.6</ele>
        <time>2022-08-04T08:53:56Z</time>
      </trkpt>
      <trkpt lat="44.59583" lon="3.03648">
        <ele>1338.9</ele>
        <time>2022-08-04T08:54:02Z</time>
      </trkpt>
      <trkpt lat="44.59583" lon="3.03646">
        <ele>1339.2</ele>
        <time>2022-08-04T08:54:03Z</time>
      </trkpt>
      <trkpt lat="44.59586" lon="3.03637">
        <ele>1340.2</ele>
        <time>2022-08-04T08:54:09Z</time>
      </trkpt>
      <trkpt lat="44.5959" lon="3.03624">
        <ele>1340.8</ele>
        <time>2022-08-04T08:54:17Z</time>
      </trkpt>
      <trkpt lat="44.59594" lon="3.03613">
        <ele>1341.3</ele>
        <time>2022-08-04T08:54:24Z</time>
      </trkpt>
      <trkpt lat="44.59598" lon="3.03598">
        <ele>1341.8</ele>
        <time>2022-08-04T08:54:33Z</time>
      </trkpt>
      <trkpt lat="44.59599" lon="3.03592">
        <ele>1341.9</ele>
        <time>2022-08-04T08:54:36Z</time>
      </trkpt>
      <trkpt lat="44.59602" lon="3.03581">
        <ele>1342.3</ele>
        <time>2022-08-04T08:54:43Z</time>
      </trkpt>
      <trkpt lat="44.59604" lon="3.03577">
        <ele>1342.6</ele>
        <time>2022-08-04T08:54:46Z</time>
      </trkpt>
      <trkpt lat="44.59604" lon="3.03575">
        <ele>1342.6</ele>
        <time>2022-08-04T08:54:47Z</time>
      </trkpt>
      <trkpt lat="44.59608" lon="3.03564">
        <ele>1342.9</ele>
        <time>2022-08-04T08:54:54Z</time>
      </trkpt>
      <trkpt lat="44.59609" lon="3.03562">
        <ele>1342.9</ele>
        <time>2022-08-04T08:54:55Z</time>
      </trkpt>
      <trkpt lat="44.59612" lon="3.03551">
        <ele>1343.1</ele>
        <time>2022-08-04T08:55:02Z</time>
      </trkpt>
      <trkpt lat="44.59613" lon="3.03548">
        <ele>1343.1</ele>
        <time>2022-08-04T08:55:04Z</time>
      </trkpt>
      <trkpt lat="44.59616" lon="3.03535">
        <ele>1343.3</ele>
        <time>2022-08-04T08:55:12Z</time>
      </trkpt>
      <trkpt lat="44.59619" lon="3.03531">
        <ele>1343.6</ele>
        <time>2022-08-04T08:55:15Z</time>
      </trkpt>
      <trkpt lat="44.59622" lon="3.0352">
        <ele>1343.8</ele>
        <time>2022-08-04T08:55:21Z</time>
      </trkpt>
      <trkpt lat="44.59628" lon="3.03505">
        <ele>1344.2</ele>
        <time>2022-08-04T08:55:30Z</time>
      </trkpt>
      <trkpt lat="44.59632" lon="3.03491">
        <ele>1344.5</ele>
        <time>2022-08-04T08:55:39Z</time>
      </trkpt>
      <trkpt lat="44.59638" lon="3.03474">
        <ele>1345</ele>
        <time>2022-08-04T08:55:50Z</time>
      </trkpt>
      <trkpt lat="44.59642" lon="3.0346">
        <ele>1345.2</ele>
        <time>2022-08-04T08:55:58Z</time>
      </trkpt>
      <trkpt lat="44.59643" lon="3.03457">
        <ele>1345.3</ele>
        <time>2022-08-04T08:56:00Z</time>
      </trkpt>
      <trkpt lat="44.59646" lon="3.03447">
        <ele>1345.5</ele>
        <time>2022-08-04T08:56:06Z</time>
      </trkpt>
      <trkpt lat="44.59654" lon="3.03427">
        <ele>1346.4</ele>
        <time>2022-08-04T08:56:19Z</time>
      </trkpt>
      <trkpt lat="44.59657" lon="3.03416">
        <ele>1346.7</ele>
        <time>2022-08-04T08:56:26Z</time>
      </trkpt>
      <trkpt lat="44.59662" lon="3.03401">
        <ele>1346.9</ele>
        <time>2022-08-04T08:56:35Z</time>
      </trkpt>
      <trkpt lat="44.59666" lon="3.03389">
        <ele>1347</ele>
        <time>2022-08-04T08:56:42Z</time>
      </trkpt>
      <trkpt lat="44.5967" lon="3.03375">
        <ele>1347.1</ele>
        <time>2022-08-04T08:56:50Z</time>
      </trkpt>
      <trkpt lat="44.59672" lon="3.03371">
        <ele>1347.1</ele>
        <time>2022-08-04T08:56:53Z</time>
      </trkpt>
      <trkpt lat="44.59677" lon="3.03358">
        <ele>1346.9</ele>
        <time>2022-08-04T08:57:01Z</time>
      </trkpt>
      <trkpt lat="44.5968" lon="3.03352">
        <ele>1346.7</ele>
        <time>2022-08-04T08:57:09Z</time>
      </trkpt>
      <trkpt lat="44.5968" lon="3.03353">
        <ele>1346.7</ele>
        <time>2022-08-04T08:57:11Z</time>
      </trkpt>
      <trkpt lat="44.5968" lon="3.03353">
        <ele>1346.7</ele>
        <time>2022-08-04T08:57:18Z</time>
      </trkpt>
      <trkpt lat="44.5968" lon="3.03352">
        <ele>1346.7</ele>
        <time>2022-08-04T08:57:28Z</time>
      </trkpt>
      <trkpt lat="44.59683" lon="3.03347">
        <ele>1346.5</ele>
        <time>2022-08-04T08:57:31Z</time>
      </trkpt>
      <trkpt lat="44.59683" lon="3.03345">
        <ele>1346.4</ele>
        <time>2022-08-04T08:57:32Z</time>
      </trkpt>
      <trkpt lat="44.59688" lon="3.03334">
        <ele>1346</ele>
        <time>2022-08-04T08:57:38Z</time>
      </trkpt>
      <trkpt lat="44.59694" lon="3.03324">
        <ele>1345.7</ele>
        <time>2022-08-04T08:57:45Z</time>
      </trkpt>
      <trkpt lat="44.59695" lon="3.03323">
        <ele>1345.6</ele>
        <time>2022-08-04T08:57:46Z</time>
      </trkpt>
      <trkpt lat="44.59697" lon="3.03314">
        <ele>1345.3</ele>
        <time>2022-08-04T08:57:51Z</time>
      </trkpt>
      <trkpt lat="44.597" lon="3.0331">
        <ele>1345.2</ele>
        <time>2022-08-04T08:57:54Z</time>
      </trkpt>
      <trkpt lat="44.59703" lon="3.03304">
        <ele>1345</ele>
        <time>2022-08-04T08:57:58Z</time>
      </trkpt>
      <trkpt lat="44.59705" lon="3.033">
        <ele>1344.9</ele>
        <time>2022-08-04T08:58:01Z</time>
      </trkpt>
      <trkpt lat="44.59707" lon="3.03298">
        <ele>1344.9</ele>
        <time>2022-08-04T08:58:03Z</time>
      </trkpt>
      <trkpt lat="44.59711" lon="3.0329">
        <ele>1344.7</ele>
        <time>2022-08-04T08:58:08Z</time>
      </trkpt>
      <trkpt lat="44.59712" lon="3.03289">
        <ele>1344.6</ele>
        <time>2022-08-04T08:58:09Z</time>
      </trkpt>
      <trkpt lat="44.59715" lon="3.03282">
        <ele>1344.4</ele>
        <time>2022-08-04T08:58:14Z</time>
      </trkpt>
      <trkpt lat="44.59721" lon="3.03271">
        <ele>1344</ele>
        <time>2022-08-04T08:58:22Z</time>
      </trkpt>
      <trkpt lat="44.59724" lon="3.03267">
        <ele>1344</ele>
        <time>2022-08-04T08:58:25Z</time>
      </trkpt>
      <trkpt lat="44.59724" lon="3.03268">
        <ele>1344</ele>
        <time>2022-08-04T08:58:28Z</time>
      </trkpt>
      <trkpt lat="44.59725" lon="3.03264">
        <ele>1344</ele>
        <time>2022-08-04T08:58:34Z</time>
      </trkpt>
      <trkpt lat="44.59727" lon="3.03263">
        <ele>1344.1</ele>
        <time>2022-08-04T08:58:35Z</time>
      </trkpt>
      <trkpt lat="44.59728" lon="3.03262">
        <ele>1344.1</ele>
        <time>2022-08-04T08:58:36Z</time>
      </trkpt>
      <trkpt lat="44.59732" lon="3.03252">
        <ele>1344</ele>
        <time>2022-08-04T08:58:43Z</time>
      </trkpt>
      <trkpt lat="44.59733" lon="3.0325">
        <ele>1344</ele>
        <time>2022-08-04T08:58:44Z</time>
      </trkpt>
      <trkpt lat="44.59738" lon="3.03238">
        <ele>1343.8</ele>
        <time>2022-08-04T08:58:53Z</time>
      </trkpt>
      <trkpt lat="44.59743" lon="3.03228">
        <ele>1343.4</ele>
        <time>2022-08-04T08:59:00Z</time>
      </trkpt>
      <trkpt lat="44.59747" lon="3.03219">
        <ele>1343</ele>
        <time>2022-08-04T08:59:06Z</time>
      </trkpt>
      <trkpt lat="44.59755" lon="3.03209">
        <ele>1342.5</ele>
        <time>2022-08-04T08:59:14Z</time>
      </trkpt>
      <trkpt lat="44.59756" lon="3.03205">
        <ele>1342.3</ele>
        <time>2022-08-04T08:59:16Z</time>
      </trkpt>
      <trkpt lat="44.59759" lon="3.03201">
        <ele>1342</ele>
        <time>2022-08-04T08:59:19Z</time>
      </trkpt>
      <trkpt lat="44.59766" lon="3.03195">
        <ele>1341.4</ele>
        <time>2022-08-04T08:59:25Z</time>
      </trkpt>
      <trkpt lat="44.59769" lon="3.03192">
        <ele>1341.2</ele>
        <time>2022-08-04T08:59:28Z</time>
      </trkpt>
      <trkpt lat="44.5977" lon="3.03192">
        <ele>1341.2</ele>
        <time>2022-08-04T08:59:29Z</time>
      </trkpt>
      <trkpt lat="44.59771" lon="3.03192">
        <ele>1341.1</ele>
        <time>2022-08-04T08:59:33Z</time>
      </trkpt>
      <trkpt lat="44.59772" lon="3.03189">
        <ele>1341</ele>
        <time>2022-08-04T08:59:37Z</time>
      </trkpt>
      <trkpt lat="44.59771" lon="3.03189">
        <ele>1341</ele>
        <time>2022-08-04T08:59:39Z</time>
      </trkpt>
      <trkpt lat="44.5977" lon="3.03188">
        <ele>1341</ele>
        <time>2022-08-04T08:59:41Z</time>
      </trkpt>
      <trkpt lat="44.59769" lon="3.03184">
        <ele>1340.9</ele>
        <time>2022-08-04T08:59:45Z</time>
      </trkpt>
      <trkpt lat="44.5977" lon="3.03183">
        <ele>1340.9</ele>
        <time>2022-08-04T08:59:49Z</time>
      </trkpt>
      <trkpt lat="44.59771" lon="3.03183">
        <ele>1340.8</ele>
        <time>2022-08-04T08:59:52Z</time>
      </trkpt>
      <trkpt lat="44.5977" lon="3.03183">
        <ele>1340.9</ele>
        <time>2022-08-04T09:00:01Z</time>
      </trkpt>
      <trkpt lat="44.5977" lon="3.03183">
        <ele>1340.9</ele>
        <time>2022-08-04T09:00:04Z</time>
      </trkpt>
      <trkpt lat="44.5977" lon="3.03183">
        <ele>1340.9</ele>
        <time>2022-08-04T09:00:08Z</time>
      </trkpt>
      <trkpt lat="44.59771" lon="3.03181">
        <ele>1340.8</ele>
        <time>2022-08-04T09:00:09Z</time>
      </trkpt>
      <trkpt lat="44.59774" lon="3.03171">
        <ele>1340.3</ele>
        <time>2022-08-04T09:00:14Z</time>
      </trkpt>
      <trkpt lat="44.59778" lon="3.03162">
        <ele>1340</ele>
        <time>2022-08-04T09:00:19Z</time>
      </trkpt>
      <trkpt lat="44.59784" lon="3.03148">
        <ele>1339.5</ele>
        <time>2022-08-04T09:00:29Z</time>
      </trkpt>
      <trkpt lat="44.59786" lon="3.03145">
        <ele>1339.2</ele>
        <time>2022-08-04T09:00:31Z</time>
      </trkpt>
      <trkpt lat="44.59787" lon="3.03144">
        <ele>1339.1</ele>
        <time>2022-08-04T09:00:32Z</time>
      </trkpt>
      <trkpt lat="44.5979" lon="3.03136">
        <ele>1338.6</ele>
        <time>2022-08-04T09:00:37Z</time>
      </trkpt>
      <trkpt lat="44.59793" lon="3.03131">
        <ele>1338.3</ele>
        <time>2022-08-04T09:00:40Z</time>
      </trkpt>
      <trkpt lat="44.59794" lon="3.03129">
        <ele>1338</ele>
        <time>2022-08-04T09:00:42Z</time>
      </trkpt>
      <trkpt lat="44.59797" lon="3.03122">
        <ele>1337.5</ele>
        <time>2022-08-04T09:00:47Z</time>
      </trkpt>
      <trkpt lat="44.59798" lon="3.03119">
        <ele>1337.3</ele>
        <time>2022-08-04T09:00:49Z</time>
      </trkpt>
      <trkpt lat="44.59801" lon="3.03114">
        <ele>1336.8</ele>
        <time>2022-08-04T09:00:53Z</time>
      </trkpt>
      <trkpt lat="44.59802" lon="3.03109">
        <ele>1336.5</ele>
        <time>2022-08-04T09:00:56Z</time>
      </trkpt>
      <trkpt lat="44.59803" lon="3.03105">
        <ele>1336.3</ele>
        <time>2022-08-04T09:00:58Z</time>
      </trkpt>
      <trkpt lat="44.59808" lon="3.03092">
        <ele>1335.9</ele>
        <time>2022-08-04T09:01:06Z</time>
      </trkpt>
      <trkpt lat="44.5981" lon="3.03084">
        <ele>1335.8</ele>
        <time>2022-08-04T09:01:10Z</time>
      </trkpt>
      <trkpt lat="44.59811" lon="3.03081">
        <ele>1335.8</ele>
        <time>2022-08-04T09:01:12Z</time>
      </trkpt>
      <trkpt lat="44.59812" lon="3.03076">
        <ele>1335.8</ele>
        <time>2022-08-04T09:01:15Z</time>
      </trkpt>
      <trkpt lat="44.59812" lon="3.03074">
        <ele>1335.8</ele>
        <time>2022-08-04T09:01:16Z</time>
      </trkpt>
      <trkpt lat="44.59812" lon="3.03072">
        <ele>1335.8</ele>
        <time>2022-08-04T09:01:17Z</time>
      </trkpt>
      <trkpt lat="44.59813" lon="3.0307">
        <ele>1335.7</ele>
        <time>2022-08-04T09:01:18Z</time>
      </trkpt>
      <trkpt lat="44.59813" lon="3.03068">
        <ele>1335.7</ele>
        <time>2022-08-04T09:01:19Z</time>
      </trkpt>
      <trkpt lat="44.59813" lon="3.03066">
        <ele>1335.7</ele>
        <time>2022-08-04T09:01:20Z</time>
      </trkpt>
      <trkpt lat="44.59813" lon="3.03065">
        <ele>1335.7</ele>
        <time>2022-08-04T09:01:21Z</time>
      </trkpt>
      <trkpt lat="44.59813" lon="3.03063">
        <ele>1335.7</ele>
        <time>2022-08-04T09:01:22Z</time>
      </trkpt>
      <trkpt lat="44.59814" lon="3.03061">
        <ele>1335.7</ele>
        <time>2022-08-04T09:01:23Z</time>
      </trkpt>
      <trkpt lat="44.59815" lon="3.03058">
        <ele>1335.7</ele>
        <time>2022-08-04T09:01:25Z</time>
      </trkpt>
      <trkpt lat="44.59815" lon="3.03056">
        <ele>1335.7</ele>
        <time>2022-08-04T09:01:26Z</time>
      </trkpt>
      <trkpt lat="44.59815" lon="3.03054">
        <ele>1335.6</ele>
        <time>2022-08-04T09:01:27Z</time>
      </trkpt>
      <trkpt lat="44.59816" lon="3.03052">
        <ele>1335.6</ele>
        <time>2022-08-04T09:01:28Z</time>
      </trkpt>
      <trkpt lat="44.59816" lon="3.03051">
        <ele>1335.6</ele>
        <time>2022-08-04T09:01:29Z</time>
      </trkpt>
      <trkpt lat="44.59816" lon="3.03049">
        <ele>1335.6</ele>
        <time>2022-08-04T09:01:30Z</time>
      </trkpt>
      <trkpt lat="44.59816" lon="3.03045">
        <ele>1335.6</ele>
        <time>2022-08-04T09:01:32Z</time>
      </trkpt>
      <trkpt lat="44.59816" lon="3.03043">
        <ele>1335.5</ele>
        <time>2022-08-04T09:01:33Z</time>
      </trkpt>
      <trkpt lat="44.59817" lon="3.0304">
        <ele>1335.5</ele>
        <time>2022-08-04T09:01:35Z</time>
      </trkpt>
      <trkpt lat="44.59817" lon="3.03038">
        <ele>1335.5</ele>
        <time>2022-08-04T09:01:36Z</time>
      </trkpt>
      <trkpt lat="44.59816" lon="3.03034">
        <ele>1335.5</ele>
        <time>2022-08-04T09:01:38Z</time>
      </trkpt>
      <trkpt lat="44.59816" lon="3.03031">
        <ele>1335.5</ele>
        <time>2022-08-04T09:01:40Z</time>
      </trkpt>
      <trkpt lat="44.59815" lon="3.03027">
        <ele>1335.6</ele>
        <time>2022-08-04T09:01:42Z</time>
      </trkpt>
      <trkpt lat="44.59815" lon="3.03022">
        <ele>1335.5</ele>
        <time>2022-08-04T09:01:45Z</time>
      </trkpt>
      <trkpt lat="44.59815" lon="3.0302">
        <ele>1335.5</ele>
        <time>2022-08-04T09:01:46Z</time>
      </trkpt>
      <trkpt lat="44.59815" lon="3.03018">
        <ele>1335.5</ele>
        <time>2022-08-04T09:01:47Z</time>
      </trkpt>
      <trkpt lat="44.59815" lon="3.03017">
        <ele>1335.5</ele>
        <time>2022-08-04T09:01:48Z</time>
      </trkpt>
      <trkpt lat="44.59815" lon="3.03015">
        <ele>1335.4</ele>
        <time>2022-08-04T09:01:49Z</time>
      </trkpt>
      <trkpt lat="44.59816" lon="3.03012">
        <ele>1335.2</ele>
        <time>2022-08-04T09:01:51Z</time>
      </trkpt>
      <trkpt lat="44.59817" lon="3.03011">
        <ele>1335.1</ele>
        <time>2022-08-04T09:01:52Z</time>
      </trkpt>
      <trkpt lat="44.59817" lon="3.0301">
        <ele>1335</ele>
        <time>2022-08-04T09:01:53Z</time>
      </trkpt>
      <trkpt lat="44.59818" lon="3.03006">
        <ele>1334.9</ele>
        <time>2022-08-04T09:01:55Z</time>
      </trkpt>
      <trkpt lat="44.59818" lon="3.03005">
        <ele>1334.9</ele>
        <time>2022-08-04T09:01:56Z</time>
      </trkpt>
      <trkpt lat="44.5982" lon="3.02991">
        <ele>1334.2</ele>
        <time>2022-08-04T09:02:04Z</time>
      </trkpt>
      <trkpt lat="44.59821" lon="3.02987">
        <ele>1334</ele>
        <time>2022-08-04T09:02:06Z</time>
      </trkpt>
      <trkpt lat="44.59824" lon="3.0298">
        <ele>1333.4</ele>
        <time>2022-08-04T09:02:12Z</time>
      </trkpt>
      <trkpt lat="44.59824" lon="3.0298">
        <ele>1333.4</ele>
        <time>2022-08-04T09:02:14Z</time>
      </trkpt>
      <trkpt lat="44.59824" lon="3.0298">
        <ele>1333.5</ele>
        <time>2022-08-04T09:02:15Z</time>
      </trkpt>
      <trkpt lat="44.59822" lon="3.02979">
        <ele>1333.7</ele>
        <time>2022-08-04T09:02:18Z</time>
      </trkpt>
      <trkpt lat="44.59822" lon="3.02978">
        <ele>1333.7</ele>
        <time>2022-08-04T09:02:28Z</time>
      </trkpt>
      <trkpt lat="44.59822" lon="3.02978">
        <ele>1333.7</ele>
        <time>2022-08-04T09:02:29Z</time>
      </trkpt>
      <trkpt lat="44.59823" lon="3.02979">
        <ele>1333.6</ele>
        <time>2022-08-04T09:02:43Z</time>
      </trkpt>
      <trkpt lat="44.59824" lon="3.02972">
        <ele>1333.3</ele>
        <time>2022-08-04T09:02:46Z</time>
      </trkpt>
      <trkpt lat="44.59827" lon="3.02956">
        <ele>1332.9</ele>
        <time>2022-08-04T09:02:54Z</time>
      </trkpt>
      <trkpt lat="44.5983" lon="3.02943">
        <ele>1332.5</ele>
        <time>2022-08-04T09:03:01Z</time>
      </trkpt>
      <trkpt lat="44.59832" lon="3.02927">
        <ele>1332.3</ele>
        <time>2022-08-04T09:03:10Z</time>
      </trkpt>
      <trkpt lat="44.59831" lon="3.0291">
        <ele>1332.4</ele>
        <time>2022-08-04T09:03:19Z</time>
      </trkpt>
      <trkpt lat="44.59834" lon="3.02894">
        <ele>1331.9</ele>
        <time>2022-08-04T09:03:28Z</time>
      </trkpt>
      <trkpt lat="44.59836" lon="3.02885">
        <ele>1331.8</ele>
        <time>2022-08-04T09:03:33Z</time>
      </trkpt>
      <trkpt lat="44.59836" lon="3.02874">
        <ele>1331.7</ele>
        <time>2022-08-04T09:03:39Z</time>
      </trkpt>
      <trkpt lat="44.59836" lon="3.02861">
        <ele>1331.7</ele>
        <time>2022-08-04T09:03:47Z</time>
      </trkpt>
      <trkpt lat="44.59838" lon="3.02846">
        <ele>1332</ele>
        <time>2022-08-04T09:03:57Z</time>
      </trkpt>
      <trkpt lat="44.59839" lon="3.0283">
        <ele>1332.2</ele>
        <time>2022-08-04T09:04:07Z</time>
      </trkpt>
      <trkpt lat="44.59835" lon="3.02806">
        <ele>1331.9</ele>
        <time>2022-08-04T09:04:21Z</time>
      </trkpt>
      <trkpt lat="44.59832" lon="3.02794">
        <ele>1331.8</ele>
        <time>2022-08-04T09:04:28Z</time>
      </trkpt>
      <trkpt lat="44.59831" lon="3.02788">
        <ele>1331.9</ele>
        <time>2022-08-04T09:04:31Z</time>
      </trkpt>
      <trkpt lat="44.59828" lon="3.02774">
        <ele>1332.1</ele>
        <time>2022-08-04T09:04:40Z</time>
      </trkpt>
      <trkpt lat="44.59826" lon="3.02767">
        <ele>1332.3</ele>
        <time>2022-08-04T09:04:47Z</time>
      </trkpt>
      <trkpt lat="44.59824" lon="3.02759">
        <ele>1332.3</ele>
        <time>2022-08-04T09:04:53Z</time>
      </trkpt>
      <trkpt lat="44.59819" lon="3.02745">
        <ele>1332.6</ele>
        <time>2022-08-04T09:05:02Z</time>
      </trkpt>
      <trkpt lat="44.59813" lon="3.02728">
        <ele>1332.9</ele>
        <time>2022-08-04T09:05:14Z</time>
      </trkpt>
      <trkpt lat="44.59809" lon="3.02716">
        <ele>1332.9</ele>
        <time>2022-08-04T09:05:22Z</time>
      </trkpt>
      <trkpt lat="44.59807" lon="3.02712">
        <ele>1333</ele>
        <time>2022-08-04T09:05:25Z</time>
      </trkpt>
      <trkpt lat="44.59803" lon="3.027">
        <ele>1333.3</ele>
        <time>2022-08-04T09:05:33Z</time>
      </trkpt>
      <trkpt lat="44.59797" lon="3.0269">
        <ele>1333.8</ele>
        <time>2022-08-04T09:05:41Z</time>
      </trkpt>
      <trkpt lat="44.59793" lon="3.02684">
        <ele>1334.1</ele>
        <time>2022-08-04T09:05:45Z</time>
      </trkpt>
      <trkpt lat="44.59789" lon="3.02676">
        <ele>1334.4</ele>
        <time>2022-08-04T09:05:51Z</time>
      </trkpt>
      <trkpt lat="44.59785" lon="3.02667">
        <ele>1334.7</ele>
        <time>2022-08-04T09:05:58Z</time>
      </trkpt>
      <trkpt lat="44.59785" lon="3.02666">
        <ele>1334.8</ele>
        <time>2022-08-04T09:05:59Z</time>
      </trkpt>
      <trkpt lat="44.5978" lon="3.02654">
        <ele>1335.4</ele>
        <time>2022-08-04T09:06:07Z</time>
      </trkpt>
      <trkpt lat="44.59774" lon="3.02639">
        <ele>1336.3</ele>
        <time>2022-08-04T09:06:17Z</time>
      </trkpt>
      <trkpt lat="44.59773" lon="3.02638">
        <ele>1336.4</ele>
        <time>2022-08-04T09:06:18Z</time>
      </trkpt>
      <trkpt lat="44.59768" lon="3.02627">
        <ele>1337.1</ele>
        <time>2022-08-04T09:06:28Z</time>
      </trkpt>
      <trkpt lat="44.59767" lon="3.02625">
        <ele>1337.3</ele>
        <time>2022-08-04T09:06:38Z</time>
      </trkpt>
      <trkpt lat="44.59767" lon="3.02625">
        <ele>1337.3</ele>
        <time>2022-08-04T09:06:49Z</time>
      </trkpt>
      <trkpt lat="44.59767" lon="3.02625">
        <ele>1337.3</ele>
        <time>2022-08-04T09:06:52Z</time>
      </trkpt>
      <trkpt lat="44.59766" lon="3.02625">
        <ele>1337.3</ele>
        <time>2022-08-04T09:07:04Z</time>
      </trkpt>
      <trkpt lat="44.59765" lon="3.02619">
        <ele>1337.7</ele>
        <time>2022-08-04T09:07:07Z</time>
      </trkpt>
      <trkpt lat="44.59764" lon="3.02613">
        <ele>1338</ele>
        <time>2022-08-04T09:07:13Z</time>
      </trkpt>
      <trkpt lat="44.59763" lon="3.0261">
        <ele>1338.1</ele>
        <time>2022-08-04T09:07:15Z</time>
      </trkpt>
      <trkpt lat="44.59761" lon="3.02605">
        <ele>1338.2</ele>
        <time>2022-08-04T09:07:18Z</time>
      </trkpt>
      <trkpt lat="44.59753" lon="3.02589">
        <ele>1338.8</ele>
        <time>2022-08-04T09:07:28Z</time>
      </trkpt>
      <trkpt lat="44.59749" lon="3.02575">
        <ele>1339</ele>
        <time>2022-08-04T09:07:36Z</time>
      </trkpt>
      <trkpt lat="44.59748" lon="3.02571">
        <ele>1339.1</ele>
        <time>2022-08-04T09:07:38Z</time>
      </trkpt>
      <trkpt lat="44.59748" lon="3.0257">
        <ele>1339.1</ele>
        <time>2022-08-04T09:07:39Z</time>
      </trkpt>
      <trkpt lat="44.59744" lon="3.02556">
        <ele>1339.2</ele>
        <time>2022-08-04T09:07:48Z</time>
      </trkpt>
      <trkpt lat="44.59745" lon="3.02555">
        <ele>1339.2</ele>
        <time>2022-08-04T09:07:49Z</time>
      </trkpt>
      <trkpt lat="44.59746" lon="3.02554">
        <ele>1339.1</ele>
        <time>2022-08-04T09:07:53Z</time>
      </trkpt>
      <trkpt lat="44.59746" lon="3.02555">
        <ele>1339.1</ele>
        <time>2022-08-04T09:08:01Z</time>
      </trkpt>
      <trkpt lat="44.59745" lon="3.02554">
        <ele>1339.1</ele>
        <time>2022-08-04T09:08:26Z</time>
      </trkpt>
      <trkpt lat="44.59744" lon="3.02552">
        <ele>1339.1</ele>
        <time>2022-08-04T09:08:30Z</time>
      </trkpt>
      <trkpt lat="44.59743" lon="3.0255">
        <ele>1339.1</ele>
        <time>2022-08-04T09:08:44Z</time>
      </trkpt>
      <trkpt lat="44.59744" lon="3.02551">
        <ele>1339.1</ele>
        <time>2022-08-04T09:09:58Z</time>
      </trkpt>
      <trkpt lat="44.59745" lon="3.02552">
        <ele>1339.1</ele>
        <time>2022-08-04T09:10:11Z</time>
      </trkpt>
      <trkpt lat="44.59745" lon="3.02554">
        <ele>1339.1</ele>
        <time>2022-08-04T09:10:14Z</time>
      </trkpt>
      <trkpt lat="44.59746" lon="3.02556">
        <ele>1339.1</ele>
        <time>2022-08-04T09:10:24Z</time>
      </trkpt>
      <trkpt lat="44.59746" lon="3.02556">
        <ele>1339.1</ele>
        <time>2022-08-04T09:10:42Z</time>
      </trkpt>
      <trkpt lat="44.59743" lon="3.0255">
        <ele>1339.1</ele>
        <time>2022-08-04T09:10:46Z</time>
      </trkpt>
      <trkpt lat="44.59735" lon="3.02534">
        <ele>1339.2</ele>
        <time>2022-08-04T09:10:56Z</time>
      </trkpt>
      <trkpt lat="44.59726" lon="3.02515">
        <ele>1339.3</ele>
        <time>2022-08-04T09:11:09Z</time>
      </trkpt>
      <trkpt lat="44.59719" lon="3.02498">
        <ele>1339.4</ele>
        <time>2022-08-04T09:11:21Z</time>
      </trkpt>
      <trkpt lat="44.59718" lon="3.02497">
        <ele>1339.4</ele>
        <time>2022-08-04T09:11:22Z</time>
      </trkpt>
      <trkpt lat="44.59715" lon="3.02488">
        <ele>1339.7</ele>
        <time>2022-08-04T09:11:28Z</time>
      </trkpt>
      <trkpt lat="44.59708" lon="3.02474">
        <ele>1340</ele>
        <time>2022-08-04T09:11:38Z</time>
      </trkpt>
      <trkpt lat="44.59699" lon="3.02458">
        <ele>1340.2</ele>
        <time>2022-08-04T09:11:50Z</time>
      </trkpt>
      <trkpt lat="44.59695" lon="3.02452">
        <ele>1340.2</ele>
        <time>2022-08-04T09:11:55Z</time>
      </trkpt>
      <trkpt lat="44.59692" lon="3.02449">
        <ele>1340.2</ele>
        <time>2022-08-04T09:11:58Z</time>
      </trkpt>
      <trkpt lat="44.59685" lon="3.02446">
        <ele>1340.1</ele>
        <time>2022-08-04T09:12:04Z</time>
      </trkpt>
      <trkpt lat="44.59683" lon="3.02445">
        <ele>1340</ele>
        <time>2022-08-04T09:12:06Z</time>
      </trkpt>
      <trkpt lat="44.59676" lon="3.0244">
        <ele>1339.6</ele>
        <time>2022-08-04T09:12:13Z</time>
      </trkpt>
      <trkpt lat="44.59668" lon="3.02434">
        <ele>1339.2</ele>
        <time>2022-08-04T09:12:21Z</time>
      </trkpt>
      <trkpt lat="44.59659" lon="3.02429">
        <ele>1338.9</ele>
        <time>2022-08-04T09:12:28Z</time>
      </trkpt>
      <trkpt lat="44.59656" lon="3.02429">
        <ele>1338.9</ele>
        <time>2022-08-04T09:12:31Z</time>
      </trkpt>
      <trkpt lat="44.59649" lon="3.02424">
        <ele>1338.5</ele>
        <time>2022-08-04T09:12:37Z</time>
      </trkpt>
      <trkpt lat="44.59644" lon="3.02421">
        <ele>1338.3</ele>
        <time>2022-08-04T09:12:41Z</time>
      </trkpt>
      <trkpt lat="44.59632" lon="3.02415">
        <ele>1338.2</ele>
        <time>2022-08-04T09:12:53Z</time>
      </trkpt>
      <trkpt lat="44.59631" lon="3.02413">
        <ele>1338.2</ele>
        <time>2022-08-04T09:12:58Z</time>
      </trkpt>
      <trkpt lat="44.59629" lon="3.02412">
        <ele>1338.2</ele>
        <time>2022-08-04T09:13:05Z</time>
      </trkpt>
      <trkpt lat="44.59628" lon="3.02411">
        <ele>1338.2</ele>
        <time>2022-08-04T09:13:06Z</time>
      </trkpt>
      <trkpt lat="44.59618" lon="3.02408">
        <ele>1338.4</ele>
        <time>2022-08-04T09:13:14Z</time>
      </trkpt>
      <trkpt lat="44.59607" lon="3.02402">
        <ele>1338.8</ele>
        <time>2022-08-04T09:13:24Z</time>
      </trkpt>
      <trkpt lat="44.59599" lon="3.02397">
        <ele>1339.3</ele>
        <time>2022-08-04T09:13:32Z</time>
      </trkpt>
      <trkpt lat="44.59597" lon="3.02397">
        <ele>1339.4</ele>
        <time>2022-08-04T09:13:33Z</time>
      </trkpt>
      <trkpt lat="44.59587" lon="3.02389">
        <ele>1339.8</ele>
        <time>2022-08-04T09:13:43Z</time>
      </trkpt>
      <trkpt lat="44.59574" lon="3.02382">
        <ele>1340.2</ele>
        <time>2022-08-04T09:13:55Z</time>
      </trkpt>
      <trkpt lat="44.59566" lon="3.02381">
        <ele>1340.7</ele>
        <time>2022-08-04T09:14:02Z</time>
      </trkpt>
      <trkpt lat="44.59565" lon="3.02384">
        <ele>1341</ele>
        <time>2022-08-04T09:14:08Z</time>
      </trkpt>
      <trkpt lat="44.59564" lon="3.02381">
        <ele>1340.8</ele>
        <time>2022-08-04T09:14:12Z</time>
      </trkpt>
      <trkpt lat="44.59564" lon="3.0238">
        <ele>1340.7</ele>
        <time>2022-08-04T09:14:13Z</time>
      </trkpt>
      <trkpt lat="44.59565" lon="3.02377">
        <ele>1340.5</ele>
        <time>2022-08-04T09:14:15Z</time>
      </trkpt>
      <trkpt lat="44.59566" lon="3.02376">
        <ele>1340.3</ele>
        <time>2022-08-04T09:14:17Z</time>
      </trkpt>
      <trkpt lat="44.59566" lon="3.02375">
        <ele>1340.3</ele>
        <time>2022-08-04T09:14:20Z</time>
      </trkpt>
      <trkpt lat="44.59565" lon="3.02377">
        <ele>1340.4</ele>
        <time>2022-08-04T09:14:28Z</time>
      </trkpt>
      <trkpt lat="44.59565" lon="3.02379">
        <ele>1340.6</ele>
        <time>2022-08-04T09:14:33Z</time>
      </trkpt>
      <trkpt lat="44.59562" lon="3.02376">
        <ele>1340.6</ele>
        <time>2022-08-04T09:14:38Z</time>
      </trkpt>
      <trkpt lat="44.59561" lon="3.02376">
        <ele>1340.7</ele>
        <time>2022-08-04T09:14:39Z</time>
      </trkpt>
      <trkpt lat="44.59551" lon="3.02375">
        <ele>1341.2</ele>
        <time>2022-08-04T09:14:45Z</time>
      </trkpt>
      <trkpt lat="44.59544" lon="3.02369">
        <ele>1341</ele>
        <time>2022-08-04T09:14:52Z</time>
      </trkpt>
      <trkpt lat="44.59535" lon="3.02364">
        <ele>1341</ele>
        <time>2022-08-04T09:14:59Z</time>
      </trkpt>
      <trkpt lat="44.5953" lon="3.02361">
        <ele>1340.9</ele>
        <time>2022-08-04T09:15:04Z</time>
      </trkpt>
      <trkpt lat="44.59528" lon="3.0236">
        <ele>1340.9</ele>
        <time>2022-08-04T09:15:05Z</time>
      </trkpt>
      <trkpt lat="44.59527" lon="3.02359">
        <ele>1340.8</ele>
        <time>2022-08-04T09:15:06Z</time>
      </trkpt>
      <trkpt lat="44.59523" lon="3.02358">
        <ele>1340.6</ele>
        <time>2022-08-04T09:15:09Z</time>
      </trkpt>
      <trkpt lat="44.5952" lon="3.02356">
        <ele>1340.3</ele>
        <time>2022-08-04T09:15:12Z</time>
      </trkpt>
      <trkpt lat="44.59519" lon="3.02355">
        <ele>1340.3</ele>
        <time>2022-08-04T09:15:13Z</time>
      </trkpt>
      <trkpt lat="44.59511" lon="3.02352">
        <ele>1339.7</ele>
        <time>2022-08-04T09:15:21Z</time>
      </trkpt>
      <trkpt lat="44.59501" lon="3.02351">
        <ele>1339.3</ele>
        <time>2022-08-04T09:15:29Z</time>
      </trkpt>
      <trkpt lat="44.59491" lon="3.02346">
        <ele>1338.9</ele>
        <time>2022-08-04T09:15:36Z</time>
      </trkpt>
      <trkpt lat="44.59479" lon="3.02342">
        <ele>1338.6</ele>
        <time>2022-08-04T09:15:45Z</time>
      </trkpt>
      <trkpt lat="44.59471" lon="3.02337">
        <ele>1338.3</ele>
        <time>2022-08-04T09:15:52Z</time>
      </trkpt>
      <trkpt lat="44.59459" lon="3.02331">
        <ele>1337.8</ele>
        <time>2022-08-04T09:16:01Z</time>
      </trkpt>
      <trkpt lat="44.59454" lon="3.02328">
        <ele>1337.6</ele>
        <time>2022-08-04T09:16:05Z</time>
      </trkpt>
      <trkpt lat="44.59452" lon="3.02327">
        <ele>1337.5</ele>
        <time>2022-08-04T09:16:07Z</time>
      </trkpt>
      <trkpt lat="44.5945" lon="3.02326">
        <ele>1337.5</ele>
        <time>2022-08-04T09:16:08Z</time>
      </trkpt>
      <trkpt lat="44.59443" lon="3.02319">
        <ele>1337</ele>
        <time>2022-08-04T09:16:16Z</time>
      </trkpt>
      <trkpt lat="44.59432" lon="3.02311">
        <ele>1336.4</ele>
        <time>2022-08-04T09:16:24Z</time>
      </trkpt>
      <trkpt lat="44.59426" lon="3.02307">
        <ele>1336.1</ele>
        <time>2022-08-04T09:16:29Z</time>
      </trkpt>
      <trkpt lat="44.59422" lon="3.02306">
        <ele>1336</ele>
        <time>2022-08-04T09:16:32Z</time>
      </trkpt>
      <trkpt lat="44.59418" lon="3.02302">
        <ele>1335.8</ele>
        <time>2022-08-04T09:16:36Z</time>
      </trkpt>
      <trkpt lat="44.59417" lon="3.02303">
        <ele>1335.8</ele>
        <time>2022-08-04T09:16:38Z</time>
      </trkpt>
      <trkpt lat="44.59414" lon="3.02299">
        <ele>1335.5</ele>
        <time>2022-08-04T09:16:45Z</time>
      </trkpt>
      <trkpt lat="44.59407" lon="3.02294">
        <ele>1335.3</ele>
        <time>2022-08-04T09:16:51Z</time>
      </trkpt>
      <trkpt lat="44.59396" lon="3.02288">
        <ele>1335.2</ele>
        <time>2022-08-04T09:17:00Z</time>
      </trkpt>
      <trkpt lat="44.59388" lon="3.02281">
        <ele>1335.1</ele>
        <time>2022-08-04T09:17:07Z</time>
      </trkpt>
      <trkpt lat="44.5938" lon="3.02273">
        <ele>1335.1</ele>
        <time>2022-08-04T09:17:16Z</time>
      </trkpt>
      <trkpt lat="44.5937" lon="3.02263">
        <ele>1335.2</ele>
        <time>2022-08-04T09:17:25Z</time>
      </trkpt>
      <trkpt lat="44.59362" lon="3.02258">
        <ele>1335.2</ele>
        <time>2022-08-04T09:17:32Z</time>
      </trkpt>
      <trkpt lat="44.59357" lon="3.02253">
        <ele>1335.3</ele>
        <time>2022-08-04T09:17:37Z</time>
      </trkpt>
      <trkpt lat="44.59356" lon="3.02253">
        <ele>1335.3</ele>
        <time>2022-08-04T09:17:38Z</time>
      </trkpt>
      <trkpt lat="44.59346" lon="3.02245">
        <ele>1335.2</ele>
        <time>2022-08-04T09:17:46Z</time>
      </trkpt>
      <trkpt lat="44.59338" lon="3.02238">
        <ele>1335</ele>
        <time>2022-08-04T09:17:53Z</time>
      </trkpt>
      <trkpt lat="44.59327" lon="3.02232">
        <ele>1334.9</ele>
        <time>2022-08-04T09:18:01Z</time>
      </trkpt>
      <trkpt lat="44.59316" lon="3.02225">
        <ele>1334.8</ele>
        <time>2022-08-04T09:18:11Z</time>
      </trkpt>
      <trkpt lat="44.59309" lon="3.02221">
        <ele>1334.8</ele>
        <time>2022-08-04T09:18:17Z</time>
      </trkpt>
      <trkpt lat="44.59308" lon="3.02219">
        <ele>1334.7</ele>
        <time>2022-08-04T09:18:19Z</time>
      </trkpt>
      <trkpt lat="44.59301" lon="3.0221">
        <ele>1334.3</ele>
        <time>2022-08-04T09:18:27Z</time>
      </trkpt>
      <trkpt lat="44.59292" lon="3.02204">
        <ele>1334.2</ele>
        <time>2022-08-04T09:18:36Z</time>
      </trkpt>
      <trkpt lat="44.59284" lon="3.02195">
        <ele>1333.8</ele>
        <time>2022-08-04T09:18:45Z</time>
      </trkpt>
      <trkpt lat="44.59284" lon="3.02193">
        <ele>1333.7</ele>
        <time>2022-08-04T09:18:50Z</time>
      </trkpt>
      <trkpt lat="44.59284" lon="3.02192">
        <ele>1333.6</ele>
        <time>2022-08-04T09:19:00Z</time>
      </trkpt>
      <trkpt lat="44.59279" lon="3.02186">
        <ele>1333.3</ele>
        <time>2022-08-04T09:19:27Z</time>
      </trkpt>
      <trkpt lat="44.59276" lon="3.02183">
        <ele>1333.2</ele>
        <time>2022-08-04T09:19:34Z</time>
      </trkpt>
      <trkpt lat="44.59274" lon="3.02183">
        <ele>1333.2</ele>
        <time>2022-08-04T09:19:36Z</time>
      </trkpt>
      <trkpt lat="44.59269" lon="3.02182">
        <ele>1333.2</ele>
        <time>2022-08-04T09:19:40Z</time>
      </trkpt>
      <trkpt lat="44.59266" lon="3.0218">
        <ele>1333.2</ele>
        <time>2022-08-04T09:19:43Z</time>
      </trkpt>
      <trkpt lat="44.59262" lon="3.02179">
        <ele>1333.2</ele>
        <time>2022-08-04T09:19:46Z</time>
      </trkpt>
      <trkpt lat="44.59258" lon="3.02177">
        <ele>1333.2</ele>
        <time>2022-08-04T09:19:51Z</time>
      </trkpt>
      <trkpt lat="44.59257" lon="3.02176">
        <ele>1333.2</ele>
        <time>2022-08-04T09:19:52Z</time>
      </trkpt>
      <trkpt lat="44.59247" lon="3.02168">
        <ele>1333</ele>
        <time>2022-08-04T09:20:01Z</time>
      </trkpt>
      <trkpt lat="44.59236" lon="3.02162">
        <ele>1332.8</ele>
        <time>2022-08-04T09:20:09Z</time>
      </trkpt>
      <trkpt lat="44.59233" lon="3.02162">
        <ele>1332.8</ele>
        <time>2022-08-04T09:20:12Z</time>
      </trkpt>
      <trkpt lat="44.59228" lon="3.02158">
        <ele>1332.6</ele>
        <time>2022-08-04T09:20:16Z</time>
      </trkpt>
      <trkpt lat="44.59222" lon="3.02153">
        <ele>1332.5</ele>
        <time>2022-08-04T09:20:21Z</time>
      </trkpt>
      <trkpt lat="44.59218" lon="3.02151">
        <ele>1332.5</ele>
        <time>2022-08-04T09:20:25Z</time>
      </trkpt>
      <trkpt lat="44.59211" lon="3.02148">
        <ele>1332.5</ele>
        <time>2022-08-04T09:20:32Z</time>
      </trkpt>
      <trkpt lat="44.59211" lon="3.02147">
        <ele>1332.4</ele>
        <time>2022-08-04T09:20:38Z</time>
      </trkpt>
      <trkpt lat="44.59213" lon="3.02143">
        <ele>1332.2</ele>
        <time>2022-08-04T09:20:47Z</time>
      </trkpt>
      <trkpt lat="44.59214" lon="3.02142">
        <ele>1332.1</ele>
        <time>2022-08-04T09:20:48Z</time>
      </trkpt>
      <trkpt lat="44.59215" lon="3.02138">
        <ele>1332</ele>
        <time>2022-08-04T09:20:50Z</time>
      </trkpt>
      <trkpt lat="44.59215" lon="3.02134">
        <ele>1331.8</ele>
        <time>2022-08-04T09:20:52Z</time>
      </trkpt>
      <trkpt lat="44.59214" lon="3.02129">
        <ele>1331.7</ele>
        <time>2022-08-04T09:20:54Z</time>
      </trkpt>
      <trkpt lat="44.59214" lon="3.02122">
        <ele>1331.4</ele>
        <time>2022-08-04T09:20:58Z</time>
      </trkpt>
      <trkpt lat="44.59214" lon="3.0212">
        <ele>1331.3</ele>
        <time>2022-08-04T09:20:59Z</time>
      </trkpt>
      <trkpt lat="44.59214" lon="3.02117">
        <ele>1331.2</ele>
        <time>2022-08-04T09:21:01Z</time>
      </trkpt>
      <trkpt lat="44.59215" lon="3.02113">
        <ele>1331.1</ele>
        <time>2022-08-04T09:21:04Z</time>
      </trkpt>
      <trkpt lat="44.59216" lon="3.02103">
        <ele>1330.7</ele>
        <time>2022-08-04T09:21:10Z</time>
      </trkpt>
      <trkpt lat="44.59217" lon="3.02101">
        <ele>1330.7</ele>
        <time>2022-08-04T09:21:11Z</time>
      </trkpt>
      <trkpt lat="44.59217" lon="3.021">
        <ele>1330.6</ele>
        <time>2022-08-04T09:21:12Z</time>
      </trkpt>
      <trkpt lat="44.5922" lon="3.02091">
        <ele>1330.3</ele>
        <time>2022-08-04T09:21:18Z</time>
      </trkpt>
      <trkpt lat="44.59222" lon="3.02089">
        <ele>1330.2</ele>
        <time>2022-08-04T09:21:19Z</time>
      </trkpt>
      <trkpt lat="44.59226" lon="3.0208">
        <ele>1329.6</ele>
        <time>2022-08-04T09:21:23Z</time>
      </trkpt>
      <trkpt lat="44.59226" lon="3.02079">
        <ele>1329.5</ele>
        <time>2022-08-04T09:21:24Z</time>
      </trkpt>
      <trkpt lat="44.59227" lon="3.02074">
        <ele>1329.1</ele>
        <time>2022-08-04T09:21:27Z</time>
      </trkpt>
      <trkpt lat="44.59228" lon="3.02072">
        <ele>1329</ele>
        <time>2022-08-04T09:21:29Z</time>
      </trkpt>
      <trkpt lat="44.59228" lon="3.02069">
        <ele>1328.8</ele>
        <time>2022-08-04T09:21:31Z</time>
      </trkpt>
      <trkpt lat="44.59227" lon="3.02067">
        <ele>1328.6</ele>
        <time>2022-08-04T09:21:34Z</time>
      </trkpt>
      <trkpt lat="44.59226" lon="3.02066">
        <ele>1328.6</ele>
        <time>2022-08-04T09:21:35Z</time>
      </trkpt>
      <trkpt lat="44.59225" lon="3.02066">
        <ele>1328.6</ele>
        <time>2022-08-04T09:21:36Z</time>
      </trkpt>
      <trkpt lat="44.59223" lon="3.0206">
        <ele>1328.3</ele>
        <time>2022-08-04T09:21:40Z</time>
      </trkpt>
      <trkpt lat="44.59214" lon="3.02053">
        <ele>1328.2</ele>
        <time>2022-08-04T09:21:48Z</time>
      </trkpt>
      <trkpt lat="44.59204" lon="3.02045">
        <ele>1328.3</ele>
        <time>2022-08-04T09:21:57Z</time>
      </trkpt>
      <trkpt lat="44.59198" lon="3.02041">
        <ele>1328.4</ele>
        <time>2022-08-04T09:22:03Z</time>
      </trkpt>
      <trkpt lat="44.59193" lon="3.0204">
        <ele>1328.5</ele>
        <time>2022-08-04T09:22:07Z</time>
      </trkpt>
      <trkpt lat="44.5919" lon="3.02037">
        <ele>1328.5</ele>
        <time>2022-08-04T09:22:10Z</time>
      </trkpt>
      <trkpt lat="44.59185" lon="3.0203">
        <ele>1328.4</ele>
        <time>2022-08-04T09:22:15Z</time>
      </trkpt>
      <trkpt lat="44.59179" lon="3.02025">
        <ele>1328.4</ele>
        <time>2022-08-04T09:22:20Z</time>
      </trkpt>
      <trkpt lat="44.59173" lon="3.02016">
        <ele>1328.3</ele>
        <time>2022-08-04T09:22:28Z</time>
      </trkpt>
      <trkpt lat="44.59172" lon="3.02012">
        <ele>1328.1</ele>
        <time>2022-08-04T09:22:34Z</time>
      </trkpt>
      <trkpt lat="44.59174" lon="3.02009">
        <ele>1327.9</ele>
        <time>2022-08-04T09:22:41Z</time>
      </trkpt>
      <trkpt lat="44.59173" lon="3.02003">
        <ele>1327.7</ele>
        <time>2022-08-04T09:22:46Z</time>
      </trkpt>
      <trkpt lat="44.59173" lon="3.02002">
        <ele>1327.6</ele>
        <time>2022-08-04T09:22:47Z</time>
      </trkpt>
      <trkpt lat="44.59172" lon="3.01993">
        <ele>1327.4</ele>
        <time>2022-08-04T09:22:54Z</time>
      </trkpt>
      <trkpt lat="44.59171" lon="3.01991">
        <ele>1327.4</ele>
        <time>2022-08-04T09:22:55Z</time>
      </trkpt>
      <trkpt lat="44.5917" lon="3.01989">
        <ele>1327.4</ele>
        <time>2022-08-04T09:22:56Z</time>
      </trkpt>
      <trkpt lat="44.59167" lon="3.01985">
        <ele>1327.4</ele>
        <time>2022-08-04T09:23:00Z</time>
      </trkpt>
      <trkpt lat="44.59163" lon="3.01981">
        <ele>1327.6</ele>
        <time>2022-08-04T09:23:04Z</time>
      </trkpt>
      <trkpt lat="44.59163" lon="3.01979">
        <ele>1327.5</ele>
        <time>2022-08-04T09:23:06Z</time>
      </trkpt>
      <trkpt lat="44.59162" lon="3.01978">
        <ele>1327.5</ele>
        <time>2022-08-04T09:23:07Z</time>
      </trkpt>
      <trkpt lat="44.59159" lon="3.01972">
        <ele>1327.6</ele>
        <time>2022-08-04T09:23:12Z</time>
      </trkpt>
      <trkpt lat="44.59157" lon="3.01968">
        <ele>1327.5</ele>
        <time>2022-08-04T09:23:15Z</time>
      </trkpt>
      <trkpt lat="44.59151" lon="3.01958">
        <ele>1327.4</ele>
        <time>2022-08-04T09:23:22Z</time>
      </trkpt>
      <trkpt lat="44.59148" lon="3.0195">
        <ele>1327.3</ele>
        <time>2022-08-04T09:23:27Z</time>
      </trkpt>
      <trkpt lat="44.59146" lon="3.01945">
        <ele>1327.2</ele>
        <time>2022-08-04T09:23:29Z</time>
      </trkpt>
      <trkpt lat="44.59145" lon="3.01929">
        <ele>1326.8</ele>
        <time>2022-08-04T09:23:37Z</time>
      </trkpt>
      <trkpt lat="44.59145" lon="3.01928">
        <ele>1326.7</ele>
        <time>2022-08-04T09:23:38Z</time>
      </trkpt>
      <trkpt lat="44.59144" lon="3.01919">
        <ele>1326.6</ele>
        <time>2022-08-04T09:23:43Z</time>
      </trkpt>
      <trkpt lat="44.59144" lon="3.01917">
        <ele>1326.5</ele>
        <time>2022-08-04T09:23:44Z</time>
      </trkpt>
      <trkpt lat="44.59142" lon="3.01906">
        <ele>1326.7</ele>
        <time>2022-08-04T09:23:50Z</time>
      </trkpt>
      <trkpt lat="44.59142" lon="3.01901">
        <ele>1326.6</ele>
        <time>2022-08-04T09:23:53Z</time>
      </trkpt>
      <trkpt lat="44.59139" lon="3.01895">
        <ele>1326.9</ele>
        <time>2022-08-04T09:23:57Z</time>
      </trkpt>
      <trkpt lat="44.5914" lon="3.01889">
        <ele>1326.9</ele>
        <time>2022-08-04T09:24:00Z</time>
      </trkpt>
      <trkpt lat="44.5914" lon="3.01887">
        <ele>1326.8</ele>
        <time>2022-08-04T09:24:01Z</time>
      </trkpt>
      <trkpt lat="44.59139" lon="3.01885">
        <ele>1326.8</ele>
        <time>2022-08-04T09:24:02Z</time>
      </trkpt>
      <trkpt lat="44.59138" lon="3.01881">
        <ele>1326.9</ele>
        <time>2022-08-04T09:24:04Z</time>
      </trkpt>
      <trkpt lat="44.59138" lon="3.01878">
        <ele>1326.8</ele>
        <time>2022-08-04T09:24:06Z</time>
      </trkpt>
      <trkpt lat="44.59138" lon="3.01875">
        <ele>1326.6</ele>
        <time>2022-08-04T09:24:08Z</time>
      </trkpt>
      <trkpt lat="44.59139" lon="3.01874">
        <ele>1326.5</ele>
        <time>2022-08-04T09:24:09Z</time>
      </trkpt>
      <trkpt lat="44.59141" lon="3.01864">
        <ele>1325.9</ele>
        <time>2022-08-04T09:24:14Z</time>
      </trkpt>
      <trkpt lat="44.59141" lon="3.01862">
        <ele>1325.9</ele>
        <time>2022-08-04T09:24:15Z</time>
      </trkpt>
      <trkpt lat="44.59141" lon="3.0186">
        <ele>1325.7</ele>
        <time>2022-08-04T09:24:17Z</time>
      </trkpt>
      <trkpt lat="44.59142" lon="3.01858">
        <ele>1325.7</ele>
        <time>2022-08-04T09:24:21Z</time>
      </trkpt>
      <trkpt lat="44.59142" lon="3.01854">
        <ele>1325.6</ele>
        <time>2022-08-04T09:24:29Z</time>
      </trkpt>
      <trkpt lat="44.59142" lon="3.01853">
        <ele>1325.6</ele>
        <time>2022-08-04T09:24:30Z</time>
      </trkpt>
      <trkpt lat="44.59144" lon="3.01854">
        <ele>1325.4</ele>
        <time>2022-08-04T09:24:36Z</time>
      </trkpt>
      <trkpt lat="44.59142" lon="3.01855">
        <ele>1325.6</ele>
        <time>2022-08-04T09:24:56Z</time>
      </trkpt>
      <trkpt lat="44.59144" lon="3.01847">
        <ele>1325.4</ele>
        <time>2022-08-04T09:25:00Z</time>
      </trkpt>
      <trkpt lat="44.59147" lon="3.01838">
        <ele>1324.8</ele>
        <time>2022-08-04T09:25:06Z</time>
      </trkpt>
      <trkpt lat="44.59148" lon="3.01836">
        <ele>1324.7</ele>
        <time>2022-08-04T09:25:07Z</time>
      </trkpt>
      <trkpt lat="44.59152" lon="3.01831">
        <ele>1324.2</ele>
        <time>2022-08-04T09:25:11Z</time>
      </trkpt>
      <trkpt lat="44.59154" lon="3.01825">
        <ele>1323.9</ele>
        <time>2022-08-04T09:25:14Z</time>
      </trkpt>
      <trkpt lat="44.59157" lon="3.01816">
        <ele>1323.4</ele>
        <time>2022-08-04T09:25:19Z</time>
      </trkpt>
      <trkpt lat="44.59159" lon="3.01814">
        <ele>1323.1</ele>
        <time>2022-08-04T09:25:21Z</time>
      </trkpt>
      <trkpt lat="44.59161" lon="3.01811">
        <ele>1322.9</ele>
        <time>2022-08-04T09:25:23Z</time>
      </trkpt>
      <trkpt lat="44.59161" lon="3.01807">
        <ele>1322.8</ele>
        <time>2022-08-04T09:25:25Z</time>
      </trkpt>
      <trkpt lat="44.59162" lon="3.01806">
        <ele>1322.7</ele>
        <time>2022-08-04T09:25:26Z</time>
      </trkpt>
      <trkpt lat="44.59162" lon="3.01806">
        <ele>1322.6</ele>
        <time>2022-08-04T09:25:27Z</time>
      </trkpt>
      <trkpt lat="44.59166" lon="3.01802">
        <ele>1322.2</ele>
        <time>2022-08-04T09:25:31Z</time>
      </trkpt>
      <trkpt lat="44.5917" lon="3.01797">
        <ele>1322</ele>
        <time>2022-08-04T09:25:37Z</time>
      </trkpt>
      <trkpt lat="44.59171" lon="3.01796">
        <ele>1322</ele>
        <time>2022-08-04T09:25:38Z</time>
      </trkpt>
      <trkpt lat="44.59177" lon="3.01789">
        <ele>1321.7</ele>
        <time>2022-08-04T09:25:45Z</time>
      </trkpt>
      <trkpt lat="44.59185" lon="3.0178">
        <ele>1321</ele>
        <time>2022-08-04T09:25:52Z</time>
      </trkpt>
      <trkpt lat="44.5919" lon="3.01767">
        <ele>1321.2</ele>
        <time>2022-08-04T09:26:00Z</time>
      </trkpt>
      <trkpt lat="44.59192" lon="3.01762">
        <ele>1321.4</ele>
        <time>2022-08-04T09:26:03Z</time>
      </trkpt>
      <trkpt lat="44.59194" lon="3.01757">
        <ele>1321.6</ele>
        <time>2022-08-04T09:26:07Z</time>
      </trkpt>
      <trkpt lat="44.59197" lon="3.0175">
        <ele>1321.8</ele>
        <time>2022-08-04T09:26:12Z</time>
      </trkpt>
      <trkpt lat="44.59198" lon="3.01745">
        <ele>1321.8</ele>
        <time>2022-08-04T09:26:15Z</time>
      </trkpt>
      <trkpt lat="44.59201" lon="3.01735">
        <ele>1321.9</ele>
        <time>2022-08-04T09:26:20Z</time>
      </trkpt>
      <trkpt lat="44.59203" lon="3.01735">
        <ele>1321.8</ele>
        <time>2022-08-04T09:26:21Z</time>
      </trkpt>
      <trkpt lat="44.59206" lon="3.01737">
        <ele>1321.4</ele>
        <time>2022-08-04T09:26:23Z</time>
      </trkpt>
      <trkpt lat="44.5921" lon="3.01737">
        <ele>1321</ele>
        <time>2022-08-04T09:26:27Z</time>
      </trkpt>
      <trkpt lat="44.59213" lon="3.01736">
        <ele>1320.9</ele>
        <time>2022-08-04T09:26:29Z</time>
      </trkpt>
      <trkpt lat="44.59216" lon="3.01735">
        <ele>1320.6</ele>
        <time>2022-08-04T09:26:32Z</time>
      </trkpt>
      <trkpt lat="44.59218" lon="3.01733">
        <ele>1320.6</ele>
        <time>2022-08-04T09:26:34Z</time>
      </trkpt>
      <trkpt lat="44.59222" lon="3.01732">
        <ele>1320.4</ele>
        <time>2022-08-04T09:26:37Z</time>
      </trkpt>
      <trkpt lat="44.59226" lon="3.0173">
        <ele>1320.2</ele>
        <time>2022-08-04T09:26:40Z</time>
      </trkpt>
      <trkpt lat="44.59232" lon="3.01725">
        <ele>1320.1</ele>
        <time>2022-08-04T09:26:46Z</time>
      </trkpt>
      <trkpt lat="44.59234" lon="3.01722">
        <ele>1320.1</ele>
        <time>2022-08-04T09:26:48Z</time>
      </trkpt>
      <trkpt lat="44.59236" lon="3.01714">
        <ele>1320.5</ele>
        <time>2022-08-04T09:26:52Z</time>
      </trkpt>
      <trkpt lat="44.59236" lon="3.0171">
        <ele>1320.9</ele>
        <time>2022-08-04T09:26:54Z</time>
      </trkpt>
      <trkpt lat="44.59237" lon="3.01708">
        <ele>1321</ele>
        <time>2022-08-04T09:26:55Z</time>
      </trkpt>
      <trkpt lat="44.59241" lon="3.01706">
        <ele>1320.8</ele>
        <time>2022-08-04T09:26:58Z</time>
      </trkpt>
      <trkpt lat="44.59242" lon="3.01705">
        <ele>1320.8</ele>
        <time>2022-08-04T09:26:59Z</time>
      </trkpt>
      <trkpt lat="44.59243" lon="3.01702">
        <ele>1320.9</ele>
        <time>2022-08-04T09:27:02Z</time>
      </trkpt>
      <trkpt lat="44.59245" lon="3.01698">
        <ele>1321.1</ele>
        <time>2022-08-04T09:27:05Z</time>
      </trkpt>
      <trkpt lat="44.59246" lon="3.01695">
        <ele>1321.3</ele>
        <time>2022-08-04T09:27:07Z</time>
      </trkpt>
      <trkpt lat="44.59249" lon="3.01691">
        <ele>1321.2</ele>
        <time>2022-08-04T09:27:11Z</time>
      </trkpt>
      <trkpt lat="44.5925" lon="3.0169">
        <ele>1321.2</ele>
        <time>2022-08-04T09:27:12Z</time>
      </trkpt>
      <trkpt lat="44.59252" lon="3.01687">
        <ele>1321</ele>
        <time>2022-08-04T09:27:15Z</time>
      </trkpt>
      <trkpt lat="44.59252" lon="3.01684">
        <ele>1321.1</ele>
        <time>2022-08-04T09:27:16Z</time>
      </trkpt>
      <trkpt lat="44.59255" lon="3.01677">
        <ele>1321.1</ele>
        <time>2022-08-04T09:27:21Z</time>
      </trkpt>
      <trkpt lat="44.59256" lon="3.01673">
        <ele>1321.1</ele>
        <time>2022-08-04T09:27:23Z</time>
      </trkpt>
      <trkpt lat="44.59257" lon="3.01664">
        <ele>1321.3</ele>
        <time>2022-08-04T09:27:28Z</time>
      </trkpt>
      <trkpt lat="44.59258" lon="3.01661">
        <ele>1321.3</ele>
        <time>2022-08-04T09:27:30Z</time>
      </trkpt>
      <trkpt lat="44.59258" lon="3.0165">
        <ele>1321.8</ele>
        <time>2022-08-04T09:27:35Z</time>
      </trkpt>
      <trkpt lat="44.59258" lon="3.01646">
        <ele>1321.9</ele>
        <time>2022-08-04T09:27:37Z</time>
      </trkpt>
      <trkpt lat="44.59258" lon="3.01644">
        <ele>1322</ele>
        <time>2022-08-04T09:27:39Z</time>
      </trkpt>
      <trkpt lat="44.59259" lon="3.01641">
        <ele>1322</ele>
        <time>2022-08-04T09:27:41Z</time>
      </trkpt>
      <trkpt lat="44.59259" lon="3.01638">
        <ele>1322.1</ele>
        <time>2022-08-04T09:27:43Z</time>
      </trkpt>
      <trkpt lat="44.5926" lon="3.01627">
        <ele>1322.3</ele>
        <time>2022-08-04T09:27:49Z</time>
      </trkpt>
      <trkpt lat="44.59261" lon="3.01623">
        <ele>1322.4</ele>
        <time>2022-08-04T09:27:52Z</time>
      </trkpt>
      <trkpt lat="44.59263" lon="3.01622">
        <ele>1322.2</ele>
        <time>2022-08-04T09:27:54Z</time>
      </trkpt>
      <trkpt lat="44.59266" lon="3.01618">
        <ele>1322</ele>
        <time>2022-08-04T09:28:01Z</time>
      </trkpt>
      <trkpt lat="44.59268" lon="3.01614">
        <ele>1321.9</ele>
        <time>2022-08-04T09:28:08Z</time>
      </trkpt>
      <trkpt lat="44.59269" lon="3.01611">
        <ele>1322</ele>
        <time>2022-08-04T09:28:10Z</time>
      </trkpt>
      <trkpt lat="44.59269" lon="3.01604">
        <ele>1321.9</ele>
        <time>2022-08-04T09:28:14Z</time>
      </trkpt>
      <trkpt lat="44.5927" lon="3.016">
        <ele>1321.8</ele>
        <time>2022-08-04T09:28:17Z</time>
      </trkpt>
      <trkpt lat="44.59271" lon="3.01595">
        <ele>1321.7</ele>
        <time>2022-08-04T09:28:20Z</time>
      </trkpt>
      <trkpt lat="44.59272" lon="3.01593">
        <ele>1321.6</ele>
        <time>2022-08-04T09:28:23Z</time>
      </trkpt>
      <trkpt lat="44.59274" lon="3.0159">
        <ele>1321.4</ele>
        <time>2022-08-04T09:28:25Z</time>
      </trkpt>
      <trkpt lat="44.59279" lon="3.01575">
        <ele>1320.8</ele>
        <time>2022-08-04T09:28:34Z</time>
      </trkpt>
      <trkpt lat="44.59279" lon="3.01574">
        <ele>1320.8</ele>
        <time>2022-08-04T09:28:35Z</time>
      </trkpt>
      <trkpt lat="44.5928" lon="3.01571">
        <ele>1320.7</ele>
        <time>2022-08-04T09:28:38Z</time>
      </trkpt>
      <trkpt lat="44.59281" lon="3.01566">
        <ele>1320.6</ele>
        <time>2022-08-04T09:28:41Z</time>
      </trkpt>
      <trkpt lat="44.59283" lon="3.01562">
        <ele>1320.3</ele>
        <time>2022-08-04T09:28:44Z</time>
      </trkpt>
      <trkpt lat="44.59284" lon="3.01555">
        <ele>1320</ele>
        <time>2022-08-04T09:28:48Z</time>
      </trkpt>
      <trkpt lat="44.59286" lon="3.01541">
        <ele>1319.3</ele>
        <time>2022-08-04T09:28:57Z</time>
      </trkpt>
      <trkpt lat="44.59285" lon="3.01529">
        <ele>1319</ele>
        <time>2022-08-04T09:29:04Z</time>
      </trkpt>
      <trkpt lat="44.59285" lon="3.01528">
        <ele>1319</ele>
        <time>2022-08-04T09:29:05Z</time>
      </trkpt>
      <trkpt lat="44.59284" lon="3.01526">
        <ele>1319</ele>
        <time>2022-08-04T09:29:06Z</time>
      </trkpt>
      <trkpt lat="44.5928" lon="3.01513">
        <ele>1319.1</ele>
        <time>2022-08-04T09:29:14Z</time>
      </trkpt>
      <trkpt lat="44.59279" lon="3.01503">
        <ele>1319</ele>
        <time>2022-08-04T09:29:19Z</time>
      </trkpt>
      <trkpt lat="44.59278" lon="3.015">
        <ele>1318.9</ele>
        <time>2022-08-04T09:29:21Z</time>
      </trkpt>
      <trkpt lat="44.59278" lon="3.01499">
        <ele>1318.9</ele>
        <time>2022-08-04T09:29:22Z</time>
      </trkpt>
      <trkpt lat="44.59279" lon="3.01497">
        <ele>1318.8</ele>
        <time>2022-08-04T09:29:23Z</time>
      </trkpt>
      <trkpt lat="44.59278" lon="3.01491">
        <ele>1318.7</ele>
        <time>2022-08-04T09:29:27Z</time>
      </trkpt>
      <trkpt lat="44.59277" lon="3.01484">
        <ele>1318.6</ele>
        <time>2022-08-04T09:29:30Z</time>
      </trkpt>
      <trkpt lat="44.59277" lon="3.01479">
        <ele>1318.4</ele>
        <time>2022-08-04T09:29:33Z</time>
      </trkpt>
      <trkpt lat="44.59276" lon="3.01477">
        <ele>1318.4</ele>
        <time>2022-08-04T09:29:34Z</time>
      </trkpt>
      <trkpt lat="44.59276" lon="3.01474">
        <ele>1318.3</ele>
        <time>2022-08-04T09:29:36Z</time>
      </trkpt>
      <trkpt lat="44.59276" lon="3.01471">
        <ele>1318.2</ele>
        <time>2022-08-04T09:29:38Z</time>
      </trkpt>
      <trkpt lat="44.59273" lon="3.01458">
        <ele>1317.6</ele>
        <time>2022-08-04T09:29:46Z</time>
      </trkpt>
      <trkpt lat="44.59273" lon="3.01455">
        <ele>1317.4</ele>
        <time>2022-08-04T09:29:48Z</time>
      </trkpt>
      <trkpt lat="44.59274" lon="3.01451">
        <ele>1317</ele>
        <time>2022-08-04T09:29:50Z</time>
      </trkpt>
      <trkpt lat="44.59276" lon="3.01449">
        <ele>1316.7</ele>
        <time>2022-08-04T09:29:51Z</time>
      </trkpt>
      <trkpt lat="44.59276" lon="3.01448">
        <ele>1316.5</ele>
        <time>2022-08-04T09:29:52Z</time>
      </trkpt>
      <trkpt lat="44.59275" lon="3.01435">
        <ele>1315.8</ele>
        <time>2022-08-04T09:29:59Z</time>
      </trkpt>
      <trkpt lat="44.59275" lon="3.01434">
        <ele>1315.7</ele>
        <time>2022-08-04T09:30:00Z</time>
      </trkpt>
      <trkpt lat="44.59275" lon="3.01431">
        <ele>1315.5</ele>
        <time>2022-08-04T09:30:02Z</time>
      </trkpt>
      <trkpt lat="44.59276" lon="3.01427">
        <ele>1315.1</ele>
        <time>2022-08-04T09:30:05Z</time>
      </trkpt>
      <trkpt lat="44.59276" lon="3.01423">
        <ele>1314.8</ele>
        <time>2022-08-04T09:30:08Z</time>
      </trkpt>
      <trkpt lat="44.59276" lon="3.01419">
        <ele>1314.4</ele>
        <time>2022-08-04T09:30:11Z</time>
      </trkpt>
      <trkpt lat="44.59277" lon="3.01414">
        <ele>1314</ele>
        <time>2022-08-04T09:30:14Z</time>
      </trkpt>
      <trkpt lat="44.59276" lon="3.01411">
        <ele>1313.9</ele>
        <time>2022-08-04T09:30:17Z</time>
      </trkpt>
      <trkpt lat="44.59275" lon="3.01409">
        <ele>1313.9</ele>
        <time>2022-08-04T09:30:18Z</time>
      </trkpt>
      <trkpt lat="44.59274" lon="3.01402">
        <ele>1313.5</ele>
        <time>2022-08-04T09:30:22Z</time>
      </trkpt>
      <trkpt lat="44.59273" lon="3.01398">
        <ele>1313.4</ele>
        <time>2022-08-04T09:30:24Z</time>
      </trkpt>
      <trkpt lat="44.59268" lon="3.01391">
        <ele>1313.6</ele>
        <time>2022-08-04T09:30:29Z</time>
      </trkpt>
      <trkpt lat="44.59265" lon="3.01388">
        <ele>1313.8</ele>
        <time>2022-08-04T09:30:31Z</time>
      </trkpt>
      <trkpt lat="44.59262" lon="3.01379">
        <ele>1313.5</ele>
        <time>2022-08-04T09:30:35Z</time>
      </trkpt>
      <trkpt lat="44.59256" lon="3.01366">
        <ele>1312.8</ele>
        <time>2022-08-04T09:30:42Z</time>
      </trkpt>
      <trkpt lat="44.59252" lon="3.01354">
        <ele>1312.1</ele>
        <time>2022-08-04T09:30:49Z</time>
      </trkpt>
      <trkpt lat="44.59248" lon="3.01349">
        <ele>1311.9</ele>
        <time>2022-08-04T09:30:55Z</time>
      </trkpt>
      <trkpt lat="44.59243" lon="3.01343">
        <ele>1311.9</ele>
        <time>2022-08-04T09:31:00Z</time>
      </trkpt>
      <trkpt lat="44.59241" lon="3.0134">
        <ele>1311.7</ele>
        <time>2022-08-04T09:31:02Z</time>
      </trkpt>
      <trkpt lat="44.5924" lon="3.01336">
        <ele>1311.4</ele>
        <time>2022-08-04T09:31:05Z</time>
      </trkpt>
      <trkpt lat="44.59239" lon="3.01334">
        <ele>1311.3</ele>
        <time>2022-08-04T09:31:07Z</time>
      </trkpt>
      <trkpt lat="44.59238" lon="3.01332">
        <ele>1311.2</ele>
        <time>2022-08-04T09:31:09Z</time>
      </trkpt>
      <trkpt lat="44.59235" lon="3.0133">
        <ele>1311.4</ele>
        <time>2022-08-04T09:31:12Z</time>
      </trkpt>
      <trkpt lat="44.59234" lon="3.01328">
        <ele>1311.4</ele>
        <time>2022-08-04T09:31:13Z</time>
      </trkpt>
      <trkpt lat="44.5923" lon="3.01323">
        <ele>1311.4</ele>
        <time>2022-08-04T09:31:17Z</time>
      </trkpt>
      <trkpt lat="44.59226" lon="3.01318">
        <ele>1311.5</ele>
        <time>2022-08-04T09:31:23Z</time>
      </trkpt>
      <trkpt lat="44.5922" lon="3.0131">
        <ele>1311.6</ele>
        <time>2022-08-04T09:31:29Z</time>
      </trkpt>
      <trkpt lat="44.59212" lon="3.01303">
        <ele>1311.9</ele>
        <time>2022-08-04T09:31:36Z</time>
      </trkpt>
      <trkpt lat="44.5921" lon="3.01302">
        <ele>1311.9</ele>
        <time>2022-08-04T09:31:38Z</time>
      </trkpt>
      <trkpt lat="44.59208" lon="3.01301">
        <ele>1312</ele>
        <time>2022-08-04T09:31:39Z</time>
      </trkpt>
      <trkpt lat="44.59205" lon="3.01298">
        <ele>1312.1</ele>
        <time>2022-08-04T09:31:42Z</time>
      </trkpt>
      <trkpt lat="44.59203" lon="3.01294">
        <ele>1311.8</ele>
        <time>2022-08-04T09:31:46Z</time>
      </trkpt>
      <trkpt lat="44.59198" lon="3.01286">
        <ele>1311.5</ele>
        <time>2022-08-04T09:31:51Z</time>
      </trkpt>
      <trkpt lat="44.59197" lon="3.01283">
        <ele>1311.3</ele>
        <time>2022-08-04T09:31:53Z</time>
      </trkpt>
      <trkpt lat="44.59196" lon="3.01282">
        <ele>1311.3</ele>
        <time>2022-08-04T09:31:54Z</time>
      </trkpt>
      <trkpt lat="44.59195" lon="3.01279">
        <ele>1311.1</ele>
        <time>2022-08-04T09:31:55Z</time>
      </trkpt>
      <trkpt lat="44.59193" lon="3.01276">
        <ele>1310.9</ele>
        <time>2022-08-04T09:31:58Z</time>
      </trkpt>
      <trkpt lat="44.5919" lon="3.01271">
        <ele>1310.6</ele>
        <time>2022-08-04T09:32:01Z</time>
      </trkpt>
      <trkpt lat="44.59189" lon="3.0127">
        <ele>1310.6</ele>
        <time>2022-08-04T09:32:02Z</time>
      </trkpt>
      <trkpt lat="44.59186" lon="3.01266">
        <ele>1310.3</ele>
        <time>2022-08-04T09:32:06Z</time>
      </trkpt>
      <trkpt lat="44.59184" lon="3.01263">
        <ele>1310.2</ele>
        <time>2022-08-04T09:32:09Z</time>
      </trkpt>
      <trkpt lat="44.59181" lon="3.01257">
        <ele>1309.7</ele>
        <time>2022-08-04T09:32:15Z</time>
      </trkpt>
      <trkpt lat="44.59175" lon="3.01249">
        <ele>1309.3</ele>
        <time>2022-08-04T09:32:22Z</time>
      </trkpt>
      <trkpt lat="44.59173" lon="3.01247">
        <ele>1309.3</ele>
        <time>2022-08-04T09:32:24Z</time>
      </trkpt>
      <trkpt lat="44.59172" lon="3.01244">
        <ele>1309.2</ele>
        <time>2022-08-04T09:32:26Z</time>
      </trkpt>
      <trkpt lat="44.59168" lon="3.01236">
        <ele>1308.9</ele>
        <time>2022-08-04T09:32:30Z</time>
      </trkpt>
      <trkpt lat="44.59165" lon="3.01234">
        <ele>1308.8</ele>
        <time>2022-08-04T09:32:32Z</time>
      </trkpt>
      <trkpt lat="44.59162" lon="3.01223">
        <ele>1308.1</ele>
        <time>2022-08-04T09:32:37Z</time>
      </trkpt>
      <trkpt lat="44.59161" lon="3.0122">
        <ele>1307.7</ele>
        <time>2022-08-04T09:32:39Z</time>
      </trkpt>
      <trkpt lat="44.5916" lon="3.01218">
        <ele>1307.5</ele>
        <time>2022-08-04T09:32:40Z</time>
      </trkpt>
      <trkpt lat="44.5916" lon="3.01215">
        <ele>1307.2</ele>
        <time>2022-08-04T09:32:42Z</time>
      </trkpt>
      <trkpt lat="44.59159" lon="3.01212">
        <ele>1307</ele>
        <time>2022-08-04T09:32:44Z</time>
      </trkpt>
      <trkpt lat="44.59158" lon="3.01208">
        <ele>1306.6</ele>
        <time>2022-08-04T09:32:47Z</time>
      </trkpt>
      <trkpt lat="44.59157" lon="3.01204">
        <ele>1306.3</ele>
        <time>2022-08-04T09:32:49Z</time>
      </trkpt>
      <trkpt lat="44.59153" lon="3.01198">
        <ele>1305.8</ele>
        <time>2022-08-04T09:32:53Z</time>
      </trkpt>
      <trkpt lat="44.59152" lon="3.01191">
        <ele>1305.3</ele>
        <time>2022-08-04T09:32:57Z</time>
      </trkpt>
      <trkpt lat="44.59153" lon="3.01187">
        <ele>1304.9</ele>
        <time>2022-08-04T09:33:00Z</time>
      </trkpt>
      <trkpt lat="44.59153" lon="3.01185">
        <ele>1304.8</ele>
        <time>2022-08-04T09:33:01Z</time>
      </trkpt>
      <trkpt lat="44.59152" lon="3.0118">
        <ele>1304.5</ele>
        <time>2022-08-04T09:33:04Z</time>
      </trkpt>
      <trkpt lat="44.59152" lon="3.01178">
        <ele>1304.4</ele>
        <time>2022-08-04T09:33:05Z</time>
      </trkpt>
      <trkpt lat="44.5915" lon="3.01171">
        <ele>1303.9</ele>
        <time>2022-08-04T09:33:10Z</time>
      </trkpt>
      <trkpt lat="44.59149" lon="3.01167">
        <ele>1303.6</ele>
        <time>2022-08-04T09:33:12Z</time>
      </trkpt>
      <trkpt lat="44.59146" lon="3.01152">
        <ele>1302.7</ele>
        <time>2022-08-04T09:33:19Z</time>
      </trkpt>
      <trkpt lat="44.59145" lon="3.0115">
        <ele>1302.6</ele>
        <time>2022-08-04T09:33:20Z</time>
      </trkpt>
      <trkpt lat="44.59145" lon="3.01149">
        <ele>1302.5</ele>
        <time>2022-08-04T09:33:21Z</time>
      </trkpt>
      <trkpt lat="44.59144" lon="3.01147">
        <ele>1302.4</ele>
        <time>2022-08-04T09:33:23Z</time>
      </trkpt>
      <trkpt lat="44.59143" lon="3.01146">
        <ele>1302.4</ele>
        <time>2022-08-04T09:33:25Z</time>
      </trkpt>
      <trkpt lat="44.59143" lon="3.01146">
        <ele>1302.3</ele>
        <time>2022-08-04T09:33:28Z</time>
      </trkpt>
      <trkpt lat="44.59143" lon="3.01142">
        <ele>1302.1</ele>
        <time>2022-08-04T09:33:32Z</time>
      </trkpt>
      <trkpt lat="44.59143" lon="3.01141">
        <ele>1302</ele>
        <time>2022-08-04T09:33:33Z</time>
      </trkpt>
      <trkpt lat="44.59143" lon="3.01135">
        <ele>1301.6</ele>
        <time>2022-08-04T09:33:36Z</time>
      </trkpt>
      <trkpt lat="44.59143" lon="3.01131">
        <ele>1301.3</ele>
        <time>2022-08-04T09:33:39Z</time>
      </trkpt>
      <trkpt lat="44.59145" lon="3.01132">
        <ele>1301.2</ele>
        <time>2022-08-04T09:33:43Z</time>
      </trkpt>
      <trkpt lat="44.59147" lon="3.01131">
        <ele>1301.1</ele>
        <time>2022-08-04T09:33:48Z</time>
      </trkpt>
      <trkpt lat="44.59147" lon="3.01128">
        <ele>1300.9</ele>
        <time>2022-08-04T09:33:53Z</time>
      </trkpt>
      <trkpt lat="44.59147" lon="3.01128">
        <ele>1300.9</ele>
        <time>2022-08-04T09:34:00Z</time>
      </trkpt>
      <trkpt lat="44.59147" lon="3.01128">
        <ele>1300.9</ele>
        <time>2022-08-04T09:34:05Z</time>
      </trkpt>
      <trkpt lat="44.59147" lon="3.01128">
        <ele>1300.9</ele>
        <time>2022-08-04T09:34:13Z</time>
      </trkpt>
      <trkpt lat="44.59147" lon="3.01128">
        <ele>1300.9</ele>
        <time>2022-08-04T09:34:16Z</time>
      </trkpt>
      <trkpt lat="44.59149" lon="3.01127">
        <ele>1300.8</ele>
        <time>2022-08-04T09:34:29Z</time>
      </trkpt>
      <trkpt lat="44.59153" lon="3.0112">
        <ele>1300.1</ele>
        <time>2022-08-04T09:34:46Z</time>
      </trkpt>
      <trkpt lat="44.59156" lon="3.01118">
        <ele>1299.8</ele>
        <time>2022-08-04T09:34:54Z</time>
      </trkpt>
      <trkpt lat="44.59156" lon="3.01117">
        <ele>1299.9</ele>
        <time>2022-08-04T09:35:24Z</time>
      </trkpt>
      <trkpt lat="44.59155" lon="3.01118">
        <ele>1299.9</ele>
        <time>2022-08-04T09:35:26Z</time>
      </trkpt>
      <trkpt lat="44.59155" lon="3.01118">
        <ele>1299.9</ele>
        <time>2022-08-04T09:35:28Z</time>
      </trkpt>
      <trkpt lat="44.59154" lon="3.0112">
        <ele>1300.1</ele>
        <time>2022-08-04T09:35:33Z</time>
      </trkpt>
      <trkpt lat="44.59155" lon="3.01121">
        <ele>1300.1</ele>
        <time>2022-08-04T09:35:44Z</time>
      </trkpt>
      <trkpt lat="44.59154" lon="3.01125">
        <ele>1300.5</ele>
        <time>2022-08-04T09:36:48Z</time>
      </trkpt>
      <trkpt lat="44.5915" lon="3.01126">
        <ele>1300.6</ele>
        <time>2022-08-04T09:37:42Z</time>
      </trkpt>
      <trkpt lat="44.59146" lon="3.01129">
        <ele>1301.1</ele>
        <time>2022-08-04T09:37:48Z</time>
      </trkpt>
      <trkpt lat="44.59146" lon="3.01128">
        <ele>1300.9</ele>
        <time>2022-08-04T09:37:57Z</time>
      </trkpt>
      <trkpt lat="44.59148" lon="3.01127">
        <ele>1300.8</ele>
        <time>2022-08-04T09:38:19Z</time>
      </trkpt>
      <trkpt lat="44.59146" lon="3.01118">
        <ele>1300.2</ele>
        <time>2022-08-04T09:38:23Z</time>
      </trkpt>
      <trkpt lat="44.59146" lon="3.01099">
        <ele>1299.3</ele>
        <time>2022-08-04T09:38:31Z</time>
      </trkpt>
      <trkpt lat="44.5915" lon="3.01075">
        <ele>1298.4</ele>
        <time>2022-08-04T09:38:44Z</time>
      </trkpt>
      <trkpt lat="44.59152" lon="3.01059">
        <ele>1298.1</ele>
        <time>2022-08-04T09:38:53Z</time>
      </trkpt>
      <trkpt lat="44.59152" lon="3.01055">
        <ele>1298</ele>
        <time>2022-08-04T09:38:55Z</time>
      </trkpt>
      <trkpt lat="44.59156" lon="3.01039">
        <ele>1298</ele>
        <time>2022-08-04T09:39:04Z</time>
      </trkpt>
      <trkpt lat="44.59162" lon="3.01028">
        <ele>1298</ele>
        <time>2022-08-04T09:39:11Z</time>
      </trkpt>
      <trkpt lat="44.59167" lon="3.01022">
        <ele>1298.2</ele>
        <time>2022-08-04T09:39:16Z</time>
      </trkpt>
      <trkpt lat="44.59169" lon="3.01019">
        <ele>1298.4</ele>
        <time>2022-08-04T09:39:18Z</time>
      </trkpt>
      <trkpt lat="44.59176" lon="3.01004">
        <ele>1299.2</ele>
        <time>2022-08-04T09:39:28Z</time>
      </trkpt>
      <trkpt lat="44.59182" lon="3.00991">
        <ele>1299.7</ele>
        <time>2022-08-04T09:39:35Z</time>
      </trkpt>
      <trkpt lat="44.59184" lon="3.00987">
        <ele>1299.9</ele>
        <time>2022-08-04T09:39:37Z</time>
      </trkpt>
      <trkpt lat="44.59185" lon="3.00985">
        <ele>1300</ele>
        <time>2022-08-04T09:39:39Z</time>
      </trkpt>
      <trkpt lat="44.59187" lon="3.00981">
        <ele>1300.3</ele>
        <time>2022-08-04T09:39:42Z</time>
      </trkpt>
      <trkpt lat="44.59189" lon="3.00978">
        <ele>1300.5</ele>
        <time>2022-08-04T09:39:45Z</time>
      </trkpt>
      <trkpt lat="44.59189" lon="3.00976">
        <ele>1300.5</ele>
        <time>2022-08-04T09:39:51Z</time>
      </trkpt>
      <trkpt lat="44.59188" lon="3.00977">
        <ele>1300.4</ele>
        <time>2022-08-04T09:39:59Z</time>
      </trkpt>
      <trkpt lat="44.59188" lon="3.00977">
        <ele>1300.4</ele>
        <time>2022-08-04T09:40:09Z</time>
      </trkpt>
      <trkpt lat="44.59193" lon="3.00976">
        <ele>1300.8</ele>
        <time>2022-08-04T09:40:12Z</time>
      </trkpt>
      <trkpt lat="44.59195" lon="3.00978">
        <ele>1300.8</ele>
        <time>2022-08-04T09:40:16Z</time>
      </trkpt>
      <trkpt lat="44.59196" lon="3.00977">
        <ele>1300.9</ele>
        <time>2022-08-04T09:40:17Z</time>
      </trkpt>
      <trkpt lat="44.59197" lon="3.00977">
        <ele>1301</ele>
        <time>2022-08-04T09:40:18Z</time>
      </trkpt>
      <trkpt lat="44.59199" lon="3.00973">
        <ele>1301.3</ele>
        <time>2022-08-04T09:40:21Z</time>
      </trkpt>
      <trkpt lat="44.59201" lon="3.0097">
        <ele>1301.6</ele>
        <time>2022-08-04T09:40:23Z</time>
      </trkpt>
      <trkpt lat="44.59205" lon="3.00965">
        <ele>1302.3</ele>
        <time>2022-08-04T09:40:27Z</time>
      </trkpt>
      <trkpt lat="44.59212" lon="3.00959">
        <ele>1303.2</ele>
        <time>2022-08-04T09:40:33Z</time>
      </trkpt>
      <trkpt lat="44.59214" lon="3.00956">
        <ele>1303.6</ele>
        <time>2022-08-04T09:40:35Z</time>
      </trkpt>
      <trkpt lat="44.5922" lon="3.00944">
        <ele>1304.9</ele>
        <time>2022-08-04T09:40:42Z</time>
      </trkpt>
      <trkpt lat="44.59221" lon="3.0094">
        <ele>1305.1</ele>
        <time>2022-08-04T09:40:44Z</time>
      </trkpt>
      <trkpt lat="44.59225" lon="3.00934">
        <ele>1305.4</ele>
        <time>2022-08-04T09:40:48Z</time>
      </trkpt>
      <trkpt lat="44.59226" lon="3.00931">
        <ele>1305.6</ele>
        <time>2022-08-04T09:40:50Z</time>
      </trkpt>
      <trkpt lat="44.59229" lon="3.00927">
        <ele>1305.8</ele>
        <time>2022-08-04T09:40:53Z</time>
      </trkpt>
      <trkpt lat="44.59231" lon="3.00925">
        <ele>1305.9</ele>
        <time>2022-08-04T09:40:55Z</time>
      </trkpt>
      <trkpt lat="44.59237" lon="3.00915">
        <ele>1306.6</ele>
        <time>2022-08-04T09:41:02Z</time>
      </trkpt>
      <trkpt lat="44.59239" lon="3.00915">
        <ele>1306.7</ele>
        <time>2022-08-04T09:41:03Z</time>
      </trkpt>
      <trkpt lat="44.59243" lon="3.00914">
        <ele>1306.9</ele>
        <time>2022-08-04T09:41:06Z</time>
      </trkpt>
      <trkpt lat="44.59245" lon="3.0091">
        <ele>1307.1</ele>
        <time>2022-08-04T09:41:08Z</time>
      </trkpt>
      <trkpt lat="44.59246" lon="3.00908">
        <ele>1307.2</ele>
        <time>2022-08-04T09:41:09Z</time>
      </trkpt>
      <trkpt lat="44.59247" lon="3.00906">
        <ele>1307.3</ele>
        <time>2022-08-04T09:41:10Z</time>
      </trkpt>
      <trkpt lat="44.59251" lon="3.00897">
        <ele>1307.7</ele>
        <time>2022-08-04T09:41:15Z</time>
      </trkpt>
      <trkpt lat="44.59252" lon="3.00894">
        <ele>1307.8</ele>
        <time>2022-08-04T09:41:16Z</time>
      </trkpt>
      <trkpt lat="44.59258" lon="3.00886">
        <ele>1308.1</ele>
        <time>2022-08-04T09:41:21Z</time>
      </trkpt>
      <trkpt lat="44.59262" lon="3.00881">
        <ele>1308.3</ele>
        <time>2022-08-04T09:41:25Z</time>
      </trkpt>
      <trkpt lat="44.59266" lon="3.00878">
        <ele>1308.4</ele>
        <time>2022-08-04T09:41:28Z</time>
      </trkpt>
      <trkpt lat="44.59271" lon="3.00871">
        <ele>1308.6</ele>
        <time>2022-08-04T09:41:33Z</time>
      </trkpt>
      <trkpt lat="44.59273" lon="3.00868">
        <ele>1308.7</ele>
        <time>2022-08-04T09:41:35Z</time>
      </trkpt>
      <trkpt lat="44.59274" lon="3.00867">
        <ele>1308.8</ele>
        <time>2022-08-04T09:41:36Z</time>
      </trkpt>
      <trkpt lat="44.59278" lon="3.00863">
        <ele>1308.9</ele>
        <time>2022-08-04T09:41:40Z</time>
      </trkpt>
      <trkpt lat="44.59279" lon="3.00861">
        <ele>1309</ele>
        <time>2022-08-04T09:41:41Z</time>
      </trkpt>
      <trkpt lat="44.5928" lon="3.00858">
        <ele>1309</ele>
        <time>2022-08-04T09:41:43Z</time>
      </trkpt>
      <trkpt lat="44.59283" lon="3.00849">
        <ele>1309.3</ele>
        <time>2022-08-04T09:41:48Z</time>
      </trkpt>
      <trkpt lat="44.59287" lon="3.00841">
        <ele>1309.4</ele>
        <time>2022-08-04T09:41:53Z</time>
      </trkpt>
      <trkpt lat="44.59289" lon="3.00839">
        <ele>1309.4</ele>
        <time>2022-08-04T09:41:55Z</time>
      </trkpt>
      <trkpt lat="44.59294" lon="3.00837">
        <ele>1309.3</ele>
        <time>2022-08-04T09:41:58Z</time>
      </trkpt>
      <trkpt lat="44.59299" lon="3.00832">
        <ele>1309.3</ele>
        <time>2022-08-04T09:42:02Z</time>
      </trkpt>
      <trkpt lat="44.59301" lon="3.00831">
        <ele>1309.2</ele>
        <time>2022-08-04T09:42:03Z</time>
      </trkpt>
      <trkpt lat="44.59302" lon="3.00831">
        <ele>1309.2</ele>
        <time>2022-08-04T09:42:04Z</time>
      </trkpt>
      <trkpt lat="44.59304" lon="3.00829">
        <ele>1309.2</ele>
        <time>2022-08-04T09:42:06Z</time>
      </trkpt>
      <trkpt lat="44.59305" lon="3.00828">
        <ele>1309.2</ele>
        <time>2022-08-04T09:42:07Z</time>
      </trkpt>
      <trkpt lat="44.59307" lon="3.00826">
        <ele>1309.3</ele>
        <time>2022-08-04T09:42:09Z</time>
      </trkpt>
      <trkpt lat="44.59308" lon="3.00823">
        <ele>1309.4</ele>
        <time>2022-08-04T09:42:11Z</time>
      </trkpt>
      <trkpt lat="44.59309" lon="3.00822">
        <ele>1309.4</ele>
        <time>2022-08-04T09:42:12Z</time>
      </trkpt>
      <trkpt lat="44.59314" lon="3.00815">
        <ele>1309.7</ele>
        <time>2022-08-04T09:42:17Z</time>
      </trkpt>
      <trkpt lat="44.59316" lon="3.00809">
        <ele>1309.9</ele>
        <time>2022-08-04T09:42:20Z</time>
      </trkpt>
      <trkpt lat="44.59319" lon="3.00806">
        <ele>1310</ele>
        <time>2022-08-04T09:42:23Z</time>
      </trkpt>
      <trkpt lat="44.59322" lon="3.00803">
        <ele>1310.1</ele>
        <time>2022-08-04T09:42:25Z</time>
      </trkpt>
      <trkpt lat="44.59323" lon="3.00802">
        <ele>1310.2</ele>
        <time>2022-08-04T09:42:26Z</time>
      </trkpt>
      <trkpt lat="44.59324" lon="3.00799">
        <ele>1310.3</ele>
        <time>2022-08-04T09:42:28Z</time>
      </trkpt>
      <trkpt lat="44.59327" lon="3.00792">
        <ele>1310.6</ele>
        <time>2022-08-04T09:42:32Z</time>
      </trkpt>
      <trkpt lat="44.59328" lon="3.00791">
        <ele>1310.6</ele>
        <time>2022-08-04T09:42:34Z</time>
      </trkpt>
      <trkpt lat="44.59331" lon="3.00788">
        <ele>1310.7</ele>
        <time>2022-08-04T09:42:37Z</time>
      </trkpt>
      <trkpt lat="44.59338" lon="3.00779">
        <ele>1310.8</ele>
        <time>2022-08-04T09:42:43Z</time>
      </trkpt>
      <trkpt lat="44.59341" lon="3.00777">
        <ele>1310.8</ele>
        <time>2022-08-04T09:42:45Z</time>
      </trkpt>
      <trkpt lat="44.59346" lon="3.00766">
        <ele>1311</ele>
        <time>2022-08-04T09:42:51Z</time>
      </trkpt>
      <trkpt lat="44.59348" lon="3.00761">
        <ele>1311.1</ele>
        <time>2022-08-04T09:42:53Z</time>
      </trkpt>
      <trkpt lat="44.5935" lon="3.00759">
        <ele>1311.1</ele>
        <time>2022-08-04T09:42:55Z</time>
      </trkpt>
      <trkpt lat="44.59353" lon="3.00754">
        <ele>1311.2</ele>
        <time>2022-08-04T09:42:58Z</time>
      </trkpt>
      <trkpt lat="44.59358" lon="3.00744">
        <ele>1311.6</ele>
        <time>2022-08-04T09:43:05Z</time>
      </trkpt>
      <trkpt lat="44.5936" lon="3.0074">
        <ele>1311.8</ele>
        <time>2022-08-04T09:43:08Z</time>
      </trkpt>
      <trkpt lat="44.59361" lon="3.00739">
        <ele>1311.8</ele>
        <time>2022-08-04T09:43:09Z</time>
      </trkpt>
      <trkpt lat="44.59362" lon="3.00735">
        <ele>1312</ele>
        <time>2022-08-04T09:43:11Z</time>
      </trkpt>
      <trkpt lat="44.59362" lon="3.00733">
        <ele>1312.1</ele>
        <time>2022-08-04T09:43:12Z</time>
      </trkpt>
      <trkpt lat="44.59365" lon="3.00722">
        <ele>1312.7</ele>
        <time>2022-08-04T09:43:17Z</time>
      </trkpt>
      <trkpt lat="44.59368" lon="3.00716">
        <ele>1312.7</ele>
        <time>2022-08-04T09:43:21Z</time>
      </trkpt>
      <trkpt lat="44.59369" lon="3.00712">
        <ele>1312.8</ele>
        <time>2022-08-04T09:43:23Z</time>
      </trkpt>
      <trkpt lat="44.59369" lon="3.00709">
        <ele>1312.9</ele>
        <time>2022-08-04T09:43:24Z</time>
      </trkpt>
      <trkpt lat="44.59372" lon="3.00703">
        <ele>1312.9</ele>
        <time>2022-08-04T09:43:28Z</time>
      </trkpt>
      <trkpt lat="44.59373" lon="3.00702">
        <ele>1312.9</ele>
        <time>2022-08-04T09:43:29Z</time>
      </trkpt>
      <trkpt lat="44.59376" lon="3.00695">
        <ele>1312.9</ele>
        <time>2022-08-04T09:43:33Z</time>
      </trkpt>
      <trkpt lat="44.59381" lon="3.00681">
        <ele>1313.2</ele>
        <time>2022-08-04T09:43:40Z</time>
      </trkpt>
      <trkpt lat="44.59382" lon="3.0068">
        <ele>1313.2</ele>
        <time>2022-08-04T09:43:41Z</time>
      </trkpt>
      <trkpt lat="44.59383" lon="3.00676">
        <ele>1313.2</ele>
        <time>2022-08-04T09:43:43Z</time>
      </trkpt>
      <trkpt lat="44.59386" lon="3.00674">
        <ele>1313.1</ele>
        <time>2022-08-04T09:43:45Z</time>
      </trkpt>
      <trkpt lat="44.59386" lon="3.00672">
        <ele>1313.1</ele>
        <time>2022-08-04T09:43:46Z</time>
      </trkpt>
      <trkpt lat="44.59387" lon="3.00668">
        <ele>1313.1</ele>
        <time>2022-08-04T09:43:48Z</time>
      </trkpt>
      <trkpt lat="44.59388" lon="3.00665">
        <ele>1313.1</ele>
        <time>2022-08-04T09:43:50Z</time>
      </trkpt>
      <trkpt lat="44.59392" lon="3.00655">
        <ele>1313.1</ele>
        <time>2022-08-04T09:43:55Z</time>
      </trkpt>
      <trkpt lat="44.59395" lon="3.00644">
        <ele>1313.2</ele>
        <time>2022-08-04T09:44:01Z</time>
      </trkpt>
      <trkpt lat="44.59397" lon="3.00641">
        <ele>1313.1</ele>
        <time>2022-08-04T09:44:03Z</time>
      </trkpt>
      <trkpt lat="44.59398" lon="3.00638">
        <ele>1313.1</ele>
        <time>2022-08-04T09:44:05Z</time>
      </trkpt>
      <trkpt lat="44.594" lon="3.00633">
        <ele>1313.1</ele>
        <time>2022-08-04T09:44:08Z</time>
      </trkpt>
      <trkpt lat="44.59402" lon="3.00627">
        <ele>1313.1</ele>
        <time>2022-08-04T09:44:11Z</time>
      </trkpt>
      <trkpt lat="44.59405" lon="3.00623">
        <ele>1312.9</ele>
        <time>2022-08-04T09:44:14Z</time>
      </trkpt>
      <trkpt lat="44.59406" lon="3.00621">
        <ele>1312.8</ele>
        <time>2022-08-04T09:44:15Z</time>
      </trkpt>
      <trkpt lat="44.59408" lon="3.00606">
        <ele>1313.2</ele>
        <time>2022-08-04T09:44:23Z</time>
      </trkpt>
      <trkpt lat="44.59412" lon="3.00596">
        <ele>1313.1</ele>
        <time>2022-08-04T09:44:29Z</time>
      </trkpt>
      <trkpt lat="44.59413" lon="3.00595">
        <ele>1313.1</ele>
        <time>2022-08-04T09:44:30Z</time>
      </trkpt>
      <trkpt lat="44.59416" lon="3.00591">
        <ele>1312.9</ele>
        <time>2022-08-04T09:44:32Z</time>
      </trkpt>
      <trkpt lat="44.5942" lon="3.00585">
        <ele>1312.6</ele>
        <time>2022-08-04T09:44:36Z</time>
      </trkpt>
      <trkpt lat="44.59422" lon="3.0058">
        <ele>1312.5</ele>
        <time>2022-08-04T09:44:39Z</time>
      </trkpt>
      <trkpt lat="44.59424" lon="3.00575">
        <ele>1312.5</ele>
        <time>2022-08-04T09:44:42Z</time>
      </trkpt>
      <trkpt lat="44.59429" lon="3.00564">
        <ele>1312.3</ele>
        <time>2022-08-04T09:44:48Z</time>
      </trkpt>
      <trkpt lat="44.5943" lon="3.00563">
        <ele>1312.4</ele>
        <time>2022-08-04T09:44:49Z</time>
      </trkpt>
      <trkpt lat="44.59433" lon="3.00556">
        <ele>1312.2</ele>
        <time>2022-08-04T09:44:53Z</time>
      </trkpt>
      <trkpt lat="44.59434" lon="3.00552">
        <ele>1312.4</ele>
        <time>2022-08-04T09:44:55Z</time>
      </trkpt>
      <trkpt lat="44.59434" lon="3.00551">
        <ele>1312.5</ele>
        <time>2022-08-04T09:44:56Z</time>
      </trkpt>
      <trkpt lat="44.59434" lon="3.00549">
        <ele>1312.6</ele>
        <time>2022-08-04T09:44:57Z</time>
      </trkpt>
      <trkpt lat="44.59435" lon="3.00548">
        <ele>1312.6</ele>
        <time>2022-08-04T09:44:58Z</time>
      </trkpt>
      <trkpt lat="44.59437" lon="3.00541">
        <ele>1312.9</ele>
        <time>2022-08-04T09:45:02Z</time>
      </trkpt>
      <trkpt lat="44.59438" lon="3.00539">
        <ele>1312.9</ele>
        <time>2022-08-04T09:45:03Z</time>
      </trkpt>
      <trkpt lat="44.59438" lon="3.00538">
        <ele>1312.9</ele>
        <time>2022-08-04T09:45:04Z</time>
      </trkpt>
      <trkpt lat="44.59442" lon="3.00534">
        <ele>1312.7</ele>
        <time>2022-08-04T09:45:08Z</time>
      </trkpt>
      <trkpt lat="44.59443" lon="3.00533">
        <ele>1312.8</ele>
        <time>2022-08-04T09:45:09Z</time>
      </trkpt>
      <trkpt lat="44.59448" lon="3.00527">
        <ele>1312.7</ele>
        <time>2022-08-04T09:45:14Z</time>
      </trkpt>
      <trkpt lat="44.59449" lon="3.00524">
        <ele>1312.9</ele>
        <time>2022-08-04T09:45:16Z</time>
      </trkpt>
      <trkpt lat="44.59449" lon="3.00522">
        <ele>1312.9</ele>
        <time>2022-08-04T09:45:17Z</time>
      </trkpt>
      <trkpt lat="44.59452" lon="3.00518">
        <ele>1313</ele>
        <time>2022-08-04T09:45:19Z</time>
      </trkpt>
      <trkpt lat="44.59456" lon="3.00508">
        <ele>1313.2</ele>
        <time>2022-08-04T09:45:26Z</time>
      </trkpt>
      <trkpt lat="44.59457" lon="3.00505">
        <ele>1313.3</ele>
        <time>2022-08-04T09:45:28Z</time>
      </trkpt>
      <trkpt lat="44.59456" lon="3.00504">
        <ele>1313.4</ele>
        <time>2022-08-04T09:45:29Z</time>
      </trkpt>
      <trkpt lat="44.59456" lon="3.00497">
        <ele>1314</ele>
        <time>2022-08-04T09:45:33Z</time>
      </trkpt>
      <trkpt lat="44.59456" lon="3.00496">
        <ele>1314.1</ele>
        <time>2022-08-04T09:45:34Z</time>
      </trkpt>
      <trkpt lat="44.59458" lon="3.0048">
        <ele>1315</ele>
        <time>2022-08-04T09:45:42Z</time>
      </trkpt>
      <trkpt lat="44.59458" lon="3.00479">
        <ele>1315.1</ele>
        <time>2022-08-04T09:45:43Z</time>
      </trkpt>
      <trkpt lat="44.59459" lon="3.00471">
        <ele>1315.6</ele>
        <time>2022-08-04T09:45:47Z</time>
      </trkpt>
      <trkpt lat="44.59459" lon="3.00469">
        <ele>1315.7</ele>
        <time>2022-08-04T09:45:48Z</time>
      </trkpt>
      <trkpt lat="44.59459" lon="3.00466">
        <ele>1315.9</ele>
        <time>2022-08-04T09:45:50Z</time>
      </trkpt>
      <trkpt lat="44.5946" lon="3.00461">
        <ele>1316.1</ele>
        <time>2022-08-04T09:45:53Z</time>
      </trkpt>
      <trkpt lat="44.59462" lon="3.00449">
        <ele>1316.8</ele>
        <time>2022-08-04T09:46:00Z</time>
      </trkpt>
      <trkpt lat="44.59462" lon="3.00446">
        <ele>1317</ele>
        <time>2022-08-04T09:46:01Z</time>
      </trkpt>
      <trkpt lat="44.59462" lon="3.00443">
        <ele>1317.2</ele>
        <time>2022-08-04T09:46:03Z</time>
      </trkpt>
      <trkpt lat="44.59462" lon="3.00442">
        <ele>1317.2</ele>
        <time>2022-08-04T09:46:04Z</time>
      </trkpt>
      <trkpt lat="44.59462" lon="3.00438">
        <ele>1317.4</ele>
        <time>2022-08-04T09:46:06Z</time>
      </trkpt>
      <trkpt lat="44.59464" lon="3.00434">
        <ele>1317.4</ele>
        <time>2022-08-04T09:46:10Z</time>
      </trkpt>
      <trkpt lat="44.59465" lon="3.0043">
        <ele>1317.5</ele>
        <time>2022-08-04T09:46:13Z</time>
      </trkpt>
      <trkpt lat="44.59465" lon="3.00426">
        <ele>1317.6</ele>
        <time>2022-08-04T09:46:15Z</time>
      </trkpt>
      <trkpt lat="44.59466" lon="3.00422">
        <ele>1317.6</ele>
        <time>2022-08-04T09:46:17Z</time>
      </trkpt>
      <trkpt lat="44.59468" lon="3.00418">
        <ele>1317.5</ele>
        <time>2022-08-04T09:46:21Z</time>
      </trkpt>
      <trkpt lat="44.59467" lon="3.00415">
        <ele>1317.8</ele>
        <time>2022-08-04T09:46:29Z</time>
      </trkpt>
      <trkpt lat="44.59466" lon="3.00412">
        <ele>1318.1</ele>
        <time>2022-08-04T09:46:32Z</time>
      </trkpt>
      <trkpt lat="44.59466" lon="3.00409">
        <ele>1318.2</ele>
        <time>2022-08-04T09:46:34Z</time>
      </trkpt>
      <trkpt lat="44.59466" lon="3.00406">
        <ele>1318.3</ele>
        <time>2022-08-04T09:46:36Z</time>
      </trkpt>
      <trkpt lat="44.59466" lon="3.00398">
        <ele>1318.6</ele>
        <time>2022-08-04T09:46:42Z</time>
      </trkpt>
      <trkpt lat="44.59467" lon="3.00395">
        <ele>1318.7</ele>
        <time>2022-08-04T09:46:44Z</time>
      </trkpt>
      <trkpt lat="44.59467" lon="3.0039">
        <ele>1318.8</ele>
        <time>2022-08-04T09:46:48Z</time>
      </trkpt>
      <trkpt lat="44.59468" lon="3.00382">
        <ele>1319.1</ele>
        <time>2022-08-04T09:46:52Z</time>
      </trkpt>
      <trkpt lat="44.59467" lon="3.00379">
        <ele>1319.2</ele>
        <time>2022-08-04T09:46:54Z</time>
      </trkpt>
      <trkpt lat="44.59468" lon="3.00372">
        <ele>1319.3</ele>
        <time>2022-08-04T09:46:59Z</time>
      </trkpt>
      <trkpt lat="44.59467" lon="3.00367">
        <ele>1319.7</ele>
        <time>2022-08-04T09:47:02Z</time>
      </trkpt>
      <trkpt lat="44.5947" lon="3.00358">
        <ele>1319.5</ele>
        <time>2022-08-04T09:47:06Z</time>
      </trkpt>
      <trkpt lat="44.5947" lon="3.00348">
        <ele>1319.5</ele>
        <time>2022-08-04T09:47:12Z</time>
      </trkpt>
      <trkpt lat="44.59469" lon="3.00344">
        <ele>1319.6</ele>
        <time>2022-08-04T09:47:14Z</time>
      </trkpt>
      <trkpt lat="44.5947" lon="3.0034">
        <ele>1319.5</ele>
        <time>2022-08-04T09:47:17Z</time>
      </trkpt>
      <trkpt lat="44.59471" lon="3.00332">
        <ele>1319.3</ele>
        <time>2022-08-04T09:47:22Z</time>
      </trkpt>
      <trkpt lat="44.59471" lon="3.00327">
        <ele>1319.6</ele>
        <time>2022-08-04T09:47:24Z</time>
      </trkpt>
      <trkpt lat="44.5947" lon="3.0032">
        <ele>1320</ele>
        <time>2022-08-04T09:47:27Z</time>
      </trkpt>
      <trkpt lat="44.5947" lon="3.00315">
        <ele>1320.2</ele>
        <time>2022-08-04T09:47:32Z</time>
      </trkpt>
      <trkpt lat="44.5947" lon="3.00309">
        <ele>1320.3</ele>
        <time>2022-08-04T09:47:37Z</time>
      </trkpt>
      <trkpt lat="44.5947" lon="3.00307">
        <ele>1320.3</ele>
        <time>2022-08-04T09:47:38Z</time>
      </trkpt>
      <trkpt lat="44.59472" lon="3.00297">
        <ele>1320.1</ele>
        <time>2022-08-04T09:47:45Z</time>
      </trkpt>
      <trkpt lat="44.59473" lon="3.00288">
        <ele>1319.9</ele>
        <time>2022-08-04T09:47:51Z</time>
      </trkpt>
      <trkpt lat="44.59472" lon="3.00285">
        <ele>1320</ele>
        <time>2022-08-04T09:47:53Z</time>
      </trkpt>
      <trkpt lat="44.59474" lon="3.00283">
        <ele>1319.7</ele>
        <time>2022-08-04T09:47:57Z</time>
      </trkpt>
      <trkpt lat="44.59477" lon="3.00285">
        <ele>1319.3</ele>
        <time>2022-08-04T09:48:03Z</time>
      </trkpt>
      <trkpt lat="44.59477" lon="3.00287">
        <ele>1319.3</ele>
        <time>2022-08-04T09:48:11Z</time>
      </trkpt>
      <trkpt lat="44.59476" lon="3.00287">
        <ele>1319.4</ele>
        <time>2022-08-04T09:48:15Z</time>
      </trkpt>
      <trkpt lat="44.59478" lon="3.00284">
        <ele>1319.2</ele>
        <time>2022-08-04T09:48:21Z</time>
      </trkpt>
      <trkpt lat="44.59478" lon="3.00283">
        <ele>1319.2</ele>
        <time>2022-08-04T09:48:26Z</time>
      </trkpt>
      <trkpt lat="44.59479" lon="3.00282">
        <ele>1319.1</ele>
        <time>2022-08-04T09:48:32Z</time>
      </trkpt>
      <trkpt lat="44.59479" lon="3.0027">
        <ele>1319</ele>
        <time>2022-08-04T09:48:39Z</time>
      </trkpt>
      <trkpt lat="44.59479" lon="3.00268">
        <ele>1319.1</ele>
        <time>2022-08-04T09:48:40Z</time>
      </trkpt>
      <trkpt lat="44.59478" lon="3.00263">
        <ele>1319.2</ele>
        <time>2022-08-04T09:48:43Z</time>
      </trkpt>
      <trkpt lat="44.59478" lon="3.00262">
        <ele>1319.2</ele>
        <time>2022-08-04T09:48:44Z</time>
      </trkpt>
      <trkpt lat="44.59479" lon="3.00254">
        <ele>1319</ele>
        <time>2022-08-04T09:48:50Z</time>
      </trkpt>
      <trkpt lat="44.59478" lon="3.00251">
        <ele>1319.1</ele>
        <time>2022-08-04T09:48:51Z</time>
      </trkpt>
      <trkpt lat="44.59479" lon="3.00245">
        <ele>1319</ele>
        <time>2022-08-04T09:48:54Z</time>
      </trkpt>
      <trkpt lat="44.5948" lon="3.00232">
        <ele>1319</ele>
        <time>2022-08-04T09:49:00Z</time>
      </trkpt>
      <trkpt lat="44.5948" lon="3.00231">
        <ele>1318.9</ele>
        <time>2022-08-04T09:49:01Z</time>
      </trkpt>
      <trkpt lat="44.5948" lon="3.00219">
        <ele>1318.9</ele>
        <time>2022-08-04T09:49:07Z</time>
      </trkpt>
      <trkpt lat="44.5948" lon="3.00216">
        <ele>1318.9</ele>
        <time>2022-08-04T09:49:09Z</time>
      </trkpt>
      <trkpt lat="44.59479" lon="3.00208">
        <ele>1319</ele>
        <time>2022-08-04T09:49:13Z</time>
      </trkpt>
      <trkpt lat="44.59479" lon="3.00207">
        <ele>1319</ele>
        <time>2022-08-04T09:49:14Z</time>
      </trkpt>
      <trkpt lat="44.59481" lon="3.00196">
        <ele>1318.8</ele>
        <time>2022-08-04T09:49:21Z</time>
      </trkpt>
      <trkpt lat="44.59483" lon="3.00191">
        <ele>1318.5</ele>
        <time>2022-08-04T09:49:25Z</time>
      </trkpt>
      <trkpt lat="44.59483" lon="3.00189">
        <ele>1318.4</ele>
        <time>2022-08-04T09:49:26Z</time>
      </trkpt>
      <trkpt lat="44.59485" lon="3.00177">
        <ele>1318.2</ele>
        <time>2022-08-04T09:49:34Z</time>
      </trkpt>
      <trkpt lat="44.59483" lon="3.00168">
        <ele>1318.4</ele>
        <time>2022-08-04T09:49:40Z</time>
      </trkpt>
      <trkpt lat="44.59483" lon="3.00166">
        <ele>1318.4</ele>
        <time>2022-08-04T09:49:41Z</time>
      </trkpt>
      <trkpt lat="44.59483" lon="3.00163">
        <ele>1318.4</ele>
        <time>2022-08-04T09:49:43Z</time>
      </trkpt>
      <trkpt lat="44.59485" lon="3.00157">
        <ele>1318</ele>
        <time>2022-08-04T09:49:48Z</time>
      </trkpt>
      <trkpt lat="44.59488" lon="3.00155">
        <ele>1317.5</ele>
        <time>2022-08-04T09:49:54Z</time>
      </trkpt>
      <trkpt lat="44.59489" lon="3.00151">
        <ele>1317.4</ele>
        <time>2022-08-04T09:50:01Z</time>
      </trkpt>
      <trkpt lat="44.59489" lon="3.00152">
        <ele>1317.4</ele>
        <time>2022-08-04T09:50:07Z</time>
      </trkpt>
      <trkpt lat="44.5949" lon="3.00154">
        <ele>1317.3</ele>
        <time>2022-08-04T09:50:16Z</time>
      </trkpt>
      <trkpt lat="44.5949" lon="3.00154">
        <ele>1317.3</ele>
        <time>2022-08-04T09:50:25Z</time>
      </trkpt>
      <trkpt lat="44.59488" lon="3.00153">
        <ele>1317.5</ele>
        <time>2022-08-04T09:50:50Z</time>
      </trkpt>
      <trkpt lat="44.59488" lon="3.00154">
        <ele>1317.5</ele>
        <time>2022-08-04T09:51:37Z</time>
      </trkpt>
      <trkpt lat="44.59488" lon="3.00153">
        <ele>1317.6</ele>
        <time>2022-08-04T09:52:34Z</time>
      </trkpt>
      <trkpt lat="44.59485" lon="3.00156">
        <ele>1318</ele>
        <time>2022-08-04T09:52:37Z</time>
      </trkpt>
      <trkpt lat="44.59486" lon="3.00157">
        <ele>1317.8</ele>
        <time>2022-08-04T09:52:39Z</time>
      </trkpt>
      <trkpt lat="44.59485" lon="3.00156">
        <ele>1318</ele>
        <time>2022-08-04T09:52:41Z</time>
      </trkpt>
      <trkpt lat="44.59485" lon="3.00156">
        <ele>1317.9</ele>
        <time>2022-08-04T09:52:42Z</time>
      </trkpt>
      <trkpt lat="44.59485" lon="3.00153">
        <ele>1317.9</ele>
        <time>2022-08-04T09:52:43Z</time>
      </trkpt>
      <trkpt lat="44.59488" lon="3.00147">
        <ele>1317.4</ele>
        <time>2022-08-04T09:52:45Z</time>
      </trkpt>
      <trkpt lat="44.5949" lon="3.00145">
        <ele>1317.1</ele>
        <time>2022-08-04T09:52:50Z</time>
      </trkpt>
      <trkpt lat="44.5949" lon="3.00144">
        <ele>1317.1</ele>
        <time>2022-08-04T09:52:51Z</time>
      </trkpt>
      <trkpt lat="44.59493" lon="3.00142">
        <ele>1316.8</ele>
        <time>2022-08-04T09:52:56Z</time>
      </trkpt>
      <trkpt lat="44.59491" lon="3.00146">
        <ele>1317</ele>
        <time>2022-08-04T09:52:58Z</time>
      </trkpt>
      <trkpt lat="44.59492" lon="3.00157">
        <ele>1317.1</ele>
        <time>2022-08-04T09:53:10Z</time>
      </trkpt>
      <trkpt lat="44.59489" lon="3.00155">
        <ele>1317.5</ele>
        <time>2022-08-04T09:53:15Z</time>
      </trkpt>
      <trkpt lat="44.59488" lon="3.00154">
        <ele>1317.5</ele>
        <time>2022-08-04T09:53:17Z</time>
      </trkpt>
      <trkpt lat="44.59489" lon="3.00154">
        <ele>1317.5</ele>
        <time>2022-08-04T09:53:21Z</time>
      </trkpt>
      <trkpt lat="44.59489" lon="3.00147">
        <ele>1317.3</ele>
        <time>2022-08-04T09:53:31Z</time>
      </trkpt>
      <trkpt lat="44.59488" lon="3.00148">
        <ele>1317.5</ele>
        <time>2022-08-04T09:53:37Z</time>
      </trkpt>
      <trkpt lat="44.59487" lon="3.00149">
        <ele>1317.6</ele>
        <time>2022-08-04T09:53:44Z</time>
      </trkpt>
      <trkpt lat="44.59488" lon="3.00142">
        <ele>1317.4</ele>
        <time>2022-08-04T09:53:50Z</time>
      </trkpt>
      <trkpt lat="44.59489" lon="3.00139">
        <ele>1317.2</ele>
        <time>2022-08-04T09:53:52Z</time>
      </trkpt>
      <trkpt lat="44.59489" lon="3.00136">
        <ele>1317.2</ele>
        <time>2022-08-04T09:53:54Z</time>
      </trkpt>
      <trkpt lat="44.59489" lon="3.00126">
        <ele>1317.1</ele>
        <time>2022-08-04T09:53:59Z</time>
      </trkpt>
      <trkpt lat="44.59489" lon="3.00111">
        <ele>1317.2</ele>
        <time>2022-08-04T09:54:07Z</time>
      </trkpt>
      <trkpt lat="44.59489" lon="3.00107">
        <ele>1317.1</ele>
        <time>2022-08-04T09:54:09Z</time>
      </trkpt>
      <trkpt lat="44.59491" lon="3.001">
        <ele>1316.9</ele>
        <time>2022-08-04T09:54:16Z</time>
      </trkpt>
      <trkpt lat="44.59491" lon="3.00099">
        <ele>1316.8</ele>
        <time>2022-08-04T09:54:17Z</time>
      </trkpt>
      <trkpt lat="44.59492" lon="3.001">
        <ele>1316.8</ele>
        <time>2022-08-04T09:54:18Z</time>
      </trkpt>
      <trkpt lat="44.59492" lon="3.001">
        <ele>1316.8</ele>
        <time>2022-08-04T09:54:22Z</time>
      </trkpt>
      <trkpt lat="44.59493" lon="3.001">
        <ele>1316.7</ele>
        <time>2022-08-04T09:54:28Z</time>
      </trkpt>
      <trkpt lat="44.59493" lon="3.001">
        <ele>1316.7</ele>
        <time>2022-08-04T09:54:37Z</time>
      </trkpt>
      <trkpt lat="44.59495" lon="3.00093">
        <ele>1316.4</ele>
        <time>2022-08-04T09:54:41Z</time>
      </trkpt>
      <trkpt lat="44.59499" lon="3.00084">
        <ele>1316.1</ele>
        <time>2022-08-04T09:54:46Z</time>
      </trkpt>
      <trkpt lat="44.59499" lon="3.0008">
        <ele>1315.9</ele>
        <time>2022-08-04T09:54:48Z</time>
      </trkpt>
      <trkpt lat="44.59501" lon="3.00072">
        <ele>1315.5</ele>
        <time>2022-08-04T09:54:52Z</time>
      </trkpt>
      <trkpt lat="44.59502" lon="3.00068">
        <ele>1315.3</ele>
        <time>2022-08-04T09:54:54Z</time>
      </trkpt>
      <trkpt lat="44.59501" lon="3.00066">
        <ele>1315.3</ele>
        <time>2022-08-04T09:54:55Z</time>
      </trkpt>
      <trkpt lat="44.59503" lon="3.00064">
        <ele>1315.1</ele>
        <time>2022-08-04T09:54:57Z</time>
      </trkpt>
      <trkpt lat="44.59504" lon="3.00062">
        <ele>1314.9</ele>
        <time>2022-08-04T09:54:59Z</time>
      </trkpt>
      <trkpt lat="44.59505" lon="3.0006">
        <ele>1314.7</ele>
        <time>2022-08-04T09:55:00Z</time>
      </trkpt>
      <trkpt lat="44.59508" lon="3.00053">
        <ele>1314.4</ele>
        <time>2022-08-04T09:55:05Z</time>
      </trkpt>
      <trkpt lat="44.59508" lon="3.00045">
        <ele>1314.4</ele>
        <time>2022-08-04T09:55:10Z</time>
      </trkpt>
      <trkpt lat="44.5951" lon="3.00042">
        <ele>1314.3</ele>
        <time>2022-08-04T09:55:12Z</time>
      </trkpt>
      <trkpt lat="44.59511" lon="3.00038">
        <ele>1314.2</ele>
        <time>2022-08-04T09:55:15Z</time>
      </trkpt>
      <trkpt lat="44.59512" lon="3.00032">
        <ele>1314.1</ele>
        <time>2022-08-04T09:55:18Z</time>
      </trkpt>
      <trkpt lat="44.59513" lon="3.00029">
        <ele>1314.1</ele>
        <time>2022-08-04T09:55:21Z</time>
      </trkpt>
      <trkpt lat="44.59514" lon="3.00027">
        <ele>1314</ele>
        <time>2022-08-04T09:55:23Z</time>
      </trkpt>
      <trkpt lat="44.59517" lon="3.00018">
        <ele>1313.8</ele>
        <time>2022-08-04T09:55:29Z</time>
      </trkpt>
      <trkpt lat="44.59518" lon="3.00014">
        <ele>1313.7</ele>
        <time>2022-08-04T09:55:32Z</time>
      </trkpt>
      <trkpt lat="44.59519" lon="3.00011">
        <ele>1313.6</ele>
        <time>2022-08-04T09:55:34Z</time>
      </trkpt>
      <trkpt lat="44.59521" lon="3.00004">
        <ele>1313.5</ele>
        <time>2022-08-04T09:55:38Z</time>
      </trkpt>
      <trkpt lat="44.59521" lon="3.00001">
        <ele>1313.5</ele>
        <time>2022-08-04T09:55:40Z</time>
      </trkpt>
      <trkpt lat="44.59522" lon="3">
        <ele>1313.4</ele>
        <time>2022-08-04T09:55:41Z</time>
      </trkpt>
      <trkpt lat="44.59526" lon="2.99994">
        <ele>1313.4</ele>
        <time>2022-08-04T09:55:46Z</time>
      </trkpt>
      <trkpt lat="44.5953" lon="2.99983">
        <ele>1313.5</ele>
        <time>2022-08-04T09:55:53Z</time>
      </trkpt>
      <trkpt lat="44.59532" lon="2.99974">
        <ele>1313.6</ele>
        <time>2022-08-04T09:55:58Z</time>
      </trkpt>
      <trkpt lat="44.59533" lon="2.99971">
        <ele>1313.7</ele>
        <time>2022-08-04T09:56:00Z</time>
      </trkpt>
      <trkpt lat="44.59533" lon="2.9997">
        <ele>1313.7</ele>
        <time>2022-08-04T09:56:01Z</time>
      </trkpt>
      <trkpt lat="44.59534" lon="2.99968">
        <ele>1313.7</ele>
        <time>2022-08-04T09:56:04Z</time>
      </trkpt>
      <trkpt lat="44.59537" lon="2.99964">
        <ele>1313.7</ele>
        <time>2022-08-04T09:56:07Z</time>
      </trkpt>
      <trkpt lat="44.59542" lon="2.99952">
        <ele>1313.7</ele>
        <time>2022-08-04T09:56:14Z</time>
      </trkpt>
      <trkpt lat="44.59544" lon="2.99943">
        <ele>1313.9</ele>
        <time>2022-08-04T09:56:19Z</time>
      </trkpt>
      <trkpt lat="44.59545" lon="2.9994">
        <ele>1314</ele>
        <time>2022-08-04T09:56:21Z</time>
      </trkpt>
      <trkpt lat="44.59546" lon="2.99938">
        <ele>1314.1</ele>
        <time>2022-08-04T09:56:22Z</time>
      </trkpt>
      <trkpt lat="44.59547" lon="2.99934">
        <ele>1314.2</ele>
        <time>2022-08-04T09:56:25Z</time>
      </trkpt>
      <trkpt lat="44.59549" lon="2.99933">
        <ele>1314.2</ele>
        <time>2022-08-04T09:56:27Z</time>
      </trkpt>
      <trkpt lat="44.59556" lon="2.99921">
        <ele>1314.6</ele>
        <time>2022-08-04T09:56:36Z</time>
      </trkpt>
      <trkpt lat="44.59557" lon="2.9992">
        <ele>1314.7</ele>
        <time>2022-08-04T09:56:37Z</time>
      </trkpt>
      <trkpt lat="44.5956" lon="2.99914">
        <ele>1314.8</ele>
        <time>2022-08-04T09:56:41Z</time>
      </trkpt>
      <trkpt lat="44.5956" lon="2.99911">
        <ele>1314.9</ele>
        <time>2022-08-04T09:56:43Z</time>
      </trkpt>
      <trkpt lat="44.59564" lon="2.99903">
        <ele>1314.9</ele>
        <time>2022-08-04T09:56:48Z</time>
      </trkpt>
      <trkpt lat="44.59565" lon="2.99899">
        <ele>1314.9</ele>
        <time>2022-08-04T09:56:49Z</time>
      </trkpt>
      <trkpt lat="44.59568" lon="2.99897">
        <ele>1314.8</ele>
        <time>2022-08-04T09:56:53Z</time>
      </trkpt>
      <trkpt lat="44.59569" lon="2.99893">
        <ele>1314.9</ele>
        <time>2022-08-04T09:56:55Z</time>
      </trkpt>
      <trkpt lat="44.59572" lon="2.99883">
        <ele>1315.3</ele>
        <time>2022-08-04T09:57:01Z</time>
      </trkpt>
      <trkpt lat="44.59573" lon="2.99881">
        <ele>1315.3</ele>
        <time>2022-08-04T09:57:02Z</time>
      </trkpt>
      <trkpt lat="44.59575" lon="2.99881">
        <ele>1315.2</ele>
        <time>2022-08-04T09:57:03Z</time>
      </trkpt>
      <trkpt lat="44.59577" lon="2.99879">
        <ele>1315.2</ele>
        <time>2022-08-04T09:57:06Z</time>
      </trkpt>
      <trkpt lat="44.5958" lon="2.99872">
        <ele>1315.5</ele>
        <time>2022-08-04T09:57:10Z</time>
      </trkpt>
      <trkpt lat="44.59579" lon="2.9987">
        <ele>1315.6</ele>
        <time>2022-08-04T09:57:11Z</time>
      </trkpt>
      <trkpt lat="44.5958" lon="2.99865">
        <ele>1315.9</ele>
        <time>2022-08-04T09:57:14Z</time>
      </trkpt>
      <trkpt lat="44.59581" lon="2.99864">
        <ele>1316</ele>
        <time>2022-08-04T09:57:15Z</time>
      </trkpt>
      <trkpt lat="44.59586" lon="2.99853">
        <ele>1316.1</ele>
        <time>2022-08-04T09:57:22Z</time>
      </trkpt>
      <trkpt lat="44.59589" lon="2.99851">
        <ele>1316</ele>
        <time>2022-08-04T09:57:24Z</time>
      </trkpt>
      <trkpt lat="44.59593" lon="2.99843">
        <ele>1316</ele>
        <time>2022-08-04T09:57:29Z</time>
      </trkpt>
      <trkpt lat="44.59594" lon="2.9984">
        <ele>1316</ele>
        <time>2022-08-04T09:57:31Z</time>
      </trkpt>
      <trkpt lat="44.59597" lon="2.99832">
        <ele>1316.1</ele>
        <time>2022-08-04T09:57:36Z</time>
      </trkpt>
      <trkpt lat="44.59598" lon="2.99829">
        <ele>1316.2</ele>
        <time>2022-08-04T09:57:38Z</time>
      </trkpt>
      <trkpt lat="44.59601" lon="2.99824">
        <ele>1316.2</ele>
        <time>2022-08-04T09:57:41Z</time>
      </trkpt>
      <trkpt lat="44.59602" lon="2.99821">
        <ele>1316.3</ele>
        <time>2022-08-04T09:57:43Z</time>
      </trkpt>
      <trkpt lat="44.59603" lon="2.99818">
        <ele>1316.3</ele>
        <time>2022-08-04T09:57:45Z</time>
      </trkpt>
      <trkpt lat="44.59606" lon="2.9981">
        <ele>1316.4</ele>
        <time>2022-08-04T09:57:50Z</time>
      </trkpt>
      <trkpt lat="44.5961" lon="2.99801">
        <ele>1316.2</ele>
        <time>2022-08-04T09:57:56Z</time>
      </trkpt>
      <trkpt lat="44.59611" lon="2.998">
        <ele>1316.2</ele>
        <time>2022-08-04T09:57:57Z</time>
      </trkpt>
      <trkpt lat="44.59614" lon="2.99793">
        <ele>1316.2</ele>
        <time>2022-08-04T09:58:01Z</time>
      </trkpt>
      <trkpt lat="44.59616" lon="2.99791">
        <ele>1316.2</ele>
        <time>2022-08-04T09:58:03Z</time>
      </trkpt>
      <trkpt lat="44.59618" lon="2.99784">
        <ele>1316.3</ele>
        <time>2022-08-04T09:58:07Z</time>
      </trkpt>
      <trkpt lat="44.59619" lon="2.99782">
        <ele>1316.3</ele>
        <time>2022-08-04T09:58:08Z</time>
      </trkpt>
      <trkpt lat="44.5962" lon="2.99779">
        <ele>1316.3</ele>
        <time>2022-08-04T09:58:10Z</time>
      </trkpt>
      <trkpt lat="44.59622" lon="2.99777">
        <ele>1316.3</ele>
        <time>2022-08-04T09:58:12Z</time>
      </trkpt>
      <trkpt lat="44.59627" lon="2.99767">
        <ele>1316.3</ele>
        <time>2022-08-04T09:58:19Z</time>
      </trkpt>
      <trkpt lat="44.59633" lon="2.99754">
        <ele>1316.3</ele>
        <time>2022-08-04T09:58:26Z</time>
      </trkpt>
      <trkpt lat="44.59635" lon="2.99749">
        <ele>1316.3</ele>
        <time>2022-08-04T09:58:29Z</time>
      </trkpt>
      <trkpt lat="44.59636" lon="2.99746">
        <ele>1316.2</ele>
        <time>2022-08-04T09:58:31Z</time>
      </trkpt>
      <trkpt lat="44.59637" lon="2.99745">
        <ele>1316.1</ele>
        <time>2022-08-04T09:58:32Z</time>
      </trkpt>
      <trkpt lat="44.59638" lon="2.99743">
        <ele>1316.1</ele>
        <time>2022-08-04T09:58:33Z</time>
      </trkpt>
      <trkpt lat="44.5964" lon="2.99737">
        <ele>1315.9</ele>
        <time>2022-08-04T09:58:37Z</time>
      </trkpt>
      <trkpt lat="44.5964" lon="2.99734">
        <ele>1315.9</ele>
        <time>2022-08-04T09:58:39Z</time>
      </trkpt>
      <trkpt lat="44.59641" lon="2.99731">
        <ele>1315.8</ele>
        <time>2022-08-04T09:58:41Z</time>
      </trkpt>
      <trkpt lat="44.59641" lon="2.9973">
        <ele>1315.8</ele>
        <time>2022-08-04T09:58:42Z</time>
      </trkpt>
      <trkpt lat="44.59646" lon="2.9972">
        <ele>1315.6</ele>
        <time>2022-08-04T09:58:49Z</time>
      </trkpt>
      <trkpt lat="44.59648" lon="2.99707">
        <ele>1315.7</ele>
        <time>2022-08-04T09:58:56Z</time>
      </trkpt>
      <trkpt lat="44.59649" lon="2.99694">
        <ele>1315.9</ele>
        <time>2022-08-04T09:59:02Z</time>
      </trkpt>
      <trkpt lat="44.59651" lon="2.99692">
        <ele>1315.7</ele>
        <time>2022-08-04T09:59:04Z</time>
      </trkpt>
      <trkpt lat="44.59655" lon="2.99685">
        <ele>1315.3</ele>
        <time>2022-08-04T09:59:09Z</time>
      </trkpt>
      <trkpt lat="44.59656" lon="2.99682">
        <ele>1315.2</ele>
        <time>2022-08-04T09:59:11Z</time>
      </trkpt>
      <trkpt lat="44.5966" lon="2.99676">
        <ele>1314.7</ele>
        <time>2022-08-04T09:59:16Z</time>
      </trkpt>
      <trkpt lat="44.5966" lon="2.99675">
        <ele>1314.7</ele>
        <time>2022-08-04T09:59:17Z</time>
      </trkpt>
      <trkpt lat="44.5966" lon="2.99671">
        <ele>1314.7</ele>
        <time>2022-08-04T09:59:19Z</time>
      </trkpt>
      <trkpt lat="44.59661" lon="2.99668">
        <ele>1314.6</ele>
        <time>2022-08-04T09:59:21Z</time>
      </trkpt>
      <trkpt lat="44.59662" lon="2.99664">
        <ele>1314.5</ele>
        <time>2022-08-04T09:59:23Z</time>
      </trkpt>
      <trkpt lat="44.59666" lon="2.99653">
        <ele>1314</ele>
        <time>2022-08-04T09:59:30Z</time>
      </trkpt>
      <trkpt lat="44.5967" lon="2.99641">
        <ele>1313.7</ele>
        <time>2022-08-04T09:59:38Z</time>
      </trkpt>
      <trkpt lat="44.59673" lon="2.99621">
        <ele>1313.6</ele>
        <time>2022-08-04T09:59:48Z</time>
      </trkpt>
      <trkpt lat="44.59673" lon="2.99612">
        <ele>1313.5</ele>
        <time>2022-08-04T09:59:53Z</time>
      </trkpt>
      <trkpt lat="44.59674" lon="2.9961">
        <ele>1313.4</ele>
        <time>2022-08-04T09:59:55Z</time>
      </trkpt>
      <trkpt lat="44.59674" lon="2.99609">
        <ele>1313.4</ele>
        <time>2022-08-04T09:59:56Z</time>
      </trkpt>
      <trkpt lat="44.59675" lon="2.99606">
        <ele>1313.2</ele>
        <time>2022-08-04T09:59:58Z</time>
      </trkpt>
      <trkpt lat="44.59676" lon="2.99601">
        <ele>1313</ele>
        <time>2022-08-04T10:00:01Z</time>
      </trkpt>
      <trkpt lat="44.59676" lon="2.99593">
        <ele>1312.7</ele>
        <time>2022-08-04T10:00:07Z</time>
      </trkpt>
      <trkpt lat="44.59676" lon="2.9959">
        <ele>1312.5</ele>
        <time>2022-08-04T10:00:09Z</time>
      </trkpt>
      <trkpt lat="44.59678" lon="2.99582">
        <ele>1312.2</ele>
        <time>2022-08-04T10:00:13Z</time>
      </trkpt>
      <trkpt lat="44.5968" lon="2.99566">
        <ele>1312.1</ele>
        <time>2022-08-04T10:00:20Z</time>
      </trkpt>
      <trkpt lat="44.5968" lon="2.99563">
        <ele>1312.1</ele>
        <time>2022-08-04T10:00:22Z</time>
      </trkpt>
      <trkpt lat="44.5968" lon="2.99562">
        <ele>1312</ele>
        <time>2022-08-04T10:00:23Z</time>
      </trkpt>
      <trkpt lat="44.5968" lon="2.99563">
        <ele>1312</ele>
        <time>2022-08-04T10:00:26Z</time>
      </trkpt>
      <trkpt lat="44.5968" lon="2.99561">
        <ele>1312</ele>
        <time>2022-08-04T10:00:27Z</time>
      </trkpt>
      <trkpt lat="44.59684" lon="2.99552">
        <ele>1311.8</ele>
        <time>2022-08-04T10:00:32Z</time>
      </trkpt>
      <trkpt lat="44.59688" lon="2.9954">
        <ele>1311.4</ele>
        <time>2022-08-04T10:00:40Z</time>
      </trkpt>
      <trkpt lat="44.59695" lon="2.99527">
        <ele>1311</ele>
        <time>2022-08-04T10:00:49Z</time>
      </trkpt>
      <trkpt lat="44.59699" lon="2.99516">
        <ele>1310.8</ele>
        <time>2022-08-04T10:00:56Z</time>
      </trkpt>
      <trkpt lat="44.59705" lon="2.99505">
        <ele>1310.6</ele>
        <time>2022-08-04T10:01:03Z</time>
      </trkpt>
      <trkpt lat="44.59708" lon="2.995">
        <ele>1310.5</ele>
        <time>2022-08-04T10:01:07Z</time>
      </trkpt>
      <trkpt lat="44.59711" lon="2.99493">
        <ele>1310.4</ele>
        <time>2022-08-04T10:01:11Z</time>
      </trkpt>
      <trkpt lat="44.59713" lon="2.9949">
        <ele>1310.3</ele>
        <time>2022-08-04T10:01:13Z</time>
      </trkpt>
      <trkpt lat="44.59716" lon="2.99483">
        <ele>1310.2</ele>
        <time>2022-08-04T10:01:17Z</time>
      </trkpt>
      <trkpt lat="44.59717" lon="2.99481">
        <ele>1310.2</ele>
        <time>2022-08-04T10:01:19Z</time>
      </trkpt>
      <trkpt lat="44.59718" lon="2.99478">
        <ele>1310.1</ele>
        <time>2022-08-04T10:01:21Z</time>
      </trkpt>
      <trkpt lat="44.59719" lon="2.99476">
        <ele>1310.1</ele>
        <time>2022-08-04T10:01:22Z</time>
      </trkpt>
      <trkpt lat="44.5972" lon="2.99476">
        <ele>1310.1</ele>
        <time>2022-08-04T10:01:23Z</time>
      </trkpt>
      <trkpt lat="44.59723" lon="2.99471">
        <ele>1310</ele>
        <time>2022-08-04T10:01:27Z</time>
      </trkpt>
      <trkpt lat="44.59726" lon="2.99462">
        <ele>1309.8</ele>
        <time>2022-08-04T10:01:35Z</time>
      </trkpt>
      <trkpt lat="44.59732" lon="2.9945">
        <ele>1309.6</ele>
        <time>2022-08-04T10:01:43Z</time>
      </trkpt>
      <trkpt lat="44.59735" lon="2.99444">
        <ele>1309.6</ele>
        <time>2022-08-04T10:01:48Z</time>
      </trkpt>
      <trkpt lat="44.59735" lon="2.99444">
        <ele>1309.6</ele>
        <time>2022-08-04T10:01:49Z</time>
      </trkpt>
      <trkpt lat="44.59736" lon="2.99444">
        <ele>1309.5</ele>
        <time>2022-08-04T10:01:50Z</time>
      </trkpt>
      <trkpt lat="44.59738" lon="2.99439">
        <ele>1309.5</ele>
        <time>2022-08-04T10:01:56Z</time>
      </trkpt>
      <trkpt lat="44.59738" lon="2.99438">
        <ele>1309.5</ele>
        <time>2022-08-04T10:01:57Z</time>
      </trkpt>
      <trkpt lat="44.5974" lon="2.99435">
        <ele>1309.5</ele>
        <time>2022-08-04T10:02:00Z</time>
      </trkpt>
      <trkpt lat="44.59741" lon="2.99433">
        <ele>1309.5</ele>
        <time>2022-08-04T10:02:01Z</time>
      </trkpt>
      <trkpt lat="44.59742" lon="2.9943">
        <ele>1309.4</ele>
        <time>2022-08-04T10:02:03Z</time>
      </trkpt>
      <trkpt lat="44.59743" lon="2.99429">
        <ele>1309.4</ele>
        <time>2022-08-04T10:02:04Z</time>
      </trkpt>
      <trkpt lat="44.59746" lon="2.99421">
        <ele>1309.3</ele>
        <time>2022-08-04T10:02:09Z</time>
      </trkpt>
      <trkpt lat="44.59747" lon="2.9942">
        <ele>1309.2</ele>
        <time>2022-08-04T10:02:10Z</time>
      </trkpt>
      <trkpt lat="44.5975" lon="2.99416">
        <ele>1309</ele>
        <time>2022-08-04T10:02:12Z</time>
      </trkpt>
      <trkpt lat="44.59752" lon="2.99414">
        <ele>1309</ele>
        <time>2022-08-04T10:02:14Z</time>
      </trkpt>
      <trkpt lat="44.59753" lon="2.99413">
        <ele>1308.9</ele>
        <time>2022-08-04T10:02:15Z</time>
      </trkpt>
      <trkpt lat="44.59758" lon="2.99407">
        <ele>1308.8</ele>
        <time>2022-08-04T10:02:22Z</time>
      </trkpt>
      <trkpt lat="44.59759" lon="2.99404">
        <ele>1308.8</ele>
        <time>2022-08-04T10:02:24Z</time>
      </trkpt>
      <trkpt lat="44.59762" lon="2.99399">
        <ele>1308.8</ele>
        <time>2022-08-04T10:02:28Z</time>
      </trkpt>
      <trkpt lat="44.59763" lon="2.99398">
        <ele>1308.7</ele>
        <time>2022-08-04T10:02:30Z</time>
      </trkpt>
      <trkpt lat="44.59764" lon="2.99396">
        <ele>1308.7</ele>
        <time>2022-08-04T10:02:31Z</time>
      </trkpt>
      <trkpt lat="44.59767" lon="2.99391">
        <ele>1308.7</ele>
        <time>2022-08-04T10:02:34Z</time>
      </trkpt>
      <trkpt lat="44.59769" lon="2.99388">
        <ele>1308.6</ele>
        <time>2022-08-04T10:02:37Z</time>
      </trkpt>
      <trkpt lat="44.5977" lon="2.99386">
        <ele>1308.5</ele>
        <time>2022-08-04T10:02:38Z</time>
      </trkpt>
      <trkpt lat="44.59774" lon="2.99379">
        <ele>1308.3</ele>
        <time>2022-08-04T10:02:43Z</time>
      </trkpt>
      <trkpt lat="44.59777" lon="2.99376">
        <ele>1308</ele>
        <time>2022-08-04T10:02:46Z</time>
      </trkpt>
      <trkpt lat="44.59779" lon="2.99376">
        <ele>1307.9</ele>
        <time>2022-08-04T10:02:48Z</time>
      </trkpt>
      <trkpt lat="44.59783" lon="2.99372">
        <ele>1307.8</ele>
        <time>2022-08-04T10:02:52Z</time>
      </trkpt>
      <trkpt lat="44.59787" lon="2.99369">
        <ele>1307.6</ele>
        <time>2022-08-04T10:02:56Z</time>
      </trkpt>
      <trkpt lat="44.5979" lon="2.99367">
        <ele>1307.5</ele>
        <time>2022-08-04T10:02:58Z</time>
      </trkpt>
      <trkpt lat="44.59793" lon="2.99366">
        <ele>1307.3</ele>
        <time>2022-08-04T10:03:00Z</time>
      </trkpt>
      <trkpt lat="44.59794" lon="2.99364">
        <ele>1307.4</ele>
        <time>2022-08-04T10:03:01Z</time>
      </trkpt>
      <trkpt lat="44.59798" lon="2.99358">
        <ele>1307.3</ele>
        <time>2022-08-04T10:03:05Z</time>
      </trkpt>
      <trkpt lat="44.59798" lon="2.99356">
        <ele>1307.3</ele>
        <time>2022-08-04T10:03:06Z</time>
      </trkpt>
      <trkpt lat="44.59804" lon="2.99348">
        <ele>1307.1</ele>
        <time>2022-08-04T10:03:12Z</time>
      </trkpt>
      <trkpt lat="44.59805" lon="2.99347">
        <ele>1307</ele>
        <time>2022-08-04T10:03:13Z</time>
      </trkpt>
      <trkpt lat="44.59807" lon="2.99345">
        <ele>1306.9</ele>
        <time>2022-08-04T10:03:16Z</time>
      </trkpt>
      <trkpt lat="44.59807" lon="2.99342">
        <ele>1306.9</ele>
        <time>2022-08-04T10:03:18Z</time>
      </trkpt>
      <trkpt lat="44.59814" lon="2.99328">
        <ele>1306.9</ele>
        <time>2022-08-04T10:03:26Z</time>
      </trkpt>
      <trkpt lat="44.59815" lon="2.99324">
        <ele>1307</ele>
        <time>2022-08-04T10:03:29Z</time>
      </trkpt>
      <trkpt lat="44.59818" lon="2.99321">
        <ele>1307</ele>
        <time>2022-08-04T10:03:32Z</time>
      </trkpt>
      <trkpt lat="44.59827" lon="2.99314">
        <ele>1306.9</ele>
        <time>2022-08-04T10:03:40Z</time>
      </trkpt>
      <trkpt lat="44.59835" lon="2.99301">
        <ele>1306.9</ele>
        <time>2022-08-04T10:03:50Z</time>
      </trkpt>
      <trkpt lat="44.59837" lon="2.99298">
        <ele>1306.9</ele>
        <time>2022-08-04T10:03:53Z</time>
      </trkpt>
      <trkpt lat="44.59838" lon="2.99297">
        <ele>1306.9</ele>
        <time>2022-08-04T10:03:54Z</time>
      </trkpt>
      <trkpt lat="44.59841" lon="2.99295">
        <ele>1306.8</ele>
        <time>2022-08-04T10:03:56Z</time>
      </trkpt>
      <trkpt lat="44.59842" lon="2.99293">
        <ele>1306.8</ele>
        <time>2022-08-04T10:03:57Z</time>
      </trkpt>
      <trkpt lat="44.59848" lon="2.99287">
        <ele>1306.8</ele>
        <time>2022-08-04T10:04:03Z</time>
      </trkpt>
      <trkpt lat="44.59849" lon="2.99284">
        <ele>1306.9</ele>
        <time>2022-08-04T10:04:05Z</time>
      </trkpt>
      <trkpt lat="44.59855" lon="2.9927">
        <ele>1307.1</ele>
        <time>2022-08-04T10:04:13Z</time>
      </trkpt>
      <trkpt lat="44.59862" lon="2.9926">
        <ele>1306.9</ele>
        <time>2022-08-04T10:04:20Z</time>
      </trkpt>
      <trkpt lat="44.59863" lon="2.99259">
        <ele>1306.9</ele>
        <time>2022-08-04T10:04:21Z</time>
      </trkpt>
      <trkpt lat="44.5987" lon="2.99251">
        <ele>1306.7</ele>
        <time>2022-08-04T10:04:28Z</time>
      </trkpt>
      <trkpt lat="44.59875" lon="2.99243">
        <ele>1306.6</ele>
        <time>2022-08-04T10:04:34Z</time>
      </trkpt>
      <trkpt lat="44.59876" lon="2.9924">
        <ele>1306.7</ele>
        <time>2022-08-04T10:04:36Z</time>
      </trkpt>
      <trkpt lat="44.59879" lon="2.99235">
        <ele>1306.7</ele>
        <time>2022-08-04T10:04:39Z</time>
      </trkpt>
      <trkpt lat="44.59881" lon="2.9923">
        <ele>1306.8</ele>
        <time>2022-08-04T10:04:42Z</time>
      </trkpt>
      <trkpt lat="44.59886" lon="2.99216">
        <ele>1307.2</ele>
        <time>2022-08-04T10:04:51Z</time>
      </trkpt>
      <trkpt lat="44.59892" lon="2.99209">
        <ele>1307.5</ele>
        <time>2022-08-04T10:04:58Z</time>
      </trkpt>
      <trkpt lat="44.59895" lon="2.99203">
        <ele>1307.7</ele>
        <time>2022-08-04T10:05:02Z</time>
      </trkpt>
      <trkpt lat="44.59898" lon="2.99199">
        <ele>1307.8</ele>
        <time>2022-08-04T10:05:05Z</time>
      </trkpt>
      <trkpt lat="44.59901" lon="2.99195">
        <ele>1308</ele>
        <time>2022-08-04T10:05:09Z</time>
      </trkpt>
      <trkpt lat="44.59903" lon="2.99193">
        <ele>1308.1</ele>
        <time>2022-08-04T10:05:11Z</time>
      </trkpt>
      <trkpt lat="44.59905" lon="2.9919">
        <ele>1308.2</ele>
        <time>2022-08-04T10:05:13Z</time>
      </trkpt>
      <trkpt lat="44.59912" lon="2.99179">
        <ele>1308.6</ele>
        <time>2022-08-04T10:05:21Z</time>
      </trkpt>
      <trkpt lat="44.59914" lon="2.99175">
        <ele>1308.7</ele>
        <time>2022-08-04T10:05:24Z</time>
      </trkpt>
      <trkpt lat="44.59916" lon="2.9917">
        <ele>1308.9</ele>
        <time>2022-08-04T10:05:26Z</time>
      </trkpt>
      <trkpt lat="44.59917" lon="2.99169">
        <ele>1308.9</ele>
        <time>2022-08-04T10:05:27Z</time>
      </trkpt>
      <trkpt lat="44.59918" lon="2.99168">
        <ele>1309</ele>
        <time>2022-08-04T10:05:28Z</time>
      </trkpt>
      <trkpt lat="44.59923" lon="2.99163">
        <ele>1309.1</ele>
        <time>2022-08-04T10:05:32Z</time>
      </trkpt>
      <trkpt lat="44.59925" lon="2.99159">
        <ele>1309.3</ele>
        <time>2022-08-04T10:05:35Z</time>
      </trkpt>
      <trkpt lat="44.59928" lon="2.99156">
        <ele>1309.4</ele>
        <time>2022-08-04T10:05:38Z</time>
      </trkpt>
      <trkpt lat="44.59928" lon="2.99155">
        <ele>1309.4</ele>
        <time>2022-08-04T10:05:39Z</time>
      </trkpt>
      <trkpt lat="44.59929" lon="2.99154">
        <ele>1309.4</ele>
        <time>2022-08-04T10:05:40Z</time>
      </trkpt>
      <trkpt lat="44.59935" lon="2.99151">
        <ele>1309.6</ele>
        <time>2022-08-04T10:05:45Z</time>
      </trkpt>
      <trkpt lat="44.59936" lon="2.99151">
        <ele>1309.6</ele>
        <time>2022-08-04T10:05:46Z</time>
      </trkpt>
      <trkpt lat="44.59938" lon="2.99149">
        <ele>1309.6</ele>
        <time>2022-08-04T10:05:49Z</time>
      </trkpt>
      <trkpt lat="44.5994" lon="2.99146">
        <ele>1309.7</ele>
        <time>2022-08-04T10:05:52Z</time>
      </trkpt>
      <trkpt lat="44.59944" lon="2.99141">
        <ele>1309.9</ele>
        <time>2022-08-04T10:05:57Z</time>
      </trkpt>
      <trkpt lat="44.59944" lon="2.99134">
        <ele>1310.2</ele>
        <time>2022-08-04T10:05:59Z</time>
      </trkpt>
      <trkpt lat="44.59945" lon="2.99131">
        <ele>1310.3</ele>
        <time>2022-08-04T10:06:00Z</time>
      </trkpt>
      <trkpt lat="44.59946" lon="2.99128">
        <ele>1310.4</ele>
        <time>2022-08-04T10:06:01Z</time>
      </trkpt>
      <trkpt lat="44.5995" lon="2.99121">
        <ele>1310.9</ele>
        <time>2022-08-04T10:06:06Z</time>
      </trkpt>
      <trkpt lat="44.59954" lon="2.99118">
        <ele>1311.1</ele>
        <time>2022-08-04T10:06:08Z</time>
      </trkpt>
      <trkpt lat="44.59955" lon="2.99116">
        <ele>1311.2</ele>
        <time>2022-08-04T10:06:10Z</time>
      </trkpt>
      <trkpt lat="44.59957" lon="2.99115">
        <ele>1311.3</ele>
        <time>2022-08-04T10:06:12Z</time>
      </trkpt>
      <trkpt lat="44.59963" lon="2.99112">
        <ele>1311.6</ele>
        <time>2022-08-04T10:06:17Z</time>
      </trkpt>
      <trkpt lat="44.59967" lon="2.99114">
        <ele>1311.7</ele>
        <time>2022-08-04T10:06:20Z</time>
      </trkpt>
      <trkpt lat="44.59968" lon="2.99115">
        <ele>1311.7</ele>
        <time>2022-08-04T10:06:27Z</time>
      </trkpt>
      <trkpt lat="44.59967" lon="2.99114">
        <ele>1311.7</ele>
        <time>2022-08-04T10:06:29Z</time>
      </trkpt>
      <trkpt lat="44.59966" lon="2.99107">
        <ele>1311.8</ele>
        <time>2022-08-04T10:06:33Z</time>
      </trkpt>
      <trkpt lat="44.5997" lon="2.99099">
        <ele>1311.9</ele>
        <time>2022-08-04T10:06:40Z</time>
      </trkpt>
      <trkpt lat="44.59968" lon="2.99098">
        <ele>1311.8</ele>
        <time>2022-08-04T10:06:45Z</time>
      </trkpt>
      <trkpt lat="44.59967" lon="2.99097">
        <ele>1311.8</ele>
        <time>2022-08-04T10:06:46Z</time>
      </trkpt>
      <trkpt lat="44.59967" lon="2.99088">
        <ele>1311.8</ele>
        <time>2022-08-04T10:06:53Z</time>
      </trkpt>
      <trkpt lat="44.59965" lon="2.99085">
        <ele>1311.7</ele>
        <time>2022-08-04T10:06:54Z</time>
      </trkpt>
      <trkpt lat="44.59962" lon="2.99071">
        <ele>1311.6</ele>
        <time>2022-08-04T10:07:02Z</time>
      </trkpt>
      <trkpt lat="44.59962" lon="2.99068">
        <ele>1311.6</ele>
        <time>2022-08-04T10:07:04Z</time>
      </trkpt>
      <trkpt lat="44.59963" lon="2.99062">
        <ele>1311.7</ele>
        <time>2022-08-04T10:07:08Z</time>
      </trkpt>
      <trkpt lat="44.59963" lon="2.99056">
        <ele>1311.7</ele>
        <time>2022-08-04T10:07:12Z</time>
      </trkpt>
      <trkpt lat="44.59963" lon="2.99053">
        <ele>1311.7</ele>
        <time>2022-08-04T10:07:14Z</time>
      </trkpt>
      <trkpt lat="44.59963" lon="2.99051">
        <ele>1311.7</ele>
        <time>2022-08-04T10:07:15Z</time>
      </trkpt>
      <trkpt lat="44.59962" lon="2.99035">
        <ele>1311.6</ele>
        <time>2022-08-04T10:07:23Z</time>
      </trkpt>
      <trkpt lat="44.5996" lon="2.99021">
        <ele>1311.5</ele>
        <time>2022-08-04T10:07:32Z</time>
      </trkpt>
      <trkpt lat="44.5996" lon="2.9902">
        <ele>1311.4</ele>
        <time>2022-08-04T10:07:33Z</time>
      </trkpt>
      <trkpt lat="44.5996" lon="2.99019">
        <ele>1311.4</ele>
        <time>2022-08-04T10:07:34Z</time>
      </trkpt>
      <trkpt lat="44.59961" lon="2.99019">
        <ele>1311.5</ele>
        <time>2022-08-04T10:07:37Z</time>
      </trkpt>
      <trkpt lat="44.59961" lon="2.99016">
        <ele>1311.4</ele>
        <time>2022-08-04T10:07:40Z</time>
      </trkpt>
      <trkpt lat="44.59961" lon="2.9901">
        <ele>1311.3</ele>
        <time>2022-08-04T10:07:43Z</time>
      </trkpt>
      <trkpt lat="44.5996" lon="2.99008">
        <ele>1311.3</ele>
        <time>2022-08-04T10:07:44Z</time>
      </trkpt>
      <trkpt lat="44.5996" lon="2.99006">
        <ele>1311.2</ele>
        <time>2022-08-04T10:07:45Z</time>
      </trkpt>
      <trkpt lat="44.59958" lon="2.98995">
        <ele>1310.9</ele>
        <time>2022-08-04T10:07:51Z</time>
      </trkpt>
      <trkpt lat="44.59958" lon="2.98984">
        <ele>1310.7</ele>
        <time>2022-08-04T10:07:58Z</time>
      </trkpt>
      <trkpt lat="44.59958" lon="2.98982">
        <ele>1310.7</ele>
        <time>2022-08-04T10:07:59Z</time>
      </trkpt>
      <trkpt lat="44.59957" lon="2.98974">
        <ele>1310.5</ele>
        <time>2022-08-04T10:08:04Z</time>
      </trkpt>
      <trkpt lat="44.59957" lon="2.9897">
        <ele>1310.4</ele>
        <time>2022-08-04T10:08:07Z</time>
      </trkpt>
      <trkpt lat="44.59956" lon="2.98966">
        <ele>1310.2</ele>
        <time>2022-08-04T10:08:11Z</time>
      </trkpt>
      <trkpt lat="44.59954" lon="2.98951">
        <ele>1309.6</ele>
        <time>2022-08-04T10:08:19Z</time>
      </trkpt>
      <trkpt lat="44.59953" lon="2.98946">
        <ele>1309.4</ele>
        <time>2022-08-04T10:08:21Z</time>
      </trkpt>
      <trkpt lat="44.59953" lon="2.98929">
        <ele>1308.9</ele>
        <time>2022-08-04T10:08:30Z</time>
      </trkpt>
      <trkpt lat="44.59951" lon="2.98911">
        <ele>1308.3</ele>
        <time>2022-08-04T10:08:40Z</time>
      </trkpt>
      <trkpt lat="44.59951" lon="2.98909">
        <ele>1308.2</ele>
        <time>2022-08-04T10:08:41Z</time>
      </trkpt>
      <trkpt lat="44.5995" lon="2.98897">
        <ele>1307.7</ele>
        <time>2022-08-04T10:08:48Z</time>
      </trkpt>
      <trkpt lat="44.59951" lon="2.98884">
        <ele>1307.5</ele>
        <time>2022-08-04T10:08:55Z</time>
      </trkpt>
      <trkpt lat="44.59952" lon="2.98872">
        <ele>1307.5</ele>
        <time>2022-08-04T10:09:02Z</time>
      </trkpt>
      <trkpt lat="44.59951" lon="2.9887">
        <ele>1307.5</ele>
        <time>2022-08-04T10:09:03Z</time>
      </trkpt>
      <trkpt lat="44.59951" lon="2.98859">
        <ele>1307.4</ele>
        <time>2022-08-04T10:09:09Z</time>
      </trkpt>
      <trkpt lat="44.5995" lon="2.98857">
        <ele>1307.4</ele>
        <time>2022-08-04T10:09:10Z</time>
      </trkpt>
      <trkpt lat="44.59949" lon="2.98848">
        <ele>1307.3</ele>
        <time>2022-08-04T10:09:16Z</time>
      </trkpt>
      <trkpt lat="44.59948" lon="2.98843">
        <ele>1307.3</ele>
        <time>2022-08-04T10:09:19Z</time>
      </trkpt>
      <trkpt lat="44.59945" lon="2.98825">
        <ele>1307.3</ele>
        <time>2022-08-04T10:09:29Z</time>
      </trkpt>
      <trkpt lat="44.59944" lon="2.98816">
        <ele>1307.6</ele>
        <time>2022-08-04T10:09:34Z</time>
      </trkpt>
      <trkpt lat="44.59944" lon="2.9881">
        <ele>1307.8</ele>
        <time>2022-08-04T10:09:37Z</time>
      </trkpt>
      <trkpt lat="44.59943" lon="2.98798">
        <ele>1307.8</ele>
        <time>2022-08-04T10:09:44Z</time>
      </trkpt>
      <trkpt lat="44.59943" lon="2.98794">
        <ele>1307.9</ele>
        <time>2022-08-04T10:09:47Z</time>
      </trkpt>
      <trkpt lat="44.59942" lon="2.98791">
        <ele>1307.8</ele>
        <time>2022-08-04T10:09:49Z</time>
      </trkpt>
      <trkpt lat="44.59942" lon="2.98789">
        <ele>1307.8</ele>
        <time>2022-08-04T10:09:50Z</time>
      </trkpt>
      <trkpt lat="44.59942" lon="2.9877">
        <ele>1307.8</ele>
        <time>2022-08-04T10:09:59Z</time>
      </trkpt>
      <trkpt lat="44.59941" lon="2.98754">
        <ele>1307.7</ele>
        <time>2022-08-04T10:10:07Z</time>
      </trkpt>
      <trkpt lat="44.59939" lon="2.98746">
        <ele>1307.6</ele>
        <time>2022-08-04T10:10:12Z</time>
      </trkpt>
      <trkpt lat="44.59939" lon="2.98742">
        <ele>1307.6</ele>
        <time>2022-08-04T10:10:14Z</time>
      </trkpt>
      <trkpt lat="44.59936" lon="2.98727">
        <ele>1307.4</ele>
        <time>2022-08-04T10:10:23Z</time>
      </trkpt>
      <trkpt lat="44.59936" lon="2.98726">
        <ele>1307.4</ele>
        <time>2022-08-04T10:10:24Z</time>
      </trkpt>
      <trkpt lat="44.59936" lon="2.98724">
        <ele>1307.4</ele>
        <time>2022-08-04T10:10:26Z</time>
      </trkpt>
      <trkpt lat="44.59935" lon="2.9872">
        <ele>1307.4</ele>
        <time>2022-08-04T10:10:29Z</time>
      </trkpt>
      <trkpt lat="44.59932" lon="2.98706">
        <ele>1307.4</ele>
        <time>2022-08-04T10:10:38Z</time>
      </trkpt>
      <trkpt lat="44.59931" lon="2.98703">
        <ele>1307.4</ele>
        <time>2022-08-04T10:10:39Z</time>
      </trkpt>
      <trkpt lat="44.59928" lon="2.98695">
        <ele>1307.2</ele>
        <time>2022-08-04T10:10:46Z</time>
      </trkpt>
      <trkpt lat="44.59924" lon="2.98681">
        <ele>1306.8</ele>
        <time>2022-08-04T10:10:54Z</time>
      </trkpt>
      <trkpt lat="44.59924" lon="2.98678">
        <ele>1306.8</ele>
        <time>2022-08-04T10:10:56Z</time>
      </trkpt>
      <trkpt lat="44.59923" lon="2.98676">
        <ele>1306.7</ele>
        <time>2022-08-04T10:10:58Z</time>
      </trkpt>
      <trkpt lat="44.59923" lon="2.98674">
        <ele>1306.6</ele>
        <time>2022-08-04T10:10:59Z</time>
      </trkpt>
      <trkpt lat="44.59921" lon="2.98666">
        <ele>1306.4</ele>
        <time>2022-08-04T10:11:03Z</time>
      </trkpt>
      <trkpt lat="44.59918" lon="2.98661">
        <ele>1306.1</ele>
        <time>2022-08-04T10:11:06Z</time>
      </trkpt>
      <trkpt lat="44.59918" lon="2.9866">
        <ele>1306.1</ele>
        <time>2022-08-04T10:11:08Z</time>
      </trkpt>
      <trkpt lat="44.59917" lon="2.98658">
        <ele>1306</ele>
        <time>2022-08-04T10:11:10Z</time>
      </trkpt>
      <trkpt lat="44.59916" lon="2.98656">
        <ele>1305.9</ele>
        <time>2022-08-04T10:11:11Z</time>
      </trkpt>
      <trkpt lat="44.59917" lon="2.98643">
        <ele>1306</ele>
        <time>2022-08-04T10:11:17Z</time>
      </trkpt>
      <trkpt lat="44.59916" lon="2.98631">
        <ele>1305.9</ele>
        <time>2022-08-04T10:11:25Z</time>
      </trkpt>
      <trkpt lat="44.59912" lon="2.98614">
        <ele>1305.5</ele>
        <time>2022-08-04T10:11:35Z</time>
      </trkpt>
      <trkpt lat="44.59911" lon="2.98608">
        <ele>1305.4</ele>
        <time>2022-08-04T10:11:38Z</time>
      </trkpt>
      <trkpt lat="44.59907" lon="2.98599">
        <ele>1305</ele>
        <time>2022-08-04T10:11:44Z</time>
      </trkpt>
      <trkpt lat="44.59907" lon="2.98597">
        <ele>1305</ele>
        <time>2022-08-04T10:11:45Z</time>
      </trkpt>
      <trkpt lat="44.59907" lon="2.98584">
        <ele>1305</ele>
        <time>2022-08-04T10:11:52Z</time>
      </trkpt>
      <trkpt lat="44.59907" lon="2.98576">
        <ele>1304.9</ele>
        <time>2022-08-04T10:11:56Z</time>
      </trkpt>
      <trkpt lat="44.59906" lon="2.98572">
        <ele>1304.9</ele>
        <time>2022-08-04T10:11:59Z</time>
      </trkpt>
      <trkpt lat="44.59903" lon="2.98558">
        <ele>1304.5</ele>
        <time>2022-08-04T10:12:08Z</time>
      </trkpt>
      <trkpt lat="44.59899" lon="2.98544">
        <ele>1304.1</ele>
        <time>2022-08-04T10:12:17Z</time>
      </trkpt>
      <trkpt lat="44.59898" lon="2.9854">
        <ele>1304</ele>
        <time>2022-08-04T10:12:20Z</time>
      </trkpt>
      <trkpt lat="44.59896" lon="2.98531">
        <ele>1303.8</ele>
        <time>2022-08-04T10:12:25Z</time>
      </trkpt>
      <trkpt lat="44.59894" lon="2.98516">
        <ele>1303.7</ele>
        <time>2022-08-04T10:12:33Z</time>
      </trkpt>
      <trkpt lat="44.59894" lon="2.98509">
        <ele>1303.7</ele>
        <time>2022-08-04T10:12:37Z</time>
      </trkpt>
      <trkpt lat="44.59893" lon="2.98506">
        <ele>1303.6</ele>
        <time>2022-08-04T10:12:39Z</time>
      </trkpt>
      <trkpt lat="44.59893" lon="2.98501">
        <ele>1303.6</ele>
        <time>2022-08-04T10:12:42Z</time>
      </trkpt>
      <trkpt lat="44.59891" lon="2.98493">
        <ele>1303.5</ele>
        <time>2022-08-04T10:12:47Z</time>
      </trkpt>
      <trkpt lat="44.59887" lon="2.98477">
        <ele>1303.7</ele>
        <time>2022-08-04T10:12:56Z</time>
      </trkpt>
      <trkpt lat="44.59887" lon="2.98476">
        <ele>1303.6</ele>
        <time>2022-08-04T10:12:57Z</time>
      </trkpt>
      <trkpt lat="44.59884" lon="2.98467">
        <ele>1303.7</ele>
        <time>2022-08-04T10:13:05Z</time>
      </trkpt>
      <trkpt lat="44.59885" lon="2.98467">
        <ele>1303.7</ele>
        <time>2022-08-04T10:13:12Z</time>
      </trkpt>
      <trkpt lat="44.59884" lon="2.98467">
        <ele>1303.6</ele>
        <time>2022-08-04T10:13:37Z</time>
      </trkpt>
      <trkpt lat="44.59883" lon="2.98464">
        <ele>1303.7</ele>
        <time>2022-08-04T10:13:40Z</time>
      </trkpt>
      <trkpt lat="44.59883" lon="2.98464">
        <ele>1303.7</ele>
        <time>2022-08-04T10:13:44Z</time>
      </trkpt>
      <trkpt lat="44.59883" lon="2.98461">
        <ele>1303.8</ele>
        <time>2022-08-04T10:14:11Z</time>
      </trkpt>
      <trkpt lat="44.59882" lon="2.9846">
        <ele>1303.8</ele>
        <time>2022-08-04T10:14:12Z</time>
      </trkpt>
      <trkpt lat="44.59879" lon="2.98456">
        <ele>1303.7</ele>
        <time>2022-08-04T10:14:15Z</time>
      </trkpt>
      <trkpt lat="44.59877" lon="2.98451">
        <ele>1303.8</ele>
        <time>2022-08-04T10:14:19Z</time>
      </trkpt>
      <trkpt lat="44.59876" lon="2.98446">
        <ele>1304</ele>
        <time>2022-08-04T10:14:22Z</time>
      </trkpt>
      <trkpt lat="44.59875" lon="2.98441">
        <ele>1304.2</ele>
        <time>2022-08-04T10:14:25Z</time>
      </trkpt>
      <trkpt lat="44.5987" lon="2.98429">
        <ele>1304.8</ele>
        <time>2022-08-04T10:14:31Z</time>
      </trkpt>
      <trkpt lat="44.59864" lon="2.98421">
        <ele>1304.9</ele>
        <time>2022-08-04T10:14:38Z</time>
      </trkpt>
      <trkpt lat="44.59858" lon="2.9841">
        <ele>1305.3</ele>
        <time>2022-08-04T10:14:46Z</time>
      </trkpt>
      <trkpt lat="44.59857" lon="2.98409">
        <ele>1305.3</ele>
        <time>2022-08-04T10:14:47Z</time>
      </trkpt>
      <trkpt lat="44.59856" lon="2.98408">
        <ele>1305.4</ele>
        <time>2022-08-04T10:14:48Z</time>
      </trkpt>
      <trkpt lat="44.59851" lon="2.98403">
        <ele>1305.4</ele>
        <time>2022-08-04T10:14:53Z</time>
      </trkpt>
      <trkpt lat="44.59845" lon="2.98396">
        <ele>1305.8</ele>
        <time>2022-08-04T10:15:00Z</time>
      </trkpt>
      <trkpt lat="44.59839" lon="2.98392">
        <ele>1305.8</ele>
        <time>2022-08-04T10:15:07Z</time>
      </trkpt>
      <trkpt lat="44.59838" lon="2.98392">
        <ele>1305.9</ele>
        <time>2022-08-04T10:15:08Z</time>
      </trkpt>
      <trkpt lat="44.59838" lon="2.98388">
        <ele>1306.2</ele>
        <time>2022-08-04T10:15:14Z</time>
      </trkpt>
      <trkpt lat="44.59836" lon="2.98386">
        <ele>1306.2</ele>
        <time>2022-08-04T10:15:23Z</time>
      </trkpt>
      <trkpt lat="44.59832" lon="2.98384">
        <ele>1306</ele>
        <time>2022-08-04T10:15:27Z</time>
      </trkpt>
      <trkpt lat="44.5983" lon="2.98381">
        <ele>1306</ele>
        <time>2022-08-04T10:15:29Z</time>
      </trkpt>
      <trkpt lat="44.59828" lon="2.98375">
        <ele>1306</ele>
        <time>2022-08-04T10:15:33Z</time>
      </trkpt>
      <trkpt lat="44.59823" lon="2.98373">
        <ele>1305.7</ele>
        <time>2022-08-04T10:15:38Z</time>
      </trkpt>
      <trkpt lat="44.59817" lon="2.98365">
        <ele>1305.6</ele>
        <time>2022-08-04T10:15:46Z</time>
      </trkpt>
      <trkpt lat="44.59816" lon="2.98364">
        <ele>1305.6</ele>
        <time>2022-08-04T10:15:47Z</time>
      </trkpt>
      <trkpt lat="44.59815" lon="2.98362">
        <ele>1305.6</ele>
        <time>2022-08-04T10:15:49Z</time>
      </trkpt>
      <trkpt lat="44.59812" lon="2.98359">
        <ele>1305.5</ele>
        <time>2022-08-04T10:15:53Z</time>
      </trkpt>
      <trkpt lat="44.59811" lon="2.98358">
        <ele>1305.5</ele>
        <time>2022-08-04T10:15:54Z</time>
      </trkpt>
      <trkpt lat="44.59806" lon="2.98353">
        <ele>1305.3</ele>
        <time>2022-08-04T10:15:59Z</time>
      </trkpt>
      <trkpt lat="44.598" lon="2.98345">
        <ele>1305.1</ele>
        <time>2022-08-04T10:16:06Z</time>
      </trkpt>
      <trkpt lat="44.59799" lon="2.98343">
        <ele>1305.1</ele>
        <time>2022-08-04T10:16:08Z</time>
      </trkpt>
      <trkpt lat="44.59792" lon="2.98334">
        <ele>1305</ele>
        <time>2022-08-04T10:16:15Z</time>
      </trkpt>
      <trkpt lat="44.59788" lon="2.98332">
        <ele>1304.8</ele>
        <time>2022-08-04T10:16:18Z</time>
      </trkpt>
      <trkpt lat="44.59784" lon="2.98327">
        <ele>1304.7</ele>
        <time>2022-08-04T10:16:22Z</time>
      </trkpt>
      <trkpt lat="44.59781" lon="2.98323">
        <ele>1304.6</ele>
        <time>2022-08-04T10:16:25Z</time>
      </trkpt>
      <trkpt lat="44.59779" lon="2.98319">
        <ele>1304.6</ele>
        <time>2022-08-04T10:16:28Z</time>
      </trkpt>
      <trkpt lat="44.59775" lon="2.98308">
        <ele>1304.6</ele>
        <time>2022-08-04T10:16:34Z</time>
      </trkpt>
      <trkpt lat="44.59773" lon="2.98304">
        <ele>1304.4</ele>
        <time>2022-08-04T10:16:36Z</time>
      </trkpt>
      <trkpt lat="44.59767" lon="2.98294">
        <ele>1303.9</ele>
        <time>2022-08-04T10:16:44Z</time>
      </trkpt>
      <trkpt lat="44.59759" lon="2.98286">
        <ele>1303.5</ele>
        <time>2022-08-04T10:16:52Z</time>
      </trkpt>
      <trkpt lat="44.59759" lon="2.98284">
        <ele>1303.5</ele>
        <time>2022-08-04T10:16:53Z</time>
      </trkpt>
      <trkpt lat="44.5975" lon="2.98271">
        <ele>1303.2</ele>
        <time>2022-08-04T10:17:04Z</time>
      </trkpt>
      <trkpt lat="44.59749" lon="2.98268">
        <ele>1303.3</ele>
        <time>2022-08-04T10:17:06Z</time>
      </trkpt>
      <trkpt lat="44.59743" lon="2.98262">
        <ele>1303</ele>
        <time>2022-08-04T10:17:12Z</time>
      </trkpt>
      <trkpt lat="44.59741" lon="2.98259">
        <ele>1303</ele>
        <time>2022-08-04T10:17:15Z</time>
      </trkpt>
      <trkpt lat="44.59738" lon="2.98255">
        <ele>1302.9</ele>
        <time>2022-08-04T10:17:18Z</time>
      </trkpt>
      <trkpt lat="44.59732" lon="2.98248">
        <ele>1302.8</ele>
        <time>2022-08-04T10:17:25Z</time>
      </trkpt>
      <trkpt lat="44.5973" lon="2.98246">
        <ele>1302.7</ele>
        <time>2022-08-04T10:17:27Z</time>
      </trkpt>
      <trkpt lat="44.59726" lon="2.98243">
        <ele>1302.5</ele>
        <time>2022-08-04T10:17:32Z</time>
      </trkpt>
      <trkpt lat="44.59725" lon="2.98242">
        <ele>1302.5</ele>
        <time>2022-08-04T10:17:33Z</time>
      </trkpt>
      <trkpt lat="44.59722" lon="2.98237">
        <ele>1302.4</ele>
        <time>2022-08-04T10:17:39Z</time>
      </trkpt>
      <trkpt lat="44.59722" lon="2.98236">
        <ele>1302.4</ele>
        <time>2022-08-04T10:17:46Z</time>
      </trkpt>
      <trkpt lat="44.59722" lon="2.98235">
        <ele>1302.5</ele>
        <time>2022-08-04T10:17:48Z</time>
      </trkpt>
      <trkpt lat="44.59723" lon="2.98235">
        <ele>1302.6</ele>
        <time>2022-08-04T10:17:52Z</time>
      </trkpt>
      <trkpt lat="44.59722" lon="2.98235">
        <ele>1302.5</ele>
        <time>2022-08-04T10:17:58Z</time>
      </trkpt>
      <trkpt lat="44.59722" lon="2.98235">
        <ele>1302.5</ele>
        <time>2022-08-04T10:18:02Z</time>
      </trkpt>
      <trkpt lat="44.59722" lon="2.98235">
        <ele>1302.5</ele>
        <time>2022-08-04T10:18:11Z</time>
      </trkpt>
      <trkpt lat="44.59722" lon="2.98235">
        <ele>1302.5</ele>
        <time>2022-08-04T10:18:12Z</time>
      </trkpt>
      <trkpt lat="44.59722" lon="2.98235">
        <ele>1302.5</ele>
        <time>2022-08-04T10:18:13Z</time>
      </trkpt>
      <trkpt lat="44.59722" lon="2.98235">
        <ele>1302.5</ele>
        <time>2022-08-04T10:18:14Z</time>
      </trkpt>
      <trkpt lat="44.59722" lon="2.98235">
        <ele>1302.5</ele>
        <time>2022-08-04T10:18:15Z</time>
      </trkpt>
      <trkpt lat="44.59722" lon="2.98235">
        <ele>1302.5</ele>
        <time>2022-08-04T10:18:16Z</time>
      </trkpt>
      <trkpt lat="44.59722" lon="2.98235">
        <ele>1302.5</ele>
        <time>2022-08-04T10:18:17Z</time>
      </trkpt>
      <trkpt lat="44.59721" lon="2.98235">
        <ele>1302.4</ele>
        <time>2022-08-04T10:18:20Z</time>
      </trkpt>
      <trkpt lat="44.59719" lon="2.98231">
        <ele>1302.3</ele>
        <time>2022-08-04T10:18:22Z</time>
      </trkpt>
      <trkpt lat="44.59718" lon="2.9823">
        <ele>1302.3</ele>
        <time>2022-08-04T10:18:23Z</time>
      </trkpt>
      <trkpt lat="44.59717" lon="2.98229">
        <ele>1302.2</ele>
        <time>2022-08-04T10:18:24Z</time>
      </trkpt>
      <trkpt lat="44.59716" lon="2.98227">
        <ele>1302.1</ele>
        <time>2022-08-04T10:18:25Z</time>
      </trkpt>
      <trkpt lat="44.59714" lon="2.98226">
        <ele>1302</ele>
        <time>2022-08-04T10:18:26Z</time>
      </trkpt>
      <trkpt lat="44.59713" lon="2.98224">
        <ele>1301.9</ele>
        <time>2022-08-04T10:18:27Z</time>
      </trkpt>
      <trkpt lat="44.59712" lon="2.98223">
        <ele>1301.8</ele>
        <time>2022-08-04T10:18:28Z</time>
      </trkpt>
      <trkpt lat="44.59711" lon="2.98222">
        <ele>1301.8</ele>
        <time>2022-08-04T10:18:29Z</time>
      </trkpt>
      <trkpt lat="44.5971" lon="2.9822">
        <ele>1301.7</ele>
        <time>2022-08-04T10:18:30Z</time>
      </trkpt>
      <trkpt lat="44.59709" lon="2.98219">
        <ele>1301.6</ele>
        <time>2022-08-04T10:18:31Z</time>
      </trkpt>
      <trkpt lat="44.59708" lon="2.98218">
        <ele>1301.5</ele>
        <time>2022-08-04T10:18:32Z</time>
      </trkpt>
      <trkpt lat="44.59707" lon="2.98217">
        <ele>1301.5</ele>
        <time>2022-08-04T10:18:33Z</time>
      </trkpt>
      <trkpt lat="44.59706" lon="2.98216">
        <ele>1301.3</ele>
        <time>2022-08-04T10:18:34Z</time>
      </trkpt>
      <trkpt lat="44.59705" lon="2.98215">
        <ele>1301.3</ele>
        <time>2022-08-04T10:18:35Z</time>
      </trkpt>
      <trkpt lat="44.59703" lon="2.98213">
        <ele>1301.2</ele>
        <time>2022-08-04T10:18:37Z</time>
      </trkpt>
      <trkpt lat="44.59703" lon="2.98212">
        <ele>1301.2</ele>
        <time>2022-08-04T10:18:38Z</time>
      </trkpt>
      <trkpt lat="44.59702" lon="2.98211">
        <ele>1301.1</ele>
        <time>2022-08-04T10:18:39Z</time>
      </trkpt>
      <trkpt lat="44.59701" lon="2.98208">
        <ele>1301.1</ele>
        <time>2022-08-04T10:18:41Z</time>
      </trkpt>
      <trkpt lat="44.59701" lon="2.98208">
        <ele>1301.1</ele>
        <time>2022-08-04T10:18:43Z</time>
      </trkpt>
      <trkpt lat="44.59699" lon="2.98205">
        <ele>1301</ele>
        <time>2022-08-04T10:18:45Z</time>
      </trkpt>
      <trkpt lat="44.59699" lon="2.98204">
        <ele>1301</ele>
        <time>2022-08-04T10:18:46Z</time>
      </trkpt>
      <trkpt lat="44.59697" lon="2.98202">
        <ele>1300.9</ele>
        <time>2022-08-04T10:18:48Z</time>
      </trkpt>
      <trkpt lat="44.59694" lon="2.982">
        <ele>1300.8</ele>
        <time>2022-08-04T10:18:50Z</time>
      </trkpt>
      <trkpt lat="44.59692" lon="2.98198">
        <ele>1300.6</ele>
        <time>2022-08-04T10:18:52Z</time>
      </trkpt>
      <trkpt lat="44.5969" lon="2.98196">
        <ele>1300.5</ele>
        <time>2022-08-04T10:18:54Z</time>
      </trkpt>
      <trkpt lat="44.59689" lon="2.98194">
        <ele>1300.3</ele>
        <time>2022-08-04T10:18:56Z</time>
      </trkpt>
      <trkpt lat="44.59688" lon="2.98193">
        <ele>1300.2</ele>
        <time>2022-08-04T10:18:57Z</time>
      </trkpt>
      <trkpt lat="44.59686" lon="2.98191">
        <ele>1300</ele>
        <time>2022-08-04T10:18:58Z</time>
      </trkpt>
      <trkpt lat="44.59685" lon="2.9819">
        <ele>1299.9</ele>
        <time>2022-08-04T10:18:59Z</time>
      </trkpt>
      <trkpt lat="44.59684" lon="2.98189">
        <ele>1299.8</ele>
        <time>2022-08-04T10:19:00Z</time>
      </trkpt>
      <trkpt lat="44.59683" lon="2.98189">
        <ele>1299.6</ele>
        <time>2022-08-04T10:19:01Z</time>
      </trkpt>
      <trkpt lat="44.59681" lon="2.98187">
        <ele>1299.5</ele>
        <time>2022-08-04T10:19:03Z</time>
      </trkpt>
      <trkpt lat="44.59679" lon="2.98184">
        <ele>1299.1</ele>
        <time>2022-08-04T10:19:06Z</time>
      </trkpt>
      <trkpt lat="44.59665" lon="2.98174">
        <ele>1297.9</ele>
        <time>2022-08-04T10:19:17Z</time>
      </trkpt>
      <trkpt lat="44.5966" lon="2.9817">
        <ele>1297.5</ele>
        <time>2022-08-04T10:19:22Z</time>
      </trkpt>
      <trkpt lat="44.59659" lon="2.9817">
        <ele>1297.4</ele>
        <time>2022-08-04T10:19:23Z</time>
      </trkpt>
      <trkpt lat="44.59657" lon="2.98169">
        <ele>1297.3</ele>
        <time>2022-08-04T10:19:25Z</time>
      </trkpt>
      <trkpt lat="44.59655" lon="2.98167">
        <ele>1297.2</ele>
        <time>2022-08-04T10:19:31Z</time>
      </trkpt>
      <trkpt lat="44.59654" lon="2.98167">
        <ele>1297.1</ele>
        <time>2022-08-04T10:19:33Z</time>
      </trkpt>
      <trkpt lat="44.59649" lon="2.98162">
        <ele>1296.9</ele>
        <time>2022-08-04T10:19:37Z</time>
      </trkpt>
      <trkpt lat="44.59642" lon="2.98153">
        <ele>1296.7</ele>
        <time>2022-08-04T10:19:45Z</time>
      </trkpt>
      <trkpt lat="44.59645" lon="2.98155">
        <ele>1296.8</ele>
        <time>2022-08-04T10:19:49Z</time>
      </trkpt>
      <trkpt lat="44.59657" lon="2.98167">
        <ele>1297.3</ele>
        <time>2022-08-04T10:20:00Z</time>
      </trkpt>
      <trkpt lat="44.59656" lon="2.98167">
        <ele>1297.2</ele>
        <time>2022-08-04T10:20:01Z</time>
      </trkpt>
      <trkpt lat="44.59653" lon="2.98167">
        <ele>1297</ele>
        <time>2022-08-04T10:20:04Z</time>
      </trkpt>
      <trkpt lat="44.59644" lon="2.98163">
        <ele>1296.5</ele>
        <time>2022-08-04T10:20:11Z</time>
      </trkpt>
      <trkpt lat="44.59642" lon="2.98162">
        <ele>1296.4</ele>
        <time>2022-08-04T10:20:13Z</time>
      </trkpt>
      <trkpt lat="44.59636" lon="2.98157">
        <ele>1296.3</ele>
        <time>2022-08-04T10:20:19Z</time>
      </trkpt>
      <trkpt lat="44.59634" lon="2.98156">
        <ele>1296.3</ele>
        <time>2022-08-04T10:20:20Z</time>
      </trkpt>
      <trkpt lat="44.59624" lon="2.98147">
        <ele>1296.5</ele>
        <time>2022-08-04T10:20:29Z</time>
      </trkpt>
      <trkpt lat="44.59617" lon="2.98143">
        <ele>1296.7</ele>
        <time>2022-08-04T10:20:35Z</time>
      </trkpt>
      <trkpt lat="44.59616" lon="2.98141">
        <ele>1296.8</ele>
        <time>2022-08-04T10:20:37Z</time>
      </trkpt>
      <trkpt lat="44.59608" lon="2.98134">
        <ele>1297.1</ele>
        <time>2022-08-04T10:20:45Z</time>
      </trkpt>
      <trkpt lat="44.59603" lon="2.9813">
        <ele>1297.1</ele>
        <time>2022-08-04T10:20:49Z</time>
      </trkpt>
      <trkpt lat="44.59596" lon="2.98124">
        <ele>1297.3</ele>
        <time>2022-08-04T10:20:54Z</time>
      </trkpt>
      <trkpt lat="44.59586" lon="2.98117">
        <ele>1297.6</ele>
        <time>2022-08-04T10:21:03Z</time>
      </trkpt>
      <trkpt lat="44.59575" lon="2.98111">
        <ele>1298</ele>
        <time>2022-08-04T10:21:12Z</time>
      </trkpt>
      <trkpt lat="44.59564" lon="2.98105">
        <ele>1298.5</ele>
        <time>2022-08-04T10:21:21Z</time>
      </trkpt>
      <trkpt lat="44.59563" lon="2.98104">
        <ele>1298.5</ele>
        <time>2022-08-04T10:21:22Z</time>
      </trkpt>
      <trkpt lat="44.59558" lon="2.98099">
        <ele>1298.8</ele>
        <time>2022-08-04T10:21:27Z</time>
      </trkpt>
      <trkpt lat="44.59555" lon="2.98097">
        <ele>1299</ele>
        <time>2022-08-04T10:21:30Z</time>
      </trkpt>
      <trkpt lat="44.59545" lon="2.9809">
        <ele>1299.6</ele>
        <time>2022-08-04T10:21:38Z</time>
      </trkpt>
      <trkpt lat="44.59537" lon="2.98085">
        <ele>1299.9</ele>
        <time>2022-08-04T10:21:46Z</time>
      </trkpt>
      <trkpt lat="44.59528" lon="2.98074">
        <ele>1300.3</ele>
        <time>2022-08-04T10:21:56Z</time>
      </trkpt>
      <trkpt lat="44.59527" lon="2.98073">
        <ele>1300.4</ele>
        <time>2022-08-04T10:21:57Z</time>
      </trkpt>
      <trkpt lat="44.5952" lon="2.98069">
        <ele>1300.4</ele>
        <time>2022-08-04T10:22:03Z</time>
      </trkpt>
      <trkpt lat="44.59509" lon="2.98064">
        <ele>1300.5</ele>
        <time>2022-08-04T10:22:12Z</time>
      </trkpt>
      <trkpt lat="44.595" lon="2.98058">
        <ele>1300.8</ele>
        <time>2022-08-04T10:22:20Z</time>
      </trkpt>
      <trkpt lat="44.59488" lon="2.98054">
        <ele>1301.1</ele>
        <time>2022-08-04T10:22:29Z</time>
      </trkpt>
      <trkpt lat="44.59477" lon="2.98047">
        <ele>1301.3</ele>
        <time>2022-08-04T10:22:37Z</time>
      </trkpt>
      <trkpt lat="44.59476" lon="2.98046">
        <ele>1301.4</ele>
        <time>2022-08-04T10:22:38Z</time>
      </trkpt>
      <trkpt lat="44.59463" lon="2.98042">
        <ele>1301</ele>
        <time>2022-08-04T10:22:48Z</time>
      </trkpt>
      <trkpt lat="44.59454" lon="2.98037">
        <ele>1300.8</ele>
        <time>2022-08-04T10:22:56Z</time>
      </trkpt>
      <trkpt lat="44.59451" lon="2.98035">
        <ele>1300.8</ele>
        <time>2022-08-04T10:22:59Z</time>
      </trkpt>
      <trkpt lat="44.59448" lon="2.98033">
        <ele>1300.8</ele>
        <time>2022-08-04T10:23:03Z</time>
      </trkpt>
      <trkpt lat="44.59439" lon="2.98027">
        <ele>1300.6</ele>
        <time>2022-08-04T10:23:11Z</time>
      </trkpt>
      <trkpt lat="44.59428" lon="2.98021">
        <ele>1300.2</ele>
        <time>2022-08-04T10:23:20Z</time>
      </trkpt>
      <trkpt lat="44.59418" lon="2.98019">
        <ele>1299.7</ele>
        <time>2022-08-04T10:23:28Z</time>
      </trkpt>
      <trkpt lat="44.59409" lon="2.98015">
        <ele>1299.7</ele>
        <time>2022-08-04T10:23:35Z</time>
      </trkpt>
      <trkpt lat="44.59406" lon="2.98013">
        <ele>1299.7</ele>
        <time>2022-08-04T10:23:38Z</time>
      </trkpt>
      <trkpt lat="44.59403" lon="2.9801">
        <ele>1299.8</ele>
        <time>2022-08-04T10:23:41Z</time>
      </trkpt>
      <trkpt lat="44.59397" lon="2.98007">
        <ele>1299.8</ele>
        <time>2022-08-04T10:23:46Z</time>
      </trkpt>
      <trkpt lat="44.59395" lon="2.98005">
        <ele>1299.8</ele>
        <time>2022-08-04T10:23:48Z</time>
      </trkpt>
      <trkpt lat="44.59394" lon="2.98005">
        <ele>1299.8</ele>
        <time>2022-08-04T10:23:49Z</time>
      </trkpt>
      <trkpt lat="44.59391" lon="2.98004">
        <ele>1299.8</ele>
        <time>2022-08-04T10:23:51Z</time>
      </trkpt>
      <trkpt lat="44.59387" lon="2.98002">
        <ele>1299.8</ele>
        <time>2022-08-04T10:23:54Z</time>
      </trkpt>
      <trkpt lat="44.59384" lon="2.98">
        <ele>1299.8</ele>
        <time>2022-08-04T10:23:56Z</time>
      </trkpt>
      <trkpt lat="44.59379" lon="2.97997">
        <ele>1299.8</ele>
        <time>2022-08-04T10:24:01Z</time>
      </trkpt>
      <trkpt lat="44.59368" lon="2.97992">
        <ele>1299.5</ele>
        <time>2022-08-04T10:24:10Z</time>
      </trkpt>
      <trkpt lat="44.59367" lon="2.97991">
        <ele>1299.5</ele>
        <time>2022-08-04T10:24:12Z</time>
      </trkpt>
      <trkpt lat="44.59362" lon="2.97989">
        <ele>1299.4</ele>
        <time>2022-08-04T10:24:16Z</time>
      </trkpt>
      <trkpt lat="44.5936" lon="2.97989">
        <ele>1299.4</ele>
        <time>2022-08-04T10:24:18Z</time>
      </trkpt>
      <trkpt lat="44.59353" lon="2.97987">
        <ele>1299.1</ele>
        <time>2022-08-04T10:24:24Z</time>
      </trkpt>
      <trkpt lat="44.59343" lon="2.97986">
        <ele>1298.9</ele>
        <time>2022-08-04T10:24:31Z</time>
      </trkpt>
      <trkpt lat="44.59341" lon="2.97985">
        <ele>1298.8</ele>
        <time>2022-08-04T10:24:33Z</time>
      </trkpt>
      <trkpt lat="44.59332" lon="2.97984">
        <ele>1298.6</ele>
        <time>2022-08-04T10:24:39Z</time>
      </trkpt>
      <trkpt lat="44.59329" lon="2.97984">
        <ele>1298.5</ele>
        <time>2022-08-04T10:24:42Z</time>
      </trkpt>
      <trkpt lat="44.5932" lon="2.97982">
        <ele>1298.5</ele>
        <time>2022-08-04T10:24:49Z</time>
      </trkpt>
      <trkpt lat="44.59312" lon="2.9798">
        <ele>1298.5</ele>
        <time>2022-08-04T10:24:56Z</time>
      </trkpt>
      <trkpt lat="44.59298" lon="2.97974">
        <ele>1298.6</ele>
        <time>2022-08-04T10:25:07Z</time>
      </trkpt>
      <trkpt lat="44.59289" lon="2.97973">
        <ele>1298.4</ele>
        <time>2022-08-04T10:25:13Z</time>
      </trkpt>
      <trkpt lat="44.59288" lon="2.97973">
        <ele>1298.4</ele>
        <time>2022-08-04T10:25:14Z</time>
      </trkpt>
      <trkpt lat="44.59286" lon="2.9797">
        <ele>1298.4</ele>
        <time>2022-08-04T10:25:16Z</time>
      </trkpt>
      <trkpt lat="44.59278" lon="2.97966">
        <ele>1298.4</ele>
        <time>2022-08-04T10:25:21Z</time>
      </trkpt>
      <trkpt lat="44.59266" lon="2.97967">
        <ele>1297.9</ele>
        <time>2022-08-04T10:25:31Z</time>
      </trkpt>
      <trkpt lat="44.59261" lon="2.97967">
        <ele>1297.8</ele>
        <time>2022-08-04T10:25:35Z</time>
      </trkpt>
      <trkpt lat="44.59256" lon="2.97967">
        <ele>1297.6</ele>
        <time>2022-08-04T10:25:38Z</time>
      </trkpt>
      <trkpt lat="44.59255" lon="2.97967">
        <ele>1297.6</ele>
        <time>2022-08-04T10:25:39Z</time>
      </trkpt>
      <trkpt lat="44.5925" lon="2.97967">
        <ele>1297.4</ele>
        <time>2022-08-04T10:25:43Z</time>
      </trkpt>
      <trkpt lat="44.59244" lon="2.97969">
        <ele>1297.2</ele>
        <time>2022-08-04T10:25:47Z</time>
      </trkpt>
      <trkpt lat="44.59243" lon="2.97968">
        <ele>1297.2</ele>
        <time>2022-08-04T10:25:48Z</time>
      </trkpt>
      <trkpt lat="44.59237" lon="2.97968">
        <ele>1297.2</ele>
        <time>2022-08-04T10:25:52Z</time>
      </trkpt>
      <trkpt lat="44.59237" lon="2.97968">
        <ele>1297.2</ele>
        <time>2022-08-04T10:25:53Z</time>
      </trkpt>
      <trkpt lat="44.59228" lon="2.97967">
        <ele>1297.2</ele>
        <time>2022-08-04T10:25:59Z</time>
      </trkpt>
      <trkpt lat="44.59225" lon="2.97966">
        <ele>1297.2</ele>
        <time>2022-08-04T10:26:01Z</time>
      </trkpt>
      <trkpt lat="44.59218" lon="2.97963">
        <ele>1297.2</ele>
        <time>2022-08-04T10:26:08Z</time>
      </trkpt>
      <trkpt lat="44.59217" lon="2.97963">
        <ele>1297.2</ele>
        <time>2022-08-04T10:26:09Z</time>
      </trkpt>
      <trkpt lat="44.59214" lon="2.97962">
        <ele>1297.2</ele>
        <time>2022-08-04T10:26:12Z</time>
      </trkpt>
      <trkpt lat="44.59214" lon="2.97962">
        <ele>1297.2</ele>
        <time>2022-08-04T10:26:15Z</time>
      </trkpt>
      <trkpt lat="44.59218" lon="2.97961">
        <ele>1297.3</ele>
        <time>2022-08-04T10:26:22Z</time>
      </trkpt>
      <trkpt lat="44.5922" lon="2.97957">
        <ele>1297.5</ele>
        <time>2022-08-04T10:26:31Z</time>
      </trkpt>
      <trkpt lat="44.5922" lon="2.97957">
        <ele>1297.5</ele>
        <time>2022-08-04T10:26:43Z</time>
      </trkpt>
      <trkpt lat="44.59219" lon="2.97957">
        <ele>1297.5</ele>
        <time>2022-08-04T10:26:45Z</time>
      </trkpt>
      <trkpt lat="44.59213" lon="2.97956">
        <ele>1297.5</ele>
        <time>2022-08-04T10:26:48Z</time>
      </trkpt>
      <trkpt lat="44.59196" lon="2.97953">
        <ele>1297.4</ele>
        <time>2022-08-04T10:26:58Z</time>
      </trkpt>
      <trkpt lat="44.59186" lon="2.97954">
        <ele>1297</ele>
        <time>2022-08-04T10:27:06Z</time>
      </trkpt>
      <trkpt lat="44.59184" lon="2.97954">
        <ele>1296.9</ele>
        <time>2022-08-04T10:27:07Z</time>
      </trkpt>
      <trkpt lat="44.59173" lon="2.97952">
        <ele>1296.7</ele>
        <time>2022-08-04T10:27:15Z</time>
      </trkpt>
      <trkpt lat="44.59167" lon="2.97953">
        <ele>1296.4</ele>
        <time>2022-08-04T10:27:20Z</time>
      </trkpt>
      <trkpt lat="44.59165" lon="2.97953">
        <ele>1296.3</ele>
        <time>2022-08-04T10:27:22Z</time>
      </trkpt>
      <trkpt lat="44.59156" lon="2.97955">
        <ele>1296</ele>
        <time>2022-08-04T10:27:29Z</time>
      </trkpt>
      <trkpt lat="44.59144" lon="2.97954">
        <ele>1295.8</ele>
        <time>2022-08-04T10:27:38Z</time>
      </trkpt>
      <trkpt lat="44.59137" lon="2.97954">
        <ele>1295.6</ele>
        <time>2022-08-04T10:27:44Z</time>
      </trkpt>
      <trkpt lat="44.59136" lon="2.97954">
        <ele>1295.5</ele>
        <time>2022-08-04T10:27:45Z</time>
      </trkpt>
      <trkpt lat="44.59128" lon="2.97955">
        <ele>1295.2</ele>
        <time>2022-08-04T10:27:52Z</time>
      </trkpt>
      <trkpt lat="44.59127" lon="2.97955">
        <ele>1295.2</ele>
        <time>2022-08-04T10:27:53Z</time>
      </trkpt>
      <trkpt lat="44.59119" lon="2.97957">
        <ele>1294.9</ele>
        <time>2022-08-04T10:27:59Z</time>
      </trkpt>
      <trkpt lat="44.59118" lon="2.97957">
        <ele>1294.8</ele>
        <time>2022-08-04T10:28:00Z</time>
      </trkpt>
      <trkpt lat="44.5911" lon="2.97962">
        <ele>1294.3</ele>
        <time>2022-08-04T10:28:06Z</time>
      </trkpt>
      <trkpt lat="44.59103" lon="2.97963">
        <ele>1294</ele>
        <time>2022-08-04T10:28:11Z</time>
      </trkpt>
      <trkpt lat="44.59099" lon="2.97962">
        <ele>1293.9</ele>
        <time>2022-08-04T10:28:14Z</time>
      </trkpt>
      <trkpt lat="44.59086" lon="2.97963">
        <ele>1293.4</ele>
        <time>2022-08-04T10:28:24Z</time>
      </trkpt>
      <trkpt lat="44.59083" lon="2.97964">
        <ele>1293.3</ele>
        <time>2022-08-04T10:28:26Z</time>
      </trkpt>
      <trkpt lat="44.59082" lon="2.97963">
        <ele>1293.3</ele>
        <time>2022-08-04T10:28:27Z</time>
      </trkpt>
      <trkpt lat="44.59079" lon="2.97963">
        <ele>1293.3</ele>
        <time>2022-08-04T10:28:30Z</time>
      </trkpt>
      <trkpt lat="44.5907" lon="2.97961">
        <ele>1293.4</ele>
        <time>2022-08-04T10:28:38Z</time>
      </trkpt>
      <trkpt lat="44.59059" lon="2.97962">
        <ele>1293.4</ele>
        <time>2022-08-04T10:28:46Z</time>
      </trkpt>
      <trkpt lat="44.59058" lon="2.97962">
        <ele>1293.4</ele>
        <time>2022-08-04T10:28:47Z</time>
      </trkpt>
      <trkpt lat="44.59048" lon="2.97965">
        <ele>1293</ele>
        <time>2022-08-04T10:28:55Z</time>
      </trkpt>
      <trkpt lat="44.59036" lon="2.97964">
        <ele>1292.6</ele>
        <time>2022-08-04T10:29:04Z</time>
      </trkpt>
      <trkpt lat="44.59034" lon="2.97965">
        <ele>1292.5</ele>
        <time>2022-08-04T10:29:06Z</time>
      </trkpt>
      <trkpt lat="44.59027" lon="2.97967">
        <ele>1292.1</ele>
        <time>2022-08-04T10:29:12Z</time>
      </trkpt>
      <trkpt lat="44.59025" lon="2.97966">
        <ele>1292.1</ele>
        <time>2022-08-04T10:29:14Z</time>
      </trkpt>
      <trkpt lat="44.59018" lon="2.97967">
        <ele>1291.8</ele>
        <time>2022-08-04T10:29:19Z</time>
      </trkpt>
      <trkpt lat="44.59011" lon="2.97969">
        <ele>1291.5</ele>
        <time>2022-08-04T10:29:25Z</time>
      </trkpt>
      <trkpt lat="44.5901" lon="2.97969">
        <ele>1291.5</ele>
        <time>2022-08-04T10:29:27Z</time>
      </trkpt>
      <trkpt lat="44.59008" lon="2.97969">
        <ele>1291.4</ele>
        <time>2022-08-04T10:29:28Z</time>
      </trkpt>
      <trkpt lat="44.59005" lon="2.97969">
        <ele>1291.3</ele>
        <time>2022-08-04T10:29:30Z</time>
      </trkpt>
      <trkpt lat="44.58999" lon="2.9797">
        <ele>1291.1</ele>
        <time>2022-08-04T10:29:34Z</time>
      </trkpt>
      <trkpt lat="44.58997" lon="2.97971">
        <ele>1291</ele>
        <time>2022-08-04T10:29:36Z</time>
      </trkpt>
      <trkpt lat="44.5899" lon="2.9797">
        <ele>1291</ele>
        <time>2022-08-04T10:29:41Z</time>
      </trkpt>
      <trkpt lat="44.58984" lon="2.97971">
        <ele>1291</ele>
        <time>2022-08-04T10:29:45Z</time>
      </trkpt>
      <trkpt lat="44.58981" lon="2.97971">
        <ele>1291</ele>
        <time>2022-08-04T10:29:48Z</time>
      </trkpt>
      <trkpt lat="44.58973" lon="2.97973">
        <ele>1291</ele>
        <time>2022-08-04T10:29:54Z</time>
      </trkpt>
      <trkpt lat="44.58972" lon="2.97973">
        <ele>1291</ele>
        <time>2022-08-04T10:29:55Z</time>
      </trkpt>
      <trkpt lat="44.58968" lon="2.97973">
        <ele>1290.8</ele>
        <time>2022-08-04T10:29:58Z</time>
      </trkpt>
      <trkpt lat="44.58966" lon="2.97973">
        <ele>1290.8</ele>
        <time>2022-08-04T10:29:59Z</time>
      </trkpt>
      <trkpt lat="44.5896" lon="2.97973">
        <ele>1290.5</ele>
        <time>2022-08-04T10:30:04Z</time>
      </trkpt>
      <trkpt lat="44.58956" lon="2.97972">
        <ele>1290.4</ele>
        <time>2022-08-04T10:30:07Z</time>
      </trkpt>
      <trkpt lat="44.58955" lon="2.97972">
        <ele>1290.4</ele>
        <time>2022-08-04T10:30:08Z</time>
      </trkpt>
      <trkpt lat="44.58951" lon="2.97972">
        <ele>1290.2</ele>
        <time>2022-08-04T10:30:12Z</time>
      </trkpt>
      <trkpt lat="44.58947" lon="2.97973">
        <ele>1290.1</ele>
        <time>2022-08-04T10:30:15Z</time>
      </trkpt>
      <trkpt lat="44.58934" lon="2.97974">
        <ele>1289.6</ele>
        <time>2022-08-04T10:30:24Z</time>
      </trkpt>
      <trkpt lat="44.58933" lon="2.97974">
        <ele>1289.5</ele>
        <time>2022-08-04T10:30:25Z</time>
      </trkpt>
      <trkpt lat="44.58922" lon="2.97973">
        <ele>1289.2</ele>
        <time>2022-08-04T10:30:33Z</time>
      </trkpt>
      <trkpt lat="44.58922" lon="2.97973">
        <ele>1289.2</ele>
        <time>2022-08-04T10:30:34Z</time>
      </trkpt>
      <trkpt lat="44.5891" lon="2.97975">
        <ele>1288.7</ele>
        <time>2022-08-04T10:30:42Z</time>
      </trkpt>
      <trkpt lat="44.58901" lon="2.97976">
        <ele>1288.3</ele>
        <time>2022-08-04T10:30:50Z</time>
      </trkpt>
      <trkpt lat="44.58891" lon="2.97977">
        <ele>1287.9</ele>
        <time>2022-08-04T10:30:57Z</time>
      </trkpt>
      <trkpt lat="44.58881" lon="2.97978">
        <ele>1287.5</ele>
        <time>2022-08-04T10:31:05Z</time>
      </trkpt>
      <trkpt lat="44.58872" lon="2.97978">
        <ele>1287.2</ele>
        <time>2022-08-04T10:31:14Z</time>
      </trkpt>
      <trkpt lat="44.5887" lon="2.97978">
        <ele>1287.1</ele>
        <time>2022-08-04T10:31:16Z</time>
      </trkpt>
      <trkpt lat="44.58867" lon="2.9798">
        <ele>1286.9</ele>
        <time>2022-08-04T10:31:19Z</time>
      </trkpt>
      <trkpt lat="44.58858" lon="2.9798">
        <ele>1286.6</ele>
        <time>2022-08-04T10:31:27Z</time>
      </trkpt>
      <trkpt lat="44.58853" lon="2.9798">
        <ele>1286.5</ele>
        <time>2022-08-04T10:31:32Z</time>
      </trkpt>
      <trkpt lat="44.5885" lon="2.9798">
        <ele>1286.4</ele>
        <time>2022-08-04T10:31:35Z</time>
      </trkpt>
      <trkpt lat="44.58838" lon="2.97981">
        <ele>1286.1</ele>
        <time>2022-08-04T10:31:44Z</time>
      </trkpt>
      <trkpt lat="44.58827" lon="2.97979">
        <ele>1285.8</ele>
        <time>2022-08-04T10:31:53Z</time>
      </trkpt>
      <trkpt lat="44.58822" lon="2.97977">
        <ele>1285.6</ele>
        <time>2022-08-04T10:31:58Z</time>
      </trkpt>
      <trkpt lat="44.58818" lon="2.97978">
        <ele>1285.4</ele>
        <time>2022-08-04T10:32:01Z</time>
      </trkpt>
      <trkpt lat="44.58812" lon="2.97978">
        <ele>1285.2</ele>
        <time>2022-08-04T10:32:05Z</time>
      </trkpt>
      <trkpt lat="44.58805" lon="2.97979">
        <ele>1285</ele>
        <time>2022-08-04T10:32:11Z</time>
      </trkpt>
      <trkpt lat="44.58793" lon="2.9798">
        <ele>1284.9</ele>
        <time>2022-08-04T10:32:20Z</time>
      </trkpt>
      <trkpt lat="44.58781" lon="2.97981">
        <ele>1284.7</ele>
        <time>2022-08-04T10:32:29Z</time>
      </trkpt>
      <trkpt lat="44.58779" lon="2.97981">
        <ele>1284.7</ele>
        <time>2022-08-04T10:32:30Z</time>
      </trkpt>
      <trkpt lat="44.58774" lon="2.97981">
        <ele>1284.6</ele>
        <time>2022-08-04T10:32:34Z</time>
      </trkpt>
      <trkpt lat="44.58765" lon="2.9798">
        <ele>1284.4</ele>
        <time>2022-08-04T10:32:42Z</time>
      </trkpt>
      <trkpt lat="44.58763" lon="2.97979">
        <ele>1284.3</ele>
        <time>2022-08-04T10:32:44Z</time>
      </trkpt>
      <trkpt lat="44.58754" lon="2.97977">
        <ele>1284.1</ele>
        <time>2022-08-04T10:32:50Z</time>
      </trkpt>
      <trkpt lat="44.58752" lon="2.97976">
        <ele>1284.1</ele>
        <time>2022-08-04T10:32:52Z</time>
      </trkpt>
      <trkpt lat="44.58747" lon="2.97975">
        <ele>1283.9</ele>
        <time>2022-08-04T10:32:56Z</time>
      </trkpt>
      <trkpt lat="44.58737" lon="2.97971">
        <ele>1283.6</ele>
        <time>2022-08-04T10:33:04Z</time>
      </trkpt>
      <trkpt lat="44.58733" lon="2.97969">
        <ele>1283.5</ele>
        <time>2022-08-04T10:33:08Z</time>
      </trkpt>
      <trkpt lat="44.58731" lon="2.97964">
        <ele>1283.8</ele>
        <time>2022-08-04T10:33:11Z</time>
      </trkpt>
      <trkpt lat="44.58723" lon="2.97952">
        <ele>1284.4</ele>
        <time>2022-08-04T10:33:20Z</time>
      </trkpt>
      <trkpt lat="44.5872" lon="2.9795">
        <ele>1284.5</ele>
        <time>2022-08-04T10:33:22Z</time>
      </trkpt>
      <trkpt lat="44.58716" lon="2.97946">
        <ele>1284.7</ele>
        <time>2022-08-04T10:33:27Z</time>
      </trkpt>
      <trkpt lat="44.58714" lon="2.9794">
        <ele>1284.9</ele>
        <time>2022-08-04T10:33:31Z</time>
      </trkpt>
      <trkpt lat="44.58714" lon="2.97938">
        <ele>1284.9</ele>
        <time>2022-08-04T10:33:32Z</time>
      </trkpt>
      <trkpt lat="44.58712" lon="2.97936">
        <ele>1284.9</ele>
        <time>2022-08-04T10:33:34Z</time>
      </trkpt>
      <trkpt lat="44.58706" lon="2.97928">
        <ele>1285</ele>
        <time>2022-08-04T10:33:41Z</time>
      </trkpt>
      <trkpt lat="44.58705" lon="2.97927">
        <ele>1285</ele>
        <time>2022-08-04T10:33:42Z</time>
      </trkpt>
      <trkpt lat="44.58699" lon="2.97915">
        <ele>1285.2</ele>
        <time>2022-08-04T10:33:51Z</time>
      </trkpt>
      <trkpt lat="44.58699" lon="2.97913">
        <ele>1285.2</ele>
        <time>2022-08-04T10:33:56Z</time>
      </trkpt>
      <trkpt lat="44.58698" lon="2.97911">
        <ele>1285.1</ele>
        <time>2022-08-04T10:33:58Z</time>
      </trkpt>
      <trkpt lat="44.58696" lon="2.97907">
        <ele>1285.1</ele>
        <time>2022-08-04T10:34:02Z</time>
      </trkpt>
      <trkpt lat="44.58699" lon="2.9791">
        <ele>1285.1</ele>
        <time>2022-08-04T10:34:06Z</time>
      </trkpt>
      <trkpt lat="44.58699" lon="2.9791">
        <ele>1285.2</ele>
        <time>2022-08-04T10:34:07Z</time>
      </trkpt>
      <trkpt lat="44.58703" lon="2.97914">
        <ele>1285.3</ele>
        <time>2022-08-04T10:34:13Z</time>
      </trkpt>
      <trkpt lat="44.58702" lon="2.97913">
        <ele>1285.3</ele>
        <time>2022-08-04T10:34:20Z</time>
      </trkpt>
      <trkpt lat="44.58702" lon="2.97913">
        <ele>1285.3</ele>
        <time>2022-08-04T10:34:26Z</time>
      </trkpt>
      <trkpt lat="44.58703" lon="2.97914">
        <ele>1285.3</ele>
        <time>2022-08-04T10:34:39Z</time>
      </trkpt>
      <trkpt lat="44.58705" lon="2.97914">
        <ele>1285.4</ele>
        <time>2022-08-04T10:37:19Z</time>
      </trkpt>
      <trkpt lat="44.58704" lon="2.97913">
        <ele>1285.3</ele>
        <time>2022-08-04T10:44:40Z</time>
      </trkpt>
      <trkpt lat="44.58699" lon="2.9791">
        <ele>1285.2</ele>
        <time>2022-08-04T10:49:40Z</time>
      </trkpt>
      <trkpt lat="44.587" lon="2.97911">
        <ele>1285.2</ele>
        <time>2022-08-04T10:49:48Z</time>
      </trkpt>
      <trkpt lat="44.58701" lon="2.97913">
        <ele>1285.2</ele>
        <time>2022-08-04T10:49:56Z</time>
      </trkpt>
      <trkpt lat="44.58703" lon="2.97912">
        <ele>1285.3</ele>
        <time>2022-08-04T10:50:04Z</time>
      </trkpt>
      <trkpt lat="44.58703" lon="2.97912">
        <ele>1285.3</ele>
        <time>2022-08-04T10:50:19Z</time>
      </trkpt>
      <trkpt lat="44.58702" lon="2.97913">
        <ele>1285.3</ele>
        <time>2022-08-04T10:55:04Z</time>
      </trkpt>
      <trkpt lat="44.58702" lon="2.97913">
        <ele>1285.3</ele>
        <time>2022-08-04T10:56:19Z</time>
      </trkpt>
      <trkpt lat="44.58702" lon="2.97913">
        <ele>1285.3</ele>
        <time>2022-08-04T10:57:03Z</time>
      </trkpt>
      <trkpt lat="44.58702" lon="2.97913">
        <ele>1285.3</ele>
        <time>2022-08-04T10:57:28Z</time>
      </trkpt>
      <trkpt lat="44.587" lon="2.9791">
        <ele>1285.2</ele>
        <time>2022-08-04T10:57:32Z</time>
      </trkpt>
      <trkpt lat="44.58697" lon="2.97908">
        <ele>1285.1</ele>
        <time>2022-08-04T10:57:45Z</time>
      </trkpt>
      <trkpt lat="44.58698" lon="2.97908">
        <ele>1285.1</ele>
        <time>2022-08-04T10:57:55Z</time>
      </trkpt>
      <trkpt lat="44.58697" lon="2.97908">
        <ele>1285.1</ele>
        <time>2022-08-04T10:58:05Z</time>
      </trkpt>
      <trkpt lat="44.58692" lon="2.97904">
        <ele>1284.9</ele>
        <time>2022-08-04T10:58:09Z</time>
      </trkpt>
      <trkpt lat="44.58683" lon="2.97893">
        <ele>1284.5</ele>
        <time>2022-08-04T10:58:17Z</time>
      </trkpt>
      <trkpt lat="44.5868" lon="2.97888">
        <ele>1284.4</ele>
        <time>2022-08-04T10:58:21Z</time>
      </trkpt>
      <trkpt lat="44.58678" lon="2.97885">
        <ele>1284.3</ele>
        <time>2022-08-04T10:58:24Z</time>
      </trkpt>
      <trkpt lat="44.58678" lon="2.97884">
        <ele>1284.2</ele>
        <time>2022-08-04T10:58:25Z</time>
      </trkpt>
      <trkpt lat="44.58679" lon="2.97885">
        <ele>1284.3</ele>
        <time>2022-08-04T10:58:30Z</time>
      </trkpt>
      <trkpt lat="44.58678" lon="2.97885">
        <ele>1284.2</ele>
        <time>2022-08-04T10:58:35Z</time>
      </trkpt>
      <trkpt lat="44.58677" lon="2.97884">
        <ele>1284.2</ele>
        <time>2022-08-04T10:58:36Z</time>
      </trkpt>
      <trkpt lat="44.58675" lon="2.97882">
        <ele>1284.1</ele>
        <time>2022-08-04T10:58:38Z</time>
      </trkpt>
      <trkpt lat="44.5867" lon="2.97875">
        <ele>1283.6</ele>
        <time>2022-08-04T10:58:43Z</time>
      </trkpt>
      <trkpt lat="44.58663" lon="2.97863">
        <ele>1282.8</ele>
        <time>2022-08-04T10:58:52Z</time>
      </trkpt>
      <trkpt lat="44.5866" lon="2.9786">
        <ele>1282.5</ele>
        <time>2022-08-04T10:58:55Z</time>
      </trkpt>
      <trkpt lat="44.58659" lon="2.97859">
        <ele>1282.4</ele>
        <time>2022-08-04T10:58:56Z</time>
      </trkpt>
      <trkpt lat="44.58656" lon="2.97853">
        <ele>1282</ele>
        <time>2022-08-04T10:59:01Z</time>
      </trkpt>
      <trkpt lat="44.5865" lon="2.97846">
        <ele>1281.6</ele>
        <time>2022-08-04T10:59:07Z</time>
      </trkpt>
      <trkpt lat="44.58649" lon="2.97843">
        <ele>1281.5</ele>
        <time>2022-08-04T10:59:09Z</time>
      </trkpt>
      <trkpt lat="44.58647" lon="2.97838">
        <ele>1281.3</ele>
        <time>2022-08-04T10:59:12Z</time>
      </trkpt>
      <trkpt lat="44.58646" lon="2.97835">
        <ele>1281.3</ele>
        <time>2022-08-04T10:59:14Z</time>
      </trkpt>
      <trkpt lat="44.5864" lon="2.97828">
        <ele>1280.7</ele>
        <time>2022-08-04T10:59:21Z</time>
      </trkpt>
      <trkpt lat="44.58639" lon="2.97826">
        <ele>1280.5</ele>
        <time>2022-08-04T10:59:23Z</time>
      </trkpt>
      <trkpt lat="44.58638" lon="2.97824">
        <ele>1280.3</ele>
        <time>2022-08-04T10:59:28Z</time>
      </trkpt>
      <trkpt lat="44.58637" lon="2.97823">
        <ele>1280.2</ele>
        <time>2022-08-04T10:59:29Z</time>
      </trkpt>
      <trkpt lat="44.58631" lon="2.97819">
        <ele>1279.6</ele>
        <time>2022-08-04T10:59:35Z</time>
      </trkpt>
      <trkpt lat="44.5863" lon="2.97818">
        <ele>1279.5</ele>
        <time>2022-08-04T10:59:36Z</time>
      </trkpt>
      <trkpt lat="44.58629" lon="2.97817">
        <ele>1279.4</ele>
        <time>2022-08-04T10:59:37Z</time>
      </trkpt>
      <trkpt lat="44.58621" lon="2.9781">
        <ele>1278.6</ele>
        <time>2022-08-04T10:59:46Z</time>
      </trkpt>
      <trkpt lat="44.58617" lon="2.97799">
        <ele>1278.2</ele>
        <time>2022-08-04T10:59:53Z</time>
      </trkpt>
      <trkpt lat="44.58616" lon="2.97799">
        <ele>1278.2</ele>
        <time>2022-08-04T10:59:54Z</time>
      </trkpt>
      <trkpt lat="44.58614" lon="2.97796">
        <ele>1278.1</ele>
        <time>2022-08-04T10:59:56Z</time>
      </trkpt>
      <trkpt lat="44.58609" lon="2.97786">
        <ele>1277.9</ele>
        <time>2022-08-04T11:00:02Z</time>
      </trkpt>
      <trkpt lat="44.58605" lon="2.97779">
        <ele>1277.6</ele>
        <time>2022-08-04T11:00:07Z</time>
      </trkpt>
      <trkpt lat="44.58599" lon="2.97776">
        <ele>1277.1</ele>
        <time>2022-08-04T11:00:11Z</time>
      </trkpt>
      <trkpt lat="44.58596" lon="2.97771">
        <ele>1276.8</ele>
        <time>2022-08-04T11:00:15Z</time>
      </trkpt>
      <trkpt lat="44.58595" lon="2.9777">
        <ele>1276.7</ele>
        <time>2022-08-04T11:00:16Z</time>
      </trkpt>
      <trkpt lat="44.58593" lon="2.97767">
        <ele>1276.5</ele>
        <time>2022-08-04T11:00:19Z</time>
      </trkpt>
      <trkpt lat="44.58585" lon="2.97754">
        <ele>1276</ele>
        <time>2022-08-04T11:00:28Z</time>
      </trkpt>
      <trkpt lat="44.58583" lon="2.97751">
        <ele>1276</ele>
        <time>2022-08-04T11:00:30Z</time>
      </trkpt>
      <trkpt lat="44.58579" lon="2.97743">
        <ele>1275.6</ele>
        <time>2022-08-04T11:00:36Z</time>
      </trkpt>
      <trkpt lat="44.5857" lon="2.97733">
        <ele>1274.9</ele>
        <time>2022-08-04T11:00:45Z</time>
      </trkpt>
      <trkpt lat="44.58567" lon="2.97731">
        <ele>1274.7</ele>
        <time>2022-08-04T11:00:47Z</time>
      </trkpt>
      <trkpt lat="44.58561" lon="2.97722">
        <ele>1274.2</ele>
        <time>2022-08-04T11:00:54Z</time>
      </trkpt>
      <trkpt lat="44.58556" lon="2.97713">
        <ele>1273.7</ele>
        <time>2022-08-04T11:01:00Z</time>
      </trkpt>
      <trkpt lat="44.58556" lon="2.97713">
        <ele>1273.7</ele>
        <time>2022-08-04T11:01:02Z</time>
      </trkpt>
      <trkpt lat="44.58559" lon="2.97716">
        <ele>1273.9</ele>
        <time>2022-08-04T11:01:11Z</time>
      </trkpt>
      <trkpt lat="44.58559" lon="2.97716">
        <ele>1273.9</ele>
        <time>2022-08-04T11:01:27Z</time>
      </trkpt>
      <trkpt lat="44.58559" lon="2.97714">
        <ele>1273.8</ele>
        <time>2022-08-04T11:02:21Z</time>
      </trkpt>
      <trkpt lat="44.58558" lon="2.97717">
        <ele>1273.9</ele>
        <time>2022-08-04T11:02:54Z</time>
      </trkpt>
      <trkpt lat="44.58557" lon="2.97716">
        <ele>1273.8</ele>
        <time>2022-08-04T11:04:25Z</time>
      </trkpt>
      <trkpt lat="44.58552" lon="2.97709">
        <ele>1273.5</ele>
        <time>2022-08-04T11:04:29Z</time>
      </trkpt>
      <trkpt lat="44.58541" lon="2.97695">
        <ele>1273</ele>
        <time>2022-08-04T11:04:38Z</time>
      </trkpt>
      <trkpt lat="44.58538" lon="2.97691">
        <ele>1272.9</ele>
        <time>2022-08-04T11:04:41Z</time>
      </trkpt>
      <trkpt lat="44.58532" lon="2.97683">
        <ele>1272.6</ele>
        <time>2022-08-04T11:04:47Z</time>
      </trkpt>
      <trkpt lat="44.58519" lon="2.97665">
        <ele>1272</ele>
        <time>2022-08-04T11:05:01Z</time>
      </trkpt>
      <trkpt lat="44.58517" lon="2.97662">
        <ele>1272</ele>
        <time>2022-08-04T11:05:03Z</time>
      </trkpt>
      <trkpt lat="44.58513" lon="2.97657">
        <ele>1272</ele>
        <time>2022-08-04T11:05:07Z</time>
      </trkpt>
      <trkpt lat="44.58507" lon="2.9765">
        <ele>1272</ele>
        <time>2022-08-04T11:05:13Z</time>
      </trkpt>
      <trkpt lat="44.58499" lon="2.97638">
        <ele>1272</ele>
        <time>2022-08-04T11:05:22Z</time>
      </trkpt>
      <trkpt lat="44.58491" lon="2.97627">
        <ele>1271.7</ele>
        <time>2022-08-04T11:05:31Z</time>
      </trkpt>
      <trkpt lat="44.58477" lon="2.97609">
        <ele>1271.2</ele>
        <time>2022-08-04T11:05:45Z</time>
      </trkpt>
      <trkpt lat="44.58467" lon="2.97595">
        <ele>1271.5</ele>
        <time>2022-08-04T11:05:56Z</time>
      </trkpt>
      <trkpt lat="44.58457" lon="2.97584">
        <ele>1271.4</ele>
        <time>2022-08-04T11:06:06Z</time>
      </trkpt>
      <trkpt lat="44.58448" lon="2.97573">
        <ele>1271.4</ele>
        <time>2022-08-04T11:06:15Z</time>
      </trkpt>
      <trkpt lat="44.58447" lon="2.97572">
        <ele>1271.4</ele>
        <time>2022-08-04T11:06:16Z</time>
      </trkpt>
      <trkpt lat="44.5844" lon="2.97562">
        <ele>1271.5</ele>
        <time>2022-08-04T11:06:24Z</time>
      </trkpt>
      <trkpt lat="44.58428" lon="2.97543">
        <ele>1270.9</ele>
        <time>2022-08-04T11:06:38Z</time>
      </trkpt>
      <trkpt lat="44.58419" lon="2.9753">
        <ele>1270.9</ele>
        <time>2022-08-04T11:06:48Z</time>
      </trkpt>
      <trkpt lat="44.58411" lon="2.9752">
        <ele>1270.8</ele>
        <time>2022-08-04T11:06:57Z</time>
      </trkpt>
      <trkpt lat="44.58405" lon="2.97509">
        <ele>1270.6</ele>
        <time>2022-08-04T11:07:05Z</time>
      </trkpt>
      <trkpt lat="44.58394" lon="2.97497">
        <ele>1270.8</ele>
        <time>2022-08-04T11:07:16Z</time>
      </trkpt>
      <trkpt lat="44.58392" lon="2.97495">
        <ele>1270.9</ele>
        <time>2022-08-04T11:07:18Z</time>
      </trkpt>
      <trkpt lat="44.58381" lon="2.97478">
        <ele>1271.2</ele>
        <time>2022-08-04T11:07:31Z</time>
      </trkpt>
      <trkpt lat="44.5837" lon="2.97465">
        <ele>1271.7</ele>
        <time>2022-08-04T11:07:42Z</time>
      </trkpt>
      <trkpt lat="44.5836" lon="2.97451">
        <ele>1272</ele>
        <time>2022-08-04T11:07:53Z</time>
      </trkpt>
      <trkpt lat="44.58352" lon="2.97434">
        <ele>1272</ele>
        <time>2022-08-04T11:08:04Z</time>
      </trkpt>
      <trkpt lat="44.58351" lon="2.97431">
        <ele>1272</ele>
        <time>2022-08-04T11:08:06Z</time>
      </trkpt>
      <trkpt lat="44.5835" lon="2.97429">
        <ele>1272</ele>
        <time>2022-08-04T11:08:07Z</time>
      </trkpt>
      <trkpt lat="44.58348" lon="2.97416">
        <ele>1272</ele>
        <time>2022-08-04T11:08:15Z</time>
      </trkpt>
      <trkpt lat="44.58345" lon="2.97396">
        <ele>1272</ele>
        <time>2022-08-04T11:08:26Z</time>
      </trkpt>
      <trkpt lat="44.58345" lon="2.97385">
        <ele>1271.9</ele>
        <time>2022-08-04T11:08:33Z</time>
      </trkpt>
      <trkpt lat="44.58345" lon="2.97385">
        <ele>1271.9</ele>
        <time>2022-08-04T11:08:35Z</time>
      </trkpt>
      <trkpt lat="44.58346" lon="2.97383">
        <ele>1271.9</ele>
        <time>2022-08-04T11:08:38Z</time>
      </trkpt>
      <trkpt lat="44.58347" lon="2.97376">
        <ele>1271.8</ele>
        <time>2022-08-04T11:08:43Z</time>
      </trkpt>
      <trkpt lat="44.58348" lon="2.97373">
        <ele>1271.7</ele>
        <time>2022-08-04T11:08:51Z</time>
      </trkpt>
      <trkpt lat="44.58347" lon="2.97373">
        <ele>1271.7</ele>
        <time>2022-08-04T11:08:58Z</time>
      </trkpt>
      <trkpt lat="44.58346" lon="2.97371">
        <ele>1271.7</ele>
        <time>2022-08-04T11:08:59Z</time>
      </trkpt>
      <trkpt lat="44.58342" lon="2.97363">
        <ele>1271.7</ele>
        <time>2022-08-04T11:09:05Z</time>
      </trkpt>
      <trkpt lat="44.58342" lon="2.97345">
        <ele>1271.3</ele>
        <time>2022-08-04T11:09:15Z</time>
      </trkpt>
      <trkpt lat="44.58341" lon="2.97325">
        <ele>1270.9</ele>
        <time>2022-08-04T11:09:26Z</time>
      </trkpt>
      <trkpt lat="44.58338" lon="2.97298">
        <ele>1270.6</ele>
        <time>2022-08-04T11:09:40Z</time>
      </trkpt>
      <trkpt lat="44.58337" lon="2.97289">
        <ele>1270.3</ele>
        <time>2022-08-04T11:09:45Z</time>
      </trkpt>
      <trkpt lat="44.58336" lon="2.97279">
        <ele>1270</ele>
        <time>2022-08-04T11:09:50Z</time>
      </trkpt>
      <trkpt lat="44.58334" lon="2.97259">
        <ele>1270</ele>
        <time>2022-08-04T11:10:01Z</time>
      </trkpt>
      <trkpt lat="44.58332" lon="2.97242">
        <ele>1269.7</ele>
        <time>2022-08-04T11:10:12Z</time>
      </trkpt>
      <trkpt lat="44.5833" lon="2.97227">
        <ele>1269.2</ele>
        <time>2022-08-04T11:10:20Z</time>
      </trkpt>
      <trkpt lat="44.58329" lon="2.9722">
        <ele>1268.9</ele>
        <time>2022-08-04T11:10:24Z</time>
      </trkpt>
      <trkpt lat="44.58328" lon="2.97198">
        <ele>1268.1</ele>
        <time>2022-08-04T11:10:36Z</time>
      </trkpt>
      <trkpt lat="44.58326" lon="2.97175">
        <ele>1267.3</ele>
        <time>2022-08-04T11:10:49Z</time>
      </trkpt>
      <trkpt lat="44.58326" lon="2.97173">
        <ele>1267.2</ele>
        <time>2022-08-04T11:10:50Z</time>
      </trkpt>
      <trkpt lat="44.58323" lon="2.97155">
        <ele>1266.6</ele>
        <time>2022-08-04T11:11:00Z</time>
      </trkpt>
      <trkpt lat="44.58322" lon="2.97135">
        <ele>1265.7</ele>
        <time>2022-08-04T11:11:11Z</time>
      </trkpt>
      <trkpt lat="44.58321" lon="2.97121">
        <ele>1265</ele>
        <time>2022-08-04T11:11:18Z</time>
      </trkpt>
      <trkpt lat="44.58319" lon="2.97109">
        <ele>1264.5</ele>
        <time>2022-08-04T11:11:24Z</time>
      </trkpt>
      <trkpt lat="44.58316" lon="2.97088">
        <ele>1264.1</ele>
        <time>2022-08-04T11:11:35Z</time>
      </trkpt>
      <trkpt lat="44.58315" lon="2.97081">
        <ele>1263.9</ele>
        <time>2022-08-04T11:11:39Z</time>
      </trkpt>
      <trkpt lat="44.58313" lon="2.97065">
        <ele>1263.3</ele>
        <time>2022-08-04T11:11:47Z</time>
      </trkpt>
      <trkpt lat="44.58313" lon="2.97059">
        <ele>1263.1</ele>
        <time>2022-08-04T11:11:51Z</time>
      </trkpt>
      <trkpt lat="44.58314" lon="2.97055">
        <ele>1263</ele>
        <time>2022-08-04T11:11:56Z</time>
      </trkpt>
      <trkpt lat="44.58313" lon="2.97054">
        <ele>1263</ele>
        <time>2022-08-04T11:11:57Z</time>
      </trkpt>
      <trkpt lat="44.5831" lon="2.97042">
        <ele>1263</ele>
        <time>2022-08-04T11:12:03Z</time>
      </trkpt>
      <trkpt lat="44.58309" lon="2.97024">
        <ele>1262.9</ele>
        <time>2022-08-04T11:12:13Z</time>
      </trkpt>
      <trkpt lat="44.58307" lon="2.96999">
        <ele>1262</ele>
        <time>2022-08-04T11:12:27Z</time>
      </trkpt>
      <trkpt lat="44.58304" lon="2.9698">
        <ele>1261.2</ele>
        <time>2022-08-04T11:12:38Z</time>
      </trkpt>
      <trkpt lat="44.58304" lon="2.96974">
        <ele>1261</ele>
        <time>2022-08-04T11:12:41Z</time>
      </trkpt>
      <trkpt lat="44.58302" lon="2.96951">
        <ele>1260.7</ele>
        <time>2022-08-04T11:12:53Z</time>
      </trkpt>
      <trkpt lat="44.583" lon="2.96938">
        <ele>1260.4</ele>
        <time>2022-08-04T11:13:00Z</time>
      </trkpt>
      <trkpt lat="44.58298" lon="2.96931">
        <ele>1260.1</ele>
        <time>2022-08-04T11:13:04Z</time>
      </trkpt>
      <trkpt lat="44.58296" lon="2.96905">
        <ele>1259.2</ele>
        <time>2022-08-04T11:13:17Z</time>
      </trkpt>
      <trkpt lat="44.58296" lon="2.96904">
        <ele>1259.2</ele>
        <time>2022-08-04T11:13:18Z</time>
      </trkpt>
      <trkpt lat="44.58296" lon="2.96899">
        <ele>1259</ele>
        <time>2022-08-04T11:13:21Z</time>
      </trkpt>
      <trkpt lat="44.58294" lon="2.96883">
        <ele>1258.4</ele>
        <time>2022-08-04T11:13:30Z</time>
      </trkpt>
      <trkpt lat="44.58293" lon="2.9688">
        <ele>1258.2</ele>
        <time>2022-08-04T11:13:36Z</time>
      </trkpt>
      <trkpt lat="44.58293" lon="2.96869">
        <ele>1257.8</ele>
        <time>2022-08-04T11:13:42Z</time>
      </trkpt>
      <trkpt lat="44.58291" lon="2.96849">
        <ele>1256.8</ele>
        <time>2022-08-04T11:13:53Z</time>
      </trkpt>
      <trkpt lat="44.5829" lon="2.9684">
        <ele>1256.2</ele>
        <time>2022-08-04T11:13:58Z</time>
      </trkpt>
      <trkpt lat="44.58289" lon="2.96828">
        <ele>1255.5</ele>
        <time>2022-08-04T11:14:05Z</time>
      </trkpt>
      <trkpt lat="44.58289" lon="2.96819">
        <ele>1254.8</ele>
        <time>2022-08-04T11:14:10Z</time>
      </trkpt>
      <trkpt lat="44.58289" lon="2.96808">
        <ele>1254</ele>
        <time>2022-08-04T11:14:16Z</time>
      </trkpt>
      <trkpt lat="44.5829" lon="2.96795">
        <ele>1253.5</ele>
        <time>2022-08-04T11:14:23Z</time>
      </trkpt>
      <trkpt lat="44.58291" lon="2.96784">
        <ele>1253.1</ele>
        <time>2022-08-04T11:14:29Z</time>
      </trkpt>
      <trkpt lat="44.58293" lon="2.96767">
        <ele>1252.6</ele>
        <time>2022-08-04T11:14:38Z</time>
      </trkpt>
      <trkpt lat="44.58293" lon="2.96766">
        <ele>1252.5</ele>
        <time>2022-08-04T11:14:39Z</time>
      </trkpt>
      <trkpt lat="44.58296" lon="2.96747">
        <ele>1251.8</ele>
        <time>2022-08-04T11:14:49Z</time>
      </trkpt>
      <trkpt lat="44.58297" lon="2.96741">
        <ele>1251.3</ele>
        <time>2022-08-04T11:14:52Z</time>
      </trkpt>
      <trkpt lat="44.58299" lon="2.96729">
        <ele>1250.6</ele>
        <time>2022-08-04T11:14:59Z</time>
      </trkpt>
      <trkpt lat="44.58302" lon="2.96719">
        <ele>1250.2</ele>
        <time>2022-08-04T11:15:05Z</time>
      </trkpt>
      <trkpt lat="44.58303" lon="2.9671">
        <ele>1249.8</ele>
        <time>2022-08-04T11:15:10Z</time>
      </trkpt>
      <trkpt lat="44.58307" lon="2.96691">
        <ele>1248.9</ele>
        <time>2022-08-04T11:15:21Z</time>
      </trkpt>
      <trkpt lat="44.58307" lon="2.96689">
        <ele>1248.8</ele>
        <time>2022-08-04T11:15:22Z</time>
      </trkpt>
      <trkpt lat="44.5831" lon="2.96677">
        <ele>1248.2</ele>
        <time>2022-08-04T11:15:30Z</time>
      </trkpt>
      <trkpt lat="44.58311" lon="2.96671">
        <ele>1247.9</ele>
        <time>2022-08-04T11:15:33Z</time>
      </trkpt>
      <trkpt lat="44.58314" lon="2.96655">
        <ele>1246.8</ele>
        <time>2022-08-04T11:15:42Z</time>
      </trkpt>
      <trkpt lat="44.58314" lon="2.96654">
        <ele>1246.7</ele>
        <time>2022-08-04T11:15:43Z</time>
      </trkpt>
      <trkpt lat="44.58317" lon="2.96638">
        <ele>1245.6</ele>
        <time>2022-08-04T11:15:52Z</time>
      </trkpt>
      <trkpt lat="44.58318" lon="2.96635">
        <ele>1245.5</ele>
        <time>2022-08-04T11:15:54Z</time>
      </trkpt>
      <trkpt lat="44.58318" lon="2.96631">
        <ele>1245.3</ele>
        <time>2022-08-04T11:15:56Z</time>
      </trkpt>
      <trkpt lat="44.5832" lon="2.96624">
        <ele>1245</ele>
        <time>2022-08-04T11:16:00Z</time>
      </trkpt>
      <trkpt lat="44.58322" lon="2.96612">
        <ele>1244.4</ele>
        <time>2022-08-04T11:16:06Z</time>
      </trkpt>
      <trkpt lat="44.58325" lon="2.96602">
        <ele>1244</ele>
        <time>2022-08-04T11:16:12Z</time>
      </trkpt>
      <trkpt lat="44.58327" lon="2.9659">
        <ele>1243.4</ele>
        <time>2022-08-04T11:16:18Z</time>
      </trkpt>
      <trkpt lat="44.58329" lon="2.9658">
        <ele>1242.9</ele>
        <time>2022-08-04T11:16:24Z</time>
      </trkpt>
      <trkpt lat="44.58329" lon="2.96578">
        <ele>1242.7</ele>
        <time>2022-08-04T11:16:25Z</time>
      </trkpt>
      <trkpt lat="44.58332" lon="2.96562">
        <ele>1241.5</ele>
        <time>2022-08-04T11:16:34Z</time>
      </trkpt>
      <trkpt lat="44.58334" lon="2.96554">
        <ele>1240.9</ele>
        <time>2022-08-04T11:16:38Z</time>
      </trkpt>
      <trkpt lat="44.58336" lon="2.96541">
        <ele>1240.2</ele>
        <time>2022-08-04T11:16:45Z</time>
      </trkpt>
      <trkpt lat="44.58337" lon="2.96535">
        <ele>1239.9</ele>
        <time>2022-08-04T11:16:48Z</time>
      </trkpt>
      <trkpt lat="44.58339" lon="2.96519">
        <ele>1238.7</ele>
        <time>2022-08-04T11:16:57Z</time>
      </trkpt>
      <trkpt lat="44.5834" lon="2.96518">
        <ele>1238.6</ele>
        <time>2022-08-04T11:16:58Z</time>
      </trkpt>
      <trkpt lat="44.58342" lon="2.96506">
        <ele>1237.6</ele>
        <time>2022-08-04T11:17:05Z</time>
      </trkpt>
      <trkpt lat="44.58343" lon="2.96503">
        <ele>1237.3</ele>
        <time>2022-08-04T11:17:07Z</time>
      </trkpt>
      <trkpt lat="44.58346" lon="2.96487">
        <ele>1236.4</ele>
        <time>2022-08-04T11:17:15Z</time>
      </trkpt>
      <trkpt lat="44.58348" lon="2.96477">
        <ele>1235.9</ele>
        <time>2022-08-04T11:17:21Z</time>
      </trkpt>
      <trkpt lat="44.58351" lon="2.96463">
        <ele>1235</ele>
        <time>2022-08-04T11:17:29Z</time>
      </trkpt>
      <trkpt lat="44.58353" lon="2.96451">
        <ele>1234.3</ele>
        <time>2022-08-04T11:17:35Z</time>
      </trkpt>
      <trkpt lat="44.58353" lon="2.96444">
        <ele>1233.8</ele>
        <time>2022-08-04T11:17:39Z</time>
      </trkpt>
      <trkpt lat="44.58356" lon="2.96428">
        <ele>1233</ele>
        <time>2022-08-04T11:17:47Z</time>
      </trkpt>
      <trkpt lat="44.58356" lon="2.96421">
        <ele>1232.6</ele>
        <time>2022-08-04T11:17:51Z</time>
      </trkpt>
      <trkpt lat="44.58358" lon="2.9641">
        <ele>1231.9</ele>
        <time>2022-08-04T11:17:57Z</time>
      </trkpt>
      <trkpt lat="44.58359" lon="2.96405">
        <ele>1231.5</ele>
        <time>2022-08-04T11:18:00Z</time>
      </trkpt>
      <trkpt lat="44.58361" lon="2.964">
        <ele>1231.1</ele>
        <time>2022-08-04T11:18:03Z</time>
      </trkpt>
      <trkpt lat="44.58363" lon="2.96385">
        <ele>1229.9</ele>
        <time>2022-08-04T11:18:11Z</time>
      </trkpt>
      <trkpt lat="44.58364" lon="2.96381">
        <ele>1229.7</ele>
        <time>2022-08-04T11:18:13Z</time>
      </trkpt>
      <trkpt lat="44.58366" lon="2.96362">
        <ele>1228.6</ele>
        <time>2022-08-04T11:18:23Z</time>
      </trkpt>
      <trkpt lat="44.58367" lon="2.96358">
        <ele>1228.3</ele>
        <time>2022-08-04T11:18:25Z</time>
      </trkpt>
      <trkpt lat="44.58369" lon="2.96348">
        <ele>1227.6</ele>
        <time>2022-08-04T11:18:31Z</time>
      </trkpt>
      <trkpt lat="44.58371" lon="2.96339">
        <ele>1226.9</ele>
        <time>2022-08-04T11:18:36Z</time>
      </trkpt>
      <trkpt lat="44.58372" lon="2.96332">
        <ele>1226.4</ele>
        <time>2022-08-04T11:18:40Z</time>
      </trkpt>
      <trkpt lat="44.58373" lon="2.96328">
        <ele>1226.1</ele>
        <time>2022-08-04T11:18:42Z</time>
      </trkpt>
      <trkpt lat="44.58376" lon="2.96313">
        <ele>1224.9</ele>
        <time>2022-08-04T11:18:50Z</time>
      </trkpt>
      <trkpt lat="44.5838" lon="2.96292">
        <ele>1223.2</ele>
        <time>2022-08-04T11:19:02Z</time>
      </trkpt>
      <trkpt lat="44.58381" lon="2.96288">
        <ele>1223</ele>
        <time>2022-08-04T11:19:04Z</time>
      </trkpt>
      <trkpt lat="44.58385" lon="2.96274">
        <ele>1222.1</ele>
        <time>2022-08-04T11:19:12Z</time>
      </trkpt>
      <trkpt lat="44.58385" lon="2.96271">
        <ele>1221.8</ele>
        <time>2022-08-04T11:19:14Z</time>
      </trkpt>
      <trkpt lat="44.58387" lon="2.96263">
        <ele>1221.6</ele>
        <time>2022-08-04T11:19:19Z</time>
      </trkpt>
      <trkpt lat="44.58388" lon="2.96254">
        <ele>1221.1</ele>
        <time>2022-08-04T11:19:24Z</time>
      </trkpt>
      <trkpt lat="44.58388" lon="2.96249">
        <ele>1220.7</ele>
        <time>2022-08-04T11:19:27Z</time>
      </trkpt>
      <trkpt lat="44.58389" lon="2.96245">
        <ele>1220.5</ele>
        <time>2022-08-04T11:19:30Z</time>
      </trkpt>
      <trkpt lat="44.5839" lon="2.96244">
        <ele>1220.4</ele>
        <time>2022-08-04T11:19:32Z</time>
      </trkpt>
      <trkpt lat="44.58391" lon="2.9624">
        <ele>1220.1</ele>
        <time>2022-08-04T11:19:39Z</time>
      </trkpt>
      <trkpt lat="44.58391" lon="2.96238">
        <ele>1219.9</ele>
        <time>2022-08-04T11:19:40Z</time>
      </trkpt>
      <trkpt lat="44.58391" lon="2.96233">
        <ele>1219.4</ele>
        <time>2022-08-04T11:19:43Z</time>
      </trkpt>
      <trkpt lat="44.58393" lon="2.96227">
        <ele>1218.9</ele>
        <time>2022-08-04T11:19:48Z</time>
      </trkpt>
      <trkpt lat="44.58394" lon="2.96223">
        <ele>1218.6</ele>
        <time>2022-08-04T11:19:53Z</time>
      </trkpt>
      <trkpt lat="44.58396" lon="2.96215">
        <ele>1217.9</ele>
        <time>2022-08-04T11:19:58Z</time>
      </trkpt>
      <trkpt lat="44.58397" lon="2.9621">
        <ele>1217.4</ele>
        <time>2022-08-04T11:20:02Z</time>
      </trkpt>
      <trkpt lat="44.58398" lon="2.962">
        <ele>1216.5</ele>
        <time>2022-08-04T11:20:08Z</time>
      </trkpt>
      <trkpt lat="44.584" lon="2.96189">
        <ele>1215.7</ele>
        <time>2022-08-04T11:20:14Z</time>
      </trkpt>
      <trkpt lat="44.584" lon="2.96188">
        <ele>1215.5</ele>
        <time>2022-08-04T11:20:15Z</time>
      </trkpt>
      <trkpt lat="44.58403" lon="2.9617">
        <ele>1214.3</ele>
        <time>2022-08-04T11:20:25Z</time>
      </trkpt>
      <trkpt lat="44.58404" lon="2.96166">
        <ele>1214.1</ele>
        <time>2022-08-04T11:20:27Z</time>
      </trkpt>
      <trkpt lat="44.58406" lon="2.96153">
        <ele>1213.2</ele>
        <time>2022-08-04T11:20:34Z</time>
      </trkpt>
      <trkpt lat="44.58406" lon="2.96151">
        <ele>1213.2</ele>
        <time>2022-08-04T11:20:35Z</time>
      </trkpt>
      <trkpt lat="44.58408" lon="2.96138">
        <ele>1212.5</ele>
        <time>2022-08-04T11:20:42Z</time>
      </trkpt>
      <trkpt lat="44.5841" lon="2.96134">
        <ele>1212.4</ele>
        <time>2022-08-04T11:20:45Z</time>
      </trkpt>
      <trkpt lat="44.58412" lon="2.96121">
        <ele>1211.9</ele>
        <time>2022-08-04T11:20:52Z</time>
      </trkpt>
      <trkpt lat="44.58414" lon="2.96114">
        <ele>1211.7</ele>
        <time>2022-08-04T11:20:56Z</time>
      </trkpt>
      <trkpt lat="44.58416" lon="2.96096">
        <ele>1210.3</ele>
        <time>2022-08-04T11:21:06Z</time>
      </trkpt>
      <trkpt lat="44.58418" lon="2.96087">
        <ele>1209.6</ele>
        <time>2022-08-04T11:21:11Z</time>
      </trkpt>
      <trkpt lat="44.58419" lon="2.96084">
        <ele>1209.3</ele>
        <time>2022-08-04T11:21:13Z</time>
      </trkpt>
      <trkpt lat="44.58421" lon="2.96071">
        <ele>1208.3</ele>
        <time>2022-08-04T11:21:20Z</time>
      </trkpt>
      <trkpt lat="44.58422" lon="2.96068">
        <ele>1208</ele>
        <time>2022-08-04T11:21:22Z</time>
      </trkpt>
      <trkpt lat="44.58425" lon="2.96048">
        <ele>1206.7</ele>
        <time>2022-08-04T11:21:33Z</time>
      </trkpt>
      <trkpt lat="44.58426" lon="2.96046">
        <ele>1206.6</ele>
        <time>2022-08-04T11:21:34Z</time>
      </trkpt>
      <trkpt lat="44.58431" lon="2.96025">
        <ele>1205.7</ele>
        <time>2022-08-04T11:21:46Z</time>
      </trkpt>
      <trkpt lat="44.58431" lon="2.96022">
        <ele>1205.5</ele>
        <time>2022-08-04T11:21:48Z</time>
      </trkpt>
      <trkpt lat="44.58434" lon="2.96004">
        <ele>1204.2</ele>
        <time>2022-08-04T11:21:58Z</time>
      </trkpt>
      <trkpt lat="44.58435" lon="2.95997">
        <ele>1203.7</ele>
        <time>2022-08-04T11:22:02Z</time>
      </trkpt>
      <trkpt lat="44.58436" lon="2.95989">
        <ele>1203.3</ele>
        <time>2022-08-04T11:22:06Z</time>
      </trkpt>
      <trkpt lat="44.58439" lon="2.95974">
        <ele>1202.5</ele>
        <time>2022-08-04T11:22:15Z</time>
      </trkpt>
      <trkpt lat="44.58441" lon="2.95965">
        <ele>1202</ele>
        <time>2022-08-04T11:22:20Z</time>
      </trkpt>
      <trkpt lat="44.58442" lon="2.95952">
        <ele>1201.3</ele>
        <time>2022-08-04T11:22:27Z</time>
      </trkpt>
      <trkpt lat="44.58445" lon="2.95934">
        <ele>1200.3</ele>
        <time>2022-08-04T11:22:36Z</time>
      </trkpt>
      <trkpt lat="44.58448" lon="2.95926">
        <ele>1199.9</ele>
        <time>2022-08-04T11:22:41Z</time>
      </trkpt>
      <trkpt lat="44.5845" lon="2.95919">
        <ele>1199.6</ele>
        <time>2022-08-04T11:22:45Z</time>
      </trkpt>
      <trkpt lat="44.58456" lon="2.95905">
        <ele>1198.9</ele>
        <time>2022-08-04T11:22:54Z</time>
      </trkpt>
      <trkpt lat="44.58456" lon="2.95904">
        <ele>1198.9</ele>
        <time>2022-08-04T11:22:55Z</time>
      </trkpt>
      <trkpt lat="44.58461" lon="2.95896">
        <ele>1198.7</ele>
        <time>2022-08-04T11:23:00Z</time>
      </trkpt>
      <trkpt lat="44.58465" lon="2.95887">
        <ele>1198.4</ele>
        <time>2022-08-04T11:23:06Z</time>
      </trkpt>
      <trkpt lat="44.58472" lon="2.95873">
        <ele>1197.8</ele>
        <time>2022-08-04T11:23:15Z</time>
      </trkpt>
      <trkpt lat="44.58477" lon="2.95864">
        <ele>1197.7</ele>
        <time>2022-08-04T11:23:21Z</time>
      </trkpt>
      <trkpt lat="44.5848" lon="2.95853">
        <ele>1197.2</ele>
        <time>2022-08-04T11:23:27Z</time>
      </trkpt>
      <trkpt lat="44.58486" lon="2.95835">
        <ele>1196.6</ele>
        <time>2022-08-04T11:23:37Z</time>
      </trkpt>
      <trkpt lat="44.5849" lon="2.95821">
        <ele>1196</ele>
        <time>2022-08-04T11:23:45Z</time>
      </trkpt>
      <trkpt lat="44.58491" lon="2.95818">
        <ele>1195.9</ele>
        <time>2022-08-04T11:23:47Z</time>
      </trkpt>
      <trkpt lat="44.58491" lon="2.95816">
        <ele>1195.8</ele>
        <time>2022-08-04T11:23:48Z</time>
      </trkpt>
      <trkpt lat="44.58494" lon="2.958">
        <ele>1195</ele>
        <time>2022-08-04T11:23:57Z</time>
      </trkpt>
      <trkpt lat="44.585" lon="2.95782">
        <ele>1194.2</ele>
        <time>2022-08-04T11:24:08Z</time>
      </trkpt>
      <trkpt lat="44.58503" lon="2.9577">
        <ele>1193.6</ele>
        <time>2022-08-04T11:24:15Z</time>
      </trkpt>
      <trkpt lat="44.58504" lon="2.95764">
        <ele>1193.3</ele>
        <time>2022-08-04T11:24:18Z</time>
      </trkpt>
      <trkpt lat="44.58506" lon="2.95758">
        <ele>1192.9</ele>
        <time>2022-08-04T11:24:21Z</time>
      </trkpt>
      <trkpt lat="44.58509" lon="2.95742">
        <ele>1191.8</ele>
        <time>2022-08-04T11:24:30Z</time>
      </trkpt>
      <trkpt lat="44.58513" lon="2.95728">
        <ele>1190.6</ele>
        <time>2022-08-04T11:24:38Z</time>
      </trkpt>
      <trkpt lat="44.58516" lon="2.95716">
        <ele>1189.7</ele>
        <time>2022-08-04T11:24:45Z</time>
      </trkpt>
      <trkpt lat="44.58519" lon="2.95707">
        <ele>1189.2</ele>
        <time>2022-08-04T11:24:50Z</time>
      </trkpt>
      <trkpt lat="44.58522" lon="2.95698">
        <ele>1188.8</ele>
        <time>2022-08-04T11:24:55Z</time>
      </trkpt>
      <trkpt lat="44.58524" lon="2.95691">
        <ele>1188.5</ele>
        <time>2022-08-04T11:24:59Z</time>
      </trkpt>
      <trkpt lat="44.58526" lon="2.95686">
        <ele>1188.2</ele>
        <time>2022-08-04T11:25:02Z</time>
      </trkpt>
      <trkpt lat="44.58529" lon="2.95677">
        <ele>1187.9</ele>
        <time>2022-08-04T11:25:07Z</time>
      </trkpt>
      <trkpt lat="44.58532" lon="2.95671">
        <ele>1187.6</ele>
        <time>2022-08-04T11:25:11Z</time>
      </trkpt>
      <trkpt lat="44.58539" lon="2.95658">
        <ele>1186.7</ele>
        <time>2022-08-04T11:25:19Z</time>
      </trkpt>
      <trkpt lat="44.58546" lon="2.95647">
        <ele>1185.9</ele>
        <time>2022-08-04T11:25:27Z</time>
      </trkpt>
      <trkpt lat="44.58549" lon="2.95642">
        <ele>1185.6</ele>
        <time>2022-08-04T11:25:30Z</time>
      </trkpt>
      <trkpt lat="44.58553" lon="2.95634">
        <ele>1184.9</ele>
        <time>2022-08-04T11:25:36Z</time>
      </trkpt>
      <trkpt lat="44.58561" lon="2.95623">
        <ele>1184.3</ele>
        <time>2022-08-04T11:25:44Z</time>
      </trkpt>
      <trkpt lat="44.58562" lon="2.95622">
        <ele>1184.2</ele>
        <time>2022-08-04T11:25:45Z</time>
      </trkpt>
      <trkpt lat="44.58571" lon="2.95612">
        <ele>1183.7</ele>
        <time>2022-08-04T11:25:54Z</time>
      </trkpt>
      <trkpt lat="44.58572" lon="2.9561">
        <ele>1183.7</ele>
        <time>2022-08-04T11:25:55Z</time>
      </trkpt>
      <trkpt lat="44.58583" lon="2.95599">
        <ele>1182.8</ele>
        <time>2022-08-04T11:26:05Z</time>
      </trkpt>
      <trkpt lat="44.58593" lon="2.9559">
        <ele>1181.7</ele>
        <time>2022-08-04T11:26:14Z</time>
      </trkpt>
      <trkpt lat="44.58594" lon="2.95589">
        <ele>1181.6</ele>
        <time>2022-08-04T11:26:15Z</time>
      </trkpt>
      <trkpt lat="44.58606" lon="2.95582">
        <ele>1180.6</ele>
        <time>2022-08-04T11:26:25Z</time>
      </trkpt>
      <trkpt lat="44.58617" lon="2.95578">
        <ele>1179.8</ele>
        <time>2022-08-04T11:26:33Z</time>
      </trkpt>
      <trkpt lat="44.58622" lon="2.95577">
        <ele>1179.7</ele>
        <time>2022-08-04T11:26:37Z</time>
      </trkpt>
      <trkpt lat="44.58628" lon="2.95576">
        <ele>1179.5</ele>
        <time>2022-08-04T11:26:41Z</time>
      </trkpt>
      <trkpt lat="44.58633" lon="2.95575">
        <ele>1179.2</ele>
        <time>2022-08-04T11:26:45Z</time>
      </trkpt>
      <trkpt lat="44.58643" lon="2.95572">
        <ele>1178.5</ele>
        <time>2022-08-04T11:26:54Z</time>
      </trkpt>
      <trkpt lat="44.58654" lon="2.95572">
        <ele>1178.1</ele>
        <time>2022-08-04T11:27:02Z</time>
      </trkpt>
      <trkpt lat="44.58657" lon="2.95571">
        <ele>1177.9</ele>
        <time>2022-08-04T11:27:04Z</time>
      </trkpt>
      <trkpt lat="44.58666" lon="2.95563">
        <ele>1176.8</ele>
        <time>2022-08-04T11:27:13Z</time>
      </trkpt>
      <trkpt lat="44.58667" lon="2.95562">
        <ele>1176.6</ele>
        <time>2022-08-04T11:27:14Z</time>
      </trkpt>
      <trkpt lat="44.58669" lon="2.95553">
        <ele>1175.7</ele>
        <time>2022-08-04T11:27:19Z</time>
      </trkpt>
      <trkpt lat="44.58669" lon="2.95546">
        <ele>1174.9</ele>
        <time>2022-08-04T11:27:23Z</time>
      </trkpt>
      <trkpt lat="44.58663" lon="2.95539">
        <ele>1174.1</ele>
        <time>2022-08-04T11:27:29Z</time>
      </trkpt>
      <trkpt lat="44.58663" lon="2.95538">
        <ele>1173.9</ele>
        <time>2022-08-04T11:27:30Z</time>
      </trkpt>
      <trkpt lat="44.58653" lon="2.9553">
        <ele>1172.8</ele>
        <time>2022-08-04T11:27:38Z</time>
      </trkpt>
      <trkpt lat="44.58651" lon="2.95529">
        <ele>1172.6</ele>
        <time>2022-08-04T11:27:41Z</time>
      </trkpt>
      <trkpt lat="44.58654" lon="2.95529">
        <ele>1172.7</ele>
        <time>2022-08-04T11:27:50Z</time>
      </trkpt>
      <trkpt lat="44.58653" lon="2.95529">
        <ele>1172.7</ele>
        <time>2022-08-04T11:27:59Z</time>
      </trkpt>
      <trkpt lat="44.58648" lon="2.95529">
        <ele>1172.5</ele>
        <time>2022-08-04T11:28:03Z</time>
      </trkpt>
      <trkpt lat="44.58645" lon="2.95528">
        <ele>1172.2</ele>
        <time>2022-08-04T11:28:05Z</time>
      </trkpt>
      <trkpt lat="44.5864" lon="2.95524">
        <ele>1171.7</ele>
        <time>2022-08-04T11:28:08Z</time>
      </trkpt>
      <trkpt lat="44.58633" lon="2.95521">
        <ele>1171.1</ele>
        <time>2022-08-04T11:28:13Z</time>
      </trkpt>
      <trkpt lat="44.5863" lon="2.95518">
        <ele>1170.6</ele>
        <time>2022-08-04T11:28:16Z</time>
      </trkpt>
      <trkpt lat="44.58624" lon="2.95515">
        <ele>1170.1</ele>
        <time>2022-08-04T11:28:21Z</time>
      </trkpt>
      <trkpt lat="44.58617" lon="2.95512">
        <ele>1169.5</ele>
        <time>2022-08-04T11:28:27Z</time>
      </trkpt>
      <trkpt lat="44.58607" lon="2.95506">
        <ele>1168.4</ele>
        <time>2022-08-04T11:28:35Z</time>
      </trkpt>
      <trkpt lat="44.58603" lon="2.95504">
        <ele>1168</ele>
        <time>2022-08-04T11:28:38Z</time>
      </trkpt>
      <trkpt lat="44.58595" lon="2.95501">
        <ele>1167</ele>
        <time>2022-08-04T11:28:44Z</time>
      </trkpt>
      <trkpt lat="44.58592" lon="2.95499">
        <ele>1166.5</ele>
        <time>2022-08-04T11:28:47Z</time>
      </trkpt>
      <trkpt lat="44.58588" lon="2.95498">
        <ele>1166.1</ele>
        <time>2022-08-04T11:28:50Z</time>
      </trkpt>
      <trkpt lat="44.58582" lon="2.95496">
        <ele>1165.5</ele>
        <time>2022-08-04T11:28:55Z</time>
      </trkpt>
      <trkpt lat="44.58581" lon="2.95495">
        <ele>1165.4</ele>
        <time>2022-08-04T11:28:56Z</time>
      </trkpt>
      <trkpt lat="44.58573" lon="2.95492">
        <ele>1164.7</ele>
        <time>2022-08-04T11:29:02Z</time>
      </trkpt>
      <trkpt lat="44.58565" lon="2.95488">
        <ele>1163.8</ele>
        <time>2022-08-04T11:29:09Z</time>
      </trkpt>
      <trkpt lat="44.58557" lon="2.95487">
        <ele>1163.1</ele>
        <time>2022-08-04T11:29:16Z</time>
      </trkpt>
      <trkpt lat="44.58556" lon="2.95486">
        <ele>1163</ele>
        <time>2022-08-04T11:29:17Z</time>
      </trkpt>
      <trkpt lat="44.5855" lon="2.95484">
        <ele>1162.2</ele>
        <time>2022-08-04T11:29:24Z</time>
      </trkpt>
      <trkpt lat="44.5855" lon="2.95485">
        <ele>1162.4</ele>
        <time>2022-08-04T11:29:26Z</time>
      </trkpt>
      <trkpt lat="44.58548" lon="2.95484">
        <ele>1162.2</ele>
        <time>2022-08-04T11:29:30Z</time>
      </trkpt>
      <trkpt lat="44.58546" lon="2.95484">
        <ele>1161.9</ele>
        <time>2022-08-04T11:29:32Z</time>
      </trkpt>
      <trkpt lat="44.58536" lon="2.95484">
        <ele>1161.2</ele>
        <time>2022-08-04T11:29:39Z</time>
      </trkpt>
      <trkpt lat="44.5853" lon="2.95481">
        <ele>1160.4</ele>
        <time>2022-08-04T11:29:44Z</time>
      </trkpt>
      <trkpt lat="44.58528" lon="2.95479">
        <ele>1159.9</ele>
        <time>2022-08-04T11:29:46Z</time>
      </trkpt>
      <trkpt lat="44.5852" lon="2.95477">
        <ele>1159</ele>
        <time>2022-08-04T11:29:52Z</time>
      </trkpt>
      <trkpt lat="44.58517" lon="2.95475">
        <ele>1158.6</ele>
        <time>2022-08-04T11:29:55Z</time>
      </trkpt>
      <trkpt lat="44.58513" lon="2.95475">
        <ele>1158.3</ele>
        <time>2022-08-04T11:29:58Z</time>
      </trkpt>
      <trkpt lat="44.58507" lon="2.95476">
        <ele>1158</ele>
        <time>2022-08-04T11:30:02Z</time>
      </trkpt>
      <trkpt lat="44.585" lon="2.95475">
        <ele>1157.2</ele>
        <time>2022-08-04T11:30:08Z</time>
      </trkpt>
      <trkpt lat="44.58497" lon="2.95474">
        <ele>1156.9</ele>
        <time>2022-08-04T11:30:10Z</time>
      </trkpt>
      <trkpt lat="44.58493" lon="2.95473">
        <ele>1156.3</ele>
        <time>2022-08-04T11:30:13Z</time>
      </trkpt>
      <trkpt lat="44.58492" lon="2.95473">
        <ele>1156.2</ele>
        <time>2022-08-04T11:30:14Z</time>
      </trkpt>
      <trkpt lat="44.58482" lon="2.95474">
        <ele>1155.3</ele>
        <time>2022-08-04T11:30:22Z</time>
      </trkpt>
      <trkpt lat="44.5847" lon="2.95476">
        <ele>1154.4</ele>
        <time>2022-08-04T11:30:31Z</time>
      </trkpt>
      <trkpt lat="44.58467" lon="2.95477">
        <ele>1154.3</ele>
        <time>2022-08-04T11:30:33Z</time>
      </trkpt>
      <trkpt lat="44.58458" lon="2.95478">
        <ele>1153.8</ele>
        <time>2022-08-04T11:30:40Z</time>
      </trkpt>
      <trkpt lat="44.5845" lon="2.95478">
        <ele>1153.3</ele>
        <time>2022-08-04T11:30:47Z</time>
      </trkpt>
      <trkpt lat="44.58451" lon="2.95478">
        <ele>1153.3</ele>
        <time>2022-08-04T11:30:53Z</time>
      </trkpt>
      <trkpt lat="44.58452" lon="2.95479">
        <ele>1153.5</ele>
        <time>2022-08-04T11:31:00Z</time>
      </trkpt>
      <trkpt lat="44.58454" lon="2.95478">
        <ele>1153.6</ele>
        <time>2022-08-04T11:31:02Z</time>
      </trkpt>
      <trkpt lat="44.58456" lon="2.95478">
        <ele>1153.7</ele>
        <time>2022-08-04T11:31:03Z</time>
      </trkpt>
      <trkpt lat="44.58461" lon="2.95477">
        <ele>1153.8</ele>
        <time>2022-08-04T11:31:08Z</time>
      </trkpt>
      <trkpt lat="44.58472" lon="2.9547">
        <ele>1153.6</ele>
        <time>2022-08-04T11:31:18Z</time>
      </trkpt>
      <trkpt lat="44.58472" lon="2.95468">
        <ele>1153.4</ele>
        <time>2022-08-04T11:31:19Z</time>
      </trkpt>
      <trkpt lat="44.58474" lon="2.9546">
        <ele>1152.4</ele>
        <time>2022-08-04T11:31:24Z</time>
      </trkpt>
      <trkpt lat="44.5848" lon="2.95447">
        <ele>1151.3</ele>
        <time>2022-08-04T11:31:33Z</time>
      </trkpt>
      <trkpt lat="44.58483" lon="2.95444">
        <ele>1151</ele>
        <time>2022-08-04T11:31:36Z</time>
      </trkpt>
      <trkpt lat="44.58483" lon="2.9544">
        <ele>1150.3</ele>
        <time>2022-08-04T11:31:39Z</time>
      </trkpt>
      <trkpt lat="44.58484" lon="2.95438">
        <ele>1150.1</ele>
        <time>2022-08-04T11:31:40Z</time>
      </trkpt>
      <trkpt lat="44.58487" lon="2.95433">
        <ele>1149.6</ele>
        <time>2022-08-04T11:31:44Z</time>
      </trkpt>
      <trkpt lat="44.58488" lon="2.95432">
        <ele>1149.4</ele>
        <time>2022-08-04T11:31:45Z</time>
      </trkpt>
      <trkpt lat="44.5849" lon="2.95428">
        <ele>1149</ele>
        <time>2022-08-04T11:31:51Z</time>
      </trkpt>
      <trkpt lat="44.58491" lon="2.95427">
        <ele>1148.8</ele>
        <time>2022-08-04T11:31:52Z</time>
      </trkpt>
      <trkpt lat="44.58491" lon="2.95425">
        <ele>1148.5</ele>
        <time>2022-08-04T11:31:53Z</time>
      </trkpt>
      <trkpt lat="44.58495" lon="2.95421">
        <ele>1148.2</ele>
        <time>2022-08-04T11:31:58Z</time>
      </trkpt>
      <trkpt lat="44.58496" lon="2.95419">
        <ele>1148</ele>
        <time>2022-08-04T11:31:59Z</time>
      </trkpt>
      <trkpt lat="44.58501" lon="2.95413">
        <ele>1147.4</ele>
        <time>2022-08-04T11:32:05Z</time>
      </trkpt>
      <trkpt lat="44.58502" lon="2.9541">
        <ele>1147</ele>
        <time>2022-08-04T11:32:08Z</time>
      </trkpt>
      <trkpt lat="44.58505" lon="2.95406">
        <ele>1146.4</ele>
        <time>2022-08-04T11:32:12Z</time>
      </trkpt>
      <trkpt lat="44.58507" lon="2.95403">
        <ele>1146.1</ele>
        <time>2022-08-04T11:32:15Z</time>
      </trkpt>
      <trkpt lat="44.5851" lon="2.95399">
        <ele>1145.6</ele>
        <time>2022-08-04T11:32:18Z</time>
      </trkpt>
      <trkpt lat="44.5851" lon="2.95396">
        <ele>1145.3</ele>
        <time>2022-08-04T11:32:20Z</time>
      </trkpt>
      <trkpt lat="44.58511" lon="2.95386">
        <ele>1143.6</ele>
        <time>2022-08-04T11:32:26Z</time>
      </trkpt>
      <trkpt lat="44.58511" lon="2.95383">
        <ele>1142.8</ele>
        <time>2022-08-04T11:32:28Z</time>
      </trkpt>
      <trkpt lat="44.58509" lon="2.95378">
        <ele>1141.7</ele>
        <time>2022-08-04T11:32:31Z</time>
      </trkpt>
      <trkpt lat="44.58506" lon="2.95373">
        <ele>1140.3</ele>
        <time>2022-08-04T11:32:36Z</time>
      </trkpt>
      <trkpt lat="44.58506" lon="2.95372">
        <ele>1139.9</ele>
        <time>2022-08-04T11:32:37Z</time>
      </trkpt>
      <trkpt lat="44.58503" lon="2.95364">
        <ele>1138</ele>
        <time>2022-08-04T11:32:42Z</time>
      </trkpt>
      <trkpt lat="44.58501" lon="2.95362">
        <ele>1137.3</ele>
        <time>2022-08-04T11:32:45Z</time>
      </trkpt>
      <trkpt lat="44.58498" lon="2.95357">
        <ele>1136.1</ele>
        <time>2022-08-04T11:32:50Z</time>
      </trkpt>
      <trkpt lat="44.58496" lon="2.95353">
        <ele>1135.1</ele>
        <time>2022-08-04T11:32:53Z</time>
      </trkpt>
      <trkpt lat="44.58496" lon="2.95352">
        <ele>1134.9</ele>
        <time>2022-08-04T11:32:54Z</time>
      </trkpt>
      <trkpt lat="44.58493" lon="2.95349">
        <ele>1134.1</ele>
        <time>2022-08-04T11:32:57Z</time>
      </trkpt>
      <trkpt lat="44.58492" lon="2.95346">
        <ele>1133.3</ele>
        <time>2022-08-04T11:33:00Z</time>
      </trkpt>
      <trkpt lat="44.58492" lon="2.95344">
        <ele>1133.1</ele>
        <time>2022-08-04T11:33:01Z</time>
      </trkpt>
      <trkpt lat="44.58489" lon="2.9534">
        <ele>1131.9</ele>
        <time>2022-08-04T11:33:05Z</time>
      </trkpt>
      <trkpt lat="44.58487" lon="2.95332">
        <ele>1130.4</ele>
        <time>2022-08-04T11:33:10Z</time>
      </trkpt>
      <trkpt lat="44.58484" lon="2.95324">
        <ele>1129.3</ele>
        <time>2022-08-04T11:33:16Z</time>
      </trkpt>
      <trkpt lat="44.58481" lon="2.95319">
        <ele>1128.5</ele>
        <time>2022-08-04T11:33:20Z</time>
      </trkpt>
      <trkpt lat="44.58479" lon="2.95316">
        <ele>1128.2</ele>
        <time>2022-08-04T11:33:23Z</time>
      </trkpt>
      <trkpt lat="44.58476" lon="2.95312">
        <ele>1127.6</ele>
        <time>2022-08-04T11:33:27Z</time>
      </trkpt>
      <trkpt lat="44.58475" lon="2.95311">
        <ele>1127.5</ele>
        <time>2022-08-04T11:33:28Z</time>
      </trkpt>
      <trkpt lat="44.58472" lon="2.95307">
        <ele>1127.1</ele>
        <time>2022-08-04T11:33:32Z</time>
      </trkpt>
      <trkpt lat="44.5847" lon="2.95304">
        <ele>1126.6</ele>
        <time>2022-08-04T11:33:35Z</time>
      </trkpt>
      <trkpt lat="44.58467" lon="2.95301">
        <ele>1126</ele>
        <time>2022-08-04T11:33:39Z</time>
      </trkpt>
      <trkpt lat="44.58465" lon="2.95297">
        <ele>1125.3</ele>
        <time>2022-08-04T11:33:43Z</time>
      </trkpt>
      <trkpt lat="44.58464" lon="2.95294">
        <ele>1124.9</ele>
        <time>2022-08-04T11:33:45Z</time>
      </trkpt>
      <trkpt lat="44.58462" lon="2.95288">
        <ele>1124</ele>
        <time>2022-08-04T11:33:49Z</time>
      </trkpt>
      <trkpt lat="44.58462" lon="2.95286">
        <ele>1123.7</ele>
        <time>2022-08-04T11:33:51Z</time>
      </trkpt>
      <trkpt lat="44.58461" lon="2.95279">
        <ele>1122.7</ele>
        <time>2022-08-04T11:33:56Z</time>
      </trkpt>
      <trkpt lat="44.58463" lon="2.95275">
        <ele>1122.3</ele>
        <time>2022-08-04T11:33:59Z</time>
      </trkpt>
      <trkpt lat="44.58466" lon="2.95272">
        <ele>1122.2</ele>
        <time>2022-08-04T11:34:01Z</time>
      </trkpt>
      <trkpt lat="44.58468" lon="2.95267">
        <ele>1121.6</ele>
        <time>2022-08-04T11:34:05Z</time>
      </trkpt>
      <trkpt lat="44.5847" lon="2.95265">
        <ele>1121.5</ele>
        <time>2022-08-04T11:34:07Z</time>
      </trkpt>
      <trkpt lat="44.58478" lon="2.95256">
        <ele>1121</ele>
        <time>2022-08-04T11:34:14Z</time>
      </trkpt>
      <trkpt lat="44.5848" lon="2.95255">
        <ele>1121</ele>
        <time>2022-08-04T11:34:15Z</time>
      </trkpt>
      <trkpt lat="44.5848" lon="2.95253">
        <ele>1120.9</ele>
        <time>2022-08-04T11:34:16Z</time>
      </trkpt>
      <trkpt lat="44.58482" lon="2.95249">
        <ele>1120.6</ele>
        <time>2022-08-04T11:34:20Z</time>
      </trkpt>
      <trkpt lat="44.58489" lon="2.95238">
        <ele>1120.1</ele>
        <time>2022-08-04T11:34:28Z</time>
      </trkpt>
      <trkpt lat="44.58491" lon="2.95236">
        <ele>1120</ele>
        <time>2022-08-04T11:34:30Z</time>
      </trkpt>
      <trkpt lat="44.58491" lon="2.95235">
        <ele>1119.9</ele>
        <time>2022-08-04T11:34:31Z</time>
      </trkpt>
      <trkpt lat="44.58492" lon="2.95233">
        <ele>1119.8</ele>
        <time>2022-08-04T11:34:32Z</time>
      </trkpt>
      <trkpt lat="44.58496" lon="2.95226">
        <ele>1119.3</ele>
        <time>2022-08-04T11:34:37Z</time>
      </trkpt>
      <trkpt lat="44.585" lon="2.9522">
        <ele>1118.7</ele>
        <time>2022-08-04T11:34:42Z</time>
      </trkpt>
      <trkpt lat="44.58502" lon="2.95216">
        <ele>1118.4</ele>
        <time>2022-08-04T11:34:45Z</time>
      </trkpt>
      <trkpt lat="44.58502" lon="2.95216">
        <ele>1118.3</ele>
        <time>2022-08-04T11:34:46Z</time>
      </trkpt>
      <trkpt lat="44.58505" lon="2.95212">
        <ele>1117.9</ele>
        <time>2022-08-04T11:34:49Z</time>
      </trkpt>
      <trkpt lat="44.58507" lon="2.9521">
        <ele>1117.7</ele>
        <time>2022-08-04T11:34:52Z</time>
      </trkpt>
      <trkpt lat="44.58509" lon="2.95206">
        <ele>1117.2</ele>
        <time>2022-08-04T11:34:54Z</time>
      </trkpt>
      <trkpt lat="44.58509" lon="2.95205">
        <ele>1117</ele>
        <time>2022-08-04T11:34:55Z</time>
      </trkpt>
      <trkpt lat="44.58508" lon="2.95199">
        <ele>1116.3</ele>
        <time>2022-08-04T11:34:58Z</time>
      </trkpt>
      <trkpt lat="44.5851" lon="2.95197">
        <ele>1116</ele>
        <time>2022-08-04T11:35:00Z</time>
      </trkpt>
      <trkpt lat="44.58513" lon="2.95194">
        <ele>1115.5</ele>
        <time>2022-08-04T11:35:04Z</time>
      </trkpt>
      <trkpt lat="44.58514" lon="2.95192">
        <ele>1115.3</ele>
        <time>2022-08-04T11:35:05Z</time>
      </trkpt>
      <trkpt lat="44.58516" lon="2.95188">
        <ele>1115</ele>
        <time>2022-08-04T11:35:08Z</time>
      </trkpt>
      <trkpt lat="44.58519" lon="2.95184">
        <ele>1114.6</ele>
        <time>2022-08-04T11:35:11Z</time>
      </trkpt>
      <trkpt lat="44.58522" lon="2.9518">
        <ele>1114.2</ele>
        <time>2022-08-04T11:35:15Z</time>
      </trkpt>
      <trkpt lat="44.58526" lon="2.95169">
        <ele>1113.2</ele>
        <time>2022-08-04T11:35:22Z</time>
      </trkpt>
      <trkpt lat="44.58528" lon="2.95166">
        <ele>1112.9</ele>
        <time>2022-08-04T11:35:24Z</time>
      </trkpt>
      <trkpt lat="44.58528" lon="2.95164">
        <ele>1112.8</ele>
        <time>2022-08-04T11:35:25Z</time>
      </trkpt>
      <trkpt lat="44.58529" lon="2.95156">
        <ele>1112.3</ele>
        <time>2022-08-04T11:35:30Z</time>
      </trkpt>
      <trkpt lat="44.58529" lon="2.95154">
        <ele>1112.1</ele>
        <time>2022-08-04T11:35:31Z</time>
      </trkpt>
      <trkpt lat="44.5853" lon="2.95152">
        <ele>1112</ele>
        <time>2022-08-04T11:35:32Z</time>
      </trkpt>
      <trkpt lat="44.58529" lon="2.95148">
        <ele>1111.7</ele>
        <time>2022-08-04T11:35:34Z</time>
      </trkpt>
      <trkpt lat="44.58529" lon="2.95147">
        <ele>1111.6</ele>
        <time>2022-08-04T11:35:35Z</time>
      </trkpt>
      <trkpt lat="44.58528" lon="2.95145">
        <ele>1111.5</ele>
        <time>2022-08-04T11:35:36Z</time>
      </trkpt>
      <trkpt lat="44.58522" lon="2.95134">
        <ele>1110.8</ele>
        <time>2022-08-04T11:35:43Z</time>
      </trkpt>
      <trkpt lat="44.58517" lon="2.95125">
        <ele>1110.1</ele>
        <time>2022-08-04T11:35:50Z</time>
      </trkpt>
      <trkpt lat="44.58516" lon="2.95114">
        <ele>1109.4</ele>
        <time>2022-08-04T11:35:56Z</time>
      </trkpt>
      <trkpt lat="44.58516" lon="2.95111">
        <ele>1109.1</ele>
        <time>2022-08-04T11:35:58Z</time>
      </trkpt>
      <trkpt lat="44.58514" lon="2.95106">
        <ele>1108.7</ele>
        <time>2022-08-04T11:36:02Z</time>
      </trkpt>
      <trkpt lat="44.58513" lon="2.95105">
        <ele>1108.5</ele>
        <time>2022-08-04T11:36:04Z</time>
      </trkpt>
      <trkpt lat="44.5851" lon="2.951">
        <ele>1107.9</ele>
        <time>2022-08-04T11:36:08Z</time>
      </trkpt>
      <trkpt lat="44.58507" lon="2.95096">
        <ele>1107.4</ele>
        <time>2022-08-04T11:36:11Z</time>
      </trkpt>
      <trkpt lat="44.58503" lon="2.95092">
        <ele>1106.8</ele>
        <time>2022-08-04T11:36:15Z</time>
      </trkpt>
      <trkpt lat="44.58501" lon="2.95089">
        <ele>1106.4</ele>
        <time>2022-08-04T11:36:18Z</time>
      </trkpt>
      <trkpt lat="44.58499" lon="2.95087">
        <ele>1106.2</ele>
        <time>2022-08-04T11:36:20Z</time>
      </trkpt>
      <trkpt lat="44.58497" lon="2.95087">
        <ele>1106</ele>
        <time>2022-08-04T11:36:22Z</time>
      </trkpt>
      <trkpt lat="44.58497" lon="2.95087">
        <ele>1106</ele>
        <time>2022-08-04T11:36:23Z</time>
      </trkpt>
      <trkpt lat="44.58496" lon="2.95087">
        <ele>1106</ele>
        <time>2022-08-04T11:36:25Z</time>
      </trkpt>
      <trkpt lat="44.58496" lon="2.95086">
        <ele>1105.9</ele>
        <time>2022-08-04T11:36:26Z</time>
      </trkpt>
      <trkpt lat="44.58497" lon="2.95084">
        <ele>1105.8</ele>
        <time>2022-08-04T11:36:30Z</time>
      </trkpt>
      <trkpt lat="44.58498" lon="2.95082">
        <ele>1105.7</ele>
        <time>2022-08-04T11:36:31Z</time>
      </trkpt>
      <trkpt lat="44.58499" lon="2.9508">
        <ele>1105.6</ele>
        <time>2022-08-04T11:36:32Z</time>
      </trkpt>
      <trkpt lat="44.585" lon="2.95079">
        <ele>1105.5</ele>
        <time>2022-08-04T11:36:34Z</time>
      </trkpt>
      <trkpt lat="44.585" lon="2.95079">
        <ele>1105.5</ele>
        <time>2022-08-04T11:36:36Z</time>
      </trkpt>
      <trkpt lat="44.585" lon="2.95079">
        <ele>1105.6</ele>
        <time>2022-08-04T11:36:38Z</time>
      </trkpt>
      <trkpt lat="44.58499" lon="2.9508">
        <ele>1105.5</ele>
        <time>2022-08-04T11:36:41Z</time>
      </trkpt>
      <trkpt lat="44.585" lon="2.9508">
        <ele>1105.6</ele>
        <time>2022-08-04T11:36:43Z</time>
      </trkpt>
      <trkpt lat="44.585" lon="2.9508">
        <ele>1105.6</ele>
        <time>2022-08-04T11:36:51Z</time>
      </trkpt>
      <trkpt lat="44.585" lon="2.9508">
        <ele>1105.6</ele>
        <time>2022-08-04T11:36:52Z</time>
      </trkpt>
      <trkpt lat="44.585" lon="2.9508">
        <ele>1105.6</ele>
        <time>2022-08-04T11:36:56Z</time>
      </trkpt>
      <trkpt lat="44.585" lon="2.9508">
        <ele>1105.6</ele>
        <time>2022-08-04T11:37:08Z</time>
      </trkpt>
      <trkpt lat="44.585" lon="2.9508">
        <ele>1105.6</ele>
        <time>2022-08-04T11:37:09Z</time>
      </trkpt>
      <trkpt lat="44.585" lon="2.9508">
        <ele>1105.6</ele>
        <time>2022-08-04T11:37:10Z</time>
      </trkpt>
      <trkpt lat="44.585" lon="2.9508">
        <ele>1105.6</ele>
        <time>2022-08-04T11:37:11Z</time>
      </trkpt>
      <trkpt lat="44.585" lon="2.9508">
        <ele>1105.6</ele>
        <time>2022-08-04T11:37:12Z</time>
      </trkpt>
      <trkpt lat="44.585" lon="2.9508">
        <ele>1105.6</ele>
        <time>2022-08-04T11:37:13Z</time>
      </trkpt>
      <trkpt lat="44.585" lon="2.9508">
        <ele>1105.6</ele>
        <time>2022-08-04T11:37:14Z</time>
      </trkpt>
      <trkpt lat="44.585" lon="2.9508">
        <ele>1105.6</ele>
        <time>2022-08-04T11:37:15Z</time>
      </trkpt>
      <trkpt lat="44.585" lon="2.9508">
        <ele>1105.6</ele>
        <time>2022-08-04T11:37:17Z</time>
      </trkpt>
      <trkpt lat="44.585" lon="2.9508">
        <ele>1105.6</ele>
        <time>2022-08-04T11:37:20Z</time>
      </trkpt>
      <trkpt lat="44.585" lon="2.9508">
        <ele>1105.6</ele>
        <time>2022-08-04T11:37:21Z</time>
      </trkpt>
      <trkpt lat="44.585" lon="2.9508">
        <ele>1105.6</ele>
        <time>2022-08-04T11:37:22Z</time>
      </trkpt>
      <trkpt lat="44.585" lon="2.9508">
        <ele>1105.6</ele>
        <time>2022-08-04T11:37:23Z</time>
      </trkpt>
      <trkpt lat="44.58501" lon="2.95081">
        <ele>1105.8</ele>
        <time>2022-08-04T11:37:30Z</time>
      </trkpt>
      <trkpt lat="44.58501" lon="2.95081">
        <ele>1105.8</ele>
        <time>2022-08-04T11:37:31Z</time>
      </trkpt>
      <trkpt lat="44.58502" lon="2.95081">
        <ele>1105.9</ele>
        <time>2022-08-04T11:37:32Z</time>
      </trkpt>
      <trkpt lat="44.58502" lon="2.95081">
        <ele>1105.9</ele>
        <time>2022-08-04T11:37:33Z</time>
      </trkpt>
      <trkpt lat="44.58503" lon="2.95082">
        <ele>1106</ele>
        <time>2022-08-04T11:37:34Z</time>
      </trkpt>
      <trkpt lat="44.58503" lon="2.95082">
        <ele>1106</ele>
        <time>2022-08-04T11:37:35Z</time>
      </trkpt>
      <trkpt lat="44.58503" lon="2.95082">
        <ele>1106.1</ele>
        <time>2022-08-04T11:37:36Z</time>
      </trkpt>
      <trkpt lat="44.58503" lon="2.95083">
        <ele>1106.2</ele>
        <time>2022-08-04T11:37:44Z</time>
      </trkpt>
      <trkpt lat="44.58499" lon="2.95089">
        <ele>1106.3</ele>
        <time>2022-08-04T11:37:48Z</time>
      </trkpt>
      <trkpt lat="44.58498" lon="2.95094">
        <ele>1106.6</ele>
        <time>2022-08-04T11:37:51Z</time>
      </trkpt>
      <trkpt lat="44.58498" lon="2.95096">
        <ele>1106.8</ele>
        <time>2022-08-04T11:37:53Z</time>
      </trkpt>
      <trkpt lat="44.58498" lon="2.95096">
        <ele>1106.8</ele>
        <time>2022-08-04T11:37:54Z</time>
      </trkpt>
      <trkpt lat="44.58499" lon="2.95095">
        <ele>1106.8</ele>
        <time>2022-08-04T11:37:55Z</time>
      </trkpt>
      <trkpt lat="44.58501" lon="2.95091">
        <ele>1106.6</ele>
        <time>2022-08-04T11:37:58Z</time>
      </trkpt>
      <trkpt lat="44.58499" lon="2.95087">
        <ele>1106.2</ele>
        <time>2022-08-04T11:38:04Z</time>
      </trkpt>
      <trkpt lat="44.58499" lon="2.95086">
        <ele>1106.1</ele>
        <time>2022-08-04T11:38:08Z</time>
      </trkpt>
      <trkpt lat="44.58473" lon="2.95087">
        <ele>1104.3</ele>
        <time>2022-08-04T11:39:36Z</time>
      </trkpt>
      <trkpt lat="44.58491" lon="2.95092">
        <ele>1105.9</ele>
        <time>2022-08-04T11:39:38Z</time>
      </trkpt>
      <trkpt lat="44.58494" lon="2.95094">
        <ele>1106.3</ele>
        <time>2022-08-04T11:39:39Z</time>
      </trkpt>
      <trkpt lat="44.58498" lon="2.95092">
        <ele>1106.5</ele>
        <time>2022-08-04T11:39:45Z</time>
      </trkpt>
      <trkpt lat="44.58501" lon="2.95083">
        <ele>1106</ele>
        <time>2022-08-04T11:39:52Z</time>
      </trkpt>
      <trkpt lat="44.58499" lon="2.9508">
        <ele>1105.5</ele>
        <time>2022-08-04T11:39:57Z</time>
      </trkpt>
      <trkpt lat="44.58499" lon="2.95078">
        <ele>1105.4</ele>
        <time>2022-08-04T11:39:58Z</time>
      </trkpt>
      <trkpt lat="44.585" lon="2.95077">
        <ele>1105.3</ele>
        <time>2022-08-04T11:39:59Z</time>
      </trkpt>
      <trkpt lat="44.58504" lon="2.95072">
        <ele>1105.1</ele>
        <time>2022-08-04T11:40:04Z</time>
      </trkpt>
      <trkpt lat="44.58507" lon="2.95066">
        <ele>1104.6</ele>
        <time>2022-08-04T11:40:09Z</time>
      </trkpt>
      <trkpt lat="44.5851" lon="2.95064">
        <ele>1104.6</ele>
        <time>2022-08-04T11:40:12Z</time>
      </trkpt>
      <trkpt lat="44.58512" lon="2.95062">
        <ele>1104.5</ele>
        <time>2022-08-04T11:40:14Z</time>
      </trkpt>
      <trkpt lat="44.58517" lon="2.95057">
        <ele>1104.4</ele>
        <time>2022-08-04T11:40:19Z</time>
      </trkpt>
      <trkpt lat="44.58527" lon="2.9505">
        <ele>1104.4</ele>
        <time>2022-08-04T11:40:27Z</time>
      </trkpt>
      <trkpt lat="44.58531" lon="2.95044">
        <ele>1103.9</ele>
        <time>2022-08-04T11:40:33Z</time>
      </trkpt>
      <trkpt lat="44.58533" lon="2.95041">
        <ele>1103.8</ele>
        <time>2022-08-04T11:40:38Z</time>
      </trkpt>
      <trkpt lat="44.58534" lon="2.9504">
        <ele>1103.8</ele>
        <time>2022-08-04T11:40:39Z</time>
      </trkpt>
      <trkpt lat="44.5854" lon="2.95036">
        <ele>1103.8</ele>
        <time>2022-08-04T11:40:45Z</time>
      </trkpt>
      <trkpt lat="44.58542" lon="2.9503">
        <ele>1103.2</ele>
        <time>2022-08-04T11:40:48Z</time>
      </trkpt>
      <trkpt lat="44.58545" lon="2.95025">
        <ele>1102.9</ele>
        <time>2022-08-04T11:40:52Z</time>
      </trkpt>
      <trkpt lat="44.58546" lon="2.95022">
        <ele>1102.7</ele>
        <time>2022-08-04T11:40:54Z</time>
      </trkpt>
      <trkpt lat="44.58546" lon="2.95017">
        <ele>1102.2</ele>
        <time>2022-08-04T11:40:57Z</time>
      </trkpt>
      <trkpt lat="44.58551" lon="2.95009">
        <ele>1101.7</ele>
        <time>2022-08-04T11:41:03Z</time>
      </trkpt>
      <trkpt lat="44.58551" lon="2.95008">
        <ele>1101.6</ele>
        <time>2022-08-04T11:41:04Z</time>
      </trkpt>
      <trkpt lat="44.58558" lon="2.95003">
        <ele>1101.3</ele>
        <time>2022-08-04T11:41:10Z</time>
      </trkpt>
      <trkpt lat="44.5856" lon="2.95001">
        <ele>1101</ele>
        <time>2022-08-04T11:41:12Z</time>
      </trkpt>
      <trkpt lat="44.58565" lon="2.94993">
        <ele>1099.3</ele>
        <time>2022-08-04T11:41:18Z</time>
      </trkpt>
      <trkpt lat="44.58569" lon="2.94987">
        <ele>1098.1</ele>
        <time>2022-08-04T11:41:24Z</time>
      </trkpt>
      <trkpt lat="44.5857" lon="2.94984">
        <ele>1097.7</ele>
        <time>2022-08-04T11:41:26Z</time>
      </trkpt>
      <trkpt lat="44.58571" lon="2.94982">
        <ele>1097.2</ele>
        <time>2022-08-04T11:41:28Z</time>
      </trkpt>
      <trkpt lat="44.58573" lon="2.9498">
        <ele>1097</ele>
        <time>2022-08-04T11:41:30Z</time>
      </trkpt>
      <trkpt lat="44.58578" lon="2.94978">
        <ele>1096.7</ele>
        <time>2022-08-04T11:41:34Z</time>
      </trkpt>
      <trkpt lat="44.58578" lon="2.94977">
        <ele>1096.6</ele>
        <time>2022-08-04T11:41:35Z</time>
      </trkpt>
      <trkpt lat="44.58583" lon="2.94976">
        <ele>1096.5</ele>
        <time>2022-08-04T11:41:42Z</time>
      </trkpt>
      <trkpt lat="44.58586" lon="2.94973">
        <ele>1096</ele>
        <time>2022-08-04T11:41:46Z</time>
      </trkpt>
      <trkpt lat="44.58587" lon="2.94971">
        <ele>1095.6</ele>
        <time>2022-08-04T11:41:48Z</time>
      </trkpt>
      <trkpt lat="44.5859" lon="2.94968">
        <ele>1094.8</ele>
        <time>2022-08-04T11:41:51Z</time>
      </trkpt>
      <trkpt lat="44.58594" lon="2.94965">
        <ele>1094.2</ele>
        <time>2022-08-04T11:41:57Z</time>
      </trkpt>
      <trkpt lat="44.58597" lon="2.94963">
        <ele>1093.7</ele>
        <time>2022-08-04T11:41:59Z</time>
      </trkpt>
      <trkpt lat="44.58598" lon="2.94962">
        <ele>1093.5</ele>
        <time>2022-08-04T11:42:00Z</time>
      </trkpt>
      <trkpt lat="44.586" lon="2.9496">
        <ele>1093.1</ele>
        <time>2022-08-04T11:42:03Z</time>
      </trkpt>
      <trkpt lat="44.586" lon="2.9496">
        <ele>1093</ele>
        <time>2022-08-04T11:42:04Z</time>
      </trkpt>
      <trkpt lat="44.58601" lon="2.9496">
        <ele>1092.9</ele>
        <time>2022-08-04T11:42:05Z</time>
      </trkpt>
      <trkpt lat="44.58601" lon="2.94959">
        <ele>1092.7</ele>
        <time>2022-08-04T11:42:06Z</time>
      </trkpt>
      <trkpt lat="44.58604" lon="2.94957">
        <ele>1092.3</ele>
        <time>2022-08-04T11:42:10Z</time>
      </trkpt>
      <trkpt lat="44.58609" lon="2.94955">
        <ele>1091.8</ele>
        <time>2022-08-04T11:42:14Z</time>
      </trkpt>
      <trkpt lat="44.58612" lon="2.94954">
        <ele>1091.8</ele>
        <time>2022-08-04T11:42:16Z</time>
      </trkpt>
      <trkpt lat="44.58616" lon="2.94951">
        <ele>1091.6</ele>
        <time>2022-08-04T11:42:20Z</time>
      </trkpt>
      <trkpt lat="44.58621" lon="2.94947">
        <ele>1091.5</ele>
        <time>2022-08-04T11:42:26Z</time>
      </trkpt>
      <trkpt lat="44.58623" lon="2.94946">
        <ele>1091.5</ele>
        <time>2022-08-04T11:42:28Z</time>
      </trkpt>
      <trkpt lat="44.58624" lon="2.94945">
        <ele>1091.5</ele>
        <time>2022-08-04T11:42:30Z</time>
      </trkpt>
      <trkpt lat="44.58625" lon="2.94944">
        <ele>1091.4</ele>
        <time>2022-08-04T11:42:31Z</time>
      </trkpt>
      <trkpt lat="44.5863" lon="2.94941">
        <ele>1091.7</ele>
        <time>2022-08-04T11:42:34Z</time>
      </trkpt>
      <trkpt lat="44.58632" lon="2.94942">
        <ele>1092.1</ele>
        <time>2022-08-04T11:42:36Z</time>
      </trkpt>
      <trkpt lat="44.58644" lon="2.9494">
        <ele>1092.8</ele>
        <time>2022-08-04T11:42:44Z</time>
      </trkpt>
      <trkpt lat="44.58651" lon="2.94936">
        <ele>1093</ele>
        <time>2022-08-04T11:42:49Z</time>
      </trkpt>
      <trkpt lat="44.58652" lon="2.94936">
        <ele>1093</ele>
        <time>2022-08-04T11:42:50Z</time>
      </trkpt>
      <trkpt lat="44.58654" lon="2.94934">
        <ele>1092.9</ele>
        <time>2022-08-04T11:42:52Z</time>
      </trkpt>
      <trkpt lat="44.58656" lon="2.94932">
        <ele>1092.9</ele>
        <time>2022-08-04T11:42:54Z</time>
      </trkpt>
      <trkpt lat="44.58657" lon="2.9493">
        <ele>1092.7</ele>
        <time>2022-08-04T11:42:56Z</time>
      </trkpt>
      <trkpt lat="44.5866" lon="2.94922">
        <ele>1092.1</ele>
        <time>2022-08-04T11:43:02Z</time>
      </trkpt>
      <trkpt lat="44.58661" lon="2.94919">
        <ele>1091.8</ele>
        <time>2022-08-04T11:43:04Z</time>
      </trkpt>
      <trkpt lat="44.58663" lon="2.94912">
        <ele>1091.2</ele>
        <time>2022-08-04T11:43:08Z</time>
      </trkpt>
      <trkpt lat="44.58664" lon="2.94907">
        <ele>1090.8</ele>
        <time>2022-08-04T11:43:12Z</time>
      </trkpt>
      <trkpt lat="44.58666" lon="2.94904">
        <ele>1090.6</ele>
        <time>2022-08-04T11:43:15Z</time>
      </trkpt>
      <trkpt lat="44.58669" lon="2.94902">
        <ele>1090.5</ele>
        <time>2022-08-04T11:43:18Z</time>
      </trkpt>
      <trkpt lat="44.58671" lon="2.94899">
        <ele>1090.3</ele>
        <time>2022-08-04T11:43:25Z</time>
      </trkpt>
      <trkpt lat="44.58671" lon="2.94899">
        <ele>1090.3</ele>
        <time>2022-08-04T11:43:31Z</time>
      </trkpt>
      <trkpt lat="44.58671" lon="2.949">
        <ele>1090.4</ele>
        <time>2022-08-04T11:43:37Z</time>
      </trkpt>
      <trkpt lat="44.58671" lon="2.949">
        <ele>1090.4</ele>
        <time>2022-08-04T11:43:38Z</time>
      </trkpt>
      <trkpt lat="44.58671" lon="2.949">
        <ele>1090.4</ele>
        <time>2022-08-04T11:43:41Z</time>
      </trkpt>
      <trkpt lat="44.58676" lon="2.94892">
        <ele>1089.7</ele>
        <time>2022-08-04T11:43:53Z</time>
      </trkpt>
      <trkpt lat="44.58678" lon="2.9489">
        <ele>1089.5</ele>
        <time>2022-08-04T11:43:54Z</time>
      </trkpt>
      <trkpt lat="44.58686" lon="2.94882">
        <ele>1088.5</ele>
        <time>2022-08-04T11:43:59Z</time>
      </trkpt>
      <trkpt lat="44.58689" lon="2.94877">
        <ele>1087.7</ele>
        <time>2022-08-04T11:44:02Z</time>
      </trkpt>
      <trkpt lat="44.58697" lon="2.94872">
        <ele>1087</ele>
        <time>2022-08-04T11:44:10Z</time>
      </trkpt>
      <trkpt lat="44.587" lon="2.94871">
        <ele>1086.8</ele>
        <time>2022-08-04T11:44:15Z</time>
      </trkpt>
      <trkpt lat="44.58701" lon="2.94871">
        <ele>1086.7</ele>
        <time>2022-08-04T11:44:16Z</time>
      </trkpt>
      <trkpt lat="44.58704" lon="2.94869">
        <ele>1086.5</ele>
        <time>2022-08-04T11:44:18Z</time>
      </trkpt>
      <trkpt lat="44.5871" lon="2.94867">
        <ele>1086</ele>
        <time>2022-08-04T11:44:23Z</time>
      </trkpt>
      <trkpt lat="44.58712" lon="2.94866">
        <ele>1085.9</ele>
        <time>2022-08-04T11:44:25Z</time>
      </trkpt>
      <trkpt lat="44.58715" lon="2.94865">
        <ele>1085.6</ele>
        <time>2022-08-04T11:44:28Z</time>
      </trkpt>
      <trkpt lat="44.58716" lon="2.94865">
        <ele>1085.6</ele>
        <time>2022-08-04T11:44:29Z</time>
      </trkpt>
      <trkpt lat="44.58719" lon="2.94864">
        <ele>1085.5</ele>
        <time>2022-08-04T11:44:36Z</time>
      </trkpt>
      <trkpt lat="44.58723" lon="2.94863">
        <ele>1085.4</ele>
        <time>2022-08-04T11:44:40Z</time>
      </trkpt>
      <trkpt lat="44.58726" lon="2.94863">
        <ele>1085.1</ele>
        <time>2022-08-04T11:44:43Z</time>
      </trkpt>
      <trkpt lat="44.58725" lon="2.94862">
        <ele>1084.9</ele>
        <time>2022-08-04T11:44:47Z</time>
      </trkpt>
      <trkpt lat="44.58727" lon="2.94862">
        <ele>1084.7</ele>
        <time>2022-08-04T11:44:51Z</time>
      </trkpt>
      <trkpt lat="44.58729" lon="2.94861">
        <ele>1084.5</ele>
        <time>2022-08-04T11:44:53Z</time>
      </trkpt>
      <trkpt lat="44.58731" lon="2.94861">
        <ele>1084.3</ele>
        <time>2022-08-04T11:44:55Z</time>
      </trkpt>
      <trkpt lat="44.58735" lon="2.94859">
        <ele>1083.8</ele>
        <time>2022-08-04T11:44:59Z</time>
      </trkpt>
      <trkpt lat="44.58743" lon="2.9486">
        <ele>1083.3</ele>
        <time>2022-08-04T11:45:06Z</time>
      </trkpt>
      <trkpt lat="44.58751" lon="2.94861">
        <ele>1082.8</ele>
        <time>2022-08-04T11:45:15Z</time>
      </trkpt>
      <trkpt lat="44.58758" lon="2.94863">
        <ele>1082.2</ele>
        <time>2022-08-04T11:45:23Z</time>
      </trkpt>
      <trkpt lat="44.58764" lon="2.94866">
        <ele>1081.6</ele>
        <time>2022-08-04T11:45:28Z</time>
      </trkpt>
      <trkpt lat="44.58767" lon="2.94866">
        <ele>1081.2</ele>
        <time>2022-08-04T11:45:31Z</time>
      </trkpt>
      <trkpt lat="44.58776" lon="2.94872">
        <ele>1080.5</ele>
        <time>2022-08-04T11:45:39Z</time>
      </trkpt>
      <trkpt lat="44.58776" lon="2.94872">
        <ele>1080.6</ele>
        <time>2022-08-04T11:45:40Z</time>
      </trkpt>
      <trkpt lat="44.58776" lon="2.94872">
        <ele>1080.5</ele>
        <time>2022-08-04T11:45:45Z</time>
      </trkpt>
      <trkpt lat="44.58783" lon="2.94868">
        <ele>1079.8</ele>
        <time>2022-08-04T11:45:53Z</time>
      </trkpt>
      <trkpt lat="44.58782" lon="2.94868">
        <ele>1079.8</ele>
        <time>2022-08-04T11:45:54Z</time>
      </trkpt>
      <trkpt lat="44.58783" lon="2.94867">
        <ele>1079.7</ele>
        <time>2022-08-04T11:45:56Z</time>
      </trkpt>
      <trkpt lat="44.58784" lon="2.94862">
        <ele>1079.3</ele>
        <time>2022-08-04T11:46:01Z</time>
      </trkpt>
      <trkpt lat="44.58785" lon="2.94861">
        <ele>1079.3</ele>
        <time>2022-08-04T11:46:02Z</time>
      </trkpt>
      <trkpt lat="44.58787" lon="2.94853">
        <ele>1078.8</ele>
        <time>2022-08-04T11:46:07Z</time>
      </trkpt>
      <trkpt lat="44.58789" lon="2.9485">
        <ele>1078.6</ele>
        <time>2022-08-04T11:46:09Z</time>
      </trkpt>
      <trkpt lat="44.58795" lon="2.94844">
        <ele>1078.4</ele>
        <time>2022-08-04T11:46:15Z</time>
      </trkpt>
      <trkpt lat="44.58801" lon="2.94832">
        <ele>1077.8</ele>
        <time>2022-08-04T11:46:24Z</time>
      </trkpt>
      <trkpt lat="44.58802" lon="2.94831">
        <ele>1077.8</ele>
        <time>2022-08-04T11:46:25Z</time>
      </trkpt>
      <trkpt lat="44.58804" lon="2.94826">
        <ele>1077.7</ele>
        <time>2022-08-04T11:46:28Z</time>
      </trkpt>
      <trkpt lat="44.58805" lon="2.94824">
        <ele>1077.6</ele>
        <time>2022-08-04T11:46:30Z</time>
      </trkpt>
      <trkpt lat="44.58806" lon="2.94819">
        <ele>1077.5</ele>
        <time>2022-08-04T11:46:33Z</time>
      </trkpt>
      <trkpt lat="44.58807" lon="2.94807">
        <ele>1076.9</ele>
        <time>2022-08-04T11:46:41Z</time>
      </trkpt>
      <trkpt lat="44.58811" lon="2.94799">
        <ele>1075.9</ele>
        <time>2022-08-04T11:46:49Z</time>
      </trkpt>
      <trkpt lat="44.58811" lon="2.94799">
        <ele>1075.9</ele>
        <time>2022-08-04T11:46:55Z</time>
      </trkpt>
      <trkpt lat="44.58812" lon="2.94797">
        <ele>1075.6</ele>
        <time>2022-08-04T11:46:58Z</time>
      </trkpt>
      <trkpt lat="44.58812" lon="2.94796">
        <ele>1075.5</ele>
        <time>2022-08-04T11:46:59Z</time>
      </trkpt>
      <trkpt lat="44.58812" lon="2.94793">
        <ele>1075.1</ele>
        <time>2022-08-04T11:47:01Z</time>
      </trkpt>
      <trkpt lat="44.58811" lon="2.9479">
        <ele>1075</ele>
        <time>2022-08-04T11:47:03Z</time>
      </trkpt>
      <trkpt lat="44.5881" lon="2.94786">
        <ele>1074.6</ele>
        <time>2022-08-04T11:47:07Z</time>
      </trkpt>
      <trkpt lat="44.5881" lon="2.94784">
        <ele>1074.4</ele>
        <time>2022-08-04T11:47:09Z</time>
      </trkpt>
      <trkpt lat="44.58809" lon="2.94783">
        <ele>1074.3</ele>
        <time>2022-08-04T11:47:10Z</time>
      </trkpt>
      <trkpt lat="44.58808" lon="2.94781">
        <ele>1074.2</ele>
        <time>2022-08-04T11:47:12Z</time>
      </trkpt>
      <trkpt lat="44.58807" lon="2.94777">
        <ele>1073.9</ele>
        <time>2022-08-04T11:47:14Z</time>
      </trkpt>
      <trkpt lat="44.58806" lon="2.94776">
        <ele>1073.7</ele>
        <time>2022-08-04T11:47:15Z</time>
      </trkpt>
      <trkpt lat="44.58801" lon="2.94768">
        <ele>1072.4</ele>
        <time>2022-08-04T11:47:23Z</time>
      </trkpt>
      <trkpt lat="44.588" lon="2.94764">
        <ele>1071.9</ele>
        <time>2022-08-04T11:47:26Z</time>
      </trkpt>
      <trkpt lat="44.58798" lon="2.94757">
        <ele>1070.9</ele>
        <time>2022-08-04T11:47:31Z</time>
      </trkpt>
      <trkpt lat="44.58797" lon="2.94755">
        <ele>1070.7</ele>
        <time>2022-08-04T11:47:32Z</time>
      </trkpt>
      <trkpt lat="44.58797" lon="2.94754">
        <ele>1070.5</ele>
        <time>2022-08-04T11:47:33Z</time>
      </trkpt>
      <trkpt lat="44.58797" lon="2.94752">
        <ele>1070.3</ele>
        <time>2022-08-04T11:47:34Z</time>
      </trkpt>
      <trkpt lat="44.58797" lon="2.94751">
        <ele>1070.1</ele>
        <time>2022-08-04T11:47:35Z</time>
      </trkpt>
      <trkpt lat="44.58797" lon="2.94749">
        <ele>1069.9</ele>
        <time>2022-08-04T11:47:36Z</time>
      </trkpt>
      <trkpt lat="44.58797" lon="2.94748">
        <ele>1069.8</ele>
        <time>2022-08-04T11:47:37Z</time>
      </trkpt>
      <trkpt lat="44.58797" lon="2.94746">
        <ele>1069.7</ele>
        <time>2022-08-04T11:47:38Z</time>
      </trkpt>
      <trkpt lat="44.58797" lon="2.94745">
        <ele>1069.6</ele>
        <time>2022-08-04T11:47:39Z</time>
      </trkpt>
      <trkpt lat="44.58798" lon="2.94742">
        <ele>1069.3</ele>
        <time>2022-08-04T11:47:41Z</time>
      </trkpt>
      <trkpt lat="44.58799" lon="2.94739">
        <ele>1069</ele>
        <time>2022-08-04T11:47:43Z</time>
      </trkpt>
      <trkpt lat="44.588" lon="2.94738">
        <ele>1068.9</ele>
        <time>2022-08-04T11:47:44Z</time>
      </trkpt>
      <trkpt lat="44.58801" lon="2.94738">
        <ele>1068.8</ele>
        <time>2022-08-04T11:47:45Z</time>
      </trkpt>
      <trkpt lat="44.58802" lon="2.94736">
        <ele>1068.6</ele>
        <time>2022-08-04T11:47:46Z</time>
      </trkpt>
      <trkpt lat="44.58804" lon="2.94734">
        <ele>1068.4</ele>
        <time>2022-08-04T11:47:48Z</time>
      </trkpt>
      <trkpt lat="44.58805" lon="2.94734">
        <ele>1068.3</ele>
        <time>2022-08-04T11:47:50Z</time>
      </trkpt>
      <trkpt lat="44.58806" lon="2.94735">
        <ele>1068.4</ele>
        <time>2022-08-04T11:47:51Z</time>
      </trkpt>
      <trkpt lat="44.58809" lon="2.94734">
        <ele>1068</ele>
        <time>2022-08-04T11:47:59Z</time>
      </trkpt>
      <trkpt lat="44.58809" lon="2.94734">
        <ele>1068</ele>
        <time>2022-08-04T11:48:01Z</time>
      </trkpt>
      <trkpt lat="44.58809" lon="2.94734">
        <ele>1068</ele>
        <time>2022-08-04T11:48:02Z</time>
      </trkpt>
      <trkpt lat="44.5881" lon="2.94734">
        <ele>1068</ele>
        <time>2022-08-04T11:48:03Z</time>
      </trkpt>
      <trkpt lat="44.5881" lon="2.94735">
        <ele>1068</ele>
        <time>2022-08-04T11:48:05Z</time>
      </trkpt>
      <trkpt lat="44.58811" lon="2.94734">
        <ele>1067.9</ele>
        <time>2022-08-04T11:48:06Z</time>
      </trkpt>
      <trkpt lat="44.58811" lon="2.94734">
        <ele>1067.8</ele>
        <time>2022-08-04T11:48:11Z</time>
      </trkpt>
      <trkpt lat="44.58811" lon="2.94734">
        <ele>1067.8</ele>
        <time>2022-08-04T11:48:16Z</time>
      </trkpt>
      <trkpt lat="44.58811" lon="2.94734">
        <ele>1067.8</ele>
        <time>2022-08-04T11:48:19Z</time>
      </trkpt>
      <trkpt lat="44.58811" lon="2.94734">
        <ele>1067.8</ele>
        <time>2022-08-04T11:48:20Z</time>
      </trkpt>
      <trkpt lat="44.58811" lon="2.94734">
        <ele>1067.8</ele>
        <time>2022-08-04T11:48:22Z</time>
      </trkpt>
      <trkpt lat="44.58812" lon="2.94734">
        <ele>1067.8</ele>
        <time>2022-08-04T11:48:23Z</time>
      </trkpt>
      <trkpt lat="44.58812" lon="2.94734">
        <ele>1067.8</ele>
        <time>2022-08-04T11:48:24Z</time>
      </trkpt>
      <trkpt lat="44.58813" lon="2.94734">
        <ele>1067.8</ele>
        <time>2022-08-04T11:48:25Z</time>
      </trkpt>
      <trkpt lat="44.58813" lon="2.94734">
        <ele>1067.7</ele>
        <time>2022-08-04T11:48:26Z</time>
      </trkpt>
      <trkpt lat="44.58814" lon="2.94734">
        <ele>1067.7</ele>
        <time>2022-08-04T11:48:27Z</time>
      </trkpt>
      <trkpt lat="44.58814" lon="2.94734">
        <ele>1067.7</ele>
        <time>2022-08-04T11:48:28Z</time>
      </trkpt>
      <trkpt lat="44.58814" lon="2.94734">
        <ele>1067.7</ele>
        <time>2022-08-04T11:48:29Z</time>
      </trkpt>
      <trkpt lat="44.58814" lon="2.94734">
        <ele>1067.7</ele>
        <time>2022-08-04T11:48:30Z</time>
      </trkpt>
      <trkpt lat="44.58815" lon="2.94731">
        <ele>1067.3</ele>
        <time>2022-08-04T11:48:32Z</time>
      </trkpt>
      <trkpt lat="44.58816" lon="2.9473">
        <ele>1067.1</ele>
        <time>2022-08-04T11:48:33Z</time>
      </trkpt>
      <trkpt lat="44.58817" lon="2.94728">
        <ele>1066.8</ele>
        <time>2022-08-04T11:48:34Z</time>
      </trkpt>
      <trkpt lat="44.58817" lon="2.94726">
        <ele>1066.6</ele>
        <time>2022-08-04T11:48:35Z</time>
      </trkpt>
      <trkpt lat="44.58818" lon="2.94724">
        <ele>1066.3</ele>
        <time>2022-08-04T11:48:36Z</time>
      </trkpt>
      <trkpt lat="44.5882" lon="2.94722">
        <ele>1066</ele>
        <time>2022-08-04T11:48:37Z</time>
      </trkpt>
      <trkpt lat="44.5882" lon="2.9472">
        <ele>1065.8</ele>
        <time>2022-08-04T11:48:38Z</time>
      </trkpt>
      <trkpt lat="44.58821" lon="2.94719">
        <ele>1065.7</ele>
        <time>2022-08-04T11:48:39Z</time>
      </trkpt>
      <trkpt lat="44.58821" lon="2.94718">
        <ele>1065.6</ele>
        <time>2022-08-04T11:48:40Z</time>
      </trkpt>
      <trkpt lat="44.58822" lon="2.94718">
        <ele>1065.6</ele>
        <time>2022-08-04T11:48:41Z</time>
      </trkpt>
      <trkpt lat="44.58822" lon="2.94719">
        <ele>1065.5</ele>
        <time>2022-08-04T11:48:42Z</time>
      </trkpt>
      <trkpt lat="44.58823" lon="2.94719">
        <ele>1065.4</ele>
        <time>2022-08-04T11:48:43Z</time>
      </trkpt>
      <trkpt lat="44.58824" lon="2.94718">
        <ele>1065.3</ele>
        <time>2022-08-04T11:48:44Z</time>
      </trkpt>
      <trkpt lat="44.58825" lon="2.94718">
        <ele>1065.2</ele>
        <time>2022-08-04T11:48:45Z</time>
      </trkpt>
      <trkpt lat="44.58826" lon="2.94717">
        <ele>1065</ele>
        <time>2022-08-04T11:48:46Z</time>
      </trkpt>
      <trkpt lat="44.58826" lon="2.94716">
        <ele>1064.9</ele>
        <time>2022-08-04T11:48:47Z</time>
      </trkpt>
      <trkpt lat="44.58826" lon="2.94715">
        <ele>1064.9</ele>
        <time>2022-08-04T11:48:48Z</time>
      </trkpt>
      <trkpt lat="44.58827" lon="2.94715">
        <ele>1064.8</ele>
        <time>2022-08-04T11:48:49Z</time>
      </trkpt>
      <trkpt lat="44.58827" lon="2.94715">
        <ele>1064.8</ele>
        <time>2022-08-04T11:48:50Z</time>
      </trkpt>
      <trkpt lat="44.58826" lon="2.94714">
        <ele>1064.7</ele>
        <time>2022-08-04T11:48:52Z</time>
      </trkpt>
      <trkpt lat="44.58826" lon="2.94713">
        <ele>1064.7</ele>
        <time>2022-08-04T11:48:53Z</time>
      </trkpt>
      <trkpt lat="44.58826" lon="2.94712">
        <ele>1064.6</ele>
        <time>2022-08-04T11:48:54Z</time>
      </trkpt>
      <trkpt lat="44.58827" lon="2.94711">
        <ele>1064.4</ele>
        <time>2022-08-04T11:48:56Z</time>
      </trkpt>
      <trkpt lat="44.58829" lon="2.94705">
        <ele>1063.7</ele>
        <time>2022-08-04T11:49:00Z</time>
      </trkpt>
      <trkpt lat="44.58829" lon="2.94704">
        <ele>1063.5</ele>
        <time>2022-08-04T11:49:01Z</time>
      </trkpt>
      <trkpt lat="44.58831" lon="2.94702">
        <ele>1063.2</ele>
        <time>2022-08-04T11:49:03Z</time>
      </trkpt>
      <trkpt lat="44.58831" lon="2.94702">
        <ele>1063</ele>
        <time>2022-08-04T11:49:04Z</time>
      </trkpt>
      <trkpt lat="44.58833" lon="2.94701">
        <ele>1062.8</ele>
        <time>2022-08-04T11:49:05Z</time>
      </trkpt>
      <trkpt lat="44.58834" lon="2.947">
        <ele>1062.4</ele>
        <time>2022-08-04T11:49:06Z</time>
      </trkpt>
      <trkpt lat="44.58835" lon="2.94699">
        <ele>1062.3</ele>
        <time>2022-08-04T11:49:07Z</time>
      </trkpt>
      <trkpt lat="44.58833" lon="2.94698">
        <ele>1062.4</ele>
        <time>2022-08-04T11:49:08Z</time>
      </trkpt>
      <trkpt lat="44.58833" lon="2.94697">
        <ele>1062.3</ele>
        <time>2022-08-04T11:49:09Z</time>
      </trkpt>
      <trkpt lat="44.58834" lon="2.94695">
        <ele>1062</ele>
        <time>2022-08-04T11:49:11Z</time>
      </trkpt>
      <trkpt lat="44.58837" lon="2.94691">
        <ele>1061</ele>
        <time>2022-08-04T11:49:16Z</time>
      </trkpt>
      <trkpt lat="44.58838" lon="2.9469">
        <ele>1060.7</ele>
        <time>2022-08-04T11:49:18Z</time>
      </trkpt>
      <trkpt lat="44.58841" lon="2.94689">
        <ele>1060.2</ele>
        <time>2022-08-04T11:49:20Z</time>
      </trkpt>
      <trkpt lat="44.58843" lon="2.94687">
        <ele>1059.7</ele>
        <time>2022-08-04T11:49:22Z</time>
      </trkpt>
      <trkpt lat="44.58845" lon="2.94687">
        <ele>1059.2</ele>
        <time>2022-08-04T11:49:23Z</time>
      </trkpt>
      <trkpt lat="44.58847" lon="2.94687">
        <ele>1058.8</ele>
        <time>2022-08-04T11:49:25Z</time>
      </trkpt>
      <trkpt lat="44.58852" lon="2.94691">
        <ele>1058.3</ele>
        <time>2022-08-04T11:49:30Z</time>
      </trkpt>
      <trkpt lat="44.58857" lon="2.94693">
        <ele>1057.7</ele>
        <time>2022-08-04T11:49:33Z</time>
      </trkpt>
      <trkpt lat="44.58859" lon="2.94697">
        <ele>1057.6</ele>
        <time>2022-08-04T11:49:39Z</time>
      </trkpt>
      <trkpt lat="44.58859" lon="2.94697">
        <ele>1057.6</ele>
        <time>2022-08-04T11:49:40Z</time>
      </trkpt>
      <trkpt lat="44.58859" lon="2.94697">
        <ele>1057.6</ele>
        <time>2022-08-04T11:49:41Z</time>
      </trkpt>
      <trkpt lat="44.58859" lon="2.94697">
        <ele>1057.7</ele>
        <time>2022-08-04T11:49:42Z</time>
      </trkpt>
      <trkpt lat="44.58858" lon="2.94697">
        <ele>1057.8</ele>
        <time>2022-08-04T11:49:43Z</time>
      </trkpt>
      <trkpt lat="44.58858" lon="2.94697">
        <ele>1057.9</ele>
        <time>2022-08-04T11:49:44Z</time>
      </trkpt>
      <trkpt lat="44.58858" lon="2.94698">
        <ele>1057.9</ele>
        <time>2022-08-04T11:49:45Z</time>
      </trkpt>
      <trkpt lat="44.58858" lon="2.94698">
        <ele>1058</ele>
        <time>2022-08-04T11:49:46Z</time>
      </trkpt>
      <trkpt lat="44.58858" lon="2.94698">
        <ele>1058</ele>
        <time>2022-08-04T11:49:47Z</time>
      </trkpt>
      <trkpt lat="44.58858" lon="2.94698">
        <ele>1058</ele>
        <time>2022-08-04T11:49:48Z</time>
      </trkpt>
      <trkpt lat="44.58858" lon="2.94698">
        <ele>1058</ele>
        <time>2022-08-04T11:49:49Z</time>
      </trkpt>
      <trkpt lat="44.58858" lon="2.94698">
        <ele>1058</ele>
        <time>2022-08-04T11:49:51Z</time>
      </trkpt>
      <trkpt lat="44.58858" lon="2.94698">
        <ele>1058</ele>
        <time>2022-08-04T11:49:52Z</time>
      </trkpt>
      <trkpt lat="44.58858" lon="2.94698">
        <ele>1058</ele>
        <time>2022-08-04T11:49:53Z</time>
      </trkpt>
      <trkpt lat="44.58858" lon="2.94698">
        <ele>1058</ele>
        <time>2022-08-04T11:49:54Z</time>
      </trkpt>
      <trkpt lat="44.58858" lon="2.94698">
        <ele>1058</ele>
        <time>2022-08-04T11:49:56Z</time>
      </trkpt>
      <trkpt lat="44.58858" lon="2.94698">
        <ele>1058</ele>
        <time>2022-08-04T11:49:58Z</time>
      </trkpt>
      <trkpt lat="44.58858" lon="2.94698">
        <ele>1058</ele>
        <time>2022-08-04T11:49:59Z</time>
      </trkpt>
      <trkpt lat="44.58858" lon="2.94698">
        <ele>1058</ele>
        <time>2022-08-04T11:50:01Z</time>
      </trkpt>
      <trkpt lat="44.58858" lon="2.94699">
        <ele>1058.1</ele>
        <time>2022-08-04T11:50:04Z</time>
      </trkpt>
      <trkpt lat="44.58858" lon="2.94699">
        <ele>1058.1</ele>
        <time>2022-08-04T11:50:06Z</time>
      </trkpt>
      <trkpt lat="44.58858" lon="2.94699">
        <ele>1058.1</ele>
        <time>2022-08-04T11:50:07Z</time>
      </trkpt>
      <trkpt lat="44.58858" lon="2.947">
        <ele>1058.2</ele>
        <time>2022-08-04T11:50:08Z</time>
      </trkpt>
      <trkpt lat="44.58858" lon="2.947">
        <ele>1058.2</ele>
        <time>2022-08-04T11:50:09Z</time>
      </trkpt>
      <trkpt lat="44.5886" lon="2.94702">
        <ele>1058.1</ele>
        <time>2022-08-04T11:50:11Z</time>
      </trkpt>
      <trkpt lat="44.58861" lon="2.94704">
        <ele>1058.1</ele>
        <time>2022-08-04T11:50:12Z</time>
      </trkpt>
      <trkpt lat="44.58861" lon="2.94705">
        <ele>1058.1</ele>
        <time>2022-08-04T11:50:13Z</time>
      </trkpt>
      <trkpt lat="44.58863" lon="2.94706">
        <ele>1057.8</ele>
        <time>2022-08-04T11:50:14Z</time>
      </trkpt>
      <trkpt lat="44.58866" lon="2.94707">
        <ele>1057.3</ele>
        <time>2022-08-04T11:50:17Z</time>
      </trkpt>
      <trkpt lat="44.58867" lon="2.94708">
        <ele>1057.1</ele>
        <time>2022-08-04T11:50:18Z</time>
      </trkpt>
      <trkpt lat="44.5887" lon="2.94715">
        <ele>1057.6</ele>
        <time>2022-08-04T11:50:24Z</time>
      </trkpt>
      <trkpt lat="44.5887" lon="2.94717">
        <ele>1057.6</ele>
        <time>2022-08-04T11:50:25Z</time>
      </trkpt>
      <trkpt lat="44.5887" lon="2.94717">
        <ele>1057.7</ele>
        <time>2022-08-04T11:50:26Z</time>
      </trkpt>
      <trkpt lat="44.58871" lon="2.94718">
        <ele>1057.6</ele>
        <time>2022-08-04T11:50:27Z</time>
      </trkpt>
      <trkpt lat="44.58872" lon="2.94718">
        <ele>1057.4</ele>
        <time>2022-08-04T11:50:30Z</time>
      </trkpt>
      <trkpt lat="44.58873" lon="2.94718">
        <ele>1057.3</ele>
        <time>2022-08-04T11:50:31Z</time>
      </trkpt>
      <trkpt lat="44.58872" lon="2.94717">
        <ele>1057.4</ele>
        <time>2022-08-04T11:50:33Z</time>
      </trkpt>
      <trkpt lat="44.58873" lon="2.94718">
        <ele>1057.4</ele>
        <time>2022-08-04T11:50:34Z</time>
      </trkpt>
      <trkpt lat="44.58873" lon="2.9472">
        <ele>1057.5</ele>
        <time>2022-08-04T11:50:36Z</time>
      </trkpt>
      <trkpt lat="44.58874" lon="2.94721">
        <ele>1057.5</ele>
        <time>2022-08-04T11:50:37Z</time>
      </trkpt>
      <trkpt lat="44.58875" lon="2.94722">
        <ele>1057.5</ele>
        <time>2022-08-04T11:50:38Z</time>
      </trkpt>
      <trkpt lat="44.58876" lon="2.94723">
        <ele>1057.4</ele>
        <time>2022-08-04T11:50:39Z</time>
      </trkpt>
      <trkpt lat="44.58876" lon="2.94724">
        <ele>1057.6</ele>
        <time>2022-08-04T11:50:40Z</time>
      </trkpt>
      <trkpt lat="44.58877" lon="2.94725">
        <ele>1057.7</ele>
        <time>2022-08-04T11:50:41Z</time>
      </trkpt>
      <trkpt lat="44.5888" lon="2.94729">
        <ele>1057.7</ele>
        <time>2022-08-04T11:50:44Z</time>
      </trkpt>
      <trkpt lat="44.58882" lon="2.9473">
        <ele>1057.7</ele>
        <time>2022-08-04T11:50:46Z</time>
      </trkpt>
      <trkpt lat="44.58883" lon="2.94731">
        <ele>1057.5</ele>
        <time>2022-08-04T11:50:47Z</time>
      </trkpt>
      <trkpt lat="44.58884" lon="2.94732">
        <ele>1057.4</ele>
        <time>2022-08-04T11:50:48Z</time>
      </trkpt>
      <trkpt lat="44.58885" lon="2.94734">
        <ele>1057.7</ele>
        <time>2022-08-04T11:50:50Z</time>
      </trkpt>
      <trkpt lat="44.58886" lon="2.94734">
        <ele>1057.6</ele>
        <time>2022-08-04T11:50:52Z</time>
      </trkpt>
      <trkpt lat="44.58887" lon="2.94735">
        <ele>1057.6</ele>
        <time>2022-08-04T11:50:53Z</time>
      </trkpt>
      <trkpt lat="44.58888" lon="2.94736">
        <ele>1057.7</ele>
        <time>2022-08-04T11:50:55Z</time>
      </trkpt>
      <trkpt lat="44.58886" lon="2.94738">
        <ele>1058.3</ele>
        <time>2022-08-04T11:50:58Z</time>
      </trkpt>
      <trkpt lat="44.58886" lon="2.94739">
        <ele>1058.5</ele>
        <time>2022-08-04T11:50:59Z</time>
      </trkpt>
      <trkpt lat="44.58888" lon="2.94741">
        <ele>1058.6</ele>
        <time>2022-08-04T11:51:01Z</time>
      </trkpt>
      <trkpt lat="44.58889" lon="2.94742">
        <ele>1058.5</ele>
        <time>2022-08-04T11:51:03Z</time>
      </trkpt>
      <trkpt lat="44.5889" lon="2.94742">
        <ele>1058.3</ele>
        <time>2022-08-04T11:51:04Z</time>
      </trkpt>
      <trkpt lat="44.5889" lon="2.94742">
        <ele>1058.2</ele>
        <time>2022-08-04T11:51:05Z</time>
      </trkpt>
      <trkpt lat="44.58891" lon="2.94742">
        <ele>1058.1</ele>
        <time>2022-08-04T11:51:06Z</time>
      </trkpt>
      <trkpt lat="44.58891" lon="2.94744">
        <ele>1058.3</ele>
        <time>2022-08-04T11:51:08Z</time>
      </trkpt>
      <trkpt lat="44.58895" lon="2.94745">
        <ele>1057.6</ele>
        <time>2022-08-04T11:51:11Z</time>
      </trkpt>
      <trkpt lat="44.58896" lon="2.94745">
        <ele>1057.4</ele>
        <time>2022-08-04T11:51:12Z</time>
      </trkpt>
      <trkpt lat="44.58898" lon="2.94745">
        <ele>1056.8</ele>
        <time>2022-08-04T11:51:15Z</time>
      </trkpt>
      <trkpt lat="44.58898" lon="2.94746">
        <ele>1057</ele>
        <time>2022-08-04T11:51:17Z</time>
      </trkpt>
      <trkpt lat="44.589" lon="2.94744">
        <ele>1056.1</ele>
        <time>2022-08-04T11:51:21Z</time>
      </trkpt>
      <trkpt lat="44.589" lon="2.94744">
        <ele>1056</ele>
        <time>2022-08-04T11:51:22Z</time>
      </trkpt>
      <trkpt lat="44.589" lon="2.94745">
        <ele>1056.3</ele>
        <time>2022-08-04T11:51:26Z</time>
      </trkpt>
      <trkpt lat="44.58905" lon="2.94742">
        <ele>1054.3</ele>
        <time>2022-08-04T11:51:30Z</time>
      </trkpt>
      <trkpt lat="44.58908" lon="2.9474">
        <ele>1053.2</ele>
        <time>2022-08-04T11:51:32Z</time>
      </trkpt>
      <trkpt lat="44.5891" lon="2.9474">
        <ele>1052.6</ele>
        <time>2022-08-04T11:51:33Z</time>
      </trkpt>
      <trkpt lat="44.58911" lon="2.9474">
        <ele>1052.2</ele>
        <time>2022-08-04T11:51:34Z</time>
      </trkpt>
      <trkpt lat="44.58913" lon="2.94739">
        <ele>1051.8</ele>
        <time>2022-08-04T11:51:35Z</time>
      </trkpt>
      <trkpt lat="44.58913" lon="2.9474">
        <ele>1051.7</ele>
        <time>2022-08-04T11:51:36Z</time>
      </trkpt>
      <trkpt lat="44.58914" lon="2.9474">
        <ele>1051.6</ele>
        <time>2022-08-04T11:51:37Z</time>
      </trkpt>
      <trkpt lat="44.58911" lon="2.94741">
        <ele>1052.6</ele>
        <time>2022-08-04T11:51:41Z</time>
      </trkpt>
      <trkpt lat="44.58911" lon="2.94741">
        <ele>1052.6</ele>
        <time>2022-08-04T11:51:42Z</time>
      </trkpt>
      <trkpt lat="44.58912" lon="2.94742">
        <ele>1052.5</ele>
        <time>2022-08-04T11:51:44Z</time>
      </trkpt>
      <trkpt lat="44.58915" lon="2.94742">
        <ele>1051.9</ele>
        <time>2022-08-04T11:51:47Z</time>
      </trkpt>
      <trkpt lat="44.58916" lon="2.94742">
        <ele>1051.4</ele>
        <time>2022-08-04T11:51:49Z</time>
      </trkpt>
      <trkpt lat="44.58919" lon="2.9474">
        <ele>1050.4</ele>
        <time>2022-08-04T11:51:52Z</time>
      </trkpt>
      <trkpt lat="44.5892" lon="2.9474">
        <ele>1050.2</ele>
        <time>2022-08-04T11:51:53Z</time>
      </trkpt>
      <trkpt lat="44.58922" lon="2.9474">
        <ele>1049.5</ele>
        <time>2022-08-04T11:51:55Z</time>
      </trkpt>
      <trkpt lat="44.58924" lon="2.94738">
        <ele>1048.5</ele>
        <time>2022-08-04T11:51:58Z</time>
      </trkpt>
      <trkpt lat="44.58926" lon="2.94738">
        <ele>1048.1</ele>
        <time>2022-08-04T11:51:59Z</time>
      </trkpt>
      <trkpt lat="44.58927" lon="2.94738">
        <ele>1047.9</ele>
        <time>2022-08-04T11:52:00Z</time>
      </trkpt>
      <trkpt lat="44.58929" lon="2.94738">
        <ele>1047.5</ele>
        <time>2022-08-04T11:52:02Z</time>
      </trkpt>
      <trkpt lat="44.58929" lon="2.94738">
        <ele>1047.3</ele>
        <time>2022-08-04T11:52:03Z</time>
      </trkpt>
      <trkpt lat="44.58929" lon="2.94737">
        <ele>1047.1</ele>
        <time>2022-08-04T11:52:04Z</time>
      </trkpt>
      <trkpt lat="44.5893" lon="2.94737">
        <ele>1047</ele>
        <time>2022-08-04T11:52:05Z</time>
      </trkpt>
      <trkpt lat="44.58931" lon="2.94737">
        <ele>1046.6</ele>
        <time>2022-08-04T11:52:06Z</time>
      </trkpt>
      <trkpt lat="44.58934" lon="2.94739">
        <ele>1046.5</ele>
        <time>2022-08-04T11:52:08Z</time>
      </trkpt>
      <trkpt lat="44.58935" lon="2.9474">
        <ele>1046.2</ele>
        <time>2022-08-04T11:52:12Z</time>
      </trkpt>
      <trkpt lat="44.58936" lon="2.94739">
        <ele>1045.8</ele>
        <time>2022-08-04T11:52:14Z</time>
      </trkpt>
      <trkpt lat="44.58938" lon="2.94738">
        <ele>1045.2</ele>
        <time>2022-08-04T11:52:16Z</time>
      </trkpt>
      <trkpt lat="44.5894" lon="2.94737">
        <ele>1044.2</ele>
        <time>2022-08-04T11:52:19Z</time>
      </trkpt>
      <trkpt lat="44.58942" lon="2.94737">
        <ele>1043.9</ele>
        <time>2022-08-04T11:52:20Z</time>
      </trkpt>
      <trkpt lat="44.58943" lon="2.94738">
        <ele>1043.9</ele>
        <time>2022-08-04T11:52:25Z</time>
      </trkpt>
      <trkpt lat="44.58943" lon="2.94739">
        <ele>1044</ele>
        <time>2022-08-04T11:52:26Z</time>
      </trkpt>
      <trkpt lat="44.58945" lon="2.94741">
        <ele>1044.1</ele>
        <time>2022-08-04T11:52:30Z</time>
      </trkpt>
      <trkpt lat="44.58948" lon="2.9474">
        <ele>1043.4</ele>
        <time>2022-08-04T11:52:34Z</time>
      </trkpt>
      <trkpt lat="44.58949" lon="2.9474">
        <ele>1043.1</ele>
        <time>2022-08-04T11:52:35Z</time>
      </trkpt>
      <trkpt lat="44.58951" lon="2.94737">
        <ele>1041.9</ele>
        <time>2022-08-04T11:52:38Z</time>
      </trkpt>
      <trkpt lat="44.58956" lon="2.94736">
        <ele>1040.7</ele>
        <time>2022-08-04T11:52:41Z</time>
      </trkpt>
      <trkpt lat="44.5896" lon="2.94738">
        <ele>1040.4</ele>
        <time>2022-08-04T11:52:44Z</time>
      </trkpt>
      <trkpt lat="44.58963" lon="2.94739">
        <ele>1040.1</ele>
        <time>2022-08-04T11:52:50Z</time>
      </trkpt>
      <trkpt lat="44.58965" lon="2.94738">
        <ele>1039.7</ele>
        <time>2022-08-04T11:52:51Z</time>
      </trkpt>
      <trkpt lat="44.58968" lon="2.94738">
        <ele>1038.9</ele>
        <time>2022-08-04T11:52:53Z</time>
      </trkpt>
      <trkpt lat="44.58969" lon="2.94738">
        <ele>1038.7</ele>
        <time>2022-08-04T11:52:54Z</time>
      </trkpt>
      <trkpt lat="44.5897" lon="2.94738">
        <ele>1038.6</ele>
        <time>2022-08-04T11:52:55Z</time>
      </trkpt>
      <trkpt lat="44.58972" lon="2.94738">
        <ele>1038.3</ele>
        <time>2022-08-04T11:52:56Z</time>
      </trkpt>
      <trkpt lat="44.58976" lon="2.94733">
        <ele>1035.6</ele>
        <time>2022-08-04T11:53:02Z</time>
      </trkpt>
      <trkpt lat="44.58977" lon="2.94733">
        <ele>1035.4</ele>
        <time>2022-08-04T11:53:03Z</time>
      </trkpt>
      <trkpt lat="44.58977" lon="2.94732">
        <ele>1035.1</ele>
        <time>2022-08-04T11:53:04Z</time>
      </trkpt>
      <trkpt lat="44.58983" lon="2.94731">
        <ele>1033.8</ele>
        <time>2022-08-04T11:53:09Z</time>
      </trkpt>
      <trkpt lat="44.58983" lon="2.9473">
        <ele>1033.3</ele>
        <time>2022-08-04T11:53:11Z</time>
      </trkpt>
      <trkpt lat="44.58983" lon="2.94729">
        <ele>1033</ele>
        <time>2022-08-04T11:53:12Z</time>
      </trkpt>
      <trkpt lat="44.58985" lon="2.94726">
        <ele>1031.7</ele>
        <time>2022-08-04T11:53:17Z</time>
      </trkpt>
      <trkpt lat="44.58985" lon="2.94726">
        <ele>1031.5</ele>
        <time>2022-08-04T11:53:18Z</time>
      </trkpt>
      <trkpt lat="44.58985" lon="2.94724">
        <ele>1030.8</ele>
        <time>2022-08-04T11:53:20Z</time>
      </trkpt>
      <trkpt lat="44.58988" lon="2.94721">
        <ele>1029.3</ele>
        <time>2022-08-04T11:53:24Z</time>
      </trkpt>
      <trkpt lat="44.5899" lon="2.94721">
        <ele>1028.9</ele>
        <time>2022-08-04T11:53:26Z</time>
      </trkpt>
      <trkpt lat="44.58993" lon="2.94717">
        <ele>1027.5</ele>
        <time>2022-08-04T11:53:31Z</time>
      </trkpt>
      <trkpt lat="44.58993" lon="2.94715">
        <ele>1027</ele>
        <time>2022-08-04T11:53:33Z</time>
      </trkpt>
      <trkpt lat="44.58997" lon="2.94712">
        <ele>1025.6</ele>
        <time>2022-08-04T11:53:37Z</time>
      </trkpt>
      <trkpt lat="44.58999" lon="2.9471">
        <ele>1024.9</ele>
        <time>2022-08-04T11:53:39Z</time>
      </trkpt>
      <trkpt lat="44.58999" lon="2.94706">
        <ele>1024.2</ele>
        <time>2022-08-04T11:53:41Z</time>
      </trkpt>
      <trkpt lat="44.59001" lon="2.94705">
        <ele>1023.9</ele>
        <time>2022-08-04T11:53:42Z</time>
      </trkpt>
      <trkpt lat="44.59007" lon="2.94703">
        <ele>1023.4</ele>
        <time>2022-08-04T11:53:47Z</time>
      </trkpt>
      <trkpt lat="44.59008" lon="2.94702">
        <ele>1023.2</ele>
        <time>2022-08-04T11:53:48Z</time>
      </trkpt>
      <trkpt lat="44.59009" lon="2.94701">
        <ele>1023</ele>
        <time>2022-08-04T11:53:49Z</time>
      </trkpt>
      <trkpt lat="44.59012" lon="2.94694">
        <ele>1021.5</ele>
        <time>2022-08-04T11:53:54Z</time>
      </trkpt>
      <trkpt lat="44.59014" lon="2.94687">
        <ele>1020.5</ele>
        <time>2022-08-04T11:53:59Z</time>
      </trkpt>
      <trkpt lat="44.59015" lon="2.94679">
        <ele>1019.6</ele>
        <time>2022-08-04T11:54:05Z</time>
      </trkpt>
      <trkpt lat="44.59016" lon="2.94678">
        <ele>1019.3</ele>
        <time>2022-08-04T11:54:08Z</time>
      </trkpt>
      <trkpt lat="44.59017" lon="2.94675">
        <ele>1019</ele>
        <time>2022-08-04T11:54:12Z</time>
      </trkpt>
      <trkpt lat="44.5901" lon="2.94672">
        <ele>1018.6</ele>
        <time>2022-08-04T11:54:19Z</time>
      </trkpt>
      <trkpt lat="44.59007" lon="2.94669">
        <ele>1018.4</ele>
        <time>2022-08-04T11:54:22Z</time>
      </trkpt>
      <trkpt lat="44.59007" lon="2.94668">
        <ele>1018.2</ele>
        <time>2022-08-04T11:54:23Z</time>
      </trkpt>
      <trkpt lat="44.59005" lon="2.94666">
        <ele>1018</ele>
        <time>2022-08-04T11:54:25Z</time>
      </trkpt>
      <trkpt lat="44.59001" lon="2.94662">
        <ele>1017.5</ele>
        <time>2022-08-04T11:54:30Z</time>
      </trkpt>
      <trkpt lat="44.59" lon="2.9466">
        <ele>1017.3</ele>
        <time>2022-08-04T11:54:32Z</time>
      </trkpt>
      <trkpt lat="44.59" lon="2.94655">
        <ele>1016.8</ele>
        <time>2022-08-04T11:54:37Z</time>
      </trkpt>
      <trkpt lat="44.58999" lon="2.94651">
        <ele>1016.4</ele>
        <time>2022-08-04T11:54:40Z</time>
      </trkpt>
      <trkpt lat="44.58997" lon="2.94648">
        <ele>1016.2</ele>
        <time>2022-08-04T11:54:42Z</time>
      </trkpt>
      <trkpt lat="44.58996" lon="2.94647">
        <ele>1016.1</ele>
        <time>2022-08-04T11:54:43Z</time>
      </trkpt>
      <trkpt lat="44.5899" lon="2.94637">
        <ele>1015.4</ele>
        <time>2022-08-04T11:54:51Z</time>
      </trkpt>
      <trkpt lat="44.58988" lon="2.94635">
        <ele>1015.3</ele>
        <time>2022-08-04T11:54:53Z</time>
      </trkpt>
      <trkpt lat="44.58985" lon="2.9463">
        <ele>1014.9</ele>
        <time>2022-08-04T11:54:58Z</time>
      </trkpt>
      <trkpt lat="44.58984" lon="2.94629">
        <ele>1015</ele>
        <time>2022-08-04T11:54:59Z</time>
      </trkpt>
      <trkpt lat="44.58985" lon="2.94628">
        <ele>1014.7</ele>
        <time>2022-08-04T11:55:08Z</time>
      </trkpt>
      <trkpt lat="44.58984" lon="2.94626">
        <ele>1014.6</ele>
        <time>2022-08-04T11:55:12Z</time>
      </trkpt>
      <trkpt lat="44.58983" lon="2.94626">
        <ele>1014.7</ele>
        <time>2022-08-04T11:55:16Z</time>
      </trkpt>
      <trkpt lat="44.58982" lon="2.94626">
        <ele>1014.7</ele>
        <time>2022-08-04T11:55:17Z</time>
      </trkpt>
      <trkpt lat="44.58971" lon="2.94618">
        <ele>1014.9</ele>
        <time>2022-08-04T11:55:25Z</time>
      </trkpt>
      <trkpt lat="44.5897" lon="2.94617">
        <ele>1015</ele>
        <time>2022-08-04T11:55:26Z</time>
      </trkpt>
      <trkpt lat="44.58965" lon="2.94606">
        <ele>1014.7</ele>
        <time>2022-08-04T11:55:33Z</time>
      </trkpt>
      <trkpt lat="44.58961" lon="2.94595">
        <ele>1014.2</ele>
        <time>2022-08-04T11:55:41Z</time>
      </trkpt>
      <trkpt lat="44.58958" lon="2.9459">
        <ele>1014.2</ele>
        <time>2022-08-04T11:55:45Z</time>
      </trkpt>
      <trkpt lat="44.58956" lon="2.94586">
        <ele>1014.2</ele>
        <time>2022-08-04T11:55:48Z</time>
      </trkpt>
      <trkpt lat="44.58955" lon="2.94583">
        <ele>1014</ele>
        <time>2022-08-04T11:55:49Z</time>
      </trkpt>
      <trkpt lat="44.58955" lon="2.94581">
        <ele>1013.9</ele>
        <time>2022-08-04T11:55:51Z</time>
      </trkpt>
      <trkpt lat="44.58953" lon="2.94578">
        <ele>1013.9</ele>
        <time>2022-08-04T11:55:53Z</time>
      </trkpt>
      <trkpt lat="44.58951" lon="2.94575">
        <ele>1014.2</ele>
        <time>2022-08-04T11:55:56Z</time>
      </trkpt>
      <trkpt lat="44.58949" lon="2.9457">
        <ele>1014</ele>
        <time>2022-08-04T11:55:59Z</time>
      </trkpt>
      <trkpt lat="44.58945" lon="2.94561">
        <ele>1014.3</ele>
        <time>2022-08-04T11:56:05Z</time>
      </trkpt>
      <trkpt lat="44.58943" lon="2.94555">
        <ele>1014.4</ele>
        <time>2022-08-04T11:56:09Z</time>
      </trkpt>
      <trkpt lat="44.58943" lon="2.94551">
        <ele>1014.1</ele>
        <time>2022-08-04T11:56:12Z</time>
      </trkpt>
      <trkpt lat="44.58942" lon="2.9455">
        <ele>1014.2</ele>
        <time>2022-08-04T11:56:13Z</time>
      </trkpt>
      <trkpt lat="44.58941" lon="2.94546">
        <ele>1014.1</ele>
        <time>2022-08-04T11:56:17Z</time>
      </trkpt>
      <trkpt lat="44.58936" lon="2.94532">
        <ele>1014.3</ele>
        <time>2022-08-04T11:56:25Z</time>
      </trkpt>
      <trkpt lat="44.58935" lon="2.94528">
        <ele>1013.9</ele>
        <time>2022-08-04T11:56:28Z</time>
      </trkpt>
      <trkpt lat="44.58934" lon="2.94524">
        <ele>1014.2</ele>
        <time>2022-08-04T11:56:31Z</time>
      </trkpt>
      <trkpt lat="44.58933" lon="2.94522">
        <ele>1014.3</ele>
        <time>2022-08-04T11:56:32Z</time>
      </trkpt>
      <trkpt lat="44.58933" lon="2.94518">
        <ele>1014</ele>
        <time>2022-08-04T11:56:37Z</time>
      </trkpt>
      <trkpt lat="44.5893" lon="2.94512">
        <ele>1014.6</ele>
        <time>2022-08-04T11:56:41Z</time>
      </trkpt>
      <trkpt lat="44.58929" lon="2.9451">
        <ele>1014.7</ele>
        <time>2022-08-04T11:56:42Z</time>
      </trkpt>
      <trkpt lat="44.58929" lon="2.94507">
        <ele>1014.6</ele>
        <time>2022-08-04T11:56:44Z</time>
      </trkpt>
      <trkpt lat="44.58926" lon="2.94497">
        <ele>1015.2</ele>
        <time>2022-08-04T11:56:51Z</time>
      </trkpt>
      <trkpt lat="44.58926" lon="2.94496">
        <ele>1015.2</ele>
        <time>2022-08-04T11:56:52Z</time>
      </trkpt>
      <trkpt lat="44.58926" lon="2.94488">
        <ele>1014.8</ele>
        <time>2022-08-04T11:56:58Z</time>
      </trkpt>
      <trkpt lat="44.58925" lon="2.94478">
        <ele>1014.4</ele>
        <time>2022-08-04T11:57:04Z</time>
      </trkpt>
      <trkpt lat="44.58924" lon="2.94472">
        <ele>1014.3</ele>
        <time>2022-08-04T11:57:08Z</time>
      </trkpt>
      <trkpt lat="44.58924" lon="2.9447">
        <ele>1014.2</ele>
        <time>2022-08-04T11:57:09Z</time>
      </trkpt>
      <trkpt lat="44.58924" lon="2.94456">
        <ele>1013.4</ele>
        <time>2022-08-04T11:57:16Z</time>
      </trkpt>
      <trkpt lat="44.58922" lon="2.94444">
        <ele>1013.2</ele>
        <time>2022-08-04T11:57:23Z</time>
      </trkpt>
      <trkpt lat="44.5892" lon="2.94438">
        <ele>1013.4</ele>
        <time>2022-08-04T11:57:28Z</time>
      </trkpt>
      <trkpt lat="44.58915" lon="2.94429">
        <ele>1014.7</ele>
        <time>2022-08-04T11:57:37Z</time>
      </trkpt>
      <trkpt lat="44.58914" lon="2.94428">
        <ele>1014.9</ele>
        <time>2022-08-04T11:57:38Z</time>
      </trkpt>
      <trkpt lat="44.58913" lon="2.94427">
        <ele>1015.2</ele>
        <time>2022-08-04T11:57:39Z</time>
      </trkpt>
      <trkpt lat="44.58909" lon="2.9442">
        <ele>1016</ele>
        <time>2022-08-04T11:57:45Z</time>
      </trkpt>
      <trkpt lat="44.58907" lon="2.94415">
        <ele>1016</ele>
        <time>2022-08-04T11:57:50Z</time>
      </trkpt>
      <trkpt lat="44.58907" lon="2.94414">
        <ele>1016</ele>
        <time>2022-08-04T11:57:51Z</time>
      </trkpt>
      <trkpt lat="44.58906" lon="2.94411">
        <ele>1016.2</ele>
        <time>2022-08-04T11:57:56Z</time>
      </trkpt>
      <trkpt lat="44.58905" lon="2.94406">
        <ele>1016.1</ele>
        <time>2022-08-04T11:58:03Z</time>
      </trkpt>
      <trkpt lat="44.58904" lon="2.94399">
        <ele>1016</ele>
        <time>2022-08-04T11:58:08Z</time>
      </trkpt>
      <trkpt lat="44.58905" lon="2.94393">
        <ele>1015.4</ele>
        <time>2022-08-04T11:58:12Z</time>
      </trkpt>
      <trkpt lat="44.58906" lon="2.94387">
        <ele>1014.8</ele>
        <time>2022-08-04T11:58:15Z</time>
      </trkpt>
      <trkpt lat="44.58906" lon="2.94385">
        <ele>1014.8</ele>
        <time>2022-08-04T11:58:16Z</time>
      </trkpt>
      <trkpt lat="44.58908" lon="2.94376">
        <ele>1013.6</ele>
        <time>2022-08-04T11:58:21Z</time>
      </trkpt>
      <trkpt lat="44.58909" lon="2.94373">
        <ele>1013.1</ele>
        <time>2022-08-04T11:58:23Z</time>
      </trkpt>
      <trkpt lat="44.5891" lon="2.94366">
        <ele>1012.6</ele>
        <time>2022-08-04T11:58:27Z</time>
      </trkpt>
      <trkpt lat="44.58913" lon="2.94358">
        <ele>1010.9</ele>
        <time>2022-08-04T11:58:33Z</time>
      </trkpt>
      <trkpt lat="44.58913" lon="2.94357">
        <ele>1010.7</ele>
        <time>2022-08-04T11:58:34Z</time>
      </trkpt>
      <trkpt lat="44.58913" lon="2.94346">
        <ele>1009.8</ele>
        <time>2022-08-04T11:58:42Z</time>
      </trkpt>
      <trkpt lat="44.58911" lon="2.9434">
        <ele>1009.8</ele>
        <time>2022-08-04T11:58:45Z</time>
      </trkpt>
      <trkpt lat="44.5891" lon="2.94337">
        <ele>1010.1</ele>
        <time>2022-08-04T11:58:48Z</time>
      </trkpt>
      <trkpt lat="44.58909" lon="2.94336">
        <ele>1010.2</ele>
        <time>2022-08-04T11:58:51Z</time>
      </trkpt>
      <trkpt lat="44.5891" lon="2.94335">
        <ele>1010</ele>
        <time>2022-08-04T11:58:53Z</time>
      </trkpt>
      <trkpt lat="44.5891" lon="2.94334">
        <ele>1009.7</ele>
        <time>2022-08-04T11:58:54Z</time>
      </trkpt>
      <trkpt lat="44.5891" lon="2.94331">
        <ele>1009.6</ele>
        <time>2022-08-04T11:58:56Z</time>
      </trkpt>
      <trkpt lat="44.5891" lon="2.94329">
        <ele>1009.1</ele>
        <time>2022-08-04T11:58:58Z</time>
      </trkpt>
      <trkpt lat="44.5891" lon="2.94326">
        <ele>1008.8</ele>
        <time>2022-08-04T11:59:00Z</time>
      </trkpt>
      <trkpt lat="44.5891" lon="2.94321">
        <ele>1008.4</ele>
        <time>2022-08-04T11:59:04Z</time>
      </trkpt>
      <trkpt lat="44.58909" lon="2.94318">
        <ele>1008.4</ele>
        <time>2022-08-04T11:59:06Z</time>
      </trkpt>
      <trkpt lat="44.58909" lon="2.94316">
        <ele>1008.2</ele>
        <time>2022-08-04T11:59:07Z</time>
      </trkpt>
      <trkpt lat="44.5891" lon="2.94312">
        <ele>1007.5</ele>
        <time>2022-08-04T11:59:10Z</time>
      </trkpt>
      <trkpt lat="44.58911" lon="2.94308">
        <ele>1006.6</ele>
        <time>2022-08-04T11:59:13Z</time>
      </trkpt>
      <trkpt lat="44.58912" lon="2.94305">
        <ele>1006</ele>
        <time>2022-08-04T11:59:15Z</time>
      </trkpt>
      <trkpt lat="44.58912" lon="2.943">
        <ele>1005.4</ele>
        <time>2022-08-04T11:59:18Z</time>
      </trkpt>
      <trkpt lat="44.58913" lon="2.94299">
        <ele>1005.1</ele>
        <time>2022-08-04T11:59:19Z</time>
      </trkpt>
      <trkpt lat="44.58914" lon="2.94296">
        <ele>1004.5</ele>
        <time>2022-08-04T11:59:21Z</time>
      </trkpt>
      <trkpt lat="44.58916" lon="2.94289">
        <ele>1003.1</ele>
        <time>2022-08-04T11:59:26Z</time>
      </trkpt>
      <trkpt lat="44.58916" lon="2.94288">
        <ele>1003</ele>
        <time>2022-08-04T11:59:27Z</time>
      </trkpt>
      <trkpt lat="44.58916" lon="2.94286">
        <ele>1003</ele>
        <time>2022-08-04T11:59:28Z</time>
      </trkpt>
      <trkpt lat="44.58916" lon="2.94281">
        <ele>1002.3</ele>
        <time>2022-08-04T11:59:31Z</time>
      </trkpt>
      <trkpt lat="44.58917" lon="2.94279">
        <ele>1002.1</ele>
        <time>2022-08-04T11:59:32Z</time>
      </trkpt>
      <trkpt lat="44.58917" lon="2.94278">
        <ele>1001.8</ele>
        <time>2022-08-04T11:59:33Z</time>
      </trkpt>
      <trkpt lat="44.58918" lon="2.94271">
        <ele>1001.3</ele>
        <time>2022-08-04T11:59:36Z</time>
      </trkpt>
      <trkpt lat="44.58918" lon="2.94268">
        <ele>1001.3</ele>
        <time>2022-08-04T11:59:38Z</time>
      </trkpt>
      <trkpt lat="44.58918" lon="2.94262">
        <ele>1001</ele>
        <time>2022-08-04T11:59:41Z</time>
      </trkpt>
      <trkpt lat="44.5892" lon="2.94257">
        <ele>1000.1</ele>
        <time>2022-08-04T11:59:45Z</time>
      </trkpt>
      <trkpt lat="44.5892" lon="2.94254">
        <ele>999.8</ele>
        <time>2022-08-04T11:59:47Z</time>
      </trkpt>
      <trkpt lat="44.5892" lon="2.94252">
        <ele>999.9</ele>
        <time>2022-08-04T11:59:48Z</time>
      </trkpt>
      <trkpt lat="44.58921" lon="2.9425">
        <ele>999.5</ele>
        <time>2022-08-04T11:59:50Z</time>
      </trkpt>
      <trkpt lat="44.58922" lon="2.94249">
        <ele>999</ele>
        <time>2022-08-04T11:59:52Z</time>
      </trkpt>
      <trkpt lat="44.58922" lon="2.94246">
        <ele>999.1</ele>
        <time>2022-08-04T11:59:54Z</time>
      </trkpt>
      <trkpt lat="44.58922" lon="2.94246">
        <ele>999.1</ele>
        <time>2022-08-04T11:59:55Z</time>
      </trkpt>
      <trkpt lat="44.58921" lon="2.94243">
        <ele>999.1</ele>
        <time>2022-08-04T11:59:58Z</time>
      </trkpt>
      <trkpt lat="44.58923" lon="2.94242">
        <ele>998.5</ele>
        <time>2022-08-04T12:00:02Z</time>
      </trkpt>
      <trkpt lat="44.58925" lon="2.94241">
        <ele>997.9</ele>
        <time>2022-08-04T12:00:08Z</time>
      </trkpt>
      <trkpt lat="44.58925" lon="2.94244">
        <ele>997.8</ele>
        <time>2022-08-04T12:00:16Z</time>
      </trkpt>
      <trkpt lat="44.58926" lon="2.94243">
        <ele>997.6</ele>
        <time>2022-08-04T12:00:25Z</time>
      </trkpt>
      <trkpt lat="44.58926" lon="2.94243">
        <ele>997.6</ele>
        <time>2022-08-04T12:00:27Z</time>
      </trkpt>
      <trkpt lat="44.58926" lon="2.94239">
        <ele>997.3</ele>
        <time>2022-08-04T12:00:29Z</time>
      </trkpt>
      <trkpt lat="44.58927" lon="2.94226">
        <ele>996.8</ele>
        <time>2022-08-04T12:00:35Z</time>
      </trkpt>
      <trkpt lat="44.58928" lon="2.94224">
        <ele>996.4</ele>
        <time>2022-08-04T12:00:37Z</time>
      </trkpt>
      <trkpt lat="44.58928" lon="2.94222">
        <ele>996.4</ele>
        <time>2022-08-04T12:00:38Z</time>
      </trkpt>
      <trkpt lat="44.58929" lon="2.94221">
        <ele>996</ele>
        <time>2022-08-04T12:00:40Z</time>
      </trkpt>
      <trkpt lat="44.58932" lon="2.94213">
        <ele>995</ele>
        <time>2022-08-04T12:00:47Z</time>
      </trkpt>
      <trkpt lat="44.58932" lon="2.94206">
        <ele>994.6</ele>
        <time>2022-08-04T12:00:53Z</time>
      </trkpt>
      <trkpt lat="44.58933" lon="2.94205">
        <ele>994.2</ele>
        <time>2022-08-04T12:00:54Z</time>
      </trkpt>
      <trkpt lat="44.58934" lon="2.94204">
        <ele>993.8</ele>
        <time>2022-08-04T12:00:55Z</time>
      </trkpt>
      <trkpt lat="44.58937" lon="2.94198">
        <ele>992.7</ele>
        <time>2022-08-04T12:01:01Z</time>
      </trkpt>
      <trkpt lat="44.58938" lon="2.94196">
        <ele>992.4</ele>
        <time>2022-08-04T12:01:03Z</time>
      </trkpt>
      <trkpt lat="44.58945" lon="2.94194">
        <ele>989.9</ele>
        <time>2022-08-04T12:01:08Z</time>
      </trkpt>
      <trkpt lat="44.58946" lon="2.94193">
        <ele>989.5</ele>
        <time>2022-08-04T12:01:09Z</time>
      </trkpt>
      <trkpt lat="44.58949" lon="2.94189">
        <ele>988.6</ele>
        <time>2022-08-04T12:01:14Z</time>
      </trkpt>
      <trkpt lat="44.58948" lon="2.94186">
        <ele>988.7</ele>
        <time>2022-08-04T12:01:16Z</time>
      </trkpt>
      <trkpt lat="44.58949" lon="2.94182">
        <ele>988.5</ele>
        <time>2022-08-04T12:01:20Z</time>
      </trkpt>
      <trkpt lat="44.58949" lon="2.9418">
        <ele>988.3</ele>
        <time>2022-08-04T12:01:24Z</time>
      </trkpt>
      <trkpt lat="44.58948" lon="2.9418">
        <ele>988.7</ele>
        <time>2022-08-04T12:01:26Z</time>
      </trkpt>
      <trkpt lat="44.58952" lon="2.94183">
        <ele>987.5</ele>
        <time>2022-08-04T12:01:34Z</time>
      </trkpt>
      <trkpt lat="44.58951" lon="2.94182">
        <ele>987.7</ele>
        <time>2022-08-04T12:01:43Z</time>
      </trkpt>
      <trkpt lat="44.58951" lon="2.94182">
        <ele>987.7</ele>
        <time>2022-08-04T12:01:58Z</time>
      </trkpt>
      <trkpt lat="44.58952" lon="2.94181">
        <ele>987.3</ele>
        <time>2022-08-04T12:03:32Z</time>
      </trkpt>
      <trkpt lat="44.58952" lon="2.94177">
        <ele>987.5</ele>
        <time>2022-08-04T12:03:34Z</time>
      </trkpt>
      <trkpt lat="44.58954" lon="2.94175">
        <ele>986.7</ele>
        <time>2022-08-04T12:03:36Z</time>
      </trkpt>
      <trkpt lat="44.58955" lon="2.94174">
        <ele>986.2</ele>
        <time>2022-08-04T12:03:37Z</time>
      </trkpt>
      <trkpt lat="44.58956" lon="2.94173">
        <ele>985.9</ele>
        <time>2022-08-04T12:03:38Z</time>
      </trkpt>
      <trkpt lat="44.58957" lon="2.94171">
        <ele>985.7</ele>
        <time>2022-08-04T12:03:40Z</time>
      </trkpt>
      <trkpt lat="44.58957" lon="2.94168">
        <ele>985.5</ele>
        <time>2022-08-04T12:03:42Z</time>
      </trkpt>
      <trkpt lat="44.58956" lon="2.94165">
        <ele>985.9</ele>
        <time>2022-08-04T12:03:44Z</time>
      </trkpt>
      <trkpt lat="44.58956" lon="2.94164">
        <ele>985.8</ele>
        <time>2022-08-04T12:03:45Z</time>
      </trkpt>
      <trkpt lat="44.58957" lon="2.94158">
        <ele>985.7</ele>
        <time>2022-08-04T12:03:51Z</time>
      </trkpt>
      <trkpt lat="44.58961" lon="2.94153">
        <ele>984.7</ele>
        <time>2022-08-04T12:03:57Z</time>
      </trkpt>
      <trkpt lat="44.58961" lon="2.94152">
        <ele>984.5</ele>
        <time>2022-08-04T12:03:58Z</time>
      </trkpt>
      <trkpt lat="44.58964" lon="2.94147">
        <ele>983.5</ele>
        <time>2022-08-04T12:04:04Z</time>
      </trkpt>
      <trkpt lat="44.58965" lon="2.94144">
        <ele>983.3</ele>
        <time>2022-08-04T12:04:07Z</time>
      </trkpt>
      <trkpt lat="44.58967" lon="2.94141">
        <ele>982.8</ele>
        <time>2022-08-04T12:04:10Z</time>
      </trkpt>
      <trkpt lat="44.5897" lon="2.94138">
        <ele>982</ele>
        <time>2022-08-04T12:04:14Z</time>
      </trkpt>
      <trkpt lat="44.58971" lon="2.94136">
        <ele>981.7</ele>
        <time>2022-08-04T12:04:16Z</time>
      </trkpt>
      <trkpt lat="44.5897" lon="2.9413">
        <ele>982.3</ele>
        <time>2022-08-04T12:04:21Z</time>
      </trkpt>
      <trkpt lat="44.58973" lon="2.94123">
        <ele>982</ele>
        <time>2022-08-04T12:04:28Z</time>
      </trkpt>
      <trkpt lat="44.58973" lon="2.94121">
        <ele>982.2</ele>
        <time>2022-08-04T12:04:29Z</time>
      </trkpt>
      <trkpt lat="44.58974" lon="2.94116">
        <ele>982.1</ele>
        <time>2022-08-04T12:04:35Z</time>
      </trkpt>
      <trkpt lat="44.58975" lon="2.94109">
        <ele>982.2</ele>
        <time>2022-08-04T12:04:41Z</time>
      </trkpt>
      <trkpt lat="44.58975" lon="2.94107">
        <ele>982.2</ele>
        <time>2022-08-04T12:04:43Z</time>
      </trkpt>
      <trkpt lat="44.58977" lon="2.94103">
        <ele>981.4</ele>
        <time>2022-08-04T12:04:48Z</time>
      </trkpt>
      <trkpt lat="44.58977" lon="2.94102">
        <ele>981.2</ele>
        <time>2022-08-04T12:04:49Z</time>
      </trkpt>
      <trkpt lat="44.58978" lon="2.94096">
        <ele>980.9</ele>
        <time>2022-08-04T12:04:55Z</time>
      </trkpt>
      <trkpt lat="44.58979" lon="2.94094">
        <ele>980.7</ele>
        <time>2022-08-04T12:04:57Z</time>
      </trkpt>
      <trkpt lat="44.58981" lon="2.9409">
        <ele>980</ele>
        <time>2022-08-04T12:05:02Z</time>
      </trkpt>
      <trkpt lat="44.58981" lon="2.94087">
        <ele>979.9</ele>
        <time>2022-08-04T12:05:04Z</time>
      </trkpt>
      <trkpt lat="44.58981" lon="2.94082">
        <ele>979.9</ele>
        <time>2022-08-04T12:05:08Z</time>
      </trkpt>
      <trkpt lat="44.58982" lon="2.94081">
        <ele>979.7</ele>
        <time>2022-08-04T12:05:09Z</time>
      </trkpt>
      <trkpt lat="44.58986" lon="2.94077">
        <ele>978.2</ele>
        <time>2022-08-04T12:05:15Z</time>
      </trkpt>
      <trkpt lat="44.5899" lon="2.94072">
        <ele>976.8</ele>
        <time>2022-08-04T12:05:21Z</time>
      </trkpt>
      <trkpt lat="44.5899" lon="2.94071">
        <ele>976.5</ele>
        <time>2022-08-04T12:05:22Z</time>
      </trkpt>
      <trkpt lat="44.58994" lon="2.94067">
        <ele>975</ele>
        <time>2022-08-04T12:05:27Z</time>
      </trkpt>
      <trkpt lat="44.58998" lon="2.94062">
        <ele>973.8</ele>
        <time>2022-08-04T12:05:32Z</time>
      </trkpt>
      <trkpt lat="44.58999" lon="2.94059">
        <ele>973.5</ele>
        <time>2022-08-04T12:05:34Z</time>
      </trkpt>
      <trkpt lat="44.58999" lon="2.94053">
        <ele>973.2</ele>
        <time>2022-08-04T12:05:39Z</time>
      </trkpt>
      <trkpt lat="44.59" lon="2.94052">
        <ele>973</ele>
        <time>2022-08-04T12:05:40Z</time>
      </trkpt>
      <trkpt lat="44.59001" lon="2.9405">
        <ele>972.2</ele>
        <time>2022-08-04T12:05:43Z</time>
      </trkpt>
      <trkpt lat="44.59003" lon="2.94046">
        <ele>971.2</ele>
        <time>2022-08-04T12:05:46Z</time>
      </trkpt>
      <trkpt lat="44.59002" lon="2.94042">
        <ele>971.6</ele>
        <time>2022-08-04T12:05:49Z</time>
      </trkpt>
      <trkpt lat="44.59003" lon="2.94039">
        <ele>971.3</ele>
        <time>2022-08-04T12:05:51Z</time>
      </trkpt>
      <trkpt lat="44.59004" lon="2.94039">
        <ele>970.9</ele>
        <time>2022-08-04T12:05:52Z</time>
      </trkpt>
      <trkpt lat="44.59005" lon="2.94039">
        <ele>970.2</ele>
        <time>2022-08-04T12:05:53Z</time>
      </trkpt>
      <trkpt lat="44.59006" lon="2.94036">
        <ele>969.5</ele>
        <time>2022-08-04T12:05:56Z</time>
      </trkpt>
      <trkpt lat="44.59006" lon="2.94032">
        <ele>969.5</ele>
        <time>2022-08-04T12:05:58Z</time>
      </trkpt>
      <trkpt lat="44.59006" lon="2.9403">
        <ele>969.5</ele>
        <time>2022-08-04T12:05:59Z</time>
      </trkpt>
      <trkpt lat="44.59009" lon="2.94028">
        <ele>968.2</ele>
        <time>2022-08-04T12:06:02Z</time>
      </trkpt>
      <trkpt lat="44.59009" lon="2.94026">
        <ele>968.1</ele>
        <time>2022-08-04T12:06:03Z</time>
      </trkpt>
      <trkpt lat="44.59009" lon="2.94021">
        <ele>967.7</ele>
        <time>2022-08-04T12:06:07Z</time>
      </trkpt>
      <trkpt lat="44.5901" lon="2.94019">
        <ele>967.5</ele>
        <time>2022-08-04T12:06:08Z</time>
      </trkpt>
      <trkpt lat="44.59011" lon="2.94018">
        <ele>966.9</ele>
        <time>2022-08-04T12:06:10Z</time>
      </trkpt>
      <trkpt lat="44.59012" lon="2.94015">
        <ele>966.2</ele>
        <time>2022-08-04T12:06:12Z</time>
      </trkpt>
      <trkpt lat="44.59013" lon="2.94013">
        <ele>966.1</ele>
        <time>2022-08-04T12:06:15Z</time>
      </trkpt>
      <trkpt lat="44.59014" lon="2.94013">
        <ele>965.6</ele>
        <time>2022-08-04T12:06:16Z</time>
      </trkpt>
      <trkpt lat="44.59018" lon="2.94009">
        <ele>963.6</ele>
        <time>2022-08-04T12:06:21Z</time>
      </trkpt>
      <trkpt lat="44.59019" lon="2.94007">
        <ele>963.2</ele>
        <time>2022-08-04T12:06:23Z</time>
      </trkpt>
      <trkpt lat="44.59019" lon="2.94006">
        <ele>963</ele>
        <time>2022-08-04T12:06:24Z</time>
      </trkpt>
      <trkpt lat="44.59021" lon="2.94">
        <ele>962.1</ele>
        <time>2022-08-04T12:06:30Z</time>
      </trkpt>
      <trkpt lat="44.59021" lon="2.93998">
        <ele>962.1</ele>
        <time>2022-08-04T12:06:31Z</time>
      </trkpt>
      <trkpt lat="44.59021" lon="2.93985">
        <ele>961.3</ele>
        <time>2022-08-04T12:06:40Z</time>
      </trkpt>
      <trkpt lat="44.59021" lon="2.93981">
        <ele>961.2</ele>
        <time>2022-08-04T12:06:42Z</time>
      </trkpt>
      <trkpt lat="44.5902" lon="2.93979">
        <ele>961.2</ele>
        <time>2022-08-04T12:06:43Z</time>
      </trkpt>
      <trkpt lat="44.5902" lon="2.93974">
        <ele>961.3</ele>
        <time>2022-08-04T12:06:46Z</time>
      </trkpt>
      <trkpt lat="44.5902" lon="2.9397">
        <ele>961</ele>
        <time>2022-08-04T12:06:49Z</time>
      </trkpt>
      <trkpt lat="44.5902" lon="2.93969">
        <ele>960.8</ele>
        <time>2022-08-04T12:06:50Z</time>
      </trkpt>
      <trkpt lat="44.59021" lon="2.93966">
        <ele>960.5</ele>
        <time>2022-08-04T12:06:53Z</time>
      </trkpt>
      <trkpt lat="44.59021" lon="2.93957">
        <ele>959.8</ele>
        <time>2022-08-04T12:06:59Z</time>
      </trkpt>
      <trkpt lat="44.59021" lon="2.93955">
        <ele>959.9</ele>
        <time>2022-08-04T12:07:00Z</time>
      </trkpt>
      <trkpt lat="44.59022" lon="2.93945">
        <ele>959</ele>
        <time>2022-08-04T12:07:07Z</time>
      </trkpt>
      <trkpt lat="44.59022" lon="2.93944">
        <ele>958.7</ele>
        <time>2022-08-04T12:07:09Z</time>
      </trkpt>
      <trkpt lat="44.59023" lon="2.93943">
        <ele>958.4</ele>
        <time>2022-08-04T12:07:15Z</time>
      </trkpt>
      <trkpt lat="44.59023" lon="2.9394">
        <ele>957.9</ele>
        <time>2022-08-04T12:07:21Z</time>
      </trkpt>
      <trkpt lat="44.59024" lon="2.93934">
        <ele>957.1</ele>
        <time>2022-08-04T12:07:25Z</time>
      </trkpt>
      <trkpt lat="44.59024" lon="2.93933">
        <ele>957.1</ele>
        <time>2022-08-04T12:07:26Z</time>
      </trkpt>
      <trkpt lat="44.59024" lon="2.93932">
        <ele>956.9</ele>
        <time>2022-08-04T12:07:27Z</time>
      </trkpt>
      <trkpt lat="44.59023" lon="2.93925">
        <ele>956.2</ele>
        <time>2022-08-04T12:07:34Z</time>
      </trkpt>
      <trkpt lat="44.59023" lon="2.93924">
        <ele>956.1</ele>
        <time>2022-08-04T12:07:35Z</time>
      </trkpt>
      <trkpt lat="44.59025" lon="2.93917">
        <ele>954.9</ele>
        <time>2022-08-04T12:07:41Z</time>
      </trkpt>
      <trkpt lat="44.59025" lon="2.93916">
        <ele>954.6</ele>
        <time>2022-08-04T12:07:42Z</time>
      </trkpt>
      <trkpt lat="44.59024" lon="2.93912">
        <ele>954.3</ele>
        <time>2022-08-04T12:07:46Z</time>
      </trkpt>
      <trkpt lat="44.59025" lon="2.9391">
        <ele>953.9</ele>
        <time>2022-08-04T12:07:48Z</time>
      </trkpt>
      <trkpt lat="44.59026" lon="2.93905">
        <ele>952.7</ele>
        <time>2022-08-04T12:07:54Z</time>
      </trkpt>
      <trkpt lat="44.59027" lon="2.93903">
        <ele>952.3</ele>
        <time>2022-08-04T12:07:55Z</time>
      </trkpt>
      <trkpt lat="44.59027" lon="2.93902">
        <ele>952.1</ele>
        <time>2022-08-04T12:07:56Z</time>
      </trkpt>
      <trkpt lat="44.59028" lon="2.93896">
        <ele>951.2</ele>
        <time>2022-08-04T12:08:04Z</time>
      </trkpt>
      <trkpt lat="44.59027" lon="2.93894">
        <ele>950.9</ele>
        <time>2022-08-04T12:08:07Z</time>
      </trkpt>
      <trkpt lat="44.59027" lon="2.93893">
        <ele>950.7</ele>
        <time>2022-08-04T12:08:08Z</time>
      </trkpt>
      <trkpt lat="44.59027" lon="2.93888">
        <ele>950.1</ele>
        <time>2022-08-04T12:08:13Z</time>
      </trkpt>
      <trkpt lat="44.59028" lon="2.93884">
        <ele>949.3</ele>
        <time>2022-08-04T12:08:16Z</time>
      </trkpt>
      <trkpt lat="44.59027" lon="2.93878">
        <ele>948.8</ele>
        <time>2022-08-04T12:08:20Z</time>
      </trkpt>
      <trkpt lat="44.59029" lon="2.93874">
        <ele>947.4</ele>
        <time>2022-08-04T12:08:24Z</time>
      </trkpt>
      <trkpt lat="44.5903" lon="2.93871">
        <ele>946.8</ele>
        <time>2022-08-04T12:08:27Z</time>
      </trkpt>
      <trkpt lat="44.59029" lon="2.93867">
        <ele>946.6</ele>
        <time>2022-08-04T12:08:30Z</time>
      </trkpt>
      <trkpt lat="44.59029" lon="2.93864">
        <ele>946</ele>
        <time>2022-08-04T12:08:32Z</time>
      </trkpt>
      <trkpt lat="44.59029" lon="2.93862">
        <ele>945.6</ele>
        <time>2022-08-04T12:08:34Z</time>
      </trkpt>
      <trkpt lat="44.5903" lon="2.9386">
        <ele>945.1</ele>
        <time>2022-08-04T12:08:36Z</time>
      </trkpt>
      <trkpt lat="44.59029" lon="2.93855">
        <ele>944.5</ele>
        <time>2022-08-04T12:08:41Z</time>
      </trkpt>
      <trkpt lat="44.59031" lon="2.9385">
        <ele>943</ele>
        <time>2022-08-04T12:08:47Z</time>
      </trkpt>
      <trkpt lat="44.59031" lon="2.93848">
        <ele>942.5</ele>
        <time>2022-08-04T12:08:49Z</time>
      </trkpt>
      <trkpt lat="44.59032" lon="2.93847">
        <ele>942.2</ele>
        <time>2022-08-04T12:08:50Z</time>
      </trkpt>
      <trkpt lat="44.59033" lon="2.93844">
        <ele>941.4</ele>
        <time>2022-08-04T12:08:54Z</time>
      </trkpt>
      <trkpt lat="44.59033" lon="2.93843">
        <ele>941.1</ele>
        <time>2022-08-04T12:08:55Z</time>
      </trkpt>
      <trkpt lat="44.59035" lon="2.93836">
        <ele>939.4</ele>
        <time>2022-08-04T12:09:01Z</time>
      </trkpt>
      <trkpt lat="44.59035" lon="2.93835">
        <ele>939.2</ele>
        <time>2022-08-04T12:09:02Z</time>
      </trkpt>
      <trkpt lat="44.59037" lon="2.93829">
        <ele>937.5</ele>
        <time>2022-08-04T12:09:07Z</time>
      </trkpt>
      <trkpt lat="44.59038" lon="2.93828">
        <ele>937</ele>
        <time>2022-08-04T12:09:10Z</time>
      </trkpt>
      <trkpt lat="44.59038" lon="2.93824">
        <ele>936.4</ele>
        <time>2022-08-04T12:09:13Z</time>
      </trkpt>
      <trkpt lat="44.59038" lon="2.93822">
        <ele>935.8</ele>
        <time>2022-08-04T12:09:15Z</time>
      </trkpt>
      <trkpt lat="44.59037" lon="2.93817">
        <ele>935</ele>
        <time>2022-08-04T12:09:20Z</time>
      </trkpt>
      <trkpt lat="44.59037" lon="2.93814">
        <ele>934.7</ele>
        <time>2022-08-04T12:09:23Z</time>
      </trkpt>
      <trkpt lat="44.59036" lon="2.93809">
        <ele>933.9</ele>
        <time>2022-08-04T12:09:27Z</time>
      </trkpt>
      <trkpt lat="44.59036" lon="2.93806">
        <ele>933.3</ele>
        <time>2022-08-04T12:09:30Z</time>
      </trkpt>
      <trkpt lat="44.59036" lon="2.93803">
        <ele>932.6</ele>
        <time>2022-08-04T12:09:33Z</time>
      </trkpt>
      <trkpt lat="44.59036" lon="2.93798">
        <ele>931.8</ele>
        <time>2022-08-04T12:09:37Z</time>
      </trkpt>
      <trkpt lat="44.59036" lon="2.93795">
        <ele>931.2</ele>
        <time>2022-08-04T12:09:39Z</time>
      </trkpt>
      <trkpt lat="44.59037" lon="2.93791">
        <ele>930.3</ele>
        <time>2022-08-04T12:09:42Z</time>
      </trkpt>
      <trkpt lat="44.59039" lon="2.93789">
        <ele>929.7</ele>
        <time>2022-08-04T12:09:44Z</time>
      </trkpt>
      <trkpt lat="44.59041" lon="2.93788">
        <ele>929.2</ele>
        <time>2022-08-04T12:09:46Z</time>
      </trkpt>
      <trkpt lat="44.59044" lon="2.93784">
        <ele>928.2</ele>
        <time>2022-08-04T12:09:51Z</time>
      </trkpt>
      <trkpt lat="44.59044" lon="2.93783">
        <ele>928.1</ele>
        <time>2022-08-04T12:09:52Z</time>
      </trkpt>
      <trkpt lat="44.59044" lon="2.93777">
        <ele>927.2</ele>
        <time>2022-08-04T12:09:58Z</time>
      </trkpt>
      <trkpt lat="44.59044" lon="2.93777">
        <ele>927.1</ele>
        <time>2022-08-04T12:09:59Z</time>
      </trkpt>
      <trkpt lat="44.59045" lon="2.93769">
        <ele>926</ele>
        <time>2022-08-04T12:10:06Z</time>
      </trkpt>
      <trkpt lat="44.59044" lon="2.93767">
        <ele>925.7</ele>
        <time>2022-08-04T12:10:08Z</time>
      </trkpt>
      <trkpt lat="44.59043" lon="2.93762">
        <ele>925.2</ele>
        <time>2022-08-04T12:10:12Z</time>
      </trkpt>
      <trkpt lat="44.59042" lon="2.93758">
        <ele>924.6</ele>
        <time>2022-08-04T12:10:15Z</time>
      </trkpt>
      <trkpt lat="44.59043" lon="2.93755">
        <ele>924.2</ele>
        <time>2022-08-04T12:10:18Z</time>
      </trkpt>
      <trkpt lat="44.59039" lon="2.9375">
        <ele>923.6</ele>
        <time>2022-08-04T12:10:26Z</time>
      </trkpt>
      <trkpt lat="44.59038" lon="2.9375">
        <ele>923.7</ele>
        <time>2022-08-04T12:10:27Z</time>
      </trkpt>
      <trkpt lat="44.59037" lon="2.9375">
        <ele>923.7</ele>
        <time>2022-08-04T12:10:29Z</time>
      </trkpt>
      <trkpt lat="44.59035" lon="2.93746">
        <ele>923.1</ele>
        <time>2022-08-04T12:10:33Z</time>
      </trkpt>
      <trkpt lat="44.59035" lon="2.93744">
        <ele>922.8</ele>
        <time>2022-08-04T12:10:34Z</time>
      </trkpt>
      <trkpt lat="44.59034" lon="2.93743">
        <ele>922.6</ele>
        <time>2022-08-04T12:10:35Z</time>
      </trkpt>
      <trkpt lat="44.59034" lon="2.93742">
        <ele>922.4</ele>
        <time>2022-08-04T12:10:36Z</time>
      </trkpt>
      <trkpt lat="44.59034" lon="2.93737">
        <ele>921.7</ele>
        <time>2022-08-04T12:10:40Z</time>
      </trkpt>
      <trkpt lat="44.59034" lon="2.93735">
        <ele>921.3</ele>
        <time>2022-08-04T12:10:41Z</time>
      </trkpt>
      <trkpt lat="44.59033" lon="2.9373">
        <ele>920.5</ele>
        <time>2022-08-04T12:10:45Z</time>
      </trkpt>
      <trkpt lat="44.59034" lon="2.93729">
        <ele>920.3</ele>
        <time>2022-08-04T12:10:47Z</time>
      </trkpt>
      <trkpt lat="44.59035" lon="2.93726">
        <ele>919.8</ele>
        <time>2022-08-04T12:10:51Z</time>
      </trkpt>
      <trkpt lat="44.59035" lon="2.93718">
        <ele>918.6</ele>
        <time>2022-08-04T12:10:57Z</time>
      </trkpt>
      <trkpt lat="44.59036" lon="2.93712">
        <ele>917.7</ele>
        <time>2022-08-04T12:11:02Z</time>
      </trkpt>
      <trkpt lat="44.59036" lon="2.93709">
        <ele>917.3</ele>
        <time>2022-08-04T12:11:04Z</time>
      </trkpt>
      <trkpt lat="44.59039" lon="2.93705">
        <ele>916.7</ele>
        <time>2022-08-04T12:11:08Z</time>
      </trkpt>
      <trkpt lat="44.59039" lon="2.93702">
        <ele>916.2</ele>
        <time>2022-08-04T12:11:10Z</time>
      </trkpt>
      <trkpt lat="44.59036" lon="2.93698">
        <ele>915.5</ele>
        <time>2022-08-04T12:11:16Z</time>
      </trkpt>
      <trkpt lat="44.59036" lon="2.93698">
        <ele>915.5</ele>
        <time>2022-08-04T12:11:17Z</time>
      </trkpt>
      <trkpt lat="44.5904" lon="2.937">
        <ele>915.9</ele>
        <time>2022-08-04T12:11:24Z</time>
      </trkpt>
      <trkpt lat="44.59038" lon="2.93698">
        <ele>915.5</ele>
        <time>2022-08-04T12:11:27Z</time>
      </trkpt>
      <trkpt lat="44.59037" lon="2.93698">
        <ele>915.6</ele>
        <time>2022-08-04T12:11:34Z</time>
      </trkpt>
      <trkpt lat="44.59039" lon="2.93699">
        <ele>915.7</ele>
        <time>2022-08-04T12:11:41Z</time>
      </trkpt>
      <trkpt lat="44.5904" lon="2.93701">
        <ele>916.1</ele>
        <time>2022-08-04T12:11:56Z</time>
      </trkpt>
      <trkpt lat="44.5904" lon="2.93701">
        <ele>916.1</ele>
        <time>2022-08-04T12:11:57Z</time>
      </trkpt>
      <trkpt lat="44.59041" lon="2.937">
        <ele>916</ele>
        <time>2022-08-04T12:12:24Z</time>
      </trkpt>
      <trkpt lat="44.59041" lon="2.93699">
        <ele>915.7</ele>
        <time>2022-08-04T12:12:29Z</time>
      </trkpt>
      <trkpt lat="44.59039" lon="2.93692">
        <ele>914.7</ele>
        <time>2022-08-04T12:12:31Z</time>
      </trkpt>
      <trkpt lat="44.59037" lon="2.93684">
        <ele>913.7</ele>
        <time>2022-08-04T12:12:34Z</time>
      </trkpt>
      <trkpt lat="44.59035" lon="2.93676">
        <ele>912.7</ele>
        <time>2022-08-04T12:12:40Z</time>
      </trkpt>
      <trkpt lat="44.59036" lon="2.93674">
        <ele>912.4</ele>
        <time>2022-08-04T12:12:44Z</time>
      </trkpt>
      <trkpt lat="44.59036" lon="2.9367">
        <ele>911.9</ele>
        <time>2022-08-04T12:12:47Z</time>
      </trkpt>
      <trkpt lat="44.59036" lon="2.93664">
        <ele>911.1</ele>
        <time>2022-08-04T12:12:53Z</time>
      </trkpt>
      <trkpt lat="44.59036" lon="2.93663">
        <ele>911</ele>
        <time>2022-08-04T12:12:54Z</time>
      </trkpt>
      <trkpt lat="44.59035" lon="2.93659">
        <ele>910.6</ele>
        <time>2022-08-04T12:12:58Z</time>
      </trkpt>
      <trkpt lat="44.59036" lon="2.93658">
        <ele>910.5</ele>
        <time>2022-08-04T12:12:59Z</time>
      </trkpt>
      <trkpt lat="44.59034" lon="2.93654">
        <ele>910</ele>
        <time>2022-08-04T12:13:05Z</time>
      </trkpt>
      <trkpt lat="44.59034" lon="2.93646">
        <ele>909.2</ele>
        <time>2022-08-04T12:13:11Z</time>
      </trkpt>
      <trkpt lat="44.59034" lon="2.93645">
        <ele>909.1</ele>
        <time>2022-08-04T12:13:12Z</time>
      </trkpt>
      <trkpt lat="44.59034" lon="2.9364">
        <ele>908.5</ele>
        <time>2022-08-04T12:13:16Z</time>
      </trkpt>
      <trkpt lat="44.59034" lon="2.93634">
        <ele>907.8</ele>
        <time>2022-08-04T12:13:21Z</time>
      </trkpt>
      <trkpt lat="44.59034" lon="2.93633">
        <ele>907.7</ele>
        <time>2022-08-04T12:13:22Z</time>
      </trkpt>
      <trkpt lat="44.59034" lon="2.93632">
        <ele>907.5</ele>
        <time>2022-08-04T12:13:23Z</time>
      </trkpt>
      <trkpt lat="44.59035" lon="2.93623">
        <ele>906.6</ele>
        <time>2022-08-04T12:13:29Z</time>
      </trkpt>
      <trkpt lat="44.59035" lon="2.93619">
        <ele>906</ele>
        <time>2022-08-04T12:13:32Z</time>
      </trkpt>
      <trkpt lat="44.59034" lon="2.93617">
        <ele>905.9</ele>
        <time>2022-08-04T12:13:33Z</time>
      </trkpt>
      <trkpt lat="44.59034" lon="2.93613">
        <ele>905.6</ele>
        <time>2022-08-04T12:13:35Z</time>
      </trkpt>
      <trkpt lat="44.59034" lon="2.93605">
        <ele>904.7</ele>
        <time>2022-08-04T12:13:40Z</time>
      </trkpt>
      <trkpt lat="44.59033" lon="2.93601">
        <ele>904.3</ele>
        <time>2022-08-04T12:13:43Z</time>
      </trkpt>
      <trkpt lat="44.59033" lon="2.936">
        <ele>904.2</ele>
        <time>2022-08-04T12:13:44Z</time>
      </trkpt>
      <trkpt lat="44.59035" lon="2.93599">
        <ele>903.9</ele>
        <time>2022-08-04T12:13:46Z</time>
      </trkpt>
      <trkpt lat="44.59035" lon="2.93598">
        <ele>903.8</ele>
        <time>2022-08-04T12:13:47Z</time>
      </trkpt>
      <trkpt lat="44.59036" lon="2.93595">
        <ele>903.5</ele>
        <time>2022-08-04T12:13:55Z</time>
      </trkpt>
      <trkpt lat="44.59036" lon="2.93595">
        <ele>903.3</ele>
        <time>2022-08-04T12:14:03Z</time>
      </trkpt>
      <trkpt lat="44.59036" lon="2.93595">
        <ele>903.3</ele>
        <time>2022-08-04T12:14:04Z</time>
      </trkpt>
      <trkpt lat="44.59034" lon="2.93585">
        <ele>902.5</ele>
        <time>2022-08-04T12:14:29Z</time>
      </trkpt>
      <trkpt lat="44.59033" lon="2.93581">
        <ele>901.9</ele>
        <time>2022-08-04T12:14:32Z</time>
      </trkpt>
      <trkpt lat="44.59033" lon="2.9358">
        <ele>901.9</ele>
        <time>2022-08-04T12:14:34Z</time>
      </trkpt>
      <trkpt lat="44.59032" lon="2.93575">
        <ele>901.1</ele>
        <time>2022-08-04T12:14:40Z</time>
      </trkpt>
      <trkpt lat="44.5903" lon="2.93571">
        <ele>900.6</ele>
        <time>2022-08-04T12:14:42Z</time>
      </trkpt>
      <trkpt lat="44.59029" lon="2.9357">
        <ele>900.3</ele>
        <time>2022-08-04T12:14:43Z</time>
      </trkpt>
      <trkpt lat="44.59028" lon="2.93565">
        <ele>899.6</ele>
        <time>2022-08-04T12:14:47Z</time>
      </trkpt>
      <trkpt lat="44.59027" lon="2.9356">
        <ele>898.9</ele>
        <time>2022-08-04T12:14:50Z</time>
      </trkpt>
      <trkpt lat="44.59028" lon="2.93557">
        <ele>898.2</ele>
        <time>2022-08-04T12:14:54Z</time>
      </trkpt>
      <trkpt lat="44.59027" lon="2.93552">
        <ele>897.4</ele>
        <time>2022-08-04T12:15:00Z</time>
      </trkpt>
      <trkpt lat="44.59026" lon="2.9355">
        <ele>897.1</ele>
        <time>2022-08-04T12:15:02Z</time>
      </trkpt>
      <trkpt lat="44.59026" lon="2.93548">
        <ele>896.7</ele>
        <time>2022-08-04T12:15:06Z</time>
      </trkpt>
      <trkpt lat="44.59026" lon="2.93547">
        <ele>896.4</ele>
        <time>2022-08-04T12:15:07Z</time>
      </trkpt>
      <trkpt lat="44.59027" lon="2.93543">
        <ele>895.4</ele>
        <time>2022-08-04T12:15:13Z</time>
      </trkpt>
      <trkpt lat="44.59028" lon="2.93539">
        <ele>894.4</ele>
        <time>2022-08-04T12:15:17Z</time>
      </trkpt>
      <trkpt lat="44.59029" lon="2.93537">
        <ele>893.9</ele>
        <time>2022-08-04T12:15:19Z</time>
      </trkpt>
      <trkpt lat="44.5903" lon="2.93537">
        <ele>893.7</ele>
        <time>2022-08-04T12:15:20Z</time>
      </trkpt>
      <trkpt lat="44.5903" lon="2.93533">
        <ele>892.8</ele>
        <time>2022-08-04T12:15:26Z</time>
      </trkpt>
      <trkpt lat="44.5903" lon="2.93532">
        <ele>892.6</ele>
        <time>2022-08-04T12:15:27Z</time>
      </trkpt>
      <trkpt lat="44.59029" lon="2.93531">
        <ele>892.4</ele>
        <time>2022-08-04T12:15:28Z</time>
      </trkpt>
      <trkpt lat="44.59028" lon="2.93526">
        <ele>891.7</ele>
        <time>2022-08-04T12:15:32Z</time>
      </trkpt>
      <trkpt lat="44.59027" lon="2.93522">
        <ele>891</ele>
        <time>2022-08-04T12:15:36Z</time>
      </trkpt>
      <trkpt lat="44.59026" lon="2.9352">
        <ele>890.8</ele>
        <time>2022-08-04T12:15:38Z</time>
      </trkpt>
      <trkpt lat="44.59024" lon="2.9352">
        <ele>891</ele>
        <time>2022-08-04T12:15:40Z</time>
      </trkpt>
      <trkpt lat="44.59018" lon="2.93519">
        <ele>892.1</ele>
        <time>2022-08-04T12:15:49Z</time>
      </trkpt>
      <trkpt lat="44.59017" lon="2.93518">
        <ele>892.2</ele>
        <time>2022-08-04T12:15:50Z</time>
      </trkpt>
      <trkpt lat="44.59012" lon="2.93516">
        <ele>892.8</ele>
        <time>2022-08-04T12:15:56Z</time>
      </trkpt>
      <trkpt lat="44.59012" lon="2.93515">
        <ele>892.6</ele>
        <time>2022-08-04T12:15:57Z</time>
      </trkpt>
      <trkpt lat="44.59011" lon="2.93512">
        <ele>892.3</ele>
        <time>2022-08-04T12:16:00Z</time>
      </trkpt>
      <trkpt lat="44.59007" lon="2.93505">
        <ele>892</ele>
        <time>2022-08-04T12:16:03Z</time>
      </trkpt>
      <trkpt lat="44.59007" lon="2.93502">
        <ele>891.6</ele>
        <time>2022-08-04T12:16:06Z</time>
      </trkpt>
      <trkpt lat="44.59007" lon="2.935">
        <ele>891.3</ele>
        <time>2022-08-04T12:16:08Z</time>
      </trkpt>
      <trkpt lat="44.59006" lon="2.93491">
        <ele>890.6</ele>
        <time>2022-08-04T12:16:14Z</time>
      </trkpt>
      <trkpt lat="44.59005" lon="2.93486">
        <ele>890.1</ele>
        <time>2022-08-04T12:16:18Z</time>
      </trkpt>
      <trkpt lat="44.59006" lon="2.93484">
        <ele>889.8</ele>
        <time>2022-08-04T12:16:20Z</time>
      </trkpt>
      <trkpt lat="44.59006" lon="2.93479">
        <ele>889.1</ele>
        <time>2022-08-04T12:16:24Z</time>
      </trkpt>
      <trkpt lat="44.59007" lon="2.93477">
        <ele>888.7</ele>
        <time>2022-08-04T12:16:25Z</time>
      </trkpt>
      <trkpt lat="44.59007" lon="2.93468">
        <ele>887.7</ele>
        <time>2022-08-04T12:16:31Z</time>
      </trkpt>
      <trkpt lat="44.59007" lon="2.93465">
        <ele>887.5</ele>
        <time>2022-08-04T12:16:33Z</time>
      </trkpt>
      <trkpt lat="44.59007" lon="2.93464">
        <ele>887.4</ele>
        <time>2022-08-04T12:16:34Z</time>
      </trkpt>
      <trkpt lat="44.59007" lon="2.93459">
        <ele>886.9</ele>
        <time>2022-08-04T12:16:38Z</time>
      </trkpt>
      <trkpt lat="44.5901" lon="2.93451">
        <ele>885.5</ele>
        <time>2022-08-04T12:16:44Z</time>
      </trkpt>
      <trkpt lat="44.5901" lon="2.93449">
        <ele>885.1</ele>
        <time>2022-08-04T12:16:45Z</time>
      </trkpt>
      <trkpt lat="44.5901" lon="2.9344">
        <ele>884.5</ele>
        <time>2022-08-04T12:16:52Z</time>
      </trkpt>
      <trkpt lat="44.5901" lon="2.93439">
        <ele>884.6</ele>
        <time>2022-08-04T12:16:53Z</time>
      </trkpt>
      <trkpt lat="44.5901" lon="2.93438">
        <ele>884.7</ele>
        <time>2022-08-04T12:16:54Z</time>
      </trkpt>
      <trkpt lat="44.5901" lon="2.93433">
        <ele>884.4</ele>
        <time>2022-08-04T12:16:59Z</time>
      </trkpt>
      <trkpt lat="44.59011" lon="2.9343">
        <ele>884.1</ele>
        <time>2022-08-04T12:17:01Z</time>
      </trkpt>
      <trkpt lat="44.59013" lon="2.93422">
        <ele>883.2</ele>
        <time>2022-08-04T12:17:07Z</time>
      </trkpt>
      <trkpt lat="44.59013" lon="2.93415">
        <ele>882.6</ele>
        <time>2022-08-04T12:17:14Z</time>
      </trkpt>
      <trkpt lat="44.59011" lon="2.9341">
        <ele>883.2</ele>
        <time>2022-08-04T12:17:19Z</time>
      </trkpt>
      <trkpt lat="44.59011" lon="2.93406">
        <ele>883.5</ele>
        <time>2022-08-04T12:17:26Z</time>
      </trkpt>
      <trkpt lat="44.59012" lon="2.93406">
        <ele>883</ele>
        <time>2022-08-04T12:17:28Z</time>
      </trkpt>
      <trkpt lat="44.59011" lon="2.93401">
        <ele>883.1</ele>
        <time>2022-08-04T12:17:33Z</time>
      </trkpt>
      <trkpt lat="44.59011" lon="2.93397">
        <ele>882.9</ele>
        <time>2022-08-04T12:17:38Z</time>
      </trkpt>
      <trkpt lat="44.59012" lon="2.93395">
        <ele>882.4</ele>
        <time>2022-08-04T12:17:40Z</time>
      </trkpt>
      <trkpt lat="44.59013" lon="2.93395">
        <ele>882</ele>
        <time>2022-08-04T12:17:41Z</time>
      </trkpt>
      <trkpt lat="44.59014" lon="2.93389">
        <ele>881.5</ele>
        <time>2022-08-04T12:17:46Z</time>
      </trkpt>
      <trkpt lat="44.59014" lon="2.93388">
        <ele>881.4</ele>
        <time>2022-08-04T12:17:47Z</time>
      </trkpt>
      <trkpt lat="44.59014" lon="2.93383">
        <ele>881.3</ele>
        <time>2022-08-04T12:17:51Z</time>
      </trkpt>
      <trkpt lat="44.59013" lon="2.93376">
        <ele>881.6</ele>
        <time>2022-08-04T12:17:55Z</time>
      </trkpt>
      <trkpt lat="44.59013" lon="2.9337">
        <ele>881.4</ele>
        <time>2022-08-04T12:18:01Z</time>
      </trkpt>
      <trkpt lat="44.59013" lon="2.93364">
        <ele>881.3</ele>
        <time>2022-08-04T12:18:05Z</time>
      </trkpt>
      <trkpt lat="44.59013" lon="2.93361">
        <ele>881.3</ele>
        <time>2022-08-04T12:18:07Z</time>
      </trkpt>
      <trkpt lat="44.59013" lon="2.9336">
        <ele>881.3</ele>
        <time>2022-08-04T12:18:08Z</time>
      </trkpt>
      <trkpt lat="44.59013" lon="2.93351">
        <ele>880.7</ele>
        <time>2022-08-04T12:18:14Z</time>
      </trkpt>
      <trkpt lat="44.59014" lon="2.93344">
        <ele>879.4</ele>
        <time>2022-08-04T12:18:18Z</time>
      </trkpt>
      <trkpt lat="44.59014" lon="2.93338">
        <ele>879.1</ele>
        <time>2022-08-04T12:18:23Z</time>
      </trkpt>
      <trkpt lat="44.59012" lon="2.93334">
        <ele>879.2</ele>
        <time>2022-08-04T12:18:27Z</time>
      </trkpt>
      <trkpt lat="44.59013" lon="2.93332">
        <ele>878.8</ele>
        <time>2022-08-04T12:18:29Z</time>
      </trkpt>
      <trkpt lat="44.59013" lon="2.93321">
        <ele>877</ele>
        <time>2022-08-04T12:18:36Z</time>
      </trkpt>
      <trkpt lat="44.59015" lon="2.93317">
        <ele>875.6</ele>
        <time>2022-08-04T12:18:40Z</time>
      </trkpt>
      <trkpt lat="44.59016" lon="2.93317">
        <ele>875.1</ele>
        <time>2022-08-04T12:18:42Z</time>
      </trkpt>
      <trkpt lat="44.59016" lon="2.93316">
        <ele>875</ele>
        <time>2022-08-04T12:18:46Z</time>
      </trkpt>
      <trkpt lat="44.59016" lon="2.93315">
        <ele>875</ele>
        <time>2022-08-04T12:18:47Z</time>
      </trkpt>
      <trkpt lat="44.59015" lon="2.93311">
        <ele>874.9</ele>
        <time>2022-08-04T12:18:53Z</time>
      </trkpt>
      <trkpt lat="44.59013" lon="2.93299">
        <ele>873.9</ele>
        <time>2022-08-04T12:19:00Z</time>
      </trkpt>
      <trkpt lat="44.59012" lon="2.93298">
        <ele>873.9</ele>
        <time>2022-08-04T12:19:01Z</time>
      </trkpt>
      <trkpt lat="44.59012" lon="2.93296">
        <ele>873.9</ele>
        <time>2022-08-04T12:19:02Z</time>
      </trkpt>
      <trkpt lat="44.59008" lon="2.93289">
        <ele>874.4</ele>
        <time>2022-08-04T12:19:07Z</time>
      </trkpt>
      <trkpt lat="44.5901" lon="2.93281">
        <ele>872.1</ele>
        <time>2022-08-04T12:19:13Z</time>
      </trkpt>
      <trkpt lat="44.59009" lon="2.9328">
        <ele>872.1</ele>
        <time>2022-08-04T12:19:14Z</time>
      </trkpt>
      <trkpt lat="44.59007" lon="2.93275">
        <ele>872.3</ele>
        <time>2022-08-04T12:19:18Z</time>
      </trkpt>
      <trkpt lat="44.59006" lon="2.93273">
        <ele>872.5</ele>
        <time>2022-08-04T12:19:20Z</time>
      </trkpt>
      <trkpt lat="44.59006" lon="2.9327">
        <ele>871.7</ele>
        <time>2022-08-04T12:19:23Z</time>
      </trkpt>
      <trkpt lat="44.59006" lon="2.93268">
        <ele>871.5</ele>
        <time>2022-08-04T12:19:24Z</time>
      </trkpt>
      <trkpt lat="44.59006" lon="2.93267">
        <ele>871.3</ele>
        <time>2022-08-04T12:19:25Z</time>
      </trkpt>
      <trkpt lat="44.59004" lon="2.93264">
        <ele>871.6</ele>
        <time>2022-08-04T12:19:30Z</time>
      </trkpt>
      <trkpt lat="44.59006" lon="2.93263">
        <ele>870.5</ele>
        <time>2022-08-04T12:19:38Z</time>
      </trkpt>
      <trkpt lat="44.59007" lon="2.93262">
        <ele>870.1</ele>
        <time>2022-08-04T12:19:45Z</time>
      </trkpt>
      <trkpt lat="44.59006" lon="2.9326">
        <ele>869.9</ele>
        <time>2022-08-04T12:19:54Z</time>
      </trkpt>
      <trkpt lat="44.59007" lon="2.93259">
        <ele>869.5</ele>
        <time>2022-08-04T12:19:55Z</time>
      </trkpt>
      <trkpt lat="44.59006" lon="2.93253">
        <ele>868.6</ele>
        <time>2022-08-04T12:19:58Z</time>
      </trkpt>
      <trkpt lat="44.59006" lon="2.93247">
        <ele>867.3</ele>
        <time>2022-08-04T12:20:02Z</time>
      </trkpt>
      <trkpt lat="44.59006" lon="2.93245">
        <ele>867.1</ele>
        <time>2022-08-04T12:20:03Z</time>
      </trkpt>
      <trkpt lat="44.59005" lon="2.9324">
        <ele>866.8</ele>
        <time>2022-08-04T12:20:08Z</time>
      </trkpt>
      <trkpt lat="44.59004" lon="2.9324">
        <ele>867</ele>
        <time>2022-08-04T12:20:09Z</time>
      </trkpt>
      <trkpt lat="44.59004" lon="2.93237">
        <ele>866.2</ele>
        <time>2022-08-04T12:20:11Z</time>
      </trkpt>
      <trkpt lat="44.59005" lon="2.93236">
        <ele>865.7</ele>
        <time>2022-08-04T12:20:12Z</time>
      </trkpt>
      <trkpt lat="44.59003" lon="2.93233">
        <ele>865.8</ele>
        <time>2022-08-04T12:20:16Z</time>
      </trkpt>
      <trkpt lat="44.59007" lon="2.93235">
        <ele>864.5</ele>
        <time>2022-08-04T12:20:22Z</time>
      </trkpt>
      <trkpt lat="44.59007" lon="2.93234">
        <ele>864.5</ele>
        <time>2022-08-04T12:20:28Z</time>
      </trkpt>
      <trkpt lat="44.59007" lon="2.93234">
        <ele>864.5</ele>
        <time>2022-08-04T12:20:34Z</time>
      </trkpt>
      <trkpt lat="44.59006" lon="2.93234">
        <ele>864.6</ele>
        <time>2022-08-04T12:20:42Z</time>
      </trkpt>
      <trkpt lat="44.59004" lon="2.93231">
        <ele>864.9</ele>
        <time>2022-08-04T12:20:44Z</time>
      </trkpt>
      <trkpt lat="44.59003" lon="2.93229">
        <ele>865.1</ele>
        <time>2022-08-04T12:20:45Z</time>
      </trkpt>
      <trkpt lat="44.59002" lon="2.93228">
        <ele>865.1</ele>
        <time>2022-08-04T12:20:46Z</time>
      </trkpt>
      <trkpt lat="44.58999" lon="2.93221">
        <ele>865.4</ele>
        <time>2022-08-04T12:20:50Z</time>
      </trkpt>
      <trkpt lat="44.58998" lon="2.9322">
        <ele>865.6</ele>
        <time>2022-08-04T12:20:52Z</time>
      </trkpt>
      <trkpt lat="44.58995" lon="2.93218">
        <ele>866.4</ele>
        <time>2022-08-04T12:20:55Z</time>
      </trkpt>
      <trkpt lat="44.58994" lon="2.93217">
        <ele>866.7</ele>
        <time>2022-08-04T12:20:56Z</time>
      </trkpt>
      <trkpt lat="44.58993" lon="2.93215">
        <ele>866.9</ele>
        <time>2022-08-04T12:20:58Z</time>
      </trkpt>
      <trkpt lat="44.58991" lon="2.93209">
        <ele>866.9</ele>
        <time>2022-08-04T12:21:05Z</time>
      </trkpt>
      <trkpt lat="44.5899" lon="2.93206">
        <ele>867</ele>
        <time>2022-08-04T12:21:10Z</time>
      </trkpt>
      <trkpt lat="44.58987" lon="2.93204">
        <ele>867.9</ele>
        <time>2022-08-04T12:21:13Z</time>
      </trkpt>
      <trkpt lat="44.58987" lon="2.93203">
        <ele>867.7</ele>
        <time>2022-08-04T12:21:15Z</time>
      </trkpt>
      <trkpt lat="44.58987" lon="2.93202">
        <ele>867.6</ele>
        <time>2022-08-04T12:21:16Z</time>
      </trkpt>
      <trkpt lat="44.58985" lon="2.93199">
        <ele>867.9</ele>
        <time>2022-08-04T12:21:20Z</time>
      </trkpt>
      <trkpt lat="44.58982" lon="2.93192">
        <ele>868.4</ele>
        <time>2022-08-04T12:21:26Z</time>
      </trkpt>
      <trkpt lat="44.5898" lon="2.93187">
        <ele>868.2</ele>
        <time>2022-08-04T12:21:28Z</time>
      </trkpt>
      <trkpt lat="44.58979" lon="2.93183">
        <ele>868.1</ele>
        <time>2022-08-04T12:21:30Z</time>
      </trkpt>
      <trkpt lat="44.58979" lon="2.93181">
        <ele>868</ele>
        <time>2022-08-04T12:21:31Z</time>
      </trkpt>
      <trkpt lat="44.58979" lon="2.93172">
        <ele>866.8</ele>
        <time>2022-08-04T12:21:35Z</time>
      </trkpt>
      <trkpt lat="44.58978" lon="2.93166">
        <ele>866.6</ele>
        <time>2022-08-04T12:21:39Z</time>
      </trkpt>
      <trkpt lat="44.58978" lon="2.93158">
        <ele>866.2</ele>
        <time>2022-08-04T12:21:45Z</time>
      </trkpt>
      <trkpt lat="44.58978" lon="2.93148">
        <ele>865.7</ele>
        <time>2022-08-04T12:21:52Z</time>
      </trkpt>
      <trkpt lat="44.5898" lon="2.93137">
        <ele>864.2</ele>
        <time>2022-08-04T12:21:58Z</time>
      </trkpt>
      <trkpt lat="44.58979" lon="2.93134">
        <ele>864.5</ele>
        <time>2022-08-04T12:21:59Z</time>
      </trkpt>
      <trkpt lat="44.58976" lon="2.93125">
        <ele>865.5</ele>
        <time>2022-08-04T12:22:03Z</time>
      </trkpt>
      <trkpt lat="44.58977" lon="2.93123">
        <ele>865.2</ele>
        <time>2022-08-04T12:22:05Z</time>
      </trkpt>
      <trkpt lat="44.58977" lon="2.93116">
        <ele>864.4</ele>
        <time>2022-08-04T12:22:10Z</time>
      </trkpt>
      <trkpt lat="44.58978" lon="2.9311">
        <ele>863.9</ele>
        <time>2022-08-04T12:22:14Z</time>
      </trkpt>
      <trkpt lat="44.58978" lon="2.93107">
        <ele>864</ele>
        <time>2022-08-04T12:22:16Z</time>
      </trkpt>
      <trkpt lat="44.58977" lon="2.93096">
        <ele>864.6</ele>
        <time>2022-08-04T12:22:22Z</time>
      </trkpt>
      <trkpt lat="44.58978" lon="2.93093">
        <ele>863.7</ele>
        <time>2022-08-04T12:22:25Z</time>
      </trkpt>
      <trkpt lat="44.58978" lon="2.93089">
        <ele>863.7</ele>
        <time>2022-08-04T12:22:27Z</time>
      </trkpt>
      <trkpt lat="44.58978" lon="2.93083">
        <ele>863.9</ele>
        <time>2022-08-04T12:22:31Z</time>
      </trkpt>
      <trkpt lat="44.58978" lon="2.93074">
        <ele>864.1</ele>
        <time>2022-08-04T12:22:37Z</time>
      </trkpt>
      <trkpt lat="44.58977" lon="2.93073">
        <ele>864.3</ele>
        <time>2022-08-04T12:22:38Z</time>
      </trkpt>
      <trkpt lat="44.58979" lon="2.93067">
        <ele>863.4</ele>
        <time>2022-08-04T12:22:42Z</time>
      </trkpt>
      <trkpt lat="44.58979" lon="2.93065">
        <ele>863.4</ele>
        <time>2022-08-04T12:22:44Z</time>
      </trkpt>
      <trkpt lat="44.58979" lon="2.93064">
        <ele>863.3</ele>
        <time>2022-08-04T12:22:45Z</time>
      </trkpt>
      <trkpt lat="44.58975" lon="2.93052">
        <ele>865.5</ele>
        <time>2022-08-04T12:22:52Z</time>
      </trkpt>
      <trkpt lat="44.58975" lon="2.93043">
        <ele>866.2</ele>
        <time>2022-08-04T12:22:58Z</time>
      </trkpt>
      <trkpt lat="44.58974" lon="2.93038">
        <ele>866.8</ele>
        <time>2022-08-04T12:23:01Z</time>
      </trkpt>
      <trkpt lat="44.58974" lon="2.9303">
        <ele>867.1</ele>
        <time>2022-08-04T12:23:05Z</time>
      </trkpt>
      <trkpt lat="44.58976" lon="2.93021">
        <ele>866.3</ele>
        <time>2022-08-04T12:23:12Z</time>
      </trkpt>
      <trkpt lat="44.58977" lon="2.93011">
        <ele>866.2</ele>
        <time>2022-08-04T12:23:17Z</time>
      </trkpt>
      <trkpt lat="44.58977" lon="2.93008">
        <ele>866.2</ele>
        <time>2022-08-04T12:23:19Z</time>
      </trkpt>
      <trkpt lat="44.58977" lon="2.93005">
        <ele>866.2</ele>
        <time>2022-08-04T12:23:21Z</time>
      </trkpt>
      <trkpt lat="44.58978" lon="2.93003">
        <ele>866</ele>
        <time>2022-08-04T12:23:24Z</time>
      </trkpt>
      <trkpt lat="44.5898" lon="2.92993">
        <ele>865.2</ele>
        <time>2022-08-04T12:23:31Z</time>
      </trkpt>
      <trkpt lat="44.58981" lon="2.92989">
        <ele>864.9</ele>
        <time>2022-08-04T12:23:34Z</time>
      </trkpt>
      <trkpt lat="44.58981" lon="2.92987">
        <ele>865.4</ele>
        <time>2022-08-04T12:23:35Z</time>
      </trkpt>
      <trkpt lat="44.5898" lon="2.92983">
        <ele>865.7</ele>
        <time>2022-08-04T12:23:37Z</time>
      </trkpt>
      <trkpt lat="44.58979" lon="2.92971">
        <ele>867</ele>
        <time>2022-08-04T12:23:44Z</time>
      </trkpt>
      <trkpt lat="44.58984" lon="2.92966">
        <ele>864.5</ele>
        <time>2022-08-04T12:23:50Z</time>
      </trkpt>
      <trkpt lat="44.58985" lon="2.92965">
        <ele>864.4</ele>
        <time>2022-08-04T12:23:51Z</time>
      </trkpt>
      <trkpt lat="44.58986" lon="2.9296">
        <ele>863.8</ele>
        <time>2022-08-04T12:23:55Z</time>
      </trkpt>
      <trkpt lat="44.58987" lon="2.92952">
        <ele>863.8</ele>
        <time>2022-08-04T12:24:01Z</time>
      </trkpt>
      <trkpt lat="44.58987" lon="2.9294">
        <ele>863.7</ele>
        <time>2022-08-04T12:24:08Z</time>
      </trkpt>
      <trkpt lat="44.58987" lon="2.92939">
        <ele>863.7</ele>
        <time>2022-08-04T12:24:09Z</time>
      </trkpt>
      <trkpt lat="44.58988" lon="2.92932">
        <ele>862.7</ele>
        <time>2022-08-04T12:24:14Z</time>
      </trkpt>
      <trkpt lat="44.58989" lon="2.92929">
        <ele>862.3</ele>
        <time>2022-08-04T12:24:17Z</time>
      </trkpt>
      <trkpt lat="44.58988" lon="2.92926">
        <ele>862.4</ele>
        <time>2022-08-04T12:24:19Z</time>
      </trkpt>
      <trkpt lat="44.58986" lon="2.92916">
        <ele>862.5</ele>
        <time>2022-08-04T12:24:24Z</time>
      </trkpt>
      <trkpt lat="44.58986" lon="2.92914">
        <ele>862.2</ele>
        <time>2022-08-04T12:24:26Z</time>
      </trkpt>
      <trkpt lat="44.58983" lon="2.92898">
        <ele>861.9</ele>
        <time>2022-08-04T12:24:34Z</time>
      </trkpt>
      <trkpt lat="44.58983" lon="2.92894">
        <ele>861.6</ele>
        <time>2022-08-04T12:24:36Z</time>
      </trkpt>
      <trkpt lat="44.58983" lon="2.9289">
        <ele>861.3</ele>
        <time>2022-08-04T12:24:38Z</time>
      </trkpt>
      <trkpt lat="44.58982" lon="2.92887">
        <ele>861.1</ele>
        <time>2022-08-04T12:24:40Z</time>
      </trkpt>
      <trkpt lat="44.58982" lon="2.92881">
        <ele>860.1</ele>
        <time>2022-08-04T12:24:45Z</time>
      </trkpt>
      <trkpt lat="44.58982" lon="2.9288">
        <ele>860</ele>
        <time>2022-08-04T12:24:46Z</time>
      </trkpt>
      <trkpt lat="44.58982" lon="2.92879">
        <ele>860</ele>
        <time>2022-08-04T12:24:47Z</time>
      </trkpt>
      <trkpt lat="44.5898" lon="2.9287">
        <ele>859.5</ele>
        <time>2022-08-04T12:24:54Z</time>
      </trkpt>
      <trkpt lat="44.58979" lon="2.92866">
        <ele>859.3</ele>
        <time>2022-08-04T12:24:57Z</time>
      </trkpt>
      <trkpt lat="44.58976" lon="2.9286">
        <ele>860</ele>
        <time>2022-08-04T12:25:02Z</time>
      </trkpt>
      <trkpt lat="44.58975" lon="2.92859">
        <ele>860.2</ele>
        <time>2022-08-04T12:25:03Z</time>
      </trkpt>
      <trkpt lat="44.58972" lon="2.92855">
        <ele>861.1</ele>
        <time>2022-08-04T12:25:07Z</time>
      </trkpt>
      <trkpt lat="44.58971" lon="2.92854">
        <ele>861.6</ele>
        <time>2022-08-04T12:25:08Z</time>
      </trkpt>
      <trkpt lat="44.5897" lon="2.92853">
        <ele>861.7</ele>
        <time>2022-08-04T12:25:10Z</time>
      </trkpt>
      <trkpt lat="44.58971" lon="2.92853">
        <ele>861.2</ele>
        <time>2022-08-04T12:25:12Z</time>
      </trkpt>
      <trkpt lat="44.58971" lon="2.92847">
        <ele>860.4</ele>
        <time>2022-08-04T12:25:18Z</time>
      </trkpt>
      <trkpt lat="44.58969" lon="2.92844">
        <ele>861.1</ele>
        <time>2022-08-04T12:25:25Z</time>
      </trkpt>
      <trkpt lat="44.58967" lon="2.92844">
        <ele>861.7</ele>
        <time>2022-08-04T12:25:27Z</time>
      </trkpt>
      <trkpt lat="44.58964" lon="2.9284">
        <ele>862.9</ele>
        <time>2022-08-04T12:25:31Z</time>
      </trkpt>
      <trkpt lat="44.58963" lon="2.92839">
        <ele>863</ele>
        <time>2022-08-04T12:25:32Z</time>
      </trkpt>
      <trkpt lat="44.58964" lon="2.92838">
        <ele>862.6</ele>
        <time>2022-08-04T12:25:35Z</time>
      </trkpt>
      <trkpt lat="44.58964" lon="2.92833">
        <ele>861.8</ele>
        <time>2022-08-04T12:25:42Z</time>
      </trkpt>
      <trkpt lat="44.58963" lon="2.92828">
        <ele>861.6</ele>
        <time>2022-08-04T12:25:45Z</time>
      </trkpt>
      <trkpt lat="44.58964" lon="2.92824">
        <ele>860.6</ele>
        <time>2022-08-04T12:25:48Z</time>
      </trkpt>
      <trkpt lat="44.58965" lon="2.92823">
        <ele>860.3</ele>
        <time>2022-08-04T12:25:49Z</time>
      </trkpt>
      <trkpt lat="44.58964" lon="2.92821">
        <ele>860.2</ele>
        <time>2022-08-04T12:25:50Z</time>
      </trkpt>
      <trkpt lat="44.58963" lon="2.92811">
        <ele>859.5</ele>
        <time>2022-08-04T12:25:55Z</time>
      </trkpt>
      <trkpt lat="44.58962" lon="2.92808">
        <ele>859.9</ele>
        <time>2022-08-04T12:25:57Z</time>
      </trkpt>
      <trkpt lat="44.58959" lon="2.928">
        <ele>860.8</ele>
        <time>2022-08-04T12:26:01Z</time>
      </trkpt>
      <trkpt lat="44.58957" lon="2.92787">
        <ele>861.3</ele>
        <time>2022-08-04T12:26:08Z</time>
      </trkpt>
      <trkpt lat="44.58953" lon="2.92781">
        <ele>863.1</ele>
        <time>2022-08-04T12:26:12Z</time>
      </trkpt>
      <trkpt lat="44.58953" lon="2.92779">
        <ele>863.3</ele>
        <time>2022-08-04T12:26:13Z</time>
      </trkpt>
      <trkpt lat="44.58953" lon="2.92778">
        <ele>863.3</ele>
        <time>2022-08-04T12:26:14Z</time>
      </trkpt>
      <trkpt lat="44.58951" lon="2.92771">
        <ele>864.3</ele>
        <time>2022-08-04T12:26:20Z</time>
      </trkpt>
      <trkpt lat="44.58951" lon="2.92764">
        <ele>864.3</ele>
        <time>2022-08-04T12:26:24Z</time>
      </trkpt>
      <trkpt lat="44.58952" lon="2.92761">
        <ele>863.5</ele>
        <time>2022-08-04T12:26:26Z</time>
      </trkpt>
      <trkpt lat="44.58951" lon="2.92758">
        <ele>863.9</ele>
        <time>2022-08-04T12:26:28Z</time>
      </trkpt>
      <trkpt lat="44.58951" lon="2.92754">
        <ele>864.3</ele>
        <time>2022-08-04T12:26:30Z</time>
      </trkpt>
      <trkpt lat="44.5895" lon="2.9275">
        <ele>864.5</ele>
        <time>2022-08-04T12:26:32Z</time>
      </trkpt>
      <trkpt lat="44.5895" lon="2.92749">
        <ele>864.5</ele>
        <time>2022-08-04T12:26:33Z</time>
      </trkpt>
      <trkpt lat="44.5895" lon="2.92742">
        <ele>864.5</ele>
        <time>2022-08-04T12:26:37Z</time>
      </trkpt>
      <trkpt lat="44.5895" lon="2.92734">
        <ele>864.8</ele>
        <time>2022-08-04T12:26:42Z</time>
      </trkpt>
      <trkpt lat="44.5895" lon="2.92733">
        <ele>864.5</ele>
        <time>2022-08-04T12:26:43Z</time>
      </trkpt>
      <trkpt lat="44.58949" lon="2.9272">
        <ele>865</ele>
        <time>2022-08-04T12:26:50Z</time>
      </trkpt>
      <trkpt lat="44.5895" lon="2.92713">
        <ele>864</ele>
        <time>2022-08-04T12:26:56Z</time>
      </trkpt>
      <trkpt lat="44.5895" lon="2.92712">
        <ele>864.3</ele>
        <time>2022-08-04T12:26:57Z</time>
      </trkpt>
      <trkpt lat="44.58948" lon="2.92707">
        <ele>865.2</ele>
        <time>2022-08-04T12:27:00Z</time>
      </trkpt>
      <trkpt lat="44.58948" lon="2.92704">
        <ele>865.3</ele>
        <time>2022-08-04T12:27:01Z</time>
      </trkpt>
      <trkpt lat="44.58948" lon="2.92702">
        <ele>865.2</ele>
        <time>2022-08-04T12:27:02Z</time>
      </trkpt>
      <trkpt lat="44.58948" lon="2.92695">
        <ele>864.9</ele>
        <time>2022-08-04T12:27:06Z</time>
      </trkpt>
      <trkpt lat="44.58951" lon="2.92688">
        <ele>862</ele>
        <time>2022-08-04T12:27:11Z</time>
      </trkpt>
      <trkpt lat="44.58951" lon="2.92681">
        <ele>861.8</ele>
        <time>2022-08-04T12:27:14Z</time>
      </trkpt>
      <trkpt lat="44.5895" lon="2.92677">
        <ele>862</ele>
        <time>2022-08-04T12:27:16Z</time>
      </trkpt>
      <trkpt lat="44.5895" lon="2.92675">
        <ele>861.9</ele>
        <time>2022-08-04T12:27:18Z</time>
      </trkpt>
      <trkpt lat="44.5895" lon="2.92668">
        <ele>861.3</ele>
        <time>2022-08-04T12:27:24Z</time>
      </trkpt>
      <trkpt lat="44.5895" lon="2.92665">
        <ele>861.2</ele>
        <time>2022-08-04T12:27:25Z</time>
      </trkpt>
      <trkpt lat="44.58948" lon="2.92656">
        <ele>862.2</ele>
        <time>2022-08-04T12:27:32Z</time>
      </trkpt>
      <trkpt lat="44.58947" lon="2.92654">
        <ele>862.5</ele>
        <time>2022-08-04T12:27:33Z</time>
      </trkpt>
      <trkpt lat="44.58946" lon="2.9265">
        <ele>863</ele>
        <time>2022-08-04T12:27:35Z</time>
      </trkpt>
      <trkpt lat="44.58946" lon="2.92647">
        <ele>862.4</ele>
        <time>2022-08-04T12:27:37Z</time>
      </trkpt>
      <trkpt lat="44.58947" lon="2.92645">
        <ele>861.9</ele>
        <time>2022-08-04T12:27:40Z</time>
      </trkpt>
      <trkpt lat="44.58947" lon="2.92644">
        <ele>862</ele>
        <time>2022-08-04T12:27:41Z</time>
      </trkpt>
      <trkpt lat="44.58948" lon="2.92643">
        <ele>860.9</ele>
        <time>2022-08-04T12:27:48Z</time>
      </trkpt>
      <trkpt lat="44.58947" lon="2.92639">
        <ele>861.3</ele>
        <time>2022-08-04T12:27:55Z</time>
      </trkpt>
      <trkpt lat="44.58945" lon="2.92631">
        <ele>861.4</ele>
        <time>2022-08-04T12:28:03Z</time>
      </trkpt>
      <trkpt lat="44.58952" lon="2.92632">
        <ele>857</ele>
        <time>2022-08-04T12:28:11Z</time>
      </trkpt>
      <trkpt lat="44.58951" lon="2.92631">
        <ele>857.1</ele>
        <time>2022-08-04T12:28:18Z</time>
      </trkpt>
      <trkpt lat="44.58951" lon="2.92632">
        <ele>857.6</ele>
        <time>2022-08-04T12:28:23Z</time>
      </trkpt>
      <trkpt lat="44.58949" lon="2.92631">
        <ele>858.5</ele>
        <time>2022-08-04T12:28:29Z</time>
      </trkpt>
      <trkpt lat="44.58952" lon="2.92626">
        <ele>856.1</ele>
        <time>2022-08-04T12:28:36Z</time>
      </trkpt>
      <trkpt lat="44.58953" lon="2.92621">
        <ele>854.5</ele>
        <time>2022-08-04T12:28:39Z</time>
      </trkpt>
      <trkpt lat="44.58953" lon="2.92615">
        <ele>853.9</ele>
        <time>2022-08-04T12:28:43Z</time>
      </trkpt>
      <trkpt lat="44.58953" lon="2.92614">
        <ele>853.8</ele>
        <time>2022-08-04T12:28:44Z</time>
      </trkpt>
      <trkpt lat="44.58953" lon="2.92611">
        <ele>853.4</ele>
        <time>2022-08-04T12:28:47Z</time>
      </trkpt>
      <trkpt lat="44.58953" lon="2.92611">
        <ele>853</ele>
        <time>2022-08-04T12:28:48Z</time>
      </trkpt>
      <trkpt lat="44.58953" lon="2.9261">
        <ele>852.9</ele>
        <time>2022-08-04T12:28:49Z</time>
      </trkpt>
      <trkpt lat="44.58953" lon="2.92609">
        <ele>853.1</ele>
        <time>2022-08-04T12:28:50Z</time>
      </trkpt>
      <trkpt lat="44.58952" lon="2.92608">
        <ele>853.4</ele>
        <time>2022-08-04T12:28:52Z</time>
      </trkpt>
      <trkpt lat="44.5895" lon="2.926">
        <ele>853.2</ele>
        <time>2022-08-04T12:28:55Z</time>
      </trkpt>
      <trkpt lat="44.58949" lon="2.92598">
        <ele>853.3</ele>
        <time>2022-08-04T12:28:56Z</time>
      </trkpt>
      <trkpt lat="44.58948" lon="2.92597">
        <ele>853.9</ele>
        <time>2022-08-04T12:28:57Z</time>
      </trkpt>
      <trkpt lat="44.58946" lon="2.92593">
        <ele>854.3</ele>
        <time>2022-08-04T12:29:00Z</time>
      </trkpt>
      <trkpt lat="44.58945" lon="2.92588">
        <ele>853.5</ele>
        <time>2022-08-04T12:29:04Z</time>
      </trkpt>
      <trkpt lat="44.58943" lon="2.92583">
        <ele>853.8</ele>
        <time>2022-08-04T12:29:07Z</time>
      </trkpt>
      <trkpt lat="44.5894" lon="2.92579">
        <ele>854.1</ele>
        <time>2022-08-04T12:29:09Z</time>
      </trkpt>
      <trkpt lat="44.58939" lon="2.92576">
        <ele>854</ele>
        <time>2022-08-04T12:29:11Z</time>
      </trkpt>
      <trkpt lat="44.58939" lon="2.92572">
        <ele>853.2</ele>
        <time>2022-08-04T12:29:14Z</time>
      </trkpt>
      <trkpt lat="44.58938" lon="2.92568">
        <ele>852.4</ele>
        <time>2022-08-04T12:29:16Z</time>
      </trkpt>
      <trkpt lat="44.58939" lon="2.92565">
        <ele>850.9</ele>
        <time>2022-08-04T12:29:19Z</time>
      </trkpt>
      <trkpt lat="44.58939" lon="2.92563">
        <ele>850.5</ele>
        <time>2022-08-04T12:29:20Z</time>
      </trkpt>
      <trkpt lat="44.58938" lon="2.92558">
        <ele>849.7</ele>
        <time>2022-08-04T12:29:26Z</time>
      </trkpt>
      <trkpt lat="44.58937" lon="2.92558">
        <ele>850</ele>
        <time>2022-08-04T12:29:28Z</time>
      </trkpt>
      <trkpt lat="44.58936" lon="2.92555">
        <ele>849.7</ele>
        <time>2022-08-04T12:29:30Z</time>
      </trkpt>
      <trkpt lat="44.58935" lon="2.92552">
        <ele>849.5</ele>
        <time>2022-08-04T12:29:32Z</time>
      </trkpt>
      <trkpt lat="44.58934" lon="2.92546">
        <ele>848.4</ele>
        <time>2022-08-04T12:29:37Z</time>
      </trkpt>
      <trkpt lat="44.58933" lon="2.92541">
        <ele>847.2</ele>
        <time>2022-08-04T12:29:42Z</time>
      </trkpt>
      <trkpt lat="44.58933" lon="2.9254">
        <ele>847.1</ele>
        <time>2022-08-04T12:29:43Z</time>
      </trkpt>
      <trkpt lat="44.58932" lon="2.92537">
        <ele>846.5</ele>
        <time>2022-08-04T12:29:47Z</time>
      </trkpt>
      <trkpt lat="44.5893" lon="2.92534">
        <ele>846.8</ele>
        <time>2022-08-04T12:29:51Z</time>
      </trkpt>
      <trkpt lat="44.58929" lon="2.92533">
        <ele>846.9</ele>
        <time>2022-08-04T12:29:52Z</time>
      </trkpt>
      <trkpt lat="44.58925" lon="2.92525">
        <ele>846.8</ele>
        <time>2022-08-04T12:29:58Z</time>
      </trkpt>
      <trkpt lat="44.58924" lon="2.92518">
        <ele>845.4</ele>
        <time>2022-08-04T12:30:02Z</time>
      </trkpt>
      <trkpt lat="44.58923" lon="2.92515">
        <ele>845</ele>
        <time>2022-08-04T12:30:04Z</time>
      </trkpt>
      <trkpt lat="44.58916" lon="2.92504">
        <ele>845.5</ele>
        <time>2022-08-04T12:30:10Z</time>
      </trkpt>
      <trkpt lat="44.58916" lon="2.92503">
        <ele>845.4</ele>
        <time>2022-08-04T12:30:11Z</time>
      </trkpt>
      <trkpt lat="44.58916" lon="2.92499">
        <ele>844</ele>
        <time>2022-08-04T12:30:13Z</time>
      </trkpt>
      <trkpt lat="44.58918" lon="2.92491">
        <ele>840.9</ele>
        <time>2022-08-04T12:30:16Z</time>
      </trkpt>
      <trkpt lat="44.58918" lon="2.92486">
        <ele>840</ele>
        <time>2022-08-04T12:30:19Z</time>
      </trkpt>
      <trkpt lat="44.58915" lon="2.92481">
        <ele>839.8</ele>
        <time>2022-08-04T12:30:22Z</time>
      </trkpt>
      <trkpt lat="44.58913" lon="2.92476">
        <ele>839.9</ele>
        <time>2022-08-04T12:30:26Z</time>
      </trkpt>
      <trkpt lat="44.58915" lon="2.92468">
        <ele>837.3</ele>
        <time>2022-08-04T12:30:30Z</time>
      </trkpt>
      <trkpt lat="44.58913" lon="2.92463">
        <ele>837.1</ele>
        <time>2022-08-04T12:30:34Z</time>
      </trkpt>
      <trkpt lat="44.58912" lon="2.92457">
        <ele>836.6</ele>
        <time>2022-08-04T12:30:38Z</time>
      </trkpt>
      <trkpt lat="44.58908" lon="2.92448">
        <ele>836.6</ele>
        <time>2022-08-04T12:30:42Z</time>
      </trkpt>
      <trkpt lat="44.58909" lon="2.92445">
        <ele>835.7</ele>
        <time>2022-08-04T12:30:44Z</time>
      </trkpt>
      <trkpt lat="44.58909" lon="2.92443">
        <ele>835.1</ele>
        <time>2022-08-04T12:30:46Z</time>
      </trkpt>
      <trkpt lat="44.58908" lon="2.92434">
        <ele>833.5</ele>
        <time>2022-08-04T12:30:52Z</time>
      </trkpt>
      <trkpt lat="44.58907" lon="2.92428">
        <ele>832.7</ele>
        <time>2022-08-04T12:30:55Z</time>
      </trkpt>
      <trkpt lat="44.58908" lon="2.92426">
        <ele>831.8</ele>
        <time>2022-08-04T12:30:57Z</time>
      </trkpt>
      <trkpt lat="44.58907" lon="2.92424">
        <ele>832.2</ele>
        <time>2022-08-04T12:30:58Z</time>
      </trkpt>
      <trkpt lat="44.58906" lon="2.92423">
        <ele>832.6</ele>
        <time>2022-08-04T12:30:59Z</time>
      </trkpt>
      <trkpt lat="44.58905" lon="2.92418">
        <ele>831.8</ele>
        <time>2022-08-04T12:31:03Z</time>
      </trkpt>
      <trkpt lat="44.58905" lon="2.92416">
        <ele>831.5</ele>
        <time>2022-08-04T12:31:05Z</time>
      </trkpt>
      <trkpt lat="44.58905" lon="2.92414">
        <ele>831.4</ele>
        <time>2022-08-04T12:31:07Z</time>
      </trkpt>
      <trkpt lat="44.58905" lon="2.92413">
        <ele>831.2</ele>
        <time>2022-08-04T12:31:08Z</time>
      </trkpt>
      <trkpt lat="44.58905" lon="2.92411">
        <ele>830.4</ele>
        <time>2022-08-04T12:31:15Z</time>
      </trkpt>
      <trkpt lat="44.58905" lon="2.92411">
        <ele>830.6</ele>
        <time>2022-08-04T12:31:25Z</time>
      </trkpt>
      <trkpt lat="44.58905" lon="2.9241">
        <ele>830.1</ele>
        <time>2022-08-04T12:31:26Z</time>
      </trkpt>
      <trkpt lat="44.5891" lon="2.92404">
        <ele>826.2</ele>
        <time>2022-08-04T12:31:31Z</time>
      </trkpt>
      <trkpt lat="44.5891" lon="2.92402">
        <ele>825.9</ele>
        <time>2022-08-04T12:31:32Z</time>
      </trkpt>
      <trkpt lat="44.58909" lon="2.92398">
        <ele>825.3</ele>
        <time>2022-08-04T12:31:37Z</time>
      </trkpt>
      <trkpt lat="44.58909" lon="2.92397">
        <ele>825</ele>
        <time>2022-08-04T12:31:38Z</time>
      </trkpt>
      <trkpt lat="44.5891" lon="2.92396">
        <ele>824.6</ele>
        <time>2022-08-04T12:31:39Z</time>
      </trkpt>
      <trkpt lat="44.5891" lon="2.92392">
        <ele>823.6</ele>
        <time>2022-08-04T12:31:42Z</time>
      </trkpt>
      <trkpt lat="44.5891" lon="2.9239">
        <ele>823.4</ele>
        <time>2022-08-04T12:31:45Z</time>
      </trkpt>
      <trkpt lat="44.58909" lon="2.92389">
        <ele>823.3</ele>
        <time>2022-08-04T12:31:46Z</time>
      </trkpt>
      <trkpt lat="44.58905" lon="2.9238">
        <ele>823.5</ele>
        <time>2022-08-04T12:31:52Z</time>
      </trkpt>
      <trkpt lat="44.58905" lon="2.92376">
        <ele>823.1</ele>
        <time>2022-08-04T12:31:54Z</time>
      </trkpt>
      <trkpt lat="44.58905" lon="2.92373">
        <ele>822.1</ele>
        <time>2022-08-04T12:31:56Z</time>
      </trkpt>
      <trkpt lat="44.58904" lon="2.92369">
        <ele>821.8</ele>
        <time>2022-08-04T12:31:58Z</time>
      </trkpt>
      <trkpt lat="44.58902" lon="2.92365">
        <ele>821.8</ele>
        <time>2022-08-04T12:32:00Z</time>
      </trkpt>
      <trkpt lat="44.589" lon="2.92358">
        <ele>821.4</ele>
        <time>2022-08-04T12:32:06Z</time>
      </trkpt>
      <trkpt lat="44.58899" lon="2.92353">
        <ele>820.6</ele>
        <time>2022-08-04T12:32:09Z</time>
      </trkpt>
      <trkpt lat="44.58898" lon="2.92351">
        <ele>820.4</ele>
        <time>2022-08-04T12:32:11Z</time>
      </trkpt>
      <trkpt lat="44.58897" lon="2.92347">
        <ele>820</ele>
        <time>2022-08-04T12:32:14Z</time>
      </trkpt>
      <trkpt lat="44.58897" lon="2.92344">
        <ele>819.2</ele>
        <time>2022-08-04T12:32:16Z</time>
      </trkpt>
      <trkpt lat="44.58897" lon="2.92343">
        <ele>819.1</ele>
        <time>2022-08-04T12:32:17Z</time>
      </trkpt>
      <trkpt lat="44.58896" lon="2.92341">
        <ele>818.9</ele>
        <time>2022-08-04T12:32:20Z</time>
      </trkpt>
      <trkpt lat="44.58895" lon="2.92338">
        <ele>818.5</ele>
        <time>2022-08-04T12:32:22Z</time>
      </trkpt>
      <trkpt lat="44.58894" lon="2.92335">
        <ele>818.2</ele>
        <time>2022-08-04T12:32:24Z</time>
      </trkpt>
      <trkpt lat="44.58893" lon="2.92327">
        <ele>816.8</ele>
        <time>2022-08-04T12:32:28Z</time>
      </trkpt>
      <trkpt lat="44.58892" lon="2.92321">
        <ele>815.7</ele>
        <time>2022-08-04T12:32:31Z</time>
      </trkpt>
      <trkpt lat="44.58892" lon="2.92319">
        <ele>815.3</ele>
        <time>2022-08-04T12:32:35Z</time>
      </trkpt>
      <trkpt lat="44.58891" lon="2.92318">
        <ele>815.2</ele>
        <time>2022-08-04T12:32:36Z</time>
      </trkpt>
      <trkpt lat="44.5889" lon="2.92315">
        <ele>815.2</ele>
        <time>2022-08-04T12:32:38Z</time>
      </trkpt>
      <trkpt lat="44.58886" lon="2.92311">
        <ele>815.6</ele>
        <time>2022-08-04T12:32:41Z</time>
      </trkpt>
      <trkpt lat="44.58885" lon="2.92309">
        <ele>815.8</ele>
        <time>2022-08-04T12:32:42Z</time>
      </trkpt>
      <trkpt lat="44.58881" lon="2.923">
        <ele>815.4</ele>
        <time>2022-08-04T12:32:50Z</time>
      </trkpt>
      <trkpt lat="44.58881" lon="2.92298">
        <ele>815.1</ele>
        <time>2022-08-04T12:32:51Z</time>
      </trkpt>
      <trkpt lat="44.58879" lon="2.92291">
        <ele>814.4</ele>
        <time>2022-08-04T12:32:55Z</time>
      </trkpt>
      <trkpt lat="44.58878" lon="2.92289">
        <ele>814.2</ele>
        <time>2022-08-04T12:32:56Z</time>
      </trkpt>
      <trkpt lat="44.58878" lon="2.92287">
        <ele>813.9</ele>
        <time>2022-08-04T12:32:57Z</time>
      </trkpt>
      <trkpt lat="44.58878" lon="2.92284">
        <ele>813.2</ele>
        <time>2022-08-04T12:33:00Z</time>
      </trkpt>
      <trkpt lat="44.58879" lon="2.92281">
        <ele>812.5</ele>
        <time>2022-08-04T12:33:02Z</time>
      </trkpt>
      <trkpt lat="44.58878" lon="2.92279">
        <ele>812.2</ele>
        <time>2022-08-04T12:33:03Z</time>
      </trkpt>
      <trkpt lat="44.58877" lon="2.92273">
        <ele>811.5</ele>
        <time>2022-08-04T12:33:06Z</time>
      </trkpt>
      <trkpt lat="44.58877" lon="2.9227">
        <ele>811.2</ele>
        <time>2022-08-04T12:33:07Z</time>
      </trkpt>
      <trkpt lat="44.58876" lon="2.92267">
        <ele>810.8</ele>
        <time>2022-08-04T12:33:09Z</time>
      </trkpt>
      <trkpt lat="44.58876" lon="2.92261">
        <ele>810</ele>
        <time>2022-08-04T12:33:12Z</time>
      </trkpt>
      <trkpt lat="44.58876" lon="2.92255">
        <ele>809</ele>
        <time>2022-08-04T12:33:15Z</time>
      </trkpt>
      <trkpt lat="44.58875" lon="2.92238">
        <ele>806.9</ele>
        <time>2022-08-04T12:33:24Z</time>
      </trkpt>
      <trkpt lat="44.5887" lon="2.92224">
        <ele>806.1</ele>
        <time>2022-08-04T12:33:33Z</time>
      </trkpt>
      <trkpt lat="44.58869" lon="2.9222">
        <ele>805.8</ele>
        <time>2022-08-04T12:33:36Z</time>
      </trkpt>
      <trkpt lat="44.58863" lon="2.92207">
        <ele>805.5</ele>
        <time>2022-08-04T12:33:45Z</time>
      </trkpt>
      <trkpt lat="44.58861" lon="2.92204">
        <ele>805.4</ele>
        <time>2022-08-04T12:33:47Z</time>
      </trkpt>
      <trkpt lat="44.58859" lon="2.92199">
        <ele>805.1</ele>
        <time>2022-08-04T12:33:51Z</time>
      </trkpt>
      <trkpt lat="44.5886" lon="2.92196">
        <ele>804.5</ele>
        <time>2022-08-04T12:33:53Z</time>
      </trkpt>
      <trkpt lat="44.5886" lon="2.92195">
        <ele>804.3</ele>
        <time>2022-08-04T12:33:54Z</time>
      </trkpt>
      <trkpt lat="44.58865" lon="2.92198">
        <ele>803.6</ele>
        <time>2022-08-04T12:33:58Z</time>
      </trkpt>
      <trkpt lat="44.58866" lon="2.92199">
        <ele>803.6</ele>
        <time>2022-08-04T12:33:59Z</time>
      </trkpt>
      <trkpt lat="44.58866" lon="2.922">
        <ele>803.5</ele>
        <time>2022-08-04T12:34:00Z</time>
      </trkpt>
      <trkpt lat="44.58874" lon="2.9221">
        <ele>802.9</ele>
        <time>2022-08-04T12:34:09Z</time>
      </trkpt>
      <trkpt lat="44.58879" lon="2.92215">
        <ele>802.6</ele>
        <time>2022-08-04T12:34:14Z</time>
      </trkpt>
      <trkpt lat="44.58888" lon="2.92223">
        <ele>801.4</ele>
        <time>2022-08-04T12:34:23Z</time>
      </trkpt>
      <trkpt lat="44.58889" lon="2.92224">
        <ele>801.1</ele>
        <time>2022-08-04T12:34:24Z</time>
      </trkpt>
      <trkpt lat="44.58896" lon="2.92219">
        <ele>799.3</ele>
        <time>2022-08-04T12:34:31Z</time>
      </trkpt>
      <trkpt lat="44.58897" lon="2.92218">
        <ele>799</ele>
        <time>2022-08-04T12:34:32Z</time>
      </trkpt>
      <trkpt lat="44.58896" lon="2.92209">
        <ele>797.8</ele>
        <time>2022-08-04T12:34:38Z</time>
      </trkpt>
      <trkpt lat="44.58896" lon="2.92207">
        <ele>797.7</ele>
        <time>2022-08-04T12:34:39Z</time>
      </trkpt>
      <trkpt lat="44.58893" lon="2.92199">
        <ele>797.1</ele>
        <time>2022-08-04T12:34:45Z</time>
      </trkpt>
      <trkpt lat="44.58889" lon="2.9219">
        <ele>796.5</ele>
        <time>2022-08-04T12:34:51Z</time>
      </trkpt>
      <trkpt lat="44.58886" lon="2.92186">
        <ele>796.8</ele>
        <time>2022-08-04T12:34:55Z</time>
      </trkpt>
      <trkpt lat="44.58883" lon="2.9218">
        <ele>797</ele>
        <time>2022-08-04T12:34:59Z</time>
      </trkpt>
      <trkpt lat="44.5888" lon="2.9217">
        <ele>796.5</ele>
        <time>2022-08-04T12:35:07Z</time>
      </trkpt>
      <trkpt lat="44.58881" lon="2.92167">
        <ele>795.9</ele>
        <time>2022-08-04T12:35:12Z</time>
      </trkpt>
      <trkpt lat="44.58883" lon="2.92164">
        <ele>795.2</ele>
        <time>2022-08-04T12:35:14Z</time>
      </trkpt>
      <trkpt lat="44.58885" lon="2.9216">
        <ele>794.2</ele>
        <time>2022-08-04T12:35:17Z</time>
      </trkpt>
      <trkpt lat="44.58889" lon="2.92153">
        <ele>792.5</ele>
        <time>2022-08-04T12:35:22Z</time>
      </trkpt>
      <trkpt lat="44.5889" lon="2.92152">
        <ele>792.4</ele>
        <time>2022-08-04T12:35:23Z</time>
      </trkpt>
      <trkpt lat="44.589" lon="2.92142">
        <ele>791.6</ele>
        <time>2022-08-04T12:35:34Z</time>
      </trkpt>
      <trkpt lat="44.58906" lon="2.92141">
        <ele>791.7</ele>
        <time>2022-08-04T12:35:41Z</time>
      </trkpt>
      <trkpt lat="44.58907" lon="2.92142">
        <ele>791.8</ele>
        <time>2022-08-04T12:35:43Z</time>
      </trkpt>
      <trkpt lat="44.58909" lon="2.92145">
        <ele>792.1</ele>
        <time>2022-08-04T12:35:50Z</time>
      </trkpt>
      <trkpt lat="44.58908" lon="2.92146">
        <ele>792.1</ele>
        <time>2022-08-04T12:35:55Z</time>
      </trkpt>
      <trkpt lat="44.58908" lon="2.92144">
        <ele>792</ele>
        <time>2022-08-04T12:35:56Z</time>
      </trkpt>
      <trkpt lat="44.58908" lon="2.9214">
        <ele>791.7</ele>
        <time>2022-08-04T12:36:03Z</time>
      </trkpt>
      <trkpt lat="44.58907" lon="2.9214">
        <ele>791.7</ele>
        <time>2022-08-04T12:36:09Z</time>
      </trkpt>
      <trkpt lat="44.58906" lon="2.92138">
        <ele>791.6</ele>
        <time>2022-08-04T12:36:12Z</time>
      </trkpt>
      <trkpt lat="44.58907" lon="2.92138">
        <ele>791.6</ele>
        <time>2022-08-04T12:36:20Z</time>
      </trkpt>
      <trkpt lat="44.58911" lon="2.92141">
        <ele>791.9</ele>
        <time>2022-08-04T12:36:24Z</time>
      </trkpt>
      <trkpt lat="44.58917" lon="2.92144">
        <ele>792.2</ele>
        <time>2022-08-04T12:36:28Z</time>
      </trkpt>
      <trkpt lat="44.58922" lon="2.92145">
        <ele>792.7</ele>
        <time>2022-08-04T12:36:32Z</time>
      </trkpt>
      <trkpt lat="44.58927" lon="2.92146">
        <ele>793.3</ele>
        <time>2022-08-04T12:36:36Z</time>
      </trkpt>
      <trkpt lat="44.58936" lon="2.92148">
        <ele>794.2</ele>
        <time>2022-08-04T12:36:43Z</time>
      </trkpt>
      <trkpt lat="44.58938" lon="2.92148">
        <ele>794.4</ele>
        <time>2022-08-04T12:36:45Z</time>
      </trkpt>
      <trkpt lat="44.58947" lon="2.92148">
        <ele>795.3</ele>
        <time>2022-08-04T12:36:52Z</time>
      </trkpt>
      <trkpt lat="44.58948" lon="2.92148">
        <ele>795.5</ele>
        <time>2022-08-04T12:36:53Z</time>
      </trkpt>
      <trkpt lat="44.58953" lon="2.92146">
        <ele>796.2</ele>
        <time>2022-08-04T12:36:57Z</time>
      </trkpt>
      <trkpt lat="44.58956" lon="2.92144">
        <ele>796.6</ele>
        <time>2022-08-04T12:37:00Z</time>
      </trkpt>
      <trkpt lat="44.58957" lon="2.92142">
        <ele>796.8</ele>
        <time>2022-08-04T12:37:02Z</time>
      </trkpt>
      <trkpt lat="44.58965" lon="2.92132">
        <ele>797.8</ele>
        <time>2022-08-04T12:37:11Z</time>
      </trkpt>
      <trkpt lat="44.58965" lon="2.92131">
        <ele>798</ele>
        <time>2022-08-04T12:37:12Z</time>
      </trkpt>
      <trkpt lat="44.5897" lon="2.92129">
        <ele>798.7</ele>
        <time>2022-08-04T12:37:17Z</time>
      </trkpt>
      <trkpt lat="44.58971" lon="2.9213">
        <ele>798.8</ele>
        <time>2022-08-04T12:37:18Z</time>
      </trkpt>
      <trkpt lat="44.58972" lon="2.92133">
        <ele>799</ele>
        <time>2022-08-04T12:37:20Z</time>
      </trkpt>
      <trkpt lat="44.58974" lon="2.92134">
        <ele>799.3</ele>
        <time>2022-08-04T12:37:22Z</time>
      </trkpt>
      <trkpt lat="44.58975" lon="2.92135">
        <ele>799.6</ele>
        <time>2022-08-04T12:37:24Z</time>
      </trkpt>
      <trkpt lat="44.58977" lon="2.92137">
        <ele>799.9</ele>
        <time>2022-08-04T12:37:27Z</time>
      </trkpt>
      <trkpt lat="44.58977" lon="2.92138">
        <ele>800.1</ele>
        <time>2022-08-04T12:37:28Z</time>
      </trkpt>
      <trkpt lat="44.58981" lon="2.9214">
        <ele>800.9</ele>
        <time>2022-08-04T12:37:33Z</time>
      </trkpt>
      <trkpt lat="44.58982" lon="2.9214">
        <ele>801.2</ele>
        <time>2022-08-04T12:37:35Z</time>
      </trkpt>
      <trkpt lat="44.58987" lon="2.92139">
        <ele>802.1</ele>
        <time>2022-08-04T12:37:40Z</time>
      </trkpt>
      <trkpt lat="44.58989" lon="2.92137">
        <ele>802.5</ele>
        <time>2022-08-04T12:37:43Z</time>
      </trkpt>
      <trkpt lat="44.5899" lon="2.92136">
        <ele>802.8</ele>
        <time>2022-08-04T12:37:45Z</time>
      </trkpt>
      <trkpt lat="44.58992" lon="2.92136">
        <ele>803.3</ele>
        <time>2022-08-04T12:37:47Z</time>
      </trkpt>
      <trkpt lat="44.58997" lon="2.92134">
        <ele>804.2</ele>
        <time>2022-08-04T12:37:51Z</time>
      </trkpt>
      <trkpt lat="44.58997" lon="2.92132">
        <ele>804.2</ele>
        <time>2022-08-04T12:37:52Z</time>
      </trkpt>
      <trkpt lat="44.58999" lon="2.92126">
        <ele>804.3</ele>
        <time>2022-08-04T12:37:56Z</time>
      </trkpt>
      <trkpt lat="44.59001" lon="2.92124">
        <ele>804.6</ele>
        <time>2022-08-04T12:37:58Z</time>
      </trkpt>
      <trkpt lat="44.59002" lon="2.92122">
        <ele>804.7</ele>
        <time>2022-08-04T12:38:00Z</time>
      </trkpt>
      <trkpt lat="44.59003" lon="2.92122">
        <ele>804.8</ele>
        <time>2022-08-04T12:38:01Z</time>
      </trkpt>
      <trkpt lat="44.59003" lon="2.92121">
        <ele>804.9</ele>
        <time>2022-08-04T12:38:02Z</time>
      </trkpt>
      <trkpt lat="44.59005" lon="2.92119">
        <ele>805.2</ele>
        <time>2022-08-04T12:38:04Z</time>
      </trkpt>
      <trkpt lat="44.59007" lon="2.92117">
        <ele>805.4</ele>
        <time>2022-08-04T12:38:06Z</time>
      </trkpt>
      <trkpt lat="44.59008" lon="2.92116">
        <ele>805.7</ele>
        <time>2022-08-04T12:38:08Z</time>
      </trkpt>
      <trkpt lat="44.59009" lon="2.92115">
        <ele>805.8</ele>
        <time>2022-08-04T12:38:10Z</time>
      </trkpt>
      <trkpt lat="44.5901" lon="2.92113">
        <ele>806</ele>
        <time>2022-08-04T12:38:12Z</time>
      </trkpt>
      <trkpt lat="44.59011" lon="2.92113">
        <ele>806.1</ele>
        <time>2022-08-04T12:38:13Z</time>
      </trkpt>
      <trkpt lat="44.59011" lon="2.92112">
        <ele>806</ele>
        <time>2022-08-04T12:38:16Z</time>
      </trkpt>
      <trkpt lat="44.59013" lon="2.92108">
        <ele>806.3</ele>
        <time>2022-08-04T12:38:25Z</time>
      </trkpt>
      <trkpt lat="44.59014" lon="2.92107">
        <ele>806.4</ele>
        <time>2022-08-04T12:38:26Z</time>
      </trkpt>
      <trkpt lat="44.59017" lon="2.92106">
        <ele>807.1</ele>
        <time>2022-08-04T12:38:29Z</time>
      </trkpt>
      <trkpt lat="44.59019" lon="2.92104">
        <ele>807.4</ele>
        <time>2022-08-04T12:38:31Z</time>
      </trkpt>
      <trkpt lat="44.5902" lon="2.92104">
        <ele>807.5</ele>
        <time>2022-08-04T12:38:32Z</time>
      </trkpt>
      <trkpt lat="44.5902" lon="2.92104">
        <ele>807.7</ele>
        <time>2022-08-04T12:38:33Z</time>
      </trkpt>
      <trkpt lat="44.59023" lon="2.92102">
        <ele>808.1</ele>
        <time>2022-08-04T12:38:37Z</time>
      </trkpt>
      <trkpt lat="44.59028" lon="2.92103">
        <ele>808.9</ele>
        <time>2022-08-04T12:38:43Z</time>
      </trkpt>
      <trkpt lat="44.59029" lon="2.92104">
        <ele>809.1</ele>
        <time>2022-08-04T12:38:44Z</time>
      </trkpt>
      <trkpt lat="44.5903" lon="2.92105">
        <ele>809.3</ele>
        <time>2022-08-04T12:38:45Z</time>
      </trkpt>
      <trkpt lat="44.59035" lon="2.92112">
        <ele>810</ele>
        <time>2022-08-04T12:38:50Z</time>
      </trkpt>
      <trkpt lat="44.59037" lon="2.92119">
        <ele>810.3</ele>
        <time>2022-08-04T12:38:56Z</time>
      </trkpt>
      <trkpt lat="44.59037" lon="2.9212">
        <ele>810.4</ele>
        <time>2022-08-04T12:38:57Z</time>
      </trkpt>
      <trkpt lat="44.59039" lon="2.92125">
        <ele>810.5</ele>
        <time>2022-08-04T12:39:02Z</time>
      </trkpt>
      <trkpt lat="44.59043" lon="2.92135">
        <ele>810.7</ele>
        <time>2022-08-04T12:39:09Z</time>
      </trkpt>
      <trkpt lat="44.59046" lon="2.92141">
        <ele>810.7</ele>
        <time>2022-08-04T12:39:16Z</time>
      </trkpt>
      <trkpt lat="44.59049" lon="2.92143">
        <ele>810.9</ele>
        <time>2022-08-04T12:39:24Z</time>
      </trkpt>
      <trkpt lat="44.5905" lon="2.92148">
        <ele>811.1</ele>
        <time>2022-08-04T12:39:29Z</time>
      </trkpt>
      <trkpt lat="44.59051" lon="2.9215">
        <ele>811.2</ele>
        <time>2022-08-04T12:39:31Z</time>
      </trkpt>
      <trkpt lat="44.59051" lon="2.92152">
        <ele>811.2</ele>
        <time>2022-08-04T12:39:36Z</time>
      </trkpt>
      <trkpt lat="44.59049" lon="2.92153">
        <ele>811.1</ele>
        <time>2022-08-04T12:39:42Z</time>
      </trkpt>
      <trkpt lat="44.59047" lon="2.92153">
        <ele>811.1</ele>
        <time>2022-08-04T12:39:44Z</time>
      </trkpt>
      <trkpt lat="44.59051" lon="2.92141">
        <ele>810.9</ele>
        <time>2022-08-04T12:40:06Z</time>
      </trkpt>
      <trkpt lat="44.59056" lon="2.92142">
        <ele>811.2</ele>
        <time>2022-08-04T12:40:12Z</time>
      </trkpt>
      <trkpt lat="44.59055" lon="2.92146">
        <ele>811.2</ele>
        <time>2022-08-04T12:40:19Z</time>
      </trkpt>
      <trkpt lat="44.59051" lon="2.92146">
        <ele>811.1</ele>
        <time>2022-08-04T12:40:30Z</time>
      </trkpt>
      <trkpt lat="44.59052" lon="2.92148">
        <ele>811.2</ele>
        <time>2022-08-04T12:40:39Z</time>
      </trkpt>
      <trkpt lat="44.59052" lon="2.92153">
        <ele>811.3</ele>
        <time>2022-08-04T12:42:22Z</time>
      </trkpt>
      <trkpt lat="44.5905" lon="2.92154">
        <ele>811.2</ele>
        <time>2022-08-04T12:43:09Z</time>
      </trkpt>
      <trkpt lat="44.59201" lon="2.92647">
        <ele>815.8</ele>
        <time>2022-08-05T07:12:08Z</time>
      </trkpt>
      <trkpt lat="44.59172" lon="2.92675">
        <ele>808.9</ele>
        <time>2022-08-05T07:12:11Z</time>
      </trkpt>
      <trkpt lat="44.59168" lon="2.92665">
        <ele>808.3</ele>
        <time>2022-08-05T07:12:15Z</time>
      </trkpt>
      <trkpt lat="44.59164" lon="2.92656">
        <ele>807.8</ele>
        <time>2022-08-05T07:12:20Z</time>
      </trkpt>
      <trkpt lat="44.59165" lon="2.92647">
        <ele>807.9</ele>
        <time>2022-08-05T07:12:27Z</time>
      </trkpt>
      <trkpt lat="44.59164" lon="2.92635">
        <ele>807.9</ele>
        <time>2022-08-05T07:12:36Z</time>
      </trkpt>
      <trkpt lat="44.59165" lon="2.92625">
        <ele>808.4</ele>
        <time>2022-08-05T07:12:44Z</time>
      </trkpt>
      <trkpt lat="44.59165" lon="2.92623">
        <ele>808.4</ele>
        <time>2022-08-05T07:12:45Z</time>
      </trkpt>
      <trkpt lat="44.59165" lon="2.92622">
        <ele>808.4</ele>
        <time>2022-08-05T07:12:46Z</time>
      </trkpt>
      <trkpt lat="44.59163" lon="2.92604">
        <ele>808.7</ele>
        <time>2022-08-05T07:12:56Z</time>
      </trkpt>
      <trkpt lat="44.59161" lon="2.92594">
        <ele>808.5</ele>
        <time>2022-08-05T07:13:04Z</time>
      </trkpt>
      <trkpt lat="44.59161" lon="2.92592">
        <ele>808.5</ele>
        <time>2022-08-05T07:13:07Z</time>
      </trkpt>
      <trkpt lat="44.59162" lon="2.9259">
        <ele>808.6</ele>
        <time>2022-08-05T07:13:09Z</time>
      </trkpt>
      <trkpt lat="44.59161" lon="2.92584">
        <ele>808.5</ele>
        <time>2022-08-05T07:13:13Z</time>
      </trkpt>
      <trkpt lat="44.5916" lon="2.92571">
        <ele>808.9</ele>
        <time>2022-08-05T07:13:22Z</time>
      </trkpt>
      <trkpt lat="44.59159" lon="2.92564">
        <ele>809</ele>
        <time>2022-08-05T07:13:26Z</time>
      </trkpt>
      <trkpt lat="44.59159" lon="2.92561">
        <ele>809</ele>
        <time>2022-08-05T07:13:28Z</time>
      </trkpt>
      <trkpt lat="44.59158" lon="2.92555">
        <ele>809.1</ele>
        <time>2022-08-05T07:13:31Z</time>
      </trkpt>
      <trkpt lat="44.59154" lon="2.92544">
        <ele>808.7</ele>
        <time>2022-08-05T07:13:39Z</time>
      </trkpt>
      <trkpt lat="44.59154" lon="2.92526">
        <ele>808.8</ele>
        <time>2022-08-05T07:13:49Z</time>
      </trkpt>
      <trkpt lat="44.59156" lon="2.92516">
        <ele>809.3</ele>
        <time>2022-08-05T07:13:56Z</time>
      </trkpt>
      <trkpt lat="44.59156" lon="2.92516">
        <ele>809.4</ele>
        <time>2022-08-05T07:13:57Z</time>
      </trkpt>
      <trkpt lat="44.59156" lon="2.92515">
        <ele>809.4</ele>
        <time>2022-08-05T07:13:58Z</time>
      </trkpt>
      <trkpt lat="44.59156" lon="2.9251">
        <ele>809.5</ele>
        <time>2022-08-05T07:14:01Z</time>
      </trkpt>
      <trkpt lat="44.59156" lon="2.92504">
        <ele>809.6</ele>
        <time>2022-08-05T07:14:04Z</time>
      </trkpt>
      <trkpt lat="44.5916" lon="2.92485">
        <ele>811</ele>
        <time>2022-08-05T07:14:16Z</time>
      </trkpt>
      <trkpt lat="44.59162" lon="2.92465">
        <ele>812.6</ele>
        <time>2022-08-05T07:14:28Z</time>
      </trkpt>
      <trkpt lat="44.59162" lon="2.92449">
        <ele>813.6</ele>
        <time>2022-08-05T07:14:39Z</time>
      </trkpt>
      <trkpt lat="44.59162" lon="2.92446">
        <ele>813.8</ele>
        <time>2022-08-05T07:14:42Z</time>
      </trkpt>
      <trkpt lat="44.59162" lon="2.92448">
        <ele>813.8</ele>
        <time>2022-08-05T07:14:44Z</time>
      </trkpt>
      <trkpt lat="44.59163" lon="2.92451">
        <ele>813.7</ele>
        <time>2022-08-05T07:14:46Z</time>
      </trkpt>
      <trkpt lat="44.59164" lon="2.92455">
        <ele>813.8</ele>
        <time>2022-08-05T07:14:48Z</time>
      </trkpt>
      <trkpt lat="44.59165" lon="2.92456">
        <ele>813.8</ele>
        <time>2022-08-05T07:14:50Z</time>
      </trkpt>
      <trkpt lat="44.59164" lon="2.92455">
        <ele>813.7</ele>
        <time>2022-08-05T07:14:51Z</time>
      </trkpt>
      <trkpt lat="44.59162" lon="2.92447">
        <ele>813.9</ele>
        <time>2022-08-05T07:14:56Z</time>
      </trkpt>
      <trkpt lat="44.59153" lon="2.92429">
        <ele>813.9</ele>
        <time>2022-08-05T07:15:08Z</time>
      </trkpt>
      <trkpt lat="44.59148" lon="2.92422">
        <ele>813.7</ele>
        <time>2022-08-05T07:15:16Z</time>
      </trkpt>
      <trkpt lat="44.59147" lon="2.92419">
        <ele>813.7</ele>
        <time>2022-08-05T07:15:19Z</time>
      </trkpt>
      <trkpt lat="44.59144" lon="2.92413">
        <ele>814</ele>
        <time>2022-08-05T07:15:23Z</time>
      </trkpt>
      <trkpt lat="44.59145" lon="2.92399">
        <ele>816.5</ele>
        <time>2022-08-05T07:15:31Z</time>
      </trkpt>
      <trkpt lat="44.59147" lon="2.92396">
        <ele>818</ele>
        <time>2022-08-05T07:15:35Z</time>
      </trkpt>
      <trkpt lat="44.5915" lon="2.92394">
        <ele>819.4</ele>
        <time>2022-08-05T07:15:38Z</time>
      </trkpt>
      <trkpt lat="44.59151" lon="2.92394">
        <ele>819.7</ele>
        <time>2022-08-05T07:15:39Z</time>
      </trkpt>
      <trkpt lat="44.59152" lon="2.92395">
        <ele>819.7</ele>
        <time>2022-08-05T07:15:41Z</time>
      </trkpt>
      <trkpt lat="44.59152" lon="2.92395">
        <ele>819.8</ele>
        <time>2022-08-05T07:15:42Z</time>
      </trkpt>
      <trkpt lat="44.59152" lon="2.92395">
        <ele>819.9</ele>
        <time>2022-08-05T07:15:43Z</time>
      </trkpt>
      <trkpt lat="44.59152" lon="2.92395">
        <ele>819.9</ele>
        <time>2022-08-05T07:15:47Z</time>
      </trkpt>
      <trkpt lat="44.59154" lon="2.92397">
        <ele>820.3</ele>
        <time>2022-08-05T07:15:49Z</time>
      </trkpt>
      <trkpt lat="44.59156" lon="2.92398">
        <ele>820.6</ele>
        <time>2022-08-05T07:15:50Z</time>
      </trkpt>
      <trkpt lat="44.59163" lon="2.92403">
        <ele>821.8</ele>
        <time>2022-08-05T07:15:58Z</time>
      </trkpt>
      <trkpt lat="44.59164" lon="2.92404">
        <ele>821.8</ele>
        <time>2022-08-05T07:15:59Z</time>
      </trkpt>
      <trkpt lat="44.59171" lon="2.92413">
        <ele>821.5</ele>
        <time>2022-08-05T07:16:09Z</time>
      </trkpt>
      <trkpt lat="44.59171" lon="2.92413">
        <ele>821.2</ele>
        <time>2022-08-05T07:16:10Z</time>
      </trkpt>
      <trkpt lat="44.59169" lon="2.92416">
        <ele>819.8</ele>
        <time>2022-08-05T07:16:14Z</time>
      </trkpt>
      <trkpt lat="44.59169" lon="2.92417">
        <ele>819.6</ele>
        <time>2022-08-05T07:16:16Z</time>
      </trkpt>
      <trkpt lat="44.59169" lon="2.92417">
        <ele>819.7</ele>
        <time>2022-08-05T07:16:27Z</time>
      </trkpt>
      <trkpt lat="44.59171" lon="2.92421">
        <ele>819.9</ele>
        <time>2022-08-05T07:16:31Z</time>
      </trkpt>
      <trkpt lat="44.5918" lon="2.92433">
        <ele>820.7</ele>
        <time>2022-08-05T07:16:39Z</time>
      </trkpt>
      <trkpt lat="44.59185" lon="2.9244">
        <ele>821.1</ele>
        <time>2022-08-05T07:16:45Z</time>
      </trkpt>
      <trkpt lat="44.59189" lon="2.92444">
        <ele>821.4</ele>
        <time>2022-08-05T07:16:48Z</time>
      </trkpt>
      <trkpt lat="44.59196" lon="2.92451">
        <ele>822.5</ele>
        <time>2022-08-05T07:16:55Z</time>
      </trkpt>
      <trkpt lat="44.59197" lon="2.92453">
        <ele>822.8</ele>
        <time>2022-08-05T07:16:57Z</time>
      </trkpt>
      <trkpt lat="44.59202" lon="2.92459">
        <ele>823.4</ele>
        <time>2022-08-05T07:17:02Z</time>
      </trkpt>
      <trkpt lat="44.59208" lon="2.92464">
        <ele>824.3</ele>
        <time>2022-08-05T07:17:08Z</time>
      </trkpt>
      <trkpt lat="44.5921" lon="2.92466">
        <ele>824.4</ele>
        <time>2022-08-05T07:17:11Z</time>
      </trkpt>
      <trkpt lat="44.59215" lon="2.9247">
        <ele>824.7</ele>
        <time>2022-08-05T07:17:18Z</time>
      </trkpt>
      <trkpt lat="44.59216" lon="2.92472">
        <ele>824.7</ele>
        <time>2022-08-05T07:17:21Z</time>
      </trkpt>
      <trkpt lat="44.59217" lon="2.92475">
        <ele>824.8</ele>
        <time>2022-08-05T07:17:23Z</time>
      </trkpt>
      <trkpt lat="44.59218" lon="2.92476">
        <ele>824.9</ele>
        <time>2022-08-05T07:17:24Z</time>
      </trkpt>
      <trkpt lat="44.59221" lon="2.9248">
        <ele>825.3</ele>
        <time>2022-08-05T07:17:27Z</time>
      </trkpt>
      <trkpt lat="44.59223" lon="2.92484">
        <ele>825.9</ele>
        <time>2022-08-05T07:17:31Z</time>
      </trkpt>
      <trkpt lat="44.59225" lon="2.92486">
        <ele>826.5</ele>
        <time>2022-08-05T07:17:33Z</time>
      </trkpt>
      <trkpt lat="44.5923" lon="2.92493">
        <ele>827.3</ele>
        <time>2022-08-05T07:17:39Z</time>
      </trkpt>
      <trkpt lat="44.59236" lon="2.92501">
        <ele>828.5</ele>
        <time>2022-08-05T07:17:47Z</time>
      </trkpt>
      <trkpt lat="44.59237" lon="2.92503">
        <ele>828.6</ele>
        <time>2022-08-05T07:17:48Z</time>
      </trkpt>
      <trkpt lat="44.59241" lon="2.92511">
        <ele>829.6</ele>
        <time>2022-08-05T07:17:55Z</time>
      </trkpt>
      <trkpt lat="44.59243" lon="2.92515">
        <ele>830</ele>
        <time>2022-08-05T07:17:58Z</time>
      </trkpt>
      <trkpt lat="44.59246" lon="2.92524">
        <ele>830.9</ele>
        <time>2022-08-05T07:18:04Z</time>
      </trkpt>
      <trkpt lat="44.59247" lon="2.92528">
        <ele>831</ele>
        <time>2022-08-05T07:18:07Z</time>
      </trkpt>
      <trkpt lat="44.59247" lon="2.9253">
        <ele>831.1</ele>
        <time>2022-08-05T07:18:08Z</time>
      </trkpt>
      <trkpt lat="44.59249" lon="2.92535">
        <ele>831.5</ele>
        <time>2022-08-05T07:18:12Z</time>
      </trkpt>
      <trkpt lat="44.59251" lon="2.92541">
        <ele>832.1</ele>
        <time>2022-08-05T07:18:17Z</time>
      </trkpt>
      <trkpt lat="44.59252" lon="2.92541">
        <ele>832.4</ele>
        <time>2022-08-05T07:18:19Z</time>
      </trkpt>
      <trkpt lat="44.59252" lon="2.92542">
        <ele>832.4</ele>
        <time>2022-08-05T07:18:23Z</time>
      </trkpt>
      <trkpt lat="44.59252" lon="2.92543">
        <ele>832.4</ele>
        <time>2022-08-05T07:18:25Z</time>
      </trkpt>
      <trkpt lat="44.59255" lon="2.9255">
        <ele>833.8</ele>
        <time>2022-08-05T07:18:32Z</time>
      </trkpt>
      <trkpt lat="44.59255" lon="2.92563">
        <ele>833.5</ele>
        <time>2022-08-05T07:18:41Z</time>
      </trkpt>
      <trkpt lat="44.59256" lon="2.92564">
        <ele>833.7</ele>
        <time>2022-08-05T07:18:42Z</time>
      </trkpt>
      <trkpt lat="44.59259" lon="2.92581">
        <ele>835</ele>
        <time>2022-08-05T07:18:52Z</time>
      </trkpt>
      <trkpt lat="44.59259" lon="2.92583">
        <ele>835</ele>
        <time>2022-08-05T07:18:53Z</time>
      </trkpt>
      <trkpt lat="44.5926" lon="2.92586">
        <ele>835.3</ele>
        <time>2022-08-05T07:18:55Z</time>
      </trkpt>
      <trkpt lat="44.59261" lon="2.92588">
        <ele>835.6</ele>
        <time>2022-08-05T07:18:57Z</time>
      </trkpt>
      <trkpt lat="44.5926" lon="2.92591">
        <ele>835.2</ele>
        <time>2022-08-05T07:19:02Z</time>
      </trkpt>
      <trkpt lat="44.5926" lon="2.92594">
        <ele>835.1</ele>
        <time>2022-08-05T07:19:07Z</time>
      </trkpt>
      <trkpt lat="44.5926" lon="2.92596">
        <ele>835.1</ele>
        <time>2022-08-05T07:19:08Z</time>
      </trkpt>
      <trkpt lat="44.59262" lon="2.92602">
        <ele>835.7</ele>
        <time>2022-08-05T07:19:12Z</time>
      </trkpt>
      <trkpt lat="44.59264" lon="2.92609">
        <ele>836</ele>
        <time>2022-08-05T07:19:16Z</time>
      </trkpt>
      <trkpt lat="44.59267" lon="2.92621">
        <ele>837.4</ele>
        <time>2022-08-05T07:19:24Z</time>
      </trkpt>
      <trkpt lat="44.59268" lon="2.92624">
        <ele>837.7</ele>
        <time>2022-08-05T07:19:26Z</time>
      </trkpt>
      <trkpt lat="44.59269" lon="2.9263">
        <ele>838.1</ele>
        <time>2022-08-05T07:19:30Z</time>
      </trkpt>
      <trkpt lat="44.5927" lon="2.92635">
        <ele>838.4</ele>
        <time>2022-08-05T07:19:34Z</time>
      </trkpt>
      <trkpt lat="44.59269" lon="2.92636">
        <ele>838</ele>
        <time>2022-08-05T07:19:37Z</time>
      </trkpt>
      <trkpt lat="44.59269" lon="2.92637">
        <ele>838.2</ele>
        <time>2022-08-05T07:19:39Z</time>
      </trkpt>
      <trkpt lat="44.59271" lon="2.9264">
        <ele>838.9</ele>
        <time>2022-08-05T07:19:42Z</time>
      </trkpt>
      <trkpt lat="44.59271" lon="2.92643">
        <ele>839.1</ele>
        <time>2022-08-05T07:19:44Z</time>
      </trkpt>
      <trkpt lat="44.59274" lon="2.92658">
        <ele>840.6</ele>
        <time>2022-08-05T07:19:54Z</time>
      </trkpt>
      <trkpt lat="44.59277" lon="2.92671">
        <ele>842.6</ele>
        <time>2022-08-05T07:20:02Z</time>
      </trkpt>
      <trkpt lat="44.59279" lon="2.92674">
        <ele>843.6</ele>
        <time>2022-08-05T07:20:04Z</time>
      </trkpt>
      <trkpt lat="44.59281" lon="2.92686">
        <ele>845.1</ele>
        <time>2022-08-05T07:20:12Z</time>
      </trkpt>
      <trkpt lat="44.59281" lon="2.92687">
        <ele>845.1</ele>
        <time>2022-08-05T07:20:13Z</time>
      </trkpt>
      <trkpt lat="44.59283" lon="2.92699">
        <ele>845.9</ele>
        <time>2022-08-05T07:20:22Z</time>
      </trkpt>
      <trkpt lat="44.59284" lon="2.92702">
        <ele>846.1</ele>
        <time>2022-08-05T07:20:24Z</time>
      </trkpt>
      <trkpt lat="44.59285" lon="2.92704">
        <ele>846.5</ele>
        <time>2022-08-05T07:20:25Z</time>
      </trkpt>
      <trkpt lat="44.59288" lon="2.92712">
        <ele>847.7</ele>
        <time>2022-08-05T07:20:30Z</time>
      </trkpt>
      <trkpt lat="44.5929" lon="2.92719">
        <ele>848.4</ele>
        <time>2022-08-05T07:20:35Z</time>
      </trkpt>
      <trkpt lat="44.59291" lon="2.92722">
        <ele>848.5</ele>
        <time>2022-08-05T07:20:37Z</time>
      </trkpt>
      <trkpt lat="44.59291" lon="2.92725">
        <ele>848.5</ele>
        <time>2022-08-05T07:20:39Z</time>
      </trkpt>
      <trkpt lat="44.59293" lon="2.92734">
        <ele>848.5</ele>
        <time>2022-08-05T07:20:46Z</time>
      </trkpt>
      <trkpt lat="44.59294" lon="2.92739">
        <ele>848.3</ele>
        <time>2022-08-05T07:20:49Z</time>
      </trkpt>
      <trkpt lat="44.59295" lon="2.92748">
        <ele>847.6</ele>
        <time>2022-08-05T07:20:55Z</time>
      </trkpt>
      <trkpt lat="44.59296" lon="2.92752">
        <ele>847.5</ele>
        <time>2022-08-05T07:20:58Z</time>
      </trkpt>
      <trkpt lat="44.59296" lon="2.92755">
        <ele>847.2</ele>
        <time>2022-08-05T07:21:00Z</time>
      </trkpt>
      <trkpt lat="44.59297" lon="2.92757">
        <ele>847.2</ele>
        <time>2022-08-05T07:21:02Z</time>
      </trkpt>
      <trkpt lat="44.59298" lon="2.9276">
        <ele>847.1</ele>
        <time>2022-08-05T07:21:04Z</time>
      </trkpt>
      <trkpt lat="44.593" lon="2.92767">
        <ele>846.8</ele>
        <time>2022-08-05T07:21:09Z</time>
      </trkpt>
      <trkpt lat="44.59305" lon="2.92774">
        <ele>847.3</ele>
        <time>2022-08-05T07:21:15Z</time>
      </trkpt>
      <trkpt lat="44.59305" lon="2.92775">
        <ele>847.3</ele>
        <time>2022-08-05T07:21:16Z</time>
      </trkpt>
      <trkpt lat="44.59308" lon="2.9278">
        <ele>847.7</ele>
        <time>2022-08-05T07:21:19Z</time>
      </trkpt>
      <trkpt lat="44.59311" lon="2.92789">
        <ele>847.8</ele>
        <time>2022-08-05T07:21:26Z</time>
      </trkpt>
      <trkpt lat="44.59317" lon="2.92801">
        <ele>848.8</ele>
        <time>2022-08-05T07:21:35Z</time>
      </trkpt>
      <trkpt lat="44.59318" lon="2.92806">
        <ele>848.4</ele>
        <time>2022-08-05T07:21:40Z</time>
      </trkpt>
      <trkpt lat="44.59319" lon="2.92807">
        <ele>849.2</ele>
        <time>2022-08-05T07:21:42Z</time>
      </trkpt>
      <trkpt lat="44.5932" lon="2.9281">
        <ele>849.5</ele>
        <time>2022-08-05T07:21:44Z</time>
      </trkpt>
      <trkpt lat="44.59323" lon="2.92819">
        <ele>850</ele>
        <time>2022-08-05T07:21:50Z</time>
      </trkpt>
      <trkpt lat="44.59324" lon="2.92824">
        <ele>850</ele>
        <time>2022-08-05T07:21:54Z</time>
      </trkpt>
      <trkpt lat="44.59325" lon="2.92831">
        <ele>849.6</ele>
        <time>2022-08-05T07:21:58Z</time>
      </trkpt>
      <trkpt lat="44.59325" lon="2.92835">
        <ele>849.4</ele>
        <time>2022-08-05T07:22:00Z</time>
      </trkpt>
      <trkpt lat="44.59324" lon="2.92845">
        <ele>849</ele>
        <time>2022-08-05T07:22:06Z</time>
      </trkpt>
      <trkpt lat="44.59325" lon="2.92856">
        <ele>849.2</ele>
        <time>2022-08-05T07:22:13Z</time>
      </trkpt>
      <trkpt lat="44.59324" lon="2.92858">
        <ele>848.9</ele>
        <time>2022-08-05T07:22:15Z</time>
      </trkpt>
      <trkpt lat="44.59324" lon="2.92858">
        <ele>848.6</ele>
        <time>2022-08-05T07:22:16Z</time>
      </trkpt>
      <trkpt lat="44.59323" lon="2.92858">
        <ele>848.3</ele>
        <time>2022-08-05T07:22:18Z</time>
      </trkpt>
      <trkpt lat="44.59323" lon="2.92858">
        <ele>848.1</ele>
        <time>2022-08-05T07:22:20Z</time>
      </trkpt>
      <trkpt lat="44.59323" lon="2.92857">
        <ele>848.1</ele>
        <time>2022-08-05T07:22:28Z</time>
      </trkpt>
      <trkpt lat="44.59323" lon="2.9287">
        <ele>848.6</ele>
        <time>2022-08-05T07:22:36Z</time>
      </trkpt>
      <trkpt lat="44.59323" lon="2.92876">
        <ele>848.6</ele>
        <time>2022-08-05T07:22:40Z</time>
      </trkpt>
      <trkpt lat="44.59325" lon="2.92881">
        <ele>849.8</ele>
        <time>2022-08-05T07:22:43Z</time>
      </trkpt>
      <trkpt lat="44.59329" lon="2.92894">
        <ele>852.2</ele>
        <time>2022-08-05T07:22:51Z</time>
      </trkpt>
      <trkpt lat="44.59328" lon="2.92903">
        <ele>851.6</ele>
        <time>2022-08-05T07:22:58Z</time>
      </trkpt>
      <trkpt lat="44.59327" lon="2.92907">
        <ele>851.4</ele>
        <time>2022-08-05T07:23:00Z</time>
      </trkpt>
      <trkpt lat="44.59327" lon="2.92909">
        <ele>851.2</ele>
        <time>2022-08-05T07:23:02Z</time>
      </trkpt>
      <trkpt lat="44.59327" lon="2.92913">
        <ele>851.2</ele>
        <time>2022-08-05T07:23:04Z</time>
      </trkpt>
      <trkpt lat="44.59327" lon="2.92918">
        <ele>851.3</ele>
        <time>2022-08-05T07:23:07Z</time>
      </trkpt>
      <trkpt lat="44.59326" lon="2.92923">
        <ele>851</ele>
        <time>2022-08-05T07:23:10Z</time>
      </trkpt>
      <trkpt lat="44.59325" lon="2.92928">
        <ele>850.5</ele>
        <time>2022-08-05T07:23:13Z</time>
      </trkpt>
      <trkpt lat="44.59325" lon="2.92931">
        <ele>850.4</ele>
        <time>2022-08-05T07:23:15Z</time>
      </trkpt>
      <trkpt lat="44.59325" lon="2.92936">
        <ele>850.4</ele>
        <time>2022-08-05T07:23:18Z</time>
      </trkpt>
      <trkpt lat="44.59325" lon="2.92937">
        <ele>850.5</ele>
        <time>2022-08-05T07:23:19Z</time>
      </trkpt>
      <trkpt lat="44.59326" lon="2.92946">
        <ele>850.9</ele>
        <time>2022-08-05T07:23:25Z</time>
      </trkpt>
      <trkpt lat="44.59327" lon="2.92948">
        <ele>851</ele>
        <time>2022-08-05T07:23:26Z</time>
      </trkpt>
      <trkpt lat="44.59329" lon="2.92963">
        <ele>851.6</ele>
        <time>2022-08-05T07:23:34Z</time>
      </trkpt>
      <trkpt lat="44.5933" lon="2.92972">
        <ele>851.8</ele>
        <time>2022-08-05T07:23:41Z</time>
      </trkpt>
      <trkpt lat="44.59331" lon="2.92974">
        <ele>852</ele>
        <time>2022-08-05T07:23:42Z</time>
      </trkpt>
      <trkpt lat="44.59331" lon="2.92976">
        <ele>851.9</ele>
        <time>2022-08-05T07:23:43Z</time>
      </trkpt>
      <trkpt lat="44.59331" lon="2.92977">
        <ele>852</ele>
        <time>2022-08-05T07:23:46Z</time>
      </trkpt>
      <trkpt lat="44.59333" lon="2.9298">
        <ele>852.4</ele>
        <time>2022-08-05T07:23:48Z</time>
      </trkpt>
      <trkpt lat="44.59332" lon="2.9299">
        <ele>851.9</ele>
        <time>2022-08-05T07:23:53Z</time>
      </trkpt>
      <trkpt lat="44.59334" lon="2.92994">
        <ele>852.5</ele>
        <time>2022-08-05T07:23:55Z</time>
      </trkpt>
      <trkpt lat="44.59336" lon="2.93005">
        <ele>852.8</ele>
        <time>2022-08-05T07:24:02Z</time>
      </trkpt>
      <trkpt lat="44.59336" lon="2.93007">
        <ele>853.1</ele>
        <time>2022-08-05T07:24:03Z</time>
      </trkpt>
      <trkpt lat="44.59337" lon="2.93009">
        <ele>853.3</ele>
        <time>2022-08-05T07:24:04Z</time>
      </trkpt>
      <trkpt lat="44.59339" lon="2.93018">
        <ele>853.9</ele>
        <time>2022-08-05T07:24:10Z</time>
      </trkpt>
      <trkpt lat="44.59339" lon="2.9302">
        <ele>854</ele>
        <time>2022-08-05T07:24:11Z</time>
      </trkpt>
      <trkpt lat="44.5934" lon="2.93025">
        <ele>854.4</ele>
        <time>2022-08-05T07:24:14Z</time>
      </trkpt>
      <trkpt lat="44.59341" lon="2.93031">
        <ele>854.7</ele>
        <time>2022-08-05T07:24:18Z</time>
      </trkpt>
      <trkpt lat="44.59341" lon="2.93041">
        <ele>854.6</ele>
        <time>2022-08-05T07:24:24Z</time>
      </trkpt>
      <trkpt lat="44.59342" lon="2.93042">
        <ele>854.8</ele>
        <time>2022-08-05T07:24:25Z</time>
      </trkpt>
      <trkpt lat="44.59342" lon="2.93044">
        <ele>854.8</ele>
        <time>2022-08-05T07:24:27Z</time>
      </trkpt>
      <trkpt lat="44.59342" lon="2.93051">
        <ele>854.5</ele>
        <time>2022-08-05T07:24:32Z</time>
      </trkpt>
      <trkpt lat="44.59343" lon="2.93055">
        <ele>854.7</ele>
        <time>2022-08-05T07:24:34Z</time>
      </trkpt>
      <trkpt lat="44.59344" lon="2.93061">
        <ele>855.5</ele>
        <time>2022-08-05T07:24:38Z</time>
      </trkpt>
      <trkpt lat="44.59346" lon="2.93068">
        <ele>856.3</ele>
        <time>2022-08-05T07:24:42Z</time>
      </trkpt>
      <trkpt lat="44.5935" lon="2.9308">
        <ele>858.6</ele>
        <time>2022-08-05T07:24:50Z</time>
      </trkpt>
      <trkpt lat="44.59351" lon="2.93082">
        <ele>858.9</ele>
        <time>2022-08-05T07:24:51Z</time>
      </trkpt>
      <trkpt lat="44.59353" lon="2.93091">
        <ele>859.5</ele>
        <time>2022-08-05T07:24:57Z</time>
      </trkpt>
      <trkpt lat="44.59353" lon="2.93094">
        <ele>859.7</ele>
        <time>2022-08-05T07:24:58Z</time>
      </trkpt>
      <trkpt lat="44.59354" lon="2.93096">
        <ele>860.1</ele>
        <time>2022-08-05T07:24:59Z</time>
      </trkpt>
      <trkpt lat="44.59356" lon="2.931">
        <ele>861</ele>
        <time>2022-08-05T07:25:03Z</time>
      </trkpt>
      <trkpt lat="44.59357" lon="2.93101">
        <ele>861.2</ele>
        <time>2022-08-05T07:25:05Z</time>
      </trkpt>
      <trkpt lat="44.59357" lon="2.93102">
        <ele>861.1</ele>
        <time>2022-08-05T07:25:06Z</time>
      </trkpt>
      <trkpt lat="44.59358" lon="2.93106">
        <ele>861.5</ele>
        <time>2022-08-05T07:25:10Z</time>
      </trkpt>
      <trkpt lat="44.59363" lon="2.93113">
        <ele>863.7</ele>
        <time>2022-08-05T07:25:16Z</time>
      </trkpt>
      <trkpt lat="44.59367" lon="2.9312">
        <ele>864.8</ele>
        <time>2022-08-05T07:25:21Z</time>
      </trkpt>
      <trkpt lat="44.59368" lon="2.93125">
        <ele>865.2</ele>
        <time>2022-08-05T07:25:25Z</time>
      </trkpt>
      <trkpt lat="44.59369" lon="2.93126">
        <ele>865.1</ele>
        <time>2022-08-05T07:25:26Z</time>
      </trkpt>
      <trkpt lat="44.59369" lon="2.93129">
        <ele>865</ele>
        <time>2022-08-05T07:25:29Z</time>
      </trkpt>
      <trkpt lat="44.59371" lon="2.93132">
        <ele>865.6</ele>
        <time>2022-08-05T07:25:31Z</time>
      </trkpt>
      <trkpt lat="44.59373" lon="2.93143">
        <ele>865.6</ele>
        <time>2022-08-05T07:25:38Z</time>
      </trkpt>
      <trkpt lat="44.59375" lon="2.93146">
        <ele>866.1</ele>
        <time>2022-08-05T07:25:40Z</time>
      </trkpt>
      <trkpt lat="44.59375" lon="2.93147">
        <ele>866.1</ele>
        <time>2022-08-05T07:25:41Z</time>
      </trkpt>
      <trkpt lat="44.59378" lon="2.93153">
        <ele>866.6</ele>
        <time>2022-08-05T07:25:45Z</time>
      </trkpt>
      <trkpt lat="44.59381" lon="2.93163">
        <ele>866.8</ele>
        <time>2022-08-05T07:25:52Z</time>
      </trkpt>
      <trkpt lat="44.59382" lon="2.93165">
        <ele>866.9</ele>
        <time>2022-08-05T07:25:53Z</time>
      </trkpt>
      <trkpt lat="44.59383" lon="2.93168">
        <ele>867</ele>
        <time>2022-08-05T07:25:55Z</time>
      </trkpt>
      <trkpt lat="44.59385" lon="2.93173">
        <ele>867.4</ele>
        <time>2022-08-05T07:25:59Z</time>
      </trkpt>
      <trkpt lat="44.59386" lon="2.93184">
        <ele>866.1</ele>
        <time>2022-08-05T07:26:05Z</time>
      </trkpt>
      <trkpt lat="44.59387" lon="2.93186">
        <ele>866.2</ele>
        <time>2022-08-05T07:26:06Z</time>
      </trkpt>
      <trkpt lat="44.59388" lon="2.93188">
        <ele>866.5</ele>
        <time>2022-08-05T07:26:08Z</time>
      </trkpt>
      <trkpt lat="44.5939" lon="2.93191">
        <ele>867.1</ele>
        <time>2022-08-05T07:26:11Z</time>
      </trkpt>
      <trkpt lat="44.59392" lon="2.93198">
        <ele>867.8</ele>
        <time>2022-08-05T07:26:16Z</time>
      </trkpt>
      <trkpt lat="44.59392" lon="2.93199">
        <ele>867.9</ele>
        <time>2022-08-05T07:26:17Z</time>
      </trkpt>
      <trkpt lat="44.59394" lon="2.93203">
        <ele>869</ele>
        <time>2022-08-05T07:26:22Z</time>
      </trkpt>
      <trkpt lat="44.59395" lon="2.93205">
        <ele>869.4</ele>
        <time>2022-08-05T07:26:24Z</time>
      </trkpt>
      <trkpt lat="44.59395" lon="2.93208">
        <ele>869.7</ele>
        <time>2022-08-05T07:26:28Z</time>
      </trkpt>
      <trkpt lat="44.59396" lon="2.9321">
        <ele>869.8</ele>
        <time>2022-08-05T07:26:30Z</time>
      </trkpt>
      <trkpt lat="44.59397" lon="2.93214">
        <ele>870.6</ele>
        <time>2022-08-05T07:26:32Z</time>
      </trkpt>
      <trkpt lat="44.59398" lon="2.93221">
        <ele>870.9</ele>
        <time>2022-08-05T07:26:37Z</time>
      </trkpt>
      <trkpt lat="44.594" lon="2.93225">
        <ele>871.6</ele>
        <time>2022-08-05T07:26:40Z</time>
      </trkpt>
      <trkpt lat="44.59402" lon="2.93231">
        <ele>872.6</ele>
        <time>2022-08-05T07:26:45Z</time>
      </trkpt>
      <trkpt lat="44.59402" lon="2.93233">
        <ele>872.9</ele>
        <time>2022-08-05T07:26:46Z</time>
      </trkpt>
      <trkpt lat="44.59404" lon="2.93236">
        <ele>873.9</ele>
        <time>2022-08-05T07:26:48Z</time>
      </trkpt>
      <trkpt lat="44.59406" lon="2.93243">
        <ele>875.2</ele>
        <time>2022-08-05T07:26:53Z</time>
      </trkpt>
      <trkpt lat="44.59407" lon="2.93245">
        <ele>875.7</ele>
        <time>2022-08-05T07:26:55Z</time>
      </trkpt>
      <trkpt lat="44.59409" lon="2.93252">
        <ele>876.8</ele>
        <time>2022-08-05T07:27:00Z</time>
      </trkpt>
      <trkpt lat="44.59411" lon="2.93258">
        <ele>878</ele>
        <time>2022-08-05T07:27:04Z</time>
      </trkpt>
      <trkpt lat="44.59412" lon="2.93262">
        <ele>878.3</ele>
        <time>2022-08-05T07:27:08Z</time>
      </trkpt>
      <trkpt lat="44.59412" lon="2.93273">
        <ele>877.5</ele>
        <time>2022-08-05T07:27:17Z</time>
      </trkpt>
      <trkpt lat="44.59413" lon="2.93278">
        <ele>877.8</ele>
        <time>2022-08-05T07:27:21Z</time>
      </trkpt>
      <trkpt lat="44.59414" lon="2.93282">
        <ele>878.3</ele>
        <time>2022-08-05T07:27:24Z</time>
      </trkpt>
      <trkpt lat="44.59415" lon="2.93285">
        <ele>878.7</ele>
        <time>2022-08-05T07:27:26Z</time>
      </trkpt>
      <trkpt lat="44.59418" lon="2.9329">
        <ele>880</ele>
        <time>2022-08-05T07:27:30Z</time>
      </trkpt>
      <trkpt lat="44.59423" lon="2.933">
        <ele>881.6</ele>
        <time>2022-08-05T07:27:37Z</time>
      </trkpt>
      <trkpt lat="44.59424" lon="2.93303">
        <ele>882.3</ele>
        <time>2022-08-05T07:27:39Z</time>
      </trkpt>
      <trkpt lat="44.59425" lon="2.93305">
        <ele>882.6</ele>
        <time>2022-08-05T07:27:40Z</time>
      </trkpt>
      <trkpt lat="44.59428" lon="2.93312">
        <ele>883</ele>
        <time>2022-08-05T07:27:46Z</time>
      </trkpt>
      <trkpt lat="44.59428" lon="2.93315">
        <ele>882.9</ele>
        <time>2022-08-05T07:27:48Z</time>
      </trkpt>
      <trkpt lat="44.59428" lon="2.93318">
        <ele>882.3</ele>
        <time>2022-08-05T07:27:52Z</time>
      </trkpt>
      <trkpt lat="44.59428" lon="2.93319">
        <ele>882.2</ele>
        <time>2022-08-05T07:27:54Z</time>
      </trkpt>
      <trkpt lat="44.59428" lon="2.9332">
        <ele>882</ele>
        <time>2022-08-05T07:27:55Z</time>
      </trkpt>
      <trkpt lat="44.59428" lon="2.93323">
        <ele>881.7</ele>
        <time>2022-08-05T07:27:57Z</time>
      </trkpt>
      <trkpt lat="44.59429" lon="2.93327">
        <ele>881.5</ele>
        <time>2022-08-05T07:28:01Z</time>
      </trkpt>
      <trkpt lat="44.59429" lon="2.93328">
        <ele>881.4</ele>
        <time>2022-08-05T07:28:02Z</time>
      </trkpt>
      <trkpt lat="44.59431" lon="2.93333">
        <ele>881.7</ele>
        <time>2022-08-05T07:28:06Z</time>
      </trkpt>
      <trkpt lat="44.59432" lon="2.93335">
        <ele>882.1</ele>
        <time>2022-08-05T07:28:08Z</time>
      </trkpt>
      <trkpt lat="44.59434" lon="2.93342">
        <ele>882.1</ele>
        <time>2022-08-05T07:28:13Z</time>
      </trkpt>
      <trkpt lat="44.59434" lon="2.93346">
        <ele>881.8</ele>
        <time>2022-08-05T07:28:18Z</time>
      </trkpt>
      <trkpt lat="44.59435" lon="2.93348">
        <ele>882</ele>
        <time>2022-08-05T07:28:20Z</time>
      </trkpt>
      <trkpt lat="44.59436" lon="2.93351">
        <ele>882.1</ele>
        <time>2022-08-05T07:28:26Z</time>
      </trkpt>
      <trkpt lat="44.59438" lon="2.93356">
        <ele>882.6</ele>
        <time>2022-08-05T07:28:32Z</time>
      </trkpt>
      <trkpt lat="44.59442" lon="2.93364">
        <ele>883.3</ele>
        <time>2022-08-05T07:28:39Z</time>
      </trkpt>
      <trkpt lat="44.59442" lon="2.93365">
        <ele>883.2</ele>
        <time>2022-08-05T07:28:40Z</time>
      </trkpt>
      <trkpt lat="44.59442" lon="2.9337">
        <ele>882.6</ele>
        <time>2022-08-05T07:28:45Z</time>
      </trkpt>
      <trkpt lat="44.59445" lon="2.93375">
        <ele>883.2</ele>
        <time>2022-08-05T07:28:52Z</time>
      </trkpt>
      <trkpt lat="44.59446" lon="2.93376">
        <ele>883.8</ele>
        <time>2022-08-05T07:28:54Z</time>
      </trkpt>
      <trkpt lat="44.59449" lon="2.93381">
        <ele>884.4</ele>
        <time>2022-08-05T07:28:59Z</time>
      </trkpt>
      <trkpt lat="44.59453" lon="2.93386">
        <ele>885.5</ele>
        <time>2022-08-05T07:29:04Z</time>
      </trkpt>
      <trkpt lat="44.59457" lon="2.93392">
        <ele>886.3</ele>
        <time>2022-08-05T07:29:09Z</time>
      </trkpt>
      <trkpt lat="44.59457" lon="2.93394">
        <ele>886.4</ele>
        <time>2022-08-05T07:29:10Z</time>
      </trkpt>
      <trkpt lat="44.5946" lon="2.934">
        <ele>887.2</ele>
        <time>2022-08-05T07:29:15Z</time>
      </trkpt>
      <trkpt lat="44.59463" lon="2.93403">
        <ele>888</ele>
        <time>2022-08-05T07:29:18Z</time>
      </trkpt>
      <trkpt lat="44.59466" lon="2.93408">
        <ele>888.5</ele>
        <time>2022-08-05T07:29:24Z</time>
      </trkpt>
      <trkpt lat="44.59466" lon="2.93409">
        <ele>888.5</ele>
        <time>2022-08-05T07:29:25Z</time>
      </trkpt>
      <trkpt lat="44.59472" lon="2.93416">
        <ele>890.2</ele>
        <time>2022-08-05T07:29:32Z</time>
      </trkpt>
      <trkpt lat="44.59474" lon="2.93416">
        <ele>890.7</ele>
        <time>2022-08-05T07:29:33Z</time>
      </trkpt>
      <trkpt lat="44.59478" lon="2.93423">
        <ele>891.9</ele>
        <time>2022-08-05T07:29:40Z</time>
      </trkpt>
      <trkpt lat="44.59482" lon="2.93429">
        <ele>893.6</ele>
        <time>2022-08-05T07:29:45Z</time>
      </trkpt>
      <trkpt lat="44.59483" lon="2.9343">
        <ele>893.9</ele>
        <time>2022-08-05T07:29:46Z</time>
      </trkpt>
      <trkpt lat="44.59488" lon="2.93439">
        <ele>895.4</ele>
        <time>2022-08-05T07:29:53Z</time>
      </trkpt>
      <trkpt lat="44.5949" lon="2.93443">
        <ele>896.2</ele>
        <time>2022-08-05T07:29:57Z</time>
      </trkpt>
      <trkpt lat="44.59492" lon="2.93445">
        <ele>897</ele>
        <time>2022-08-05T07:29:59Z</time>
      </trkpt>
      <trkpt lat="44.59493" lon="2.93447">
        <ele>897.2</ele>
        <time>2022-08-05T07:30:01Z</time>
      </trkpt>
      <trkpt lat="44.59494" lon="2.9345">
        <ele>897.3</ele>
        <time>2022-08-05T07:30:03Z</time>
      </trkpt>
      <trkpt lat="44.59495" lon="2.93455">
        <ele>897.5</ele>
        <time>2022-08-05T07:30:06Z</time>
      </trkpt>
      <trkpt lat="44.59496" lon="2.93462">
        <ele>897.4</ele>
        <time>2022-08-05T07:30:12Z</time>
      </trkpt>
      <trkpt lat="44.59495" lon="2.93463">
        <ele>897.2</ele>
        <time>2022-08-05T07:30:13Z</time>
      </trkpt>
      <trkpt lat="44.59496" lon="2.93469">
        <ele>897.1</ele>
        <time>2022-08-05T07:30:17Z</time>
      </trkpt>
      <trkpt lat="44.59496" lon="2.93472">
        <ele>896.6</ele>
        <time>2022-08-05T07:30:19Z</time>
      </trkpt>
      <trkpt lat="44.59498" lon="2.93483">
        <ele>896.9</ele>
        <time>2022-08-05T07:30:25Z</time>
      </trkpt>
      <trkpt lat="44.59498" lon="2.93494">
        <ele>896.6</ele>
        <time>2022-08-05T07:30:32Z</time>
      </trkpt>
      <trkpt lat="44.595" lon="2.93505">
        <ele>897</ele>
        <time>2022-08-05T07:30:39Z</time>
      </trkpt>
      <trkpt lat="44.59501" lon="2.93508">
        <ele>897.2</ele>
        <time>2022-08-05T07:30:41Z</time>
      </trkpt>
      <trkpt lat="44.59501" lon="2.93509">
        <ele>897.3</ele>
        <time>2022-08-05T07:30:42Z</time>
      </trkpt>
      <trkpt lat="44.59503" lon="2.93512">
        <ele>897.7</ele>
        <time>2022-08-05T07:30:44Z</time>
      </trkpt>
      <trkpt lat="44.59504" lon="2.93515">
        <ele>898.2</ele>
        <time>2022-08-05T07:30:46Z</time>
      </trkpt>
      <trkpt lat="44.5951" lon="2.93527">
        <ele>900.3</ele>
        <time>2022-08-05T07:30:56Z</time>
      </trkpt>
      <trkpt lat="44.5951" lon="2.93528">
        <ele>900.5</ele>
        <time>2022-08-05T07:30:57Z</time>
      </trkpt>
      <trkpt lat="44.59512" lon="2.93533">
        <ele>900.8</ele>
        <time>2022-08-05T07:31:04Z</time>
      </trkpt>
      <trkpt lat="44.59512" lon="2.93533">
        <ele>900.9</ele>
        <time>2022-08-05T07:31:05Z</time>
      </trkpt>
      <trkpt lat="44.59513" lon="2.93533">
        <ele>901.2</ele>
        <time>2022-08-05T07:31:06Z</time>
      </trkpt>
      <trkpt lat="44.59515" lon="2.93535">
        <ele>902</ele>
        <time>2022-08-05T07:31:09Z</time>
      </trkpt>
      <trkpt lat="44.59516" lon="2.93538">
        <ele>901.8</ele>
        <time>2022-08-05T07:31:11Z</time>
      </trkpt>
      <trkpt lat="44.59516" lon="2.93539">
        <ele>901.8</ele>
        <time>2022-08-05T07:31:12Z</time>
      </trkpt>
      <trkpt lat="44.59522" lon="2.93547">
        <ele>903.3</ele>
        <time>2022-08-05T07:31:19Z</time>
      </trkpt>
      <trkpt lat="44.59523" lon="2.93548">
        <ele>903.8</ele>
        <time>2022-08-05T07:31:20Z</time>
      </trkpt>
      <trkpt lat="44.59525" lon="2.93552">
        <ele>904.2</ele>
        <time>2022-08-05T07:31:24Z</time>
      </trkpt>
      <trkpt lat="44.59526" lon="2.93553">
        <ele>904.4</ele>
        <time>2022-08-05T07:31:27Z</time>
      </trkpt>
      <trkpt lat="44.59527" lon="2.93558">
        <ele>904.5</ele>
        <time>2022-08-05T07:31:32Z</time>
      </trkpt>
      <trkpt lat="44.59529" lon="2.93561">
        <ele>904.9</ele>
        <time>2022-08-05T07:31:35Z</time>
      </trkpt>
      <trkpt lat="44.59532" lon="2.9357">
        <ele>905.2</ele>
        <time>2022-08-05T07:31:42Z</time>
      </trkpt>
      <trkpt lat="44.59533" lon="2.93574">
        <ele>905</ele>
        <time>2022-08-05T07:31:45Z</time>
      </trkpt>
      <trkpt lat="44.59536" lon="2.93583">
        <ele>905.2</ele>
        <time>2022-08-05T07:31:51Z</time>
      </trkpt>
      <trkpt lat="44.59536" lon="2.93584">
        <ele>905.3</ele>
        <time>2022-08-05T07:31:52Z</time>
      </trkpt>
      <trkpt lat="44.59538" lon="2.93587">
        <ele>905.6</ele>
        <time>2022-08-05T07:31:54Z</time>
      </trkpt>
      <trkpt lat="44.59539" lon="2.93588">
        <ele>905.8</ele>
        <time>2022-08-05T07:31:55Z</time>
      </trkpt>
      <trkpt lat="44.59541" lon="2.9359">
        <ele>906.3</ele>
        <time>2022-08-05T07:31:58Z</time>
      </trkpt>
      <trkpt lat="44.59542" lon="2.93591">
        <ele>906.4</ele>
        <time>2022-08-05T07:31:59Z</time>
      </trkpt>
      <trkpt lat="44.59544" lon="2.93596">
        <ele>906.8</ele>
        <time>2022-08-05T07:32:03Z</time>
      </trkpt>
      <trkpt lat="44.59546" lon="2.93598">
        <ele>907.1</ele>
        <time>2022-08-05T07:32:05Z</time>
      </trkpt>
      <trkpt lat="44.59546" lon="2.93599">
        <ele>907.2</ele>
        <time>2022-08-05T07:32:06Z</time>
      </trkpt>
      <trkpt lat="44.59553" lon="2.93607">
        <ele>908.6</ele>
        <time>2022-08-05T07:32:13Z</time>
      </trkpt>
      <trkpt lat="44.59554" lon="2.93609">
        <ele>908.7</ele>
        <time>2022-08-05T07:32:14Z</time>
      </trkpt>
      <trkpt lat="44.5956" lon="2.9362">
        <ele>909.3</ele>
        <time>2022-08-05T07:32:23Z</time>
      </trkpt>
      <trkpt lat="44.59561" lon="2.93622">
        <ele>909.5</ele>
        <time>2022-08-05T07:32:25Z</time>
      </trkpt>
      <trkpt lat="44.59562" lon="2.93624">
        <ele>909.6</ele>
        <time>2022-08-05T07:32:27Z</time>
      </trkpt>
      <trkpt lat="44.59563" lon="2.9363">
        <ele>909.4</ele>
        <time>2022-08-05T07:32:31Z</time>
      </trkpt>
      <trkpt lat="44.59565" lon="2.93633">
        <ele>909.6</ele>
        <time>2022-08-05T07:32:34Z</time>
      </trkpt>
      <trkpt lat="44.59573" lon="2.9364">
        <ele>910.6</ele>
        <time>2022-08-05T07:32:42Z</time>
      </trkpt>
      <trkpt lat="44.59576" lon="2.93642">
        <ele>911.1</ele>
        <time>2022-08-05T07:32:48Z</time>
      </trkpt>
      <trkpt lat="44.59577" lon="2.93643">
        <ele>911.2</ele>
        <time>2022-08-05T07:32:49Z</time>
      </trkpt>
      <trkpt lat="44.59579" lon="2.93645">
        <ele>911.4</ele>
        <time>2022-08-05T07:32:51Z</time>
      </trkpt>
      <trkpt lat="44.59586" lon="2.93654">
        <ele>912.1</ele>
        <time>2022-08-05T07:32:59Z</time>
      </trkpt>
      <trkpt lat="44.59588" lon="2.93655">
        <ele>912.3</ele>
        <time>2022-08-05T07:33:00Z</time>
      </trkpt>
      <trkpt lat="44.59596" lon="2.93664">
        <ele>913.6</ele>
        <time>2022-08-05T07:33:09Z</time>
      </trkpt>
      <trkpt lat="44.59598" lon="2.93666">
        <ele>913.8</ele>
        <time>2022-08-05T07:33:11Z</time>
      </trkpt>
      <trkpt lat="44.59602" lon="2.93671">
        <ele>914.5</ele>
        <time>2022-08-05T07:33:17Z</time>
      </trkpt>
      <trkpt lat="44.59607" lon="2.93675">
        <ele>915.7</ele>
        <time>2022-08-05T07:33:24Z</time>
      </trkpt>
      <trkpt lat="44.59608" lon="2.93675">
        <ele>915.9</ele>
        <time>2022-08-05T07:33:26Z</time>
      </trkpt>
      <trkpt lat="44.59611" lon="2.93677">
        <ele>916.6</ele>
        <time>2022-08-05T07:33:29Z</time>
      </trkpt>
      <trkpt lat="44.59613" lon="2.9368">
        <ele>917.2</ele>
        <time>2022-08-05T07:33:33Z</time>
      </trkpt>
      <trkpt lat="44.59617" lon="2.93688">
        <ele>918.3</ele>
        <time>2022-08-05T07:33:39Z</time>
      </trkpt>
      <trkpt lat="44.59618" lon="2.9369">
        <ele>918.3</ele>
        <time>2022-08-05T07:33:40Z</time>
      </trkpt>
      <trkpt lat="44.59618" lon="2.93693">
        <ele>918.3</ele>
        <time>2022-08-05T07:33:42Z</time>
      </trkpt>
      <trkpt lat="44.59618" lon="2.93694">
        <ele>918.4</ele>
        <time>2022-08-05T07:33:43Z</time>
      </trkpt>
      <trkpt lat="44.59623" lon="2.93703">
        <ele>919.3</ele>
        <time>2022-08-05T07:33:49Z</time>
      </trkpt>
      <trkpt lat="44.59627" lon="2.93711">
        <ele>920.3</ele>
        <time>2022-08-05T07:33:54Z</time>
      </trkpt>
      <trkpt lat="44.59628" lon="2.93713">
        <ele>920.3</ele>
        <time>2022-08-05T07:33:56Z</time>
      </trkpt>
      <trkpt lat="44.59629" lon="2.93715">
        <ele>920.5</ele>
        <time>2022-08-05T07:33:58Z</time>
      </trkpt>
      <trkpt lat="44.59631" lon="2.93717">
        <ele>921.2</ele>
        <time>2022-08-05T07:34:01Z</time>
      </trkpt>
      <trkpt lat="44.59633" lon="2.93718">
        <ele>921.4</ele>
        <time>2022-08-05T07:34:02Z</time>
      </trkpt>
      <trkpt lat="44.59635" lon="2.93719">
        <ele>922</ele>
        <time>2022-08-05T07:34:04Z</time>
      </trkpt>
      <trkpt lat="44.59637" lon="2.93721">
        <ele>922.5</ele>
        <time>2022-08-05T07:34:08Z</time>
      </trkpt>
      <trkpt lat="44.59639" lon="2.93724">
        <ele>922.9</ele>
        <time>2022-08-05T07:34:12Z</time>
      </trkpt>
      <trkpt lat="44.59641" lon="2.93726">
        <ele>923.4</ele>
        <time>2022-08-05T07:34:15Z</time>
      </trkpt>
      <trkpt lat="44.59642" lon="2.93728">
        <ele>923.6</ele>
        <time>2022-08-05T07:34:17Z</time>
      </trkpt>
      <trkpt lat="44.59642" lon="2.93733">
        <ele>923.6</ele>
        <time>2022-08-05T07:34:20Z</time>
      </trkpt>
      <trkpt lat="44.59642" lon="2.93734">
        <ele>923.5</ele>
        <time>2022-08-05T07:34:21Z</time>
      </trkpt>
      <trkpt lat="44.5964" lon="2.93739">
        <ele>922.6</ele>
        <time>2022-08-05T07:34:25Z</time>
      </trkpt>
      <trkpt lat="44.59638" lon="2.93741">
        <ele>922.1</ele>
        <time>2022-08-05T07:34:27Z</time>
      </trkpt>
      <trkpt lat="44.59633" lon="2.93746">
        <ele>920.7</ele>
        <time>2022-08-05T07:34:31Z</time>
      </trkpt>
      <trkpt lat="44.59629" lon="2.93748">
        <ele>919.5</ele>
        <time>2022-08-05T07:34:36Z</time>
      </trkpt>
      <trkpt lat="44.59626" lon="2.93749">
        <ele>918.8</ele>
        <time>2022-08-05T07:34:39Z</time>
      </trkpt>
      <trkpt lat="44.59624" lon="2.9375">
        <ele>918.4</ele>
        <time>2022-08-05T07:34:40Z</time>
      </trkpt>
      <trkpt lat="44.59618" lon="2.93753">
        <ele>916.9</ele>
        <time>2022-08-05T07:34:44Z</time>
      </trkpt>
      <trkpt lat="44.59613" lon="2.93757">
        <ele>915.7</ele>
        <time>2022-08-05T07:34:48Z</time>
      </trkpt>
      <trkpt lat="44.59611" lon="2.93758">
        <ele>915.2</ele>
        <time>2022-08-05T07:34:50Z</time>
      </trkpt>
      <trkpt lat="44.59605" lon="2.93764">
        <ele>914.2</ele>
        <time>2022-08-05T07:34:57Z</time>
      </trkpt>
      <trkpt lat="44.59603" lon="2.93766">
        <ele>913.8</ele>
        <time>2022-08-05T07:34:59Z</time>
      </trkpt>
      <trkpt lat="44.59602" lon="2.93765">
        <ele>913.6</ele>
        <time>2022-08-05T07:35:02Z</time>
      </trkpt>
      <trkpt lat="44.59603" lon="2.93764">
        <ele>913.8</ele>
        <time>2022-08-05T07:35:04Z</time>
      </trkpt>
      <trkpt lat="44.59603" lon="2.93768">
        <ele>913.9</ele>
        <time>2022-08-05T07:35:07Z</time>
      </trkpt>
      <trkpt lat="44.59602" lon="2.9377">
        <ele>913.7</ele>
        <time>2022-08-05T07:35:09Z</time>
      </trkpt>
      <trkpt lat="44.59596" lon="2.93779">
        <ele>912.9</ele>
        <time>2022-08-05T07:35:17Z</time>
      </trkpt>
      <trkpt lat="44.59593" lon="2.93786">
        <ele>912.6</ele>
        <time>2022-08-05T07:35:24Z</time>
      </trkpt>
      <trkpt lat="44.59591" lon="2.93799">
        <ele>913</ele>
        <time>2022-08-05T07:35:33Z</time>
      </trkpt>
      <trkpt lat="44.59588" lon="2.93813">
        <ele>913.3</ele>
        <time>2022-08-05T07:35:42Z</time>
      </trkpt>
      <trkpt lat="44.59587" lon="2.93817">
        <ele>913.4</ele>
        <time>2022-08-05T07:35:44Z</time>
      </trkpt>
      <trkpt lat="44.59586" lon="2.93821">
        <ele>913.5</ele>
        <time>2022-08-05T07:35:47Z</time>
      </trkpt>
      <trkpt lat="44.59586" lon="2.93822">
        <ele>913.5</ele>
        <time>2022-08-05T07:35:48Z</time>
      </trkpt>
      <trkpt lat="44.59587" lon="2.93828">
        <ele>914</ele>
        <time>2022-08-05T07:35:52Z</time>
      </trkpt>
      <trkpt lat="44.59587" lon="2.93833">
        <ele>914.3</ele>
        <time>2022-08-05T07:35:55Z</time>
      </trkpt>
      <trkpt lat="44.59587" lon="2.93834">
        <ele>914.4</ele>
        <time>2022-08-05T07:35:56Z</time>
      </trkpt>
      <trkpt lat="44.59588" lon="2.93837">
        <ele>914.5</ele>
        <time>2022-08-05T07:36:00Z</time>
      </trkpt>
      <trkpt lat="44.59587" lon="2.93841">
        <ele>914.5</ele>
        <time>2022-08-05T07:36:03Z</time>
      </trkpt>
      <trkpt lat="44.59589" lon="2.93849">
        <ele>914.7</ele>
        <time>2022-08-05T07:36:08Z</time>
      </trkpt>
      <trkpt lat="44.59593" lon="2.93865">
        <ele>915.4</ele>
        <time>2022-08-05T07:36:19Z</time>
      </trkpt>
      <trkpt lat="44.59592" lon="2.93879">
        <ele>915.6</ele>
        <time>2022-08-05T07:36:27Z</time>
      </trkpt>
      <trkpt lat="44.59592" lon="2.9388">
        <ele>915.6</ele>
        <time>2022-08-05T07:36:28Z</time>
      </trkpt>
      <trkpt lat="44.59591" lon="2.93881">
        <ele>915.6</ele>
        <time>2022-08-05T07:36:29Z</time>
      </trkpt>
      <trkpt lat="44.59592" lon="2.93887">
        <ele>915.9</ele>
        <time>2022-08-05T07:36:33Z</time>
      </trkpt>
      <trkpt lat="44.59596" lon="2.93895">
        <ele>917</ele>
        <time>2022-08-05T07:36:41Z</time>
      </trkpt>
      <trkpt lat="44.59595" lon="2.93895">
        <ele>916.9</ele>
        <time>2022-08-05T07:36:42Z</time>
      </trkpt>
      <trkpt lat="44.59598" lon="2.93896">
        <ele>917.4</ele>
        <time>2022-08-05T07:36:46Z</time>
      </trkpt>
      <trkpt lat="44.59598" lon="2.93896">
        <ele>917.6</ele>
        <time>2022-08-05T07:36:48Z</time>
      </trkpt>
      <trkpt lat="44.59597" lon="2.93894">
        <ele>917.3</ele>
        <time>2022-08-05T07:36:52Z</time>
      </trkpt>
      <trkpt lat="44.59597" lon="2.93896">
        <ele>917.4</ele>
        <time>2022-08-05T07:36:57Z</time>
      </trkpt>
      <trkpt lat="44.59597" lon="2.93905">
        <ele>917.9</ele>
        <time>2022-08-05T07:38:10Z</time>
      </trkpt>
      <trkpt lat="44.59602" lon="2.93906">
        <ele>919</ele>
        <time>2022-08-05T07:38:15Z</time>
      </trkpt>
      <trkpt lat="44.59603" lon="2.93905">
        <ele>919.1</ele>
        <time>2022-08-05T07:38:17Z</time>
      </trkpt>
      <trkpt lat="44.59603" lon="2.93904">
        <ele>919.2</ele>
        <time>2022-08-05T07:38:19Z</time>
      </trkpt>
      <trkpt lat="44.59608" lon="2.93905">
        <ele>920.3</ele>
        <time>2022-08-05T07:38:27Z</time>
      </trkpt>
      <trkpt lat="44.5961" lon="2.93908">
        <ele>921</ele>
        <time>2022-08-05T07:38:30Z</time>
      </trkpt>
      <trkpt lat="44.59613" lon="2.9391">
        <ele>922.2</ele>
        <time>2022-08-05T07:38:35Z</time>
      </trkpt>
      <trkpt lat="44.59614" lon="2.9391">
        <ele>922.4</ele>
        <time>2022-08-05T07:38:37Z</time>
      </trkpt>
      <trkpt lat="44.59616" lon="2.93913">
        <ele>923.2</ele>
        <time>2022-08-05T07:38:41Z</time>
      </trkpt>
      <trkpt lat="44.59616" lon="2.93915">
        <ele>923.5</ele>
        <time>2022-08-05T07:38:43Z</time>
      </trkpt>
      <trkpt lat="44.59617" lon="2.93916">
        <ele>923.8</ele>
        <time>2022-08-05T07:38:44Z</time>
      </trkpt>
      <trkpt lat="44.5962" lon="2.93921">
        <ele>925.2</ele>
        <time>2022-08-05T07:38:49Z</time>
      </trkpt>
      <trkpt lat="44.59621" lon="2.93922">
        <ele>925.6</ele>
        <time>2022-08-05T07:38:51Z</time>
      </trkpt>
      <trkpt lat="44.59623" lon="2.93925">
        <ele>926.3</ele>
        <time>2022-08-05T07:38:54Z</time>
      </trkpt>
      <trkpt lat="44.59623" lon="2.93928">
        <ele>926.6</ele>
        <time>2022-08-05T07:38:57Z</time>
      </trkpt>
      <trkpt lat="44.59624" lon="2.93929">
        <ele>926.8</ele>
        <time>2022-08-05T07:38:58Z</time>
      </trkpt>
      <trkpt lat="44.59629" lon="2.93934">
        <ele>928.6</ele>
        <time>2022-08-05T07:39:03Z</time>
      </trkpt>
      <trkpt lat="44.59631" lon="2.93935">
        <ele>929.2</ele>
        <time>2022-08-05T07:39:05Z</time>
      </trkpt>
      <trkpt lat="44.59633" lon="2.93938">
        <ele>929.9</ele>
        <time>2022-08-05T07:39:08Z</time>
      </trkpt>
      <trkpt lat="44.59636" lon="2.93942">
        <ele>931</ele>
        <time>2022-08-05T07:39:13Z</time>
      </trkpt>
      <trkpt lat="44.59637" lon="2.93942">
        <ele>931.3</ele>
        <time>2022-08-05T07:39:14Z</time>
      </trkpt>
      <trkpt lat="44.59638" lon="2.93943">
        <ele>931.6</ele>
        <time>2022-08-05T07:39:16Z</time>
      </trkpt>
      <trkpt lat="44.59638" lon="2.93944">
        <ele>931.7</ele>
        <time>2022-08-05T07:39:18Z</time>
      </trkpt>
      <trkpt lat="44.59638" lon="2.93946">
        <ele>931.9</ele>
        <time>2022-08-05T07:39:20Z</time>
      </trkpt>
      <trkpt lat="44.59639" lon="2.93947">
        <ele>932.1</ele>
        <time>2022-08-05T07:39:22Z</time>
      </trkpt>
      <trkpt lat="44.59642" lon="2.93948">
        <ele>932.9</ele>
        <time>2022-08-05T07:39:26Z</time>
      </trkpt>
      <trkpt lat="44.59644" lon="2.9395">
        <ele>933.6</ele>
        <time>2022-08-05T07:39:29Z</time>
      </trkpt>
      <trkpt lat="44.59646" lon="2.93952">
        <ele>934.2</ele>
        <time>2022-08-05T07:39:32Z</time>
      </trkpt>
      <trkpt lat="44.59646" lon="2.93953">
        <ele>934.4</ele>
        <time>2022-08-05T07:39:33Z</time>
      </trkpt>
      <trkpt lat="44.59647" lon="2.93954">
        <ele>934.6</ele>
        <time>2022-08-05T07:39:35Z</time>
      </trkpt>
      <trkpt lat="44.5965" lon="2.93955">
        <ele>935.4</ele>
        <time>2022-08-05T07:39:38Z</time>
      </trkpt>
      <trkpt lat="44.59651" lon="2.93958">
        <ele>935.8</ele>
        <time>2022-08-05T07:39:40Z</time>
      </trkpt>
      <trkpt lat="44.59652" lon="2.93959">
        <ele>936.3</ele>
        <time>2022-08-05T07:39:42Z</time>
      </trkpt>
      <trkpt lat="44.59654" lon="2.93961">
        <ele>936.8</ele>
        <time>2022-08-05T07:39:44Z</time>
      </trkpt>
      <trkpt lat="44.59655" lon="2.93962">
        <ele>937.3</ele>
        <time>2022-08-05T07:39:46Z</time>
      </trkpt>
      <trkpt lat="44.59657" lon="2.93963">
        <ele>937.8</ele>
        <time>2022-08-05T07:39:48Z</time>
      </trkpt>
      <trkpt lat="44.59658" lon="2.93964">
        <ele>938.1</ele>
        <time>2022-08-05T07:39:50Z</time>
      </trkpt>
      <trkpt lat="44.59659" lon="2.93965">
        <ele>938.5</ele>
        <time>2022-08-05T07:39:52Z</time>
      </trkpt>
      <trkpt lat="44.5966" lon="2.93966">
        <ele>938.8</ele>
        <time>2022-08-05T07:39:54Z</time>
      </trkpt>
      <trkpt lat="44.59661" lon="2.93968">
        <ele>939.3</ele>
        <time>2022-08-05T07:39:56Z</time>
      </trkpt>
      <trkpt lat="44.59663" lon="2.93971">
        <ele>939.8</ele>
        <time>2022-08-05T07:39:59Z</time>
      </trkpt>
      <trkpt lat="44.59664" lon="2.93972">
        <ele>940.1</ele>
        <time>2022-08-05T07:40:00Z</time>
      </trkpt>
      <trkpt lat="44.59665" lon="2.93974">
        <ele>940.4</ele>
        <time>2022-08-05T07:40:02Z</time>
      </trkpt>
      <trkpt lat="44.59667" lon="2.93976">
        <ele>941</ele>
        <time>2022-08-05T07:40:06Z</time>
      </trkpt>
      <trkpt lat="44.59669" lon="2.93981">
        <ele>941.7</ele>
        <time>2022-08-05T07:40:11Z</time>
      </trkpt>
      <trkpt lat="44.5967" lon="2.93982">
        <ele>942</ele>
        <time>2022-08-05T07:40:12Z</time>
      </trkpt>
      <trkpt lat="44.5967" lon="2.93983">
        <ele>942.2</ele>
        <time>2022-08-05T07:40:13Z</time>
      </trkpt>
      <trkpt lat="44.59671" lon="2.93984">
        <ele>942.4</ele>
        <time>2022-08-05T07:40:14Z</time>
      </trkpt>
      <trkpt lat="44.59671" lon="2.93985">
        <ele>942.4</ele>
        <time>2022-08-05T07:40:15Z</time>
      </trkpt>
      <trkpt lat="44.59671" lon="2.93986">
        <ele>942.6</ele>
        <time>2022-08-05T07:40:16Z</time>
      </trkpt>
      <trkpt lat="44.59673" lon="2.93988">
        <ele>943.1</ele>
        <time>2022-08-05T07:40:17Z</time>
      </trkpt>
      <trkpt lat="44.59674" lon="2.9399">
        <ele>943.6</ele>
        <time>2022-08-05T07:40:19Z</time>
      </trkpt>
      <trkpt lat="44.59675" lon="2.93994">
        <ele>944</ele>
        <time>2022-08-05T07:40:22Z</time>
      </trkpt>
      <trkpt lat="44.59677" lon="2.93994">
        <ele>944.5</ele>
        <time>2022-08-05T07:40:24Z</time>
      </trkpt>
      <trkpt lat="44.59678" lon="2.93995">
        <ele>945</ele>
        <time>2022-08-05T07:40:26Z</time>
      </trkpt>
      <trkpt lat="44.59679" lon="2.93995">
        <ele>945.3</ele>
        <time>2022-08-05T07:40:27Z</time>
      </trkpt>
      <trkpt lat="44.59679" lon="2.93995">
        <ele>945.4</ele>
        <time>2022-08-05T07:40:28Z</time>
      </trkpt>
      <trkpt lat="44.59681" lon="2.93998">
        <ele>946.1</ele>
        <time>2022-08-05T07:40:32Z</time>
      </trkpt>
      <trkpt lat="44.59681" lon="2.93998">
        <ele>946.1</ele>
        <time>2022-08-05T07:40:33Z</time>
      </trkpt>
      <trkpt lat="44.59681" lon="2.93999">
        <ele>946.1</ele>
        <time>2022-08-05T07:40:34Z</time>
      </trkpt>
      <trkpt lat="44.59682" lon="2.93998">
        <ele>946.3</ele>
        <time>2022-08-05T07:40:35Z</time>
      </trkpt>
      <trkpt lat="44.59682" lon="2.93997">
        <ele>946.4</ele>
        <time>2022-08-05T07:40:37Z</time>
      </trkpt>
      <trkpt lat="44.59683" lon="2.93997">
        <ele>946.9</ele>
        <time>2022-08-05T07:40:39Z</time>
      </trkpt>
      <trkpt lat="44.59684" lon="2.93998">
        <ele>947.3</ele>
        <time>2022-08-05T07:40:41Z</time>
      </trkpt>
      <trkpt lat="44.59686" lon="2.93996">
        <ele>947.8</ele>
        <time>2022-08-05T07:40:44Z</time>
      </trkpt>
      <trkpt lat="44.59687" lon="2.93996">
        <ele>948.1</ele>
        <time>2022-08-05T07:40:45Z</time>
      </trkpt>
      <trkpt lat="44.59689" lon="2.93995">
        <ele>948.8</ele>
        <time>2022-08-05T07:40:47Z</time>
      </trkpt>
      <trkpt lat="44.5969" lon="2.93994">
        <ele>949.3</ele>
        <time>2022-08-05T07:40:49Z</time>
      </trkpt>
      <trkpt lat="44.59691" lon="2.93994">
        <ele>949.7</ele>
        <time>2022-08-05T07:40:51Z</time>
      </trkpt>
      <trkpt lat="44.59692" lon="2.93994">
        <ele>950</ele>
        <time>2022-08-05T07:40:53Z</time>
      </trkpt>
      <trkpt lat="44.59698" lon="2.93996">
        <ele>951.8</ele>
        <time>2022-08-05T07:41:00Z</time>
      </trkpt>
      <trkpt lat="44.59698" lon="2.93997">
        <ele>951.9</ele>
        <time>2022-08-05T07:41:01Z</time>
      </trkpt>
      <trkpt lat="44.59701" lon="2.94">
        <ele>952.9</ele>
        <time>2022-08-05T07:41:07Z</time>
      </trkpt>
      <trkpt lat="44.59702" lon="2.94001">
        <ele>953.1</ele>
        <time>2022-08-05T07:41:08Z</time>
      </trkpt>
      <trkpt lat="44.59703" lon="2.94005">
        <ele>953.7</ele>
        <time>2022-08-05T07:41:12Z</time>
      </trkpt>
      <trkpt lat="44.59703" lon="2.94005">
        <ele>953.7</ele>
        <time>2022-08-05T07:41:13Z</time>
      </trkpt>
      <trkpt lat="44.59706" lon="2.94006">
        <ele>954.5</ele>
        <time>2022-08-05T07:41:18Z</time>
      </trkpt>
      <trkpt lat="44.59707" lon="2.94006">
        <ele>954.7</ele>
        <time>2022-08-05T07:41:20Z</time>
      </trkpt>
      <trkpt lat="44.59713" lon="2.94007">
        <ele>956.3</ele>
        <time>2022-08-05T07:41:26Z</time>
      </trkpt>
      <trkpt lat="44.59713" lon="2.94008">
        <ele>956.5</ele>
        <time>2022-08-05T07:41:27Z</time>
      </trkpt>
      <trkpt lat="44.59715" lon="2.94013">
        <ele>956.9</ele>
        <time>2022-08-05T07:41:31Z</time>
      </trkpt>
      <trkpt lat="44.59717" lon="2.94016">
        <ele>957.5</ele>
        <time>2022-08-05T07:41:34Z</time>
      </trkpt>
      <trkpt lat="44.59721" lon="2.94026">
        <ele>958.8</ele>
        <time>2022-08-05T07:41:43Z</time>
      </trkpt>
      <trkpt lat="44.59726" lon="2.94035">
        <ele>959.6</ele>
        <time>2022-08-05T07:41:49Z</time>
      </trkpt>
      <trkpt lat="44.59726" lon="2.94037">
        <ele>959.7</ele>
        <time>2022-08-05T07:41:50Z</time>
      </trkpt>
      <trkpt lat="44.59726" lon="2.94037">
        <ele>959.7</ele>
        <time>2022-08-05T07:41:51Z</time>
      </trkpt>
      <trkpt lat="44.59729" lon="2.94043">
        <ele>960.3</ele>
        <time>2022-08-05T07:41:57Z</time>
      </trkpt>
      <trkpt lat="44.59729" lon="2.94044">
        <ele>960.4</ele>
        <time>2022-08-05T07:41:58Z</time>
      </trkpt>
      <trkpt lat="44.5973" lon="2.94048">
        <ele>960.6</ele>
        <time>2022-08-05T07:42:02Z</time>
      </trkpt>
      <trkpt lat="44.59731" lon="2.94053">
        <ele>960.9</ele>
        <time>2022-08-05T07:42:07Z</time>
      </trkpt>
      <trkpt lat="44.59733" lon="2.94057">
        <ele>961.7</ele>
        <time>2022-08-05T07:42:11Z</time>
      </trkpt>
      <trkpt lat="44.59735" lon="2.94061">
        <ele>962.6</ele>
        <time>2022-08-05T07:42:15Z</time>
      </trkpt>
      <trkpt lat="44.59737" lon="2.94064">
        <ele>963.4</ele>
        <time>2022-08-05T07:42:19Z</time>
      </trkpt>
      <trkpt lat="44.59738" lon="2.94067">
        <ele>963.9</ele>
        <time>2022-08-05T07:42:22Z</time>
      </trkpt>
      <trkpt lat="44.5974" lon="2.94073">
        <ele>964.7</ele>
        <time>2022-08-05T07:42:27Z</time>
      </trkpt>
      <trkpt lat="44.59741" lon="2.94075">
        <ele>965.2</ele>
        <time>2022-08-05T07:42:31Z</time>
      </trkpt>
      <trkpt lat="44.59741" lon="2.94075">
        <ele>965.2</ele>
        <time>2022-08-05T07:42:32Z</time>
      </trkpt>
      <trkpt lat="44.59741" lon="2.94075">
        <ele>965.1</ele>
        <time>2022-08-05T07:42:35Z</time>
      </trkpt>
      <trkpt lat="44.59741" lon="2.94075">
        <ele>965.1</ele>
        <time>2022-08-05T07:42:38Z</time>
      </trkpt>
      <trkpt lat="44.59739" lon="2.94074">
        <ele>964.5</ele>
        <time>2022-08-05T07:43:09Z</time>
      </trkpt>
      <trkpt lat="44.59739" lon="2.94074">
        <ele>964.5</ele>
        <time>2022-08-05T07:43:11Z</time>
      </trkpt>
      <trkpt lat="44.59738" lon="2.94075">
        <ele>964.3</ele>
        <time>2022-08-05T07:43:45Z</time>
      </trkpt>
      <trkpt lat="44.59745" lon="2.94079">
        <ele>966.6</ele>
        <time>2022-08-05T07:43:55Z</time>
      </trkpt>
      <trkpt lat="44.59749" lon="2.94083">
        <ele>967.8</ele>
        <time>2022-08-05T07:43:58Z</time>
      </trkpt>
      <trkpt lat="44.59751" lon="2.94085">
        <ele>968.2</ele>
        <time>2022-08-05T07:43:59Z</time>
      </trkpt>
      <trkpt lat="44.59753" lon="2.94087">
        <ele>968.9</ele>
        <time>2022-08-05T07:44:01Z</time>
      </trkpt>
      <trkpt lat="44.59756" lon="2.9409">
        <ele>969.7</ele>
        <time>2022-08-05T07:44:05Z</time>
      </trkpt>
      <trkpt lat="44.59758" lon="2.94092">
        <ele>970.6</ele>
        <time>2022-08-05T07:44:08Z</time>
      </trkpt>
      <trkpt lat="44.59761" lon="2.94097">
        <ele>971.6</ele>
        <time>2022-08-05T07:44:12Z</time>
      </trkpt>
      <trkpt lat="44.59764" lon="2.94101">
        <ele>972.7</ele>
        <time>2022-08-05T07:44:16Z</time>
      </trkpt>
      <trkpt lat="44.59764" lon="2.94104">
        <ele>973.2</ele>
        <time>2022-08-05T07:44:18Z</time>
      </trkpt>
      <trkpt lat="44.59765" lon="2.94109">
        <ele>974</ele>
        <time>2022-08-05T07:44:22Z</time>
      </trkpt>
      <trkpt lat="44.59766" lon="2.94115">
        <ele>974.3</ele>
        <time>2022-08-05T07:44:26Z</time>
      </trkpt>
      <trkpt lat="44.59766" lon="2.94116">
        <ele>974.5</ele>
        <time>2022-08-05T07:44:27Z</time>
      </trkpt>
      <trkpt lat="44.59766" lon="2.94122">
        <ele>974.4</ele>
        <time>2022-08-05T07:44:33Z</time>
      </trkpt>
      <trkpt lat="44.59766" lon="2.94123">
        <ele>974.4</ele>
        <time>2022-08-05T07:44:34Z</time>
      </trkpt>
      <trkpt lat="44.59769" lon="2.9413">
        <ele>975.1</ele>
        <time>2022-08-05T07:44:40Z</time>
      </trkpt>
      <trkpt lat="44.59771" lon="2.94134">
        <ele>975.6</ele>
        <time>2022-08-05T07:44:43Z</time>
      </trkpt>
      <trkpt lat="44.59773" lon="2.94135">
        <ele>975.9</ele>
        <time>2022-08-05T07:44:46Z</time>
      </trkpt>
      <trkpt lat="44.59773" lon="2.94136">
        <ele>975.9</ele>
        <time>2022-08-05T07:44:47Z</time>
      </trkpt>
      <trkpt lat="44.59774" lon="2.94135">
        <ele>976.1</ele>
        <time>2022-08-05T07:44:53Z</time>
      </trkpt>
      <trkpt lat="44.59772" lon="2.94134">
        <ele>975.8</ele>
        <time>2022-08-05T07:44:59Z</time>
      </trkpt>
      <trkpt lat="44.59773" lon="2.94138">
        <ele>976</ele>
        <time>2022-08-05T07:45:07Z</time>
      </trkpt>
      <trkpt lat="44.59774" lon="2.94143">
        <ele>975.9</ele>
        <time>2022-08-05T07:45:15Z</time>
      </trkpt>
      <trkpt lat="44.59775" lon="2.94144">
        <ele>976</ele>
        <time>2022-08-05T07:45:28Z</time>
      </trkpt>
      <trkpt lat="44.59777" lon="2.94151">
        <ele>975.9</ele>
        <time>2022-08-05T07:45:55Z</time>
      </trkpt>
      <trkpt lat="44.59782" lon="2.94162">
        <ele>976.4</ele>
        <time>2022-08-05T07:46:00Z</time>
      </trkpt>
      <trkpt lat="44.59783" lon="2.94167">
        <ele>976.2</ele>
        <time>2022-08-05T07:46:03Z</time>
      </trkpt>
      <trkpt lat="44.59785" lon="2.94177">
        <ele>976.3</ele>
        <time>2022-08-05T07:46:09Z</time>
      </trkpt>
      <trkpt lat="44.59786" lon="2.94178">
        <ele>976.5</ele>
        <time>2022-08-05T07:46:10Z</time>
      </trkpt>
      <trkpt lat="44.59786" lon="2.94182">
        <ele>976.4</ele>
        <time>2022-08-05T07:46:15Z</time>
      </trkpt>
      <trkpt lat="44.59783" lon="2.94187">
        <ele>975.2</ele>
        <time>2022-08-05T07:46:23Z</time>
      </trkpt>
      <trkpt lat="44.59788" lon="2.94193">
        <ele>976.2</ele>
        <time>2022-08-05T07:46:29Z</time>
      </trkpt>
      <trkpt lat="44.59788" lon="2.94194">
        <ele>976.4</ele>
        <time>2022-08-05T07:46:30Z</time>
      </trkpt>
      <trkpt lat="44.59791" lon="2.94201">
        <ele>977</ele>
        <time>2022-08-05T07:46:35Z</time>
      </trkpt>
      <trkpt lat="44.59794" lon="2.9421">
        <ele>977.4</ele>
        <time>2022-08-05T07:46:42Z</time>
      </trkpt>
      <trkpt lat="44.59795" lon="2.94211">
        <ele>977.6</ele>
        <time>2022-08-05T07:46:43Z</time>
      </trkpt>
      <trkpt lat="44.59799" lon="2.94226">
        <ele>977.9</ele>
        <time>2022-08-05T07:46:52Z</time>
      </trkpt>
      <trkpt lat="44.59803" lon="2.94238">
        <ele>978.1</ele>
        <time>2022-08-05T07:47:01Z</time>
      </trkpt>
      <trkpt lat="44.59803" lon="2.9424">
        <ele>978</ele>
        <time>2022-08-05T07:47:02Z</time>
      </trkpt>
      <trkpt lat="44.59802" lon="2.9424">
        <ele>977.8</ele>
        <time>2022-08-05T07:47:04Z</time>
      </trkpt>
      <trkpt lat="44.59802" lon="2.94239">
        <ele>977.9</ele>
        <time>2022-08-05T07:47:05Z</time>
      </trkpt>
      <trkpt lat="44.59802" lon="2.94238">
        <ele>977.9</ele>
        <time>2022-08-05T07:47:06Z</time>
      </trkpt>
      <trkpt lat="44.59801" lon="2.94242">
        <ele>977.5</ele>
        <time>2022-08-05T07:47:10Z</time>
      </trkpt>
      <trkpt lat="44.59802" lon="2.94252">
        <ele>977</ele>
        <time>2022-08-05T07:47:16Z</time>
      </trkpt>
      <trkpt lat="44.59803" lon="2.94254">
        <ele>977</ele>
        <time>2022-08-05T07:47:17Z</time>
      </trkpt>
      <trkpt lat="44.59806" lon="2.9427">
        <ele>976.7</ele>
        <time>2022-08-05T07:47:26Z</time>
      </trkpt>
      <trkpt lat="44.59807" lon="2.94284">
        <ele>976</ele>
        <time>2022-08-05T07:47:35Z</time>
      </trkpt>
      <trkpt lat="44.59808" lon="2.94287">
        <ele>976.1</ele>
        <time>2022-08-05T07:47:37Z</time>
      </trkpt>
      <trkpt lat="44.59809" lon="2.94292">
        <ele>976</ele>
        <time>2022-08-05T07:47:40Z</time>
      </trkpt>
      <trkpt lat="44.5981" lon="2.94297">
        <ele>975.7</ele>
        <time>2022-08-05T07:47:43Z</time>
      </trkpt>
      <trkpt lat="44.5981" lon="2.943">
        <ele>975.4</ele>
        <time>2022-08-05T07:47:45Z</time>
      </trkpt>
      <trkpt lat="44.5981" lon="2.94301">
        <ele>975.3</ele>
        <time>2022-08-05T07:47:46Z</time>
      </trkpt>
      <trkpt lat="44.59811" lon="2.94304">
        <ele>975.5</ele>
        <time>2022-08-05T07:47:48Z</time>
      </trkpt>
      <trkpt lat="44.59812" lon="2.94307">
        <ele>975.7</ele>
        <time>2022-08-05T07:47:50Z</time>
      </trkpt>
      <trkpt lat="44.59813" lon="2.94308">
        <ele>975.8</ele>
        <time>2022-08-05T07:47:51Z</time>
      </trkpt>
      <trkpt lat="44.59813" lon="2.94309">
        <ele>975.8</ele>
        <time>2022-08-05T07:47:52Z</time>
      </trkpt>
      <trkpt lat="44.59813" lon="2.9431">
        <ele>975.6</ele>
        <time>2022-08-05T07:47:53Z</time>
      </trkpt>
      <trkpt lat="44.59813" lon="2.94313">
        <ele>975.5</ele>
        <time>2022-08-05T07:47:55Z</time>
      </trkpt>
      <trkpt lat="44.59818" lon="2.94324">
        <ele>976.2</ele>
        <time>2022-08-05T07:48:02Z</time>
      </trkpt>
      <trkpt lat="44.5982" lon="2.9433">
        <ele>976.3</ele>
        <time>2022-08-05T07:48:06Z</time>
      </trkpt>
      <trkpt lat="44.59824" lon="2.94335">
        <ele>977.2</ele>
        <time>2022-08-05T07:48:10Z</time>
      </trkpt>
      <trkpt lat="44.59825" lon="2.94338">
        <ele>977.3</ele>
        <time>2022-08-05T07:48:13Z</time>
      </trkpt>
      <trkpt lat="44.59827" lon="2.94341">
        <ele>977.4</ele>
        <time>2022-08-05T07:48:16Z</time>
      </trkpt>
      <trkpt lat="44.59829" lon="2.94344">
        <ele>977.8</ele>
        <time>2022-08-05T07:48:18Z</time>
      </trkpt>
      <trkpt lat="44.59831" lon="2.94347">
        <ele>978</ele>
        <time>2022-08-05T07:48:22Z</time>
      </trkpt>
      <trkpt lat="44.59833" lon="2.94352">
        <ele>978.4</ele>
        <time>2022-08-05T07:48:24Z</time>
      </trkpt>
      <trkpt lat="44.59834" lon="2.94354">
        <ele>978.4</ele>
        <time>2022-08-05T07:48:26Z</time>
      </trkpt>
      <trkpt lat="44.59834" lon="2.94354">
        <ele>978.5</ele>
        <time>2022-08-05T07:48:27Z</time>
      </trkpt>
      <trkpt lat="44.59836" lon="2.94353">
        <ele>979.2</ele>
        <time>2022-08-05T07:48:29Z</time>
      </trkpt>
      <trkpt lat="44.59838" lon="2.94356">
        <ele>979.9</ele>
        <time>2022-08-05T07:48:32Z</time>
      </trkpt>
      <trkpt lat="44.59839" lon="2.94358">
        <ele>979.8</ele>
        <time>2022-08-05T07:48:33Z</time>
      </trkpt>
      <trkpt lat="44.59841" lon="2.94363">
        <ele>980.2</ele>
        <time>2022-08-05T07:48:36Z</time>
      </trkpt>
      <trkpt lat="44.59847" lon="2.94372">
        <ele>981.4</ele>
        <time>2022-08-05T07:48:43Z</time>
      </trkpt>
      <trkpt lat="44.59847" lon="2.94373">
        <ele>981.4</ele>
        <time>2022-08-05T07:48:44Z</time>
      </trkpt>
      <trkpt lat="44.59847" lon="2.94374">
        <ele>981.4</ele>
        <time>2022-08-05T07:48:45Z</time>
      </trkpt>
      <trkpt lat="44.59848" lon="2.94378">
        <ele>981.2</ele>
        <time>2022-08-05T07:48:49Z</time>
      </trkpt>
      <trkpt lat="44.59849" lon="2.94379">
        <ele>981.4</ele>
        <time>2022-08-05T07:48:51Z</time>
      </trkpt>
      <trkpt lat="44.5985" lon="2.9438">
        <ele>981.6</ele>
        <time>2022-08-05T07:48:52Z</time>
      </trkpt>
      <trkpt lat="44.59851" lon="2.94383">
        <ele>982</ele>
        <time>2022-08-05T07:48:54Z</time>
      </trkpt>
      <trkpt lat="44.59852" lon="2.94384">
        <ele>982.1</ele>
        <time>2022-08-05T07:48:55Z</time>
      </trkpt>
      <trkpt lat="44.59855" lon="2.94387">
        <ele>982.7</ele>
        <time>2022-08-05T07:48:57Z</time>
      </trkpt>
      <trkpt lat="44.59857" lon="2.9439">
        <ele>983.2</ele>
        <time>2022-08-05T07:48:59Z</time>
      </trkpt>
      <trkpt lat="44.59859" lon="2.94394">
        <ele>983.4</ele>
        <time>2022-08-05T07:49:02Z</time>
      </trkpt>
      <trkpt lat="44.5986" lon="2.94395">
        <ele>983.5</ele>
        <time>2022-08-05T07:49:03Z</time>
      </trkpt>
      <trkpt lat="44.59864" lon="2.94399">
        <ele>984.1</ele>
        <time>2022-08-05T07:49:06Z</time>
      </trkpt>
      <trkpt lat="44.59866" lon="2.94404">
        <ele>984.1</ele>
        <time>2022-08-05T07:49:10Z</time>
      </trkpt>
      <trkpt lat="44.59867" lon="2.94406">
        <ele>984.1</ele>
        <time>2022-08-05T07:49:12Z</time>
      </trkpt>
      <trkpt lat="44.5987" lon="2.94408">
        <ele>984.6</ele>
        <time>2022-08-05T07:49:15Z</time>
      </trkpt>
      <trkpt lat="44.59874" lon="2.94411">
        <ele>985.7</ele>
        <time>2022-08-05T07:49:21Z</time>
      </trkpt>
      <trkpt lat="44.5988" lon="2.94419">
        <ele>986.4</ele>
        <time>2022-08-05T07:49:27Z</time>
      </trkpt>
      <trkpt lat="44.59885" lon="2.94426">
        <ele>986.7</ele>
        <time>2022-08-05T07:49:33Z</time>
      </trkpt>
      <trkpt lat="44.59887" lon="2.94427">
        <ele>987</ele>
        <time>2022-08-05T07:49:34Z</time>
      </trkpt>
      <trkpt lat="44.59894" lon="2.94436">
        <ele>987.5</ele>
        <time>2022-08-05T07:49:43Z</time>
      </trkpt>
      <trkpt lat="44.59895" lon="2.94439">
        <ele>987.2</ele>
        <time>2022-08-05T07:49:46Z</time>
      </trkpt>
      <trkpt lat="44.59898" lon="2.94443">
        <ele>987.2</ele>
        <time>2022-08-05T07:49:49Z</time>
      </trkpt>
      <trkpt lat="44.59899" lon="2.94446">
        <ele>986.8</ele>
        <time>2022-08-05T07:49:51Z</time>
      </trkpt>
      <trkpt lat="44.59901" lon="2.9445">
        <ele>986.6</ele>
        <time>2022-08-05T07:49:55Z</time>
      </trkpt>
      <trkpt lat="44.59903" lon="2.94452">
        <ele>987</ele>
        <time>2022-08-05T07:49:58Z</time>
      </trkpt>
      <trkpt lat="44.59905" lon="2.94453">
        <ele>987.5</ele>
        <time>2022-08-05T07:50:00Z</time>
      </trkpt>
      <trkpt lat="44.59907" lon="2.94452">
        <ele>988.2</ele>
        <time>2022-08-05T07:50:02Z</time>
      </trkpt>
      <trkpt lat="44.59909" lon="2.94451">
        <ele>988.9</ele>
        <time>2022-08-05T07:50:04Z</time>
      </trkpt>
      <trkpt lat="44.59912" lon="2.94452">
        <ele>989.5</ele>
        <time>2022-08-05T07:50:07Z</time>
      </trkpt>
      <trkpt lat="44.59912" lon="2.94453">
        <ele>989.5</ele>
        <time>2022-08-05T07:50:08Z</time>
      </trkpt>
      <trkpt lat="44.59915" lon="2.94455">
        <ele>989.8</ele>
        <time>2022-08-05T07:50:10Z</time>
      </trkpt>
      <trkpt lat="44.59921" lon="2.94458">
        <ele>991</ele>
        <time>2022-08-05T07:50:14Z</time>
      </trkpt>
      <trkpt lat="44.59924" lon="2.94459">
        <ele>991.8</ele>
        <time>2022-08-05T07:50:17Z</time>
      </trkpt>
      <trkpt lat="44.59925" lon="2.9446">
        <ele>991.9</ele>
        <time>2022-08-05T07:50:18Z</time>
      </trkpt>
      <trkpt lat="44.59926" lon="2.9446">
        <ele>992.3</ele>
        <time>2022-08-05T07:50:19Z</time>
      </trkpt>
      <trkpt lat="44.59927" lon="2.94462">
        <ele>992.3</ele>
        <time>2022-08-05T07:50:22Z</time>
      </trkpt>
      <trkpt lat="44.59928" lon="2.94465">
        <ele>991.9</ele>
        <time>2022-08-05T07:50:25Z</time>
      </trkpt>
      <trkpt lat="44.59928" lon="2.94466">
        <ele>991.7</ele>
        <time>2022-08-05T07:50:26Z</time>
      </trkpt>
      <trkpt lat="44.59929" lon="2.94467">
        <ele>991.8</ele>
        <time>2022-08-05T07:50:28Z</time>
      </trkpt>
      <trkpt lat="44.59931" lon="2.94469">
        <ele>991.9</ele>
        <time>2022-08-05T07:50:32Z</time>
      </trkpt>
      <trkpt lat="44.59932" lon="2.9447">
        <ele>991.9</ele>
        <time>2022-08-05T07:50:34Z</time>
      </trkpt>
      <trkpt lat="44.59932" lon="2.94471">
        <ele>991.6</ele>
        <time>2022-08-05T07:50:35Z</time>
      </trkpt>
      <trkpt lat="44.5993" lon="2.94473">
        <ele>990.7</ele>
        <time>2022-08-05T07:50:42Z</time>
      </trkpt>
      <trkpt lat="44.59931" lon="2.94474">
        <ele>990.6</ele>
        <time>2022-08-05T07:50:54Z</time>
      </trkpt>
      <trkpt lat="44.59931" lon="2.94474">
        <ele>990.6</ele>
        <time>2022-08-05T07:51:01Z</time>
      </trkpt>
      <trkpt lat="44.59937" lon="2.9448">
        <ele>991.5</ele>
        <time>2022-08-05T07:51:14Z</time>
      </trkpt>
      <trkpt lat="44.59938" lon="2.94481">
        <ele>991.5</ele>
        <time>2022-08-05T07:51:15Z</time>
      </trkpt>
      <trkpt lat="44.5994" lon="2.94484">
        <ele>991.5</ele>
        <time>2022-08-05T07:51:17Z</time>
      </trkpt>
      <trkpt lat="44.59942" lon="2.94486">
        <ele>991.7</ele>
        <time>2022-08-05T07:51:19Z</time>
      </trkpt>
      <trkpt lat="44.59944" lon="2.94487">
        <ele>991.9</ele>
        <time>2022-08-05T07:51:20Z</time>
      </trkpt>
      <trkpt lat="44.59947" lon="2.94491">
        <ele>992.2</ele>
        <time>2022-08-05T07:51:24Z</time>
      </trkpt>
      <trkpt lat="44.59948" lon="2.94494">
        <ele>991.9</ele>
        <time>2022-08-05T07:51:26Z</time>
      </trkpt>
      <trkpt lat="44.59952" lon="2.94498">
        <ele>992.6</ele>
        <time>2022-08-05T07:51:32Z</time>
      </trkpt>
      <trkpt lat="44.59954" lon="2.94502">
        <ele>992.3</ele>
        <time>2022-08-05T07:51:35Z</time>
      </trkpt>
      <trkpt lat="44.59962" lon="2.9451">
        <ele>993.6</ele>
        <time>2022-08-05T07:51:41Z</time>
      </trkpt>
      <trkpt lat="44.59964" lon="2.94513">
        <ele>993.8</ele>
        <time>2022-08-05T07:51:44Z</time>
      </trkpt>
      <trkpt lat="44.59967" lon="2.94517">
        <ele>993.8</ele>
        <time>2022-08-05T07:51:48Z</time>
      </trkpt>
      <trkpt lat="44.59969" lon="2.9452">
        <ele>993.9</ele>
        <time>2022-08-05T07:51:52Z</time>
      </trkpt>
      <trkpt lat="44.59972" lon="2.94523">
        <ele>993.9</ele>
        <time>2022-08-05T07:51:56Z</time>
      </trkpt>
      <trkpt lat="44.59973" lon="2.94526">
        <ele>993.6</ele>
        <time>2022-08-05T07:51:58Z</time>
      </trkpt>
      <trkpt lat="44.59973" lon="2.94527">
        <ele>993.7</ele>
        <time>2022-08-05T07:51:59Z</time>
      </trkpt>
      <trkpt lat="44.59979" lon="2.94536">
        <ele>993.8</ele>
        <time>2022-08-05T07:52:06Z</time>
      </trkpt>
      <trkpt lat="44.59979" lon="2.94536">
        <ele>993.8</ele>
        <time>2022-08-05T07:52:07Z</time>
      </trkpt>
      <trkpt lat="44.59983" lon="2.94543">
        <ele>993.7</ele>
        <time>2022-08-05T07:52:12Z</time>
      </trkpt>
      <trkpt lat="44.59989" lon="2.94546">
        <ele>995.1</ele>
        <time>2022-08-05T07:52:17Z</time>
      </trkpt>
      <trkpt lat="44.59991" lon="2.9455">
        <ele>995.2</ele>
        <time>2022-08-05T07:52:19Z</time>
      </trkpt>
      <trkpt lat="44.59995" lon="2.94557">
        <ele>995.1</ele>
        <time>2022-08-05T07:52:25Z</time>
      </trkpt>
      <trkpt lat="44.60001" lon="2.94565">
        <ele>995.5</ele>
        <time>2022-08-05T07:52:31Z</time>
      </trkpt>
      <trkpt lat="44.60005" lon="2.94572">
        <ele>995.8</ele>
        <time>2022-08-05T07:52:37Z</time>
      </trkpt>
      <trkpt lat="44.60007" lon="2.94579">
        <ele>995.2</ele>
        <time>2022-08-05T07:52:43Z</time>
      </trkpt>
      <trkpt lat="44.60012" lon="2.94587">
        <ele>996</ele>
        <time>2022-08-05T07:52:49Z</time>
      </trkpt>
      <trkpt lat="44.60014" lon="2.9459">
        <ele>996.1</ele>
        <time>2022-08-05T07:52:51Z</time>
      </trkpt>
      <trkpt lat="44.60018" lon="2.94594">
        <ele>996.8</ele>
        <time>2022-08-05T07:52:56Z</time>
      </trkpt>
      <trkpt lat="44.6002" lon="2.94597">
        <ele>997</ele>
        <time>2022-08-05T07:53:00Z</time>
      </trkpt>
      <trkpt lat="44.60021" lon="2.94599">
        <ele>997.1</ele>
        <time>2022-08-05T07:53:02Z</time>
      </trkpt>
      <trkpt lat="44.60026" lon="2.94608">
        <ele>997</ele>
        <time>2022-08-05T07:53:09Z</time>
      </trkpt>
      <trkpt lat="44.60031" lon="2.94612">
        <ele>997.8</ele>
        <time>2022-08-05T07:53:13Z</time>
      </trkpt>
      <trkpt lat="44.60032" lon="2.94614">
        <ele>997.9</ele>
        <time>2022-08-05T07:53:15Z</time>
      </trkpt>
      <trkpt lat="44.60033" lon="2.94617">
        <ele>997.9</ele>
        <time>2022-08-05T07:53:19Z</time>
      </trkpt>
      <trkpt lat="44.60041" lon="2.94625">
        <ele>999.2</ele>
        <time>2022-08-05T07:53:28Z</time>
      </trkpt>
      <trkpt lat="44.60041" lon="2.94625">
        <ele>999.2</ele>
        <time>2022-08-05T07:53:29Z</time>
      </trkpt>
      <trkpt lat="44.60042" lon="2.94627">
        <ele>999</ele>
        <time>2022-08-05T07:53:32Z</time>
      </trkpt>
      <trkpt lat="44.60043" lon="2.94628">
        <ele>999.1</ele>
        <time>2022-08-05T07:53:33Z</time>
      </trkpt>
      <trkpt lat="44.60043" lon="2.94629">
        <ele>999.1</ele>
        <time>2022-08-05T07:53:34Z</time>
      </trkpt>
      <trkpt lat="44.60045" lon="2.9463">
        <ele>999.4</ele>
        <time>2022-08-05T07:53:37Z</time>
      </trkpt>
      <trkpt lat="44.60048" lon="2.94631">
        <ele>1000.1</ele>
        <time>2022-08-05T07:53:39Z</time>
      </trkpt>
      <trkpt lat="44.60051" lon="2.94634">
        <ele>1000.5</ele>
        <time>2022-08-05T07:53:41Z</time>
      </trkpt>
      <trkpt lat="44.60058" lon="2.94641">
        <ele>1001.6</ele>
        <time>2022-08-05T07:53:47Z</time>
      </trkpt>
      <trkpt lat="44.60059" lon="2.94643">
        <ele>1001.7</ele>
        <time>2022-08-05T07:53:49Z</time>
      </trkpt>
      <trkpt lat="44.60061" lon="2.94644">
        <ele>1002.1</ele>
        <time>2022-08-05T07:53:51Z</time>
      </trkpt>
      <trkpt lat="44.60065" lon="2.94647">
        <ele>1002.9</ele>
        <time>2022-08-05T07:53:57Z</time>
      </trkpt>
      <trkpt lat="44.60066" lon="2.94649">
        <ele>1003.1</ele>
        <time>2022-08-05T07:53:59Z</time>
      </trkpt>
      <trkpt lat="44.6007" lon="2.94651">
        <ele>1003.9</ele>
        <time>2022-08-05T07:54:03Z</time>
      </trkpt>
      <trkpt lat="44.60075" lon="2.94653">
        <ele>1005.3</ele>
        <time>2022-08-05T07:54:09Z</time>
      </trkpt>
      <trkpt lat="44.6008" lon="2.94661">
        <ele>1005.4</ele>
        <time>2022-08-05T07:54:15Z</time>
      </trkpt>
      <trkpt lat="44.60086" lon="2.9467">
        <ele>1005.3</ele>
        <time>2022-08-05T07:54:21Z</time>
      </trkpt>
      <trkpt lat="44.6009" lon="2.94678">
        <ele>1005.4</ele>
        <time>2022-08-05T07:54:26Z</time>
      </trkpt>
      <trkpt lat="44.60092" lon="2.94683">
        <ele>1005.3</ele>
        <time>2022-08-05T07:54:29Z</time>
      </trkpt>
      <trkpt lat="44.60093" lon="2.94685">
        <ele>1005.3</ele>
        <time>2022-08-05T07:54:31Z</time>
      </trkpt>
      <trkpt lat="44.60094" lon="2.94687">
        <ele>1005.4</ele>
        <time>2022-08-05T07:54:34Z</time>
      </trkpt>
      <trkpt lat="44.60095" lon="2.94687">
        <ele>1005.5</ele>
        <time>2022-08-05T07:54:35Z</time>
      </trkpt>
      <trkpt lat="44.60096" lon="2.9469">
        <ele>1005.3</ele>
        <time>2022-08-05T07:54:36Z</time>
      </trkpt>
      <trkpt lat="44.60098" lon="2.94696">
        <ele>1004.9</ele>
        <time>2022-08-05T07:54:41Z</time>
      </trkpt>
      <trkpt lat="44.60098" lon="2.94698">
        <ele>1004.8</ele>
        <time>2022-08-05T07:54:45Z</time>
      </trkpt>
      <trkpt lat="44.601" lon="2.94702">
        <ele>1004.9</ele>
        <time>2022-08-05T07:54:50Z</time>
      </trkpt>
      <trkpt lat="44.60105" lon="2.9471">
        <ele>1004.9</ele>
        <time>2022-08-05T07:54:56Z</time>
      </trkpt>
      <trkpt lat="44.60108" lon="2.94718">
        <ele>1004.3</ele>
        <time>2022-08-05T07:55:03Z</time>
      </trkpt>
      <trkpt lat="44.60115" lon="2.94729">
        <ele>1005.6</ele>
        <time>2022-08-05T07:55:11Z</time>
      </trkpt>
      <trkpt lat="44.60118" lon="2.94729">
        <ele>1006.5</ele>
        <time>2022-08-05T07:55:14Z</time>
      </trkpt>
      <trkpt lat="44.60121" lon="2.94731">
        <ele>1007.2</ele>
        <time>2022-08-05T07:55:16Z</time>
      </trkpt>
      <trkpt lat="44.60122" lon="2.94732">
        <ele>1007.6</ele>
        <time>2022-08-05T07:55:17Z</time>
      </trkpt>
      <trkpt lat="44.60127" lon="2.94735">
        <ele>1009.2</ele>
        <time>2022-08-05T07:55:22Z</time>
      </trkpt>
      <trkpt lat="44.60126" lon="2.94737">
        <ele>1009.2</ele>
        <time>2022-08-05T07:55:24Z</time>
      </trkpt>
      <trkpt lat="44.60127" lon="2.94739">
        <ele>1009.5</ele>
        <time>2022-08-05T07:55:26Z</time>
      </trkpt>
      <trkpt lat="44.60131" lon="2.94741">
        <ele>1010.5</ele>
        <time>2022-08-05T07:55:29Z</time>
      </trkpt>
      <trkpt lat="44.60132" lon="2.94743">
        <ele>1010.9</ele>
        <time>2022-08-05T07:55:31Z</time>
      </trkpt>
      <trkpt lat="44.60135" lon="2.94746">
        <ele>1011.7</ele>
        <time>2022-08-05T07:55:35Z</time>
      </trkpt>
      <trkpt lat="44.60137" lon="2.94744">
        <ele>1012.2</ele>
        <time>2022-08-05T07:55:39Z</time>
      </trkpt>
      <trkpt lat="44.6014" lon="2.94739">
        <ele>1013.1</ele>
        <time>2022-08-05T07:55:45Z</time>
      </trkpt>
      <trkpt lat="44.60148" lon="2.94742">
        <ele>1015.7</ele>
        <time>2022-08-05T07:55:50Z</time>
      </trkpt>
      <trkpt lat="44.60148" lon="2.94743">
        <ele>1015.8</ele>
        <time>2022-08-05T07:55:51Z</time>
      </trkpt>
      <trkpt lat="44.60149" lon="2.94744">
        <ele>1016.2</ele>
        <time>2022-08-05T07:55:53Z</time>
      </trkpt>
      <trkpt lat="44.6015" lon="2.94748">
        <ele>1016.4</ele>
        <time>2022-08-05T07:55:57Z</time>
      </trkpt>
      <trkpt lat="44.60152" lon="2.9475">
        <ele>1017.2</ele>
        <time>2022-08-05T07:56:03Z</time>
      </trkpt>
      <trkpt lat="44.60151" lon="2.94751">
        <ele>1017.2</ele>
        <time>2022-08-05T07:56:09Z</time>
      </trkpt>
      <trkpt lat="44.60152" lon="2.9475">
        <ele>1017.3</ele>
        <time>2022-08-05T07:56:15Z</time>
      </trkpt>
      <trkpt lat="44.60154" lon="2.9475">
        <ele>1017.8</ele>
        <time>2022-08-05T07:56:21Z</time>
      </trkpt>
      <trkpt lat="44.60157" lon="2.94752">
        <ele>1019.1</ele>
        <time>2022-08-05T07:56:33Z</time>
      </trkpt>
      <trkpt lat="44.60159" lon="2.9476">
        <ele>1020.9</ele>
        <time>2022-08-05T07:56:55Z</time>
      </trkpt>
      <trkpt lat="44.60157" lon="2.94769">
        <ele>1021.8</ele>
        <time>2022-08-05T07:57:01Z</time>
      </trkpt>
      <trkpt lat="44.60158" lon="2.94771">
        <ele>1022.5</ele>
        <time>2022-08-05T07:57:02Z</time>
      </trkpt>
      <trkpt lat="44.60157" lon="2.94772">
        <ele>1022.3</ele>
        <time>2022-08-05T07:57:06Z</time>
      </trkpt>
      <trkpt lat="44.60156" lon="2.94772">
        <ele>1022</ele>
        <time>2022-08-05T07:57:08Z</time>
      </trkpt>
      <trkpt lat="44.60155" lon="2.94773">
        <ele>1022.1</ele>
        <time>2022-08-05T07:57:11Z</time>
      </trkpt>
      <trkpt lat="44.60155" lon="2.94776">
        <ele>1022.5</ele>
        <time>2022-08-05T07:57:13Z</time>
      </trkpt>
      <trkpt lat="44.60155" lon="2.94779">
        <ele>1023.3</ele>
        <time>2022-08-05T07:57:18Z</time>
      </trkpt>
      <trkpt lat="44.60156" lon="2.94786">
        <ele>1025.7</ele>
        <time>2022-08-05T07:57:25Z</time>
      </trkpt>
      <trkpt lat="44.60156" lon="2.94788">
        <ele>1026.2</ele>
        <time>2022-08-05T07:57:27Z</time>
      </trkpt>
      <trkpt lat="44.60155" lon="2.9479">
        <ele>1026.8</ele>
        <time>2022-08-05T07:57:29Z</time>
      </trkpt>
      <trkpt lat="44.60155" lon="2.94791">
        <ele>1027.1</ele>
        <time>2022-08-05T07:57:34Z</time>
      </trkpt>
      <trkpt lat="44.60154" lon="2.94792">
        <ele>1027.2</ele>
        <time>2022-08-05T07:57:39Z</time>
      </trkpt>
      <trkpt lat="44.60154" lon="2.9479">
        <ele>1026.5</ele>
        <time>2022-08-05T07:57:44Z</time>
      </trkpt>
      <trkpt lat="44.6015" lon="2.94795">
        <ele>1027.8</ele>
        <time>2022-08-05T07:57:51Z</time>
      </trkpt>
      <trkpt lat="44.60149" lon="2.94795">
        <ele>1027.8</ele>
        <time>2022-08-05T07:57:53Z</time>
      </trkpt>
      <trkpt lat="44.60148" lon="2.94795">
        <ele>1027.7</ele>
        <time>2022-08-05T07:57:56Z</time>
      </trkpt>
      <trkpt lat="44.60148" lon="2.94795">
        <ele>1027.6</ele>
        <time>2022-08-05T07:57:57Z</time>
      </trkpt>
      <trkpt lat="44.60147" lon="2.94796">
        <ele>1028</ele>
        <time>2022-08-05T07:57:59Z</time>
      </trkpt>
      <trkpt lat="44.60145" lon="2.94797">
        <ele>1028.2</ele>
        <time>2022-08-05T07:58:03Z</time>
      </trkpt>
      <trkpt lat="44.60141" lon="2.94801">
        <ele>1029.2</ele>
        <time>2022-08-05T07:58:08Z</time>
      </trkpt>
      <trkpt lat="44.6014" lon="2.94802">
        <ele>1029.5</ele>
        <time>2022-08-05T07:58:09Z</time>
      </trkpt>
      <trkpt lat="44.60134" lon="2.94807">
        <ele>1031.3</ele>
        <time>2022-08-05T07:58:14Z</time>
      </trkpt>
      <trkpt lat="44.60132" lon="2.94808">
        <ele>1031.6</ele>
        <time>2022-08-05T07:58:16Z</time>
      </trkpt>
      <trkpt lat="44.60127" lon="2.94814">
        <ele>1034.1</ele>
        <time>2022-08-05T07:58:20Z</time>
      </trkpt>
      <trkpt lat="44.60123" lon="2.94816">
        <ele>1035.3</ele>
        <time>2022-08-05T07:58:24Z</time>
      </trkpt>
      <trkpt lat="44.60122" lon="2.94816">
        <ele>1035.3</ele>
        <time>2022-08-05T07:58:25Z</time>
      </trkpt>
      <trkpt lat="44.60119" lon="2.94816">
        <ele>1035</ele>
        <time>2022-08-05T07:58:28Z</time>
      </trkpt>
      <trkpt lat="44.60116" lon="2.94818">
        <ele>1036.1</ele>
        <time>2022-08-05T07:58:31Z</time>
      </trkpt>
      <trkpt lat="44.60115" lon="2.94819">
        <ele>1036.2</ele>
        <time>2022-08-05T07:58:32Z</time>
      </trkpt>
      <trkpt lat="44.60113" lon="2.94818">
        <ele>1035.9</ele>
        <time>2022-08-05T07:58:34Z</time>
      </trkpt>
      <trkpt lat="44.6011" lon="2.94817">
        <ele>1035.4</ele>
        <time>2022-08-05T07:58:37Z</time>
      </trkpt>
      <trkpt lat="44.6011" lon="2.94817">
        <ele>1035.3</ele>
        <time>2022-08-05T07:58:38Z</time>
      </trkpt>
      <trkpt lat="44.60109" lon="2.94817">
        <ele>1035.2</ele>
        <time>2022-08-05T07:58:40Z</time>
      </trkpt>
      <trkpt lat="44.60108" lon="2.94819">
        <ele>1035.9</ele>
        <time>2022-08-05T07:58:42Z</time>
      </trkpt>
      <trkpt lat="44.60101" lon="2.94818">
        <ele>1035.4</ele>
        <time>2022-08-05T07:58:48Z</time>
      </trkpt>
      <trkpt lat="44.601" lon="2.94818">
        <ele>1035.4</ele>
        <time>2022-08-05T07:58:50Z</time>
      </trkpt>
      <trkpt lat="44.60098" lon="2.94819">
        <ele>1035.4</ele>
        <time>2022-08-05T07:58:52Z</time>
      </trkpt>
      <trkpt lat="44.60095" lon="2.94819">
        <ele>1035.4</ele>
        <time>2022-08-05T07:58:55Z</time>
      </trkpt>
      <trkpt lat="44.60092" lon="2.94819">
        <ele>1035.2</ele>
        <time>2022-08-05T07:58:58Z</time>
      </trkpt>
      <trkpt lat="44.60091" lon="2.94821">
        <ele>1035.9</ele>
        <time>2022-08-05T07:59:01Z</time>
      </trkpt>
      <trkpt lat="44.60087" lon="2.9482">
        <ele>1035.6</ele>
        <time>2022-08-05T07:59:05Z</time>
      </trkpt>
      <trkpt lat="44.60086" lon="2.9482">
        <ele>1035.5</ele>
        <time>2022-08-05T07:59:06Z</time>
      </trkpt>
      <trkpt lat="44.6008" lon="2.9482">
        <ele>1035.3</ele>
        <time>2022-08-05T07:59:11Z</time>
      </trkpt>
      <trkpt lat="44.60079" lon="2.9482">
        <ele>1035.3</ele>
        <time>2022-08-05T07:59:12Z</time>
      </trkpt>
      <trkpt lat="44.60079" lon="2.94821">
        <ele>1035.6</ele>
        <time>2022-08-05T07:59:13Z</time>
      </trkpt>
      <trkpt lat="44.60077" lon="2.9482">
        <ele>1035.4</ele>
        <time>2022-08-05T07:59:16Z</time>
      </trkpt>
      <trkpt lat="44.60076" lon="2.9482">
        <ele>1035.3</ele>
        <time>2022-08-05T07:59:18Z</time>
      </trkpt>
      <trkpt lat="44.60071" lon="2.94822">
        <ele>1035.9</ele>
        <time>2022-08-05T07:59:25Z</time>
      </trkpt>
      <trkpt lat="44.60067" lon="2.94825">
        <ele>1037</ele>
        <time>2022-08-05T07:59:30Z</time>
      </trkpt>
      <trkpt lat="44.60066" lon="2.94824">
        <ele>1036.7</ele>
        <time>2022-08-05T07:59:35Z</time>
      </trkpt>
      <trkpt lat="44.60065" lon="2.94824">
        <ele>1036.7</ele>
        <time>2022-08-05T07:59:36Z</time>
      </trkpt>
      <trkpt lat="44.60064" lon="2.94824">
        <ele>1036.7</ele>
        <time>2022-08-05T07:59:37Z</time>
      </trkpt>
      <trkpt lat="44.6006" lon="2.94826">
        <ele>1037.3</ele>
        <time>2022-08-05T07:59:40Z</time>
      </trkpt>
      <trkpt lat="44.60053" lon="2.94832">
        <ele>1039.6</ele>
        <time>2022-08-05T07:59:47Z</time>
      </trkpt>
      <trkpt lat="44.60051" lon="2.94835">
        <ele>1040.7</ele>
        <time>2022-08-05T07:59:53Z</time>
      </trkpt>
      <trkpt lat="44.60051" lon="2.94835">
        <ele>1040.7</ele>
        <time>2022-08-05T07:59:54Z</time>
      </trkpt>
      <trkpt lat="44.60048" lon="2.94838">
        <ele>1041.6</ele>
        <time>2022-08-05T07:59:59Z</time>
      </trkpt>
      <trkpt lat="44.60046" lon="2.94841">
        <ele>1042.6</ele>
        <time>2022-08-05T08:00:02Z</time>
      </trkpt>
      <trkpt lat="44.60044" lon="2.94843">
        <ele>1043</ele>
        <time>2022-08-05T08:00:05Z</time>
      </trkpt>
      <trkpt lat="44.60037" lon="2.94842">
        <ele>1042.8</ele>
        <time>2022-08-05T08:00:12Z</time>
      </trkpt>
      <trkpt lat="44.60034" lon="2.94843">
        <ele>1043</ele>
        <time>2022-08-05T08:00:14Z</time>
      </trkpt>
      <trkpt lat="44.60032" lon="2.94842">
        <ele>1042.9</ele>
        <time>2022-08-05T08:00:15Z</time>
      </trkpt>
      <trkpt lat="44.6003" lon="2.94841">
        <ele>1042.7</ele>
        <time>2022-08-05T08:00:18Z</time>
      </trkpt>
      <trkpt lat="44.60028" lon="2.94841">
        <ele>1042.5</ele>
        <time>2022-08-05T08:00:20Z</time>
      </trkpt>
      <trkpt lat="44.60026" lon="2.9484">
        <ele>1042.6</ele>
        <time>2022-08-05T08:00:22Z</time>
      </trkpt>
      <trkpt lat="44.60025" lon="2.9484">
        <ele>1042.7</ele>
        <time>2022-08-05T08:00:24Z</time>
      </trkpt>
      <trkpt lat="44.60024" lon="2.94839">
        <ele>1042.8</ele>
        <time>2022-08-05T08:00:26Z</time>
      </trkpt>
      <trkpt lat="44.60023" lon="2.94839">
        <ele>1042.8</ele>
        <time>2022-08-05T08:00:27Z</time>
      </trkpt>
      <trkpt lat="44.60023" lon="2.94839">
        <ele>1042.9</ele>
        <time>2022-08-05T08:00:28Z</time>
      </trkpt>
      <trkpt lat="44.60023" lon="2.9484">
        <ele>1043</ele>
        <time>2022-08-05T08:00:29Z</time>
      </trkpt>
      <trkpt lat="44.60023" lon="2.9484">
        <ele>1043</ele>
        <time>2022-08-05T08:00:32Z</time>
      </trkpt>
      <trkpt lat="44.60023" lon="2.9484">
        <ele>1043</ele>
        <time>2022-08-05T08:00:33Z</time>
      </trkpt>
      <trkpt lat="44.60023" lon="2.94839">
        <ele>1042.8</ele>
        <time>2022-08-05T08:00:35Z</time>
      </trkpt>
      <trkpt lat="44.60023" lon="2.94838">
        <ele>1042.7</ele>
        <time>2022-08-05T08:00:38Z</time>
      </trkpt>
      <trkpt lat="44.60023" lon="2.94838">
        <ele>1042.7</ele>
        <time>2022-08-05T08:00:39Z</time>
      </trkpt>
      <trkpt lat="44.60023" lon="2.94838">
        <ele>1042.6</ele>
        <time>2022-08-05T08:00:53Z</time>
      </trkpt>
      <trkpt lat="44.60023" lon="2.94838">
        <ele>1042.6</ele>
        <time>2022-08-05T08:00:54Z</time>
      </trkpt>
      <trkpt lat="44.60023" lon="2.94838">
        <ele>1042.6</ele>
        <time>2022-08-05T08:00:55Z</time>
      </trkpt>
      <trkpt lat="44.60023" lon="2.94838">
        <ele>1042.5</ele>
        <time>2022-08-05T08:00:58Z</time>
      </trkpt>
      <trkpt lat="44.60024" lon="2.94837">
        <ele>1042.3</ele>
        <time>2022-08-05T08:01:02Z</time>
      </trkpt>
      <trkpt lat="44.60024" lon="2.94837">
        <ele>1042.2</ele>
        <time>2022-08-05T08:01:03Z</time>
      </trkpt>
      <trkpt lat="44.60024" lon="2.94837">
        <ele>1042.2</ele>
        <time>2022-08-05T08:01:04Z</time>
      </trkpt>
      <trkpt lat="44.60024" lon="2.94837">
        <ele>1042.2</ele>
        <time>2022-08-05T08:01:05Z</time>
      </trkpt>
      <trkpt lat="44.60024" lon="2.94837">
        <ele>1042.2</ele>
        <time>2022-08-05T08:01:06Z</time>
      </trkpt>
      <trkpt lat="44.60024" lon="2.94838">
        <ele>1042.4</ele>
        <time>2022-08-05T08:01:22Z</time>
      </trkpt>
      <trkpt lat="44.60024" lon="2.94839">
        <ele>1042.6</ele>
        <time>2022-08-05T08:01:28Z</time>
      </trkpt>
      <trkpt lat="44.60024" lon="2.94839">
        <ele>1042.6</ele>
        <time>2022-08-05T08:01:29Z</time>
      </trkpt>
      <trkpt lat="44.60024" lon="2.94839">
        <ele>1042.6</ele>
        <time>2022-08-05T08:01:30Z</time>
      </trkpt>
      <trkpt lat="44.60024" lon="2.94839">
        <ele>1042.7</ele>
        <time>2022-08-05T08:01:31Z</time>
      </trkpt>
      <trkpt lat="44.60024" lon="2.94839">
        <ele>1042.7</ele>
        <time>2022-08-05T08:01:34Z</time>
      </trkpt>
      <trkpt lat="44.60024" lon="2.94839">
        <ele>1042.7</ele>
        <time>2022-08-05T08:01:38Z</time>
      </trkpt>
      <trkpt lat="44.60024" lon="2.94839">
        <ele>1042.7</ele>
        <time>2022-08-05T08:01:40Z</time>
      </trkpt>
      <trkpt lat="44.60024" lon="2.94839">
        <ele>1042.7</ele>
        <time>2022-08-05T08:01:43Z</time>
      </trkpt>
      <trkpt lat="44.60024" lon="2.94839">
        <ele>1042.7</ele>
        <time>2022-08-05T08:01:47Z</time>
      </trkpt>
      <trkpt lat="44.60023" lon="2.94839">
        <ele>1042.8</ele>
        <time>2022-08-05T08:02:07Z</time>
      </trkpt>
      <trkpt lat="44.60023" lon="2.94839">
        <ele>1042.8</ele>
        <time>2022-08-05T08:02:10Z</time>
      </trkpt>
      <trkpt lat="44.60022" lon="2.94839">
        <ele>1042.8</ele>
        <time>2022-08-05T08:02:11Z</time>
      </trkpt>
      <trkpt lat="44.60022" lon="2.94839">
        <ele>1042.8</ele>
        <time>2022-08-05T08:02:14Z</time>
      </trkpt>
      <trkpt lat="44.60022" lon="2.94839">
        <ele>1042.8</ele>
        <time>2022-08-05T08:02:15Z</time>
      </trkpt>
      <trkpt lat="44.60022" lon="2.94839">
        <ele>1042.9</ele>
        <time>2022-08-05T08:02:16Z</time>
      </trkpt>
      <trkpt lat="44.60022" lon="2.94839">
        <ele>1042.9</ele>
        <time>2022-08-05T08:02:17Z</time>
      </trkpt>
      <trkpt lat="44.60022" lon="2.94839">
        <ele>1042.9</ele>
        <time>2022-08-05T08:02:19Z</time>
      </trkpt>
      <trkpt lat="44.60021" lon="2.94839">
        <ele>1043</ele>
        <time>2022-08-05T08:02:26Z</time>
      </trkpt>
      <trkpt lat="44.60021" lon="2.9484">
        <ele>1043.2</ele>
        <time>2022-08-05T08:02:33Z</time>
      </trkpt>
      <trkpt lat="44.6002" lon="2.94845">
        <ele>1044.3</ele>
        <time>2022-08-05T08:02:37Z</time>
      </trkpt>
      <trkpt lat="44.6002" lon="2.94847">
        <ele>1044.6</ele>
        <time>2022-08-05T08:02:38Z</time>
      </trkpt>
      <trkpt lat="44.60016" lon="2.94856">
        <ele>1046.5</ele>
        <time>2022-08-05T08:02:45Z</time>
      </trkpt>
      <trkpt lat="44.60016" lon="2.94857">
        <ele>1046.7</ele>
        <time>2022-08-05T08:02:46Z</time>
      </trkpt>
      <trkpt lat="44.60014" lon="2.94859">
        <ele>1047.1</ele>
        <time>2022-08-05T08:02:50Z</time>
      </trkpt>
      <trkpt lat="44.60014" lon="2.94859">
        <ele>1047.2</ele>
        <time>2022-08-05T08:02:53Z</time>
      </trkpt>
      <trkpt lat="44.60013" lon="2.94859">
        <ele>1047.2</ele>
        <time>2022-08-05T08:02:58Z</time>
      </trkpt>
      <trkpt lat="44.60006" lon="2.94863">
        <ele>1048</ele>
        <time>2022-08-05T08:03:05Z</time>
      </trkpt>
      <trkpt lat="44.60005" lon="2.94863">
        <ele>1048</ele>
        <time>2022-08-05T08:03:09Z</time>
      </trkpt>
      <trkpt lat="44.60004" lon="2.94865">
        <ele>1048.4</ele>
        <time>2022-08-05T08:03:13Z</time>
      </trkpt>
      <trkpt lat="44.60003" lon="2.94866">
        <ele>1048.4</ele>
        <time>2022-08-05T08:03:14Z</time>
      </trkpt>
      <trkpt lat="44.60003" lon="2.94867">
        <ele>1048.6</ele>
        <time>2022-08-05T08:03:15Z</time>
      </trkpt>
      <trkpt lat="44.6" lon="2.9487">
        <ele>1048.9</ele>
        <time>2022-08-05T08:03:18Z</time>
      </trkpt>
      <trkpt lat="44.6" lon="2.94871">
        <ele>1049</ele>
        <time>2022-08-05T08:03:23Z</time>
      </trkpt>
      <trkpt lat="44.59999" lon="2.94872">
        <ele>1049.1</ele>
        <time>2022-08-05T08:03:24Z</time>
      </trkpt>
      <trkpt lat="44.59994" lon="2.9488">
        <ele>1049.9</ele>
        <time>2022-08-05T08:03:31Z</time>
      </trkpt>
      <trkpt lat="44.59994" lon="2.94881">
        <ele>1050</ele>
        <time>2022-08-05T08:03:32Z</time>
      </trkpt>
      <trkpt lat="44.59991" lon="2.9489">
        <ele>1050.7</ele>
        <time>2022-08-05T08:03:40Z</time>
      </trkpt>
      <trkpt lat="44.5999" lon="2.94893">
        <ele>1050.7</ele>
        <time>2022-08-05T08:03:42Z</time>
      </trkpt>
      <trkpt lat="44.5999" lon="2.94894">
        <ele>1050.7</ele>
        <time>2022-08-05T08:03:43Z</time>
      </trkpt>
      <trkpt lat="44.5999" lon="2.94898">
        <ele>1050.7</ele>
        <time>2022-08-05T08:03:48Z</time>
      </trkpt>
      <trkpt lat="44.5999" lon="2.94898">
        <ele>1050.7</ele>
        <time>2022-08-05T08:03:49Z</time>
      </trkpt>
      <trkpt lat="44.5999" lon="2.94898">
        <ele>1050.7</ele>
        <time>2022-08-05T08:03:50Z</time>
      </trkpt>
      <trkpt lat="44.5999" lon="2.94897">
        <ele>1050.7</ele>
        <time>2022-08-05T08:03:51Z</time>
      </trkpt>
      <trkpt lat="44.5999" lon="2.94897">
        <ele>1050.7</ele>
        <time>2022-08-05T08:03:54Z</time>
      </trkpt>
      <trkpt lat="44.5999" lon="2.94897">
        <ele>1050.7</ele>
        <time>2022-08-05T08:03:57Z</time>
      </trkpt>
      <trkpt lat="44.5999" lon="2.94897">
        <ele>1050.7</ele>
        <time>2022-08-05T08:03:59Z</time>
      </trkpt>
      <trkpt lat="44.5999" lon="2.94897">
        <ele>1050.7</ele>
        <time>2022-08-05T08:04:01Z</time>
      </trkpt>
      <trkpt lat="44.5999" lon="2.94897">
        <ele>1050.7</ele>
        <time>2022-08-05T08:04:04Z</time>
      </trkpt>
      <trkpt lat="44.59989" lon="2.94899">
        <ele>1050.7</ele>
        <time>2022-08-05T08:04:05Z</time>
      </trkpt>
      <trkpt lat="44.59988" lon="2.94905">
        <ele>1050.6</ele>
        <time>2022-08-05T08:04:08Z</time>
      </trkpt>
      <trkpt lat="44.59987" lon="2.94906">
        <ele>1050.6</ele>
        <time>2022-08-05T08:04:09Z</time>
      </trkpt>
      <trkpt lat="44.59985" lon="2.9491">
        <ele>1050.4</ele>
        <time>2022-08-05T08:04:10Z</time>
      </trkpt>
      <trkpt lat="44.59982" lon="2.94912">
        <ele>1050.1</ele>
        <time>2022-08-05T08:04:13Z</time>
      </trkpt>
      <trkpt lat="44.59982" lon="2.94913">
        <ele>1050.1</ele>
        <time>2022-08-05T08:04:14Z</time>
      </trkpt>
      <trkpt lat="44.59982" lon="2.94916">
        <ele>1050</ele>
        <time>2022-08-05T08:04:16Z</time>
      </trkpt>
      <trkpt lat="44.59981" lon="2.94917">
        <ele>1050</ele>
        <time>2022-08-05T08:04:17Z</time>
      </trkpt>
      <trkpt lat="44.59981" lon="2.94918">
        <ele>1049.9</ele>
        <time>2022-08-05T08:04:18Z</time>
      </trkpt>
      <trkpt lat="44.59981" lon="2.94921">
        <ele>1049.8</ele>
        <time>2022-08-05T08:04:20Z</time>
      </trkpt>
      <trkpt lat="44.59981" lon="2.94926">
        <ele>1049.5</ele>
        <time>2022-08-05T08:04:24Z</time>
      </trkpt>
      <trkpt lat="44.5998" lon="2.94928">
        <ele>1049.3</ele>
        <time>2022-08-05T08:04:28Z</time>
      </trkpt>
      <trkpt lat="44.59982" lon="2.9493">
        <ele>1049.4</ele>
        <time>2022-08-05T08:04:30Z</time>
      </trkpt>
      <trkpt lat="44.59982" lon="2.9493">
        <ele>1049.4</ele>
        <time>2022-08-05T08:04:31Z</time>
      </trkpt>
      <trkpt lat="44.59987" lon="2.94936">
        <ele>1049.9</ele>
        <time>2022-08-05T08:04:38Z</time>
      </trkpt>
      <trkpt lat="44.59988" lon="2.94937">
        <ele>1050.1</ele>
        <time>2022-08-05T08:04:39Z</time>
      </trkpt>
      <trkpt lat="44.59994" lon="2.9494">
        <ele>1050.9</ele>
        <time>2022-08-05T08:04:47Z</time>
      </trkpt>
      <trkpt lat="44.59994" lon="2.9494">
        <ele>1050.9</ele>
        <time>2022-08-05T08:04:48Z</time>
      </trkpt>
      <trkpt lat="44.59994" lon="2.94939">
        <ele>1051</ele>
        <time>2022-08-05T08:04:50Z</time>
      </trkpt>
      <trkpt lat="44.59994" lon="2.9494">
        <ele>1051</ele>
        <time>2022-08-05T08:04:54Z</time>
      </trkpt>
      <trkpt lat="44.59994" lon="2.9494">
        <ele>1051</ele>
        <time>2022-08-05T08:04:55Z</time>
      </trkpt>
      <trkpt lat="44.59994" lon="2.9494">
        <ele>1051</ele>
        <time>2022-08-05T08:04:56Z</time>
      </trkpt>
      <trkpt lat="44.59994" lon="2.9494">
        <ele>1051</ele>
        <time>2022-08-05T08:04:57Z</time>
      </trkpt>
      <trkpt lat="44.59994" lon="2.9494">
        <ele>1051</ele>
        <time>2022-08-05T08:04:58Z</time>
      </trkpt>
      <trkpt lat="44.59994" lon="2.9494">
        <ele>1051</ele>
        <time>2022-08-05T08:05:01Z</time>
      </trkpt>
      <trkpt lat="44.59994" lon="2.9494">
        <ele>1051</ele>
        <time>2022-08-05T08:05:07Z</time>
      </trkpt>
      <trkpt lat="44.59994" lon="2.9494">
        <ele>1051</ele>
        <time>2022-08-05T08:05:11Z</time>
      </trkpt>
      <trkpt lat="44.59995" lon="2.9494">
        <ele>1051.2</ele>
        <time>2022-08-05T08:05:16Z</time>
      </trkpt>
      <trkpt lat="44.59996" lon="2.94941">
        <ele>1051.2</ele>
        <time>2022-08-05T08:05:17Z</time>
      </trkpt>
      <trkpt lat="44.60005" lon="2.9495">
        <ele>1052.4</ele>
        <time>2022-08-05T08:05:27Z</time>
      </trkpt>
      <trkpt lat="44.60006" lon="2.94952">
        <ele>1052.5</ele>
        <time>2022-08-05T08:05:28Z</time>
      </trkpt>
      <trkpt lat="44.60009" lon="2.94954">
        <ele>1052.9</ele>
        <time>2022-08-05T08:05:30Z</time>
      </trkpt>
      <trkpt lat="44.60013" lon="2.94955">
        <ele>1053.5</ele>
        <time>2022-08-05T08:05:34Z</time>
      </trkpt>
      <trkpt lat="44.60015" lon="2.94958">
        <ele>1053.7</ele>
        <time>2022-08-05T08:05:40Z</time>
      </trkpt>
      <trkpt lat="44.60015" lon="2.94958">
        <ele>1053.8</ele>
        <time>2022-08-05T08:05:41Z</time>
      </trkpt>
      <trkpt lat="44.60016" lon="2.94957">
        <ele>1053.8</ele>
        <time>2022-08-05T08:05:42Z</time>
      </trkpt>
      <trkpt lat="44.60015" lon="2.94958">
        <ele>1053.8</ele>
        <time>2022-08-05T08:05:43Z</time>
      </trkpt>
      <trkpt lat="44.60016" lon="2.94959">
        <ele>1053.8</ele>
        <time>2022-08-05T08:05:45Z</time>
      </trkpt>
      <trkpt lat="44.60017" lon="2.94961">
        <ele>1054</ele>
        <time>2022-08-05T08:05:47Z</time>
      </trkpt>
      <trkpt lat="44.60019" lon="2.94962">
        <ele>1054.3</ele>
        <time>2022-08-05T08:05:49Z</time>
      </trkpt>
      <trkpt lat="44.6002" lon="2.94963">
        <ele>1054.5</ele>
        <time>2022-08-05T08:05:51Z</time>
      </trkpt>
      <trkpt lat="44.60021" lon="2.94964">
        <ele>1054.7</ele>
        <time>2022-08-05T08:05:52Z</time>
      </trkpt>
      <trkpt lat="44.60025" lon="2.94966">
        <ele>1055.4</ele>
        <time>2022-08-05T08:05:56Z</time>
      </trkpt>
      <trkpt lat="44.60026" lon="2.94967">
        <ele>1055.6</ele>
        <time>2022-08-05T08:05:57Z</time>
      </trkpt>
      <trkpt lat="44.60027" lon="2.94968">
        <ele>1055.8</ele>
        <time>2022-08-05T08:05:58Z</time>
      </trkpt>
      <trkpt lat="44.60028" lon="2.94968">
        <ele>1056</ele>
        <time>2022-08-05T08:05:59Z</time>
      </trkpt>
      <trkpt lat="44.60029" lon="2.9497">
        <ele>1056.1</ele>
        <time>2022-08-05T08:06:01Z</time>
      </trkpt>
      <trkpt lat="44.6003" lon="2.9497">
        <ele>1056.2</ele>
        <time>2022-08-05T08:06:02Z</time>
      </trkpt>
      <trkpt lat="44.6003" lon="2.94971">
        <ele>1056.3</ele>
        <time>2022-08-05T08:06:03Z</time>
      </trkpt>
      <trkpt lat="44.60032" lon="2.94973">
        <ele>1056.4</ele>
        <time>2022-08-05T08:06:06Z</time>
      </trkpt>
      <trkpt lat="44.60035" lon="2.94976">
        <ele>1056.6</ele>
        <time>2022-08-05T08:06:10Z</time>
      </trkpt>
      <trkpt lat="44.60036" lon="2.94977">
        <ele>1056.7</ele>
        <time>2022-08-05T08:06:13Z</time>
      </trkpt>
      <trkpt lat="44.60038" lon="2.94979">
        <ele>1056.9</ele>
        <time>2022-08-05T08:06:15Z</time>
      </trkpt>
      <trkpt lat="44.60043" lon="2.94984">
        <ele>1057.5</ele>
        <time>2022-08-05T08:06:21Z</time>
      </trkpt>
      <trkpt lat="44.60044" lon="2.94984">
        <ele>1057.6</ele>
        <time>2022-08-05T08:06:22Z</time>
      </trkpt>
      <trkpt lat="44.60047" lon="2.94985">
        <ele>1058.1</ele>
        <time>2022-08-05T08:06:26Z</time>
      </trkpt>
      <trkpt lat="44.60049" lon="2.94986">
        <ele>1058.5</ele>
        <time>2022-08-05T08:06:29Z</time>
      </trkpt>
      <trkpt lat="44.60056" lon="2.94989">
        <ele>1059.6</ele>
        <time>2022-08-05T08:06:37Z</time>
      </trkpt>
      <trkpt lat="44.60057" lon="2.9499">
        <ele>1059.8</ele>
        <time>2022-08-05T08:06:38Z</time>
      </trkpt>
      <trkpt lat="44.60059" lon="2.94991">
        <ele>1060</ele>
        <time>2022-08-05T08:06:40Z</time>
      </trkpt>
      <trkpt lat="44.60063" lon="2.94993">
        <ele>1060.3</ele>
        <time>2022-08-05T08:06:44Z</time>
      </trkpt>
      <trkpt lat="44.6007" lon="2.95">
        <ele>1061</ele>
        <time>2022-08-05T08:06:53Z</time>
      </trkpt>
      <trkpt lat="44.6007" lon="2.95001">
        <ele>1060.9</ele>
        <time>2022-08-05T08:06:55Z</time>
      </trkpt>
      <trkpt lat="44.60072" lon="2.95005">
        <ele>1060.8</ele>
        <time>2022-08-05T08:07:00Z</time>
      </trkpt>
      <trkpt lat="44.60072" lon="2.95005">
        <ele>1060.8</ele>
        <time>2022-08-05T08:07:01Z</time>
      </trkpt>
      <trkpt lat="44.60072" lon="2.95004">
        <ele>1060.9</ele>
        <time>2022-08-05T08:07:03Z</time>
      </trkpt>
      <trkpt lat="44.60072" lon="2.95003">
        <ele>1060.9</ele>
        <time>2022-08-05T08:07:04Z</time>
      </trkpt>
      <trkpt lat="44.60071" lon="2.95003">
        <ele>1060.9</ele>
        <time>2022-08-05T08:07:09Z</time>
      </trkpt>
      <trkpt lat="44.60071" lon="2.95003">
        <ele>1060.9</ele>
        <time>2022-08-05T08:07:11Z</time>
      </trkpt>
      <trkpt lat="44.60076" lon="2.95005">
        <ele>1061.1</ele>
        <time>2022-08-05T08:07:27Z</time>
      </trkpt>
      <trkpt lat="44.60085" lon="2.95012">
        <ele>1061.3</ele>
        <time>2022-08-05T08:07:36Z</time>
      </trkpt>
      <trkpt lat="44.60087" lon="2.95014">
        <ele>1061.4</ele>
        <time>2022-08-05T08:07:38Z</time>
      </trkpt>
      <trkpt lat="44.60094" lon="2.95023">
        <ele>1061.8</ele>
        <time>2022-08-05T08:07:47Z</time>
      </trkpt>
      <trkpt lat="44.60096" lon="2.95025">
        <ele>1062</ele>
        <time>2022-08-05T08:07:50Z</time>
      </trkpt>
      <trkpt lat="44.60099" lon="2.95029">
        <ele>1062.2</ele>
        <time>2022-08-05T08:07:54Z</time>
      </trkpt>
      <trkpt lat="44.60102" lon="2.95035">
        <ele>1062.8</ele>
        <time>2022-08-05T08:08:01Z</time>
      </trkpt>
      <trkpt lat="44.60103" lon="2.95039">
        <ele>1062.9</ele>
        <time>2022-08-05T08:08:05Z</time>
      </trkpt>
      <trkpt lat="44.60104" lon="2.95044">
        <ele>1063.3</ele>
        <time>2022-08-05T08:08:09Z</time>
      </trkpt>
      <trkpt lat="44.60104" lon="2.95046">
        <ele>1063.3</ele>
        <time>2022-08-05T08:08:11Z</time>
      </trkpt>
      <trkpt lat="44.60104" lon="2.95047">
        <ele>1063.3</ele>
        <time>2022-08-05T08:08:12Z</time>
      </trkpt>
      <trkpt lat="44.60106" lon="2.95051">
        <ele>1063.8</ele>
        <time>2022-08-05T08:08:16Z</time>
      </trkpt>
      <trkpt lat="44.60107" lon="2.95053">
        <ele>1064</ele>
        <time>2022-08-05T08:08:18Z</time>
      </trkpt>
      <trkpt lat="44.60107" lon="2.95055">
        <ele>1064.1</ele>
        <time>2022-08-05T08:08:20Z</time>
      </trkpt>
      <trkpt lat="44.60109" lon="2.9506">
        <ele>1065</ele>
        <time>2022-08-05T08:08:24Z</time>
      </trkpt>
      <trkpt lat="44.60111" lon="2.95065">
        <ele>1066.1</ele>
        <time>2022-08-05T08:08:29Z</time>
      </trkpt>
      <trkpt lat="44.60113" lon="2.95071">
        <ele>1067</ele>
        <time>2022-08-05T08:08:34Z</time>
      </trkpt>
      <trkpt lat="44.60115" lon="2.95073">
        <ele>1067.5</ele>
        <time>2022-08-05T08:08:36Z</time>
      </trkpt>
      <trkpt lat="44.60115" lon="2.95074">
        <ele>1067.6</ele>
        <time>2022-08-05T08:08:38Z</time>
      </trkpt>
      <trkpt lat="44.60117" lon="2.95081">
        <ele>1068.6</ele>
        <time>2022-08-05T08:08:42Z</time>
      </trkpt>
      <trkpt lat="44.60118" lon="2.95083">
        <ele>1069</ele>
        <time>2022-08-05T08:08:44Z</time>
      </trkpt>
      <trkpt lat="44.60119" lon="2.95088">
        <ele>1070</ele>
        <time>2022-08-05T08:08:48Z</time>
      </trkpt>
      <trkpt lat="44.6012" lon="2.95091">
        <ele>1070.8</ele>
        <time>2022-08-05T08:08:51Z</time>
      </trkpt>
      <trkpt lat="44.60123" lon="2.95096">
        <ele>1072.1</ele>
        <time>2022-08-05T08:08:58Z</time>
      </trkpt>
      <trkpt lat="44.60124" lon="2.95097">
        <ele>1072.4</ele>
        <time>2022-08-05T08:09:00Z</time>
      </trkpt>
      <trkpt lat="44.60127" lon="2.95103">
        <ele>1073.7</ele>
        <time>2022-08-05T08:09:08Z</time>
      </trkpt>
      <trkpt lat="44.60129" lon="2.9511">
        <ele>1074.8</ele>
        <time>2022-08-05T08:09:15Z</time>
      </trkpt>
      <trkpt lat="44.60129" lon="2.95111">
        <ele>1075</ele>
        <time>2022-08-05T08:09:16Z</time>
      </trkpt>
      <trkpt lat="44.60133" lon="2.95116">
        <ele>1075.6</ele>
        <time>2022-08-05T08:09:23Z</time>
      </trkpt>
      <trkpt lat="44.60134" lon="2.95122">
        <ele>1076.3</ele>
        <time>2022-08-05T08:09:30Z</time>
      </trkpt>
      <trkpt lat="44.60135" lon="2.95126">
        <ele>1076.6</ele>
        <time>2022-08-05T08:09:33Z</time>
      </trkpt>
      <trkpt lat="44.60136" lon="2.95128">
        <ele>1076.9</ele>
        <time>2022-08-05T08:09:35Z</time>
      </trkpt>
      <trkpt lat="44.60136" lon="2.95129">
        <ele>1077</ele>
        <time>2022-08-05T08:09:36Z</time>
      </trkpt>
      <trkpt lat="44.60136" lon="2.95135">
        <ele>1077.7</ele>
        <time>2022-08-05T08:09:41Z</time>
      </trkpt>
      <trkpt lat="44.60134" lon="2.95139">
        <ele>1078.2</ele>
        <time>2022-08-05T08:09:43Z</time>
      </trkpt>
      <trkpt lat="44.60134" lon="2.9514">
        <ele>1078.2</ele>
        <time>2022-08-05T08:09:44Z</time>
      </trkpt>
      <trkpt lat="44.60133" lon="2.95147">
        <ele>1078.3</ele>
        <time>2022-08-05T08:09:49Z</time>
      </trkpt>
      <trkpt lat="44.60131" lon="2.95152">
        <ele>1078.2</ele>
        <time>2022-08-05T08:09:53Z</time>
      </trkpt>
      <trkpt lat="44.6013" lon="2.9516">
        <ele>1078.1</ele>
        <time>2022-08-05T08:10:00Z</time>
      </trkpt>
      <trkpt lat="44.60131" lon="2.95166">
        <ele>1078.2</ele>
        <time>2022-08-05T08:10:07Z</time>
      </trkpt>
      <trkpt lat="44.60131" lon="2.95165">
        <ele>1078.2</ele>
        <time>2022-08-05T08:10:08Z</time>
      </trkpt>
      <trkpt lat="44.60131" lon="2.95165">
        <ele>1078.2</ele>
        <time>2022-08-05T08:10:11Z</time>
      </trkpt>
      <trkpt lat="44.6013" lon="2.95164">
        <ele>1078</ele>
        <time>2022-08-05T08:10:17Z</time>
      </trkpt>
      <trkpt lat="44.60131" lon="2.95171">
        <ele>1078.1</ele>
        <time>2022-08-05T08:10:41Z</time>
      </trkpt>
      <trkpt lat="44.6013" lon="2.95165">
        <ele>1078</ele>
        <time>2022-08-05T08:10:46Z</time>
      </trkpt>
      <trkpt lat="44.60131" lon="2.95151">
        <ele>1078.2</ele>
        <time>2022-08-05T08:10:55Z</time>
      </trkpt>
      <trkpt lat="44.60131" lon="2.95147">
        <ele>1078.2</ele>
        <time>2022-08-05T08:11:00Z</time>
      </trkpt>
      <trkpt lat="44.6013" lon="2.95146">
        <ele>1078.2</ele>
        <time>2022-08-05T08:11:02Z</time>
      </trkpt>
      <trkpt lat="44.60129" lon="2.95145">
        <ele>1078.3</ele>
        <time>2022-08-05T08:11:03Z</time>
      </trkpt>
      <trkpt lat="44.60127" lon="2.95142">
        <ele>1078.3</ele>
        <time>2022-08-05T08:11:08Z</time>
      </trkpt>
      <trkpt lat="44.60127" lon="2.95143">
        <ele>1078.3</ele>
        <time>2022-08-05T08:11:09Z</time>
      </trkpt>
      <trkpt lat="44.60126" lon="2.95144">
        <ele>1078.3</ele>
        <time>2022-08-05T08:11:14Z</time>
      </trkpt>
      <trkpt lat="44.60125" lon="2.95145">
        <ele>1078.3</ele>
        <time>2022-08-05T08:11:17Z</time>
      </trkpt>
      <trkpt lat="44.60128" lon="2.95147">
        <ele>1078.2</ele>
        <time>2022-08-05T08:11:31Z</time>
      </trkpt>
      <trkpt lat="44.60131" lon="2.95156">
        <ele>1078.2</ele>
        <time>2022-08-05T08:11:37Z</time>
      </trkpt>
      <trkpt lat="44.60131" lon="2.9517">
        <ele>1078.1</ele>
        <time>2022-08-05T08:11:45Z</time>
      </trkpt>
      <trkpt lat="44.60132" lon="2.95173">
        <ele>1078.2</ele>
        <time>2022-08-05T08:11:47Z</time>
      </trkpt>
      <trkpt lat="44.60132" lon="2.95175">
        <ele>1078.2</ele>
        <time>2022-08-05T08:11:48Z</time>
      </trkpt>
      <trkpt lat="44.60135" lon="2.95179">
        <ele>1078.5</ele>
        <time>2022-08-05T08:11:51Z</time>
      </trkpt>
      <trkpt lat="44.6014" lon="2.9518">
        <ele>1079.1</ele>
        <time>2022-08-05T08:11:55Z</time>
      </trkpt>
      <trkpt lat="44.60151" lon="2.95181">
        <ele>1080.1</ele>
        <time>2022-08-05T08:12:05Z</time>
      </trkpt>
      <trkpt lat="44.60157" lon="2.95182">
        <ele>1080.7</ele>
        <time>2022-08-05T08:12:11Z</time>
      </trkpt>
      <trkpt lat="44.60158" lon="2.95182">
        <ele>1080.7</ele>
        <time>2022-08-05T08:12:13Z</time>
      </trkpt>
      <trkpt lat="44.60159" lon="2.95182">
        <ele>1080.8</ele>
        <time>2022-08-05T08:12:17Z</time>
      </trkpt>
      <trkpt lat="44.60159" lon="2.95182">
        <ele>1080.8</ele>
        <time>2022-08-05T08:12:18Z</time>
      </trkpt>
      <trkpt lat="44.60158" lon="2.95185">
        <ele>1080.9</ele>
        <time>2022-08-05T08:12:28Z</time>
      </trkpt>
      <trkpt lat="44.60163" lon="2.95187">
        <ele>1081.3</ele>
        <time>2022-08-05T08:12:36Z</time>
      </trkpt>
      <trkpt lat="44.60173" lon="2.952">
        <ele>1083.8</ele>
        <time>2022-08-05T08:12:46Z</time>
      </trkpt>
      <trkpt lat="44.60174" lon="2.95207">
        <ele>1084.6</ele>
        <time>2022-08-05T08:12:49Z</time>
      </trkpt>
      <trkpt lat="44.60171" lon="2.95214">
        <ele>1085</ele>
        <time>2022-08-05T08:12:54Z</time>
      </trkpt>
      <trkpt lat="44.6017" lon="2.9522">
        <ele>1085.3</ele>
        <time>2022-08-05T08:12:58Z</time>
      </trkpt>
      <trkpt lat="44.60169" lon="2.95224">
        <ele>1085.6</ele>
        <time>2022-08-05T08:13:01Z</time>
      </trkpt>
      <trkpt lat="44.60168" lon="2.95228">
        <ele>1085.9</ele>
        <time>2022-08-05T08:13:03Z</time>
      </trkpt>
      <trkpt lat="44.60167" lon="2.95238">
        <ele>1086.8</ele>
        <time>2022-08-05T08:13:09Z</time>
      </trkpt>
      <trkpt lat="44.60166" lon="2.95241">
        <ele>1086.9</ele>
        <time>2022-08-05T08:13:11Z</time>
      </trkpt>
      <trkpt lat="44.60166" lon="2.95242">
        <ele>1087</ele>
        <time>2022-08-05T08:13:12Z</time>
      </trkpt>
      <trkpt lat="44.60165" lon="2.95243">
        <ele>1086.9</ele>
        <time>2022-08-05T08:13:13Z</time>
      </trkpt>
      <trkpt lat="44.60164" lon="2.95243">
        <ele>1086.8</ele>
        <time>2022-08-05T08:13:14Z</time>
      </trkpt>
      <trkpt lat="44.60164" lon="2.95243">
        <ele>1086.7</ele>
        <time>2022-08-05T08:13:15Z</time>
      </trkpt>
      <trkpt lat="44.60164" lon="2.95243">
        <ele>1086.7</ele>
        <time>2022-08-05T08:13:16Z</time>
      </trkpt>
      <trkpt lat="44.60164" lon="2.95242">
        <ele>1086.8</ele>
        <time>2022-08-05T08:13:18Z</time>
      </trkpt>
      <trkpt lat="44.60164" lon="2.95241">
        <ele>1086.6</ele>
        <time>2022-08-05T08:13:21Z</time>
      </trkpt>
      <trkpt lat="44.60164" lon="2.95242">
        <ele>1086.6</ele>
        <time>2022-08-05T08:13:26Z</time>
      </trkpt>
      <trkpt lat="44.60164" lon="2.95242">
        <ele>1086.6</ele>
        <time>2022-08-05T08:13:27Z</time>
      </trkpt>
      <trkpt lat="44.60164" lon="2.95242">
        <ele>1086.6</ele>
        <time>2022-08-05T08:13:28Z</time>
      </trkpt>
      <trkpt lat="44.60164" lon="2.95242">
        <ele>1086.6</ele>
        <time>2022-08-05T08:13:31Z</time>
      </trkpt>
      <trkpt lat="44.60167" lon="2.95244">
        <ele>1087.5</ele>
        <time>2022-08-05T08:13:44Z</time>
      </trkpt>
      <trkpt lat="44.60172" lon="2.95249">
        <ele>1088.9</ele>
        <time>2022-08-05T08:13:52Z</time>
      </trkpt>
      <trkpt lat="44.60171" lon="2.95249">
        <ele>1088.8</ele>
        <time>2022-08-05T08:14:00Z</time>
      </trkpt>
      <trkpt lat="44.60169" lon="2.95252">
        <ele>1088.8</ele>
        <time>2022-08-05T08:14:37Z</time>
      </trkpt>
      <trkpt lat="44.60172" lon="2.95246">
        <ele>1088.6</ele>
        <time>2022-08-05T08:15:07Z</time>
      </trkpt>
      <trkpt lat="44.60179" lon="2.95239">
        <ele>1089.5</ele>
        <time>2022-08-05T08:15:12Z</time>
      </trkpt>
      <trkpt lat="44.60181" lon="2.95237">
        <ele>1089.6</ele>
        <time>2022-08-05T08:15:14Z</time>
      </trkpt>
      <trkpt lat="44.60187" lon="2.95232">
        <ele>1090.5</ele>
        <time>2022-08-05T08:15:20Z</time>
      </trkpt>
      <trkpt lat="44.60189" lon="2.95231">
        <ele>1090.9</ele>
        <time>2022-08-05T08:15:22Z</time>
      </trkpt>
      <trkpt lat="44.60192" lon="2.9523">
        <ele>1091.2</ele>
        <time>2022-08-05T08:15:24Z</time>
      </trkpt>
      <trkpt lat="44.60197" lon="2.95226">
        <ele>1092.1</ele>
        <time>2022-08-05T08:15:29Z</time>
      </trkpt>
      <trkpt lat="44.60198" lon="2.95225">
        <ele>1092.1</ele>
        <time>2022-08-05T08:15:30Z</time>
      </trkpt>
      <trkpt lat="44.60203" lon="2.95217">
        <ele>1092.2</ele>
        <time>2022-08-05T08:15:37Z</time>
      </trkpt>
      <trkpt lat="44.60206" lon="2.95215">
        <ele>1092.5</ele>
        <time>2022-08-05T08:15:39Z</time>
      </trkpt>
      <trkpt lat="44.60212" lon="2.95209">
        <ele>1093.3</ele>
        <time>2022-08-05T08:15:45Z</time>
      </trkpt>
      <trkpt lat="44.60213" lon="2.95208">
        <ele>1093.2</ele>
        <time>2022-08-05T08:15:46Z</time>
      </trkpt>
      <trkpt lat="44.60216" lon="2.95202">
        <ele>1093.2</ele>
        <time>2022-08-05T08:15:50Z</time>
      </trkpt>
      <trkpt lat="44.60218" lon="2.95198">
        <ele>1093.3</ele>
        <time>2022-08-05T08:15:53Z</time>
      </trkpt>
      <trkpt lat="44.6022" lon="2.95195">
        <ele>1093.6</ele>
        <time>2022-08-05T08:15:56Z</time>
      </trkpt>
      <trkpt lat="44.60224" lon="2.9519">
        <ele>1093.5</ele>
        <time>2022-08-05T08:16:00Z</time>
      </trkpt>
      <trkpt lat="44.60228" lon="2.95183">
        <ele>1093.1</ele>
        <time>2022-08-05T08:16:07Z</time>
      </trkpt>
      <trkpt lat="44.6023" lon="2.95181">
        <ele>1093.2</ele>
        <time>2022-08-05T08:16:09Z</time>
      </trkpt>
      <trkpt lat="44.60239" lon="2.95177">
        <ele>1094.1</ele>
        <time>2022-08-05T08:16:16Z</time>
      </trkpt>
      <trkpt lat="44.60241" lon="2.95176">
        <ele>1094.5</ele>
        <time>2022-08-05T08:16:18Z</time>
      </trkpt>
      <trkpt lat="44.6025" lon="2.95174">
        <ele>1095.9</ele>
        <time>2022-08-05T08:16:26Z</time>
      </trkpt>
      <trkpt lat="44.60252" lon="2.95173">
        <ele>1096.1</ele>
        <time>2022-08-05T08:16:28Z</time>
      </trkpt>
      <trkpt lat="44.60256" lon="2.95177">
        <ele>1096.3</ele>
        <time>2022-08-05T08:16:32Z</time>
      </trkpt>
      <trkpt lat="44.60256" lon="2.95179">
        <ele>1096.3</ele>
        <time>2022-08-05T08:16:33Z</time>
      </trkpt>
      <trkpt lat="44.60257" lon="2.95184">
        <ele>1096.3</ele>
        <time>2022-08-05T08:16:36Z</time>
      </trkpt>
      <trkpt lat="44.60253" lon="2.95191">
        <ele>1096.1</ele>
        <time>2022-08-05T08:16:40Z</time>
      </trkpt>
      <trkpt lat="44.60251" lon="2.95194">
        <ele>1096.1</ele>
        <time>2022-08-05T08:16:42Z</time>
      </trkpt>
      <trkpt lat="44.6025" lon="2.95197">
        <ele>1096.3</ele>
        <time>2022-08-05T08:16:44Z</time>
      </trkpt>
      <trkpt lat="44.60247" lon="2.952">
        <ele>1096.3</ele>
        <time>2022-08-05T08:16:47Z</time>
      </trkpt>
      <trkpt lat="44.60243" lon="2.95202">
        <ele>1096.3</ele>
        <time>2022-08-05T08:16:51Z</time>
      </trkpt>
      <trkpt lat="44.6024" lon="2.95204">
        <ele>1096.3</ele>
        <time>2022-08-05T08:16:54Z</time>
      </trkpt>
      <trkpt lat="44.60238" lon="2.95206">
        <ele>1096.4</ele>
        <time>2022-08-05T08:16:56Z</time>
      </trkpt>
      <trkpt lat="44.60235" lon="2.95212">
        <ele>1096.9</ele>
        <time>2022-08-05T08:17:01Z</time>
      </trkpt>
      <trkpt lat="44.60233" lon="2.95217">
        <ele>1097.2</ele>
        <time>2022-08-05T08:17:04Z</time>
      </trkpt>
      <trkpt lat="44.60232" lon="2.95222">
        <ele>1097.6</ele>
        <time>2022-08-05T08:17:08Z</time>
      </trkpt>
      <trkpt lat="44.60232" lon="2.95223">
        <ele>1097.7</ele>
        <time>2022-08-05T08:17:09Z</time>
      </trkpt>
      <trkpt lat="44.60231" lon="2.95225">
        <ele>1098.1</ele>
        <time>2022-08-05T08:17:11Z</time>
      </trkpt>
      <trkpt lat="44.6023" lon="2.9523">
        <ele>1099</ele>
        <time>2022-08-05T08:17:15Z</time>
      </trkpt>
      <trkpt lat="44.6023" lon="2.95231">
        <ele>1099.2</ele>
        <time>2022-08-05T08:17:16Z</time>
      </trkpt>
      <trkpt lat="44.6023" lon="2.95231">
        <ele>1099.3</ele>
        <time>2022-08-05T08:17:17Z</time>
      </trkpt>
      <trkpt lat="44.60232" lon="2.95237">
        <ele>1100.6</ele>
        <time>2022-08-05T08:17:22Z</time>
      </trkpt>
      <trkpt lat="44.60233" lon="2.95238">
        <ele>1100.8</ele>
        <time>2022-08-05T08:17:23Z</time>
      </trkpt>
      <trkpt lat="44.60235" lon="2.95241">
        <ele>1101.6</ele>
        <time>2022-08-05T08:17:27Z</time>
      </trkpt>
      <trkpt lat="44.60237" lon="2.95242">
        <ele>1102</ele>
        <time>2022-08-05T08:17:30Z</time>
      </trkpt>
      <trkpt lat="44.60242" lon="2.95245">
        <ele>1103.1</ele>
        <time>2022-08-05T08:17:38Z</time>
      </trkpt>
      <trkpt lat="44.60245" lon="2.95246">
        <ele>1103.7</ele>
        <time>2022-08-05T08:17:42Z</time>
      </trkpt>
      <trkpt lat="44.60246" lon="2.95246">
        <ele>1103.8</ele>
        <time>2022-08-05T08:17:44Z</time>
      </trkpt>
      <trkpt lat="44.60248" lon="2.95246">
        <ele>1103.9</ele>
        <time>2022-08-05T08:17:46Z</time>
      </trkpt>
      <trkpt lat="44.6025" lon="2.95246">
        <ele>1104.1</ele>
        <time>2022-08-05T08:17:48Z</time>
      </trkpt>
      <trkpt lat="44.60253" lon="2.95248">
        <ele>1104.2</ele>
        <time>2022-08-05T08:17:52Z</time>
      </trkpt>
      <trkpt lat="44.60253" lon="2.95249">
        <ele>1104.4</ele>
        <time>2022-08-05T08:17:53Z</time>
      </trkpt>
      <trkpt lat="44.60254" lon="2.95251">
        <ele>1104.6</ele>
        <time>2022-08-05T08:17:55Z</time>
      </trkpt>
      <trkpt lat="44.60256" lon="2.95254">
        <ele>1105.2</ele>
        <time>2022-08-05T08:17:58Z</time>
      </trkpt>
      <trkpt lat="44.60257" lon="2.95255">
        <ele>1105.4</ele>
        <time>2022-08-05T08:17:59Z</time>
      </trkpt>
      <trkpt lat="44.60258" lon="2.9526">
        <ele>1106.5</ele>
        <time>2022-08-05T08:18:04Z</time>
      </trkpt>
      <trkpt lat="44.60259" lon="2.95262">
        <ele>1107</ele>
        <time>2022-08-05T08:18:06Z</time>
      </trkpt>
      <trkpt lat="44.60259" lon="2.95265">
        <ele>1107.8</ele>
        <time>2022-08-05T08:18:09Z</time>
      </trkpt>
      <trkpt lat="44.60259" lon="2.95266">
        <ele>1107.9</ele>
        <time>2022-08-05T08:18:10Z</time>
      </trkpt>
      <trkpt lat="44.6026" lon="2.95268">
        <ele>1108.4</ele>
        <time>2022-08-05T08:18:13Z</time>
      </trkpt>
      <trkpt lat="44.60261" lon="2.95268">
        <ele>1108.5</ele>
        <time>2022-08-05T08:18:14Z</time>
      </trkpt>
      <trkpt lat="44.60263" lon="2.95271">
        <ele>1109.2</ele>
        <time>2022-08-05T08:18:18Z</time>
      </trkpt>
      <trkpt lat="44.60263" lon="2.95272">
        <ele>1109.5</ele>
        <time>2022-08-05T08:18:19Z</time>
      </trkpt>
      <trkpt lat="44.60263" lon="2.95273">
        <ele>1109.6</ele>
        <time>2022-08-05T08:18:20Z</time>
      </trkpt>
      <trkpt lat="44.60264" lon="2.95274">
        <ele>1110</ele>
        <time>2022-08-05T08:18:21Z</time>
      </trkpt>
      <trkpt lat="44.60266" lon="2.95276">
        <ele>1110.2</ele>
        <time>2022-08-05T08:18:23Z</time>
      </trkpt>
      <trkpt lat="44.60267" lon="2.95277">
        <ele>1110.5</ele>
        <time>2022-08-05T08:18:25Z</time>
      </trkpt>
      <trkpt lat="44.60268" lon="2.95278">
        <ele>1110.8</ele>
        <time>2022-08-05T08:18:27Z</time>
      </trkpt>
      <trkpt lat="44.60269" lon="2.95279">
        <ele>1111.1</ele>
        <time>2022-08-05T08:18:28Z</time>
      </trkpt>
      <trkpt lat="44.60273" lon="2.95283">
        <ele>1111.8</ele>
        <time>2022-08-05T08:18:33Z</time>
      </trkpt>
      <trkpt lat="44.60273" lon="2.95285">
        <ele>1112.3</ele>
        <time>2022-08-05T08:18:35Z</time>
      </trkpt>
      <trkpt lat="44.60273" lon="2.95285">
        <ele>1112.5</ele>
        <time>2022-08-05T08:18:36Z</time>
      </trkpt>
      <trkpt lat="44.60273" lon="2.95288">
        <ele>1113.2</ele>
        <time>2022-08-05T08:18:38Z</time>
      </trkpt>
      <trkpt lat="44.60273" lon="2.9529">
        <ele>1114</ele>
        <time>2022-08-05T08:18:41Z</time>
      </trkpt>
      <trkpt lat="44.60274" lon="2.95292">
        <ele>1114.3</ele>
        <time>2022-08-05T08:18:43Z</time>
      </trkpt>
      <trkpt lat="44.60275" lon="2.95301">
        <ele>1117</ele>
        <time>2022-08-05T08:18:52Z</time>
      </trkpt>
      <trkpt lat="44.60275" lon="2.95302">
        <ele>1117.2</ele>
        <time>2022-08-05T08:18:53Z</time>
      </trkpt>
      <trkpt lat="44.60274" lon="2.95304">
        <ele>1117.7</ele>
        <time>2022-08-05T08:18:55Z</time>
      </trkpt>
      <trkpt lat="44.60274" lon="2.95306">
        <ele>1118.3</ele>
        <time>2022-08-05T08:18:57Z</time>
      </trkpt>
      <trkpt lat="44.60274" lon="2.95307">
        <ele>1118.5</ele>
        <time>2022-08-05T08:18:58Z</time>
      </trkpt>
      <trkpt lat="44.60274" lon="2.95307">
        <ele>1118.6</ele>
        <time>2022-08-05T08:18:59Z</time>
      </trkpt>
      <trkpt lat="44.60275" lon="2.95308">
        <ele>1118.7</ele>
        <time>2022-08-05T08:19:00Z</time>
      </trkpt>
      <trkpt lat="44.60275" lon="2.95311">
        <ele>1119.2</ele>
        <time>2022-08-05T08:19:03Z</time>
      </trkpt>
      <trkpt lat="44.60276" lon="2.95313">
        <ele>1119.4</ele>
        <time>2022-08-05T08:19:05Z</time>
      </trkpt>
      <trkpt lat="44.60277" lon="2.95315">
        <ele>1119.8</ele>
        <time>2022-08-05T08:19:07Z</time>
      </trkpt>
      <trkpt lat="44.60278" lon="2.95321">
        <ele>1120.7</ele>
        <time>2022-08-05T08:19:12Z</time>
      </trkpt>
      <trkpt lat="44.60278" lon="2.95322">
        <ele>1120.9</ele>
        <time>2022-08-05T08:19:14Z</time>
      </trkpt>
      <trkpt lat="44.60282" lon="2.95334">
        <ele>1121.4</ele>
        <time>2022-08-05T08:19:23Z</time>
      </trkpt>
      <trkpt lat="44.60283" lon="2.95338">
        <ele>1121.2</ele>
        <time>2022-08-05T08:19:26Z</time>
      </trkpt>
      <trkpt lat="44.60283" lon="2.95339">
        <ele>1121.1</ele>
        <time>2022-08-05T08:19:27Z</time>
      </trkpt>
      <trkpt lat="44.60284" lon="2.95342">
        <ele>1121</ele>
        <time>2022-08-05T08:19:29Z</time>
      </trkpt>
      <trkpt lat="44.60286" lon="2.95353">
        <ele>1120.8</ele>
        <time>2022-08-05T08:19:37Z</time>
      </trkpt>
      <trkpt lat="44.60288" lon="2.95359">
        <ele>1120.2</ele>
        <time>2022-08-05T08:19:42Z</time>
      </trkpt>
      <trkpt lat="44.60289" lon="2.95361">
        <ele>1120.2</ele>
        <time>2022-08-05T08:19:43Z</time>
      </trkpt>
      <trkpt lat="44.60294" lon="2.95371">
        <ele>1118.6</ele>
        <time>2022-08-05T08:19:50Z</time>
      </trkpt>
      <trkpt lat="44.60294" lon="2.95372">
        <ele>1118.6</ele>
        <time>2022-08-05T08:19:51Z</time>
      </trkpt>
      <trkpt lat="44.60294" lon="2.95373">
        <ele>1118.7</ele>
        <time>2022-08-05T08:19:53Z</time>
      </trkpt>
      <trkpt lat="44.60293" lon="2.95372">
        <ele>1118.9</ele>
        <time>2022-08-05T08:19:56Z</time>
      </trkpt>
      <trkpt lat="44.60291" lon="2.9537">
        <ele>1119.3</ele>
        <time>2022-08-05T08:20:02Z</time>
      </trkpt>
      <trkpt lat="44.60291" lon="2.9537">
        <ele>1119.3</ele>
        <time>2022-08-05T08:20:06Z</time>
      </trkpt>
      <trkpt lat="44.6029" lon="2.95378">
        <ele>1119.2</ele>
        <time>2022-08-05T08:20:15Z</time>
      </trkpt>
      <trkpt lat="44.60289" lon="2.9538">
        <ele>1119.2</ele>
        <time>2022-08-05T08:20:16Z</time>
      </trkpt>
      <trkpt lat="44.60285" lon="2.95391">
        <ele>1119</ele>
        <time>2022-08-05T08:20:23Z</time>
      </trkpt>
      <trkpt lat="44.60284" lon="2.95391">
        <ele>1119</ele>
        <time>2022-08-05T08:20:24Z</time>
      </trkpt>
      <trkpt lat="44.60285" lon="2.95391">
        <ele>1119.1</ele>
        <time>2022-08-05T08:20:27Z</time>
      </trkpt>
      <trkpt lat="44.60284" lon="2.95391">
        <ele>1119.2</ele>
        <time>2022-08-05T08:20:38Z</time>
      </trkpt>
      <trkpt lat="44.60282" lon="2.95391">
        <ele>1119.3</ele>
        <time>2022-08-05T08:20:59Z</time>
      </trkpt>
      <trkpt lat="44.60281" lon="2.95392">
        <ele>1119.2</ele>
        <time>2022-08-05T08:21:01Z</time>
      </trkpt>
      <trkpt lat="44.6028" lon="2.95396">
        <ele>1118.8</ele>
        <time>2022-08-05T08:21:06Z</time>
      </trkpt>
      <trkpt lat="44.60279" lon="2.95397">
        <ele>1118.8</ele>
        <time>2022-08-05T08:21:07Z</time>
      </trkpt>
      <trkpt lat="44.60276" lon="2.95398">
        <ele>1118.6</ele>
        <time>2022-08-05T08:21:09Z</time>
      </trkpt>
      <trkpt lat="44.60275" lon="2.95398">
        <ele>1118.5</ele>
        <time>2022-08-05T08:21:10Z</time>
      </trkpt>
      <trkpt lat="44.60274" lon="2.95398">
        <ele>1118.5</ele>
        <time>2022-08-05T08:21:11Z</time>
      </trkpt>
      <trkpt lat="44.60271" lon="2.95396">
        <ele>1118.6</ele>
        <time>2022-08-05T08:21:13Z</time>
      </trkpt>
      <trkpt lat="44.6027" lon="2.95395">
        <ele>1118.7</ele>
        <time>2022-08-05T08:21:14Z</time>
      </trkpt>
      <trkpt lat="44.60269" lon="2.95394">
        <ele>1118.9</ele>
        <time>2022-08-05T08:21:15Z</time>
      </trkpt>
      <trkpt lat="44.60269" lon="2.95393">
        <ele>1119</ele>
        <time>2022-08-05T08:21:16Z</time>
      </trkpt>
      <trkpt lat="44.60268" lon="2.95392">
        <ele>1119.2</ele>
        <time>2022-08-05T08:21:17Z</time>
      </trkpt>
      <trkpt lat="44.60268" lon="2.95391">
        <ele>1119.2</ele>
        <time>2022-08-05T08:21:18Z</time>
      </trkpt>
      <trkpt lat="44.60268" lon="2.95391">
        <ele>1119.2</ele>
        <time>2022-08-05T08:21:19Z</time>
      </trkpt>
      <trkpt lat="44.60268" lon="2.95391">
        <ele>1119.3</ele>
        <time>2022-08-05T08:21:21Z</time>
      </trkpt>
      <trkpt lat="44.60268" lon="2.95391">
        <ele>1119.3</ele>
        <time>2022-08-05T08:21:23Z</time>
      </trkpt>
      <trkpt lat="44.60268" lon="2.95391">
        <ele>1119.3</ele>
        <time>2022-08-05T08:21:24Z</time>
      </trkpt>
      <trkpt lat="44.60268" lon="2.95391">
        <ele>1119.3</ele>
        <time>2022-08-05T08:21:25Z</time>
      </trkpt>
      <trkpt lat="44.60268" lon="2.9539">
        <ele>1119.5</ele>
        <time>2022-08-05T08:21:27Z</time>
      </trkpt>
      <trkpt lat="44.60268" lon="2.95389">
        <ele>1119.6</ele>
        <time>2022-08-05T08:21:28Z</time>
      </trkpt>
      <trkpt lat="44.60267" lon="2.95391">
        <ele>1119.2</ele>
        <time>2022-08-05T08:21:31Z</time>
      </trkpt>
      <trkpt lat="44.60264" lon="2.95391">
        <ele>1119.1</ele>
        <time>2022-08-05T08:21:34Z</time>
      </trkpt>
      <trkpt lat="44.60262" lon="2.9539">
        <ele>1119.2</ele>
        <time>2022-08-05T08:21:36Z</time>
      </trkpt>
      <trkpt lat="44.60262" lon="2.9539">
        <ele>1119.2</ele>
        <time>2022-08-05T08:21:39Z</time>
      </trkpt>
      <trkpt lat="44.60261" lon="2.9539">
        <ele>1119.1</ele>
        <time>2022-08-05T08:21:40Z</time>
      </trkpt>
      <trkpt lat="44.60261" lon="2.9539">
        <ele>1119.2</ele>
        <time>2022-08-05T08:21:41Z</time>
      </trkpt>
      <trkpt lat="44.60261" lon="2.9539">
        <ele>1119.2</ele>
        <time>2022-08-05T08:21:42Z</time>
      </trkpt>
      <trkpt lat="44.60261" lon="2.9539">
        <ele>1119.3</ele>
        <time>2022-08-05T08:21:43Z</time>
      </trkpt>
      <trkpt lat="44.6026" lon="2.95388">
        <ele>1119.5</ele>
        <time>2022-08-05T08:21:47Z</time>
      </trkpt>
      <trkpt lat="44.6026" lon="2.95388">
        <ele>1119.5</ele>
        <time>2022-08-05T08:21:49Z</time>
      </trkpt>
      <trkpt lat="44.6026" lon="2.95388">
        <ele>1119.5</ele>
        <time>2022-08-05T08:21:51Z</time>
      </trkpt>
      <trkpt lat="44.60261" lon="2.95388">
        <ele>1119.5</ele>
        <time>2022-08-05T08:21:55Z</time>
      </trkpt>
      <trkpt lat="44.60262" lon="2.95388">
        <ele>1119.6</ele>
        <time>2022-08-05T08:21:58Z</time>
      </trkpt>
      <trkpt lat="44.60262" lon="2.95388">
        <ele>1119.5</ele>
        <time>2022-08-05T08:21:59Z</time>
      </trkpt>
      <trkpt lat="44.60262" lon="2.95388">
        <ele>1119.5</ele>
        <time>2022-08-05T08:22:00Z</time>
      </trkpt>
      <trkpt lat="44.60262" lon="2.95388">
        <ele>1119.5</ele>
        <time>2022-08-05T08:22:03Z</time>
      </trkpt>
      <trkpt lat="44.60262" lon="2.95388">
        <ele>1119.5</ele>
        <time>2022-08-05T08:22:10Z</time>
      </trkpt>
      <trkpt lat="44.60262" lon="2.95388">
        <ele>1119.5</ele>
        <time>2022-08-05T08:22:24Z</time>
      </trkpt>
      <trkpt lat="44.6026" lon="2.95388">
        <ele>1119.5</ele>
        <time>2022-08-05T08:22:53Z</time>
      </trkpt>
      <trkpt lat="44.60261" lon="2.9539">
        <ele>1119.2</ele>
        <time>2022-08-05T08:23:20Z</time>
      </trkpt>
      <trkpt lat="44.60261" lon="2.9539">
        <ele>1119.2</ele>
        <time>2022-08-05T08:23:22Z</time>
      </trkpt>
      <trkpt lat="44.60268" lon="2.95393">
        <ele>1118.9</ele>
        <time>2022-08-05T08:23:30Z</time>
      </trkpt>
      <trkpt lat="44.60277" lon="2.95396">
        <ele>1118.9</ele>
        <time>2022-08-05T08:23:39Z</time>
      </trkpt>
      <trkpt lat="44.60277" lon="2.95397">
        <ele>1118.9</ele>
        <time>2022-08-05T08:23:43Z</time>
      </trkpt>
      <trkpt lat="44.60278" lon="2.95398">
        <ele>1118.7</ele>
        <time>2022-08-05T08:23:47Z</time>
      </trkpt>
      <trkpt lat="44.60278" lon="2.95399">
        <ele>1118.5</ele>
        <time>2022-08-05T08:23:57Z</time>
      </trkpt>
      <trkpt lat="44.60277" lon="2.95398">
        <ele>1118.6</ele>
        <time>2022-08-05T08:24:04Z</time>
      </trkpt>
      <trkpt lat="44.60277" lon="2.95393">
        <ele>1119.4</ele>
        <time>2022-08-05T08:24:08Z</time>
      </trkpt>
      <trkpt lat="44.60278" lon="2.9539">
        <ele>1119.7</ele>
        <time>2022-08-05T08:24:10Z</time>
      </trkpt>
      <trkpt lat="44.60279" lon="2.95385">
        <ele>1120.3</ele>
        <time>2022-08-05T08:24:14Z</time>
      </trkpt>
      <trkpt lat="44.60278" lon="2.95382">
        <ele>1120.7</ele>
        <time>2022-08-05T08:24:17Z</time>
      </trkpt>
      <trkpt lat="44.60277" lon="2.9538">
        <ele>1120.9</ele>
        <time>2022-08-05T08:24:21Z</time>
      </trkpt>
      <trkpt lat="44.60275" lon="2.95377">
        <ele>1121.3</ele>
        <time>2022-08-05T08:24:26Z</time>
      </trkpt>
      <trkpt lat="44.60274" lon="2.95373">
        <ele>1121.8</ele>
        <time>2022-08-05T08:24:29Z</time>
      </trkpt>
      <trkpt lat="44.60273" lon="2.95371">
        <ele>1122.2</ele>
        <time>2022-08-05T08:24:31Z</time>
      </trkpt>
      <trkpt lat="44.60268" lon="2.95365">
        <ele>1123.2</ele>
        <time>2022-08-05T08:24:36Z</time>
      </trkpt>
      <trkpt lat="44.60268" lon="2.95365">
        <ele>1123.1</ele>
        <time>2022-08-05T08:24:37Z</time>
      </trkpt>
      <trkpt lat="44.60267" lon="2.95367">
        <ele>1123</ele>
        <time>2022-08-05T08:24:39Z</time>
      </trkpt>
      <trkpt lat="44.60259" lon="2.95365">
        <ele>1123.7</ele>
        <time>2022-08-05T08:24:45Z</time>
      </trkpt>
      <trkpt lat="44.60259" lon="2.95362">
        <ele>1124.3</ele>
        <time>2022-08-05T08:24:47Z</time>
      </trkpt>
      <trkpt lat="44.60259" lon="2.95355">
        <ele>1124.5</ele>
        <time>2022-08-05T08:24:53Z</time>
      </trkpt>
      <trkpt lat="44.60259" lon="2.95351">
        <ele>1124.6</ele>
        <time>2022-08-05T08:24:57Z</time>
      </trkpt>
      <trkpt lat="44.60259" lon="2.95351">
        <ele>1124.6</ele>
        <time>2022-08-05T08:24:58Z</time>
      </trkpt>
      <trkpt lat="44.60262" lon="2.95355">
        <ele>1124.3</ele>
        <time>2022-08-05T08:25:04Z</time>
      </trkpt>
      <trkpt lat="44.60262" lon="2.95365">
        <ele>1123.5</ele>
        <time>2022-08-05T08:25:11Z</time>
      </trkpt>
      <trkpt lat="44.60264" lon="2.95366">
        <ele>1123.1</ele>
        <time>2022-08-05T08:25:14Z</time>
      </trkpt>
      <trkpt lat="44.60267" lon="2.95367">
        <ele>1123</ele>
        <time>2022-08-05T08:25:16Z</time>
      </trkpt>
      <trkpt lat="44.60273" lon="2.95369">
        <ele>1122.4</ele>
        <time>2022-08-05T08:25:22Z</time>
      </trkpt>
      <trkpt lat="44.60279" lon="2.95378">
        <ele>1121</ele>
        <time>2022-08-05T08:25:29Z</time>
      </trkpt>
      <trkpt lat="44.60282" lon="2.95382">
        <ele>1120.2</ele>
        <time>2022-08-05T08:25:32Z</time>
      </trkpt>
      <trkpt lat="44.60282" lon="2.95387">
        <ele>1119.7</ele>
        <time>2022-08-05T08:25:35Z</time>
      </trkpt>
      <trkpt lat="44.60282" lon="2.95388">
        <ele>1119.7</ele>
        <time>2022-08-05T08:25:36Z</time>
      </trkpt>
      <trkpt lat="44.6028" lon="2.9539">
        <ele>1119.6</ele>
        <time>2022-08-05T08:25:38Z</time>
      </trkpt>
      <trkpt lat="44.60279" lon="2.95391">
        <ele>1119.5</ele>
        <time>2022-08-05T08:25:40Z</time>
      </trkpt>
      <trkpt lat="44.6028" lon="2.95393">
        <ele>1119.1</ele>
        <time>2022-08-05T08:25:42Z</time>
      </trkpt>
      <trkpt lat="44.60283" lon="2.95395">
        <ele>1118.7</ele>
        <time>2022-08-05T08:25:44Z</time>
      </trkpt>
      <trkpt lat="44.60282" lon="2.95396">
        <ele>1118.6</ele>
        <time>2022-08-05T08:25:47Z</time>
      </trkpt>
      <trkpt lat="44.60281" lon="2.95396">
        <ele>1118.7</ele>
        <time>2022-08-05T08:25:49Z</time>
      </trkpt>
      <trkpt lat="44.60281" lon="2.95396">
        <ele>1118.7</ele>
        <time>2022-08-05T08:25:50Z</time>
      </trkpt>
      <trkpt lat="44.60281" lon="2.95397">
        <ele>1118.6</ele>
        <time>2022-08-05T08:25:56Z</time>
      </trkpt>
      <trkpt lat="44.60281" lon="2.95397">
        <ele>1118.6</ele>
        <time>2022-08-05T08:26:11Z</time>
      </trkpt>
      <trkpt lat="44.60281" lon="2.95396">
        <ele>1118.7</ele>
        <time>2022-08-05T08:26:13Z</time>
      </trkpt>
      <trkpt lat="44.60281" lon="2.95396">
        <ele>1118.7</ele>
        <time>2022-08-05T08:26:14Z</time>
      </trkpt>
      <trkpt lat="44.60281" lon="2.95396">
        <ele>1118.7</ele>
        <time>2022-08-05T08:26:15Z</time>
      </trkpt>
      <trkpt lat="44.60281" lon="2.95396">
        <ele>1118.7</ele>
        <time>2022-08-05T08:26:16Z</time>
      </trkpt>
      <trkpt lat="44.60281" lon="2.95396">
        <ele>1118.7</ele>
        <time>2022-08-05T08:26:18Z</time>
      </trkpt>
      <trkpt lat="44.60281" lon="2.95397">
        <ele>1118.6</ele>
        <time>2022-08-05T08:26:23Z</time>
      </trkpt>
      <trkpt lat="44.60281" lon="2.95396">
        <ele>1118.6</ele>
        <time>2022-08-05T08:26:25Z</time>
      </trkpt>
      <trkpt lat="44.60283" lon="2.95394">
        <ele>1118.9</ele>
        <time>2022-08-05T08:26:28Z</time>
      </trkpt>
      <trkpt lat="44.60283" lon="2.95392">
        <ele>1119</ele>
        <time>2022-08-05T08:26:34Z</time>
      </trkpt>
      <trkpt lat="44.60283" lon="2.95392">
        <ele>1119</ele>
        <time>2022-08-05T08:26:37Z</time>
      </trkpt>
      <trkpt lat="44.60283" lon="2.95392">
        <ele>1119</ele>
        <time>2022-08-05T08:26:49Z</time>
      </trkpt>
      <trkpt lat="44.60283" lon="2.95392">
        <ele>1119</ele>
        <time>2022-08-05T08:26:50Z</time>
      </trkpt>
      <trkpt lat="44.60283" lon="2.95392">
        <ele>1119</ele>
        <time>2022-08-05T08:26:52Z</time>
      </trkpt>
      <trkpt lat="44.60283" lon="2.95392">
        <ele>1119</ele>
        <time>2022-08-05T08:26:54Z</time>
      </trkpt>
      <trkpt lat="44.60283" lon="2.95392">
        <ele>1119.1</ele>
        <time>2022-08-05T08:26:57Z</time>
      </trkpt>
      <trkpt lat="44.60283" lon="2.95392">
        <ele>1119.1</ele>
        <time>2022-08-05T08:26:59Z</time>
      </trkpt>
      <trkpt lat="44.60282" lon="2.95392">
        <ele>1119.1</ele>
        <time>2022-08-05T08:27:07Z</time>
      </trkpt>
      <trkpt lat="44.60282" lon="2.95393">
        <ele>1119.1</ele>
        <time>2022-08-05T08:27:15Z</time>
      </trkpt>
      <trkpt lat="44.60282" lon="2.95393">
        <ele>1119</ele>
        <time>2022-08-05T08:27:16Z</time>
      </trkpt>
      <trkpt lat="44.60282" lon="2.95394">
        <ele>1118.9</ele>
        <time>2022-08-05T08:27:17Z</time>
      </trkpt>
      <trkpt lat="44.60281" lon="2.95396">
        <ele>1118.7</ele>
        <time>2022-08-05T08:27:19Z</time>
      </trkpt>
      <trkpt lat="44.60282" lon="2.95397">
        <ele>1118.5</ele>
        <time>2022-08-05T08:27:21Z</time>
      </trkpt>
      <trkpt lat="44.60283" lon="2.95399">
        <ele>1118.2</ele>
        <time>2022-08-05T08:27:23Z</time>
      </trkpt>
      <trkpt lat="44.60286" lon="2.95401">
        <ele>1117.8</ele>
        <time>2022-08-05T08:27:25Z</time>
      </trkpt>
      <trkpt lat="44.60286" lon="2.95402">
        <ele>1117.7</ele>
        <time>2022-08-05T08:27:26Z</time>
      </trkpt>
      <trkpt lat="44.60287" lon="2.95402">
        <ele>1117.6</ele>
        <time>2022-08-05T08:27:27Z</time>
      </trkpt>
      <trkpt lat="44.60287" lon="2.95404">
        <ele>1117.3</ele>
        <time>2022-08-05T08:27:30Z</time>
      </trkpt>
      <trkpt lat="44.60288" lon="2.95406">
        <ele>1117.1</ele>
        <time>2022-08-05T08:27:32Z</time>
      </trkpt>
      <trkpt lat="44.6029" lon="2.95412">
        <ele>1116.5</ele>
        <time>2022-08-05T08:27:37Z</time>
      </trkpt>
      <trkpt lat="44.6029" lon="2.95415">
        <ele>1116.1</ele>
        <time>2022-08-05T08:27:42Z</time>
      </trkpt>
      <trkpt lat="44.6029" lon="2.95415">
        <ele>1116.1</ele>
        <time>2022-08-05T08:27:43Z</time>
      </trkpt>
      <trkpt lat="44.6029" lon="2.95416">
        <ele>1116.1</ele>
        <time>2022-08-05T08:27:44Z</time>
      </trkpt>
      <trkpt lat="44.6029" lon="2.95416">
        <ele>1116.1</ele>
        <time>2022-08-05T08:27:45Z</time>
      </trkpt>
      <trkpt lat="44.60292" lon="2.95418">
        <ele>1115.9</ele>
        <time>2022-08-05T08:27:51Z</time>
      </trkpt>
      <trkpt lat="44.60293" lon="2.95423">
        <ele>1115.6</ele>
        <time>2022-08-05T08:27:58Z</time>
      </trkpt>
      <trkpt lat="44.60294" lon="2.95424">
        <ele>1115.6</ele>
        <time>2022-08-05T08:27:59Z</time>
      </trkpt>
      <trkpt lat="44.60298" lon="2.95431">
        <ele>1115.4</ele>
        <time>2022-08-05T08:28:08Z</time>
      </trkpt>
      <trkpt lat="44.60299" lon="2.95435">
        <ele>1115.4</ele>
        <time>2022-08-05T08:28:10Z</time>
      </trkpt>
      <trkpt lat="44.60301" lon="2.9544">
        <ele>1115.5</ele>
        <time>2022-08-05T08:28:15Z</time>
      </trkpt>
      <trkpt lat="44.6031" lon="2.9545">
        <ele>1115.8</ele>
        <time>2022-08-05T08:28:23Z</time>
      </trkpt>
      <trkpt lat="44.60311" lon="2.95455">
        <ele>1115.7</ele>
        <time>2022-08-05T08:28:26Z</time>
      </trkpt>
      <trkpt lat="44.60314" lon="2.95461">
        <ele>1115.6</ele>
        <time>2022-08-05T08:28:30Z</time>
      </trkpt>
      <trkpt lat="44.60315" lon="2.95472">
        <ele>1115.3</ele>
        <time>2022-08-05T08:28:37Z</time>
      </trkpt>
      <trkpt lat="44.60316" lon="2.95475">
        <ele>1115.3</ele>
        <time>2022-08-05T08:28:40Z</time>
      </trkpt>
      <trkpt lat="44.60317" lon="2.95473">
        <ele>1115.4</ele>
        <time>2022-08-05T08:28:43Z</time>
      </trkpt>
      <trkpt lat="44.60316" lon="2.95473">
        <ele>1115.3</ele>
        <time>2022-08-05T08:28:44Z</time>
      </trkpt>
      <trkpt lat="44.60316" lon="2.95474">
        <ele>1115.3</ele>
        <time>2022-08-05T08:28:46Z</time>
      </trkpt>
      <trkpt lat="44.60317" lon="2.95479">
        <ele>1115.1</ele>
        <time>2022-08-05T08:28:51Z</time>
      </trkpt>
      <trkpt lat="44.60322" lon="2.95486">
        <ele>1115.2</ele>
        <time>2022-08-05T08:28:57Z</time>
      </trkpt>
      <trkpt lat="44.60321" lon="2.95488">
        <ele>1115.1</ele>
        <time>2022-08-05T08:28:59Z</time>
      </trkpt>
      <trkpt lat="44.60322" lon="2.9549">
        <ele>1115</ele>
        <time>2022-08-05T08:29:00Z</time>
      </trkpt>
      <trkpt lat="44.60324" lon="2.95498">
        <ele>1115.1</ele>
        <time>2022-08-05T08:29:07Z</time>
      </trkpt>
      <trkpt lat="44.6033" lon="2.95505">
        <ele>1115.6</ele>
        <time>2022-08-05T08:29:14Z</time>
      </trkpt>
      <trkpt lat="44.60333" lon="2.95506">
        <ele>1115.9</ele>
        <time>2022-08-05T08:29:16Z</time>
      </trkpt>
      <trkpt lat="44.60334" lon="2.95509">
        <ele>1116.2</ele>
        <time>2022-08-05T08:29:19Z</time>
      </trkpt>
      <trkpt lat="44.60335" lon="2.95509">
        <ele>1116.3</ele>
        <time>2022-08-05T08:29:20Z</time>
      </trkpt>
      <trkpt lat="44.60335" lon="2.9551">
        <ele>1116.3</ele>
        <time>2022-08-05T08:29:21Z</time>
      </trkpt>
      <trkpt lat="44.60336" lon="2.95515">
        <ele>1116.5</ele>
        <time>2022-08-05T08:29:24Z</time>
      </trkpt>
      <trkpt lat="44.60339" lon="2.9552">
        <ele>1117.1</ele>
        <time>2022-08-05T08:29:27Z</time>
      </trkpt>
      <trkpt lat="44.6034" lon="2.95523">
        <ele>1117.3</ele>
        <time>2022-08-05T08:29:29Z</time>
      </trkpt>
      <trkpt lat="44.60344" lon="2.95527">
        <ele>1117.9</ele>
        <time>2022-08-05T08:29:33Z</time>
      </trkpt>
      <trkpt lat="44.60344" lon="2.95528">
        <ele>1117.9</ele>
        <time>2022-08-05T08:29:34Z</time>
      </trkpt>
      <trkpt lat="44.60344" lon="2.9553">
        <ele>1117.9</ele>
        <time>2022-08-05T08:29:38Z</time>
      </trkpt>
      <trkpt lat="44.60346" lon="2.95532">
        <ele>1118.3</ele>
        <time>2022-08-05T08:29:40Z</time>
      </trkpt>
      <trkpt lat="44.60349" lon="2.95535">
        <ele>1118.7</ele>
        <time>2022-08-05T08:29:43Z</time>
      </trkpt>
      <trkpt lat="44.60351" lon="2.95538">
        <ele>1118.9</ele>
        <time>2022-08-05T08:29:45Z</time>
      </trkpt>
      <trkpt lat="44.60353" lon="2.9554">
        <ele>1119.2</ele>
        <time>2022-08-05T08:29:47Z</time>
      </trkpt>
      <trkpt lat="44.60353" lon="2.95542">
        <ele>1119.2</ele>
        <time>2022-08-05T08:29:50Z</time>
      </trkpt>
      <trkpt lat="44.60359" lon="2.95545">
        <ele>1120</ele>
        <time>2022-08-05T08:29:55Z</time>
      </trkpt>
      <trkpt lat="44.60361" lon="2.95548">
        <ele>1120.2</ele>
        <time>2022-08-05T08:30:00Z</time>
      </trkpt>
      <trkpt lat="44.60365" lon="2.95549">
        <ele>1121</ele>
        <time>2022-08-05T08:30:04Z</time>
      </trkpt>
      <trkpt lat="44.60368" lon="2.9555">
        <ele>1121.5</ele>
        <time>2022-08-05T08:30:07Z</time>
      </trkpt>
      <trkpt lat="44.60369" lon="2.95551">
        <ele>1121.7</ele>
        <time>2022-08-05T08:30:08Z</time>
      </trkpt>
      <trkpt lat="44.60373" lon="2.95553">
        <ele>1122.4</ele>
        <time>2022-08-05T08:30:11Z</time>
      </trkpt>
      <trkpt lat="44.60378" lon="2.95553">
        <ele>1123.3</ele>
        <time>2022-08-05T08:30:15Z</time>
      </trkpt>
      <trkpt lat="44.6038" lon="2.95555">
        <ele>1123.4</ele>
        <time>2022-08-05T08:30:17Z</time>
      </trkpt>
      <trkpt lat="44.6038" lon="2.95556">
        <ele>1123.4</ele>
        <time>2022-08-05T08:30:18Z</time>
      </trkpt>
      <trkpt lat="44.60382" lon="2.95558">
        <ele>1123.6</ele>
        <time>2022-08-05T08:30:21Z</time>
      </trkpt>
      <trkpt lat="44.60382" lon="2.95558">
        <ele>1123.6</ele>
        <time>2022-08-05T08:30:22Z</time>
      </trkpt>
      <trkpt lat="44.60387" lon="2.9556">
        <ele>1124.3</ele>
        <time>2022-08-05T08:30:25Z</time>
      </trkpt>
      <trkpt lat="44.60389" lon="2.95561">
        <ele>1124.7</ele>
        <time>2022-08-05T08:30:27Z</time>
      </trkpt>
      <trkpt lat="44.6039" lon="2.95561">
        <ele>1124.8</ele>
        <time>2022-08-05T08:30:28Z</time>
      </trkpt>
      <trkpt lat="44.60391" lon="2.95562">
        <ele>1125</ele>
        <time>2022-08-05T08:30:31Z</time>
      </trkpt>
      <trkpt lat="44.60392" lon="2.95562">
        <ele>1125.1</ele>
        <time>2022-08-05T08:30:32Z</time>
      </trkpt>
      <trkpt lat="44.60394" lon="2.95563">
        <ele>1125.7</ele>
        <time>2022-08-05T08:30:34Z</time>
      </trkpt>
      <trkpt lat="44.60396" lon="2.95564">
        <ele>1126</ele>
        <time>2022-08-05T08:30:36Z</time>
      </trkpt>
      <trkpt lat="44.60396" lon="2.95564">
        <ele>1126.1</ele>
        <time>2022-08-05T08:30:37Z</time>
      </trkpt>
      <trkpt lat="44.60396" lon="2.95564">
        <ele>1126.1</ele>
        <time>2022-08-05T08:30:38Z</time>
      </trkpt>
      <trkpt lat="44.60396" lon="2.95564">
        <ele>1126</ele>
        <time>2022-08-05T08:30:40Z</time>
      </trkpt>
      <trkpt lat="44.60396" lon="2.95563">
        <ele>1126.2</ele>
        <time>2022-08-05T08:30:42Z</time>
      </trkpt>
      <trkpt lat="44.60402" lon="2.95564">
        <ele>1127.3</ele>
        <time>2022-08-05T08:30:46Z</time>
      </trkpt>
      <trkpt lat="44.60404" lon="2.95566">
        <ele>1127.7</ele>
        <time>2022-08-05T08:30:48Z</time>
      </trkpt>
      <trkpt lat="44.60407" lon="2.95567">
        <ele>1128.1</ele>
        <time>2022-08-05T08:30:51Z</time>
      </trkpt>
      <trkpt lat="44.60409" lon="2.95569">
        <ele>1128.3</ele>
        <time>2022-08-05T08:30:53Z</time>
      </trkpt>
      <trkpt lat="44.60409" lon="2.95569">
        <ele>1128.5</ele>
        <time>2022-08-05T08:30:55Z</time>
      </trkpt>
      <trkpt lat="44.60414" lon="2.95569">
        <ele>1129.5</ele>
        <time>2022-08-05T08:30:59Z</time>
      </trkpt>
      <trkpt lat="44.60416" lon="2.95569">
        <ele>1130</ele>
        <time>2022-08-05T08:31:01Z</time>
      </trkpt>
      <trkpt lat="44.60417" lon="2.95569">
        <ele>1130.1</ele>
        <time>2022-08-05T08:31:02Z</time>
      </trkpt>
      <trkpt lat="44.6042" lon="2.95571">
        <ele>1130.1</ele>
        <time>2022-08-05T08:31:07Z</time>
      </trkpt>
      <trkpt lat="44.60419" lon="2.95572">
        <ele>1129.9</ele>
        <time>2022-08-05T08:31:08Z</time>
      </trkpt>
      <trkpt lat="44.60417" lon="2.95573">
        <ele>1129.6</ele>
        <time>2022-08-05T08:31:10Z</time>
      </trkpt>
      <trkpt lat="44.60418" lon="2.95572">
        <ele>1129.7</ele>
        <time>2022-08-05T08:31:12Z</time>
      </trkpt>
      <trkpt lat="44.60418" lon="2.95568">
        <ele>1130.3</ele>
        <time>2022-08-05T08:31:15Z</time>
      </trkpt>
      <trkpt lat="44.60418" lon="2.95568">
        <ele>1130.5</ele>
        <time>2022-08-05T08:31:16Z</time>
      </trkpt>
      <trkpt lat="44.60423" lon="2.95566">
        <ele>1131.3</ele>
        <time>2022-08-05T08:31:20Z</time>
      </trkpt>
      <trkpt lat="44.60427" lon="2.9556">
        <ele>1132.6</ele>
        <time>2022-08-05T08:31:27Z</time>
      </trkpt>
      <trkpt lat="44.60426" lon="2.9556">
        <ele>1132.6</ele>
        <time>2022-08-05T08:31:30Z</time>
      </trkpt>
      <trkpt lat="44.60425" lon="2.9556">
        <ele>1132.5</ele>
        <time>2022-08-05T08:31:32Z</time>
      </trkpt>
      <trkpt lat="44.60424" lon="2.95557">
        <ele>1132.7</ele>
        <time>2022-08-05T08:31:37Z</time>
      </trkpt>
      <trkpt lat="44.60423" lon="2.95557">
        <ele>1132.7</ele>
        <time>2022-08-05T08:31:38Z</time>
      </trkpt>
      <trkpt lat="44.60423" lon="2.95557">
        <ele>1132.7</ele>
        <time>2022-08-05T08:31:39Z</time>
      </trkpt>
      <trkpt lat="44.60423" lon="2.95558">
        <ele>1132.7</ele>
        <time>2022-08-05T08:31:41Z</time>
      </trkpt>
      <trkpt lat="44.60423" lon="2.95557">
        <ele>1132.7</ele>
        <time>2022-08-05T08:31:43Z</time>
      </trkpt>
      <trkpt lat="44.60422" lon="2.95556">
        <ele>1132.7</ele>
        <time>2022-08-05T08:31:44Z</time>
      </trkpt>
      <trkpt lat="44.60421" lon="2.95554">
        <ele>1132.9</ele>
        <time>2022-08-05T08:31:46Z</time>
      </trkpt>
      <trkpt lat="44.60419" lon="2.95552">
        <ele>1133.1</ele>
        <time>2022-08-05T08:31:49Z</time>
      </trkpt>
      <trkpt lat="44.60416" lon="2.95547">
        <ele>1133.5</ele>
        <time>2022-08-05T08:31:55Z</time>
      </trkpt>
      <trkpt lat="44.60412" lon="2.95542">
        <ele>1133.2</ele>
        <time>2022-08-05T08:32:01Z</time>
      </trkpt>
      <trkpt lat="44.60409" lon="2.95537">
        <ele>1133.1</ele>
        <time>2022-08-05T08:32:06Z</time>
      </trkpt>
      <trkpt lat="44.60407" lon="2.95534">
        <ele>1133.3</ele>
        <time>2022-08-05T08:32:09Z</time>
      </trkpt>
      <trkpt lat="44.60406" lon="2.95528">
        <ele>1133.7</ele>
        <time>2022-08-05T08:32:15Z</time>
      </trkpt>
      <trkpt lat="44.60405" lon="2.95526">
        <ele>1133.9</ele>
        <time>2022-08-05T08:32:16Z</time>
      </trkpt>
      <trkpt lat="44.60404" lon="2.95523">
        <ele>1134</ele>
        <time>2022-08-05T08:32:19Z</time>
      </trkpt>
      <trkpt lat="44.60403" lon="2.9552">
        <ele>1134.2</ele>
        <time>2022-08-05T08:32:22Z</time>
      </trkpt>
      <trkpt lat="44.60402" lon="2.95517">
        <ele>1134.5</ele>
        <time>2022-08-05T08:32:26Z</time>
      </trkpt>
      <trkpt lat="44.60401" lon="2.95513">
        <ele>1134.9</ele>
        <time>2022-08-05T08:32:30Z</time>
      </trkpt>
      <trkpt lat="44.604" lon="2.95511">
        <ele>1134.9</ele>
        <time>2022-08-05T08:32:32Z</time>
      </trkpt>
      <trkpt lat="44.60399" lon="2.9551">
        <ele>1134.8</ele>
        <time>2022-08-05T08:32:33Z</time>
      </trkpt>
      <trkpt lat="44.60397" lon="2.95507">
        <ele>1134.9</ele>
        <time>2022-08-05T08:32:37Z</time>
      </trkpt>
      <trkpt lat="44.60397" lon="2.95506">
        <ele>1135.1</ele>
        <time>2022-08-05T08:32:38Z</time>
      </trkpt>
      <trkpt lat="44.60398" lon="2.95503">
        <ele>1135.7</ele>
        <time>2022-08-05T08:32:41Z</time>
      </trkpt>
      <trkpt lat="44.60398" lon="2.95502">
        <ele>1135.9</ele>
        <time>2022-08-05T08:32:42Z</time>
      </trkpt>
      <trkpt lat="44.60398" lon="2.95498">
        <ele>1136.4</ele>
        <time>2022-08-05T08:32:45Z</time>
      </trkpt>
      <trkpt lat="44.60398" lon="2.95498">
        <ele>1136.4</ele>
        <time>2022-08-05T08:32:46Z</time>
      </trkpt>
      <trkpt lat="44.60398" lon="2.95497">
        <ele>1136.5</ele>
        <time>2022-08-05T08:32:47Z</time>
      </trkpt>
      <trkpt lat="44.60399" lon="2.95493">
        <ele>1137.1</ele>
        <time>2022-08-05T08:32:52Z</time>
      </trkpt>
      <trkpt lat="44.60401" lon="2.95492">
        <ele>1137.5</ele>
        <time>2022-08-05T08:32:54Z</time>
      </trkpt>
      <trkpt lat="44.60401" lon="2.95492">
        <ele>1137.6</ele>
        <time>2022-08-05T08:32:55Z</time>
      </trkpt>
      <trkpt lat="44.60403" lon="2.95491">
        <ele>1138.2</ele>
        <time>2022-08-05T08:32:57Z</time>
      </trkpt>
      <trkpt lat="44.60405" lon="2.95488">
        <ele>1138.9</ele>
        <time>2022-08-05T08:33:01Z</time>
      </trkpt>
      <trkpt lat="44.60406" lon="2.95486">
        <ele>1139.4</ele>
        <time>2022-08-05T08:33:03Z</time>
      </trkpt>
      <trkpt lat="44.60411" lon="2.95484">
        <ele>1141.1</ele>
        <time>2022-08-05T08:33:09Z</time>
      </trkpt>
      <trkpt lat="44.60418" lon="2.95479">
        <ele>1143.4</ele>
        <time>2022-08-05T08:33:17Z</time>
      </trkpt>
      <trkpt lat="44.60417" lon="2.95479">
        <ele>1143.3</ele>
        <time>2022-08-05T08:33:19Z</time>
      </trkpt>
      <trkpt lat="44.60416" lon="2.95482">
        <ele>1142.8</ele>
        <time>2022-08-05T08:33:22Z</time>
      </trkpt>
      <trkpt lat="44.60411" lon="2.95488">
        <ele>1140.7</ele>
        <time>2022-08-05T08:33:29Z</time>
      </trkpt>
      <trkpt lat="44.6041" lon="2.95488">
        <ele>1140.5</ele>
        <time>2022-08-05T08:33:30Z</time>
      </trkpt>
      <trkpt lat="44.60408" lon="2.9549">
        <ele>1139.7</ele>
        <time>2022-08-05T08:33:33Z</time>
      </trkpt>
      <trkpt lat="44.60409" lon="2.9549">
        <ele>1139.9</ele>
        <time>2022-08-05T08:33:36Z</time>
      </trkpt>
      <trkpt lat="44.60409" lon="2.9549">
        <ele>1139.9</ele>
        <time>2022-08-05T08:33:37Z</time>
      </trkpt>
      <trkpt lat="44.6041" lon="2.95489">
        <ele>1140.4</ele>
        <time>2022-08-05T08:33:40Z</time>
      </trkpt>
      <trkpt lat="44.60413" lon="2.95487">
        <ele>1141.2</ele>
        <time>2022-08-05T08:33:43Z</time>
      </trkpt>
      <trkpt lat="44.60418" lon="2.95479">
        <ele>1143.4</ele>
        <time>2022-08-05T08:33:50Z</time>
      </trkpt>
      <trkpt lat="44.60422" lon="2.95476">
        <ele>1144</ele>
        <time>2022-08-05T08:33:54Z</time>
      </trkpt>
      <trkpt lat="44.60429" lon="2.95472">
        <ele>1144.8</ele>
        <time>2022-08-05T08:34:02Z</time>
      </trkpt>
      <trkpt lat="44.6043" lon="2.95471">
        <ele>1144.8</ele>
        <time>2022-08-05T08:34:03Z</time>
      </trkpt>
      <trkpt lat="44.60432" lon="2.9547">
        <ele>1144.9</ele>
        <time>2022-08-05T08:34:05Z</time>
      </trkpt>
      <trkpt lat="44.60438" lon="2.95473">
        <ele>1145.6</ele>
        <time>2022-08-05T08:34:09Z</time>
      </trkpt>
      <trkpt lat="44.60442" lon="2.95476">
        <ele>1145.9</ele>
        <time>2022-08-05T08:34:14Z</time>
      </trkpt>
      <trkpt lat="44.60444" lon="2.95475">
        <ele>1146</ele>
        <time>2022-08-05T08:34:16Z</time>
      </trkpt>
      <trkpt lat="44.60446" lon="2.95474">
        <ele>1146.2</ele>
        <time>2022-08-05T08:34:19Z</time>
      </trkpt>
      <trkpt lat="44.60446" lon="2.95475">
        <ele>1146.2</ele>
        <time>2022-08-05T08:34:22Z</time>
      </trkpt>
      <trkpt lat="44.60447" lon="2.95474">
        <ele>1146.3</ele>
        <time>2022-08-05T08:34:31Z</time>
      </trkpt>
      <trkpt lat="44.60447" lon="2.95474">
        <ele>1146.3</ele>
        <time>2022-08-05T08:34:34Z</time>
      </trkpt>
      <trkpt lat="44.60447" lon="2.95475">
        <ele>1146.3</ele>
        <time>2022-08-05T08:34:53Z</time>
      </trkpt>
      <trkpt lat="44.60447" lon="2.95474">
        <ele>1146.2</ele>
        <time>2022-08-05T08:35:27Z</time>
      </trkpt>
      <trkpt lat="44.60447" lon="2.95474">
        <ele>1146.2</ele>
        <time>2022-08-05T08:35:28Z</time>
      </trkpt>
      <trkpt lat="44.60447" lon="2.95474">
        <ele>1146.2</ele>
        <time>2022-08-05T08:35:30Z</time>
      </trkpt>
      <trkpt lat="44.60447" lon="2.95474">
        <ele>1146.2</ele>
        <time>2022-08-05T08:35:32Z</time>
      </trkpt>
      <trkpt lat="44.60447" lon="2.95475">
        <ele>1146.3</ele>
        <time>2022-08-05T08:35:44Z</time>
      </trkpt>
      <trkpt lat="44.60447" lon="2.95476">
        <ele>1146.3</ele>
        <time>2022-08-05T08:35:49Z</time>
      </trkpt>
      <trkpt lat="44.60452" lon="2.95478">
        <ele>1146.7</ele>
        <time>2022-08-05T08:36:32Z</time>
      </trkpt>
      <trkpt lat="44.60461" lon="2.95488">
        <ele>1147.8</ele>
        <time>2022-08-05T08:36:40Z</time>
      </trkpt>
      <trkpt lat="44.60467" lon="2.95492">
        <ele>1148.4</ele>
        <time>2022-08-05T08:36:46Z</time>
      </trkpt>
      <trkpt lat="44.60468" lon="2.95493">
        <ele>1148.5</ele>
        <time>2022-08-05T08:36:47Z</time>
      </trkpt>
      <trkpt lat="44.60477" lon="2.955">
        <ele>1149.3</ele>
        <time>2022-08-05T08:36:56Z</time>
      </trkpt>
      <trkpt lat="44.6048" lon="2.955">
        <ele>1149.6</ele>
        <time>2022-08-05T08:37:00Z</time>
      </trkpt>
      <trkpt lat="44.60483" lon="2.95502">
        <ele>1149.9</ele>
        <time>2022-08-05T08:37:03Z</time>
      </trkpt>
      <trkpt lat="44.60483" lon="2.95502">
        <ele>1149.9</ele>
        <time>2022-08-05T08:37:04Z</time>
      </trkpt>
      <trkpt lat="44.60484" lon="2.95504">
        <ele>1150</ele>
        <time>2022-08-05T08:37:06Z</time>
      </trkpt>
      <trkpt lat="44.60486" lon="2.95503">
        <ele>1150.1</ele>
        <time>2022-08-05T08:37:09Z</time>
      </trkpt>
      <trkpt lat="44.60489" lon="2.95503">
        <ele>1150.3</ele>
        <time>2022-08-05T08:37:12Z</time>
      </trkpt>
      <trkpt lat="44.60493" lon="2.95507">
        <ele>1150.7</ele>
        <time>2022-08-05T08:37:16Z</time>
      </trkpt>
      <trkpt lat="44.60502" lon="2.95514">
        <ele>1151.6</ele>
        <time>2022-08-05T08:37:25Z</time>
      </trkpt>
      <trkpt lat="44.60513" lon="2.95521">
        <ele>1153</ele>
        <time>2022-08-05T08:37:35Z</time>
      </trkpt>
      <trkpt lat="44.60517" lon="2.95522">
        <ele>1153.6</ele>
        <time>2022-08-05T08:37:39Z</time>
      </trkpt>
      <trkpt lat="44.60519" lon="2.95522">
        <ele>1153.7</ele>
        <time>2022-08-05T08:37:41Z</time>
      </trkpt>
      <trkpt lat="44.60522" lon="2.95521">
        <ele>1154</ele>
        <time>2022-08-05T08:37:44Z</time>
      </trkpt>
      <trkpt lat="44.60524" lon="2.95521">
        <ele>1154.2</ele>
        <time>2022-08-05T08:37:46Z</time>
      </trkpt>
      <trkpt lat="44.60525" lon="2.95522">
        <ele>1154.3</ele>
        <time>2022-08-05T08:37:47Z</time>
      </trkpt>
      <trkpt lat="44.60526" lon="2.95523">
        <ele>1154.4</ele>
        <time>2022-08-05T08:37:48Z</time>
      </trkpt>
      <trkpt lat="44.60526" lon="2.95524">
        <ele>1154.6</ele>
        <time>2022-08-05T08:37:50Z</time>
      </trkpt>
      <trkpt lat="44.60528" lon="2.95524">
        <ele>1154.7</ele>
        <time>2022-08-05T08:37:52Z</time>
      </trkpt>
      <trkpt lat="44.6053" lon="2.95525">
        <ele>1155.2</ele>
        <time>2022-08-05T08:37:54Z</time>
      </trkpt>
      <trkpt lat="44.60535" lon="2.95526">
        <ele>1155.8</ele>
        <time>2022-08-05T08:37:57Z</time>
      </trkpt>
      <trkpt lat="44.60536" lon="2.95526">
        <ele>1156</ele>
        <time>2022-08-05T08:37:58Z</time>
      </trkpt>
      <trkpt lat="44.60539" lon="2.95527">
        <ele>1156.5</ele>
        <time>2022-08-05T08:38:01Z</time>
      </trkpt>
      <trkpt lat="44.60539" lon="2.95528">
        <ele>1156.6</ele>
        <time>2022-08-05T08:38:02Z</time>
      </trkpt>
      <trkpt lat="44.6054" lon="2.95528">
        <ele>1156.8</ele>
        <time>2022-08-05T08:38:03Z</time>
      </trkpt>
      <trkpt lat="44.60541" lon="2.95529">
        <ele>1157</ele>
        <time>2022-08-05T08:38:04Z</time>
      </trkpt>
      <trkpt lat="44.60542" lon="2.95529">
        <ele>1157.1</ele>
        <time>2022-08-05T08:38:05Z</time>
      </trkpt>
      <trkpt lat="44.60547" lon="2.95532">
        <ele>1158</ele>
        <time>2022-08-05T08:38:10Z</time>
      </trkpt>
      <trkpt lat="44.60548" lon="2.95533">
        <ele>1158.2</ele>
        <time>2022-08-05T08:38:12Z</time>
      </trkpt>
      <trkpt lat="44.60549" lon="2.95533">
        <ele>1158.3</ele>
        <time>2022-08-05T08:38:13Z</time>
      </trkpt>
      <trkpt lat="44.60551" lon="2.95534">
        <ele>1158.6</ele>
        <time>2022-08-05T08:38:15Z</time>
      </trkpt>
      <trkpt lat="44.60553" lon="2.95539">
        <ele>1159.1</ele>
        <time>2022-08-05T08:38:19Z</time>
      </trkpt>
      <trkpt lat="44.60554" lon="2.9554">
        <ele>1159.2</ele>
        <time>2022-08-05T08:38:20Z</time>
      </trkpt>
      <trkpt lat="44.60555" lon="2.95544">
        <ele>1159.5</ele>
        <time>2022-08-05T08:38:23Z</time>
      </trkpt>
      <trkpt lat="44.60556" lon="2.95548">
        <ele>1159.8</ele>
        <time>2022-08-05T08:38:26Z</time>
      </trkpt>
      <trkpt lat="44.60556" lon="2.95549">
        <ele>1159.8</ele>
        <time>2022-08-05T08:38:27Z</time>
      </trkpt>
      <trkpt lat="44.60558" lon="2.9556">
        <ele>1160.7</ele>
        <time>2022-08-05T08:38:34Z</time>
      </trkpt>
      <trkpt lat="44.60559" lon="2.95571">
        <ele>1161.7</ele>
        <time>2022-08-05T08:38:42Z</time>
      </trkpt>
      <trkpt lat="44.60559" lon="2.95572">
        <ele>1161.7</ele>
        <time>2022-08-05T08:38:43Z</time>
      </trkpt>
      <trkpt lat="44.60557" lon="2.95576">
        <ele>1161.8</ele>
        <time>2022-08-05T08:38:46Z</time>
      </trkpt>
      <trkpt lat="44.60556" lon="2.9558">
        <ele>1161.8</ele>
        <time>2022-08-05T08:38:49Z</time>
      </trkpt>
      <trkpt lat="44.60555" lon="2.95581">
        <ele>1161.8</ele>
        <time>2022-08-05T08:38:50Z</time>
      </trkpt>
      <trkpt lat="44.60554" lon="2.95583">
        <ele>1161.7</ele>
        <time>2022-08-05T08:38:52Z</time>
      </trkpt>
      <trkpt lat="44.60553" lon="2.95587">
        <ele>1161.9</ele>
        <time>2022-08-05T08:38:55Z</time>
      </trkpt>
      <trkpt lat="44.60553" lon="2.95588">
        <ele>1162</ele>
        <time>2022-08-05T08:38:56Z</time>
      </trkpt>
      <trkpt lat="44.60552" lon="2.95591">
        <ele>1162.1</ele>
        <time>2022-08-05T08:38:58Z</time>
      </trkpt>
      <trkpt lat="44.60552" lon="2.95594">
        <ele>1162.2</ele>
        <time>2022-08-05T08:39:00Z</time>
      </trkpt>
      <trkpt lat="44.60551" lon="2.95595">
        <ele>1162.2</ele>
        <time>2022-08-05T08:39:01Z</time>
      </trkpt>
      <trkpt lat="44.6055" lon="2.95596">
        <ele>1162</ele>
        <time>2022-08-05T08:39:02Z</time>
      </trkpt>
      <trkpt lat="44.6055" lon="2.95597">
        <ele>1162.1</ele>
        <time>2022-08-05T08:39:03Z</time>
      </trkpt>
      <trkpt lat="44.6055" lon="2.95599">
        <ele>1162.2</ele>
        <time>2022-08-05T08:39:04Z</time>
      </trkpt>
      <trkpt lat="44.60549" lon="2.95602">
        <ele>1162.2</ele>
        <time>2022-08-05T08:39:06Z</time>
      </trkpt>
      <trkpt lat="44.6055" lon="2.95608">
        <ele>1162.7</ele>
        <time>2022-08-05T08:39:10Z</time>
      </trkpt>
      <trkpt lat="44.60551" lon="2.95612">
        <ele>1163.4</ele>
        <time>2022-08-05T08:39:14Z</time>
      </trkpt>
      <trkpt lat="44.60552" lon="2.95614">
        <ele>1163.8</ele>
        <time>2022-08-05T08:39:15Z</time>
      </trkpt>
      <trkpt lat="44.60553" lon="2.95616">
        <ele>1164.3</ele>
        <time>2022-08-05T08:39:17Z</time>
      </trkpt>
      <trkpt lat="44.60555" lon="2.9562">
        <ele>1164.9</ele>
        <time>2022-08-05T08:39:21Z</time>
      </trkpt>
      <trkpt lat="44.60556" lon="2.95623">
        <ele>1165.4</ele>
        <time>2022-08-05T08:39:23Z</time>
      </trkpt>
      <trkpt lat="44.60556" lon="2.95624">
        <ele>1165.5</ele>
        <time>2022-08-05T08:39:24Z</time>
      </trkpt>
      <trkpt lat="44.60556" lon="2.95625">
        <ele>1165.5</ele>
        <time>2022-08-05T08:39:25Z</time>
      </trkpt>
      <trkpt lat="44.60557" lon="2.95627">
        <ele>1165.7</ele>
        <time>2022-08-05T08:39:27Z</time>
      </trkpt>
      <trkpt lat="44.60557" lon="2.95628">
        <ele>1165.8</ele>
        <time>2022-08-05T08:39:28Z</time>
      </trkpt>
      <trkpt lat="44.6056" lon="2.95633">
        <ele>1166.4</ele>
        <time>2022-08-05T08:39:33Z</time>
      </trkpt>
      <trkpt lat="44.60566" lon="2.95638">
        <ele>1167.5</ele>
        <time>2022-08-05T08:39:40Z</time>
      </trkpt>
      <trkpt lat="44.60568" lon="2.9564">
        <ele>1167.9</ele>
        <time>2022-08-05T08:39:42Z</time>
      </trkpt>
      <trkpt lat="44.6057" lon="2.95645">
        <ele>1168.9</ele>
        <time>2022-08-05T08:39:46Z</time>
      </trkpt>
      <trkpt lat="44.60572" lon="2.95647">
        <ele>1169.4</ele>
        <time>2022-08-05T08:39:48Z</time>
      </trkpt>
      <trkpt lat="44.60574" lon="2.95648">
        <ele>1169.7</ele>
        <time>2022-08-05T08:39:50Z</time>
      </trkpt>
      <trkpt lat="44.60575" lon="2.95648">
        <ele>1170</ele>
        <time>2022-08-05T08:39:51Z</time>
      </trkpt>
      <trkpt lat="44.60576" lon="2.95649">
        <ele>1170.2</ele>
        <time>2022-08-05T08:39:52Z</time>
      </trkpt>
      <trkpt lat="44.60579" lon="2.95651">
        <ele>1171</ele>
        <time>2022-08-05T08:39:55Z</time>
      </trkpt>
      <trkpt lat="44.60583" lon="2.95653">
        <ele>1172</ele>
        <time>2022-08-05T08:40:00Z</time>
      </trkpt>
      <trkpt lat="44.60584" lon="2.95654">
        <ele>1172.1</ele>
        <time>2022-08-05T08:40:01Z</time>
      </trkpt>
      <trkpt lat="44.60585" lon="2.95655">
        <ele>1172.2</ele>
        <time>2022-08-05T08:40:02Z</time>
      </trkpt>
      <trkpt lat="44.60587" lon="2.95657">
        <ele>1172.5</ele>
        <time>2022-08-05T08:40:04Z</time>
      </trkpt>
      <trkpt lat="44.60588" lon="2.95658">
        <ele>1172.6</ele>
        <time>2022-08-05T08:40:06Z</time>
      </trkpt>
      <trkpt lat="44.60589" lon="2.95658">
        <ele>1172.6</ele>
        <time>2022-08-05T08:40:07Z</time>
      </trkpt>
      <trkpt lat="44.60591" lon="2.9566">
        <ele>1172.8</ele>
        <time>2022-08-05T08:40:10Z</time>
      </trkpt>
      <trkpt lat="44.60595" lon="2.95661">
        <ele>1172.9</ele>
        <time>2022-08-05T08:40:16Z</time>
      </trkpt>
      <trkpt lat="44.60596" lon="2.95661">
        <ele>1172.8</ele>
        <time>2022-08-05T08:40:17Z</time>
      </trkpt>
      <trkpt lat="44.60604" lon="2.95667">
        <ele>1173.3</ele>
        <time>2022-08-05T08:40:22Z</time>
      </trkpt>
      <trkpt lat="44.60609" lon="2.95672">
        <ele>1173.9</ele>
        <time>2022-08-05T08:40:28Z</time>
      </trkpt>
      <trkpt lat="44.6061" lon="2.95673">
        <ele>1174</ele>
        <time>2022-08-05T08:40:30Z</time>
      </trkpt>
      <trkpt lat="44.60612" lon="2.95675">
        <ele>1174.3</ele>
        <time>2022-08-05T08:40:33Z</time>
      </trkpt>
      <trkpt lat="44.60614" lon="2.95676">
        <ele>1174.4</ele>
        <time>2022-08-05T08:40:35Z</time>
      </trkpt>
      <trkpt lat="44.60615" lon="2.95676">
        <ele>1174.5</ele>
        <time>2022-08-05T08:40:36Z</time>
      </trkpt>
      <trkpt lat="44.60616" lon="2.95676">
        <ele>1174.7</ele>
        <time>2022-08-05T08:40:37Z</time>
      </trkpt>
      <trkpt lat="44.60622" lon="2.95679">
        <ele>1175.3</ele>
        <time>2022-08-05T08:40:42Z</time>
      </trkpt>
      <trkpt lat="44.60625" lon="2.95681">
        <ele>1175.8</ele>
        <time>2022-08-05T08:40:46Z</time>
      </trkpt>
      <trkpt lat="44.60627" lon="2.95683">
        <ele>1176.2</ele>
        <time>2022-08-05T08:40:49Z</time>
      </trkpt>
      <trkpt lat="44.60633" lon="2.95688">
        <ele>1177.1</ele>
        <time>2022-08-05T08:40:55Z</time>
      </trkpt>
      <trkpt lat="44.6064" lon="2.95693">
        <ele>1177.9</ele>
        <time>2022-08-05T08:41:02Z</time>
      </trkpt>
      <trkpt lat="44.60645" lon="2.95698">
        <ele>1179</ele>
        <time>2022-08-05T08:41:09Z</time>
      </trkpt>
      <trkpt lat="44.60653" lon="2.95703">
        <ele>1180.3</ele>
        <time>2022-08-05T08:41:18Z</time>
      </trkpt>
      <trkpt lat="44.6066" lon="2.95709">
        <ele>1181.8</ele>
        <time>2022-08-05T08:41:27Z</time>
      </trkpt>
      <trkpt lat="44.60663" lon="2.95712">
        <ele>1182.3</ele>
        <time>2022-08-05T08:41:31Z</time>
      </trkpt>
      <trkpt lat="44.60666" lon="2.95714">
        <ele>1182.7</ele>
        <time>2022-08-05T08:41:34Z</time>
      </trkpt>
      <trkpt lat="44.60667" lon="2.95715">
        <ele>1182.9</ele>
        <time>2022-08-05T08:41:38Z</time>
      </trkpt>
      <trkpt lat="44.60667" lon="2.95715">
        <ele>1182.9</ele>
        <time>2022-08-05T08:41:39Z</time>
      </trkpt>
      <trkpt lat="44.60668" lon="2.95715">
        <ele>1182.9</ele>
        <time>2022-08-05T08:41:42Z</time>
      </trkpt>
      <trkpt lat="44.60669" lon="2.95715">
        <ele>1183</ele>
        <time>2022-08-05T08:41:45Z</time>
      </trkpt>
      <trkpt lat="44.60669" lon="2.95714">
        <ele>1182.9</ele>
        <time>2022-08-05T08:41:47Z</time>
      </trkpt>
      <trkpt lat="44.60671" lon="2.95715">
        <ele>1183</ele>
        <time>2022-08-05T08:41:49Z</time>
      </trkpt>
      <trkpt lat="44.60673" lon="2.95716">
        <ele>1183.1</ele>
        <time>2022-08-05T08:41:50Z</time>
      </trkpt>
      <trkpt lat="44.60675" lon="2.95717">
        <ele>1183.2</ele>
        <time>2022-08-05T08:41:51Z</time>
      </trkpt>
      <trkpt lat="44.60677" lon="2.95719">
        <ele>1183.5</ele>
        <time>2022-08-05T08:41:54Z</time>
      </trkpt>
      <trkpt lat="44.60679" lon="2.95719">
        <ele>1183.5</ele>
        <time>2022-08-05T08:41:57Z</time>
      </trkpt>
      <trkpt lat="44.60689" lon="2.95723">
        <ele>1184.1</ele>
        <time>2022-08-05T08:42:07Z</time>
      </trkpt>
      <trkpt lat="44.60699" lon="2.95726">
        <ele>1184.8</ele>
        <time>2022-08-05T08:42:16Z</time>
      </trkpt>
      <trkpt lat="44.60701" lon="2.95726">
        <ele>1184.8</ele>
        <time>2022-08-05T08:42:18Z</time>
      </trkpt>
      <trkpt lat="44.60704" lon="2.95726">
        <ele>1185.1</ele>
        <time>2022-08-05T08:42:21Z</time>
      </trkpt>
      <trkpt lat="44.60705" lon="2.95727">
        <ele>1185.2</ele>
        <time>2022-08-05T08:42:22Z</time>
      </trkpt>
      <trkpt lat="44.60708" lon="2.95727">
        <ele>1185.4</ele>
        <time>2022-08-05T08:42:24Z</time>
      </trkpt>
      <trkpt lat="44.60712" lon="2.95729">
        <ele>1185.7</ele>
        <time>2022-08-05T08:42:29Z</time>
      </trkpt>
      <trkpt lat="44.60719" lon="2.95729">
        <ele>1186.1</ele>
        <time>2022-08-05T08:42:36Z</time>
      </trkpt>
      <trkpt lat="44.60721" lon="2.95729">
        <ele>1186.2</ele>
        <time>2022-08-05T08:42:37Z</time>
      </trkpt>
      <trkpt lat="44.60722" lon="2.9573">
        <ele>1186.3</ele>
        <time>2022-08-05T08:42:38Z</time>
      </trkpt>
      <trkpt lat="44.60722" lon="2.9573">
        <ele>1186.5</ele>
        <time>2022-08-05T08:42:39Z</time>
      </trkpt>
      <trkpt lat="44.60724" lon="2.95731">
        <ele>1186.6</ele>
        <time>2022-08-05T08:42:41Z</time>
      </trkpt>
      <trkpt lat="44.60726" lon="2.95731">
        <ele>1186.6</ele>
        <time>2022-08-05T08:42:43Z</time>
      </trkpt>
      <trkpt lat="44.60734" lon="2.95734">
        <ele>1186.9</ele>
        <time>2022-08-05T08:42:50Z</time>
      </trkpt>
      <trkpt lat="44.60735" lon="2.95734">
        <ele>1186.9</ele>
        <time>2022-08-05T08:42:51Z</time>
      </trkpt>
      <trkpt lat="44.60736" lon="2.95735">
        <ele>1187</ele>
        <time>2022-08-05T08:42:53Z</time>
      </trkpt>
      <trkpt lat="44.6074" lon="2.95734">
        <ele>1186.9</ele>
        <time>2022-08-05T08:42:57Z</time>
      </trkpt>
      <trkpt lat="44.60747" lon="2.95736">
        <ele>1187.1</ele>
        <time>2022-08-05T08:43:03Z</time>
      </trkpt>
      <trkpt lat="44.60749" lon="2.95738">
        <ele>1187.3</ele>
        <time>2022-08-05T08:43:05Z</time>
      </trkpt>
      <trkpt lat="44.6075" lon="2.95739">
        <ele>1187.4</ele>
        <time>2022-08-05T08:43:06Z</time>
      </trkpt>
      <trkpt lat="44.60752" lon="2.95739">
        <ele>1187.1</ele>
        <time>2022-08-05T08:43:10Z</time>
      </trkpt>
      <trkpt lat="44.60752" lon="2.95739">
        <ele>1187.1</ele>
        <time>2022-08-05T08:43:11Z</time>
      </trkpt>
      <trkpt lat="44.60752" lon="2.95739">
        <ele>1187.1</ele>
        <time>2022-08-05T08:43:12Z</time>
      </trkpt>
      <trkpt lat="44.60752" lon="2.95739">
        <ele>1187.1</ele>
        <time>2022-08-05T08:43:15Z</time>
      </trkpt>
      <trkpt lat="44.60753" lon="2.95739">
        <ele>1187.1</ele>
        <time>2022-08-05T08:43:17Z</time>
      </trkpt>
      <trkpt lat="44.60753" lon="2.95739">
        <ele>1187.1</ele>
        <time>2022-08-05T08:43:18Z</time>
      </trkpt>
      <trkpt lat="44.60753" lon="2.95739">
        <ele>1187.1</ele>
        <time>2022-08-05T08:43:20Z</time>
      </trkpt>
      <trkpt lat="44.60753" lon="2.9574">
        <ele>1187.2</ele>
        <time>2022-08-05T08:43:21Z</time>
      </trkpt>
      <trkpt lat="44.60753" lon="2.9574">
        <ele>1187.2</ele>
        <time>2022-08-05T08:43:24Z</time>
      </trkpt>
      <trkpt lat="44.60753" lon="2.9574">
        <ele>1187.2</ele>
        <time>2022-08-05T08:43:27Z</time>
      </trkpt>
      <trkpt lat="44.60753" lon="2.9574">
        <ele>1187.1</ele>
        <time>2022-08-05T08:43:32Z</time>
      </trkpt>
      <trkpt lat="44.60753" lon="2.9574">
        <ele>1187.1</ele>
        <time>2022-08-05T08:43:34Z</time>
      </trkpt>
      <trkpt lat="44.60753" lon="2.9574">
        <ele>1187.1</ele>
        <time>2022-08-05T08:43:35Z</time>
      </trkpt>
      <trkpt lat="44.60753" lon="2.9574">
        <ele>1187.1</ele>
        <time>2022-08-05T08:43:37Z</time>
      </trkpt>
      <trkpt lat="44.60753" lon="2.9574">
        <ele>1187.1</ele>
        <time>2022-08-05T08:43:46Z</time>
      </trkpt>
      <trkpt lat="44.60754" lon="2.9574">
        <ele>1187.1</ele>
        <time>2022-08-05T08:43:53Z</time>
      </trkpt>
      <trkpt lat="44.60754" lon="2.9574">
        <ele>1187.1</ele>
        <time>2022-08-05T08:43:58Z</time>
      </trkpt>
      <trkpt lat="44.60754" lon="2.9574">
        <ele>1187.1</ele>
        <time>2022-08-05T08:44:01Z</time>
      </trkpt>
      <trkpt lat="44.60754" lon="2.9574">
        <ele>1187.1</ele>
        <time>2022-08-05T08:44:02Z</time>
      </trkpt>
      <trkpt lat="44.60754" lon="2.9574">
        <ele>1187</ele>
        <time>2022-08-05T08:44:03Z</time>
      </trkpt>
      <trkpt lat="44.60754" lon="2.9574">
        <ele>1187</ele>
        <time>2022-08-05T08:44:05Z</time>
      </trkpt>
      <trkpt lat="44.60754" lon="2.9574">
        <ele>1187</ele>
        <time>2022-08-05T08:44:07Z</time>
      </trkpt>
      <trkpt lat="44.60754" lon="2.9574">
        <ele>1187</ele>
        <time>2022-08-05T08:44:09Z</time>
      </trkpt>
      <trkpt lat="44.60754" lon="2.9574">
        <ele>1187</ele>
        <time>2022-08-05T08:44:11Z</time>
      </trkpt>
      <trkpt lat="44.60754" lon="2.9574">
        <ele>1187</ele>
        <time>2022-08-05T08:44:15Z</time>
      </trkpt>
      <trkpt lat="44.60754" lon="2.9574">
        <ele>1187</ele>
        <time>2022-08-05T08:44:20Z</time>
      </trkpt>
      <trkpt lat="44.60754" lon="2.95739">
        <ele>1187</ele>
        <time>2022-08-05T08:44:24Z</time>
      </trkpt>
      <trkpt lat="44.60754" lon="2.95739">
        <ele>1186.9</ele>
        <time>2022-08-05T08:44:28Z</time>
      </trkpt>
      <trkpt lat="44.60753" lon="2.95739">
        <ele>1186.9</ele>
        <time>2022-08-05T08:44:32Z</time>
      </trkpt>
      <trkpt lat="44.60753" lon="2.95738">
        <ele>1187</ele>
        <time>2022-08-05T08:44:35Z</time>
      </trkpt>
      <trkpt lat="44.60753" lon="2.95738">
        <ele>1187</ele>
        <time>2022-08-05T08:44:41Z</time>
      </trkpt>
      <trkpt lat="44.60753" lon="2.95738">
        <ele>1187</ele>
        <time>2022-08-05T08:44:44Z</time>
      </trkpt>
      <trkpt lat="44.60753" lon="2.95738">
        <ele>1187</ele>
        <time>2022-08-05T08:44:50Z</time>
      </trkpt>
      <trkpt lat="44.60753" lon="2.95738">
        <ele>1187</ele>
        <time>2022-08-05T08:44:51Z</time>
      </trkpt>
      <trkpt lat="44.60753" lon="2.95738">
        <ele>1187</ele>
        <time>2022-08-05T08:44:52Z</time>
      </trkpt>
      <trkpt lat="44.60753" lon="2.95738">
        <ele>1187</ele>
        <time>2022-08-05T08:44:54Z</time>
      </trkpt>
      <trkpt lat="44.60753" lon="2.95738">
        <ele>1187</ele>
        <time>2022-08-05T08:44:58Z</time>
      </trkpt>
      <trkpt lat="44.60753" lon="2.95738">
        <ele>1187</ele>
        <time>2022-08-05T08:45:01Z</time>
      </trkpt>
      <trkpt lat="44.60753" lon="2.95738">
        <ele>1187</ele>
        <time>2022-08-05T08:45:02Z</time>
      </trkpt>
      <trkpt lat="44.60753" lon="2.95738">
        <ele>1187</ele>
        <time>2022-08-05T08:45:04Z</time>
      </trkpt>
      <trkpt lat="44.60753" lon="2.95739">
        <ele>1187</ele>
        <time>2022-08-05T08:45:05Z</time>
      </trkpt>
      <trkpt lat="44.60753" lon="2.95739">
        <ele>1187</ele>
        <time>2022-08-05T08:45:06Z</time>
      </trkpt>
      <trkpt lat="44.60753" lon="2.95739">
        <ele>1187</ele>
        <time>2022-08-05T08:45:08Z</time>
      </trkpt>
      <trkpt lat="44.60753" lon="2.95739">
        <ele>1187</ele>
        <time>2022-08-05T08:45:13Z</time>
      </trkpt>
      <trkpt lat="44.60756" lon="2.95742">
        <ele>1187.2</ele>
        <time>2022-08-05T08:45:15Z</time>
      </trkpt>
      <trkpt lat="44.60757" lon="2.95744">
        <ele>1187.3</ele>
        <time>2022-08-05T08:45:16Z</time>
      </trkpt>
      <trkpt lat="44.60758" lon="2.95745">
        <ele>1187.4</ele>
        <time>2022-08-05T08:45:17Z</time>
      </trkpt>
      <trkpt lat="44.60759" lon="2.95747">
        <ele>1187.5</ele>
        <time>2022-08-05T08:45:18Z</time>
      </trkpt>
      <trkpt lat="44.6076" lon="2.95748">
        <ele>1187.6</ele>
        <time>2022-08-05T08:45:19Z</time>
      </trkpt>
      <trkpt lat="44.6076" lon="2.95749">
        <ele>1187.8</ele>
        <time>2022-08-05T08:45:20Z</time>
      </trkpt>
      <trkpt lat="44.6076" lon="2.95749">
        <ele>1187.8</ele>
        <time>2022-08-05T08:45:21Z</time>
      </trkpt>
      <trkpt lat="44.6076" lon="2.95749">
        <ele>1187.8</ele>
        <time>2022-08-05T08:45:22Z</time>
      </trkpt>
      <trkpt lat="44.60758" lon="2.95747">
        <ele>1187.6</ele>
        <time>2022-08-05T08:45:23Z</time>
      </trkpt>
      <trkpt lat="44.60757" lon="2.95746">
        <ele>1187.6</ele>
        <time>2022-08-05T08:45:24Z</time>
      </trkpt>
      <trkpt lat="44.60756" lon="2.95745">
        <ele>1187.5</ele>
        <time>2022-08-05T08:45:25Z</time>
      </trkpt>
      <trkpt lat="44.60754" lon="2.95742">
        <ele>1187.4</ele>
        <time>2022-08-05T08:45:27Z</time>
      </trkpt>
      <trkpt lat="44.60753" lon="2.9574">
        <ele>1187.2</ele>
        <time>2022-08-05T08:45:31Z</time>
      </trkpt>
      <trkpt lat="44.60752" lon="2.95738">
        <ele>1187.1</ele>
        <time>2022-08-05T08:45:34Z</time>
      </trkpt>
      <trkpt lat="44.60753" lon="2.95741">
        <ele>1187.3</ele>
        <time>2022-08-05T08:45:41Z</time>
      </trkpt>
      <trkpt lat="44.60755" lon="2.95744">
        <ele>1187.6</ele>
        <time>2022-08-05T08:45:43Z</time>
      </trkpt>
      <trkpt lat="44.60757" lon="2.95748">
        <ele>1187.9</ele>
        <time>2022-08-05T08:45:45Z</time>
      </trkpt>
      <trkpt lat="44.6076" lon="2.95754">
        <ele>1188.3</ele>
        <time>2022-08-05T08:45:48Z</time>
      </trkpt>
      <trkpt lat="44.60762" lon="2.95757">
        <ele>1188.5</ele>
        <time>2022-08-05T08:45:50Z</time>
      </trkpt>
      <trkpt lat="44.60763" lon="2.95758">
        <ele>1188.5</ele>
        <time>2022-08-05T08:45:51Z</time>
      </trkpt>
      <trkpt lat="44.60769" lon="2.95768">
        <ele>1188.9</ele>
        <time>2022-08-05T08:45:58Z</time>
      </trkpt>
      <trkpt lat="44.60772" lon="2.95776">
        <ele>1189.5</ele>
        <time>2022-08-05T08:46:03Z</time>
      </trkpt>
      <trkpt lat="44.60772" lon="2.95777">
        <ele>1189.6</ele>
        <time>2022-08-05T08:46:04Z</time>
      </trkpt>
      <trkpt lat="44.60773" lon="2.95779">
        <ele>1189.6</ele>
        <time>2022-08-05T08:46:05Z</time>
      </trkpt>
      <trkpt lat="44.60774" lon="2.95781">
        <ele>1189.7</ele>
        <time>2022-08-05T08:46:06Z</time>
      </trkpt>
      <trkpt lat="44.60774" lon="2.95782">
        <ele>1189.8</ele>
        <time>2022-08-05T08:46:07Z</time>
      </trkpt>
      <trkpt lat="44.60775" lon="2.95783">
        <ele>1189.8</ele>
        <time>2022-08-05T08:46:08Z</time>
      </trkpt>
      <trkpt lat="44.60776" lon="2.95785">
        <ele>1190</ele>
        <time>2022-08-05T08:46:09Z</time>
      </trkpt>
      <trkpt lat="44.60778" lon="2.95793">
        <ele>1190.7</ele>
        <time>2022-08-05T08:46:14Z</time>
      </trkpt>
      <trkpt lat="44.60778" lon="2.95795">
        <ele>1190.8</ele>
        <time>2022-08-05T08:46:15Z</time>
      </trkpt>
      <trkpt lat="44.6078" lon="2.95805">
        <ele>1191.8</ele>
        <time>2022-08-05T08:46:21Z</time>
      </trkpt>
      <trkpt lat="44.6078" lon="2.95806">
        <ele>1191.9</ele>
        <time>2022-08-05T08:46:22Z</time>
      </trkpt>
      <trkpt lat="44.6078" lon="2.95808">
        <ele>1192</ele>
        <time>2022-08-05T08:46:23Z</time>
      </trkpt>
      <trkpt lat="44.60784" lon="2.95818">
        <ele>1192.5</ele>
        <time>2022-08-05T08:46:29Z</time>
      </trkpt>
      <trkpt lat="44.60784" lon="2.95819">
        <ele>1192.6</ele>
        <time>2022-08-05T08:46:30Z</time>
      </trkpt>
      <trkpt lat="44.60785" lon="2.9582">
        <ele>1192.7</ele>
        <time>2022-08-05T08:46:31Z</time>
      </trkpt>
      <trkpt lat="44.60785" lon="2.95822">
        <ele>1192.8</ele>
        <time>2022-08-05T08:46:32Z</time>
      </trkpt>
      <trkpt lat="44.60787" lon="2.95824">
        <ele>1192.9</ele>
        <time>2022-08-05T08:46:34Z</time>
      </trkpt>
      <trkpt lat="44.60792" lon="2.95831">
        <ele>1193.3</ele>
        <time>2022-08-05T08:46:39Z</time>
      </trkpt>
      <trkpt lat="44.60793" lon="2.95832">
        <ele>1193.4</ele>
        <time>2022-08-05T08:46:40Z</time>
      </trkpt>
      <trkpt lat="44.60794" lon="2.95833">
        <ele>1193.4</ele>
        <time>2022-08-05T08:46:41Z</time>
      </trkpt>
      <trkpt lat="44.60795" lon="2.95836">
        <ele>1193.7</ele>
        <time>2022-08-05T08:46:43Z</time>
      </trkpt>
      <trkpt lat="44.60799" lon="2.9584">
        <ele>1193.9</ele>
        <time>2022-08-05T08:46:46Z</time>
      </trkpt>
      <trkpt lat="44.608" lon="2.95841">
        <ele>1194</ele>
        <time>2022-08-05T08:46:47Z</time>
      </trkpt>
      <trkpt lat="44.60804" lon="2.95845">
        <ele>1194.3</ele>
        <time>2022-08-05T08:46:52Z</time>
      </trkpt>
      <trkpt lat="44.60805" lon="2.95846">
        <ele>1194.4</ele>
        <time>2022-08-05T08:46:53Z</time>
      </trkpt>
      <trkpt lat="44.60807" lon="2.95849">
        <ele>1194.7</ele>
        <time>2022-08-05T08:46:55Z</time>
      </trkpt>
      <trkpt lat="44.60809" lon="2.9585">
        <ele>1194.8</ele>
        <time>2022-08-05T08:46:56Z</time>
      </trkpt>
      <trkpt lat="44.60815" lon="2.95856">
        <ele>1195.3</ele>
        <time>2022-08-05T08:47:05Z</time>
      </trkpt>
      <trkpt lat="44.60816" lon="2.95856">
        <ele>1195.4</ele>
        <time>2022-08-05T08:47:06Z</time>
      </trkpt>
      <trkpt lat="44.60816" lon="2.95856">
        <ele>1195.4</ele>
        <time>2022-08-05T08:47:07Z</time>
      </trkpt>
      <trkpt lat="44.60816" lon="2.95857">
        <ele>1195.4</ele>
        <time>2022-08-05T08:47:08Z</time>
      </trkpt>
      <trkpt lat="44.60816" lon="2.95857">
        <ele>1195.4</ele>
        <time>2022-08-05T08:47:09Z</time>
      </trkpt>
      <trkpt lat="44.60816" lon="2.95857">
        <ele>1195.5</ele>
        <time>2022-08-05T08:47:10Z</time>
      </trkpt>
      <trkpt lat="44.60816" lon="2.95856">
        <ele>1195.4</ele>
        <time>2022-08-05T08:47:11Z</time>
      </trkpt>
      <trkpt lat="44.60816" lon="2.95857">
        <ele>1195.4</ele>
        <time>2022-08-05T08:47:13Z</time>
      </trkpt>
      <trkpt lat="44.60814" lon="2.95858">
        <ele>1195.7</ele>
        <time>2022-08-05T08:47:15Z</time>
      </trkpt>
      <trkpt lat="44.60813" lon="2.9586">
        <ele>1195.9</ele>
        <time>2022-08-05T08:47:17Z</time>
      </trkpt>
      <trkpt lat="44.60813" lon="2.95861">
        <ele>1196</ele>
        <time>2022-08-05T08:47:18Z</time>
      </trkpt>
      <trkpt lat="44.60813" lon="2.95862">
        <ele>1196.1</ele>
        <time>2022-08-05T08:47:23Z</time>
      </trkpt>
      <trkpt lat="44.6082" lon="2.95862">
        <ele>1196.1</ele>
        <time>2022-08-05T08:47:29Z</time>
      </trkpt>
      <trkpt lat="44.60823" lon="2.95863">
        <ele>1196.1</ele>
        <time>2022-08-05T08:47:32Z</time>
      </trkpt>
      <trkpt lat="44.60825" lon="2.95863">
        <ele>1196.1</ele>
        <time>2022-08-05T08:47:33Z</time>
      </trkpt>
      <trkpt lat="44.60826" lon="2.95864">
        <ele>1196.2</ele>
        <time>2022-08-05T08:47:34Z</time>
      </trkpt>
      <trkpt lat="44.60828" lon="2.95866">
        <ele>1196.2</ele>
        <time>2022-08-05T08:47:36Z</time>
      </trkpt>
      <trkpt lat="44.60831" lon="2.95867">
        <ele>1196.2</ele>
        <time>2022-08-05T08:47:38Z</time>
      </trkpt>
      <trkpt lat="44.60833" lon="2.95868">
        <ele>1196.3</ele>
        <time>2022-08-05T08:47:40Z</time>
      </trkpt>
      <trkpt lat="44.60834" lon="2.9587">
        <ele>1196.2</ele>
        <time>2022-08-05T08:47:41Z</time>
      </trkpt>
      <trkpt lat="44.60836" lon="2.95871">
        <ele>1196.2</ele>
        <time>2022-08-05T08:47:43Z</time>
      </trkpt>
      <trkpt lat="44.60839" lon="2.95873">
        <ele>1196.1</ele>
        <time>2022-08-05T08:47:45Z</time>
      </trkpt>
      <trkpt lat="44.60842" lon="2.95875">
        <ele>1196</ele>
        <time>2022-08-05T08:47:47Z</time>
      </trkpt>
      <trkpt lat="44.60847" lon="2.95878">
        <ele>1195.9</ele>
        <time>2022-08-05T08:47:52Z</time>
      </trkpt>
      <trkpt lat="44.6085" lon="2.9588">
        <ele>1195.9</ele>
        <time>2022-08-05T08:47:55Z</time>
      </trkpt>
      <trkpt lat="44.60853" lon="2.95882">
        <ele>1195.9</ele>
        <time>2022-08-05T08:47:58Z</time>
      </trkpt>
      <trkpt lat="44.60855" lon="2.95884">
        <ele>1195.9</ele>
        <time>2022-08-05T08:48:00Z</time>
      </trkpt>
      <trkpt lat="44.60856" lon="2.95885">
        <ele>1195.9</ele>
        <time>2022-08-05T08:48:01Z</time>
      </trkpt>
      <trkpt lat="44.60857" lon="2.95885">
        <ele>1195.9</ele>
        <time>2022-08-05T08:48:02Z</time>
      </trkpt>
      <trkpt lat="44.6086" lon="2.95887">
        <ele>1195.9</ele>
        <time>2022-08-05T08:48:05Z</time>
      </trkpt>
      <trkpt lat="44.60864" lon="2.95889">
        <ele>1196.2</ele>
        <time>2022-08-05T08:48:08Z</time>
      </trkpt>
      <trkpt lat="44.60865" lon="2.9589">
        <ele>1196.3</ele>
        <time>2022-08-05T08:48:09Z</time>
      </trkpt>
      <trkpt lat="44.60878" lon="2.95895">
        <ele>1197.3</ele>
        <time>2022-08-05T08:48:21Z</time>
      </trkpt>
      <trkpt lat="44.6088" lon="2.95896">
        <ele>1197.4</ele>
        <time>2022-08-05T08:48:22Z</time>
      </trkpt>
      <trkpt lat="44.60885" lon="2.959">
        <ele>1197.8</ele>
        <time>2022-08-05T08:48:27Z</time>
      </trkpt>
      <trkpt lat="44.60887" lon="2.95903">
        <ele>1197.9</ele>
        <time>2022-08-05T08:48:31Z</time>
      </trkpt>
      <trkpt lat="44.60889" lon="2.95905">
        <ele>1198</ele>
        <time>2022-08-05T08:48:33Z</time>
      </trkpt>
      <trkpt lat="44.60893" lon="2.95911">
        <ele>1198.7</ele>
        <time>2022-08-05T08:48:38Z</time>
      </trkpt>
      <trkpt lat="44.60899" lon="2.95921">
        <ele>1199.3</ele>
        <time>2022-08-05T08:48:46Z</time>
      </trkpt>
      <trkpt lat="44.60902" lon="2.95927">
        <ele>1199.6</ele>
        <time>2022-08-05T08:48:51Z</time>
      </trkpt>
      <trkpt lat="44.60903" lon="2.95928">
        <ele>1199.6</ele>
        <time>2022-08-05T08:48:52Z</time>
      </trkpt>
      <trkpt lat="44.60903" lon="2.95929">
        <ele>1199.6</ele>
        <time>2022-08-05T08:48:53Z</time>
      </trkpt>
      <trkpt lat="44.60905" lon="2.95931">
        <ele>1199.8</ele>
        <time>2022-08-05T08:48:55Z</time>
      </trkpt>
      <trkpt lat="44.60906" lon="2.95932">
        <ele>1199.9</ele>
        <time>2022-08-05T08:48:56Z</time>
      </trkpt>
      <trkpt lat="44.60915" lon="2.95939">
        <ele>1200.9</ele>
        <time>2022-08-05T08:49:05Z</time>
      </trkpt>
      <trkpt lat="44.60918" lon="2.95941">
        <ele>1201.2</ele>
        <time>2022-08-05T08:49:08Z</time>
      </trkpt>
      <trkpt lat="44.60923" lon="2.95943">
        <ele>1201.1</ele>
        <time>2022-08-05T08:49:14Z</time>
      </trkpt>
      <trkpt lat="44.60923" lon="2.95944">
        <ele>1201</ele>
        <time>2022-08-05T08:49:15Z</time>
      </trkpt>
      <trkpt lat="44.60923" lon="2.95943">
        <ele>1201.1</ele>
        <time>2022-08-05T08:49:18Z</time>
      </trkpt>
      <trkpt lat="44.60922" lon="2.95942">
        <ele>1201.1</ele>
        <time>2022-08-05T08:49:21Z</time>
      </trkpt>
      <trkpt lat="44.60923" lon="2.95943">
        <ele>1201.1</ele>
        <time>2022-08-05T08:49:24Z</time>
      </trkpt>
      <trkpt lat="44.60923" lon="2.95943">
        <ele>1201.1</ele>
        <time>2022-08-05T08:49:26Z</time>
      </trkpt>
      <trkpt lat="44.60923" lon="2.95943">
        <ele>1201.1</ele>
        <time>2022-08-05T08:49:29Z</time>
      </trkpt>
      <trkpt lat="44.60923" lon="2.95942">
        <ele>1201.1</ele>
        <time>2022-08-05T08:49:30Z</time>
      </trkpt>
      <trkpt lat="44.60924" lon="2.95942">
        <ele>1201.2</ele>
        <time>2022-08-05T08:49:31Z</time>
      </trkpt>
      <trkpt lat="44.60926" lon="2.95941">
        <ele>1201.2</ele>
        <time>2022-08-05T08:49:32Z</time>
      </trkpt>
      <trkpt lat="44.60929" lon="2.95939">
        <ele>1201.4</ele>
        <time>2022-08-05T08:49:35Z</time>
      </trkpt>
      <trkpt lat="44.60933" lon="2.95937">
        <ele>1201.6</ele>
        <time>2022-08-05T08:49:38Z</time>
      </trkpt>
      <trkpt lat="44.6094" lon="2.95931">
        <ele>1202.4</ele>
        <time>2022-08-05T08:49:45Z</time>
      </trkpt>
      <trkpt lat="44.60946" lon="2.95923">
        <ele>1203.3</ele>
        <time>2022-08-05T08:49:52Z</time>
      </trkpt>
      <trkpt lat="44.60952" lon="2.95915">
        <ele>1204.2</ele>
        <time>2022-08-05T08:49:59Z</time>
      </trkpt>
      <trkpt lat="44.60953" lon="2.95914">
        <ele>1204.3</ele>
        <time>2022-08-05T08:50:00Z</time>
      </trkpt>
      <trkpt lat="44.60958" lon="2.95911">
        <ele>1204.8</ele>
        <time>2022-08-05T08:50:05Z</time>
      </trkpt>
      <trkpt lat="44.60958" lon="2.95909">
        <ele>1205</ele>
        <time>2022-08-05T08:50:06Z</time>
      </trkpt>
      <trkpt lat="44.60959" lon="2.95907">
        <ele>1205.2</ele>
        <time>2022-08-05T08:50:07Z</time>
      </trkpt>
      <trkpt lat="44.6096" lon="2.95907">
        <ele>1205.2</ele>
        <time>2022-08-05T08:50:08Z</time>
      </trkpt>
      <trkpt lat="44.60966" lon="2.95903">
        <ele>1205.6</ele>
        <time>2022-08-05T08:50:13Z</time>
      </trkpt>
      <trkpt lat="44.60968" lon="2.95902">
        <ele>1205.7</ele>
        <time>2022-08-05T08:50:15Z</time>
      </trkpt>
      <trkpt lat="44.60969" lon="2.95901">
        <ele>1205.7</ele>
        <time>2022-08-05T08:50:16Z</time>
      </trkpt>
      <trkpt lat="44.6097" lon="2.959">
        <ele>1205.8</ele>
        <time>2022-08-05T08:50:17Z</time>
      </trkpt>
      <trkpt lat="44.60971" lon="2.959">
        <ele>1205.9</ele>
        <time>2022-08-05T08:50:18Z</time>
      </trkpt>
      <trkpt lat="44.60973" lon="2.95898">
        <ele>1205.9</ele>
        <time>2022-08-05T08:50:20Z</time>
      </trkpt>
      <trkpt lat="44.60975" lon="2.95897">
        <ele>1206</ele>
        <time>2022-08-05T08:50:22Z</time>
      </trkpt>
      <trkpt lat="44.60976" lon="2.95896">
        <ele>1206.2</ele>
        <time>2022-08-05T08:50:23Z</time>
      </trkpt>
      <trkpt lat="44.60976" lon="2.95894">
        <ele>1206.4</ele>
        <time>2022-08-05T08:50:26Z</time>
      </trkpt>
      <trkpt lat="44.60976" lon="2.95894">
        <ele>1206.4</ele>
        <time>2022-08-05T08:50:27Z</time>
      </trkpt>
      <trkpt lat="44.60977" lon="2.95893">
        <ele>1206.5</ele>
        <time>2022-08-05T08:50:29Z</time>
      </trkpt>
      <trkpt lat="44.60978" lon="2.95892">
        <ele>1206.5</ele>
        <time>2022-08-05T08:50:30Z</time>
      </trkpt>
      <trkpt lat="44.6098" lon="2.95888">
        <ele>1206.8</ele>
        <time>2022-08-05T08:50:33Z</time>
      </trkpt>
      <trkpt lat="44.60982" lon="2.95886">
        <ele>1207</ele>
        <time>2022-08-05T08:50:35Z</time>
      </trkpt>
      <trkpt lat="44.60983" lon="2.95884">
        <ele>1207.1</ele>
        <time>2022-08-05T08:50:36Z</time>
      </trkpt>
      <trkpt lat="44.60984" lon="2.95882">
        <ele>1207.2</ele>
        <time>2022-08-05T08:50:38Z</time>
      </trkpt>
      <trkpt lat="44.60985" lon="2.95881">
        <ele>1207.3</ele>
        <time>2022-08-05T08:50:39Z</time>
      </trkpt>
      <trkpt lat="44.60986" lon="2.9588">
        <ele>1207.3</ele>
        <time>2022-08-05T08:50:40Z</time>
      </trkpt>
      <trkpt lat="44.60987" lon="2.95878">
        <ele>1207.4</ele>
        <time>2022-08-05T08:50:41Z</time>
      </trkpt>
      <trkpt lat="44.60988" lon="2.95877">
        <ele>1207.5</ele>
        <time>2022-08-05T08:50:42Z</time>
      </trkpt>
      <trkpt lat="44.60989" lon="2.95875">
        <ele>1207.6</ele>
        <time>2022-08-05T08:50:44Z</time>
      </trkpt>
      <trkpt lat="44.60992" lon="2.9587">
        <ele>1207.9</ele>
        <time>2022-08-05T08:50:48Z</time>
      </trkpt>
      <trkpt lat="44.60993" lon="2.95868">
        <ele>1208</ele>
        <time>2022-08-05T08:50:50Z</time>
      </trkpt>
      <trkpt lat="44.60997" lon="2.9586">
        <ele>1208.3</ele>
        <time>2022-08-05T08:50:56Z</time>
      </trkpt>
      <trkpt lat="44.61004" lon="2.95853">
        <ele>1208.5</ele>
        <time>2022-08-05T08:51:03Z</time>
      </trkpt>
      <trkpt lat="44.61005" lon="2.95852">
        <ele>1208.6</ele>
        <time>2022-08-05T08:51:04Z</time>
      </trkpt>
      <trkpt lat="44.61005" lon="2.9585">
        <ele>1208.7</ele>
        <time>2022-08-05T08:51:05Z</time>
      </trkpt>
      <trkpt lat="44.61009" lon="2.95844">
        <ele>1209.1</ele>
        <time>2022-08-05T08:51:10Z</time>
      </trkpt>
      <trkpt lat="44.6101" lon="2.95843">
        <ele>1209.2</ele>
        <time>2022-08-05T08:51:11Z</time>
      </trkpt>
      <trkpt lat="44.61011" lon="2.95842">
        <ele>1209.3</ele>
        <time>2022-08-05T08:51:12Z</time>
      </trkpt>
      <trkpt lat="44.61012" lon="2.95841">
        <ele>1209.4</ele>
        <time>2022-08-05T08:51:13Z</time>
      </trkpt>
      <trkpt lat="44.61013" lon="2.95838">
        <ele>1209.6</ele>
        <time>2022-08-05T08:51:15Z</time>
      </trkpt>
      <trkpt lat="44.61014" lon="2.95837">
        <ele>1209.7</ele>
        <time>2022-08-05T08:51:16Z</time>
      </trkpt>
      <trkpt lat="44.61015" lon="2.95836">
        <ele>1209.7</ele>
        <time>2022-08-05T08:51:17Z</time>
      </trkpt>
      <trkpt lat="44.61017" lon="2.95833">
        <ele>1210</ele>
        <time>2022-08-05T08:51:20Z</time>
      </trkpt>
      <trkpt lat="44.6102" lon="2.9583">
        <ele>1210.2</ele>
        <time>2022-08-05T08:51:23Z</time>
      </trkpt>
      <trkpt lat="44.61022" lon="2.95828">
        <ele>1210.4</ele>
        <time>2022-08-05T08:51:25Z</time>
      </trkpt>
      <trkpt lat="44.61025" lon="2.95825">
        <ele>1210.6</ele>
        <time>2022-08-05T08:51:28Z</time>
      </trkpt>
      <trkpt lat="44.61026" lon="2.95824">
        <ele>1210.7</ele>
        <time>2022-08-05T08:51:29Z</time>
      </trkpt>
      <trkpt lat="44.61027" lon="2.95822">
        <ele>1210.8</ele>
        <time>2022-08-05T08:51:31Z</time>
      </trkpt>
      <trkpt lat="44.61033" lon="2.95819">
        <ele>1210.9</ele>
        <time>2022-08-05T08:51:36Z</time>
      </trkpt>
      <trkpt lat="44.61035" lon="2.95817">
        <ele>1211.1</ele>
        <time>2022-08-05T08:51:38Z</time>
      </trkpt>
      <trkpt lat="44.61038" lon="2.95815">
        <ele>1211.2</ele>
        <time>2022-08-05T08:51:41Z</time>
      </trkpt>
      <trkpt lat="44.61039" lon="2.95814">
        <ele>1211.3</ele>
        <time>2022-08-05T08:51:42Z</time>
      </trkpt>
      <trkpt lat="44.61042" lon="2.95811">
        <ele>1211.5</ele>
        <time>2022-08-05T08:51:45Z</time>
      </trkpt>
      <trkpt lat="44.61043" lon="2.95809">
        <ele>1211.7</ele>
        <time>2022-08-05T08:51:47Z</time>
      </trkpt>
      <trkpt lat="44.61045" lon="2.95807">
        <ele>1211.9</ele>
        <time>2022-08-05T08:51:49Z</time>
      </trkpt>
      <trkpt lat="44.61046" lon="2.95806">
        <ele>1212</ele>
        <time>2022-08-05T08:51:50Z</time>
      </trkpt>
      <trkpt lat="44.61048" lon="2.95805">
        <ele>1212.1</ele>
        <time>2022-08-05T08:51:52Z</time>
      </trkpt>
      <trkpt lat="44.6105" lon="2.95804">
        <ele>1212.1</ele>
        <time>2022-08-05T08:51:53Z</time>
      </trkpt>
      <trkpt lat="44.61051" lon="2.95804">
        <ele>1212.2</ele>
        <time>2022-08-05T08:51:54Z</time>
      </trkpt>
      <trkpt lat="44.61054" lon="2.95805">
        <ele>1212.1</ele>
        <time>2022-08-05T08:51:56Z</time>
      </trkpt>
      <trkpt lat="44.61056" lon="2.95805">
        <ele>1212</ele>
        <time>2022-08-05T08:51:57Z</time>
      </trkpt>
      <trkpt lat="44.61057" lon="2.95804">
        <ele>1212.1</ele>
        <time>2022-08-05T08:51:58Z</time>
      </trkpt>
      <trkpt lat="44.61059" lon="2.95803">
        <ele>1212.1</ele>
        <time>2022-08-05T08:52:00Z</time>
      </trkpt>
      <trkpt lat="44.6106" lon="2.95803">
        <ele>1212.1</ele>
        <time>2022-08-05T08:52:01Z</time>
      </trkpt>
      <trkpt lat="44.61061" lon="2.95802">
        <ele>1212.3</ele>
        <time>2022-08-05T08:52:03Z</time>
      </trkpt>
      <trkpt lat="44.61065" lon="2.958">
        <ele>1212.3</ele>
        <time>2022-08-05T08:52:06Z</time>
      </trkpt>
      <trkpt lat="44.61068" lon="2.958">
        <ele>1212.3</ele>
        <time>2022-08-05T08:52:08Z</time>
      </trkpt>
      <trkpt lat="44.61069" lon="2.958">
        <ele>1212.2</ele>
        <time>2022-08-05T08:52:09Z</time>
      </trkpt>
      <trkpt lat="44.6107" lon="2.958">
        <ele>1212.2</ele>
        <time>2022-08-05T08:52:10Z</time>
      </trkpt>
      <trkpt lat="44.61071" lon="2.95799">
        <ele>1212.2</ele>
        <time>2022-08-05T08:52:11Z</time>
      </trkpt>
      <trkpt lat="44.61073" lon="2.95799">
        <ele>1212.2</ele>
        <time>2022-08-05T08:52:12Z</time>
      </trkpt>
      <trkpt lat="44.61075" lon="2.95799">
        <ele>1212.1</ele>
        <time>2022-08-05T08:52:14Z</time>
      </trkpt>
      <trkpt lat="44.61079" lon="2.95798">
        <ele>1212.2</ele>
        <time>2022-08-05T08:52:17Z</time>
      </trkpt>
      <trkpt lat="44.6108" lon="2.95799">
        <ele>1212.1</ele>
        <time>2022-08-05T08:52:18Z</time>
      </trkpt>
      <trkpt lat="44.61082" lon="2.95798">
        <ele>1212.1</ele>
        <time>2022-08-05T08:52:20Z</time>
      </trkpt>
      <trkpt lat="44.61084" lon="2.95798">
        <ele>1212</ele>
        <time>2022-08-05T08:52:21Z</time>
      </trkpt>
      <trkpt lat="44.61087" lon="2.95798">
        <ele>1211.9</ele>
        <time>2022-08-05T08:52:24Z</time>
      </trkpt>
      <trkpt lat="44.61094" lon="2.95794">
        <ele>1212.1</ele>
        <time>2022-08-05T08:52:32Z</time>
      </trkpt>
      <trkpt lat="44.61094" lon="2.95794">
        <ele>1212.2</ele>
        <time>2022-08-05T08:52:33Z</time>
      </trkpt>
      <trkpt lat="44.61094" lon="2.95792">
        <ele>1212.4</ele>
        <time>2022-08-05T08:52:37Z</time>
      </trkpt>
      <trkpt lat="44.61093" lon="2.95791">
        <ele>1212.5</ele>
        <time>2022-08-05T08:52:43Z</time>
      </trkpt>
      <trkpt lat="44.61093" lon="2.95791">
        <ele>1212.5</ele>
        <time>2022-08-05T08:52:44Z</time>
      </trkpt>
      <trkpt lat="44.61093" lon="2.95791">
        <ele>1212.5</ele>
        <time>2022-08-05T08:52:45Z</time>
      </trkpt>
      <trkpt lat="44.61093" lon="2.95791">
        <ele>1212.5</ele>
        <time>2022-08-05T08:52:48Z</time>
      </trkpt>
      <trkpt lat="44.61093" lon="2.95791">
        <ele>1212.6</ele>
        <time>2022-08-05T08:53:03Z</time>
      </trkpt>
      <trkpt lat="44.61092" lon="2.95791">
        <ele>1212.6</ele>
        <time>2022-08-05T08:53:05Z</time>
      </trkpt>
      <trkpt lat="44.61092" lon="2.95791">
        <ele>1212.6</ele>
        <time>2022-08-05T08:53:07Z</time>
      </trkpt>
      <trkpt lat="44.61092" lon="2.95791">
        <ele>1212.6</ele>
        <time>2022-08-05T08:53:08Z</time>
      </trkpt>
      <trkpt lat="44.61092" lon="2.95791">
        <ele>1212.6</ele>
        <time>2022-08-05T08:53:09Z</time>
      </trkpt>
      <trkpt lat="44.61092" lon="2.95791">
        <ele>1212.6</ele>
        <time>2022-08-05T08:53:10Z</time>
      </trkpt>
      <trkpt lat="44.61092" lon="2.95791">
        <ele>1212.6</ele>
        <time>2022-08-05T08:53:11Z</time>
      </trkpt>
      <trkpt lat="44.61092" lon="2.95791">
        <ele>1212.6</ele>
        <time>2022-08-05T08:53:12Z</time>
      </trkpt>
      <trkpt lat="44.61092" lon="2.95791">
        <ele>1212.6</ele>
        <time>2022-08-05T08:53:13Z</time>
      </trkpt>
      <trkpt lat="44.61092" lon="2.95791">
        <ele>1212.6</ele>
        <time>2022-08-05T08:53:15Z</time>
      </trkpt>
      <trkpt lat="44.61092" lon="2.95791">
        <ele>1212.6</ele>
        <time>2022-08-05T08:53:17Z</time>
      </trkpt>
      <trkpt lat="44.61095" lon="2.95784">
        <ele>1213.3</ele>
        <time>2022-08-05T08:53:21Z</time>
      </trkpt>
      <trkpt lat="44.61098" lon="2.95778">
        <ele>1213.9</ele>
        <time>2022-08-05T08:53:24Z</time>
      </trkpt>
      <trkpt lat="44.61098" lon="2.95776">
        <ele>1214</ele>
        <time>2022-08-05T08:53:25Z</time>
      </trkpt>
      <trkpt lat="44.611" lon="2.95772">
        <ele>1214</ele>
        <time>2022-08-05T08:53:27Z</time>
      </trkpt>
      <trkpt lat="44.611" lon="2.95767">
        <ele>1214.2</ele>
        <time>2022-08-05T08:53:30Z</time>
      </trkpt>
      <trkpt lat="44.611" lon="2.95765">
        <ele>1214.3</ele>
        <time>2022-08-05T08:53:31Z</time>
      </trkpt>
      <trkpt lat="44.611" lon="2.95764">
        <ele>1214.3</ele>
        <time>2022-08-05T08:53:32Z</time>
      </trkpt>
      <trkpt lat="44.611" lon="2.95762">
        <ele>1214.4</ele>
        <time>2022-08-05T08:53:33Z</time>
      </trkpt>
      <trkpt lat="44.611" lon="2.9576">
        <ele>1214.5</ele>
        <time>2022-08-05T08:53:34Z</time>
      </trkpt>
      <trkpt lat="44.611" lon="2.95759">
        <ele>1214.5</ele>
        <time>2022-08-05T08:53:35Z</time>
      </trkpt>
      <trkpt lat="44.611" lon="2.95756">
        <ele>1214.6</ele>
        <time>2022-08-05T08:53:37Z</time>
      </trkpt>
      <trkpt lat="44.611" lon="2.95752">
        <ele>1214.7</ele>
        <time>2022-08-05T08:53:39Z</time>
      </trkpt>
      <trkpt lat="44.611" lon="2.95751">
        <ele>1214.8</ele>
        <time>2022-08-05T08:53:40Z</time>
      </trkpt>
      <trkpt lat="44.611" lon="2.95749">
        <ele>1214.8</ele>
        <time>2022-08-05T08:53:41Z</time>
      </trkpt>
      <trkpt lat="44.611" lon="2.95748">
        <ele>1214.9</ele>
        <time>2022-08-05T08:53:42Z</time>
      </trkpt>
      <trkpt lat="44.611" lon="2.95746">
        <ele>1214.9</ele>
        <time>2022-08-05T08:53:43Z</time>
      </trkpt>
      <trkpt lat="44.611" lon="2.95744">
        <ele>1215</ele>
        <time>2022-08-05T08:53:44Z</time>
      </trkpt>
      <trkpt lat="44.611" lon="2.95741">
        <ele>1215.1</ele>
        <time>2022-08-05T08:53:46Z</time>
      </trkpt>
      <trkpt lat="44.61102" lon="2.95726">
        <ele>1215.5</ele>
        <time>2022-08-05T08:53:55Z</time>
      </trkpt>
      <trkpt lat="44.61103" lon="2.95722">
        <ele>1215.6</ele>
        <time>2022-08-05T08:53:57Z</time>
      </trkpt>
      <trkpt lat="44.61105" lon="2.95716">
        <ele>1215.6</ele>
        <time>2022-08-05T08:54:01Z</time>
      </trkpt>
      <trkpt lat="44.61105" lon="2.95712">
        <ele>1215.7</ele>
        <time>2022-08-05T08:54:03Z</time>
      </trkpt>
      <trkpt lat="44.61106" lon="2.95711">
        <ele>1215.7</ele>
        <time>2022-08-05T08:54:04Z</time>
      </trkpt>
      <trkpt lat="44.61107" lon="2.95706">
        <ele>1215.8</ele>
        <time>2022-08-05T08:54:07Z</time>
      </trkpt>
      <trkpt lat="44.61108" lon="2.95703">
        <ele>1215.8</ele>
        <time>2022-08-05T08:54:09Z</time>
      </trkpt>
      <trkpt lat="44.6111" lon="2.957">
        <ele>1215.9</ele>
        <time>2022-08-05T08:54:11Z</time>
      </trkpt>
      <trkpt lat="44.61112" lon="2.95698">
        <ele>1215.9</ele>
        <time>2022-08-05T08:54:13Z</time>
      </trkpt>
      <trkpt lat="44.61114" lon="2.95696">
        <ele>1216</ele>
        <time>2022-08-05T08:54:15Z</time>
      </trkpt>
      <trkpt lat="44.61114" lon="2.95695">
        <ele>1216.1</ele>
        <time>2022-08-05T08:54:16Z</time>
      </trkpt>
      <trkpt lat="44.61115" lon="2.95694">
        <ele>1216.2</ele>
        <time>2022-08-05T08:54:17Z</time>
      </trkpt>
      <trkpt lat="44.61116" lon="2.95693">
        <ele>1216.2</ele>
        <time>2022-08-05T08:54:18Z</time>
      </trkpt>
      <trkpt lat="44.61117" lon="2.95692">
        <ele>1216.3</ele>
        <time>2022-08-05T08:54:19Z</time>
      </trkpt>
      <trkpt lat="44.61119" lon="2.95691">
        <ele>1216.4</ele>
        <time>2022-08-05T08:54:20Z</time>
      </trkpt>
      <trkpt lat="44.6112" lon="2.9569">
        <ele>1216.4</ele>
        <time>2022-08-05T08:54:21Z</time>
      </trkpt>
      <trkpt lat="44.61122" lon="2.95688">
        <ele>1216.6</ele>
        <time>2022-08-05T08:54:23Z</time>
      </trkpt>
      <trkpt lat="44.61124" lon="2.95687">
        <ele>1216.7</ele>
        <time>2022-08-05T08:54:25Z</time>
      </trkpt>
      <trkpt lat="44.61131" lon="2.95685">
        <ele>1217</ele>
        <time>2022-08-05T08:54:31Z</time>
      </trkpt>
      <trkpt lat="44.61136" lon="2.95682">
        <ele>1217.4</ele>
        <time>2022-08-05T08:54:36Z</time>
      </trkpt>
      <trkpt lat="44.61138" lon="2.95682">
        <ele>1217.4</ele>
        <time>2022-08-05T08:54:38Z</time>
      </trkpt>
      <trkpt lat="44.61141" lon="2.95681">
        <ele>1217.5</ele>
        <time>2022-08-05T08:54:40Z</time>
      </trkpt>
      <trkpt lat="44.61142" lon="2.9568">
        <ele>1217.6</ele>
        <time>2022-08-05T08:54:42Z</time>
      </trkpt>
      <trkpt lat="44.61142" lon="2.9568">
        <ele>1217.6</ele>
        <time>2022-08-05T08:54:43Z</time>
      </trkpt>
      <trkpt lat="44.61142" lon="2.9568">
        <ele>1217.6</ele>
        <time>2022-08-05T08:54:44Z</time>
      </trkpt>
      <trkpt lat="44.61142" lon="2.95679">
        <ele>1217.7</ele>
        <time>2022-08-05T08:54:45Z</time>
      </trkpt>
      <trkpt lat="44.61143" lon="2.95678">
        <ele>1217.8</ele>
        <time>2022-08-05T08:54:46Z</time>
      </trkpt>
      <trkpt lat="44.61144" lon="2.95678">
        <ele>1217.8</ele>
        <time>2022-08-05T08:54:47Z</time>
      </trkpt>
      <trkpt lat="44.61145" lon="2.95677">
        <ele>1217.9</ele>
        <time>2022-08-05T08:54:49Z</time>
      </trkpt>
      <trkpt lat="44.61147" lon="2.95677">
        <ele>1218</ele>
        <time>2022-08-05T08:54:50Z</time>
      </trkpt>
      <trkpt lat="44.6115" lon="2.95676">
        <ele>1218.2</ele>
        <time>2022-08-05T08:54:52Z</time>
      </trkpt>
      <trkpt lat="44.61153" lon="2.95674">
        <ele>1218.5</ele>
        <time>2022-08-05T08:54:56Z</time>
      </trkpt>
      <trkpt lat="44.61154" lon="2.95673">
        <ele>1218.6</ele>
        <time>2022-08-05T08:54:57Z</time>
      </trkpt>
      <trkpt lat="44.61155" lon="2.95673">
        <ele>1218.7</ele>
        <time>2022-08-05T08:54:58Z</time>
      </trkpt>
      <trkpt lat="44.6116" lon="2.95673">
        <ele>1218.9</ele>
        <time>2022-08-05T08:55:04Z</time>
      </trkpt>
      <trkpt lat="44.61166" lon="2.95671">
        <ele>1219.5</ele>
        <time>2022-08-05T08:55:11Z</time>
      </trkpt>
      <trkpt lat="44.61171" lon="2.95669">
        <ele>1219.9</ele>
        <time>2022-08-05T08:55:15Z</time>
      </trkpt>
      <trkpt lat="44.61174" lon="2.9567">
        <ele>1220</ele>
        <time>2022-08-05T08:55:19Z</time>
      </trkpt>
      <trkpt lat="44.61175" lon="2.95669">
        <ele>1220</ele>
        <time>2022-08-05T08:55:20Z</time>
      </trkpt>
      <trkpt lat="44.61175" lon="2.95669">
        <ele>1220.1</ele>
        <time>2022-08-05T08:55:21Z</time>
      </trkpt>
      <trkpt lat="44.61177" lon="2.95667">
        <ele>1220.3</ele>
        <time>2022-08-05T08:55:23Z</time>
      </trkpt>
      <trkpt lat="44.61179" lon="2.95666">
        <ele>1220.5</ele>
        <time>2022-08-05T08:55:25Z</time>
      </trkpt>
      <trkpt lat="44.61184" lon="2.95664">
        <ele>1220.8</ele>
        <time>2022-08-05T08:55:29Z</time>
      </trkpt>
      <trkpt lat="44.61187" lon="2.95662">
        <ele>1221.1</ele>
        <time>2022-08-05T08:55:32Z</time>
      </trkpt>
      <trkpt lat="44.61189" lon="2.95663">
        <ele>1221.1</ele>
        <time>2022-08-05T08:55:33Z</time>
      </trkpt>
      <trkpt lat="44.61191" lon="2.95662">
        <ele>1221.2</ele>
        <time>2022-08-05T08:55:35Z</time>
      </trkpt>
      <trkpt lat="44.61192" lon="2.95662">
        <ele>1221.3</ele>
        <time>2022-08-05T08:55:36Z</time>
      </trkpt>
      <trkpt lat="44.61201" lon="2.95659">
        <ele>1221.7</ele>
        <time>2022-08-05T08:55:44Z</time>
      </trkpt>
      <trkpt lat="44.61202" lon="2.95658">
        <ele>1221.8</ele>
        <time>2022-08-05T08:55:46Z</time>
      </trkpt>
      <trkpt lat="44.61212" lon="2.95657">
        <ele>1222.1</ele>
        <time>2022-08-05T08:55:53Z</time>
      </trkpt>
      <trkpt lat="44.61223" lon="2.95657">
        <ele>1222.4</ele>
        <time>2022-08-05T08:56:00Z</time>
      </trkpt>
      <trkpt lat="44.6123" lon="2.95656">
        <ele>1222.5</ele>
        <time>2022-08-05T08:56:06Z</time>
      </trkpt>
      <trkpt lat="44.61231" lon="2.95656">
        <ele>1222.6</ele>
        <time>2022-08-05T08:56:07Z</time>
      </trkpt>
      <trkpt lat="44.61232" lon="2.95656">
        <ele>1222.6</ele>
        <time>2022-08-05T08:56:08Z</time>
      </trkpt>
      <trkpt lat="44.61234" lon="2.95656">
        <ele>1222.6</ele>
        <time>2022-08-05T08:56:09Z</time>
      </trkpt>
      <trkpt lat="44.61235" lon="2.95656">
        <ele>1222.7</ele>
        <time>2022-08-05T08:56:10Z</time>
      </trkpt>
      <trkpt lat="44.61237" lon="2.95655">
        <ele>1222.7</ele>
        <time>2022-08-05T08:56:12Z</time>
      </trkpt>
      <trkpt lat="44.61238" lon="2.95655">
        <ele>1222.7</ele>
        <time>2022-08-05T08:56:13Z</time>
      </trkpt>
      <trkpt lat="44.61243" lon="2.95655">
        <ele>1222.8</ele>
        <time>2022-08-05T08:56:17Z</time>
      </trkpt>
      <trkpt lat="44.61245" lon="2.95655">
        <ele>1222.9</ele>
        <time>2022-08-05T08:56:19Z</time>
      </trkpt>
      <trkpt lat="44.61245" lon="2.95655">
        <ele>1222.9</ele>
        <time>2022-08-05T08:56:20Z</time>
      </trkpt>
      <trkpt lat="44.61249" lon="2.95653">
        <ele>1223</ele>
        <time>2022-08-05T08:56:23Z</time>
      </trkpt>
      <trkpt lat="44.61251" lon="2.95653">
        <ele>1223.1</ele>
        <time>2022-08-05T08:56:26Z</time>
      </trkpt>
      <trkpt lat="44.61253" lon="2.95653">
        <ele>1223.1</ele>
        <time>2022-08-05T08:56:27Z</time>
      </trkpt>
      <trkpt lat="44.61253" lon="2.95652">
        <ele>1223.2</ele>
        <time>2022-08-05T08:56:28Z</time>
      </trkpt>
      <trkpt lat="44.61255" lon="2.95652">
        <ele>1223.2</ele>
        <time>2022-08-05T08:56:29Z</time>
      </trkpt>
      <trkpt lat="44.61258" lon="2.95652">
        <ele>1223.4</ele>
        <time>2022-08-05T08:56:32Z</time>
      </trkpt>
      <trkpt lat="44.61266" lon="2.9565">
        <ele>1223.8</ele>
        <time>2022-08-05T08:56:39Z</time>
      </trkpt>
      <trkpt lat="44.61267" lon="2.9565">
        <ele>1223.8</ele>
        <time>2022-08-05T08:56:40Z</time>
      </trkpt>
      <trkpt lat="44.61274" lon="2.95649">
        <ele>1224.2</ele>
        <time>2022-08-05T08:56:46Z</time>
      </trkpt>
      <trkpt lat="44.61279" lon="2.95648">
        <ele>1224.4</ele>
        <time>2022-08-05T08:56:50Z</time>
      </trkpt>
      <trkpt lat="44.6128" lon="2.95649">
        <ele>1224.5</ele>
        <time>2022-08-05T08:56:53Z</time>
      </trkpt>
      <trkpt lat="44.61281" lon="2.9565">
        <ele>1224.6</ele>
        <time>2022-08-05T08:56:56Z</time>
      </trkpt>
      <trkpt lat="44.61281" lon="2.9565">
        <ele>1224.6</ele>
        <time>2022-08-05T08:56:58Z</time>
      </trkpt>
      <trkpt lat="44.61283" lon="2.95646">
        <ele>1224.6</ele>
        <time>2022-08-05T08:57:03Z</time>
      </trkpt>
      <trkpt lat="44.61284" lon="2.95645">
        <ele>1224.6</ele>
        <time>2022-08-05T08:57:04Z</time>
      </trkpt>
      <trkpt lat="44.61284" lon="2.95645">
        <ele>1224.7</ele>
        <time>2022-08-05T08:57:05Z</time>
      </trkpt>
      <trkpt lat="44.61285" lon="2.95644">
        <ele>1224.7</ele>
        <time>2022-08-05T08:57:06Z</time>
      </trkpt>
      <trkpt lat="44.61286" lon="2.95643">
        <ele>1224.7</ele>
        <time>2022-08-05T08:57:07Z</time>
      </trkpt>
      <trkpt lat="44.61289" lon="2.95642">
        <ele>1224.9</ele>
        <time>2022-08-05T08:57:09Z</time>
      </trkpt>
      <trkpt lat="44.61293" lon="2.95636">
        <ele>1225.1</ele>
        <time>2022-08-05T08:57:14Z</time>
      </trkpt>
      <trkpt lat="44.61297" lon="2.95634">
        <ele>1225.2</ele>
        <time>2022-08-05T08:57:17Z</time>
      </trkpt>
      <trkpt lat="44.613" lon="2.95631">
        <ele>1225.4</ele>
        <time>2022-08-05T08:57:20Z</time>
      </trkpt>
      <trkpt lat="44.61301" lon="2.9563">
        <ele>1225.4</ele>
        <time>2022-08-05T08:57:21Z</time>
      </trkpt>
      <trkpt lat="44.61303" lon="2.95629">
        <ele>1225.5</ele>
        <time>2022-08-05T08:57:23Z</time>
      </trkpt>
      <trkpt lat="44.61306" lon="2.95627">
        <ele>1225.6</ele>
        <time>2022-08-05T08:57:26Z</time>
      </trkpt>
      <trkpt lat="44.61307" lon="2.95626">
        <ele>1225.7</ele>
        <time>2022-08-05T08:57:27Z</time>
      </trkpt>
      <trkpt lat="44.61309" lon="2.95624">
        <ele>1225.9</ele>
        <time>2022-08-05T08:57:29Z</time>
      </trkpt>
      <trkpt lat="44.61313" lon="2.95621">
        <ele>1226.3</ele>
        <time>2022-08-05T08:57:33Z</time>
      </trkpt>
      <trkpt lat="44.61317" lon="2.9562">
        <ele>1226.6</ele>
        <time>2022-08-05T08:57:36Z</time>
      </trkpt>
      <trkpt lat="44.6132" lon="2.95617">
        <ele>1226.9</ele>
        <time>2022-08-05T08:57:39Z</time>
      </trkpt>
      <trkpt lat="44.61327" lon="2.95613">
        <ele>1227.4</ele>
        <time>2022-08-05T08:57:46Z</time>
      </trkpt>
      <trkpt lat="44.61328" lon="2.95612">
        <ele>1227.4</ele>
        <time>2022-08-05T08:57:47Z</time>
      </trkpt>
      <trkpt lat="44.61335" lon="2.95609">
        <ele>1227.9</ele>
        <time>2022-08-05T08:57:53Z</time>
      </trkpt>
      <trkpt lat="44.61336" lon="2.95608">
        <ele>1227.9</ele>
        <time>2022-08-05T08:57:54Z</time>
      </trkpt>
      <trkpt lat="44.61336" lon="2.95608">
        <ele>1228</ele>
        <time>2022-08-05T08:57:56Z</time>
      </trkpt>
      <trkpt lat="44.61336" lon="2.95608">
        <ele>1228</ele>
        <time>2022-08-05T08:57:57Z</time>
      </trkpt>
      <trkpt lat="44.61336" lon="2.95608">
        <ele>1228</ele>
        <time>2022-08-05T08:57:58Z</time>
      </trkpt>
      <trkpt lat="44.61336" lon="2.95608">
        <ele>1228</ele>
        <time>2022-08-05T08:58:00Z</time>
      </trkpt>
      <trkpt lat="44.61335" lon="2.95608">
        <ele>1227.9</ele>
        <time>2022-08-05T08:58:02Z</time>
      </trkpt>
      <trkpt lat="44.61336" lon="2.95605">
        <ele>1227.5</ele>
        <time>2022-08-05T08:58:04Z</time>
      </trkpt>
      <trkpt lat="44.6134" lon="2.95604">
        <ele>1227.9</ele>
        <time>2022-08-05T08:58:07Z</time>
      </trkpt>
      <trkpt lat="44.61348" lon="2.95603">
        <ele>1228.6</ele>
        <time>2022-08-05T08:58:12Z</time>
      </trkpt>
      <trkpt lat="44.6135" lon="2.95603">
        <ele>1228.7</ele>
        <time>2022-08-05T08:58:13Z</time>
      </trkpt>
      <trkpt lat="44.61354" lon="2.95602">
        <ele>1229</ele>
        <time>2022-08-05T08:58:16Z</time>
      </trkpt>
      <trkpt lat="44.61354" lon="2.95601">
        <ele>1228.9</ele>
        <time>2022-08-05T08:58:17Z</time>
      </trkpt>
      <trkpt lat="44.61356" lon="2.956">
        <ele>1228.9</ele>
        <time>2022-08-05T08:58:19Z</time>
      </trkpt>
      <trkpt lat="44.61359" lon="2.956">
        <ele>1229.2</ele>
        <time>2022-08-05T08:58:21Z</time>
      </trkpt>
      <trkpt lat="44.61361" lon="2.95598">
        <ele>1229</ele>
        <time>2022-08-05T08:58:23Z</time>
      </trkpt>
      <trkpt lat="44.61361" lon="2.95596">
        <ele>1228.8</ele>
        <time>2022-08-05T08:58:24Z</time>
      </trkpt>
      <trkpt lat="44.61362" lon="2.95593">
        <ele>1228.4</ele>
        <time>2022-08-05T08:58:26Z</time>
      </trkpt>
      <trkpt lat="44.61365" lon="2.95592">
        <ele>1228.4</ele>
        <time>2022-08-05T08:58:28Z</time>
      </trkpt>
      <trkpt lat="44.61366" lon="2.95593">
        <ele>1228.5</ele>
        <time>2022-08-05T08:58:30Z</time>
      </trkpt>
      <trkpt lat="44.61366" lon="2.95593">
        <ele>1228.5</ele>
        <time>2022-08-05T08:58:31Z</time>
      </trkpt>
      <trkpt lat="44.61366" lon="2.95593">
        <ele>1228.5</ele>
        <time>2022-08-05T08:58:33Z</time>
      </trkpt>
      <trkpt lat="44.61366" lon="2.95592">
        <ele>1228.4</ele>
        <time>2022-08-05T08:58:34Z</time>
      </trkpt>
      <trkpt lat="44.61366" lon="2.95591">
        <ele>1228.3</ele>
        <time>2022-08-05T08:58:37Z</time>
      </trkpt>
      <trkpt lat="44.61366" lon="2.95591">
        <ele>1228.2</ele>
        <time>2022-08-05T08:58:38Z</time>
      </trkpt>
      <trkpt lat="44.61365" lon="2.9559">
        <ele>1228.2</ele>
        <time>2022-08-05T08:58:39Z</time>
      </trkpt>
      <trkpt lat="44.61366" lon="2.9559">
        <ele>1228.1</ele>
        <time>2022-08-05T08:58:40Z</time>
      </trkpt>
      <trkpt lat="44.61366" lon="2.9559">
        <ele>1228.1</ele>
        <time>2022-08-05T08:58:42Z</time>
      </trkpt>
      <trkpt lat="44.61366" lon="2.9559">
        <ele>1228.1</ele>
        <time>2022-08-05T08:58:44Z</time>
      </trkpt>
      <trkpt lat="44.61366" lon="2.9559">
        <ele>1228.1</ele>
        <time>2022-08-05T08:58:49Z</time>
      </trkpt>
      <trkpt lat="44.61369" lon="2.95588">
        <ele>1227.9</ele>
        <time>2022-08-05T08:58:52Z</time>
      </trkpt>
      <trkpt lat="44.61374" lon="2.95586">
        <ele>1227.8</ele>
        <time>2022-08-05T08:58:55Z</time>
      </trkpt>
      <trkpt lat="44.61376" lon="2.95585">
        <ele>1227.8</ele>
        <time>2022-08-05T08:58:56Z</time>
      </trkpt>
      <trkpt lat="44.61378" lon="2.95585">
        <ele>1227.8</ele>
        <time>2022-08-05T08:58:57Z</time>
      </trkpt>
      <trkpt lat="44.61379" lon="2.95584">
        <ele>1227.7</ele>
        <time>2022-08-05T08:58:58Z</time>
      </trkpt>
      <trkpt lat="44.61381" lon="2.95583">
        <ele>1227.7</ele>
        <time>2022-08-05T08:58:59Z</time>
      </trkpt>
      <trkpt lat="44.61384" lon="2.95583">
        <ele>1227.7</ele>
        <time>2022-08-05T08:59:01Z</time>
      </trkpt>
      <trkpt lat="44.61388" lon="2.95582">
        <ele>1227.8</ele>
        <time>2022-08-05T08:59:03Z</time>
      </trkpt>
      <trkpt lat="44.6139" lon="2.95582">
        <ele>1227.9</ele>
        <time>2022-08-05T08:59:04Z</time>
      </trkpt>
      <trkpt lat="44.61393" lon="2.95582">
        <ele>1227.8</ele>
        <time>2022-08-05T08:59:07Z</time>
      </trkpt>
      <trkpt lat="44.61395" lon="2.95581">
        <ele>1227.6</ele>
        <time>2022-08-05T08:59:09Z</time>
      </trkpt>
      <trkpt lat="44.61396" lon="2.9558">
        <ele>1227.5</ele>
        <time>2022-08-05T08:59:10Z</time>
      </trkpt>
      <trkpt lat="44.61398" lon="2.95579">
        <ele>1227.4</ele>
        <time>2022-08-05T08:59:11Z</time>
      </trkpt>
      <trkpt lat="44.61399" lon="2.95578">
        <ele>1227.4</ele>
        <time>2022-08-05T08:59:12Z</time>
      </trkpt>
      <trkpt lat="44.61401" lon="2.95578">
        <ele>1227.3</ele>
        <time>2022-08-05T08:59:13Z</time>
      </trkpt>
      <trkpt lat="44.61402" lon="2.95578">
        <ele>1227.3</ele>
        <time>2022-08-05T08:59:14Z</time>
      </trkpt>
      <trkpt lat="44.61403" lon="2.95577">
        <ele>1227.2</ele>
        <time>2022-08-05T08:59:15Z</time>
      </trkpt>
      <trkpt lat="44.61404" lon="2.95575">
        <ele>1227</ele>
        <time>2022-08-05T08:59:16Z</time>
      </trkpt>
      <trkpt lat="44.61405" lon="2.95574">
        <ele>1226.8</ele>
        <time>2022-08-05T08:59:17Z</time>
      </trkpt>
      <trkpt lat="44.61409" lon="2.95572">
        <ele>1226.7</ele>
        <time>2022-08-05T08:59:20Z</time>
      </trkpt>
      <trkpt lat="44.6142" lon="2.95567">
        <ele>1226.4</ele>
        <time>2022-08-05T08:59:28Z</time>
      </trkpt>
      <trkpt lat="44.61421" lon="2.95567">
        <ele>1226.6</ele>
        <time>2022-08-05T08:59:29Z</time>
      </trkpt>
      <trkpt lat="44.61431" lon="2.95564">
        <ele>1227.1</ele>
        <time>2022-08-05T08:59:36Z</time>
      </trkpt>
      <trkpt lat="44.61433" lon="2.95564">
        <ele>1227.3</ele>
        <time>2022-08-05T08:59:38Z</time>
      </trkpt>
      <trkpt lat="44.61439" lon="2.95564">
        <ele>1227.7</ele>
        <time>2022-08-05T08:59:42Z</time>
      </trkpt>
      <trkpt lat="44.61447" lon="2.9556">
        <ele>1227.7</ele>
        <time>2022-08-05T08:59:49Z</time>
      </trkpt>
      <trkpt lat="44.61459" lon="2.95559">
        <ele>1228.5</ele>
        <time>2022-08-05T08:59:57Z</time>
      </trkpt>
      <trkpt lat="44.61461" lon="2.95554">
        <ele>1228</ele>
        <time>2022-08-05T09:00:01Z</time>
      </trkpt>
      <trkpt lat="44.61463" lon="2.95553">
        <ele>1228.1</ele>
        <time>2022-08-05T09:00:03Z</time>
      </trkpt>
      <trkpt lat="44.61469" lon="2.95551">
        <ele>1228.3</ele>
        <time>2022-08-05T09:00:08Z</time>
      </trkpt>
      <trkpt lat="44.61472" lon="2.95551">
        <ele>1228.4</ele>
        <time>2022-08-05T09:00:10Z</time>
      </trkpt>
      <trkpt lat="44.61481" lon="2.95551">
        <ele>1229.4</ele>
        <time>2022-08-05T09:00:16Z</time>
      </trkpt>
      <trkpt lat="44.61482" lon="2.95551">
        <ele>1229.5</ele>
        <time>2022-08-05T09:00:17Z</time>
      </trkpt>
      <trkpt lat="44.61483" lon="2.9555">
        <ele>1229.5</ele>
        <time>2022-08-05T09:00:18Z</time>
      </trkpt>
      <trkpt lat="44.61488" lon="2.95547">
        <ele>1229.6</ele>
        <time>2022-08-05T09:00:22Z</time>
      </trkpt>
      <trkpt lat="44.61494" lon="2.95542">
        <ele>1229.5</ele>
        <time>2022-08-05T09:00:28Z</time>
      </trkpt>
      <trkpt lat="44.61494" lon="2.95541">
        <ele>1229.4</ele>
        <time>2022-08-05T09:00:29Z</time>
      </trkpt>
      <trkpt lat="44.61496" lon="2.95539">
        <ele>1229.2</ele>
        <time>2022-08-05T09:00:31Z</time>
      </trkpt>
      <trkpt lat="44.61498" lon="2.95538">
        <ele>1229.3</ele>
        <time>2022-08-05T09:00:33Z</time>
      </trkpt>
      <trkpt lat="44.61499" lon="2.95537">
        <ele>1229.3</ele>
        <time>2022-08-05T09:00:34Z</time>
      </trkpt>
      <trkpt lat="44.61508" lon="2.95531">
        <ele>1229</ele>
        <time>2022-08-05T09:00:41Z</time>
      </trkpt>
      <trkpt lat="44.6151" lon="2.95532">
        <ele>1229.2</ele>
        <time>2022-08-05T09:00:42Z</time>
      </trkpt>
      <trkpt lat="44.61516" lon="2.9553">
        <ele>1229.4</ele>
        <time>2022-08-05T09:00:47Z</time>
      </trkpt>
      <trkpt lat="44.61522" lon="2.95526">
        <ele>1229.4</ele>
        <time>2022-08-05T09:00:53Z</time>
      </trkpt>
      <trkpt lat="44.61523" lon="2.95525">
        <ele>1229.4</ele>
        <time>2022-08-05T09:00:54Z</time>
      </trkpt>
      <trkpt lat="44.61524" lon="2.95525">
        <ele>1229.5</ele>
        <time>2022-08-05T09:00:55Z</time>
      </trkpt>
      <trkpt lat="44.61531" lon="2.95523">
        <ele>1229.9</ele>
        <time>2022-08-05T09:01:00Z</time>
      </trkpt>
      <trkpt lat="44.61537" lon="2.95519">
        <ele>1230.1</ele>
        <time>2022-08-05T09:01:06Z</time>
      </trkpt>
      <trkpt lat="44.61539" lon="2.95518">
        <ele>1230.1</ele>
        <time>2022-08-05T09:01:08Z</time>
      </trkpt>
      <trkpt lat="44.61541" lon="2.95517">
        <ele>1230.2</ele>
        <time>2022-08-05T09:01:10Z</time>
      </trkpt>
      <trkpt lat="44.61548" lon="2.95514">
        <ele>1230.5</ele>
        <time>2022-08-05T09:01:16Z</time>
      </trkpt>
      <trkpt lat="44.61549" lon="2.95514">
        <ele>1230.5</ele>
        <time>2022-08-05T09:01:17Z</time>
      </trkpt>
      <trkpt lat="44.6155" lon="2.95515">
        <ele>1230.6</ele>
        <time>2022-08-05T09:01:19Z</time>
      </trkpt>
      <trkpt lat="44.61549" lon="2.95513">
        <ele>1230.5</ele>
        <time>2022-08-05T09:01:21Z</time>
      </trkpt>
      <trkpt lat="44.6155" lon="2.95511">
        <ele>1230.4</ele>
        <time>2022-08-05T09:01:23Z</time>
      </trkpt>
      <trkpt lat="44.61557" lon="2.95509">
        <ele>1230.7</ele>
        <time>2022-08-05T09:01:29Z</time>
      </trkpt>
      <trkpt lat="44.6156" lon="2.95505">
        <ele>1230.7</ele>
        <time>2022-08-05T09:01:33Z</time>
      </trkpt>
      <trkpt lat="44.61565" lon="2.95505">
        <ele>1231</ele>
        <time>2022-08-05T09:01:36Z</time>
      </trkpt>
      <trkpt lat="44.61573" lon="2.95501">
        <ele>1231.3</ele>
        <time>2022-08-05T09:01:43Z</time>
      </trkpt>
      <trkpt lat="44.61577" lon="2.95498">
        <ele>1231.4</ele>
        <time>2022-08-05T09:01:47Z</time>
      </trkpt>
      <trkpt lat="44.61583" lon="2.95495">
        <ele>1231.6</ele>
        <time>2022-08-05T09:01:51Z</time>
      </trkpt>
      <trkpt lat="44.61591" lon="2.95491">
        <ele>1232.2</ele>
        <time>2022-08-05T09:01:58Z</time>
      </trkpt>
      <trkpt lat="44.61594" lon="2.95489">
        <ele>1232.3</ele>
        <time>2022-08-05T09:02:01Z</time>
      </trkpt>
      <trkpt lat="44.61596" lon="2.95485">
        <ele>1232.3</ele>
        <time>2022-08-05T09:02:04Z</time>
      </trkpt>
      <trkpt lat="44.616" lon="2.95482">
        <ele>1232.5</ele>
        <time>2022-08-05T09:02:08Z</time>
      </trkpt>
      <trkpt lat="44.61602" lon="2.95482">
        <ele>1232.7</ele>
        <time>2022-08-05T09:02:09Z</time>
      </trkpt>
      <trkpt lat="44.61606" lon="2.95481">
        <ele>1233</ele>
        <time>2022-08-05T09:02:12Z</time>
      </trkpt>
      <trkpt lat="44.61606" lon="2.9548">
        <ele>1233.1</ele>
        <time>2022-08-05T09:02:13Z</time>
      </trkpt>
      <trkpt lat="44.61608" lon="2.95479">
        <ele>1233.1</ele>
        <time>2022-08-05T09:02:15Z</time>
      </trkpt>
      <trkpt lat="44.6161" lon="2.95478">
        <ele>1233.2</ele>
        <time>2022-08-05T09:02:17Z</time>
      </trkpt>
      <trkpt lat="44.61615" lon="2.95477">
        <ele>1233.5</ele>
        <time>2022-08-05T09:02:20Z</time>
      </trkpt>
      <trkpt lat="44.6162" lon="2.95475">
        <ele>1233.5</ele>
        <time>2022-08-05T09:02:24Z</time>
      </trkpt>
      <trkpt lat="44.61628" lon="2.95471">
        <ele>1233.5</ele>
        <time>2022-08-05T09:02:31Z</time>
      </trkpt>
      <trkpt lat="44.61638" lon="2.95468">
        <ele>1233.5</ele>
        <time>2022-08-05T09:02:39Z</time>
      </trkpt>
      <trkpt lat="44.61643" lon="2.95462">
        <ele>1233</ele>
        <time>2022-08-05T09:02:44Z</time>
      </trkpt>
      <trkpt lat="44.61645" lon="2.95461">
        <ele>1233</ele>
        <time>2022-08-05T09:02:46Z</time>
      </trkpt>
      <trkpt lat="44.61656" lon="2.95456">
        <ele>1232.9</ele>
        <time>2022-08-05T09:02:55Z</time>
      </trkpt>
      <trkpt lat="44.61662" lon="2.95451">
        <ele>1232.6</ele>
        <time>2022-08-05T09:03:01Z</time>
      </trkpt>
      <trkpt lat="44.61672" lon="2.95446">
        <ele>1232.5</ele>
        <time>2022-08-05T09:03:10Z</time>
      </trkpt>
      <trkpt lat="44.61682" lon="2.95442">
        <ele>1232.7</ele>
        <time>2022-08-05T09:03:18Z</time>
      </trkpt>
      <trkpt lat="44.61684" lon="2.95442">
        <ele>1232.7</ele>
        <time>2022-08-05T09:03:19Z</time>
      </trkpt>
      <trkpt lat="44.61691" lon="2.9544">
        <ele>1233</ele>
        <time>2022-08-05T09:03:24Z</time>
      </trkpt>
      <trkpt lat="44.61693" lon="2.95441">
        <ele>1233.2</ele>
        <time>2022-08-05T09:03:25Z</time>
      </trkpt>
      <trkpt lat="44.61694" lon="2.9544">
        <ele>1233.2</ele>
        <time>2022-08-05T09:03:26Z</time>
      </trkpt>
      <trkpt lat="44.61696" lon="2.9544">
        <ele>1233.6</ele>
        <time>2022-08-05T09:03:27Z</time>
      </trkpt>
      <trkpt lat="44.61698" lon="2.9544">
        <ele>1234.2</ele>
        <time>2022-08-05T09:03:28Z</time>
      </trkpt>
      <trkpt lat="44.61699" lon="2.9544">
        <ele>1234.5</ele>
        <time>2022-08-05T09:03:29Z</time>
      </trkpt>
      <trkpt lat="44.617" lon="2.95439">
        <ele>1234.6</ele>
        <time>2022-08-05T09:03:30Z</time>
      </trkpt>
      <trkpt lat="44.61701" lon="2.95438">
        <ele>1234.7</ele>
        <time>2022-08-05T09:03:31Z</time>
      </trkpt>
      <trkpt lat="44.61702" lon="2.95437">
        <ele>1234.9</ele>
        <time>2022-08-05T09:03:32Z</time>
      </trkpt>
      <trkpt lat="44.61703" lon="2.95437">
        <ele>1235.1</ele>
        <time>2022-08-05T09:03:33Z</time>
      </trkpt>
      <trkpt lat="44.61704" lon="2.95436">
        <ele>1235.3</ele>
        <time>2022-08-05T09:03:34Z</time>
      </trkpt>
      <trkpt lat="44.61707" lon="2.95434">
        <ele>1235.6</ele>
        <time>2022-08-05T09:03:37Z</time>
      </trkpt>
      <trkpt lat="44.61713" lon="2.95432">
        <ele>1236.8</ele>
        <time>2022-08-05T09:03:41Z</time>
      </trkpt>
      <trkpt lat="44.61715" lon="2.95429">
        <ele>1236.8</ele>
        <time>2022-08-05T09:03:43Z</time>
      </trkpt>
      <trkpt lat="44.61716" lon="2.95426">
        <ele>1236.5</ele>
        <time>2022-08-05T09:03:45Z</time>
      </trkpt>
      <trkpt lat="44.61717" lon="2.95423">
        <ele>1236.1</ele>
        <time>2022-08-05T09:03:47Z</time>
      </trkpt>
      <trkpt lat="44.61721" lon="2.9542">
        <ele>1236.3</ele>
        <time>2022-08-05T09:03:50Z</time>
      </trkpt>
      <trkpt lat="44.61725" lon="2.95417">
        <ele>1236.7</ele>
        <time>2022-08-05T09:03:53Z</time>
      </trkpt>
      <trkpt lat="44.61725" lon="2.95415">
        <ele>1236.5</ele>
        <time>2022-08-05T09:03:54Z</time>
      </trkpt>
      <trkpt lat="44.61726" lon="2.95413">
        <ele>1236.5</ele>
        <time>2022-08-05T09:03:55Z</time>
      </trkpt>
      <trkpt lat="44.61729" lon="2.9541">
        <ele>1236.6</ele>
        <time>2022-08-05T09:03:58Z</time>
      </trkpt>
      <trkpt lat="44.61731" lon="2.95406">
        <ele>1236.6</ele>
        <time>2022-08-05T09:04:01Z</time>
      </trkpt>
      <trkpt lat="44.61732" lon="2.95404">
        <ele>1236.7</ele>
        <time>2022-08-05T09:04:02Z</time>
      </trkpt>
      <trkpt lat="44.61735" lon="2.95399">
        <ele>1236.8</ele>
        <time>2022-08-05T09:04:06Z</time>
      </trkpt>
      <trkpt lat="44.61737" lon="2.95399">
        <ele>1237</ele>
        <time>2022-08-05T09:04:07Z</time>
      </trkpt>
      <trkpt lat="44.61738" lon="2.95397">
        <ele>1237.1</ele>
        <time>2022-08-05T09:04:08Z</time>
      </trkpt>
      <trkpt lat="44.6174" lon="2.95395">
        <ele>1237.3</ele>
        <time>2022-08-05T09:04:10Z</time>
      </trkpt>
      <trkpt lat="44.61742" lon="2.95393">
        <ele>1237.6</ele>
        <time>2022-08-05T09:04:12Z</time>
      </trkpt>
      <trkpt lat="44.61744" lon="2.95391">
        <ele>1237.7</ele>
        <time>2022-08-05T09:04:14Z</time>
      </trkpt>
      <trkpt lat="44.61746" lon="2.95387">
        <ele>1237.6</ele>
        <time>2022-08-05T09:04:17Z</time>
      </trkpt>
      <trkpt lat="44.61747" lon="2.95386">
        <ele>1237.5</ele>
        <time>2022-08-05T09:04:18Z</time>
      </trkpt>
      <trkpt lat="44.61747" lon="2.95385">
        <ele>1237.5</ele>
        <time>2022-08-05T09:04:19Z</time>
      </trkpt>
      <trkpt lat="44.61748" lon="2.95384">
        <ele>1237.6</ele>
        <time>2022-08-05T09:04:20Z</time>
      </trkpt>
      <trkpt lat="44.61749" lon="2.95383">
        <ele>1237.5</ele>
        <time>2022-08-05T09:04:21Z</time>
      </trkpt>
      <trkpt lat="44.61749" lon="2.95382">
        <ele>1237.4</ele>
        <time>2022-08-05T09:04:22Z</time>
      </trkpt>
      <trkpt lat="44.61749" lon="2.95381">
        <ele>1237.4</ele>
        <time>2022-08-05T09:04:23Z</time>
      </trkpt>
      <trkpt lat="44.61749" lon="2.95381">
        <ele>1237.3</ele>
        <time>2022-08-05T09:04:24Z</time>
      </trkpt>
      <trkpt lat="44.61749" lon="2.9538">
        <ele>1237.1</ele>
        <time>2022-08-05T09:04:26Z</time>
      </trkpt>
      <trkpt lat="44.61749" lon="2.95379">
        <ele>1237</ele>
        <time>2022-08-05T09:04:31Z</time>
      </trkpt>
      <trkpt lat="44.61749" lon="2.95379">
        <ele>1237</ele>
        <time>2022-08-05T09:04:33Z</time>
      </trkpt>
      <trkpt lat="44.61749" lon="2.95378">
        <ele>1236.9</ele>
        <time>2022-08-05T09:04:34Z</time>
      </trkpt>
      <trkpt lat="44.6175" lon="2.95378">
        <ele>1236.9</ele>
        <time>2022-08-05T09:04:35Z</time>
      </trkpt>
      <trkpt lat="44.6175" lon="2.95376">
        <ele>1236.8</ele>
        <time>2022-08-05T09:04:36Z</time>
      </trkpt>
      <trkpt lat="44.61751" lon="2.95375">
        <ele>1236.7</ele>
        <time>2022-08-05T09:04:37Z</time>
      </trkpt>
      <trkpt lat="44.61753" lon="2.95373">
        <ele>1236.6</ele>
        <time>2022-08-05T09:04:39Z</time>
      </trkpt>
      <trkpt lat="44.61754" lon="2.95372">
        <ele>1236.7</ele>
        <time>2022-08-05T09:04:40Z</time>
      </trkpt>
      <trkpt lat="44.61755" lon="2.95371">
        <ele>1236.7</ele>
        <time>2022-08-05T09:04:41Z</time>
      </trkpt>
      <trkpt lat="44.61756" lon="2.95369">
        <ele>1236.6</ele>
        <time>2022-08-05T09:04:42Z</time>
      </trkpt>
      <trkpt lat="44.61756" lon="2.95368">
        <ele>1236.4</ele>
        <time>2022-08-05T09:04:43Z</time>
      </trkpt>
      <trkpt lat="44.61758" lon="2.95363">
        <ele>1236.1</ele>
        <time>2022-08-05T09:04:46Z</time>
      </trkpt>
      <trkpt lat="44.61761" lon="2.95359">
        <ele>1235.9</ele>
        <time>2022-08-05T09:04:49Z</time>
      </trkpt>
      <trkpt lat="44.61763" lon="2.95357">
        <ele>1235.8</ele>
        <time>2022-08-05T09:04:51Z</time>
      </trkpt>
      <trkpt lat="44.61764" lon="2.95354">
        <ele>1235.6</ele>
        <time>2022-08-05T09:04:53Z</time>
      </trkpt>
      <trkpt lat="44.61766" lon="2.95352">
        <ele>1235.4</ele>
        <time>2022-08-05T09:04:55Z</time>
      </trkpt>
      <trkpt lat="44.61768" lon="2.95348">
        <ele>1235</ele>
        <time>2022-08-05T09:04:58Z</time>
      </trkpt>
      <trkpt lat="44.6177" lon="2.95342">
        <ele>1234.3</ele>
        <time>2022-08-05T09:05:01Z</time>
      </trkpt>
      <trkpt lat="44.61775" lon="2.95336">
        <ele>1233.9</ele>
        <time>2022-08-05T09:05:07Z</time>
      </trkpt>
      <trkpt lat="44.61778" lon="2.95334">
        <ele>1234.1</ele>
        <time>2022-08-05T09:05:09Z</time>
      </trkpt>
      <trkpt lat="44.6178" lon="2.9533">
        <ele>1233.8</ele>
        <time>2022-08-05T09:05:12Z</time>
      </trkpt>
      <trkpt lat="44.61782" lon="2.95326">
        <ele>1233.5</ele>
        <time>2022-08-05T09:05:14Z</time>
      </trkpt>
      <trkpt lat="44.61784" lon="2.9532">
        <ele>1232.7</ele>
        <time>2022-08-05T09:05:18Z</time>
      </trkpt>
      <trkpt lat="44.61788" lon="2.95315">
        <ele>1232.8</ele>
        <time>2022-08-05T09:05:22Z</time>
      </trkpt>
      <trkpt lat="44.61789" lon="2.95314">
        <ele>1232.9</ele>
        <time>2022-08-05T09:05:23Z</time>
      </trkpt>
      <trkpt lat="44.61792" lon="2.95312">
        <ele>1233.1</ele>
        <time>2022-08-05T09:05:26Z</time>
      </trkpt>
      <trkpt lat="44.61793" lon="2.95311">
        <ele>1233.2</ele>
        <time>2022-08-05T09:05:27Z</time>
      </trkpt>
      <trkpt lat="44.61797" lon="2.9531">
        <ele>1233.7</ele>
        <time>2022-08-05T09:05:30Z</time>
      </trkpt>
      <trkpt lat="44.61798" lon="2.95309">
        <ele>1233.9</ele>
        <time>2022-08-05T09:05:31Z</time>
      </trkpt>
      <trkpt lat="44.618" lon="2.95308">
        <ele>1234.2</ele>
        <time>2022-08-05T09:05:33Z</time>
      </trkpt>
      <trkpt lat="44.61803" lon="2.95306">
        <ele>1234.6</ele>
        <time>2022-08-05T09:05:38Z</time>
      </trkpt>
      <trkpt lat="44.61804" lon="2.95306">
        <ele>1234.6</ele>
        <time>2022-08-05T09:05:40Z</time>
      </trkpt>
      <trkpt lat="44.61804" lon="2.95306">
        <ele>1234.6</ele>
        <time>2022-08-05T09:05:41Z</time>
      </trkpt>
      <trkpt lat="44.61801" lon="2.95307">
        <ele>1234.2</ele>
        <time>2022-08-05T09:05:48Z</time>
      </trkpt>
      <trkpt lat="44.61801" lon="2.95307">
        <ele>1234.2</ele>
        <time>2022-08-05T09:05:51Z</time>
      </trkpt>
      <trkpt lat="44.61801" lon="2.95307">
        <ele>1234.2</ele>
        <time>2022-08-05T09:05:53Z</time>
      </trkpt>
      <trkpt lat="44.61801" lon="2.95307">
        <ele>1234.3</ele>
        <time>2022-08-05T09:05:54Z</time>
      </trkpt>
      <trkpt lat="44.61803" lon="2.95306">
        <ele>1234.5</ele>
        <time>2022-08-05T09:05:55Z</time>
      </trkpt>
      <trkpt lat="44.61804" lon="2.95305">
        <ele>1234.6</ele>
        <time>2022-08-05T09:05:56Z</time>
      </trkpt>
      <trkpt lat="44.61807" lon="2.95303">
        <ele>1234.5</ele>
        <time>2022-08-05T09:05:58Z</time>
      </trkpt>
      <trkpt lat="44.61809" lon="2.95302">
        <ele>1234.4</ele>
        <time>2022-08-05T09:05:59Z</time>
      </trkpt>
      <trkpt lat="44.6181" lon="2.95302">
        <ele>1234.5</ele>
        <time>2022-08-05T09:06:00Z</time>
      </trkpt>
      <trkpt lat="44.61812" lon="2.95301">
        <ele>1234.5</ele>
        <time>2022-08-05T09:06:01Z</time>
      </trkpt>
      <trkpt lat="44.61816" lon="2.95301">
        <ele>1234.7</ele>
        <time>2022-08-05T09:06:03Z</time>
      </trkpt>
      <trkpt lat="44.61819" lon="2.95301">
        <ele>1235</ele>
        <time>2022-08-05T09:06:06Z</time>
      </trkpt>
      <trkpt lat="44.6182" lon="2.95302">
        <ele>1235.2</ele>
        <time>2022-08-05T09:06:08Z</time>
      </trkpt>
      <trkpt lat="44.6182" lon="2.95302">
        <ele>1235.2</ele>
        <time>2022-08-05T09:06:09Z</time>
      </trkpt>
      <trkpt lat="44.61822" lon="2.95303">
        <ele>1235.5</ele>
        <time>2022-08-05T09:06:11Z</time>
      </trkpt>
      <trkpt lat="44.61823" lon="2.95303">
        <ele>1235.7</ele>
        <time>2022-08-05T09:06:13Z</time>
      </trkpt>
      <trkpt lat="44.61825" lon="2.95303">
        <ele>1235.8</ele>
        <time>2022-08-05T09:06:14Z</time>
      </trkpt>
      <trkpt lat="44.61827" lon="2.95304">
        <ele>1236.1</ele>
        <time>2022-08-05T09:06:16Z</time>
      </trkpt>
      <trkpt lat="44.61829" lon="2.95304">
        <ele>1236.3</ele>
        <time>2022-08-05T09:06:18Z</time>
      </trkpt>
      <trkpt lat="44.61833" lon="2.95306">
        <ele>1237</ele>
        <time>2022-08-05T09:06:23Z</time>
      </trkpt>
      <trkpt lat="44.61834" lon="2.95307">
        <ele>1237.1</ele>
        <time>2022-08-05T09:06:26Z</time>
      </trkpt>
      <trkpt lat="44.61834" lon="2.95306">
        <ele>1237</ele>
        <time>2022-08-05T09:06:27Z</time>
      </trkpt>
      <trkpt lat="44.61836" lon="2.95306">
        <ele>1237</ele>
        <time>2022-08-05T09:06:30Z</time>
      </trkpt>
      <trkpt lat="44.61836" lon="2.95306">
        <ele>1236.9</ele>
        <time>2022-08-05T09:06:34Z</time>
      </trkpt>
      <trkpt lat="44.61836" lon="2.95306">
        <ele>1236.9</ele>
        <time>2022-08-05T09:06:35Z</time>
      </trkpt>
      <trkpt lat="44.61837" lon="2.95306">
        <ele>1236.9</ele>
        <time>2022-08-05T09:06:36Z</time>
      </trkpt>
      <trkpt lat="44.61838" lon="2.95306">
        <ele>1236.9</ele>
        <time>2022-08-05T09:06:37Z</time>
      </trkpt>
      <trkpt lat="44.61842" lon="2.95306">
        <ele>1236.7</ele>
        <time>2022-08-05T09:06:42Z</time>
      </trkpt>
      <trkpt lat="44.61848" lon="2.95308">
        <ele>1236.6</ele>
        <time>2022-08-05T09:06:46Z</time>
      </trkpt>
      <trkpt lat="44.61849" lon="2.95307">
        <ele>1236.5</ele>
        <time>2022-08-05T09:06:47Z</time>
      </trkpt>
      <trkpt lat="44.61853" lon="2.95306">
        <ele>1236.3</ele>
        <time>2022-08-05T09:06:50Z</time>
      </trkpt>
      <trkpt lat="44.61855" lon="2.95305">
        <ele>1236.2</ele>
        <time>2022-08-05T09:06:51Z</time>
      </trkpt>
      <trkpt lat="44.61857" lon="2.95304">
        <ele>1236.1</ele>
        <time>2022-08-05T09:06:53Z</time>
      </trkpt>
      <trkpt lat="44.61859" lon="2.95303">
        <ele>1236</ele>
        <time>2022-08-05T09:06:55Z</time>
      </trkpt>
      <trkpt lat="44.6186" lon="2.95302">
        <ele>1236</ele>
        <time>2022-08-05T09:06:56Z</time>
      </trkpt>
      <trkpt lat="44.61861" lon="2.953">
        <ele>1236</ele>
        <time>2022-08-05T09:06:57Z</time>
      </trkpt>
      <trkpt lat="44.61868" lon="2.95295">
        <ele>1235.8</ele>
        <time>2022-08-05T09:07:03Z</time>
      </trkpt>
      <trkpt lat="44.61869" lon="2.95294">
        <ele>1235.7</ele>
        <time>2022-08-05T09:07:04Z</time>
      </trkpt>
      <trkpt lat="44.61873" lon="2.95289">
        <ele>1235.6</ele>
        <time>2022-08-05T09:07:08Z</time>
      </trkpt>
      <trkpt lat="44.61877" lon="2.95284">
        <ele>1235.4</ele>
        <time>2022-08-05T09:07:12Z</time>
      </trkpt>
      <trkpt lat="44.6188" lon="2.95281">
        <ele>1235.3</ele>
        <time>2022-08-05T09:07:15Z</time>
      </trkpt>
      <trkpt lat="44.61883" lon="2.95278">
        <ele>1235.2</ele>
        <time>2022-08-05T09:07:17Z</time>
      </trkpt>
      <trkpt lat="44.61887" lon="2.95274">
        <ele>1235.2</ele>
        <time>2022-08-05T09:07:21Z</time>
      </trkpt>
      <trkpt lat="44.61887" lon="2.95273">
        <ele>1235.2</ele>
        <time>2022-08-05T09:07:22Z</time>
      </trkpt>
      <trkpt lat="44.6189" lon="2.9527">
        <ele>1235.2</ele>
        <time>2022-08-05T09:07:25Z</time>
      </trkpt>
      <trkpt lat="44.61892" lon="2.95267">
        <ele>1235.2</ele>
        <time>2022-08-05T09:07:27Z</time>
      </trkpt>
      <trkpt lat="44.61896" lon="2.95263">
        <ele>1235.1</ele>
        <time>2022-08-05T09:07:31Z</time>
      </trkpt>
      <trkpt lat="44.61897" lon="2.95262">
        <ele>1235.1</ele>
        <time>2022-08-05T09:07:32Z</time>
      </trkpt>
      <trkpt lat="44.61899" lon="2.9526">
        <ele>1235.1</ele>
        <time>2022-08-05T09:07:34Z</time>
      </trkpt>
      <trkpt lat="44.619" lon="2.95259">
        <ele>1235.1</ele>
        <time>2022-08-05T09:07:35Z</time>
      </trkpt>
      <trkpt lat="44.61901" lon="2.95258">
        <ele>1235.1</ele>
        <time>2022-08-05T09:07:36Z</time>
      </trkpt>
      <trkpt lat="44.61905" lon="2.95255">
        <ele>1235.1</ele>
        <time>2022-08-05T09:07:40Z</time>
      </trkpt>
      <trkpt lat="44.61906" lon="2.95254">
        <ele>1235.1</ele>
        <time>2022-08-05T09:07:41Z</time>
      </trkpt>
      <trkpt lat="44.61911" lon="2.9525">
        <ele>1235.2</ele>
        <time>2022-08-05T09:07:45Z</time>
      </trkpt>
      <trkpt lat="44.61913" lon="2.95249">
        <ele>1235.2</ele>
        <time>2022-08-05T09:07:47Z</time>
      </trkpt>
      <trkpt lat="44.61914" lon="2.95248">
        <ele>1235.2</ele>
        <time>2022-08-05T09:07:48Z</time>
      </trkpt>
      <trkpt lat="44.61915" lon="2.95248">
        <ele>1235.1</ele>
        <time>2022-08-05T09:07:49Z</time>
      </trkpt>
      <trkpt lat="44.61916" lon="2.95246">
        <ele>1235.2</ele>
        <time>2022-08-05T09:07:50Z</time>
      </trkpt>
      <trkpt lat="44.61917" lon="2.95243">
        <ele>1235.2</ele>
        <time>2022-08-05T09:07:52Z</time>
      </trkpt>
      <trkpt lat="44.61918" lon="2.95242">
        <ele>1235.2</ele>
        <time>2022-08-05T09:07:53Z</time>
      </trkpt>
      <trkpt lat="44.61921" lon="2.95239">
        <ele>1235</ele>
        <time>2022-08-05T09:07:56Z</time>
      </trkpt>
      <trkpt lat="44.61924" lon="2.95236">
        <ele>1234.8</ele>
        <time>2022-08-05T09:07:59Z</time>
      </trkpt>
      <trkpt lat="44.61927" lon="2.95233">
        <ele>1234.7</ele>
        <time>2022-08-05T09:08:02Z</time>
      </trkpt>
      <trkpt lat="44.61928" lon="2.95232">
        <ele>1234.7</ele>
        <time>2022-08-05T09:08:03Z</time>
      </trkpt>
      <trkpt lat="44.6193" lon="2.9523">
        <ele>1234.7</ele>
        <time>2022-08-05T09:08:05Z</time>
      </trkpt>
      <trkpt lat="44.61933" lon="2.95229">
        <ele>1234.5</ele>
        <time>2022-08-05T09:08:07Z</time>
      </trkpt>
      <trkpt lat="44.61934" lon="2.95228">
        <ele>1234.4</ele>
        <time>2022-08-05T09:08:08Z</time>
      </trkpt>
      <trkpt lat="44.61936" lon="2.95226">
        <ele>1234.3</ele>
        <time>2022-08-05T09:08:10Z</time>
      </trkpt>
      <trkpt lat="44.61937" lon="2.95225">
        <ele>1234.4</ele>
        <time>2022-08-05T09:08:11Z</time>
      </trkpt>
      <trkpt lat="44.61938" lon="2.95225">
        <ele>1234.3</ele>
        <time>2022-08-05T09:08:12Z</time>
      </trkpt>
      <trkpt lat="44.61939" lon="2.95224">
        <ele>1234.3</ele>
        <time>2022-08-05T09:08:13Z</time>
      </trkpt>
      <trkpt lat="44.61942" lon="2.95221">
        <ele>1234.2</ele>
        <time>2022-08-05T09:08:15Z</time>
      </trkpt>
      <trkpt lat="44.61943" lon="2.95221">
        <ele>1234.2</ele>
        <time>2022-08-05T09:08:16Z</time>
      </trkpt>
      <trkpt lat="44.61944" lon="2.9522">
        <ele>1234.1</ele>
        <time>2022-08-05T09:08:17Z</time>
      </trkpt>
      <trkpt lat="44.61945" lon="2.95218">
        <ele>1234.1</ele>
        <time>2022-08-05T09:08:18Z</time>
      </trkpt>
      <trkpt lat="44.61945" lon="2.95216">
        <ele>1234.1</ele>
        <time>2022-08-05T09:08:19Z</time>
      </trkpt>
      <trkpt lat="44.61947" lon="2.95208">
        <ele>1234.2</ele>
        <time>2022-08-05T09:08:24Z</time>
      </trkpt>
      <trkpt lat="44.61948" lon="2.95206">
        <ele>1234.2</ele>
        <time>2022-08-05T09:08:25Z</time>
      </trkpt>
      <trkpt lat="44.61949" lon="2.95205">
        <ele>1234.2</ele>
        <time>2022-08-05T09:08:26Z</time>
      </trkpt>
      <trkpt lat="44.61949" lon="2.95204">
        <ele>1234.2</ele>
        <time>2022-08-05T09:08:27Z</time>
      </trkpt>
      <trkpt lat="44.61949" lon="2.95203">
        <ele>1234.2</ele>
        <time>2022-08-05T09:08:28Z</time>
      </trkpt>
      <trkpt lat="44.61949" lon="2.95202">
        <ele>1234.3</ele>
        <time>2022-08-05T09:08:29Z</time>
      </trkpt>
      <trkpt lat="44.61948" lon="2.95203">
        <ele>1234.3</ele>
        <time>2022-08-05T09:08:31Z</time>
      </trkpt>
      <trkpt lat="44.61949" lon="2.95205">
        <ele>1234.1</ele>
        <time>2022-08-05T09:08:34Z</time>
      </trkpt>
      <trkpt lat="44.61953" lon="2.95204">
        <ele>1233.8</ele>
        <time>2022-08-05T09:08:37Z</time>
      </trkpt>
      <trkpt lat="44.61954" lon="2.95204">
        <ele>1233.6</ele>
        <time>2022-08-05T09:08:38Z</time>
      </trkpt>
      <trkpt lat="44.61958" lon="2.95199">
        <ele>1233.4</ele>
        <time>2022-08-05T09:08:42Z</time>
      </trkpt>
      <trkpt lat="44.61959" lon="2.95196">
        <ele>1233.3</ele>
        <time>2022-08-05T09:08:44Z</time>
      </trkpt>
      <trkpt lat="44.6196" lon="2.95195">
        <ele>1233.3</ele>
        <time>2022-08-05T09:08:45Z</time>
      </trkpt>
      <trkpt lat="44.61965" lon="2.95186">
        <ele>1232.9</ele>
        <time>2022-08-05T09:08:51Z</time>
      </trkpt>
      <trkpt lat="44.61966" lon="2.95183">
        <ele>1232.9</ele>
        <time>2022-08-05T09:08:53Z</time>
      </trkpt>
      <trkpt lat="44.61967" lon="2.9518">
        <ele>1232.9</ele>
        <time>2022-08-05T09:08:55Z</time>
      </trkpt>
      <trkpt lat="44.6197" lon="2.95174">
        <ele>1232.9</ele>
        <time>2022-08-05T09:08:59Z</time>
      </trkpt>
      <trkpt lat="44.61971" lon="2.95173">
        <ele>1232.8</ele>
        <time>2022-08-05T09:09:00Z</time>
      </trkpt>
      <trkpt lat="44.61971" lon="2.95171">
        <ele>1232.9</ele>
        <time>2022-08-05T09:09:01Z</time>
      </trkpt>
      <trkpt lat="44.61974" lon="2.95169">
        <ele>1232.8</ele>
        <time>2022-08-05T09:09:03Z</time>
      </trkpt>
      <trkpt lat="44.61976" lon="2.95168">
        <ele>1232.7</ele>
        <time>2022-08-05T09:09:05Z</time>
      </trkpt>
      <trkpt lat="44.61984" lon="2.95169">
        <ele>1232</ele>
        <time>2022-08-05T09:09:12Z</time>
      </trkpt>
      <trkpt lat="44.61987" lon="2.95179">
        <ele>1231.5</ele>
        <time>2022-08-05T09:09:18Z</time>
      </trkpt>
      <trkpt lat="44.61988" lon="2.95187">
        <ele>1231.2</ele>
        <time>2022-08-05T09:09:23Z</time>
      </trkpt>
      <trkpt lat="44.61988" lon="2.95191">
        <ele>1231</ele>
        <time>2022-08-05T09:09:25Z</time>
      </trkpt>
      <trkpt lat="44.61988" lon="2.95198">
        <ele>1230.8</ele>
        <time>2022-08-05T09:09:29Z</time>
      </trkpt>
      <trkpt lat="44.61988" lon="2.952">
        <ele>1230.7</ele>
        <time>2022-08-05T09:09:30Z</time>
      </trkpt>
      <trkpt lat="44.61989" lon="2.95205">
        <ele>1230.4</ele>
        <time>2022-08-05T09:09:33Z</time>
      </trkpt>
      <trkpt lat="44.61989" lon="2.9521">
        <ele>1230.3</ele>
        <time>2022-08-05T09:09:36Z</time>
      </trkpt>
      <trkpt lat="44.61989" lon="2.95212">
        <ele>1230.1</ele>
        <time>2022-08-05T09:09:37Z</time>
      </trkpt>
      <trkpt lat="44.61991" lon="2.95223">
        <ele>1229.6</ele>
        <time>2022-08-05T09:09:43Z</time>
      </trkpt>
      <trkpt lat="44.61992" lon="2.95227">
        <ele>1229.5</ele>
        <time>2022-08-05T09:09:46Z</time>
      </trkpt>
      <trkpt lat="44.61992" lon="2.95228">
        <ele>1229.5</ele>
        <time>2022-08-05T09:09:47Z</time>
      </trkpt>
      <trkpt lat="44.61992" lon="2.95229">
        <ele>1229.5</ele>
        <time>2022-08-05T09:09:48Z</time>
      </trkpt>
      <trkpt lat="44.61992" lon="2.95229">
        <ele>1229.5</ele>
        <time>2022-08-05T09:09:49Z</time>
      </trkpt>
      <trkpt lat="44.61992" lon="2.95229">
        <ele>1229.5</ele>
        <time>2022-08-05T09:09:51Z</time>
      </trkpt>
      <trkpt lat="44.61994" lon="2.95235">
        <ele>1229.3</ele>
        <time>2022-08-05T09:09:57Z</time>
      </trkpt>
      <trkpt lat="44.61994" lon="2.95238">
        <ele>1229.3</ele>
        <time>2022-08-05T09:09:59Z</time>
      </trkpt>
      <trkpt lat="44.61995" lon="2.95241">
        <ele>1229.3</ele>
        <time>2022-08-05T09:10:01Z</time>
      </trkpt>
      <trkpt lat="44.61995" lon="2.9525">
        <ele>1229.2</ele>
        <time>2022-08-05T09:10:05Z</time>
      </trkpt>
      <trkpt lat="44.61997" lon="2.95257">
        <ele>1229.1</ele>
        <time>2022-08-05T09:10:10Z</time>
      </trkpt>
      <trkpt lat="44.61999" lon="2.95262">
        <ele>1229</ele>
        <time>2022-08-05T09:10:13Z</time>
      </trkpt>
      <trkpt lat="44.62001" lon="2.95265">
        <ele>1228.9</ele>
        <time>2022-08-05T09:10:15Z</time>
      </trkpt>
      <trkpt lat="44.62001" lon="2.95268">
        <ele>1228.9</ele>
        <time>2022-08-05T09:10:17Z</time>
      </trkpt>
      <trkpt lat="44.62003" lon="2.95275">
        <ele>1228.6</ele>
        <time>2022-08-05T09:10:21Z</time>
      </trkpt>
      <trkpt lat="44.62005" lon="2.95278">
        <ele>1228.5</ele>
        <time>2022-08-05T09:10:23Z</time>
      </trkpt>
      <trkpt lat="44.62007" lon="2.95287">
        <ele>1228.6</ele>
        <time>2022-08-05T09:10:28Z</time>
      </trkpt>
      <trkpt lat="44.62009" lon="2.95292">
        <ele>1228.5</ele>
        <time>2022-08-05T09:10:32Z</time>
      </trkpt>
      <trkpt lat="44.6201" lon="2.95294">
        <ele>1228.5</ele>
        <time>2022-08-05T09:10:33Z</time>
      </trkpt>
      <trkpt lat="44.62011" lon="2.95295">
        <ele>1228.5</ele>
        <time>2022-08-05T09:10:34Z</time>
      </trkpt>
      <trkpt lat="44.62013" lon="2.953">
        <ele>1228.4</ele>
        <time>2022-08-05T09:10:37Z</time>
      </trkpt>
      <trkpt lat="44.62018" lon="2.9531">
        <ele>1228.4</ele>
        <time>2022-08-05T09:10:44Z</time>
      </trkpt>
      <trkpt lat="44.62019" lon="2.95311">
        <ele>1228.3</ele>
        <time>2022-08-05T09:10:45Z</time>
      </trkpt>
      <trkpt lat="44.6202" lon="2.95313">
        <ele>1228.3</ele>
        <time>2022-08-05T09:10:46Z</time>
      </trkpt>
      <trkpt lat="44.62021" lon="2.95314">
        <ele>1228.4</ele>
        <time>2022-08-05T09:10:47Z</time>
      </trkpt>
      <trkpt lat="44.62022" lon="2.95316">
        <ele>1228.4</ele>
        <time>2022-08-05T09:10:49Z</time>
      </trkpt>
      <trkpt lat="44.62023" lon="2.95319">
        <ele>1228.5</ele>
        <time>2022-08-05T09:10:51Z</time>
      </trkpt>
      <trkpt lat="44.62025" lon="2.95322">
        <ele>1228.5</ele>
        <time>2022-08-05T09:10:53Z</time>
      </trkpt>
      <trkpt lat="44.62026" lon="2.95324">
        <ele>1228.5</ele>
        <time>2022-08-05T09:10:54Z</time>
      </trkpt>
      <trkpt lat="44.62028" lon="2.95329">
        <ele>1228.6</ele>
        <time>2022-08-05T09:10:57Z</time>
      </trkpt>
      <trkpt lat="44.62033" lon="2.95338">
        <ele>1228.6</ele>
        <time>2022-08-05T09:11:03Z</time>
      </trkpt>
      <trkpt lat="44.62033" lon="2.95339">
        <ele>1228.7</ele>
        <time>2022-08-05T09:11:04Z</time>
      </trkpt>
      <trkpt lat="44.62036" lon="2.95346">
        <ele>1228.9</ele>
        <time>2022-08-05T09:11:09Z</time>
      </trkpt>
      <trkpt lat="44.62036" lon="2.95348">
        <ele>1229</ele>
        <time>2022-08-05T09:11:10Z</time>
      </trkpt>
      <trkpt lat="44.62036" lon="2.95347">
        <ele>1228.9</ele>
        <time>2022-08-05T09:11:13Z</time>
      </trkpt>
      <trkpt lat="44.62038" lon="2.95345">
        <ele>1228.6</ele>
        <time>2022-08-05T09:11:20Z</time>
      </trkpt>
      <trkpt lat="44.62038" lon="2.95345">
        <ele>1228.6</ele>
        <time>2022-08-05T09:11:21Z</time>
      </trkpt>
      <trkpt lat="44.62037" lon="2.95345">
        <ele>1228.7</ele>
        <time>2022-08-05T09:11:32Z</time>
      </trkpt>
      <trkpt lat="44.62037" lon="2.95345">
        <ele>1228.7</ele>
        <time>2022-08-05T09:11:34Z</time>
      </trkpt>
      <trkpt lat="44.62037" lon="2.95345">
        <ele>1228.7</ele>
        <time>2022-08-05T09:11:35Z</time>
      </trkpt>
      <trkpt lat="44.62037" lon="2.95345">
        <ele>1228.7</ele>
        <time>2022-08-05T09:11:38Z</time>
      </trkpt>
      <trkpt lat="44.62038" lon="2.95349">
        <ele>1228.9</ele>
        <time>2022-08-05T09:11:40Z</time>
      </trkpt>
      <trkpt lat="44.62042" lon="2.95362">
        <ele>1229.6</ele>
        <time>2022-08-05T09:11:46Z</time>
      </trkpt>
      <trkpt lat="44.62042" lon="2.95364">
        <ele>1229.7</ele>
        <time>2022-08-05T09:11:47Z</time>
      </trkpt>
      <trkpt lat="44.62045" lon="2.95377">
        <ele>1230.3</ele>
        <time>2022-08-05T09:11:54Z</time>
      </trkpt>
      <trkpt lat="44.62046" lon="2.95379">
        <ele>1230.4</ele>
        <time>2022-08-05T09:11:55Z</time>
      </trkpt>
      <trkpt lat="44.62046" lon="2.95381">
        <ele>1230.5</ele>
        <time>2022-08-05T09:11:56Z</time>
      </trkpt>
      <trkpt lat="44.62047" lon="2.95383">
        <ele>1230.5</ele>
        <time>2022-08-05T09:11:57Z</time>
      </trkpt>
      <trkpt lat="44.62048" lon="2.95385">
        <ele>1230.6</ele>
        <time>2022-08-05T09:11:58Z</time>
      </trkpt>
      <trkpt lat="44.62048" lon="2.95389">
        <ele>1230.8</ele>
        <time>2022-08-05T09:12:00Z</time>
      </trkpt>
      <trkpt lat="44.62049" lon="2.95392">
        <ele>1230.8</ele>
        <time>2022-08-05T09:12:02Z</time>
      </trkpt>
      <trkpt lat="44.6205" lon="2.95393">
        <ele>1230.8</ele>
        <time>2022-08-05T09:12:03Z</time>
      </trkpt>
      <trkpt lat="44.62051" lon="2.95394">
        <ele>1230.8</ele>
        <time>2022-08-05T09:12:04Z</time>
      </trkpt>
      <trkpt lat="44.62051" lon="2.95396">
        <ele>1230.8</ele>
        <time>2022-08-05T09:12:06Z</time>
      </trkpt>
      <trkpt lat="44.62051" lon="2.95396">
        <ele>1230.8</ele>
        <time>2022-08-05T09:12:07Z</time>
      </trkpt>
      <trkpt lat="44.62051" lon="2.95396">
        <ele>1230.8</ele>
        <time>2022-08-05T09:12:08Z</time>
      </trkpt>
      <trkpt lat="44.62052" lon="2.95397">
        <ele>1230.8</ele>
        <time>2022-08-05T09:12:10Z</time>
      </trkpt>
      <trkpt lat="44.6205" lon="2.954">
        <ele>1231</ele>
        <time>2022-08-05T09:12:12Z</time>
      </trkpt>
      <trkpt lat="44.6205" lon="2.95404">
        <ele>1231.2</ele>
        <time>2022-08-05T09:12:14Z</time>
      </trkpt>
      <trkpt lat="44.62051" lon="2.95408">
        <ele>1231.3</ele>
        <time>2022-08-05T09:12:16Z</time>
      </trkpt>
      <trkpt lat="44.62051" lon="2.95409">
        <ele>1231.4</ele>
        <time>2022-08-05T09:12:17Z</time>
      </trkpt>
      <trkpt lat="44.62051" lon="2.95411">
        <ele>1231.4</ele>
        <time>2022-08-05T09:12:18Z</time>
      </trkpt>
      <trkpt lat="44.62051" lon="2.95412">
        <ele>1231.5</ele>
        <time>2022-08-05T09:12:19Z</time>
      </trkpt>
      <trkpt lat="44.6205" lon="2.95414">
        <ele>1231.7</ele>
        <time>2022-08-05T09:12:20Z</time>
      </trkpt>
      <trkpt lat="44.62049" lon="2.95415">
        <ele>1231.9</ele>
        <time>2022-08-05T09:12:21Z</time>
      </trkpt>
      <trkpt lat="44.62048" lon="2.95416">
        <ele>1232</ele>
        <time>2022-08-05T09:12:22Z</time>
      </trkpt>
      <trkpt lat="44.62048" lon="2.95416">
        <ele>1232.1</ele>
        <time>2022-08-05T09:12:23Z</time>
      </trkpt>
      <trkpt lat="44.62047" lon="2.95417">
        <ele>1232.3</ele>
        <time>2022-08-05T09:12:24Z</time>
      </trkpt>
      <trkpt lat="44.62046" lon="2.95417">
        <ele>1232.4</ele>
        <time>2022-08-05T09:12:25Z</time>
      </trkpt>
      <trkpt lat="44.62046" lon="2.95418">
        <ele>1232.5</ele>
        <time>2022-08-05T09:12:26Z</time>
      </trkpt>
      <trkpt lat="44.62045" lon="2.95418">
        <ele>1232.5</ele>
        <time>2022-08-05T09:12:27Z</time>
      </trkpt>
      <trkpt lat="44.62044" lon="2.95418">
        <ele>1232.7</ele>
        <time>2022-08-05T09:12:29Z</time>
      </trkpt>
      <trkpt lat="44.62044" lon="2.95418">
        <ele>1232.8</ele>
        <time>2022-08-05T09:12:30Z</time>
      </trkpt>
      <trkpt lat="44.62043" lon="2.95418">
        <ele>1232.9</ele>
        <time>2022-08-05T09:12:31Z</time>
      </trkpt>
      <trkpt lat="44.62042" lon="2.95418">
        <ele>1233</ele>
        <time>2022-08-05T09:12:32Z</time>
      </trkpt>
      <trkpt lat="44.62041" lon="2.95418">
        <ele>1233.1</ele>
        <time>2022-08-05T09:12:33Z</time>
      </trkpt>
      <trkpt lat="44.6204" lon="2.95418">
        <ele>1233.4</ele>
        <time>2022-08-05T09:12:37Z</time>
      </trkpt>
      <trkpt lat="44.6204" lon="2.95418">
        <ele>1233.4</ele>
        <time>2022-08-05T09:12:43Z</time>
      </trkpt>
      <trkpt lat="44.6204" lon="2.95418">
        <ele>1233.4</ele>
        <time>2022-08-05T09:12:44Z</time>
      </trkpt>
      <trkpt lat="44.62039" lon="2.95418">
        <ele>1233.4</ele>
        <time>2022-08-05T09:12:46Z</time>
      </trkpt>
      <trkpt lat="44.62037" lon="2.95417">
        <ele>1233.8</ele>
        <time>2022-08-05T09:12:50Z</time>
      </trkpt>
      <trkpt lat="44.62037" lon="2.9542">
        <ele>1233.9</ele>
        <time>2022-08-05T09:12:57Z</time>
      </trkpt>
      <trkpt lat="44.62036" lon="2.9542">
        <ele>1234</ele>
        <time>2022-08-05T09:12:59Z</time>
      </trkpt>
      <trkpt lat="44.62036" lon="2.9542">
        <ele>1234</ele>
        <time>2022-08-05T09:13:00Z</time>
      </trkpt>
      <trkpt lat="44.62036" lon="2.9542">
        <ele>1233.9</ele>
        <time>2022-08-05T09:13:04Z</time>
      </trkpt>
      <trkpt lat="44.62036" lon="2.9542">
        <ele>1233.9</ele>
        <time>2022-08-05T09:13:14Z</time>
      </trkpt>
      <trkpt lat="44.62037" lon="2.9542">
        <ele>1233.8</ele>
        <time>2022-08-05T09:13:18Z</time>
      </trkpt>
      <trkpt lat="44.62038" lon="2.9542">
        <ele>1233.7</ele>
        <time>2022-08-05T09:13:21Z</time>
      </trkpt>
      <trkpt lat="44.62042" lon="2.95424">
        <ele>1233.4</ele>
        <time>2022-08-05T09:13:29Z</time>
      </trkpt>
      <trkpt lat="44.62043" lon="2.95424">
        <ele>1233.2</ele>
        <time>2022-08-05T09:13:37Z</time>
      </trkpt>
      <trkpt lat="44.62042" lon="2.95421">
        <ele>1233.2</ele>
        <time>2022-08-05T09:13:42Z</time>
      </trkpt>
      <trkpt lat="44.62042" lon="2.95419">
        <ele>1233.1</ele>
        <time>2022-08-05T09:13:46Z</time>
      </trkpt>
      <trkpt lat="44.62041" lon="2.9542">
        <ele>1233.2</ele>
        <time>2022-08-05T09:13:48Z</time>
      </trkpt>
      <trkpt lat="44.62041" lon="2.95422">
        <ele>1233.3</ele>
        <time>2022-08-05T09:13:49Z</time>
      </trkpt>
      <trkpt lat="44.62038" lon="2.95421">
        <ele>1233.8</ele>
        <time>2022-08-05T09:13:53Z</time>
      </trkpt>
      <trkpt lat="44.62037" lon="2.95418">
        <ele>1233.7</ele>
        <time>2022-08-05T09:13:58Z</time>
      </trkpt>
      <trkpt lat="44.62039" lon="2.95418">
        <ele>1233.5</ele>
        <time>2022-08-05T09:14:02Z</time>
      </trkpt>
      <trkpt lat="44.62036" lon="2.95415">
        <ele>1233.7</ele>
        <time>2022-08-05T09:14:04Z</time>
      </trkpt>
      <trkpt lat="44.62036" lon="2.95415">
        <ele>1233.7</ele>
        <time>2022-08-05T09:14:05Z</time>
      </trkpt>
      <trkpt lat="44.62036" lon="2.95414">
        <ele>1233.7</ele>
        <time>2022-08-05T09:14:06Z</time>
      </trkpt>
      <trkpt lat="44.62036" lon="2.95415">
        <ele>1233.7</ele>
        <time>2022-08-05T09:14:10Z</time>
      </trkpt>
      <trkpt lat="44.62037" lon="2.95416">
        <ele>1233.7</ele>
        <time>2022-08-05T09:14:12Z</time>
      </trkpt>
      <trkpt lat="44.62037" lon="2.95416">
        <ele>1233.7</ele>
        <time>2022-08-05T09:14:13Z</time>
      </trkpt>
      <trkpt lat="44.62037" lon="2.95416">
        <ele>1233.6</ele>
        <time>2022-08-05T09:14:15Z</time>
      </trkpt>
      <trkpt lat="44.62037" lon="2.95416">
        <ele>1233.7</ele>
        <time>2022-08-05T09:14:18Z</time>
      </trkpt>
      <trkpt lat="44.62036" lon="2.95416">
        <ele>1233.7</ele>
        <time>2022-08-05T09:14:22Z</time>
      </trkpt>
      <trkpt lat="44.62036" lon="2.95416">
        <ele>1233.7</ele>
        <time>2022-08-05T09:14:23Z</time>
      </trkpt>
      <trkpt lat="44.62036" lon="2.95416">
        <ele>1233.7</ele>
        <time>2022-08-05T09:14:29Z</time>
      </trkpt>
      <trkpt lat="44.62037" lon="2.95416">
        <ele>1233.7</ele>
        <time>2022-08-05T09:14:37Z</time>
      </trkpt>
      <trkpt lat="44.62037" lon="2.95417">
        <ele>1233.7</ele>
        <time>2022-08-05T09:14:42Z</time>
      </trkpt>
      <trkpt lat="44.62037" lon="2.95417">
        <ele>1233.7</ele>
        <time>2022-08-05T09:14:44Z</time>
      </trkpt>
      <trkpt lat="44.62037" lon="2.95418">
        <ele>1233.7</ele>
        <time>2022-08-05T09:14:45Z</time>
      </trkpt>
      <trkpt lat="44.62038" lon="2.95419">
        <ele>1233.6</ele>
        <time>2022-08-05T09:14:46Z</time>
      </trkpt>
      <trkpt lat="44.62038" lon="2.9542">
        <ele>1233.7</ele>
        <time>2022-08-05T09:14:47Z</time>
      </trkpt>
      <trkpt lat="44.62038" lon="2.9542">
        <ele>1233.7</ele>
        <time>2022-08-05T09:14:49Z</time>
      </trkpt>
      <trkpt lat="44.62039" lon="2.95421">
        <ele>1233.6</ele>
        <time>2022-08-05T09:15:00Z</time>
      </trkpt>
      <trkpt lat="44.62039" lon="2.95422">
        <ele>1233.6</ele>
        <time>2022-08-05T09:15:08Z</time>
      </trkpt>
      <trkpt lat="44.62039" lon="2.95422">
        <ele>1233.7</ele>
        <time>2022-08-05T09:15:10Z</time>
      </trkpt>
      <trkpt lat="44.62039" lon="2.95422">
        <ele>1233.7</ele>
        <time>2022-08-05T09:15:13Z</time>
      </trkpt>
      <trkpt lat="44.62038" lon="2.95421">
        <ele>1233.8</ele>
        <time>2022-08-05T09:15:20Z</time>
      </trkpt>
      <trkpt lat="44.62037" lon="2.95421">
        <ele>1233.9</ele>
        <time>2022-08-05T09:15:28Z</time>
      </trkpt>
      <trkpt lat="44.62037" lon="2.95421">
        <ele>1233.9</ele>
        <time>2022-08-05T09:15:38Z</time>
      </trkpt>
      <trkpt lat="44.62037" lon="2.95421">
        <ele>1233.8</ele>
        <time>2022-08-05T09:15:44Z</time>
      </trkpt>
      <trkpt lat="44.62038" lon="2.95421">
        <ele>1233.8</ele>
        <time>2022-08-05T09:15:46Z</time>
      </trkpt>
      <trkpt lat="44.62038" lon="2.95421">
        <ele>1233.8</ele>
        <time>2022-08-05T09:15:58Z</time>
      </trkpt>
      <trkpt lat="44.62038" lon="2.95421">
        <ele>1233.8</ele>
        <time>2022-08-05T09:15:59Z</time>
      </trkpt>
      <trkpt lat="44.62038" lon="2.9542">
        <ele>1233.8</ele>
        <time>2022-08-05T09:16:02Z</time>
      </trkpt>
      <trkpt lat="44.62037" lon="2.95421">
        <ele>1233.8</ele>
        <time>2022-08-05T09:16:07Z</time>
      </trkpt>
      <trkpt lat="44.62037" lon="2.95419">
        <ele>1233.7</ele>
        <time>2022-08-05T09:16:11Z</time>
      </trkpt>
      <trkpt lat="44.62037" lon="2.95419">
        <ele>1233.7</ele>
        <time>2022-08-05T09:16:12Z</time>
      </trkpt>
      <trkpt lat="44.6204" lon="2.95418">
        <ele>1233.4</ele>
        <time>2022-08-05T09:16:16Z</time>
      </trkpt>
      <trkpt lat="44.6204" lon="2.95417">
        <ele>1233.2</ele>
        <time>2022-08-05T09:16:17Z</time>
      </trkpt>
      <trkpt lat="44.62042" lon="2.95416">
        <ele>1233</ele>
        <time>2022-08-05T09:16:19Z</time>
      </trkpt>
      <trkpt lat="44.62045" lon="2.95413">
        <ele>1232.4</ele>
        <time>2022-08-05T09:16:22Z</time>
      </trkpt>
      <trkpt lat="44.62046" lon="2.95412">
        <ele>1232.1</ele>
        <time>2022-08-05T09:16:23Z</time>
      </trkpt>
      <trkpt lat="44.62048" lon="2.9541">
        <ele>1231.8</ele>
        <time>2022-08-05T09:16:25Z</time>
      </trkpt>
      <trkpt lat="44.62048" lon="2.95408">
        <ele>1231.7</ele>
        <time>2022-08-05T09:16:26Z</time>
      </trkpt>
      <trkpt lat="44.62048" lon="2.95406">
        <ele>1231.6</ele>
        <time>2022-08-05T09:16:27Z</time>
      </trkpt>
      <trkpt lat="44.62048" lon="2.95405">
        <ele>1231.5</ele>
        <time>2022-08-05T09:16:28Z</time>
      </trkpt>
      <trkpt lat="44.62048" lon="2.95403">
        <ele>1231.5</ele>
        <time>2022-08-05T09:16:29Z</time>
      </trkpt>
      <trkpt lat="44.62048" lon="2.95401">
        <ele>1231.4</ele>
        <time>2022-08-05T09:16:30Z</time>
      </trkpt>
      <trkpt lat="44.62047" lon="2.95398">
        <ele>1231.3</ele>
        <time>2022-08-05T09:16:32Z</time>
      </trkpt>
      <trkpt lat="44.62046" lon="2.95388">
        <ele>1231</ele>
        <time>2022-08-05T09:16:37Z</time>
      </trkpt>
      <trkpt lat="44.62045" lon="2.95384">
        <ele>1230.7</ele>
        <time>2022-08-05T09:16:39Z</time>
      </trkpt>
      <trkpt lat="44.62045" lon="2.95381">
        <ele>1230.6</ele>
        <time>2022-08-05T09:16:40Z</time>
      </trkpt>
      <trkpt lat="44.62045" lon="2.95379">
        <ele>1230.5</ele>
        <time>2022-08-05T09:16:41Z</time>
      </trkpt>
      <trkpt lat="44.62045" lon="2.95377">
        <ele>1230.4</ele>
        <time>2022-08-05T09:16:42Z</time>
      </trkpt>
      <trkpt lat="44.62045" lon="2.95374">
        <ele>1230.1</ele>
        <time>2022-08-05T09:16:44Z</time>
      </trkpt>
      <trkpt lat="44.62046" lon="2.95373">
        <ele>1229.9</ele>
        <time>2022-08-05T09:16:45Z</time>
      </trkpt>
      <trkpt lat="44.62047" lon="2.95373">
        <ele>1229.8</ele>
        <time>2022-08-05T09:16:46Z</time>
      </trkpt>
      <trkpt lat="44.62048" lon="2.95374">
        <ele>1229.7</ele>
        <time>2022-08-05T09:16:47Z</time>
      </trkpt>
      <trkpt lat="44.62049" lon="2.95374">
        <ele>1229.6</ele>
        <time>2022-08-05T09:16:48Z</time>
      </trkpt>
      <trkpt lat="44.62052" lon="2.95378">
        <ele>1229.6</ele>
        <time>2022-08-05T09:16:51Z</time>
      </trkpt>
      <trkpt lat="44.62053" lon="2.9538">
        <ele>1229.6</ele>
        <time>2022-08-05T09:16:52Z</time>
      </trkpt>
      <trkpt lat="44.62054" lon="2.95382">
        <ele>1229.6</ele>
        <time>2022-08-05T09:16:53Z</time>
      </trkpt>
      <trkpt lat="44.62056" lon="2.95383">
        <ele>1229.6</ele>
        <time>2022-08-05T09:16:54Z</time>
      </trkpt>
      <trkpt lat="44.62057" lon="2.95384">
        <ele>1229.5</ele>
        <time>2022-08-05T09:16:55Z</time>
      </trkpt>
      <trkpt lat="44.62058" lon="2.95386">
        <ele>1229.5</ele>
        <time>2022-08-05T09:16:56Z</time>
      </trkpt>
      <trkpt lat="44.62061" lon="2.95391">
        <ele>1229.3</ele>
        <time>2022-08-05T09:16:59Z</time>
      </trkpt>
      <trkpt lat="44.62069" lon="2.95405">
        <ele>1228.9</ele>
        <time>2022-08-05T09:17:07Z</time>
      </trkpt>
      <trkpt lat="44.6207" lon="2.95406">
        <ele>1228.8</ele>
        <time>2022-08-05T09:17:08Z</time>
      </trkpt>
      <trkpt lat="44.62074" lon="2.95411">
        <ele>1228.7</ele>
        <time>2022-08-05T09:17:11Z</time>
      </trkpt>
      <trkpt lat="44.62075" lon="2.95412">
        <ele>1228.6</ele>
        <time>2022-08-05T09:17:12Z</time>
      </trkpt>
      <trkpt lat="44.62076" lon="2.95414">
        <ele>1228.6</ele>
        <time>2022-08-05T09:17:13Z</time>
      </trkpt>
      <trkpt lat="44.62077" lon="2.95415">
        <ele>1228.6</ele>
        <time>2022-08-05T09:17:14Z</time>
      </trkpt>
      <trkpt lat="44.62084" lon="2.95423">
        <ele>1228.4</ele>
        <time>2022-08-05T09:17:20Z</time>
      </trkpt>
      <trkpt lat="44.62091" lon="2.95431">
        <ele>1228.1</ele>
        <time>2022-08-05T09:17:25Z</time>
      </trkpt>
      <trkpt lat="44.62096" lon="2.95437">
        <ele>1227.8</ele>
        <time>2022-08-05T09:17:29Z</time>
      </trkpt>
      <trkpt lat="44.62102" lon="2.95445">
        <ele>1227.4</ele>
        <time>2022-08-05T09:17:35Z</time>
      </trkpt>
      <trkpt lat="44.62104" lon="2.95448">
        <ele>1227.2</ele>
        <time>2022-08-05T09:17:37Z</time>
      </trkpt>
      <trkpt lat="44.62105" lon="2.95451">
        <ele>1227.1</ele>
        <time>2022-08-05T09:17:38Z</time>
      </trkpt>
      <trkpt lat="44.62106" lon="2.95452">
        <ele>1227.1</ele>
        <time>2022-08-05T09:17:39Z</time>
      </trkpt>
      <trkpt lat="44.62106" lon="2.95453">
        <ele>1227</ele>
        <time>2022-08-05T09:17:40Z</time>
      </trkpt>
      <trkpt lat="44.62108" lon="2.95454">
        <ele>1226.8</ele>
        <time>2022-08-05T09:17:41Z</time>
      </trkpt>
      <trkpt lat="44.62111" lon="2.95457">
        <ele>1226.5</ele>
        <time>2022-08-05T09:17:43Z</time>
      </trkpt>
      <trkpt lat="44.62112" lon="2.9546">
        <ele>1226.4</ele>
        <time>2022-08-05T09:17:45Z</time>
      </trkpt>
      <trkpt lat="44.62116" lon="2.95467">
        <ele>1226.1</ele>
        <time>2022-08-05T09:17:50Z</time>
      </trkpt>
      <trkpt lat="44.62119" lon="2.95469">
        <ele>1225.8</ele>
        <time>2022-08-05T09:17:53Z</time>
      </trkpt>
      <trkpt lat="44.62122" lon="2.95472">
        <ele>1225.5</ele>
        <time>2022-08-05T09:17:56Z</time>
      </trkpt>
      <trkpt lat="44.62124" lon="2.95474">
        <ele>1225.3</ele>
        <time>2022-08-05T09:17:58Z</time>
      </trkpt>
      <trkpt lat="44.62127" lon="2.95476">
        <ele>1225.1</ele>
        <time>2022-08-05T09:18:00Z</time>
      </trkpt>
      <trkpt lat="44.62135" lon="2.95486">
        <ele>1224.5</ele>
        <time>2022-08-05T09:18:06Z</time>
      </trkpt>
      <trkpt lat="44.62137" lon="2.95489">
        <ele>1224.4</ele>
        <time>2022-08-05T09:18:08Z</time>
      </trkpt>
      <trkpt lat="44.62138" lon="2.9549">
        <ele>1224.4</ele>
        <time>2022-08-05T09:18:09Z</time>
      </trkpt>
      <trkpt lat="44.62139" lon="2.95492">
        <ele>1224.3</ele>
        <time>2022-08-05T09:18:10Z</time>
      </trkpt>
      <trkpt lat="44.62142" lon="2.95494">
        <ele>1224.1</ele>
        <time>2022-08-05T09:18:12Z</time>
      </trkpt>
      <trkpt lat="44.62146" lon="2.955">
        <ele>1223.9</ele>
        <time>2022-08-05T09:18:16Z</time>
      </trkpt>
      <trkpt lat="44.62148" lon="2.955">
        <ele>1223.8</ele>
        <time>2022-08-05T09:18:17Z</time>
      </trkpt>
      <trkpt lat="44.62153" lon="2.95505">
        <ele>1223.2</ele>
        <time>2022-08-05T09:18:21Z</time>
      </trkpt>
      <trkpt lat="44.62154" lon="2.95506">
        <ele>1223.2</ele>
        <time>2022-08-05T09:18:22Z</time>
      </trkpt>
      <trkpt lat="44.62158" lon="2.9551">
        <ele>1223</ele>
        <time>2022-08-05T09:18:25Z</time>
      </trkpt>
      <trkpt lat="44.6216" lon="2.95512">
        <ele>1222.7</ele>
        <time>2022-08-05T09:18:27Z</time>
      </trkpt>
      <trkpt lat="44.62164" lon="2.95515">
        <ele>1222.5</ele>
        <time>2022-08-05T09:18:30Z</time>
      </trkpt>
      <trkpt lat="44.62166" lon="2.95517">
        <ele>1222.3</ele>
        <time>2022-08-05T09:18:31Z</time>
      </trkpt>
      <trkpt lat="44.62167" lon="2.95517">
        <ele>1222.2</ele>
        <time>2022-08-05T09:18:32Z</time>
      </trkpt>
      <trkpt lat="44.62171" lon="2.95521">
        <ele>1221.9</ele>
        <time>2022-08-05T09:18:35Z</time>
      </trkpt>
      <trkpt lat="44.62174" lon="2.95524">
        <ele>1221.6</ele>
        <time>2022-08-05T09:18:38Z</time>
      </trkpt>
      <trkpt lat="44.62175" lon="2.95525">
        <ele>1221.5</ele>
        <time>2022-08-05T09:18:39Z</time>
      </trkpt>
      <trkpt lat="44.62177" lon="2.95527">
        <ele>1221.4</ele>
        <time>2022-08-05T09:18:41Z</time>
      </trkpt>
      <trkpt lat="44.62183" lon="2.95531">
        <ele>1221</ele>
        <time>2022-08-05T09:18:45Z</time>
      </trkpt>
      <trkpt lat="44.62186" lon="2.95534">
        <ele>1220.9</ele>
        <time>2022-08-05T09:18:47Z</time>
      </trkpt>
      <trkpt lat="44.62187" lon="2.95535">
        <ele>1220.9</ele>
        <time>2022-08-05T09:18:48Z</time>
      </trkpt>
      <trkpt lat="44.62195" lon="2.95545">
        <ele>1220.7</ele>
        <time>2022-08-05T09:18:56Z</time>
      </trkpt>
      <trkpt lat="44.62198" lon="2.95547">
        <ele>1220.5</ele>
        <time>2022-08-05T09:18:58Z</time>
      </trkpt>
      <trkpt lat="44.62209" lon="2.95558">
        <ele>1219.6</ele>
        <time>2022-08-05T09:19:05Z</time>
      </trkpt>
      <trkpt lat="44.62212" lon="2.95561">
        <ele>1219.3</ele>
        <time>2022-08-05T09:19:07Z</time>
      </trkpt>
      <trkpt lat="44.62215" lon="2.95567">
        <ele>1219.2</ele>
        <time>2022-08-05T09:19:11Z</time>
      </trkpt>
      <trkpt lat="44.62218" lon="2.95572">
        <ele>1219</ele>
        <time>2022-08-05T09:19:14Z</time>
      </trkpt>
      <trkpt lat="44.62222" lon="2.95576">
        <ele>1218.6</ele>
        <time>2022-08-05T09:19:17Z</time>
      </trkpt>
      <trkpt lat="44.62225" lon="2.95583">
        <ele>1218.4</ele>
        <time>2022-08-05T09:19:21Z</time>
      </trkpt>
      <trkpt lat="44.62226" lon="2.95584">
        <ele>1218.4</ele>
        <time>2022-08-05T09:19:22Z</time>
      </trkpt>
      <trkpt lat="44.62226" lon="2.95586">
        <ele>1218.4</ele>
        <time>2022-08-05T09:19:23Z</time>
      </trkpt>
      <trkpt lat="44.62233" lon="2.95596">
        <ele>1218</ele>
        <time>2022-08-05T09:19:29Z</time>
      </trkpt>
      <trkpt lat="44.62236" lon="2.95601">
        <ele>1217.9</ele>
        <time>2022-08-05T09:19:32Z</time>
      </trkpt>
      <trkpt lat="44.62243" lon="2.95611">
        <ele>1217.6</ele>
        <time>2022-08-05T09:19:38Z</time>
      </trkpt>
      <trkpt lat="44.62244" lon="2.95613">
        <ele>1217.5</ele>
        <time>2022-08-05T09:19:39Z</time>
      </trkpt>
      <trkpt lat="44.62244" lon="2.95615">
        <ele>1217.5</ele>
        <time>2022-08-05T09:19:40Z</time>
      </trkpt>
      <trkpt lat="44.62248" lon="2.95621">
        <ele>1217.1</ele>
        <time>2022-08-05T09:19:44Z</time>
      </trkpt>
      <trkpt lat="44.62249" lon="2.95623">
        <ele>1217.1</ele>
        <time>2022-08-05T09:19:45Z</time>
      </trkpt>
      <trkpt lat="44.6225" lon="2.95625">
        <ele>1217</ele>
        <time>2022-08-05T09:19:46Z</time>
      </trkpt>
      <trkpt lat="44.62252" lon="2.95629">
        <ele>1216.8</ele>
        <time>2022-08-05T09:19:48Z</time>
      </trkpt>
      <trkpt lat="44.62254" lon="2.95633">
        <ele>1216.7</ele>
        <time>2022-08-05T09:19:50Z</time>
      </trkpt>
      <trkpt lat="44.62255" lon="2.95637">
        <ele>1216.7</ele>
        <time>2022-08-05T09:19:52Z</time>
      </trkpt>
      <trkpt lat="44.62255" lon="2.95639">
        <ele>1216.7</ele>
        <time>2022-08-05T09:19:53Z</time>
      </trkpt>
      <trkpt lat="44.62258" lon="2.95644">
        <ele>1216.8</ele>
        <time>2022-08-05T09:19:56Z</time>
      </trkpt>
      <trkpt lat="44.62263" lon="2.9565">
        <ele>1216.2</ele>
        <time>2022-08-05T09:19:59Z</time>
      </trkpt>
      <trkpt lat="44.62266" lon="2.95656">
        <ele>1216</ele>
        <time>2022-08-05T09:20:02Z</time>
      </trkpt>
      <trkpt lat="44.62269" lon="2.9566">
        <ele>1215.9</ele>
        <time>2022-08-05T09:20:05Z</time>
      </trkpt>
      <trkpt lat="44.6227" lon="2.95662">
        <ele>1215.7</ele>
        <time>2022-08-05T09:20:06Z</time>
      </trkpt>
      <trkpt lat="44.62273" lon="2.95669">
        <ele>1215.6</ele>
        <time>2022-08-05T09:20:10Z</time>
      </trkpt>
      <trkpt lat="44.62275" lon="2.95673">
        <ele>1215.6</ele>
        <time>2022-08-05T09:20:12Z</time>
      </trkpt>
      <trkpt lat="44.62281" lon="2.95686">
        <ele>1215.3</ele>
        <time>2022-08-05T09:20:19Z</time>
      </trkpt>
      <trkpt lat="44.62283" lon="2.95694">
        <ele>1215.6</ele>
        <time>2022-08-05T09:20:23Z</time>
      </trkpt>
      <trkpt lat="44.62283" lon="2.95696">
        <ele>1215.8</ele>
        <time>2022-08-05T09:20:24Z</time>
      </trkpt>
      <trkpt lat="44.62284" lon="2.95697">
        <ele>1216</ele>
        <time>2022-08-05T09:20:25Z</time>
      </trkpt>
      <trkpt lat="44.62285" lon="2.957">
        <ele>1216.1</ele>
        <time>2022-08-05T09:20:27Z</time>
      </trkpt>
      <trkpt lat="44.62287" lon="2.95702">
        <ele>1215.9</ele>
        <time>2022-08-05T09:20:29Z</time>
      </trkpt>
      <trkpt lat="44.62291" lon="2.95707">
        <ele>1215.7</ele>
        <time>2022-08-05T09:20:33Z</time>
      </trkpt>
      <trkpt lat="44.62295" lon="2.95712">
        <ele>1215.4</ele>
        <time>2022-08-05T09:20:36Z</time>
      </trkpt>
      <trkpt lat="44.62299" lon="2.95716">
        <ele>1214.9</ele>
        <time>2022-08-05T09:20:39Z</time>
      </trkpt>
      <trkpt lat="44.62304" lon="2.95718">
        <ele>1213.9</ele>
        <time>2022-08-05T09:20:42Z</time>
      </trkpt>
      <trkpt lat="44.62309" lon="2.95722">
        <ele>1213.2</ele>
        <time>2022-08-05T09:20:46Z</time>
      </trkpt>
      <trkpt lat="44.62312" lon="2.95724">
        <ele>1212.7</ele>
        <time>2022-08-05T09:20:49Z</time>
      </trkpt>
      <trkpt lat="44.62315" lon="2.95725">
        <ele>1212.1</ele>
        <time>2022-08-05T09:20:52Z</time>
      </trkpt>
      <trkpt lat="44.62318" lon="2.95725">
        <ele>1211.5</ele>
        <time>2022-08-05T09:20:54Z</time>
      </trkpt>
      <trkpt lat="44.62318" lon="2.95726">
        <ele>1211.4</ele>
        <time>2022-08-05T09:20:55Z</time>
      </trkpt>
      <trkpt lat="44.62319" lon="2.95726">
        <ele>1211.4</ele>
        <time>2022-08-05T09:20:56Z</time>
      </trkpt>
      <trkpt lat="44.6232" lon="2.95727">
        <ele>1211.2</ele>
        <time>2022-08-05T09:20:57Z</time>
      </trkpt>
      <trkpt lat="44.62321" lon="2.95728">
        <ele>1211</ele>
        <time>2022-08-05T09:20:58Z</time>
      </trkpt>
      <trkpt lat="44.62323" lon="2.95729">
        <ele>1210.9</ele>
        <time>2022-08-05T09:20:59Z</time>
      </trkpt>
      <trkpt lat="44.62325" lon="2.95732">
        <ele>1210.8</ele>
        <time>2022-08-05T09:21:01Z</time>
      </trkpt>
      <trkpt lat="44.62327" lon="2.95734">
        <ele>1210.7</ele>
        <time>2022-08-05T09:21:03Z</time>
      </trkpt>
      <trkpt lat="44.62329" lon="2.95735">
        <ele>1210.5</ele>
        <time>2022-08-05T09:21:05Z</time>
      </trkpt>
      <trkpt lat="44.6233" lon="2.95736">
        <ele>1210.4</ele>
        <time>2022-08-05T09:21:06Z</time>
      </trkpt>
      <trkpt lat="44.62333" lon="2.95739">
        <ele>1210</ele>
        <time>2022-08-05T09:21:08Z</time>
      </trkpt>
      <trkpt lat="44.6234" lon="2.95742">
        <ele>1209.1</ele>
        <time>2022-08-05T09:21:11Z</time>
      </trkpt>
      <trkpt lat="44.62343" lon="2.95746">
        <ele>1209.1</ele>
        <time>2022-08-05T09:21:14Z</time>
      </trkpt>
      <trkpt lat="44.62344" lon="2.95747">
        <ele>1209.1</ele>
        <time>2022-08-05T09:21:15Z</time>
      </trkpt>
      <trkpt lat="44.62348" lon="2.95751">
        <ele>1209.1</ele>
        <time>2022-08-05T09:21:18Z</time>
      </trkpt>
      <trkpt lat="44.62354" lon="2.95757">
        <ele>1208.9</ele>
        <time>2022-08-05T09:21:22Z</time>
      </trkpt>
      <trkpt lat="44.62355" lon="2.95758">
        <ele>1208.7</ele>
        <time>2022-08-05T09:21:23Z</time>
      </trkpt>
      <trkpt lat="44.62358" lon="2.95761">
        <ele>1208.6</ele>
        <time>2022-08-05T09:21:25Z</time>
      </trkpt>
      <trkpt lat="44.62362" lon="2.95765">
        <ele>1208.4</ele>
        <time>2022-08-05T09:21:28Z</time>
      </trkpt>
      <trkpt lat="44.62365" lon="2.95768">
        <ele>1208.3</ele>
        <time>2022-08-05T09:21:30Z</time>
      </trkpt>
      <trkpt lat="44.62373" lon="2.95775">
        <ele>1208.1</ele>
        <time>2022-08-05T09:21:35Z</time>
      </trkpt>
      <trkpt lat="44.62375" lon="2.95778">
        <ele>1208.1</ele>
        <time>2022-08-05T09:21:37Z</time>
      </trkpt>
      <trkpt lat="44.62379" lon="2.95782">
        <ele>1208</ele>
        <time>2022-08-05T09:21:41Z</time>
      </trkpt>
      <trkpt lat="44.62382" lon="2.95787">
        <ele>1208.2</ele>
        <time>2022-08-05T09:21:44Z</time>
      </trkpt>
      <trkpt lat="44.62388" lon="2.95793">
        <ele>1208.1</ele>
        <time>2022-08-05T09:21:49Z</time>
      </trkpt>
      <trkpt lat="44.62389" lon="2.95795">
        <ele>1208</ele>
        <time>2022-08-05T09:21:50Z</time>
      </trkpt>
      <trkpt lat="44.62392" lon="2.95797">
        <ele>1207.7</ele>
        <time>2022-08-05T09:21:52Z</time>
      </trkpt>
      <trkpt lat="44.62397" lon="2.95802">
        <ele>1207.4</ele>
        <time>2022-08-05T09:21:57Z</time>
      </trkpt>
      <trkpt lat="44.62398" lon="2.95803">
        <ele>1207.4</ele>
        <time>2022-08-05T09:21:58Z</time>
      </trkpt>
      <trkpt lat="44.62402" lon="2.95809">
        <ele>1207.3</ele>
        <time>2022-08-05T09:22:02Z</time>
      </trkpt>
      <trkpt lat="44.62403" lon="2.9581">
        <ele>1207.3</ele>
        <time>2022-08-05T09:22:03Z</time>
      </trkpt>
      <trkpt lat="44.62405" lon="2.95811">
        <ele>1207</ele>
        <time>2022-08-05T09:22:04Z</time>
      </trkpt>
      <trkpt lat="44.62406" lon="2.95812">
        <ele>1207</ele>
        <time>2022-08-05T09:22:05Z</time>
      </trkpt>
      <trkpt lat="44.62412" lon="2.95821">
        <ele>1207</ele>
        <time>2022-08-05T09:22:10Z</time>
      </trkpt>
      <trkpt lat="44.62415" lon="2.95824">
        <ele>1207</ele>
        <time>2022-08-05T09:22:11Z</time>
      </trkpt>
      <trkpt lat="44.62422" lon="2.95831">
        <ele>1206.4</ele>
        <time>2022-08-05T09:22:15Z</time>
      </trkpt>
      <trkpt lat="44.62425" lon="2.95836">
        <ele>1206.3</ele>
        <time>2022-08-05T09:22:17Z</time>
      </trkpt>
      <trkpt lat="44.62427" lon="2.95837">
        <ele>1206.1</ele>
        <time>2022-08-05T09:22:18Z</time>
      </trkpt>
      <trkpt lat="44.62428" lon="2.95837">
        <ele>1205.9</ele>
        <time>2022-08-05T09:22:19Z</time>
      </trkpt>
      <trkpt lat="44.62431" lon="2.95838">
        <ele>1205.1</ele>
        <time>2022-08-05T09:22:23Z</time>
      </trkpt>
      <trkpt lat="44.62431" lon="2.95837">
        <ele>1205.1</ele>
        <time>2022-08-05T09:22:24Z</time>
      </trkpt>
      <trkpt lat="44.62431" lon="2.95837">
        <ele>1205</ele>
        <time>2022-08-05T09:22:25Z</time>
      </trkpt>
      <trkpt lat="44.62431" lon="2.9583">
        <ele>1203.7</ele>
        <time>2022-08-05T09:22:28Z</time>
      </trkpt>
      <trkpt lat="44.62432" lon="2.95827">
        <ele>1203.2</ele>
        <time>2022-08-05T09:22:30Z</time>
      </trkpt>
      <trkpt lat="44.62431" lon="2.95827">
        <ele>1203.2</ele>
        <time>2022-08-05T09:22:31Z</time>
      </trkpt>
      <trkpt lat="44.6243" lon="2.95827">
        <ele>1203.5</ele>
        <time>2022-08-05T09:22:33Z</time>
      </trkpt>
      <trkpt lat="44.62428" lon="2.95826">
        <ele>1203.7</ele>
        <time>2022-08-05T09:22:34Z</time>
      </trkpt>
      <trkpt lat="44.62423" lon="2.95822">
        <ele>1204.4</ele>
        <time>2022-08-05T09:22:37Z</time>
      </trkpt>
      <trkpt lat="44.62419" lon="2.95819">
        <ele>1204.8</ele>
        <time>2022-08-05T09:22:40Z</time>
      </trkpt>
      <trkpt lat="44.62413" lon="2.9581">
        <ele>1204.7</ele>
        <time>2022-08-05T09:22:45Z</time>
      </trkpt>
      <trkpt lat="44.62412" lon="2.95806">
        <ele>1204.4</ele>
        <time>2022-08-05T09:22:47Z</time>
      </trkpt>
      <trkpt lat="44.62411" lon="2.95805">
        <ele>1204.3</ele>
        <time>2022-08-05T09:22:48Z</time>
      </trkpt>
      <trkpt lat="44.6241" lon="2.95803">
        <ele>1204.3</ele>
        <time>2022-08-05T09:22:49Z</time>
      </trkpt>
      <trkpt lat="44.62406" lon="2.95797">
        <ele>1204.5</ele>
        <time>2022-08-05T09:22:53Z</time>
      </trkpt>
      <trkpt lat="44.62403" lon="2.95793">
        <ele>1204.5</ele>
        <time>2022-08-05T09:22:56Z</time>
      </trkpt>
      <trkpt lat="44.62401" lon="2.95787">
        <ele>1203.9</ele>
        <time>2022-08-05T09:23:00Z</time>
      </trkpt>
      <trkpt lat="44.624" lon="2.95785">
        <ele>1203.9</ele>
        <time>2022-08-05T09:23:01Z</time>
      </trkpt>
      <trkpt lat="44.62398" lon="2.95782">
        <ele>1203.7</ele>
        <time>2022-08-05T09:23:03Z</time>
      </trkpt>
      <trkpt lat="44.62393" lon="2.95773">
        <ele>1203.1</ele>
        <time>2022-08-05T09:23:08Z</time>
      </trkpt>
      <trkpt lat="44.62393" lon="2.95772">
        <ele>1202.9</ele>
        <time>2022-08-05T09:23:09Z</time>
      </trkpt>
      <trkpt lat="44.62392" lon="2.9577">
        <ele>1202.7</ele>
        <time>2022-08-05T09:23:10Z</time>
      </trkpt>
      <trkpt lat="44.62391" lon="2.95768">
        <ele>1202.4</ele>
        <time>2022-08-05T09:23:11Z</time>
      </trkpt>
      <trkpt lat="44.62391" lon="2.95766">
        <ele>1202.1</ele>
        <time>2022-08-05T09:23:12Z</time>
      </trkpt>
      <trkpt lat="44.62391" lon="2.95762">
        <ele>1201.3</ele>
        <time>2022-08-05T09:23:15Z</time>
      </trkpt>
      <trkpt lat="44.62391" lon="2.95761">
        <ele>1201</ele>
        <time>2022-08-05T09:23:16Z</time>
      </trkpt>
      <trkpt lat="44.62391" lon="2.9576">
        <ele>1200.8</ele>
        <time>2022-08-05T09:23:17Z</time>
      </trkpt>
      <trkpt lat="44.6239" lon="2.95758">
        <ele>1200.5</ele>
        <time>2022-08-05T09:23:18Z</time>
      </trkpt>
      <trkpt lat="44.62389" lon="2.95753">
        <ele>1199.7</ele>
        <time>2022-08-05T09:23:20Z</time>
      </trkpt>
      <trkpt lat="44.62387" lon="2.95749">
        <ele>1199.4</ele>
        <time>2022-08-05T09:23:22Z</time>
      </trkpt>
      <trkpt lat="44.62385" lon="2.95746">
        <ele>1199.3</ele>
        <time>2022-08-05T09:23:25Z</time>
      </trkpt>
      <trkpt lat="44.62385" lon="2.95745">
        <ele>1199.2</ele>
        <time>2022-08-05T09:23:26Z</time>
      </trkpt>
      <trkpt lat="44.62385" lon="2.95743">
        <ele>1198.9</ele>
        <time>2022-08-05T09:23:27Z</time>
      </trkpt>
      <trkpt lat="44.62384" lon="2.95737">
        <ele>1198.4</ele>
        <time>2022-08-05T09:23:32Z</time>
      </trkpt>
      <trkpt lat="44.62383" lon="2.95737">
        <ele>1198.4</ele>
        <time>2022-08-05T09:23:33Z</time>
      </trkpt>
      <trkpt lat="44.62382" lon="2.95734">
        <ele>1198.2</ele>
        <time>2022-08-05T09:23:36Z</time>
      </trkpt>
      <trkpt lat="44.62382" lon="2.95732">
        <ele>1197.9</ele>
        <time>2022-08-05T09:23:38Z</time>
      </trkpt>
      <trkpt lat="44.62382" lon="2.95731">
        <ele>1197.9</ele>
        <time>2022-08-05T09:23:40Z</time>
      </trkpt>
      <trkpt lat="44.62382" lon="2.9573">
        <ele>1197.8</ele>
        <time>2022-08-05T09:23:41Z</time>
      </trkpt>
      <trkpt lat="44.62381" lon="2.9573">
        <ele>1198</ele>
        <time>2022-08-05T09:23:44Z</time>
      </trkpt>
      <trkpt lat="44.62381" lon="2.95731">
        <ele>1198.2</ele>
        <time>2022-08-05T09:23:46Z</time>
      </trkpt>
      <trkpt lat="44.6238" lon="2.95731">
        <ele>1198.2</ele>
        <time>2022-08-05T09:23:47Z</time>
      </trkpt>
      <trkpt lat="44.62381" lon="2.95732">
        <ele>1198.2</ele>
        <time>2022-08-05T09:23:48Z</time>
      </trkpt>
      <trkpt lat="44.62383" lon="2.95733">
        <ele>1198</ele>
        <time>2022-08-05T09:23:51Z</time>
      </trkpt>
      <trkpt lat="44.62383" lon="2.95732">
        <ele>1197.9</ele>
        <time>2022-08-05T09:23:52Z</time>
      </trkpt>
      <trkpt lat="44.62381" lon="2.95729">
        <ele>1197.8</ele>
        <time>2022-08-05T09:23:55Z</time>
      </trkpt>
      <trkpt lat="44.6238" lon="2.95727">
        <ele>1197.7</ele>
        <time>2022-08-05T09:23:56Z</time>
      </trkpt>
      <trkpt lat="44.6238" lon="2.95726">
        <ele>1197.7</ele>
        <time>2022-08-05T09:23:57Z</time>
      </trkpt>
      <trkpt lat="44.62379" lon="2.95725">
        <ele>1197.6</ele>
        <time>2022-08-05T09:23:58Z</time>
      </trkpt>
      <trkpt lat="44.62379" lon="2.95724">
        <ele>1197.5</ele>
        <time>2022-08-05T09:23:59Z</time>
      </trkpt>
      <trkpt lat="44.62378" lon="2.95723">
        <ele>1197.4</ele>
        <time>2022-08-05T09:24:00Z</time>
      </trkpt>
      <trkpt lat="44.62378" lon="2.95722">
        <ele>1197.3</ele>
        <time>2022-08-05T09:24:01Z</time>
      </trkpt>
      <trkpt lat="44.62377" lon="2.9572">
        <ele>1197.2</ele>
        <time>2022-08-05T09:24:03Z</time>
      </trkpt>
      <trkpt lat="44.62374" lon="2.95712">
        <ele>1196.6</ele>
        <time>2022-08-05T09:24:08Z</time>
      </trkpt>
      <trkpt lat="44.62372" lon="2.95709">
        <ele>1196.4</ele>
        <time>2022-08-05T09:24:10Z</time>
      </trkpt>
      <trkpt lat="44.62372" lon="2.95708">
        <ele>1196.3</ele>
        <time>2022-08-05T09:24:11Z</time>
      </trkpt>
      <trkpt lat="44.62372" lon="2.95705">
        <ele>1195.9</ele>
        <time>2022-08-05T09:24:13Z</time>
      </trkpt>
      <trkpt lat="44.62372" lon="2.95703">
        <ele>1195.5</ele>
        <time>2022-08-05T09:24:15Z</time>
      </trkpt>
      <trkpt lat="44.62372" lon="2.95702">
        <ele>1195.3</ele>
        <time>2022-08-05T09:24:16Z</time>
      </trkpt>
      <trkpt lat="44.62373" lon="2.95698">
        <ele>1194.4</ele>
        <time>2022-08-05T09:24:19Z</time>
      </trkpt>
      <trkpt lat="44.62374" lon="2.95697">
        <ele>1194.2</ele>
        <time>2022-08-05T09:24:20Z</time>
      </trkpt>
      <trkpt lat="44.62374" lon="2.95695">
        <ele>1193.8</ele>
        <time>2022-08-05T09:24:23Z</time>
      </trkpt>
      <trkpt lat="44.62373" lon="2.95695">
        <ele>1193.9</ele>
        <time>2022-08-05T09:24:25Z</time>
      </trkpt>
      <trkpt lat="44.62372" lon="2.95694">
        <ele>1193.9</ele>
        <time>2022-08-05T09:24:26Z</time>
      </trkpt>
      <trkpt lat="44.62372" lon="2.95693">
        <ele>1193.9</ele>
        <time>2022-08-05T09:24:28Z</time>
      </trkpt>
      <trkpt lat="44.62373" lon="2.95693">
        <ele>1193.6</ele>
        <time>2022-08-05T09:24:30Z</time>
      </trkpt>
      <trkpt lat="44.62374" lon="2.95693">
        <ele>1193.4</ele>
        <time>2022-08-05T09:24:31Z</time>
      </trkpt>
      <trkpt lat="44.62376" lon="2.95693">
        <ele>1193.1</ele>
        <time>2022-08-05T09:24:32Z</time>
      </trkpt>
      <trkpt lat="44.62378" lon="2.95694">
        <ele>1192.9</ele>
        <time>2022-08-05T09:24:33Z</time>
      </trkpt>
      <trkpt lat="44.62381" lon="2.95695">
        <ele>1192.6</ele>
        <time>2022-08-05T09:24:37Z</time>
      </trkpt>
      <trkpt lat="44.62382" lon="2.95696">
        <ele>1192.4</ele>
        <time>2022-08-05T09:24:39Z</time>
      </trkpt>
      <trkpt lat="44.62385" lon="2.95696">
        <ele>1192.1</ele>
        <time>2022-08-05T09:24:41Z</time>
      </trkpt>
      <trkpt lat="44.62386" lon="2.95697">
        <ele>1192</ele>
        <time>2022-08-05T09:24:42Z</time>
      </trkpt>
      <trkpt lat="44.62386" lon="2.95698">
        <ele>1192</ele>
        <time>2022-08-05T09:24:43Z</time>
      </trkpt>
      <trkpt lat="44.62387" lon="2.95699">
        <ele>1192</ele>
        <time>2022-08-05T09:24:44Z</time>
      </trkpt>
      <trkpt lat="44.62389" lon="2.95701">
        <ele>1191.9</ele>
        <time>2022-08-05T09:24:46Z</time>
      </trkpt>
      <trkpt lat="44.62389" lon="2.95702">
        <ele>1191.9</ele>
        <time>2022-08-05T09:24:47Z</time>
      </trkpt>
      <trkpt lat="44.62391" lon="2.95702">
        <ele>1191.8</ele>
        <time>2022-08-05T09:24:49Z</time>
      </trkpt>
      <trkpt lat="44.62393" lon="2.95703">
        <ele>1191.2</ele>
        <time>2022-08-05T09:24:52Z</time>
      </trkpt>
      <trkpt lat="44.62394" lon="2.95703">
        <ele>1191</ele>
        <time>2022-08-05T09:24:53Z</time>
      </trkpt>
      <trkpt lat="44.62395" lon="2.95702">
        <ele>1190.8</ele>
        <time>2022-08-05T09:24:54Z</time>
      </trkpt>
      <trkpt lat="44.62396" lon="2.95703">
        <ele>1190.7</ele>
        <time>2022-08-05T09:24:55Z</time>
      </trkpt>
      <trkpt lat="44.62397" lon="2.95703">
        <ele>1190.4</ele>
        <time>2022-08-05T09:24:56Z</time>
      </trkpt>
      <trkpt lat="44.624" lon="2.95704">
        <ele>1189.9</ele>
        <time>2022-08-05T09:24:58Z</time>
      </trkpt>
      <trkpt lat="44.62401" lon="2.95703">
        <ele>1189.6</ele>
        <time>2022-08-05T09:24:59Z</time>
      </trkpt>
      <trkpt lat="44.62402" lon="2.95704">
        <ele>1189.5</ele>
        <time>2022-08-05T09:25:01Z</time>
      </trkpt>
      <trkpt lat="44.62402" lon="2.95704">
        <ele>1189.5</ele>
        <time>2022-08-05T09:25:03Z</time>
      </trkpt>
      <trkpt lat="44.62402" lon="2.95703">
        <ele>1189.4</ele>
        <time>2022-08-05T09:25:04Z</time>
      </trkpt>
      <trkpt lat="44.62404" lon="2.95702">
        <ele>1188.8</ele>
        <time>2022-08-05T09:25:07Z</time>
      </trkpt>
      <trkpt lat="44.62405" lon="2.95702">
        <ele>1188.5</ele>
        <time>2022-08-05T09:25:08Z</time>
      </trkpt>
      <trkpt lat="44.62407" lon="2.95702">
        <ele>1188.2</ele>
        <time>2022-08-05T09:25:09Z</time>
      </trkpt>
      <trkpt lat="44.62409" lon="2.95702">
        <ele>1187.6</ele>
        <time>2022-08-05T09:25:11Z</time>
      </trkpt>
      <trkpt lat="44.62413" lon="2.95703">
        <ele>1187.1</ele>
        <time>2022-08-05T09:25:13Z</time>
      </trkpt>
      <trkpt lat="44.62413" lon="2.95703">
        <ele>1187</ele>
        <time>2022-08-05T09:25:14Z</time>
      </trkpt>
      <trkpt lat="44.62413" lon="2.95703">
        <ele>1186.9</ele>
        <time>2022-08-05T09:25:15Z</time>
      </trkpt>
      <trkpt lat="44.62413" lon="2.95704">
        <ele>1187.1</ele>
        <time>2022-08-05T09:25:19Z</time>
      </trkpt>
      <trkpt lat="44.62413" lon="2.95703">
        <ele>1187.1</ele>
        <time>2022-08-05T09:25:23Z</time>
      </trkpt>
      <trkpt lat="44.62412" lon="2.95702">
        <ele>1187</ele>
        <time>2022-08-05T09:25:26Z</time>
      </trkpt>
      <trkpt lat="44.62412" lon="2.95702">
        <ele>1187.1</ele>
        <time>2022-08-05T09:25:28Z</time>
      </trkpt>
      <trkpt lat="44.62412" lon="2.95703">
        <ele>1187.1</ele>
        <time>2022-08-05T09:25:29Z</time>
      </trkpt>
      <trkpt lat="44.62416" lon="2.95704">
        <ele>1186.4</ele>
        <time>2022-08-05T09:25:35Z</time>
      </trkpt>
      <trkpt lat="44.62418" lon="2.95704">
        <ele>1186.1</ele>
        <time>2022-08-05T09:25:37Z</time>
      </trkpt>
      <trkpt lat="44.6242" lon="2.95705">
        <ele>1186</ele>
        <time>2022-08-05T09:25:39Z</time>
      </trkpt>
      <trkpt lat="44.62427" lon="2.95706">
        <ele>1184.9</ele>
        <time>2022-08-05T09:25:46Z</time>
      </trkpt>
      <trkpt lat="44.62434" lon="2.95709">
        <ele>1184</ele>
        <time>2022-08-05T09:25:51Z</time>
      </trkpt>
      <trkpt lat="44.62435" lon="2.95709">
        <ele>1183.8</ele>
        <time>2022-08-05T09:25:52Z</time>
      </trkpt>
      <trkpt lat="44.62439" lon="2.95713">
        <ele>1183.7</ele>
        <time>2022-08-05T09:25:54Z</time>
      </trkpt>
      <trkpt lat="44.62442" lon="2.95717">
        <ele>1183.8</ele>
        <time>2022-08-05T09:25:56Z</time>
      </trkpt>
      <trkpt lat="44.62445" lon="2.95722">
        <ele>1183.9</ele>
        <time>2022-08-05T09:25:59Z</time>
      </trkpt>
      <trkpt lat="44.62452" lon="2.95723">
        <ele>1182.8</ele>
        <time>2022-08-05T09:26:04Z</time>
      </trkpt>
      <trkpt lat="44.62455" lon="2.95725">
        <ele>1182.5</ele>
        <time>2022-08-05T09:26:06Z</time>
      </trkpt>
      <trkpt lat="44.62456" lon="2.95726">
        <ele>1182.4</ele>
        <time>2022-08-05T09:26:07Z</time>
      </trkpt>
      <trkpt lat="44.62458" lon="2.95726">
        <ele>1182.2</ele>
        <time>2022-08-05T09:26:08Z</time>
      </trkpt>
      <trkpt lat="44.62462" lon="2.95728">
        <ele>1181.7</ele>
        <time>2022-08-05T09:26:12Z</time>
      </trkpt>
      <trkpt lat="44.62464" lon="2.9573">
        <ele>1181.5</ele>
        <time>2022-08-05T09:26:14Z</time>
      </trkpt>
      <trkpt lat="44.62466" lon="2.9573">
        <ele>1181.3</ele>
        <time>2022-08-05T09:26:15Z</time>
      </trkpt>
      <trkpt lat="44.62467" lon="2.9573">
        <ele>1181</ele>
        <time>2022-08-05T09:26:16Z</time>
      </trkpt>
      <trkpt lat="44.62469" lon="2.9573">
        <ele>1180.7</ele>
        <time>2022-08-05T09:26:17Z</time>
      </trkpt>
      <trkpt lat="44.6247" lon="2.95731">
        <ele>1180.6</ele>
        <time>2022-08-05T09:26:18Z</time>
      </trkpt>
      <trkpt lat="44.62472" lon="2.95731">
        <ele>1180.4</ele>
        <time>2022-08-05T09:26:19Z</time>
      </trkpt>
      <trkpt lat="44.62473" lon="2.95731">
        <ele>1180.2</ele>
        <time>2022-08-05T09:26:20Z</time>
      </trkpt>
      <trkpt lat="44.62475" lon="2.95732">
        <ele>1180</ele>
        <time>2022-08-05T09:26:22Z</time>
      </trkpt>
      <trkpt lat="44.62478" lon="2.95733">
        <ele>1179.4</ele>
        <time>2022-08-05T09:26:25Z</time>
      </trkpt>
      <trkpt lat="44.62482" lon="2.95733">
        <ele>1178.6</ele>
        <time>2022-08-05T09:26:28Z</time>
      </trkpt>
      <trkpt lat="44.62488" lon="2.9573">
        <ele>1177</ele>
        <time>2022-08-05T09:26:33Z</time>
      </trkpt>
      <trkpt lat="44.62489" lon="2.95729">
        <ele>1176.7</ele>
        <time>2022-08-05T09:26:34Z</time>
      </trkpt>
      <trkpt lat="44.6249" lon="2.95728">
        <ele>1176.4</ele>
        <time>2022-08-05T09:26:35Z</time>
      </trkpt>
      <trkpt lat="44.62494" lon="2.95726">
        <ele>1175.6</ele>
        <time>2022-08-05T09:26:38Z</time>
      </trkpt>
      <trkpt lat="44.625" lon="2.95721">
        <ele>1173.9</ele>
        <time>2022-08-05T09:26:43Z</time>
      </trkpt>
      <trkpt lat="44.62501" lon="2.95721">
        <ele>1173.6</ele>
        <time>2022-08-05T09:26:44Z</time>
      </trkpt>
      <trkpt lat="44.62506" lon="2.95718">
        <ele>1172.4</ele>
        <time>2022-08-05T09:26:47Z</time>
      </trkpt>
      <trkpt lat="44.6251" lon="2.95713">
        <ele>1171.3</ele>
        <time>2022-08-05T09:26:50Z</time>
      </trkpt>
      <trkpt lat="44.6251" lon="2.95712">
        <ele>1171</ele>
        <time>2022-08-05T09:26:51Z</time>
      </trkpt>
      <trkpt lat="44.62513" lon="2.95707">
        <ele>1170.1</ele>
        <time>2022-08-05T09:26:54Z</time>
      </trkpt>
      <trkpt lat="44.62515" lon="2.95701">
        <ele>1169</ele>
        <time>2022-08-05T09:26:58Z</time>
      </trkpt>
      <trkpt lat="44.62517" lon="2.95695">
        <ele>1168</ele>
        <time>2022-08-05T09:27:01Z</time>
      </trkpt>
      <trkpt lat="44.62518" lon="2.95695">
        <ele>1167.7</ele>
        <time>2022-08-05T09:27:02Z</time>
      </trkpt>
      <trkpt lat="44.62521" lon="2.95694">
        <ele>1167.2</ele>
        <time>2022-08-05T09:27:04Z</time>
      </trkpt>
      <trkpt lat="44.62521" lon="2.95689">
        <ele>1166.8</ele>
        <time>2022-08-05T09:27:08Z</time>
      </trkpt>
      <trkpt lat="44.6252" lon="2.95688">
        <ele>1166.8</ele>
        <time>2022-08-05T09:27:11Z</time>
      </trkpt>
      <trkpt lat="44.6252" lon="2.95689">
        <ele>1166.9</ele>
        <time>2022-08-05T09:27:13Z</time>
      </trkpt>
      <trkpt lat="44.6252" lon="2.95689">
        <ele>1166.9</ele>
        <time>2022-08-05T09:27:16Z</time>
      </trkpt>
      <trkpt lat="44.6252" lon="2.95686">
        <ele>1166.8</ele>
        <time>2022-08-05T09:27:21Z</time>
      </trkpt>
      <trkpt lat="44.62522" lon="2.9568">
        <ele>1166</ele>
        <time>2022-08-05T09:27:27Z</time>
      </trkpt>
      <trkpt lat="44.62523" lon="2.95679">
        <ele>1165.7</ele>
        <time>2022-08-05T09:27:29Z</time>
      </trkpt>
      <trkpt lat="44.62522" lon="2.95673">
        <ele>1165.4</ele>
        <time>2022-08-05T09:27:33Z</time>
      </trkpt>
      <trkpt lat="44.62521" lon="2.95668">
        <ele>1165.1</ele>
        <time>2022-08-05T09:27:36Z</time>
      </trkpt>
      <trkpt lat="44.62521" lon="2.95664">
        <ele>1164.7</ele>
        <time>2022-08-05T09:27:38Z</time>
      </trkpt>
      <trkpt lat="44.62522" lon="2.95657">
        <ele>1164</ele>
        <time>2022-08-05T09:27:43Z</time>
      </trkpt>
      <trkpt lat="44.62523" lon="2.95655">
        <ele>1163.8</ele>
        <time>2022-08-05T09:27:45Z</time>
      </trkpt>
      <trkpt lat="44.62523" lon="2.95646">
        <ele>1163.1</ele>
        <time>2022-08-05T09:27:53Z</time>
      </trkpt>
      <trkpt lat="44.62523" lon="2.95645">
        <ele>1163</ele>
        <time>2022-08-05T09:27:54Z</time>
      </trkpt>
      <trkpt lat="44.62523" lon="2.95644">
        <ele>1162.9</ele>
        <time>2022-08-05T09:27:55Z</time>
      </trkpt>
      <trkpt lat="44.62523" lon="2.95638">
        <ele>1162.5</ele>
        <time>2022-08-05T09:27:59Z</time>
      </trkpt>
      <trkpt lat="44.62523" lon="2.95636">
        <ele>1162.5</ele>
        <time>2022-08-05T09:28:00Z</time>
      </trkpt>
      <trkpt lat="44.62522" lon="2.95633">
        <ele>1162.4</ele>
        <time>2022-08-05T09:28:02Z</time>
      </trkpt>
      <trkpt lat="44.6252" lon="2.95629">
        <ele>1162.4</ele>
        <time>2022-08-05T09:28:06Z</time>
      </trkpt>
      <trkpt lat="44.62519" lon="2.95625">
        <ele>1162.3</ele>
        <time>2022-08-05T09:28:09Z</time>
      </trkpt>
      <trkpt lat="44.62517" lon="2.95622">
        <ele>1162.3</ele>
        <time>2022-08-05T09:28:11Z</time>
      </trkpt>
      <trkpt lat="44.62515" lon="2.95619">
        <ele>1162.3</ele>
        <time>2022-08-05T09:28:13Z</time>
      </trkpt>
      <trkpt lat="44.62513" lon="2.95614">
        <ele>1162.2</ele>
        <time>2022-08-05T09:28:17Z</time>
      </trkpt>
      <trkpt lat="44.62511" lon="2.95611">
        <ele>1162.2</ele>
        <time>2022-08-05T09:28:20Z</time>
      </trkpt>
      <trkpt lat="44.62511" lon="2.95609">
        <ele>1162.2</ele>
        <time>2022-08-05T09:28:21Z</time>
      </trkpt>
      <trkpt lat="44.62507" lon="2.956">
        <ele>1161.9</ele>
        <time>2022-08-05T09:28:26Z</time>
      </trkpt>
      <trkpt lat="44.62507" lon="2.95598">
        <ele>1161.8</ele>
        <time>2022-08-05T09:28:27Z</time>
      </trkpt>
      <trkpt lat="44.62507" lon="2.95595">
        <ele>1161.6</ele>
        <time>2022-08-05T09:28:31Z</time>
      </trkpt>
      <trkpt lat="44.62506" lon="2.95595">
        <ele>1161.7</ele>
        <time>2022-08-05T09:28:32Z</time>
      </trkpt>
      <trkpt lat="44.62506" lon="2.95595">
        <ele>1161.7</ele>
        <time>2022-08-05T09:28:33Z</time>
      </trkpt>
      <trkpt lat="44.62505" lon="2.95595">
        <ele>1161.7</ele>
        <time>2022-08-05T09:28:34Z</time>
      </trkpt>
      <trkpt lat="44.62504" lon="2.95588">
        <ele>1161.3</ele>
        <time>2022-08-05T09:28:37Z</time>
      </trkpt>
      <trkpt lat="44.62504" lon="2.95581">
        <ele>1160.9</ele>
        <time>2022-08-05T09:28:42Z</time>
      </trkpt>
      <trkpt lat="44.62504" lon="2.95578">
        <ele>1160.8</ele>
        <time>2022-08-05T09:28:44Z</time>
      </trkpt>
      <trkpt lat="44.62503" lon="2.95568">
        <ele>1160.5</ele>
        <time>2022-08-05T09:28:51Z</time>
      </trkpt>
      <trkpt lat="44.62502" lon="2.95562">
        <ele>1160.3</ele>
        <time>2022-08-05T09:28:55Z</time>
      </trkpt>
      <trkpt lat="44.62504" lon="2.95558">
        <ele>1160.2</ele>
        <time>2022-08-05T09:28:57Z</time>
      </trkpt>
      <trkpt lat="44.6251" lon="2.95551">
        <ele>1160.3</ele>
        <time>2022-08-05T09:29:03Z</time>
      </trkpt>
      <trkpt lat="44.62514" lon="2.95541">
        <ele>1160.2</ele>
        <time>2022-08-05T09:29:09Z</time>
      </trkpt>
      <trkpt lat="44.62514" lon="2.95538">
        <ele>1160.2</ele>
        <time>2022-08-05T09:29:11Z</time>
      </trkpt>
      <trkpt lat="44.62519" lon="2.95536">
        <ele>1160.5</ele>
        <time>2022-08-05T09:29:15Z</time>
      </trkpt>
      <trkpt lat="44.62524" lon="2.95537">
        <ele>1160.8</ele>
        <time>2022-08-05T09:29:18Z</time>
      </trkpt>
      <trkpt lat="44.62529" lon="2.95533">
        <ele>1161.2</ele>
        <time>2022-08-05T09:29:23Z</time>
      </trkpt>
      <trkpt lat="44.62529" lon="2.95531">
        <ele>1161.2</ele>
        <time>2022-08-05T09:29:24Z</time>
      </trkpt>
      <trkpt lat="44.62532" lon="2.95524">
        <ele>1161.8</ele>
        <time>2022-08-05T09:29:28Z</time>
      </trkpt>
      <trkpt lat="44.62538" lon="2.95517">
        <ele>1163.2</ele>
        <time>2022-08-05T09:29:35Z</time>
      </trkpt>
      <trkpt lat="44.62536" lon="2.95507">
        <ele>1163</ele>
        <time>2022-08-05T09:29:42Z</time>
      </trkpt>
      <trkpt lat="44.62536" lon="2.95492">
        <ele>1162.8</ele>
        <time>2022-08-05T09:29:51Z</time>
      </trkpt>
      <trkpt lat="44.62533" lon="2.95477">
        <ele>1161.7</ele>
        <time>2022-08-05T09:30:00Z</time>
      </trkpt>
      <trkpt lat="44.6253" lon="2.95463">
        <ele>1160.6</ele>
        <time>2022-08-05T09:30:09Z</time>
      </trkpt>
      <trkpt lat="44.62526" lon="2.95453">
        <ele>1159.8</ele>
        <time>2022-08-05T09:30:16Z</time>
      </trkpt>
      <trkpt lat="44.62525" lon="2.95451">
        <ele>1159.7</ele>
        <time>2022-08-05T09:30:17Z</time>
      </trkpt>
      <trkpt lat="44.62524" lon="2.95443">
        <ele>1159.3</ele>
        <time>2022-08-05T09:30:22Z</time>
      </trkpt>
      <trkpt lat="44.62522" lon="2.95436">
        <ele>1158.9</ele>
        <time>2022-08-05T09:30:26Z</time>
      </trkpt>
      <trkpt lat="44.62522" lon="2.95427">
        <ele>1158.7</ele>
        <time>2022-08-05T09:30:31Z</time>
      </trkpt>
      <trkpt lat="44.62522" lon="2.95428">
        <ele>1158.7</ele>
        <time>2022-08-05T09:30:33Z</time>
      </trkpt>
      <trkpt lat="44.6252" lon="2.95415">
        <ele>1158.1</ele>
        <time>2022-08-05T09:30:41Z</time>
      </trkpt>
      <trkpt lat="44.62519" lon="2.95407">
        <ele>1158</ele>
        <time>2022-08-05T09:30:45Z</time>
      </trkpt>
      <trkpt lat="44.62519" lon="2.95403">
        <ele>1157.9</ele>
        <time>2022-08-05T09:30:47Z</time>
      </trkpt>
      <trkpt lat="44.62518" lon="2.95397">
        <ele>1157.7</ele>
        <time>2022-08-05T09:30:50Z</time>
      </trkpt>
      <trkpt lat="44.6252" lon="2.9539">
        <ele>1157.8</ele>
        <time>2022-08-05T09:30:54Z</time>
      </trkpt>
      <trkpt lat="44.62522" lon="2.9537">
        <ele>1158.7</ele>
        <time>2022-08-05T09:31:05Z</time>
      </trkpt>
      <trkpt lat="44.62522" lon="2.95369">
        <ele>1158.8</ele>
        <time>2022-08-05T09:31:06Z</time>
      </trkpt>
      <trkpt lat="44.62524" lon="2.95356">
        <ele>1159.3</ele>
        <time>2022-08-05T09:31:13Z</time>
      </trkpt>
      <trkpt lat="44.62524" lon="2.95351">
        <ele>1159.3</ele>
        <time>2022-08-05T09:31:18Z</time>
      </trkpt>
      <trkpt lat="44.62524" lon="2.95352">
        <ele>1159.4</ele>
        <time>2022-08-05T09:31:19Z</time>
      </trkpt>
      <trkpt lat="44.62525" lon="2.95352">
        <ele>1159.4</ele>
        <time>2022-08-05T09:31:20Z</time>
      </trkpt>
      <trkpt lat="44.62524" lon="2.95348">
        <ele>1159.2</ele>
        <time>2022-08-05T09:31:23Z</time>
      </trkpt>
      <trkpt lat="44.62524" lon="2.95343">
        <ele>1159.2</ele>
        <time>2022-08-05T09:31:25Z</time>
      </trkpt>
      <trkpt lat="44.62522" lon="2.95328">
        <ele>1158.7</ele>
        <time>2022-08-05T09:31:33Z</time>
      </trkpt>
      <trkpt lat="44.62522" lon="2.95312">
        <ele>1158.7</ele>
        <time>2022-08-05T09:31:43Z</time>
      </trkpt>
      <trkpt lat="44.62523" lon="2.95293">
        <ele>1158.4</ele>
        <time>2022-08-05T09:31:53Z</time>
      </trkpt>
      <trkpt lat="44.62528" lon="2.95279">
        <ele>1159</ele>
        <time>2022-08-05T09:32:02Z</time>
      </trkpt>
      <trkpt lat="44.6253" lon="2.95269">
        <ele>1159.2</ele>
        <time>2022-08-05T09:32:08Z</time>
      </trkpt>
      <trkpt lat="44.62532" lon="2.95263">
        <ele>1159.3</ele>
        <time>2022-08-05T09:32:11Z</time>
      </trkpt>
      <trkpt lat="44.62534" lon="2.95258">
        <ele>1159.7</ele>
        <time>2022-08-05T09:32:18Z</time>
      </trkpt>
      <trkpt lat="44.62535" lon="2.95252">
        <ele>1159.6</ele>
        <time>2022-08-05T09:32:22Z</time>
      </trkpt>
      <trkpt lat="44.62535" lon="2.9525">
        <ele>1159.7</ele>
        <time>2022-08-05T09:32:23Z</time>
      </trkpt>
      <trkpt lat="44.62539" lon="2.95233">
        <ele>1159.8</ele>
        <time>2022-08-05T09:32:33Z</time>
      </trkpt>
      <trkpt lat="44.6254" lon="2.9523">
        <ele>1159.9</ele>
        <time>2022-08-05T09:32:36Z</time>
      </trkpt>
      <trkpt lat="44.6254" lon="2.95229">
        <ele>1159.9</ele>
        <time>2022-08-05T09:32:38Z</time>
      </trkpt>
      <trkpt lat="44.62542" lon="2.95212">
        <ele>1159.3</ele>
        <time>2022-08-05T09:32:47Z</time>
      </trkpt>
      <trkpt lat="44.62546" lon="2.95197">
        <ele>1158.5</ele>
        <time>2022-08-05T09:32:56Z</time>
      </trkpt>
      <trkpt lat="44.6255" lon="2.95183">
        <ele>1157.4</ele>
        <time>2022-08-05T09:33:04Z</time>
      </trkpt>
      <trkpt lat="44.62554" lon="2.95169">
        <ele>1156.2</ele>
        <time>2022-08-05T09:33:12Z</time>
      </trkpt>
      <trkpt lat="44.62556" lon="2.95166">
        <ele>1155.9</ele>
        <time>2022-08-05T09:33:14Z</time>
      </trkpt>
      <trkpt lat="44.62561" lon="2.95162">
        <ele>1155.9</ele>
        <time>2022-08-05T09:33:18Z</time>
      </trkpt>
      <trkpt lat="44.62571" lon="2.95152">
        <ele>1155.9</ele>
        <time>2022-08-05T09:33:28Z</time>
      </trkpt>
      <trkpt lat="44.62579" lon="2.95149">
        <ele>1156.3</ele>
        <time>2022-08-05T09:33:34Z</time>
      </trkpt>
      <trkpt lat="44.6258" lon="2.95149">
        <ele>1156.4</ele>
        <time>2022-08-05T09:33:35Z</time>
      </trkpt>
      <trkpt lat="44.62587" lon="2.95146">
        <ele>1156.6</ele>
        <time>2022-08-05T09:33:41Z</time>
      </trkpt>
      <trkpt lat="44.62588" lon="2.95146">
        <ele>1156.6</ele>
        <time>2022-08-05T09:33:42Z</time>
      </trkpt>
      <trkpt lat="44.62588" lon="2.95147">
        <ele>1156.8</ele>
        <time>2022-08-05T09:33:45Z</time>
      </trkpt>
      <trkpt lat="44.62588" lon="2.95147">
        <ele>1156.7</ele>
        <time>2022-08-05T09:33:46Z</time>
      </trkpt>
      <trkpt lat="44.62589" lon="2.95144">
        <ele>1156.3</ele>
        <time>2022-08-05T09:33:48Z</time>
      </trkpt>
      <trkpt lat="44.62592" lon="2.95142">
        <ele>1156.1</ele>
        <time>2022-08-05T09:33:51Z</time>
      </trkpt>
      <trkpt lat="44.62601" lon="2.95139">
        <ele>1156.3</ele>
        <time>2022-08-05T09:33:57Z</time>
      </trkpt>
      <trkpt lat="44.62602" lon="2.95139">
        <ele>1156.4</ele>
        <time>2022-08-05T09:33:58Z</time>
      </trkpt>
      <trkpt lat="44.62603" lon="2.95139">
        <ele>1156.3</ele>
        <time>2022-08-05T09:33:59Z</time>
      </trkpt>
      <trkpt lat="44.62604" lon="2.95138">
        <ele>1156.3</ele>
        <time>2022-08-05T09:34:00Z</time>
      </trkpt>
      <trkpt lat="44.62606" lon="2.95137">
        <ele>1156.3</ele>
        <time>2022-08-05T09:34:02Z</time>
      </trkpt>
      <trkpt lat="44.62607" lon="2.95136">
        <ele>1156.1</ele>
        <time>2022-08-05T09:34:03Z</time>
      </trkpt>
      <trkpt lat="44.62613" lon="2.95133">
        <ele>1155.8</ele>
        <time>2022-08-05T09:34:08Z</time>
      </trkpt>
      <trkpt lat="44.62614" lon="2.95133">
        <ele>1155.8</ele>
        <time>2022-08-05T09:34:09Z</time>
      </trkpt>
      <trkpt lat="44.62616" lon="2.95132">
        <ele>1155.7</ele>
        <time>2022-08-05T09:34:11Z</time>
      </trkpt>
      <trkpt lat="44.62618" lon="2.9513">
        <ele>1155.4</ele>
        <time>2022-08-05T09:34:13Z</time>
      </trkpt>
      <trkpt lat="44.6262" lon="2.95127">
        <ele>1154.8</ele>
        <time>2022-08-05T09:34:16Z</time>
      </trkpt>
      <trkpt lat="44.62623" lon="2.95124">
        <ele>1154.5</ele>
        <time>2022-08-05T09:34:19Z</time>
      </trkpt>
      <trkpt lat="44.62624" lon="2.95124">
        <ele>1154.5</ele>
        <time>2022-08-05T09:34:20Z</time>
      </trkpt>
      <trkpt lat="44.62629" lon="2.95114">
        <ele>1152.9</ele>
        <time>2022-08-05T09:34:26Z</time>
      </trkpt>
      <trkpt lat="44.62631" lon="2.95111">
        <ele>1152.4</ele>
        <time>2022-08-05T09:34:29Z</time>
      </trkpt>
      <trkpt lat="44.62637" lon="2.95106">
        <ele>1151.7</ele>
        <time>2022-08-05T09:34:36Z</time>
      </trkpt>
      <trkpt lat="44.62638" lon="2.95106">
        <ele>1151.7</ele>
        <time>2022-08-05T09:34:37Z</time>
      </trkpt>
      <trkpt lat="44.62638" lon="2.95105">
        <ele>1151.7</ele>
        <time>2022-08-05T09:34:38Z</time>
      </trkpt>
      <trkpt lat="44.6264" lon="2.95104">
        <ele>1151.5</ele>
        <time>2022-08-05T09:34:40Z</time>
      </trkpt>
      <trkpt lat="44.62643" lon="2.95102">
        <ele>1151.3</ele>
        <time>2022-08-05T09:34:43Z</time>
      </trkpt>
      <trkpt lat="44.62647" lon="2.95099">
        <ele>1150.7</ele>
        <time>2022-08-05T09:34:47Z</time>
      </trkpt>
      <trkpt lat="44.62647" lon="2.95099">
        <ele>1150.6</ele>
        <time>2022-08-05T09:34:49Z</time>
      </trkpt>
      <trkpt lat="44.62648" lon="2.95099">
        <ele>1150.7</ele>
        <time>2022-08-05T09:34:50Z</time>
      </trkpt>
      <trkpt lat="44.62652" lon="2.95099">
        <ele>1150.9</ele>
        <time>2022-08-05T09:35:02Z</time>
      </trkpt>
      <trkpt lat="44.62659" lon="2.95096">
        <ele>1150.3</ele>
        <time>2022-08-05T09:35:09Z</time>
      </trkpt>
      <trkpt lat="44.62663" lon="2.95093">
        <ele>1149.9</ele>
        <time>2022-08-05T09:35:12Z</time>
      </trkpt>
      <trkpt lat="44.62666" lon="2.9509">
        <ele>1149.4</ele>
        <time>2022-08-05T09:35:15Z</time>
      </trkpt>
      <trkpt lat="44.62672" lon="2.95088">
        <ele>1149.1</ele>
        <time>2022-08-05T09:35:19Z</time>
      </trkpt>
      <trkpt lat="44.62674" lon="2.95086">
        <ele>1148.6</ele>
        <time>2022-08-05T09:35:21Z</time>
      </trkpt>
      <trkpt lat="44.62675" lon="2.95085">
        <ele>1148.4</ele>
        <time>2022-08-05T09:35:22Z</time>
      </trkpt>
      <trkpt lat="44.62677" lon="2.95083">
        <ele>1147.9</ele>
        <time>2022-08-05T09:35:24Z</time>
      </trkpt>
      <trkpt lat="44.62679" lon="2.95082">
        <ele>1147.7</ele>
        <time>2022-08-05T09:35:26Z</time>
      </trkpt>
      <trkpt lat="44.62688" lon="2.9508">
        <ele>1147.4</ele>
        <time>2022-08-05T09:35:32Z</time>
      </trkpt>
      <trkpt lat="44.6269" lon="2.9508">
        <ele>1147.4</ele>
        <time>2022-08-05T09:35:33Z</time>
      </trkpt>
      <trkpt lat="44.62695" lon="2.95076">
        <ele>1146.6</ele>
        <time>2022-08-05T09:35:38Z</time>
      </trkpt>
      <trkpt lat="44.62695" lon="2.95074">
        <ele>1146.4</ele>
        <time>2022-08-05T09:35:39Z</time>
      </trkpt>
      <trkpt lat="44.62697" lon="2.95071">
        <ele>1145.7</ele>
        <time>2022-08-05T09:35:42Z</time>
      </trkpt>
      <trkpt lat="44.62699" lon="2.95066">
        <ele>1144.8</ele>
        <time>2022-08-05T09:35:46Z</time>
      </trkpt>
      <trkpt lat="44.62701" lon="2.95064">
        <ele>1144.3</ele>
        <time>2022-08-05T09:35:48Z</time>
      </trkpt>
      <trkpt lat="44.62701" lon="2.95062">
        <ele>1144</ele>
        <time>2022-08-05T09:35:49Z</time>
      </trkpt>
      <trkpt lat="44.62701" lon="2.95061">
        <ele>1143.8</ele>
        <time>2022-08-05T09:35:50Z</time>
      </trkpt>
      <trkpt lat="44.62702" lon="2.9506">
        <ele>1143.5</ele>
        <time>2022-08-05T09:35:51Z</time>
      </trkpt>
      <trkpt lat="44.6271" lon="2.95052">
        <ele>1141.9</ele>
        <time>2022-08-05T09:35:59Z</time>
      </trkpt>
      <trkpt lat="44.62716" lon="2.95051">
        <ele>1141.7</ele>
        <time>2022-08-05T09:36:03Z</time>
      </trkpt>
      <trkpt lat="44.62718" lon="2.9505">
        <ele>1141.5</ele>
        <time>2022-08-05T09:36:05Z</time>
      </trkpt>
      <trkpt lat="44.62721" lon="2.95049">
        <ele>1141.3</ele>
        <time>2022-08-05T09:36:07Z</time>
      </trkpt>
      <trkpt lat="44.62725" lon="2.95046">
        <ele>1141.2</ele>
        <time>2022-08-05T09:36:11Z</time>
      </trkpt>
      <trkpt lat="44.62728" lon="2.95044">
        <ele>1141.3</ele>
        <time>2022-08-05T09:36:14Z</time>
      </trkpt>
      <trkpt lat="44.62731" lon="2.95042">
        <ele>1141.3</ele>
        <time>2022-08-05T09:36:16Z</time>
      </trkpt>
      <trkpt lat="44.62733" lon="2.95041">
        <ele>1141.3</ele>
        <time>2022-08-05T09:36:18Z</time>
      </trkpt>
      <trkpt lat="44.62735" lon="2.95038">
        <ele>1141.3</ele>
        <time>2022-08-05T09:36:20Z</time>
      </trkpt>
      <trkpt lat="44.62737" lon="2.95035">
        <ele>1141.2</ele>
        <time>2022-08-05T09:36:23Z</time>
      </trkpt>
      <trkpt lat="44.6274" lon="2.95031">
        <ele>1141.2</ele>
        <time>2022-08-05T09:36:25Z</time>
      </trkpt>
      <trkpt lat="44.62742" lon="2.9503">
        <ele>1141.3</ele>
        <time>2022-08-05T09:36:26Z</time>
      </trkpt>
      <trkpt lat="44.62743" lon="2.9503">
        <ele>1141.4</ele>
        <time>2022-08-05T09:36:27Z</time>
      </trkpt>
      <trkpt lat="44.62745" lon="2.95028">
        <ele>1141.5</ele>
        <time>2022-08-05T09:36:30Z</time>
      </trkpt>
      <trkpt lat="44.62747" lon="2.95026">
        <ele>1141.6</ele>
        <time>2022-08-05T09:36:32Z</time>
      </trkpt>
      <trkpt lat="44.62749" lon="2.95025">
        <ele>1141.9</ele>
        <time>2022-08-05T09:36:35Z</time>
      </trkpt>
      <trkpt lat="44.62751" lon="2.95024">
        <ele>1142.1</ele>
        <time>2022-08-05T09:36:37Z</time>
      </trkpt>
      <trkpt lat="44.62752" lon="2.95023">
        <ele>1142.2</ele>
        <time>2022-08-05T09:36:39Z</time>
      </trkpt>
      <trkpt lat="44.62754" lon="2.95023">
        <ele>1142.6</ele>
        <time>2022-08-05T09:36:43Z</time>
      </trkpt>
      <trkpt lat="44.62755" lon="2.95024">
        <ele>1142.7</ele>
        <time>2022-08-05T09:36:45Z</time>
      </trkpt>
      <trkpt lat="44.62755" lon="2.95024">
        <ele>1142.7</ele>
        <time>2022-08-05T09:36:46Z</time>
      </trkpt>
      <trkpt lat="44.62756" lon="2.95023">
        <ele>1142.8</ele>
        <time>2022-08-05T09:36:48Z</time>
      </trkpt>
      <trkpt lat="44.62756" lon="2.9502">
        <ele>1142.8</ele>
        <time>2022-08-05T09:36:52Z</time>
      </trkpt>
      <trkpt lat="44.62758" lon="2.95014">
        <ele>1143.2</ele>
        <time>2022-08-05T09:36:58Z</time>
      </trkpt>
      <trkpt lat="44.62758" lon="2.95011">
        <ele>1143.2</ele>
        <time>2022-08-05T09:37:05Z</time>
      </trkpt>
      <trkpt lat="44.62758" lon="2.95003">
        <ele>1143.2</ele>
        <time>2022-08-05T09:37:11Z</time>
      </trkpt>
      <trkpt lat="44.62756" lon="2.94997">
        <ele>1143</ele>
        <time>2022-08-05T09:37:15Z</time>
      </trkpt>
      <trkpt lat="44.62756" lon="2.94994">
        <ele>1143.1</ele>
        <time>2022-08-05T09:37:17Z</time>
      </trkpt>
      <trkpt lat="44.62756" lon="2.94989">
        <ele>1143.4</ele>
        <time>2022-08-05T09:37:22Z</time>
      </trkpt>
      <trkpt lat="44.62758" lon="2.94989">
        <ele>1143.6</ele>
        <time>2022-08-05T09:37:24Z</time>
      </trkpt>
      <trkpt lat="44.62759" lon="2.94991">
        <ele>1143.7</ele>
        <time>2022-08-05T09:37:26Z</time>
      </trkpt>
      <trkpt lat="44.6276" lon="2.94991">
        <ele>1143.9</ele>
        <time>2022-08-05T09:37:31Z</time>
      </trkpt>
      <trkpt lat="44.62758" lon="2.9498">
        <ele>1144</ele>
        <time>2022-08-05T09:37:37Z</time>
      </trkpt>
      <trkpt lat="44.62755" lon="2.94968">
        <ele>1144.2</ele>
        <time>2022-08-05T09:37:44Z</time>
      </trkpt>
      <trkpt lat="44.62753" lon="2.94964">
        <ele>1144.1</ele>
        <time>2022-08-05T09:37:49Z</time>
      </trkpt>
      <trkpt lat="44.62753" lon="2.94963">
        <ele>1144.1</ele>
        <time>2022-08-05T09:37:51Z</time>
      </trkpt>
      <trkpt lat="44.62752" lon="2.94963">
        <ele>1144.1</ele>
        <time>2022-08-05T09:37:52Z</time>
      </trkpt>
      <trkpt lat="44.62752" lon="2.94963">
        <ele>1144</ele>
        <time>2022-08-05T09:37:55Z</time>
      </trkpt>
      <trkpt lat="44.62752" lon="2.94963">
        <ele>1143.9</ele>
        <time>2022-08-05T09:37:57Z</time>
      </trkpt>
      <trkpt lat="44.62752" lon="2.94963">
        <ele>1144.1</ele>
        <time>2022-08-05T09:38:09Z</time>
      </trkpt>
      <trkpt lat="44.62751" lon="2.94956">
        <ele>1144.4</ele>
        <time>2022-08-05T09:40:13Z</time>
      </trkpt>
      <trkpt lat="44.62753" lon="2.94947">
        <ele>1145.2</ele>
        <time>2022-08-05T09:40:18Z</time>
      </trkpt>
      <trkpt lat="44.62753" lon="2.94944">
        <ele>1145.4</ele>
        <time>2022-08-05T09:40:23Z</time>
      </trkpt>
      <trkpt lat="44.62751" lon="2.9494">
        <ele>1145.3</ele>
        <time>2022-08-05T09:40:30Z</time>
      </trkpt>
      <trkpt lat="44.62753" lon="2.94943">
        <ele>1145.4</ele>
        <time>2022-08-05T09:40:37Z</time>
      </trkpt>
      <trkpt lat="44.62756" lon="2.94948">
        <ele>1145.6</ele>
        <time>2022-08-05T09:40:45Z</time>
      </trkpt>
      <trkpt lat="44.62755" lon="2.94947">
        <ele>1145.5</ele>
        <time>2022-08-05T09:40:51Z</time>
      </trkpt>
      <trkpt lat="44.62754" lon="2.94941">
        <ele>1145.7</ele>
        <time>2022-08-05T09:40:58Z</time>
      </trkpt>
      <trkpt lat="44.62752" lon="2.9494">
        <ele>1145.5</ele>
        <time>2022-08-05T09:41:03Z</time>
      </trkpt>
      <trkpt lat="44.62752" lon="2.94936">
        <ele>1145.6</ele>
        <time>2022-08-05T09:41:10Z</time>
      </trkpt>
      <trkpt lat="44.6275" lon="2.9492">
        <ele>1145.8</ele>
        <time>2022-08-05T09:41:18Z</time>
      </trkpt>
      <trkpt lat="44.62748" lon="2.94916">
        <ele>1145.6</ele>
        <time>2022-08-05T09:41:21Z</time>
      </trkpt>
      <trkpt lat="44.62746" lon="2.9491">
        <ele>1145.2</ele>
        <time>2022-08-05T09:41:25Z</time>
      </trkpt>
      <trkpt lat="44.62745" lon="2.94909">
        <ele>1144.9</ele>
        <time>2022-08-05T09:41:26Z</time>
      </trkpt>
      <trkpt lat="44.62744" lon="2.94906">
        <ele>1144.6</ele>
        <time>2022-08-05T09:41:28Z</time>
      </trkpt>
      <trkpt lat="44.62743" lon="2.949">
        <ele>1144.5</ele>
        <time>2022-08-05T09:41:31Z</time>
      </trkpt>
      <trkpt lat="44.62738" lon="2.94889">
        <ele>1143.4</ele>
        <time>2022-08-05T09:41:38Z</time>
      </trkpt>
      <trkpt lat="44.62738" lon="2.94879">
        <ele>1143.1</ele>
        <time>2022-08-05T09:41:44Z</time>
      </trkpt>
      <trkpt lat="44.62739" lon="2.94867">
        <ele>1142.8</ele>
        <time>2022-08-05T09:41:51Z</time>
      </trkpt>
      <trkpt lat="44.62738" lon="2.94866">
        <ele>1142.7</ele>
        <time>2022-08-05T09:41:52Z</time>
      </trkpt>
      <trkpt lat="44.62738" lon="2.94862">
        <ele>1142.4</ele>
        <time>2022-08-05T09:41:55Z</time>
      </trkpt>
      <trkpt lat="44.62737" lon="2.94857">
        <ele>1142</ele>
        <time>2022-08-05T09:41:58Z</time>
      </trkpt>
      <trkpt lat="44.62733" lon="2.94844">
        <ele>1141.1</ele>
        <time>2022-08-05T09:42:06Z</time>
      </trkpt>
      <trkpt lat="44.62733" lon="2.94842">
        <ele>1141</ele>
        <time>2022-08-05T09:42:07Z</time>
      </trkpt>
      <trkpt lat="44.62731" lon="2.94831">
        <ele>1140.5</ele>
        <time>2022-08-05T09:42:14Z</time>
      </trkpt>
      <trkpt lat="44.62732" lon="2.94828">
        <ele>1140.4</ele>
        <time>2022-08-05T09:42:16Z</time>
      </trkpt>
      <trkpt lat="44.62735" lon="2.94817">
        <ele>1140.5</ele>
        <time>2022-08-05T09:42:23Z</time>
      </trkpt>
      <trkpt lat="44.62736" lon="2.94815">
        <ele>1140.5</ele>
        <time>2022-08-05T09:42:24Z</time>
      </trkpt>
      <trkpt lat="44.62738" lon="2.94811">
        <ele>1140.6</ele>
        <time>2022-08-05T09:42:28Z</time>
      </trkpt>
      <trkpt lat="44.62737" lon="2.94808">
        <ele>1140.3</ele>
        <time>2022-08-05T09:42:30Z</time>
      </trkpt>
      <trkpt lat="44.62737" lon="2.94805">
        <ele>1140.1</ele>
        <time>2022-08-05T09:42:33Z</time>
      </trkpt>
      <trkpt lat="44.62737" lon="2.94804">
        <ele>1140.1</ele>
        <time>2022-08-05T09:42:37Z</time>
      </trkpt>
      <trkpt lat="44.62736" lon="2.94805">
        <ele>1140</ele>
        <time>2022-08-05T09:42:43Z</time>
      </trkpt>
      <trkpt lat="44.62736" lon="2.94806">
        <ele>1140.1</ele>
        <time>2022-08-05T09:42:51Z</time>
      </trkpt>
      <trkpt lat="44.62735" lon="2.94805">
        <ele>1139.7</ele>
        <time>2022-08-05T09:43:00Z</time>
      </trkpt>
      <trkpt lat="44.62737" lon="2.94805">
        <ele>1140.2</ele>
        <time>2022-08-05T09:44:20Z</time>
      </trkpt>
      <trkpt lat="44.62737" lon="2.94795">
        <ele>1139.6</ele>
        <time>2022-08-05T09:44:25Z</time>
      </trkpt>
      <trkpt lat="44.62737" lon="2.94789">
        <ele>1139.3</ele>
        <time>2022-08-05T09:44:27Z</time>
      </trkpt>
      <trkpt lat="44.62737" lon="2.94786">
        <ele>1139.1</ele>
        <time>2022-08-05T09:44:28Z</time>
      </trkpt>
      <trkpt lat="44.62739" lon="2.94772">
        <ele>1138.7</ele>
        <time>2022-08-05T09:44:33Z</time>
      </trkpt>
      <trkpt lat="44.62743" lon="2.9476">
        <ele>1138.6</ele>
        <time>2022-08-05T09:44:39Z</time>
      </trkpt>
      <trkpt lat="44.62744" lon="2.94756">
        <ele>1138.5</ele>
        <time>2022-08-05T09:44:41Z</time>
      </trkpt>
      <trkpt lat="44.62747" lon="2.94748">
        <ele>1138.5</ele>
        <time>2022-08-05T09:44:46Z</time>
      </trkpt>
      <trkpt lat="44.62747" lon="2.94746">
        <ele>1138.4</ele>
        <time>2022-08-05T09:44:48Z</time>
      </trkpt>
      <trkpt lat="44.62748" lon="2.94737">
        <ele>1138.2</ele>
        <time>2022-08-05T09:44:54Z</time>
      </trkpt>
      <trkpt lat="44.62748" lon="2.94734">
        <ele>1138.1</ele>
        <time>2022-08-05T09:44:56Z</time>
      </trkpt>
      <trkpt lat="44.6275" lon="2.94718">
        <ele>1137.9</ele>
        <time>2022-08-05T09:45:03Z</time>
      </trkpt>
      <trkpt lat="44.62751" lon="2.94713">
        <ele>1137.8</ele>
        <time>2022-08-05T09:45:06Z</time>
      </trkpt>
      <trkpt lat="44.62753" lon="2.9471">
        <ele>1138</ele>
        <time>2022-08-05T09:45:08Z</time>
      </trkpt>
      <trkpt lat="44.62753" lon="2.94708">
        <ele>1138</ele>
        <time>2022-08-05T09:45:11Z</time>
      </trkpt>
      <trkpt lat="44.62754" lon="2.94707">
        <ele>1138.1</ele>
        <time>2022-08-05T09:45:14Z</time>
      </trkpt>
      <trkpt lat="44.62755" lon="2.94698">
        <ele>1138.1</ele>
        <time>2022-08-05T09:45:20Z</time>
      </trkpt>
      <trkpt lat="44.62756" lon="2.94694">
        <ele>1138</ele>
        <time>2022-08-05T09:45:22Z</time>
      </trkpt>
      <trkpt lat="44.62758" lon="2.94683">
        <ele>1138</ele>
        <time>2022-08-05T09:45:29Z</time>
      </trkpt>
      <trkpt lat="44.62758" lon="2.94681">
        <ele>1137.9</ele>
        <time>2022-08-05T09:45:30Z</time>
      </trkpt>
      <trkpt lat="44.6276" lon="2.94676">
        <ele>1138</ele>
        <time>2022-08-05T09:45:34Z</time>
      </trkpt>
      <trkpt lat="44.62761" lon="2.94675">
        <ele>1138.2</ele>
        <time>2022-08-05T09:45:36Z</time>
      </trkpt>
      <trkpt lat="44.62761" lon="2.94676">
        <ele>1138.3</ele>
        <time>2022-08-05T09:45:38Z</time>
      </trkpt>
      <trkpt lat="44.62761" lon="2.94677">
        <ele>1138.3</ele>
        <time>2022-08-05T09:45:41Z</time>
      </trkpt>
      <trkpt lat="44.62763" lon="2.94679">
        <ele>1138.7</ele>
        <time>2022-08-05T09:45:44Z</time>
      </trkpt>
      <trkpt lat="44.62762" lon="2.94675">
        <ele>1138.5</ele>
        <time>2022-08-05T09:45:52Z</time>
      </trkpt>
      <trkpt lat="44.62762" lon="2.94677">
        <ele>1138.5</ele>
        <time>2022-08-05T09:45:58Z</time>
      </trkpt>
      <trkpt lat="44.62763" lon="2.94669">
        <ele>1138.4</ele>
        <time>2022-08-05T09:46:04Z</time>
      </trkpt>
      <trkpt lat="44.62767" lon="2.9466">
        <ele>1138.8</ele>
        <time>2022-08-05T09:46:10Z</time>
      </trkpt>
      <trkpt lat="44.62771" lon="2.94653">
        <ele>1139.3</ele>
        <time>2022-08-05T09:46:14Z</time>
      </trkpt>
      <trkpt lat="44.62771" lon="2.94649">
        <ele>1139.1</ele>
        <time>2022-08-05T09:46:16Z</time>
      </trkpt>
      <trkpt lat="44.62771" lon="2.94645">
        <ele>1138.9</ele>
        <time>2022-08-05T09:46:18Z</time>
      </trkpt>
      <trkpt lat="44.6277" lon="2.9464">
        <ele>1138.7</ele>
        <time>2022-08-05T09:46:20Z</time>
      </trkpt>
      <trkpt lat="44.62773" lon="2.94634">
        <ele>1139</ele>
        <time>2022-08-05T09:46:24Z</time>
      </trkpt>
      <trkpt lat="44.62774" lon="2.94631">
        <ele>1139.3</ele>
        <time>2022-08-05T09:46:26Z</time>
      </trkpt>
      <trkpt lat="44.62778" lon="2.94627">
        <ele>1140</ele>
        <time>2022-08-05T09:46:30Z</time>
      </trkpt>
      <trkpt lat="44.62779" lon="2.94624">
        <ele>1140.2</ele>
        <time>2022-08-05T09:46:32Z</time>
      </trkpt>
      <trkpt lat="44.6278" lon="2.94617">
        <ele>1140.3</ele>
        <time>2022-08-05T09:46:36Z</time>
      </trkpt>
      <trkpt lat="44.6278" lon="2.94616">
        <ele>1140.4</ele>
        <time>2022-08-05T09:46:37Z</time>
      </trkpt>
      <trkpt lat="44.6278" lon="2.94611">
        <ele>1140.3</ele>
        <time>2022-08-05T09:46:40Z</time>
      </trkpt>
      <trkpt lat="44.6278" lon="2.94606">
        <ele>1140.2</ele>
        <time>2022-08-05T09:46:43Z</time>
      </trkpt>
      <trkpt lat="44.62781" lon="2.94598">
        <ele>1140.1</ele>
        <time>2022-08-05T09:46:49Z</time>
      </trkpt>
      <trkpt lat="44.6278" lon="2.94598">
        <ele>1140</ele>
        <time>2022-08-05T09:46:50Z</time>
      </trkpt>
      <trkpt lat="44.62781" lon="2.94596">
        <ele>1140</ele>
        <time>2022-08-05T09:46:51Z</time>
      </trkpt>
      <trkpt lat="44.62781" lon="2.94592">
        <ele>1140</ele>
        <time>2022-08-05T09:46:54Z</time>
      </trkpt>
      <trkpt lat="44.62782" lon="2.94589">
        <ele>1139.9</ele>
        <time>2022-08-05T09:46:56Z</time>
      </trkpt>
      <trkpt lat="44.62783" lon="2.94586">
        <ele>1140</ele>
        <time>2022-08-05T09:46:58Z</time>
      </trkpt>
      <trkpt lat="44.62784" lon="2.94581">
        <ele>1140</ele>
        <time>2022-08-05T09:47:01Z</time>
      </trkpt>
      <trkpt lat="44.62783" lon="2.94579">
        <ele>1139.8</ele>
        <time>2022-08-05T09:47:02Z</time>
      </trkpt>
      <trkpt lat="44.62783" lon="2.94577">
        <ele>1139.8</ele>
        <time>2022-08-05T09:47:03Z</time>
      </trkpt>
      <trkpt lat="44.62787" lon="2.94572">
        <ele>1140.2</ele>
        <time>2022-08-05T09:47:08Z</time>
      </trkpt>
      <trkpt lat="44.62788" lon="2.9457">
        <ele>1140.3</ele>
        <time>2022-08-05T09:47:10Z</time>
      </trkpt>
      <trkpt lat="44.62789" lon="2.94569">
        <ele>1140.4</ele>
        <time>2022-08-05T09:47:11Z</time>
      </trkpt>
      <trkpt lat="44.62789" lon="2.94565">
        <ele>1140.4</ele>
        <time>2022-08-05T09:47:14Z</time>
      </trkpt>
      <trkpt lat="44.62792" lon="2.94557">
        <ele>1140.6</ele>
        <time>2022-08-05T09:47:22Z</time>
      </trkpt>
      <trkpt lat="44.62794" lon="2.94552">
        <ele>1140.8</ele>
        <time>2022-08-05T09:47:27Z</time>
      </trkpt>
      <trkpt lat="44.62796" lon="2.9455">
        <ele>1141.1</ele>
        <time>2022-08-05T09:47:29Z</time>
      </trkpt>
      <trkpt lat="44.62796" lon="2.94548">
        <ele>1141.2</ele>
        <time>2022-08-05T09:47:30Z</time>
      </trkpt>
      <trkpt lat="44.62799" lon="2.94538">
        <ele>1141.3</ele>
        <time>2022-08-05T09:47:35Z</time>
      </trkpt>
      <trkpt lat="44.62801" lon="2.94533">
        <ele>1141.5</ele>
        <time>2022-08-05T09:47:38Z</time>
      </trkpt>
      <trkpt lat="44.62802" lon="2.94527">
        <ele>1141.5</ele>
        <time>2022-08-05T09:47:41Z</time>
      </trkpt>
      <trkpt lat="44.62803" lon="2.94525">
        <ele>1141.7</ele>
        <time>2022-08-05T09:47:42Z</time>
      </trkpt>
      <trkpt lat="44.62806" lon="2.94524">
        <ele>1142.3</ele>
        <time>2022-08-05T09:47:46Z</time>
      </trkpt>
      <trkpt lat="44.62807" lon="2.94524">
        <ele>1142.4</ele>
        <time>2022-08-05T09:47:47Z</time>
      </trkpt>
      <trkpt lat="44.62809" lon="2.94523">
        <ele>1142.8</ele>
        <time>2022-08-05T09:47:49Z</time>
      </trkpt>
      <trkpt lat="44.62812" lon="2.9452">
        <ele>1143.3</ele>
        <time>2022-08-05T09:47:52Z</time>
      </trkpt>
      <trkpt lat="44.62815" lon="2.94517">
        <ele>1143.9</ele>
        <time>2022-08-05T09:47:56Z</time>
      </trkpt>
      <trkpt lat="44.62817" lon="2.94515">
        <ele>1144.3</ele>
        <time>2022-08-05T09:47:58Z</time>
      </trkpt>
      <trkpt lat="44.62818" lon="2.94512">
        <ele>1144.5</ele>
        <time>2022-08-05T09:48:00Z</time>
      </trkpt>
      <trkpt lat="44.62819" lon="2.94511">
        <ele>1144.7</ele>
        <time>2022-08-05T09:48:01Z</time>
      </trkpt>
      <trkpt lat="44.62821" lon="2.94507">
        <ele>1145.1</ele>
        <time>2022-08-05T09:48:04Z</time>
      </trkpt>
      <trkpt lat="44.62825" lon="2.945">
        <ele>1145.8</ele>
        <time>2022-08-05T09:48:10Z</time>
      </trkpt>
      <trkpt lat="44.62826" lon="2.94499">
        <ele>1146</ele>
        <time>2022-08-05T09:48:12Z</time>
      </trkpt>
      <trkpt lat="44.62826" lon="2.94494">
        <ele>1146.4</ele>
        <time>2022-08-05T09:48:18Z</time>
      </trkpt>
      <trkpt lat="44.62827" lon="2.94492">
        <ele>1146.7</ele>
        <time>2022-08-05T09:48:22Z</time>
      </trkpt>
      <trkpt lat="44.62827" lon="2.94493">
        <ele>1146.6</ele>
        <time>2022-08-05T09:48:25Z</time>
      </trkpt>
      <trkpt lat="44.62824" lon="2.94494">
        <ele>1146.2</ele>
        <time>2022-08-05T09:48:32Z</time>
      </trkpt>
      <trkpt lat="44.62823" lon="2.94492">
        <ele>1146.2</ele>
        <time>2022-08-05T09:48:38Z</time>
      </trkpt>
      <trkpt lat="44.62823" lon="2.94486">
        <ele>1146.7</ele>
        <time>2022-08-05T09:48:44Z</time>
      </trkpt>
      <trkpt lat="44.62822" lon="2.94481">
        <ele>1147</ele>
        <time>2022-08-05T09:48:52Z</time>
      </trkpt>
      <trkpt lat="44.6282" lon="2.94476">
        <ele>1147.2</ele>
        <time>2022-08-05T09:48:57Z</time>
      </trkpt>
      <trkpt lat="44.62819" lon="2.94472">
        <ele>1147.5</ele>
        <time>2022-08-05T09:49:00Z</time>
      </trkpt>
      <trkpt lat="44.62819" lon="2.94471">
        <ele>1147.5</ele>
        <time>2022-08-05T09:49:01Z</time>
      </trkpt>
      <trkpt lat="44.62818" lon="2.94469">
        <ele>1147.7</ele>
        <time>2022-08-05T09:49:04Z</time>
      </trkpt>
      <trkpt lat="44.62817" lon="2.94468">
        <ele>1147.7</ele>
        <time>2022-08-05T09:49:05Z</time>
      </trkpt>
      <trkpt lat="44.62815" lon="2.94466">
        <ele>1147.9</ele>
        <time>2022-08-05T09:49:08Z</time>
      </trkpt>
      <trkpt lat="44.62814" lon="2.94463">
        <ele>1148.2</ele>
        <time>2022-08-05T09:49:11Z</time>
      </trkpt>
      <trkpt lat="44.62813" lon="2.94456">
        <ele>1148.9</ele>
        <time>2022-08-05T09:49:16Z</time>
      </trkpt>
      <trkpt lat="44.62812" lon="2.94455">
        <ele>1149.1</ele>
        <time>2022-08-05T09:49:17Z</time>
      </trkpt>
      <trkpt lat="44.62812" lon="2.94454">
        <ele>1149.2</ele>
        <time>2022-08-05T09:49:18Z</time>
      </trkpt>
      <trkpt lat="44.62809" lon="2.94448">
        <ele>1149.8</ele>
        <time>2022-08-05T09:49:23Z</time>
      </trkpt>
      <trkpt lat="44.62808" lon="2.94445">
        <ele>1150.1</ele>
        <time>2022-08-05T09:49:25Z</time>
      </trkpt>
      <trkpt lat="44.62805" lon="2.94441">
        <ele>1150.4</ele>
        <time>2022-08-05T09:49:29Z</time>
      </trkpt>
      <trkpt lat="44.62804" lon="2.94441">
        <ele>1150.5</ele>
        <time>2022-08-05T09:49:30Z</time>
      </trkpt>
      <trkpt lat="44.62802" lon="2.94437">
        <ele>1150.9</ele>
        <time>2022-08-05T09:49:33Z</time>
      </trkpt>
      <trkpt lat="44.62801" lon="2.94436">
        <ele>1151.2</ele>
        <time>2022-08-05T09:49:34Z</time>
      </trkpt>
      <trkpt lat="44.62797" lon="2.94429">
        <ele>1152.2</ele>
        <time>2022-08-05T09:49:40Z</time>
      </trkpt>
      <trkpt lat="44.62798" lon="2.94427">
        <ele>1152.4</ele>
        <time>2022-08-05T09:49:41Z</time>
      </trkpt>
      <trkpt lat="44.62799" lon="2.94422">
        <ele>1153.1</ele>
        <time>2022-08-05T09:49:44Z</time>
      </trkpt>
      <trkpt lat="44.62799" lon="2.94419">
        <ele>1153.7</ele>
        <time>2022-08-05T09:49:46Z</time>
      </trkpt>
      <trkpt lat="44.628" lon="2.94417">
        <ele>1154</ele>
        <time>2022-08-05T09:49:48Z</time>
      </trkpt>
      <trkpt lat="44.62801" lon="2.94408">
        <ele>1155.6</ele>
        <time>2022-08-05T09:49:54Z</time>
      </trkpt>
      <trkpt lat="44.62801" lon="2.94407">
        <ele>1155.8</ele>
        <time>2022-08-05T09:49:55Z</time>
      </trkpt>
      <trkpt lat="44.62802" lon="2.94404">
        <ele>1156.4</ele>
        <time>2022-08-05T09:49:59Z</time>
      </trkpt>
      <trkpt lat="44.62803" lon="2.94403">
        <ele>1156.5</ele>
        <time>2022-08-05T09:50:00Z</time>
      </trkpt>
      <trkpt lat="44.62804" lon="2.944">
        <ele>1157</ele>
        <time>2022-08-05T09:50:03Z</time>
      </trkpt>
      <trkpt lat="44.62803" lon="2.94399">
        <ele>1157.2</ele>
        <time>2022-08-05T09:50:05Z</time>
      </trkpt>
      <trkpt lat="44.62802" lon="2.94398">
        <ele>1157.3</ele>
        <time>2022-08-05T09:50:06Z</time>
      </trkpt>
      <trkpt lat="44.62802" lon="2.94397">
        <ele>1157.6</ele>
        <time>2022-08-05T09:50:07Z</time>
      </trkpt>
      <trkpt lat="44.62798" lon="2.9439">
        <ele>1158.7</ele>
        <time>2022-08-05T09:50:13Z</time>
      </trkpt>
      <trkpt lat="44.62797" lon="2.94387">
        <ele>1159.3</ele>
        <time>2022-08-05T09:50:16Z</time>
      </trkpt>
      <trkpt lat="44.62797" lon="2.94385">
        <ele>1159.5</ele>
        <time>2022-08-05T09:50:17Z</time>
      </trkpt>
      <trkpt lat="44.62795" lon="2.94383">
        <ele>1159.8</ele>
        <time>2022-08-05T09:50:19Z</time>
      </trkpt>
      <trkpt lat="44.62794" lon="2.94379">
        <ele>1160.5</ele>
        <time>2022-08-05T09:50:22Z</time>
      </trkpt>
      <trkpt lat="44.62793" lon="2.94376">
        <ele>1160.9</ele>
        <time>2022-08-05T09:50:24Z</time>
      </trkpt>
      <trkpt lat="44.62792" lon="2.94375">
        <ele>1161</ele>
        <time>2022-08-05T09:50:25Z</time>
      </trkpt>
      <trkpt lat="44.62787" lon="2.94368">
        <ele>1162.1</ele>
        <time>2022-08-05T09:50:31Z</time>
      </trkpt>
      <trkpt lat="44.62787" lon="2.94366">
        <ele>1162.2</ele>
        <time>2022-08-05T09:50:32Z</time>
      </trkpt>
      <trkpt lat="44.62787" lon="2.94365">
        <ele>1162.5</ele>
        <time>2022-08-05T09:50:34Z</time>
      </trkpt>
      <trkpt lat="44.62786" lon="2.94362">
        <ele>1162.9</ele>
        <time>2022-08-05T09:50:37Z</time>
      </trkpt>
      <trkpt lat="44.62784" lon="2.94358">
        <ele>1163.4</ele>
        <time>2022-08-05T09:50:39Z</time>
      </trkpt>
      <trkpt lat="44.62781" lon="2.94349">
        <ele>1164.7</ele>
        <time>2022-08-05T09:50:43Z</time>
      </trkpt>
      <trkpt lat="44.62777" lon="2.94342">
        <ele>1165.8</ele>
        <time>2022-08-05T09:50:48Z</time>
      </trkpt>
      <trkpt lat="44.62777" lon="2.9434">
        <ele>1166</ele>
        <time>2022-08-05T09:50:49Z</time>
      </trkpt>
      <trkpt lat="44.62777" lon="2.94332">
        <ele>1167.1</ele>
        <time>2022-08-05T09:50:54Z</time>
      </trkpt>
      <trkpt lat="44.62777" lon="2.94324">
        <ele>1168.3</ele>
        <time>2022-08-05T09:50:58Z</time>
      </trkpt>
      <trkpt lat="44.62777" lon="2.94322">
        <ele>1168.6</ele>
        <time>2022-08-05T09:50:59Z</time>
      </trkpt>
      <trkpt lat="44.62777" lon="2.94318">
        <ele>1169.2</ele>
        <time>2022-08-05T09:51:02Z</time>
      </trkpt>
      <trkpt lat="44.62778" lon="2.94316">
        <ele>1169.5</ele>
        <time>2022-08-05T09:51:04Z</time>
      </trkpt>
      <trkpt lat="44.62779" lon="2.94312">
        <ele>1170</ele>
        <time>2022-08-05T09:51:07Z</time>
      </trkpt>
      <trkpt lat="44.6278" lon="2.94311">
        <ele>1170.2</ele>
        <time>2022-08-05T09:51:08Z</time>
      </trkpt>
      <trkpt lat="44.62781" lon="2.94308">
        <ele>1170.6</ele>
        <time>2022-08-05T09:51:10Z</time>
      </trkpt>
      <trkpt lat="44.62781" lon="2.94306">
        <ele>1170.9</ele>
        <time>2022-08-05T09:51:11Z</time>
      </trkpt>
      <trkpt lat="44.62781" lon="2.94302">
        <ele>1171.5</ele>
        <time>2022-08-05T09:51:13Z</time>
      </trkpt>
      <trkpt lat="44.62783" lon="2.94294">
        <ele>1172.7</ele>
        <time>2022-08-05T09:51:20Z</time>
      </trkpt>
      <trkpt lat="44.62784" lon="2.94293">
        <ele>1172.8</ele>
        <time>2022-08-05T09:51:21Z</time>
      </trkpt>
      <trkpt lat="44.62786" lon="2.94295">
        <ele>1172.5</ele>
        <time>2022-08-05T09:51:27Z</time>
      </trkpt>
      <trkpt lat="44.6279" lon="2.94296">
        <ele>1172.3</ele>
        <time>2022-08-05T09:51:36Z</time>
      </trkpt>
      <trkpt lat="44.62791" lon="2.94295">
        <ele>1172.5</ele>
        <time>2022-08-05T09:51:43Z</time>
      </trkpt>
      <trkpt lat="44.6279" lon="2.94298">
        <ele>1172.2</ele>
        <time>2022-08-05T09:51:52Z</time>
      </trkpt>
      <trkpt lat="44.62788" lon="2.94294">
        <ele>1172.7</ele>
        <time>2022-08-05T09:52:56Z</time>
      </trkpt>
      <trkpt lat="44.62792" lon="2.94284">
        <ele>1174.1</ele>
        <time>2022-08-05T09:53:06Z</time>
      </trkpt>
      <trkpt lat="44.62792" lon="2.94282">
        <ele>1174.4</ele>
        <time>2022-08-05T09:53:07Z</time>
      </trkpt>
      <trkpt lat="44.62792" lon="2.94279">
        <ele>1174.8</ele>
        <time>2022-08-05T09:53:08Z</time>
      </trkpt>
      <trkpt lat="44.62792" lon="2.94274">
        <ele>1175.4</ele>
        <time>2022-08-05T09:53:10Z</time>
      </trkpt>
      <trkpt lat="44.62793" lon="2.94271">
        <ele>1175.7</ele>
        <time>2022-08-05T09:53:12Z</time>
      </trkpt>
      <trkpt lat="44.62793" lon="2.9427">
        <ele>1175.9</ele>
        <time>2022-08-05T09:53:14Z</time>
      </trkpt>
      <trkpt lat="44.62793" lon="2.94264">
        <ele>1176.5</ele>
        <time>2022-08-05T09:53:21Z</time>
      </trkpt>
      <trkpt lat="44.62793" lon="2.94263">
        <ele>1176.6</ele>
        <time>2022-08-05T09:53:22Z</time>
      </trkpt>
      <trkpt lat="44.62793" lon="2.94262">
        <ele>1176.7</ele>
        <time>2022-08-05T09:53:23Z</time>
      </trkpt>
      <trkpt lat="44.62792" lon="2.94258">
        <ele>1177.1</ele>
        <time>2022-08-05T09:53:28Z</time>
      </trkpt>
      <trkpt lat="44.62791" lon="2.94256">
        <ele>1177.4</ele>
        <time>2022-08-05T09:53:31Z</time>
      </trkpt>
      <trkpt lat="44.62789" lon="2.94253">
        <ele>1177.6</ele>
        <time>2022-08-05T09:53:33Z</time>
      </trkpt>
      <trkpt lat="44.62788" lon="2.94252">
        <ele>1177.7</ele>
        <time>2022-08-05T09:53:35Z</time>
      </trkpt>
      <trkpt lat="44.62786" lon="2.94249">
        <ele>1178.2</ele>
        <time>2022-08-05T09:53:39Z</time>
      </trkpt>
      <trkpt lat="44.62786" lon="2.94248">
        <ele>1178.3</ele>
        <time>2022-08-05T09:53:40Z</time>
      </trkpt>
      <trkpt lat="44.62785" lon="2.94247">
        <ele>1178.4</ele>
        <time>2022-08-05T09:53:41Z</time>
      </trkpt>
      <trkpt lat="44.62785" lon="2.94246">
        <ele>1178.5</ele>
        <time>2022-08-05T09:53:42Z</time>
      </trkpt>
      <trkpt lat="44.62785" lon="2.94246">
        <ele>1178.5</ele>
        <time>2022-08-05T09:53:43Z</time>
      </trkpt>
      <trkpt lat="44.62785" lon="2.94245">
        <ele>1178.6</ele>
        <time>2022-08-05T09:53:44Z</time>
      </trkpt>
      <trkpt lat="44.62784" lon="2.94244">
        <ele>1178.7</ele>
        <time>2022-08-05T09:53:46Z</time>
      </trkpt>
      <trkpt lat="44.62785" lon="2.94243">
        <ele>1178.9</ele>
        <time>2022-08-05T09:53:47Z</time>
      </trkpt>
      <trkpt lat="44.62785" lon="2.94242">
        <ele>1179</ele>
        <time>2022-08-05T09:53:48Z</time>
      </trkpt>
      <trkpt lat="44.62788" lon="2.94239">
        <ele>1179.4</ele>
        <time>2022-08-05T09:53:52Z</time>
      </trkpt>
      <trkpt lat="44.62789" lon="2.94237">
        <ele>1179.6</ele>
        <time>2022-08-05T09:53:54Z</time>
      </trkpt>
      <trkpt lat="44.6279" lon="2.94234">
        <ele>1179.9</ele>
        <time>2022-08-05T09:53:57Z</time>
      </trkpt>
      <trkpt lat="44.62794" lon="2.94231">
        <ele>1180.5</ele>
        <time>2022-08-05T09:54:02Z</time>
      </trkpt>
      <trkpt lat="44.62794" lon="2.94231">
        <ele>1180.5</ele>
        <time>2022-08-05T09:54:03Z</time>
      </trkpt>
      <trkpt lat="44.62798" lon="2.94227">
        <ele>1181.1</ele>
        <time>2022-08-05T09:54:09Z</time>
      </trkpt>
      <trkpt lat="44.62799" lon="2.94226">
        <ele>1181.3</ele>
        <time>2022-08-05T09:54:11Z</time>
      </trkpt>
      <trkpt lat="44.62801" lon="2.94224">
        <ele>1181.5</ele>
        <time>2022-08-05T09:54:13Z</time>
      </trkpt>
      <trkpt lat="44.62801" lon="2.94224">
        <ele>1181.7</ele>
        <time>2022-08-05T09:54:14Z</time>
      </trkpt>
      <trkpt lat="44.62802" lon="2.94223">
        <ele>1181.8</ele>
        <time>2022-08-05T09:54:15Z</time>
      </trkpt>
      <trkpt lat="44.62804" lon="2.94219">
        <ele>1182.4</ele>
        <time>2022-08-05T09:54:19Z</time>
      </trkpt>
      <trkpt lat="44.62804" lon="2.94217">
        <ele>1182.6</ele>
        <time>2022-08-05T09:54:20Z</time>
      </trkpt>
      <trkpt lat="44.62806" lon="2.94211">
        <ele>1183.7</ele>
        <time>2022-08-05T09:54:27Z</time>
      </trkpt>
      <trkpt lat="44.6281" lon="2.94205">
        <ele>1184.6</ele>
        <time>2022-08-05T09:54:34Z</time>
      </trkpt>
      <trkpt lat="44.62811" lon="2.94202">
        <ele>1184.9</ele>
        <time>2022-08-05T09:54:37Z</time>
      </trkpt>
      <trkpt lat="44.62812" lon="2.94198">
        <ele>1185.5</ele>
        <time>2022-08-05T09:54:40Z</time>
      </trkpt>
      <trkpt lat="44.62812" lon="2.94197">
        <ele>1185.6</ele>
        <time>2022-08-05T09:54:41Z</time>
      </trkpt>
      <trkpt lat="44.62813" lon="2.94196">
        <ele>1185.7</ele>
        <time>2022-08-05T09:54:42Z</time>
      </trkpt>
      <trkpt lat="44.62815" lon="2.94193">
        <ele>1186.2</ele>
        <time>2022-08-05T09:54:46Z</time>
      </trkpt>
      <trkpt lat="44.62815" lon="2.94194">
        <ele>1186.2</ele>
        <time>2022-08-05T09:54:48Z</time>
      </trkpt>
      <trkpt lat="44.62815" lon="2.94193">
        <ele>1186.2</ele>
        <time>2022-08-05T09:54:49Z</time>
      </trkpt>
      <trkpt lat="44.62816" lon="2.94192">
        <ele>1186.4</ele>
        <time>2022-08-05T09:54:50Z</time>
      </trkpt>
      <trkpt lat="44.62818" lon="2.94187">
        <ele>1187.4</ele>
        <time>2022-08-05T09:54:54Z</time>
      </trkpt>
      <trkpt lat="44.62818" lon="2.94186">
        <ele>1187.6</ele>
        <time>2022-08-05T09:54:55Z</time>
      </trkpt>
      <trkpt lat="44.62819" lon="2.94185">
        <ele>1187.7</ele>
        <time>2022-08-05T09:54:56Z</time>
      </trkpt>
      <trkpt lat="44.6282" lon="2.94184">
        <ele>1187.8</ele>
        <time>2022-08-05T09:54:57Z</time>
      </trkpt>
      <trkpt lat="44.62821" lon="2.94182">
        <ele>1188.3</ele>
        <time>2022-08-05T09:54:59Z</time>
      </trkpt>
      <trkpt lat="44.62823" lon="2.94179">
        <ele>1188.7</ele>
        <time>2022-08-05T09:55:02Z</time>
      </trkpt>
      <trkpt lat="44.62823" lon="2.94178">
        <ele>1188.9</ele>
        <time>2022-08-05T09:55:03Z</time>
      </trkpt>
      <trkpt lat="44.62824" lon="2.94177">
        <ele>1189.1</ele>
        <time>2022-08-05T09:55:04Z</time>
      </trkpt>
      <trkpt lat="44.62825" lon="2.94176">
        <ele>1189.3</ele>
        <time>2022-08-05T09:55:06Z</time>
      </trkpt>
      <trkpt lat="44.62826" lon="2.94175">
        <ele>1189.6</ele>
        <time>2022-08-05T09:55:08Z</time>
      </trkpt>
      <trkpt lat="44.62827" lon="2.94174">
        <ele>1189.7</ele>
        <time>2022-08-05T09:55:09Z</time>
      </trkpt>
      <trkpt lat="44.62829" lon="2.94172">
        <ele>1190.1</ele>
        <time>2022-08-05T09:55:12Z</time>
      </trkpt>
      <trkpt lat="44.62832" lon="2.94168">
        <ele>1190.8</ele>
        <time>2022-08-05T09:55:16Z</time>
      </trkpt>
      <trkpt lat="44.62833" lon="2.94166">
        <ele>1191</ele>
        <time>2022-08-05T09:55:18Z</time>
      </trkpt>
      <trkpt lat="44.62834" lon="2.94164">
        <ele>1191.2</ele>
        <time>2022-08-05T09:55:20Z</time>
      </trkpt>
      <trkpt lat="44.62836" lon="2.94161">
        <ele>1191.4</ele>
        <time>2022-08-05T09:55:23Z</time>
      </trkpt>
      <trkpt lat="44.62836" lon="2.94161">
        <ele>1191.5</ele>
        <time>2022-08-05T09:55:24Z</time>
      </trkpt>
      <trkpt lat="44.62837" lon="2.9416">
        <ele>1191.5</ele>
        <time>2022-08-05T09:55:25Z</time>
      </trkpt>
      <trkpt lat="44.62838" lon="2.94161">
        <ele>1191.5</ele>
        <time>2022-08-05T09:55:27Z</time>
      </trkpt>
      <trkpt lat="44.62838" lon="2.9416">
        <ele>1191.5</ele>
        <time>2022-08-05T09:55:29Z</time>
      </trkpt>
      <trkpt lat="44.62839" lon="2.94159">
        <ele>1191.6</ele>
        <time>2022-08-05T09:55:30Z</time>
      </trkpt>
      <trkpt lat="44.62839" lon="2.94158">
        <ele>1191.7</ele>
        <time>2022-08-05T09:55:31Z</time>
      </trkpt>
      <trkpt lat="44.6284" lon="2.94156">
        <ele>1191.8</ele>
        <time>2022-08-05T09:55:33Z</time>
      </trkpt>
      <trkpt lat="44.62841" lon="2.94154">
        <ele>1192</ele>
        <time>2022-08-05T09:55:35Z</time>
      </trkpt>
      <trkpt lat="44.62842" lon="2.94151">
        <ele>1192.3</ele>
        <time>2022-08-05T09:55:37Z</time>
      </trkpt>
      <trkpt lat="44.62844" lon="2.9415">
        <ele>1192.4</ele>
        <time>2022-08-05T09:55:39Z</time>
      </trkpt>
      <trkpt lat="44.62844" lon="2.94149">
        <ele>1192.5</ele>
        <time>2022-08-05T09:55:40Z</time>
      </trkpt>
      <trkpt lat="44.62845" lon="2.94148">
        <ele>1192.6</ele>
        <time>2022-08-05T09:55:41Z</time>
      </trkpt>
      <trkpt lat="44.62848" lon="2.94145">
        <ele>1193</ele>
        <time>2022-08-05T09:55:46Z</time>
      </trkpt>
      <trkpt lat="44.62849" lon="2.94144">
        <ele>1193.1</ele>
        <time>2022-08-05T09:55:48Z</time>
      </trkpt>
      <trkpt lat="44.62853" lon="2.94136">
        <ele>1194.2</ele>
        <time>2022-08-05T09:55:57Z</time>
      </trkpt>
      <trkpt lat="44.62855" lon="2.94134">
        <ele>1194.5</ele>
        <time>2022-08-05T09:56:00Z</time>
      </trkpt>
      <trkpt lat="44.62856" lon="2.94134">
        <ele>1194.6</ele>
        <time>2022-08-05T09:56:02Z</time>
      </trkpt>
      <trkpt lat="44.62857" lon="2.94134">
        <ele>1194.5</ele>
        <time>2022-08-05T09:56:04Z</time>
      </trkpt>
      <trkpt lat="44.62857" lon="2.94134">
        <ele>1194.5</ele>
        <time>2022-08-05T09:56:05Z</time>
      </trkpt>
      <trkpt lat="44.62857" lon="2.94134">
        <ele>1194.5</ele>
        <time>2022-08-05T09:56:08Z</time>
      </trkpt>
      <trkpt lat="44.62857" lon="2.94135">
        <ele>1194.4</ele>
        <time>2022-08-05T09:56:11Z</time>
      </trkpt>
      <trkpt lat="44.62857" lon="2.94135">
        <ele>1194.4</ele>
        <time>2022-08-05T09:56:12Z</time>
      </trkpt>
      <trkpt lat="44.62857" lon="2.94135">
        <ele>1194.4</ele>
        <time>2022-08-05T09:56:20Z</time>
      </trkpt>
      <trkpt lat="44.62857" lon="2.94135">
        <ele>1194.4</ele>
        <time>2022-08-05T09:56:23Z</time>
      </trkpt>
      <trkpt lat="44.62857" lon="2.94135">
        <ele>1194.4</ele>
        <time>2022-08-05T09:56:24Z</time>
      </trkpt>
      <trkpt lat="44.62857" lon="2.94135">
        <ele>1194.4</ele>
        <time>2022-08-05T09:56:26Z</time>
      </trkpt>
      <trkpt lat="44.62857" lon="2.94135">
        <ele>1194.4</ele>
        <time>2022-08-05T09:56:29Z</time>
      </trkpt>
      <trkpt lat="44.62857" lon="2.94135">
        <ele>1194.4</ele>
        <time>2022-08-05T09:56:30Z</time>
      </trkpt>
      <trkpt lat="44.62857" lon="2.94135">
        <ele>1194.4</ele>
        <time>2022-08-05T09:56:32Z</time>
      </trkpt>
      <trkpt lat="44.62857" lon="2.94136">
        <ele>1194.3</ele>
        <time>2022-08-05T09:56:40Z</time>
      </trkpt>
      <trkpt lat="44.62857" lon="2.94136">
        <ele>1194.3</ele>
        <time>2022-08-05T09:56:45Z</time>
      </trkpt>
      <trkpt lat="44.62857" lon="2.94136">
        <ele>1194.3</ele>
        <time>2022-08-05T09:56:47Z</time>
      </trkpt>
      <trkpt lat="44.62857" lon="2.94136">
        <ele>1194.3</ele>
        <time>2022-08-05T09:56:49Z</time>
      </trkpt>
      <trkpt lat="44.62857" lon="2.94136">
        <ele>1194.3</ele>
        <time>2022-08-05T09:56:51Z</time>
      </trkpt>
      <trkpt lat="44.62857" lon="2.94136">
        <ele>1194.2</ele>
        <time>2022-08-05T09:56:55Z</time>
      </trkpt>
      <trkpt lat="44.62857" lon="2.94137">
        <ele>1194.2</ele>
        <time>2022-08-05T09:56:59Z</time>
      </trkpt>
      <trkpt lat="44.62857" lon="2.94137">
        <ele>1194.2</ele>
        <time>2022-08-05T09:57:00Z</time>
      </trkpt>
      <trkpt lat="44.62858" lon="2.94137">
        <ele>1194.2</ele>
        <time>2022-08-05T09:57:01Z</time>
      </trkpt>
      <trkpt lat="44.62859" lon="2.94137">
        <ele>1194.3</ele>
        <time>2022-08-05T09:57:02Z</time>
      </trkpt>
      <trkpt lat="44.6286" lon="2.94136">
        <ele>1194.4</ele>
        <time>2022-08-05T09:57:03Z</time>
      </trkpt>
      <trkpt lat="44.62861" lon="2.94135">
        <ele>1194.5</ele>
        <time>2022-08-05T09:57:04Z</time>
      </trkpt>
      <trkpt lat="44.62865" lon="2.94136">
        <ele>1194.6</ele>
        <time>2022-08-05T09:57:07Z</time>
      </trkpt>
      <trkpt lat="44.62872" lon="2.94134">
        <ele>1195.1</ele>
        <time>2022-08-05T09:57:13Z</time>
      </trkpt>
      <trkpt lat="44.62875" lon="2.94134">
        <ele>1195.3</ele>
        <time>2022-08-05T09:57:15Z</time>
      </trkpt>
      <trkpt lat="44.62879" lon="2.94131">
        <ele>1195.8</ele>
        <time>2022-08-05T09:57:20Z</time>
      </trkpt>
      <trkpt lat="44.6288" lon="2.94131">
        <ele>1195.8</ele>
        <time>2022-08-05T09:57:21Z</time>
      </trkpt>
      <trkpt lat="44.62881" lon="2.94132">
        <ele>1195.8</ele>
        <time>2022-08-05T09:57:22Z</time>
      </trkpt>
      <trkpt lat="44.62881" lon="2.94132">
        <ele>1195.7</ele>
        <time>2022-08-05T09:57:23Z</time>
      </trkpt>
      <trkpt lat="44.62882" lon="2.94132">
        <ele>1195.8</ele>
        <time>2022-08-05T09:57:25Z</time>
      </trkpt>
      <trkpt lat="44.62883" lon="2.94132">
        <ele>1195.8</ele>
        <time>2022-08-05T09:57:26Z</time>
      </trkpt>
      <trkpt lat="44.62886" lon="2.94133">
        <ele>1195.8</ele>
        <time>2022-08-05T09:57:28Z</time>
      </trkpt>
      <trkpt lat="44.62889" lon="2.94134">
        <ele>1195.8</ele>
        <time>2022-08-05T09:57:30Z</time>
      </trkpt>
      <trkpt lat="44.62895" lon="2.94134">
        <ele>1195.8</ele>
        <time>2022-08-05T09:57:36Z</time>
      </trkpt>
      <trkpt lat="44.62905" lon="2.94134">
        <ele>1195.8</ele>
        <time>2022-08-05T09:57:44Z</time>
      </trkpt>
      <trkpt lat="44.62907" lon="2.94134">
        <ele>1195.8</ele>
        <time>2022-08-05T09:57:46Z</time>
      </trkpt>
      <trkpt lat="44.62908" lon="2.94134">
        <ele>1195.8</ele>
        <time>2022-08-05T09:57:47Z</time>
      </trkpt>
      <trkpt lat="44.62909" lon="2.94134">
        <ele>1195.8</ele>
        <time>2022-08-05T09:57:49Z</time>
      </trkpt>
      <trkpt lat="44.62912" lon="2.94134">
        <ele>1195.7</ele>
        <time>2022-08-05T09:57:51Z</time>
      </trkpt>
      <trkpt lat="44.62913" lon="2.94134">
        <ele>1195.7</ele>
        <time>2022-08-05T09:57:52Z</time>
      </trkpt>
      <trkpt lat="44.62915" lon="2.94134">
        <ele>1195.7</ele>
        <time>2022-08-05T09:57:54Z</time>
      </trkpt>
      <trkpt lat="44.62918" lon="2.94133">
        <ele>1195.9</ele>
        <time>2022-08-05T09:57:56Z</time>
      </trkpt>
      <trkpt lat="44.6292" lon="2.94133">
        <ele>1196.1</ele>
        <time>2022-08-05T09:57:58Z</time>
      </trkpt>
      <trkpt lat="44.62922" lon="2.94133">
        <ele>1196.2</ele>
        <time>2022-08-05T09:58:00Z</time>
      </trkpt>
      <trkpt lat="44.62925" lon="2.94133">
        <ele>1196.5</ele>
        <time>2022-08-05T09:58:04Z</time>
      </trkpt>
      <trkpt lat="44.62928" lon="2.94132">
        <ele>1196.8</ele>
        <time>2022-08-05T09:58:07Z</time>
      </trkpt>
      <trkpt lat="44.62931" lon="2.94132">
        <ele>1197</ele>
        <time>2022-08-05T09:58:10Z</time>
      </trkpt>
      <trkpt lat="44.62932" lon="2.94132">
        <ele>1197.1</ele>
        <time>2022-08-05T09:58:11Z</time>
      </trkpt>
      <trkpt lat="44.62934" lon="2.94132">
        <ele>1197.2</ele>
        <time>2022-08-05T09:58:13Z</time>
      </trkpt>
      <trkpt lat="44.62939" lon="2.94132">
        <ele>1197.6</ele>
        <time>2022-08-05T09:58:18Z</time>
      </trkpt>
      <trkpt lat="44.62946" lon="2.94135">
        <ele>1197.7</ele>
        <time>2022-08-05T09:58:24Z</time>
      </trkpt>
      <trkpt lat="44.62947" lon="2.94135">
        <ele>1197.8</ele>
        <time>2022-08-05T09:58:26Z</time>
      </trkpt>
      <trkpt lat="44.62948" lon="2.94135">
        <ele>1197.8</ele>
        <time>2022-08-05T09:58:27Z</time>
      </trkpt>
      <trkpt lat="44.62949" lon="2.94135">
        <ele>1197.8</ele>
        <time>2022-08-05T09:58:29Z</time>
      </trkpt>
      <trkpt lat="44.62951" lon="2.94135">
        <ele>1198</ele>
        <time>2022-08-05T09:58:31Z</time>
      </trkpt>
      <trkpt lat="44.62956" lon="2.94137">
        <ele>1198.1</ele>
        <time>2022-08-05T09:58:35Z</time>
      </trkpt>
      <trkpt lat="44.62957" lon="2.94138">
        <ele>1198</ele>
        <time>2022-08-05T09:58:36Z</time>
      </trkpt>
      <trkpt lat="44.62964" lon="2.94142">
        <ele>1198</ele>
        <time>2022-08-05T09:58:42Z</time>
      </trkpt>
      <trkpt lat="44.62966" lon="2.94143">
        <ele>1198</ele>
        <time>2022-08-05T09:58:44Z</time>
      </trkpt>
      <trkpt lat="44.62968" lon="2.94145">
        <ele>1197.9</ele>
        <time>2022-08-05T09:58:46Z</time>
      </trkpt>
      <trkpt lat="44.62978" lon="2.94153">
        <ele>1198.2</ele>
        <time>2022-08-05T09:58:54Z</time>
      </trkpt>
      <trkpt lat="44.62979" lon="2.94154">
        <ele>1198.3</ele>
        <time>2022-08-05T09:58:58Z</time>
      </trkpt>
      <trkpt lat="44.62981" lon="2.94155">
        <ele>1198.4</ele>
        <time>2022-08-05T09:59:00Z</time>
      </trkpt>
      <trkpt lat="44.62988" lon="2.9416">
        <ele>1198.6</ele>
        <time>2022-08-05T09:59:06Z</time>
      </trkpt>
      <trkpt lat="44.62989" lon="2.9416">
        <ele>1198.6</ele>
        <time>2022-08-05T09:59:07Z</time>
      </trkpt>
      <trkpt lat="44.62995" lon="2.94163">
        <ele>1198.9</ele>
        <time>2022-08-05T09:59:15Z</time>
      </trkpt>
      <trkpt lat="44.62996" lon="2.94163">
        <ele>1199</ele>
        <time>2022-08-05T09:59:16Z</time>
      </trkpt>
      <trkpt lat="44.62996" lon="2.94164">
        <ele>1199</ele>
        <time>2022-08-05T09:59:19Z</time>
      </trkpt>
      <trkpt lat="44.62997" lon="2.94165">
        <ele>1199</ele>
        <time>2022-08-05T09:59:20Z</time>
      </trkpt>
      <trkpt lat="44.63003" lon="2.94169">
        <ele>1199.3</ele>
        <time>2022-08-05T09:59:24Z</time>
      </trkpt>
      <trkpt lat="44.63004" lon="2.9417">
        <ele>1199.4</ele>
        <time>2022-08-05T09:59:25Z</time>
      </trkpt>
      <trkpt lat="44.63005" lon="2.9417">
        <ele>1199.5</ele>
        <time>2022-08-05T09:59:26Z</time>
      </trkpt>
      <trkpt lat="44.63007" lon="2.9417">
        <ele>1199.9</ele>
        <time>2022-08-05T09:59:28Z</time>
      </trkpt>
      <trkpt lat="44.6301" lon="2.9417">
        <ele>1200.4</ele>
        <time>2022-08-05T09:59:31Z</time>
      </trkpt>
      <trkpt lat="44.6301" lon="2.9417">
        <ele>1200.5</ele>
        <time>2022-08-05T09:59:32Z</time>
      </trkpt>
      <trkpt lat="44.63013" lon="2.94169">
        <ele>1201.1</ele>
        <time>2022-08-05T09:59:36Z</time>
      </trkpt>
      <trkpt lat="44.63014" lon="2.9417">
        <ele>1201.2</ele>
        <time>2022-08-05T09:59:37Z</time>
      </trkpt>
      <trkpt lat="44.6302" lon="2.94175">
        <ele>1201.7</ele>
        <time>2022-08-05T09:59:44Z</time>
      </trkpt>
      <trkpt lat="44.63023" lon="2.94179">
        <ele>1201.9</ele>
        <time>2022-08-05T09:59:47Z</time>
      </trkpt>
      <trkpt lat="44.63027" lon="2.9418">
        <ele>1202.3</ele>
        <time>2022-08-05T09:59:50Z</time>
      </trkpt>
      <trkpt lat="44.63029" lon="2.94181">
        <ele>1202.7</ele>
        <time>2022-08-05T09:59:53Z</time>
      </trkpt>
      <trkpt lat="44.63032" lon="2.94182">
        <ele>1203.2</ele>
        <time>2022-08-05T09:59:56Z</time>
      </trkpt>
      <trkpt lat="44.63034" lon="2.94183">
        <ele>1203.5</ele>
        <time>2022-08-05T09:59:58Z</time>
      </trkpt>
      <trkpt lat="44.63035" lon="2.94183">
        <ele>1203.7</ele>
        <time>2022-08-05T09:59:59Z</time>
      </trkpt>
      <trkpt lat="44.63037" lon="2.94184">
        <ele>1204.1</ele>
        <time>2022-08-05T10:00:01Z</time>
      </trkpt>
      <trkpt lat="44.63038" lon="2.94183">
        <ele>1204.3</ele>
        <time>2022-08-05T10:00:02Z</time>
      </trkpt>
      <trkpt lat="44.63038" lon="2.94183">
        <ele>1204.5</ele>
        <time>2022-08-05T10:00:04Z</time>
      </trkpt>
      <trkpt lat="44.63039" lon="2.94183">
        <ele>1204.7</ele>
        <time>2022-08-05T10:00:05Z</time>
      </trkpt>
      <trkpt lat="44.63041" lon="2.94183">
        <ele>1205.1</ele>
        <time>2022-08-05T10:00:07Z</time>
      </trkpt>
      <trkpt lat="44.63043" lon="2.94184">
        <ele>1205.4</ele>
        <time>2022-08-05T10:00:10Z</time>
      </trkpt>
      <trkpt lat="44.63044" lon="2.94185">
        <ele>1205.5</ele>
        <time>2022-08-05T10:00:11Z</time>
      </trkpt>
      <trkpt lat="44.63047" lon="2.94186">
        <ele>1206</ele>
        <time>2022-08-05T10:00:13Z</time>
      </trkpt>
      <trkpt lat="44.63049" lon="2.94187">
        <ele>1206.3</ele>
        <time>2022-08-05T10:00:14Z</time>
      </trkpt>
      <trkpt lat="44.6305" lon="2.94188">
        <ele>1206.6</ele>
        <time>2022-08-05T10:00:15Z</time>
      </trkpt>
      <trkpt lat="44.63051" lon="2.94189">
        <ele>1206.6</ele>
        <time>2022-08-05T10:00:16Z</time>
      </trkpt>
      <trkpt lat="44.63051" lon="2.94189">
        <ele>1206.6</ele>
        <time>2022-08-05T10:00:17Z</time>
      </trkpt>
      <trkpt lat="44.63058" lon="2.94194">
        <ele>1207.5</ele>
        <time>2022-08-05T10:00:23Z</time>
      </trkpt>
      <trkpt lat="44.63058" lon="2.94194">
        <ele>1207.7</ele>
        <time>2022-08-05T10:00:24Z</time>
      </trkpt>
      <trkpt lat="44.6306" lon="2.94196">
        <ele>1207.8</ele>
        <time>2022-08-05T10:00:25Z</time>
      </trkpt>
      <trkpt lat="44.63061" lon="2.94199">
        <ele>1208</ele>
        <time>2022-08-05T10:00:28Z</time>
      </trkpt>
      <trkpt lat="44.63062" lon="2.942">
        <ele>1208.1</ele>
        <time>2022-08-05T10:00:29Z</time>
      </trkpt>
      <trkpt lat="44.63063" lon="2.942">
        <ele>1208.3</ele>
        <time>2022-08-05T10:00:30Z</time>
      </trkpt>
      <trkpt lat="44.63065" lon="2.94201">
        <ele>1208.7</ele>
        <time>2022-08-05T10:00:32Z</time>
      </trkpt>
      <trkpt lat="44.63068" lon="2.94204">
        <ele>1209.1</ele>
        <time>2022-08-05T10:00:35Z</time>
      </trkpt>
      <trkpt lat="44.63075" lon="2.94208">
        <ele>1210.3</ele>
        <time>2022-08-05T10:00:41Z</time>
      </trkpt>
      <trkpt lat="44.6308" lon="2.94212">
        <ele>1211.1</ele>
        <time>2022-08-05T10:00:44Z</time>
      </trkpt>
      <trkpt lat="44.6308" lon="2.94214">
        <ele>1211.1</ele>
        <time>2022-08-05T10:00:45Z</time>
      </trkpt>
      <trkpt lat="44.63083" lon="2.94217">
        <ele>1211.4</ele>
        <time>2022-08-05T10:00:47Z</time>
      </trkpt>
      <trkpt lat="44.63084" lon="2.94217">
        <ele>1211.6</ele>
        <time>2022-08-05T10:00:49Z</time>
      </trkpt>
      <trkpt lat="44.63086" lon="2.94217">
        <ele>1212.1</ele>
        <time>2022-08-05T10:00:52Z</time>
      </trkpt>
      <trkpt lat="44.63086" lon="2.94219">
        <ele>1212.1</ele>
        <time>2022-08-05T10:00:53Z</time>
      </trkpt>
      <trkpt lat="44.63088" lon="2.9422">
        <ele>1212.4</ele>
        <time>2022-08-05T10:00:56Z</time>
      </trkpt>
      <trkpt lat="44.6309" lon="2.94223">
        <ele>1212.6</ele>
        <time>2022-08-05T10:00:58Z</time>
      </trkpt>
      <trkpt lat="44.63091" lon="2.94223">
        <ele>1212.8</ele>
        <time>2022-08-05T10:00:59Z</time>
      </trkpt>
      <trkpt lat="44.63093" lon="2.94225">
        <ele>1213</ele>
        <time>2022-08-05T10:01:00Z</time>
      </trkpt>
      <trkpt lat="44.63098" lon="2.94227">
        <ele>1213.9</ele>
        <time>2022-08-05T10:01:04Z</time>
      </trkpt>
      <trkpt lat="44.63097" lon="2.94227">
        <ele>1213.8</ele>
        <time>2022-08-05T10:01:05Z</time>
      </trkpt>
      <trkpt lat="44.63095" lon="2.94228">
        <ele>1213</ele>
        <time>2022-08-05T10:01:10Z</time>
      </trkpt>
      <trkpt lat="44.63095" lon="2.94228">
        <ele>1213</ele>
        <time>2022-08-05T10:01:13Z</time>
      </trkpt>
      <trkpt lat="44.63092" lon="2.94226">
        <ele>1212.8</ele>
        <time>2022-08-05T10:01:18Z</time>
      </trkpt>
      <trkpt lat="44.63092" lon="2.94225">
        <ele>1212.9</ele>
        <time>2022-08-05T10:01:19Z</time>
      </trkpt>
      <trkpt lat="44.63092" lon="2.94226">
        <ele>1212.7</ele>
        <time>2022-08-05T10:01:22Z</time>
      </trkpt>
      <trkpt lat="44.63092" lon="2.94227">
        <ele>1212.6</ele>
        <time>2022-08-05T10:01:26Z</time>
      </trkpt>
      <trkpt lat="44.63093" lon="2.94227">
        <ele>1212.7</ele>
        <time>2022-08-05T10:01:29Z</time>
      </trkpt>
      <trkpt lat="44.63094" lon="2.94227">
        <ele>1213</ele>
        <time>2022-08-05T10:01:30Z</time>
      </trkpt>
      <trkpt lat="44.63097" lon="2.94228">
        <ele>1213.6</ele>
        <time>2022-08-05T10:01:32Z</time>
      </trkpt>
      <trkpt lat="44.631" lon="2.94233">
        <ele>1213.8</ele>
        <time>2022-08-05T10:01:35Z</time>
      </trkpt>
      <trkpt lat="44.63103" lon="2.94236">
        <ele>1213.9</ele>
        <time>2022-08-05T10:01:37Z</time>
      </trkpt>
      <trkpt lat="44.63103" lon="2.94238">
        <ele>1213.8</ele>
        <time>2022-08-05T10:01:38Z</time>
      </trkpt>
      <trkpt lat="44.63104" lon="2.94239">
        <ele>1213.8</ele>
        <time>2022-08-05T10:01:39Z</time>
      </trkpt>
      <trkpt lat="44.63106" lon="2.94241">
        <ele>1213.9</ele>
        <time>2022-08-05T10:01:42Z</time>
      </trkpt>
      <trkpt lat="44.63106" lon="2.94243">
        <ele>1213.9</ele>
        <time>2022-08-05T10:01:43Z</time>
      </trkpt>
      <trkpt lat="44.63107" lon="2.94244">
        <ele>1213.8</ele>
        <time>2022-08-05T10:01:44Z</time>
      </trkpt>
      <trkpt lat="44.63107" lon="2.94244">
        <ele>1213.9</ele>
        <time>2022-08-05T10:01:45Z</time>
      </trkpt>
      <trkpt lat="44.63111" lon="2.94247">
        <ele>1214.4</ele>
        <time>2022-08-05T10:01:48Z</time>
      </trkpt>
      <trkpt lat="44.63111" lon="2.94248">
        <ele>1214.3</ele>
        <time>2022-08-05T10:01:49Z</time>
      </trkpt>
      <trkpt lat="44.63111" lon="2.94248">
        <ele>1214.3</ele>
        <time>2022-08-05T10:01:50Z</time>
      </trkpt>
      <trkpt lat="44.63112" lon="2.94249">
        <ele>1214.3</ele>
        <time>2022-08-05T10:01:51Z</time>
      </trkpt>
      <trkpt lat="44.63114" lon="2.9425">
        <ele>1214.8</ele>
        <time>2022-08-05T10:01:54Z</time>
      </trkpt>
      <trkpt lat="44.63116" lon="2.9425">
        <ele>1215.2</ele>
        <time>2022-08-05T10:01:55Z</time>
      </trkpt>
      <trkpt lat="44.63118" lon="2.94254">
        <ele>1215.6</ele>
        <time>2022-08-05T10:01:58Z</time>
      </trkpt>
      <trkpt lat="44.63119" lon="2.94254">
        <ele>1215.8</ele>
        <time>2022-08-05T10:02:00Z</time>
      </trkpt>
      <trkpt lat="44.6312" lon="2.94255">
        <ele>1215.9</ele>
        <time>2022-08-05T10:02:01Z</time>
      </trkpt>
      <trkpt lat="44.63122" lon="2.94258">
        <ele>1216.2</ele>
        <time>2022-08-05T10:02:04Z</time>
      </trkpt>
      <trkpt lat="44.63126" lon="2.94262">
        <ele>1216.6</ele>
        <time>2022-08-05T10:02:07Z</time>
      </trkpt>
      <trkpt lat="44.63127" lon="2.94265">
        <ele>1216.6</ele>
        <time>2022-08-05T10:02:08Z</time>
      </trkpt>
      <trkpt lat="44.6313" lon="2.9427">
        <ele>1216.8</ele>
        <time>2022-08-05T10:02:12Z</time>
      </trkpt>
      <trkpt lat="44.63131" lon="2.94271">
        <ele>1216.9</ele>
        <time>2022-08-05T10:02:13Z</time>
      </trkpt>
      <trkpt lat="44.63132" lon="2.94272">
        <ele>1217</ele>
        <time>2022-08-05T10:02:14Z</time>
      </trkpt>
      <trkpt lat="44.63133" lon="2.94273">
        <ele>1217.2</ele>
        <time>2022-08-05T10:02:15Z</time>
      </trkpt>
      <trkpt lat="44.63134" lon="2.94273">
        <ele>1217.5</ele>
        <time>2022-08-05T10:02:16Z</time>
      </trkpt>
      <trkpt lat="44.63135" lon="2.94274">
        <ele>1217.6</ele>
        <time>2022-08-05T10:02:17Z</time>
      </trkpt>
      <trkpt lat="44.63136" lon="2.94274">
        <ele>1217.8</ele>
        <time>2022-08-05T10:02:19Z</time>
      </trkpt>
      <trkpt lat="44.63136" lon="2.94274">
        <ele>1217.9</ele>
        <time>2022-08-05T10:02:20Z</time>
      </trkpt>
      <trkpt lat="44.63139" lon="2.94275">
        <ele>1218.4</ele>
        <time>2022-08-05T10:02:23Z</time>
      </trkpt>
      <trkpt lat="44.63139" lon="2.94275">
        <ele>1218.4</ele>
        <time>2022-08-05T10:02:24Z</time>
      </trkpt>
      <trkpt lat="44.6314" lon="2.94277">
        <ele>1218.5</ele>
        <time>2022-08-05T10:02:25Z</time>
      </trkpt>
      <trkpt lat="44.63142" lon="2.94279">
        <ele>1218.6</ele>
        <time>2022-08-05T10:02:27Z</time>
      </trkpt>
      <trkpt lat="44.63143" lon="2.9428">
        <ele>1218.8</ele>
        <time>2022-08-05T10:02:29Z</time>
      </trkpt>
      <trkpt lat="44.63144" lon="2.9428">
        <ele>1219.1</ele>
        <time>2022-08-05T10:02:32Z</time>
      </trkpt>
      <trkpt lat="44.63145" lon="2.94278">
        <ele>1219.6</ele>
        <time>2022-08-05T10:02:34Z</time>
      </trkpt>
      <trkpt lat="44.63148" lon="2.9428">
        <ele>1220.1</ele>
        <time>2022-08-05T10:02:36Z</time>
      </trkpt>
      <trkpt lat="44.63151" lon="2.94283">
        <ele>1220.5</ele>
        <time>2022-08-05T10:02:39Z</time>
      </trkpt>
      <trkpt lat="44.63153" lon="2.94285">
        <ele>1220.8</ele>
        <time>2022-08-05T10:02:41Z</time>
      </trkpt>
      <trkpt lat="44.63156" lon="2.9429">
        <ele>1220.6</ele>
        <time>2022-08-05T10:02:45Z</time>
      </trkpt>
      <trkpt lat="44.63156" lon="2.94294">
        <ele>1220.3</ele>
        <time>2022-08-05T10:02:47Z</time>
      </trkpt>
      <trkpt lat="44.63157" lon="2.94295">
        <ele>1220.2</ele>
        <time>2022-08-05T10:02:48Z</time>
      </trkpt>
      <trkpt lat="44.63159" lon="2.94302">
        <ele>1219.8</ele>
        <time>2022-08-05T10:02:52Z</time>
      </trkpt>
      <trkpt lat="44.6316" lon="2.94304">
        <ele>1219.7</ele>
        <time>2022-08-05T10:02:54Z</time>
      </trkpt>
      <trkpt lat="44.6316" lon="2.94305">
        <ele>1219.6</ele>
        <time>2022-08-05T10:02:56Z</time>
      </trkpt>
      <trkpt lat="44.63162" lon="2.94307">
        <ele>1219.7</ele>
        <time>2022-08-05T10:03:00Z</time>
      </trkpt>
      <trkpt lat="44.63162" lon="2.94308">
        <ele>1219.8</ele>
        <time>2022-08-05T10:03:01Z</time>
      </trkpt>
      <trkpt lat="44.63162" lon="2.94309">
        <ele>1219.7</ele>
        <time>2022-08-05T10:03:03Z</time>
      </trkpt>
      <trkpt lat="44.63162" lon="2.94309">
        <ele>1219.7</ele>
        <time>2022-08-05T10:03:04Z</time>
      </trkpt>
      <trkpt lat="44.63162" lon="2.94309">
        <ele>1219.7</ele>
        <time>2022-08-05T10:03:05Z</time>
      </trkpt>
      <trkpt lat="44.63162" lon="2.94308">
        <ele>1219.7</ele>
        <time>2022-08-05T10:03:06Z</time>
      </trkpt>
      <trkpt lat="44.63162" lon="2.94308">
        <ele>1219.8</ele>
        <time>2022-08-05T10:03:07Z</time>
      </trkpt>
      <trkpt lat="44.63163" lon="2.94307">
        <ele>1220</ele>
        <time>2022-08-05T10:03:08Z</time>
      </trkpt>
      <trkpt lat="44.63164" lon="2.94308">
        <ele>1220.1</ele>
        <time>2022-08-05T10:03:10Z</time>
      </trkpt>
      <trkpt lat="44.63164" lon="2.94308">
        <ele>1220.1</ele>
        <time>2022-08-05T10:03:12Z</time>
      </trkpt>
      <trkpt lat="44.63164" lon="2.94308">
        <ele>1220.1</ele>
        <time>2022-08-05T10:03:14Z</time>
      </trkpt>
      <trkpt lat="44.6316" lon="2.94315">
        <ele>1218.6</ele>
        <time>2022-08-05T10:03:42Z</time>
      </trkpt>
      <trkpt lat="44.63156" lon="2.94325">
        <ele>1216.7</ele>
        <time>2022-08-05T10:03:49Z</time>
      </trkpt>
      <trkpt lat="44.63158" lon="2.94329">
        <ele>1216.5</ele>
        <time>2022-08-05T10:03:55Z</time>
      </trkpt>
      <trkpt lat="44.63155" lon="2.94332">
        <ele>1215.5</ele>
        <time>2022-08-05T10:04:00Z</time>
      </trkpt>
      <trkpt lat="44.63154" lon="2.94331">
        <ele>1215.5</ele>
        <time>2022-08-05T10:04:02Z</time>
      </trkpt>
      <trkpt lat="44.63157" lon="2.94331">
        <ele>1216.1</ele>
        <time>2022-08-05T10:04:04Z</time>
      </trkpt>
      <trkpt lat="44.63158" lon="2.94331">
        <ele>1216.3</ele>
        <time>2022-08-05T10:04:08Z</time>
      </trkpt>
      <trkpt lat="44.63156" lon="2.94331">
        <ele>1215.9</ele>
        <time>2022-08-05T10:04:14Z</time>
      </trkpt>
      <trkpt lat="44.63155" lon="2.9433">
        <ele>1215.9</ele>
        <time>2022-08-05T10:04:15Z</time>
      </trkpt>
      <trkpt lat="44.63153" lon="2.94328">
        <ele>1215.7</ele>
        <time>2022-08-05T10:04:21Z</time>
      </trkpt>
      <trkpt lat="44.63154" lon="2.94329">
        <ele>1215.7</ele>
        <time>2022-08-05T10:04:24Z</time>
      </trkpt>
      <trkpt lat="44.63153" lon="2.94329">
        <ele>1215.4</ele>
        <time>2022-08-05T10:04:30Z</time>
      </trkpt>
      <trkpt lat="44.63153" lon="2.94324">
        <ele>1216.1</ele>
        <time>2022-08-05T10:04:36Z</time>
      </trkpt>
      <trkpt lat="44.63149" lon="2.9432">
        <ele>1215.6</ele>
        <time>2022-08-05T10:04:42Z</time>
      </trkpt>
      <trkpt lat="44.63149" lon="2.94318">
        <ele>1215.8</ele>
        <time>2022-08-05T10:04:43Z</time>
      </trkpt>
      <trkpt lat="44.63149" lon="2.94317">
        <ele>1216.1</ele>
        <time>2022-08-05T10:04:44Z</time>
      </trkpt>
      <trkpt lat="44.63151" lon="2.94314">
        <ele>1216.7</ele>
        <time>2022-08-05T10:04:46Z</time>
      </trkpt>
      <trkpt lat="44.63151" lon="2.94313">
        <ele>1216.9</ele>
        <time>2022-08-05T10:04:47Z</time>
      </trkpt>
      <trkpt lat="44.63152" lon="2.94313">
        <ele>1217</ele>
        <time>2022-08-05T10:04:48Z</time>
      </trkpt>
      <trkpt lat="44.63153" lon="2.94312">
        <ele>1217.3</ele>
        <time>2022-08-05T10:04:49Z</time>
      </trkpt>
      <trkpt lat="44.63153" lon="2.9431">
        <ele>1217.6</ele>
        <time>2022-08-05T10:04:50Z</time>
      </trkpt>
      <trkpt lat="44.63154" lon="2.94309">
        <ele>1217.8</ele>
        <time>2022-08-05T10:04:51Z</time>
      </trkpt>
      <trkpt lat="44.63154" lon="2.94307">
        <ele>1218.2</ele>
        <time>2022-08-05T10:04:52Z</time>
      </trkpt>
      <trkpt lat="44.63155" lon="2.94306">
        <ele>1218.4</ele>
        <time>2022-08-05T10:04:53Z</time>
      </trkpt>
      <trkpt lat="44.63155" lon="2.94305">
        <ele>1218.6</ele>
        <time>2022-08-05T10:04:54Z</time>
      </trkpt>
      <trkpt lat="44.63156" lon="2.94305">
        <ele>1218.8</ele>
        <time>2022-08-05T10:04:55Z</time>
      </trkpt>
      <trkpt lat="44.63157" lon="2.94305">
        <ele>1219</ele>
        <time>2022-08-05T10:04:56Z</time>
      </trkpt>
      <trkpt lat="44.63159" lon="2.94306">
        <ele>1219.4</ele>
        <time>2022-08-05T10:04:58Z</time>
      </trkpt>
      <trkpt lat="44.63162" lon="2.94307">
        <ele>1219.7</ele>
        <time>2022-08-05T10:04:59Z</time>
      </trkpt>
      <trkpt lat="44.63163" lon="2.94307">
        <ele>1220.1</ele>
        <time>2022-08-05T10:05:00Z</time>
      </trkpt>
      <trkpt lat="44.63165" lon="2.94307">
        <ele>1220.5</ele>
        <time>2022-08-05T10:05:01Z</time>
      </trkpt>
      <trkpt lat="44.63169" lon="2.94306">
        <ele>1221.3</ele>
        <time>2022-08-05T10:05:04Z</time>
      </trkpt>
      <trkpt lat="44.63169" lon="2.94305">
        <ele>1221.5</ele>
        <time>2022-08-05T10:05:05Z</time>
      </trkpt>
      <trkpt lat="44.63171" lon="2.94305">
        <ele>1221.9</ele>
        <time>2022-08-05T10:05:07Z</time>
      </trkpt>
      <trkpt lat="44.63172" lon="2.94306">
        <ele>1221.9</ele>
        <time>2022-08-05T10:05:08Z</time>
      </trkpt>
      <trkpt lat="44.63176" lon="2.94309">
        <ele>1222.4</ele>
        <time>2022-08-05T10:05:11Z</time>
      </trkpt>
      <trkpt lat="44.63179" lon="2.9431">
        <ele>1222.7</ele>
        <time>2022-08-05T10:05:14Z</time>
      </trkpt>
      <trkpt lat="44.63182" lon="2.94312">
        <ele>1222.8</ele>
        <time>2022-08-05T10:05:16Z</time>
      </trkpt>
      <trkpt lat="44.63186" lon="2.94317">
        <ele>1223</ele>
        <time>2022-08-05T10:05:19Z</time>
      </trkpt>
      <trkpt lat="44.63189" lon="2.94319">
        <ele>1223.2</ele>
        <time>2022-08-05T10:05:22Z</time>
      </trkpt>
      <trkpt lat="44.63192" lon="2.94322">
        <ele>1223.3</ele>
        <time>2022-08-05T10:05:25Z</time>
      </trkpt>
      <trkpt lat="44.63195" lon="2.94324">
        <ele>1223.5</ele>
        <time>2022-08-05T10:05:27Z</time>
      </trkpt>
      <trkpt lat="44.63198" lon="2.94326">
        <ele>1223.5</ele>
        <time>2022-08-05T10:05:29Z</time>
      </trkpt>
      <trkpt lat="44.63199" lon="2.94327">
        <ele>1223.5</ele>
        <time>2022-08-05T10:05:30Z</time>
      </trkpt>
      <trkpt lat="44.63199" lon="2.94328">
        <ele>1223.5</ele>
        <time>2022-08-05T10:05:31Z</time>
      </trkpt>
      <trkpt lat="44.63201" lon="2.94328">
        <ele>1223.6</ele>
        <time>2022-08-05T10:05:33Z</time>
      </trkpt>
      <trkpt lat="44.63202" lon="2.94329">
        <ele>1223.7</ele>
        <time>2022-08-05T10:05:35Z</time>
      </trkpt>
      <trkpt lat="44.63205" lon="2.94331">
        <ele>1223.9</ele>
        <time>2022-08-05T10:05:38Z</time>
      </trkpt>
      <trkpt lat="44.63208" lon="2.94333">
        <ele>1224</ele>
        <time>2022-08-05T10:05:39Z</time>
      </trkpt>
      <trkpt lat="44.63209" lon="2.94334">
        <ele>1224.1</ele>
        <time>2022-08-05T10:05:40Z</time>
      </trkpt>
      <trkpt lat="44.63213" lon="2.94337">
        <ele>1224.2</ele>
        <time>2022-08-05T10:05:42Z</time>
      </trkpt>
      <trkpt lat="44.63216" lon="2.94339">
        <ele>1224.4</ele>
        <time>2022-08-05T10:05:44Z</time>
      </trkpt>
      <trkpt lat="44.6322" lon="2.94341">
        <ele>1224.6</ele>
        <time>2022-08-05T10:05:47Z</time>
      </trkpt>
      <trkpt lat="44.63223" lon="2.94341">
        <ele>1225</ele>
        <time>2022-08-05T10:05:49Z</time>
      </trkpt>
      <trkpt lat="44.63226" lon="2.94342">
        <ele>1225.1</ele>
        <time>2022-08-05T10:05:51Z</time>
      </trkpt>
      <trkpt lat="44.63228" lon="2.94342">
        <ele>1225.3</ele>
        <time>2022-08-05T10:05:53Z</time>
      </trkpt>
      <trkpt lat="44.63229" lon="2.94342">
        <ele>1225.3</ele>
        <time>2022-08-05T10:05:54Z</time>
      </trkpt>
      <trkpt lat="44.63233" lon="2.94342">
        <ele>1225.6</ele>
        <time>2022-08-05T10:05:56Z</time>
      </trkpt>
      <trkpt lat="44.63234" lon="2.94343">
        <ele>1225.6</ele>
        <time>2022-08-05T10:05:57Z</time>
      </trkpt>
      <trkpt lat="44.63236" lon="2.94344">
        <ele>1225.7</ele>
        <time>2022-08-05T10:05:58Z</time>
      </trkpt>
      <trkpt lat="44.63237" lon="2.94344">
        <ele>1225.7</ele>
        <time>2022-08-05T10:05:59Z</time>
      </trkpt>
      <trkpt lat="44.63238" lon="2.94344">
        <ele>1225.9</ele>
        <time>2022-08-05T10:06:00Z</time>
      </trkpt>
      <trkpt lat="44.63242" lon="2.94344">
        <ele>1226.2</ele>
        <time>2022-08-05T10:06:03Z</time>
      </trkpt>
      <trkpt lat="44.63245" lon="2.94344">
        <ele>1226.4</ele>
        <time>2022-08-05T10:06:05Z</time>
      </trkpt>
      <trkpt lat="44.63246" lon="2.94344">
        <ele>1226.5</ele>
        <time>2022-08-05T10:06:06Z</time>
      </trkpt>
      <trkpt lat="44.63249" lon="2.94344">
        <ele>1226.7</ele>
        <time>2022-08-05T10:06:09Z</time>
      </trkpt>
      <trkpt lat="44.63252" lon="2.94345">
        <ele>1226.9</ele>
        <time>2022-08-05T10:06:11Z</time>
      </trkpt>
      <trkpt lat="44.63254" lon="2.94346">
        <ele>1227.1</ele>
        <time>2022-08-05T10:06:13Z</time>
      </trkpt>
      <trkpt lat="44.63258" lon="2.94347">
        <ele>1227.2</ele>
        <time>2022-08-05T10:06:16Z</time>
      </trkpt>
      <trkpt lat="44.63259" lon="2.94348">
        <ele>1227.2</ele>
        <time>2022-08-05T10:06:17Z</time>
      </trkpt>
      <trkpt lat="44.63273" lon="2.94357">
        <ele>1227.2</ele>
        <time>2022-08-05T10:06:27Z</time>
      </trkpt>
      <trkpt lat="44.63274" lon="2.94358">
        <ele>1227.2</ele>
        <time>2022-08-05T10:06:29Z</time>
      </trkpt>
      <trkpt lat="44.63276" lon="2.94359">
        <ele>1227.2</ele>
        <time>2022-08-05T10:06:32Z</time>
      </trkpt>
      <trkpt lat="44.63278" lon="2.9436">
        <ele>1227.2</ele>
        <time>2022-08-05T10:06:34Z</time>
      </trkpt>
      <trkpt lat="44.63282" lon="2.94363">
        <ele>1227.3</ele>
        <time>2022-08-05T10:06:37Z</time>
      </trkpt>
      <trkpt lat="44.63284" lon="2.94366">
        <ele>1227.4</ele>
        <time>2022-08-05T10:06:39Z</time>
      </trkpt>
      <trkpt lat="44.63287" lon="2.94368">
        <ele>1227.5</ele>
        <time>2022-08-05T10:06:41Z</time>
      </trkpt>
      <trkpt lat="44.63291" lon="2.94373">
        <ele>1227.5</ele>
        <time>2022-08-05T10:06:43Z</time>
      </trkpt>
      <trkpt lat="44.63296" lon="2.94377">
        <ele>1227.8</ele>
        <time>2022-08-05T10:06:48Z</time>
      </trkpt>
      <trkpt lat="44.63297" lon="2.94378">
        <ele>1227.9</ele>
        <time>2022-08-05T10:06:49Z</time>
      </trkpt>
      <trkpt lat="44.63298" lon="2.94377">
        <ele>1228.1</ele>
        <time>2022-08-05T10:06:51Z</time>
      </trkpt>
      <trkpt lat="44.63301" lon="2.94378">
        <ele>1228.3</ele>
        <time>2022-08-05T10:06:53Z</time>
      </trkpt>
      <trkpt lat="44.63305" lon="2.94379">
        <ele>1228.6</ele>
        <time>2022-08-05T10:06:55Z</time>
      </trkpt>
      <trkpt lat="44.63308" lon="2.94379">
        <ele>1229</ele>
        <time>2022-08-05T10:06:57Z</time>
      </trkpt>
      <trkpt lat="44.63312" lon="2.9438">
        <ele>1229.4</ele>
        <time>2022-08-05T10:07:00Z</time>
      </trkpt>
      <trkpt lat="44.63315" lon="2.9438">
        <ele>1229.8</ele>
        <time>2022-08-05T10:07:03Z</time>
      </trkpt>
      <trkpt lat="44.63317" lon="2.9438">
        <ele>1230</ele>
        <time>2022-08-05T10:07:04Z</time>
      </trkpt>
      <trkpt lat="44.63327" lon="2.9438">
        <ele>1231.2</ele>
        <time>2022-08-05T10:07:13Z</time>
      </trkpt>
      <trkpt lat="44.63332" lon="2.94381">
        <ele>1231.7</ele>
        <time>2022-08-05T10:07:18Z</time>
      </trkpt>
      <trkpt lat="44.63336" lon="2.94382">
        <ele>1231.9</ele>
        <time>2022-08-05T10:07:21Z</time>
      </trkpt>
      <trkpt lat="44.63343" lon="2.94384">
        <ele>1232.2</ele>
        <time>2022-08-05T10:07:29Z</time>
      </trkpt>
      <trkpt lat="44.63343" lon="2.94383">
        <ele>1232.3</ele>
        <time>2022-08-05T10:07:30Z</time>
      </trkpt>
      <trkpt lat="44.63344" lon="2.94383">
        <ele>1232.4</ele>
        <time>2022-08-05T10:07:31Z</time>
      </trkpt>
      <trkpt lat="44.6335" lon="2.94381">
        <ele>1233.1</ele>
        <time>2022-08-05T10:07:36Z</time>
      </trkpt>
      <trkpt lat="44.63351" lon="2.94381">
        <ele>1233.2</ele>
        <time>2022-08-05T10:07:37Z</time>
      </trkpt>
      <trkpt lat="44.63352" lon="2.9438">
        <ele>1233.3</ele>
        <time>2022-08-05T10:07:38Z</time>
      </trkpt>
      <trkpt lat="44.63356" lon="2.9438">
        <ele>1233.6</ele>
        <time>2022-08-05T10:07:42Z</time>
      </trkpt>
      <trkpt lat="44.63358" lon="2.9438">
        <ele>1233.7</ele>
        <time>2022-08-05T10:07:44Z</time>
      </trkpt>
      <trkpt lat="44.6336" lon="2.9438">
        <ele>1233.9</ele>
        <time>2022-08-05T10:07:46Z</time>
      </trkpt>
      <trkpt lat="44.63363" lon="2.9438">
        <ele>1234.1</ele>
        <time>2022-08-05T10:07:48Z</time>
      </trkpt>
      <trkpt lat="44.63364" lon="2.94381">
        <ele>1234.1</ele>
        <time>2022-08-05T10:07:49Z</time>
      </trkpt>
      <trkpt lat="44.63365" lon="2.94381">
        <ele>1234.1</ele>
        <time>2022-08-05T10:07:50Z</time>
      </trkpt>
      <trkpt lat="44.63369" lon="2.94382">
        <ele>1234.3</ele>
        <time>2022-08-05T10:07:53Z</time>
      </trkpt>
      <trkpt lat="44.6337" lon="2.94381">
        <ele>1234.4</ele>
        <time>2022-08-05T10:07:54Z</time>
      </trkpt>
      <trkpt lat="44.63372" lon="2.94379">
        <ele>1234.7</ele>
        <time>2022-08-05T10:07:56Z</time>
      </trkpt>
      <trkpt lat="44.63374" lon="2.94378">
        <ele>1234.9</ele>
        <time>2022-08-05T10:07:57Z</time>
      </trkpt>
      <trkpt lat="44.63375" lon="2.94377">
        <ele>1235.1</ele>
        <time>2022-08-05T10:07:58Z</time>
      </trkpt>
      <trkpt lat="44.63376" lon="2.94376">
        <ele>1235.2</ele>
        <time>2022-08-05T10:07:59Z</time>
      </trkpt>
      <trkpt lat="44.63378" lon="2.94374">
        <ele>1235.5</ele>
        <time>2022-08-05T10:08:01Z</time>
      </trkpt>
      <trkpt lat="44.63379" lon="2.94373">
        <ele>1235.6</ele>
        <time>2022-08-05T10:08:02Z</time>
      </trkpt>
      <trkpt lat="44.6338" lon="2.94372">
        <ele>1235.7</ele>
        <time>2022-08-05T10:08:03Z</time>
      </trkpt>
      <trkpt lat="44.63382" lon="2.94372">
        <ele>1235.8</ele>
        <time>2022-08-05T10:08:05Z</time>
      </trkpt>
      <trkpt lat="44.63383" lon="2.94372">
        <ele>1236</ele>
        <time>2022-08-05T10:08:06Z</time>
      </trkpt>
      <trkpt lat="44.63384" lon="2.94371">
        <ele>1236</ele>
        <time>2022-08-05T10:08:07Z</time>
      </trkpt>
      <trkpt lat="44.63387" lon="2.94369">
        <ele>1236.3</ele>
        <time>2022-08-05T10:08:10Z</time>
      </trkpt>
      <trkpt lat="44.63391" lon="2.94368">
        <ele>1236.6</ele>
        <time>2022-08-05T10:08:13Z</time>
      </trkpt>
      <trkpt lat="44.63393" lon="2.94369">
        <ele>1236.7</ele>
        <time>2022-08-05T10:08:16Z</time>
      </trkpt>
      <trkpt lat="44.63396" lon="2.94367">
        <ele>1236.9</ele>
        <time>2022-08-05T10:08:20Z</time>
      </trkpt>
      <trkpt lat="44.63398" lon="2.94367">
        <ele>1237</ele>
        <time>2022-08-05T10:08:22Z</time>
      </trkpt>
      <trkpt lat="44.63399" lon="2.94366">
        <ele>1237.1</ele>
        <time>2022-08-05T10:08:23Z</time>
      </trkpt>
      <trkpt lat="44.63401" lon="2.94367">
        <ele>1237.1</ele>
        <time>2022-08-05T10:08:26Z</time>
      </trkpt>
      <trkpt lat="44.63401" lon="2.94367">
        <ele>1237.1</ele>
        <time>2022-08-05T10:08:27Z</time>
      </trkpt>
      <trkpt lat="44.63401" lon="2.94368">
        <ele>1237.1</ele>
        <time>2022-08-05T10:08:28Z</time>
      </trkpt>
      <trkpt lat="44.63401" lon="2.94366">
        <ele>1237.2</ele>
        <time>2022-08-05T10:08:30Z</time>
      </trkpt>
      <trkpt lat="44.63403" lon="2.94365">
        <ele>1237.3</ele>
        <time>2022-08-05T10:08:32Z</time>
      </trkpt>
      <trkpt lat="44.63405" lon="2.94364">
        <ele>1237.5</ele>
        <time>2022-08-05T10:08:34Z</time>
      </trkpt>
      <trkpt lat="44.63406" lon="2.94363">
        <ele>1237.5</ele>
        <time>2022-08-05T10:08:35Z</time>
      </trkpt>
      <trkpt lat="44.63407" lon="2.94363">
        <ele>1237.6</ele>
        <time>2022-08-05T10:08:36Z</time>
      </trkpt>
      <trkpt lat="44.63409" lon="2.94362">
        <ele>1237.7</ele>
        <time>2022-08-05T10:08:37Z</time>
      </trkpt>
      <trkpt lat="44.6341" lon="2.94361">
        <ele>1237.7</ele>
        <time>2022-08-05T10:08:38Z</time>
      </trkpt>
      <trkpt lat="44.63412" lon="2.9436">
        <ele>1238</ele>
        <time>2022-08-05T10:08:40Z</time>
      </trkpt>
      <trkpt lat="44.63413" lon="2.94359">
        <ele>1238.1</ele>
        <time>2022-08-05T10:08:41Z</time>
      </trkpt>
      <trkpt lat="44.63415" lon="2.94358">
        <ele>1238.3</ele>
        <time>2022-08-05T10:08:43Z</time>
      </trkpt>
      <trkpt lat="44.63421" lon="2.94351">
        <ele>1239.3</ele>
        <time>2022-08-05T10:08:50Z</time>
      </trkpt>
      <trkpt lat="44.63422" lon="2.9435">
        <ele>1239.5</ele>
        <time>2022-08-05T10:08:51Z</time>
      </trkpt>
      <trkpt lat="44.63423" lon="2.94349">
        <ele>1239.6</ele>
        <time>2022-08-05T10:08:52Z</time>
      </trkpt>
      <trkpt lat="44.63425" lon="2.94348">
        <ele>1239.8</ele>
        <time>2022-08-05T10:08:54Z</time>
      </trkpt>
      <trkpt lat="44.63429" lon="2.94345">
        <ele>1240.3</ele>
        <time>2022-08-05T10:08:58Z</time>
      </trkpt>
      <trkpt lat="44.63429" lon="2.94345">
        <ele>1240.4</ele>
        <time>2022-08-05T10:08:59Z</time>
      </trkpt>
      <trkpt lat="44.63434" lon="2.94341">
        <ele>1241</ele>
        <time>2022-08-05T10:09:04Z</time>
      </trkpt>
      <trkpt lat="44.63436" lon="2.9434">
        <ele>1241.1</ele>
        <time>2022-08-05T10:09:06Z</time>
      </trkpt>
      <trkpt lat="44.63437" lon="2.94338">
        <ele>1241.3</ele>
        <time>2022-08-05T10:09:08Z</time>
      </trkpt>
      <trkpt lat="44.63444" lon="2.94331">
        <ele>1242.3</ele>
        <time>2022-08-05T10:09:17Z</time>
      </trkpt>
      <trkpt lat="44.63447" lon="2.94328">
        <ele>1242.8</ele>
        <time>2022-08-05T10:09:21Z</time>
      </trkpt>
      <trkpt lat="44.63449" lon="2.94326">
        <ele>1243.1</ele>
        <time>2022-08-05T10:09:23Z</time>
      </trkpt>
      <trkpt lat="44.6345" lon="2.94324">
        <ele>1243.4</ele>
        <time>2022-08-05T10:09:25Z</time>
      </trkpt>
      <trkpt lat="44.63452" lon="2.94321">
        <ele>1243.8</ele>
        <time>2022-08-05T10:09:28Z</time>
      </trkpt>
      <trkpt lat="44.63454" lon="2.94317">
        <ele>1244.3</ele>
        <time>2022-08-05T10:09:32Z</time>
      </trkpt>
      <trkpt lat="44.63457" lon="2.94308">
        <ele>1245.2</ele>
        <time>2022-08-05T10:09:41Z</time>
      </trkpt>
      <trkpt lat="44.63461" lon="2.94303">
        <ele>1245.9</ele>
        <time>2022-08-05T10:09:50Z</time>
      </trkpt>
      <trkpt lat="44.63463" lon="2.94301">
        <ele>1246.1</ele>
        <time>2022-08-05T10:09:52Z</time>
      </trkpt>
      <trkpt lat="44.63465" lon="2.943">
        <ele>1246.3</ele>
        <time>2022-08-05T10:09:54Z</time>
      </trkpt>
      <trkpt lat="44.63467" lon="2.94299">
        <ele>1246.5</ele>
        <time>2022-08-05T10:09:56Z</time>
      </trkpt>
      <trkpt lat="44.63468" lon="2.94299">
        <ele>1246.6</ele>
        <time>2022-08-05T10:09:57Z</time>
      </trkpt>
      <trkpt lat="44.63468" lon="2.94298">
        <ele>1246.7</ele>
        <time>2022-08-05T10:09:58Z</time>
      </trkpt>
      <trkpt lat="44.6347" lon="2.94297">
        <ele>1246.8</ele>
        <time>2022-08-05T10:09:59Z</time>
      </trkpt>
      <trkpt lat="44.63474" lon="2.94294">
        <ele>1247.4</ele>
        <time>2022-08-05T10:10:04Z</time>
      </trkpt>
      <trkpt lat="44.63478" lon="2.94291">
        <ele>1248.1</ele>
        <time>2022-08-05T10:10:09Z</time>
      </trkpt>
      <trkpt lat="44.63481" lon="2.94289">
        <ele>1248.6</ele>
        <time>2022-08-05T10:10:12Z</time>
      </trkpt>
      <trkpt lat="44.63482" lon="2.94289">
        <ele>1248.8</ele>
        <time>2022-08-05T10:10:13Z</time>
      </trkpt>
      <trkpt lat="44.63485" lon="2.94289">
        <ele>1249</ele>
        <time>2022-08-05T10:10:15Z</time>
      </trkpt>
      <trkpt lat="44.6349" lon="2.94289">
        <ele>1249.4</ele>
        <time>2022-08-05T10:10:20Z</time>
      </trkpt>
      <trkpt lat="44.63491" lon="2.9429">
        <ele>1249.4</ele>
        <time>2022-08-05T10:10:21Z</time>
      </trkpt>
      <trkpt lat="44.63497" lon="2.94289">
        <ele>1250.1</ele>
        <time>2022-08-05T10:10:27Z</time>
      </trkpt>
      <trkpt lat="44.63499" lon="2.9429">
        <ele>1250.2</ele>
        <time>2022-08-05T10:10:29Z</time>
      </trkpt>
      <trkpt lat="44.63509" lon="2.94291">
        <ele>1251.1</ele>
        <time>2022-08-05T10:10:38Z</time>
      </trkpt>
      <trkpt lat="44.63511" lon="2.94291">
        <ele>1251.3</ele>
        <time>2022-08-05T10:10:40Z</time>
      </trkpt>
      <trkpt lat="44.63514" lon="2.94292">
        <ele>1251.5</ele>
        <time>2022-08-05T10:10:43Z</time>
      </trkpt>
      <trkpt lat="44.63515" lon="2.94292">
        <ele>1251.7</ele>
        <time>2022-08-05T10:10:44Z</time>
      </trkpt>
      <trkpt lat="44.63516" lon="2.94292">
        <ele>1251.8</ele>
        <time>2022-08-05T10:10:45Z</time>
      </trkpt>
      <trkpt lat="44.63517" lon="2.94292">
        <ele>1251.9</ele>
        <time>2022-08-05T10:10:46Z</time>
      </trkpt>
      <trkpt lat="44.63518" lon="2.94292">
        <ele>1251.9</ele>
        <time>2022-08-05T10:10:47Z</time>
      </trkpt>
      <trkpt lat="44.6352" lon="2.94292">
        <ele>1252.1</ele>
        <time>2022-08-05T10:10:49Z</time>
      </trkpt>
      <trkpt lat="44.63521" lon="2.94292">
        <ele>1252.2</ele>
        <time>2022-08-05T10:10:50Z</time>
      </trkpt>
      <trkpt lat="44.63526" lon="2.94295">
        <ele>1252.4</ele>
        <time>2022-08-05T10:10:54Z</time>
      </trkpt>
      <trkpt lat="44.63528" lon="2.94296">
        <ele>1252.4</ele>
        <time>2022-08-05T10:10:56Z</time>
      </trkpt>
      <trkpt lat="44.63529" lon="2.94297">
        <ele>1252.4</ele>
        <time>2022-08-05T10:10:57Z</time>
      </trkpt>
      <trkpt lat="44.63532" lon="2.94298">
        <ele>1252.5</ele>
        <time>2022-08-05T10:10:59Z</time>
      </trkpt>
      <trkpt lat="44.63532" lon="2.94298">
        <ele>1252.5</ele>
        <time>2022-08-05T10:11:00Z</time>
      </trkpt>
      <trkpt lat="44.6354" lon="2.943">
        <ele>1253.1</ele>
        <time>2022-08-05T10:11:09Z</time>
      </trkpt>
      <trkpt lat="44.6355" lon="2.94302">
        <ele>1253.9</ele>
        <time>2022-08-05T10:11:18Z</time>
      </trkpt>
      <trkpt lat="44.63554" lon="2.94302">
        <ele>1254.3</ele>
        <time>2022-08-05T10:11:22Z</time>
      </trkpt>
      <trkpt lat="44.6356" lon="2.94303">
        <ele>1254.8</ele>
        <time>2022-08-05T10:11:28Z</time>
      </trkpt>
      <trkpt lat="44.63562" lon="2.94303">
        <ele>1255</ele>
        <time>2022-08-05T10:11:33Z</time>
      </trkpt>
      <trkpt lat="44.63562" lon="2.94303">
        <ele>1255.1</ele>
        <time>2022-08-05T10:11:34Z</time>
      </trkpt>
      <trkpt lat="44.63562" lon="2.94302">
        <ele>1255.1</ele>
        <time>2022-08-05T10:11:38Z</time>
      </trkpt>
      <trkpt lat="44.63562" lon="2.94302">
        <ele>1255.2</ele>
        <time>2022-08-05T10:11:39Z</time>
      </trkpt>
      <trkpt lat="44.63561" lon="2.94302">
        <ele>1255.1</ele>
        <time>2022-08-05T10:11:40Z</time>
      </trkpt>
      <trkpt lat="44.63561" lon="2.94302">
        <ele>1255.2</ele>
        <time>2022-08-05T10:11:41Z</time>
      </trkpt>
      <trkpt lat="44.63561" lon="2.94301">
        <ele>1255.2</ele>
        <time>2022-08-05T10:11:42Z</time>
      </trkpt>
      <trkpt lat="44.63561" lon="2.94301">
        <ele>1255.3</ele>
        <time>2022-08-05T10:11:44Z</time>
      </trkpt>
      <trkpt lat="44.63561" lon="2.94301">
        <ele>1255.3</ele>
        <time>2022-08-05T10:11:51Z</time>
      </trkpt>
      <trkpt lat="44.63561" lon="2.94301">
        <ele>1255.3</ele>
        <time>2022-08-05T10:12:02Z</time>
      </trkpt>
      <trkpt lat="44.63561" lon="2.94301">
        <ele>1255.2</ele>
        <time>2022-08-05T10:12:09Z</time>
      </trkpt>
      <trkpt lat="44.63564" lon="2.94301">
        <ele>1255.5</ele>
        <time>2022-08-05T10:12:15Z</time>
      </trkpt>
      <trkpt lat="44.63565" lon="2.94301">
        <ele>1255.6</ele>
        <time>2022-08-05T10:12:16Z</time>
      </trkpt>
      <trkpt lat="44.63567" lon="2.94303">
        <ele>1255.6</ele>
        <time>2022-08-05T10:12:18Z</time>
      </trkpt>
      <trkpt lat="44.63569" lon="2.94304">
        <ele>1255.6</ele>
        <time>2022-08-05T10:12:21Z</time>
      </trkpt>
      <trkpt lat="44.6357" lon="2.94305">
        <ele>1255.7</ele>
        <time>2022-08-05T10:12:22Z</time>
      </trkpt>
      <trkpt lat="44.63575" lon="2.94304">
        <ele>1256.3</ele>
        <time>2022-08-05T10:12:26Z</time>
      </trkpt>
      <trkpt lat="44.63582" lon="2.94303">
        <ele>1257.2</ele>
        <time>2022-08-05T10:12:33Z</time>
      </trkpt>
      <trkpt lat="44.63586" lon="2.94304">
        <ele>1257.6</ele>
        <time>2022-08-05T10:12:37Z</time>
      </trkpt>
      <trkpt lat="44.63587" lon="2.94304">
        <ele>1257.7</ele>
        <time>2022-08-05T10:12:38Z</time>
      </trkpt>
      <trkpt lat="44.63589" lon="2.94305">
        <ele>1257.8</ele>
        <time>2022-08-05T10:12:40Z</time>
      </trkpt>
      <trkpt lat="44.63588" lon="2.94305">
        <ele>1257.8</ele>
        <time>2022-08-05T10:12:41Z</time>
      </trkpt>
      <trkpt lat="44.6359" lon="2.94305">
        <ele>1258</ele>
        <time>2022-08-05T10:12:44Z</time>
      </trkpt>
      <trkpt lat="44.63593" lon="2.94306">
        <ele>1258.3</ele>
        <time>2022-08-05T10:12:47Z</time>
      </trkpt>
      <trkpt lat="44.63596" lon="2.94307">
        <ele>1258.6</ele>
        <time>2022-08-05T10:12:50Z</time>
      </trkpt>
      <trkpt lat="44.63596" lon="2.94307">
        <ele>1258.7</ele>
        <time>2022-08-05T10:12:51Z</time>
      </trkpt>
      <trkpt lat="44.63598" lon="2.94306">
        <ele>1259.1</ele>
        <time>2022-08-05T10:12:54Z</time>
      </trkpt>
      <trkpt lat="44.63601" lon="2.94306">
        <ele>1259.5</ele>
        <time>2022-08-05T10:12:57Z</time>
      </trkpt>
      <trkpt lat="44.63605" lon="2.94309">
        <ele>1259.8</ele>
        <time>2022-08-05T10:13:01Z</time>
      </trkpt>
      <trkpt lat="44.63609" lon="2.94309">
        <ele>1260.3</ele>
        <time>2022-08-05T10:13:05Z</time>
      </trkpt>
      <trkpt lat="44.63617" lon="2.94314">
        <ele>1261</ele>
        <time>2022-08-05T10:13:13Z</time>
      </trkpt>
      <trkpt lat="44.63619" lon="2.94314">
        <ele>1261.2</ele>
        <time>2022-08-05T10:13:14Z</time>
      </trkpt>
      <trkpt lat="44.63622" lon="2.94316">
        <ele>1261.4</ele>
        <time>2022-08-05T10:13:17Z</time>
      </trkpt>
      <trkpt lat="44.63624" lon="2.94317">
        <ele>1261.5</ele>
        <time>2022-08-05T10:13:19Z</time>
      </trkpt>
      <trkpt lat="44.63627" lon="2.9432">
        <ele>1261.7</ele>
        <time>2022-08-05T10:13:22Z</time>
      </trkpt>
      <trkpt lat="44.63627" lon="2.94319">
        <ele>1261.8</ele>
        <time>2022-08-05T10:13:25Z</time>
      </trkpt>
      <trkpt lat="44.63628" lon="2.9432">
        <ele>1261.8</ele>
        <time>2022-08-05T10:13:30Z</time>
      </trkpt>
      <trkpt lat="44.63628" lon="2.9432">
        <ele>1261.9</ele>
        <time>2022-08-05T10:13:32Z</time>
      </trkpt>
      <trkpt lat="44.63626" lon="2.94317">
        <ele>1261.9</ele>
        <time>2022-08-05T10:13:36Z</time>
      </trkpt>
      <trkpt lat="44.63628" lon="2.94317">
        <ele>1262.2</ele>
        <time>2022-08-05T10:13:38Z</time>
      </trkpt>
      <trkpt lat="44.63631" lon="2.9432">
        <ele>1262.3</ele>
        <time>2022-08-05T10:13:41Z</time>
      </trkpt>
      <trkpt lat="44.63633" lon="2.94321">
        <ele>1262.5</ele>
        <time>2022-08-05T10:13:43Z</time>
      </trkpt>
      <trkpt lat="44.63634" lon="2.94322">
        <ele>1262.5</ele>
        <time>2022-08-05T10:13:44Z</time>
      </trkpt>
      <trkpt lat="44.63635" lon="2.94323">
        <ele>1262.5</ele>
        <time>2022-08-05T10:13:45Z</time>
      </trkpt>
      <trkpt lat="44.63636" lon="2.94324">
        <ele>1262.5</ele>
        <time>2022-08-05T10:13:46Z</time>
      </trkpt>
      <trkpt lat="44.63643" lon="2.94325">
        <ele>1263.4</ele>
        <time>2022-08-05T10:13:52Z</time>
      </trkpt>
      <trkpt lat="44.63644" lon="2.94326">
        <ele>1263.5</ele>
        <time>2022-08-05T10:13:53Z</time>
      </trkpt>
      <trkpt lat="44.63651" lon="2.94325">
        <ele>1264.5</ele>
        <time>2022-08-05T10:14:00Z</time>
      </trkpt>
      <trkpt lat="44.63654" lon="2.94324">
        <ele>1265</ele>
        <time>2022-08-05T10:14:03Z</time>
      </trkpt>
      <trkpt lat="44.63655" lon="2.94325">
        <ele>1265.1</ele>
        <time>2022-08-05T10:14:04Z</time>
      </trkpt>
      <trkpt lat="44.63657" lon="2.94325">
        <ele>1265.3</ele>
        <time>2022-08-05T10:14:05Z</time>
      </trkpt>
      <trkpt lat="44.63658" lon="2.94325">
        <ele>1265.5</ele>
        <time>2022-08-05T10:14:06Z</time>
      </trkpt>
      <trkpt lat="44.6366" lon="2.94324">
        <ele>1265.8</ele>
        <time>2022-08-05T10:14:08Z</time>
      </trkpt>
      <trkpt lat="44.63662" lon="2.94324">
        <ele>1266.1</ele>
        <time>2022-08-05T10:14:10Z</time>
      </trkpt>
      <trkpt lat="44.63663" lon="2.94323">
        <ele>1266.3</ele>
        <time>2022-08-05T10:14:12Z</time>
      </trkpt>
      <trkpt lat="44.63664" lon="2.94323">
        <ele>1266.5</ele>
        <time>2022-08-05T10:14:13Z</time>
      </trkpt>
      <trkpt lat="44.63665" lon="2.94322">
        <ele>1266.6</ele>
        <time>2022-08-05T10:14:14Z</time>
      </trkpt>
      <trkpt lat="44.63667" lon="2.94321">
        <ele>1267</ele>
        <time>2022-08-05T10:14:16Z</time>
      </trkpt>
      <trkpt lat="44.6367" lon="2.9432">
        <ele>1267.4</ele>
        <time>2022-08-05T10:14:20Z</time>
      </trkpt>
      <trkpt lat="44.6367" lon="2.9432">
        <ele>1267.4</ele>
        <time>2022-08-05T10:14:21Z</time>
      </trkpt>
      <trkpt lat="44.6367" lon="2.9432">
        <ele>1267.4</ele>
        <time>2022-08-05T10:14:22Z</time>
      </trkpt>
      <trkpt lat="44.6367" lon="2.9432">
        <ele>1267.4</ele>
        <time>2022-08-05T10:14:23Z</time>
      </trkpt>
      <trkpt lat="44.63669" lon="2.9432">
        <ele>1267.3</ele>
        <time>2022-08-05T10:14:27Z</time>
      </trkpt>
      <trkpt lat="44.6367" lon="2.94319">
        <ele>1267.4</ele>
        <time>2022-08-05T10:14:28Z</time>
      </trkpt>
      <trkpt lat="44.63672" lon="2.94317">
        <ele>1267.9</ele>
        <time>2022-08-05T10:14:32Z</time>
      </trkpt>
      <trkpt lat="44.63674" lon="2.94316">
        <ele>1268.2</ele>
        <time>2022-08-05T10:14:34Z</time>
      </trkpt>
      <trkpt lat="44.6368" lon="2.94311">
        <ele>1269.5</ele>
        <time>2022-08-05T10:14:41Z</time>
      </trkpt>
      <trkpt lat="44.63681" lon="2.94311">
        <ele>1269.6</ele>
        <time>2022-08-05T10:14:42Z</time>
      </trkpt>
      <trkpt lat="44.63684" lon="2.94308">
        <ele>1270.2</ele>
        <time>2022-08-05T10:14:46Z</time>
      </trkpt>
      <trkpt lat="44.63692" lon="2.94301">
        <ele>1271.9</ele>
        <time>2022-08-05T10:14:56Z</time>
      </trkpt>
      <trkpt lat="44.63696" lon="2.94297">
        <ele>1272.8</ele>
        <time>2022-08-05T10:15:01Z</time>
      </trkpt>
      <trkpt lat="44.63699" lon="2.94296">
        <ele>1273.3</ele>
        <time>2022-08-05T10:15:04Z</time>
      </trkpt>
      <trkpt lat="44.63701" lon="2.94294">
        <ele>1273.6</ele>
        <time>2022-08-05T10:15:06Z</time>
      </trkpt>
      <trkpt lat="44.63701" lon="2.94294">
        <ele>1273.7</ele>
        <time>2022-08-05T10:15:07Z</time>
      </trkpt>
      <trkpt lat="44.63705" lon="2.9429">
        <ele>1274.4</ele>
        <time>2022-08-05T10:15:15Z</time>
      </trkpt>
      <trkpt lat="44.63705" lon="2.94291">
        <ele>1274.4</ele>
        <time>2022-08-05T10:15:16Z</time>
      </trkpt>
      <trkpt lat="44.63705" lon="2.94291">
        <ele>1274.4</ele>
        <time>2022-08-05T10:15:18Z</time>
      </trkpt>
      <trkpt lat="44.63705" lon="2.94291">
        <ele>1274.4</ele>
        <time>2022-08-05T10:15:19Z</time>
      </trkpt>
      <trkpt lat="44.63705" lon="2.94291">
        <ele>1274.4</ele>
        <time>2022-08-05T10:15:20Z</time>
      </trkpt>
      <trkpt lat="44.63705" lon="2.94291">
        <ele>1274.4</ele>
        <time>2022-08-05T10:15:21Z</time>
      </trkpt>
      <trkpt lat="44.63705" lon="2.94291">
        <ele>1274.4</ele>
        <time>2022-08-05T10:15:22Z</time>
      </trkpt>
      <trkpt lat="44.63706" lon="2.94291">
        <ele>1274.5</ele>
        <time>2022-08-05T10:15:23Z</time>
      </trkpt>
      <trkpt lat="44.63706" lon="2.9429">
        <ele>1274.5</ele>
        <time>2022-08-05T10:15:24Z</time>
      </trkpt>
      <trkpt lat="44.63706" lon="2.9429">
        <ele>1274.6</ele>
        <time>2022-08-05T10:15:25Z</time>
      </trkpt>
      <trkpt lat="44.63707" lon="2.9429">
        <ele>1274.7</ele>
        <time>2022-08-05T10:15:26Z</time>
      </trkpt>
      <trkpt lat="44.63708" lon="2.94288">
        <ele>1274.9</ele>
        <time>2022-08-05T10:15:28Z</time>
      </trkpt>
      <trkpt lat="44.63709" lon="2.94288">
        <ele>1275</ele>
        <time>2022-08-05T10:15:30Z</time>
      </trkpt>
      <trkpt lat="44.63711" lon="2.94287">
        <ele>1275.3</ele>
        <time>2022-08-05T10:15:36Z</time>
      </trkpt>
      <trkpt lat="44.63712" lon="2.94286">
        <ele>1275.4</ele>
        <time>2022-08-05T10:15:37Z</time>
      </trkpt>
      <trkpt lat="44.63713" lon="2.94286">
        <ele>1275.6</ele>
        <time>2022-08-05T10:15:38Z</time>
      </trkpt>
      <trkpt lat="44.63716" lon="2.94283">
        <ele>1276.1</ele>
        <time>2022-08-05T10:15:41Z</time>
      </trkpt>
      <trkpt lat="44.63718" lon="2.94281">
        <ele>1276.4</ele>
        <time>2022-08-05T10:15:43Z</time>
      </trkpt>
      <trkpt lat="44.63718" lon="2.9428">
        <ele>1276.5</ele>
        <time>2022-08-05T10:15:44Z</time>
      </trkpt>
      <trkpt lat="44.63719" lon="2.94279">
        <ele>1276.6</ele>
        <time>2022-08-05T10:15:45Z</time>
      </trkpt>
      <trkpt lat="44.63721" lon="2.94278">
        <ele>1276.9</ele>
        <time>2022-08-05T10:15:47Z</time>
      </trkpt>
      <trkpt lat="44.63727" lon="2.94277">
        <ele>1277.8</ele>
        <time>2022-08-05T10:15:53Z</time>
      </trkpt>
      <trkpt lat="44.63729" lon="2.94276">
        <ele>1278.1</ele>
        <time>2022-08-05T10:15:57Z</time>
      </trkpt>
      <trkpt lat="44.63729" lon="2.94276">
        <ele>1278.1</ele>
        <time>2022-08-05T10:15:59Z</time>
      </trkpt>
      <trkpt lat="44.63729" lon="2.94276">
        <ele>1278.1</ele>
        <time>2022-08-05T10:16:00Z</time>
      </trkpt>
      <trkpt lat="44.63732" lon="2.94276">
        <ele>1278.6</ele>
        <time>2022-08-05T10:16:04Z</time>
      </trkpt>
      <trkpt lat="44.63734" lon="2.94276">
        <ele>1278.8</ele>
        <time>2022-08-05T10:16:06Z</time>
      </trkpt>
      <trkpt lat="44.63739" lon="2.94276">
        <ele>1279.6</ele>
        <time>2022-08-05T10:16:11Z</time>
      </trkpt>
      <trkpt lat="44.6374" lon="2.94275">
        <ele>1279.7</ele>
        <time>2022-08-05T10:16:12Z</time>
      </trkpt>
      <trkpt lat="44.63741" lon="2.94274">
        <ele>1279.9</ele>
        <time>2022-08-05T10:16:14Z</time>
      </trkpt>
      <trkpt lat="44.63741" lon="2.94274">
        <ele>1279.9</ele>
        <time>2022-08-05T10:16:15Z</time>
      </trkpt>
      <trkpt lat="44.63741" lon="2.94275">
        <ele>1279.9</ele>
        <time>2022-08-05T10:16:16Z</time>
      </trkpt>
      <trkpt lat="44.63742" lon="2.94275">
        <ele>1280</ele>
        <time>2022-08-05T10:16:19Z</time>
      </trkpt>
      <trkpt lat="44.63744" lon="2.94275">
        <ele>1280.3</ele>
        <time>2022-08-05T10:16:26Z</time>
      </trkpt>
      <trkpt lat="44.63744" lon="2.94275">
        <ele>1280.3</ele>
        <time>2022-08-05T10:16:34Z</time>
      </trkpt>
      <trkpt lat="44.63745" lon="2.94274">
        <ele>1280.5</ele>
        <time>2022-08-05T10:16:39Z</time>
      </trkpt>
      <trkpt lat="44.63748" lon="2.94274">
        <ele>1280.9</ele>
        <time>2022-08-05T10:16:41Z</time>
      </trkpt>
      <trkpt lat="44.63751" lon="2.94273">
        <ele>1281.3</ele>
        <time>2022-08-05T10:16:43Z</time>
      </trkpt>
      <trkpt lat="44.63754" lon="2.94272">
        <ele>1281.7</ele>
        <time>2022-08-05T10:16:45Z</time>
      </trkpt>
      <trkpt lat="44.63755" lon="2.94272">
        <ele>1281.9</ele>
        <time>2022-08-05T10:16:46Z</time>
      </trkpt>
      <trkpt lat="44.63757" lon="2.94271">
        <ele>1282.1</ele>
        <time>2022-08-05T10:16:47Z</time>
      </trkpt>
      <trkpt lat="44.63757" lon="2.9427">
        <ele>1282.2</ele>
        <time>2022-08-05T10:16:48Z</time>
      </trkpt>
      <trkpt lat="44.63758" lon="2.9427">
        <ele>1282.3</ele>
        <time>2022-08-05T10:16:49Z</time>
      </trkpt>
      <trkpt lat="44.6376" lon="2.94269">
        <ele>1282.6</ele>
        <time>2022-08-05T10:16:51Z</time>
      </trkpt>
      <trkpt lat="44.63762" lon="2.94268">
        <ele>1282.9</ele>
        <time>2022-08-05T10:16:53Z</time>
      </trkpt>
      <trkpt lat="44.63764" lon="2.94269">
        <ele>1283.2</ele>
        <time>2022-08-05T10:16:55Z</time>
      </trkpt>
      <trkpt lat="44.63768" lon="2.94271">
        <ele>1283.7</ele>
        <time>2022-08-05T10:17:03Z</time>
      </trkpt>
      <trkpt lat="44.6377" lon="2.94272">
        <ele>1283.9</ele>
        <time>2022-08-05T10:17:13Z</time>
      </trkpt>
      <trkpt lat="44.63767" lon="2.94266">
        <ele>1283.6</ele>
        <time>2022-08-05T10:17:19Z</time>
      </trkpt>
      <trkpt lat="44.63767" lon="2.94266">
        <ele>1283.6</ele>
        <time>2022-08-05T10:17:20Z</time>
      </trkpt>
      <trkpt lat="44.63771" lon="2.94258">
        <ele>1284.2</ele>
        <time>2022-08-05T10:17:27Z</time>
      </trkpt>
      <trkpt lat="44.63772" lon="2.94257">
        <ele>1284.3</ele>
        <time>2022-08-05T10:17:28Z</time>
      </trkpt>
      <trkpt lat="44.63774" lon="2.94257">
        <ele>1284.6</ele>
        <time>2022-08-05T10:17:30Z</time>
      </trkpt>
      <trkpt lat="44.63779" lon="2.94259">
        <ele>1285.1</ele>
        <time>2022-08-05T10:17:33Z</time>
      </trkpt>
      <trkpt lat="44.63781" lon="2.94258">
        <ele>1285.4</ele>
        <time>2022-08-05T10:17:35Z</time>
      </trkpt>
      <trkpt lat="44.63782" lon="2.94258">
        <ele>1285.5</ele>
        <time>2022-08-05T10:17:36Z</time>
      </trkpt>
      <trkpt lat="44.63785" lon="2.94259">
        <ele>1286</ele>
        <time>2022-08-05T10:17:39Z</time>
      </trkpt>
      <trkpt lat="44.6379" lon="2.94257">
        <ele>1286.6</ele>
        <time>2022-08-05T10:17:43Z</time>
      </trkpt>
      <trkpt lat="44.6379" lon="2.94256">
        <ele>1286.7</ele>
        <time>2022-08-05T10:17:44Z</time>
      </trkpt>
      <trkpt lat="44.63791" lon="2.94256">
        <ele>1286.7</ele>
        <time>2022-08-05T10:17:45Z</time>
      </trkpt>
      <trkpt lat="44.63791" lon="2.94255">
        <ele>1286.9</ele>
        <time>2022-08-05T10:17:46Z</time>
      </trkpt>
      <trkpt lat="44.63792" lon="2.94255">
        <ele>1287</ele>
        <time>2022-08-05T10:17:47Z</time>
      </trkpt>
      <trkpt lat="44.63794" lon="2.94255">
        <ele>1287.2</ele>
        <time>2022-08-05T10:17:48Z</time>
      </trkpt>
      <trkpt lat="44.63795" lon="2.94256">
        <ele>1287.3</ele>
        <time>2022-08-05T10:17:49Z</time>
      </trkpt>
      <trkpt lat="44.63796" lon="2.94255">
        <ele>1287.5</ele>
        <time>2022-08-05T10:17:50Z</time>
      </trkpt>
      <trkpt lat="44.63798" lon="2.94254">
        <ele>1287.8</ele>
        <time>2022-08-05T10:17:52Z</time>
      </trkpt>
      <trkpt lat="44.638" lon="2.94253">
        <ele>1288.2</ele>
        <time>2022-08-05T10:17:55Z</time>
      </trkpt>
      <trkpt lat="44.63801" lon="2.94252">
        <ele>1288.3</ele>
        <time>2022-08-05T10:17:56Z</time>
      </trkpt>
      <trkpt lat="44.63805" lon="2.94248">
        <ele>1288.9</ele>
        <time>2022-08-05T10:18:00Z</time>
      </trkpt>
      <trkpt lat="44.63807" lon="2.94245">
        <ele>1289.1</ele>
        <time>2022-08-05T10:18:03Z</time>
      </trkpt>
      <trkpt lat="44.63811" lon="2.94245">
        <ele>1289.4</ele>
        <time>2022-08-05T10:18:08Z</time>
      </trkpt>
      <trkpt lat="44.63812" lon="2.94246">
        <ele>1289.5</ele>
        <time>2022-08-05T10:18:10Z</time>
      </trkpt>
      <trkpt lat="44.63812" lon="2.94246">
        <ele>1289.5</ele>
        <time>2022-08-05T10:18:12Z</time>
      </trkpt>
      <trkpt lat="44.6381" lon="2.94248">
        <ele>1289.3</ele>
        <time>2022-08-05T10:18:18Z</time>
      </trkpt>
      <trkpt lat="44.6381" lon="2.94248">
        <ele>1289.3</ele>
        <time>2022-08-05T10:18:20Z</time>
      </trkpt>
      <trkpt lat="44.6381" lon="2.94248">
        <ele>1289.3</ele>
        <time>2022-08-05T10:18:23Z</time>
      </trkpt>
      <trkpt lat="44.6381" lon="2.94248">
        <ele>1289.3</ele>
        <time>2022-08-05T10:18:25Z</time>
      </trkpt>
      <trkpt lat="44.63813" lon="2.94248">
        <ele>1289.5</ele>
        <time>2022-08-05T10:18:27Z</time>
      </trkpt>
      <trkpt lat="44.63815" lon="2.94248">
        <ele>1289.7</ele>
        <time>2022-08-05T10:18:29Z</time>
      </trkpt>
      <trkpt lat="44.63817" lon="2.94249">
        <ele>1289.8</ele>
        <time>2022-08-05T10:18:30Z</time>
      </trkpt>
      <trkpt lat="44.63819" lon="2.94249">
        <ele>1289.9</ele>
        <time>2022-08-05T10:18:31Z</time>
      </trkpt>
      <trkpt lat="44.6382" lon="2.94249">
        <ele>1290.1</ele>
        <time>2022-08-05T10:18:32Z</time>
      </trkpt>
      <trkpt lat="44.63823" lon="2.94249">
        <ele>1290.3</ele>
        <time>2022-08-05T10:18:34Z</time>
      </trkpt>
      <trkpt lat="44.63824" lon="2.94249">
        <ele>1290.3</ele>
        <time>2022-08-05T10:18:35Z</time>
      </trkpt>
      <trkpt lat="44.63825" lon="2.94249">
        <ele>1290.4</ele>
        <time>2022-08-05T10:18:36Z</time>
      </trkpt>
      <trkpt lat="44.63825" lon="2.94249">
        <ele>1290.5</ele>
        <time>2022-08-05T10:18:37Z</time>
      </trkpt>
      <trkpt lat="44.63828" lon="2.94247">
        <ele>1290.7</ele>
        <time>2022-08-05T10:18:40Z</time>
      </trkpt>
      <trkpt lat="44.6383" lon="2.94246">
        <ele>1290.9</ele>
        <time>2022-08-05T10:18:42Z</time>
      </trkpt>
      <trkpt lat="44.63833" lon="2.94245">
        <ele>1291.2</ele>
        <time>2022-08-05T10:18:45Z</time>
      </trkpt>
      <trkpt lat="44.63833" lon="2.94244">
        <ele>1291.2</ele>
        <time>2022-08-05T10:18:46Z</time>
      </trkpt>
      <trkpt lat="44.63833" lon="2.94245">
        <ele>1291.2</ele>
        <time>2022-08-05T10:18:47Z</time>
      </trkpt>
      <trkpt lat="44.63833" lon="2.94244">
        <ele>1291.2</ele>
        <time>2022-08-05T10:18:48Z</time>
      </trkpt>
      <trkpt lat="44.63833" lon="2.94245">
        <ele>1291.2</ele>
        <time>2022-08-05T10:18:49Z</time>
      </trkpt>
      <trkpt lat="44.63838" lon="2.94241">
        <ele>1291.6</ele>
        <time>2022-08-05T10:18:56Z</time>
      </trkpt>
      <trkpt lat="44.63839" lon="2.9424">
        <ele>1291.7</ele>
        <time>2022-08-05T10:18:57Z</time>
      </trkpt>
      <trkpt lat="44.63845" lon="2.94237">
        <ele>1292.1</ele>
        <time>2022-08-05T10:19:02Z</time>
      </trkpt>
      <trkpt lat="44.63846" lon="2.94235">
        <ele>1292.2</ele>
        <time>2022-08-05T10:19:04Z</time>
      </trkpt>
      <trkpt lat="44.63847" lon="2.94233">
        <ele>1292.3</ele>
        <time>2022-08-05T10:19:06Z</time>
      </trkpt>
      <trkpt lat="44.63847" lon="2.94233">
        <ele>1292.3</ele>
        <time>2022-08-05T10:19:08Z</time>
      </trkpt>
      <trkpt lat="44.63847" lon="2.94233">
        <ele>1292.3</ele>
        <time>2022-08-05T10:19:09Z</time>
      </trkpt>
      <trkpt lat="44.63847" lon="2.94233">
        <ele>1292.3</ele>
        <time>2022-08-05T10:19:11Z</time>
      </trkpt>
      <trkpt lat="44.63849" lon="2.94226">
        <ele>1292.5</ele>
        <time>2022-08-05T10:19:19Z</time>
      </trkpt>
      <trkpt lat="44.63849" lon="2.94223">
        <ele>1292.6</ele>
        <time>2022-08-05T10:19:22Z</time>
      </trkpt>
      <trkpt lat="44.63849" lon="2.94218">
        <ele>1292.4</ele>
        <time>2022-08-05T10:19:26Z</time>
      </trkpt>
      <trkpt lat="44.63849" lon="2.94215">
        <ele>1292.3</ele>
        <time>2022-08-05T10:19:28Z</time>
      </trkpt>
      <trkpt lat="44.63848" lon="2.94208">
        <ele>1292</ele>
        <time>2022-08-05T10:19:33Z</time>
      </trkpt>
      <trkpt lat="44.63848" lon="2.94207">
        <ele>1292</ele>
        <time>2022-08-05T10:19:34Z</time>
      </trkpt>
      <trkpt lat="44.63847" lon="2.94205">
        <ele>1291.9</ele>
        <time>2022-08-05T10:19:36Z</time>
      </trkpt>
      <trkpt lat="44.63847" lon="2.94204">
        <ele>1291.8</ele>
        <time>2022-08-05T10:19:37Z</time>
      </trkpt>
      <trkpt lat="44.63847" lon="2.94204">
        <ele>1291.8</ele>
        <time>2022-08-05T10:19:40Z</time>
      </trkpt>
      <trkpt lat="44.63847" lon="2.94203">
        <ele>1291.8</ele>
        <time>2022-08-05T10:19:41Z</time>
      </trkpt>
      <trkpt lat="44.63846" lon="2.94203">
        <ele>1291.8</ele>
        <time>2022-08-05T10:19:47Z</time>
      </trkpt>
      <trkpt lat="44.63846" lon="2.94203">
        <ele>1291.7</ele>
        <time>2022-08-05T10:19:48Z</time>
      </trkpt>
      <trkpt lat="44.63845" lon="2.94202">
        <ele>1291.7</ele>
        <time>2022-08-05T10:19:49Z</time>
      </trkpt>
      <trkpt lat="44.63846" lon="2.94202">
        <ele>1291.7</ele>
        <time>2022-08-05T10:19:50Z</time>
      </trkpt>
      <trkpt lat="44.63846" lon="2.94202">
        <ele>1291.7</ele>
        <time>2022-08-05T10:19:52Z</time>
      </trkpt>
      <trkpt lat="44.63846" lon="2.94201">
        <ele>1291.7</ele>
        <time>2022-08-05T10:19:54Z</time>
      </trkpt>
      <trkpt lat="44.63847" lon="2.942">
        <ele>1291.7</ele>
        <time>2022-08-05T10:19:56Z</time>
      </trkpt>
      <trkpt lat="44.63847" lon="2.942">
        <ele>1291.7</ele>
        <time>2022-08-05T10:19:58Z</time>
      </trkpt>
      <trkpt lat="44.63847" lon="2.942">
        <ele>1291.7</ele>
        <time>2022-08-05T10:20:00Z</time>
      </trkpt>
      <trkpt lat="44.63847" lon="2.94202">
        <ele>1291.8</ele>
        <time>2022-08-05T10:20:01Z</time>
      </trkpt>
      <trkpt lat="44.63847" lon="2.94202">
        <ele>1291.8</ele>
        <time>2022-08-05T10:20:02Z</time>
      </trkpt>
      <trkpt lat="44.63847" lon="2.94202">
        <ele>1291.8</ele>
        <time>2022-08-05T10:20:03Z</time>
      </trkpt>
      <trkpt lat="44.63847" lon="2.94202">
        <ele>1291.8</ele>
        <time>2022-08-05T10:20:04Z</time>
      </trkpt>
      <trkpt lat="44.63847" lon="2.94202">
        <ele>1291.8</ele>
        <time>2022-08-05T10:20:07Z</time>
      </trkpt>
      <trkpt lat="44.63847" lon="2.94202">
        <ele>1291.8</ele>
        <time>2022-08-05T10:20:11Z</time>
      </trkpt>
      <trkpt lat="44.63846" lon="2.94198">
        <ele>1291.6</ele>
        <time>2022-08-05T10:20:24Z</time>
      </trkpt>
      <trkpt lat="44.63845" lon="2.94194">
        <ele>1291.4</ele>
        <time>2022-08-05T10:20:28Z</time>
      </trkpt>
      <trkpt lat="44.63844" lon="2.94194">
        <ele>1291.4</ele>
        <time>2022-08-05T10:20:30Z</time>
      </trkpt>
      <trkpt lat="44.63844" lon="2.94193">
        <ele>1291.4</ele>
        <time>2022-08-05T10:20:31Z</time>
      </trkpt>
      <trkpt lat="44.63844" lon="2.94193">
        <ele>1291.4</ele>
        <time>2022-08-05T10:20:33Z</time>
      </trkpt>
      <trkpt lat="44.63844" lon="2.94193">
        <ele>1291.4</ele>
        <time>2022-08-05T10:20:34Z</time>
      </trkpt>
      <trkpt lat="44.63844" lon="2.94191">
        <ele>1291.3</ele>
        <time>2022-08-05T10:20:38Z</time>
      </trkpt>
      <trkpt lat="44.63843" lon="2.94187">
        <ele>1291.2</ele>
        <time>2022-08-05T10:20:41Z</time>
      </trkpt>
      <trkpt lat="44.63842" lon="2.94173">
        <ele>1290.8</ele>
        <time>2022-08-05T10:20:49Z</time>
      </trkpt>
      <trkpt lat="44.63843" lon="2.94169">
        <ele>1290.7</ele>
        <time>2022-08-05T10:20:51Z</time>
      </trkpt>
      <trkpt lat="44.63843" lon="2.94166">
        <ele>1290.7</ele>
        <time>2022-08-05T10:20:53Z</time>
      </trkpt>
      <trkpt lat="44.63843" lon="2.94164">
        <ele>1290.8</ele>
        <time>2022-08-05T10:20:54Z</time>
      </trkpt>
      <trkpt lat="44.63844" lon="2.94162">
        <ele>1290.9</ele>
        <time>2022-08-05T10:20:56Z</time>
      </trkpt>
      <trkpt lat="44.63844" lon="2.94159">
        <ele>1291</ele>
        <time>2022-08-05T10:20:58Z</time>
      </trkpt>
      <trkpt lat="44.63844" lon="2.94157">
        <ele>1291.1</ele>
        <time>2022-08-05T10:20:59Z</time>
      </trkpt>
      <trkpt lat="44.63843" lon="2.94153">
        <ele>1291.2</ele>
        <time>2022-08-05T10:21:02Z</time>
      </trkpt>
      <trkpt lat="44.63843" lon="2.94148">
        <ele>1291.3</ele>
        <time>2022-08-05T10:21:05Z</time>
      </trkpt>
      <trkpt lat="44.63842" lon="2.94145">
        <ele>1291.4</ele>
        <time>2022-08-05T10:21:09Z</time>
      </trkpt>
      <trkpt lat="44.63842" lon="2.94145">
        <ele>1291.4</ele>
        <time>2022-08-05T10:21:10Z</time>
      </trkpt>
      <trkpt lat="44.63843" lon="2.94144">
        <ele>1291.5</ele>
        <time>2022-08-05T10:21:12Z</time>
      </trkpt>
      <trkpt lat="44.63843" lon="2.94137">
        <ele>1291.8</ele>
        <time>2022-08-05T10:21:17Z</time>
      </trkpt>
      <trkpt lat="44.63842" lon="2.94129">
        <ele>1292.2</ele>
        <time>2022-08-05T10:21:22Z</time>
      </trkpt>
      <trkpt lat="44.63842" lon="2.94128">
        <ele>1292.3</ele>
        <time>2022-08-05T10:21:23Z</time>
      </trkpt>
      <trkpt lat="44.6384" lon="2.94115">
        <ele>1293</ele>
        <time>2022-08-05T10:21:30Z</time>
      </trkpt>
      <trkpt lat="44.63839" lon="2.94111">
        <ele>1293.2</ele>
        <time>2022-08-05T10:21:32Z</time>
      </trkpt>
      <trkpt lat="44.63839" lon="2.9411">
        <ele>1293.3</ele>
        <time>2022-08-05T10:21:33Z</time>
      </trkpt>
      <trkpt lat="44.63839" lon="2.94108">
        <ele>1293.3</ele>
        <time>2022-08-05T10:21:34Z</time>
      </trkpt>
      <trkpt lat="44.63838" lon="2.94107">
        <ele>1293.3</ele>
        <time>2022-08-05T10:21:35Z</time>
      </trkpt>
      <trkpt lat="44.63838" lon="2.94107">
        <ele>1293.3</ele>
        <time>2022-08-05T10:21:36Z</time>
      </trkpt>
      <trkpt lat="44.63838" lon="2.94103">
        <ele>1293.5</ele>
        <time>2022-08-05T10:21:38Z</time>
      </trkpt>
      <trkpt lat="44.63838" lon="2.941">
        <ele>1293.6</ele>
        <time>2022-08-05T10:21:40Z</time>
      </trkpt>
      <trkpt lat="44.63837" lon="2.94098">
        <ele>1293.7</ele>
        <time>2022-08-05T10:21:41Z</time>
      </trkpt>
      <trkpt lat="44.63837" lon="2.94094">
        <ele>1293.8</ele>
        <time>2022-08-05T10:21:43Z</time>
      </trkpt>
      <trkpt lat="44.63836" lon="2.94089">
        <ele>1294</ele>
        <time>2022-08-05T10:21:46Z</time>
      </trkpt>
      <trkpt lat="44.63835" lon="2.94086">
        <ele>1294</ele>
        <time>2022-08-05T10:21:48Z</time>
      </trkpt>
      <trkpt lat="44.63835" lon="2.9408">
        <ele>1294.2</ele>
        <time>2022-08-05T10:21:51Z</time>
      </trkpt>
      <trkpt lat="44.63834" lon="2.94074">
        <ele>1294.4</ele>
        <time>2022-08-05T10:21:55Z</time>
      </trkpt>
      <trkpt lat="44.63833" lon="2.94068">
        <ele>1294.5</ele>
        <time>2022-08-05T10:21:59Z</time>
      </trkpt>
      <trkpt lat="44.63833" lon="2.94065">
        <ele>1294.6</ele>
        <time>2022-08-05T10:22:01Z</time>
      </trkpt>
      <trkpt lat="44.63833" lon="2.94062">
        <ele>1294.8</ele>
        <time>2022-08-05T10:22:03Z</time>
      </trkpt>
      <trkpt lat="44.63832" lon="2.94055">
        <ele>1295</ele>
        <time>2022-08-05T10:22:07Z</time>
      </trkpt>
      <trkpt lat="44.63832" lon="2.94052">
        <ele>1295.2</ele>
        <time>2022-08-05T10:22:09Z</time>
      </trkpt>
      <trkpt lat="44.63831" lon="2.94049">
        <ele>1295.3</ele>
        <time>2022-08-05T10:22:11Z</time>
      </trkpt>
      <trkpt lat="44.6383" lon="2.94043">
        <ele>1295.7</ele>
        <time>2022-08-05T10:22:15Z</time>
      </trkpt>
      <trkpt lat="44.6383" lon="2.94041">
        <ele>1295.8</ele>
        <time>2022-08-05T10:22:17Z</time>
      </trkpt>
      <trkpt lat="44.6383" lon="2.94039">
        <ele>1295.9</ele>
        <time>2022-08-05T10:22:18Z</time>
      </trkpt>
      <trkpt lat="44.6383" lon="2.94037">
        <ele>1296</ele>
        <time>2022-08-05T10:22:19Z</time>
      </trkpt>
      <trkpt lat="44.6383" lon="2.94033">
        <ele>1296.2</ele>
        <time>2022-08-05T10:22:21Z</time>
      </trkpt>
      <trkpt lat="44.63829" lon="2.94032">
        <ele>1296.3</ele>
        <time>2022-08-05T10:22:22Z</time>
      </trkpt>
      <trkpt lat="44.63829" lon="2.94029">
        <ele>1296.5</ele>
        <time>2022-08-05T10:22:24Z</time>
      </trkpt>
      <trkpt lat="44.63829" lon="2.94025">
        <ele>1296.5</ele>
        <time>2022-08-05T10:22:26Z</time>
      </trkpt>
      <trkpt lat="44.63829" lon="2.94024">
        <ele>1296.5</ele>
        <time>2022-08-05T10:22:27Z</time>
      </trkpt>
      <trkpt lat="44.63828" lon="2.9402">
        <ele>1296.5</ele>
        <time>2022-08-05T10:22:29Z</time>
      </trkpt>
      <trkpt lat="44.63828" lon="2.94018">
        <ele>1296.4</ele>
        <time>2022-08-05T10:22:30Z</time>
      </trkpt>
      <trkpt lat="44.63828" lon="2.94017">
        <ele>1296.4</ele>
        <time>2022-08-05T10:22:31Z</time>
      </trkpt>
      <trkpt lat="44.63828" lon="2.94016">
        <ele>1296.4</ele>
        <time>2022-08-05T10:22:32Z</time>
      </trkpt>
      <trkpt lat="44.63828" lon="2.94012">
        <ele>1296.4</ele>
        <time>2022-08-05T10:22:34Z</time>
      </trkpt>
      <trkpt lat="44.63827" lon="2.94006">
        <ele>1296.3</ele>
        <time>2022-08-05T10:22:38Z</time>
      </trkpt>
      <trkpt lat="44.63827" lon="2.93994">
        <ele>1296.4</ele>
        <time>2022-08-05T10:22:45Z</time>
      </trkpt>
      <trkpt lat="44.63827" lon="2.93993">
        <ele>1296.5</ele>
        <time>2022-08-05T10:22:46Z</time>
      </trkpt>
      <trkpt lat="44.63827" lon="2.93991">
        <ele>1296.5</ele>
        <time>2022-08-05T10:22:47Z</time>
      </trkpt>
      <trkpt lat="44.63827" lon="2.9399">
        <ele>1296.5</ele>
        <time>2022-08-05T10:22:48Z</time>
      </trkpt>
      <trkpt lat="44.63827" lon="2.93988">
        <ele>1296.6</ele>
        <time>2022-08-05T10:22:49Z</time>
      </trkpt>
      <trkpt lat="44.63826" lon="2.93987">
        <ele>1296.6</ele>
        <time>2022-08-05T10:22:50Z</time>
      </trkpt>
      <trkpt lat="44.63826" lon="2.93985">
        <ele>1296.5</ele>
        <time>2022-08-05T10:22:51Z</time>
      </trkpt>
      <trkpt lat="44.63824" lon="2.93982">
        <ele>1296.4</ele>
        <time>2022-08-05T10:22:53Z</time>
      </trkpt>
      <trkpt lat="44.63823" lon="2.93981">
        <ele>1296.4</ele>
        <time>2022-08-05T10:22:54Z</time>
      </trkpt>
      <trkpt lat="44.63823" lon="2.9398">
        <ele>1296.3</ele>
        <time>2022-08-05T10:22:55Z</time>
      </trkpt>
      <trkpt lat="44.63822" lon="2.93978">
        <ele>1296.3</ele>
        <time>2022-08-05T10:22:56Z</time>
      </trkpt>
      <trkpt lat="44.63822" lon="2.93976">
        <ele>1296.3</ele>
        <time>2022-08-05T10:22:57Z</time>
      </trkpt>
      <trkpt lat="44.63821" lon="2.93975">
        <ele>1296.2</ele>
        <time>2022-08-05T10:22:58Z</time>
      </trkpt>
      <trkpt lat="44.63821" lon="2.93974">
        <ele>1296.1</ele>
        <time>2022-08-05T10:22:59Z</time>
      </trkpt>
      <trkpt lat="44.63819" lon="2.93972">
        <ele>1295.9</ele>
        <time>2022-08-05T10:23:01Z</time>
      </trkpt>
      <trkpt lat="44.63818" lon="2.93971">
        <ele>1295.8</ele>
        <time>2022-08-05T10:23:02Z</time>
      </trkpt>
      <trkpt lat="44.63817" lon="2.93968">
        <ele>1295.6</ele>
        <time>2022-08-05T10:23:04Z</time>
      </trkpt>
      <trkpt lat="44.63814" lon="2.93965">
        <ele>1295.1</ele>
        <time>2022-08-05T10:23:07Z</time>
      </trkpt>
      <trkpt lat="44.63811" lon="2.93961">
        <ele>1294.5</ele>
        <time>2022-08-05T10:23:11Z</time>
      </trkpt>
      <trkpt lat="44.63804" lon="2.93949">
        <ele>1292.9</ele>
        <time>2022-08-05T10:23:21Z</time>
      </trkpt>
      <trkpt lat="44.638" lon="2.93937">
        <ele>1291.6</ele>
        <time>2022-08-05T10:23:31Z</time>
      </trkpt>
      <trkpt lat="44.63799" lon="2.93936">
        <ele>1291.5</ele>
        <time>2022-08-05T10:23:32Z</time>
      </trkpt>
      <trkpt lat="44.63799" lon="2.93934">
        <ele>1291.3</ele>
        <time>2022-08-05T10:23:33Z</time>
      </trkpt>
      <trkpt lat="44.63799" lon="2.93933">
        <ele>1291.3</ele>
        <time>2022-08-05T10:23:34Z</time>
      </trkpt>
      <trkpt lat="44.63798" lon="2.93931">
        <ele>1291</ele>
        <time>2022-08-05T10:23:37Z</time>
      </trkpt>
      <trkpt lat="44.63797" lon="2.93929">
        <ele>1290.8</ele>
        <time>2022-08-05T10:23:39Z</time>
      </trkpt>
      <trkpt lat="44.63797" lon="2.93928">
        <ele>1290.7</ele>
        <time>2022-08-05T10:23:41Z</time>
      </trkpt>
      <trkpt lat="44.63797" lon="2.93928">
        <ele>1290.6</ele>
        <time>2022-08-05T10:23:42Z</time>
      </trkpt>
      <trkpt lat="44.63797" lon="2.93928">
        <ele>1290.6</ele>
        <time>2022-08-05T10:23:43Z</time>
      </trkpt>
      <trkpt lat="44.63796" lon="2.93928">
        <ele>1290.4</ele>
        <time>2022-08-05T10:23:45Z</time>
      </trkpt>
      <trkpt lat="44.63795" lon="2.93928">
        <ele>1290.3</ele>
        <time>2022-08-05T10:23:49Z</time>
      </trkpt>
      <trkpt lat="44.63795" lon="2.93928">
        <ele>1290.2</ele>
        <time>2022-08-05T10:23:50Z</time>
      </trkpt>
      <trkpt lat="44.63794" lon="2.93928">
        <ele>1290.1</ele>
        <time>2022-08-05T10:23:56Z</time>
      </trkpt>
      <trkpt lat="44.63794" lon="2.93928">
        <ele>1290.1</ele>
        <time>2022-08-05T10:23:58Z</time>
      </trkpt>
      <trkpt lat="44.63794" lon="2.93928">
        <ele>1290.1</ele>
        <time>2022-08-05T10:24:00Z</time>
      </trkpt>
      <trkpt lat="44.63794" lon="2.93928">
        <ele>1290.1</ele>
        <time>2022-08-05T10:24:01Z</time>
      </trkpt>
      <trkpt lat="44.63794" lon="2.93928">
        <ele>1290.1</ele>
        <time>2022-08-05T10:24:03Z</time>
      </trkpt>
      <trkpt lat="44.63794" lon="2.93926">
        <ele>1290</ele>
        <time>2022-08-05T10:24:05Z</time>
      </trkpt>
      <trkpt lat="44.63794" lon="2.93924">
        <ele>1289.9</ele>
        <time>2022-08-05T10:24:06Z</time>
      </trkpt>
      <trkpt lat="44.63794" lon="2.93923">
        <ele>1289.9</ele>
        <time>2022-08-05T10:24:07Z</time>
      </trkpt>
      <trkpt lat="44.63794" lon="2.93921">
        <ele>1289.8</ele>
        <time>2022-08-05T10:24:08Z</time>
      </trkpt>
      <trkpt lat="44.63794" lon="2.93917">
        <ele>1289.5</ele>
        <time>2022-08-05T10:24:10Z</time>
      </trkpt>
      <trkpt lat="44.63794" lon="2.9391">
        <ele>1289</ele>
        <time>2022-08-05T10:24:14Z</time>
      </trkpt>
      <trkpt lat="44.63793" lon="2.93909">
        <ele>1288.8</ele>
        <time>2022-08-05T10:24:15Z</time>
      </trkpt>
      <trkpt lat="44.63793" lon="2.93908">
        <ele>1288.6</ele>
        <time>2022-08-05T10:24:16Z</time>
      </trkpt>
      <trkpt lat="44.63793" lon="2.93906">
        <ele>1288.5</ele>
        <time>2022-08-05T10:24:17Z</time>
      </trkpt>
      <trkpt lat="44.63793" lon="2.93905">
        <ele>1288.4</ele>
        <time>2022-08-05T10:24:18Z</time>
      </trkpt>
      <trkpt lat="44.63792" lon="2.93903">
        <ele>1288.2</ele>
        <time>2022-08-05T10:24:19Z</time>
      </trkpt>
      <trkpt lat="44.63792" lon="2.93902">
        <ele>1288</ele>
        <time>2022-08-05T10:24:20Z</time>
      </trkpt>
      <trkpt lat="44.63792" lon="2.93899">
        <ele>1287.8</ele>
        <time>2022-08-05T10:24:22Z</time>
      </trkpt>
      <trkpt lat="44.63792" lon="2.93898">
        <ele>1287.7</ele>
        <time>2022-08-05T10:24:23Z</time>
      </trkpt>
      <trkpt lat="44.63792" lon="2.93897">
        <ele>1287.7</ele>
        <time>2022-08-05T10:24:24Z</time>
      </trkpt>
      <trkpt lat="44.63793" lon="2.93894">
        <ele>1287.6</ele>
        <time>2022-08-05T10:24:26Z</time>
      </trkpt>
      <trkpt lat="44.63793" lon="2.93891">
        <ele>1287.4</ele>
        <time>2022-08-05T10:24:28Z</time>
      </trkpt>
      <trkpt lat="44.63793" lon="2.9389">
        <ele>1287.3</ele>
        <time>2022-08-05T10:24:29Z</time>
      </trkpt>
      <trkpt lat="44.63792" lon="2.93887">
        <ele>1287</ele>
        <time>2022-08-05T10:24:32Z</time>
      </trkpt>
      <trkpt lat="44.63791" lon="2.93881">
        <ele>1286.3</ele>
        <time>2022-08-05T10:24:36Z</time>
      </trkpt>
      <trkpt lat="44.63791" lon="2.93875">
        <ele>1285.9</ele>
        <time>2022-08-05T10:24:40Z</time>
      </trkpt>
      <trkpt lat="44.63791" lon="2.93864">
        <ele>1285.1</ele>
        <time>2022-08-05T10:24:48Z</time>
      </trkpt>
      <trkpt lat="44.63792" lon="2.9385">
        <ele>1284.5</ele>
        <time>2022-08-05T10:24:57Z</time>
      </trkpt>
      <trkpt lat="44.63792" lon="2.93847">
        <ele>1284.3</ele>
        <time>2022-08-05T10:24:59Z</time>
      </trkpt>
      <trkpt lat="44.63792" lon="2.93846">
        <ele>1284.3</ele>
        <time>2022-08-05T10:25:00Z</time>
      </trkpt>
      <trkpt lat="44.63793" lon="2.93842">
        <ele>1284.2</ele>
        <time>2022-08-05T10:25:02Z</time>
      </trkpt>
      <trkpt lat="44.63792" lon="2.93836">
        <ele>1283.8</ele>
        <time>2022-08-05T10:25:05Z</time>
      </trkpt>
      <trkpt lat="44.63797" lon="2.93821">
        <ele>1283.9</ele>
        <time>2022-08-05T10:25:16Z</time>
      </trkpt>
      <trkpt lat="44.63801" lon="2.93809">
        <ele>1284.1</ele>
        <time>2022-08-05T10:25:23Z</time>
      </trkpt>
      <trkpt lat="44.63801" lon="2.93805">
        <ele>1284</ele>
        <time>2022-08-05T10:25:25Z</time>
      </trkpt>
      <trkpt lat="44.63802" lon="2.93804">
        <ele>1284</ele>
        <time>2022-08-05T10:25:26Z</time>
      </trkpt>
      <trkpt lat="44.63804" lon="2.93793">
        <ele>1283.7</ele>
        <time>2022-08-05T10:25:33Z</time>
      </trkpt>
      <trkpt lat="44.63809" lon="2.93778">
        <ele>1283.6</ele>
        <time>2022-08-05T10:25:43Z</time>
      </trkpt>
      <trkpt lat="44.63811" lon="2.93771">
        <ele>1283.7</ele>
        <time>2022-08-05T10:25:48Z</time>
      </trkpt>
      <trkpt lat="44.63815" lon="2.93765">
        <ele>1283.9</ele>
        <time>2022-08-05T10:25:53Z</time>
      </trkpt>
      <trkpt lat="44.63816" lon="2.93764">
        <ele>1284</ele>
        <time>2022-08-05T10:25:54Z</time>
      </trkpt>
      <trkpt lat="44.63821" lon="2.93757">
        <ele>1284.1</ele>
        <time>2022-08-05T10:26:00Z</time>
      </trkpt>
      <trkpt lat="44.63824" lon="2.93754">
        <ele>1284.3</ele>
        <time>2022-08-05T10:26:03Z</time>
      </trkpt>
      <trkpt lat="44.63825" lon="2.93753">
        <ele>1284.3</ele>
        <time>2022-08-05T10:26:04Z</time>
      </trkpt>
      <trkpt lat="44.63829" lon="2.93747">
        <ele>1284.3</ele>
        <time>2022-08-05T10:26:12Z</time>
      </trkpt>
      <trkpt lat="44.63829" lon="2.93747">
        <ele>1284.2</ele>
        <time>2022-08-05T10:26:13Z</time>
      </trkpt>
      <trkpt lat="44.6383" lon="2.93748">
        <ele>1284.3</ele>
        <time>2022-08-05T10:26:15Z</time>
      </trkpt>
      <trkpt lat="44.6383" lon="2.93748">
        <ele>1284.4</ele>
        <time>2022-08-05T10:26:16Z</time>
      </trkpt>
      <trkpt lat="44.63832" lon="2.93745">
        <ele>1284.3</ele>
        <time>2022-08-05T10:26:19Z</time>
      </trkpt>
      <trkpt lat="44.63833" lon="2.93744">
        <ele>1284.3</ele>
        <time>2022-08-05T10:26:20Z</time>
      </trkpt>
      <trkpt lat="44.63835" lon="2.93741">
        <ele>1284.1</ele>
        <time>2022-08-05T10:26:22Z</time>
      </trkpt>
      <trkpt lat="44.63841" lon="2.93736">
        <ele>1284</ele>
        <time>2022-08-05T10:26:28Z</time>
      </trkpt>
      <trkpt lat="44.63841" lon="2.93735">
        <ele>1283.9</ele>
        <time>2022-08-05T10:26:29Z</time>
      </trkpt>
      <trkpt lat="44.63845" lon="2.93731">
        <ele>1283.8</ele>
        <time>2022-08-05T10:26:33Z</time>
      </trkpt>
      <trkpt lat="44.63848" lon="2.93727">
        <ele>1283.6</ele>
        <time>2022-08-05T10:26:37Z</time>
      </trkpt>
      <trkpt lat="44.6385" lon="2.93725">
        <ele>1283.5</ele>
        <time>2022-08-05T10:26:40Z</time>
      </trkpt>
      <trkpt lat="44.63853" lon="2.93722">
        <ele>1283.4</ele>
        <time>2022-08-05T10:26:44Z</time>
      </trkpt>
      <trkpt lat="44.63854" lon="2.93721">
        <ele>1283.3</ele>
        <time>2022-08-05T10:26:45Z</time>
      </trkpt>
      <trkpt lat="44.63856" lon="2.9372">
        <ele>1283.1</ele>
        <time>2022-08-05T10:26:47Z</time>
      </trkpt>
      <trkpt lat="44.63856" lon="2.93717">
        <ele>1282.8</ele>
        <time>2022-08-05T10:26:49Z</time>
      </trkpt>
      <trkpt lat="44.63857" lon="2.93717">
        <ele>1282.7</ele>
        <time>2022-08-05T10:26:50Z</time>
      </trkpt>
      <trkpt lat="44.63858" lon="2.93716">
        <ele>1282.6</ele>
        <time>2022-08-05T10:26:51Z</time>
      </trkpt>
      <trkpt lat="44.6386" lon="2.93713">
        <ele>1282.3</ele>
        <time>2022-08-05T10:26:54Z</time>
      </trkpt>
      <trkpt lat="44.63863" lon="2.9371">
        <ele>1281.9</ele>
        <time>2022-08-05T10:26:58Z</time>
      </trkpt>
      <trkpt lat="44.63863" lon="2.93711">
        <ele>1282</ele>
        <time>2022-08-05T10:27:00Z</time>
      </trkpt>
      <trkpt lat="44.63865" lon="2.93708">
        <ele>1281.5</ele>
        <time>2022-08-05T10:27:04Z</time>
      </trkpt>
      <trkpt lat="44.63866" lon="2.93707">
        <ele>1281.4</ele>
        <time>2022-08-05T10:27:05Z</time>
      </trkpt>
      <trkpt lat="44.63869" lon="2.93705">
        <ele>1281</ele>
        <time>2022-08-05T10:27:08Z</time>
      </trkpt>
      <trkpt lat="44.63869" lon="2.93704">
        <ele>1280.9</ele>
        <time>2022-08-05T10:27:09Z</time>
      </trkpt>
      <trkpt lat="44.6387" lon="2.93704">
        <ele>1280.9</ele>
        <time>2022-08-05T10:27:10Z</time>
      </trkpt>
      <trkpt lat="44.63872" lon="2.93703">
        <ele>1280.7</ele>
        <time>2022-08-05T10:27:12Z</time>
      </trkpt>
      <trkpt lat="44.63874" lon="2.93701">
        <ele>1280.6</ele>
        <time>2022-08-05T10:27:14Z</time>
      </trkpt>
      <trkpt lat="44.63876" lon="2.93699">
        <ele>1280.3</ele>
        <time>2022-08-05T10:27:16Z</time>
      </trkpt>
      <trkpt lat="44.63876" lon="2.93699">
        <ele>1280.2</ele>
        <time>2022-08-05T10:27:17Z</time>
      </trkpt>
      <trkpt lat="44.63876" lon="2.93697">
        <ele>1280</ele>
        <time>2022-08-05T10:27:18Z</time>
      </trkpt>
      <trkpt lat="44.63876" lon="2.93696">
        <ele>1279.7</ele>
        <time>2022-08-05T10:27:19Z</time>
      </trkpt>
      <trkpt lat="44.63876" lon="2.93695">
        <ele>1279.6</ele>
        <time>2022-08-05T10:27:20Z</time>
      </trkpt>
      <trkpt lat="44.63876" lon="2.93694">
        <ele>1279.5</ele>
        <time>2022-08-05T10:27:21Z</time>
      </trkpt>
      <trkpt lat="44.63875" lon="2.93693">
        <ele>1279.2</ele>
        <time>2022-08-05T10:27:23Z</time>
      </trkpt>
      <trkpt lat="44.63874" lon="2.93692">
        <ele>1279</ele>
        <time>2022-08-05T10:27:24Z</time>
      </trkpt>
      <trkpt lat="44.63873" lon="2.93692">
        <ele>1279</ele>
        <time>2022-08-05T10:27:25Z</time>
      </trkpt>
      <trkpt lat="44.63873" lon="2.93691">
        <ele>1278.9</ele>
        <time>2022-08-05T10:27:26Z</time>
      </trkpt>
      <trkpt lat="44.63872" lon="2.93691">
        <ele>1278.8</ele>
        <time>2022-08-05T10:27:27Z</time>
      </trkpt>
      <trkpt lat="44.6387" lon="2.93691">
        <ele>1278.7</ele>
        <time>2022-08-05T10:27:29Z</time>
      </trkpt>
      <trkpt lat="44.63869" lon="2.93691">
        <ele>1278.6</ele>
        <time>2022-08-05T10:27:30Z</time>
      </trkpt>
      <trkpt lat="44.63868" lon="2.93691">
        <ele>1278.6</ele>
        <time>2022-08-05T10:27:32Z</time>
      </trkpt>
      <trkpt lat="44.63865" lon="2.93692">
        <ele>1278.7</ele>
        <time>2022-08-05T10:27:34Z</time>
      </trkpt>
      <trkpt lat="44.63861" lon="2.93692">
        <ele>1278.5</ele>
        <time>2022-08-05T10:27:38Z</time>
      </trkpt>
      <trkpt lat="44.63857" lon="2.93692">
        <ele>1278.4</ele>
        <time>2022-08-05T10:27:41Z</time>
      </trkpt>
      <trkpt lat="44.63856" lon="2.93692">
        <ele>1278.4</ele>
        <time>2022-08-05T10:27:42Z</time>
      </trkpt>
      <trkpt lat="44.63855" lon="2.93692">
        <ele>1278.3</ele>
        <time>2022-08-05T10:27:44Z</time>
      </trkpt>
      <trkpt lat="44.63853" lon="2.93693">
        <ele>1278.5</ele>
        <time>2022-08-05T10:27:46Z</time>
      </trkpt>
      <trkpt lat="44.63853" lon="2.93693">
        <ele>1278.5</ele>
        <time>2022-08-05T10:27:48Z</time>
      </trkpt>
      <trkpt lat="44.63853" lon="2.93693">
        <ele>1278.5</ele>
        <time>2022-08-05T10:27:50Z</time>
      </trkpt>
      <trkpt lat="44.63852" lon="2.93693">
        <ele>1278.4</ele>
        <time>2022-08-05T10:27:51Z</time>
      </trkpt>
      <trkpt lat="44.63851" lon="2.93695">
        <ele>1278.7</ele>
        <time>2022-08-05T10:27:53Z</time>
      </trkpt>
      <trkpt lat="44.63849" lon="2.93695">
        <ele>1278.7</ele>
        <time>2022-08-05T10:27:57Z</time>
      </trkpt>
      <trkpt lat="44.63848" lon="2.93695">
        <ele>1278.7</ele>
        <time>2022-08-05T10:27:58Z</time>
      </trkpt>
      <trkpt lat="44.63848" lon="2.93695">
        <ele>1278.6</ele>
        <time>2022-08-05T10:27:59Z</time>
      </trkpt>
      <trkpt lat="44.63847" lon="2.93695">
        <ele>1278.6</ele>
        <time>2022-08-05T10:28:00Z</time>
      </trkpt>
      <trkpt lat="44.63844" lon="2.93696">
        <ele>1278.6</ele>
        <time>2022-08-05T10:28:03Z</time>
      </trkpt>
      <trkpt lat="44.63842" lon="2.93696">
        <ele>1278.5</ele>
        <time>2022-08-05T10:28:06Z</time>
      </trkpt>
      <trkpt lat="44.63839" lon="2.93696">
        <ele>1278.4</ele>
        <time>2022-08-05T10:28:09Z</time>
      </trkpt>
      <trkpt lat="44.63837" lon="2.93696">
        <ele>1278.4</ele>
        <time>2022-08-05T10:28:11Z</time>
      </trkpt>
      <trkpt lat="44.63833" lon="2.93695">
        <ele>1278.1</ele>
        <time>2022-08-05T10:28:14Z</time>
      </trkpt>
      <trkpt lat="44.63832" lon="2.93693">
        <ele>1277.6</ele>
        <time>2022-08-05T10:28:16Z</time>
      </trkpt>
      <trkpt lat="44.63831" lon="2.93693">
        <ele>1277.5</ele>
        <time>2022-08-05T10:28:17Z</time>
      </trkpt>
      <trkpt lat="44.63828" lon="2.93694">
        <ele>1277.3</ele>
        <time>2022-08-05T10:28:21Z</time>
      </trkpt>
      <trkpt lat="44.63827" lon="2.93694">
        <ele>1277.3</ele>
        <time>2022-08-05T10:28:22Z</time>
      </trkpt>
      <trkpt lat="44.63826" lon="2.93694">
        <ele>1277.2</ele>
        <time>2022-08-05T10:28:23Z</time>
      </trkpt>
      <trkpt lat="44.63824" lon="2.93694">
        <ele>1276.8</ele>
        <time>2022-08-05T10:28:25Z</time>
      </trkpt>
      <trkpt lat="44.63818" lon="2.9369">
        <ele>1275.6</ele>
        <time>2022-08-05T10:28:31Z</time>
      </trkpt>
      <trkpt lat="44.63817" lon="2.9369">
        <ele>1275.4</ele>
        <time>2022-08-05T10:28:32Z</time>
      </trkpt>
      <trkpt lat="44.63813" lon="2.93689">
        <ele>1274.8</ele>
        <time>2022-08-05T10:28:35Z</time>
      </trkpt>
      <trkpt lat="44.6381" lon="2.93686">
        <ele>1274.1</ele>
        <time>2022-08-05T10:28:38Z</time>
      </trkpt>
      <trkpt lat="44.63808" lon="2.93684">
        <ele>1273.3</ele>
        <time>2022-08-05T10:28:41Z</time>
      </trkpt>
      <trkpt lat="44.63805" lon="2.93681">
        <ele>1272.6</ele>
        <time>2022-08-05T10:28:43Z</time>
      </trkpt>
      <trkpt lat="44.63802" lon="2.93678">
        <ele>1271.6</ele>
        <time>2022-08-05T10:28:45Z</time>
      </trkpt>
      <trkpt lat="44.63799" lon="2.93676">
        <ele>1270.9</ele>
        <time>2022-08-05T10:28:47Z</time>
      </trkpt>
      <trkpt lat="44.63799" lon="2.93675">
        <ele>1270.7</ele>
        <time>2022-08-05T10:28:49Z</time>
      </trkpt>
      <trkpt lat="44.63798" lon="2.93675">
        <ele>1270.6</ele>
        <time>2022-08-05T10:28:50Z</time>
      </trkpt>
      <trkpt lat="44.63798" lon="2.93674">
        <ele>1270.4</ele>
        <time>2022-08-05T10:28:51Z</time>
      </trkpt>
      <trkpt lat="44.63798" lon="2.93672">
        <ele>1270</ele>
        <time>2022-08-05T10:28:55Z</time>
      </trkpt>
      <trkpt lat="44.63797" lon="2.9367">
        <ele>1269.6</ele>
        <time>2022-08-05T10:28:58Z</time>
      </trkpt>
      <trkpt lat="44.63789" lon="2.93668">
        <ele>1268.5</ele>
        <time>2022-08-05T10:29:06Z</time>
      </trkpt>
      <trkpt lat="44.63786" lon="2.93668">
        <ele>1268.1</ele>
        <time>2022-08-05T10:29:11Z</time>
      </trkpt>
      <trkpt lat="44.63785" lon="2.93667">
        <ele>1267.9</ele>
        <time>2022-08-05T10:29:12Z</time>
      </trkpt>
      <trkpt lat="44.63784" lon="2.93667">
        <ele>1267.7</ele>
        <time>2022-08-05T10:29:13Z</time>
      </trkpt>
      <trkpt lat="44.63781" lon="2.93663">
        <ele>1266.6</ele>
        <time>2022-08-05T10:29:18Z</time>
      </trkpt>
      <trkpt lat="44.63779" lon="2.93661">
        <ele>1266.2</ele>
        <time>2022-08-05T10:29:20Z</time>
      </trkpt>
      <trkpt lat="44.63778" lon="2.9366">
        <ele>1265.8</ele>
        <time>2022-08-05T10:29:22Z</time>
      </trkpt>
      <trkpt lat="44.63776" lon="2.93657">
        <ele>1265</ele>
        <time>2022-08-05T10:29:25Z</time>
      </trkpt>
      <trkpt lat="44.63776" lon="2.93655">
        <ele>1264.6</ele>
        <time>2022-08-05T10:29:27Z</time>
      </trkpt>
      <trkpt lat="44.63775" lon="2.93654">
        <ele>1264.3</ele>
        <time>2022-08-05T10:29:29Z</time>
      </trkpt>
      <trkpt lat="44.63773" lon="2.93652">
        <ele>1263.7</ele>
        <time>2022-08-05T10:29:33Z</time>
      </trkpt>
      <trkpt lat="44.6377" lon="2.93641">
        <ele>1261.4</ele>
        <time>2022-08-05T10:29:40Z</time>
      </trkpt>
      <trkpt lat="44.63769" lon="2.93639">
        <ele>1261.1</ele>
        <time>2022-08-05T10:29:41Z</time>
      </trkpt>
      <trkpt lat="44.63768" lon="2.93638">
        <ele>1260.8</ele>
        <time>2022-08-05T10:29:42Z</time>
      </trkpt>
      <trkpt lat="44.63765" lon="2.93631">
        <ele>1259.4</ele>
        <time>2022-08-05T10:29:48Z</time>
      </trkpt>
      <trkpt lat="44.63765" lon="2.9363">
        <ele>1259.1</ele>
        <time>2022-08-05T10:29:49Z</time>
      </trkpt>
      <trkpt lat="44.63764" lon="2.93629">
        <ele>1258.9</ele>
        <time>2022-08-05T10:29:50Z</time>
      </trkpt>
      <trkpt lat="44.63763" lon="2.93626">
        <ele>1258.3</ele>
        <time>2022-08-05T10:29:53Z</time>
      </trkpt>
      <trkpt lat="44.63762" lon="2.93625">
        <ele>1258.1</ele>
        <time>2022-08-05T10:29:54Z</time>
      </trkpt>
      <trkpt lat="44.63762" lon="2.93624">
        <ele>1257.9</ele>
        <time>2022-08-05T10:29:55Z</time>
      </trkpt>
      <trkpt lat="44.63761" lon="2.93619">
        <ele>1257.1</ele>
        <time>2022-08-05T10:29:58Z</time>
      </trkpt>
      <trkpt lat="44.6376" lon="2.93613">
        <ele>1255.9</ele>
        <time>2022-08-05T10:30:02Z</time>
      </trkpt>
      <trkpt lat="44.6376" lon="2.93613">
        <ele>1255.9</ele>
        <time>2022-08-05T10:30:03Z</time>
      </trkpt>
      <trkpt lat="44.63761" lon="2.93613">
        <ele>1256</ele>
        <time>2022-08-05T10:30:04Z</time>
      </trkpt>
      <trkpt lat="44.63761" lon="2.93612">
        <ele>1255.9</ele>
        <time>2022-08-05T10:30:05Z</time>
      </trkpt>
      <trkpt lat="44.63761" lon="2.93612">
        <ele>1255.8</ele>
        <time>2022-08-05T10:30:06Z</time>
      </trkpt>
      <trkpt lat="44.6376" lon="2.9361">
        <ele>1255.5</ele>
        <time>2022-08-05T10:30:09Z</time>
      </trkpt>
      <trkpt lat="44.63761" lon="2.93611">
        <ele>1255.8</ele>
        <time>2022-08-05T10:30:12Z</time>
      </trkpt>
      <trkpt lat="44.63764" lon="2.93617">
        <ele>1256.9</ele>
        <time>2022-08-05T10:30:16Z</time>
      </trkpt>
      <trkpt lat="44.63765" lon="2.93617">
        <ele>1257</ele>
        <time>2022-08-05T10:30:18Z</time>
      </trkpt>
      <trkpt lat="44.63765" lon="2.93615">
        <ele>1256.8</ele>
        <time>2022-08-05T10:30:22Z</time>
      </trkpt>
      <trkpt lat="44.63764" lon="2.93614">
        <ele>1256.5</ele>
        <time>2022-08-05T10:30:24Z</time>
      </trkpt>
      <trkpt lat="44.63762" lon="2.93614">
        <ele>1256.3</ele>
        <time>2022-08-05T10:30:27Z</time>
      </trkpt>
      <trkpt lat="44.63762" lon="2.93614">
        <ele>1256.2</ele>
        <time>2022-08-05T10:30:28Z</time>
      </trkpt>
      <trkpt lat="44.63761" lon="2.93613">
        <ele>1256.1</ele>
        <time>2022-08-05T10:30:29Z</time>
      </trkpt>
      <trkpt lat="44.6376" lon="2.93611">
        <ele>1255.7</ele>
        <time>2022-08-05T10:30:33Z</time>
      </trkpt>
      <trkpt lat="44.63759" lon="2.93609">
        <ele>1255.4</ele>
        <time>2022-08-05T10:30:35Z</time>
      </trkpt>
      <trkpt lat="44.63759" lon="2.93607">
        <ele>1255</ele>
        <time>2022-08-05T10:30:37Z</time>
      </trkpt>
      <trkpt lat="44.63759" lon="2.93607">
        <ele>1254.9</ele>
        <time>2022-08-05T10:30:38Z</time>
      </trkpt>
      <trkpt lat="44.6376" lon="2.93605">
        <ele>1254.8</ele>
        <time>2022-08-05T10:30:40Z</time>
      </trkpt>
      <trkpt lat="44.63762" lon="2.93606">
        <ele>1255</ele>
        <time>2022-08-05T10:30:41Z</time>
      </trkpt>
      <trkpt lat="44.63763" lon="2.93607">
        <ele>1255.3</ele>
        <time>2022-08-05T10:30:42Z</time>
      </trkpt>
      <trkpt lat="44.63765" lon="2.93608">
        <ele>1255.6</ele>
        <time>2022-08-05T10:30:44Z</time>
      </trkpt>
      <trkpt lat="44.63765" lon="2.93609">
        <ele>1255.7</ele>
        <time>2022-08-05T10:30:47Z</time>
      </trkpt>
      <trkpt lat="44.63765" lon="2.93609">
        <ele>1255.7</ele>
        <time>2022-08-05T10:30:49Z</time>
      </trkpt>
      <trkpt lat="44.63766" lon="2.93609">
        <ele>1255.7</ele>
        <time>2022-08-05T10:30:50Z</time>
      </trkpt>
      <trkpt lat="44.63766" lon="2.93609">
        <ele>1255.7</ele>
        <time>2022-08-05T10:30:51Z</time>
      </trkpt>
      <trkpt lat="44.63766" lon="2.93609">
        <ele>1255.8</ele>
        <time>2022-08-05T10:30:53Z</time>
      </trkpt>
      <trkpt lat="44.63765" lon="2.93606">
        <ele>1255.3</ele>
        <time>2022-08-05T10:31:07Z</time>
      </trkpt>
      <trkpt lat="44.63765" lon="2.93604">
        <ele>1254.9</ele>
        <time>2022-08-05T10:31:08Z</time>
      </trkpt>
      <trkpt lat="44.63764" lon="2.93603">
        <ele>1254.7</ele>
        <time>2022-08-05T10:31:09Z</time>
      </trkpt>
      <trkpt lat="44.63763" lon="2.936">
        <ele>1254.2</ele>
        <time>2022-08-05T10:31:11Z</time>
      </trkpt>
      <trkpt lat="44.63761" lon="2.93595">
        <ele>1253.3</ele>
        <time>2022-08-05T10:31:14Z</time>
      </trkpt>
      <trkpt lat="44.63758" lon="2.9359">
        <ele>1252.3</ele>
        <time>2022-08-05T10:31:18Z</time>
      </trkpt>
      <trkpt lat="44.63757" lon="2.93587">
        <ele>1251.8</ele>
        <time>2022-08-05T10:31:20Z</time>
      </trkpt>
      <trkpt lat="44.63757" lon="2.93584">
        <ele>1251.3</ele>
        <time>2022-08-05T10:31:22Z</time>
      </trkpt>
      <trkpt lat="44.63755" lon="2.93578">
        <ele>1250.5</ele>
        <time>2022-08-05T10:31:26Z</time>
      </trkpt>
      <trkpt lat="44.63754" lon="2.93574">
        <ele>1250.1</ele>
        <time>2022-08-05T10:31:30Z</time>
      </trkpt>
      <trkpt lat="44.63753" lon="2.93573">
        <ele>1249.9</ele>
        <time>2022-08-05T10:31:32Z</time>
      </trkpt>
      <trkpt lat="44.6375" lon="2.93567">
        <ele>1249.2</ele>
        <time>2022-08-05T10:31:36Z</time>
      </trkpt>
      <trkpt lat="44.63749" lon="2.9356">
        <ele>1248.5</ele>
        <time>2022-08-05T10:31:40Z</time>
      </trkpt>
      <trkpt lat="44.63748" lon="2.93559">
        <ele>1248.3</ele>
        <time>2022-08-05T10:31:41Z</time>
      </trkpt>
      <trkpt lat="44.63748" lon="2.93557">
        <ele>1248.1</ele>
        <time>2022-08-05T10:31:42Z</time>
      </trkpt>
      <trkpt lat="44.63748" lon="2.93556">
        <ele>1248</ele>
        <time>2022-08-05T10:31:43Z</time>
      </trkpt>
      <trkpt lat="44.63748" lon="2.93553">
        <ele>1247.7</ele>
        <time>2022-08-05T10:31:46Z</time>
      </trkpt>
      <trkpt lat="44.63748" lon="2.93554">
        <ele>1247.7</ele>
        <time>2022-08-05T10:31:48Z</time>
      </trkpt>
      <trkpt lat="44.63748" lon="2.93554">
        <ele>1247.7</ele>
        <time>2022-08-05T10:31:49Z</time>
      </trkpt>
      <trkpt lat="44.63747" lon="2.93553">
        <ele>1247.6</ele>
        <time>2022-08-05T10:31:51Z</time>
      </trkpt>
      <trkpt lat="44.63746" lon="2.93551">
        <ele>1247.3</ele>
        <time>2022-08-05T10:31:53Z</time>
      </trkpt>
      <trkpt lat="44.63745" lon="2.93549">
        <ele>1247.1</ele>
        <time>2022-08-05T10:31:54Z</time>
      </trkpt>
      <trkpt lat="44.63745" lon="2.93547">
        <ele>1246.9</ele>
        <time>2022-08-05T10:31:55Z</time>
      </trkpt>
      <trkpt lat="44.6374" lon="2.93537">
        <ele>1245.6</ele>
        <time>2022-08-05T10:32:03Z</time>
      </trkpt>
      <trkpt lat="44.63739" lon="2.93536">
        <ele>1245.5</ele>
        <time>2022-08-05T10:32:04Z</time>
      </trkpt>
      <trkpt lat="44.63738" lon="2.93534">
        <ele>1245.2</ele>
        <time>2022-08-05T10:32:06Z</time>
      </trkpt>
      <trkpt lat="44.63736" lon="2.93527">
        <ele>1244.4</ele>
        <time>2022-08-05T10:32:11Z</time>
      </trkpt>
      <trkpt lat="44.63736" lon="2.93526">
        <ele>1244.2</ele>
        <time>2022-08-05T10:32:13Z</time>
      </trkpt>
      <trkpt lat="44.63736" lon="2.93525">
        <ele>1244.2</ele>
        <time>2022-08-05T10:32:14Z</time>
      </trkpt>
      <trkpt lat="44.63736" lon="2.93525">
        <ele>1244.1</ele>
        <time>2022-08-05T10:32:15Z</time>
      </trkpt>
      <trkpt lat="44.63736" lon="2.93526">
        <ele>1244.2</ele>
        <time>2022-08-05T10:32:20Z</time>
      </trkpt>
      <trkpt lat="44.63736" lon="2.93525">
        <ele>1244.2</ele>
        <time>2022-08-05T10:32:21Z</time>
      </trkpt>
      <trkpt lat="44.63737" lon="2.93522">
        <ele>1243.8</ele>
        <time>2022-08-05T10:32:25Z</time>
      </trkpt>
      <trkpt lat="44.63735" lon="2.93521">
        <ele>1243.5</ele>
        <time>2022-08-05T10:32:31Z</time>
      </trkpt>
      <trkpt lat="44.63733" lon="2.93521">
        <ele>1243.5</ele>
        <time>2022-08-05T10:32:39Z</time>
      </trkpt>
      <trkpt lat="44.63733" lon="2.93521">
        <ele>1243.6</ele>
        <time>2022-08-05T10:32:40Z</time>
      </trkpt>
      <trkpt lat="44.63734" lon="2.93522">
        <ele>1243.7</ele>
        <time>2022-08-05T10:32:47Z</time>
      </trkpt>
      <trkpt lat="44.63734" lon="2.93522">
        <ele>1243.7</ele>
        <time>2022-08-05T10:32:48Z</time>
      </trkpt>
      <trkpt lat="44.63734" lon="2.93522">
        <ele>1243.7</ele>
        <time>2022-08-05T10:32:51Z</time>
      </trkpt>
      <trkpt lat="44.63737" lon="2.93525">
        <ele>1244.1</ele>
        <time>2022-08-05T10:33:28Z</time>
      </trkpt>
      <trkpt lat="44.63737" lon="2.93525">
        <ele>1244.1</ele>
        <time>2022-08-05T10:33:31Z</time>
      </trkpt>
      <trkpt lat="44.63737" lon="2.93524">
        <ele>1244.1</ele>
        <time>2022-08-05T10:33:36Z</time>
      </trkpt>
      <trkpt lat="44.63737" lon="2.93524">
        <ele>1244</ele>
        <time>2022-08-05T10:33:38Z</time>
      </trkpt>
      <trkpt lat="44.63736" lon="2.93523">
        <ele>1244</ele>
        <time>2022-08-05T10:33:41Z</time>
      </trkpt>
      <trkpt lat="44.63736" lon="2.93523">
        <ele>1243.9</ele>
        <time>2022-08-05T10:33:45Z</time>
      </trkpt>
      <trkpt lat="44.63736" lon="2.93523">
        <ele>1243.8</ele>
        <time>2022-08-05T10:33:47Z</time>
      </trkpt>
      <trkpt lat="44.63735" lon="2.9352">
        <ele>1243.5</ele>
        <time>2022-08-05T10:33:56Z</time>
      </trkpt>
      <trkpt lat="44.63733" lon="2.93515">
        <ele>1242.8</ele>
        <time>2022-08-05T10:34:04Z</time>
      </trkpt>
      <trkpt lat="44.63732" lon="2.93511">
        <ele>1242.4</ele>
        <time>2022-08-05T10:34:07Z</time>
      </trkpt>
      <trkpt lat="44.63732" lon="2.9351">
        <ele>1242.2</ele>
        <time>2022-08-05T10:34:08Z</time>
      </trkpt>
      <trkpt lat="44.63732" lon="2.9351">
        <ele>1242.2</ele>
        <time>2022-08-05T10:34:09Z</time>
      </trkpt>
      <trkpt lat="44.63731" lon="2.93506">
        <ele>1241.7</ele>
        <time>2022-08-05T10:34:11Z</time>
      </trkpt>
      <trkpt lat="44.6373" lon="2.93504">
        <ele>1241.5</ele>
        <time>2022-08-05T10:34:12Z</time>
      </trkpt>
      <trkpt lat="44.63729" lon="2.93501">
        <ele>1241.2</ele>
        <time>2022-08-05T10:34:14Z</time>
      </trkpt>
      <trkpt lat="44.63728" lon="2.93497">
        <ele>1240.7</ele>
        <time>2022-08-05T10:34:17Z</time>
      </trkpt>
      <trkpt lat="44.63728" lon="2.93496">
        <ele>1240.6</ele>
        <time>2022-08-05T10:34:18Z</time>
      </trkpt>
      <trkpt lat="44.63727" lon="2.93495">
        <ele>1240.4</ele>
        <time>2022-08-05T10:34:19Z</time>
      </trkpt>
      <trkpt lat="44.63727" lon="2.93492">
        <ele>1240.1</ele>
        <time>2022-08-05T10:34:21Z</time>
      </trkpt>
      <trkpt lat="44.63725" lon="2.93487">
        <ele>1239.5</ele>
        <time>2022-08-05T10:34:25Z</time>
      </trkpt>
      <trkpt lat="44.63724" lon="2.93484">
        <ele>1239.3</ele>
        <time>2022-08-05T10:34:27Z</time>
      </trkpt>
      <trkpt lat="44.63723" lon="2.9348">
        <ele>1238.9</ele>
        <time>2022-08-05T10:34:30Z</time>
      </trkpt>
      <trkpt lat="44.63722" lon="2.93477">
        <ele>1238.5</ele>
        <time>2022-08-05T10:34:32Z</time>
      </trkpt>
      <trkpt lat="44.63718" lon="2.93469">
        <ele>1237.3</ele>
        <time>2022-08-05T10:34:39Z</time>
      </trkpt>
      <trkpt lat="44.63717" lon="2.93463">
        <ele>1236.6</ele>
        <time>2022-08-05T10:34:43Z</time>
      </trkpt>
      <trkpt lat="44.63715" lon="2.93456">
        <ele>1235.9</ele>
        <time>2022-08-05T10:34:48Z</time>
      </trkpt>
      <trkpt lat="44.63714" lon="2.93455">
        <ele>1235.7</ele>
        <time>2022-08-05T10:34:49Z</time>
      </trkpt>
      <trkpt lat="44.63712" lon="2.93449">
        <ele>1235.1</ele>
        <time>2022-08-05T10:34:53Z</time>
      </trkpt>
      <trkpt lat="44.63711" lon="2.93443">
        <ele>1234.4</ele>
        <time>2022-08-05T10:34:57Z</time>
      </trkpt>
      <trkpt lat="44.6371" lon="2.93439">
        <ele>1234</ele>
        <time>2022-08-05T10:34:59Z</time>
      </trkpt>
      <trkpt lat="44.63708" lon="2.93434">
        <ele>1233.4</ele>
        <time>2022-08-05T10:35:03Z</time>
      </trkpt>
      <trkpt lat="44.63707" lon="2.93433">
        <ele>1233.2</ele>
        <time>2022-08-05T10:35:04Z</time>
      </trkpt>
      <trkpt lat="44.63706" lon="2.93432">
        <ele>1233.1</ele>
        <time>2022-08-05T10:35:05Z</time>
      </trkpt>
      <trkpt lat="44.63705" lon="2.93428">
        <ele>1232.6</ele>
        <time>2022-08-05T10:35:08Z</time>
      </trkpt>
      <trkpt lat="44.63705" lon="2.93428">
        <ele>1232.6</ele>
        <time>2022-08-05T10:35:11Z</time>
      </trkpt>
      <trkpt lat="44.63704" lon="2.93429">
        <ele>1232.6</ele>
        <time>2022-08-05T10:35:14Z</time>
      </trkpt>
      <trkpt lat="44.63701" lon="2.93429">
        <ele>1232.6</ele>
        <time>2022-08-05T10:35:16Z</time>
      </trkpt>
      <trkpt lat="44.63704" lon="2.93429">
        <ele>1232.7</ele>
        <time>2022-08-05T10:35:21Z</time>
      </trkpt>
      <trkpt lat="44.63705" lon="2.93428">
        <ele>1232.6</ele>
        <time>2022-08-05T10:35:28Z</time>
      </trkpt>
      <trkpt lat="44.63705" lon="2.93427">
        <ele>1232.5</ele>
        <time>2022-08-05T10:35:29Z</time>
      </trkpt>
      <trkpt lat="44.63703" lon="2.93421">
        <ele>1231.8</ele>
        <time>2022-08-05T10:35:33Z</time>
      </trkpt>
      <trkpt lat="44.63702" lon="2.9342">
        <ele>1231.6</ele>
        <time>2022-08-05T10:35:34Z</time>
      </trkpt>
      <trkpt lat="44.63702" lon="2.93419">
        <ele>1231.5</ele>
        <time>2022-08-05T10:35:35Z</time>
      </trkpt>
      <trkpt lat="44.63701" lon="2.93417">
        <ele>1231.2</ele>
        <time>2022-08-05T10:35:37Z</time>
      </trkpt>
      <trkpt lat="44.63699" lon="2.9341">
        <ele>1230.4</ele>
        <time>2022-08-05T10:35:41Z</time>
      </trkpt>
      <trkpt lat="44.63697" lon="2.93403">
        <ele>1229.6</ele>
        <time>2022-08-05T10:35:47Z</time>
      </trkpt>
      <trkpt lat="44.63696" lon="2.93396">
        <ele>1228.8</ele>
        <time>2022-08-05T10:35:53Z</time>
      </trkpt>
      <trkpt lat="44.63695" lon="2.93394">
        <ele>1228.5</ele>
        <time>2022-08-05T10:35:55Z</time>
      </trkpt>
      <trkpt lat="44.63693" lon="2.93388">
        <ele>1227.8</ele>
        <time>2022-08-05T10:36:00Z</time>
      </trkpt>
      <trkpt lat="44.63692" lon="2.93384">
        <ele>1227.5</ele>
        <time>2022-08-05T10:36:02Z</time>
      </trkpt>
      <trkpt lat="44.6369" lon="2.93377">
        <ele>1227</ele>
        <time>2022-08-05T10:36:07Z</time>
      </trkpt>
      <trkpt lat="44.63689" lon="2.93373">
        <ele>1226.6</ele>
        <time>2022-08-05T10:36:10Z</time>
      </trkpt>
      <trkpt lat="44.63684" lon="2.93363">
        <ele>1225.8</ele>
        <time>2022-08-05T10:36:18Z</time>
      </trkpt>
      <trkpt lat="44.63683" lon="2.93356">
        <ele>1225</ele>
        <time>2022-08-05T10:36:23Z</time>
      </trkpt>
      <trkpt lat="44.63682" lon="2.93349">
        <ele>1224.3</ele>
        <time>2022-08-05T10:36:27Z</time>
      </trkpt>
      <trkpt lat="44.63682" lon="2.93348">
        <ele>1224.1</ele>
        <time>2022-08-05T10:36:28Z</time>
      </trkpt>
      <trkpt lat="44.63679" lon="2.93338">
        <ele>1222.9</ele>
        <time>2022-08-05T10:36:35Z</time>
      </trkpt>
      <trkpt lat="44.63678" lon="2.93335">
        <ele>1222.6</ele>
        <time>2022-08-05T10:36:37Z</time>
      </trkpt>
      <trkpt lat="44.63677" lon="2.93332">
        <ele>1222.2</ele>
        <time>2022-08-05T10:36:39Z</time>
      </trkpt>
      <trkpt lat="44.63677" lon="2.9333">
        <ele>1222</ele>
        <time>2022-08-05T10:36:40Z</time>
      </trkpt>
      <trkpt lat="44.63677" lon="2.93329">
        <ele>1221.9</ele>
        <time>2022-08-05T10:36:41Z</time>
      </trkpt>
      <trkpt lat="44.63676" lon="2.93326">
        <ele>1221.6</ele>
        <time>2022-08-05T10:36:43Z</time>
      </trkpt>
      <trkpt lat="44.63675" lon="2.93324">
        <ele>1221.3</ele>
        <time>2022-08-05T10:36:45Z</time>
      </trkpt>
      <trkpt lat="44.63675" lon="2.93321">
        <ele>1220.9</ele>
        <time>2022-08-05T10:36:47Z</time>
      </trkpt>
      <trkpt lat="44.63674" lon="2.93319">
        <ele>1220.7</ele>
        <time>2022-08-05T10:36:48Z</time>
      </trkpt>
      <trkpt lat="44.63673" lon="2.93314">
        <ele>1220.2</ele>
        <time>2022-08-05T10:36:51Z</time>
      </trkpt>
      <trkpt lat="44.63672" lon="2.93311">
        <ele>1219.8</ele>
        <time>2022-08-05T10:36:53Z</time>
      </trkpt>
      <trkpt lat="44.63671" lon="2.93308">
        <ele>1219.4</ele>
        <time>2022-08-05T10:36:55Z</time>
      </trkpt>
      <trkpt lat="44.6367" lon="2.93307">
        <ele>1219.2</ele>
        <time>2022-08-05T10:36:56Z</time>
      </trkpt>
      <trkpt lat="44.6367" lon="2.93304">
        <ele>1218.9</ele>
        <time>2022-08-05T10:36:58Z</time>
      </trkpt>
      <trkpt lat="44.63668" lon="2.93299">
        <ele>1218.3</ele>
        <time>2022-08-05T10:37:03Z</time>
      </trkpt>
      <trkpt lat="44.63667" lon="2.93298">
        <ele>1218.2</ele>
        <time>2022-08-05T10:37:04Z</time>
      </trkpt>
      <trkpt lat="44.63666" lon="2.93293">
        <ele>1217.6</ele>
        <time>2022-08-05T10:37:07Z</time>
      </trkpt>
      <trkpt lat="44.63664" lon="2.93287">
        <ele>1216.9</ele>
        <time>2022-08-05T10:37:12Z</time>
      </trkpt>
      <trkpt lat="44.63663" lon="2.93286">
        <ele>1216.8</ele>
        <time>2022-08-05T10:37:13Z</time>
      </trkpt>
      <trkpt lat="44.63658" lon="2.93271">
        <ele>1215.5</ele>
        <time>2022-08-05T10:37:24Z</time>
      </trkpt>
      <trkpt lat="44.63655" lon="2.93261">
        <ele>1214.8</ele>
        <time>2022-08-05T10:37:32Z</time>
      </trkpt>
      <trkpt lat="44.63652" lon="2.93256">
        <ele>1214.4</ele>
        <time>2022-08-05T10:37:36Z</time>
      </trkpt>
      <trkpt lat="44.63649" lon="2.9325">
        <ele>1214</ele>
        <time>2022-08-05T10:37:40Z</time>
      </trkpt>
      <trkpt lat="44.63648" lon="2.93249">
        <ele>1213.9</ele>
        <time>2022-08-05T10:37:41Z</time>
      </trkpt>
      <trkpt lat="44.63648" lon="2.93247">
        <ele>1213.8</ele>
        <time>2022-08-05T10:37:42Z</time>
      </trkpt>
      <trkpt lat="44.63646" lon="2.93243">
        <ele>1213.5</ele>
        <time>2022-08-05T10:37:45Z</time>
      </trkpt>
      <trkpt lat="44.63644" lon="2.93238">
        <ele>1213.1</ele>
        <time>2022-08-05T10:37:48Z</time>
      </trkpt>
      <trkpt lat="44.63643" lon="2.93235">
        <ele>1212.9</ele>
        <time>2022-08-05T10:37:50Z</time>
      </trkpt>
      <trkpt lat="44.6364" lon="2.9323">
        <ele>1212.5</ele>
        <time>2022-08-05T10:37:54Z</time>
      </trkpt>
      <trkpt lat="44.63639" lon="2.93227">
        <ele>1212.3</ele>
        <time>2022-08-05T10:37:56Z</time>
      </trkpt>
      <trkpt lat="44.63637" lon="2.93221">
        <ele>1212</ele>
        <time>2022-08-05T10:38:00Z</time>
      </trkpt>
      <trkpt lat="44.63637" lon="2.93214">
        <ele>1211.5</ele>
        <time>2022-08-05T10:38:04Z</time>
      </trkpt>
      <trkpt lat="44.63638" lon="2.93209">
        <ele>1211</ele>
        <time>2022-08-05T10:38:08Z</time>
      </trkpt>
      <trkpt lat="44.63643" lon="2.93204">
        <ele>1210.7</ele>
        <time>2022-08-05T10:38:15Z</time>
      </trkpt>
      <trkpt lat="44.63644" lon="2.93202">
        <ele>1210.5</ele>
        <time>2022-08-05T10:38:16Z</time>
      </trkpt>
      <trkpt lat="44.63644" lon="2.93201">
        <ele>1210.5</ele>
        <time>2022-08-05T10:38:17Z</time>
      </trkpt>
      <trkpt lat="44.63644" lon="2.932">
        <ele>1210.4</ele>
        <time>2022-08-05T10:38:18Z</time>
      </trkpt>
      <trkpt lat="44.63645" lon="2.932">
        <ele>1210.4</ele>
        <time>2022-08-05T10:38:19Z</time>
      </trkpt>
      <trkpt lat="44.63648" lon="2.93198">
        <ele>1210.3</ele>
        <time>2022-08-05T10:38:22Z</time>
      </trkpt>
      <trkpt lat="44.63649" lon="2.93197">
        <ele>1210.2</ele>
        <time>2022-08-05T10:38:23Z</time>
      </trkpt>
      <trkpt lat="44.63649" lon="2.93197">
        <ele>1210.2</ele>
        <time>2022-08-05T10:38:25Z</time>
      </trkpt>
      <trkpt lat="44.63649" lon="2.93197">
        <ele>1210.2</ele>
        <time>2022-08-05T10:38:26Z</time>
      </trkpt>
      <trkpt lat="44.63649" lon="2.93198">
        <ele>1210.2</ele>
        <time>2022-08-05T10:38:28Z</time>
      </trkpt>
      <trkpt lat="44.63647" lon="2.93199">
        <ele>1210.3</ele>
        <time>2022-08-05T10:38:34Z</time>
      </trkpt>
      <trkpt lat="44.63649" lon="2.93196">
        <ele>1210.1</ele>
        <time>2022-08-05T10:38:39Z</time>
      </trkpt>
      <trkpt lat="44.6365" lon="2.93195">
        <ele>1210.1</ele>
        <time>2022-08-05T10:38:40Z</time>
      </trkpt>
      <trkpt lat="44.63652" lon="2.93194">
        <ele>1210</ele>
        <time>2022-08-05T10:38:41Z</time>
      </trkpt>
      <trkpt lat="44.63653" lon="2.93194">
        <ele>1210</ele>
        <time>2022-08-05T10:38:42Z</time>
      </trkpt>
      <trkpt lat="44.63655" lon="2.93192">
        <ele>1209.8</ele>
        <time>2022-08-05T10:38:45Z</time>
      </trkpt>
      <trkpt lat="44.63656" lon="2.93186">
        <ele>1209.5</ele>
        <time>2022-08-05T10:38:49Z</time>
      </trkpt>
      <trkpt lat="44.63656" lon="2.93185">
        <ele>1209.4</ele>
        <time>2022-08-05T10:38:50Z</time>
      </trkpt>
      <trkpt lat="44.63658" lon="2.93187">
        <ele>1209.5</ele>
        <time>2022-08-05T10:38:54Z</time>
      </trkpt>
      <trkpt lat="44.63663" lon="2.93183">
        <ele>1209.2</ele>
        <time>2022-08-05T10:39:00Z</time>
      </trkpt>
      <trkpt lat="44.63665" lon="2.93182">
        <ele>1209.1</ele>
        <time>2022-08-05T10:39:02Z</time>
      </trkpt>
      <trkpt lat="44.63667" lon="2.93176">
        <ele>1208.7</ele>
        <time>2022-08-05T10:39:07Z</time>
      </trkpt>
      <trkpt lat="44.63668" lon="2.93173">
        <ele>1208.4</ele>
        <time>2022-08-05T10:39:09Z</time>
      </trkpt>
      <trkpt lat="44.63673" lon="2.93175">
        <ele>1208.4</ele>
        <time>2022-08-05T10:39:12Z</time>
      </trkpt>
      <trkpt lat="44.63676" lon="2.93176">
        <ele>1208.4</ele>
        <time>2022-08-05T10:39:14Z</time>
      </trkpt>
      <trkpt lat="44.63677" lon="2.93174">
        <ele>1208.1</ele>
        <time>2022-08-05T10:39:17Z</time>
      </trkpt>
      <trkpt lat="44.63679" lon="2.93171">
        <ele>1207.9</ele>
        <time>2022-08-05T10:39:20Z</time>
      </trkpt>
      <trkpt lat="44.63682" lon="2.9317">
        <ele>1207.7</ele>
        <time>2022-08-05T10:39:23Z</time>
      </trkpt>
      <trkpt lat="44.63686" lon="2.93168">
        <ele>1207.4</ele>
        <time>2022-08-05T10:39:27Z</time>
      </trkpt>
      <trkpt lat="44.63687" lon="2.93167">
        <ele>1207.3</ele>
        <time>2022-08-05T10:39:28Z</time>
      </trkpt>
      <trkpt lat="44.63688" lon="2.93166">
        <ele>1207.2</ele>
        <time>2022-08-05T10:39:29Z</time>
      </trkpt>
      <trkpt lat="44.6369" lon="2.93163">
        <ele>1206.8</ele>
        <time>2022-08-05T10:39:31Z</time>
      </trkpt>
      <trkpt lat="44.63695" lon="2.93156">
        <ele>1205.8</ele>
        <time>2022-08-05T10:39:35Z</time>
      </trkpt>
      <trkpt lat="44.63697" lon="2.93154">
        <ele>1205.4</ele>
        <time>2022-08-05T10:39:38Z</time>
      </trkpt>
      <trkpt lat="44.637" lon="2.93155">
        <ele>1205.2</ele>
        <time>2022-08-05T10:39:40Z</time>
      </trkpt>
      <trkpt lat="44.63701" lon="2.93155">
        <ele>1205.1</ele>
        <time>2022-08-05T10:39:41Z</time>
      </trkpt>
      <trkpt lat="44.63704" lon="2.93155">
        <ele>1204.9</ele>
        <time>2022-08-05T10:39:43Z</time>
      </trkpt>
      <trkpt lat="44.63706" lon="2.93155">
        <ele>1204.6</ele>
        <time>2022-08-05T10:39:46Z</time>
      </trkpt>
      <trkpt lat="44.63707" lon="2.93156">
        <ele>1204.7</ele>
        <time>2022-08-05T10:39:47Z</time>
      </trkpt>
      <trkpt lat="44.63708" lon="2.93155">
        <ele>1204.5</ele>
        <time>2022-08-05T10:39:49Z</time>
      </trkpt>
      <trkpt lat="44.63714" lon="2.93157">
        <ele>1204.2</ele>
        <time>2022-08-05T10:39:53Z</time>
      </trkpt>
      <trkpt lat="44.63715" lon="2.93158">
        <ele>1204.1</ele>
        <time>2022-08-05T10:39:54Z</time>
      </trkpt>
      <trkpt lat="44.63718" lon="2.93162">
        <ele>1204.1</ele>
        <time>2022-08-05T10:39:56Z</time>
      </trkpt>
      <trkpt lat="44.6372" lon="2.93164">
        <ele>1204.1</ele>
        <time>2022-08-05T10:39:58Z</time>
      </trkpt>
      <trkpt lat="44.63723" lon="2.93168">
        <ele>1204.1</ele>
        <time>2022-08-05T10:40:01Z</time>
      </trkpt>
      <trkpt lat="44.63724" lon="2.93169">
        <ele>1204.1</ele>
        <time>2022-08-05T10:40:02Z</time>
      </trkpt>
      <trkpt lat="44.63726" lon="2.9317">
        <ele>1204.1</ele>
        <time>2022-08-05T10:40:04Z</time>
      </trkpt>
      <trkpt lat="44.63729" lon="2.93172">
        <ele>1204.1</ele>
        <time>2022-08-05T10:40:06Z</time>
      </trkpt>
      <trkpt lat="44.6373" lon="2.93172">
        <ele>1204</ele>
        <time>2022-08-05T10:40:07Z</time>
      </trkpt>
      <trkpt lat="44.63731" lon="2.93173">
        <ele>1204</ele>
        <time>2022-08-05T10:40:08Z</time>
      </trkpt>
      <trkpt lat="44.63733" lon="2.93174">
        <ele>1204</ele>
        <time>2022-08-05T10:40:10Z</time>
      </trkpt>
      <trkpt lat="44.63738" lon="2.93176">
        <ele>1203.9</ele>
        <time>2022-08-05T10:40:14Z</time>
      </trkpt>
      <trkpt lat="44.6374" lon="2.93177">
        <ele>1203.9</ele>
        <time>2022-08-05T10:40:16Z</time>
      </trkpt>
      <trkpt lat="44.63741" lon="2.93177">
        <ele>1203.8</ele>
        <time>2022-08-05T10:40:17Z</time>
      </trkpt>
      <trkpt lat="44.63743" lon="2.93178">
        <ele>1203.7</ele>
        <time>2022-08-05T10:40:20Z</time>
      </trkpt>
      <trkpt lat="44.63744" lon="2.93179">
        <ele>1203.7</ele>
        <time>2022-08-05T10:40:21Z</time>
      </trkpt>
      <trkpt lat="44.63745" lon="2.9318">
        <ele>1203.8</ele>
        <time>2022-08-05T10:40:22Z</time>
      </trkpt>
      <trkpt lat="44.63746" lon="2.93181">
        <ele>1203.8</ele>
        <time>2022-08-05T10:40:23Z</time>
      </trkpt>
      <trkpt lat="44.63747" lon="2.93181">
        <ele>1203.8</ele>
        <time>2022-08-05T10:40:24Z</time>
      </trkpt>
      <trkpt lat="44.63752" lon="2.93183">
        <ele>1203.5</ele>
        <time>2022-08-05T10:40:30Z</time>
      </trkpt>
      <trkpt lat="44.63754" lon="2.93183">
        <ele>1203.4</ele>
        <time>2022-08-05T10:40:32Z</time>
      </trkpt>
      <trkpt lat="44.63755" lon="2.93183">
        <ele>1203.3</ele>
        <time>2022-08-05T10:40:33Z</time>
      </trkpt>
      <trkpt lat="44.63756" lon="2.93183">
        <ele>1203.2</ele>
        <time>2022-08-05T10:40:34Z</time>
      </trkpt>
      <trkpt lat="44.63757" lon="2.93183">
        <ele>1203.1</ele>
        <time>2022-08-05T10:40:36Z</time>
      </trkpt>
      <trkpt lat="44.63757" lon="2.93184">
        <ele>1203.1</ele>
        <time>2022-08-05T10:40:38Z</time>
      </trkpt>
      <trkpt lat="44.63758" lon="2.93184">
        <ele>1203.1</ele>
        <time>2022-08-05T10:40:39Z</time>
      </trkpt>
      <trkpt lat="44.63759" lon="2.93185">
        <ele>1203</ele>
        <time>2022-08-05T10:40:41Z</time>
      </trkpt>
      <trkpt lat="44.63761" lon="2.93186">
        <ele>1202.9</ele>
        <time>2022-08-05T10:40:45Z</time>
      </trkpt>
      <trkpt lat="44.63763" lon="2.93187">
        <ele>1202.8</ele>
        <time>2022-08-05T10:40:47Z</time>
      </trkpt>
      <trkpt lat="44.63765" lon="2.93189">
        <ele>1202.8</ele>
        <time>2022-08-05T10:40:49Z</time>
      </trkpt>
      <trkpt lat="44.63768" lon="2.9319">
        <ele>1202.6</ele>
        <time>2022-08-05T10:40:51Z</time>
      </trkpt>
      <trkpt lat="44.63769" lon="2.9319">
        <ele>1202.5</ele>
        <time>2022-08-05T10:40:52Z</time>
      </trkpt>
      <trkpt lat="44.63771" lon="2.93191">
        <ele>1202.4</ele>
        <time>2022-08-05T10:40:53Z</time>
      </trkpt>
      <trkpt lat="44.63775" lon="2.93197">
        <ele>1202.5</ele>
        <time>2022-08-05T10:40:56Z</time>
      </trkpt>
      <trkpt lat="44.63779" lon="2.93201">
        <ele>1202.6</ele>
        <time>2022-08-05T10:40:58Z</time>
      </trkpt>
      <trkpt lat="44.63782" lon="2.93205">
        <ele>1202.6</ele>
        <time>2022-08-05T10:41:00Z</time>
      </trkpt>
      <trkpt lat="44.63785" lon="2.93208">
        <ele>1202.5</ele>
        <time>2022-08-05T10:41:02Z</time>
      </trkpt>
      <trkpt lat="44.63786" lon="2.93209">
        <ele>1202.5</ele>
        <time>2022-08-05T10:41:03Z</time>
      </trkpt>
      <trkpt lat="44.63787" lon="2.9321">
        <ele>1202.5</ele>
        <time>2022-08-05T10:41:04Z</time>
      </trkpt>
      <trkpt lat="44.63789" lon="2.93212">
        <ele>1202.5</ele>
        <time>2022-08-05T10:41:05Z</time>
      </trkpt>
      <trkpt lat="44.63789" lon="2.93213">
        <ele>1202.7</ele>
        <time>2022-08-05T10:41:06Z</time>
      </trkpt>
      <trkpt lat="44.63791" lon="2.93216">
        <ele>1202.9</ele>
        <time>2022-08-05T10:41:08Z</time>
      </trkpt>
      <trkpt lat="44.63793" lon="2.93217">
        <ele>1202.7</ele>
        <time>2022-08-05T10:41:10Z</time>
      </trkpt>
      <trkpt lat="44.63794" lon="2.93218">
        <ele>1202.7</ele>
        <time>2022-08-05T10:41:11Z</time>
      </trkpt>
      <trkpt lat="44.63794" lon="2.93219">
        <ele>1202.8</ele>
        <time>2022-08-05T10:41:12Z</time>
      </trkpt>
      <trkpt lat="44.63797" lon="2.93223">
        <ele>1203</ele>
        <time>2022-08-05T10:41:15Z</time>
      </trkpt>
      <trkpt lat="44.63798" lon="2.93224">
        <ele>1203</ele>
        <time>2022-08-05T10:41:16Z</time>
      </trkpt>
      <trkpt lat="44.63799" lon="2.93224">
        <ele>1203</ele>
        <time>2022-08-05T10:41:17Z</time>
      </trkpt>
      <trkpt lat="44.638" lon="2.93225">
        <ele>1203</ele>
        <time>2022-08-05T10:41:18Z</time>
      </trkpt>
      <trkpt lat="44.638" lon="2.93226">
        <ele>1203</ele>
        <time>2022-08-05T10:41:19Z</time>
      </trkpt>
      <trkpt lat="44.63801" lon="2.93228">
        <ele>1203.1</ele>
        <time>2022-08-05T10:41:21Z</time>
      </trkpt>
      <trkpt lat="44.63802" lon="2.93229">
        <ele>1203.1</ele>
        <time>2022-08-05T10:41:22Z</time>
      </trkpt>
      <trkpt lat="44.63803" lon="2.93233">
        <ele>1203.4</ele>
        <time>2022-08-05T10:41:27Z</time>
      </trkpt>
      <trkpt lat="44.63804" lon="2.93238">
        <ele>1203.9</ele>
        <time>2022-08-05T10:41:32Z</time>
      </trkpt>
      <trkpt lat="44.63804" lon="2.93238">
        <ele>1203.9</ele>
        <time>2022-08-05T10:41:33Z</time>
      </trkpt>
      <trkpt lat="44.63808" lon="2.9324">
        <ele>1203.6</ele>
        <time>2022-08-05T10:41:37Z</time>
      </trkpt>
      <trkpt lat="44.63809" lon="2.93244">
        <ele>1203.9</ele>
        <time>2022-08-05T10:41:42Z</time>
      </trkpt>
      <trkpt lat="44.63811" lon="2.93244">
        <ele>1203.8</ele>
        <time>2022-08-05T10:41:44Z</time>
      </trkpt>
      <trkpt lat="44.63813" lon="2.93245">
        <ele>1203.6</ele>
        <time>2022-08-05T10:41:46Z</time>
      </trkpt>
      <trkpt lat="44.63817" lon="2.93245">
        <ele>1203.1</ele>
        <time>2022-08-05T10:41:49Z</time>
      </trkpt>
      <trkpt lat="44.6382" lon="2.93246">
        <ele>1202.9</ele>
        <time>2022-08-05T10:41:51Z</time>
      </trkpt>
      <trkpt lat="44.63824" lon="2.93249">
        <ele>1203</ele>
        <time>2022-08-05T10:41:54Z</time>
      </trkpt>
      <trkpt lat="44.63824" lon="2.93251">
        <ele>1203.1</ele>
        <time>2022-08-05T10:41:55Z</time>
      </trkpt>
      <trkpt lat="44.63834" lon="2.93257">
        <ele>1202.8</ele>
        <time>2022-08-05T10:42:03Z</time>
      </trkpt>
      <trkpt lat="44.63841" lon="2.93263">
        <ele>1203.1</ele>
        <time>2022-08-05T10:42:09Z</time>
      </trkpt>
      <trkpt lat="44.63846" lon="2.93268">
        <ele>1203.6</ele>
        <time>2022-08-05T10:42:15Z</time>
      </trkpt>
      <trkpt lat="44.63848" lon="2.93269">
        <ele>1203.5</ele>
        <time>2022-08-05T10:42:17Z</time>
      </trkpt>
      <trkpt lat="44.63855" lon="2.93276">
        <ele>1204</ele>
        <time>2022-08-05T10:42:25Z</time>
      </trkpt>
      <trkpt lat="44.63863" lon="2.9328">
        <ele>1204.4</ele>
        <time>2022-08-05T10:42:32Z</time>
      </trkpt>
      <trkpt lat="44.63863" lon="2.93281">
        <ele>1204.4</ele>
        <time>2022-08-05T10:42:33Z</time>
      </trkpt>
      <trkpt lat="44.63864" lon="2.93281">
        <ele>1204.4</ele>
        <time>2022-08-05T10:42:36Z</time>
      </trkpt>
      <trkpt lat="44.63865" lon="2.93281">
        <ele>1204.2</ele>
        <time>2022-08-05T10:42:38Z</time>
      </trkpt>
      <trkpt lat="44.63866" lon="2.9328">
        <ele>1204.1</ele>
        <time>2022-08-05T10:42:39Z</time>
      </trkpt>
      <trkpt lat="44.63867" lon="2.9328">
        <ele>1204</ele>
        <time>2022-08-05T10:42:40Z</time>
      </trkpt>
      <trkpt lat="44.63869" lon="2.93281">
        <ele>1204</ele>
        <time>2022-08-05T10:42:42Z</time>
      </trkpt>
      <trkpt lat="44.63873" lon="2.93282">
        <ele>1203.9</ele>
        <time>2022-08-05T10:42:45Z</time>
      </trkpt>
      <trkpt lat="44.63881" lon="2.93289">
        <ele>1204.6</ele>
        <time>2022-08-05T10:42:53Z</time>
      </trkpt>
      <trkpt lat="44.63893" lon="2.93297">
        <ele>1205.2</ele>
        <time>2022-08-05T10:43:03Z</time>
      </trkpt>
      <trkpt lat="44.63896" lon="2.93298">
        <ele>1205.3</ele>
        <time>2022-08-05T10:43:05Z</time>
      </trkpt>
      <trkpt lat="44.63899" lon="2.93299">
        <ele>1205.3</ele>
        <time>2022-08-05T10:43:08Z</time>
      </trkpt>
      <trkpt lat="44.63901" lon="2.93299">
        <ele>1205.3</ele>
        <time>2022-08-05T10:43:10Z</time>
      </trkpt>
      <trkpt lat="44.63909" lon="2.93299">
        <ele>1205</ele>
        <time>2022-08-05T10:43:17Z</time>
      </trkpt>
      <trkpt lat="44.63912" lon="2.93299">
        <ele>1204.9</ele>
        <time>2022-08-05T10:43:20Z</time>
      </trkpt>
      <trkpt lat="44.63914" lon="2.933">
        <ele>1204.8</ele>
        <time>2022-08-05T10:43:24Z</time>
      </trkpt>
      <trkpt lat="44.63914" lon="2.93299">
        <ele>1204.7</ele>
        <time>2022-08-05T10:43:27Z</time>
      </trkpt>
      <trkpt lat="44.63914" lon="2.93299">
        <ele>1204.8</ele>
        <time>2022-08-05T10:43:28Z</time>
      </trkpt>
      <trkpt lat="44.63913" lon="2.93299">
        <ele>1204.8</ele>
        <time>2022-08-05T10:43:34Z</time>
      </trkpt>
      <trkpt lat="44.63912" lon="2.93299">
        <ele>1204.8</ele>
        <time>2022-08-05T10:43:55Z</time>
      </trkpt>
      <trkpt lat="44.63913" lon="2.933">
        <ele>1204.9</ele>
        <time>2022-08-05T10:44:08Z</time>
      </trkpt>
      <trkpt lat="44.63918" lon="2.933">
        <ele>1204.7</ele>
        <time>2022-08-05T10:44:11Z</time>
      </trkpt>
      <trkpt lat="44.63926" lon="2.93303">
        <ele>1204.8</ele>
        <time>2022-08-05T10:44:18Z</time>
      </trkpt>
      <trkpt lat="44.63927" lon="2.93303">
        <ele>1204.8</ele>
        <time>2022-08-05T10:44:19Z</time>
      </trkpt>
      <trkpt lat="44.63934" lon="2.93305">
        <ele>1204.7</ele>
        <time>2022-08-05T10:44:25Z</time>
      </trkpt>
      <trkpt lat="44.63943" lon="2.93307">
        <ele>1204.4</ele>
        <time>2022-08-05T10:44:33Z</time>
      </trkpt>
      <trkpt lat="44.63955" lon="2.93311">
        <ele>1204.5</ele>
        <time>2022-08-05T10:44:42Z</time>
      </trkpt>
      <trkpt lat="44.63968" lon="2.93318">
        <ele>1205</ele>
        <time>2022-08-05T10:44:53Z</time>
      </trkpt>
      <trkpt lat="44.63976" lon="2.9332">
        <ele>1204.9</ele>
        <time>2022-08-05T10:45:00Z</time>
      </trkpt>
      <trkpt lat="44.63979" lon="2.93319">
        <ele>1204.6</ele>
        <time>2022-08-05T10:45:02Z</time>
      </trkpt>
      <trkpt lat="44.63982" lon="2.93318">
        <ele>1204.1</ele>
        <time>2022-08-05T10:45:05Z</time>
      </trkpt>
      <trkpt lat="44.63982" lon="2.93316">
        <ele>1203.8</ele>
        <time>2022-08-05T10:45:06Z</time>
      </trkpt>
      <trkpt lat="44.63983" lon="2.93315">
        <ele>1203.6</ele>
        <time>2022-08-05T10:45:07Z</time>
      </trkpt>
      <trkpt lat="44.63988" lon="2.93312">
        <ele>1202.6</ele>
        <time>2022-08-05T10:45:14Z</time>
      </trkpt>
      <trkpt lat="44.63995" lon="2.9331">
        <ele>1202.1</ele>
        <time>2022-08-05T10:45:20Z</time>
      </trkpt>
      <trkpt lat="44.63997" lon="2.93311">
        <ele>1202</ele>
        <time>2022-08-05T10:45:22Z</time>
      </trkpt>
      <trkpt lat="44.64006" lon="2.93311">
        <ele>1201.4</ele>
        <time>2022-08-05T10:45:30Z</time>
      </trkpt>
      <trkpt lat="44.6401" lon="2.93311">
        <ele>1200.9</ele>
        <time>2022-08-05T10:45:33Z</time>
      </trkpt>
      <trkpt lat="44.64013" lon="2.93309">
        <ele>1200.2</ele>
        <time>2022-08-05T10:45:36Z</time>
      </trkpt>
      <trkpt lat="44.64015" lon="2.93308">
        <ele>1199.8</ele>
        <time>2022-08-05T10:45:38Z</time>
      </trkpt>
      <trkpt lat="44.6402" lon="2.93307">
        <ele>1199.1</ele>
        <time>2022-08-05T10:45:43Z</time>
      </trkpt>
      <trkpt lat="44.64023" lon="2.93306">
        <ele>1198.6</ele>
        <time>2022-08-05T10:45:45Z</time>
      </trkpt>
      <trkpt lat="44.64028" lon="2.93304">
        <ele>1197.6</ele>
        <time>2022-08-05T10:45:50Z</time>
      </trkpt>
      <trkpt lat="44.64029" lon="2.93304">
        <ele>1197.5</ele>
        <time>2022-08-05T10:45:52Z</time>
      </trkpt>
      <trkpt lat="44.6403" lon="2.93304">
        <ele>1197.3</ele>
        <time>2022-08-05T10:45:53Z</time>
      </trkpt>
      <trkpt lat="44.64035" lon="2.93304">
        <ele>1196.8</ele>
        <time>2022-08-05T10:45:58Z</time>
      </trkpt>
      <trkpt lat="44.64037" lon="2.93305">
        <ele>1196.8</ele>
        <time>2022-08-05T10:46:00Z</time>
      </trkpt>
      <trkpt lat="44.64045" lon="2.93307">
        <ele>1196.4</ele>
        <time>2022-08-05T10:46:07Z</time>
      </trkpt>
      <trkpt lat="44.64048" lon="2.93309">
        <ele>1196.7</ele>
        <time>2022-08-05T10:46:10Z</time>
      </trkpt>
      <trkpt lat="44.64052" lon="2.93309">
        <ele>1196.4</ele>
        <time>2022-08-05T10:46:13Z</time>
      </trkpt>
      <trkpt lat="44.64054" lon="2.93311">
        <ele>1196.5</ele>
        <time>2022-08-05T10:46:17Z</time>
      </trkpt>
      <trkpt lat="44.64057" lon="2.93312">
        <ele>1196.5</ele>
        <time>2022-08-05T10:46:21Z</time>
      </trkpt>
      <trkpt lat="44.64062" lon="2.93315">
        <ele>1196.3</ele>
        <time>2022-08-05T10:46:24Z</time>
      </trkpt>
      <trkpt lat="44.64068" lon="2.93315">
        <ele>1195.2</ele>
        <time>2022-08-05T10:46:29Z</time>
      </trkpt>
      <trkpt lat="44.64069" lon="2.93315">
        <ele>1195.1</ele>
        <time>2022-08-05T10:46:30Z</time>
      </trkpt>
      <trkpt lat="44.64072" lon="2.93314">
        <ele>1194.3</ele>
        <time>2022-08-05T10:46:35Z</time>
      </trkpt>
      <trkpt lat="44.64072" lon="2.93314">
        <ele>1194.3</ele>
        <time>2022-08-05T10:46:37Z</time>
      </trkpt>
      <trkpt lat="44.64072" lon="2.93314">
        <ele>1194.4</ele>
        <time>2022-08-05T10:46:38Z</time>
      </trkpt>
      <trkpt lat="44.64076" lon="2.93315">
        <ele>1193.9</ele>
        <time>2022-08-05T10:46:44Z</time>
      </trkpt>
      <trkpt lat="44.64079" lon="2.93315">
        <ele>1193.6</ele>
        <time>2022-08-05T10:46:46Z</time>
      </trkpt>
      <trkpt lat="44.64082" lon="2.93317">
        <ele>1193.5</ele>
        <time>2022-08-05T10:46:50Z</time>
      </trkpt>
      <trkpt lat="44.64085" lon="2.93318">
        <ele>1193.1</ele>
        <time>2022-08-05T10:46:53Z</time>
      </trkpt>
      <trkpt lat="44.64088" lon="2.93318">
        <ele>1192.6</ele>
        <time>2022-08-05T10:46:57Z</time>
      </trkpt>
      <trkpt lat="44.6409" lon="2.93317">
        <ele>1191.8</ele>
        <time>2022-08-05T10:47:00Z</time>
      </trkpt>
      <trkpt lat="44.64092" lon="2.93316">
        <ele>1191.3</ele>
        <time>2022-08-05T10:47:04Z</time>
      </trkpt>
      <trkpt lat="44.64093" lon="2.93316">
        <ele>1191</ele>
        <time>2022-08-05T10:47:06Z</time>
      </trkpt>
      <trkpt lat="44.64097" lon="2.93314">
        <ele>1189.3</ele>
        <time>2022-08-05T10:47:12Z</time>
      </trkpt>
      <trkpt lat="44.641" lon="2.93317">
        <ele>1189.7</ele>
        <time>2022-08-05T10:47:14Z</time>
      </trkpt>
      <trkpt lat="44.64105" lon="2.93321">
        <ele>1189.8</ele>
        <time>2022-08-05T10:47:19Z</time>
      </trkpt>
      <trkpt lat="44.6411" lon="2.9332">
        <ele>1188.2</ele>
        <time>2022-08-05T10:47:27Z</time>
      </trkpt>
      <trkpt lat="44.64111" lon="2.9332">
        <ele>1188.2</ele>
        <time>2022-08-05T10:47:28Z</time>
      </trkpt>
      <trkpt lat="44.64115" lon="2.93321">
        <ele>1187.3</ele>
        <time>2022-08-05T10:47:33Z</time>
      </trkpt>
      <trkpt lat="44.64117" lon="2.93322">
        <ele>1187.2</ele>
        <time>2022-08-05T10:47:35Z</time>
      </trkpt>
      <trkpt lat="44.6412" lon="2.93324">
        <ele>1186.8</ele>
        <time>2022-08-05T10:47:38Z</time>
      </trkpt>
      <trkpt lat="44.64124" lon="2.93328">
        <ele>1186.8</ele>
        <time>2022-08-05T10:47:43Z</time>
      </trkpt>
      <trkpt lat="44.64125" lon="2.93328">
        <ele>1186.5</ele>
        <time>2022-08-05T10:47:44Z</time>
      </trkpt>
      <trkpt lat="44.64128" lon="2.93327">
        <ele>1185.3</ele>
        <time>2022-08-05T10:47:49Z</time>
      </trkpt>
      <trkpt lat="44.64129" lon="2.93328">
        <ele>1185.5</ele>
        <time>2022-08-05T10:47:52Z</time>
      </trkpt>
      <trkpt lat="44.6413" lon="2.93328">
        <ele>1185.3</ele>
        <time>2022-08-05T10:47:53Z</time>
      </trkpt>
      <trkpt lat="44.64135" lon="2.93334">
        <ele>1185.4</ele>
        <time>2022-08-05T10:47:58Z</time>
      </trkpt>
      <trkpt lat="44.64138" lon="2.93334">
        <ele>1184.6</ele>
        <time>2022-08-05T10:48:00Z</time>
      </trkpt>
      <trkpt lat="44.64138" lon="2.93335">
        <ele>1184.7</ele>
        <time>2022-08-05T10:48:05Z</time>
      </trkpt>
      <trkpt lat="44.64138" lon="2.93336">
        <ele>1185</ele>
        <time>2022-08-05T10:48:07Z</time>
      </trkpt>
      <trkpt lat="44.6414" lon="2.93337">
        <ele>1184.6</ele>
        <time>2022-08-05T10:48:13Z</time>
      </trkpt>
      <trkpt lat="44.6414" lon="2.93337">
        <ele>1184.4</ele>
        <time>2022-08-05T10:48:17Z</time>
      </trkpt>
      <trkpt lat="44.6414" lon="2.93336">
        <ele>1184.4</ele>
        <time>2022-08-05T10:48:19Z</time>
      </trkpt>
      <trkpt lat="44.64141" lon="2.93337">
        <ele>1184.3</ele>
        <time>2022-08-05T10:48:25Z</time>
      </trkpt>
      <trkpt lat="44.64147" lon="2.9334">
        <ele>1182.9</ele>
        <time>2022-08-05T10:48:33Z</time>
      </trkpt>
      <trkpt lat="44.64151" lon="2.93344">
        <ele>1182.5</ele>
        <time>2022-08-05T10:48:37Z</time>
      </trkpt>
      <trkpt lat="44.64155" lon="2.93345">
        <ele>1181.5</ele>
        <time>2022-08-05T10:48:42Z</time>
      </trkpt>
      <trkpt lat="44.64157" lon="2.93347">
        <ele>1181.4</ele>
        <time>2022-08-05T10:48:49Z</time>
      </trkpt>
      <trkpt lat="44.64161" lon="2.93349">
        <ele>1180.3</ele>
        <time>2022-08-05T10:48:55Z</time>
      </trkpt>
      <trkpt lat="44.64162" lon="2.9335">
        <ele>1180.1</ele>
        <time>2022-08-05T10:48:56Z</time>
      </trkpt>
      <trkpt lat="44.64167" lon="2.9335">
        <ele>1178.4</ele>
        <time>2022-08-05T10:49:03Z</time>
      </trkpt>
      <trkpt lat="44.6417" lon="2.93351">
        <ele>1177.5</ele>
        <time>2022-08-05T10:49:08Z</time>
      </trkpt>
      <trkpt lat="44.64171" lon="2.93352">
        <ele>1177.5</ele>
        <time>2022-08-05T10:49:09Z</time>
      </trkpt>
      <trkpt lat="44.64176" lon="2.93357">
        <ele>1176.8</ele>
        <time>2022-08-05T10:49:15Z</time>
      </trkpt>
      <trkpt lat="44.64179" lon="2.93358">
        <ele>1176</ele>
        <time>2022-08-05T10:49:17Z</time>
      </trkpt>
      <trkpt lat="44.64183" lon="2.9336">
        <ele>1174.7</ele>
        <time>2022-08-05T10:49:21Z</time>
      </trkpt>
      <trkpt lat="44.64185" lon="2.9336">
        <ele>1174.2</ele>
        <time>2022-08-05T10:49:23Z</time>
      </trkpt>
      <trkpt lat="44.64186" lon="2.93362">
        <ele>1174.2</ele>
        <time>2022-08-05T10:49:27Z</time>
      </trkpt>
      <trkpt lat="44.64187" lon="2.93362">
        <ele>1173.9</ele>
        <time>2022-08-05T10:49:29Z</time>
      </trkpt>
      <trkpt lat="44.64195" lon="2.93368">
        <ele>1171.8</ele>
        <time>2022-08-05T10:49:38Z</time>
      </trkpt>
      <trkpt lat="44.64196" lon="2.93369">
        <ele>1171.8</ele>
        <time>2022-08-05T10:49:39Z</time>
      </trkpt>
      <trkpt lat="44.64199" lon="2.93372">
        <ele>1170.8</ele>
        <time>2022-08-05T10:49:46Z</time>
      </trkpt>
      <trkpt lat="44.642" lon="2.93371">
        <ele>1170.5</ele>
        <time>2022-08-05T10:49:47Z</time>
      </trkpt>
      <trkpt lat="44.64203" lon="2.93374">
        <ele>1169.4</ele>
        <time>2022-08-05T10:49:52Z</time>
      </trkpt>
      <trkpt lat="44.64204" lon="2.93374">
        <ele>1169.2</ele>
        <time>2022-08-05T10:49:53Z</time>
      </trkpt>
      <trkpt lat="44.64208" lon="2.93372">
        <ele>1167.6</ele>
        <time>2022-08-05T10:49:58Z</time>
      </trkpt>
      <trkpt lat="44.64208" lon="2.93372">
        <ele>1167.4</ele>
        <time>2022-08-05T10:50:00Z</time>
      </trkpt>
      <trkpt lat="44.64208" lon="2.93372">
        <ele>1167.4</ele>
        <time>2022-08-05T10:50:01Z</time>
      </trkpt>
      <trkpt lat="44.6421" lon="2.93372">
        <ele>1166.8</ele>
        <time>2022-08-05T10:50:04Z</time>
      </trkpt>
      <trkpt lat="44.6421" lon="2.93372">
        <ele>1166.5</ele>
        <time>2022-08-05T10:50:06Z</time>
      </trkpt>
      <trkpt lat="44.64211" lon="2.93372">
        <ele>1166.1</ele>
        <time>2022-08-05T10:50:10Z</time>
      </trkpt>
      <trkpt lat="44.64211" lon="2.93371">
        <ele>1165.9</ele>
        <time>2022-08-05T10:50:12Z</time>
      </trkpt>
      <trkpt lat="44.64213" lon="2.93369">
        <ele>1164.9</ele>
        <time>2022-08-05T10:50:15Z</time>
      </trkpt>
      <trkpt lat="44.64214" lon="2.93368">
        <ele>1164.4</ele>
        <time>2022-08-05T10:50:18Z</time>
      </trkpt>
      <trkpt lat="44.64215" lon="2.93366">
        <ele>1163.8</ele>
        <time>2022-08-05T10:50:21Z</time>
      </trkpt>
      <trkpt lat="44.64216" lon="2.93365">
        <ele>1163.1</ele>
        <time>2022-08-05T10:50:26Z</time>
      </trkpt>
      <trkpt lat="44.64217" lon="2.93364">
        <ele>1162.7</ele>
        <time>2022-08-05T10:50:28Z</time>
      </trkpt>
      <trkpt lat="44.6422" lon="2.93364">
        <ele>1161.5</ele>
        <time>2022-08-05T10:50:33Z</time>
      </trkpt>
      <trkpt lat="44.64221" lon="2.93364">
        <ele>1161</ele>
        <time>2022-08-05T10:50:35Z</time>
      </trkpt>
      <trkpt lat="44.64222" lon="2.93363">
        <ele>1160.4</ele>
        <time>2022-08-05T10:50:38Z</time>
      </trkpt>
      <trkpt lat="44.64227" lon="2.93367">
        <ele>1159.5</ele>
        <time>2022-08-05T10:50:43Z</time>
      </trkpt>
      <trkpt lat="44.64228" lon="2.93367">
        <ele>1158.9</ele>
        <time>2022-08-05T10:50:46Z</time>
      </trkpt>
      <trkpt lat="44.64229" lon="2.93367">
        <ele>1158.5</ele>
        <time>2022-08-05T10:50:47Z</time>
      </trkpt>
      <trkpt lat="44.64231" lon="2.93368">
        <ele>1158</ele>
        <time>2022-08-05T10:50:50Z</time>
      </trkpt>
      <trkpt lat="44.64232" lon="2.93369">
        <ele>1157.9</ele>
        <time>2022-08-05T10:50:52Z</time>
      </trkpt>
      <trkpt lat="44.64233" lon="2.9337">
        <ele>1157.8</ele>
        <time>2022-08-05T10:50:54Z</time>
      </trkpt>
      <trkpt lat="44.64235" lon="2.93373">
        <ele>1157.3</ele>
        <time>2022-08-05T10:50:59Z</time>
      </trkpt>
      <trkpt lat="44.64238" lon="2.93369">
        <ele>1155.8</ele>
        <time>2022-08-05T10:51:05Z</time>
      </trkpt>
      <trkpt lat="44.64239" lon="2.93369">
        <ele>1155.3</ele>
        <time>2022-08-05T10:51:07Z</time>
      </trkpt>
      <trkpt lat="44.64242" lon="2.93367">
        <ele>1153.9</ele>
        <time>2022-08-05T10:51:14Z</time>
      </trkpt>
      <trkpt lat="44.64243" lon="2.93367">
        <ele>1153.6</ele>
        <time>2022-08-05T10:51:15Z</time>
      </trkpt>
      <trkpt lat="44.64246" lon="2.9337">
        <ele>1152.8</ele>
        <time>2022-08-05T10:51:22Z</time>
      </trkpt>
      <trkpt lat="44.64246" lon="2.9337">
        <ele>1152.8</ele>
        <time>2022-08-05T10:51:23Z</time>
      </trkpt>
      <trkpt lat="44.64247" lon="2.93372">
        <ele>1152.8</ele>
        <time>2022-08-05T10:51:31Z</time>
      </trkpt>
      <trkpt lat="44.64247" lon="2.93372">
        <ele>1152.6</ele>
        <time>2022-08-05T10:51:44Z</time>
      </trkpt>
      <trkpt lat="44.64249" lon="2.93374">
        <ele>1152.1</ele>
        <time>2022-08-05T10:51:59Z</time>
      </trkpt>
      <trkpt lat="44.6425" lon="2.93375">
        <ele>1151.9</ele>
        <time>2022-08-05T10:52:12Z</time>
      </trkpt>
      <trkpt lat="44.64251" lon="2.93375">
        <ele>1151.8</ele>
        <time>2022-08-05T10:52:13Z</time>
      </trkpt>
      <trkpt lat="44.64252" lon="2.93375">
        <ele>1151.4</ele>
        <time>2022-08-05T10:52:19Z</time>
      </trkpt>
      <trkpt lat="44.64256" lon="2.93376">
        <ele>1150.3</ele>
        <time>2022-08-05T10:52:25Z</time>
      </trkpt>
      <trkpt lat="44.64258" lon="2.93376">
        <ele>1149.7</ele>
        <time>2022-08-05T10:52:27Z</time>
      </trkpt>
      <trkpt lat="44.64261" lon="2.93377">
        <ele>1149</ele>
        <time>2022-08-05T10:52:29Z</time>
      </trkpt>
      <trkpt lat="44.64263" lon="2.93376">
        <ele>1148.3</ele>
        <time>2022-08-05T10:52:31Z</time>
      </trkpt>
      <trkpt lat="44.64265" lon="2.93377">
        <ele>1147.8</ele>
        <time>2022-08-05T10:52:35Z</time>
      </trkpt>
      <trkpt lat="44.64266" lon="2.93377">
        <ele>1147.4</ele>
        <time>2022-08-05T10:52:37Z</time>
      </trkpt>
      <trkpt lat="44.6427" lon="2.93379">
        <ele>1146.5</ele>
        <time>2022-08-05T10:52:42Z</time>
      </trkpt>
      <trkpt lat="44.64274" lon="2.93383">
        <ele>1146</ele>
        <time>2022-08-05T10:52:46Z</time>
      </trkpt>
      <trkpt lat="44.64277" lon="2.93387">
        <ele>1146</ele>
        <time>2022-08-05T10:52:51Z</time>
      </trkpt>
      <trkpt lat="44.64278" lon="2.93389">
        <ele>1146.1</ele>
        <time>2022-08-05T10:52:56Z</time>
      </trkpt>
      <trkpt lat="44.64279" lon="2.93392">
        <ele>1146</ele>
        <time>2022-08-05T10:52:59Z</time>
      </trkpt>
      <trkpt lat="44.64281" lon="2.93393">
        <ele>1145.8</ele>
        <time>2022-08-05T10:53:03Z</time>
      </trkpt>
      <trkpt lat="44.6429" lon="2.93397">
        <ele>1144.2</ele>
        <time>2022-08-05T10:53:10Z</time>
      </trkpt>
      <trkpt lat="44.64291" lon="2.93398">
        <ele>1144.1</ele>
        <time>2022-08-05T10:53:11Z</time>
      </trkpt>
      <trkpt lat="44.64294" lon="2.934">
        <ele>1143.5</ele>
        <time>2022-08-05T10:53:15Z</time>
      </trkpt>
      <trkpt lat="44.64296" lon="2.93402">
        <ele>1143.2</ele>
        <time>2022-08-05T10:53:17Z</time>
      </trkpt>
      <trkpt lat="44.64298" lon="2.93404">
        <ele>1142.8</ele>
        <time>2022-08-05T10:53:19Z</time>
      </trkpt>
      <trkpt lat="44.64302" lon="2.93408">
        <ele>1142.3</ele>
        <time>2022-08-05T10:53:24Z</time>
      </trkpt>
      <trkpt lat="44.64306" lon="2.93409">
        <ele>1141.3</ele>
        <time>2022-08-05T10:53:30Z</time>
      </trkpt>
      <trkpt lat="44.64307" lon="2.93409">
        <ele>1141.3</ele>
        <time>2022-08-05T10:53:31Z</time>
      </trkpt>
      <trkpt lat="44.64309" lon="2.93408">
        <ele>1141</ele>
        <time>2022-08-05T10:53:38Z</time>
      </trkpt>
      <trkpt lat="44.6431" lon="2.93408">
        <ele>1140.7</ele>
        <time>2022-08-05T10:53:44Z</time>
      </trkpt>
      <trkpt lat="44.64307" lon="2.93403">
        <ele>1140.8</ele>
        <time>2022-08-05T10:53:51Z</time>
      </trkpt>
      <trkpt lat="44.64305" lon="2.93398">
        <ele>1140.9</ele>
        <time>2022-08-05T10:53:56Z</time>
      </trkpt>
      <trkpt lat="44.64301" lon="2.934">
        <ele>1141.8</ele>
        <time>2022-08-05T10:54:01Z</time>
      </trkpt>
      <trkpt lat="44.64302" lon="2.93403">
        <ele>1141.8</ele>
        <time>2022-08-05T10:54:06Z</time>
      </trkpt>
      <trkpt lat="44.64309" lon="2.93411">
        <ele>1141.1</ele>
        <time>2022-08-05T10:54:14Z</time>
      </trkpt>
      <trkpt lat="44.64312" lon="2.93414">
        <ele>1140.9</ele>
        <time>2022-08-05T10:54:19Z</time>
      </trkpt>
      <trkpt lat="44.64312" lon="2.93416">
        <ele>1141.1</ele>
        <time>2022-08-05T10:54:23Z</time>
      </trkpt>
      <trkpt lat="44.64315" lon="2.93414">
        <ele>1140.5</ele>
        <time>2022-08-05T10:54:28Z</time>
      </trkpt>
      <trkpt lat="44.64318" lon="2.93412">
        <ele>1140</ele>
        <time>2022-08-05T10:54:36Z</time>
      </trkpt>
      <trkpt lat="44.64313" lon="2.93417">
        <ele>1141</ele>
        <time>2022-08-05T10:54:43Z</time>
      </trkpt>
      <trkpt lat="44.64316" lon="2.9342">
        <ele>1140.8</ele>
        <time>2022-08-05T10:54:48Z</time>
      </trkpt>
      <trkpt lat="44.64316" lon="2.93421">
        <ele>1140.8</ele>
        <time>2022-08-05T10:54:49Z</time>
      </trkpt>
      <trkpt lat="44.64317" lon="2.93422">
        <ele>1140.8</ele>
        <time>2022-08-05T10:54:57Z</time>
      </trkpt>
      <trkpt lat="44.64319" lon="2.93422">
        <ele>1140.4</ele>
        <time>2022-08-05T10:55:06Z</time>
      </trkpt>
      <trkpt lat="44.64321" lon="2.93423">
        <ele>1140.3</ele>
        <time>2022-08-05T10:55:07Z</time>
      </trkpt>
      <trkpt lat="44.64322" lon="2.93423">
        <ele>1140.2</ele>
        <time>2022-08-05T10:55:08Z</time>
      </trkpt>
      <trkpt lat="44.64323" lon="2.93423">
        <ele>1140</ele>
        <time>2022-08-05T10:55:12Z</time>
      </trkpt>
      <trkpt lat="44.64323" lon="2.93424">
        <ele>1140</ele>
        <time>2022-08-05T10:55:13Z</time>
      </trkpt>
      <trkpt lat="44.64322" lon="2.93424">
        <ele>1140.1</ele>
        <time>2022-08-05T10:55:20Z</time>
      </trkpt>
      <trkpt lat="44.64322" lon="2.93424">
        <ele>1140.1</ele>
        <time>2022-08-05T10:55:23Z</time>
      </trkpt>
      <trkpt lat="44.64325" lon="2.93424">
        <ele>1139.7</ele>
        <time>2022-08-05T10:56:12Z</time>
      </trkpt>
      <trkpt lat="44.64323" lon="2.93427">
        <ele>1140.2</ele>
        <time>2022-08-05T10:56:29Z</time>
      </trkpt>
      <trkpt lat="44.64323" lon="2.93426">
        <ele>1140.2</ele>
        <time>2022-08-05T10:56:35Z</time>
      </trkpt>
      <trkpt lat="44.64325" lon="2.93426">
        <ele>1139.9</ele>
        <time>2022-08-05T10:56:42Z</time>
      </trkpt>
      <trkpt lat="44.64329" lon="2.93424">
        <ele>1139.2</ele>
        <time>2022-08-05T10:56:49Z</time>
      </trkpt>
      <trkpt lat="44.6433" lon="2.93425">
        <ele>1139.1</ele>
        <time>2022-08-05T10:56:56Z</time>
      </trkpt>
      <trkpt lat="44.64335" lon="2.93422">
        <ele>1138.5</ele>
        <time>2022-08-05T10:57:02Z</time>
      </trkpt>
      <trkpt lat="44.64341" lon="2.93415">
        <ele>1138.8</ele>
        <time>2022-08-05T10:57:10Z</time>
      </trkpt>
      <trkpt lat="44.64343" lon="2.93409">
        <ele>1138.7</ele>
        <time>2022-08-05T10:57:15Z</time>
      </trkpt>
      <trkpt lat="44.64347" lon="2.93401">
        <ele>1138.9</ele>
        <time>2022-08-05T10:57:22Z</time>
      </trkpt>
      <trkpt lat="44.64347" lon="2.93399">
        <ele>1138.8</ele>
        <time>2022-08-05T10:57:23Z</time>
      </trkpt>
      <trkpt lat="44.64346" lon="2.93397">
        <ele>1138.7</ele>
        <time>2022-08-05T10:57:25Z</time>
      </trkpt>
      <trkpt lat="44.64346" lon="2.93393">
        <ele>1138.5</ele>
        <time>2022-08-05T10:57:28Z</time>
      </trkpt>
      <trkpt lat="44.64346" lon="2.93391">
        <ele>1138.5</ele>
        <time>2022-08-05T10:57:29Z</time>
      </trkpt>
      <trkpt lat="44.64348" lon="2.93387">
        <ele>1138.6</ele>
        <time>2022-08-05T10:57:32Z</time>
      </trkpt>
      <trkpt lat="44.64348" lon="2.93386">
        <ele>1138.6</ele>
        <time>2022-08-05T10:57:33Z</time>
      </trkpt>
      <trkpt lat="44.64349" lon="2.93382">
        <ele>1138.7</ele>
        <time>2022-08-05T10:57:37Z</time>
      </trkpt>
      <trkpt lat="44.64349" lon="2.9338">
        <ele>1138.7</ele>
        <time>2022-08-05T10:57:39Z</time>
      </trkpt>
      <trkpt lat="44.64348" lon="2.93378">
        <ele>1138.7</ele>
        <time>2022-08-05T10:57:41Z</time>
      </trkpt>
      <trkpt lat="44.6435" lon="2.93379">
        <ele>1138.8</ele>
        <time>2022-08-05T10:57:45Z</time>
      </trkpt>
      <trkpt lat="44.64353" lon="2.93386">
        <ele>1139.2</ele>
        <time>2022-08-05T10:57:51Z</time>
      </trkpt>
      <trkpt lat="44.64354" lon="2.93397">
        <ele>1139.6</ele>
        <time>2022-08-05T10:57:58Z</time>
      </trkpt>
      <trkpt lat="44.64355" lon="2.93399">
        <ele>1139.7</ele>
        <time>2022-08-05T10:58:00Z</time>
      </trkpt>
      <trkpt lat="44.64355" lon="2.93399">
        <ele>1139.7</ele>
        <time>2022-08-05T10:58:04Z</time>
      </trkpt>
      <trkpt lat="44.64356" lon="2.93398">
        <ele>1139.8</ele>
        <time>2022-08-05T10:58:10Z</time>
      </trkpt>
      <trkpt lat="44.64358" lon="2.93393">
        <ele>1139.9</ele>
        <time>2022-08-05T10:58:16Z</time>
      </trkpt>
      <trkpt lat="44.64361" lon="2.93384">
        <ele>1140.1</ele>
        <time>2022-08-05T10:58:23Z</time>
      </trkpt>
      <trkpt lat="44.64361" lon="2.93383">
        <ele>1140.2</ele>
        <time>2022-08-05T10:58:24Z</time>
      </trkpt>
      <trkpt lat="44.64367" lon="2.93383">
        <ele>1141.2</ele>
        <time>2022-08-05T10:58:30Z</time>
      </trkpt>
      <trkpt lat="44.64368" lon="2.93384">
        <ele>1141.3</ele>
        <time>2022-08-05T10:58:31Z</time>
      </trkpt>
      <trkpt lat="44.64372" lon="2.93382">
        <ele>1142.1</ele>
        <time>2022-08-05T10:58:37Z</time>
      </trkpt>
      <trkpt lat="44.64373" lon="2.93382">
        <ele>1142.2</ele>
        <time>2022-08-05T10:58:38Z</time>
      </trkpt>
      <trkpt lat="44.64375" lon="2.93381">
        <ele>1142.7</ele>
        <time>2022-08-05T10:58:43Z</time>
      </trkpt>
      <trkpt lat="44.64376" lon="2.93381">
        <ele>1142.8</ele>
        <time>2022-08-05T10:58:44Z</time>
      </trkpt>
      <trkpt lat="44.64379" lon="2.93378">
        <ele>1143.4</ele>
        <time>2022-08-05T10:58:48Z</time>
      </trkpt>
      <trkpt lat="44.64383" lon="2.93378">
        <ele>1144</ele>
        <time>2022-08-05T10:58:53Z</time>
      </trkpt>
      <trkpt lat="44.64385" lon="2.93376">
        <ele>1144.3</ele>
        <time>2022-08-05T10:58:57Z</time>
      </trkpt>
      <trkpt lat="44.64387" lon="2.93377">
        <ele>1144.7</ele>
        <time>2022-08-05T10:59:00Z</time>
      </trkpt>
      <trkpt lat="44.64391" lon="2.9338">
        <ele>1145.3</ele>
        <time>2022-08-05T10:59:03Z</time>
      </trkpt>
      <trkpt lat="44.64396" lon="2.93385">
        <ele>1145.9</ele>
        <time>2022-08-05T10:59:08Z</time>
      </trkpt>
      <trkpt lat="44.64401" lon="2.93388">
        <ele>1146.3</ele>
        <time>2022-08-05T10:59:12Z</time>
      </trkpt>
      <trkpt lat="44.64405" lon="2.93389">
        <ele>1146.7</ele>
        <time>2022-08-05T10:59:15Z</time>
      </trkpt>
      <trkpt lat="44.64408" lon="2.9339">
        <ele>1147</ele>
        <time>2022-08-05T10:59:18Z</time>
      </trkpt>
      <trkpt lat="44.64415" lon="2.9339">
        <ele>1147.8</ele>
        <time>2022-08-05T10:59:24Z</time>
      </trkpt>
      <trkpt lat="44.64415" lon="2.93391">
        <ele>1147.8</ele>
        <time>2022-08-05T10:59:25Z</time>
      </trkpt>
      <trkpt lat="44.64415" lon="2.9339">
        <ele>1147.9</ele>
        <time>2022-08-05T10:59:26Z</time>
      </trkpt>
      <trkpt lat="44.64415" lon="2.9339">
        <ele>1147.8</ele>
        <time>2022-08-05T10:59:29Z</time>
      </trkpt>
      <trkpt lat="44.64416" lon="2.9339">
        <ele>1148</ele>
        <time>2022-08-05T10:59:31Z</time>
      </trkpt>
      <trkpt lat="44.64418" lon="2.93389">
        <ele>1148.2</ele>
        <time>2022-08-05T10:59:33Z</time>
      </trkpt>
      <trkpt lat="44.64418" lon="2.93388">
        <ele>1148.3</ele>
        <time>2022-08-05T10:59:36Z</time>
      </trkpt>
      <trkpt lat="44.64422" lon="2.93389">
        <ele>1149</ele>
        <time>2022-08-05T10:59:42Z</time>
      </trkpt>
      <trkpt lat="44.64429" lon="2.93386">
        <ele>1150.3</ele>
        <time>2022-08-05T10:59:49Z</time>
      </trkpt>
      <trkpt lat="44.6443" lon="2.93387">
        <ele>1150.4</ele>
        <time>2022-08-05T10:59:50Z</time>
      </trkpt>
      <trkpt lat="44.64434" lon="2.93385">
        <ele>1151.1</ele>
        <time>2022-08-05T10:59:56Z</time>
      </trkpt>
      <trkpt lat="44.64435" lon="2.93385">
        <ele>1151.3</ele>
        <time>2022-08-05T10:59:58Z</time>
      </trkpt>
      <trkpt lat="44.64438" lon="2.93384">
        <ele>1151.9</ele>
        <time>2022-08-05T11:00:03Z</time>
      </trkpt>
      <trkpt lat="44.6444" lon="2.93383">
        <ele>1152.2</ele>
        <time>2022-08-05T11:00:06Z</time>
      </trkpt>
      <trkpt lat="44.64442" lon="2.93383">
        <ele>1152.5</ele>
        <time>2022-08-05T11:00:11Z</time>
      </trkpt>
      <trkpt lat="44.64443" lon="2.93383">
        <ele>1152.8</ele>
        <time>2022-08-05T11:00:14Z</time>
      </trkpt>
      <trkpt lat="44.64444" lon="2.93382">
        <ele>1153</ele>
        <time>2022-08-05T11:00:22Z</time>
      </trkpt>
      <trkpt lat="44.64444" lon="2.93388">
        <ele>1152.9</ele>
        <time>2022-08-05T11:00:33Z</time>
      </trkpt>
      <trkpt lat="44.64445" lon="2.93389">
        <ele>1153</ele>
        <time>2022-08-05T11:00:42Z</time>
      </trkpt>
      <trkpt lat="44.64445" lon="2.93394">
        <ele>1152.8</ele>
        <time>2022-08-05T11:01:05Z</time>
      </trkpt>
      <trkpt lat="44.64431" lon="2.93396">
        <ele>1150.5</ele>
        <time>2022-08-05T11:02:33Z</time>
      </trkpt>
      <trkpt lat="44.64429" lon="2.93395">
        <ele>1150.1</ele>
        <time>2022-08-05T11:02:35Z</time>
      </trkpt>
      <trkpt lat="44.64424" lon="2.93388">
        <ele>1149.3</ele>
        <time>2022-08-05T11:02:40Z</time>
      </trkpt>
      <trkpt lat="44.6442" lon="2.9338">
        <ele>1148.8</ele>
        <time>2022-08-05T11:02:45Z</time>
      </trkpt>
      <trkpt lat="44.64419" lon="2.93379">
        <ele>1148.7</ele>
        <time>2022-08-05T11:02:46Z</time>
      </trkpt>
      <trkpt lat="44.64416" lon="2.93375">
        <ele>1148.5</ele>
        <time>2022-08-05T11:02:49Z</time>
      </trkpt>
      <trkpt lat="44.64414" lon="2.93374">
        <ele>1148.2</ele>
        <time>2022-08-05T11:02:51Z</time>
      </trkpt>
      <trkpt lat="44.6441" lon="2.93375">
        <ele>1147.7</ele>
        <time>2022-08-05T11:02:55Z</time>
      </trkpt>
      <trkpt lat="44.64403" lon="2.93375">
        <ele>1146.8</ele>
        <time>2022-08-05T11:03:02Z</time>
      </trkpt>
      <trkpt lat="44.64402" lon="2.93374">
        <ele>1146.7</ele>
        <time>2022-08-05T11:03:03Z</time>
      </trkpt>
      <trkpt lat="44.64401" lon="2.93369">
        <ele>1146.6</ele>
        <time>2022-08-05T11:03:09Z</time>
      </trkpt>
      <trkpt lat="44.64401" lon="2.93367">
        <ele>1146.6</ele>
        <time>2022-08-05T11:03:11Z</time>
      </trkpt>
      <trkpt lat="44.64402" lon="2.93364">
        <ele>1146.8</ele>
        <time>2022-08-05T11:03:14Z</time>
      </trkpt>
      <trkpt lat="44.64402" lon="2.93363">
        <ele>1146.9</ele>
        <time>2022-08-05T11:03:15Z</time>
      </trkpt>
      <trkpt lat="44.64405" lon="2.9336">
        <ele>1147.4</ele>
        <time>2022-08-05T11:03:21Z</time>
      </trkpt>
      <trkpt lat="44.64408" lon="2.93358">
        <ele>1147.8</ele>
        <time>2022-08-05T11:03:31Z</time>
      </trkpt>
      <trkpt lat="44.64407" lon="2.93354">
        <ele>1147.9</ele>
        <time>2022-08-05T11:03:37Z</time>
      </trkpt>
      <trkpt lat="44.64405" lon="2.93351">
        <ele>1147.7</ele>
        <time>2022-08-05T11:03:42Z</time>
      </trkpt>
      <trkpt lat="44.64404" lon="2.93346">
        <ele>1147.7</ele>
        <time>2022-08-05T11:03:49Z</time>
      </trkpt>
      <trkpt lat="44.64404" lon="2.93347">
        <ele>1147.7</ele>
        <time>2022-08-05T11:03:55Z</time>
      </trkpt>
      <trkpt lat="44.64405" lon="2.93346">
        <ele>1147.8</ele>
        <time>2022-08-05T11:04:05Z</time>
      </trkpt>
      <trkpt lat="44.64405" lon="2.93346">
        <ele>1147.8</ele>
        <time>2022-08-05T11:04:11Z</time>
      </trkpt>
      <trkpt lat="44.64406" lon="2.9335">
        <ele>1147.8</ele>
        <time>2022-08-05T11:04:16Z</time>
      </trkpt>
      <trkpt lat="44.64405" lon="2.93351">
        <ele>1147.7</ele>
        <time>2022-08-05T11:04:17Z</time>
      </trkpt>
      <trkpt lat="44.64404" lon="2.93352">
        <ele>1147.5</ele>
        <time>2022-08-05T11:04:19Z</time>
      </trkpt>
      <trkpt lat="44.64404" lon="2.93355">
        <ele>1147.4</ele>
        <time>2022-08-05T11:04:23Z</time>
      </trkpt>
      <trkpt lat="44.64406" lon="2.93351">
        <ele>1147.9</ele>
        <time>2022-08-05T11:04:29Z</time>
      </trkpt>
      <trkpt lat="44.64406" lon="2.93348">
        <ele>1147.9</ele>
        <time>2022-08-05T11:04:31Z</time>
      </trkpt>
      <trkpt lat="44.64405" lon="2.93349">
        <ele>1147.7</ele>
        <time>2022-08-05T11:04:34Z</time>
      </trkpt>
      <trkpt lat="44.64407" lon="2.93354">
        <ele>1147.8</ele>
        <time>2022-08-05T11:04:40Z</time>
      </trkpt>
      <trkpt lat="44.64406" lon="2.93357">
        <ele>1147.6</ele>
        <time>2022-08-05T11:04:46Z</time>
      </trkpt>
      <trkpt lat="44.64399" lon="2.93354">
        <ele>1146.7</ele>
        <time>2022-08-05T11:04:52Z</time>
      </trkpt>
      <trkpt lat="44.6439" lon="2.93352">
        <ele>1145.5</ele>
        <time>2022-08-05T11:04:59Z</time>
      </trkpt>
      <trkpt lat="44.64385" lon="2.93349">
        <ele>1144.9</ele>
        <time>2022-08-05T11:05:04Z</time>
      </trkpt>
      <trkpt lat="44.64384" lon="2.93347">
        <ele>1144.7</ele>
        <time>2022-08-05T11:05:05Z</time>
      </trkpt>
      <trkpt lat="44.64378" lon="2.93343">
        <ele>1143.9</ele>
        <time>2022-08-05T11:05:08Z</time>
      </trkpt>
      <trkpt lat="44.6437" lon="2.93332">
        <ele>1142.7</ele>
        <time>2022-08-05T11:05:14Z</time>
      </trkpt>
      <trkpt lat="44.64369" lon="2.9333">
        <ele>1142.6</ele>
        <time>2022-08-05T11:05:15Z</time>
      </trkpt>
      <trkpt lat="44.64364" lon="2.93319">
        <ele>1142</ele>
        <time>2022-08-05T11:05:22Z</time>
      </trkpt>
      <trkpt lat="44.64363" lon="2.93317">
        <ele>1142</ele>
        <time>2022-08-05T11:05:23Z</time>
      </trkpt>
      <trkpt lat="44.64362" lon="2.93313">
        <ele>1141.9</ele>
        <time>2022-08-05T11:05:25Z</time>
      </trkpt>
      <trkpt lat="44.64359" lon="2.93298">
        <ele>1141.5</ele>
        <time>2022-08-05T11:05:33Z</time>
      </trkpt>
      <trkpt lat="44.64358" lon="2.93295">
        <ele>1141.4</ele>
        <time>2022-08-05T11:05:35Z</time>
      </trkpt>
      <trkpt lat="44.64355" lon="2.93281">
        <ele>1140.7</ele>
        <time>2022-08-05T11:05:43Z</time>
      </trkpt>
      <trkpt lat="44.64355" lon="2.93279">
        <ele>1140.7</ele>
        <time>2022-08-05T11:05:44Z</time>
      </trkpt>
      <trkpt lat="44.64352" lon="2.93261">
        <ele>1140.8</ele>
        <time>2022-08-05T11:05:54Z</time>
      </trkpt>
      <trkpt lat="44.64351" lon="2.93259">
        <ele>1140.8</ele>
        <time>2022-08-05T11:05:55Z</time>
      </trkpt>
      <trkpt lat="44.64347" lon="2.93246">
        <ele>1140.3</ele>
        <time>2022-08-05T11:06:04Z</time>
      </trkpt>
      <trkpt lat="44.64347" lon="2.93244">
        <ele>1140.3</ele>
        <time>2022-08-05T11:06:05Z</time>
      </trkpt>
      <trkpt lat="44.64346" lon="2.93235">
        <ele>1140.4</ele>
        <time>2022-08-05T11:06:13Z</time>
      </trkpt>
      <trkpt lat="44.64345" lon="2.93235">
        <ele>1140.3</ele>
        <time>2022-08-05T11:06:14Z</time>
      </trkpt>
      <trkpt lat="44.64344" lon="2.93239">
        <ele>1139.7</ele>
        <time>2022-08-05T11:06:19Z</time>
      </trkpt>
      <trkpt lat="44.64344" lon="2.93241">
        <ele>1139.5</ele>
        <time>2022-08-05T11:06:34Z</time>
      </trkpt>
      <trkpt lat="44.64342" lon="2.93233">
        <ele>1139.3</ele>
        <time>2022-08-05T11:06:41Z</time>
      </trkpt>
      <trkpt lat="44.64338" lon="2.93219">
        <ele>1138.8</ele>
        <time>2022-08-05T11:06:49Z</time>
      </trkpt>
      <trkpt lat="44.64336" lon="2.93217">
        <ele>1138.3</ele>
        <time>2022-08-05T11:06:51Z</time>
      </trkpt>
      <trkpt lat="44.64331" lon="2.93211">
        <ele>1136.9</ele>
        <time>2022-08-05T11:06:57Z</time>
      </trkpt>
      <trkpt lat="44.64329" lon="2.93207">
        <ele>1136.4</ele>
        <time>2022-08-05T11:07:00Z</time>
      </trkpt>
      <trkpt lat="44.64324" lon="2.932">
        <ele>1134.6</ele>
        <time>2022-08-05T11:07:06Z</time>
      </trkpt>
      <trkpt lat="44.64324" lon="2.93199">
        <ele>1134.8</ele>
        <time>2022-08-05T11:07:07Z</time>
      </trkpt>
      <trkpt lat="44.64325" lon="2.93196">
        <ele>1135.1</ele>
        <time>2022-08-05T11:07:09Z</time>
      </trkpt>
      <trkpt lat="44.64325" lon="2.93194">
        <ele>1135.4</ele>
        <time>2022-08-05T11:07:12Z</time>
      </trkpt>
      <trkpt lat="44.64324" lon="2.93192">
        <ele>1135.1</ele>
        <time>2022-08-05T11:07:14Z</time>
      </trkpt>
      <trkpt lat="44.64321" lon="2.9319">
        <ele>1134</ele>
        <time>2022-08-05T11:07:21Z</time>
      </trkpt>
      <trkpt lat="44.64317" lon="2.93183">
        <ele>1132.7</ele>
        <time>2022-08-05T11:07:29Z</time>
      </trkpt>
      <trkpt lat="44.64314" lon="2.93177">
        <ele>1131.3</ele>
        <time>2022-08-05T11:07:34Z</time>
      </trkpt>
      <trkpt lat="44.64311" lon="2.93173">
        <ele>1130.3</ele>
        <time>2022-08-05T11:07:37Z</time>
      </trkpt>
      <trkpt lat="44.6431" lon="2.93171">
        <ele>1129.7</ele>
        <time>2022-08-05T11:07:40Z</time>
      </trkpt>
      <trkpt lat="44.64308" lon="2.93168">
        <ele>1129.3</ele>
        <time>2022-08-05T11:07:43Z</time>
      </trkpt>
      <trkpt lat="44.64308" lon="2.93166">
        <ele>1129</ele>
        <time>2022-08-05T11:07:44Z</time>
      </trkpt>
      <trkpt lat="44.64303" lon="2.93158">
        <ele>1127.4</ele>
        <time>2022-08-05T11:07:52Z</time>
      </trkpt>
      <trkpt lat="44.64303" lon="2.93156">
        <ele>1127.5</ele>
        <time>2022-08-05T11:07:53Z</time>
      </trkpt>
      <trkpt lat="44.64301" lon="2.93147">
        <ele>1127.3</ele>
        <time>2022-08-05T11:07:58Z</time>
      </trkpt>
      <trkpt lat="44.643" lon="2.9314">
        <ele>1127.3</ele>
        <time>2022-08-05T11:08:02Z</time>
      </trkpt>
      <trkpt lat="44.643" lon="2.93136">
        <ele>1127.4</ele>
        <time>2022-08-05T11:08:05Z</time>
      </trkpt>
      <trkpt lat="44.64299" lon="2.93129">
        <ele>1127.6</ele>
        <time>2022-08-05T11:08:09Z</time>
      </trkpt>
      <trkpt lat="44.64298" lon="2.93128">
        <ele>1127.3</ele>
        <time>2022-08-05T11:08:10Z</time>
      </trkpt>
      <trkpt lat="44.64297" lon="2.93124">
        <ele>1127.2</ele>
        <time>2022-08-05T11:08:12Z</time>
      </trkpt>
      <trkpt lat="44.64297" lon="2.93118">
        <ele>1127.7</ele>
        <time>2022-08-05T11:08:16Z</time>
      </trkpt>
      <trkpt lat="44.64296" lon="2.93107">
        <ele>1128</ele>
        <time>2022-08-05T11:08:26Z</time>
      </trkpt>
      <trkpt lat="44.64296" lon="2.93107">
        <ele>1128.2</ele>
        <time>2022-08-05T11:08:27Z</time>
      </trkpt>
      <trkpt lat="44.64296" lon="2.93106">
        <ele>1128.4</ele>
        <time>2022-08-05T11:08:28Z</time>
      </trkpt>
      <trkpt lat="44.64295" lon="2.93102">
        <ele>1128.5</ele>
        <time>2022-08-05T11:08:32Z</time>
      </trkpt>
      <trkpt lat="44.64295" lon="2.9309">
        <ele>1129.6</ele>
        <time>2022-08-05T11:08:38Z</time>
      </trkpt>
      <trkpt lat="44.64296" lon="2.93089">
        <ele>1130.1</ele>
        <time>2022-08-05T11:08:39Z</time>
      </trkpt>
      <trkpt lat="44.64295" lon="2.93078">
        <ele>1130.9</ele>
        <time>2022-08-05T11:08:44Z</time>
      </trkpt>
      <trkpt lat="44.64293" lon="2.93075">
        <ele>1130.3</ele>
        <time>2022-08-05T11:08:46Z</time>
      </trkpt>
      <trkpt lat="44.64291" lon="2.93063">
        <ele>1130.4</ele>
        <time>2022-08-05T11:08:53Z</time>
      </trkpt>
      <trkpt lat="44.6429" lon="2.93057">
        <ele>1130.1</ele>
        <time>2022-08-05T11:08:56Z</time>
      </trkpt>
      <trkpt lat="44.64287" lon="2.9305">
        <ele>1129.8</ele>
        <time>2022-08-05T11:09:01Z</time>
      </trkpt>
      <trkpt lat="44.64283" lon="2.93041">
        <ele>1128.5</ele>
        <time>2022-08-05T11:09:08Z</time>
      </trkpt>
      <trkpt lat="44.64282" lon="2.9304">
        <ele>1128.6</ele>
        <time>2022-08-05T11:09:09Z</time>
      </trkpt>
      <trkpt lat="44.6428" lon="2.93034">
        <ele>1128.4</ele>
        <time>2022-08-05T11:09:13Z</time>
      </trkpt>
      <trkpt lat="44.6428" lon="2.93033">
        <ele>1128.2</ele>
        <time>2022-08-05T11:09:14Z</time>
      </trkpt>
      <trkpt lat="44.64274" lon="2.93024">
        <ele>1126.5</ele>
        <time>2022-08-05T11:09:22Z</time>
      </trkpt>
      <trkpt lat="44.64273" lon="2.93022">
        <ele>1126.6</ele>
        <time>2022-08-05T11:09:23Z</time>
      </trkpt>
      <trkpt lat="44.64273" lon="2.93019">
        <ele>1126.9</ele>
        <time>2022-08-05T11:09:25Z</time>
      </trkpt>
      <trkpt lat="44.64272" lon="2.93016">
        <ele>1126.6</ele>
        <time>2022-08-05T11:09:28Z</time>
      </trkpt>
      <trkpt lat="44.6427" lon="2.93012">
        <ele>1126.4</ele>
        <time>2022-08-05T11:09:31Z</time>
      </trkpt>
      <trkpt lat="44.6427" lon="2.93011">
        <ele>1126.5</ele>
        <time>2022-08-05T11:09:32Z</time>
      </trkpt>
      <trkpt lat="44.64269" lon="2.93008">
        <ele>1126.2</ele>
        <time>2022-08-05T11:09:34Z</time>
      </trkpt>
      <trkpt lat="44.64268" lon="2.93008">
        <ele>1126.1</ele>
        <time>2022-08-05T11:09:36Z</time>
      </trkpt>
      <trkpt lat="44.64265" lon="2.93004">
        <ele>1125.1</ele>
        <time>2022-08-05T11:09:40Z</time>
      </trkpt>
      <trkpt lat="44.64262" lon="2.92999">
        <ele>1124.1</ele>
        <time>2022-08-05T11:09:44Z</time>
      </trkpt>
      <trkpt lat="44.64258" lon="2.92994">
        <ele>1123.4</ele>
        <time>2022-08-05T11:09:50Z</time>
      </trkpt>
      <trkpt lat="44.64258" lon="2.92994">
        <ele>1123.1</ele>
        <time>2022-08-05T11:09:52Z</time>
      </trkpt>
      <trkpt lat="44.64256" lon="2.9299">
        <ele>1122.9</ele>
        <time>2022-08-05T11:09:59Z</time>
      </trkpt>
      <trkpt lat="44.64254" lon="2.92987">
        <ele>1122.4</ele>
        <time>2022-08-05T11:10:02Z</time>
      </trkpt>
      <trkpt lat="44.6425" lon="2.92981">
        <ele>1121.7</ele>
        <time>2022-08-05T11:10:07Z</time>
      </trkpt>
      <trkpt lat="44.64247" lon="2.92976">
        <ele>1121.1</ele>
        <time>2022-08-05T11:10:10Z</time>
      </trkpt>
      <trkpt lat="44.64242" lon="2.92968">
        <ele>1120.1</ele>
        <time>2022-08-05T11:10:16Z</time>
      </trkpt>
      <trkpt lat="44.64241" lon="2.92965">
        <ele>1120.1</ele>
        <time>2022-08-05T11:10:18Z</time>
      </trkpt>
      <trkpt lat="44.64235" lon="2.92956">
        <ele>1119</ele>
        <time>2022-08-05T11:10:24Z</time>
      </trkpt>
      <trkpt lat="44.64234" lon="2.92954">
        <ele>1118.8</ele>
        <time>2022-08-05T11:10:26Z</time>
      </trkpt>
      <trkpt lat="44.64229" lon="2.92944">
        <ele>1117.7</ele>
        <time>2022-08-05T11:10:33Z</time>
      </trkpt>
      <trkpt lat="44.64228" lon="2.92942">
        <ele>1117.7</ele>
        <time>2022-08-05T11:10:34Z</time>
      </trkpt>
      <trkpt lat="44.64225" lon="2.92932">
        <ele>1117.6</ele>
        <time>2022-08-05T11:10:41Z</time>
      </trkpt>
      <trkpt lat="44.64223" lon="2.92929">
        <ele>1117.3</ele>
        <time>2022-08-05T11:10:44Z</time>
      </trkpt>
      <trkpt lat="44.64222" lon="2.92928">
        <ele>1117.1</ele>
        <time>2022-08-05T11:10:46Z</time>
      </trkpt>
      <trkpt lat="44.64222" lon="2.92924">
        <ele>1117.5</ele>
        <time>2022-08-05T11:10:49Z</time>
      </trkpt>
      <trkpt lat="44.64221" lon="2.92919">
        <ele>1118</ele>
        <time>2022-08-05T11:10:52Z</time>
      </trkpt>
      <trkpt lat="44.6422" lon="2.92911">
        <ele>1119.2</ele>
        <time>2022-08-05T11:10:57Z</time>
      </trkpt>
      <trkpt lat="44.6422" lon="2.92911">
        <ele>1119.5</ele>
        <time>2022-08-05T11:10:59Z</time>
      </trkpt>
      <trkpt lat="44.6422" lon="2.92909">
        <ele>1119.7</ele>
        <time>2022-08-05T11:11:01Z</time>
      </trkpt>
      <trkpt lat="44.6422" lon="2.92909">
        <ele>1119.5</ele>
        <time>2022-08-05T11:11:02Z</time>
      </trkpt>
      <trkpt lat="44.64218" lon="2.92904">
        <ele>1119.9</ele>
        <time>2022-08-05T11:11:05Z</time>
      </trkpt>
      <trkpt lat="44.64218" lon="2.92897">
        <ele>1121.5</ele>
        <time>2022-08-05T11:11:10Z</time>
      </trkpt>
      <trkpt lat="44.64216" lon="2.92892">
        <ele>1120.9</ele>
        <time>2022-08-05T11:11:13Z</time>
      </trkpt>
      <trkpt lat="44.64213" lon="2.92885">
        <ele>1120.7</ele>
        <time>2022-08-05T11:11:18Z</time>
      </trkpt>
      <trkpt lat="44.64212" lon="2.92884">
        <ele>1120.6</ele>
        <time>2022-08-05T11:11:19Z</time>
      </trkpt>
      <trkpt lat="44.64208" lon="2.9287">
        <ele>1121.3</ele>
        <time>2022-08-05T11:11:28Z</time>
      </trkpt>
      <trkpt lat="44.64207" lon="2.92864">
        <ele>1121.8</ele>
        <time>2022-08-05T11:11:32Z</time>
      </trkpt>
      <trkpt lat="44.64206" lon="2.92862">
        <ele>1121.5</ele>
        <time>2022-08-05T11:11:34Z</time>
      </trkpt>
      <trkpt lat="44.64202" lon="2.92851">
        <ele>1120.9</ele>
        <time>2022-08-05T11:11:41Z</time>
      </trkpt>
      <trkpt lat="44.64201" lon="2.92845">
        <ele>1121.2</ele>
        <time>2022-08-05T11:11:45Z</time>
      </trkpt>
      <trkpt lat="44.64198" lon="2.92838">
        <ele>1120.6</ele>
        <time>2022-08-05T11:11:50Z</time>
      </trkpt>
      <trkpt lat="44.64196" lon="2.92831">
        <ele>1120.3</ele>
        <time>2022-08-05T11:11:54Z</time>
      </trkpt>
      <trkpt lat="44.64193" lon="2.92828">
        <ele>1119.5</ele>
        <time>2022-08-05T11:11:57Z</time>
      </trkpt>
      <trkpt lat="44.64191" lon="2.92821">
        <ele>1118.6</ele>
        <time>2022-08-05T11:12:02Z</time>
      </trkpt>
      <trkpt lat="44.64183" lon="2.92816">
        <ele>1113.9</ele>
        <time>2022-08-05T11:12:09Z</time>
      </trkpt>
      <trkpt lat="44.64183" lon="2.92816">
        <ele>1113.3</ele>
        <time>2022-08-05T11:12:10Z</time>
      </trkpt>
      <trkpt lat="44.64178" lon="2.9281">
        <ele>1110.8</ele>
        <time>2022-08-05T11:12:16Z</time>
      </trkpt>
      <trkpt lat="44.64177" lon="2.92809">
        <ele>1109.8</ele>
        <time>2022-08-05T11:12:17Z</time>
      </trkpt>
      <trkpt lat="44.64173" lon="2.928">
        <ele>1108.2</ele>
        <time>2022-08-05T11:12:23Z</time>
      </trkpt>
      <trkpt lat="44.6417" lon="2.92795">
        <ele>1106.6</ele>
        <time>2022-08-05T11:12:27Z</time>
      </trkpt>
      <trkpt lat="44.64165" lon="2.92784">
        <ele>1104.1</ele>
        <time>2022-08-05T11:12:35Z</time>
      </trkpt>
      <trkpt lat="44.64164" lon="2.92772">
        <ele>1105.4</ele>
        <time>2022-08-05T11:12:42Z</time>
      </trkpt>
      <trkpt lat="44.64165" lon="2.92769">
        <ele>1105.9</ele>
        <time>2022-08-05T11:12:43Z</time>
      </trkpt>
      <trkpt lat="44.64164" lon="2.92768">
        <ele>1105.9</ele>
        <time>2022-08-05T11:12:44Z</time>
      </trkpt>
      <trkpt lat="44.64163" lon="2.92759">
        <ele>1106.1</ele>
        <time>2022-08-05T11:12:49Z</time>
      </trkpt>
      <trkpt lat="44.64162" lon="2.92755">
        <ele>1106</ele>
        <time>2022-08-05T11:12:51Z</time>
      </trkpt>
      <trkpt lat="44.6416" lon="2.92746">
        <ele>1105.7</ele>
        <time>2022-08-05T11:12:56Z</time>
      </trkpt>
      <trkpt lat="44.64156" lon="2.92738">
        <ele>1104</ele>
        <time>2022-08-05T11:13:01Z</time>
      </trkpt>
      <trkpt lat="44.64155" lon="2.92734">
        <ele>1103.8</ele>
        <time>2022-08-05T11:13:03Z</time>
      </trkpt>
      <trkpt lat="44.64154" lon="2.92731">
        <ele>1103.3</ele>
        <time>2022-08-05T11:13:05Z</time>
      </trkpt>
      <trkpt lat="44.6415" lon="2.9272">
        <ele>1101.1</ele>
        <time>2022-08-05T11:13:12Z</time>
      </trkpt>
      <trkpt lat="44.6415" lon="2.92719">
        <ele>1101.1</ele>
        <time>2022-08-05T11:13:13Z</time>
      </trkpt>
      <trkpt lat="44.64149" lon="2.92716">
        <ele>1100.9</ele>
        <time>2022-08-05T11:13:15Z</time>
      </trkpt>
      <trkpt lat="44.64148" lon="2.92712">
        <ele>1099.8</ele>
        <time>2022-08-05T11:13:17Z</time>
      </trkpt>
      <trkpt lat="44.64145" lon="2.92699">
        <ele>1098.2</ele>
        <time>2022-08-05T11:13:25Z</time>
      </trkpt>
      <trkpt lat="44.64145" lon="2.92696">
        <ele>1098.2</ele>
        <time>2022-08-05T11:13:27Z</time>
      </trkpt>
      <trkpt lat="44.64144" lon="2.92684">
        <ele>1097.3</ele>
        <time>2022-08-05T11:13:34Z</time>
      </trkpt>
      <trkpt lat="44.64145" lon="2.9268">
        <ele>1098.1</ele>
        <time>2022-08-05T11:13:37Z</time>
      </trkpt>
      <trkpt lat="44.64145" lon="2.92674">
        <ele>1098</ele>
        <time>2022-08-05T11:13:41Z</time>
      </trkpt>
      <trkpt lat="44.64145" lon="2.92672">
        <ele>1097.8</ele>
        <time>2022-08-05T11:13:42Z</time>
      </trkpt>
      <trkpt lat="44.64144" lon="2.92666">
        <ele>1097</ele>
        <time>2022-08-05T11:13:45Z</time>
      </trkpt>
      <trkpt lat="44.64144" lon="2.92662">
        <ele>1096.9</ele>
        <time>2022-08-05T11:13:47Z</time>
      </trkpt>
      <trkpt lat="44.64143" lon="2.92647">
        <ele>1095.9</ele>
        <time>2022-08-05T11:13:55Z</time>
      </trkpt>
      <trkpt lat="44.64142" lon="2.92646">
        <ele>1095.4</ele>
        <time>2022-08-05T11:13:56Z</time>
      </trkpt>
      <trkpt lat="44.64142" lon="2.9264">
        <ele>1094.7</ele>
        <time>2022-08-05T11:14:00Z</time>
      </trkpt>
      <trkpt lat="44.64142" lon="2.92638">
        <ele>1094.9</ele>
        <time>2022-08-05T11:14:01Z</time>
      </trkpt>
      <trkpt lat="44.64144" lon="2.92635">
        <ele>1095.8</ele>
        <time>2022-08-05T11:14:03Z</time>
      </trkpt>
      <trkpt lat="44.64144" lon="2.92633">
        <ele>1095.6</ele>
        <time>2022-08-05T11:14:05Z</time>
      </trkpt>
      <trkpt lat="44.64145" lon="2.92627">
        <ele>1096.2</ele>
        <time>2022-08-05T11:14:08Z</time>
      </trkpt>
      <trkpt lat="44.64145" lon="2.92614">
        <ele>1095.5</ele>
        <time>2022-08-05T11:14:15Z</time>
      </trkpt>
      <trkpt lat="44.64146" lon="2.92598">
        <ele>1093.9</ele>
        <time>2022-08-05T11:14:24Z</time>
      </trkpt>
      <trkpt lat="44.64147" lon="2.92595">
        <ele>1093.6</ele>
        <time>2022-08-05T11:14:25Z</time>
      </trkpt>
      <trkpt lat="44.64148" lon="2.9259">
        <ele>1093.4</ele>
        <time>2022-08-05T11:14:28Z</time>
      </trkpt>
      <trkpt lat="44.64148" lon="2.92585">
        <ele>1092.6</ele>
        <time>2022-08-05T11:14:31Z</time>
      </trkpt>
      <trkpt lat="44.64148" lon="2.92584">
        <ele>1092.5</ele>
        <time>2022-08-05T11:14:32Z</time>
      </trkpt>
      <trkpt lat="44.64149" lon="2.92582">
        <ele>1092.5</ele>
        <time>2022-08-05T11:14:33Z</time>
      </trkpt>
      <trkpt lat="44.64152" lon="2.9258">
        <ele>1093.4</ele>
        <time>2022-08-05T11:14:35Z</time>
      </trkpt>
      <trkpt lat="44.64151" lon="2.92577">
        <ele>1092.7</ele>
        <time>2022-08-05T11:14:36Z</time>
      </trkpt>
      <trkpt lat="44.64151" lon="2.92575">
        <ele>1092.3</ele>
        <time>2022-08-05T11:14:37Z</time>
      </trkpt>
      <trkpt lat="44.64152" lon="2.92574">
        <ele>1092.2</ele>
        <time>2022-08-05T11:14:38Z</time>
      </trkpt>
      <trkpt lat="44.64155" lon="2.92566">
        <ele>1092.5</ele>
        <time>2022-08-05T11:14:42Z</time>
      </trkpt>
      <trkpt lat="44.64155" lon="2.92564">
        <ele>1092.1</ele>
        <time>2022-08-05T11:14:45Z</time>
      </trkpt>
      <trkpt lat="44.64155" lon="2.92564">
        <ele>1091.7</ele>
        <time>2022-08-05T11:14:47Z</time>
      </trkpt>
      <trkpt lat="44.64154" lon="2.9256">
        <ele>1090.7</ele>
        <time>2022-08-05T11:14:50Z</time>
      </trkpt>
      <trkpt lat="44.64153" lon="2.92558">
        <ele>1090.1</ele>
        <time>2022-08-05T11:14:53Z</time>
      </trkpt>
      <trkpt lat="44.64154" lon="2.92552">
        <ele>1089.4</ele>
        <time>2022-08-05T11:14:58Z</time>
      </trkpt>
      <trkpt lat="44.64154" lon="2.92541">
        <ele>1087.4</ele>
        <time>2022-08-05T11:15:04Z</time>
      </trkpt>
      <trkpt lat="44.64155" lon="2.92539">
        <ele>1087.3</ele>
        <time>2022-08-05T11:15:05Z</time>
      </trkpt>
      <trkpt lat="44.64159" lon="2.92524">
        <ele>1085.5</ele>
        <time>2022-08-05T11:15:14Z</time>
      </trkpt>
      <trkpt lat="44.64163" lon="2.92516">
        <ele>1085.1</ele>
        <time>2022-08-05T11:15:18Z</time>
      </trkpt>
      <trkpt lat="44.64164" lon="2.92515">
        <ele>1085</ele>
        <time>2022-08-05T11:15:19Z</time>
      </trkpt>
      <trkpt lat="44.64166" lon="2.92513">
        <ele>1085.2</ele>
        <time>2022-08-05T11:15:21Z</time>
      </trkpt>
      <trkpt lat="44.64169" lon="2.92506">
        <ele>1084.4</ele>
        <time>2022-08-05T11:15:28Z</time>
      </trkpt>
      <trkpt lat="44.6418" lon="2.92499">
        <ele>1086.5</ele>
        <time>2022-08-05T11:15:36Z</time>
      </trkpt>
      <trkpt lat="44.64181" lon="2.92496">
        <ele>1086.1</ele>
        <time>2022-08-05T11:15:40Z</time>
      </trkpt>
      <trkpt lat="44.64182" lon="2.92498">
        <ele>1086.7</ele>
        <time>2022-08-05T11:15:41Z</time>
      </trkpt>
      <trkpt lat="44.64182" lon="2.92499">
        <ele>1087.1</ele>
        <time>2022-08-05T11:15:42Z</time>
      </trkpt>
      <trkpt lat="44.64181" lon="2.92498">
        <ele>1086.6</ele>
        <time>2022-08-05T11:15:44Z</time>
      </trkpt>
      <trkpt lat="44.64181" lon="2.92495">
        <ele>1085.9</ele>
        <time>2022-08-05T11:15:46Z</time>
      </trkpt>
      <trkpt lat="44.64182" lon="2.92494">
        <ele>1085.7</ele>
        <time>2022-08-05T11:15:47Z</time>
      </trkpt>
      <trkpt lat="44.64183" lon="2.92492">
        <ele>1085.4</ele>
        <time>2022-08-05T11:15:49Z</time>
      </trkpt>
      <trkpt lat="44.64184" lon="2.9249">
        <ele>1085.3</ele>
        <time>2022-08-05T11:15:52Z</time>
      </trkpt>
      <trkpt lat="44.64184" lon="2.92489">
        <ele>1085</ele>
        <time>2022-08-05T11:15:53Z</time>
      </trkpt>
      <trkpt lat="44.64185" lon="2.92486">
        <ele>1084.4</ele>
        <time>2022-08-05T11:15:55Z</time>
      </trkpt>
      <trkpt lat="44.64185" lon="2.92483">
        <ele>1083.5</ele>
        <time>2022-08-05T11:15:57Z</time>
      </trkpt>
      <trkpt lat="44.64185" lon="2.92483">
        <ele>1083.3</ele>
        <time>2022-08-05T11:15:58Z</time>
      </trkpt>
      <trkpt lat="44.64185" lon="2.9248">
        <ele>1082.6</ele>
        <time>2022-08-05T11:16:01Z</time>
      </trkpt>
      <trkpt lat="44.64186" lon="2.92481">
        <ele>1083.1</ele>
        <time>2022-08-05T11:16:04Z</time>
      </trkpt>
      <trkpt lat="44.64187" lon="2.92482">
        <ele>1083.6</ele>
        <time>2022-08-05T11:16:08Z</time>
      </trkpt>
      <trkpt lat="44.6419" lon="2.92475">
        <ele>1082.6</ele>
        <time>2022-08-05T11:16:14Z</time>
      </trkpt>
      <trkpt lat="44.64192" lon="2.92465">
        <ele>1080</ele>
        <time>2022-08-05T11:16:20Z</time>
      </trkpt>
      <trkpt lat="44.64192" lon="2.92464">
        <ele>1079.5</ele>
        <time>2022-08-05T11:16:21Z</time>
      </trkpt>
      <trkpt lat="44.64192" lon="2.92462">
        <ele>1078.9</ele>
        <time>2022-08-05T11:16:22Z</time>
      </trkpt>
      <trkpt lat="44.64199" lon="2.92453">
        <ele>1078.1</ele>
        <time>2022-08-05T11:16:28Z</time>
      </trkpt>
      <trkpt lat="44.642" lon="2.9245">
        <ele>1077.5</ele>
        <time>2022-08-05T11:16:31Z</time>
      </trkpt>
      <trkpt lat="44.64203" lon="2.92445">
        <ele>1077</ele>
        <time>2022-08-05T11:16:34Z</time>
      </trkpt>
      <trkpt lat="44.64207" lon="2.92444">
        <ele>1078.1</ele>
        <time>2022-08-05T11:16:38Z</time>
      </trkpt>
      <trkpt lat="44.64213" lon="2.92445">
        <ele>1080.2</ele>
        <time>2022-08-05T11:16:40Z</time>
      </trkpt>
      <trkpt lat="44.64216" lon="2.92441">
        <ele>1079.8</ele>
        <time>2022-08-05T11:16:43Z</time>
      </trkpt>
      <trkpt lat="44.64221" lon="2.9244">
        <ele>1081</ele>
        <time>2022-08-05T11:16:46Z</time>
      </trkpt>
      <trkpt lat="44.64228" lon="2.92439">
        <ele>1083.4</ele>
        <time>2022-08-05T11:16:52Z</time>
      </trkpt>
      <trkpt lat="44.6423" lon="2.92437">
        <ele>1083.6</ele>
        <time>2022-08-05T11:16:54Z</time>
      </trkpt>
      <trkpt lat="44.64238" lon="2.92429">
        <ele>1084.3</ele>
        <time>2022-08-05T11:17:01Z</time>
      </trkpt>
      <trkpt lat="44.64239" lon="2.92427">
        <ele>1084</ele>
        <time>2022-08-05T11:17:02Z</time>
      </trkpt>
      <trkpt lat="44.64241" lon="2.92411">
        <ele>1080.2</ele>
        <time>2022-08-05T11:17:11Z</time>
      </trkpt>
      <trkpt lat="44.64243" lon="2.92407">
        <ele>1080.1</ele>
        <time>2022-08-05T11:17:16Z</time>
      </trkpt>
      <trkpt lat="44.64243" lon="2.92407">
        <ele>1080.2</ele>
        <time>2022-08-05T11:17:17Z</time>
      </trkpt>
      <trkpt lat="44.64245" lon="2.92406">
        <ele>1080.8</ele>
        <time>2022-08-05T11:17:19Z</time>
      </trkpt>
      <trkpt lat="44.64246" lon="2.92405">
        <ele>1081.2</ele>
        <time>2022-08-05T11:17:22Z</time>
      </trkpt>
      <trkpt lat="44.64247" lon="2.92405">
        <ele>1081.4</ele>
        <time>2022-08-05T11:17:24Z</time>
      </trkpt>
      <trkpt lat="44.64247" lon="2.92407">
        <ele>1081.9</ele>
        <time>2022-08-05T11:17:30Z</time>
      </trkpt>
      <trkpt lat="44.64247" lon="2.92405">
        <ele>1081.5</ele>
        <time>2022-08-05T11:17:35Z</time>
      </trkpt>
      <trkpt lat="44.64248" lon="2.92404">
        <ele>1081.6</ele>
        <time>2022-08-05T11:17:36Z</time>
      </trkpt>
      <trkpt lat="44.64249" lon="2.92401">
        <ele>1081.8</ele>
        <time>2022-08-05T11:17:41Z</time>
      </trkpt>
      <trkpt lat="44.64252" lon="2.92399">
        <ele>1082.4</ele>
        <time>2022-08-05T11:17:47Z</time>
      </trkpt>
      <trkpt lat="44.64253" lon="2.92392">
        <ele>1081.6</ele>
        <time>2022-08-05T11:17:54Z</time>
      </trkpt>
      <trkpt lat="44.64253" lon="2.92392">
        <ele>1081.5</ele>
        <time>2022-08-05T11:17:58Z</time>
      </trkpt>
      <trkpt lat="44.64247" lon="2.92387">
        <ele>1077.1</ele>
        <time>2022-08-05T11:18:06Z</time>
      </trkpt>
      <trkpt lat="44.64246" lon="2.92386">
        <ele>1076.6</ele>
        <time>2022-08-05T11:18:07Z</time>
      </trkpt>
      <trkpt lat="44.64245" lon="2.92375">
        <ele>1074.6</ele>
        <time>2022-08-05T11:18:12Z</time>
      </trkpt>
      <trkpt lat="44.64245" lon="2.9237">
        <ele>1074.1</ele>
        <time>2022-08-05T11:18:18Z</time>
      </trkpt>
      <trkpt lat="44.64245" lon="2.9237">
        <ele>1074.2</ele>
        <time>2022-08-05T11:18:19Z</time>
      </trkpt>
      <trkpt lat="44.64245" lon="2.92368">
        <ele>1074</ele>
        <time>2022-08-05T11:18:23Z</time>
      </trkpt>
      <trkpt lat="44.64245" lon="2.92369">
        <ele>1074</ele>
        <time>2022-08-05T11:18:24Z</time>
      </trkpt>
      <trkpt lat="44.64244" lon="2.92367">
        <ele>1073</ele>
        <time>2022-08-05T11:18:28Z</time>
      </trkpt>
      <trkpt lat="44.64243" lon="2.92366">
        <ele>1072.8</ele>
        <time>2022-08-05T11:18:30Z</time>
      </trkpt>
      <trkpt lat="44.64243" lon="2.92364">
        <ele>1072.3</ele>
        <time>2022-08-05T11:18:36Z</time>
      </trkpt>
      <trkpt lat="44.64243" lon="2.92361">
        <ele>1071.8</ele>
        <time>2022-08-05T11:18:41Z</time>
      </trkpt>
      <trkpt lat="44.64244" lon="2.92359">
        <ele>1072.8</ele>
        <time>2022-08-05T11:18:45Z</time>
      </trkpt>
      <trkpt lat="44.64245" lon="2.92357">
        <ele>1073.2</ele>
        <time>2022-08-05T11:18:48Z</time>
      </trkpt>
      <trkpt lat="44.64244" lon="2.92355">
        <ele>1073</ele>
        <time>2022-08-05T11:18:51Z</time>
      </trkpt>
      <trkpt lat="44.64244" lon="2.92355">
        <ele>1072.7</ele>
        <time>2022-08-05T11:18:53Z</time>
      </trkpt>
      <trkpt lat="44.64243" lon="2.92356">
        <ele>1072.4</ele>
        <time>2022-08-05T11:18:55Z</time>
      </trkpt>
      <trkpt lat="44.64243" lon="2.92356">
        <ele>1072.3</ele>
        <time>2022-08-05T11:18:59Z</time>
      </trkpt>
      <trkpt lat="44.64243" lon="2.92356">
        <ele>1072.3</ele>
        <time>2022-08-05T11:19:00Z</time>
      </trkpt>
      <trkpt lat="44.64246" lon="2.92356">
        <ele>1074.1</ele>
        <time>2022-08-05T11:19:05Z</time>
      </trkpt>
      <trkpt lat="44.64244" lon="2.92355">
        <ele>1072.9</ele>
        <time>2022-08-05T11:19:28Z</time>
      </trkpt>
      <trkpt lat="44.64246" lon="2.9235">
        <ele>1074.1</ele>
        <time>2022-08-05T11:19:31Z</time>
      </trkpt>
      <trkpt lat="44.64246" lon="2.92348">
        <ele>1074.1</ele>
        <time>2022-08-05T11:19:32Z</time>
      </trkpt>
      <trkpt lat="44.64246" lon="2.92345">
        <ele>1074.4</ele>
        <time>2022-08-05T11:19:34Z</time>
      </trkpt>
      <trkpt lat="44.64246" lon="2.9234">
        <ele>1074.8</ele>
        <time>2022-08-05T11:19:37Z</time>
      </trkpt>
      <trkpt lat="44.64246" lon="2.92336">
        <ele>1074.7</ele>
        <time>2022-08-05T11:19:43Z</time>
      </trkpt>
      <trkpt lat="44.64242" lon="2.92342">
        <ele>1072.2</ele>
        <time>2022-08-05T11:19:51Z</time>
      </trkpt>
      <trkpt lat="44.64244" lon="2.92347">
        <ele>1072.9</ele>
        <time>2022-08-05T11:19:57Z</time>
      </trkpt>
      <trkpt lat="44.64242" lon="2.92349">
        <ele>1072.2</ele>
        <time>2022-08-05T11:20:03Z</time>
      </trkpt>
      <trkpt lat="44.64243" lon="2.9235">
        <ele>1072.4</ele>
        <time>2022-08-05T11:20:10Z</time>
      </trkpt>
      <trkpt lat="44.64242" lon="2.92352">
        <ele>1071.8</ele>
        <time>2022-08-05T11:20:18Z</time>
      </trkpt>
      <trkpt lat="44.64241" lon="2.92352">
        <ele>1071.2</ele>
        <time>2022-08-05T11:20:24Z</time>
      </trkpt>
      <trkpt lat="44.64242" lon="2.92348">
        <ele>1072.2</ele>
        <time>2022-08-05T11:20:29Z</time>
      </trkpt>
      <trkpt lat="44.64243" lon="2.92348">
        <ele>1072.7</ele>
        <time>2022-08-05T11:20:37Z</time>
      </trkpt>
      <trkpt lat="44.64243" lon="2.92348">
        <ele>1072.7</ele>
        <time>2022-08-05T11:20:43Z</time>
      </trkpt>
      <trkpt lat="44.64247" lon="2.92346">
        <ele>1074.6</ele>
        <time>2022-08-05T11:20:51Z</time>
      </trkpt>
      <trkpt lat="44.64246" lon="2.92342">
        <ele>1074.5</ele>
        <time>2022-08-05T11:20:56Z</time>
      </trkpt>
      <trkpt lat="44.64246" lon="2.92342">
        <ele>1074.5</ele>
        <time>2022-08-05T11:21:01Z</time>
      </trkpt>
      <trkpt lat="44.64248" lon="2.92349">
        <ele>1075.4</ele>
        <time>2022-08-05T11:21:32Z</time>
      </trkpt>
      <trkpt lat="44.64248" lon="2.92352">
        <ele>1074.9</ele>
        <time>2022-08-05T11:21:43Z</time>
      </trkpt>
      <trkpt lat="44.64247" lon="2.92352">
        <ele>1074.6</ele>
        <time>2022-08-05T11:21:47Z</time>
      </trkpt>
      <trkpt lat="44.64244" lon="2.92353">
        <ele>1072.7</ele>
        <time>2022-08-05T11:21:58Z</time>
      </trkpt>
      <trkpt lat="44.64246" lon="2.92352">
        <ele>1074.3</ele>
        <time>2022-08-05T11:22:04Z</time>
      </trkpt>
      <trkpt lat="44.64247" lon="2.92352">
        <ele>1074.5</ele>
        <time>2022-08-05T11:22:05Z</time>
      </trkpt>
      <trkpt lat="44.64247" lon="2.92352">
        <ele>1074.7</ele>
        <time>2022-08-05T11:22:06Z</time>
      </trkpt>
      <trkpt lat="44.64248" lon="2.92351">
        <ele>1075</ele>
        <time>2022-08-05T11:22:17Z</time>
      </trkpt>
      <trkpt lat="44.64246" lon="2.92351">
        <ele>1074.2</ele>
        <time>2022-08-05T11:22:58Z</time>
      </trkpt>
      <trkpt lat="44.64246" lon="2.92352">
        <ele>1074.1</ele>
        <time>2022-08-05T11:23:08Z</time>
      </trkpt>
      <trkpt lat="44.64247" lon="2.92352">
        <ele>1074.9</ele>
        <time>2022-08-05T11:23:24Z</time>
      </trkpt>
      <trkpt lat="44.64249" lon="2.92356">
        <ele>1075.4</ele>
        <time>2022-08-05T11:23:29Z</time>
      </trkpt>
      <trkpt lat="44.6425" lon="2.92358">
        <ele>1076.3</ele>
        <time>2022-08-05T11:23:31Z</time>
      </trkpt>
      <trkpt lat="44.64251" lon="2.92359">
        <ele>1076.8</ele>
        <time>2022-08-05T11:23:32Z</time>
      </trkpt>
      <trkpt lat="44.64254" lon="2.92361">
        <ele>1078.5</ele>
        <time>2022-08-05T11:23:35Z</time>
      </trkpt>
      <trkpt lat="44.64254" lon="2.92365">
        <ele>1078.8</ele>
        <time>2022-08-05T11:23:39Z</time>
      </trkpt>
      <trkpt lat="44.64255" lon="2.92367">
        <ele>1079.6</ele>
        <time>2022-08-05T11:23:41Z</time>
      </trkpt>
      <trkpt lat="44.64256" lon="2.92368">
        <ele>1080.6</ele>
        <time>2022-08-05T11:23:42Z</time>
      </trkpt>
      <trkpt lat="44.64259" lon="2.9237">
        <ele>1082.3</ele>
        <time>2022-08-05T11:23:44Z</time>
      </trkpt>
      <trkpt lat="44.64259" lon="2.9237">
        <ele>1082.4</ele>
        <time>2022-08-05T11:23:45Z</time>
      </trkpt>
      <trkpt lat="44.64259" lon="2.9237">
        <ele>1082.6</ele>
        <time>2022-08-05T11:23:46Z</time>
      </trkpt>
      <trkpt lat="44.64259" lon="2.92371">
        <ele>1082.6</ele>
        <time>2022-08-05T11:23:47Z</time>
      </trkpt>
      <trkpt lat="44.64259" lon="2.92371">
        <ele>1082.7</ele>
        <time>2022-08-05T11:23:48Z</time>
      </trkpt>
      <trkpt lat="44.6426" lon="2.92373">
        <ele>1083</ele>
        <time>2022-08-05T11:23:50Z</time>
      </trkpt>
      <trkpt lat="44.6426" lon="2.92375">
        <ele>1083.5</ele>
        <time>2022-08-05T11:23:52Z</time>
      </trkpt>
      <trkpt lat="44.64261" lon="2.92375">
        <ele>1084.1</ele>
        <time>2022-08-05T11:23:54Z</time>
      </trkpt>
      <trkpt lat="44.64262" lon="2.92375">
        <ele>1084.3</ele>
        <time>2022-08-05T11:23:56Z</time>
      </trkpt>
      <trkpt lat="44.64265" lon="2.92381">
        <ele>1086.8</ele>
        <time>2022-08-05T11:23:59Z</time>
      </trkpt>
      <trkpt lat="44.64266" lon="2.92385">
        <ele>1087.7</ele>
        <time>2022-08-05T11:24:01Z</time>
      </trkpt>
      <trkpt lat="44.64264" lon="2.92393">
        <ele>1087.6</ele>
        <time>2022-08-05T11:24:08Z</time>
      </trkpt>
      <trkpt lat="44.6426" lon="2.92397">
        <ele>1086.7</ele>
        <time>2022-08-05T11:24:12Z</time>
      </trkpt>
      <trkpt lat="44.64259" lon="2.92401">
        <ele>1086.7</ele>
        <time>2022-08-05T11:24:17Z</time>
      </trkpt>
      <trkpt lat="44.64259" lon="2.92401">
        <ele>1086.8</ele>
        <time>2022-08-05T11:24:18Z</time>
      </trkpt>
      <trkpt lat="44.64258" lon="2.92403">
        <ele>1086.6</ele>
        <time>2022-08-05T11:24:19Z</time>
      </trkpt>
      <trkpt lat="44.64256" lon="2.92405">
        <ele>1086.3</ele>
        <time>2022-08-05T11:24:22Z</time>
      </trkpt>
      <trkpt lat="44.64256" lon="2.92405">
        <ele>1086.4</ele>
        <time>2022-08-05T11:24:23Z</time>
      </trkpt>
      <trkpt lat="44.64256" lon="2.92409">
        <ele>1086.9</ele>
        <time>2022-08-05T11:24:26Z</time>
      </trkpt>
      <trkpt lat="44.64254" lon="2.92409">
        <ele>1086.2</ele>
        <time>2022-08-05T11:24:29Z</time>
      </trkpt>
      <trkpt lat="44.64254" lon="2.92409">
        <ele>1085.9</ele>
        <time>2022-08-05T11:24:30Z</time>
      </trkpt>
      <trkpt lat="44.6425" lon="2.92408">
        <ele>1083.9</ele>
        <time>2022-08-05T11:24:36Z</time>
      </trkpt>
      <trkpt lat="44.64246" lon="2.92407">
        <ele>1081.8</ele>
        <time>2022-08-05T11:24:45Z</time>
      </trkpt>
      <trkpt lat="44.64246" lon="2.92406">
        <ele>1081.3</ele>
        <time>2022-08-05T11:24:46Z</time>
      </trkpt>
      <trkpt lat="44.64243" lon="2.92399">
        <ele>1078</ele>
        <time>2022-08-05T11:24:52Z</time>
      </trkpt>
      <trkpt lat="44.64239" lon="2.924">
        <ele>1076.6</ele>
        <time>2022-08-05T11:24:59Z</time>
      </trkpt>
      <trkpt lat="44.64239" lon="2.92403">
        <ele>1077.3</ele>
        <time>2022-08-05T11:25:04Z</time>
      </trkpt>
      <trkpt lat="44.64243" lon="2.92405">
        <ele>1079.4</ele>
        <time>2022-08-05T11:25:10Z</time>
      </trkpt>
      <trkpt lat="44.64243" lon="2.92408">
        <ele>1080.6</ele>
        <time>2022-08-05T11:25:14Z</time>
      </trkpt>
      <trkpt lat="44.64243" lon="2.92409">
        <ele>1080.7</ele>
        <time>2022-08-05T11:25:15Z</time>
      </trkpt>
      <trkpt lat="44.64241" lon="2.92418">
        <ele>1082.2</ele>
        <time>2022-08-05T11:25:21Z</time>
      </trkpt>
      <trkpt lat="44.64237" lon="2.9243">
        <ele>1084.2</ele>
        <time>2022-08-05T11:25:28Z</time>
      </trkpt>
      <trkpt lat="44.64233" lon="2.92436">
        <ele>1084.6</ele>
        <time>2022-08-05T11:25:32Z</time>
      </trkpt>
      <trkpt lat="44.64232" lon="2.92438">
        <ele>1084.7</ele>
        <time>2022-08-05T11:25:33Z</time>
      </trkpt>
      <trkpt lat="44.64228" lon="2.92442">
        <ele>1084.2</ele>
        <time>2022-08-05T11:25:35Z</time>
      </trkpt>
      <trkpt lat="44.64226" lon="2.92445">
        <ele>1084.9</ele>
        <time>2022-08-05T11:25:37Z</time>
      </trkpt>
      <trkpt lat="44.64225" lon="2.92447">
        <ele>1084.9</ele>
        <time>2022-08-05T11:25:39Z</time>
      </trkpt>
      <trkpt lat="44.64223" lon="2.92447">
        <ele>1084.1</ele>
        <time>2022-08-05T11:25:41Z</time>
      </trkpt>
      <trkpt lat="44.64208" lon="2.9245">
        <ele>1080.3</ele>
        <time>2022-08-05T11:25:51Z</time>
      </trkpt>
      <trkpt lat="44.64204" lon="2.92455">
        <ele>1080.3</ele>
        <time>2022-08-05T11:25:58Z</time>
      </trkpt>
      <trkpt lat="44.64198" lon="2.92465">
        <ele>1081.7</ele>
        <time>2022-08-05T11:26:07Z</time>
      </trkpt>
      <trkpt lat="44.64193" lon="2.92475">
        <ele>1083.5</ele>
        <time>2022-08-05T11:26:15Z</time>
      </trkpt>
      <trkpt lat="44.64192" lon="2.9248">
        <ele>1084.7</ele>
        <time>2022-08-05T11:26:19Z</time>
      </trkpt>
      <trkpt lat="44.64191" lon="2.92483">
        <ele>1085.5</ele>
        <time>2022-08-05T11:26:21Z</time>
      </trkpt>
      <trkpt lat="44.64188" lon="2.92486">
        <ele>1085.5</ele>
        <time>2022-08-05T11:26:25Z</time>
      </trkpt>
      <trkpt lat="44.64188" lon="2.92488">
        <ele>1085.9</ele>
        <time>2022-08-05T11:26:26Z</time>
      </trkpt>
      <trkpt lat="44.64188" lon="2.92488">
        <ele>1086</ele>
        <time>2022-08-05T11:26:27Z</time>
      </trkpt>
      <trkpt lat="44.64186" lon="2.92491">
        <ele>1086.5</ele>
        <time>2022-08-05T11:26:30Z</time>
      </trkpt>
      <trkpt lat="44.64186" lon="2.92493">
        <ele>1086.9</ele>
        <time>2022-08-05T11:26:31Z</time>
      </trkpt>
      <trkpt lat="44.64186" lon="2.92494">
        <ele>1087.2</ele>
        <time>2022-08-05T11:26:32Z</time>
      </trkpt>
      <trkpt lat="44.64185" lon="2.92495">
        <ele>1087.3</ele>
        <time>2022-08-05T11:26:33Z</time>
      </trkpt>
      <trkpt lat="44.64185" lon="2.92499">
        <ele>1088.5</ele>
        <time>2022-08-05T11:26:35Z</time>
      </trkpt>
      <trkpt lat="44.64186" lon="2.925">
        <ele>1089</ele>
        <time>2022-08-05T11:26:36Z</time>
      </trkpt>
      <trkpt lat="44.64186" lon="2.92502">
        <ele>1089.6</ele>
        <time>2022-08-05T11:26:37Z</time>
      </trkpt>
      <trkpt lat="44.64186" lon="2.92505">
        <ele>1090.4</ele>
        <time>2022-08-05T11:26:39Z</time>
      </trkpt>
      <trkpt lat="44.64186" lon="2.92506">
        <ele>1090.6</ele>
        <time>2022-08-05T11:26:40Z</time>
      </trkpt>
      <trkpt lat="44.64185" lon="2.92508">
        <ele>1090.8</ele>
        <time>2022-08-05T11:26:41Z</time>
      </trkpt>
      <trkpt lat="44.64184" lon="2.92509">
        <ele>1090.8</ele>
        <time>2022-08-05T11:26:42Z</time>
      </trkpt>
      <trkpt lat="44.64182" lon="2.92512">
        <ele>1090.8</ele>
        <time>2022-08-05T11:26:47Z</time>
      </trkpt>
      <trkpt lat="44.64182" lon="2.92511">
        <ele>1090.8</ele>
        <time>2022-08-05T11:26:48Z</time>
      </trkpt>
      <trkpt lat="44.64182" lon="2.92512">
        <ele>1090.6</ele>
        <time>2022-08-05T11:26:54Z</time>
      </trkpt>
      <trkpt lat="44.64181" lon="2.92512">
        <ele>1090.5</ele>
        <time>2022-08-05T11:27:01Z</time>
      </trkpt>
      <trkpt lat="44.64182" lon="2.92512">
        <ele>1090.8</ele>
        <time>2022-08-05T11:27:09Z</time>
      </trkpt>
      <trkpt lat="44.64181" lon="2.92514">
        <ele>1090.7</ele>
        <time>2022-08-05T11:27:10Z</time>
      </trkpt>
      <trkpt lat="44.6417" lon="2.92527">
        <ele>1089.9</ele>
        <time>2022-08-05T11:27:19Z</time>
      </trkpt>
      <trkpt lat="44.64168" lon="2.92532">
        <ele>1090.3</ele>
        <time>2022-08-05T11:27:23Z</time>
      </trkpt>
      <trkpt lat="44.64167" lon="2.92535">
        <ele>1090.7</ele>
        <time>2022-08-05T11:27:25Z</time>
      </trkpt>
      <trkpt lat="44.64166" lon="2.92536">
        <ele>1090.8</ele>
        <time>2022-08-05T11:27:26Z</time>
      </trkpt>
      <trkpt lat="44.64164" lon="2.92548">
        <ele>1092.3</ele>
        <time>2022-08-05T11:27:34Z</time>
      </trkpt>
      <trkpt lat="44.64164" lon="2.92549">
        <ele>1092.5</ele>
        <time>2022-08-05T11:27:35Z</time>
      </trkpt>
      <trkpt lat="44.64163" lon="2.92557">
        <ele>1093.9</ele>
        <time>2022-08-05T11:27:40Z</time>
      </trkpt>
      <trkpt lat="44.64162" lon="2.92566">
        <ele>1095.1</ele>
        <time>2022-08-05T11:27:46Z</time>
      </trkpt>
      <trkpt lat="44.64158" lon="2.92577">
        <ele>1095.9</ele>
        <time>2022-08-05T11:27:54Z</time>
      </trkpt>
      <trkpt lat="44.64159" lon="2.92578">
        <ele>1096.1</ele>
        <time>2022-08-05T11:27:55Z</time>
      </trkpt>
      <trkpt lat="44.64159" lon="2.92579">
        <ele>1096.5</ele>
        <time>2022-08-05T11:27:58Z</time>
      </trkpt>
      <trkpt lat="44.64159" lon="2.92581">
        <ele>1096.7</ele>
        <time>2022-08-05T11:27:59Z</time>
      </trkpt>
      <trkpt lat="44.64158" lon="2.92582">
        <ele>1096.9</ele>
        <time>2022-08-05T11:28:00Z</time>
      </trkpt>
      <trkpt lat="44.64158" lon="2.92587">
        <ele>1097.7</ele>
        <time>2022-08-05T11:28:03Z</time>
      </trkpt>
      <trkpt lat="44.64155" lon="2.92598">
        <ele>1098.3</ele>
        <time>2022-08-05T11:28:09Z</time>
      </trkpt>
      <trkpt lat="44.64155" lon="2.92599">
        <ele>1098.3</ele>
        <time>2022-08-05T11:28:10Z</time>
      </trkpt>
      <trkpt lat="44.64154" lon="2.92601">
        <ele>1098.3</ele>
        <time>2022-08-05T11:28:11Z</time>
      </trkpt>
      <trkpt lat="44.64149" lon="2.92613">
        <ele>1097.3</ele>
        <time>2022-08-05T11:28:19Z</time>
      </trkpt>
      <trkpt lat="44.64146" lon="2.92626">
        <ele>1096.9</ele>
        <time>2022-08-05T11:28:27Z</time>
      </trkpt>
      <trkpt lat="44.64146" lon="2.92627">
        <ele>1096.9</ele>
        <time>2022-08-05T11:28:28Z</time>
      </trkpt>
      <trkpt lat="44.64146" lon="2.92634">
        <ele>1097.3</ele>
        <time>2022-08-05T11:28:32Z</time>
      </trkpt>
      <trkpt lat="44.64146" lon="2.92636">
        <ele>1097.2</ele>
        <time>2022-08-05T11:28:33Z</time>
      </trkpt>
      <trkpt lat="44.64146" lon="2.92638">
        <ele>1097.3</ele>
        <time>2022-08-05T11:28:35Z</time>
      </trkpt>
      <trkpt lat="44.64145" lon="2.92646">
        <ele>1097.3</ele>
        <time>2022-08-05T11:28:40Z</time>
      </trkpt>
      <trkpt lat="44.64146" lon="2.92657">
        <ele>1098.3</ele>
        <time>2022-08-05T11:28:46Z</time>
      </trkpt>
      <trkpt lat="44.64146" lon="2.92661">
        <ele>1098.3</ele>
        <time>2022-08-05T11:28:48Z</time>
      </trkpt>
      <trkpt lat="44.64146" lon="2.92667">
        <ele>1098.7</ele>
        <time>2022-08-05T11:28:52Z</time>
      </trkpt>
      <trkpt lat="44.64146" lon="2.9267">
        <ele>1098.5</ele>
        <time>2022-08-05T11:28:53Z</time>
      </trkpt>
      <trkpt lat="44.64146" lon="2.92674">
        <ele>1098.8</ele>
        <time>2022-08-05T11:28:55Z</time>
      </trkpt>
      <trkpt lat="44.64147" lon="2.92677">
        <ele>1099.6</ele>
        <time>2022-08-05T11:28:57Z</time>
      </trkpt>
      <trkpt lat="44.64148" lon="2.92678">
        <ele>1099.9</ele>
        <time>2022-08-05T11:28:58Z</time>
      </trkpt>
      <trkpt lat="44.64152" lon="2.92688">
        <ele>1102.6</ele>
        <time>2022-08-05T11:29:04Z</time>
      </trkpt>
      <trkpt lat="44.64153" lon="2.92693">
        <ele>1103.4</ele>
        <time>2022-08-05T11:29:07Z</time>
      </trkpt>
      <trkpt lat="44.64153" lon="2.92695">
        <ele>1103.5</ele>
        <time>2022-08-05T11:29:08Z</time>
      </trkpt>
      <trkpt lat="44.64152" lon="2.92697">
        <ele>1103.1</ele>
        <time>2022-08-05T11:29:09Z</time>
      </trkpt>
      <trkpt lat="44.64154" lon="2.92708">
        <ele>1104.1</ele>
        <time>2022-08-05T11:29:16Z</time>
      </trkpt>
      <trkpt lat="44.64155" lon="2.9271">
        <ele>1104.4</ele>
        <time>2022-08-05T11:29:17Z</time>
      </trkpt>
      <trkpt lat="44.64155" lon="2.9271">
        <ele>1104.4</ele>
        <time>2022-08-05T11:29:18Z</time>
      </trkpt>
      <trkpt lat="44.64156" lon="2.92713">
        <ele>1105.1</ele>
        <time>2022-08-05T11:29:19Z</time>
      </trkpt>
      <trkpt lat="44.64158" lon="2.92718">
        <ele>1106.4</ele>
        <time>2022-08-05T11:29:22Z</time>
      </trkpt>
      <trkpt lat="44.64158" lon="2.9272">
        <ele>1106.6</ele>
        <time>2022-08-05T11:29:23Z</time>
      </trkpt>
      <trkpt lat="44.6416" lon="2.92724">
        <ele>1107.3</ele>
        <time>2022-08-05T11:29:26Z</time>
      </trkpt>
      <trkpt lat="44.64163" lon="2.9273">
        <ele>1109</ele>
        <time>2022-08-05T11:29:30Z</time>
      </trkpt>
      <trkpt lat="44.64163" lon="2.92732">
        <ele>1108.9</ele>
        <time>2022-08-05T11:29:31Z</time>
      </trkpt>
      <trkpt lat="44.64163" lon="2.92734">
        <ele>1108.5</ele>
        <time>2022-08-05T11:29:32Z</time>
      </trkpt>
      <trkpt lat="44.64163" lon="2.92747">
        <ele>1107.5</ele>
        <time>2022-08-05T11:29:40Z</time>
      </trkpt>
      <trkpt lat="44.64163" lon="2.92751">
        <ele>1107.7</ele>
        <time>2022-08-05T11:29:43Z</time>
      </trkpt>
      <trkpt lat="44.64164" lon="2.92754">
        <ele>1107.8</ele>
        <time>2022-08-05T11:29:45Z</time>
      </trkpt>
      <trkpt lat="44.64167" lon="2.92758">
        <ele>1108.9</ele>
        <time>2022-08-05T11:29:47Z</time>
      </trkpt>
      <trkpt lat="44.64167" lon="2.92759">
        <ele>1109.1</ele>
        <time>2022-08-05T11:29:48Z</time>
      </trkpt>
      <trkpt lat="44.64169" lon="2.92766">
        <ele>1109.7</ele>
        <time>2022-08-05T11:29:52Z</time>
      </trkpt>
      <trkpt lat="44.6417" lon="2.92767">
        <ele>1110.1</ele>
        <time>2022-08-05T11:29:53Z</time>
      </trkpt>
      <trkpt lat="44.6417" lon="2.92768">
        <ele>1110.2</ele>
        <time>2022-08-05T11:29:54Z</time>
      </trkpt>
      <trkpt lat="44.6417" lon="2.92774">
        <ele>1109.3</ele>
        <time>2022-08-05T11:29:57Z</time>
      </trkpt>
      <trkpt lat="44.64171" lon="2.92779">
        <ele>1109.4</ele>
        <time>2022-08-05T11:30:00Z</time>
      </trkpt>
      <trkpt lat="44.64174" lon="2.92782">
        <ele>1111.3</ele>
        <time>2022-08-05T11:30:02Z</time>
      </trkpt>
      <trkpt lat="44.64183" lon="2.9279">
        <ele>1118</ele>
        <time>2022-08-05T11:30:09Z</time>
      </trkpt>
      <trkpt lat="44.64186" lon="2.92795">
        <ele>1119.9</ele>
        <time>2022-08-05T11:30:14Z</time>
      </trkpt>
      <trkpt lat="44.64186" lon="2.92795">
        <ele>1119.5</ele>
        <time>2022-08-05T11:30:15Z</time>
      </trkpt>
      <trkpt lat="44.64186" lon="2.92795">
        <ele>1119.4</ele>
        <time>2022-08-05T11:30:16Z</time>
      </trkpt>
      <trkpt lat="44.64186" lon="2.92795">
        <ele>1119.8</ele>
        <time>2022-08-05T11:30:22Z</time>
      </trkpt>
      <trkpt lat="44.64188" lon="2.92798">
        <ele>1121.2</ele>
        <time>2022-08-05T11:30:26Z</time>
      </trkpt>
      <trkpt lat="44.64195" lon="2.92805">
        <ele>1125.1</ele>
        <time>2022-08-05T11:30:32Z</time>
      </trkpt>
      <trkpt lat="44.64198" lon="2.92814">
        <ele>1125.5</ele>
        <time>2022-08-05T11:30:38Z</time>
      </trkpt>
      <trkpt lat="44.64198" lon="2.92816">
        <ele>1125.4</ele>
        <time>2022-08-05T11:30:39Z</time>
      </trkpt>
      <trkpt lat="44.64201" lon="2.92829">
        <ele>1124.7</ele>
        <time>2022-08-05T11:30:47Z</time>
      </trkpt>
      <trkpt lat="44.64201" lon="2.9283">
        <ele>1125.1</ele>
        <time>2022-08-05T11:30:48Z</time>
      </trkpt>
      <trkpt lat="44.64203" lon="2.92831">
        <ele>1126</ele>
        <time>2022-08-05T11:30:49Z</time>
      </trkpt>
      <trkpt lat="44.64204" lon="2.92837">
        <ele>1125.6</ele>
        <time>2022-08-05T11:30:53Z</time>
      </trkpt>
      <trkpt lat="44.64208" lon="2.92844">
        <ele>1127.3</ele>
        <time>2022-08-05T11:30:58Z</time>
      </trkpt>
      <trkpt lat="44.64209" lon="2.92845">
        <ele>1127.8</ele>
        <time>2022-08-05T11:30:59Z</time>
      </trkpt>
      <trkpt lat="44.64213" lon="2.92855">
        <ele>1128.3</ele>
        <time>2022-08-05T11:31:06Z</time>
      </trkpt>
      <trkpt lat="44.64213" lon="2.92858">
        <ele>1127.8</ele>
        <time>2022-08-05T11:31:08Z</time>
      </trkpt>
      <trkpt lat="44.64214" lon="2.92865">
        <ele>1126.7</ele>
        <time>2022-08-05T11:31:12Z</time>
      </trkpt>
      <trkpt lat="44.64215" lon="2.92868">
        <ele>1126.7</ele>
        <time>2022-08-05T11:31:14Z</time>
      </trkpt>
      <trkpt lat="44.64216" lon="2.92869">
        <ele>1127</ele>
        <time>2022-08-05T11:31:15Z</time>
      </trkpt>
      <trkpt lat="44.64216" lon="2.92871">
        <ele>1126.7</ele>
        <time>2022-08-05T11:31:16Z</time>
      </trkpt>
      <trkpt lat="44.64217" lon="2.92878">
        <ele>1125.2</ele>
        <time>2022-08-05T11:31:20Z</time>
      </trkpt>
      <trkpt lat="44.64217" lon="2.92881">
        <ele>1124.8</ele>
        <time>2022-08-05T11:31:22Z</time>
      </trkpt>
      <trkpt lat="44.64221" lon="2.92885">
        <ele>1126.4</ele>
        <time>2022-08-05T11:31:26Z</time>
      </trkpt>
      <trkpt lat="44.64224" lon="2.92889">
        <ele>1126.9</ele>
        <time>2022-08-05T11:31:29Z</time>
      </trkpt>
      <trkpt lat="44.64224" lon="2.92891">
        <ele>1126.5</ele>
        <time>2022-08-05T11:31:30Z</time>
      </trkpt>
      <trkpt lat="44.64224" lon="2.92892">
        <ele>1126.2</ele>
        <time>2022-08-05T11:31:31Z</time>
      </trkpt>
      <trkpt lat="44.64225" lon="2.92897">
        <ele>1125.8</ele>
        <time>2022-08-05T11:31:34Z</time>
      </trkpt>
      <trkpt lat="44.64229" lon="2.92905">
        <ele>1126</ele>
        <time>2022-08-05T11:31:39Z</time>
      </trkpt>
      <trkpt lat="44.6423" lon="2.9291">
        <ele>1125.2</ele>
        <time>2022-08-05T11:31:42Z</time>
      </trkpt>
      <trkpt lat="44.64229" lon="2.92914">
        <ele>1123.7</ele>
        <time>2022-08-05T11:31:44Z</time>
      </trkpt>
      <trkpt lat="44.64228" lon="2.92919">
        <ele>1122.1</ele>
        <time>2022-08-05T11:31:47Z</time>
      </trkpt>
      <trkpt lat="44.64228" lon="2.92925">
        <ele>1121</ele>
        <time>2022-08-05T11:31:51Z</time>
      </trkpt>
      <trkpt lat="44.64231" lon="2.9293">
        <ele>1121.6</ele>
        <time>2022-08-05T11:31:54Z</time>
      </trkpt>
      <trkpt lat="44.6423" lon="2.92935">
        <ele>1120</ele>
        <time>2022-08-05T11:31:57Z</time>
      </trkpt>
      <trkpt lat="44.6423" lon="2.92937">
        <ele>1119.7</ele>
        <time>2022-08-05T11:31:58Z</time>
      </trkpt>
      <trkpt lat="44.64231" lon="2.92939">
        <ele>1119.6</ele>
        <time>2022-08-05T11:32:00Z</time>
      </trkpt>
      <trkpt lat="44.64231" lon="2.9294">
        <ele>1119.6</ele>
        <time>2022-08-05T11:32:01Z</time>
      </trkpt>
      <trkpt lat="44.64237" lon="2.92945">
        <ele>1121.9</ele>
        <time>2022-08-05T11:32:05Z</time>
      </trkpt>
      <trkpt lat="44.6424" lon="2.92947">
        <ele>1123.2</ele>
        <time>2022-08-05T11:32:07Z</time>
      </trkpt>
      <trkpt lat="44.64243" lon="2.92951">
        <ele>1123.6</ele>
        <time>2022-08-05T11:32:10Z</time>
      </trkpt>
      <trkpt lat="44.64246" lon="2.92956">
        <ele>1124.4</ele>
        <time>2022-08-05T11:32:13Z</time>
      </trkpt>
      <trkpt lat="44.6425" lon="2.92963">
        <ele>1125.1</ele>
        <time>2022-08-05T11:32:19Z</time>
      </trkpt>
      <trkpt lat="44.64251" lon="2.92964">
        <ele>1125.2</ele>
        <time>2022-08-05T11:32:20Z</time>
      </trkpt>
      <trkpt lat="44.64254" lon="2.92971">
        <ele>1125.6</ele>
        <time>2022-08-05T11:32:25Z</time>
      </trkpt>
      <trkpt lat="44.64257" lon="2.92977">
        <ele>1125.9</ele>
        <time>2022-08-05T11:32:30Z</time>
      </trkpt>
      <trkpt lat="44.64258" lon="2.9298">
        <ele>1125.7</ele>
        <time>2022-08-05T11:32:32Z</time>
      </trkpt>
      <trkpt lat="44.6426" lon="2.92983">
        <ele>1125.9</ele>
        <time>2022-08-05T11:32:35Z</time>
      </trkpt>
      <trkpt lat="44.64261" lon="2.92985">
        <ele>1126.2</ele>
        <time>2022-08-05T11:32:36Z</time>
      </trkpt>
      <trkpt lat="44.64266" lon="2.92991">
        <ele>1127.7</ele>
        <time>2022-08-05T11:32:42Z</time>
      </trkpt>
      <trkpt lat="44.64267" lon="2.92994">
        <ele>1127.9</ele>
        <time>2022-08-05T11:32:44Z</time>
      </trkpt>
      <trkpt lat="44.64272" lon="2.93">
        <ele>1129.3</ele>
        <time>2022-08-05T11:32:49Z</time>
      </trkpt>
      <trkpt lat="44.64273" lon="2.93001">
        <ele>1129.5</ele>
        <time>2022-08-05T11:32:50Z</time>
      </trkpt>
      <trkpt lat="44.6428" lon="2.93008">
        <ele>1131.7</ele>
        <time>2022-08-05T11:32:57Z</time>
      </trkpt>
      <trkpt lat="44.64283" lon="2.93015">
        <ele>1132.3</ele>
        <time>2022-08-05T11:33:02Z</time>
      </trkpt>
      <trkpt lat="44.64285" lon="2.93017">
        <ele>1133.1</ele>
        <time>2022-08-05T11:33:04Z</time>
      </trkpt>
      <trkpt lat="44.64287" lon="2.93019">
        <ele>1133.7</ele>
        <time>2022-08-05T11:33:06Z</time>
      </trkpt>
      <trkpt lat="44.64291" lon="2.93022">
        <ele>1135.4</ele>
        <time>2022-08-05T11:33:09Z</time>
      </trkpt>
      <trkpt lat="44.64292" lon="2.93024">
        <ele>1135.6</ele>
        <time>2022-08-05T11:33:11Z</time>
      </trkpt>
      <trkpt lat="44.64292" lon="2.93026">
        <ele>1135.6</ele>
        <time>2022-08-05T11:33:12Z</time>
      </trkpt>
      <trkpt lat="44.64294" lon="2.93031">
        <ele>1135.6</ele>
        <time>2022-08-05T11:33:15Z</time>
      </trkpt>
      <trkpt lat="44.64295" lon="2.93036">
        <ele>1135.5</ele>
        <time>2022-08-05T11:33:18Z</time>
      </trkpt>
      <trkpt lat="44.64298" lon="2.9304">
        <ele>1136.6</ele>
        <time>2022-08-05T11:33:21Z</time>
      </trkpt>
      <trkpt lat="44.64302" lon="2.93047">
        <ele>1137.7</ele>
        <time>2022-08-05T11:33:26Z</time>
      </trkpt>
      <trkpt lat="44.64302" lon="2.93049">
        <ele>1137.7</ele>
        <time>2022-08-05T11:33:27Z</time>
      </trkpt>
      <trkpt lat="44.64305" lon="2.93056">
        <ele>1138.5</ele>
        <time>2022-08-05T11:33:32Z</time>
      </trkpt>
      <trkpt lat="44.64306" lon="2.93058">
        <ele>1139</ele>
        <time>2022-08-05T11:33:33Z</time>
      </trkpt>
      <trkpt lat="44.64305" lon="2.93065">
        <ele>1137.8</ele>
        <time>2022-08-05T11:33:37Z</time>
      </trkpt>
      <trkpt lat="44.64308" lon="2.93075">
        <ele>1137.9</ele>
        <time>2022-08-05T11:33:43Z</time>
      </trkpt>
      <trkpt lat="44.64308" lon="2.93077">
        <ele>1138</ele>
        <time>2022-08-05T11:33:45Z</time>
      </trkpt>
      <trkpt lat="44.6431" lon="2.9308">
        <ele>1138.3</ele>
        <time>2022-08-05T11:33:47Z</time>
      </trkpt>
      <trkpt lat="44.64311" lon="2.93082">
        <ele>1138.6</ele>
        <time>2022-08-05T11:33:48Z</time>
      </trkpt>
      <trkpt lat="44.64311" lon="2.93083">
        <ele>1138.4</ele>
        <time>2022-08-05T11:33:49Z</time>
      </trkpt>
      <trkpt lat="44.64309" lon="2.93089">
        <ele>1137.2</ele>
        <time>2022-08-05T11:33:52Z</time>
      </trkpt>
      <trkpt lat="44.64309" lon="2.9309">
        <ele>1136.8</ele>
        <time>2022-08-05T11:33:53Z</time>
      </trkpt>
      <trkpt lat="44.64309" lon="2.93094">
        <ele>1136.6</ele>
        <time>2022-08-05T11:33:55Z</time>
      </trkpt>
      <trkpt lat="44.64308" lon="2.93098">
        <ele>1135.7</ele>
        <time>2022-08-05T11:33:58Z</time>
      </trkpt>
      <trkpt lat="44.64306" lon="2.93101">
        <ele>1134.4</ele>
        <time>2022-08-05T11:34:00Z</time>
      </trkpt>
      <trkpt lat="44.64306" lon="2.93103">
        <ele>1133.8</ele>
        <time>2022-08-05T11:34:01Z</time>
      </trkpt>
      <trkpt lat="44.64303" lon="2.9311">
        <ele>1131.8</ele>
        <time>2022-08-05T11:34:05Z</time>
      </trkpt>
      <trkpt lat="44.64303" lon="2.9312">
        <ele>1130.8</ele>
        <time>2022-08-05T11:34:11Z</time>
      </trkpt>
      <trkpt lat="44.64303" lon="2.93123">
        <ele>1130.2</ele>
        <time>2022-08-05T11:34:13Z</time>
      </trkpt>
      <trkpt lat="44.64306" lon="2.93133">
        <ele>1130.8</ele>
        <time>2022-08-05T11:34:19Z</time>
      </trkpt>
      <trkpt lat="44.64307" lon="2.93134">
        <ele>1131.1</ele>
        <time>2022-08-05T11:34:20Z</time>
      </trkpt>
      <trkpt lat="44.6431" lon="2.93146">
        <ele>1131.8</ele>
        <time>2022-08-05T11:34:28Z</time>
      </trkpt>
      <trkpt lat="44.64311" lon="2.93148">
        <ele>1132</ele>
        <time>2022-08-05T11:34:29Z</time>
      </trkpt>
      <trkpt lat="44.64311" lon="2.93149">
        <ele>1132.1</ele>
        <time>2022-08-05T11:34:30Z</time>
      </trkpt>
      <trkpt lat="44.64313" lon="2.93155">
        <ele>1132.6</ele>
        <time>2022-08-05T11:34:34Z</time>
      </trkpt>
      <trkpt lat="44.64316" lon="2.9316">
        <ele>1133.2</ele>
        <time>2022-08-05T11:34:38Z</time>
      </trkpt>
      <trkpt lat="44.64318" lon="2.93164">
        <ele>1133.8</ele>
        <time>2022-08-05T11:34:41Z</time>
      </trkpt>
      <trkpt lat="44.64325" lon="2.93171">
        <ele>1136.6</ele>
        <time>2022-08-05T11:34:47Z</time>
      </trkpt>
      <trkpt lat="44.64328" lon="2.9318">
        <ele>1137.5</ele>
        <time>2022-08-05T11:34:53Z</time>
      </trkpt>
      <trkpt lat="44.64328" lon="2.93182">
        <ele>1137.7</ele>
        <time>2022-08-05T11:34:54Z</time>
      </trkpt>
      <trkpt lat="44.64331" lon="2.93186">
        <ele>1138.5</ele>
        <time>2022-08-05T11:34:57Z</time>
      </trkpt>
      <trkpt lat="44.64333" lon="2.93192">
        <ele>1138.9</ele>
        <time>2022-08-05T11:35:01Z</time>
      </trkpt>
      <trkpt lat="44.64333" lon="2.93193">
        <ele>1138.9</ele>
        <time>2022-08-05T11:35:02Z</time>
      </trkpt>
      <trkpt lat="44.64336" lon="2.932">
        <ele>1139.7</ele>
        <time>2022-08-05T11:35:07Z</time>
      </trkpt>
      <trkpt lat="44.64338" lon="2.93206">
        <ele>1139.9</ele>
        <time>2022-08-05T11:35:11Z</time>
      </trkpt>
      <trkpt lat="44.64339" lon="2.93207">
        <ele>1140.1</ele>
        <time>2022-08-05T11:35:12Z</time>
      </trkpt>
      <trkpt lat="44.64342" lon="2.9321">
        <ele>1141.2</ele>
        <time>2022-08-05T11:35:15Z</time>
      </trkpt>
      <trkpt lat="44.64344" lon="2.93211">
        <ele>1141.5</ele>
        <time>2022-08-05T11:35:16Z</time>
      </trkpt>
      <trkpt lat="44.64344" lon="2.93212">
        <ele>1141.6</ele>
        <time>2022-08-05T11:35:17Z</time>
      </trkpt>
      <trkpt lat="44.64346" lon="2.93218">
        <ele>1141.9</ele>
        <time>2022-08-05T11:35:21Z</time>
      </trkpt>
      <trkpt lat="44.64346" lon="2.93218">
        <ele>1141.9</ele>
        <time>2022-08-05T11:35:22Z</time>
      </trkpt>
      <trkpt lat="44.64348" lon="2.93219">
        <ele>1142.5</ele>
        <time>2022-08-05T11:35:23Z</time>
      </trkpt>
      <trkpt lat="44.64354" lon="2.93226">
        <ele>1144</ele>
        <time>2022-08-05T11:35:29Z</time>
      </trkpt>
      <trkpt lat="44.64355" lon="2.93234">
        <ele>1143.9</ele>
        <time>2022-08-05T11:35:34Z</time>
      </trkpt>
      <trkpt lat="44.64355" lon="2.93236">
        <ele>1144</ele>
        <time>2022-08-05T11:35:35Z</time>
      </trkpt>
      <trkpt lat="44.64356" lon="2.93238">
        <ele>1143.9</ele>
        <time>2022-08-05T11:35:36Z</time>
      </trkpt>
      <trkpt lat="44.64356" lon="2.9324">
        <ele>1143.8</ele>
        <time>2022-08-05T11:35:37Z</time>
      </trkpt>
      <trkpt lat="44.64356" lon="2.93242">
        <ele>1143.8</ele>
        <time>2022-08-05T11:35:38Z</time>
      </trkpt>
      <trkpt lat="44.64357" lon="2.93246">
        <ele>1143.6</ele>
        <time>2022-08-05T11:35:41Z</time>
      </trkpt>
      <trkpt lat="44.64357" lon="2.93248">
        <ele>1143.6</ele>
        <time>2022-08-05T11:35:42Z</time>
      </trkpt>
      <trkpt lat="44.64357" lon="2.93252">
        <ele>1143.3</ele>
        <time>2022-08-05T11:35:44Z</time>
      </trkpt>
      <trkpt lat="44.64357" lon="2.93254">
        <ele>1143.1</ele>
        <time>2022-08-05T11:35:45Z</time>
      </trkpt>
      <trkpt lat="44.64357" lon="2.93256">
        <ele>1143</ele>
        <time>2022-08-05T11:35:47Z</time>
      </trkpt>
      <trkpt lat="44.64357" lon="2.93259">
        <ele>1143</ele>
        <time>2022-08-05T11:35:48Z</time>
      </trkpt>
      <trkpt lat="44.64357" lon="2.9326">
        <ele>1142.9</ele>
        <time>2022-08-05T11:35:49Z</time>
      </trkpt>
      <trkpt lat="44.64357" lon="2.93261">
        <ele>1142.7</ele>
        <time>2022-08-05T11:35:50Z</time>
      </trkpt>
      <trkpt lat="44.64359" lon="2.93273">
        <ele>1142.6</ele>
        <time>2022-08-05T11:35:57Z</time>
      </trkpt>
      <trkpt lat="44.6436" lon="2.93281">
        <ele>1142.6</ele>
        <time>2022-08-05T11:36:02Z</time>
      </trkpt>
      <trkpt lat="44.64361" lon="2.93283">
        <ele>1142.7</ele>
        <time>2022-08-05T11:36:03Z</time>
      </trkpt>
      <trkpt lat="44.64361" lon="2.93288">
        <ele>1142.6</ele>
        <time>2022-08-05T11:36:06Z</time>
      </trkpt>
      <trkpt lat="44.64361" lon="2.9329">
        <ele>1142.4</ele>
        <time>2022-08-05T11:36:07Z</time>
      </trkpt>
      <trkpt lat="44.64361" lon="2.93293">
        <ele>1142.5</ele>
        <time>2022-08-05T11:36:09Z</time>
      </trkpt>
      <trkpt lat="44.64362" lon="2.93294">
        <ele>1142.6</ele>
        <time>2022-08-05T11:36:10Z</time>
      </trkpt>
      <trkpt lat="44.64363" lon="2.93296">
        <ele>1142.6</ele>
        <time>2022-08-05T11:36:11Z</time>
      </trkpt>
      <trkpt lat="44.64363" lon="2.93299">
        <ele>1142.7</ele>
        <time>2022-08-05T11:36:13Z</time>
      </trkpt>
      <trkpt lat="44.64365" lon="2.93306">
        <ele>1142.8</ele>
        <time>2022-08-05T11:36:17Z</time>
      </trkpt>
      <trkpt lat="44.64365" lon="2.93307">
        <ele>1142.8</ele>
        <time>2022-08-05T11:36:18Z</time>
      </trkpt>
      <trkpt lat="44.64365" lon="2.9331">
        <ele>1142.7</ele>
        <time>2022-08-05T11:36:20Z</time>
      </trkpt>
      <trkpt lat="44.64366" lon="2.93311">
        <ele>1142.9</ele>
        <time>2022-08-05T11:36:21Z</time>
      </trkpt>
      <trkpt lat="44.64367" lon="2.93313">
        <ele>1142.9</ele>
        <time>2022-08-05T11:36:22Z</time>
      </trkpt>
      <trkpt lat="44.64369" lon="2.93323">
        <ele>1143</ele>
        <time>2022-08-05T11:36:30Z</time>
      </trkpt>
      <trkpt lat="44.6437" lon="2.93324">
        <ele>1143</ele>
        <time>2022-08-05T11:36:31Z</time>
      </trkpt>
      <trkpt lat="44.64371" lon="2.93328">
        <ele>1143.1</ele>
        <time>2022-08-05T11:36:34Z</time>
      </trkpt>
      <trkpt lat="44.64373" lon="2.93331">
        <ele>1143.3</ele>
        <time>2022-08-05T11:36:38Z</time>
      </trkpt>
      <trkpt lat="44.64375" lon="2.93334">
        <ele>1143.4</ele>
        <time>2022-08-05T11:36:42Z</time>
      </trkpt>
      <trkpt lat="44.64374" lon="2.93335">
        <ele>1143.4</ele>
        <time>2022-08-05T11:36:43Z</time>
      </trkpt>
      <trkpt lat="44.64373" lon="2.93336">
        <ele>1143.1</ele>
        <time>2022-08-05T11:36:45Z</time>
      </trkpt>
      <trkpt lat="44.64372" lon="2.93337">
        <ele>1142.9</ele>
        <time>2022-08-05T11:36:47Z</time>
      </trkpt>
      <trkpt lat="44.64372" lon="2.93337">
        <ele>1142.9</ele>
        <time>2022-08-05T11:36:48Z</time>
      </trkpt>
      <trkpt lat="44.64371" lon="2.93337">
        <ele>1142.7</ele>
        <time>2022-08-05T11:36:49Z</time>
      </trkpt>
      <trkpt lat="44.64369" lon="2.93336">
        <ele>1142.4</ele>
        <time>2022-08-05T11:36:51Z</time>
      </trkpt>
      <trkpt lat="44.6437" lon="2.93337">
        <ele>1142.5</ele>
        <time>2022-08-05T11:36:58Z</time>
      </trkpt>
      <trkpt lat="44.6437" lon="2.93337">
        <ele>1142.5</ele>
        <time>2022-08-05T11:37:05Z</time>
      </trkpt>
      <trkpt lat="44.6437" lon="2.93336">
        <ele>1142.5</ele>
        <time>2022-08-05T11:37:19Z</time>
      </trkpt>
      <trkpt lat="44.64371" lon="2.93336">
        <ele>1142.8</ele>
        <time>2022-08-05T11:37:25Z</time>
      </trkpt>
      <trkpt lat="44.64374" lon="2.93336">
        <ele>1143.3</ele>
        <time>2022-08-05T11:37:36Z</time>
      </trkpt>
      <trkpt lat="44.64374" lon="2.93336">
        <ele>1143.3</ele>
        <time>2022-08-05T11:37:42Z</time>
      </trkpt>
      <trkpt lat="44.64374" lon="2.93336">
        <ele>1143.3</ele>
        <time>2022-08-05T11:37:43Z</time>
      </trkpt>
      <trkpt lat="44.64374" lon="2.93336">
        <ele>1143.3</ele>
        <time>2022-08-05T11:37:44Z</time>
      </trkpt>
      <trkpt lat="44.64374" lon="2.93336">
        <ele>1143.3</ele>
        <time>2022-08-05T11:37:46Z</time>
      </trkpt>
      <trkpt lat="44.64374" lon="2.93336">
        <ele>1143.3</ele>
        <time>2022-08-05T11:37:47Z</time>
      </trkpt>
      <trkpt lat="44.64374" lon="2.93336">
        <ele>1143.3</ele>
        <time>2022-08-05T11:37:48Z</time>
      </trkpt>
      <trkpt lat="44.64374" lon="2.93336">
        <ele>1143.4</ele>
        <time>2022-08-05T11:37:49Z</time>
      </trkpt>
      <trkpt lat="44.64375" lon="2.93336">
        <ele>1143.4</ele>
        <time>2022-08-05T11:37:50Z</time>
      </trkpt>
      <trkpt lat="44.64375" lon="2.93336">
        <ele>1143.4</ele>
        <time>2022-08-05T11:37:52Z</time>
      </trkpt>
      <trkpt lat="44.64374" lon="2.93336">
        <ele>1143.4</ele>
        <time>2022-08-05T11:37:56Z</time>
      </trkpt>
      <trkpt lat="44.64374" lon="2.93336">
        <ele>1143.3</ele>
        <time>2022-08-05T11:37:58Z</time>
      </trkpt>
      <trkpt lat="44.64373" lon="2.93336">
        <ele>1143.2</ele>
        <time>2022-08-05T11:38:04Z</time>
      </trkpt>
      <trkpt lat="44.64373" lon="2.93335">
        <ele>1143.1</ele>
        <time>2022-08-05T11:38:12Z</time>
      </trkpt>
      <trkpt lat="44.64373" lon="2.93335">
        <ele>1143.1</ele>
        <time>2022-08-05T11:38:13Z</time>
      </trkpt>
      <trkpt lat="44.64373" lon="2.93335">
        <ele>1143.1</ele>
        <time>2022-08-05T11:38:15Z</time>
      </trkpt>
      <trkpt lat="44.64373" lon="2.93335">
        <ele>1143.1</ele>
        <time>2022-08-05T11:38:17Z</time>
      </trkpt>
      <trkpt lat="44.64373" lon="2.93335">
        <ele>1143.1</ele>
        <time>2022-08-05T11:38:18Z</time>
      </trkpt>
      <trkpt lat="44.64373" lon="2.93334">
        <ele>1143.1</ele>
        <time>2022-08-05T11:38:20Z</time>
      </trkpt>
      <trkpt lat="44.64372" lon="2.93334">
        <ele>1143</ele>
        <time>2022-08-05T11:38:23Z</time>
      </trkpt>
      <trkpt lat="44.64372" lon="2.93332">
        <ele>1143</ele>
        <time>2022-08-05T11:38:28Z</time>
      </trkpt>
      <trkpt lat="44.64372" lon="2.93332">
        <ele>1143</ele>
        <time>2022-08-05T11:38:29Z</time>
      </trkpt>
      <trkpt lat="44.64372" lon="2.93332">
        <ele>1143</ele>
        <time>2022-08-05T11:38:30Z</time>
      </trkpt>
      <trkpt lat="44.6437" lon="2.93331">
        <ele>1142.8</ele>
        <time>2022-08-05T11:38:35Z</time>
      </trkpt>
      <trkpt lat="44.6437" lon="2.93331">
        <ele>1142.7</ele>
        <time>2022-08-05T11:38:36Z</time>
      </trkpt>
      <trkpt lat="44.6437" lon="2.93331">
        <ele>1142.7</ele>
        <time>2022-08-05T11:38:37Z</time>
      </trkpt>
      <trkpt lat="44.6437" lon="2.9333">
        <ele>1142.7</ele>
        <time>2022-08-05T11:38:38Z</time>
      </trkpt>
      <trkpt lat="44.64369" lon="2.9333">
        <ele>1142.6</ele>
        <time>2022-08-05T11:38:42Z</time>
      </trkpt>
      <trkpt lat="44.64372" lon="2.93332">
        <ele>1143</ele>
        <time>2022-08-05T11:38:48Z</time>
      </trkpt>
      <trkpt lat="44.64373" lon="2.93333">
        <ele>1143.1</ele>
        <time>2022-08-05T11:38:49Z</time>
      </trkpt>
      <trkpt lat="44.64373" lon="2.93335">
        <ele>1143.2</ele>
        <time>2022-08-05T11:38:51Z</time>
      </trkpt>
      <trkpt lat="44.64375" lon="2.93335">
        <ele>1143.5</ele>
        <time>2022-08-05T11:38:53Z</time>
      </trkpt>
      <trkpt lat="44.64376" lon="2.93335">
        <ele>1143.7</ele>
        <time>2022-08-05T11:38:54Z</time>
      </trkpt>
      <trkpt lat="44.64383" lon="2.93339">
        <ele>1144.7</ele>
        <time>2022-08-05T11:38:59Z</time>
      </trkpt>
      <trkpt lat="44.64384" lon="2.93339">
        <ele>1144.9</ele>
        <time>2022-08-05T11:39:00Z</time>
      </trkpt>
      <trkpt lat="44.64385" lon="2.93339">
        <ele>1145.2</ele>
        <time>2022-08-05T11:39:02Z</time>
      </trkpt>
      <trkpt lat="44.64387" lon="2.9334">
        <ele>1145.5</ele>
        <time>2022-08-05T11:39:04Z</time>
      </trkpt>
      <trkpt lat="44.64391" lon="2.93341">
        <ele>1146</ele>
        <time>2022-08-05T11:39:07Z</time>
      </trkpt>
      <trkpt lat="44.64394" lon="2.93343">
        <ele>1146.4</ele>
        <time>2022-08-05T11:39:09Z</time>
      </trkpt>
      <trkpt lat="44.64398" lon="2.93345">
        <ele>1146.9</ele>
        <time>2022-08-05T11:39:11Z</time>
      </trkpt>
      <trkpt lat="44.64403" lon="2.93347">
        <ele>1147.6</ele>
        <time>2022-08-05T11:39:14Z</time>
      </trkpt>
      <trkpt lat="44.64404" lon="2.93349">
        <ele>1147.6</ele>
        <time>2022-08-05T11:39:17Z</time>
      </trkpt>
      <trkpt lat="44.64404" lon="2.93351">
        <ele>1147.5</ele>
        <time>2022-08-05T11:39:18Z</time>
      </trkpt>
      <trkpt lat="44.64403" lon="2.93354">
        <ele>1147.3</ele>
        <time>2022-08-05T11:39:20Z</time>
      </trkpt>
      <trkpt lat="44.64405" lon="2.93354">
        <ele>1147.6</ele>
        <time>2022-08-05T11:39:25Z</time>
      </trkpt>
      <trkpt lat="44.64409" lon="2.93355">
        <ele>1148.1</ele>
        <time>2022-08-05T11:39:28Z</time>
      </trkpt>
      <trkpt lat="44.64412" lon="2.93356">
        <ele>1148.4</ele>
        <time>2022-08-05T11:39:31Z</time>
      </trkpt>
      <trkpt lat="44.64419" lon="2.93359">
        <ele>1149.4</ele>
        <time>2022-08-05T11:39:38Z</time>
      </trkpt>
      <trkpt lat="44.64426" lon="2.93362">
        <ele>1150.3</ele>
        <time>2022-08-05T11:39:42Z</time>
      </trkpt>
      <trkpt lat="44.64427" lon="2.93362">
        <ele>1150.4</ele>
        <time>2022-08-05T11:39:43Z</time>
      </trkpt>
      <trkpt lat="44.64428" lon="2.93363">
        <ele>1150.6</ele>
        <time>2022-08-05T11:39:44Z</time>
      </trkpt>
      <trkpt lat="44.6443" lon="2.93363">
        <ele>1150.9</ele>
        <time>2022-08-05T11:39:46Z</time>
      </trkpt>
      <trkpt lat="44.64432" lon="2.93361">
        <ele>1151.1</ele>
        <time>2022-08-05T11:39:49Z</time>
      </trkpt>
      <trkpt lat="44.64431" lon="2.93361">
        <ele>1151</ele>
        <time>2022-08-05T11:39:50Z</time>
      </trkpt>
      <trkpt lat="44.64429" lon="2.9336">
        <ele>1150.8</ele>
        <time>2022-08-05T11:39:51Z</time>
      </trkpt>
      <trkpt lat="44.64429" lon="2.93361">
        <ele>1150.7</ele>
        <time>2022-08-05T11:39:52Z</time>
      </trkpt>
      <trkpt lat="44.64429" lon="2.93361">
        <ele>1150.7</ele>
        <time>2022-08-05T11:39:53Z</time>
      </trkpt>
      <trkpt lat="44.64427" lon="2.93363">
        <ele>1150.5</ele>
        <time>2022-08-05T11:39:55Z</time>
      </trkpt>
      <trkpt lat="44.64423" lon="2.93361">
        <ele>1150</ele>
        <time>2022-08-05T11:40:01Z</time>
      </trkpt>
      <trkpt lat="44.64419" lon="2.93361">
        <ele>1149.4</ele>
        <time>2022-08-05T11:40:06Z</time>
      </trkpt>
      <trkpt lat="44.64415" lon="2.93362">
        <ele>1148.7</ele>
        <time>2022-08-05T11:40:10Z</time>
      </trkpt>
      <trkpt lat="44.64414" lon="2.93363">
        <ele>1148.5</ele>
        <time>2022-08-05T11:40:12Z</time>
      </trkpt>
      <trkpt lat="44.64408" lon="2.93361">
        <ele>1147.8</ele>
        <time>2022-08-05T11:40:18Z</time>
      </trkpt>
      <trkpt lat="44.64408" lon="2.9336">
        <ele>1147.7</ele>
        <time>2022-08-05T11:40:20Z</time>
      </trkpt>
      <trkpt lat="44.64408" lon="2.93353">
        <ele>1148</ele>
        <time>2022-08-05T11:40:23Z</time>
      </trkpt>
      <trkpt lat="44.64409" lon="2.93351">
        <ele>1148.2</ele>
        <time>2022-08-05T11:40:25Z</time>
      </trkpt>
      <trkpt lat="44.64409" lon="2.93349">
        <ele>1148.3</ele>
        <time>2022-08-05T11:40:27Z</time>
      </trkpt>
      <trkpt lat="44.64408" lon="2.93347">
        <ele>1148.3</ele>
        <time>2022-08-05T11:40:28Z</time>
      </trkpt>
      <trkpt lat="44.64408" lon="2.93346">
        <ele>1148.2</ele>
        <time>2022-08-05T11:40:29Z</time>
      </trkpt>
      <trkpt lat="44.64407" lon="2.93345">
        <ele>1148.1</ele>
        <time>2022-08-05T11:40:32Z</time>
      </trkpt>
      <trkpt lat="44.64407" lon="2.93344">
        <ele>1148.2</ele>
        <time>2022-08-05T11:40:33Z</time>
      </trkpt>
      <trkpt lat="44.64407" lon="2.93344">
        <ele>1148.3</ele>
        <time>2022-08-05T11:40:35Z</time>
      </trkpt>
      <trkpt lat="44.64408" lon="2.93345">
        <ele>1148.3</ele>
        <time>2022-08-05T11:40:40Z</time>
      </trkpt>
      <trkpt lat="44.64408" lon="2.93345">
        <ele>1148.3</ele>
        <time>2022-08-05T11:40:50Z</time>
      </trkpt>
      <trkpt lat="44.64408" lon="2.93345">
        <ele>1148.3</ele>
        <time>2022-08-05T11:40:58Z</time>
      </trkpt>
      <trkpt lat="44.64407" lon="2.93345">
        <ele>1148.3</ele>
        <time>2022-08-05T11:41:13Z</time>
      </trkpt>
      <trkpt lat="44.6441" lon="2.93348">
        <ele>1148.5</ele>
        <time>2022-08-05T11:41:17Z</time>
      </trkpt>
      <trkpt lat="44.64413" lon="2.93351">
        <ele>1148.8</ele>
        <time>2022-08-05T11:41:19Z</time>
      </trkpt>
      <trkpt lat="44.64416" lon="2.93354">
        <ele>1149.1</ele>
        <time>2022-08-05T11:41:24Z</time>
      </trkpt>
      <trkpt lat="44.64416" lon="2.93354">
        <ele>1149.2</ele>
        <time>2022-08-05T11:41:26Z</time>
      </trkpt>
      <trkpt lat="44.64416" lon="2.93354">
        <ele>1149.2</ele>
        <time>2022-08-05T11:41:27Z</time>
      </trkpt>
      <trkpt lat="44.64417" lon="2.93355">
        <ele>1149.3</ele>
        <time>2022-08-05T11:41:28Z</time>
      </trkpt>
      <trkpt lat="44.64417" lon="2.93355">
        <ele>1149.3</ele>
        <time>2022-08-05T11:41:29Z</time>
      </trkpt>
      <trkpt lat="44.64417" lon="2.93355">
        <ele>1149.3</ele>
        <time>2022-08-05T11:41:30Z</time>
      </trkpt>
      <trkpt lat="44.64418" lon="2.93356">
        <ele>1149.4</ele>
        <time>2022-08-05T11:41:31Z</time>
      </trkpt>
      <trkpt lat="44.64421" lon="2.93359">
        <ele>1149.6</ele>
        <time>2022-08-05T11:41:34Z</time>
      </trkpt>
      <trkpt lat="44.64421" lon="2.9336">
        <ele>1149.7</ele>
        <time>2022-08-05T11:41:35Z</time>
      </trkpt>
      <trkpt lat="44.64422" lon="2.9336">
        <ele>1149.8</ele>
        <time>2022-08-05T11:41:36Z</time>
      </trkpt>
      <trkpt lat="44.64424" lon="2.9336">
        <ele>1150</ele>
        <time>2022-08-05T11:41:37Z</time>
      </trkpt>
      <trkpt lat="44.64427" lon="2.93363">
        <ele>1150.4</ele>
        <time>2022-08-05T11:41:39Z</time>
      </trkpt>
      <trkpt lat="44.6443" lon="2.93366">
        <ele>1150.8</ele>
        <time>2022-08-05T11:41:41Z</time>
      </trkpt>
      <trkpt lat="44.64432" lon="2.93366">
        <ele>1151.1</ele>
        <time>2022-08-05T11:41:42Z</time>
      </trkpt>
      <trkpt lat="44.64434" lon="2.93366">
        <ele>1151.4</ele>
        <time>2022-08-05T11:41:43Z</time>
      </trkpt>
      <trkpt lat="44.64437" lon="2.93365">
        <ele>1151.9</ele>
        <time>2022-08-05T11:41:45Z</time>
      </trkpt>
      <trkpt lat="44.64438" lon="2.93365">
        <ele>1152.1</ele>
        <time>2022-08-05T11:41:49Z</time>
      </trkpt>
      <trkpt lat="44.64438" lon="2.93366">
        <ele>1152</ele>
        <time>2022-08-05T11:41:50Z</time>
      </trkpt>
      <trkpt lat="44.64438" lon="2.93367">
        <ele>1152</ele>
        <time>2022-08-05T11:41:52Z</time>
      </trkpt>
      <trkpt lat="44.64436" lon="2.93368">
        <ele>1151.7</ele>
        <time>2022-08-05T11:41:58Z</time>
      </trkpt>
      <trkpt lat="44.64437" lon="2.93369">
        <ele>1151.9</ele>
        <time>2022-08-05T11:42:03Z</time>
      </trkpt>
      <trkpt lat="44.64438" lon="2.9337">
        <ele>1152</ele>
        <time>2022-08-05T11:42:04Z</time>
      </trkpt>
      <trkpt lat="44.6444" lon="2.93369">
        <ele>1152.3</ele>
        <time>2022-08-05T11:42:07Z</time>
      </trkpt>
      <trkpt lat="44.6444" lon="2.93369">
        <ele>1152.3</ele>
        <time>2022-08-05T11:42:08Z</time>
      </trkpt>
      <trkpt lat="44.64439" lon="2.9337">
        <ele>1152.2</ele>
        <time>2022-08-05T11:42:11Z</time>
      </trkpt>
      <trkpt lat="44.64439" lon="2.9337">
        <ele>1152.2</ele>
        <time>2022-08-05T11:42:14Z</time>
      </trkpt>
      <trkpt lat="44.64439" lon="2.9337">
        <ele>1152.2</ele>
        <time>2022-08-05T11:42:15Z</time>
      </trkpt>
      <trkpt lat="44.64439" lon="2.9337">
        <ele>1152.2</ele>
        <time>2022-08-05T11:42:16Z</time>
      </trkpt>
      <trkpt lat="44.64439" lon="2.9337">
        <ele>1152.2</ele>
        <time>2022-08-05T11:42:17Z</time>
      </trkpt>
      <trkpt lat="44.64439" lon="2.9337">
        <ele>1152.2</ele>
        <time>2022-08-05T11:42:18Z</time>
      </trkpt>
      <trkpt lat="44.64439" lon="2.9337">
        <ele>1152.2</ele>
        <time>2022-08-05T11:42:20Z</time>
      </trkpt>
      <trkpt lat="44.64439" lon="2.93372">
        <ele>1152.2</ele>
        <time>2022-08-05T11:42:29Z</time>
      </trkpt>
      <trkpt lat="44.64439" lon="2.93375">
        <ele>1152.1</ele>
        <time>2022-08-05T11:42:33Z</time>
      </trkpt>
      <trkpt lat="44.64439" lon="2.93377">
        <ele>1152</ele>
        <time>2022-08-05T11:42:35Z</time>
      </trkpt>
      <trkpt lat="44.64438" lon="2.93378">
        <ele>1152</ele>
        <time>2022-08-05T11:42:36Z</time>
      </trkpt>
      <trkpt lat="44.64438" lon="2.93379">
        <ele>1151.9</ele>
        <time>2022-08-05T11:42:39Z</time>
      </trkpt>
      <trkpt lat="44.64438" lon="2.93379">
        <ele>1151.9</ele>
        <time>2022-08-05T11:42:42Z</time>
      </trkpt>
      <trkpt lat="44.64438" lon="2.9338">
        <ele>1151.8</ele>
        <time>2022-08-05T11:42:48Z</time>
      </trkpt>
      <trkpt lat="44.64437" lon="2.93381">
        <ele>1151.8</ele>
        <time>2022-08-05T11:42:51Z</time>
      </trkpt>
      <trkpt lat="44.64436" lon="2.93381">
        <ele>1151.6</ele>
        <time>2022-08-05T11:42:57Z</time>
      </trkpt>
      <trkpt lat="44.64436" lon="2.93382">
        <ele>1151.6</ele>
        <time>2022-08-05T11:42:58Z</time>
      </trkpt>
      <trkpt lat="44.64436" lon="2.93382">
        <ele>1151.6</ele>
        <time>2022-08-05T11:42:59Z</time>
      </trkpt>
      <trkpt lat="44.64436" lon="2.93382">
        <ele>1151.5</ele>
        <time>2022-08-05T11:43:03Z</time>
      </trkpt>
      <trkpt lat="44.64436" lon="2.93382">
        <ele>1151.5</ele>
        <time>2022-08-05T11:43:07Z</time>
      </trkpt>
      <trkpt lat="44.64436" lon="2.93382">
        <ele>1151.5</ele>
        <time>2022-08-05T11:43:08Z</time>
      </trkpt>
      <trkpt lat="44.64436" lon="2.93382">
        <ele>1151.5</ele>
        <time>2022-08-05T11:43:09Z</time>
      </trkpt>
      <trkpt lat="44.64436" lon="2.93382">
        <ele>1151.5</ele>
        <time>2022-08-05T11:43:10Z</time>
      </trkpt>
      <trkpt lat="44.64436" lon="2.93382">
        <ele>1151.5</ele>
        <time>2022-08-05T11:43:11Z</time>
      </trkpt>
      <trkpt lat="44.64436" lon="2.93382">
        <ele>1151.5</ele>
        <time>2022-08-05T11:43:12Z</time>
      </trkpt>
      <trkpt lat="44.64436" lon="2.93382">
        <ele>1151.6</ele>
        <time>2022-08-05T11:43:14Z</time>
      </trkpt>
      <trkpt lat="44.64436" lon="2.93382">
        <ele>1151.6</ele>
        <time>2022-08-05T11:43:16Z</time>
      </trkpt>
      <trkpt lat="44.64436" lon="2.93382">
        <ele>1151.6</ele>
        <time>2022-08-05T11:43:17Z</time>
      </trkpt>
      <trkpt lat="44.64437" lon="2.93381">
        <ele>1151.6</ele>
        <time>2022-08-05T11:43:18Z</time>
      </trkpt>
      <trkpt lat="44.64437" lon="2.93381">
        <ele>1151.7</ele>
        <time>2022-08-05T11:43:19Z</time>
      </trkpt>
      <trkpt lat="44.64444" lon="2.93382">
        <ele>1153</ele>
        <time>2022-08-05T11:43:24Z</time>
      </trkpt>
      <trkpt lat="44.64455" lon="2.93385">
        <ele>1155.3</ele>
        <time>2022-08-05T11:43:30Z</time>
      </trkpt>
      <trkpt lat="44.64454" lon="2.93385">
        <ele>1155.1</ele>
        <time>2022-08-05T11:43:31Z</time>
      </trkpt>
      <trkpt lat="44.64454" lon="2.93385">
        <ele>1155</ele>
        <time>2022-08-05T11:43:32Z</time>
      </trkpt>
      <trkpt lat="44.64453" lon="2.93385">
        <ele>1155</ele>
        <time>2022-08-05T11:43:34Z</time>
      </trkpt>
      <trkpt lat="44.64454" lon="2.93385">
        <ele>1155.1</ele>
        <time>2022-08-05T11:43:35Z</time>
      </trkpt>
      <trkpt lat="44.64455" lon="2.93386">
        <ele>1155.4</ele>
        <time>2022-08-05T11:43:36Z</time>
      </trkpt>
      <trkpt lat="44.64459" lon="2.93389">
        <ele>1156.2</ele>
        <time>2022-08-05T11:43:41Z</time>
      </trkpt>
      <trkpt lat="44.64461" lon="2.93389">
        <ele>1156.5</ele>
        <time>2022-08-05T11:43:43Z</time>
      </trkpt>
      <trkpt lat="44.64462" lon="2.93389">
        <ele>1156.7</ele>
        <time>2022-08-05T11:43:45Z</time>
      </trkpt>
      <trkpt lat="44.64462" lon="2.93388">
        <ele>1156.9</ele>
        <time>2022-08-05T11:43:46Z</time>
      </trkpt>
      <trkpt lat="44.64463" lon="2.93385">
        <ele>1157.2</ele>
        <time>2022-08-05T11:43:49Z</time>
      </trkpt>
      <trkpt lat="44.64463" lon="2.93384">
        <ele>1157.2</ele>
        <time>2022-08-05T11:43:50Z</time>
      </trkpt>
      <trkpt lat="44.64464" lon="2.93384">
        <ele>1157.3</ele>
        <time>2022-08-05T11:43:52Z</time>
      </trkpt>
      <trkpt lat="44.64464" lon="2.93384">
        <ele>1157.3</ele>
        <time>2022-08-05T11:43:54Z</time>
      </trkpt>
      <trkpt lat="44.64464" lon="2.93383">
        <ele>1157.4</ele>
        <time>2022-08-05T11:43:55Z</time>
      </trkpt>
      <trkpt lat="44.64464" lon="2.9338">
        <ele>1157.5</ele>
        <time>2022-08-05T11:43:57Z</time>
      </trkpt>
      <trkpt lat="44.64464" lon="2.93376">
        <ele>1157.5</ele>
        <time>2022-08-05T11:44:00Z</time>
      </trkpt>
      <trkpt lat="44.64465" lon="2.93373">
        <ele>1157.8</ele>
        <time>2022-08-05T11:44:02Z</time>
      </trkpt>
      <trkpt lat="44.64465" lon="2.93372">
        <ele>1157.8</ele>
        <time>2022-08-05T11:44:03Z</time>
      </trkpt>
      <trkpt lat="44.64464" lon="2.9337">
        <ele>1157.6</ele>
        <time>2022-08-05T11:44:04Z</time>
      </trkpt>
      <trkpt lat="44.64463" lon="2.93369">
        <ele>1157.5</ele>
        <time>2022-08-05T11:44:05Z</time>
      </trkpt>
      <trkpt lat="44.64463" lon="2.93367">
        <ele>1157.5</ele>
        <time>2022-08-05T11:44:06Z</time>
      </trkpt>
      <trkpt lat="44.64462" lon="2.93364">
        <ele>1157.4</ele>
        <time>2022-08-05T11:44:08Z</time>
      </trkpt>
      <trkpt lat="44.64461" lon="2.93362">
        <ele>1157.2</ele>
        <time>2022-08-05T11:44:10Z</time>
      </trkpt>
      <trkpt lat="44.6446" lon="2.93359">
        <ele>1156.9</ele>
        <time>2022-08-05T11:44:12Z</time>
      </trkpt>
      <trkpt lat="44.6446" lon="2.93357">
        <ele>1157</ele>
        <time>2022-08-05T11:44:13Z</time>
      </trkpt>
      <trkpt lat="44.6446" lon="2.93355">
        <ele>1157.2</ele>
        <time>2022-08-05T11:44:15Z</time>
      </trkpt>
      <trkpt lat="44.64459" lon="2.93352">
        <ele>1157</ele>
        <time>2022-08-05T11:44:17Z</time>
      </trkpt>
      <trkpt lat="44.6446" lon="2.9335">
        <ele>1157.2</ele>
        <time>2022-08-05T11:44:19Z</time>
      </trkpt>
      <trkpt lat="44.6446" lon="2.93346">
        <ele>1157.4</ele>
        <time>2022-08-05T11:44:21Z</time>
      </trkpt>
      <trkpt lat="44.64459" lon="2.93343">
        <ele>1157.2</ele>
        <time>2022-08-05T11:44:23Z</time>
      </trkpt>
      <trkpt lat="44.64458" lon="2.93342">
        <ele>1157.1</ele>
        <time>2022-08-05T11:44:24Z</time>
      </trkpt>
      <trkpt lat="44.64457" lon="2.93339">
        <ele>1157</ele>
        <time>2022-08-05T11:44:26Z</time>
      </trkpt>
      <trkpt lat="44.64456" lon="2.93335">
        <ele>1156.9</ele>
        <time>2022-08-05T11:44:28Z</time>
      </trkpt>
      <trkpt lat="44.64457" lon="2.93333">
        <ele>1157.1</ele>
        <time>2022-08-05T11:44:29Z</time>
      </trkpt>
      <trkpt lat="44.64459" lon="2.93332">
        <ele>1157.6</ele>
        <time>2022-08-05T11:44:30Z</time>
      </trkpt>
      <trkpt lat="44.6446" lon="2.93331">
        <ele>1158</ele>
        <time>2022-08-05T11:44:31Z</time>
      </trkpt>
      <trkpt lat="44.64461" lon="2.93328">
        <ele>1158.5</ele>
        <time>2022-08-05T11:44:34Z</time>
      </trkpt>
      <trkpt lat="44.64464" lon="2.93326">
        <ele>1159.5</ele>
        <time>2022-08-05T11:44:37Z</time>
      </trkpt>
      <trkpt lat="44.64466" lon="2.93324">
        <ele>1160.2</ele>
        <time>2022-08-05T11:44:40Z</time>
      </trkpt>
      <trkpt lat="44.64466" lon="2.93322">
        <ele>1160.2</ele>
        <time>2022-08-05T11:44:41Z</time>
      </trkpt>
      <trkpt lat="44.64466" lon="2.9332">
        <ele>1160.4</ele>
        <time>2022-08-05T11:44:42Z</time>
      </trkpt>
      <trkpt lat="44.64467" lon="2.93318">
        <ele>1160.7</ele>
        <time>2022-08-05T11:44:44Z</time>
      </trkpt>
      <trkpt lat="44.64467" lon="2.93317">
        <ele>1160.9</ele>
        <time>2022-08-05T11:44:45Z</time>
      </trkpt>
      <trkpt lat="44.64468" lon="2.93314">
        <ele>1161.3</ele>
        <time>2022-08-05T11:44:47Z</time>
      </trkpt>
      <trkpt lat="44.64469" lon="2.93311">
        <ele>1161.8</ele>
        <time>2022-08-05T11:44:49Z</time>
      </trkpt>
      <trkpt lat="44.6447" lon="2.93309">
        <ele>1162.2</ele>
        <time>2022-08-05T11:44:50Z</time>
      </trkpt>
      <trkpt lat="44.64471" lon="2.93308">
        <ele>1162.4</ele>
        <time>2022-08-05T11:44:51Z</time>
      </trkpt>
      <trkpt lat="44.64471" lon="2.93305">
        <ele>1162.8</ele>
        <time>2022-08-05T11:44:53Z</time>
      </trkpt>
      <trkpt lat="44.64471" lon="2.93304">
        <ele>1162.9</ele>
        <time>2022-08-05T11:44:54Z</time>
      </trkpt>
      <trkpt lat="44.64471" lon="2.93302">
        <ele>1163.1</ele>
        <time>2022-08-05T11:44:55Z</time>
      </trkpt>
      <trkpt lat="44.64472" lon="2.93301">
        <ele>1163.4</ele>
        <time>2022-08-05T11:44:56Z</time>
      </trkpt>
      <trkpt lat="44.64471" lon="2.93299">
        <ele>1163.5</ele>
        <time>2022-08-05T11:44:57Z</time>
      </trkpt>
      <trkpt lat="44.64472" lon="2.93297">
        <ele>1163.8</ele>
        <time>2022-08-05T11:44:58Z</time>
      </trkpt>
      <trkpt lat="44.64472" lon="2.93296">
        <ele>1163.9</ele>
        <time>2022-08-05T11:44:59Z</time>
      </trkpt>
      <trkpt lat="44.64471" lon="2.93295">
        <ele>1163.9</ele>
        <time>2022-08-05T11:45:00Z</time>
      </trkpt>
      <trkpt lat="44.64469" lon="2.9329">
        <ele>1163.8</ele>
        <time>2022-08-05T11:45:03Z</time>
      </trkpt>
      <trkpt lat="44.64469" lon="2.93289">
        <ele>1163.9</ele>
        <time>2022-08-05T11:45:04Z</time>
      </trkpt>
      <trkpt lat="44.64469" lon="2.93287">
        <ele>1164.1</ele>
        <time>2022-08-05T11:45:06Z</time>
      </trkpt>
      <trkpt lat="44.64469" lon="2.93285">
        <ele>1164.4</ele>
        <time>2022-08-05T11:45:08Z</time>
      </trkpt>
      <trkpt lat="44.6447" lon="2.93279">
        <ele>1165.2</ele>
        <time>2022-08-05T11:45:12Z</time>
      </trkpt>
      <trkpt lat="44.64468" lon="2.93277">
        <ele>1165</ele>
        <time>2022-08-05T11:45:13Z</time>
      </trkpt>
      <trkpt lat="44.64468" lon="2.93275">
        <ele>1165</ele>
        <time>2022-08-05T11:45:14Z</time>
      </trkpt>
      <trkpt lat="44.64467" lon="2.93272">
        <ele>1165</ele>
        <time>2022-08-05T11:45:17Z</time>
      </trkpt>
      <trkpt lat="44.64467" lon="2.93272">
        <ele>1165.1</ele>
        <time>2022-08-05T11:45:18Z</time>
      </trkpt>
      <trkpt lat="44.64467" lon="2.93272">
        <ele>1165.3</ele>
        <time>2022-08-05T11:45:19Z</time>
      </trkpt>
      <trkpt lat="44.64468" lon="2.93271">
        <ele>1165.5</ele>
        <time>2022-08-05T11:45:20Z</time>
      </trkpt>
      <trkpt lat="44.64468" lon="2.93269">
        <ele>1165.7</ele>
        <time>2022-08-05T11:45:21Z</time>
      </trkpt>
      <trkpt lat="44.64468" lon="2.93268">
        <ele>1165.7</ele>
        <time>2022-08-05T11:45:22Z</time>
      </trkpt>
      <trkpt lat="44.64467" lon="2.93267">
        <ele>1165.6</ele>
        <time>2022-08-05T11:45:23Z</time>
      </trkpt>
      <trkpt lat="44.64466" lon="2.93262">
        <ele>1165.8</ele>
        <time>2022-08-05T11:45:27Z</time>
      </trkpt>
      <trkpt lat="44.64466" lon="2.93261">
        <ele>1165.9</ele>
        <time>2022-08-05T11:45:28Z</time>
      </trkpt>
      <trkpt lat="44.64465" lon="2.93259">
        <ele>1165.9</ele>
        <time>2022-08-05T11:45:30Z</time>
      </trkpt>
      <trkpt lat="44.64465" lon="2.93256">
        <ele>1166.2</ele>
        <time>2022-08-05T11:45:32Z</time>
      </trkpt>
      <trkpt lat="44.64465" lon="2.93253">
        <ele>1166.6</ele>
        <time>2022-08-05T11:45:34Z</time>
      </trkpt>
      <trkpt lat="44.64465" lon="2.93251">
        <ele>1166.7</ele>
        <time>2022-08-05T11:45:36Z</time>
      </trkpt>
      <trkpt lat="44.64463" lon="2.93245">
        <ele>1167.3</ele>
        <time>2022-08-05T11:45:40Z</time>
      </trkpt>
      <trkpt lat="44.64464" lon="2.93243">
        <ele>1167.9</ele>
        <time>2022-08-05T11:45:42Z</time>
      </trkpt>
      <trkpt lat="44.64465" lon="2.93242">
        <ele>1168.2</ele>
        <time>2022-08-05T11:45:43Z</time>
      </trkpt>
      <trkpt lat="44.64465" lon="2.9324">
        <ele>1168.5</ele>
        <time>2022-08-05T11:45:45Z</time>
      </trkpt>
      <trkpt lat="44.64465" lon="2.93237">
        <ele>1169.1</ele>
        <time>2022-08-05T11:45:48Z</time>
      </trkpt>
      <trkpt lat="44.64464" lon="2.93236">
        <ele>1169.2</ele>
        <time>2022-08-05T11:45:49Z</time>
      </trkpt>
      <trkpt lat="44.64464" lon="2.9323">
        <ele>1169.8</ele>
        <time>2022-08-05T11:45:52Z</time>
      </trkpt>
      <trkpt lat="44.64466" lon="2.93228">
        <ele>1170.9</ele>
        <time>2022-08-05T11:45:55Z</time>
      </trkpt>
      <trkpt lat="44.64467" lon="2.93227">
        <ele>1171.5</ele>
        <time>2022-08-05T11:45:59Z</time>
      </trkpt>
      <trkpt lat="44.64465" lon="2.93225">
        <ele>1171.1</ele>
        <time>2022-08-05T11:46:01Z</time>
      </trkpt>
      <trkpt lat="44.64465" lon="2.93223">
        <ele>1171.3</ele>
        <time>2022-08-05T11:46:03Z</time>
      </trkpt>
      <trkpt lat="44.64465" lon="2.93222">
        <ele>1171.7</ele>
        <time>2022-08-05T11:46:04Z</time>
      </trkpt>
      <trkpt lat="44.64465" lon="2.93221">
        <ele>1171.9</ele>
        <time>2022-08-05T11:46:05Z</time>
      </trkpt>
      <trkpt lat="44.64465" lon="2.93216">
        <ele>1172.6</ele>
        <time>2022-08-05T11:46:08Z</time>
      </trkpt>
      <trkpt lat="44.64465" lon="2.93213">
        <ele>1173.1</ele>
        <time>2022-08-05T11:46:11Z</time>
      </trkpt>
      <trkpt lat="44.64467" lon="2.93203">
        <ele>1175.1</ele>
        <time>2022-08-05T11:46:19Z</time>
      </trkpt>
      <trkpt lat="44.64467" lon="2.93201">
        <ele>1175.3</ele>
        <time>2022-08-05T11:46:21Z</time>
      </trkpt>
      <trkpt lat="44.64467" lon="2.93196">
        <ele>1176.2</ele>
        <time>2022-08-05T11:46:25Z</time>
      </trkpt>
      <trkpt lat="44.64468" lon="2.93195">
        <ele>1176.5</ele>
        <time>2022-08-05T11:46:26Z</time>
      </trkpt>
      <trkpt lat="44.64468" lon="2.93193">
        <ele>1176.7</ele>
        <time>2022-08-05T11:46:27Z</time>
      </trkpt>
      <trkpt lat="44.64467" lon="2.93191">
        <ele>1176.9</ele>
        <time>2022-08-05T11:46:28Z</time>
      </trkpt>
      <trkpt lat="44.64467" lon="2.93188">
        <ele>1177.3</ele>
        <time>2022-08-05T11:46:30Z</time>
      </trkpt>
      <trkpt lat="44.64466" lon="2.93187">
        <ele>1177.2</ele>
        <time>2022-08-05T11:46:31Z</time>
      </trkpt>
      <trkpt lat="44.64466" lon="2.93188">
        <ele>1177.1</ele>
        <time>2022-08-05T11:46:32Z</time>
      </trkpt>
      <trkpt lat="44.64467" lon="2.93188">
        <ele>1177.2</ele>
        <time>2022-08-05T11:46:33Z</time>
      </trkpt>
      <trkpt lat="44.64467" lon="2.93188">
        <ele>1177.3</ele>
        <time>2022-08-05T11:46:34Z</time>
      </trkpt>
      <trkpt lat="44.64467" lon="2.93187">
        <ele>1177.5</ele>
        <time>2022-08-05T11:46:37Z</time>
      </trkpt>
      <trkpt lat="44.64467" lon="2.93188">
        <ele>1177.3</ele>
        <time>2022-08-05T11:46:39Z</time>
      </trkpt>
      <trkpt lat="44.64465" lon="2.93186">
        <ele>1177</ele>
        <time>2022-08-05T11:46:44Z</time>
      </trkpt>
      <trkpt lat="44.64466" lon="2.93186">
        <ele>1177.2</ele>
        <time>2022-08-05T11:46:45Z</time>
      </trkpt>
      <trkpt lat="44.64466" lon="2.93186">
        <ele>1177.3</ele>
        <time>2022-08-05T11:46:47Z</time>
      </trkpt>
      <trkpt lat="44.64466" lon="2.93188">
        <ele>1176.8</ele>
        <time>2022-08-05T11:46:54Z</time>
      </trkpt>
      <trkpt lat="44.64465" lon="2.93182">
        <ele>1177.5</ele>
        <time>2022-08-05T11:47:08Z</time>
      </trkpt>
      <trkpt lat="44.64465" lon="2.93181">
        <ele>1177.8</ele>
        <time>2022-08-05T11:47:09Z</time>
      </trkpt>
      <trkpt lat="44.64466" lon="2.9318">
        <ele>1178.1</ele>
        <time>2022-08-05T11:47:11Z</time>
      </trkpt>
      <trkpt lat="44.64467" lon="2.93181">
        <ele>1178.3</ele>
        <time>2022-08-05T11:47:14Z</time>
      </trkpt>
      <trkpt lat="44.64468" lon="2.93182">
        <ele>1178.4</ele>
        <time>2022-08-05T11:47:21Z</time>
      </trkpt>
      <trkpt lat="44.64466" lon="2.93177">
        <ele>1178.5</ele>
        <time>2022-08-05T11:47:27Z</time>
      </trkpt>
      <trkpt lat="44.64467" lon="2.93177">
        <ele>1178.8</ele>
        <time>2022-08-05T11:47:31Z</time>
      </trkpt>
      <trkpt lat="44.64467" lon="2.93177">
        <ele>1178.8</ele>
        <time>2022-08-05T11:47:33Z</time>
      </trkpt>
      <trkpt lat="44.64468" lon="2.93177">
        <ele>1179.1</ele>
        <time>2022-08-05T11:47:37Z</time>
      </trkpt>
      <trkpt lat="44.64468" lon="2.93177">
        <ele>1179.1</ele>
        <time>2022-08-05T11:47:40Z</time>
      </trkpt>
      <trkpt lat="44.64468" lon="2.93177">
        <ele>1179.1</ele>
        <time>2022-08-05T11:47:43Z</time>
      </trkpt>
      <trkpt lat="44.64468" lon="2.93177">
        <ele>1179.1</ele>
        <time>2022-08-05T11:47:45Z</time>
      </trkpt>
      <trkpt lat="44.64468" lon="2.93177">
        <ele>1179.1</ele>
        <time>2022-08-05T11:47:47Z</time>
      </trkpt>
      <trkpt lat="44.64467" lon="2.93164">
        <ele>1180.7</ele>
        <time>2022-08-05T11:47:54Z</time>
      </trkpt>
      <trkpt lat="44.64466" lon="2.9316">
        <ele>1181</ele>
        <time>2022-08-05T11:47:56Z</time>
      </trkpt>
      <trkpt lat="44.64464" lon="2.93153">
        <ele>1181.1</ele>
        <time>2022-08-05T11:47:59Z</time>
      </trkpt>
      <trkpt lat="44.64463" lon="2.93152">
        <ele>1181.1</ele>
        <time>2022-08-05T11:48:00Z</time>
      </trkpt>
      <trkpt lat="44.64462" lon="2.9315">
        <ele>1181.1</ele>
        <time>2022-08-05T11:48:01Z</time>
      </trkpt>
      <trkpt lat="44.64461" lon="2.93148">
        <ele>1181.2</ele>
        <time>2022-08-05T11:48:02Z</time>
      </trkpt>
      <trkpt lat="44.6446" lon="2.93143">
        <ele>1181.4</ele>
        <time>2022-08-05T11:48:06Z</time>
      </trkpt>
      <trkpt lat="44.64458" lon="2.93138">
        <ele>1181.6</ele>
        <time>2022-08-05T11:48:10Z</time>
      </trkpt>
      <trkpt lat="44.64458" lon="2.93138">
        <ele>1181.6</ele>
        <time>2022-08-05T11:48:11Z</time>
      </trkpt>
      <trkpt lat="44.64456" lon="2.93135">
        <ele>1181.3</ele>
        <time>2022-08-05T11:48:12Z</time>
      </trkpt>
      <trkpt lat="44.64455" lon="2.93132">
        <ele>1181.6</ele>
        <time>2022-08-05T11:48:16Z</time>
      </trkpt>
      <trkpt lat="44.64455" lon="2.93131">
        <ele>1181.7</ele>
        <time>2022-08-05T11:48:17Z</time>
      </trkpt>
      <trkpt lat="44.64456" lon="2.93129">
        <ele>1182.1</ele>
        <time>2022-08-05T11:48:19Z</time>
      </trkpt>
      <trkpt lat="44.64457" lon="2.93127">
        <ele>1182.4</ele>
        <time>2022-08-05T11:48:21Z</time>
      </trkpt>
      <trkpt lat="44.64457" lon="2.93125">
        <ele>1182.7</ele>
        <time>2022-08-05T11:48:23Z</time>
      </trkpt>
      <trkpt lat="44.64456" lon="2.93122">
        <ele>1182.8</ele>
        <time>2022-08-05T11:48:25Z</time>
      </trkpt>
      <trkpt lat="44.64455" lon="2.9312">
        <ele>1182.8</ele>
        <time>2022-08-05T11:48:26Z</time>
      </trkpt>
      <trkpt lat="44.64455" lon="2.93118">
        <ele>1183.1</ele>
        <time>2022-08-05T11:48:28Z</time>
      </trkpt>
      <trkpt lat="44.64455" lon="2.93115">
        <ele>1183.3</ele>
        <time>2022-08-05T11:48:29Z</time>
      </trkpt>
      <trkpt lat="44.64455" lon="2.93115">
        <ele>1183.5</ele>
        <time>2022-08-05T11:48:30Z</time>
      </trkpt>
      <trkpt lat="44.64454" lon="2.93113">
        <ele>1183.6</ele>
        <time>2022-08-05T11:48:32Z</time>
      </trkpt>
      <trkpt lat="44.64454" lon="2.93112">
        <ele>1183.6</ele>
        <time>2022-08-05T11:48:33Z</time>
      </trkpt>
      <trkpt lat="44.64453" lon="2.9311">
        <ele>1183.7</ele>
        <time>2022-08-05T11:48:35Z</time>
      </trkpt>
      <trkpt lat="44.64452" lon="2.93107">
        <ele>1183.6</ele>
        <time>2022-08-05T11:48:39Z</time>
      </trkpt>
      <trkpt lat="44.6445" lon="2.93104">
        <ele>1183.5</ele>
        <time>2022-08-05T11:48:41Z</time>
      </trkpt>
      <trkpt lat="44.6445" lon="2.93102">
        <ele>1183.6</ele>
        <time>2022-08-05T11:48:42Z</time>
      </trkpt>
      <trkpt lat="44.64449" lon="2.93099">
        <ele>1183.6</ele>
        <time>2022-08-05T11:48:44Z</time>
      </trkpt>
      <trkpt lat="44.64449" lon="2.93098">
        <ele>1183.8</ele>
        <time>2022-08-05T11:48:45Z</time>
      </trkpt>
      <trkpt lat="44.64449" lon="2.93094">
        <ele>1184</ele>
        <time>2022-08-05T11:48:47Z</time>
      </trkpt>
      <trkpt lat="44.64448" lon="2.93092">
        <ele>1184.1</ele>
        <time>2022-08-05T11:48:48Z</time>
      </trkpt>
      <trkpt lat="44.64448" lon="2.9309">
        <ele>1184.2</ele>
        <time>2022-08-05T11:48:50Z</time>
      </trkpt>
      <trkpt lat="44.64449" lon="2.93087">
        <ele>1184.5</ele>
        <time>2022-08-05T11:48:52Z</time>
      </trkpt>
      <trkpt lat="44.64449" lon="2.93084">
        <ele>1184.7</ele>
        <time>2022-08-05T11:48:54Z</time>
      </trkpt>
      <trkpt lat="44.64449" lon="2.93082">
        <ele>1184.8</ele>
        <time>2022-08-05T11:48:55Z</time>
      </trkpt>
      <trkpt lat="44.64449" lon="2.93079">
        <ele>1185.1</ele>
        <time>2022-08-05T11:48:57Z</time>
      </trkpt>
      <trkpt lat="44.64452" lon="2.93071">
        <ele>1186.1</ele>
        <time>2022-08-05T11:49:02Z</time>
      </trkpt>
      <trkpt lat="44.64452" lon="2.93067">
        <ele>1186.3</ele>
        <time>2022-08-05T11:49:04Z</time>
      </trkpt>
      <trkpt lat="44.64452" lon="2.93066">
        <ele>1186.4</ele>
        <time>2022-08-05T11:49:05Z</time>
      </trkpt>
      <trkpt lat="44.64452" lon="2.93065">
        <ele>1186.5</ele>
        <time>2022-08-05T11:49:06Z</time>
      </trkpt>
      <trkpt lat="44.64453" lon="2.93062">
        <ele>1186.8</ele>
        <time>2022-08-05T11:49:08Z</time>
      </trkpt>
      <trkpt lat="44.64453" lon="2.93059">
        <ele>1187</ele>
        <time>2022-08-05T11:49:10Z</time>
      </trkpt>
      <trkpt lat="44.64453" lon="2.93058">
        <ele>1187</ele>
        <time>2022-08-05T11:49:11Z</time>
      </trkpt>
      <trkpt lat="44.64453" lon="2.93056">
        <ele>1187.3</ele>
        <time>2022-08-05T11:49:13Z</time>
      </trkpt>
      <trkpt lat="44.64454" lon="2.93051">
        <ele>1187.3</ele>
        <time>2022-08-05T11:49:16Z</time>
      </trkpt>
      <trkpt lat="44.64453" lon="2.93044">
        <ele>1187.3</ele>
        <time>2022-08-05T11:49:21Z</time>
      </trkpt>
      <trkpt lat="44.64454" lon="2.93043">
        <ele>1187.3</ele>
        <time>2022-08-05T11:49:22Z</time>
      </trkpt>
      <trkpt lat="44.64454" lon="2.93042">
        <ele>1187.3</ele>
        <time>2022-08-05T11:49:23Z</time>
      </trkpt>
      <trkpt lat="44.64455" lon="2.93039">
        <ele>1187.5</ele>
        <time>2022-08-05T11:49:25Z</time>
      </trkpt>
      <trkpt lat="44.64457" lon="2.93037">
        <ele>1187.7</ele>
        <time>2022-08-05T11:49:27Z</time>
      </trkpt>
      <trkpt lat="44.64458" lon="2.93031">
        <ele>1188</ele>
        <time>2022-08-05T11:49:31Z</time>
      </trkpt>
      <trkpt lat="44.64458" lon="2.9303">
        <ele>1188</ele>
        <time>2022-08-05T11:49:32Z</time>
      </trkpt>
      <trkpt lat="44.64459" lon="2.93029">
        <ele>1188</ele>
        <time>2022-08-05T11:49:33Z</time>
      </trkpt>
      <trkpt lat="44.64459" lon="2.93028">
        <ele>1188</ele>
        <time>2022-08-05T11:49:34Z</time>
      </trkpt>
      <trkpt lat="44.64461" lon="2.93025">
        <ele>1188.3</ele>
        <time>2022-08-05T11:49:38Z</time>
      </trkpt>
      <trkpt lat="44.64461" lon="2.93025">
        <ele>1188.3</ele>
        <time>2022-08-05T11:49:40Z</time>
      </trkpt>
      <trkpt lat="44.64461" lon="2.93025">
        <ele>1188.4</ele>
        <time>2022-08-05T11:49:43Z</time>
      </trkpt>
      <trkpt lat="44.64459" lon="2.93026">
        <ele>1188.1</ele>
        <time>2022-08-05T11:49:48Z</time>
      </trkpt>
      <trkpt lat="44.6446" lon="2.93026">
        <ele>1188.1</ele>
        <time>2022-08-05T11:49:49Z</time>
      </trkpt>
      <trkpt lat="44.64463" lon="2.93026">
        <ele>1188.6</ele>
        <time>2022-08-05T11:49:55Z</time>
      </trkpt>
      <trkpt lat="44.64465" lon="2.93025">
        <ele>1188.9</ele>
        <time>2022-08-05T11:49:58Z</time>
      </trkpt>
      <trkpt lat="44.64466" lon="2.93022">
        <ele>1188.9</ele>
        <time>2022-08-05T11:50:01Z</time>
      </trkpt>
      <trkpt lat="44.64467" lon="2.93021">
        <ele>1189</ele>
        <time>2022-08-05T11:50:03Z</time>
      </trkpt>
      <trkpt lat="44.64467" lon="2.9302">
        <ele>1189</ele>
        <time>2022-08-05T11:50:05Z</time>
      </trkpt>
      <trkpt lat="44.64466" lon="2.93019">
        <ele>1188.9</ele>
        <time>2022-08-05T11:50:07Z</time>
      </trkpt>
      <trkpt lat="44.64467" lon="2.93021">
        <ele>1189</ele>
        <time>2022-08-05T11:50:15Z</time>
      </trkpt>
      <trkpt lat="44.64467" lon="2.93021">
        <ele>1189.1</ele>
        <time>2022-08-05T11:50:21Z</time>
      </trkpt>
      <trkpt lat="44.64471" lon="2.9302">
        <ele>1189.5</ele>
        <time>2022-08-05T11:50:23Z</time>
      </trkpt>
      <trkpt lat="44.64473" lon="2.93019">
        <ele>1189.7</ele>
        <time>2022-08-05T11:50:24Z</time>
      </trkpt>
      <trkpt lat="44.64475" lon="2.93019">
        <ele>1189.9</ele>
        <time>2022-08-05T11:50:25Z</time>
      </trkpt>
      <trkpt lat="44.64477" lon="2.93019">
        <ele>1190.1</ele>
        <time>2022-08-05T11:50:26Z</time>
      </trkpt>
      <trkpt lat="44.64479" lon="2.9302">
        <ele>1190.2</ele>
        <time>2022-08-05T11:50:27Z</time>
      </trkpt>
      <trkpt lat="44.64481" lon="2.93021">
        <ele>1190.4</ele>
        <time>2022-08-05T11:50:28Z</time>
      </trkpt>
      <trkpt lat="44.64485" lon="2.93022">
        <ele>1190.7</ele>
        <time>2022-08-05T11:50:30Z</time>
      </trkpt>
      <trkpt lat="44.64488" lon="2.93024">
        <ele>1191</ele>
        <time>2022-08-05T11:50:32Z</time>
      </trkpt>
      <trkpt lat="44.6449" lon="2.93025">
        <ele>1191.2</ele>
        <time>2022-08-05T11:50:35Z</time>
      </trkpt>
      <trkpt lat="44.64491" lon="2.93026">
        <ele>1191.3</ele>
        <time>2022-08-05T11:50:36Z</time>
      </trkpt>
      <trkpt lat="44.64492" lon="2.93028">
        <ele>1191.5</ele>
        <time>2022-08-05T11:50:38Z</time>
      </trkpt>
      <trkpt lat="44.64492" lon="2.93028">
        <ele>1191.4</ele>
        <time>2022-08-05T11:50:41Z</time>
      </trkpt>
      <trkpt lat="44.64491" lon="2.93029">
        <ele>1191.4</ele>
        <time>2022-08-05T11:50:42Z</time>
      </trkpt>
      <trkpt lat="44.64492" lon="2.93032">
        <ele>1191.5</ele>
        <time>2022-08-05T11:50:44Z</time>
      </trkpt>
      <trkpt lat="44.64491" lon="2.93031">
        <ele>1191.4</ele>
        <time>2022-08-05T11:50:46Z</time>
      </trkpt>
      <trkpt lat="44.64492" lon="2.93031">
        <ele>1191.5</ele>
        <time>2022-08-05T11:50:48Z</time>
      </trkpt>
      <trkpt lat="44.64493" lon="2.93031">
        <ele>1191.6</ele>
        <time>2022-08-05T11:50:49Z</time>
      </trkpt>
      <trkpt lat="44.64494" lon="2.93032">
        <ele>1191.7</ele>
        <time>2022-08-05T11:50:50Z</time>
      </trkpt>
      <trkpt lat="44.64496" lon="2.93033">
        <ele>1191.9</ele>
        <time>2022-08-05T11:50:52Z</time>
      </trkpt>
      <trkpt lat="44.64497" lon="2.93034">
        <ele>1192</ele>
        <time>2022-08-05T11:50:53Z</time>
      </trkpt>
      <trkpt lat="44.64499" lon="2.93034">
        <ele>1192.1</ele>
        <time>2022-08-05T11:50:54Z</time>
      </trkpt>
      <trkpt lat="44.645" lon="2.93034">
        <ele>1192.2</ele>
        <time>2022-08-05T11:50:55Z</time>
      </trkpt>
      <trkpt lat="44.645" lon="2.93035">
        <ele>1192.3</ele>
        <time>2022-08-05T11:50:58Z</time>
      </trkpt>
      <trkpt lat="44.645" lon="2.93035">
        <ele>1192.3</ele>
        <time>2022-08-05T11:51:00Z</time>
      </trkpt>
      <trkpt lat="44.645" lon="2.93038">
        <ele>1192.4</ele>
        <time>2022-08-05T11:51:05Z</time>
      </trkpt>
      <trkpt lat="44.64502" lon="2.93039">
        <ele>1192.5</ele>
        <time>2022-08-05T11:51:08Z</time>
      </trkpt>
      <trkpt lat="44.64503" lon="2.9304">
        <ele>1192.5</ele>
        <time>2022-08-05T11:51:09Z</time>
      </trkpt>
      <trkpt lat="44.64511" lon="2.93043">
        <ele>1193</ele>
        <time>2022-08-05T11:51:14Z</time>
      </trkpt>
      <trkpt lat="44.64512" lon="2.93044">
        <ele>1193</ele>
        <time>2022-08-05T11:51:15Z</time>
      </trkpt>
      <trkpt lat="44.64513" lon="2.93044">
        <ele>1193.1</ele>
        <time>2022-08-05T11:51:16Z</time>
      </trkpt>
      <trkpt lat="44.64517" lon="2.93045">
        <ele>1193.2</ele>
        <time>2022-08-05T11:51:18Z</time>
      </trkpt>
      <trkpt lat="44.64518" lon="2.93046">
        <ele>1193.3</ele>
        <time>2022-08-05T11:51:19Z</time>
      </trkpt>
      <trkpt lat="44.6452" lon="2.93047">
        <ele>1193.4</ele>
        <time>2022-08-05T11:51:21Z</time>
      </trkpt>
      <trkpt lat="44.6452" lon="2.93048">
        <ele>1193.4</ele>
        <time>2022-08-05T11:51:22Z</time>
      </trkpt>
      <trkpt lat="44.64524" lon="2.93054">
        <ele>1193.8</ele>
        <time>2022-08-05T11:51:26Z</time>
      </trkpt>
      <trkpt lat="44.64525" lon="2.93056">
        <ele>1193.9</ele>
        <time>2022-08-05T11:51:28Z</time>
      </trkpt>
      <trkpt lat="44.64527" lon="2.9306">
        <ele>1194.1</ele>
        <time>2022-08-05T11:51:30Z</time>
      </trkpt>
      <trkpt lat="44.64527" lon="2.93063">
        <ele>1194.2</ele>
        <time>2022-08-05T11:51:32Z</time>
      </trkpt>
      <trkpt lat="44.64524" lon="2.93064">
        <ele>1194.1</ele>
        <time>2022-08-05T11:51:34Z</time>
      </trkpt>
      <trkpt lat="44.64522" lon="2.93065">
        <ele>1194.1</ele>
        <time>2022-08-05T11:51:35Z</time>
      </trkpt>
      <trkpt lat="44.64522" lon="2.93066">
        <ele>1194.1</ele>
        <time>2022-08-05T11:51:36Z</time>
      </trkpt>
      <trkpt lat="44.64523" lon="2.93067">
        <ele>1194.1</ele>
        <time>2022-08-05T11:51:37Z</time>
      </trkpt>
      <trkpt lat="44.64524" lon="2.93067">
        <ele>1194.2</ele>
        <time>2022-08-05T11:51:38Z</time>
      </trkpt>
      <trkpt lat="44.64524" lon="2.93068">
        <ele>1194.3</ele>
        <time>2022-08-05T11:51:39Z</time>
      </trkpt>
      <trkpt lat="44.64525" lon="2.9307">
        <ele>1194.4</ele>
        <time>2022-08-05T11:51:41Z</time>
      </trkpt>
      <trkpt lat="44.64526" lon="2.93072">
        <ele>1194.5</ele>
        <time>2022-08-05T11:51:42Z</time>
      </trkpt>
      <trkpt lat="44.64526" lon="2.93075">
        <ele>1194.6</ele>
        <time>2022-08-05T11:51:44Z</time>
      </trkpt>
      <trkpt lat="44.64528" lon="2.93079">
        <ele>1194.9</ele>
        <time>2022-08-05T11:51:47Z</time>
      </trkpt>
      <trkpt lat="44.64529" lon="2.93083">
        <ele>1195</ele>
        <time>2022-08-05T11:51:49Z</time>
      </trkpt>
      <trkpt lat="44.64532" lon="2.93095">
        <ele>1195.2</ele>
        <time>2022-08-05T11:51:55Z</time>
      </trkpt>
      <trkpt lat="44.64532" lon="2.93096">
        <ele>1195.3</ele>
        <time>2022-08-05T11:51:56Z</time>
      </trkpt>
      <trkpt lat="44.64534" lon="2.93102">
        <ele>1195.5</ele>
        <time>2022-08-05T11:52:00Z</time>
      </trkpt>
      <trkpt lat="44.64535" lon="2.93107">
        <ele>1195.7</ele>
        <time>2022-08-05T11:52:02Z</time>
      </trkpt>
      <trkpt lat="44.64535" lon="2.93107">
        <ele>1195.7</ele>
        <time>2022-08-05T11:52:04Z</time>
      </trkpt>
      <trkpt lat="44.64535" lon="2.93108">
        <ele>1195.7</ele>
        <time>2022-08-05T11:52:05Z</time>
      </trkpt>
      <trkpt lat="44.64538" lon="2.93111">
        <ele>1196.1</ele>
        <time>2022-08-05T11:52:08Z</time>
      </trkpt>
      <trkpt lat="44.64539" lon="2.93112">
        <ele>1196.3</ele>
        <time>2022-08-05T11:52:09Z</time>
      </trkpt>
      <trkpt lat="44.64543" lon="2.93115">
        <ele>1196.7</ele>
        <time>2022-08-05T11:52:12Z</time>
      </trkpt>
      <trkpt lat="44.64544" lon="2.93117">
        <ele>1196.9</ele>
        <time>2022-08-05T11:52:14Z</time>
      </trkpt>
      <trkpt lat="44.64544" lon="2.93118">
        <ele>1196.9</ele>
        <time>2022-08-05T11:52:15Z</time>
      </trkpt>
      <trkpt lat="44.64544" lon="2.93119">
        <ele>1197</ele>
        <time>2022-08-05T11:52:16Z</time>
      </trkpt>
      <trkpt lat="44.64545" lon="2.93121">
        <ele>1197.1</ele>
        <time>2022-08-05T11:52:18Z</time>
      </trkpt>
      <trkpt lat="44.64548" lon="2.93124">
        <ele>1197.6</ele>
        <time>2022-08-05T11:52:21Z</time>
      </trkpt>
      <trkpt lat="44.6455" lon="2.93125">
        <ele>1197.8</ele>
        <time>2022-08-05T11:52:22Z</time>
      </trkpt>
      <trkpt lat="44.64553" lon="2.9313">
        <ele>1198.3</ele>
        <time>2022-08-05T11:52:28Z</time>
      </trkpt>
      <trkpt lat="44.64553" lon="2.9313">
        <ele>1198.4</ele>
        <time>2022-08-05T11:52:29Z</time>
      </trkpt>
      <trkpt lat="44.64555" lon="2.93132">
        <ele>1198.6</ele>
        <time>2022-08-05T11:52:31Z</time>
      </trkpt>
      <trkpt lat="44.6456" lon="2.93137">
        <ele>1199.2</ele>
        <time>2022-08-05T11:52:35Z</time>
      </trkpt>
      <trkpt lat="44.64563" lon="2.93143">
        <ele>1199.6</ele>
        <time>2022-08-05T11:52:39Z</time>
      </trkpt>
      <trkpt lat="44.64563" lon="2.93145">
        <ele>1199.6</ele>
        <time>2022-08-05T11:52:40Z</time>
      </trkpt>
      <trkpt lat="44.64566" lon="2.93159">
        <ele>1200.2</ele>
        <time>2022-08-05T11:52:46Z</time>
      </trkpt>
      <trkpt lat="44.64566" lon="2.93161">
        <ele>1200.3</ele>
        <time>2022-08-05T11:52:47Z</time>
      </trkpt>
      <trkpt lat="44.64567" lon="2.93163">
        <ele>1200.5</ele>
        <time>2022-08-05T11:52:48Z</time>
      </trkpt>
      <trkpt lat="44.6457" lon="2.93169">
        <ele>1201.1</ele>
        <time>2022-08-05T11:52:52Z</time>
      </trkpt>
      <trkpt lat="44.64574" lon="2.93178">
        <ele>1202</ele>
        <time>2022-08-05T11:52:59Z</time>
      </trkpt>
      <trkpt lat="44.64579" lon="2.93182">
        <ele>1202.8</ele>
        <time>2022-08-05T11:53:02Z</time>
      </trkpt>
      <trkpt lat="44.64582" lon="2.93183">
        <ele>1203.4</ele>
        <time>2022-08-05T11:53:05Z</time>
      </trkpt>
      <trkpt lat="44.64584" lon="2.93185">
        <ele>1203.7</ele>
        <time>2022-08-05T11:53:07Z</time>
      </trkpt>
      <trkpt lat="44.64587" lon="2.93188">
        <ele>1204.3</ele>
        <time>2022-08-05T11:53:10Z</time>
      </trkpt>
      <trkpt lat="44.64589" lon="2.9319">
        <ele>1204.6</ele>
        <time>2022-08-05T11:53:12Z</time>
      </trkpt>
      <trkpt lat="44.6459" lon="2.93191">
        <ele>1204.8</ele>
        <time>2022-08-05T11:53:13Z</time>
      </trkpt>
      <trkpt lat="44.64592" lon="2.93192">
        <ele>1205.1</ele>
        <time>2022-08-05T11:53:16Z</time>
      </trkpt>
      <trkpt lat="44.64593" lon="2.93194">
        <ele>1205.4</ele>
        <time>2022-08-05T11:53:18Z</time>
      </trkpt>
      <trkpt lat="44.64595" lon="2.93197">
        <ele>1205.8</ele>
        <time>2022-08-05T11:53:21Z</time>
      </trkpt>
      <trkpt lat="44.64598" lon="2.93199">
        <ele>1206.4</ele>
        <time>2022-08-05T11:53:24Z</time>
      </trkpt>
      <trkpt lat="44.646" lon="2.93205">
        <ele>1206.9</ele>
        <time>2022-08-05T11:53:29Z</time>
      </trkpt>
      <trkpt lat="44.64605" lon="2.93213">
        <ele>1208.2</ele>
        <time>2022-08-05T11:53:36Z</time>
      </trkpt>
      <trkpt lat="44.64605" lon="2.93214">
        <ele>1208.4</ele>
        <time>2022-08-05T11:53:37Z</time>
      </trkpt>
      <trkpt lat="44.64611" lon="2.9322">
        <ele>1209.9</ele>
        <time>2022-08-05T11:53:43Z</time>
      </trkpt>
      <trkpt lat="44.64612" lon="2.93221">
        <ele>1210.1</ele>
        <time>2022-08-05T11:53:45Z</time>
      </trkpt>
      <trkpt lat="44.64613" lon="2.93224">
        <ele>1210.5</ele>
        <time>2022-08-05T11:53:49Z</time>
      </trkpt>
      <trkpt lat="44.64614" lon="2.93224">
        <ele>1210.5</ele>
        <time>2022-08-05T11:53:50Z</time>
      </trkpt>
      <trkpt lat="44.64614" lon="2.93225">
        <ele>1210.7</ele>
        <time>2022-08-05T11:53:51Z</time>
      </trkpt>
      <trkpt lat="44.64614" lon="2.93227">
        <ele>1210.7</ele>
        <time>2022-08-05T11:53:52Z</time>
      </trkpt>
      <trkpt lat="44.64614" lon="2.93227">
        <ele>1210.8</ele>
        <time>2022-08-05T11:53:53Z</time>
      </trkpt>
      <trkpt lat="44.64614" lon="2.93227">
        <ele>1210.8</ele>
        <time>2022-08-05T11:53:54Z</time>
      </trkpt>
      <trkpt lat="44.64615" lon="2.93227">
        <ele>1210.8</ele>
        <time>2022-08-05T11:53:55Z</time>
      </trkpt>
      <trkpt lat="44.64615" lon="2.93228">
        <ele>1210.9</ele>
        <time>2022-08-05T11:53:56Z</time>
      </trkpt>
      <trkpt lat="44.64615" lon="2.93229">
        <ele>1211</ele>
        <time>2022-08-05T11:53:57Z</time>
      </trkpt>
      <trkpt lat="44.64615" lon="2.93229">
        <ele>1210.9</ele>
        <time>2022-08-05T11:53:58Z</time>
      </trkpt>
      <trkpt lat="44.64615" lon="2.93229">
        <ele>1211</ele>
        <time>2022-08-05T11:53:59Z</time>
      </trkpt>
      <trkpt lat="44.64615" lon="2.9323">
        <ele>1211.1</ele>
        <time>2022-08-05T11:54:00Z</time>
      </trkpt>
      <trkpt lat="44.64614" lon="2.93231">
        <ele>1210.8</ele>
        <time>2022-08-05T11:54:02Z</time>
      </trkpt>
      <trkpt lat="44.64612" lon="2.93232">
        <ele>1210.6</ele>
        <time>2022-08-05T11:54:06Z</time>
      </trkpt>
      <trkpt lat="44.64612" lon="2.93233">
        <ele>1210.6</ele>
        <time>2022-08-05T11:54:07Z</time>
      </trkpt>
      <trkpt lat="44.64612" lon="2.93233">
        <ele>1210.5</ele>
        <time>2022-08-05T11:54:15Z</time>
      </trkpt>
      <trkpt lat="44.64612" lon="2.93233">
        <ele>1210.5</ele>
        <time>2022-08-05T11:54:17Z</time>
      </trkpt>
      <trkpt lat="44.64612" lon="2.93233">
        <ele>1210.5</ele>
        <time>2022-08-05T11:54:20Z</time>
      </trkpt>
      <trkpt lat="44.64611" lon="2.93235">
        <ele>1210.5</ele>
        <time>2022-08-05T11:54:26Z</time>
      </trkpt>
      <trkpt lat="44.64606" lon="2.9324">
        <ele>1209.4</ele>
        <time>2022-08-05T11:54:34Z</time>
      </trkpt>
      <trkpt lat="44.64607" lon="2.93242">
        <ele>1209.7</ele>
        <time>2022-08-05T11:54:37Z</time>
      </trkpt>
      <trkpt lat="44.64608" lon="2.93244">
        <ele>1210</ele>
        <time>2022-08-05T11:54:42Z</time>
      </trkpt>
      <trkpt lat="44.64608" lon="2.93244">
        <ele>1210.1</ele>
        <time>2022-08-05T11:54:46Z</time>
      </trkpt>
      <trkpt lat="44.64609" lon="2.93248">
        <ele>1210.3</ele>
        <time>2022-08-05T11:54:49Z</time>
      </trkpt>
      <trkpt lat="44.64608" lon="2.93251">
        <ele>1210.4</ele>
        <time>2022-08-05T11:54:51Z</time>
      </trkpt>
      <trkpt lat="44.64609" lon="2.93255">
        <ele>1210.8</ele>
        <time>2022-08-05T11:54:53Z</time>
      </trkpt>
      <trkpt lat="44.64608" lon="2.93257">
        <ele>1210.7</ele>
        <time>2022-08-05T11:54:54Z</time>
      </trkpt>
      <trkpt lat="44.64608" lon="2.93262">
        <ele>1210.9</ele>
        <time>2022-08-05T11:54:58Z</time>
      </trkpt>
      <trkpt lat="44.64609" lon="2.93263">
        <ele>1211.2</ele>
        <time>2022-08-05T11:54:59Z</time>
      </trkpt>
      <trkpt lat="44.6461" lon="2.93267">
        <ele>1211.8</ele>
        <time>2022-08-05T11:55:02Z</time>
      </trkpt>
      <trkpt lat="44.6461" lon="2.93268">
        <ele>1212</ele>
        <time>2022-08-05T11:55:03Z</time>
      </trkpt>
      <trkpt lat="44.6461" lon="2.9327">
        <ele>1212.1</ele>
        <time>2022-08-05T11:55:04Z</time>
      </trkpt>
      <trkpt lat="44.6461" lon="2.93271">
        <ele>1212.1</ele>
        <time>2022-08-05T11:55:05Z</time>
      </trkpt>
      <trkpt lat="44.64609" lon="2.93275">
        <ele>1212.1</ele>
        <time>2022-08-05T11:55:09Z</time>
      </trkpt>
      <trkpt lat="44.64609" lon="2.93277">
        <ele>1212.4</ele>
        <time>2022-08-05T11:55:11Z</time>
      </trkpt>
      <trkpt lat="44.64609" lon="2.93278">
        <ele>1212.4</ele>
        <time>2022-08-05T11:55:12Z</time>
      </trkpt>
      <trkpt lat="44.64609" lon="2.9328">
        <ele>1212.4</ele>
        <time>2022-08-05T11:55:13Z</time>
      </trkpt>
      <trkpt lat="44.64609" lon="2.93281">
        <ele>1212.5</ele>
        <time>2022-08-05T11:55:14Z</time>
      </trkpt>
      <trkpt lat="44.64609" lon="2.93283">
        <ele>1212.7</ele>
        <time>2022-08-05T11:55:15Z</time>
      </trkpt>
      <trkpt lat="44.6461" lon="2.93289">
        <ele>1213.4</ele>
        <time>2022-08-05T11:55:20Z</time>
      </trkpt>
      <trkpt lat="44.6461" lon="2.93301">
        <ele>1214.1</ele>
        <time>2022-08-05T11:55:28Z</time>
      </trkpt>
      <trkpt lat="44.64611" lon="2.93304">
        <ele>1214.7</ele>
        <time>2022-08-05T11:55:32Z</time>
      </trkpt>
      <trkpt lat="44.64611" lon="2.93306">
        <ele>1215</ele>
        <time>2022-08-05T11:55:34Z</time>
      </trkpt>
      <trkpt lat="44.64613" lon="2.93313">
        <ele>1216.2</ele>
        <time>2022-08-05T11:55:40Z</time>
      </trkpt>
      <trkpt lat="44.64613" lon="2.93314">
        <ele>1216.5</ele>
        <time>2022-08-05T11:55:41Z</time>
      </trkpt>
      <trkpt lat="44.64615" lon="2.93316">
        <ele>1217.1</ele>
        <time>2022-08-05T11:55:43Z</time>
      </trkpt>
      <trkpt lat="44.64615" lon="2.93317">
        <ele>1217.2</ele>
        <time>2022-08-05T11:55:44Z</time>
      </trkpt>
      <trkpt lat="44.64616" lon="2.93321">
        <ele>1218</ele>
        <time>2022-08-05T11:55:47Z</time>
      </trkpt>
      <trkpt lat="44.64618" lon="2.93328">
        <ele>1219.3</ele>
        <time>2022-08-05T11:55:52Z</time>
      </trkpt>
      <trkpt lat="44.64618" lon="2.93329">
        <ele>1219.5</ele>
        <time>2022-08-05T11:55:53Z</time>
      </trkpt>
      <trkpt lat="44.64616" lon="2.93335">
        <ele>1219.1</ele>
        <time>2022-08-05T11:55:58Z</time>
      </trkpt>
      <trkpt lat="44.64615" lon="2.93339">
        <ele>1218.6</ele>
        <time>2022-08-05T11:56:01Z</time>
      </trkpt>
      <trkpt lat="44.64615" lon="2.93341">
        <ele>1218.8</ele>
        <time>2022-08-05T11:56:04Z</time>
      </trkpt>
      <trkpt lat="44.64614" lon="2.93346">
        <ele>1218.5</ele>
        <time>2022-08-05T11:56:09Z</time>
      </trkpt>
      <trkpt lat="44.64614" lon="2.93346">
        <ele>1218.4</ele>
        <time>2022-08-05T11:56:10Z</time>
      </trkpt>
      <trkpt lat="44.64614" lon="2.93347">
        <ele>1218.6</ele>
        <time>2022-08-05T11:56:11Z</time>
      </trkpt>
      <trkpt lat="44.64616" lon="2.93352">
        <ele>1219.6</ele>
        <time>2022-08-05T11:56:15Z</time>
      </trkpt>
      <trkpt lat="44.64617" lon="2.93355">
        <ele>1220</ele>
        <time>2022-08-05T11:56:17Z</time>
      </trkpt>
      <trkpt lat="44.64617" lon="2.93356">
        <ele>1220</ele>
        <time>2022-08-05T11:56:18Z</time>
      </trkpt>
      <trkpt lat="44.64616" lon="2.93361">
        <ele>1220</ele>
        <time>2022-08-05T11:56:21Z</time>
      </trkpt>
      <trkpt lat="44.64618" lon="2.93365">
        <ele>1220.8</ele>
        <time>2022-08-05T11:56:24Z</time>
      </trkpt>
      <trkpt lat="44.64623" lon="2.93375">
        <ele>1222.6</ele>
        <time>2022-08-05T11:56:32Z</time>
      </trkpt>
      <trkpt lat="44.64623" lon="2.93376">
        <ele>1222.7</ele>
        <time>2022-08-05T11:56:33Z</time>
      </trkpt>
      <trkpt lat="44.64623" lon="2.93378">
        <ele>1222.5</ele>
        <time>2022-08-05T11:56:34Z</time>
      </trkpt>
      <trkpt lat="44.64622" lon="2.9338">
        <ele>1222.4</ele>
        <time>2022-08-05T11:56:36Z</time>
      </trkpt>
      <trkpt lat="44.64622" lon="2.93381">
        <ele>1222.4</ele>
        <time>2022-08-05T11:56:37Z</time>
      </trkpt>
      <trkpt lat="44.64625" lon="2.93386">
        <ele>1223.4</ele>
        <time>2022-08-05T11:56:42Z</time>
      </trkpt>
      <trkpt lat="44.64626" lon="2.93387">
        <ele>1223.8</ele>
        <time>2022-08-05T11:56:44Z</time>
      </trkpt>
      <trkpt lat="44.64627" lon="2.93388">
        <ele>1224.1</ele>
        <time>2022-08-05T11:56:45Z</time>
      </trkpt>
      <trkpt lat="44.64627" lon="2.93388">
        <ele>1224.3</ele>
        <time>2022-08-05T11:56:47Z</time>
      </trkpt>
      <trkpt lat="44.64627" lon="2.93388">
        <ele>1224.2</ele>
        <time>2022-08-05T11:56:48Z</time>
      </trkpt>
      <trkpt lat="44.64628" lon="2.93388">
        <ele>1224.5</ele>
        <time>2022-08-05T11:56:49Z</time>
      </trkpt>
      <trkpt lat="44.6463" lon="2.93388">
        <ele>1225.5</ele>
        <time>2022-08-05T11:56:51Z</time>
      </trkpt>
      <trkpt lat="44.64631" lon="2.93395">
        <ele>1226</ele>
        <time>2022-08-05T11:56:55Z</time>
      </trkpt>
      <trkpt lat="44.64633" lon="2.93398">
        <ele>1226.5</ele>
        <time>2022-08-05T11:56:57Z</time>
      </trkpt>
      <trkpt lat="44.64633" lon="2.93398">
        <ele>1226.7</ele>
        <time>2022-08-05T11:56:58Z</time>
      </trkpt>
      <trkpt lat="44.64633" lon="2.93404">
        <ele>1226.8</ele>
        <time>2022-08-05T11:57:04Z</time>
      </trkpt>
      <trkpt lat="44.64636" lon="2.93409">
        <ele>1227.9</ele>
        <time>2022-08-05T11:57:10Z</time>
      </trkpt>
      <trkpt lat="44.64636" lon="2.93411">
        <ele>1227.9</ele>
        <time>2022-08-05T11:57:11Z</time>
      </trkpt>
      <trkpt lat="44.64637" lon="2.93414">
        <ele>1228.4</ele>
        <time>2022-08-05T11:57:13Z</time>
      </trkpt>
      <trkpt lat="44.64638" lon="2.93416">
        <ele>1228.4</ele>
        <time>2022-08-05T11:57:14Z</time>
      </trkpt>
      <trkpt lat="44.64638" lon="2.93417">
        <ele>1228.6</ele>
        <time>2022-08-05T11:57:15Z</time>
      </trkpt>
      <trkpt lat="44.64639" lon="2.93419">
        <ele>1229.1</ele>
        <time>2022-08-05T11:57:17Z</time>
      </trkpt>
      <trkpt lat="44.6464" lon="2.93419">
        <ele>1229.2</ele>
        <time>2022-08-05T11:57:18Z</time>
      </trkpt>
      <trkpt lat="44.64641" lon="2.93421">
        <ele>1229.5</ele>
        <time>2022-08-05T11:57:19Z</time>
      </trkpt>
      <trkpt lat="44.64642" lon="2.93422">
        <ele>1229.8</ele>
        <time>2022-08-05T11:57:20Z</time>
      </trkpt>
      <trkpt lat="44.64642" lon="2.93422">
        <ele>1229.9</ele>
        <time>2022-08-05T11:57:21Z</time>
      </trkpt>
      <trkpt lat="44.64643" lon="2.93423">
        <ele>1230</ele>
        <time>2022-08-05T11:57:22Z</time>
      </trkpt>
      <trkpt lat="44.64643" lon="2.93424">
        <ele>1230.1</ele>
        <time>2022-08-05T11:57:23Z</time>
      </trkpt>
      <trkpt lat="44.64644" lon="2.93425">
        <ele>1230.3</ele>
        <time>2022-08-05T11:57:24Z</time>
      </trkpt>
      <trkpt lat="44.64645" lon="2.93426">
        <ele>1230.8</ele>
        <time>2022-08-05T11:57:25Z</time>
      </trkpt>
      <trkpt lat="44.64646" lon="2.93427">
        <ele>1230.9</ele>
        <time>2022-08-05T11:57:26Z</time>
      </trkpt>
      <trkpt lat="44.64647" lon="2.93429">
        <ele>1231.1</ele>
        <time>2022-08-05T11:57:27Z</time>
      </trkpt>
      <trkpt lat="44.64647" lon="2.93431">
        <ele>1231.1</ele>
        <time>2022-08-05T11:57:28Z</time>
      </trkpt>
      <trkpt lat="44.64648" lon="2.93434">
        <ele>1231.3</ele>
        <time>2022-08-05T11:57:30Z</time>
      </trkpt>
      <trkpt lat="44.64648" lon="2.93436">
        <ele>1231.2</ele>
        <time>2022-08-05T11:57:31Z</time>
      </trkpt>
      <trkpt lat="44.64648" lon="2.93437">
        <ele>1231.4</ele>
        <time>2022-08-05T11:57:32Z</time>
      </trkpt>
      <trkpt lat="44.64648" lon="2.9344">
        <ele>1231</ele>
        <time>2022-08-05T11:57:35Z</time>
      </trkpt>
      <trkpt lat="44.64647" lon="2.93441">
        <ele>1230.9</ele>
        <time>2022-08-05T11:57:36Z</time>
      </trkpt>
      <trkpt lat="44.64648" lon="2.93443">
        <ele>1230.9</ele>
        <time>2022-08-05T11:57:38Z</time>
      </trkpt>
      <trkpt lat="44.64648" lon="2.93445">
        <ele>1231</ele>
        <time>2022-08-05T11:57:39Z</time>
      </trkpt>
      <trkpt lat="44.64649" lon="2.9345">
        <ele>1230.9</ele>
        <time>2022-08-05T11:57:43Z</time>
      </trkpt>
      <trkpt lat="44.64651" lon="2.93451">
        <ele>1231.3</ele>
        <time>2022-08-05T11:57:45Z</time>
      </trkpt>
      <trkpt lat="44.64653" lon="2.93454">
        <ele>1231.9</ele>
        <time>2022-08-05T11:57:47Z</time>
      </trkpt>
      <trkpt lat="44.6466" lon="2.93459">
        <ele>1233.8</ele>
        <time>2022-08-05T11:57:52Z</time>
      </trkpt>
      <trkpt lat="44.64661" lon="2.9346">
        <ele>1234.1</ele>
        <time>2022-08-05T11:57:53Z</time>
      </trkpt>
      <trkpt lat="44.64662" lon="2.93462">
        <ele>1234.4</ele>
        <time>2022-08-05T11:57:55Z</time>
      </trkpt>
      <trkpt lat="44.64666" lon="2.93466">
        <ele>1235.3</ele>
        <time>2022-08-05T11:57:59Z</time>
      </trkpt>
      <trkpt lat="44.6467" lon="2.93468">
        <ele>1236.2</ele>
        <time>2022-08-05T11:58:04Z</time>
      </trkpt>
      <trkpt lat="44.64671" lon="2.93468">
        <ele>1236.4</ele>
        <time>2022-08-05T11:58:05Z</time>
      </trkpt>
      <trkpt lat="44.64671" lon="2.93469">
        <ele>1236.4</ele>
        <time>2022-08-05T11:58:06Z</time>
      </trkpt>
      <trkpt lat="44.64671" lon="2.9347">
        <ele>1236.3</ele>
        <time>2022-08-05T11:58:08Z</time>
      </trkpt>
      <trkpt lat="44.64673" lon="2.93471">
        <ele>1236.6</ele>
        <time>2022-08-05T11:58:10Z</time>
      </trkpt>
      <trkpt lat="44.64673" lon="2.93471">
        <ele>1236.6</ele>
        <time>2022-08-05T11:58:11Z</time>
      </trkpt>
      <trkpt lat="44.64674" lon="2.93473">
        <ele>1236.9</ele>
        <time>2022-08-05T11:58:13Z</time>
      </trkpt>
      <trkpt lat="44.64676" lon="2.93476">
        <ele>1237.1</ele>
        <time>2022-08-05T11:58:16Z</time>
      </trkpt>
      <trkpt lat="44.64678" lon="2.93478">
        <ele>1237.6</ele>
        <time>2022-08-05T11:58:18Z</time>
      </trkpt>
      <trkpt lat="44.64681" lon="2.93482">
        <ele>1238.1</ele>
        <time>2022-08-05T11:58:21Z</time>
      </trkpt>
      <trkpt lat="44.64682" lon="2.93483">
        <ele>1238.4</ele>
        <time>2022-08-05T11:58:23Z</time>
      </trkpt>
      <trkpt lat="44.64683" lon="2.93485">
        <ele>1238.6</ele>
        <time>2022-08-05T11:58:25Z</time>
      </trkpt>
      <trkpt lat="44.64685" lon="2.93485">
        <ele>1238.9</ele>
        <time>2022-08-05T11:58:28Z</time>
      </trkpt>
      <trkpt lat="44.64685" lon="2.93485">
        <ele>1239</ele>
        <time>2022-08-05T11:58:29Z</time>
      </trkpt>
      <trkpt lat="44.64686" lon="2.93485">
        <ele>1239.3</ele>
        <time>2022-08-05T11:58:30Z</time>
      </trkpt>
      <trkpt lat="44.64687" lon="2.93485">
        <ele>1239.6</ele>
        <time>2022-08-05T11:58:31Z</time>
      </trkpt>
      <trkpt lat="44.64688" lon="2.93486">
        <ele>1239.7</ele>
        <time>2022-08-05T11:58:33Z</time>
      </trkpt>
      <trkpt lat="44.64688" lon="2.93487">
        <ele>1239.8</ele>
        <time>2022-08-05T11:58:35Z</time>
      </trkpt>
      <trkpt lat="44.64688" lon="2.93489">
        <ele>1239.7</ele>
        <time>2022-08-05T11:58:36Z</time>
      </trkpt>
      <trkpt lat="44.64688" lon="2.9349">
        <ele>1239.5</ele>
        <time>2022-08-05T11:58:37Z</time>
      </trkpt>
      <trkpt lat="44.64687" lon="2.9349">
        <ele>1239.3</ele>
        <time>2022-08-05T11:58:40Z</time>
      </trkpt>
      <trkpt lat="44.64689" lon="2.93492">
        <ele>1239.7</ele>
        <time>2022-08-05T11:58:42Z</time>
      </trkpt>
      <trkpt lat="44.6469" lon="2.93493">
        <ele>1239.9</ele>
        <time>2022-08-05T11:58:43Z</time>
      </trkpt>
      <trkpt lat="44.64695" lon="2.93498">
        <ele>1241.1</ele>
        <time>2022-08-05T11:58:47Z</time>
      </trkpt>
      <trkpt lat="44.64695" lon="2.93499">
        <ele>1241.2</ele>
        <time>2022-08-05T11:58:48Z</time>
      </trkpt>
      <trkpt lat="44.64696" lon="2.93501">
        <ele>1241.1</ele>
        <time>2022-08-05T11:58:49Z</time>
      </trkpt>
      <trkpt lat="44.64696" lon="2.93503">
        <ele>1241.1</ele>
        <time>2022-08-05T11:58:51Z</time>
      </trkpt>
      <trkpt lat="44.64697" lon="2.93504">
        <ele>1241.1</ele>
        <time>2022-08-05T11:58:52Z</time>
      </trkpt>
      <trkpt lat="44.64698" lon="2.93506">
        <ele>1241.1</ele>
        <time>2022-08-05T11:58:55Z</time>
      </trkpt>
      <trkpt lat="44.647" lon="2.9351">
        <ele>1241.2</ele>
        <time>2022-08-05T11:58:59Z</time>
      </trkpt>
      <trkpt lat="44.64702" lon="2.93512">
        <ele>1241.3</ele>
        <time>2022-08-05T11:59:01Z</time>
      </trkpt>
      <trkpt lat="44.64702" lon="2.93512">
        <ele>1241.4</ele>
        <time>2022-08-05T11:59:02Z</time>
      </trkpt>
      <trkpt lat="44.64705" lon="2.93514">
        <ele>1241.8</ele>
        <time>2022-08-05T11:59:04Z</time>
      </trkpt>
      <trkpt lat="44.64711" lon="2.93516">
        <ele>1242.6</ele>
        <time>2022-08-05T11:59:08Z</time>
      </trkpt>
      <trkpt lat="44.64711" lon="2.93516">
        <ele>1242.6</ele>
        <time>2022-08-05T11:59:09Z</time>
      </trkpt>
      <trkpt lat="44.64711" lon="2.93522">
        <ele>1242.3</ele>
        <time>2022-08-05T11:59:16Z</time>
      </trkpt>
      <trkpt lat="44.6471" lon="2.93525">
        <ele>1242</ele>
        <time>2022-08-05T11:59:21Z</time>
      </trkpt>
      <trkpt lat="44.64711" lon="2.93525">
        <ele>1242.1</ele>
        <time>2022-08-05T11:59:23Z</time>
      </trkpt>
      <trkpt lat="44.64711" lon="2.93526">
        <ele>1242</ele>
        <time>2022-08-05T11:59:25Z</time>
      </trkpt>
      <trkpt lat="44.64712" lon="2.93529">
        <ele>1242</ele>
        <time>2022-08-05T11:59:30Z</time>
      </trkpt>
      <trkpt lat="44.6471" lon="2.93531">
        <ele>1241.7</ele>
        <time>2022-08-05T11:59:37Z</time>
      </trkpt>
      <trkpt lat="44.6471" lon="2.93531">
        <ele>1241.7</ele>
        <time>2022-08-05T11:59:42Z</time>
      </trkpt>
      <trkpt lat="44.6471" lon="2.93531">
        <ele>1241.7</ele>
        <time>2022-08-05T11:59:51Z</time>
      </trkpt>
      <trkpt lat="44.6471" lon="2.9353">
        <ele>1241.7</ele>
        <time>2022-08-05T11:59:53Z</time>
      </trkpt>
      <trkpt lat="44.6471" lon="2.93531">
        <ele>1241.7</ele>
        <time>2022-08-05T11:59:59Z</time>
      </trkpt>
      <trkpt lat="44.6471" lon="2.93531">
        <ele>1241.7</ele>
        <time>2022-08-05T12:00:00Z</time>
      </trkpt>
      <trkpt lat="44.6471" lon="2.93531">
        <ele>1241.6</ele>
        <time>2022-08-05T12:00:04Z</time>
      </trkpt>
      <trkpt lat="44.64708" lon="2.93532">
        <ele>1241.3</ele>
        <time>2022-08-05T12:00:17Z</time>
      </trkpt>
      <trkpt lat="44.64708" lon="2.93532">
        <ele>1241.3</ele>
        <time>2022-08-05T12:00:21Z</time>
      </trkpt>
      <trkpt lat="44.64708" lon="2.93532">
        <ele>1241.3</ele>
        <time>2022-08-05T12:00:24Z</time>
      </trkpt>
      <trkpt lat="44.64708" lon="2.93532">
        <ele>1241.3</ele>
        <time>2022-08-05T12:00:25Z</time>
      </trkpt>
      <trkpt lat="44.64708" lon="2.93532">
        <ele>1241.3</ele>
        <time>2022-08-05T12:00:26Z</time>
      </trkpt>
      <trkpt lat="44.64708" lon="2.93532">
        <ele>1241.3</ele>
        <time>2022-08-05T12:00:28Z</time>
      </trkpt>
      <trkpt lat="44.64708" lon="2.93532">
        <ele>1241.3</ele>
        <time>2022-08-05T12:00:30Z</time>
      </trkpt>
      <trkpt lat="44.64708" lon="2.93531">
        <ele>1241.3</ele>
        <time>2022-08-05T12:00:33Z</time>
      </trkpt>
      <trkpt lat="44.64708" lon="2.93531">
        <ele>1241.3</ele>
        <time>2022-08-05T12:00:35Z</time>
      </trkpt>
      <trkpt lat="44.64708" lon="2.93531">
        <ele>1241.3</ele>
        <time>2022-08-05T12:00:36Z</time>
      </trkpt>
      <trkpt lat="44.64708" lon="2.93531">
        <ele>1241.3</ele>
        <time>2022-08-05T12:00:37Z</time>
      </trkpt>
      <trkpt lat="44.64708" lon="2.93531">
        <ele>1241.3</ele>
        <time>2022-08-05T12:00:38Z</time>
      </trkpt>
      <trkpt lat="44.64709" lon="2.93532">
        <ele>1241.4</ele>
        <time>2022-08-05T12:00:39Z</time>
      </trkpt>
      <trkpt lat="44.6471" lon="2.93535">
        <ele>1241.6</ele>
        <time>2022-08-05T12:00:42Z</time>
      </trkpt>
      <trkpt lat="44.64711" lon="2.93537">
        <ele>1241.6</ele>
        <time>2022-08-05T12:00:43Z</time>
      </trkpt>
      <trkpt lat="44.64712" lon="2.93538">
        <ele>1241.8</ele>
        <time>2022-08-05T12:00:44Z</time>
      </trkpt>
      <trkpt lat="44.64718" lon="2.93545">
        <ele>1242.6</ele>
        <time>2022-08-05T12:00:50Z</time>
      </trkpt>
      <trkpt lat="44.64719" lon="2.93549">
        <ele>1242.6</ele>
        <time>2022-08-05T12:00:56Z</time>
      </trkpt>
      <trkpt lat="44.6472" lon="2.9355">
        <ele>1242.7</ele>
        <time>2022-08-05T12:00:57Z</time>
      </trkpt>
      <trkpt lat="44.64721" lon="2.9355">
        <ele>1242.9</ele>
        <time>2022-08-05T12:00:58Z</time>
      </trkpt>
      <trkpt lat="44.64722" lon="2.93551">
        <ele>1243.1</ele>
        <time>2022-08-05T12:00:59Z</time>
      </trkpt>
      <trkpt lat="44.64723" lon="2.93552">
        <ele>1243.3</ele>
        <time>2022-08-05T12:01:00Z</time>
      </trkpt>
      <trkpt lat="44.64725" lon="2.93552">
        <ele>1243.4</ele>
        <time>2022-08-05T12:01:02Z</time>
      </trkpt>
      <trkpt lat="44.64726" lon="2.93552">
        <ele>1243.5</ele>
        <time>2022-08-05T12:01:03Z</time>
      </trkpt>
      <trkpt lat="44.64727" lon="2.93553">
        <ele>1243.6</ele>
        <time>2022-08-05T12:01:04Z</time>
      </trkpt>
      <trkpt lat="44.64728" lon="2.93558">
        <ele>1243.6</ele>
        <time>2022-08-05T12:01:11Z</time>
      </trkpt>
      <trkpt lat="44.64731" lon="2.93562">
        <ele>1243.9</ele>
        <time>2022-08-05T12:01:15Z</time>
      </trkpt>
      <trkpt lat="44.64732" lon="2.93564">
        <ele>1244</ele>
        <time>2022-08-05T12:01:17Z</time>
      </trkpt>
      <trkpt lat="44.64732" lon="2.93564">
        <ele>1244.1</ele>
        <time>2022-08-05T12:01:18Z</time>
      </trkpt>
      <trkpt lat="44.64733" lon="2.93565">
        <ele>1244.1</ele>
        <time>2022-08-05T12:01:19Z</time>
      </trkpt>
      <trkpt lat="44.64737" lon="2.9357">
        <ele>1244.6</ele>
        <time>2022-08-05T12:01:26Z</time>
      </trkpt>
      <trkpt lat="44.64738" lon="2.93571">
        <ele>1244.7</ele>
        <time>2022-08-05T12:01:27Z</time>
      </trkpt>
      <trkpt lat="44.64741" lon="2.93572">
        <ele>1245</ele>
        <time>2022-08-05T12:01:29Z</time>
      </trkpt>
      <trkpt lat="44.64744" lon="2.93573">
        <ele>1245.4</ele>
        <time>2022-08-05T12:01:32Z</time>
      </trkpt>
      <trkpt lat="44.64747" lon="2.93578">
        <ele>1245.7</ele>
        <time>2022-08-05T12:01:39Z</time>
      </trkpt>
      <trkpt lat="44.64748" lon="2.93579">
        <ele>1245.8</ele>
        <time>2022-08-05T12:01:40Z</time>
      </trkpt>
      <trkpt lat="44.64749" lon="2.93579">
        <ele>1245.8</ele>
        <time>2022-08-05T12:01:41Z</time>
      </trkpt>
      <trkpt lat="44.6475" lon="2.9358">
        <ele>1246</ele>
        <time>2022-08-05T12:01:44Z</time>
      </trkpt>
      <trkpt lat="44.64752" lon="2.93582">
        <ele>1246.1</ele>
        <time>2022-08-05T12:01:47Z</time>
      </trkpt>
      <trkpt lat="44.64752" lon="2.93582">
        <ele>1246.2</ele>
        <time>2022-08-05T12:01:48Z</time>
      </trkpt>
      <trkpt lat="44.64753" lon="2.93582">
        <ele>1246.2</ele>
        <time>2022-08-05T12:01:49Z</time>
      </trkpt>
      <trkpt lat="44.64754" lon="2.93583">
        <ele>1246.3</ele>
        <time>2022-08-05T12:01:51Z</time>
      </trkpt>
      <trkpt lat="44.64756" lon="2.93582">
        <ele>1246.4</ele>
        <time>2022-08-05T12:01:54Z</time>
      </trkpt>
      <trkpt lat="44.64757" lon="2.93582">
        <ele>1246.5</ele>
        <time>2022-08-05T12:01:56Z</time>
      </trkpt>
      <trkpt lat="44.64759" lon="2.93582">
        <ele>1246.6</ele>
        <time>2022-08-05T12:01:57Z</time>
      </trkpt>
      <trkpt lat="44.6476" lon="2.93582">
        <ele>1246.7</ele>
        <time>2022-08-05T12:01:58Z</time>
      </trkpt>
      <trkpt lat="44.64763" lon="2.93581">
        <ele>1246.9</ele>
        <time>2022-08-05T12:02:02Z</time>
      </trkpt>
      <trkpt lat="44.64767" lon="2.93579">
        <ele>1247.1</ele>
        <time>2022-08-05T12:02:05Z</time>
      </trkpt>
      <trkpt lat="44.64769" lon="2.93576">
        <ele>1247.2</ele>
        <time>2022-08-05T12:02:08Z</time>
      </trkpt>
      <trkpt lat="44.6477" lon="2.93576">
        <ele>1247.2</ele>
        <time>2022-08-05T12:02:09Z</time>
      </trkpt>
      <trkpt lat="44.64771" lon="2.93576">
        <ele>1247.3</ele>
        <time>2022-08-05T12:02:10Z</time>
      </trkpt>
      <trkpt lat="44.64778" lon="2.93578">
        <ele>1247.8</ele>
        <time>2022-08-05T12:02:16Z</time>
      </trkpt>
      <trkpt lat="44.6478" lon="2.93578">
        <ele>1247.9</ele>
        <time>2022-08-05T12:02:17Z</time>
      </trkpt>
      <trkpt lat="44.64787" lon="2.93583">
        <ele>1248.3</ele>
        <time>2022-08-05T12:02:23Z</time>
      </trkpt>
      <trkpt lat="44.64788" lon="2.93584">
        <ele>1248.4</ele>
        <time>2022-08-05T12:02:24Z</time>
      </trkpt>
      <trkpt lat="44.6479" lon="2.93586">
        <ele>1248.5</ele>
        <time>2022-08-05T12:02:26Z</time>
      </trkpt>
      <trkpt lat="44.64791" lon="2.93588">
        <ele>1248.7</ele>
        <time>2022-08-05T12:02:28Z</time>
      </trkpt>
      <trkpt lat="44.64792" lon="2.93588">
        <ele>1248.8</ele>
        <time>2022-08-05T12:02:29Z</time>
      </trkpt>
      <trkpt lat="44.64797" lon="2.93592">
        <ele>1249.2</ele>
        <time>2022-08-05T12:02:33Z</time>
      </trkpt>
      <trkpt lat="44.64799" lon="2.93593">
        <ele>1249.4</ele>
        <time>2022-08-05T12:02:35Z</time>
      </trkpt>
      <trkpt lat="44.64799" lon="2.93595">
        <ele>1249.5</ele>
        <time>2022-08-05T12:02:36Z</time>
      </trkpt>
      <trkpt lat="44.64799" lon="2.93596">
        <ele>1249.6</ele>
        <time>2022-08-05T12:02:37Z</time>
      </trkpt>
      <trkpt lat="44.648" lon="2.93597">
        <ele>1249.7</ele>
        <time>2022-08-05T12:02:38Z</time>
      </trkpt>
      <trkpt lat="44.64802" lon="2.93598">
        <ele>1249.8</ele>
        <time>2022-08-05T12:02:39Z</time>
      </trkpt>
      <trkpt lat="44.64802" lon="2.93599">
        <ele>1250</ele>
        <time>2022-08-05T12:02:40Z</time>
      </trkpt>
      <trkpt lat="44.64803" lon="2.936">
        <ele>1250.1</ele>
        <time>2022-08-05T12:02:41Z</time>
      </trkpt>
      <trkpt lat="44.64804" lon="2.93601">
        <ele>1250.2</ele>
        <time>2022-08-05T12:02:42Z</time>
      </trkpt>
      <trkpt lat="44.64809" lon="2.93608">
        <ele>1250.4</ele>
        <time>2022-08-05T12:02:47Z</time>
      </trkpt>
      <trkpt lat="44.6481" lon="2.93609">
        <ele>1250.4</ele>
        <time>2022-08-05T12:02:48Z</time>
      </trkpt>
      <trkpt lat="44.64815" lon="2.93612">
        <ele>1250.1</ele>
        <time>2022-08-05T12:02:51Z</time>
      </trkpt>
      <trkpt lat="44.64816" lon="2.93614">
        <ele>1250.1</ele>
        <time>2022-08-05T12:02:52Z</time>
      </trkpt>
      <trkpt lat="44.64821" lon="2.9362">
        <ele>1250</ele>
        <time>2022-08-05T12:02:56Z</time>
      </trkpt>
      <trkpt lat="44.64822" lon="2.93624">
        <ele>1250.1</ele>
        <time>2022-08-05T12:02:59Z</time>
      </trkpt>
      <trkpt lat="44.64823" lon="2.93625">
        <ele>1250.1</ele>
        <time>2022-08-05T12:03:00Z</time>
      </trkpt>
      <trkpt lat="44.64824" lon="2.93626">
        <ele>1250.1</ele>
        <time>2022-08-05T12:03:01Z</time>
      </trkpt>
      <trkpt lat="44.64824" lon="2.93627">
        <ele>1250.1</ele>
        <time>2022-08-05T12:03:02Z</time>
      </trkpt>
      <trkpt lat="44.64825" lon="2.93631">
        <ele>1250.3</ele>
        <time>2022-08-05T12:03:05Z</time>
      </trkpt>
      <trkpt lat="44.64827" lon="2.93632">
        <ele>1250.2</ele>
        <time>2022-08-05T12:03:06Z</time>
      </trkpt>
      <trkpt lat="44.64831" lon="2.93638">
        <ele>1250.2</ele>
        <time>2022-08-05T12:03:11Z</time>
      </trkpt>
      <trkpt lat="44.64833" lon="2.93642">
        <ele>1250.3</ele>
        <time>2022-08-05T12:03:14Z</time>
      </trkpt>
      <trkpt lat="44.64833" lon="2.93645">
        <ele>1250.5</ele>
        <time>2022-08-05T12:03:16Z</time>
      </trkpt>
      <trkpt lat="44.64836" lon="2.93653">
        <ele>1250.8</ele>
        <time>2022-08-05T12:03:21Z</time>
      </trkpt>
      <trkpt lat="44.64836" lon="2.93655">
        <ele>1251</ele>
        <time>2022-08-05T12:03:22Z</time>
      </trkpt>
      <trkpt lat="44.64836" lon="2.93657">
        <ele>1251.2</ele>
        <time>2022-08-05T12:03:23Z</time>
      </trkpt>
      <trkpt lat="44.64836" lon="2.93658">
        <ele>1251.3</ele>
        <time>2022-08-05T12:03:24Z</time>
      </trkpt>
      <trkpt lat="44.64837" lon="2.93661">
        <ele>1251.4</ele>
        <time>2022-08-05T12:03:26Z</time>
      </trkpt>
      <trkpt lat="44.64839" lon="2.93664">
        <ele>1251.6</ele>
        <time>2022-08-05T12:03:28Z</time>
      </trkpt>
      <trkpt lat="44.64845" lon="2.93668">
        <ele>1251.7</ele>
        <time>2022-08-05T12:03:32Z</time>
      </trkpt>
      <trkpt lat="44.64845" lon="2.93669">
        <ele>1251.8</ele>
        <time>2022-08-05T12:03:33Z</time>
      </trkpt>
      <trkpt lat="44.64845" lon="2.93671">
        <ele>1251.9</ele>
        <time>2022-08-05T12:03:34Z</time>
      </trkpt>
      <trkpt lat="44.64845" lon="2.93674">
        <ele>1252.2</ele>
        <time>2022-08-05T12:03:36Z</time>
      </trkpt>
      <trkpt lat="44.64846" lon="2.93675">
        <ele>1252.3</ele>
        <time>2022-08-05T12:03:37Z</time>
      </trkpt>
      <trkpt lat="44.6485" lon="2.93679">
        <ele>1252.5</ele>
        <time>2022-08-05T12:03:42Z</time>
      </trkpt>
      <trkpt lat="44.6485" lon="2.93679">
        <ele>1252.6</ele>
        <time>2022-08-05T12:03:43Z</time>
      </trkpt>
      <trkpt lat="44.64851" lon="2.9368">
        <ele>1252.7</ele>
        <time>2022-08-05T12:03:44Z</time>
      </trkpt>
      <trkpt lat="44.64852" lon="2.93682">
        <ele>1252.8</ele>
        <time>2022-08-05T12:03:45Z</time>
      </trkpt>
      <trkpt lat="44.64854" lon="2.93683">
        <ele>1252.9</ele>
        <time>2022-08-05T12:03:47Z</time>
      </trkpt>
      <trkpt lat="44.64855" lon="2.93684">
        <ele>1253</ele>
        <time>2022-08-05T12:03:50Z</time>
      </trkpt>
      <trkpt lat="44.64855" lon="2.93685">
        <ele>1253</ele>
        <time>2022-08-05T12:03:51Z</time>
      </trkpt>
      <trkpt lat="44.64855" lon="2.93685">
        <ele>1253.1</ele>
        <time>2022-08-05T12:03:52Z</time>
      </trkpt>
      <trkpt lat="44.64855" lon="2.93685">
        <ele>1253</ele>
        <time>2022-08-05T12:03:53Z</time>
      </trkpt>
      <trkpt lat="44.64855" lon="2.93685">
        <ele>1253</ele>
        <time>2022-08-05T12:03:54Z</time>
      </trkpt>
      <trkpt lat="44.64856" lon="2.93685">
        <ele>1253.1</ele>
        <time>2022-08-05T12:03:56Z</time>
      </trkpt>
      <trkpt lat="44.64856" lon="2.93687">
        <ele>1253.2</ele>
        <time>2022-08-05T12:03:57Z</time>
      </trkpt>
      <trkpt lat="44.64856" lon="2.93687">
        <ele>1253.3</ele>
        <time>2022-08-05T12:03:59Z</time>
      </trkpt>
      <trkpt lat="44.64856" lon="2.93688">
        <ele>1253.3</ele>
        <time>2022-08-05T12:04:00Z</time>
      </trkpt>
      <trkpt lat="44.64857" lon="2.93688">
        <ele>1253.3</ele>
        <time>2022-08-05T12:04:01Z</time>
      </trkpt>
      <trkpt lat="44.64857" lon="2.93688">
        <ele>1253.3</ele>
        <time>2022-08-05T12:04:03Z</time>
      </trkpt>
      <trkpt lat="44.64856" lon="2.93687">
        <ele>1253.2</ele>
        <time>2022-08-05T12:04:05Z</time>
      </trkpt>
      <trkpt lat="44.64857" lon="2.93687">
        <ele>1253.2</ele>
        <time>2022-08-05T12:04:06Z</time>
      </trkpt>
      <trkpt lat="44.64859" lon="2.93689">
        <ele>1253.4</ele>
        <time>2022-08-05T12:04:09Z</time>
      </trkpt>
      <trkpt lat="44.6486" lon="2.93689">
        <ele>1253.4</ele>
        <time>2022-08-05T12:04:10Z</time>
      </trkpt>
      <trkpt lat="44.6486" lon="2.93689">
        <ele>1253.4</ele>
        <time>2022-08-05T12:04:11Z</time>
      </trkpt>
      <trkpt lat="44.64861" lon="2.93689">
        <ele>1253.4</ele>
        <time>2022-08-05T12:04:12Z</time>
      </trkpt>
      <trkpt lat="44.64862" lon="2.93689">
        <ele>1253.5</ele>
        <time>2022-08-05T12:04:13Z</time>
      </trkpt>
      <trkpt lat="44.64863" lon="2.93689">
        <ele>1253.6</ele>
        <time>2022-08-05T12:04:14Z</time>
      </trkpt>
      <trkpt lat="44.64868" lon="2.93691">
        <ele>1254.2</ele>
        <time>2022-08-05T12:04:17Z</time>
      </trkpt>
      <trkpt lat="44.6487" lon="2.93691">
        <ele>1254.3</ele>
        <time>2022-08-05T12:04:20Z</time>
      </trkpt>
      <trkpt lat="44.64871" lon="2.9369">
        <ele>1254.3</ele>
        <time>2022-08-05T12:04:21Z</time>
      </trkpt>
      <trkpt lat="44.64871" lon="2.9369">
        <ele>1254.3</ele>
        <time>2022-08-05T12:04:22Z</time>
      </trkpt>
      <trkpt lat="44.64874" lon="2.9369">
        <ele>1254.5</ele>
        <time>2022-08-05T12:04:24Z</time>
      </trkpt>
      <trkpt lat="44.64877" lon="2.93689">
        <ele>1254.7</ele>
        <time>2022-08-05T12:04:27Z</time>
      </trkpt>
      <trkpt lat="44.6488" lon="2.93685">
        <ele>1254.6</ele>
        <time>2022-08-05T12:04:30Z</time>
      </trkpt>
      <trkpt lat="44.64884" lon="2.93681">
        <ele>1254.6</ele>
        <time>2022-08-05T12:04:35Z</time>
      </trkpt>
      <trkpt lat="44.64884" lon="2.9368">
        <ele>1254.5</ele>
        <time>2022-08-05T12:04:37Z</time>
      </trkpt>
      <trkpt lat="44.64885" lon="2.9368">
        <ele>1254.6</ele>
        <time>2022-08-05T12:04:39Z</time>
      </trkpt>
      <trkpt lat="44.6489" lon="2.9368">
        <ele>1255</ele>
        <time>2022-08-05T12:04:44Z</time>
      </trkpt>
      <trkpt lat="44.64892" lon="2.93677">
        <ele>1255</ele>
        <time>2022-08-05T12:04:47Z</time>
      </trkpt>
      <trkpt lat="44.64895" lon="2.93676">
        <ele>1255.3</ele>
        <time>2022-08-05T12:04:51Z</time>
      </trkpt>
      <trkpt lat="44.64897" lon="2.93676">
        <ele>1255.5</ele>
        <time>2022-08-05T12:04:52Z</time>
      </trkpt>
      <trkpt lat="44.64899" lon="2.93675">
        <ele>1255.6</ele>
        <time>2022-08-05T12:04:53Z</time>
      </trkpt>
      <trkpt lat="44.64901" lon="2.93676">
        <ele>1255.8</ele>
        <time>2022-08-05T12:04:54Z</time>
      </trkpt>
      <trkpt lat="44.64904" lon="2.93676">
        <ele>1256.1</ele>
        <time>2022-08-05T12:04:56Z</time>
      </trkpt>
      <trkpt lat="44.64905" lon="2.93677">
        <ele>1256.2</ele>
        <time>2022-08-05T12:04:57Z</time>
      </trkpt>
      <trkpt lat="44.64906" lon="2.93678">
        <ele>1256.4</ele>
        <time>2022-08-05T12:04:58Z</time>
      </trkpt>
      <trkpt lat="44.64908" lon="2.93678">
        <ele>1256.6</ele>
        <time>2022-08-05T12:04:59Z</time>
      </trkpt>
      <trkpt lat="44.6491" lon="2.93678">
        <ele>1256.7</ele>
        <time>2022-08-05T12:05:00Z</time>
      </trkpt>
      <trkpt lat="44.64911" lon="2.93678">
        <ele>1256.9</ele>
        <time>2022-08-05T12:05:01Z</time>
      </trkpt>
      <trkpt lat="44.64913" lon="2.9368">
        <ele>1257.1</ele>
        <time>2022-08-05T12:05:08Z</time>
      </trkpt>
      <trkpt lat="44.64913" lon="2.93681">
        <ele>1257.2</ele>
        <time>2022-08-05T12:05:09Z</time>
      </trkpt>
      <trkpt lat="44.64913" lon="2.93681">
        <ele>1257.2</ele>
        <time>2022-08-05T12:05:10Z</time>
      </trkpt>
      <trkpt lat="44.64913" lon="2.93682">
        <ele>1257.2</ele>
        <time>2022-08-05T12:05:12Z</time>
      </trkpt>
      <trkpt lat="44.64915" lon="2.93681">
        <ele>1257.4</ele>
        <time>2022-08-05T12:05:14Z</time>
      </trkpt>
      <trkpt lat="44.64919" lon="2.9368">
        <ele>1257.7</ele>
        <time>2022-08-05T12:05:17Z</time>
      </trkpt>
      <trkpt lat="44.64921" lon="2.93682">
        <ele>1257.9</ele>
        <time>2022-08-05T12:05:19Z</time>
      </trkpt>
      <trkpt lat="44.64925" lon="2.93684">
        <ele>1258.3</ele>
        <time>2022-08-05T12:05:23Z</time>
      </trkpt>
      <trkpt lat="44.64927" lon="2.93685">
        <ele>1258.5</ele>
        <time>2022-08-05T12:05:29Z</time>
      </trkpt>
      <trkpt lat="44.64927" lon="2.93686">
        <ele>1258.6</ele>
        <time>2022-08-05T12:05:30Z</time>
      </trkpt>
      <trkpt lat="44.64928" lon="2.93685">
        <ele>1258.7</ele>
        <time>2022-08-05T12:05:32Z</time>
      </trkpt>
      <trkpt lat="44.64929" lon="2.93685">
        <ele>1258.7</ele>
        <time>2022-08-05T12:05:33Z</time>
      </trkpt>
      <trkpt lat="44.64929" lon="2.93686">
        <ele>1258.7</ele>
        <time>2022-08-05T12:05:34Z</time>
      </trkpt>
      <trkpt lat="44.6493" lon="2.93686">
        <ele>1258.8</ele>
        <time>2022-08-05T12:05:35Z</time>
      </trkpt>
      <trkpt lat="44.64933" lon="2.93687">
        <ele>1259.1</ele>
        <time>2022-08-05T12:05:37Z</time>
      </trkpt>
      <trkpt lat="44.64934" lon="2.93687">
        <ele>1259.2</ele>
        <time>2022-08-05T12:05:39Z</time>
      </trkpt>
      <trkpt lat="44.64936" lon="2.93687">
        <ele>1259.3</ele>
        <time>2022-08-05T12:05:41Z</time>
      </trkpt>
      <trkpt lat="44.6494" lon="2.93685">
        <ele>1259.6</ele>
        <time>2022-08-05T12:05:45Z</time>
      </trkpt>
      <trkpt lat="44.64941" lon="2.93685">
        <ele>1259.7</ele>
        <time>2022-08-05T12:05:46Z</time>
      </trkpt>
      <trkpt lat="44.64942" lon="2.93685">
        <ele>1259.8</ele>
        <time>2022-08-05T12:05:47Z</time>
      </trkpt>
      <trkpt lat="44.64944" lon="2.93685">
        <ele>1259.9</ele>
        <time>2022-08-05T12:05:49Z</time>
      </trkpt>
      <trkpt lat="44.64949" lon="2.93684">
        <ele>1260.5</ele>
        <time>2022-08-05T12:05:53Z</time>
      </trkpt>
      <trkpt lat="44.6495" lon="2.93684">
        <ele>1260.7</ele>
        <time>2022-08-05T12:05:54Z</time>
      </trkpt>
      <trkpt lat="44.64958" lon="2.93685">
        <ele>1261.6</ele>
        <time>2022-08-05T12:06:00Z</time>
      </trkpt>
      <trkpt lat="44.64959" lon="2.93685">
        <ele>1261.7</ele>
        <time>2022-08-05T12:06:01Z</time>
      </trkpt>
      <trkpt lat="44.64964" lon="2.93683">
        <ele>1262.3</ele>
        <time>2022-08-05T12:06:06Z</time>
      </trkpt>
      <trkpt lat="44.64965" lon="2.93683">
        <ele>1262.3</ele>
        <time>2022-08-05T12:06:07Z</time>
      </trkpt>
      <trkpt lat="44.64966" lon="2.93681">
        <ele>1262.3</ele>
        <time>2022-08-05T12:06:09Z</time>
      </trkpt>
      <trkpt lat="44.64966" lon="2.93679">
        <ele>1262.3</ele>
        <time>2022-08-05T12:06:11Z</time>
      </trkpt>
      <trkpt lat="44.64967" lon="2.93679">
        <ele>1262.3</ele>
        <time>2022-08-05T12:06:12Z</time>
      </trkpt>
      <trkpt lat="44.64969" lon="2.93677">
        <ele>1262.4</ele>
        <time>2022-08-05T12:06:16Z</time>
      </trkpt>
      <trkpt lat="44.6497" lon="2.93677">
        <ele>1262.4</ele>
        <time>2022-08-05T12:06:17Z</time>
      </trkpt>
      <trkpt lat="44.64971" lon="2.93675">
        <ele>1262.5</ele>
        <time>2022-08-05T12:06:19Z</time>
      </trkpt>
      <trkpt lat="44.64972" lon="2.93675">
        <ele>1262.6</ele>
        <time>2022-08-05T12:06:20Z</time>
      </trkpt>
      <trkpt lat="44.64972" lon="2.93674">
        <ele>1262.6</ele>
        <time>2022-08-05T12:06:21Z</time>
      </trkpt>
      <trkpt lat="44.64973" lon="2.93674">
        <ele>1262.6</ele>
        <time>2022-08-05T12:06:22Z</time>
      </trkpt>
      <trkpt lat="44.64976" lon="2.93674">
        <ele>1262.9</ele>
        <time>2022-08-05T12:06:24Z</time>
      </trkpt>
      <trkpt lat="44.64979" lon="2.93672">
        <ele>1262.9</ele>
        <time>2022-08-05T12:06:27Z</time>
      </trkpt>
      <trkpt lat="44.64982" lon="2.93671">
        <ele>1263.1</ele>
        <time>2022-08-05T12:06:31Z</time>
      </trkpt>
      <trkpt lat="44.64983" lon="2.93671">
        <ele>1263.2</ele>
        <time>2022-08-05T12:06:32Z</time>
      </trkpt>
      <trkpt lat="44.64984" lon="2.93671">
        <ele>1263.3</ele>
        <time>2022-08-05T12:06:33Z</time>
      </trkpt>
      <trkpt lat="44.64985" lon="2.93671">
        <ele>1263.3</ele>
        <time>2022-08-05T12:06:34Z</time>
      </trkpt>
      <trkpt lat="44.64987" lon="2.9367">
        <ele>1263.4</ele>
        <time>2022-08-05T12:06:36Z</time>
      </trkpt>
      <trkpt lat="44.64991" lon="2.9367">
        <ele>1263.7</ele>
        <time>2022-08-05T12:06:39Z</time>
      </trkpt>
      <trkpt lat="44.64991" lon="2.9367">
        <ele>1263.7</ele>
        <time>2022-08-05T12:06:40Z</time>
      </trkpt>
      <trkpt lat="44.64995" lon="2.93668">
        <ele>1263.8</ele>
        <time>2022-08-05T12:06:42Z</time>
      </trkpt>
      <trkpt lat="44.64996" lon="2.93668">
        <ele>1263.9</ele>
        <time>2022-08-05T12:06:44Z</time>
      </trkpt>
      <trkpt lat="44.64998" lon="2.93668">
        <ele>1264</ele>
        <time>2022-08-05T12:06:46Z</time>
      </trkpt>
      <trkpt lat="44.64999" lon="2.93668">
        <ele>1264.1</ele>
        <time>2022-08-05T12:06:47Z</time>
      </trkpt>
      <trkpt lat="44.65" lon="2.93668">
        <ele>1264.2</ele>
        <time>2022-08-05T12:06:48Z</time>
      </trkpt>
      <trkpt lat="44.65001" lon="2.93669">
        <ele>1264.3</ele>
        <time>2022-08-05T12:06:49Z</time>
      </trkpt>
      <trkpt lat="44.65002" lon="2.93669">
        <ele>1264.5</ele>
        <time>2022-08-05T12:06:50Z</time>
      </trkpt>
      <trkpt lat="44.65002" lon="2.93669">
        <ele>1264.5</ele>
        <time>2022-08-05T12:06:51Z</time>
      </trkpt>
      <trkpt lat="44.65002" lon="2.9367">
        <ele>1264.6</ele>
        <time>2022-08-05T12:06:52Z</time>
      </trkpt>
      <trkpt lat="44.65003" lon="2.9367">
        <ele>1264.6</ele>
        <time>2022-08-05T12:06:53Z</time>
      </trkpt>
      <trkpt lat="44.65004" lon="2.93669">
        <ele>1264.7</ele>
        <time>2022-08-05T12:06:55Z</time>
      </trkpt>
      <trkpt lat="44.65005" lon="2.93669">
        <ele>1264.7</ele>
        <time>2022-08-05T12:06:56Z</time>
      </trkpt>
      <trkpt lat="44.65006" lon="2.93669">
        <ele>1264.7</ele>
        <time>2022-08-05T12:06:58Z</time>
      </trkpt>
      <trkpt lat="44.65007" lon="2.93669">
        <ele>1264.9</ele>
        <time>2022-08-05T12:06:59Z</time>
      </trkpt>
      <trkpt lat="44.65009" lon="2.9367">
        <ele>1265.1</ele>
        <time>2022-08-05T12:07:01Z</time>
      </trkpt>
      <trkpt lat="44.6501" lon="2.9367">
        <ele>1265.2</ele>
        <time>2022-08-05T12:07:02Z</time>
      </trkpt>
      <trkpt lat="44.65014" lon="2.93671">
        <ele>1265.6</ele>
        <time>2022-08-05T12:07:05Z</time>
      </trkpt>
      <trkpt lat="44.65017" lon="2.93671">
        <ele>1265.7</ele>
        <time>2022-08-05T12:07:08Z</time>
      </trkpt>
      <trkpt lat="44.65019" lon="2.93671">
        <ele>1265.9</ele>
        <time>2022-08-05T12:07:09Z</time>
      </trkpt>
      <trkpt lat="44.65022" lon="2.93671">
        <ele>1266.1</ele>
        <time>2022-08-05T12:07:11Z</time>
      </trkpt>
      <trkpt lat="44.65024" lon="2.93671">
        <ele>1266.2</ele>
        <time>2022-08-05T12:07:13Z</time>
      </trkpt>
      <trkpt lat="44.65027" lon="2.93671">
        <ele>1266.4</ele>
        <time>2022-08-05T12:07:15Z</time>
      </trkpt>
      <trkpt lat="44.65027" lon="2.93671">
        <ele>1266.5</ele>
        <time>2022-08-05T12:07:16Z</time>
      </trkpt>
      <trkpt lat="44.65028" lon="2.93672">
        <ele>1266.6</ele>
        <time>2022-08-05T12:07:17Z</time>
      </trkpt>
      <trkpt lat="44.65029" lon="2.93674">
        <ele>1266.8</ele>
        <time>2022-08-05T12:07:20Z</time>
      </trkpt>
      <trkpt lat="44.65031" lon="2.93675">
        <ele>1267</ele>
        <time>2022-08-05T12:07:26Z</time>
      </trkpt>
      <trkpt lat="44.65034" lon="2.93675">
        <ele>1267</ele>
        <time>2022-08-05T12:07:35Z</time>
      </trkpt>
      <trkpt lat="44.65034" lon="2.93675">
        <ele>1267</ele>
        <time>2022-08-05T12:07:42Z</time>
      </trkpt>
      <trkpt lat="44.65034" lon="2.93675">
        <ele>1267</ele>
        <time>2022-08-05T12:07:43Z</time>
      </trkpt>
      <trkpt lat="44.65034" lon="2.93675">
        <ele>1267</ele>
        <time>2022-08-05T12:07:44Z</time>
      </trkpt>
      <trkpt lat="44.65034" lon="2.93675">
        <ele>1267</ele>
        <time>2022-08-05T12:07:45Z</time>
      </trkpt>
      <trkpt lat="44.65034" lon="2.93676">
        <ele>1267.2</ele>
        <time>2022-08-05T12:07:46Z</time>
      </trkpt>
      <trkpt lat="44.65037" lon="2.93677">
        <ele>1267.4</ele>
        <time>2022-08-05T12:07:47Z</time>
      </trkpt>
      <trkpt lat="44.65039" lon="2.93679">
        <ele>1267.6</ele>
        <time>2022-08-05T12:07:48Z</time>
      </trkpt>
      <trkpt lat="44.6504" lon="2.9368">
        <ele>1267.9</ele>
        <time>2022-08-05T12:07:49Z</time>
      </trkpt>
      <trkpt lat="44.65041" lon="2.9368">
        <ele>1267.9</ele>
        <time>2022-08-05T12:07:50Z</time>
      </trkpt>
      <trkpt lat="44.65041" lon="2.9368">
        <ele>1268</ele>
        <time>2022-08-05T12:07:51Z</time>
      </trkpt>
      <trkpt lat="44.65043" lon="2.93681">
        <ele>1268.1</ele>
        <time>2022-08-05T12:07:53Z</time>
      </trkpt>
      <trkpt lat="44.65045" lon="2.93682">
        <ele>1268.3</ele>
        <time>2022-08-05T12:07:55Z</time>
      </trkpt>
      <trkpt lat="44.65047" lon="2.93682">
        <ele>1268.5</ele>
        <time>2022-08-05T12:07:57Z</time>
      </trkpt>
      <trkpt lat="44.65049" lon="2.93684">
        <ele>1268.8</ele>
        <time>2022-08-05T12:07:59Z</time>
      </trkpt>
      <trkpt lat="44.65051" lon="2.93684">
        <ele>1269</ele>
        <time>2022-08-05T12:08:01Z</time>
      </trkpt>
      <trkpt lat="44.65052" lon="2.93685">
        <ele>1269.1</ele>
        <time>2022-08-05T12:08:03Z</time>
      </trkpt>
      <trkpt lat="44.65053" lon="2.93685">
        <ele>1269.2</ele>
        <time>2022-08-05T12:08:04Z</time>
      </trkpt>
      <trkpt lat="44.65055" lon="2.93685">
        <ele>1269.3</ele>
        <time>2022-08-05T12:08:06Z</time>
      </trkpt>
      <trkpt lat="44.65056" lon="2.93686">
        <ele>1269.4</ele>
        <time>2022-08-05T12:08:08Z</time>
      </trkpt>
      <trkpt lat="44.65058" lon="2.93687">
        <ele>1269.7</ele>
        <time>2022-08-05T12:08:10Z</time>
      </trkpt>
      <trkpt lat="44.65059" lon="2.93687">
        <ele>1269.7</ele>
        <time>2022-08-05T12:08:12Z</time>
      </trkpt>
      <trkpt lat="44.6506" lon="2.93687">
        <ele>1269.8</ele>
        <time>2022-08-05T12:08:13Z</time>
      </trkpt>
      <trkpt lat="44.65061" lon="2.93688">
        <ele>1269.8</ele>
        <time>2022-08-05T12:08:14Z</time>
      </trkpt>
      <trkpt lat="44.65065" lon="2.93689">
        <ele>1270.2</ele>
        <time>2022-08-05T12:08:17Z</time>
      </trkpt>
      <trkpt lat="44.65067" lon="2.93689">
        <ele>1270.3</ele>
        <time>2022-08-05T12:08:19Z</time>
      </trkpt>
      <trkpt lat="44.65068" lon="2.93689">
        <ele>1270.3</ele>
        <time>2022-08-05T12:08:20Z</time>
      </trkpt>
      <trkpt lat="44.6507" lon="2.93689">
        <ele>1270.4</ele>
        <time>2022-08-05T12:08:22Z</time>
      </trkpt>
      <trkpt lat="44.65075" lon="2.9369">
        <ele>1270.7</ele>
        <time>2022-08-05T12:08:27Z</time>
      </trkpt>
      <trkpt lat="44.65075" lon="2.93691">
        <ele>1270.9</ele>
        <time>2022-08-05T12:08:28Z</time>
      </trkpt>
      <trkpt lat="44.65077" lon="2.93693">
        <ele>1271.4</ele>
        <time>2022-08-05T12:08:29Z</time>
      </trkpt>
      <trkpt lat="44.65081" lon="2.93696">
        <ele>1272.1</ele>
        <time>2022-08-05T12:08:32Z</time>
      </trkpt>
      <trkpt lat="44.65083" lon="2.93696">
        <ele>1272.1</ele>
        <time>2022-08-05T12:08:34Z</time>
      </trkpt>
      <trkpt lat="44.65086" lon="2.93693">
        <ele>1271.6</ele>
        <time>2022-08-05T12:08:39Z</time>
      </trkpt>
      <trkpt lat="44.65094" lon="2.93695">
        <ele>1272</ele>
        <time>2022-08-05T12:08:44Z</time>
      </trkpt>
      <trkpt lat="44.65095" lon="2.93695">
        <ele>1272</ele>
        <time>2022-08-05T12:08:45Z</time>
      </trkpt>
      <trkpt lat="44.651" lon="2.93698">
        <ele>1272.7</ele>
        <time>2022-08-05T12:08:51Z</time>
      </trkpt>
      <trkpt lat="44.65104" lon="2.93698">
        <ele>1272.7</ele>
        <time>2022-08-05T12:08:55Z</time>
      </trkpt>
      <trkpt lat="44.65104" lon="2.93698">
        <ele>1272.6</ele>
        <time>2022-08-05T12:08:56Z</time>
      </trkpt>
      <trkpt lat="44.65104" lon="2.93697">
        <ele>1272.5</ele>
        <time>2022-08-05T12:08:57Z</time>
      </trkpt>
      <trkpt lat="44.65105" lon="2.93697">
        <ele>1272.4</ele>
        <time>2022-08-05T12:08:59Z</time>
      </trkpt>
      <trkpt lat="44.65107" lon="2.93696">
        <ele>1272.4</ele>
        <time>2022-08-05T12:09:01Z</time>
      </trkpt>
      <trkpt lat="44.65108" lon="2.93697">
        <ele>1272.6</ele>
        <time>2022-08-05T12:09:02Z</time>
      </trkpt>
      <trkpt lat="44.65113" lon="2.93699">
        <ele>1273.1</ele>
        <time>2022-08-05T12:09:05Z</time>
      </trkpt>
      <trkpt lat="44.65114" lon="2.93699">
        <ele>1273.3</ele>
        <time>2022-08-05T12:09:06Z</time>
      </trkpt>
      <trkpt lat="44.65116" lon="2.93701">
        <ele>1273.7</ele>
        <time>2022-08-05T12:09:08Z</time>
      </trkpt>
      <trkpt lat="44.65117" lon="2.93702">
        <ele>1273.9</ele>
        <time>2022-08-05T12:09:09Z</time>
      </trkpt>
      <trkpt lat="44.65119" lon="2.93702">
        <ele>1274.1</ele>
        <time>2022-08-05T12:09:11Z</time>
      </trkpt>
      <trkpt lat="44.6512" lon="2.93702">
        <ele>1274.2</ele>
        <time>2022-08-05T12:09:12Z</time>
      </trkpt>
      <trkpt lat="44.65122" lon="2.93702">
        <ele>1274.3</ele>
        <time>2022-08-05T12:09:14Z</time>
      </trkpt>
      <trkpt lat="44.65123" lon="2.93702">
        <ele>1274.4</ele>
        <time>2022-08-05T12:09:16Z</time>
      </trkpt>
      <trkpt lat="44.65123" lon="2.93702">
        <ele>1274.4</ele>
        <time>2022-08-05T12:09:17Z</time>
      </trkpt>
      <trkpt lat="44.65123" lon="2.93702">
        <ele>1274.4</ele>
        <time>2022-08-05T12:09:18Z</time>
      </trkpt>
      <trkpt lat="44.65125" lon="2.93704">
        <ele>1274.8</ele>
        <time>2022-08-05T12:09:20Z</time>
      </trkpt>
      <trkpt lat="44.65127" lon="2.93704">
        <ele>1275.1</ele>
        <time>2022-08-05T12:09:22Z</time>
      </trkpt>
      <trkpt lat="44.65128" lon="2.93705">
        <ele>1275.2</ele>
        <time>2022-08-05T12:09:23Z</time>
      </trkpt>
      <trkpt lat="44.65129" lon="2.93705">
        <ele>1275.3</ele>
        <time>2022-08-05T12:09:24Z</time>
      </trkpt>
      <trkpt lat="44.65131" lon="2.93704">
        <ele>1275.3</ele>
        <time>2022-08-05T12:09:25Z</time>
      </trkpt>
      <trkpt lat="44.65132" lon="2.93704">
        <ele>1275.4</ele>
        <time>2022-08-05T12:09:26Z</time>
      </trkpt>
      <trkpt lat="44.65137" lon="2.93705">
        <ele>1275.8</ele>
        <time>2022-08-05T12:09:29Z</time>
      </trkpt>
      <trkpt lat="44.65139" lon="2.93706">
        <ele>1276</ele>
        <time>2022-08-05T12:09:30Z</time>
      </trkpt>
      <trkpt lat="44.6514" lon="2.93706">
        <ele>1276.2</ele>
        <time>2022-08-05T12:09:32Z</time>
      </trkpt>
      <trkpt lat="44.6514" lon="2.93706">
        <ele>1276.1</ele>
        <time>2022-08-05T12:09:33Z</time>
      </trkpt>
      <trkpt lat="44.65141" lon="2.93706">
        <ele>1276.2</ele>
        <time>2022-08-05T12:09:35Z</time>
      </trkpt>
      <trkpt lat="44.65145" lon="2.93706">
        <ele>1276.5</ele>
        <time>2022-08-05T12:09:39Z</time>
      </trkpt>
      <trkpt lat="44.65145" lon="2.93705">
        <ele>1276.3</ele>
        <time>2022-08-05T12:09:41Z</time>
      </trkpt>
      <trkpt lat="44.65145" lon="2.93705">
        <ele>1276.3</ele>
        <time>2022-08-05T12:09:42Z</time>
      </trkpt>
      <trkpt lat="44.65148" lon="2.93705">
        <ele>1276.4</ele>
        <time>2022-08-05T12:09:44Z</time>
      </trkpt>
      <trkpt lat="44.65152" lon="2.93707">
        <ele>1277.1</ele>
        <time>2022-08-05T12:09:47Z</time>
      </trkpt>
      <trkpt lat="44.65153" lon="2.93707">
        <ele>1277.2</ele>
        <time>2022-08-05T12:09:48Z</time>
      </trkpt>
      <trkpt lat="44.65153" lon="2.93707">
        <ele>1277.2</ele>
        <time>2022-08-05T12:09:49Z</time>
      </trkpt>
      <trkpt lat="44.65158" lon="2.93706">
        <ele>1277.4</ele>
        <time>2022-08-05T12:09:53Z</time>
      </trkpt>
      <trkpt lat="44.65159" lon="2.93707">
        <ele>1277.5</ele>
        <time>2022-08-05T12:09:55Z</time>
      </trkpt>
      <trkpt lat="44.6516" lon="2.93707">
        <ele>1277.7</ele>
        <time>2022-08-05T12:09:58Z</time>
      </trkpt>
      <trkpt lat="44.65162" lon="2.93706">
        <ele>1277.7</ele>
        <time>2022-08-05T12:10:00Z</time>
      </trkpt>
      <trkpt lat="44.65164" lon="2.93704">
        <ele>1277.1</ele>
        <time>2022-08-05T12:10:03Z</time>
      </trkpt>
      <trkpt lat="44.65167" lon="2.93703">
        <ele>1277.2</ele>
        <time>2022-08-05T12:10:07Z</time>
      </trkpt>
      <trkpt lat="44.6517" lon="2.93704">
        <ele>1277.4</ele>
        <time>2022-08-05T12:10:10Z</time>
      </trkpt>
      <trkpt lat="44.65174" lon="2.93704">
        <ele>1277.5</ele>
        <time>2022-08-05T12:10:13Z</time>
      </trkpt>
      <trkpt lat="44.65176" lon="2.93705">
        <ele>1277.7</ele>
        <time>2022-08-05T12:10:15Z</time>
      </trkpt>
      <trkpt lat="44.65182" lon="2.93706">
        <ele>1278.2</ele>
        <time>2022-08-05T12:10:20Z</time>
      </trkpt>
      <trkpt lat="44.65184" lon="2.93707">
        <ele>1278.6</ele>
        <time>2022-08-05T12:10:22Z</time>
      </trkpt>
      <trkpt lat="44.65185" lon="2.93707">
        <ele>1278.5</ele>
        <time>2022-08-05T12:10:23Z</time>
      </trkpt>
      <trkpt lat="44.65191" lon="2.93708">
        <ele>1278.7</ele>
        <time>2022-08-05T12:10:28Z</time>
      </trkpt>
      <trkpt lat="44.65194" lon="2.93708">
        <ele>1279</ele>
        <time>2022-08-05T12:10:30Z</time>
      </trkpt>
      <trkpt lat="44.65198" lon="2.93708">
        <ele>1278.8</ele>
        <time>2022-08-05T12:10:33Z</time>
      </trkpt>
      <trkpt lat="44.65202" lon="2.9371">
        <ele>1279.1</ele>
        <time>2022-08-05T12:10:36Z</time>
      </trkpt>
      <trkpt lat="44.65204" lon="2.9371">
        <ele>1279.2</ele>
        <time>2022-08-05T12:10:37Z</time>
      </trkpt>
      <trkpt lat="44.65207" lon="2.9371">
        <ele>1279</ele>
        <time>2022-08-05T12:10:41Z</time>
      </trkpt>
      <trkpt lat="44.65209" lon="2.9371">
        <ele>1279</ele>
        <time>2022-08-05T12:10:42Z</time>
      </trkpt>
      <trkpt lat="44.65212" lon="2.93711">
        <ele>1279.1</ele>
        <time>2022-08-05T12:10:44Z</time>
      </trkpt>
      <trkpt lat="44.65214" lon="2.93711">
        <ele>1279.2</ele>
        <time>2022-08-05T12:10:46Z</time>
      </trkpt>
      <trkpt lat="44.65215" lon="2.93712">
        <ele>1279.4</ele>
        <time>2022-08-05T12:10:48Z</time>
      </trkpt>
      <trkpt lat="44.65216" lon="2.93713">
        <ele>1279.4</ele>
        <time>2022-08-05T12:10:49Z</time>
      </trkpt>
      <trkpt lat="44.65219" lon="2.93714">
        <ele>1279.8</ele>
        <time>2022-08-05T12:10:51Z</time>
      </trkpt>
      <trkpt lat="44.65221" lon="2.93715">
        <ele>1280</ele>
        <time>2022-08-05T12:10:53Z</time>
      </trkpt>
      <trkpt lat="44.65223" lon="2.93715">
        <ele>1280</ele>
        <time>2022-08-05T12:10:54Z</time>
      </trkpt>
      <trkpt lat="44.65223" lon="2.93716">
        <ele>1280.1</ele>
        <time>2022-08-05T12:10:55Z</time>
      </trkpt>
      <trkpt lat="44.65226" lon="2.93717">
        <ele>1280.4</ele>
        <time>2022-08-05T12:10:57Z</time>
      </trkpt>
      <trkpt lat="44.65226" lon="2.93717">
        <ele>1280.4</ele>
        <time>2022-08-05T12:10:58Z</time>
      </trkpt>
      <trkpt lat="44.65228" lon="2.93717">
        <ele>1280.4</ele>
        <time>2022-08-05T12:10:59Z</time>
      </trkpt>
      <trkpt lat="44.65231" lon="2.93716">
        <ele>1280.2</ele>
        <time>2022-08-05T12:11:01Z</time>
      </trkpt>
      <trkpt lat="44.65232" lon="2.93717">
        <ele>1280.3</ele>
        <time>2022-08-05T12:11:02Z</time>
      </trkpt>
      <trkpt lat="44.65232" lon="2.93717">
        <ele>1280.4</ele>
        <time>2022-08-05T12:11:03Z</time>
      </trkpt>
      <trkpt lat="44.65233" lon="2.93718">
        <ele>1280.4</ele>
        <time>2022-08-05T12:11:04Z</time>
      </trkpt>
      <trkpt lat="44.65234" lon="2.93718">
        <ele>1280.5</ele>
        <time>2022-08-05T12:11:05Z</time>
      </trkpt>
      <trkpt lat="44.65234" lon="2.93718">
        <ele>1280.6</ele>
        <time>2022-08-05T12:11:06Z</time>
      </trkpt>
      <trkpt lat="44.65235" lon="2.9372">
        <ele>1280.9</ele>
        <time>2022-08-05T12:11:08Z</time>
      </trkpt>
      <trkpt lat="44.65237" lon="2.93721">
        <ele>1281.1</ele>
        <time>2022-08-05T12:11:10Z</time>
      </trkpt>
      <trkpt lat="44.65237" lon="2.93722">
        <ele>1281.3</ele>
        <time>2022-08-05T12:11:11Z</time>
      </trkpt>
      <trkpt lat="44.65238" lon="2.93722">
        <ele>1281.4</ele>
        <time>2022-08-05T12:11:12Z</time>
      </trkpt>
      <trkpt lat="44.65238" lon="2.93722">
        <ele>1281.4</ele>
        <time>2022-08-05T12:11:13Z</time>
      </trkpt>
      <trkpt lat="44.65239" lon="2.93722">
        <ele>1281.3</ele>
        <time>2022-08-05T12:11:14Z</time>
      </trkpt>
      <trkpt lat="44.65245" lon="2.93723">
        <ele>1281.3</ele>
        <time>2022-08-05T12:11:19Z</time>
      </trkpt>
      <trkpt lat="44.65248" lon="2.93722">
        <ele>1281</ele>
        <time>2022-08-05T12:11:21Z</time>
      </trkpt>
      <trkpt lat="44.65251" lon="2.93723">
        <ele>1281</ele>
        <time>2022-08-05T12:11:23Z</time>
      </trkpt>
      <trkpt lat="44.65252" lon="2.93723">
        <ele>1281</ele>
        <time>2022-08-05T12:11:26Z</time>
      </trkpt>
      <trkpt lat="44.6526" lon="2.93725">
        <ele>1281.2</ele>
        <time>2022-08-05T12:11:33Z</time>
      </trkpt>
      <trkpt lat="44.65266" lon="2.93729">
        <ele>1281.8</ele>
        <time>2022-08-05T12:11:37Z</time>
      </trkpt>
      <trkpt lat="44.65274" lon="2.93732">
        <ele>1282</ele>
        <time>2022-08-05T12:11:41Z</time>
      </trkpt>
      <trkpt lat="44.65278" lon="2.93735">
        <ele>1282.3</ele>
        <time>2022-08-05T12:11:44Z</time>
      </trkpt>
      <trkpt lat="44.65285" lon="2.9374">
        <ele>1283.3</ele>
        <time>2022-08-05T12:11:50Z</time>
      </trkpt>
      <trkpt lat="44.6529" lon="2.93745">
        <ele>1284.5</ele>
        <time>2022-08-05T12:11:55Z</time>
      </trkpt>
      <trkpt lat="44.65292" lon="2.93747">
        <ele>1284.9</ele>
        <time>2022-08-05T12:11:56Z</time>
      </trkpt>
      <trkpt lat="44.65293" lon="2.93748">
        <ele>1285.1</ele>
        <time>2022-08-05T12:11:57Z</time>
      </trkpt>
      <trkpt lat="44.65294" lon="2.93748">
        <ele>1285.3</ele>
        <time>2022-08-05T12:11:58Z</time>
      </trkpt>
      <trkpt lat="44.65297" lon="2.9375">
        <ele>1285.6</ele>
        <time>2022-08-05T12:12:00Z</time>
      </trkpt>
      <trkpt lat="44.653" lon="2.93752">
        <ele>1286.1</ele>
        <time>2022-08-05T12:12:04Z</time>
      </trkpt>
      <trkpt lat="44.65301" lon="2.93752">
        <ele>1286.1</ele>
        <time>2022-08-05T12:12:06Z</time>
      </trkpt>
      <trkpt lat="44.65301" lon="2.93751">
        <ele>1286</ele>
        <time>2022-08-05T12:12:07Z</time>
      </trkpt>
      <trkpt lat="44.65302" lon="2.93751">
        <ele>1286</ele>
        <time>2022-08-05T12:12:08Z</time>
      </trkpt>
      <trkpt lat="44.65302" lon="2.9375">
        <ele>1285.9</ele>
        <time>2022-08-05T12:12:10Z</time>
      </trkpt>
      <trkpt lat="44.65304" lon="2.93751">
        <ele>1286</ele>
        <time>2022-08-05T12:12:12Z</time>
      </trkpt>
      <trkpt lat="44.65305" lon="2.93752">
        <ele>1286.2</ele>
        <time>2022-08-05T12:12:14Z</time>
      </trkpt>
      <trkpt lat="44.65307" lon="2.93752">
        <ele>1286.4</ele>
        <time>2022-08-05T12:12:16Z</time>
      </trkpt>
      <trkpt lat="44.6531" lon="2.93754">
        <ele>1286.8</ele>
        <time>2022-08-05T12:12:19Z</time>
      </trkpt>
      <trkpt lat="44.65315" lon="2.93753">
        <ele>1286.8</ele>
        <time>2022-08-05T12:12:24Z</time>
      </trkpt>
      <trkpt lat="44.65324" lon="2.9375">
        <ele>1286.7</ele>
        <time>2022-08-05T12:12:33Z</time>
      </trkpt>
      <trkpt lat="44.6533" lon="2.9375">
        <ele>1286.9</ele>
        <time>2022-08-05T12:12:39Z</time>
      </trkpt>
      <trkpt lat="44.65335" lon="2.9375">
        <ele>1287.1</ele>
        <time>2022-08-05T12:12:43Z</time>
      </trkpt>
      <trkpt lat="44.65337" lon="2.93751">
        <ele>1287.2</ele>
        <time>2022-08-05T12:12:44Z</time>
      </trkpt>
      <trkpt lat="44.65344" lon="2.93753">
        <ele>1287.9</ele>
        <time>2022-08-05T12:12:49Z</time>
      </trkpt>
      <trkpt lat="44.65345" lon="2.93754">
        <ele>1288</ele>
        <time>2022-08-05T12:12:50Z</time>
      </trkpt>
      <trkpt lat="44.65347" lon="2.93754">
        <ele>1288.1</ele>
        <time>2022-08-05T12:12:52Z</time>
      </trkpt>
      <trkpt lat="44.65348" lon="2.93754">
        <ele>1288.2</ele>
        <time>2022-08-05T12:12:53Z</time>
      </trkpt>
      <trkpt lat="44.65349" lon="2.93754">
        <ele>1288.3</ele>
        <time>2022-08-05T12:12:54Z</time>
      </trkpt>
      <trkpt lat="44.6535" lon="2.93754">
        <ele>1288.3</ele>
        <time>2022-08-05T12:12:55Z</time>
      </trkpt>
      <trkpt lat="44.65352" lon="2.93755">
        <ele>1288.5</ele>
        <time>2022-08-05T12:12:57Z</time>
      </trkpt>
      <trkpt lat="44.65353" lon="2.93755">
        <ele>1288.5</ele>
        <time>2022-08-05T12:12:58Z</time>
      </trkpt>
      <trkpt lat="44.65355" lon="2.93754">
        <ele>1288.5</ele>
        <time>2022-08-05T12:13:00Z</time>
      </trkpt>
      <trkpt lat="44.65359" lon="2.93755">
        <ele>1288.9</ele>
        <time>2022-08-05T12:13:04Z</time>
      </trkpt>
      <trkpt lat="44.65362" lon="2.93756">
        <ele>1289.1</ele>
        <time>2022-08-05T12:13:07Z</time>
      </trkpt>
      <trkpt lat="44.65364" lon="2.93756">
        <ele>1289.2</ele>
        <time>2022-08-05T12:13:09Z</time>
      </trkpt>
      <trkpt lat="44.6537" lon="2.93756">
        <ele>1289.6</ele>
        <time>2022-08-05T12:13:14Z</time>
      </trkpt>
      <trkpt lat="44.65372" lon="2.93756">
        <ele>1289.8</ele>
        <time>2022-08-05T12:13:16Z</time>
      </trkpt>
      <trkpt lat="44.65374" lon="2.93757">
        <ele>1290.1</ele>
        <time>2022-08-05T12:13:18Z</time>
      </trkpt>
      <trkpt lat="44.65376" lon="2.93759">
        <ele>1290.5</ele>
        <time>2022-08-05T12:13:20Z</time>
      </trkpt>
      <trkpt lat="44.65377" lon="2.93759">
        <ele>1290.6</ele>
        <time>2022-08-05T12:13:21Z</time>
      </trkpt>
      <trkpt lat="44.65379" lon="2.93759">
        <ele>1290.6</ele>
        <time>2022-08-05T12:13:23Z</time>
      </trkpt>
      <trkpt lat="44.65381" lon="2.93758">
        <ele>1290.6</ele>
        <time>2022-08-05T12:13:25Z</time>
      </trkpt>
      <trkpt lat="44.65382" lon="2.93757">
        <ele>1290.5</ele>
        <time>2022-08-05T12:13:27Z</time>
      </trkpt>
      <trkpt lat="44.65384" lon="2.93756">
        <ele>1290.6</ele>
        <time>2022-08-05T12:13:29Z</time>
      </trkpt>
      <trkpt lat="44.65392" lon="2.93757">
        <ele>1291.3</ele>
        <time>2022-08-05T12:13:35Z</time>
      </trkpt>
      <trkpt lat="44.65393" lon="2.93758">
        <ele>1291.4</ele>
        <time>2022-08-05T12:13:37Z</time>
      </trkpt>
      <trkpt lat="44.65395" lon="2.93757">
        <ele>1291.5</ele>
        <time>2022-08-05T12:13:39Z</time>
      </trkpt>
      <trkpt lat="44.65396" lon="2.93757">
        <ele>1291.5</ele>
        <time>2022-08-05T12:13:40Z</time>
      </trkpt>
      <trkpt lat="44.65397" lon="2.93757">
        <ele>1291.5</ele>
        <time>2022-08-05T12:13:41Z</time>
      </trkpt>
      <trkpt lat="44.65398" lon="2.93757">
        <ele>1291.6</ele>
        <time>2022-08-05T12:13:43Z</time>
      </trkpt>
      <trkpt lat="44.65401" lon="2.93757">
        <ele>1291.8</ele>
        <time>2022-08-05T12:13:45Z</time>
      </trkpt>
      <trkpt lat="44.65404" lon="2.93756">
        <ele>1292</ele>
        <time>2022-08-05T12:13:48Z</time>
      </trkpt>
      <trkpt lat="44.65406" lon="2.93755">
        <ele>1292</ele>
        <time>2022-08-05T12:13:51Z</time>
      </trkpt>
      <trkpt lat="44.65408" lon="2.93754">
        <ele>1292</ele>
        <time>2022-08-05T12:13:53Z</time>
      </trkpt>
      <trkpt lat="44.65411" lon="2.93754">
        <ele>1292.2</ele>
        <time>2022-08-05T12:13:56Z</time>
      </trkpt>
      <trkpt lat="44.65412" lon="2.93753">
        <ele>1292.1</ele>
        <time>2022-08-05T12:13:57Z</time>
      </trkpt>
      <trkpt lat="44.65414" lon="2.93753">
        <ele>1292.1</ele>
        <time>2022-08-05T12:13:59Z</time>
      </trkpt>
      <trkpt lat="44.65416" lon="2.93752">
        <ele>1292.2</ele>
        <time>2022-08-05T12:14:01Z</time>
      </trkpt>
      <trkpt lat="44.65418" lon="2.93752">
        <ele>1292.3</ele>
        <time>2022-08-05T12:14:06Z</time>
      </trkpt>
      <trkpt lat="44.65417" lon="2.93752">
        <ele>1292.3</ele>
        <time>2022-08-05T12:14:07Z</time>
      </trkpt>
      <trkpt lat="44.65417" lon="2.93751">
        <ele>1292.2</ele>
        <time>2022-08-05T12:14:11Z</time>
      </trkpt>
      <trkpt lat="44.65417" lon="2.93752">
        <ele>1292.2</ele>
        <time>2022-08-05T12:14:14Z</time>
      </trkpt>
      <trkpt lat="44.65417" lon="2.93752">
        <ele>1292.2</ele>
        <time>2022-08-05T12:14:17Z</time>
      </trkpt>
      <trkpt lat="44.65417" lon="2.93752">
        <ele>1292.2</ele>
        <time>2022-08-05T12:14:22Z</time>
      </trkpt>
      <trkpt lat="44.65416" lon="2.93752">
        <ele>1292.2</ele>
        <time>2022-08-05T12:14:38Z</time>
      </trkpt>
      <trkpt lat="44.65416" lon="2.93753">
        <ele>1292.3</ele>
        <time>2022-08-05T12:14:44Z</time>
      </trkpt>
      <trkpt lat="44.65416" lon="2.93753">
        <ele>1292.4</ele>
        <time>2022-08-05T12:14:47Z</time>
      </trkpt>
      <trkpt lat="44.65416" lon="2.93753">
        <ele>1292.4</ele>
        <time>2022-08-05T12:14:49Z</time>
      </trkpt>
      <trkpt lat="44.65417" lon="2.93754">
        <ele>1292.5</ele>
        <time>2022-08-05T12:14:51Z</time>
      </trkpt>
      <trkpt lat="44.65417" lon="2.93754">
        <ele>1292.5</ele>
        <time>2022-08-05T12:14:52Z</time>
      </trkpt>
      <trkpt lat="44.65417" lon="2.93755">
        <ele>1292.7</ele>
        <time>2022-08-05T12:14:53Z</time>
      </trkpt>
      <trkpt lat="44.65417" lon="2.93756">
        <ele>1292.9</ele>
        <time>2022-08-05T12:14:55Z</time>
      </trkpt>
      <trkpt lat="44.65418" lon="2.93757">
        <ele>1293</ele>
        <time>2022-08-05T12:14:58Z</time>
      </trkpt>
      <trkpt lat="44.65418" lon="2.93757">
        <ele>1293</ele>
        <time>2022-08-05T12:15:01Z</time>
      </trkpt>
      <trkpt lat="44.65418" lon="2.93757">
        <ele>1293</ele>
        <time>2022-08-05T12:15:06Z</time>
      </trkpt>
      <trkpt lat="44.65421" lon="2.93754">
        <ele>1292.8</ele>
        <time>2022-08-05T12:15:09Z</time>
      </trkpt>
      <trkpt lat="44.65423" lon="2.93754">
        <ele>1292.7</ele>
        <time>2022-08-05T12:15:10Z</time>
      </trkpt>
      <trkpt lat="44.65425" lon="2.93752">
        <ele>1292.6</ele>
        <time>2022-08-05T12:15:12Z</time>
      </trkpt>
      <trkpt lat="44.65428" lon="2.93751">
        <ele>1292.6</ele>
        <time>2022-08-05T12:15:14Z</time>
      </trkpt>
      <trkpt lat="44.65432" lon="2.93751">
        <ele>1292.7</ele>
        <time>2022-08-05T12:15:17Z</time>
      </trkpt>
      <trkpt lat="44.65437" lon="2.93752">
        <ele>1293.1</ele>
        <time>2022-08-05T12:15:21Z</time>
      </trkpt>
      <trkpt lat="44.65438" lon="2.93752">
        <ele>1293.1</ele>
        <time>2022-08-05T12:15:22Z</time>
      </trkpt>
      <trkpt lat="44.6544" lon="2.93753">
        <ele>1293.3</ele>
        <time>2022-08-05T12:15:25Z</time>
      </trkpt>
      <trkpt lat="44.65441" lon="2.93753">
        <ele>1293.3</ele>
        <time>2022-08-05T12:15:26Z</time>
      </trkpt>
      <trkpt lat="44.65442" lon="2.93753">
        <ele>1293.3</ele>
        <time>2022-08-05T12:15:27Z</time>
      </trkpt>
      <trkpt lat="44.65443" lon="2.93753">
        <ele>1293.3</ele>
        <time>2022-08-05T12:15:28Z</time>
      </trkpt>
      <trkpt lat="44.65445" lon="2.93753">
        <ele>1293.4</ele>
        <time>2022-08-05T12:15:30Z</time>
      </trkpt>
      <trkpt lat="44.65447" lon="2.93753">
        <ele>1293.6</ele>
        <time>2022-08-05T12:15:32Z</time>
      </trkpt>
      <trkpt lat="44.65451" lon="2.93753">
        <ele>1293.9</ele>
        <time>2022-08-05T12:15:36Z</time>
      </trkpt>
      <trkpt lat="44.65458" lon="2.93754">
        <ele>1294.6</ele>
        <time>2022-08-05T12:15:44Z</time>
      </trkpt>
      <trkpt lat="44.6546" lon="2.93754">
        <ele>1294.8</ele>
        <time>2022-08-05T12:15:46Z</time>
      </trkpt>
      <trkpt lat="44.65461" lon="2.93754">
        <ele>1294.9</ele>
        <time>2022-08-05T12:15:47Z</time>
      </trkpt>
      <trkpt lat="44.65463" lon="2.93754">
        <ele>1295.1</ele>
        <time>2022-08-05T12:15:50Z</time>
      </trkpt>
      <trkpt lat="44.65467" lon="2.93752">
        <ele>1295</ele>
        <time>2022-08-05T12:15:55Z</time>
      </trkpt>
      <trkpt lat="44.65471" lon="2.9375">
        <ele>1295</ele>
        <time>2022-08-05T12:15:59Z</time>
      </trkpt>
      <trkpt lat="44.65472" lon="2.9375">
        <ele>1294.9</ele>
        <time>2022-08-05T12:16:01Z</time>
      </trkpt>
      <trkpt lat="44.65475" lon="2.93749">
        <ele>1295</ele>
        <time>2022-08-05T12:16:04Z</time>
      </trkpt>
      <trkpt lat="44.6548" lon="2.93747">
        <ele>1295</ele>
        <time>2022-08-05T12:16:08Z</time>
      </trkpt>
      <trkpt lat="44.65487" lon="2.93745">
        <ele>1295.2</ele>
        <time>2022-08-05T12:16:15Z</time>
      </trkpt>
      <trkpt lat="44.65488" lon="2.93745">
        <ele>1295.1</ele>
        <time>2022-08-05T12:16:16Z</time>
      </trkpt>
      <trkpt lat="44.65494" lon="2.93742">
        <ele>1295.1</ele>
        <time>2022-08-05T12:16:23Z</time>
      </trkpt>
      <trkpt lat="44.65495" lon="2.93741">
        <ele>1295</ele>
        <time>2022-08-05T12:16:24Z</time>
      </trkpt>
      <trkpt lat="44.65497" lon="2.93741">
        <ele>1295.1</ele>
        <time>2022-08-05T12:16:27Z</time>
      </trkpt>
      <trkpt lat="44.655" lon="2.93743">
        <ele>1295.6</ele>
        <time>2022-08-05T12:16:31Z</time>
      </trkpt>
      <trkpt lat="44.65506" lon="2.93746">
        <ele>1296.6</ele>
        <time>2022-08-05T12:16:39Z</time>
      </trkpt>
      <trkpt lat="44.65507" lon="2.93747">
        <ele>1296.7</ele>
        <time>2022-08-05T12:16:40Z</time>
      </trkpt>
      <trkpt lat="44.65509" lon="2.93748">
        <ele>1297</ele>
        <time>2022-08-05T12:16:43Z</time>
      </trkpt>
      <trkpt lat="44.65511" lon="2.9375">
        <ele>1297.3</ele>
        <time>2022-08-05T12:16:46Z</time>
      </trkpt>
      <trkpt lat="44.65512" lon="2.9375">
        <ele>1297.5</ele>
        <time>2022-08-05T12:16:47Z</time>
      </trkpt>
      <trkpt lat="44.65514" lon="2.93752">
        <ele>1297.8</ele>
        <time>2022-08-05T12:16:49Z</time>
      </trkpt>
      <trkpt lat="44.65516" lon="2.93753">
        <ele>1298.1</ele>
        <time>2022-08-05T12:16:52Z</time>
      </trkpt>
      <trkpt lat="44.65519" lon="2.93755">
        <ele>1298.5</ele>
        <time>2022-08-05T12:16:57Z</time>
      </trkpt>
      <trkpt lat="44.65519" lon="2.93755">
        <ele>1298.6</ele>
        <time>2022-08-05T12:16:58Z</time>
      </trkpt>
      <trkpt lat="44.65519" lon="2.93755">
        <ele>1298.7</ele>
        <time>2022-08-05T12:16:59Z</time>
      </trkpt>
      <trkpt lat="44.65522" lon="2.93757">
        <ele>1299.2</ele>
        <time>2022-08-05T12:17:03Z</time>
      </trkpt>
      <trkpt lat="44.65525" lon="2.93759">
        <ele>1299.5</ele>
        <time>2022-08-05T12:17:07Z</time>
      </trkpt>
      <trkpt lat="44.65526" lon="2.9376">
        <ele>1299.8</ele>
        <time>2022-08-05T12:17:09Z</time>
      </trkpt>
      <trkpt lat="44.65531" lon="2.93764">
        <ele>1300.6</ele>
        <time>2022-08-05T12:17:15Z</time>
      </trkpt>
      <trkpt lat="44.65534" lon="2.93767">
        <ele>1301.1</ele>
        <time>2022-08-05T12:17:19Z</time>
      </trkpt>
      <trkpt lat="44.65537" lon="2.93769">
        <ele>1301.4</ele>
        <time>2022-08-05T12:17:23Z</time>
      </trkpt>
      <trkpt lat="44.65538" lon="2.93769">
        <ele>1301.5</ele>
        <time>2022-08-05T12:17:24Z</time>
      </trkpt>
      <trkpt lat="44.65544" lon="2.9377">
        <ele>1301.7</ele>
        <time>2022-08-05T12:17:32Z</time>
      </trkpt>
      <trkpt lat="44.65544" lon="2.9377">
        <ele>1301.7</ele>
        <time>2022-08-05T12:17:33Z</time>
      </trkpt>
      <trkpt lat="44.65549" lon="2.93769">
        <ele>1301.7</ele>
        <time>2022-08-05T12:17:38Z</time>
      </trkpt>
      <trkpt lat="44.65552" lon="2.93768">
        <ele>1301.6</ele>
        <time>2022-08-05T12:17:41Z</time>
      </trkpt>
      <trkpt lat="44.65553" lon="2.93768">
        <ele>1301.5</ele>
        <time>2022-08-05T12:17:46Z</time>
      </trkpt>
      <trkpt lat="44.65554" lon="2.93767">
        <ele>1301.4</ele>
        <time>2022-08-05T12:17:47Z</time>
      </trkpt>
      <trkpt lat="44.65556" lon="2.93766">
        <ele>1301.4</ele>
        <time>2022-08-05T12:17:49Z</time>
      </trkpt>
      <trkpt lat="44.65557" lon="2.93766">
        <ele>1301.4</ele>
        <time>2022-08-05T12:17:50Z</time>
      </trkpt>
      <trkpt lat="44.65558" lon="2.93765">
        <ele>1301.4</ele>
        <time>2022-08-05T12:17:52Z</time>
      </trkpt>
      <trkpt lat="44.6556" lon="2.93764">
        <ele>1301.5</ele>
        <time>2022-08-05T12:17:55Z</time>
      </trkpt>
      <trkpt lat="44.65561" lon="2.93764">
        <ele>1301.7</ele>
        <time>2022-08-05T12:17:56Z</time>
      </trkpt>
      <trkpt lat="44.65564" lon="2.93764">
        <ele>1301.9</ele>
        <time>2022-08-05T12:17:58Z</time>
      </trkpt>
      <trkpt lat="44.65568" lon="2.93766">
        <ele>1302.6</ele>
        <time>2022-08-05T12:18:02Z</time>
      </trkpt>
      <trkpt lat="44.6557" lon="2.93768">
        <ele>1303.1</ele>
        <time>2022-08-05T12:18:05Z</time>
      </trkpt>
      <trkpt lat="44.65575" lon="2.93769">
        <ele>1303.8</ele>
        <time>2022-08-05T12:18:11Z</time>
      </trkpt>
      <trkpt lat="44.65576" lon="2.93769">
        <ele>1304</ele>
        <time>2022-08-05T12:18:13Z</time>
      </trkpt>
      <trkpt lat="44.65576" lon="2.93769">
        <ele>1303.9</ele>
        <time>2022-08-05T12:18:14Z</time>
      </trkpt>
      <trkpt lat="44.65577" lon="2.93769">
        <ele>1304</ele>
        <time>2022-08-05T12:18:15Z</time>
      </trkpt>
      <trkpt lat="44.65577" lon="2.93769">
        <ele>1304</ele>
        <time>2022-08-05T12:18:16Z</time>
      </trkpt>
      <trkpt lat="44.65577" lon="2.93769">
        <ele>1304.1</ele>
        <time>2022-08-05T12:18:17Z</time>
      </trkpt>
      <trkpt lat="44.65578" lon="2.93769">
        <ele>1304.2</ele>
        <time>2022-08-05T12:18:18Z</time>
      </trkpt>
      <trkpt lat="44.65581" lon="2.9377">
        <ele>1304.7</ele>
        <time>2022-08-05T12:18:25Z</time>
      </trkpt>
      <trkpt lat="44.65584" lon="2.93772">
        <ele>1305.2</ele>
        <time>2022-08-05T12:18:28Z</time>
      </trkpt>
      <trkpt lat="44.65585" lon="2.93773">
        <ele>1305.4</ele>
        <time>2022-08-05T12:18:30Z</time>
      </trkpt>
      <trkpt lat="44.65587" lon="2.93774">
        <ele>1305.5</ele>
        <time>2022-08-05T12:18:33Z</time>
      </trkpt>
      <trkpt lat="44.65588" lon="2.93775">
        <ele>1305.8</ele>
        <time>2022-08-05T12:18:38Z</time>
      </trkpt>
      <trkpt lat="44.65589" lon="2.93776">
        <ele>1306</ele>
        <time>2022-08-05T12:18:40Z</time>
      </trkpt>
      <trkpt lat="44.65591" lon="2.93778">
        <ele>1306.3</ele>
        <time>2022-08-05T12:18:42Z</time>
      </trkpt>
      <trkpt lat="44.65595" lon="2.93784">
        <ele>1307.4</ele>
        <time>2022-08-05T12:18:48Z</time>
      </trkpt>
      <trkpt lat="44.65595" lon="2.93785">
        <ele>1307.6</ele>
        <time>2022-08-05T12:18:50Z</time>
      </trkpt>
      <trkpt lat="44.656" lon="2.93793">
        <ele>1309.1</ele>
        <time>2022-08-05T12:18:57Z</time>
      </trkpt>
      <trkpt lat="44.65601" lon="2.93797">
        <ele>1309.8</ele>
        <time>2022-08-05T12:19:00Z</time>
      </trkpt>
      <trkpt lat="44.65605" lon="2.93806">
        <ele>1311.6</ele>
        <time>2022-08-05T12:19:07Z</time>
      </trkpt>
      <trkpt lat="44.65608" lon="2.9381">
        <ele>1312.3</ele>
        <time>2022-08-05T12:19:11Z</time>
      </trkpt>
      <trkpt lat="44.65611" lon="2.93816">
        <ele>1313.1</ele>
        <time>2022-08-05T12:19:17Z</time>
      </trkpt>
      <trkpt lat="44.65613" lon="2.93819">
        <ele>1313.4</ele>
        <time>2022-08-05T12:19:20Z</time>
      </trkpt>
      <trkpt lat="44.65617" lon="2.93826">
        <ele>1314.2</ele>
        <time>2022-08-05T12:19:27Z</time>
      </trkpt>
      <trkpt lat="44.65621" lon="2.93833">
        <ele>1315</ele>
        <time>2022-08-05T12:19:35Z</time>
      </trkpt>
      <trkpt lat="44.65625" lon="2.9384">
        <ele>1315.9</ele>
        <time>2022-08-05T12:19:42Z</time>
      </trkpt>
      <trkpt lat="44.65628" lon="2.93845">
        <ele>1316.5</ele>
        <time>2022-08-05T12:19:47Z</time>
      </trkpt>
      <trkpt lat="44.65631" lon="2.93849">
        <ele>1316.9</ele>
        <time>2022-08-05T12:19:50Z</time>
      </trkpt>
      <trkpt lat="44.65632" lon="2.93852">
        <ele>1317.2</ele>
        <time>2022-08-05T12:19:53Z</time>
      </trkpt>
      <trkpt lat="44.65632" lon="2.93854">
        <ele>1317.4</ele>
        <time>2022-08-05T12:19:54Z</time>
      </trkpt>
      <trkpt lat="44.65633" lon="2.93857">
        <ele>1317.7</ele>
        <time>2022-08-05T12:19:57Z</time>
      </trkpt>
      <trkpt lat="44.65633" lon="2.93859">
        <ele>1318</ele>
        <time>2022-08-05T12:19:59Z</time>
      </trkpt>
      <trkpt lat="44.65633" lon="2.93859">
        <ele>1318</ele>
        <time>2022-08-05T12:20:00Z</time>
      </trkpt>
      <trkpt lat="44.65633" lon="2.93859">
        <ele>1318</ele>
        <time>2022-08-05T12:20:02Z</time>
      </trkpt>
      <trkpt lat="44.65633" lon="2.93858">
        <ele>1317.8</ele>
        <time>2022-08-05T12:20:05Z</time>
      </trkpt>
      <trkpt lat="44.65638" lon="2.93857">
        <ele>1317.6</ele>
        <time>2022-08-05T12:20:11Z</time>
      </trkpt>
      <trkpt lat="44.65638" lon="2.93858">
        <ele>1317.7</ele>
        <time>2022-08-05T12:20:12Z</time>
      </trkpt>
      <trkpt lat="44.6564" lon="2.93865">
        <ele>1318.4</ele>
        <time>2022-08-05T12:20:19Z</time>
      </trkpt>
      <trkpt lat="44.65639" lon="2.93868">
        <ele>1318.7</ele>
        <time>2022-08-05T12:20:21Z</time>
      </trkpt>
      <trkpt lat="44.65637" lon="2.93869">
        <ele>1318.9</ele>
        <time>2022-08-05T12:20:27Z</time>
      </trkpt>
      <trkpt lat="44.65638" lon="2.93871">
        <ele>1319.1</ele>
        <time>2022-08-05T12:20:33Z</time>
      </trkpt>
      <trkpt lat="44.65637" lon="2.93872">
        <ele>1319.2</ele>
        <time>2022-08-05T12:20:34Z</time>
      </trkpt>
      <trkpt lat="44.65636" lon="2.93869">
        <ele>1319</ele>
        <time>2022-08-05T12:20:37Z</time>
      </trkpt>
      <trkpt lat="44.65636" lon="2.93869">
        <ele>1319</ele>
        <time>2022-08-05T12:20:40Z</time>
      </trkpt>
      <trkpt lat="44.65636" lon="2.93869">
        <ele>1319</ele>
        <time>2022-08-05T12:20:44Z</time>
      </trkpt>
      <trkpt lat="44.65636" lon="2.93869">
        <ele>1319</ele>
        <time>2022-08-05T12:20:52Z</time>
      </trkpt>
      <trkpt lat="44.65636" lon="2.93869">
        <ele>1319</ele>
        <time>2022-08-05T12:20:56Z</time>
      </trkpt>
      <trkpt lat="44.65636" lon="2.93868">
        <ele>1318.9</ele>
        <time>2022-08-05T12:21:03Z</time>
      </trkpt>
      <trkpt lat="44.65635" lon="2.93867">
        <ele>1318.8</ele>
        <time>2022-08-05T12:21:06Z</time>
      </trkpt>
      <trkpt lat="44.65635" lon="2.93867">
        <ele>1318.7</ele>
        <time>2022-08-05T12:21:08Z</time>
      </trkpt>
      <trkpt lat="44.65635" lon="2.93867">
        <ele>1318.7</ele>
        <time>2022-08-05T12:21:09Z</time>
      </trkpt>
      <trkpt lat="44.65635" lon="2.93867">
        <ele>1318.7</ele>
        <time>2022-08-05T12:21:13Z</time>
      </trkpt>
      <trkpt lat="44.65635" lon="2.93867">
        <ele>1318.7</ele>
        <time>2022-08-05T12:21:16Z</time>
      </trkpt>
      <trkpt lat="44.65635" lon="2.93867">
        <ele>1318.8</ele>
        <time>2022-08-05T12:21:22Z</time>
      </trkpt>
      <trkpt lat="44.65635" lon="2.93867">
        <ele>1318.8</ele>
        <time>2022-08-05T12:21:23Z</time>
      </trkpt>
      <trkpt lat="44.65635" lon="2.93867">
        <ele>1318.8</ele>
        <time>2022-08-05T12:21:25Z</time>
      </trkpt>
      <trkpt lat="44.65635" lon="2.93867">
        <ele>1318.8</ele>
        <time>2022-08-05T12:21:27Z</time>
      </trkpt>
      <trkpt lat="44.65635" lon="2.93867">
        <ele>1318.8</ele>
        <time>2022-08-05T12:21:29Z</time>
      </trkpt>
      <trkpt lat="44.65636" lon="2.93867">
        <ele>1318.8</ele>
        <time>2022-08-05T12:21:35Z</time>
      </trkpt>
      <trkpt lat="44.65636" lon="2.93867">
        <ele>1318.8</ele>
        <time>2022-08-05T12:21:36Z</time>
      </trkpt>
      <trkpt lat="44.65636" lon="2.93867">
        <ele>1318.7</ele>
        <time>2022-08-05T12:21:37Z</time>
      </trkpt>
      <trkpt lat="44.65641" lon="2.93866">
        <ele>1318.3</ele>
        <time>2022-08-05T12:21:40Z</time>
      </trkpt>
      <trkpt lat="44.65643" lon="2.93866">
        <ele>1318.2</ele>
        <time>2022-08-05T12:21:41Z</time>
      </trkpt>
      <trkpt lat="44.65647" lon="2.93866">
        <ele>1317.9</ele>
        <time>2022-08-05T12:21:43Z</time>
      </trkpt>
      <trkpt lat="44.6565" lon="2.93865">
        <ele>1317.6</ele>
        <time>2022-08-05T12:21:45Z</time>
      </trkpt>
      <trkpt lat="44.65652" lon="2.93864">
        <ele>1317.4</ele>
        <time>2022-08-05T12:21:47Z</time>
      </trkpt>
      <trkpt lat="44.65654" lon="2.93864">
        <ele>1317.2</ele>
        <time>2022-08-05T12:21:48Z</time>
      </trkpt>
      <trkpt lat="44.65655" lon="2.93864">
        <ele>1317.1</ele>
        <time>2022-08-05T12:21:49Z</time>
      </trkpt>
      <trkpt lat="44.65656" lon="2.93863">
        <ele>1317</ele>
        <time>2022-08-05T12:21:50Z</time>
      </trkpt>
      <trkpt lat="44.65656" lon="2.93862">
        <ele>1316.8</ele>
        <time>2022-08-05T12:21:51Z</time>
      </trkpt>
      <trkpt lat="44.65657" lon="2.93861">
        <ele>1316.6</ele>
        <time>2022-08-05T12:21:52Z</time>
      </trkpt>
      <trkpt lat="44.65658" lon="2.9386">
        <ele>1316.5</ele>
        <time>2022-08-05T12:21:53Z</time>
      </trkpt>
      <trkpt lat="44.65659" lon="2.9386">
        <ele>1316.4</ele>
        <time>2022-08-05T12:21:54Z</time>
      </trkpt>
      <trkpt lat="44.6566" lon="2.9386">
        <ele>1316.4</ele>
        <time>2022-08-05T12:21:55Z</time>
      </trkpt>
      <trkpt lat="44.65661" lon="2.93861">
        <ele>1316.3</ele>
        <time>2022-08-05T12:21:56Z</time>
      </trkpt>
      <trkpt lat="44.65663" lon="2.93861">
        <ele>1316.3</ele>
        <time>2022-08-05T12:21:57Z</time>
      </trkpt>
      <trkpt lat="44.65664" lon="2.93861">
        <ele>1316.2</ele>
        <time>2022-08-05T12:21:58Z</time>
      </trkpt>
      <trkpt lat="44.65665" lon="2.93861">
        <ele>1316.1</ele>
        <time>2022-08-05T12:21:59Z</time>
      </trkpt>
      <trkpt lat="44.65666" lon="2.93861">
        <ele>1316</ele>
        <time>2022-08-05T12:22:00Z</time>
      </trkpt>
      <trkpt lat="44.65669" lon="2.93862">
        <ele>1315.9</ele>
        <time>2022-08-05T12:22:02Z</time>
      </trkpt>
      <trkpt lat="44.6567" lon="2.93863">
        <ele>1315.9</ele>
        <time>2022-08-05T12:22:03Z</time>
      </trkpt>
      <trkpt lat="44.65671" lon="2.93863">
        <ele>1315.9</ele>
        <time>2022-08-05T12:22:04Z</time>
      </trkpt>
      <trkpt lat="44.65672" lon="2.93864">
        <ele>1315.9</ele>
        <time>2022-08-05T12:22:06Z</time>
      </trkpt>
      <trkpt lat="44.65675" lon="2.93864">
        <ele>1315.8</ele>
        <time>2022-08-05T12:22:08Z</time>
      </trkpt>
      <trkpt lat="44.65676" lon="2.93864">
        <ele>1315.7</ele>
        <time>2022-08-05T12:22:09Z</time>
      </trkpt>
      <trkpt lat="44.65678" lon="2.93865">
        <ele>1315.6</ele>
        <time>2022-08-05T12:22:10Z</time>
      </trkpt>
      <trkpt lat="44.65679" lon="2.93866">
        <ele>1315.6</ele>
        <time>2022-08-05T12:22:11Z</time>
      </trkpt>
      <trkpt lat="44.65681" lon="2.93866">
        <ele>1315.5</ele>
        <time>2022-08-05T12:22:12Z</time>
      </trkpt>
      <trkpt lat="44.65682" lon="2.93866">
        <ele>1315.5</ele>
        <time>2022-08-05T12:22:13Z</time>
      </trkpt>
      <trkpt lat="44.65683" lon="2.93866">
        <ele>1315.4</ele>
        <time>2022-08-05T12:22:14Z</time>
      </trkpt>
      <trkpt lat="44.65684" lon="2.93866">
        <ele>1315.3</ele>
        <time>2022-08-05T12:22:15Z</time>
      </trkpt>
      <trkpt lat="44.65686" lon="2.93867">
        <ele>1315.2</ele>
        <time>2022-08-05T12:22:16Z</time>
      </trkpt>
      <trkpt lat="44.65688" lon="2.93868">
        <ele>1315.1</ele>
        <time>2022-08-05T12:22:17Z</time>
      </trkpt>
      <trkpt lat="44.6569" lon="2.93869">
        <ele>1315.2</ele>
        <time>2022-08-05T12:22:18Z</time>
      </trkpt>
      <trkpt lat="44.65695" lon="2.93872">
        <ele>1315.1</ele>
        <time>2022-08-05T12:22:23Z</time>
      </trkpt>
      <trkpt lat="44.65696" lon="2.93873">
        <ele>1315</ele>
        <time>2022-08-05T12:22:24Z</time>
      </trkpt>
      <trkpt lat="44.65699" lon="2.93875">
        <ele>1314.9</ele>
        <time>2022-08-05T12:22:26Z</time>
      </trkpt>
      <trkpt lat="44.65703" lon="2.93877">
        <ele>1314.6</ele>
        <time>2022-08-05T12:22:29Z</time>
      </trkpt>
      <trkpt lat="44.65705" lon="2.93878">
        <ele>1314.3</ele>
        <time>2022-08-05T12:22:31Z</time>
      </trkpt>
      <trkpt lat="44.65708" lon="2.93879">
        <ele>1314.1</ele>
        <time>2022-08-05T12:22:33Z</time>
      </trkpt>
      <trkpt lat="44.65709" lon="2.9388">
        <ele>1314</ele>
        <time>2022-08-05T12:22:34Z</time>
      </trkpt>
      <trkpt lat="44.65712" lon="2.93882">
        <ele>1313.7</ele>
        <time>2022-08-05T12:22:36Z</time>
      </trkpt>
      <trkpt lat="44.65717" lon="2.93884">
        <ele>1313.2</ele>
        <time>2022-08-05T12:22:39Z</time>
      </trkpt>
      <trkpt lat="44.65718" lon="2.93884">
        <ele>1313.1</ele>
        <time>2022-08-05T12:22:41Z</time>
      </trkpt>
      <trkpt lat="44.6572" lon="2.93885">
        <ele>1313</ele>
        <time>2022-08-05T12:22:43Z</time>
      </trkpt>
      <trkpt lat="44.6572" lon="2.93886">
        <ele>1313</ele>
        <time>2022-08-05T12:22:44Z</time>
      </trkpt>
      <trkpt lat="44.65721" lon="2.93886">
        <ele>1312.9</ele>
        <time>2022-08-05T12:22:45Z</time>
      </trkpt>
      <trkpt lat="44.65722" lon="2.93887">
        <ele>1312.9</ele>
        <time>2022-08-05T12:22:47Z</time>
      </trkpt>
      <trkpt lat="44.65727" lon="2.93889">
        <ele>1312.1</ele>
        <time>2022-08-05T12:22:50Z</time>
      </trkpt>
      <trkpt lat="44.65729" lon="2.9389">
        <ele>1311.7</ele>
        <time>2022-08-05T12:22:52Z</time>
      </trkpt>
      <trkpt lat="44.65734" lon="2.93893">
        <ele>1310.9</ele>
        <time>2022-08-05T12:22:55Z</time>
      </trkpt>
      <trkpt lat="44.65738" lon="2.93896">
        <ele>1310.4</ele>
        <time>2022-08-05T12:22:57Z</time>
      </trkpt>
      <trkpt lat="44.65741" lon="2.93899">
        <ele>1310</ele>
        <time>2022-08-05T12:22:59Z</time>
      </trkpt>
      <trkpt lat="44.65751" lon="2.93907">
        <ele>1308.7</ele>
        <time>2022-08-05T12:23:06Z</time>
      </trkpt>
      <trkpt lat="44.65756" lon="2.93908">
        <ele>1307.9</ele>
        <time>2022-08-05T12:23:09Z</time>
      </trkpt>
      <trkpt lat="44.65759" lon="2.93908">
        <ele>1307.4</ele>
        <time>2022-08-05T12:23:11Z</time>
      </trkpt>
      <trkpt lat="44.65761" lon="2.93907">
        <ele>1307</ele>
        <time>2022-08-05T12:23:12Z</time>
      </trkpt>
      <trkpt lat="44.65764" lon="2.93908">
        <ele>1306.5</ele>
        <time>2022-08-05T12:23:15Z</time>
      </trkpt>
      <trkpt lat="44.65766" lon="2.9391">
        <ele>1306.4</ele>
        <time>2022-08-05T12:23:18Z</time>
      </trkpt>
      <trkpt lat="44.65766" lon="2.9391">
        <ele>1306.5</ele>
        <time>2022-08-05T12:23:19Z</time>
      </trkpt>
      <trkpt lat="44.65767" lon="2.93912">
        <ele>1306.5</ele>
        <time>2022-08-05T12:23:21Z</time>
      </trkpt>
      <trkpt lat="44.65768" lon="2.93912">
        <ele>1306.3</ele>
        <time>2022-08-05T12:23:23Z</time>
      </trkpt>
      <trkpt lat="44.65769" lon="2.93912">
        <ele>1306.2</ele>
        <time>2022-08-05T12:23:24Z</time>
      </trkpt>
      <trkpt lat="44.65776" lon="2.93915">
        <ele>1305.3</ele>
        <time>2022-08-05T12:23:30Z</time>
      </trkpt>
      <trkpt lat="44.65777" lon="2.93915">
        <ele>1305</ele>
        <time>2022-08-05T12:23:31Z</time>
      </trkpt>
      <trkpt lat="44.65779" lon="2.93915">
        <ele>1304.8</ele>
        <time>2022-08-05T12:23:33Z</time>
      </trkpt>
      <trkpt lat="44.6578" lon="2.93916">
        <ele>1304.8</ele>
        <time>2022-08-05T12:23:34Z</time>
      </trkpt>
      <trkpt lat="44.65781" lon="2.93917">
        <ele>1304.8</ele>
        <time>2022-08-05T12:23:36Z</time>
      </trkpt>
      <trkpt lat="44.65784" lon="2.93918">
        <ele>1304.7</ele>
        <time>2022-08-05T12:23:38Z</time>
      </trkpt>
      <trkpt lat="44.65786" lon="2.93918">
        <ele>1304.7</ele>
        <time>2022-08-05T12:23:40Z</time>
      </trkpt>
      <trkpt lat="44.65786" lon="2.93918">
        <ele>1304.6</ele>
        <time>2022-08-05T12:23:41Z</time>
      </trkpt>
      <trkpt lat="44.65788" lon="2.93918">
        <ele>1304.5</ele>
        <time>2022-08-05T12:23:43Z</time>
      </trkpt>
      <trkpt lat="44.65791" lon="2.93919">
        <ele>1304.5</ele>
        <time>2022-08-05T12:23:44Z</time>
      </trkpt>
      <trkpt lat="44.65794" lon="2.93921">
        <ele>1304.5</ele>
        <time>2022-08-05T12:23:46Z</time>
      </trkpt>
      <trkpt lat="44.65796" lon="2.93922">
        <ele>1304.4</ele>
        <time>2022-08-05T12:23:48Z</time>
      </trkpt>
      <trkpt lat="44.65797" lon="2.93922">
        <ele>1304.4</ele>
        <time>2022-08-05T12:23:49Z</time>
      </trkpt>
      <trkpt lat="44.65799" lon="2.93923">
        <ele>1304.4</ele>
        <time>2022-08-05T12:23:50Z</time>
      </trkpt>
      <trkpt lat="44.65801" lon="2.93925">
        <ele>1304.5</ele>
        <time>2022-08-05T12:23:52Z</time>
      </trkpt>
      <trkpt lat="44.65802" lon="2.93925">
        <ele>1304.5</ele>
        <time>2022-08-05T12:23:54Z</time>
      </trkpt>
      <trkpt lat="44.65806" lon="2.93927">
        <ele>1304.5</ele>
        <time>2022-08-05T12:23:57Z</time>
      </trkpt>
      <trkpt lat="44.65808" lon="2.93927">
        <ele>1304.6</ele>
        <time>2022-08-05T12:23:58Z</time>
      </trkpt>
      <trkpt lat="44.65809" lon="2.93928">
        <ele>1304.8</ele>
        <time>2022-08-05T12:23:59Z</time>
      </trkpt>
      <trkpt lat="44.6581" lon="2.93928">
        <ele>1304.9</ele>
        <time>2022-08-05T12:24:00Z</time>
      </trkpt>
      <trkpt lat="44.65811" lon="2.93929">
        <ele>1305</ele>
        <time>2022-08-05T12:24:01Z</time>
      </trkpt>
      <trkpt lat="44.65812" lon="2.93929">
        <ele>1305</ele>
        <time>2022-08-05T12:24:02Z</time>
      </trkpt>
      <trkpt lat="44.65813" lon="2.93929">
        <ele>1305</ele>
        <time>2022-08-05T12:24:03Z</time>
      </trkpt>
      <trkpt lat="44.65813" lon="2.93929">
        <ele>1305.1</ele>
        <time>2022-08-05T12:24:04Z</time>
      </trkpt>
      <trkpt lat="44.65814" lon="2.93929">
        <ele>1305.1</ele>
        <time>2022-08-05T12:24:05Z</time>
      </trkpt>
      <trkpt lat="44.65815" lon="2.93928">
        <ele>1305.1</ele>
        <time>2022-08-05T12:24:07Z</time>
      </trkpt>
      <trkpt lat="44.65819" lon="2.93926">
        <ele>1305</ele>
        <time>2022-08-05T12:24:11Z</time>
      </trkpt>
      <trkpt lat="44.65829" lon="2.93931">
        <ele>1305.9</ele>
        <time>2022-08-05T12:24:17Z</time>
      </trkpt>
      <trkpt lat="44.65832" lon="2.93936">
        <ele>1306.3</ele>
        <time>2022-08-05T12:24:20Z</time>
      </trkpt>
      <trkpt lat="44.65834" lon="2.93937">
        <ele>1306.5</ele>
        <time>2022-08-05T12:24:22Z</time>
      </trkpt>
      <trkpt lat="44.65836" lon="2.93938">
        <ele>1306.9</ele>
        <time>2022-08-05T12:24:24Z</time>
      </trkpt>
      <trkpt lat="44.65838" lon="2.93939">
        <ele>1307.2</ele>
        <time>2022-08-05T12:24:26Z</time>
      </trkpt>
      <trkpt lat="44.65843" lon="2.93941">
        <ele>1308.2</ele>
        <time>2022-08-05T12:24:30Z</time>
      </trkpt>
      <trkpt lat="44.65845" lon="2.93942">
        <ele>1308.4</ele>
        <time>2022-08-05T12:24:32Z</time>
      </trkpt>
      <trkpt lat="44.65846" lon="2.9394">
        <ele>1308.4</ele>
        <time>2022-08-05T12:24:34Z</time>
      </trkpt>
      <trkpt lat="44.65846" lon="2.93939">
        <ele>1308.4</ele>
        <time>2022-08-05T12:24:35Z</time>
      </trkpt>
      <trkpt lat="44.65847" lon="2.93937">
        <ele>1308.3</ele>
        <time>2022-08-05T12:24:36Z</time>
      </trkpt>
      <trkpt lat="44.65847" lon="2.93934">
        <ele>1308.1</ele>
        <time>2022-08-05T12:24:38Z</time>
      </trkpt>
      <trkpt lat="44.65847" lon="2.93933">
        <ele>1308</ele>
        <time>2022-08-05T12:24:39Z</time>
      </trkpt>
      <trkpt lat="44.6585" lon="2.93931">
        <ele>1308.1</ele>
        <time>2022-08-05T12:24:41Z</time>
      </trkpt>
      <trkpt lat="44.65851" lon="2.93928">
        <ele>1308</ele>
        <time>2022-08-05T12:24:43Z</time>
      </trkpt>
      <trkpt lat="44.65854" lon="2.93922">
        <ele>1307.8</ele>
        <time>2022-08-05T12:24:50Z</time>
      </trkpt>
      <trkpt lat="44.65857" lon="2.93919">
        <ele>1307.8</ele>
        <time>2022-08-05T12:24:53Z</time>
      </trkpt>
      <trkpt lat="44.65861" lon="2.93913">
        <ele>1307.5</ele>
        <time>2022-08-05T12:24:57Z</time>
      </trkpt>
      <trkpt lat="44.65865" lon="2.93907">
        <ele>1307.4</ele>
        <time>2022-08-05T12:25:03Z</time>
      </trkpt>
      <trkpt lat="44.65866" lon="2.93906">
        <ele>1307.2</ele>
        <time>2022-08-05T12:25:04Z</time>
      </trkpt>
      <trkpt lat="44.65867" lon="2.93904">
        <ele>1307.2</ele>
        <time>2022-08-05T12:25:06Z</time>
      </trkpt>
      <trkpt lat="44.6587" lon="2.93902">
        <ele>1307.4</ele>
        <time>2022-08-05T12:25:10Z</time>
      </trkpt>
      <trkpt lat="44.6587" lon="2.93902">
        <ele>1307.5</ele>
        <time>2022-08-05T12:25:11Z</time>
      </trkpt>
      <trkpt lat="44.6587" lon="2.93901">
        <ele>1307.4</ele>
        <time>2022-08-05T12:25:12Z</time>
      </trkpt>
      <trkpt lat="44.65871" lon="2.93901">
        <ele>1307.6</ele>
        <time>2022-08-05T12:25:15Z</time>
      </trkpt>
      <trkpt lat="44.65871" lon="2.93901">
        <ele>1307.6</ele>
        <time>2022-08-05T12:25:16Z</time>
      </trkpt>
      <trkpt lat="44.65872" lon="2.939">
        <ele>1307.6</ele>
        <time>2022-08-05T12:25:18Z</time>
      </trkpt>
      <trkpt lat="44.65872" lon="2.939">
        <ele>1307.6</ele>
        <time>2022-08-05T12:25:19Z</time>
      </trkpt>
      <trkpt lat="44.65873" lon="2.93898">
        <ele>1307.6</ele>
        <time>2022-08-05T12:25:21Z</time>
      </trkpt>
      <trkpt lat="44.65876" lon="2.93896">
        <ele>1308</ele>
        <time>2022-08-05T12:25:24Z</time>
      </trkpt>
      <trkpt lat="44.65887" lon="2.93889">
        <ele>1309.5</ele>
        <time>2022-08-05T12:25:33Z</time>
      </trkpt>
      <trkpt lat="44.65893" lon="2.93885">
        <ele>1309.9</ele>
        <time>2022-08-05T12:25:40Z</time>
      </trkpt>
      <trkpt lat="44.65901" lon="2.93882">
        <ele>1310.4</ele>
        <time>2022-08-05T12:25:47Z</time>
      </trkpt>
      <trkpt lat="44.65902" lon="2.93882">
        <ele>1310.5</ele>
        <time>2022-08-05T12:25:48Z</time>
      </trkpt>
      <trkpt lat="44.65903" lon="2.93881">
        <ele>1310.6</ele>
        <time>2022-08-05T12:25:49Z</time>
      </trkpt>
      <trkpt lat="44.65906" lon="2.93881">
        <ele>1310.8</ele>
        <time>2022-08-05T12:25:53Z</time>
      </trkpt>
      <trkpt lat="44.65906" lon="2.9388">
        <ele>1310.8</ele>
        <time>2022-08-05T12:25:54Z</time>
      </trkpt>
      <trkpt lat="44.65906" lon="2.9388">
        <ele>1310.8</ele>
        <time>2022-08-05T12:25:55Z</time>
      </trkpt>
      <trkpt lat="44.65908" lon="2.9388">
        <ele>1311.1</ele>
        <time>2022-08-05T12:25:57Z</time>
      </trkpt>
      <trkpt lat="44.65913" lon="2.93877">
        <ele>1311.2</ele>
        <time>2022-08-05T12:26:01Z</time>
      </trkpt>
      <trkpt lat="44.65918" lon="2.93874">
        <ele>1311.6</ele>
        <time>2022-08-05T12:26:06Z</time>
      </trkpt>
      <trkpt lat="44.65924" lon="2.93872">
        <ele>1312</ele>
        <time>2022-08-05T12:26:13Z</time>
      </trkpt>
      <trkpt lat="44.65925" lon="2.93871">
        <ele>1312.1</ele>
        <time>2022-08-05T12:26:14Z</time>
      </trkpt>
      <trkpt lat="44.65928" lon="2.93871">
        <ele>1312.4</ele>
        <time>2022-08-05T12:26:18Z</time>
      </trkpt>
      <trkpt lat="44.65933" lon="2.93874">
        <ele>1313.2</ele>
        <time>2022-08-05T12:26:21Z</time>
      </trkpt>
      <trkpt lat="44.65938" lon="2.93874">
        <ele>1313.8</ele>
        <time>2022-08-05T12:26:24Z</time>
      </trkpt>
      <trkpt lat="44.65941" lon="2.93873">
        <ele>1314</ele>
        <time>2022-08-05T12:26:27Z</time>
      </trkpt>
      <trkpt lat="44.65941" lon="2.93873">
        <ele>1314.1</ele>
        <time>2022-08-05T12:26:28Z</time>
      </trkpt>
      <trkpt lat="44.65943" lon="2.93874">
        <ele>1314.3</ele>
        <time>2022-08-05T12:26:30Z</time>
      </trkpt>
      <trkpt lat="44.65945" lon="2.93874">
        <ele>1314.6</ele>
        <time>2022-08-05T12:26:32Z</time>
      </trkpt>
      <trkpt lat="44.65948" lon="2.93873">
        <ele>1314.9</ele>
        <time>2022-08-05T12:26:34Z</time>
      </trkpt>
      <trkpt lat="44.65951" lon="2.93871">
        <ele>1315.2</ele>
        <time>2022-08-05T12:26:38Z</time>
      </trkpt>
      <trkpt lat="44.65951" lon="2.93871">
        <ele>1315.3</ele>
        <time>2022-08-05T12:26:39Z</time>
      </trkpt>
      <trkpt lat="44.65954" lon="2.9387">
        <ele>1315.6</ele>
        <time>2022-08-05T12:26:41Z</time>
      </trkpt>
      <trkpt lat="44.65953" lon="2.93869">
        <ele>1315.5</ele>
        <time>2022-08-05T12:26:42Z</time>
      </trkpt>
      <trkpt lat="44.65953" lon="2.93868">
        <ele>1315.5</ele>
        <time>2022-08-05T12:26:43Z</time>
      </trkpt>
      <trkpt lat="44.65953" lon="2.93868">
        <ele>1315.5</ele>
        <time>2022-08-05T12:26:44Z</time>
      </trkpt>
      <trkpt lat="44.65954" lon="2.93867">
        <ele>1315.6</ele>
        <time>2022-08-05T12:26:46Z</time>
      </trkpt>
      <trkpt lat="44.65956" lon="2.93866">
        <ele>1315.9</ele>
        <time>2022-08-05T12:26:49Z</time>
      </trkpt>
      <trkpt lat="44.65957" lon="2.93866">
        <ele>1316</ele>
        <time>2022-08-05T12:26:50Z</time>
      </trkpt>
      <trkpt lat="44.65958" lon="2.93864">
        <ele>1316</ele>
        <time>2022-08-05T12:26:52Z</time>
      </trkpt>
      <trkpt lat="44.65959" lon="2.93861">
        <ele>1316</ele>
        <time>2022-08-05T12:26:54Z</time>
      </trkpt>
      <trkpt lat="44.65958" lon="2.93859">
        <ele>1315.9</ele>
        <time>2022-08-05T12:26:56Z</time>
      </trkpt>
      <trkpt lat="44.65963" lon="2.93853">
        <ele>1316.4</ele>
        <time>2022-08-05T12:27:03Z</time>
      </trkpt>
      <trkpt lat="44.65964" lon="2.93853">
        <ele>1316.5</ele>
        <time>2022-08-05T12:27:04Z</time>
      </trkpt>
      <trkpt lat="44.6597" lon="2.93848">
        <ele>1317.2</ele>
        <time>2022-08-05T12:27:11Z</time>
      </trkpt>
      <trkpt lat="44.65971" lon="2.93847">
        <ele>1317.2</ele>
        <time>2022-08-05T12:27:12Z</time>
      </trkpt>
      <trkpt lat="44.65973" lon="2.93844">
        <ele>1317.5</ele>
        <time>2022-08-05T12:27:15Z</time>
      </trkpt>
      <trkpt lat="44.65974" lon="2.93844">
        <ele>1317.6</ele>
        <time>2022-08-05T12:27:17Z</time>
      </trkpt>
      <trkpt lat="44.65975" lon="2.93843">
        <ele>1317.6</ele>
        <time>2022-08-05T12:27:18Z</time>
      </trkpt>
      <trkpt lat="44.65978" lon="2.9384">
        <ele>1317.8</ele>
        <time>2022-08-05T12:27:22Z</time>
      </trkpt>
      <trkpt lat="44.65979" lon="2.93837">
        <ele>1317.8</ele>
        <time>2022-08-05T12:27:24Z</time>
      </trkpt>
      <trkpt lat="44.65981" lon="2.93836">
        <ele>1318</ele>
        <time>2022-08-05T12:27:27Z</time>
      </trkpt>
      <trkpt lat="44.65987" lon="2.93836">
        <ele>1318.6</ele>
        <time>2022-08-05T12:27:31Z</time>
      </trkpt>
      <trkpt lat="44.65987" lon="2.93835">
        <ele>1318.7</ele>
        <time>2022-08-05T12:27:32Z</time>
      </trkpt>
      <trkpt lat="44.65988" lon="2.93834">
        <ele>1318.7</ele>
        <time>2022-08-05T12:27:33Z</time>
      </trkpt>
      <trkpt lat="44.6599" lon="2.93833">
        <ele>1318.9</ele>
        <time>2022-08-05T12:27:35Z</time>
      </trkpt>
      <trkpt lat="44.65992" lon="2.93832">
        <ele>1319.2</ele>
        <time>2022-08-05T12:27:37Z</time>
      </trkpt>
      <trkpt lat="44.65993" lon="2.93831">
        <ele>1319.3</ele>
        <time>2022-08-05T12:27:38Z</time>
      </trkpt>
      <trkpt lat="44.65994" lon="2.93828">
        <ele>1319.5</ele>
        <time>2022-08-05T12:27:41Z</time>
      </trkpt>
      <trkpt lat="44.65995" lon="2.93828">
        <ele>1319.6</ele>
        <time>2022-08-05T12:27:42Z</time>
      </trkpt>
      <trkpt lat="44.65996" lon="2.93825">
        <ele>1319.8</ele>
        <time>2022-08-05T12:27:44Z</time>
      </trkpt>
      <trkpt lat="44.65999" lon="2.93821">
        <ele>1320.3</ele>
        <time>2022-08-05T12:27:48Z</time>
      </trkpt>
      <trkpt lat="44.66005" lon="2.93818">
        <ele>1321.2</ele>
        <time>2022-08-05T12:27:54Z</time>
      </trkpt>
      <trkpt lat="44.66011" lon="2.93813">
        <ele>1322.1</ele>
        <time>2022-08-05T12:28:02Z</time>
      </trkpt>
      <trkpt lat="44.66016" lon="2.93809">
        <ele>1322.7</ele>
        <time>2022-08-05T12:28:09Z</time>
      </trkpt>
      <trkpt lat="44.66016" lon="2.93809">
        <ele>1322.8</ele>
        <time>2022-08-05T12:28:10Z</time>
      </trkpt>
      <trkpt lat="44.66023" lon="2.93809">
        <ele>1323.5</ele>
        <time>2022-08-05T12:28:15Z</time>
      </trkpt>
      <trkpt lat="44.66024" lon="2.9381">
        <ele>1323.7</ele>
        <time>2022-08-05T12:28:16Z</time>
      </trkpt>
      <trkpt lat="44.66025" lon="2.93811">
        <ele>1323.8</ele>
        <time>2022-08-05T12:28:21Z</time>
      </trkpt>
      <trkpt lat="44.66025" lon="2.9381">
        <ele>1323.8</ele>
        <time>2022-08-05T12:28:22Z</time>
      </trkpt>
      <trkpt lat="44.66028" lon="2.93805">
        <ele>1324</ele>
        <time>2022-08-05T12:28:26Z</time>
      </trkpt>
      <trkpt lat="44.66035" lon="2.938">
        <ele>1324.4</ele>
        <time>2022-08-05T12:28:34Z</time>
      </trkpt>
      <trkpt lat="44.66038" lon="2.93798">
        <ele>1324.5</ele>
        <time>2022-08-05T12:28:36Z</time>
      </trkpt>
      <trkpt lat="44.66039" lon="2.93798">
        <ele>1324.6</ele>
        <time>2022-08-05T12:28:38Z</time>
      </trkpt>
      <trkpt lat="44.66042" lon="2.93794">
        <ele>1324.6</ele>
        <time>2022-08-05T12:28:41Z</time>
      </trkpt>
      <trkpt lat="44.66044" lon="2.93793">
        <ele>1324.6</ele>
        <time>2022-08-05T12:28:43Z</time>
      </trkpt>
      <trkpt lat="44.66045" lon="2.93791">
        <ele>1324.6</ele>
        <time>2022-08-05T12:28:45Z</time>
      </trkpt>
      <trkpt lat="44.66046" lon="2.9379">
        <ele>1324.6</ele>
        <time>2022-08-05T12:28:46Z</time>
      </trkpt>
      <trkpt lat="44.66047" lon="2.93788">
        <ele>1324.5</ele>
        <time>2022-08-05T12:28:48Z</time>
      </trkpt>
      <trkpt lat="44.66048" lon="2.93787">
        <ele>1324.5</ele>
        <time>2022-08-05T12:28:49Z</time>
      </trkpt>
      <trkpt lat="44.66051" lon="2.93784">
        <ele>1324.4</ele>
        <time>2022-08-05T12:28:52Z</time>
      </trkpt>
      <trkpt lat="44.66052" lon="2.93783">
        <ele>1324.3</ele>
        <time>2022-08-05T12:28:53Z</time>
      </trkpt>
      <trkpt lat="44.66053" lon="2.93782">
        <ele>1324.3</ele>
        <time>2022-08-05T12:28:54Z</time>
      </trkpt>
      <trkpt lat="44.66056" lon="2.93777">
        <ele>1324</ele>
        <time>2022-08-05T12:28:58Z</time>
      </trkpt>
      <trkpt lat="44.66057" lon="2.93777">
        <ele>1324</ele>
        <time>2022-08-05T12:28:59Z</time>
      </trkpt>
      <trkpt lat="44.66058" lon="2.93775">
        <ele>1324</ele>
        <time>2022-08-05T12:29:01Z</time>
      </trkpt>
      <trkpt lat="44.6606" lon="2.93771">
        <ele>1324</ele>
        <time>2022-08-05T12:29:04Z</time>
      </trkpt>
      <trkpt lat="44.66061" lon="2.9377">
        <ele>1323.9</ele>
        <time>2022-08-05T12:29:05Z</time>
      </trkpt>
      <trkpt lat="44.66063" lon="2.93767">
        <ele>1324</ele>
        <time>2022-08-05T12:29:08Z</time>
      </trkpt>
      <trkpt lat="44.66066" lon="2.93764">
        <ele>1324.1</ele>
        <time>2022-08-05T12:29:12Z</time>
      </trkpt>
      <trkpt lat="44.66068" lon="2.93763">
        <ele>1324.2</ele>
        <time>2022-08-05T12:29:14Z</time>
      </trkpt>
      <trkpt lat="44.6607" lon="2.93759">
        <ele>1324.4</ele>
        <time>2022-08-05T12:29:17Z</time>
      </trkpt>
      <trkpt lat="44.66073" lon="2.93758">
        <ele>1324.7</ele>
        <time>2022-08-05T12:29:19Z</time>
      </trkpt>
      <trkpt lat="44.66073" lon="2.93757">
        <ele>1324.7</ele>
        <time>2022-08-05T12:29:20Z</time>
      </trkpt>
      <trkpt lat="44.66076" lon="2.93754">
        <ele>1325</ele>
        <time>2022-08-05T12:29:23Z</time>
      </trkpt>
      <trkpt lat="44.66077" lon="2.93752">
        <ele>1325.1</ele>
        <time>2022-08-05T12:29:25Z</time>
      </trkpt>
      <trkpt lat="44.66077" lon="2.93752">
        <ele>1325.1</ele>
        <time>2022-08-05T12:29:27Z</time>
      </trkpt>
      <trkpt lat="44.66077" lon="2.93752">
        <ele>1325.1</ele>
        <time>2022-08-05T12:29:28Z</time>
      </trkpt>
      <trkpt lat="44.66077" lon="2.93751">
        <ele>1325.1</ele>
        <time>2022-08-05T12:29:29Z</time>
      </trkpt>
      <trkpt lat="44.6608" lon="2.9375">
        <ele>1325.4</ele>
        <time>2022-08-05T12:29:35Z</time>
      </trkpt>
      <trkpt lat="44.66079" lon="2.93748">
        <ele>1325.5</ele>
        <time>2022-08-05T12:29:38Z</time>
      </trkpt>
      <trkpt lat="44.66079" lon="2.93746">
        <ele>1325.5</ele>
        <time>2022-08-05T12:29:39Z</time>
      </trkpt>
      <trkpt lat="44.6608" lon="2.93745">
        <ele>1325.6</ele>
        <time>2022-08-05T12:29:40Z</time>
      </trkpt>
      <trkpt lat="44.6608" lon="2.93744">
        <ele>1325.7</ele>
        <time>2022-08-05T12:29:41Z</time>
      </trkpt>
      <trkpt lat="44.66081" lon="2.93743">
        <ele>1325.8</ele>
        <time>2022-08-05T12:29:42Z</time>
      </trkpt>
      <trkpt lat="44.66081" lon="2.93741">
        <ele>1325.9</ele>
        <time>2022-08-05T12:29:43Z</time>
      </trkpt>
      <trkpt lat="44.66081" lon="2.93741">
        <ele>1326</ele>
        <time>2022-08-05T12:29:44Z</time>
      </trkpt>
      <trkpt lat="44.66081" lon="2.93737">
        <ele>1326.1</ele>
        <time>2022-08-05T12:29:47Z</time>
      </trkpt>
      <trkpt lat="44.66081" lon="2.93736">
        <ele>1326.2</ele>
        <time>2022-08-05T12:29:48Z</time>
      </trkpt>
      <trkpt lat="44.66082" lon="2.93734">
        <ele>1326.3</ele>
        <time>2022-08-05T12:29:50Z</time>
      </trkpt>
      <trkpt lat="44.66082" lon="2.93733">
        <ele>1326.4</ele>
        <time>2022-08-05T12:29:51Z</time>
      </trkpt>
      <trkpt lat="44.66082" lon="2.9373">
        <ele>1326.5</ele>
        <time>2022-08-05T12:29:54Z</time>
      </trkpt>
      <trkpt lat="44.66082" lon="2.93725">
        <ele>1326.7</ele>
        <time>2022-08-05T12:29:58Z</time>
      </trkpt>
      <trkpt lat="44.66083" lon="2.9372">
        <ele>1326.8</ele>
        <time>2022-08-05T12:30:01Z</time>
      </trkpt>
      <trkpt lat="44.66082" lon="2.93716">
        <ele>1326.4</ele>
        <time>2022-08-05T12:30:04Z</time>
      </trkpt>
      <trkpt lat="44.66082" lon="2.93715">
        <ele>1326.3</ele>
        <time>2022-08-05T12:30:05Z</time>
      </trkpt>
      <trkpt lat="44.66084" lon="2.93705">
        <ele>1325.7</ele>
        <time>2022-08-05T12:30:12Z</time>
      </trkpt>
      <trkpt lat="44.66084" lon="2.93701">
        <ele>1325.5</ele>
        <time>2022-08-05T12:30:17Z</time>
      </trkpt>
      <trkpt lat="44.66084" lon="2.93692">
        <ele>1325</ele>
        <time>2022-08-05T12:30:24Z</time>
      </trkpt>
      <trkpt lat="44.66085" lon="2.93691">
        <ele>1325.1</ele>
        <time>2022-08-05T12:30:25Z</time>
      </trkpt>
      <trkpt lat="44.66086" lon="2.93689">
        <ele>1325</ele>
        <time>2022-08-05T12:30:27Z</time>
      </trkpt>
      <trkpt lat="44.66086" lon="2.93686">
        <ele>1325</ele>
        <time>2022-08-05T12:30:29Z</time>
      </trkpt>
      <trkpt lat="44.66087" lon="2.93685">
        <ele>1325</ele>
        <time>2022-08-05T12:30:30Z</time>
      </trkpt>
      <trkpt lat="44.66087" lon="2.93682">
        <ele>1324.9</ele>
        <time>2022-08-05T12:30:32Z</time>
      </trkpt>
      <trkpt lat="44.66085" lon="2.93676">
        <ele>1324.5</ele>
        <time>2022-08-05T12:30:37Z</time>
      </trkpt>
      <trkpt lat="44.66082" lon="2.93669">
        <ele>1323.9</ele>
        <time>2022-08-05T12:30:46Z</time>
      </trkpt>
      <trkpt lat="44.66081" lon="2.93668">
        <ele>1323.8</ele>
        <time>2022-08-05T12:30:47Z</time>
      </trkpt>
      <trkpt lat="44.66081" lon="2.93665">
        <ele>1323.7</ele>
        <time>2022-08-05T12:30:49Z</time>
      </trkpt>
      <trkpt lat="44.66081" lon="2.93657">
        <ele>1323.4</ele>
        <time>2022-08-05T12:30:54Z</time>
      </trkpt>
      <trkpt lat="44.6608" lon="2.93655">
        <ele>1323.2</ele>
        <time>2022-08-05T12:30:56Z</time>
      </trkpt>
      <trkpt lat="44.66079" lon="2.9365">
        <ele>1323</ele>
        <time>2022-08-05T12:30:59Z</time>
      </trkpt>
      <trkpt lat="44.66079" lon="2.9365">
        <ele>1323</ele>
        <time>2022-08-05T12:31:00Z</time>
      </trkpt>
      <trkpt lat="44.66078" lon="2.93648">
        <ele>1322.9</ele>
        <time>2022-08-05T12:31:02Z</time>
      </trkpt>
      <trkpt lat="44.66077" lon="2.93645">
        <ele>1322.7</ele>
        <time>2022-08-05T12:31:04Z</time>
      </trkpt>
      <trkpt lat="44.66075" lon="2.93642">
        <ele>1322.5</ele>
        <time>2022-08-05T12:31:07Z</time>
      </trkpt>
      <trkpt lat="44.66073" lon="2.9364">
        <ele>1322.3</ele>
        <time>2022-08-05T12:31:09Z</time>
      </trkpt>
      <trkpt lat="44.66071" lon="2.93638">
        <ele>1322.1</ele>
        <time>2022-08-05T12:31:11Z</time>
      </trkpt>
      <trkpt lat="44.66068" lon="2.93637">
        <ele>1322</ele>
        <time>2022-08-05T12:31:13Z</time>
      </trkpt>
      <trkpt lat="44.66066" lon="2.93635">
        <ele>1322</ele>
        <time>2022-08-05T12:31:15Z</time>
      </trkpt>
      <trkpt lat="44.66064" lon="2.93633">
        <ele>1321.9</ele>
        <time>2022-08-05T12:31:17Z</time>
      </trkpt>
      <trkpt lat="44.66063" lon="2.9363">
        <ele>1321.9</ele>
        <time>2022-08-05T12:31:20Z</time>
      </trkpt>
      <trkpt lat="44.66063" lon="2.93629">
        <ele>1322</ele>
        <time>2022-08-05T12:31:21Z</time>
      </trkpt>
      <trkpt lat="44.66062" lon="2.93624">
        <ele>1322.1</ele>
        <time>2022-08-05T12:31:24Z</time>
      </trkpt>
      <trkpt lat="44.66061" lon="2.9362">
        <ele>1322.2</ele>
        <time>2022-08-05T12:31:26Z</time>
      </trkpt>
      <trkpt lat="44.6606" lon="2.93617">
        <ele>1322.3</ele>
        <time>2022-08-05T12:31:28Z</time>
      </trkpt>
      <trkpt lat="44.66055" lon="2.93607">
        <ele>1322.1</ele>
        <time>2022-08-05T12:31:35Z</time>
      </trkpt>
      <trkpt lat="44.66054" lon="2.93604">
        <ele>1322.2</ele>
        <time>2022-08-05T12:31:37Z</time>
      </trkpt>
      <trkpt lat="44.66051" lon="2.93597">
        <ele>1322.1</ele>
        <time>2022-08-05T12:31:42Z</time>
      </trkpt>
      <trkpt lat="44.6605" lon="2.93594">
        <ele>1322.1</ele>
        <time>2022-08-05T12:31:44Z</time>
      </trkpt>
      <trkpt lat="44.66049" lon="2.93591">
        <ele>1322.1</ele>
        <time>2022-08-05T12:31:46Z</time>
      </trkpt>
      <trkpt lat="44.66048" lon="2.93588">
        <ele>1322.1</ele>
        <time>2022-08-05T12:31:48Z</time>
      </trkpt>
      <trkpt lat="44.66047" lon="2.93584">
        <ele>1322</ele>
        <time>2022-08-05T12:31:50Z</time>
      </trkpt>
      <trkpt lat="44.66046" lon="2.93581">
        <ele>1322</ele>
        <time>2022-08-05T12:31:52Z</time>
      </trkpt>
      <trkpt lat="44.66045" lon="2.9358">
        <ele>1322</ele>
        <time>2022-08-05T12:31:53Z</time>
      </trkpt>
      <trkpt lat="44.66044" lon="2.93576">
        <ele>1322</ele>
        <time>2022-08-05T12:31:55Z</time>
      </trkpt>
      <trkpt lat="44.66043" lon="2.93572">
        <ele>1322</ele>
        <time>2022-08-05T12:31:58Z</time>
      </trkpt>
      <trkpt lat="44.66042" lon="2.93569">
        <ele>1322</ele>
        <time>2022-08-05T12:32:00Z</time>
      </trkpt>
      <trkpt lat="44.6604" lon="2.93565">
        <ele>1322.1</ele>
        <time>2022-08-05T12:32:03Z</time>
      </trkpt>
      <trkpt lat="44.66039" lon="2.93562">
        <ele>1322.2</ele>
        <time>2022-08-05T12:32:05Z</time>
      </trkpt>
      <trkpt lat="44.66038" lon="2.93558">
        <ele>1322.3</ele>
        <time>2022-08-05T12:32:08Z</time>
      </trkpt>
      <trkpt lat="44.66037" lon="2.93554">
        <ele>1322.4</ele>
        <time>2022-08-05T12:32:11Z</time>
      </trkpt>
      <trkpt lat="44.66036" lon="2.93551">
        <ele>1322.6</ele>
        <time>2022-08-05T12:32:13Z</time>
      </trkpt>
      <trkpt lat="44.66032" lon="2.93541">
        <ele>1323.2</ele>
        <time>2022-08-05T12:32:20Z</time>
      </trkpt>
      <trkpt lat="44.66031" lon="2.93538">
        <ele>1323.4</ele>
        <time>2022-08-05T12:32:22Z</time>
      </trkpt>
      <trkpt lat="44.66026" lon="2.93523">
        <ele>1324.1</ele>
        <time>2022-08-05T12:32:32Z</time>
      </trkpt>
      <trkpt lat="44.66026" lon="2.93521">
        <ele>1324.2</ele>
        <time>2022-08-05T12:32:33Z</time>
      </trkpt>
      <trkpt lat="44.66026" lon="2.9352">
        <ele>1324.2</ele>
        <time>2022-08-05T12:32:34Z</time>
      </trkpt>
      <trkpt lat="44.66024" lon="2.93516">
        <ele>1324.4</ele>
        <time>2022-08-05T12:32:37Z</time>
      </trkpt>
      <trkpt lat="44.66023" lon="2.93512">
        <ele>1324.5</ele>
        <time>2022-08-05T12:32:40Z</time>
      </trkpt>
      <trkpt lat="44.6602" lon="2.93504">
        <ele>1324.8</ele>
        <time>2022-08-05T12:32:45Z</time>
      </trkpt>
      <trkpt lat="44.66019" lon="2.93498">
        <ele>1325.1</ele>
        <time>2022-08-05T12:32:49Z</time>
      </trkpt>
      <trkpt lat="44.66019" lon="2.93495">
        <ele>1325.3</ele>
        <time>2022-08-05T12:32:51Z</time>
      </trkpt>
      <trkpt lat="44.66018" lon="2.93494">
        <ele>1325.4</ele>
        <time>2022-08-05T12:32:52Z</time>
      </trkpt>
      <trkpt lat="44.66017" lon="2.93492">
        <ele>1325.5</ele>
        <time>2022-08-05T12:32:53Z</time>
      </trkpt>
      <trkpt lat="44.66017" lon="2.93491">
        <ele>1325.5</ele>
        <time>2022-08-05T12:32:54Z</time>
      </trkpt>
      <trkpt lat="44.66017" lon="2.9349">
        <ele>1325.6</ele>
        <time>2022-08-05T12:32:55Z</time>
      </trkpt>
      <trkpt lat="44.66016" lon="2.93488">
        <ele>1325.7</ele>
        <time>2022-08-05T12:32:56Z</time>
      </trkpt>
      <trkpt lat="44.66015" lon="2.93487">
        <ele>1325.7</ele>
        <time>2022-08-05T12:32:57Z</time>
      </trkpt>
      <trkpt lat="44.66014" lon="2.93483">
        <ele>1325.9</ele>
        <time>2022-08-05T12:33:00Z</time>
      </trkpt>
      <trkpt lat="44.66012" lon="2.93478">
        <ele>1326.2</ele>
        <time>2022-08-05T12:33:04Z</time>
      </trkpt>
      <trkpt lat="44.66007" lon="2.93464">
        <ele>1326</ele>
        <time>2022-08-05T12:33:14Z</time>
      </trkpt>
      <trkpt lat="44.66005" lon="2.93455">
        <ele>1325.7</ele>
        <time>2022-08-05T12:33:20Z</time>
      </trkpt>
      <trkpt lat="44.66002" lon="2.93443">
        <ele>1325.1</ele>
        <time>2022-08-05T12:33:28Z</time>
      </trkpt>
      <trkpt lat="44.66002" lon="2.93437">
        <ele>1324.9</ele>
        <time>2022-08-05T12:33:35Z</time>
      </trkpt>
      <trkpt lat="44.66002" lon="2.93437">
        <ele>1324.9</ele>
        <time>2022-08-05T12:33:36Z</time>
      </trkpt>
      <trkpt lat="44.66002" lon="2.93436">
        <ele>1324.9</ele>
        <time>2022-08-05T12:33:39Z</time>
      </trkpt>
      <trkpt lat="44.66002" lon="2.93437">
        <ele>1324.9</ele>
        <time>2022-08-05T12:33:41Z</time>
      </trkpt>
      <trkpt lat="44.66002" lon="2.93437">
        <ele>1324.9</ele>
        <time>2022-08-05T12:33:43Z</time>
      </trkpt>
      <trkpt lat="44.66002" lon="2.93437">
        <ele>1324.9</ele>
        <time>2022-08-05T12:33:45Z</time>
      </trkpt>
      <trkpt lat="44.66003" lon="2.93434">
        <ele>1324.8</ele>
        <time>2022-08-05T12:33:47Z</time>
      </trkpt>
      <trkpt lat="44.66002" lon="2.9343">
        <ele>1324.7</ele>
        <time>2022-08-05T12:33:50Z</time>
      </trkpt>
      <trkpt lat="44.66002" lon="2.93428">
        <ele>1324.6</ele>
        <time>2022-08-05T12:33:51Z</time>
      </trkpt>
      <trkpt lat="44.66003" lon="2.93427">
        <ele>1324.6</ele>
        <time>2022-08-05T12:33:52Z</time>
      </trkpt>
      <trkpt lat="44.66002" lon="2.93425">
        <ele>1324.5</ele>
        <time>2022-08-05T12:33:54Z</time>
      </trkpt>
      <trkpt lat="44.66002" lon="2.93425">
        <ele>1324.5</ele>
        <time>2022-08-05T12:33:56Z</time>
      </trkpt>
      <trkpt lat="44.65999" lon="2.93417">
        <ele>1324</ele>
        <time>2022-08-05T12:34:03Z</time>
      </trkpt>
      <trkpt lat="44.65997" lon="2.93407">
        <ele>1324.2</ele>
        <time>2022-08-05T12:34:10Z</time>
      </trkpt>
      <trkpt lat="44.65999" lon="2.93398">
        <ele>1324.6</ele>
        <time>2022-08-05T12:34:17Z</time>
      </trkpt>
      <trkpt lat="44.66" lon="2.93395">
        <ele>1324.8</ele>
        <time>2022-08-05T12:34:19Z</time>
      </trkpt>
      <trkpt lat="44.66002" lon="2.93393">
        <ele>1325</ele>
        <time>2022-08-05T12:34:21Z</time>
      </trkpt>
      <trkpt lat="44.66006" lon="2.93388">
        <ele>1325.4</ele>
        <time>2022-08-05T12:34:26Z</time>
      </trkpt>
      <trkpt lat="44.66008" lon="2.93387">
        <ele>1325.5</ele>
        <time>2022-08-05T12:34:28Z</time>
      </trkpt>
      <trkpt lat="44.66008" lon="2.93385">
        <ele>1325.5</ele>
        <time>2022-08-05T12:34:29Z</time>
      </trkpt>
      <trkpt lat="44.66008" lon="2.93384">
        <ele>1325.5</ele>
        <time>2022-08-05T12:34:30Z</time>
      </trkpt>
      <trkpt lat="44.66009" lon="2.93381">
        <ele>1325.4</ele>
        <time>2022-08-05T12:34:32Z</time>
      </trkpt>
      <trkpt lat="44.66009" lon="2.93378">
        <ele>1325.4</ele>
        <time>2022-08-05T12:34:34Z</time>
      </trkpt>
      <trkpt lat="44.66009" lon="2.93377">
        <ele>1325.4</ele>
        <time>2022-08-05T12:34:35Z</time>
      </trkpt>
      <trkpt lat="44.66009" lon="2.93375">
        <ele>1325.3</ele>
        <time>2022-08-05T12:34:36Z</time>
      </trkpt>
      <trkpt lat="44.66007" lon="2.93366">
        <ele>1324.9</ele>
        <time>2022-08-05T12:34:44Z</time>
      </trkpt>
      <trkpt lat="44.66006" lon="2.93366">
        <ele>1324.8</ele>
        <time>2022-08-05T12:34:45Z</time>
      </trkpt>
      <trkpt lat="44.66005" lon="2.93365">
        <ele>1324.6</ele>
        <time>2022-08-05T12:34:47Z</time>
      </trkpt>
      <trkpt lat="44.66003" lon="2.93363">
        <ele>1324.4</ele>
        <time>2022-08-05T12:34:49Z</time>
      </trkpt>
      <trkpt lat="44.66003" lon="2.93362">
        <ele>1324.3</ele>
        <time>2022-08-05T12:34:50Z</time>
      </trkpt>
      <trkpt lat="44.66002" lon="2.93361">
        <ele>1324.3</ele>
        <time>2022-08-05T12:34:51Z</time>
      </trkpt>
      <trkpt lat="44.66001" lon="2.93358">
        <ele>1324.2</ele>
        <time>2022-08-05T12:34:53Z</time>
      </trkpt>
      <trkpt lat="44.66001" lon="2.93357">
        <ele>1324.2</ele>
        <time>2022-08-05T12:34:55Z</time>
      </trkpt>
      <trkpt lat="44.66" lon="2.93354">
        <ele>1324.2</ele>
        <time>2022-08-05T12:34:57Z</time>
      </trkpt>
      <trkpt lat="44.65999" lon="2.93352">
        <ele>1324.3</ele>
        <time>2022-08-05T12:34:58Z</time>
      </trkpt>
      <trkpt lat="44.65998" lon="2.93347">
        <ele>1324.4</ele>
        <time>2022-08-05T12:35:01Z</time>
      </trkpt>
      <trkpt lat="44.65997" lon="2.93338">
        <ele>1324.8</ele>
        <time>2022-08-05T12:35:07Z</time>
      </trkpt>
      <trkpt lat="44.65998" lon="2.93334">
        <ele>1325</ele>
        <time>2022-08-05T12:35:12Z</time>
      </trkpt>
      <trkpt lat="44.65998" lon="2.93334">
        <ele>1325</ele>
        <time>2022-08-05T12:35:13Z</time>
      </trkpt>
      <trkpt lat="44.65997" lon="2.93334">
        <ele>1325</ele>
        <time>2022-08-05T12:35:14Z</time>
      </trkpt>
      <trkpt lat="44.65997" lon="2.93334">
        <ele>1325</ele>
        <time>2022-08-05T12:35:16Z</time>
      </trkpt>
      <trkpt lat="44.65996" lon="2.93333">
        <ele>1325</ele>
        <time>2022-08-05T12:35:19Z</time>
      </trkpt>
      <trkpt lat="44.65996" lon="2.93333">
        <ele>1325.1</ele>
        <time>2022-08-05T12:35:22Z</time>
      </trkpt>
      <trkpt lat="44.65996" lon="2.93333">
        <ele>1325.1</ele>
        <time>2022-08-05T12:35:23Z</time>
      </trkpt>
      <trkpt lat="44.65996" lon="2.93333">
        <ele>1325.1</ele>
        <time>2022-08-05T12:35:26Z</time>
      </trkpt>
      <trkpt lat="44.65996" lon="2.93333">
        <ele>1325.1</ele>
        <time>2022-08-05T12:35:27Z</time>
      </trkpt>
      <trkpt lat="44.65996" lon="2.93333">
        <ele>1325.1</ele>
        <time>2022-08-05T12:35:28Z</time>
      </trkpt>
      <trkpt lat="44.65996" lon="2.93333">
        <ele>1325.1</ele>
        <time>2022-08-05T12:35:29Z</time>
      </trkpt>
      <trkpt lat="44.65996" lon="2.93333">
        <ele>1325.1</ele>
        <time>2022-08-05T12:35:30Z</time>
      </trkpt>
      <trkpt lat="44.65996" lon="2.93333">
        <ele>1325.1</ele>
        <time>2022-08-05T12:35:31Z</time>
      </trkpt>
      <trkpt lat="44.65996" lon="2.93333">
        <ele>1325.1</ele>
        <time>2022-08-05T12:35:32Z</time>
      </trkpt>
      <trkpt lat="44.65994" lon="2.93333">
        <ele>1325.1</ele>
        <time>2022-08-05T12:35:34Z</time>
      </trkpt>
      <trkpt lat="44.65992" lon="2.93331">
        <ele>1325.4</ele>
        <time>2022-08-05T12:35:36Z</time>
      </trkpt>
      <trkpt lat="44.65988" lon="2.93326">
        <ele>1326</ele>
        <time>2022-08-05T12:35:40Z</time>
      </trkpt>
      <trkpt lat="44.65987" lon="2.93325">
        <ele>1326.1</ele>
        <time>2022-08-05T12:35:41Z</time>
      </trkpt>
      <trkpt lat="44.65985" lon="2.9332">
        <ele>1326.6</ele>
        <time>2022-08-05T12:35:45Z</time>
      </trkpt>
      <trkpt lat="44.65984" lon="2.93318">
        <ele>1326.8</ele>
        <time>2022-08-05T12:35:48Z</time>
      </trkpt>
      <trkpt lat="44.65983" lon="2.93315">
        <ele>1327</ele>
        <time>2022-08-05T12:35:50Z</time>
      </trkpt>
      <trkpt lat="44.65982" lon="2.93312">
        <ele>1327.4</ele>
        <time>2022-08-05T12:35:54Z</time>
      </trkpt>
      <trkpt lat="44.6598" lon="2.93303">
        <ele>1327.9</ele>
        <time>2022-08-05T12:36:00Z</time>
      </trkpt>
      <trkpt lat="44.6598" lon="2.93294">
        <ele>1328</ele>
        <time>2022-08-05T12:36:06Z</time>
      </trkpt>
      <trkpt lat="44.6598" lon="2.93292">
        <ele>1328</ele>
        <time>2022-08-05T12:36:08Z</time>
      </trkpt>
      <trkpt lat="44.6598" lon="2.9329">
        <ele>1328</ele>
        <time>2022-08-05T12:36:09Z</time>
      </trkpt>
      <trkpt lat="44.65981" lon="2.93288">
        <ele>1328.1</ele>
        <time>2022-08-05T12:36:10Z</time>
      </trkpt>
      <trkpt lat="44.65981" lon="2.93284">
        <ele>1328.2</ele>
        <time>2022-08-05T12:36:13Z</time>
      </trkpt>
      <trkpt lat="44.65981" lon="2.93281">
        <ele>1328.3</ele>
        <time>2022-08-05T12:36:15Z</time>
      </trkpt>
      <trkpt lat="44.65982" lon="2.93278">
        <ele>1328.4</ele>
        <time>2022-08-05T12:36:17Z</time>
      </trkpt>
      <trkpt lat="44.65983" lon="2.93273">
        <ele>1328.7</ele>
        <time>2022-08-05T12:36:20Z</time>
      </trkpt>
      <trkpt lat="44.65984" lon="2.93271">
        <ele>1328.9</ele>
        <time>2022-08-05T12:36:22Z</time>
      </trkpt>
      <trkpt lat="44.65984" lon="2.93269">
        <ele>1329</ele>
        <time>2022-08-05T12:36:23Z</time>
      </trkpt>
      <trkpt lat="44.65984" lon="2.93266">
        <ele>1329.2</ele>
        <time>2022-08-05T12:36:25Z</time>
      </trkpt>
      <trkpt lat="44.65984" lon="2.93264">
        <ele>1329.3</ele>
        <time>2022-08-05T12:36:26Z</time>
      </trkpt>
      <trkpt lat="44.65985" lon="2.93263">
        <ele>1329.4</ele>
        <time>2022-08-05T12:36:27Z</time>
      </trkpt>
      <trkpt lat="44.65985" lon="2.9326">
        <ele>1329.5</ele>
        <time>2022-08-05T12:36:29Z</time>
      </trkpt>
      <trkpt lat="44.65986" lon="2.93255">
        <ele>1329.8</ele>
        <time>2022-08-05T12:36:33Z</time>
      </trkpt>
      <trkpt lat="44.65986" lon="2.93252">
        <ele>1329.9</ele>
        <time>2022-08-05T12:36:35Z</time>
      </trkpt>
      <trkpt lat="44.65989" lon="2.93244">
        <ele>1330.3</ele>
        <time>2022-08-05T12:36:40Z</time>
      </trkpt>
      <trkpt lat="44.6599" lon="2.9324">
        <ele>1330.5</ele>
        <time>2022-08-05T12:36:43Z</time>
      </trkpt>
      <trkpt lat="44.65991" lon="2.93234">
        <ele>1330.7</ele>
        <time>2022-08-05T12:36:47Z</time>
      </trkpt>
      <trkpt lat="44.65991" lon="2.93227">
        <ele>1330.9</ele>
        <time>2022-08-05T12:36:52Z</time>
      </trkpt>
      <trkpt lat="44.65991" lon="2.93225">
        <ele>1330.9</ele>
        <time>2022-08-05T12:36:53Z</time>
      </trkpt>
      <trkpt lat="44.65991" lon="2.93221">
        <ele>1331</ele>
        <time>2022-08-05T12:36:55Z</time>
      </trkpt>
      <trkpt lat="44.65991" lon="2.93218">
        <ele>1331.2</ele>
        <time>2022-08-05T12:36:57Z</time>
      </trkpt>
      <trkpt lat="44.65992" lon="2.93212">
        <ele>1331.6</ele>
        <time>2022-08-05T12:37:01Z</time>
      </trkpt>
      <trkpt lat="44.65992" lon="2.93211">
        <ele>1331.7</ele>
        <time>2022-08-05T12:37:02Z</time>
      </trkpt>
      <trkpt lat="44.65992" lon="2.93203">
        <ele>1332.2</ele>
        <time>2022-08-05T12:37:07Z</time>
      </trkpt>
      <trkpt lat="44.65992" lon="2.932">
        <ele>1332.4</ele>
        <time>2022-08-05T12:37:09Z</time>
      </trkpt>
      <trkpt lat="44.65992" lon="2.93195">
        <ele>1332.7</ele>
        <time>2022-08-05T12:37:12Z</time>
      </trkpt>
      <trkpt lat="44.65993" lon="2.93182">
        <ele>1333.1</ele>
        <time>2022-08-05T12:37:21Z</time>
      </trkpt>
      <trkpt lat="44.65993" lon="2.93176">
        <ele>1333.2</ele>
        <time>2022-08-05T12:37:25Z</time>
      </trkpt>
      <trkpt lat="44.65992" lon="2.93172">
        <ele>1333.3</ele>
        <time>2022-08-05T12:37:28Z</time>
      </trkpt>
      <trkpt lat="44.65993" lon="2.9317">
        <ele>1333.4</ele>
        <time>2022-08-05T12:37:31Z</time>
      </trkpt>
      <trkpt lat="44.65993" lon="2.93169">
        <ele>1333.4</ele>
        <time>2022-08-05T12:37:32Z</time>
      </trkpt>
      <trkpt lat="44.65994" lon="2.93169">
        <ele>1333.5</ele>
        <time>2022-08-05T12:37:34Z</time>
      </trkpt>
      <trkpt lat="44.65994" lon="2.93169">
        <ele>1333.5</ele>
        <time>2022-08-05T12:37:35Z</time>
      </trkpt>
      <trkpt lat="44.65994" lon="2.93169">
        <ele>1333.5</ele>
        <time>2022-08-05T12:37:37Z</time>
      </trkpt>
      <trkpt lat="44.65994" lon="2.93169">
        <ele>1333.5</ele>
        <time>2022-08-05T12:37:41Z</time>
      </trkpt>
      <trkpt lat="44.65994" lon="2.93169">
        <ele>1333.5</ele>
        <time>2022-08-05T12:37:44Z</time>
      </trkpt>
      <trkpt lat="44.65994" lon="2.93169">
        <ele>1333.5</ele>
        <time>2022-08-05T12:37:46Z</time>
      </trkpt>
      <trkpt lat="44.65993" lon="2.93167">
        <ele>1333.5</ele>
        <time>2022-08-05T12:37:49Z</time>
      </trkpt>
      <trkpt lat="44.65992" lon="2.93163">
        <ele>1333.5</ele>
        <time>2022-08-05T12:37:51Z</time>
      </trkpt>
      <trkpt lat="44.65987" lon="2.93147">
        <ele>1333.7</ele>
        <time>2022-08-05T12:37:59Z</time>
      </trkpt>
      <trkpt lat="44.65986" lon="2.9314">
        <ele>1334</ele>
        <time>2022-08-05T12:38:04Z</time>
      </trkpt>
      <trkpt lat="44.65984" lon="2.93129">
        <ele>1334.4</ele>
        <time>2022-08-05T12:38:11Z</time>
      </trkpt>
      <trkpt lat="44.65984" lon="2.93122">
        <ele>1334.6</ele>
        <time>2022-08-05T12:38:15Z</time>
      </trkpt>
      <trkpt lat="44.65983" lon="2.93113">
        <ele>1334.9</ele>
        <time>2022-08-05T12:38:21Z</time>
      </trkpt>
      <trkpt lat="44.65983" lon="2.9311">
        <ele>1335.1</ele>
        <time>2022-08-05T12:38:23Z</time>
      </trkpt>
      <trkpt lat="44.65983" lon="2.93109">
        <ele>1335.1</ele>
        <time>2022-08-05T12:38:24Z</time>
      </trkpt>
      <trkpt lat="44.65984" lon="2.93103">
        <ele>1335.6</ele>
        <time>2022-08-05T12:38:28Z</time>
      </trkpt>
      <trkpt lat="44.65985" lon="2.93098">
        <ele>1336</ele>
        <time>2022-08-05T12:38:32Z</time>
      </trkpt>
      <trkpt lat="44.65986" lon="2.93096">
        <ele>1336.1</ele>
        <time>2022-08-05T12:38:33Z</time>
      </trkpt>
      <trkpt lat="44.65986" lon="2.93095">
        <ele>1336.1</ele>
        <time>2022-08-05T12:38:36Z</time>
      </trkpt>
      <trkpt lat="44.65986" lon="2.93096">
        <ele>1336.1</ele>
        <time>2022-08-05T12:38:37Z</time>
      </trkpt>
      <trkpt lat="44.65985" lon="2.93097">
        <ele>1336</ele>
        <time>2022-08-05T12:38:38Z</time>
      </trkpt>
      <trkpt lat="44.65982" lon="2.93097">
        <ele>1336.1</ele>
        <time>2022-08-05T12:38:45Z</time>
      </trkpt>
      <trkpt lat="44.65983" lon="2.93095">
        <ele>1336.2</ele>
        <time>2022-08-05T12:38:52Z</time>
      </trkpt>
      <trkpt lat="44.65983" lon="2.93095">
        <ele>1336.2</ele>
        <time>2022-08-05T12:38:53Z</time>
      </trkpt>
      <trkpt lat="44.65983" lon="2.93095">
        <ele>1336.2</ele>
        <time>2022-08-05T12:38:54Z</time>
      </trkpt>
      <trkpt lat="44.65983" lon="2.93096">
        <ele>1336.1</ele>
        <time>2022-08-05T12:39:02Z</time>
      </trkpt>
      <trkpt lat="44.65983" lon="2.93096">
        <ele>1336.1</ele>
        <time>2022-08-05T12:39:05Z</time>
      </trkpt>
      <trkpt lat="44.65982" lon="2.93097">
        <ele>1336</ele>
        <time>2022-08-05T12:39:08Z</time>
      </trkpt>
      <trkpt lat="44.65979" lon="2.93097">
        <ele>1336</ele>
        <time>2022-08-05T12:39:10Z</time>
      </trkpt>
      <trkpt lat="44.65975" lon="2.93098">
        <ele>1336</ele>
        <time>2022-08-05T12:39:14Z</time>
      </trkpt>
      <trkpt lat="44.6597" lon="2.931">
        <ele>1335.7</ele>
        <time>2022-08-05T12:39:18Z</time>
      </trkpt>
      <trkpt lat="44.65967" lon="2.93101">
        <ele>1335.6</ele>
        <time>2022-08-05T12:39:22Z</time>
      </trkpt>
      <trkpt lat="44.65968" lon="2.93099">
        <ele>1335.8</ele>
        <time>2022-08-05T12:39:24Z</time>
      </trkpt>
      <trkpt lat="44.65976" lon="2.93097">
        <ele>1336.1</ele>
        <time>2022-08-05T12:39:31Z</time>
      </trkpt>
      <trkpt lat="44.6598" lon="2.93096">
        <ele>1336.1</ele>
        <time>2022-08-05T12:39:34Z</time>
      </trkpt>
      <trkpt lat="44.66007" lon="2.93085">
        <ele>1336.9</ele>
        <time>2022-08-05T13:02:16Z</time>
      </trkpt>
      <trkpt lat="44.6601" lon="2.93084">
        <ele>1336.9</ele>
        <time>2022-08-05T13:02:18Z</time>
      </trkpt>
      <trkpt lat="44.66017" lon="2.9308">
        <ele>1337.2</ele>
        <time>2022-08-05T13:02:23Z</time>
      </trkpt>
      <trkpt lat="44.66023" lon="2.93079">
        <ele>1337.3</ele>
        <time>2022-08-05T13:02:27Z</time>
      </trkpt>
      <trkpt lat="44.66035" lon="2.93076">
        <ele>1337.7</ele>
        <time>2022-08-05T13:02:36Z</time>
      </trkpt>
      <trkpt lat="44.66049" lon="2.93074">
        <ele>1338.2</ele>
        <time>2022-08-05T13:02:46Z</time>
      </trkpt>
      <trkpt lat="44.66064" lon="2.93068">
        <ele>1339</ele>
        <time>2022-08-05T13:02:57Z</time>
      </trkpt>
      <trkpt lat="44.6607" lon="2.93065">
        <ele>1339.3</ele>
        <time>2022-08-05T13:03:01Z</time>
      </trkpt>
      <trkpt lat="44.66074" lon="2.93062">
        <ele>1339.6</ele>
        <time>2022-08-05T13:03:06Z</time>
      </trkpt>
      <trkpt lat="44.66078" lon="2.93059">
        <ele>1339.8</ele>
        <time>2022-08-05T13:03:09Z</time>
      </trkpt>
      <trkpt lat="44.66083" lon="2.93057">
        <ele>1340</ele>
        <time>2022-08-05T13:03:12Z</time>
      </trkpt>
      <trkpt lat="44.66085" lon="2.93056">
        <ele>1340.2</ele>
        <time>2022-08-05T13:03:14Z</time>
      </trkpt>
      <trkpt lat="44.66092" lon="2.93053">
        <ele>1341.3</ele>
        <time>2022-08-05T13:03:19Z</time>
      </trkpt>
      <trkpt lat="44.66099" lon="2.9305">
        <ele>1342.4</ele>
        <time>2022-08-05T13:03:25Z</time>
      </trkpt>
      <trkpt lat="44.66102" lon="2.93049">
        <ele>1342.7</ele>
        <time>2022-08-05T13:03:27Z</time>
      </trkpt>
      <trkpt lat="44.66114" lon="2.93044">
        <ele>1344</ele>
        <time>2022-08-05T13:03:36Z</time>
      </trkpt>
      <trkpt lat="44.66118" lon="2.93043">
        <ele>1344.3</ele>
        <time>2022-08-05T13:03:39Z</time>
      </trkpt>
      <trkpt lat="44.66129" lon="2.93038">
        <ele>1345.1</ele>
        <time>2022-08-05T13:03:47Z</time>
      </trkpt>
      <trkpt lat="44.66138" lon="2.93033">
        <ele>1345.8</ele>
        <time>2022-08-05T13:03:54Z</time>
      </trkpt>
      <trkpt lat="44.66143" lon="2.93031">
        <ele>1345.9</ele>
        <time>2022-08-05T13:03:58Z</time>
      </trkpt>
      <trkpt lat="44.6615" lon="2.93029">
        <ele>1346</ele>
        <time>2022-08-05T13:04:03Z</time>
      </trkpt>
      <trkpt lat="44.66165" lon="2.93024">
        <ele>1346.1</ele>
        <time>2022-08-05T13:04:14Z</time>
      </trkpt>
      <trkpt lat="44.66176" lon="2.93019">
        <ele>1346.4</ele>
        <time>2022-08-05T13:04:24Z</time>
      </trkpt>
      <trkpt lat="44.66186" lon="2.93011">
        <ele>1347</ele>
        <time>2022-08-05T13:04:34Z</time>
      </trkpt>
      <trkpt lat="44.66188" lon="2.93007">
        <ele>1347.3</ele>
        <time>2022-08-05T13:04:37Z</time>
      </trkpt>
      <trkpt lat="44.66192" lon="2.92997">
        <ele>1348.1</ele>
        <time>2022-08-05T13:04:44Z</time>
      </trkpt>
      <trkpt lat="44.66194" lon="2.92992">
        <ele>1348.6</ele>
        <time>2022-08-05T13:04:47Z</time>
      </trkpt>
      <trkpt lat="44.66197" lon="2.92984">
        <ele>1349.1</ele>
        <time>2022-08-05T13:04:52Z</time>
      </trkpt>
      <trkpt lat="44.66197" lon="2.92981">
        <ele>1349.3</ele>
        <time>2022-08-05T13:04:54Z</time>
      </trkpt>
      <trkpt lat="44.66198" lon="2.92979">
        <ele>1349.4</ele>
        <time>2022-08-05T13:04:58Z</time>
      </trkpt>
      <trkpt lat="44.66198" lon="2.92979">
        <ele>1349.4</ele>
        <time>2022-08-05T13:04:59Z</time>
      </trkpt>
      <trkpt lat="44.66198" lon="2.92979">
        <ele>1349.4</ele>
        <time>2022-08-05T13:05:00Z</time>
      </trkpt>
      <trkpt lat="44.66198" lon="2.92983">
        <ele>1349.1</ele>
        <time>2022-08-05T13:05:20Z</time>
      </trkpt>
      <trkpt lat="44.66197" lon="2.92985">
        <ele>1349</ele>
        <time>2022-08-05T13:05:21Z</time>
      </trkpt>
      <trkpt lat="44.66195" lon="2.92992">
        <ele>1348.6</ele>
        <time>2022-08-05T13:05:24Z</time>
      </trkpt>
      <trkpt lat="44.66191" lon="2.93001">
        <ele>1347.8</ele>
        <time>2022-08-05T13:05:28Z</time>
      </trkpt>
      <trkpt lat="44.66188" lon="2.93009">
        <ele>1347.2</ele>
        <time>2022-08-05T13:05:33Z</time>
      </trkpt>
      <trkpt lat="44.66185" lon="2.93014">
        <ele>1346.8</ele>
        <time>2022-08-05T13:05:36Z</time>
      </trkpt>
      <trkpt lat="44.66179" lon="2.93024">
        <ele>1346.2</ele>
        <time>2022-08-05T13:05:44Z</time>
      </trkpt>
      <trkpt lat="44.66173" lon="2.93028">
        <ele>1346</ele>
        <time>2022-08-05T13:05:49Z</time>
      </trkpt>
      <trkpt lat="44.6617" lon="2.93028">
        <ele>1346</ele>
        <time>2022-08-05T13:05:51Z</time>
      </trkpt>
      <trkpt lat="44.66168" lon="2.93028">
        <ele>1346</ele>
        <time>2022-08-05T13:05:54Z</time>
      </trkpt>
      <trkpt lat="44.66168" lon="2.93028">
        <ele>1346</ele>
        <time>2022-08-05T13:05:56Z</time>
      </trkpt>
      <trkpt lat="44.66165" lon="2.93023">
        <ele>1346.2</ele>
        <time>2022-08-05T13:06:01Z</time>
      </trkpt>
      <trkpt lat="44.66164" lon="2.93024">
        <ele>1346.1</ele>
        <time>2022-08-05T13:06:06Z</time>
      </trkpt>
      <trkpt lat="44.66158" lon="2.93033">
        <ele>1345.8</ele>
        <time>2022-08-05T13:06:12Z</time>
      </trkpt>
      <trkpt lat="44.66151" lon="2.93036">
        <ele>1345.7</ele>
        <time>2022-08-05T13:06:17Z</time>
      </trkpt>
      <trkpt lat="44.66146" lon="2.93037">
        <ele>1345.7</ele>
        <time>2022-08-05T13:06:20Z</time>
      </trkpt>
      <trkpt lat="44.66132" lon="2.93042">
        <ele>1345.1</ele>
        <time>2022-08-05T13:06:30Z</time>
      </trkpt>
      <trkpt lat="44.66125" lon="2.93045">
        <ele>1344.5</ele>
        <time>2022-08-05T13:06:36Z</time>
      </trkpt>
      <trkpt lat="44.66115" lon="2.93049">
        <ele>1343.7</ele>
        <time>2022-08-05T13:06:43Z</time>
      </trkpt>
      <trkpt lat="44.66111" lon="2.93051">
        <ele>1343.3</ele>
        <time>2022-08-05T13:06:46Z</time>
      </trkpt>
      <trkpt lat="44.66098" lon="2.93056">
        <ele>1341.6</ele>
        <time>2022-08-05T13:06:56Z</time>
      </trkpt>
      <trkpt lat="44.66094" lon="2.93058">
        <ele>1341.1</ele>
        <time>2022-08-05T13:06:59Z</time>
      </trkpt>
      <trkpt lat="44.66092" lon="2.93058">
        <ele>1340.9</ele>
        <time>2022-08-05T13:07:00Z</time>
      </trkpt>
      <trkpt lat="44.66079" lon="2.93064">
        <ele>1339.8</ele>
        <time>2022-08-05T13:07:09Z</time>
      </trkpt>
      <trkpt lat="44.66078" lon="2.93065">
        <ele>1339.7</ele>
        <time>2022-08-05T13:07:10Z</time>
      </trkpt>
      <trkpt lat="44.66066" lon="2.93072">
        <ele>1339</ele>
        <time>2022-08-05T13:07:19Z</time>
      </trkpt>
      <trkpt lat="44.66063" lon="2.93074">
        <ele>1338.8</ele>
        <time>2022-08-05T13:07:21Z</time>
      </trkpt>
      <trkpt lat="44.66051" lon="2.93078">
        <ele>1338.1</ele>
        <time>2022-08-05T13:07:29Z</time>
      </trkpt>
      <trkpt lat="44.6605" lon="2.93079">
        <ele>1338</ele>
        <time>2022-08-05T13:07:30Z</time>
      </trkpt>
      <trkpt lat="44.66037" lon="2.9308">
        <ele>1337.5</ele>
        <time>2022-08-05T13:07:38Z</time>
      </trkpt>
      <trkpt lat="44.66027" lon="2.93083">
        <ele>1337</ele>
        <time>2022-08-05T13:07:45Z</time>
      </trkpt>
      <trkpt lat="44.66025" lon="2.93083">
        <ele>1337</ele>
        <time>2022-08-05T13:07:46Z</time>
      </trkpt>
      <trkpt lat="44.66012" lon="2.93086">
        <ele>1336.8</ele>
        <time>2022-08-05T13:07:56Z</time>
      </trkpt>
      <trkpt lat="44.65997" lon="2.93091">
        <ele>1336.5</ele>
        <time>2022-08-05T13:08:06Z</time>
      </trkpt>
      <trkpt lat="44.65993" lon="2.93092">
        <ele>1336.4</ele>
        <time>2022-08-05T13:08:09Z</time>
      </trkpt>
      <trkpt lat="44.65987" lon="2.93093">
        <ele>1336.3</ele>
        <time>2022-08-05T13:08:14Z</time>
      </trkpt>
      <trkpt lat="44.65987" lon="2.93094">
        <ele>1336.2</ele>
        <time>2022-08-05T13:08:15Z</time>
      </trkpt>
      <trkpt lat="44.65986" lon="2.93094">
        <ele>1336.3</ele>
        <time>2022-08-05T13:08:19Z</time>
      </trkpt>
      <trkpt lat="44.65986" lon="2.93094">
        <ele>1336.3</ele>
        <time>2022-08-05T13:08:20Z</time>
      </trkpt>
      <trkpt lat="44.65986" lon="2.93094">
        <ele>1336.2</ele>
        <time>2022-08-05T13:08:26Z</time>
      </trkpt>
      <trkpt lat="44.65986" lon="2.93094">
        <ele>1336.2</ele>
        <time>2022-08-05T13:08:41Z</time>
      </trkpt>
      <trkpt lat="44.65989" lon="2.93099">
        <ele>1335.8</ele>
        <time>2022-08-05T13:11:21Z</time>
      </trkpt>
      <trkpt lat="44.6599" lon="2.93098">
        <ele>1335.9</ele>
        <time>2022-08-05T13:12:13Z</time>
      </trkpt>
      <trkpt lat="44.6599" lon="2.93098">
        <ele>1336</ele>
        <time>2022-08-05T13:13:29Z</time>
      </trkpt>
      <trkpt lat="44.6599" lon="2.93098">
        <ele>1336</ele>
        <time>2022-08-05T13:13:56Z</time>
      </trkpt>
      <trkpt lat="44.6599" lon="2.93098">
        <ele>1336</ele>
        <time>2022-08-05T13:14:11Z</time>
      </trkpt>
      <trkpt lat="44.65989" lon="2.93098">
        <ele>1336</ele>
        <time>2022-08-05T13:14:56Z</time>
      </trkpt>
      <trkpt lat="44.65979" lon="2.93097">
        <ele>1336</ele>
        <time>2022-08-05T13:15:02Z</time>
      </trkpt>
      <trkpt lat="44.65966" lon="2.93099">
        <ele>1335.7</ele>
        <time>2022-08-05T13:15:12Z</time>
      </trkpt>
      <trkpt lat="44.65963" lon="2.93102">
        <ele>1335.4</ele>
        <time>2022-08-05T13:15:18Z</time>
      </trkpt>
      <trkpt lat="44.6596" lon="2.93105">
        <ele>1335.1</ele>
        <time>2022-08-05T13:15:22Z</time>
      </trkpt>
      <trkpt lat="44.65958" lon="2.93106">
        <ele>1334.9</ele>
        <time>2022-08-05T13:15:24Z</time>
      </trkpt>
      <trkpt lat="44.65956" lon="2.93107">
        <ele>1334.9</ele>
        <time>2022-08-05T13:15:25Z</time>
      </trkpt>
      <trkpt lat="44.65955" lon="2.93106">
        <ele>1334.9</ele>
        <time>2022-08-05T13:15:26Z</time>
      </trkpt>
      <trkpt lat="44.65947" lon="2.93103">
        <ele>1334.9</ele>
        <time>2022-08-05T13:15:32Z</time>
      </trkpt>
      <trkpt lat="44.65943" lon="2.93101">
        <ele>1335</ele>
        <time>2022-08-05T13:15:35Z</time>
      </trkpt>
      <trkpt lat="44.65939" lon="2.93099">
        <ele>1335.1</ele>
        <time>2022-08-05T13:15:39Z</time>
      </trkpt>
      <trkpt lat="44.6593" lon="2.931">
        <ele>1334.7</ele>
        <time>2022-08-05T13:15:49Z</time>
      </trkpt>
      <trkpt lat="44.6593" lon="2.931">
        <ele>1334.7</ele>
        <time>2022-08-05T13:15:50Z</time>
      </trkpt>
      <trkpt lat="44.65931" lon="2.93099">
        <ele>1334.8</ele>
        <time>2022-08-05T13:15:51Z</time>
      </trkpt>
      <trkpt lat="44.65933" lon="2.93097">
        <ele>1335.1</ele>
        <time>2022-08-05T13:15:53Z</time>
      </trkpt>
      <trkpt lat="44.6593" lon="2.93097">
        <ele>1335.1</ele>
        <time>2022-08-05T13:15:55Z</time>
      </trkpt>
      <trkpt lat="44.6593" lon="2.93097">
        <ele>1335.1</ele>
        <time>2022-08-05T13:16:02Z</time>
      </trkpt>
      <trkpt lat="44.6593" lon="2.93097">
        <ele>1335</ele>
        <time>2022-08-05T13:16:04Z</time>
      </trkpt>
      <trkpt lat="44.65928" lon="2.93098">
        <ele>1334.8</ele>
        <time>2022-08-05T13:16:12Z</time>
      </trkpt>
      <trkpt lat="44.65926" lon="2.93101">
        <ele>1334.4</ele>
        <time>2022-08-05T13:16:19Z</time>
      </trkpt>
      <trkpt lat="44.65927" lon="2.931">
        <ele>1334.6</ele>
        <time>2022-08-05T13:16:25Z</time>
      </trkpt>
      <trkpt lat="44.65926" lon="2.93099">
        <ele>1334.7</ele>
        <time>2022-08-05T13:16:33Z</time>
      </trkpt>
      <trkpt lat="44.65925" lon="2.93099">
        <ele>1334.6</ele>
        <time>2022-08-05T13:17:01Z</time>
      </trkpt>
      <trkpt lat="44.65925" lon="2.931">
        <ele>1334.5</ele>
        <time>2022-08-05T13:17:08Z</time>
      </trkpt>
      <trkpt lat="44.65924" lon="2.93094">
        <ele>1335.2</ele>
        <time>2022-08-05T13:17:38Z</time>
      </trkpt>
      <trkpt lat="44.6592" lon="2.93092">
        <ele>1335.2</ele>
        <time>2022-08-05T13:18:48Z</time>
      </trkpt>
      <trkpt lat="44.65908" lon="2.93089">
        <ele>1335.4</ele>
        <time>2022-08-05T13:18:56Z</time>
      </trkpt>
      <trkpt lat="44.659" lon="2.93087">
        <ele>1335.5</ele>
        <time>2022-08-05T13:19:03Z</time>
      </trkpt>
      <trkpt lat="44.65891" lon="2.93084">
        <ele>1335.9</ele>
        <time>2022-08-05T13:19:12Z</time>
      </trkpt>
      <trkpt lat="44.6589" lon="2.93084">
        <ele>1336</ele>
        <time>2022-08-05T13:19:13Z</time>
      </trkpt>
      <trkpt lat="44.6588" lon="2.9308">
        <ele>1335.8</ele>
        <time>2022-08-05T13:19:22Z</time>
      </trkpt>
      <trkpt lat="44.65879" lon="2.9308">
        <ele>1335.8</ele>
        <time>2022-08-05T13:19:23Z</time>
      </trkpt>
      <trkpt lat="44.65878" lon="2.93079">
        <ele>1335.8</ele>
        <time>2022-08-05T13:19:24Z</time>
      </trkpt>
      <trkpt lat="44.65873" lon="2.93075">
        <ele>1335.9</ele>
        <time>2022-08-05T13:19:29Z</time>
      </trkpt>
      <trkpt lat="44.65869" lon="2.93069">
        <ele>1336.2</ele>
        <time>2022-08-05T13:19:34Z</time>
      </trkpt>
      <trkpt lat="44.65866" lon="2.93068">
        <ele>1336.1</ele>
        <time>2022-08-05T13:19:36Z</time>
      </trkpt>
      <trkpt lat="44.65859" lon="2.93066">
        <ele>1335.7</ele>
        <time>2022-08-05T13:19:44Z</time>
      </trkpt>
      <trkpt lat="44.65855" lon="2.93063">
        <ele>1335.6</ele>
        <time>2022-08-05T13:19:47Z</time>
      </trkpt>
      <trkpt lat="44.65852" lon="2.93061">
        <ele>1335.7</ele>
        <time>2022-08-05T13:19:50Z</time>
      </trkpt>
      <trkpt lat="44.65844" lon="2.93054">
        <ele>1336</ele>
        <time>2022-08-05T13:19:58Z</time>
      </trkpt>
      <trkpt lat="44.65835" lon="2.93049">
        <ele>1336.1</ele>
        <time>2022-08-05T13:20:05Z</time>
      </trkpt>
      <trkpt lat="44.65825" lon="2.93041">
        <ele>1336.3</ele>
        <time>2022-08-05T13:20:14Z</time>
      </trkpt>
      <trkpt lat="44.65821" lon="2.93038">
        <ele>1336.4</ele>
        <time>2022-08-05T13:20:19Z</time>
      </trkpt>
      <trkpt lat="44.6582" lon="2.93037">
        <ele>1336.4</ele>
        <time>2022-08-05T13:20:20Z</time>
      </trkpt>
      <trkpt lat="44.65814" lon="2.93032">
        <ele>1336.4</ele>
        <time>2022-08-05T13:20:25Z</time>
      </trkpt>
      <trkpt lat="44.65811" lon="2.93029">
        <ele>1336.4</ele>
        <time>2022-08-05T13:20:28Z</time>
      </trkpt>
      <trkpt lat="44.65807" lon="2.93025">
        <ele>1336.5</ele>
        <time>2022-08-05T13:20:33Z</time>
      </trkpt>
      <trkpt lat="44.65805" lon="2.93023">
        <ele>1336.6</ele>
        <time>2022-08-05T13:20:35Z</time>
      </trkpt>
      <trkpt lat="44.65798" lon="2.93015">
        <ele>1336.6</ele>
        <time>2022-08-05T13:20:43Z</time>
      </trkpt>
      <trkpt lat="44.65785" lon="2.93005">
        <ele>1336.3</ele>
        <time>2022-08-05T13:20:53Z</time>
      </trkpt>
      <trkpt lat="44.65779" lon="2.92998">
        <ele>1336.5</ele>
        <time>2022-08-05T13:21:01Z</time>
      </trkpt>
      <trkpt lat="44.65772" lon="2.92993">
        <ele>1336.5</ele>
        <time>2022-08-05T13:21:11Z</time>
      </trkpt>
      <trkpt lat="44.65772" lon="2.92993">
        <ele>1336.5</ele>
        <time>2022-08-05T13:21:12Z</time>
      </trkpt>
      <trkpt lat="44.65772" lon="2.92996">
        <ele>1336.1</ele>
        <time>2022-08-05T13:21:19Z</time>
      </trkpt>
      <trkpt lat="44.65768" lon="2.92994">
        <ele>1336</ele>
        <time>2022-08-05T13:21:27Z</time>
      </trkpt>
      <trkpt lat="44.65757" lon="2.92984">
        <ele>1336.4</ele>
        <time>2022-08-05T13:21:36Z</time>
      </trkpt>
      <trkpt lat="44.65755" lon="2.92981">
        <ele>1336.5</ele>
        <time>2022-08-05T13:21:38Z</time>
      </trkpt>
      <trkpt lat="44.6575" lon="2.92976">
        <ele>1336.6</ele>
        <time>2022-08-05T13:21:43Z</time>
      </trkpt>
      <trkpt lat="44.65746" lon="2.92973">
        <ele>1336.7</ele>
        <time>2022-08-05T13:21:47Z</time>
      </trkpt>
      <trkpt lat="44.65742" lon="2.9297">
        <ele>1336.6</ele>
        <time>2022-08-05T13:21:51Z</time>
      </trkpt>
      <trkpt lat="44.65732" lon="2.92963">
        <ele>1336.7</ele>
        <time>2022-08-05T13:22:00Z</time>
      </trkpt>
      <trkpt lat="44.65723" lon="2.92954">
        <ele>1337</ele>
        <time>2022-08-05T13:22:09Z</time>
      </trkpt>
      <trkpt lat="44.65721" lon="2.92952">
        <ele>1337.3</ele>
        <time>2022-08-05T13:22:11Z</time>
      </trkpt>
      <trkpt lat="44.65715" lon="2.92948">
        <ele>1337.9</ele>
        <time>2022-08-05T13:22:16Z</time>
      </trkpt>
      <trkpt lat="44.65712" lon="2.92947">
        <ele>1338.1</ele>
        <time>2022-08-05T13:22:18Z</time>
      </trkpt>
      <trkpt lat="44.65708" lon="2.92944">
        <ele>1338.6</ele>
        <time>2022-08-05T13:22:22Z</time>
      </trkpt>
      <trkpt lat="44.65705" lon="2.92941">
        <ele>1339.1</ele>
        <time>2022-08-05T13:22:26Z</time>
      </trkpt>
      <trkpt lat="44.65703" lon="2.9294">
        <ele>1339.2</ele>
        <time>2022-08-05T13:22:28Z</time>
      </trkpt>
      <trkpt lat="44.65703" lon="2.9294">
        <ele>1339.3</ele>
        <time>2022-08-05T13:22:29Z</time>
      </trkpt>
      <trkpt lat="44.65703" lon="2.9294">
        <ele>1339.3</ele>
        <time>2022-08-05T13:22:31Z</time>
      </trkpt>
      <trkpt lat="44.65703" lon="2.9294">
        <ele>1339.3</ele>
        <time>2022-08-05T13:22:32Z</time>
      </trkpt>
      <trkpt lat="44.65704" lon="2.92939">
        <ele>1339.3</ele>
        <time>2022-08-05T13:22:35Z</time>
      </trkpt>
      <trkpt lat="44.65702" lon="2.92937">
        <ele>1339.7</ele>
        <time>2022-08-05T13:22:41Z</time>
      </trkpt>
      <trkpt lat="44.65702" lon="2.92937">
        <ele>1339.7</ele>
        <time>2022-08-05T13:22:43Z</time>
      </trkpt>
      <trkpt lat="44.65698" lon="2.92936">
        <ele>1339.9</ele>
        <time>2022-08-05T13:22:58Z</time>
      </trkpt>
      <trkpt lat="44.65684" lon="2.92929">
        <ele>1340.5</ele>
        <time>2022-08-05T13:23:07Z</time>
      </trkpt>
      <trkpt lat="44.6568" lon="2.92926">
        <ele>1340.6</ele>
        <time>2022-08-05T13:23:13Z</time>
      </trkpt>
      <trkpt lat="44.6568" lon="2.92926">
        <ele>1340.7</ele>
        <time>2022-08-05T13:23:15Z</time>
      </trkpt>
      <trkpt lat="44.6568" lon="2.92926">
        <ele>1340.7</ele>
        <time>2022-08-05T13:23:17Z</time>
      </trkpt>
      <trkpt lat="44.65682" lon="2.92925">
        <ele>1340.8</ele>
        <time>2022-08-05T13:23:22Z</time>
      </trkpt>
      <trkpt lat="44.65681" lon="2.92925">
        <ele>1340.8</ele>
        <time>2022-08-05T13:23:24Z</time>
      </trkpt>
      <trkpt lat="44.65678" lon="2.92924">
        <ele>1340.7</ele>
        <time>2022-08-05T13:23:31Z</time>
      </trkpt>
      <trkpt lat="44.65671" lon="2.92919">
        <ele>1341</ele>
        <time>2022-08-05T13:23:38Z</time>
      </trkpt>
      <trkpt lat="44.65668" lon="2.92917">
        <ele>1341</ele>
        <time>2022-08-05T13:23:41Z</time>
      </trkpt>
      <trkpt lat="44.65662" lon="2.92911">
        <ele>1341.5</ele>
        <time>2022-08-05T13:23:49Z</time>
      </trkpt>
      <trkpt lat="44.65652" lon="2.92903">
        <ele>1341.9</ele>
        <time>2022-08-05T13:24:00Z</time>
      </trkpt>
      <trkpt lat="44.65642" lon="2.929">
        <ele>1341.9</ele>
        <time>2022-08-05T13:24:10Z</time>
      </trkpt>
      <trkpt lat="44.65642" lon="2.929">
        <ele>1341.9</ele>
        <time>2022-08-05T13:24:11Z</time>
      </trkpt>
      <trkpt lat="44.65641" lon="2.929">
        <ele>1341.9</ele>
        <time>2022-08-05T13:24:14Z</time>
      </trkpt>
      <trkpt lat="44.65641" lon="2.92899">
        <ele>1342</ele>
        <time>2022-08-05T13:24:16Z</time>
      </trkpt>
      <trkpt lat="44.65641" lon="2.92897">
        <ele>1342.2</ele>
        <time>2022-08-05T13:24:22Z</time>
      </trkpt>
      <trkpt lat="44.65642" lon="2.92896">
        <ele>1342.3</ele>
        <time>2022-08-05T13:24:31Z</time>
      </trkpt>
      <trkpt lat="44.65642" lon="2.92896">
        <ele>1342.3</ele>
        <time>2022-08-05T13:24:35Z</time>
      </trkpt>
      <trkpt lat="44.65638" lon="2.92895">
        <ele>1342.4</ele>
        <time>2022-08-05T13:24:39Z</time>
      </trkpt>
      <trkpt lat="44.65628" lon="2.92896">
        <ele>1342.7</ele>
        <time>2022-08-05T13:24:46Z</time>
      </trkpt>
      <trkpt lat="44.65615" lon="2.92901">
        <ele>1342.6</ele>
        <time>2022-08-05T13:24:57Z</time>
      </trkpt>
      <trkpt lat="44.65603" lon="2.92905">
        <ele>1342.5</ele>
        <time>2022-08-05T13:25:07Z</time>
      </trkpt>
      <trkpt lat="44.65594" lon="2.92909">
        <ele>1342.3</ele>
        <time>2022-08-05T13:25:18Z</time>
      </trkpt>
      <trkpt lat="44.65593" lon="2.92909">
        <ele>1342.3</ele>
        <time>2022-08-05T13:25:20Z</time>
      </trkpt>
      <trkpt lat="44.65593" lon="2.92909">
        <ele>1342.3</ele>
        <time>2022-08-05T13:25:25Z</time>
      </trkpt>
      <trkpt lat="44.65594" lon="2.92909">
        <ele>1342.3</ele>
        <time>2022-08-05T13:25:42Z</time>
      </trkpt>
      <trkpt lat="44.65587" lon="2.92911">
        <ele>1342.3</ele>
        <time>2022-08-05T13:26:15Z</time>
      </trkpt>
      <trkpt lat="44.65572" lon="2.92916">
        <ele>1342.8</ele>
        <time>2022-08-05T13:26:26Z</time>
      </trkpt>
      <trkpt lat="44.65561" lon="2.92922">
        <ele>1343.1</ele>
        <time>2022-08-05T13:26:36Z</time>
      </trkpt>
      <trkpt lat="44.65556" lon="2.92925">
        <ele>1343.1</ele>
        <time>2022-08-05T13:26:41Z</time>
      </trkpt>
      <trkpt lat="44.65551" lon="2.92927">
        <ele>1343.1</ele>
        <time>2022-08-05T13:26:46Z</time>
      </trkpt>
      <trkpt lat="44.65539" lon="2.92932">
        <ele>1343.2</ele>
        <time>2022-08-05T13:26:56Z</time>
      </trkpt>
      <trkpt lat="44.6553" lon="2.92936">
        <ele>1343.5</ele>
        <time>2022-08-05T13:27:06Z</time>
      </trkpt>
      <trkpt lat="44.65518" lon="2.92939">
        <ele>1343.4</ele>
        <time>2022-08-05T13:27:17Z</time>
      </trkpt>
      <trkpt lat="44.65506" lon="2.92942">
        <ele>1343.2</ele>
        <time>2022-08-05T13:27:27Z</time>
      </trkpt>
      <trkpt lat="44.65492" lon="2.92943">
        <ele>1343.4</ele>
        <time>2022-08-05T13:27:38Z</time>
      </trkpt>
      <trkpt lat="44.65487" lon="2.92942">
        <ele>1343.6</ele>
        <time>2022-08-05T13:27:42Z</time>
      </trkpt>
      <trkpt lat="44.65485" lon="2.92943">
        <ele>1343.7</ele>
        <time>2022-08-05T13:27:44Z</time>
      </trkpt>
      <trkpt lat="44.65481" lon="2.92943">
        <ele>1343.8</ele>
        <time>2022-08-05T13:27:47Z</time>
      </trkpt>
      <trkpt lat="44.65468" lon="2.92939">
        <ele>1344</ele>
        <time>2022-08-05T13:27:58Z</time>
      </trkpt>
      <trkpt lat="44.65457" lon="2.92929">
        <ele>1344</ele>
        <time>2022-08-05T13:28:09Z</time>
      </trkpt>
      <trkpt lat="44.65448" lon="2.92914">
        <ele>1344.2</ele>
        <time>2022-08-05T13:28:20Z</time>
      </trkpt>
      <trkpt lat="44.65439" lon="2.92894">
        <ele>1344.4</ele>
        <time>2022-08-05T13:28:34Z</time>
      </trkpt>
      <trkpt lat="44.65437" lon="2.9288">
        <ele>1344.2</ele>
        <time>2022-08-05T13:28:43Z</time>
      </trkpt>
      <trkpt lat="44.65438" lon="2.92861">
        <ele>1343.8</ele>
        <time>2022-08-05T13:28:54Z</time>
      </trkpt>
      <trkpt lat="44.6544" lon="2.92843">
        <ele>1343.1</ele>
        <time>2022-08-05T13:29:04Z</time>
      </trkpt>
      <trkpt lat="44.6544" lon="2.92828">
        <ele>1342.6</ele>
        <time>2022-08-05T13:29:14Z</time>
      </trkpt>
      <trkpt lat="44.65441" lon="2.92824">
        <ele>1342.7</ele>
        <time>2022-08-05T13:29:16Z</time>
      </trkpt>
      <trkpt lat="44.6544" lon="2.92807">
        <ele>1342.6</ele>
        <time>2022-08-05T13:29:27Z</time>
      </trkpt>
      <trkpt lat="44.65439" lon="2.92789">
        <ele>1343</ele>
        <time>2022-08-05T13:29:38Z</time>
      </trkpt>
      <trkpt lat="44.6544" lon="2.92782">
        <ele>1343.4</ele>
        <time>2022-08-05T13:29:43Z</time>
      </trkpt>
      <trkpt lat="44.6544" lon="2.92777">
        <ele>1343.5</ele>
        <time>2022-08-05T13:29:46Z</time>
      </trkpt>
      <trkpt lat="44.65441" lon="2.92758">
        <ele>1343.8</ele>
        <time>2022-08-05T13:29:58Z</time>
      </trkpt>
      <trkpt lat="44.65441" lon="2.92756">
        <ele>1343.8</ele>
        <time>2022-08-05T13:29:59Z</time>
      </trkpt>
      <trkpt lat="44.65443" lon="2.92751">
        <ele>1344</ele>
        <time>2022-08-05T13:30:06Z</time>
      </trkpt>
      <trkpt lat="44.65443" lon="2.92751">
        <ele>1343.9</ele>
        <time>2022-08-05T13:30:17Z</time>
      </trkpt>
      <trkpt lat="44.65445" lon="2.92746">
        <ele>1344.1</ele>
        <time>2022-08-05T13:30:36Z</time>
      </trkpt>
      <trkpt lat="44.65452" lon="2.92734">
        <ele>1344.6</ele>
        <time>2022-08-05T13:30:43Z</time>
      </trkpt>
      <trkpt lat="44.65453" lon="2.92733">
        <ele>1344.6</ele>
        <time>2022-08-05T13:30:44Z</time>
      </trkpt>
      <trkpt lat="44.65454" lon="2.92729">
        <ele>1344.7</ele>
        <time>2022-08-05T13:30:49Z</time>
      </trkpt>
      <trkpt lat="44.65456" lon="2.92724">
        <ele>1344.9</ele>
        <time>2022-08-05T13:30:57Z</time>
      </trkpt>
      <trkpt lat="44.65458" lon="2.92717">
        <ele>1344.7</ele>
        <time>2022-08-05T13:31:04Z</time>
      </trkpt>
      <trkpt lat="44.65459" lon="2.92715">
        <ele>1344.7</ele>
        <time>2022-08-05T13:31:10Z</time>
      </trkpt>
      <trkpt lat="44.65459" lon="2.92714">
        <ele>1344.6</ele>
        <time>2022-08-05T13:31:12Z</time>
      </trkpt>
      <trkpt lat="44.6546" lon="2.92715">
        <ele>1344.7</ele>
        <time>2022-08-05T13:31:32Z</time>
      </trkpt>
      <trkpt lat="44.6546" lon="2.92715">
        <ele>1344.7</ele>
        <time>2022-08-05T13:31:36Z</time>
      </trkpt>
      <trkpt lat="44.65463" lon="2.92709">
        <ele>1344.5</ele>
        <time>2022-08-05T13:31:40Z</time>
      </trkpt>
      <trkpt lat="44.65471" lon="2.92692">
        <ele>1343.8</ele>
        <time>2022-08-05T13:31:52Z</time>
      </trkpt>
      <trkpt lat="44.65476" lon="2.92679">
        <ele>1343.3</ele>
        <time>2022-08-05T13:32:01Z</time>
      </trkpt>
      <trkpt lat="44.65478" lon="2.92674">
        <ele>1343.1</ele>
        <time>2022-08-05T13:32:05Z</time>
      </trkpt>
      <trkpt lat="44.65484" lon="2.92659">
        <ele>1342.4</ele>
        <time>2022-08-05T13:32:15Z</time>
      </trkpt>
      <trkpt lat="44.65493" lon="2.92641">
        <ele>1341.4</ele>
        <time>2022-08-05T13:32:28Z</time>
      </trkpt>
      <trkpt lat="44.65497" lon="2.92633">
        <ele>1340.9</ele>
        <time>2022-08-05T13:32:33Z</time>
      </trkpt>
      <trkpt lat="44.65499" lon="2.92628">
        <ele>1340.4</ele>
        <time>2022-08-05T13:32:37Z</time>
      </trkpt>
      <trkpt lat="44.65502" lon="2.92621">
        <ele>1339.5</ele>
        <time>2022-08-05T13:32:42Z</time>
      </trkpt>
      <trkpt lat="44.65506" lon="2.92614">
        <ele>1338.8</ele>
        <time>2022-08-05T13:32:47Z</time>
      </trkpt>
      <trkpt lat="44.6551" lon="2.92607">
        <ele>1338.4</ele>
        <time>2022-08-05T13:32:53Z</time>
      </trkpt>
      <trkpt lat="44.65514" lon="2.92599">
        <ele>1338.1</ele>
        <time>2022-08-05T13:33:00Z</time>
      </trkpt>
      <trkpt lat="44.65514" lon="2.92599">
        <ele>1338.1</ele>
        <time>2022-08-05T13:33:02Z</time>
      </trkpt>
      <trkpt lat="44.65514" lon="2.92596">
        <ele>1337.9</ele>
        <time>2022-08-05T13:33:06Z</time>
      </trkpt>
      <trkpt lat="44.65515" lon="2.92591">
        <ele>1337.7</ele>
        <time>2022-08-05T13:33:09Z</time>
      </trkpt>
      <trkpt lat="44.65518" lon="2.92585">
        <ele>1337.4</ele>
        <time>2022-08-05T13:33:13Z</time>
      </trkpt>
      <trkpt lat="44.65521" lon="2.92575">
        <ele>1336.7</ele>
        <time>2022-08-05T13:33:20Z</time>
      </trkpt>
      <trkpt lat="44.65524" lon="2.9257">
        <ele>1336.3</ele>
        <time>2022-08-05T13:33:26Z</time>
      </trkpt>
      <trkpt lat="44.65523" lon="2.9257">
        <ele>1336.3</ele>
        <time>2022-08-05T13:33:27Z</time>
      </trkpt>
      <trkpt lat="44.65523" lon="2.9257">
        <ele>1336.4</ele>
        <time>2022-08-05T13:33:28Z</time>
      </trkpt>
      <trkpt lat="44.65525" lon="2.92569">
        <ele>1336.3</ele>
        <time>2022-08-05T13:33:33Z</time>
      </trkpt>
      <trkpt lat="44.65529" lon="2.9256">
        <ele>1335.6</ele>
        <time>2022-08-05T13:33:40Z</time>
      </trkpt>
      <trkpt lat="44.65529" lon="2.92559">
        <ele>1335.5</ele>
        <time>2022-08-05T13:33:41Z</time>
      </trkpt>
      <trkpt lat="44.65534" lon="2.92549">
        <ele>1335</ele>
        <time>2022-08-05T13:33:49Z</time>
      </trkpt>
      <trkpt lat="44.65538" lon="2.92541">
        <ele>1334.7</ele>
        <time>2022-08-05T13:33:55Z</time>
      </trkpt>
      <trkpt lat="44.65542" lon="2.92533">
        <ele>1334.4</ele>
        <time>2022-08-05T13:34:01Z</time>
      </trkpt>
      <trkpt lat="44.65547" lon="2.92521">
        <ele>1333.9</ele>
        <time>2022-08-05T13:34:10Z</time>
      </trkpt>
      <trkpt lat="44.65551" lon="2.92511">
        <ele>1333.5</ele>
        <time>2022-08-05T13:34:17Z</time>
      </trkpt>
      <trkpt lat="44.65551" lon="2.92509">
        <ele>1333.5</ele>
        <time>2022-08-05T13:34:18Z</time>
      </trkpt>
      <trkpt lat="44.6556" lon="2.92489">
        <ele>1332.5</ele>
        <time>2022-08-05T13:34:32Z</time>
      </trkpt>
      <trkpt lat="44.65562" lon="2.92482">
        <ele>1332.1</ele>
        <time>2022-08-05T13:34:37Z</time>
      </trkpt>
      <trkpt lat="44.65565" lon="2.92475">
        <ele>1331.8</ele>
        <time>2022-08-05T13:34:42Z</time>
      </trkpt>
      <trkpt lat="44.65572" lon="2.92457">
        <ele>1331.3</ele>
        <time>2022-08-05T13:34:54Z</time>
      </trkpt>
      <trkpt lat="44.65576" lon="2.92448">
        <ele>1331</ele>
        <time>2022-08-05T13:35:00Z</time>
      </trkpt>
      <trkpt lat="44.65578" lon="2.92443">
        <ele>1330.9</ele>
        <time>2022-08-05T13:35:04Z</time>
      </trkpt>
      <trkpt lat="44.65584" lon="2.92431">
        <ele>1331.5</ele>
        <time>2022-08-05T13:35:13Z</time>
      </trkpt>
      <trkpt lat="44.65591" lon="2.92414">
        <ele>1332.3</ele>
        <time>2022-08-05T13:35:24Z</time>
      </trkpt>
      <trkpt lat="44.65596" lon="2.92402">
        <ele>1331.6</ele>
        <time>2022-08-05T13:35:33Z</time>
      </trkpt>
      <trkpt lat="44.65603" lon="2.92388">
        <ele>1330.6</ele>
        <time>2022-08-05T13:35:43Z</time>
      </trkpt>
      <trkpt lat="44.65609" lon="2.92375">
        <ele>1329.9</ele>
        <time>2022-08-05T13:35:52Z</time>
      </trkpt>
      <trkpt lat="44.65613" lon="2.92365">
        <ele>1329.4</ele>
        <time>2022-08-05T13:36:00Z</time>
      </trkpt>
      <trkpt lat="44.65615" lon="2.92361">
        <ele>1329.3</ele>
        <time>2022-08-05T13:36:03Z</time>
      </trkpt>
      <trkpt lat="44.65624" lon="2.92348">
        <ele>1329</ele>
        <time>2022-08-05T13:36:14Z</time>
      </trkpt>
      <trkpt lat="44.6563" lon="2.92336">
        <ele>1328.5</ele>
        <time>2022-08-05T13:36:23Z</time>
      </trkpt>
      <trkpt lat="44.65634" lon="2.92327">
        <ele>1328.4</ele>
        <time>2022-08-05T13:36:30Z</time>
      </trkpt>
      <trkpt lat="44.65643" lon="2.92313">
        <ele>1328.4</ele>
        <time>2022-08-05T13:36:41Z</time>
      </trkpt>
      <trkpt lat="44.65652" lon="2.92304">
        <ele>1328.3</ele>
        <time>2022-08-05T13:36:50Z</time>
      </trkpt>
      <trkpt lat="44.6566" lon="2.92297">
        <ele>1327.9</ele>
        <time>2022-08-05T13:37:00Z</time>
      </trkpt>
      <trkpt lat="44.65661" lon="2.92296">
        <ele>1327.8</ele>
        <time>2022-08-05T13:37:01Z</time>
      </trkpt>
      <trkpt lat="44.65662" lon="2.92297">
        <ele>1327.9</ele>
        <time>2022-08-05T13:37:04Z</time>
      </trkpt>
      <trkpt lat="44.65663" lon="2.92298">
        <ele>1328.1</ele>
        <time>2022-08-05T13:37:05Z</time>
      </trkpt>
      <trkpt lat="44.65664" lon="2.92299">
        <ele>1328.1</ele>
        <time>2022-08-05T13:37:06Z</time>
      </trkpt>
      <trkpt lat="44.65665" lon="2.92299">
        <ele>1328.3</ele>
        <time>2022-08-05T13:37:08Z</time>
      </trkpt>
      <trkpt lat="44.6567" lon="2.92301">
        <ele>1328.6</ele>
        <time>2022-08-05T13:37:13Z</time>
      </trkpt>
      <trkpt lat="44.65671" lon="2.92301">
        <ele>1328.7</ele>
        <time>2022-08-05T13:37:15Z</time>
      </trkpt>
      <trkpt lat="44.65671" lon="2.923">
        <ele>1328.5</ele>
        <time>2022-08-05T13:37:19Z</time>
      </trkpt>
      <trkpt lat="44.65671" lon="2.923">
        <ele>1328.5</ele>
        <time>2022-08-05T13:37:20Z</time>
      </trkpt>
      <trkpt lat="44.65678" lon="2.92296">
        <ele>1328.3</ele>
        <time>2022-08-05T13:37:26Z</time>
      </trkpt>
      <trkpt lat="44.65686" lon="2.92292">
        <ele>1328.2</ele>
        <time>2022-08-05T13:37:34Z</time>
      </trkpt>
      <trkpt lat="44.65692" lon="2.92288">
        <ele>1328</ele>
        <time>2022-08-05T13:37:40Z</time>
      </trkpt>
      <trkpt lat="44.65693" lon="2.92287">
        <ele>1327.9</ele>
        <time>2022-08-05T13:37:41Z</time>
      </trkpt>
      <trkpt lat="44.65695" lon="2.92284">
        <ele>1327.7</ele>
        <time>2022-08-05T13:37:44Z</time>
      </trkpt>
      <trkpt lat="44.65696" lon="2.92285">
        <ele>1327.8</ele>
        <time>2022-08-05T13:37:47Z</time>
      </trkpt>
      <trkpt lat="44.65695" lon="2.92285">
        <ele>1327.8</ele>
        <time>2022-08-05T13:37:56Z</time>
      </trkpt>
      <trkpt lat="44.65696" lon="2.92283">
        <ele>1327.6</ele>
        <time>2022-08-05T13:38:02Z</time>
      </trkpt>
      <trkpt lat="44.65698" lon="2.9228">
        <ele>1327.4</ele>
        <time>2022-08-05T13:38:04Z</time>
      </trkpt>
      <trkpt lat="44.65707" lon="2.92272">
        <ele>1326.8</ele>
        <time>2022-08-05T13:38:11Z</time>
      </trkpt>
      <trkpt lat="44.65715" lon="2.92266">
        <ele>1326.7</ele>
        <time>2022-08-05T13:38:19Z</time>
      </trkpt>
      <trkpt lat="44.6572" lon="2.92264">
        <ele>1326.8</ele>
        <time>2022-08-05T13:38:24Z</time>
      </trkpt>
      <trkpt lat="44.65723" lon="2.92262">
        <ele>1327</ele>
        <time>2022-08-05T13:38:27Z</time>
      </trkpt>
      <trkpt lat="44.65731" lon="2.92256">
        <ele>1327.4</ele>
        <time>2022-08-05T13:38:33Z</time>
      </trkpt>
      <trkpt lat="44.65732" lon="2.92255">
        <ele>1327.4</ele>
        <time>2022-08-05T13:38:34Z</time>
      </trkpt>
      <trkpt lat="44.65734" lon="2.92249">
        <ele>1327.2</ele>
        <time>2022-08-05T13:38:38Z</time>
      </trkpt>
      <trkpt lat="44.65744" lon="2.92239">
        <ele>1327.1</ele>
        <time>2022-08-05T13:38:47Z</time>
      </trkpt>
      <trkpt lat="44.65753" lon="2.92232">
        <ele>1327.5</ele>
        <time>2022-08-05T13:38:54Z</time>
      </trkpt>
      <trkpt lat="44.65754" lon="2.92231">
        <ele>1327.5</ele>
        <time>2022-08-05T13:38:55Z</time>
      </trkpt>
      <trkpt lat="44.65761" lon="2.9222">
        <ele>1327.2</ele>
        <time>2022-08-05T13:39:04Z</time>
      </trkpt>
      <trkpt lat="44.65764" lon="2.92212">
        <ele>1326.3</ele>
        <time>2022-08-05T13:39:10Z</time>
      </trkpt>
      <trkpt lat="44.65764" lon="2.9221">
        <ele>1326.1</ele>
        <time>2022-08-05T13:39:11Z</time>
      </trkpt>
      <trkpt lat="44.6577" lon="2.92201">
        <ele>1325.6</ele>
        <time>2022-08-05T13:39:19Z</time>
      </trkpt>
      <trkpt lat="44.65774" lon="2.92194">
        <ele>1325.1</ele>
        <time>2022-08-05T13:39:25Z</time>
      </trkpt>
      <trkpt lat="44.65775" lon="2.9219">
        <ele>1324.8</ele>
        <time>2022-08-05T13:39:27Z</time>
      </trkpt>
      <trkpt lat="44.65775" lon="2.92188">
        <ele>1324.6</ele>
        <time>2022-08-05T13:39:28Z</time>
      </trkpt>
      <trkpt lat="44.6578" lon="2.9218">
        <ele>1324.2</ele>
        <time>2022-08-05T13:39:34Z</time>
      </trkpt>
      <trkpt lat="44.65784" lon="2.92173">
        <ele>1323.8</ele>
        <time>2022-08-05T13:39:39Z</time>
      </trkpt>
      <trkpt lat="44.65785" lon="2.9217">
        <ele>1323.6</ele>
        <time>2022-08-05T13:39:41Z</time>
      </trkpt>
      <trkpt lat="44.65792" lon="2.92159">
        <ele>1323.2</ele>
        <time>2022-08-05T13:39:49Z</time>
      </trkpt>
      <trkpt lat="44.65795" lon="2.92157">
        <ele>1323.3</ele>
        <time>2022-08-05T13:39:51Z</time>
      </trkpt>
      <trkpt lat="44.65799" lon="2.9215">
        <ele>1323</ele>
        <time>2022-08-05T13:39:56Z</time>
      </trkpt>
      <trkpt lat="44.65806" lon="2.9214">
        <ele>1323.2</ele>
        <time>2022-08-05T13:40:05Z</time>
      </trkpt>
      <trkpt lat="44.65814" lon="2.92131">
        <ele>1323.1</ele>
        <time>2022-08-05T13:40:14Z</time>
      </trkpt>
      <trkpt lat="44.65819" lon="2.92121">
        <ele>1322.3</ele>
        <time>2022-08-05T13:40:20Z</time>
      </trkpt>
      <trkpt lat="44.6582" lon="2.92118">
        <ele>1322.1</ele>
        <time>2022-08-05T13:40:22Z</time>
      </trkpt>
      <trkpt lat="44.65824" lon="2.92106">
        <ele>1321.1</ele>
        <time>2022-08-05T13:40:30Z</time>
      </trkpt>
      <trkpt lat="44.6583" lon="2.92093">
        <ele>1320.6</ele>
        <time>2022-08-05T13:40:38Z</time>
      </trkpt>
      <trkpt lat="44.65831" lon="2.92092">
        <ele>1320.5</ele>
        <time>2022-08-05T13:40:39Z</time>
      </trkpt>
      <trkpt lat="44.65837" lon="2.92079">
        <ele>1319.9</ele>
        <time>2022-08-05T13:40:48Z</time>
      </trkpt>
      <trkpt lat="44.65837" lon="2.92075">
        <ele>1319.6</ele>
        <time>2022-08-05T13:40:50Z</time>
      </trkpt>
      <trkpt lat="44.65838" lon="2.92072">
        <ele>1319.2</ele>
        <time>2022-08-05T13:40:52Z</time>
      </trkpt>
      <trkpt lat="44.6584" lon="2.92066">
        <ele>1318.8</ele>
        <time>2022-08-05T13:40:56Z</time>
      </trkpt>
      <trkpt lat="44.6584" lon="2.92065">
        <ele>1318.8</ele>
        <time>2022-08-05T13:40:57Z</time>
      </trkpt>
      <trkpt lat="44.65846" lon="2.92053">
        <ele>1318.1</ele>
        <time>2022-08-05T13:41:05Z</time>
      </trkpt>
      <trkpt lat="44.65853" lon="2.9204">
        <ele>1317.7</ele>
        <time>2022-08-05T13:41:14Z</time>
      </trkpt>
      <trkpt lat="44.65858" lon="2.92031">
        <ele>1317.9</ele>
        <time>2022-08-05T13:41:21Z</time>
      </trkpt>
      <trkpt lat="44.6586" lon="2.9203">
        <ele>1318</ele>
        <time>2022-08-05T13:41:23Z</time>
      </trkpt>
      <trkpt lat="44.65865" lon="2.92026">
        <ele>1318</ele>
        <time>2022-08-05T13:41:27Z</time>
      </trkpt>
      <trkpt lat="44.65872" lon="2.92013">
        <ele>1317.4</ele>
        <time>2022-08-05T13:41:34Z</time>
      </trkpt>
      <trkpt lat="44.65881" lon="2.92001">
        <ele>1317.2</ele>
        <time>2022-08-05T13:41:43Z</time>
      </trkpt>
      <trkpt lat="44.65885" lon="2.91995">
        <ele>1317.1</ele>
        <time>2022-08-05T13:41:47Z</time>
      </trkpt>
      <trkpt lat="44.65886" lon="2.91994">
        <ele>1317</ele>
        <time>2022-08-05T13:41:48Z</time>
      </trkpt>
      <trkpt lat="44.65888" lon="2.9199">
        <ele>1316.9</ele>
        <time>2022-08-05T13:41:51Z</time>
      </trkpt>
      <trkpt lat="44.65889" lon="2.91989">
        <ele>1316.8</ele>
        <time>2022-08-05T13:41:52Z</time>
      </trkpt>
      <trkpt lat="44.65896" lon="2.91982">
        <ele>1316.3</ele>
        <time>2022-08-05T13:41:58Z</time>
      </trkpt>
      <trkpt lat="44.65898" lon="2.91981">
        <ele>1316.2</ele>
        <time>2022-08-05T13:42:00Z</time>
      </trkpt>
      <trkpt lat="44.65902" lon="2.91977">
        <ele>1316</ele>
        <time>2022-08-05T13:42:04Z</time>
      </trkpt>
      <trkpt lat="44.65904" lon="2.91975">
        <ele>1315.9</ele>
        <time>2022-08-05T13:42:07Z</time>
      </trkpt>
      <trkpt lat="44.65912" lon="2.91968">
        <ele>1315.5</ele>
        <time>2022-08-05T13:42:15Z</time>
      </trkpt>
      <trkpt lat="44.65914" lon="2.91967">
        <ele>1315.5</ele>
        <time>2022-08-05T13:42:16Z</time>
      </trkpt>
      <trkpt lat="44.65924" lon="2.91958">
        <ele>1315.3</ele>
        <time>2022-08-05T13:42:25Z</time>
      </trkpt>
      <trkpt lat="44.65927" lon="2.91955">
        <ele>1315.1</ele>
        <time>2022-08-05T13:42:29Z</time>
      </trkpt>
      <trkpt lat="44.65929" lon="2.91953">
        <ele>1315</ele>
        <time>2022-08-05T13:42:31Z</time>
      </trkpt>
      <trkpt lat="44.6593" lon="2.91952">
        <ele>1315</ele>
        <time>2022-08-05T13:42:32Z</time>
      </trkpt>
      <trkpt lat="44.65931" lon="2.91951">
        <ele>1315</ele>
        <time>2022-08-05T13:42:33Z</time>
      </trkpt>
      <trkpt lat="44.65935" lon="2.9195">
        <ele>1315</ele>
        <time>2022-08-05T13:42:37Z</time>
      </trkpt>
      <trkpt lat="44.65937" lon="2.91947">
        <ele>1314.9</ele>
        <time>2022-08-05T13:42:39Z</time>
      </trkpt>
      <trkpt lat="44.65938" lon="2.91945">
        <ele>1314.8</ele>
        <time>2022-08-05T13:42:41Z</time>
      </trkpt>
      <trkpt lat="44.6594" lon="2.9194">
        <ele>1314.5</ele>
        <time>2022-08-05T13:42:44Z</time>
      </trkpt>
      <trkpt lat="44.65943" lon="2.91938">
        <ele>1314.5</ele>
        <time>2022-08-05T13:42:46Z</time>
      </trkpt>
      <trkpt lat="44.65947" lon="2.91931">
        <ele>1314.1</ele>
        <time>2022-08-05T13:42:51Z</time>
      </trkpt>
      <trkpt lat="44.6595" lon="2.91928">
        <ele>1313.9</ele>
        <time>2022-08-05T13:42:55Z</time>
      </trkpt>
      <trkpt lat="44.65953" lon="2.91925">
        <ele>1313.8</ele>
        <time>2022-08-05T13:42:58Z</time>
      </trkpt>
      <trkpt lat="44.65962" lon="2.91917">
        <ele>1313.7</ele>
        <time>2022-08-05T13:43:06Z</time>
      </trkpt>
      <trkpt lat="44.65963" lon="2.91916">
        <ele>1313.6</ele>
        <time>2022-08-05T13:43:07Z</time>
      </trkpt>
      <trkpt lat="44.65973" lon="2.919">
        <ele>1312.8</ele>
        <time>2022-08-05T13:43:18Z</time>
      </trkpt>
      <trkpt lat="44.65978" lon="2.9189">
        <ele>1312.1</ele>
        <time>2022-08-05T13:43:25Z</time>
      </trkpt>
      <trkpt lat="44.65977" lon="2.91887">
        <ele>1311.9</ele>
        <time>2022-08-05T13:43:27Z</time>
      </trkpt>
      <trkpt lat="44.65977" lon="2.91883">
        <ele>1311.8</ele>
        <time>2022-08-05T13:43:32Z</time>
      </trkpt>
      <trkpt lat="44.65977" lon="2.91884">
        <ele>1311.8</ele>
        <time>2022-08-05T13:43:35Z</time>
      </trkpt>
      <trkpt lat="44.65977" lon="2.91884">
        <ele>1311.8</ele>
        <time>2022-08-05T13:43:38Z</time>
      </trkpt>
      <trkpt lat="44.65977" lon="2.91884">
        <ele>1311.8</ele>
        <time>2022-08-05T13:43:39Z</time>
      </trkpt>
      <trkpt lat="44.65977" lon="2.91884">
        <ele>1311.8</ele>
        <time>2022-08-05T13:43:50Z</time>
      </trkpt>
      <trkpt lat="44.65976" lon="2.91878">
        <ele>1311.5</ele>
        <time>2022-08-05T13:44:01Z</time>
      </trkpt>
      <trkpt lat="44.65975" lon="2.91874">
        <ele>1311.4</ele>
        <time>2022-08-05T13:44:03Z</time>
      </trkpt>
      <trkpt lat="44.65975" lon="2.91871">
        <ele>1311.3</ele>
        <time>2022-08-05T13:44:05Z</time>
      </trkpt>
      <trkpt lat="44.65975" lon="2.91868">
        <ele>1311.2</ele>
        <time>2022-08-05T13:44:06Z</time>
      </trkpt>
      <trkpt lat="44.65975" lon="2.91866">
        <ele>1311.1</ele>
        <time>2022-08-05T13:44:07Z</time>
      </trkpt>
      <trkpt lat="44.65975" lon="2.91862">
        <ele>1310.9</ele>
        <time>2022-08-05T13:44:09Z</time>
      </trkpt>
      <trkpt lat="44.65975" lon="2.91861">
        <ele>1310.9</ele>
        <time>2022-08-05T13:44:12Z</time>
      </trkpt>
      <trkpt lat="44.65975" lon="2.91861">
        <ele>1310.9</ele>
        <time>2022-08-05T13:44:13Z</time>
      </trkpt>
      <trkpt lat="44.65971" lon="2.91853">
        <ele>1310.7</ele>
        <time>2022-08-05T13:44:19Z</time>
      </trkpt>
      <trkpt lat="44.6597" lon="2.91848">
        <ele>1310.4</ele>
        <time>2022-08-05T13:44:22Z</time>
      </trkpt>
      <trkpt lat="44.65969" lon="2.91843">
        <ele>1310.2</ele>
        <time>2022-08-05T13:44:25Z</time>
      </trkpt>
      <trkpt lat="44.65969" lon="2.91842">
        <ele>1310.1</ele>
        <time>2022-08-05T13:44:26Z</time>
      </trkpt>
      <trkpt lat="44.65964" lon="2.91833">
        <ele>1309.4</ele>
        <time>2022-08-05T13:44:32Z</time>
      </trkpt>
      <trkpt lat="44.65963" lon="2.91825">
        <ele>1309.2</ele>
        <time>2022-08-05T13:44:36Z</time>
      </trkpt>
      <trkpt lat="44.65962" lon="2.91819">
        <ele>1309</ele>
        <time>2022-08-05T13:44:40Z</time>
      </trkpt>
      <trkpt lat="44.65961" lon="2.91815">
        <ele>1308.8</ele>
        <time>2022-08-05T13:44:45Z</time>
      </trkpt>
      <trkpt lat="44.6596" lon="2.91814">
        <ele>1308.7</ele>
        <time>2022-08-05T13:44:46Z</time>
      </trkpt>
      <trkpt lat="44.6596" lon="2.91813">
        <ele>1308.7</ele>
        <time>2022-08-05T13:44:48Z</time>
      </trkpt>
      <trkpt lat="44.65959" lon="2.9181">
        <ele>1308.6</ele>
        <time>2022-08-05T13:44:50Z</time>
      </trkpt>
      <trkpt lat="44.65954" lon="2.91793">
        <ele>1307.9</ele>
        <time>2022-08-05T13:45:00Z</time>
      </trkpt>
      <trkpt lat="44.65953" lon="2.91789">
        <ele>1307.7</ele>
        <time>2022-08-05T13:45:02Z</time>
      </trkpt>
      <trkpt lat="44.65953" lon="2.91787">
        <ele>1307.7</ele>
        <time>2022-08-05T13:45:06Z</time>
      </trkpt>
      <trkpt lat="44.65953" lon="2.91787">
        <ele>1307.7</ele>
        <time>2022-08-05T13:45:07Z</time>
      </trkpt>
      <trkpt lat="44.65952" lon="2.91784">
        <ele>1307.5</ele>
        <time>2022-08-05T13:45:14Z</time>
      </trkpt>
      <trkpt lat="44.65951" lon="2.91767">
        <ele>1307.2</ele>
        <time>2022-08-05T13:45:21Z</time>
      </trkpt>
      <trkpt lat="44.65954" lon="2.91754">
        <ele>1307</ele>
        <time>2022-08-05T13:45:29Z</time>
      </trkpt>
      <trkpt lat="44.65955" lon="2.91753">
        <ele>1307</ele>
        <time>2022-08-05T13:45:32Z</time>
      </trkpt>
      <trkpt lat="44.65958" lon="2.91753">
        <ele>1307.1</ele>
        <time>2022-08-05T13:45:34Z</time>
      </trkpt>
      <trkpt lat="44.65968" lon="2.91759">
        <ele>1307.3</ele>
        <time>2022-08-05T13:45:43Z</time>
      </trkpt>
      <trkpt lat="44.65975" lon="2.91763">
        <ele>1307.4</ele>
        <time>2022-08-05T13:45:48Z</time>
      </trkpt>
      <trkpt lat="44.65979" lon="2.91763">
        <ele>1307.2</ele>
        <time>2022-08-05T13:45:52Z</time>
      </trkpt>
      <trkpt lat="44.65987" lon="2.91765">
        <ele>1307</ele>
        <time>2022-08-05T13:45:59Z</time>
      </trkpt>
      <trkpt lat="44.65996" lon="2.91768">
        <ele>1306.8</ele>
        <time>2022-08-05T13:46:06Z</time>
      </trkpt>
      <trkpt lat="44.66001" lon="2.91768">
        <ele>1306.6</ele>
        <time>2022-08-05T13:46:10Z</time>
      </trkpt>
      <trkpt lat="44.66001" lon="2.91769">
        <ele>1306.6</ele>
        <time>2022-08-05T13:46:12Z</time>
      </trkpt>
      <trkpt lat="44.66005" lon="2.9177">
        <ele>1306.4</ele>
        <time>2022-08-05T13:46:17Z</time>
      </trkpt>
      <trkpt lat="44.66013" lon="2.91773">
        <ele>1305.8</ele>
        <time>2022-08-05T13:46:24Z</time>
      </trkpt>
      <trkpt lat="44.66023" lon="2.91777">
        <ele>1305.3</ele>
        <time>2022-08-05T13:46:32Z</time>
      </trkpt>
      <trkpt lat="44.66026" lon="2.91778">
        <ele>1305.1</ele>
        <time>2022-08-05T13:46:35Z</time>
      </trkpt>
      <trkpt lat="44.66028" lon="2.91782">
        <ele>1305.1</ele>
        <time>2022-08-05T13:46:38Z</time>
      </trkpt>
      <trkpt lat="44.66036" lon="2.9179">
        <ele>1304.6</ele>
        <time>2022-08-05T13:46:44Z</time>
      </trkpt>
      <trkpt lat="44.66037" lon="2.91791">
        <ele>1304.5</ele>
        <time>2022-08-05T13:46:45Z</time>
      </trkpt>
      <trkpt lat="44.66038" lon="2.91795">
        <ele>1304.5</ele>
        <time>2022-08-05T13:46:47Z</time>
      </trkpt>
      <trkpt lat="44.66038" lon="2.91796">
        <ele>1304.5</ele>
        <time>2022-08-05T13:46:48Z</time>
      </trkpt>
      <trkpt lat="44.66042" lon="2.91801">
        <ele>1304.3</ele>
        <time>2022-08-05T13:46:52Z</time>
      </trkpt>
      <trkpt lat="44.66043" lon="2.91802">
        <ele>1304.3</ele>
        <time>2022-08-05T13:46:53Z</time>
      </trkpt>
      <trkpt lat="44.66048" lon="2.91808">
        <ele>1303.9</ele>
        <time>2022-08-05T13:46:59Z</time>
      </trkpt>
      <trkpt lat="44.66048" lon="2.91809">
        <ele>1303.9</ele>
        <time>2022-08-05T13:47:02Z</time>
      </trkpt>
      <trkpt lat="44.66051" lon="2.9181">
        <ele>1303.7</ele>
        <time>2022-08-05T13:47:05Z</time>
      </trkpt>
      <trkpt lat="44.66055" lon="2.91813">
        <ele>1303.4</ele>
        <time>2022-08-05T13:47:09Z</time>
      </trkpt>
      <trkpt lat="44.6606" lon="2.91825">
        <ele>1303.2</ele>
        <time>2022-08-05T13:47:16Z</time>
      </trkpt>
      <trkpt lat="44.66062" lon="2.9183">
        <ele>1303.2</ele>
        <time>2022-08-05T13:47:19Z</time>
      </trkpt>
      <trkpt lat="44.66063" lon="2.91838">
        <ele>1303.3</ele>
        <time>2022-08-05T13:47:23Z</time>
      </trkpt>
      <trkpt lat="44.66064" lon="2.91847">
        <ele>1303.6</ele>
        <time>2022-08-05T13:47:29Z</time>
      </trkpt>
      <trkpt lat="44.66065" lon="2.91848">
        <ele>1303.5</ele>
        <time>2022-08-05T13:47:30Z</time>
      </trkpt>
      <trkpt lat="44.66066" lon="2.91852">
        <ele>1303.5</ele>
        <time>2022-08-05T13:47:32Z</time>
      </trkpt>
      <trkpt lat="44.66066" lon="2.91856">
        <ele>1303.7</ele>
        <time>2022-08-05T13:47:35Z</time>
      </trkpt>
      <trkpt lat="44.6607" lon="2.91856">
        <ele>1303.2</ele>
        <time>2022-08-05T13:47:39Z</time>
      </trkpt>
      <trkpt lat="44.66075" lon="2.91854">
        <ele>1302.7</ele>
        <time>2022-08-05T13:47:42Z</time>
      </trkpt>
      <trkpt lat="44.66085" lon="2.91856">
        <ele>1301.7</ele>
        <time>2022-08-05T13:47:52Z</time>
      </trkpt>
      <trkpt lat="44.66088" lon="2.91853">
        <ele>1301.5</ele>
        <time>2022-08-05T13:47:56Z</time>
      </trkpt>
      <trkpt lat="44.66092" lon="2.91852">
        <ele>1301.3</ele>
        <time>2022-08-05T13:47:59Z</time>
      </trkpt>
      <trkpt lat="44.66101" lon="2.91848">
        <ele>1300.6</ele>
        <time>2022-08-05T13:48:07Z</time>
      </trkpt>
      <trkpt lat="44.66102" lon="2.91848">
        <ele>1300.5</ele>
        <time>2022-08-05T13:48:09Z</time>
      </trkpt>
      <trkpt lat="44.66107" lon="2.91845">
        <ele>1300.1</ele>
        <time>2022-08-05T13:48:13Z</time>
      </trkpt>
      <trkpt lat="44.66114" lon="2.9184">
        <ele>1299.5</ele>
        <time>2022-08-05T13:48:19Z</time>
      </trkpt>
      <trkpt lat="44.66116" lon="2.91838">
        <ele>1299.4</ele>
        <time>2022-08-05T13:48:20Z</time>
      </trkpt>
      <trkpt lat="44.66128" lon="2.91825">
        <ele>1298.5</ele>
        <time>2022-08-05T13:48:30Z</time>
      </trkpt>
      <trkpt lat="44.66139" lon="2.9182">
        <ele>1298</ele>
        <time>2022-08-05T13:48:40Z</time>
      </trkpt>
      <trkpt lat="44.66148" lon="2.91821">
        <ele>1298.4</ele>
        <time>2022-08-05T13:48:48Z</time>
      </trkpt>
      <trkpt lat="44.66158" lon="2.91822">
        <ele>1298.9</ele>
        <time>2022-08-05T13:48:57Z</time>
      </trkpt>
      <trkpt lat="44.6616" lon="2.91822">
        <ele>1298.9</ele>
        <time>2022-08-05T13:49:00Z</time>
      </trkpt>
      <trkpt lat="44.66163" lon="2.91821">
        <ele>1299</ele>
        <time>2022-08-05T13:49:02Z</time>
      </trkpt>
      <trkpt lat="44.66173" lon="2.91823">
        <ele>1299.9</ele>
        <time>2022-08-05T13:49:10Z</time>
      </trkpt>
      <trkpt lat="44.66176" lon="2.91824">
        <ele>1300.2</ele>
        <time>2022-08-05T13:49:13Z</time>
      </trkpt>
      <trkpt lat="44.66178" lon="2.91824">
        <ele>1300.4</ele>
        <time>2022-08-05T13:49:15Z</time>
      </trkpt>
      <trkpt lat="44.66182" lon="2.91825">
        <ele>1300.8</ele>
        <time>2022-08-05T13:49:18Z</time>
      </trkpt>
      <trkpt lat="44.66184" lon="2.91823">
        <ele>1301</ele>
        <time>2022-08-05T13:49:20Z</time>
      </trkpt>
      <trkpt lat="44.66189" lon="2.9182">
        <ele>1301.4</ele>
        <time>2022-08-05T13:49:25Z</time>
      </trkpt>
      <trkpt lat="44.6619" lon="2.91819">
        <ele>1301.5</ele>
        <time>2022-08-05T13:49:26Z</time>
      </trkpt>
      <trkpt lat="44.66196" lon="2.91814">
        <ele>1302.2</ele>
        <time>2022-08-05T13:49:31Z</time>
      </trkpt>
      <trkpt lat="44.66199" lon="2.91812">
        <ele>1302.8</ele>
        <time>2022-08-05T13:49:35Z</time>
      </trkpt>
      <trkpt lat="44.66202" lon="2.91809">
        <ele>1303.1</ele>
        <time>2022-08-05T13:49:38Z</time>
      </trkpt>
      <trkpt lat="44.66203" lon="2.91809">
        <ele>1303.3</ele>
        <time>2022-08-05T13:49:39Z</time>
      </trkpt>
      <trkpt lat="44.66205" lon="2.91807">
        <ele>1303.6</ele>
        <time>2022-08-05T13:49:42Z</time>
      </trkpt>
      <trkpt lat="44.66207" lon="2.91805">
        <ele>1303.8</ele>
        <time>2022-08-05T13:49:44Z</time>
      </trkpt>
      <trkpt lat="44.6621" lon="2.91801">
        <ele>1304.1</ele>
        <time>2022-08-05T13:49:48Z</time>
      </trkpt>
      <trkpt lat="44.66212" lon="2.91799">
        <ele>1304.3</ele>
        <time>2022-08-05T13:49:51Z</time>
      </trkpt>
      <trkpt lat="44.66216" lon="2.91793">
        <ele>1304.7</ele>
        <time>2022-08-05T13:49:56Z</time>
      </trkpt>
      <trkpt lat="44.66217" lon="2.91792">
        <ele>1304.8</ele>
        <time>2022-08-05T13:49:57Z</time>
      </trkpt>
      <trkpt lat="44.66222" lon="2.91784">
        <ele>1305.2</ele>
        <time>2022-08-05T13:50:03Z</time>
      </trkpt>
      <trkpt lat="44.66223" lon="2.91783">
        <ele>1305.3</ele>
        <time>2022-08-05T13:50:04Z</time>
      </trkpt>
      <trkpt lat="44.6623" lon="2.91771">
        <ele>1305.3</ele>
        <time>2022-08-05T13:50:14Z</time>
      </trkpt>
      <trkpt lat="44.66235" lon="2.91767">
        <ele>1305.4</ele>
        <time>2022-08-05T13:50:19Z</time>
      </trkpt>
      <trkpt lat="44.66237" lon="2.91763">
        <ele>1305.3</ele>
        <time>2022-08-05T13:50:22Z</time>
      </trkpt>
      <trkpt lat="44.66239" lon="2.91761">
        <ele>1305.3</ele>
        <time>2022-08-05T13:50:25Z</time>
      </trkpt>
      <trkpt lat="44.6624" lon="2.91761">
        <ele>1305.4</ele>
        <time>2022-08-05T13:50:28Z</time>
      </trkpt>
      <trkpt lat="44.66242" lon="2.91758">
        <ele>1305.2</ele>
        <time>2022-08-05T13:50:31Z</time>
      </trkpt>
      <trkpt lat="44.66243" lon="2.91754">
        <ele>1305</ele>
        <time>2022-08-05T13:50:33Z</time>
      </trkpt>
      <trkpt lat="44.66244" lon="2.91753">
        <ele>1304.9</ele>
        <time>2022-08-05T13:50:34Z</time>
      </trkpt>
      <trkpt lat="44.66251" lon="2.91742">
        <ele>1304.5</ele>
        <time>2022-08-05T13:50:42Z</time>
      </trkpt>
      <trkpt lat="44.6626" lon="2.9173">
        <ele>1304.7</ele>
        <time>2022-08-05T13:50:52Z</time>
      </trkpt>
      <trkpt lat="44.66267" lon="2.91724">
        <ele>1305</ele>
        <time>2022-08-05T13:51:00Z</time>
      </trkpt>
      <trkpt lat="44.66268" lon="2.91723">
        <ele>1305</ele>
        <time>2022-08-05T13:51:01Z</time>
      </trkpt>
      <trkpt lat="44.66274" lon="2.91723">
        <ele>1305.7</ele>
        <time>2022-08-05T13:51:06Z</time>
      </trkpt>
      <trkpt lat="44.66276" lon="2.91723">
        <ele>1306</ele>
        <time>2022-08-05T13:51:08Z</time>
      </trkpt>
      <trkpt lat="44.66283" lon="2.91723">
        <ele>1306.6</ele>
        <time>2022-08-05T13:51:15Z</time>
      </trkpt>
      <trkpt lat="44.66283" lon="2.91724">
        <ele>1306.7</ele>
        <time>2022-08-05T13:51:17Z</time>
      </trkpt>
      <trkpt lat="44.66284" lon="2.91724">
        <ele>1306.8</ele>
        <time>2022-08-05T13:51:18Z</time>
      </trkpt>
      <trkpt lat="44.66285" lon="2.91723">
        <ele>1306.9</ele>
        <time>2022-08-05T13:51:19Z</time>
      </trkpt>
      <trkpt lat="44.66287" lon="2.91722">
        <ele>1307</ele>
        <time>2022-08-05T13:51:21Z</time>
      </trkpt>
      <trkpt lat="44.66293" lon="2.91723">
        <ele>1307.7</ele>
        <time>2022-08-05T13:51:26Z</time>
      </trkpt>
      <trkpt lat="44.66297" lon="2.91722">
        <ele>1308</ele>
        <time>2022-08-05T13:51:29Z</time>
      </trkpt>
      <trkpt lat="44.66302" lon="2.91721">
        <ele>1308.6</ele>
        <time>2022-08-05T13:51:35Z</time>
      </trkpt>
      <trkpt lat="44.66307" lon="2.91719">
        <ele>1309.1</ele>
        <time>2022-08-05T13:51:41Z</time>
      </trkpt>
      <trkpt lat="44.66308" lon="2.91718">
        <ele>1309.1</ele>
        <time>2022-08-05T13:51:42Z</time>
      </trkpt>
      <trkpt lat="44.66314" lon="2.91715">
        <ele>1309.8</ele>
        <time>2022-08-05T13:51:50Z</time>
      </trkpt>
      <trkpt lat="44.66317" lon="2.91713">
        <ele>1310.2</ele>
        <time>2022-08-05T13:51:53Z</time>
      </trkpt>
      <trkpt lat="44.6632" lon="2.91711">
        <ele>1310.5</ele>
        <time>2022-08-05T13:51:57Z</time>
      </trkpt>
      <trkpt lat="44.66321" lon="2.9171">
        <ele>1310.6</ele>
        <time>2022-08-05T13:51:58Z</time>
      </trkpt>
      <trkpt lat="44.66323" lon="2.91709">
        <ele>1310.7</ele>
        <time>2022-08-05T13:52:00Z</time>
      </trkpt>
      <trkpt lat="44.66327" lon="2.91706">
        <ele>1311</ele>
        <time>2022-08-05T13:52:04Z</time>
      </trkpt>
      <trkpt lat="44.66328" lon="2.91704">
        <ele>1311.1</ele>
        <time>2022-08-05T13:52:06Z</time>
      </trkpt>
      <trkpt lat="44.66331" lon="2.91702">
        <ele>1311.2</ele>
        <time>2022-08-05T13:52:09Z</time>
      </trkpt>
      <trkpt lat="44.66343" lon="2.91699">
        <ele>1312.3</ele>
        <time>2022-08-05T13:52:19Z</time>
      </trkpt>
      <trkpt lat="44.66346" lon="2.91698">
        <ele>1312.6</ele>
        <time>2022-08-05T13:52:22Z</time>
      </trkpt>
      <trkpt lat="44.66349" lon="2.91697">
        <ele>1312.8</ele>
        <time>2022-08-05T13:52:24Z</time>
      </trkpt>
      <trkpt lat="44.66354" lon="2.91696">
        <ele>1313.3</ele>
        <time>2022-08-05T13:52:28Z</time>
      </trkpt>
      <trkpt lat="44.66356" lon="2.91691">
        <ele>1313.2</ele>
        <time>2022-08-05T13:52:32Z</time>
      </trkpt>
      <trkpt lat="44.66358" lon="2.91689">
        <ele>1313.3</ele>
        <time>2022-08-05T13:52:34Z</time>
      </trkpt>
      <trkpt lat="44.66359" lon="2.91688">
        <ele>1313.4</ele>
        <time>2022-08-05T13:52:35Z</time>
      </trkpt>
      <trkpt lat="44.66363" lon="2.91687">
        <ele>1313.7</ele>
        <time>2022-08-05T13:52:38Z</time>
      </trkpt>
      <trkpt lat="44.66367" lon="2.91684">
        <ele>1313.8</ele>
        <time>2022-08-05T13:52:41Z</time>
      </trkpt>
      <trkpt lat="44.66373" lon="2.91679">
        <ele>1314.2</ele>
        <time>2022-08-05T13:52:47Z</time>
      </trkpt>
      <trkpt lat="44.66374" lon="2.91677">
        <ele>1314.2</ele>
        <time>2022-08-05T13:52:48Z</time>
      </trkpt>
      <trkpt lat="44.66382" lon="2.91669">
        <ele>1314.4</ele>
        <time>2022-08-05T13:52:56Z</time>
      </trkpt>
      <trkpt lat="44.66383" lon="2.91669">
        <ele>1314.5</ele>
        <time>2022-08-05T13:52:57Z</time>
      </trkpt>
      <trkpt lat="44.66391" lon="2.91661">
        <ele>1315</ele>
        <time>2022-08-05T13:53:05Z</time>
      </trkpt>
      <trkpt lat="44.66397" lon="2.91651">
        <ele>1315</ele>
        <time>2022-08-05T13:53:13Z</time>
      </trkpt>
      <trkpt lat="44.66398" lon="2.91648">
        <ele>1314.9</ele>
        <time>2022-08-05T13:53:15Z</time>
      </trkpt>
      <trkpt lat="44.66401" lon="2.91643">
        <ele>1314.7</ele>
        <time>2022-08-05T13:53:19Z</time>
      </trkpt>
      <trkpt lat="44.66401" lon="2.91642">
        <ele>1314.6</ele>
        <time>2022-08-05T13:53:20Z</time>
      </trkpt>
      <trkpt lat="44.66404" lon="2.91632">
        <ele>1314</ele>
        <time>2022-08-05T13:53:28Z</time>
      </trkpt>
      <trkpt lat="44.66408" lon="2.91618">
        <ele>1313.4</ele>
        <time>2022-08-05T13:53:36Z</time>
      </trkpt>
      <trkpt lat="44.66414" lon="2.91607">
        <ele>1313.4</ele>
        <time>2022-08-05T13:53:45Z</time>
      </trkpt>
      <trkpt lat="44.66422" lon="2.91598">
        <ele>1313.3</ele>
        <time>2022-08-05T13:53:54Z</time>
      </trkpt>
      <trkpt lat="44.66424" lon="2.91596">
        <ele>1313.2</ele>
        <time>2022-08-05T13:53:56Z</time>
      </trkpt>
      <trkpt lat="44.6643" lon="2.91589">
        <ele>1312.9</ele>
        <time>2022-08-05T13:54:02Z</time>
      </trkpt>
      <trkpt lat="44.66441" lon="2.91586">
        <ele>1313</ele>
        <time>2022-08-05T13:54:10Z</time>
      </trkpt>
      <trkpt lat="44.66451" lon="2.9158">
        <ele>1313.4</ele>
        <time>2022-08-05T13:54:19Z</time>
      </trkpt>
      <trkpt lat="44.66461" lon="2.91574">
        <ele>1314</ele>
        <time>2022-08-05T13:54:27Z</time>
      </trkpt>
      <trkpt lat="44.66463" lon="2.91571">
        <ele>1314</ele>
        <time>2022-08-05T13:54:30Z</time>
      </trkpt>
      <trkpt lat="44.66469" lon="2.91563">
        <ele>1314.2</ele>
        <time>2022-08-05T13:54:36Z</time>
      </trkpt>
      <trkpt lat="44.66472" lon="2.91559">
        <ele>1314.2</ele>
        <time>2022-08-05T13:54:40Z</time>
      </trkpt>
      <trkpt lat="44.66473" lon="2.91557">
        <ele>1314.2</ele>
        <time>2022-08-05T13:54:42Z</time>
      </trkpt>
      <trkpt lat="44.66474" lon="2.91556">
        <ele>1314.2</ele>
        <time>2022-08-05T13:54:43Z</time>
      </trkpt>
      <trkpt lat="44.66477" lon="2.91552">
        <ele>1314.4</ele>
        <time>2022-08-05T13:54:46Z</time>
      </trkpt>
      <trkpt lat="44.66482" lon="2.9155">
        <ele>1314.7</ele>
        <time>2022-08-05T13:54:49Z</time>
      </trkpt>
      <trkpt lat="44.66485" lon="2.91548">
        <ele>1314.9</ele>
        <time>2022-08-05T13:54:51Z</time>
      </trkpt>
      <trkpt lat="44.66485" lon="2.91549">
        <ele>1314.9</ele>
        <time>2022-08-05T13:54:52Z</time>
      </trkpt>
      <trkpt lat="44.66486" lon="2.91552">
        <ele>1315.2</ele>
        <time>2022-08-05T13:54:55Z</time>
      </trkpt>
      <trkpt lat="44.66487" lon="2.91556">
        <ele>1315.6</ele>
        <time>2022-08-05T13:55:03Z</time>
      </trkpt>
      <trkpt lat="44.66487" lon="2.91556">
        <ele>1315.6</ele>
        <time>2022-08-05T13:55:36Z</time>
      </trkpt>
      <trkpt lat="44.66489" lon="2.9155">
        <ele>1315.4</ele>
        <time>2022-08-05T13:56:07Z</time>
      </trkpt>
      <trkpt lat="44.66495" lon="2.91538">
        <ele>1314.8</ele>
        <time>2022-08-05T13:56:13Z</time>
      </trkpt>
      <trkpt lat="44.66495" lon="2.91537">
        <ele>1314.8</ele>
        <time>2022-08-05T13:56:14Z</time>
      </trkpt>
      <trkpt lat="44.66498" lon="2.91533">
        <ele>1314.5</ele>
        <time>2022-08-05T13:56:17Z</time>
      </trkpt>
      <trkpt lat="44.66505" lon="2.91521">
        <ele>1313.7</ele>
        <time>2022-08-05T13:56:26Z</time>
      </trkpt>
      <trkpt lat="44.66508" lon="2.91514">
        <ele>1313.3</ele>
        <time>2022-08-05T13:56:30Z</time>
      </trkpt>
      <trkpt lat="44.66509" lon="2.91513">
        <ele>1313.3</ele>
        <time>2022-08-05T13:56:31Z</time>
      </trkpt>
      <trkpt lat="44.66511" lon="2.91511">
        <ele>1313.2</ele>
        <time>2022-08-05T13:56:33Z</time>
      </trkpt>
      <trkpt lat="44.66519" lon="2.91497">
        <ele>1312.5</ele>
        <time>2022-08-05T13:56:43Z</time>
      </trkpt>
      <trkpt lat="44.66523" lon="2.91491">
        <ele>1312.2</ele>
        <time>2022-08-05T13:56:48Z</time>
      </trkpt>
      <trkpt lat="44.66525" lon="2.91487">
        <ele>1312</ele>
        <time>2022-08-05T13:56:51Z</time>
      </trkpt>
      <trkpt lat="44.66526" lon="2.91486">
        <ele>1311.9</ele>
        <time>2022-08-05T13:56:52Z</time>
      </trkpt>
      <trkpt lat="44.66529" lon="2.9148">
        <ele>1311.6</ele>
        <time>2022-08-05T13:56:57Z</time>
      </trkpt>
      <trkpt lat="44.6653" lon="2.91479">
        <ele>1311.6</ele>
        <time>2022-08-05T13:56:59Z</time>
      </trkpt>
      <trkpt lat="44.66531" lon="2.91479">
        <ele>1311.6</ele>
        <time>2022-08-05T13:57:00Z</time>
      </trkpt>
      <trkpt lat="44.66532" lon="2.91476">
        <ele>1311.4</ele>
        <time>2022-08-05T13:57:03Z</time>
      </trkpt>
      <trkpt lat="44.66533" lon="2.91474">
        <ele>1311.3</ele>
        <time>2022-08-05T13:57:04Z</time>
      </trkpt>
      <trkpt lat="44.66533" lon="2.91473">
        <ele>1311.2</ele>
        <time>2022-08-05T13:57:05Z</time>
      </trkpt>
      <trkpt lat="44.66539" lon="2.91462">
        <ele>1310.8</ele>
        <time>2022-08-05T13:57:12Z</time>
      </trkpt>
      <trkpt lat="44.6654" lon="2.9146">
        <ele>1310.8</ele>
        <time>2022-08-05T13:57:13Z</time>
      </trkpt>
      <trkpt lat="44.66546" lon="2.91448">
        <ele>1310.5</ele>
        <time>2022-08-05T13:57:21Z</time>
      </trkpt>
      <trkpt lat="44.66553" lon="2.91439">
        <ele>1310.8</ele>
        <time>2022-08-05T13:57:28Z</time>
      </trkpt>
      <trkpt lat="44.66554" lon="2.91438">
        <ele>1310.9</ele>
        <time>2022-08-05T13:57:29Z</time>
      </trkpt>
      <trkpt lat="44.66563" lon="2.91426">
        <ele>1311.3</ele>
        <time>2022-08-05T13:57:38Z</time>
      </trkpt>
      <trkpt lat="44.66563" lon="2.91425">
        <ele>1311.3</ele>
        <time>2022-08-05T13:57:39Z</time>
      </trkpt>
      <trkpt lat="44.66566" lon="2.91419">
        <ele>1311.4</ele>
        <time>2022-08-05T13:57:45Z</time>
      </trkpt>
      <trkpt lat="44.66566" lon="2.91417">
        <ele>1311.4</ele>
        <time>2022-08-05T13:57:47Z</time>
      </trkpt>
      <trkpt lat="44.66568" lon="2.91415">
        <ele>1311.5</ele>
        <time>2022-08-05T13:57:49Z</time>
      </trkpt>
      <trkpt lat="44.6657" lon="2.91406">
        <ele>1311.7</ele>
        <time>2022-08-05T13:57:57Z</time>
      </trkpt>
      <trkpt lat="44.66571" lon="2.91406">
        <ele>1311.8</ele>
        <time>2022-08-05T13:57:58Z</time>
      </trkpt>
      <trkpt lat="44.66572" lon="2.91405">
        <ele>1311.8</ele>
        <time>2022-08-05T13:58:01Z</time>
      </trkpt>
      <trkpt lat="44.66572" lon="2.91405">
        <ele>1311.8</ele>
        <time>2022-08-05T13:58:03Z</time>
      </trkpt>
      <trkpt lat="44.66571" lon="2.91404">
        <ele>1311.8</ele>
        <time>2022-08-05T13:58:05Z</time>
      </trkpt>
      <trkpt lat="44.66572" lon="2.91402">
        <ele>1311.9</ele>
        <time>2022-08-05T13:58:13Z</time>
      </trkpt>
      <trkpt lat="44.66574" lon="2.91394">
        <ele>1312.2</ele>
        <time>2022-08-05T13:58:20Z</time>
      </trkpt>
      <trkpt lat="44.66576" lon="2.91382">
        <ele>1312.7</ele>
        <time>2022-08-05T13:58:29Z</time>
      </trkpt>
      <trkpt lat="44.66575" lon="2.91376">
        <ele>1312.9</ele>
        <time>2022-08-05T13:58:33Z</time>
      </trkpt>
      <trkpt lat="44.66575" lon="2.91373">
        <ele>1313</ele>
        <time>2022-08-05T13:58:35Z</time>
      </trkpt>
      <trkpt lat="44.66577" lon="2.91366">
        <ele>1313.4</ele>
        <time>2022-08-05T13:58:39Z</time>
      </trkpt>
      <trkpt lat="44.6658" lon="2.91358">
        <ele>1313.8</ele>
        <time>2022-08-05T13:58:45Z</time>
      </trkpt>
      <trkpt lat="44.6658" lon="2.91356">
        <ele>1313.9</ele>
        <time>2022-08-05T13:58:46Z</time>
      </trkpt>
      <trkpt lat="44.66585" lon="2.91345">
        <ele>1314.6</ele>
        <time>2022-08-05T13:58:54Z</time>
      </trkpt>
      <trkpt lat="44.66586" lon="2.91343">
        <ele>1314.6</ele>
        <time>2022-08-05T13:58:56Z</time>
      </trkpt>
      <trkpt lat="44.66588" lon="2.91343">
        <ele>1314.7</ele>
        <time>2022-08-05T13:58:58Z</time>
      </trkpt>
      <trkpt lat="44.66589" lon="2.91343">
        <ele>1314.7</ele>
        <time>2022-08-05T13:58:59Z</time>
      </trkpt>
      <trkpt lat="44.66592" lon="2.91345">
        <ele>1314.6</ele>
        <time>2022-08-05T13:59:05Z</time>
      </trkpt>
      <trkpt lat="44.66588" lon="2.91341">
        <ele>1314.7</ele>
        <time>2022-08-05T13:59:13Z</time>
      </trkpt>
      <trkpt lat="44.6659" lon="2.91336">
        <ele>1314.9</ele>
        <time>2022-08-05T13:59:19Z</time>
      </trkpt>
      <trkpt lat="44.6659" lon="2.91328">
        <ele>1315</ele>
        <time>2022-08-05T13:59:25Z</time>
      </trkpt>
      <trkpt lat="44.66591" lon="2.9132">
        <ele>1315.1</ele>
        <time>2022-08-05T13:59:30Z</time>
      </trkpt>
      <trkpt lat="44.66592" lon="2.91315">
        <ele>1315.2</ele>
        <time>2022-08-05T13:59:34Z</time>
      </trkpt>
      <trkpt lat="44.66594" lon="2.91308">
        <ele>1315.4</ele>
        <time>2022-08-05T13:59:39Z</time>
      </trkpt>
      <trkpt lat="44.66595" lon="2.91307">
        <ele>1315.4</ele>
        <time>2022-08-05T13:59:40Z</time>
      </trkpt>
      <trkpt lat="44.66595" lon="2.91305">
        <ele>1315.4</ele>
        <time>2022-08-05T13:59:41Z</time>
      </trkpt>
      <trkpt lat="44.66597" lon="2.913">
        <ele>1315.5</ele>
        <time>2022-08-05T13:59:46Z</time>
      </trkpt>
      <trkpt lat="44.666" lon="2.91293">
        <ele>1315.6</ele>
        <time>2022-08-05T13:59:51Z</time>
      </trkpt>
      <trkpt lat="44.66602" lon="2.91289">
        <ele>1315.7</ele>
        <time>2022-08-05T13:59:55Z</time>
      </trkpt>
      <trkpt lat="44.66602" lon="2.91287">
        <ele>1315.7</ele>
        <time>2022-08-05T13:59:56Z</time>
      </trkpt>
      <trkpt lat="44.66604" lon="2.91278">
        <ele>1315.8</ele>
        <time>2022-08-05T14:00:02Z</time>
      </trkpt>
      <trkpt lat="44.66608" lon="2.91268">
        <ele>1315.9</ele>
        <time>2022-08-05T14:00:09Z</time>
      </trkpt>
      <trkpt lat="44.66609" lon="2.91267">
        <ele>1315.9</ele>
        <time>2022-08-05T14:00:10Z</time>
      </trkpt>
      <trkpt lat="44.66613" lon="2.91261">
        <ele>1316</ele>
        <time>2022-08-05T14:00:15Z</time>
      </trkpt>
      <trkpt lat="44.66613" lon="2.91257">
        <ele>1316</ele>
        <time>2022-08-05T14:00:17Z</time>
      </trkpt>
      <trkpt lat="44.66615" lon="2.91253">
        <ele>1316</ele>
        <time>2022-08-05T14:00:20Z</time>
      </trkpt>
      <trkpt lat="44.66615" lon="2.91251">
        <ele>1316</ele>
        <time>2022-08-05T14:00:21Z</time>
      </trkpt>
      <trkpt lat="44.66616" lon="2.91245">
        <ele>1316</ele>
        <time>2022-08-05T14:00:25Z</time>
      </trkpt>
      <trkpt lat="44.66618" lon="2.91242">
        <ele>1316.1</ele>
        <time>2022-08-05T14:00:27Z</time>
      </trkpt>
      <trkpt lat="44.66621" lon="2.91233">
        <ele>1316.2</ele>
        <time>2022-08-05T14:00:33Z</time>
      </trkpt>
      <trkpt lat="44.66622" lon="2.9123">
        <ele>1316.3</ele>
        <time>2022-08-05T14:00:35Z</time>
      </trkpt>
      <trkpt lat="44.66624" lon="2.91224">
        <ele>1316.4</ele>
        <time>2022-08-05T14:00:38Z</time>
      </trkpt>
      <trkpt lat="44.66628" lon="2.91214">
        <ele>1316.5</ele>
        <time>2022-08-05T14:00:46Z</time>
      </trkpt>
      <trkpt lat="44.66628" lon="2.91212">
        <ele>1316.4</ele>
        <time>2022-08-05T14:00:47Z</time>
      </trkpt>
      <trkpt lat="44.6663" lon="2.91201">
        <ele>1316.4</ele>
        <time>2022-08-05T14:00:53Z</time>
      </trkpt>
      <trkpt lat="44.66632" lon="2.91197">
        <ele>1316.5</ele>
        <time>2022-08-05T14:00:56Z</time>
      </trkpt>
      <trkpt lat="44.66634" lon="2.91196">
        <ele>1316.6</ele>
        <time>2022-08-05T14:00:58Z</time>
      </trkpt>
      <trkpt lat="44.66634" lon="2.91194">
        <ele>1316.6</ele>
        <time>2022-08-05T14:00:59Z</time>
      </trkpt>
      <trkpt lat="44.66636" lon="2.91187">
        <ele>1316.5</ele>
        <time>2022-08-05T14:01:03Z</time>
      </trkpt>
      <trkpt lat="44.66637" lon="2.91181">
        <ele>1316.4</ele>
        <time>2022-08-05T14:01:06Z</time>
      </trkpt>
      <trkpt lat="44.6664" lon="2.91173">
        <ele>1316.3</ele>
        <time>2022-08-05T14:01:11Z</time>
      </trkpt>
      <trkpt lat="44.6664" lon="2.91171">
        <ele>1316.2</ele>
        <time>2022-08-05T14:01:12Z</time>
      </trkpt>
      <trkpt lat="44.66642" lon="2.91166">
        <ele>1316.2</ele>
        <time>2022-08-05T14:01:16Z</time>
      </trkpt>
      <trkpt lat="44.66642" lon="2.91165">
        <ele>1316.2</ele>
        <time>2022-08-05T14:01:18Z</time>
      </trkpt>
      <trkpt lat="44.66642" lon="2.91165">
        <ele>1316.1</ele>
        <time>2022-08-05T14:01:19Z</time>
      </trkpt>
      <trkpt lat="44.66643" lon="2.91161">
        <ele>1316.1</ele>
        <time>2022-08-05T14:01:22Z</time>
      </trkpt>
      <trkpt lat="44.66643" lon="2.9116">
        <ele>1316.1</ele>
        <time>2022-08-05T14:01:23Z</time>
      </trkpt>
      <trkpt lat="44.66646" lon="2.91154">
        <ele>1316.1</ele>
        <time>2022-08-05T14:01:29Z</time>
      </trkpt>
      <trkpt lat="44.66647" lon="2.91153">
        <ele>1316.1</ele>
        <time>2022-08-05T14:01:30Z</time>
      </trkpt>
      <trkpt lat="44.66653" lon="2.91141">
        <ele>1316.1</ele>
        <time>2022-08-05T14:01:38Z</time>
      </trkpt>
      <trkpt lat="44.66654" lon="2.91138">
        <ele>1316.1</ele>
        <time>2022-08-05T14:01:40Z</time>
      </trkpt>
      <trkpt lat="44.66655" lon="2.91131">
        <ele>1316.2</ele>
        <time>2022-08-05T14:01:44Z</time>
      </trkpt>
      <trkpt lat="44.66658" lon="2.9112">
        <ele>1316.4</ele>
        <time>2022-08-05T14:01:51Z</time>
      </trkpt>
      <trkpt lat="44.66658" lon="2.91118">
        <ele>1316.4</ele>
        <time>2022-08-05T14:01:52Z</time>
      </trkpt>
      <trkpt lat="44.66659" lon="2.91112">
        <ele>1316.5</ele>
        <time>2022-08-05T14:01:55Z</time>
      </trkpt>
      <trkpt lat="44.6666" lon="2.91111">
        <ele>1316.5</ele>
        <time>2022-08-05T14:01:56Z</time>
      </trkpt>
      <trkpt lat="44.6666" lon="2.9111">
        <ele>1316.5</ele>
        <time>2022-08-05T14:01:57Z</time>
      </trkpt>
      <trkpt lat="44.66662" lon="2.911">
        <ele>1316.7</ele>
        <time>2022-08-05T14:02:02Z</time>
      </trkpt>
      <trkpt lat="44.66665" lon="2.91089">
        <ele>1316.9</ele>
        <time>2022-08-05T14:02:09Z</time>
      </trkpt>
      <trkpt lat="44.66668" lon="2.91076">
        <ele>1316.7</ele>
        <time>2022-08-05T14:02:16Z</time>
      </trkpt>
      <trkpt lat="44.66671" lon="2.9107">
        <ele>1316.6</ele>
        <time>2022-08-05T14:02:20Z</time>
      </trkpt>
      <trkpt lat="44.66674" lon="2.91066">
        <ele>1316.6</ele>
        <time>2022-08-05T14:02:23Z</time>
      </trkpt>
      <trkpt lat="44.66676" lon="2.9106">
        <ele>1316.5</ele>
        <time>2022-08-05T14:02:27Z</time>
      </trkpt>
      <trkpt lat="44.66678" lon="2.91051">
        <ele>1316.3</ele>
        <time>2022-08-05T14:02:32Z</time>
      </trkpt>
      <trkpt lat="44.66681" lon="2.91038">
        <ele>1316.2</ele>
        <time>2022-08-05T14:02:40Z</time>
      </trkpt>
      <trkpt lat="44.66683" lon="2.91025">
        <ele>1315.8</ele>
        <time>2022-08-05T14:02:49Z</time>
      </trkpt>
      <trkpt lat="44.66684" lon="2.91022">
        <ele>1315.6</ele>
        <time>2022-08-05T14:02:51Z</time>
      </trkpt>
      <trkpt lat="44.66683" lon="2.91015">
        <ele>1315.1</ele>
        <time>2022-08-05T14:02:56Z</time>
      </trkpt>
      <trkpt lat="44.66683" lon="2.91013">
        <ele>1315</ele>
        <time>2022-08-05T14:02:57Z</time>
      </trkpt>
      <trkpt lat="44.66682" lon="2.91004">
        <ele>1314.3</ele>
        <time>2022-08-05T14:03:03Z</time>
      </trkpt>
      <trkpt lat="44.66682" lon="2.90997">
        <ele>1313.8</ele>
        <time>2022-08-05T14:03:07Z</time>
      </trkpt>
      <trkpt lat="44.66682" lon="2.9099">
        <ele>1313.5</ele>
        <time>2022-08-05T14:03:13Z</time>
      </trkpt>
      <trkpt lat="44.66683" lon="2.90988">
        <ele>1313.4</ele>
        <time>2022-08-05T14:03:15Z</time>
      </trkpt>
      <trkpt lat="44.66684" lon="2.9098">
        <ele>1313</ele>
        <time>2022-08-05T14:03:20Z</time>
      </trkpt>
      <trkpt lat="44.66684" lon="2.90978">
        <ele>1312.9</ele>
        <time>2022-08-05T14:03:21Z</time>
      </trkpt>
      <trkpt lat="44.66684" lon="2.90975">
        <ele>1312.8</ele>
        <time>2022-08-05T14:03:23Z</time>
      </trkpt>
      <trkpt lat="44.66684" lon="2.90965">
        <ele>1312.2</ele>
        <time>2022-08-05T14:03:29Z</time>
      </trkpt>
      <trkpt lat="44.66683" lon="2.90956">
        <ele>1311.6</ele>
        <time>2022-08-05T14:03:35Z</time>
      </trkpt>
      <trkpt lat="44.66683" lon="2.90942">
        <ele>1310.8</ele>
        <time>2022-08-05T14:03:42Z</time>
      </trkpt>
      <trkpt lat="44.66683" lon="2.90935">
        <ele>1310.3</ele>
        <time>2022-08-05T14:03:46Z</time>
      </trkpt>
      <trkpt lat="44.66684" lon="2.90932">
        <ele>1310.1</ele>
        <time>2022-08-05T14:03:48Z</time>
      </trkpt>
      <trkpt lat="44.66684" lon="2.90931">
        <ele>1310</ele>
        <time>2022-08-05T14:03:49Z</time>
      </trkpt>
      <trkpt lat="44.66685" lon="2.90932">
        <ele>1310.1</ele>
        <time>2022-08-05T14:03:52Z</time>
      </trkpt>
      <trkpt lat="44.66685" lon="2.90934">
        <ele>1310.3</ele>
        <time>2022-08-05T14:03:55Z</time>
      </trkpt>
      <trkpt lat="44.66683" lon="2.90933">
        <ele>1310.2</ele>
        <time>2022-08-05T14:03:58Z</time>
      </trkpt>
      <trkpt lat="44.66683" lon="2.90931">
        <ele>1310</ele>
        <time>2022-08-05T14:03:59Z</time>
      </trkpt>
      <trkpt lat="44.66683" lon="2.90927">
        <ele>1309.8</ele>
        <time>2022-08-05T14:04:01Z</time>
      </trkpt>
      <trkpt lat="44.66683" lon="2.9092">
        <ele>1309.2</ele>
        <time>2022-08-05T14:04:05Z</time>
      </trkpt>
      <trkpt lat="44.66683" lon="2.90917">
        <ele>1309</ele>
        <time>2022-08-05T14:04:06Z</time>
      </trkpt>
      <trkpt lat="44.66682" lon="2.90911">
        <ele>1308.4</ele>
        <time>2022-08-05T14:04:10Z</time>
      </trkpt>
      <trkpt lat="44.66683" lon="2.909">
        <ele>1307.5</ele>
        <time>2022-08-05T14:04:16Z</time>
      </trkpt>
      <trkpt lat="44.66682" lon="2.90897">
        <ele>1307.2</ele>
        <time>2022-08-05T14:04:18Z</time>
      </trkpt>
      <trkpt lat="44.66683" lon="2.90891">
        <ele>1306.6</ele>
        <time>2022-08-05T14:04:23Z</time>
      </trkpt>
      <trkpt lat="44.66683" lon="2.90886">
        <ele>1306.1</ele>
        <time>2022-08-05T14:04:26Z</time>
      </trkpt>
      <trkpt lat="44.66683" lon="2.9088">
        <ele>1305.6</ele>
        <time>2022-08-05T14:04:30Z</time>
      </trkpt>
      <trkpt lat="44.66683" lon="2.90875">
        <ele>1305.1</ele>
        <time>2022-08-05T14:04:33Z</time>
      </trkpt>
      <trkpt lat="44.66683" lon="2.90872">
        <ele>1304.8</ele>
        <time>2022-08-05T14:04:35Z</time>
      </trkpt>
      <trkpt lat="44.66684" lon="2.90865">
        <ele>1304.2</ele>
        <time>2022-08-05T14:04:40Z</time>
      </trkpt>
      <trkpt lat="44.66684" lon="2.90864">
        <ele>1304</ele>
        <time>2022-08-05T14:04:41Z</time>
      </trkpt>
      <trkpt lat="44.66684" lon="2.9085">
        <ele>1303</ele>
        <time>2022-08-05T14:04:48Z</time>
      </trkpt>
      <trkpt lat="44.66685" lon="2.90844">
        <ele>1302.5</ele>
        <time>2022-08-05T14:04:52Z</time>
      </trkpt>
      <trkpt lat="44.66685" lon="2.90836">
        <ele>1301.9</ele>
        <time>2022-08-05T14:04:58Z</time>
      </trkpt>
      <trkpt lat="44.66685" lon="2.90834">
        <ele>1301.7</ele>
        <time>2022-08-05T14:04:59Z</time>
      </trkpt>
      <trkpt lat="44.66687" lon="2.90829">
        <ele>1301.3</ele>
        <time>2022-08-05T14:05:03Z</time>
      </trkpt>
      <trkpt lat="44.66687" lon="2.90828">
        <ele>1301.2</ele>
        <time>2022-08-05T14:05:04Z</time>
      </trkpt>
      <trkpt lat="44.66687" lon="2.90827">
        <ele>1301.1</ele>
        <time>2022-08-05T14:05:05Z</time>
      </trkpt>
      <trkpt lat="44.66688" lon="2.90816">
        <ele>1300.2</ele>
        <time>2022-08-05T14:05:12Z</time>
      </trkpt>
      <trkpt lat="44.66688" lon="2.90813">
        <ele>1299.9</ele>
        <time>2022-08-05T14:05:14Z</time>
      </trkpt>
      <trkpt lat="44.66689" lon="2.90803">
        <ele>1299.2</ele>
        <time>2022-08-05T14:05:20Z</time>
      </trkpt>
      <trkpt lat="44.6669" lon="2.90802">
        <ele>1299.1</ele>
        <time>2022-08-05T14:05:21Z</time>
      </trkpt>
      <trkpt lat="44.6669" lon="2.90799">
        <ele>1298.8</ele>
        <time>2022-08-05T14:05:23Z</time>
      </trkpt>
      <trkpt lat="44.6669" lon="2.90796">
        <ele>1298.6</ele>
        <time>2022-08-05T14:05:25Z</time>
      </trkpt>
      <trkpt lat="44.66692" lon="2.90788">
        <ele>1297.9</ele>
        <time>2022-08-05T14:05:30Z</time>
      </trkpt>
      <trkpt lat="44.66692" lon="2.90785">
        <ele>1297.7</ele>
        <time>2022-08-05T14:05:32Z</time>
      </trkpt>
      <trkpt lat="44.66694" lon="2.90778">
        <ele>1297</ele>
        <time>2022-08-05T14:05:37Z</time>
      </trkpt>
      <trkpt lat="44.66694" lon="2.90772">
        <ele>1296.4</ele>
        <time>2022-08-05T14:05:41Z</time>
      </trkpt>
      <trkpt lat="44.66695" lon="2.9077">
        <ele>1296.1</ele>
        <time>2022-08-05T14:05:43Z</time>
      </trkpt>
      <trkpt lat="44.66695" lon="2.90768">
        <ele>1295.8</ele>
        <time>2022-08-05T14:05:44Z</time>
      </trkpt>
      <trkpt lat="44.66698" lon="2.90759">
        <ele>1294.5</ele>
        <time>2022-08-05T14:05:51Z</time>
      </trkpt>
      <trkpt lat="44.66699" lon="2.90755">
        <ele>1294</ele>
        <time>2022-08-05T14:05:54Z</time>
      </trkpt>
      <trkpt lat="44.667" lon="2.90753">
        <ele>1293.7</ele>
        <time>2022-08-05T14:05:56Z</time>
      </trkpt>
      <trkpt lat="44.667" lon="2.90752">
        <ele>1293.7</ele>
        <time>2022-08-05T14:05:58Z</time>
      </trkpt>
      <trkpt lat="44.66699" lon="2.90752">
        <ele>1293.7</ele>
        <time>2022-08-05T14:05:59Z</time>
      </trkpt>
      <trkpt lat="44.667" lon="2.90753">
        <ele>1293.7</ele>
        <time>2022-08-05T14:06:06Z</time>
      </trkpt>
      <trkpt lat="44.66698" lon="2.9075">
        <ele>1293.6</ele>
        <time>2022-08-05T14:06:12Z</time>
      </trkpt>
      <trkpt lat="44.66698" lon="2.90741">
        <ele>1292.6</ele>
        <time>2022-08-05T14:06:45Z</time>
      </trkpt>
      <trkpt lat="44.66701" lon="2.9073">
        <ele>1291.1</ele>
        <time>2022-08-05T14:06:52Z</time>
      </trkpt>
      <trkpt lat="44.66703" lon="2.90725">
        <ele>1290.5</ele>
        <time>2022-08-05T14:06:55Z</time>
      </trkpt>
      <trkpt lat="44.66704" lon="2.90722">
        <ele>1289.9</ele>
        <time>2022-08-05T14:06:58Z</time>
      </trkpt>
      <trkpt lat="44.66705" lon="2.90714">
        <ele>1289.3</ele>
        <time>2022-08-05T14:07:04Z</time>
      </trkpt>
      <trkpt lat="44.66707" lon="2.90711">
        <ele>1289.1</ele>
        <time>2022-08-05T14:07:06Z</time>
      </trkpt>
      <trkpt lat="44.66708" lon="2.90705">
        <ele>1288.6</ele>
        <time>2022-08-05T14:07:10Z</time>
      </trkpt>
      <trkpt lat="44.66709" lon="2.907">
        <ele>1288.3</ele>
        <time>2022-08-05T14:07:13Z</time>
      </trkpt>
      <trkpt lat="44.66709" lon="2.90694">
        <ele>1287.8</ele>
        <time>2022-08-05T14:07:17Z</time>
      </trkpt>
      <trkpt lat="44.6671" lon="2.90692">
        <ele>1287.7</ele>
        <time>2022-08-05T14:07:18Z</time>
      </trkpt>
      <trkpt lat="44.66713" lon="2.90683">
        <ele>1286.5</ele>
        <time>2022-08-05T14:07:25Z</time>
      </trkpt>
      <trkpt lat="44.66714" lon="2.90681">
        <ele>1286.3</ele>
        <time>2022-08-05T14:07:26Z</time>
      </trkpt>
      <trkpt lat="44.66714" lon="2.9068">
        <ele>1286.2</ele>
        <time>2022-08-05T14:07:27Z</time>
      </trkpt>
      <trkpt lat="44.66717" lon="2.90673">
        <ele>1285.2</ele>
        <time>2022-08-05T14:07:32Z</time>
      </trkpt>
      <trkpt lat="44.66719" lon="2.90671">
        <ele>1284.9</ele>
        <time>2022-08-05T14:07:34Z</time>
      </trkpt>
      <trkpt lat="44.66722" lon="2.90663">
        <ele>1283.9</ele>
        <time>2022-08-05T14:07:39Z</time>
      </trkpt>
      <trkpt lat="44.66724" lon="2.90653">
        <ele>1283.2</ele>
        <time>2022-08-05T14:07:45Z</time>
      </trkpt>
      <trkpt lat="44.66728" lon="2.90639">
        <ele>1282.3</ele>
        <time>2022-08-05T14:07:53Z</time>
      </trkpt>
      <trkpt lat="44.66731" lon="2.90631">
        <ele>1281.8</ele>
        <time>2022-08-05T14:07:59Z</time>
      </trkpt>
      <trkpt lat="44.66732" lon="2.90627">
        <ele>1281.7</ele>
        <time>2022-08-05T14:08:01Z</time>
      </trkpt>
      <trkpt lat="44.66736" lon="2.90611">
        <ele>1281.5</ele>
        <time>2022-08-05T14:08:10Z</time>
      </trkpt>
      <trkpt lat="44.66737" lon="2.90607">
        <ele>1281.5</ele>
        <time>2022-08-05T14:08:13Z</time>
      </trkpt>
      <trkpt lat="44.66738" lon="2.90606">
        <ele>1281.4</ele>
        <time>2022-08-05T14:08:14Z</time>
      </trkpt>
      <trkpt lat="44.6674" lon="2.90601">
        <ele>1281.3</ele>
        <time>2022-08-05T14:08:17Z</time>
      </trkpt>
      <trkpt lat="44.66744" lon="2.90589">
        <ele>1281.3</ele>
        <time>2022-08-05T14:08:25Z</time>
      </trkpt>
      <trkpt lat="44.66749" lon="2.90576">
        <ele>1281.1</ele>
        <time>2022-08-05T14:08:34Z</time>
      </trkpt>
      <trkpt lat="44.66752" lon="2.90564">
        <ele>1280.9</ele>
        <time>2022-08-05T14:08:41Z</time>
      </trkpt>
      <trkpt lat="44.66757" lon="2.90551">
        <ele>1280.8</ele>
        <time>2022-08-05T14:08:49Z</time>
      </trkpt>
      <trkpt lat="44.66764" lon="2.90536">
        <ele>1280.5</ele>
        <time>2022-08-05T14:08:59Z</time>
      </trkpt>
      <trkpt lat="44.66774" lon="2.90523">
        <ele>1280.1</ele>
        <time>2022-08-05T14:09:09Z</time>
      </trkpt>
      <trkpt lat="44.66775" lon="2.90522">
        <ele>1280.1</ele>
        <time>2022-08-05T14:09:10Z</time>
      </trkpt>
      <trkpt lat="44.6678" lon="2.90514">
        <ele>1279.7</ele>
        <time>2022-08-05T14:09:16Z</time>
      </trkpt>
      <trkpt lat="44.66786" lon="2.90508">
        <ele>1279.2</ele>
        <time>2022-08-05T14:09:22Z</time>
      </trkpt>
      <trkpt lat="44.66788" lon="2.90506">
        <ele>1279.1</ele>
        <time>2022-08-05T14:09:24Z</time>
      </trkpt>
      <trkpt lat="44.66794" lon="2.90496">
        <ele>1278.7</ele>
        <time>2022-08-05T14:09:32Z</time>
      </trkpt>
      <trkpt lat="44.66803" lon="2.9048">
        <ele>1278.1</ele>
        <time>2022-08-05T14:09:43Z</time>
      </trkpt>
      <trkpt lat="44.66809" lon="2.90467">
        <ele>1277.2</ele>
        <time>2022-08-05T14:09:52Z</time>
      </trkpt>
      <trkpt lat="44.66811" lon="2.90465">
        <ele>1276.9</ele>
        <time>2022-08-05T14:09:54Z</time>
      </trkpt>
      <trkpt lat="44.66816" lon="2.9045">
        <ele>1275.9</ele>
        <time>2022-08-05T14:10:03Z</time>
      </trkpt>
      <trkpt lat="44.66822" lon="2.90438">
        <ele>1274.8</ele>
        <time>2022-08-05T14:10:12Z</time>
      </trkpt>
      <trkpt lat="44.66824" lon="2.90435">
        <ele>1274.6</ele>
        <time>2022-08-05T14:10:14Z</time>
      </trkpt>
      <trkpt lat="44.66828" lon="2.90427">
        <ele>1274.1</ele>
        <time>2022-08-05T14:10:20Z</time>
      </trkpt>
      <trkpt lat="44.6683" lon="2.90424">
        <ele>1274</ele>
        <time>2022-08-05T14:10:23Z</time>
      </trkpt>
      <trkpt lat="44.66835" lon="2.90412">
        <ele>1273.3</ele>
        <time>2022-08-05T14:10:32Z</time>
      </trkpt>
      <trkpt lat="44.66838" lon="2.90407">
        <ele>1272.6</ele>
        <time>2022-08-05T14:10:36Z</time>
      </trkpt>
      <trkpt lat="44.6684" lon="2.90404">
        <ele>1272.2</ele>
        <time>2022-08-05T14:10:38Z</time>
      </trkpt>
      <trkpt lat="44.6685" lon="2.90388">
        <ele>1270.7</ele>
        <time>2022-08-05T14:10:50Z</time>
      </trkpt>
      <trkpt lat="44.66853" lon="2.90383">
        <ele>1270.3</ele>
        <time>2022-08-05T14:10:54Z</time>
      </trkpt>
      <trkpt lat="44.66857" lon="2.90376">
        <ele>1269.7</ele>
        <time>2022-08-05T14:10:59Z</time>
      </trkpt>
      <trkpt lat="44.66858" lon="2.90373">
        <ele>1269.5</ele>
        <time>2022-08-05T14:11:01Z</time>
      </trkpt>
      <trkpt lat="44.66859" lon="2.90372">
        <ele>1269.4</ele>
        <time>2022-08-05T14:11:02Z</time>
      </trkpt>
      <trkpt lat="44.66863" lon="2.90366">
        <ele>1268.9</ele>
        <time>2022-08-05T14:11:07Z</time>
      </trkpt>
      <trkpt lat="44.66865" lon="2.90362">
        <ele>1268.6</ele>
        <time>2022-08-05T14:11:10Z</time>
      </trkpt>
      <trkpt lat="44.66868" lon="2.90359">
        <ele>1268.1</ele>
        <time>2022-08-05T14:11:13Z</time>
      </trkpt>
      <trkpt lat="44.66869" lon="2.90356">
        <ele>1267.8</ele>
        <time>2022-08-05T14:11:15Z</time>
      </trkpt>
      <trkpt lat="44.66873" lon="2.9035">
        <ele>1267.3</ele>
        <time>2022-08-05T14:11:20Z</time>
      </trkpt>
      <trkpt lat="44.66879" lon="2.90343">
        <ele>1266.6</ele>
        <time>2022-08-05T14:11:26Z</time>
      </trkpt>
      <trkpt lat="44.66882" lon="2.90338">
        <ele>1266.3</ele>
        <time>2022-08-05T14:11:30Z</time>
      </trkpt>
      <trkpt lat="44.66885" lon="2.90334">
        <ele>1266.2</ele>
        <time>2022-08-05T14:11:33Z</time>
      </trkpt>
      <trkpt lat="44.66886" lon="2.90331">
        <ele>1266.1</ele>
        <time>2022-08-05T14:11:35Z</time>
      </trkpt>
      <trkpt lat="44.66888" lon="2.90329">
        <ele>1266.2</ele>
        <time>2022-08-05T14:11:37Z</time>
      </trkpt>
      <trkpt lat="44.66898" lon="2.90318">
        <ele>1265.2</ele>
        <time>2022-08-05T14:11:46Z</time>
      </trkpt>
      <trkpt lat="44.66905" lon="2.90307">
        <ele>1264.6</ele>
        <time>2022-08-05T14:11:55Z</time>
      </trkpt>
      <trkpt lat="44.66907" lon="2.90306">
        <ele>1264.4</ele>
        <time>2022-08-05T14:11:57Z</time>
      </trkpt>
      <trkpt lat="44.66908" lon="2.90305">
        <ele>1264.3</ele>
        <time>2022-08-05T14:11:58Z</time>
      </trkpt>
      <trkpt lat="44.66914" lon="2.90299">
        <ele>1263.7</ele>
        <time>2022-08-05T14:12:04Z</time>
      </trkpt>
      <trkpt lat="44.66914" lon="2.90298">
        <ele>1263.6</ele>
        <time>2022-08-05T14:12:05Z</time>
      </trkpt>
      <trkpt lat="44.6692" lon="2.90293">
        <ele>1262.7</ele>
        <time>2022-08-05T14:12:11Z</time>
      </trkpt>
      <trkpt lat="44.66922" lon="2.90292">
        <ele>1262.5</ele>
        <time>2022-08-05T14:12:12Z</time>
      </trkpt>
      <trkpt lat="44.6693" lon="2.90278">
        <ele>1261.6</ele>
        <time>2022-08-05T14:12:22Z</time>
      </trkpt>
      <trkpt lat="44.66933" lon="2.9027">
        <ele>1261.4</ele>
        <time>2022-08-05T14:12:27Z</time>
      </trkpt>
      <trkpt lat="44.66934" lon="2.90268">
        <ele>1261.3</ele>
        <time>2022-08-05T14:12:28Z</time>
      </trkpt>
      <trkpt lat="44.66938" lon="2.90262">
        <ele>1260.9</ele>
        <time>2022-08-05T14:12:33Z</time>
      </trkpt>
      <trkpt lat="44.66941" lon="2.90252">
        <ele>1260.7</ele>
        <time>2022-08-05T14:12:39Z</time>
      </trkpt>
      <trkpt lat="44.66944" lon="2.90245">
        <ele>1260.1</ele>
        <time>2022-08-05T14:12:45Z</time>
      </trkpt>
      <trkpt lat="44.66948" lon="2.90234">
        <ele>1259</ele>
        <time>2022-08-05T14:12:52Z</time>
      </trkpt>
      <trkpt lat="44.6695" lon="2.9022">
        <ele>1258.2</ele>
        <time>2022-08-05T14:13:01Z</time>
      </trkpt>
      <trkpt lat="44.6695" lon="2.90215">
        <ele>1258</ele>
        <time>2022-08-05T14:13:05Z</time>
      </trkpt>
      <trkpt lat="44.6695" lon="2.90214">
        <ele>1258</ele>
        <time>2022-08-05T14:13:06Z</time>
      </trkpt>
      <trkpt lat="44.66949" lon="2.90214">
        <ele>1258</ele>
        <time>2022-08-05T14:13:07Z</time>
      </trkpt>
      <trkpt lat="44.66949" lon="2.90214">
        <ele>1258.1</ele>
        <time>2022-08-05T14:13:10Z</time>
      </trkpt>
      <trkpt lat="44.6695" lon="2.90212">
        <ele>1257.8</ele>
        <time>2022-08-05T14:13:13Z</time>
      </trkpt>
      <trkpt lat="44.66949" lon="2.90209">
        <ele>1257.8</ele>
        <time>2022-08-05T14:13:21Z</time>
      </trkpt>
      <trkpt lat="44.66948" lon="2.90205">
        <ele>1257.9</ele>
        <time>2022-08-05T14:13:27Z</time>
      </trkpt>
      <trkpt lat="44.66948" lon="2.90205">
        <ele>1257.9</ele>
        <time>2022-08-05T14:13:28Z</time>
      </trkpt>
      <trkpt lat="44.66949" lon="2.90205">
        <ele>1257.7</ele>
        <time>2022-08-05T14:13:37Z</time>
      </trkpt>
      <trkpt lat="44.66949" lon="2.90205">
        <ele>1257.7</ele>
        <time>2022-08-05T14:13:43Z</time>
      </trkpt>
      <trkpt lat="44.66949" lon="2.90206">
        <ele>1257.7</ele>
        <time>2022-08-05T14:13:53Z</time>
      </trkpt>
      <trkpt lat="44.66949" lon="2.90206">
        <ele>1257.6</ele>
        <time>2022-08-05T14:13:59Z</time>
      </trkpt>
      <trkpt lat="44.66949" lon="2.90207">
        <ele>1257.6</ele>
        <time>2022-08-05T14:14:52Z</time>
      </trkpt>
      <trkpt lat="44.66951" lon="2.902">
        <ele>1256.6</ele>
        <time>2022-08-05T14:15:00Z</time>
      </trkpt>
      <trkpt lat="44.66952" lon="2.90198">
        <ele>1256.3</ele>
        <time>2022-08-05T14:15:01Z</time>
      </trkpt>
      <trkpt lat="44.66956" lon="2.90187">
        <ele>1254.5</ele>
        <time>2022-08-05T14:15:06Z</time>
      </trkpt>
      <trkpt lat="44.66957" lon="2.90183">
        <ele>1253.8</ele>
        <time>2022-08-05T14:15:10Z</time>
      </trkpt>
      <trkpt lat="44.66957" lon="2.90183">
        <ele>1253.7</ele>
        <time>2022-08-05T14:15:11Z</time>
      </trkpt>
      <trkpt lat="44.66959" lon="2.90177">
        <ele>1252.7</ele>
        <time>2022-08-05T14:15:16Z</time>
      </trkpt>
      <trkpt lat="44.66961" lon="2.90174">
        <ele>1252.2</ele>
        <time>2022-08-05T14:15:19Z</time>
      </trkpt>
      <trkpt lat="44.66964" lon="2.9017">
        <ele>1251.4</ele>
        <time>2022-08-05T14:15:24Z</time>
      </trkpt>
      <trkpt lat="44.66967" lon="2.90165">
        <ele>1250.5</ele>
        <time>2022-08-05T14:15:29Z</time>
      </trkpt>
      <trkpt lat="44.66968" lon="2.90165">
        <ele>1250.4</ele>
        <time>2022-08-05T14:15:30Z</time>
      </trkpt>
      <trkpt lat="44.66971" lon="2.90162">
        <ele>1249.6</ele>
        <time>2022-08-05T14:15:34Z</time>
      </trkpt>
      <trkpt lat="44.66974" lon="2.9016">
        <ele>1248.8</ele>
        <time>2022-08-05T14:15:37Z</time>
      </trkpt>
      <trkpt lat="44.66975" lon="2.90158">
        <ele>1248.4</ele>
        <time>2022-08-05T14:15:39Z</time>
      </trkpt>
      <trkpt lat="44.6698" lon="2.90152">
        <ele>1246.9</ele>
        <time>2022-08-05T14:15:45Z</time>
      </trkpt>
      <trkpt lat="44.66982" lon="2.9015">
        <ele>1246.4</ele>
        <time>2022-08-05T14:15:47Z</time>
      </trkpt>
      <trkpt lat="44.66983" lon="2.90148">
        <ele>1246</ele>
        <time>2022-08-05T14:15:49Z</time>
      </trkpt>
      <trkpt lat="44.66987" lon="2.9014">
        <ele>1244.8</ele>
        <time>2022-08-05T14:15:56Z</time>
      </trkpt>
      <trkpt lat="44.66991" lon="2.90133">
        <ele>1243.7</ele>
        <time>2022-08-05T14:16:01Z</time>
      </trkpt>
      <trkpt lat="44.66993" lon="2.90127">
        <ele>1242.6</ele>
        <time>2022-08-05T14:16:06Z</time>
      </trkpt>
      <trkpt lat="44.66994" lon="2.90124">
        <ele>1242.3</ele>
        <time>2022-08-05T14:16:08Z</time>
      </trkpt>
      <trkpt lat="44.66995" lon="2.90117">
        <ele>1241.4</ele>
        <time>2022-08-05T14:16:14Z</time>
      </trkpt>
      <trkpt lat="44.66998" lon="2.9011">
        <ele>1240.2</ele>
        <time>2022-08-05T14:16:19Z</time>
      </trkpt>
      <trkpt lat="44.66998" lon="2.9011">
        <ele>1240</ele>
        <time>2022-08-05T14:16:20Z</time>
      </trkpt>
      <trkpt lat="44.66999" lon="2.90108">
        <ele>1239.5</ele>
        <time>2022-08-05T14:16:22Z</time>
      </trkpt>
      <trkpt lat="44.67" lon="2.90105">
        <ele>1238.8</ele>
        <time>2022-08-05T14:16:25Z</time>
      </trkpt>
      <trkpt lat="44.67002" lon="2.901">
        <ele>1237.6</ele>
        <time>2022-08-05T14:16:30Z</time>
      </trkpt>
      <trkpt lat="44.67002" lon="2.90098">
        <ele>1237.3</ele>
        <time>2022-08-05T14:16:31Z</time>
      </trkpt>
      <trkpt lat="44.67004" lon="2.90094">
        <ele>1236.4</ele>
        <time>2022-08-05T14:16:35Z</time>
      </trkpt>
      <trkpt lat="44.67005" lon="2.90092">
        <ele>1235.8</ele>
        <time>2022-08-05T14:16:38Z</time>
      </trkpt>
      <trkpt lat="44.67006" lon="2.90089">
        <ele>1235.1</ele>
        <time>2022-08-05T14:16:41Z</time>
      </trkpt>
      <trkpt lat="44.67007" lon="2.90087">
        <ele>1234.7</ele>
        <time>2022-08-05T14:16:43Z</time>
      </trkpt>
      <trkpt lat="44.67012" lon="2.90079">
        <ele>1233.1</ele>
        <time>2022-08-05T14:16:51Z</time>
      </trkpt>
      <trkpt lat="44.67014" lon="2.90076">
        <ele>1232.3</ele>
        <time>2022-08-05T14:16:55Z</time>
      </trkpt>
      <trkpt lat="44.67016" lon="2.90071">
        <ele>1231.3</ele>
        <time>2022-08-05T14:17:00Z</time>
      </trkpt>
      <trkpt lat="44.67017" lon="2.90069">
        <ele>1231.1</ele>
        <time>2022-08-05T14:17:01Z</time>
      </trkpt>
      <trkpt lat="44.6702" lon="2.90059">
        <ele>1229.5</ele>
        <time>2022-08-05T14:17:09Z</time>
      </trkpt>
      <trkpt lat="44.67021" lon="2.90056">
        <ele>1229.1</ele>
        <time>2022-08-05T14:17:11Z</time>
      </trkpt>
      <trkpt lat="44.67022" lon="2.90052">
        <ele>1228.7</ele>
        <time>2022-08-05T14:17:14Z</time>
      </trkpt>
      <trkpt lat="44.67024" lon="2.90048">
        <ele>1228.4</ele>
        <time>2022-08-05T14:17:17Z</time>
      </trkpt>
      <trkpt lat="44.67024" lon="2.90046">
        <ele>1228.3</ele>
        <time>2022-08-05T14:17:18Z</time>
      </trkpt>
      <trkpt lat="44.67025" lon="2.90041">
        <ele>1227.9</ele>
        <time>2022-08-05T14:17:21Z</time>
      </trkpt>
      <trkpt lat="44.67028" lon="2.90037">
        <ele>1227.6</ele>
        <time>2022-08-05T14:17:26Z</time>
      </trkpt>
      <trkpt lat="44.67028" lon="2.90037">
        <ele>1227.6</ele>
        <time>2022-08-05T14:17:27Z</time>
      </trkpt>
      <trkpt lat="44.67028" lon="2.90034">
        <ele>1227.4</ele>
        <time>2022-08-05T14:17:29Z</time>
      </trkpt>
      <trkpt lat="44.6703" lon="2.90032">
        <ele>1227</ele>
        <time>2022-08-05T14:17:31Z</time>
      </trkpt>
      <trkpt lat="44.67033" lon="2.90027">
        <ele>1226.1</ele>
        <time>2022-08-05T14:17:35Z</time>
      </trkpt>
      <trkpt lat="44.67035" lon="2.90022">
        <ele>1225.6</ele>
        <time>2022-08-05T14:17:38Z</time>
      </trkpt>
      <trkpt lat="44.67039" lon="2.90009">
        <ele>1224.3</ele>
        <time>2022-08-05T14:17:46Z</time>
      </trkpt>
      <trkpt lat="44.6704" lon="2.90005">
        <ele>1223.9</ele>
        <time>2022-08-05T14:17:49Z</time>
      </trkpt>
      <trkpt lat="44.67044" lon="2.89993">
        <ele>1222.8</ele>
        <time>2022-08-05T14:17:56Z</time>
      </trkpt>
      <trkpt lat="44.67046" lon="2.89987">
        <ele>1222.1</ele>
        <time>2022-08-05T14:18:01Z</time>
      </trkpt>
      <trkpt lat="44.67047" lon="2.89982">
        <ele>1221.6</ele>
        <time>2022-08-05T14:18:05Z</time>
      </trkpt>
      <trkpt lat="44.67048" lon="2.89981">
        <ele>1221.4</ele>
        <time>2022-08-05T14:18:06Z</time>
      </trkpt>
      <trkpt lat="44.6705" lon="2.89977">
        <ele>1221</ele>
        <time>2022-08-05T14:18:09Z</time>
      </trkpt>
      <trkpt lat="44.67051" lon="2.89974">
        <ele>1220.6</ele>
        <time>2022-08-05T14:18:12Z</time>
      </trkpt>
      <trkpt lat="44.67051" lon="2.89972">
        <ele>1220.5</ele>
        <time>2022-08-05T14:18:13Z</time>
      </trkpt>
      <trkpt lat="44.67054" lon="2.89958">
        <ele>1218.7</ele>
        <time>2022-08-05T14:18:23Z</time>
      </trkpt>
      <trkpt lat="44.67055" lon="2.89955">
        <ele>1218.3</ele>
        <time>2022-08-05T14:18:25Z</time>
      </trkpt>
      <trkpt lat="44.67056" lon="2.8995">
        <ele>1217.5</ele>
        <time>2022-08-05T14:18:29Z</time>
      </trkpt>
      <trkpt lat="44.67056" lon="2.89947">
        <ele>1217.1</ele>
        <time>2022-08-05T14:18:31Z</time>
      </trkpt>
      <trkpt lat="44.67057" lon="2.89945">
        <ele>1216.9</ele>
        <time>2022-08-05T14:18:32Z</time>
      </trkpt>
      <trkpt lat="44.67061" lon="2.89933">
        <ele>1215.5</ele>
        <time>2022-08-05T14:18:40Z</time>
      </trkpt>
      <trkpt lat="44.67062" lon="2.8993">
        <ele>1215.3</ele>
        <time>2022-08-05T14:18:42Z</time>
      </trkpt>
      <trkpt lat="44.67066" lon="2.8992">
        <ele>1214.7</ele>
        <time>2022-08-05T14:18:49Z</time>
      </trkpt>
      <trkpt lat="44.67069" lon="2.89916">
        <ele>1214.4</ele>
        <time>2022-08-05T14:18:53Z</time>
      </trkpt>
      <trkpt lat="44.67072" lon="2.8991">
        <ele>1213.9</ele>
        <time>2022-08-05T14:18:57Z</time>
      </trkpt>
      <trkpt lat="44.67075" lon="2.899">
        <ele>1213.1</ele>
        <time>2022-08-05T14:19:03Z</time>
      </trkpt>
      <trkpt lat="44.67075" lon="2.89898">
        <ele>1213.1</ele>
        <time>2022-08-05T14:19:04Z</time>
      </trkpt>
      <trkpt lat="44.67081" lon="2.89882">
        <ele>1212.7</ele>
        <time>2022-08-05T14:19:14Z</time>
      </trkpt>
      <trkpt lat="44.67084" lon="2.89877">
        <ele>1213</ele>
        <time>2022-08-05T14:19:18Z</time>
      </trkpt>
      <trkpt lat="44.67086" lon="2.89871">
        <ele>1213.3</ele>
        <time>2022-08-05T14:19:22Z</time>
      </trkpt>
      <trkpt lat="44.6709" lon="2.89862">
        <ele>1214</ele>
        <time>2022-08-05T14:19:28Z</time>
      </trkpt>
      <trkpt lat="44.67092" lon="2.8986">
        <ele>1214.2</ele>
        <time>2022-08-05T14:19:30Z</time>
      </trkpt>
      <trkpt lat="44.67093" lon="2.89861">
        <ele>1214.3</ele>
        <time>2022-08-05T14:19:31Z</time>
      </trkpt>
      <trkpt lat="44.67093" lon="2.89862">
        <ele>1214.4</ele>
        <time>2022-08-05T14:19:33Z</time>
      </trkpt>
      <trkpt lat="44.67093" lon="2.89862">
        <ele>1214.4</ele>
        <time>2022-08-05T14:19:36Z</time>
      </trkpt>
      <trkpt lat="44.67093" lon="2.89862">
        <ele>1214.3</ele>
        <time>2022-08-05T14:19:44Z</time>
      </trkpt>
      <trkpt lat="44.67098" lon="2.89853">
        <ele>1215</ele>
        <time>2022-08-05T14:19:51Z</time>
      </trkpt>
      <trkpt lat="44.67106" lon="2.89844">
        <ele>1216.1</ele>
        <time>2022-08-05T14:20:00Z</time>
      </trkpt>
      <trkpt lat="44.67107" lon="2.89843">
        <ele>1216.2</ele>
        <time>2022-08-05T14:20:01Z</time>
      </trkpt>
      <trkpt lat="44.67113" lon="2.89833">
        <ele>1217.1</ele>
        <time>2022-08-05T14:20:09Z</time>
      </trkpt>
      <trkpt lat="44.67114" lon="2.89832">
        <ele>1217.1</ele>
        <time>2022-08-05T14:20:10Z</time>
      </trkpt>
      <trkpt lat="44.67118" lon="2.89826">
        <ele>1217.3</ele>
        <time>2022-08-05T14:20:15Z</time>
      </trkpt>
      <trkpt lat="44.6712" lon="2.89823">
        <ele>1217.4</ele>
        <time>2022-08-05T14:20:18Z</time>
      </trkpt>
      <trkpt lat="44.67126" lon="2.89812">
        <ele>1217.7</ele>
        <time>2022-08-05T14:20:26Z</time>
      </trkpt>
      <trkpt lat="44.67129" lon="2.89806">
        <ele>1217.9</ele>
        <time>2022-08-05T14:20:30Z</time>
      </trkpt>
      <trkpt lat="44.6713" lon="2.89807">
        <ele>1218.1</ele>
        <time>2022-08-05T14:20:32Z</time>
      </trkpt>
      <trkpt lat="44.6713" lon="2.89807">
        <ele>1218.1</ele>
        <time>2022-08-05T14:20:34Z</time>
      </trkpt>
      <trkpt lat="44.6713" lon="2.89807">
        <ele>1218.1</ele>
        <time>2022-08-05T14:20:38Z</time>
      </trkpt>
      <trkpt lat="44.67134" lon="2.89801">
        <ele>1218.3</ele>
        <time>2022-08-05T14:20:44Z</time>
      </trkpt>
      <trkpt lat="44.67138" lon="2.89793">
        <ele>1218.4</ele>
        <time>2022-08-05T14:20:50Z</time>
      </trkpt>
      <trkpt lat="44.67144" lon="2.89781">
        <ele>1218.5</ele>
        <time>2022-08-05T14:20:59Z</time>
      </trkpt>
      <trkpt lat="44.67151" lon="2.89769">
        <ele>1218.2</ele>
        <time>2022-08-05T14:21:08Z</time>
      </trkpt>
      <trkpt lat="44.67153" lon="2.89767">
        <ele>1218.2</ele>
        <time>2022-08-05T14:21:10Z</time>
      </trkpt>
      <trkpt lat="44.67158" lon="2.89759">
        <ele>1218.3</ele>
        <time>2022-08-05T14:21:17Z</time>
      </trkpt>
      <trkpt lat="44.67159" lon="2.89756">
        <ele>1218.3</ele>
        <time>2022-08-05T14:21:19Z</time>
      </trkpt>
      <trkpt lat="44.67164" lon="2.89749">
        <ele>1218.5</ele>
        <time>2022-08-05T14:21:25Z</time>
      </trkpt>
      <trkpt lat="44.6717" lon="2.89739">
        <ele>1218.6</ele>
        <time>2022-08-05T14:21:33Z</time>
      </trkpt>
      <trkpt lat="44.67178" lon="2.89724">
        <ele>1218.8</ele>
        <time>2022-08-05T14:21:44Z</time>
      </trkpt>
      <trkpt lat="44.67181" lon="2.89721">
        <ele>1218.9</ele>
        <time>2022-08-05T14:21:47Z</time>
      </trkpt>
      <trkpt lat="44.67182" lon="2.89716">
        <ele>1218.7</ele>
        <time>2022-08-05T14:21:50Z</time>
      </trkpt>
      <trkpt lat="44.67182" lon="2.89714">
        <ele>1218.6</ele>
        <time>2022-08-05T14:21:51Z</time>
      </trkpt>
      <trkpt lat="44.67189" lon="2.89695">
        <ele>1218.3</ele>
        <time>2022-08-05T14:22:04Z</time>
      </trkpt>
      <trkpt lat="44.67195" lon="2.89681">
        <ele>1217.5</ele>
        <time>2022-08-05T14:22:13Z</time>
      </trkpt>
      <trkpt lat="44.67198" lon="2.89668">
        <ele>1216.6</ele>
        <time>2022-08-05T14:22:21Z</time>
      </trkpt>
      <trkpt lat="44.67199" lon="2.89666">
        <ele>1216.5</ele>
        <time>2022-08-05T14:22:22Z</time>
      </trkpt>
      <trkpt lat="44.672" lon="2.89663">
        <ele>1216.2</ele>
        <time>2022-08-05T14:22:24Z</time>
      </trkpt>
      <trkpt lat="44.67203" lon="2.89658">
        <ele>1215.9</ele>
        <time>2022-08-05T14:22:28Z</time>
      </trkpt>
      <trkpt lat="44.67208" lon="2.89648">
        <ele>1215.1</ele>
        <time>2022-08-05T14:22:36Z</time>
      </trkpt>
      <trkpt lat="44.67212" lon="2.8964">
        <ele>1214.3</ele>
        <time>2022-08-05T14:22:42Z</time>
      </trkpt>
      <trkpt lat="44.67212" lon="2.89638">
        <ele>1214.2</ele>
        <time>2022-08-05T14:22:43Z</time>
      </trkpt>
      <trkpt lat="44.67215" lon="2.89632">
        <ele>1213.9</ele>
        <time>2022-08-05T14:22:48Z</time>
      </trkpt>
      <trkpt lat="44.67216" lon="2.89625">
        <ele>1213.5</ele>
        <time>2022-08-05T14:22:52Z</time>
      </trkpt>
      <trkpt lat="44.6722" lon="2.89609">
        <ele>1212.6</ele>
        <time>2022-08-05T14:23:02Z</time>
      </trkpt>
      <trkpt lat="44.67222" lon="2.89601">
        <ele>1211.9</ele>
        <time>2022-08-05T14:23:07Z</time>
      </trkpt>
      <trkpt lat="44.67224" lon="2.89595">
        <ele>1211.3</ele>
        <time>2022-08-05T14:23:11Z</time>
      </trkpt>
      <trkpt lat="44.67226" lon="2.89589">
        <ele>1210.6</ele>
        <time>2022-08-05T14:23:15Z</time>
      </trkpt>
      <trkpt lat="44.67228" lon="2.89585">
        <ele>1210.1</ele>
        <time>2022-08-05T14:23:19Z</time>
      </trkpt>
      <trkpt lat="44.67229" lon="2.8958">
        <ele>1209.6</ele>
        <time>2022-08-05T14:23:22Z</time>
      </trkpt>
      <trkpt lat="44.67231" lon="2.89569">
        <ele>1208.3</ele>
        <time>2022-08-05T14:23:30Z</time>
      </trkpt>
      <trkpt lat="44.67232" lon="2.89566">
        <ele>1207.9</ele>
        <time>2022-08-05T14:23:32Z</time>
      </trkpt>
      <trkpt lat="44.67233" lon="2.89558">
        <ele>1206.9</ele>
        <time>2022-08-05T14:23:37Z</time>
      </trkpt>
      <trkpt lat="44.67234" lon="2.89552">
        <ele>1206.1</ele>
        <time>2022-08-05T14:23:41Z</time>
      </trkpt>
      <trkpt lat="44.67235" lon="2.89547">
        <ele>1205.5</ele>
        <time>2022-08-05T14:23:44Z</time>
      </trkpt>
      <trkpt lat="44.67236" lon="2.89541">
        <ele>1204.6</ele>
        <time>2022-08-05T14:23:49Z</time>
      </trkpt>
      <trkpt lat="44.67235" lon="2.89537">
        <ele>1204.2</ele>
        <time>2022-08-05T14:23:52Z</time>
      </trkpt>
      <trkpt lat="44.67235" lon="2.8953">
        <ele>1203.4</ele>
        <time>2022-08-05T14:23:56Z</time>
      </trkpt>
      <trkpt lat="44.67235" lon="2.89529">
        <ele>1203.2</ele>
        <time>2022-08-05T14:23:57Z</time>
      </trkpt>
      <trkpt lat="44.67233" lon="2.89527">
        <ele>1203.1</ele>
        <time>2022-08-05T14:23:59Z</time>
      </trkpt>
      <trkpt lat="44.6723" lon="2.89522">
        <ele>1202.6</ele>
        <time>2022-08-05T14:24:03Z</time>
      </trkpt>
      <trkpt lat="44.6723" lon="2.89518">
        <ele>1202</ele>
        <time>2022-08-05T14:24:06Z</time>
      </trkpt>
      <trkpt lat="44.6723" lon="2.89515">
        <ele>1201.6</ele>
        <time>2022-08-05T14:24:08Z</time>
      </trkpt>
      <trkpt lat="44.6723" lon="2.89514">
        <ele>1201.5</ele>
        <time>2022-08-05T14:24:09Z</time>
      </trkpt>
      <trkpt lat="44.67227" lon="2.89506">
        <ele>1200.5</ele>
        <time>2022-08-05T14:24:14Z</time>
      </trkpt>
      <trkpt lat="44.67226" lon="2.89502">
        <ele>1200.1</ele>
        <time>2022-08-05T14:24:17Z</time>
      </trkpt>
      <trkpt lat="44.67225" lon="2.89501">
        <ele>1199.9</ele>
        <time>2022-08-05T14:24:18Z</time>
      </trkpt>
      <trkpt lat="44.67225" lon="2.895">
        <ele>1199.8</ele>
        <time>2022-08-05T14:24:19Z</time>
      </trkpt>
      <trkpt lat="44.67221" lon="2.89494">
        <ele>1199</ele>
        <time>2022-08-05T14:24:25Z</time>
      </trkpt>
      <trkpt lat="44.67221" lon="2.89494">
        <ele>1199</ele>
        <time>2022-08-05T14:24:26Z</time>
      </trkpt>
      <trkpt lat="44.67221" lon="2.89494">
        <ele>1199</ele>
        <time>2022-08-05T14:24:27Z</time>
      </trkpt>
      <trkpt lat="44.67221" lon="2.89495">
        <ele>1199</ele>
        <time>2022-08-05T14:24:30Z</time>
      </trkpt>
      <trkpt lat="44.67221" lon="2.89494">
        <ele>1198.9</ele>
        <time>2022-08-05T14:24:32Z</time>
      </trkpt>
      <trkpt lat="44.67222" lon="2.89493">
        <ele>1198.8</ele>
        <time>2022-08-05T14:24:43Z</time>
      </trkpt>
      <trkpt lat="44.67221" lon="2.89492">
        <ele>1198.6</ele>
        <time>2022-08-05T14:24:44Z</time>
      </trkpt>
      <trkpt lat="44.67218" lon="2.8949">
        <ele>1198.2</ele>
        <time>2022-08-05T14:24:48Z</time>
      </trkpt>
      <trkpt lat="44.67212" lon="2.89485">
        <ele>1197.3</ele>
        <time>2022-08-05T14:24:55Z</time>
      </trkpt>
      <trkpt lat="44.67209" lon="2.89482">
        <ele>1196.7</ele>
        <time>2022-08-05T14:25:00Z</time>
      </trkpt>
      <trkpt lat="44.67208" lon="2.8948">
        <ele>1196.4</ele>
        <time>2022-08-05T14:25:02Z</time>
      </trkpt>
      <trkpt lat="44.67208" lon="2.89479">
        <ele>1196.3</ele>
        <time>2022-08-05T14:25:07Z</time>
      </trkpt>
      <trkpt lat="44.67203" lon="2.89474">
        <ele>1195.3</ele>
        <time>2022-08-05T14:25:12Z</time>
      </trkpt>
      <trkpt lat="44.67202" lon="2.89472">
        <ele>1195</ele>
        <time>2022-08-05T14:25:14Z</time>
      </trkpt>
      <trkpt lat="44.67201" lon="2.89468">
        <ele>1194</ele>
        <time>2022-08-05T14:25:18Z</time>
      </trkpt>
      <trkpt lat="44.672" lon="2.89467">
        <ele>1193.9</ele>
        <time>2022-08-05T14:25:21Z</time>
      </trkpt>
      <trkpt lat="44.672" lon="2.89465">
        <ele>1193.4</ele>
        <time>2022-08-05T14:25:23Z</time>
      </trkpt>
      <trkpt lat="44.67198" lon="2.89463">
        <ele>1192.9</ele>
        <time>2022-08-05T14:25:26Z</time>
      </trkpt>
      <trkpt lat="44.67196" lon="2.89459">
        <ele>1192.1</ele>
        <time>2022-08-05T14:25:30Z</time>
      </trkpt>
      <trkpt lat="44.67193" lon="2.89458">
        <ele>1191.8</ele>
        <time>2022-08-05T14:25:33Z</time>
      </trkpt>
      <trkpt lat="44.67191" lon="2.89457">
        <ele>1191.5</ele>
        <time>2022-08-05T14:25:36Z</time>
      </trkpt>
      <trkpt lat="44.67187" lon="2.89453">
        <ele>1190.6</ele>
        <time>2022-08-05T14:25:42Z</time>
      </trkpt>
      <trkpt lat="44.67186" lon="2.89452">
        <ele>1190.4</ele>
        <time>2022-08-05T14:25:43Z</time>
      </trkpt>
      <trkpt lat="44.67182" lon="2.89451">
        <ele>1190</ele>
        <time>2022-08-05T14:25:49Z</time>
      </trkpt>
      <trkpt lat="44.67181" lon="2.89451">
        <ele>1190</ele>
        <time>2022-08-05T14:25:50Z</time>
      </trkpt>
      <trkpt lat="44.67177" lon="2.89453">
        <ele>1190.1</ele>
        <time>2022-08-05T14:25:55Z</time>
      </trkpt>
      <trkpt lat="44.67176" lon="2.89452">
        <ele>1190</ele>
        <time>2022-08-05T14:25:57Z</time>
      </trkpt>
      <trkpt lat="44.67172" lon="2.89454">
        <ele>1190.3</ele>
        <time>2022-08-05T14:26:02Z</time>
      </trkpt>
      <trkpt lat="44.67169" lon="2.89454">
        <ele>1190.1</ele>
        <time>2022-08-05T14:26:09Z</time>
      </trkpt>
      <trkpt lat="44.67166" lon="2.89454">
        <ele>1190</ele>
        <time>2022-08-05T14:26:14Z</time>
      </trkpt>
      <trkpt lat="44.67164" lon="2.89454">
        <ele>1189.8</ele>
        <time>2022-08-05T14:26:17Z</time>
      </trkpt>
      <trkpt lat="44.67161" lon="2.89454">
        <ele>1189.5</ele>
        <time>2022-08-05T14:26:20Z</time>
      </trkpt>
      <trkpt lat="44.67158" lon="2.89454">
        <ele>1189.2</ele>
        <time>2022-08-05T14:26:24Z</time>
      </trkpt>
      <trkpt lat="44.67157" lon="2.89453">
        <ele>1189.1</ele>
        <time>2022-08-05T14:26:25Z</time>
      </trkpt>
      <trkpt lat="44.67153" lon="2.8945">
        <ele>1188.1</ele>
        <time>2022-08-05T14:26:30Z</time>
      </trkpt>
      <trkpt lat="44.67153" lon="2.8945">
        <ele>1188</ele>
        <time>2022-08-05T14:26:31Z</time>
      </trkpt>
      <trkpt lat="44.6715" lon="2.89447">
        <ele>1187.2</ele>
        <time>2022-08-05T14:26:36Z</time>
      </trkpt>
      <trkpt lat="44.67148" lon="2.89445">
        <ele>1186.8</ele>
        <time>2022-08-05T14:26:39Z</time>
      </trkpt>
      <trkpt lat="44.67144" lon="2.89445">
        <ele>1186.4</ele>
        <time>2022-08-05T14:26:42Z</time>
      </trkpt>
      <trkpt lat="44.67143" lon="2.89443">
        <ele>1186</ele>
        <time>2022-08-05T14:26:44Z</time>
      </trkpt>
      <trkpt lat="44.67138" lon="2.89441">
        <ele>1185.1</ele>
        <time>2022-08-05T14:26:49Z</time>
      </trkpt>
      <trkpt lat="44.67135" lon="2.89438">
        <ele>1184.2</ele>
        <time>2022-08-05T14:26:53Z</time>
      </trkpt>
      <trkpt lat="44.67133" lon="2.89433">
        <ele>1183</ele>
        <time>2022-08-05T14:26:57Z</time>
      </trkpt>
      <trkpt lat="44.67128" lon="2.89427">
        <ele>1181.4</ele>
        <time>2022-08-05T14:27:03Z</time>
      </trkpt>
      <trkpt lat="44.67127" lon="2.89424">
        <ele>1180.6</ele>
        <time>2022-08-05T14:27:05Z</time>
      </trkpt>
      <trkpt lat="44.67124" lon="2.89417">
        <ele>1179</ele>
        <time>2022-08-05T14:27:11Z</time>
      </trkpt>
      <trkpt lat="44.6712" lon="2.89413">
        <ele>1178</ele>
        <time>2022-08-05T14:27:15Z</time>
      </trkpt>
      <trkpt lat="44.67116" lon="2.89409">
        <ele>1177.1</ele>
        <time>2022-08-05T14:27:19Z</time>
      </trkpt>
      <trkpt lat="44.67113" lon="2.89404">
        <ele>1176.3</ele>
        <time>2022-08-05T14:27:23Z</time>
      </trkpt>
      <trkpt lat="44.67109" lon="2.894">
        <ele>1175.5</ele>
        <time>2022-08-05T14:27:27Z</time>
      </trkpt>
      <trkpt lat="44.67103" lon="2.89393">
        <ele>1174.2</ele>
        <time>2022-08-05T14:27:33Z</time>
      </trkpt>
      <trkpt lat="44.67098" lon="2.89382">
        <ele>1172.9</ele>
        <time>2022-08-05T14:27:41Z</time>
      </trkpt>
      <trkpt lat="44.67097" lon="2.8938">
        <ele>1172.7</ele>
        <time>2022-08-05T14:27:42Z</time>
      </trkpt>
      <trkpt lat="44.67095" lon="2.89375">
        <ele>1172.2</ele>
        <time>2022-08-05T14:27:46Z</time>
      </trkpt>
      <trkpt lat="44.67091" lon="2.89365">
        <ele>1171.3</ele>
        <time>2022-08-05T14:27:53Z</time>
      </trkpt>
      <trkpt lat="44.67087" lon="2.89356">
        <ele>1170.7</ele>
        <time>2022-08-05T14:27:59Z</time>
      </trkpt>
      <trkpt lat="44.67083" lon="2.89346">
        <ele>1169.9</ele>
        <time>2022-08-05T14:28:06Z</time>
      </trkpt>
      <trkpt lat="44.6708" lon="2.89335">
        <ele>1169</ele>
        <time>2022-08-05T14:28:12Z</time>
      </trkpt>
      <trkpt lat="44.67077" lon="2.89326">
        <ele>1168.7</ele>
        <time>2022-08-05T14:28:17Z</time>
      </trkpt>
      <trkpt lat="44.67072" lon="2.89313">
        <ele>1168.3</ele>
        <time>2022-08-05T14:28:26Z</time>
      </trkpt>
      <trkpt lat="44.67071" lon="2.8931">
        <ele>1168.2</ele>
        <time>2022-08-05T14:28:28Z</time>
      </trkpt>
      <trkpt lat="44.67066" lon="2.89295">
        <ele>1167.6</ele>
        <time>2022-08-05T14:28:37Z</time>
      </trkpt>
      <trkpt lat="44.6706" lon="2.89276">
        <ele>1167.2</ele>
        <time>2022-08-05T14:28:49Z</time>
      </trkpt>
      <trkpt lat="44.67052" lon="2.89258">
        <ele>1167.6</ele>
        <time>2022-08-05T14:29:02Z</time>
      </trkpt>
      <trkpt lat="44.67052" lon="2.89256">
        <ele>1167.6</ele>
        <time>2022-08-05T14:29:05Z</time>
      </trkpt>
      <trkpt lat="44.67053" lon="2.89255">
        <ele>1167.7</ele>
        <time>2022-08-05T14:29:08Z</time>
      </trkpt>
      <trkpt lat="44.67052" lon="2.89256">
        <ele>1167.6</ele>
        <time>2022-08-05T14:29:16Z</time>
      </trkpt>
      <trkpt lat="44.67052" lon="2.89252">
        <ele>1167.8</ele>
        <time>2022-08-05T14:29:22Z</time>
      </trkpt>
      <trkpt lat="44.6705" lon="2.89238">
        <ele>1167.9</ele>
        <time>2022-08-05T14:29:30Z</time>
      </trkpt>
      <trkpt lat="44.6705" lon="2.89236">
        <ele>1167.9</ele>
        <time>2022-08-05T14:29:31Z</time>
      </trkpt>
      <trkpt lat="44.67049" lon="2.89219">
        <ele>1168.1</ele>
        <time>2022-08-05T14:29:41Z</time>
      </trkpt>
      <trkpt lat="44.67048" lon="2.89209">
        <ele>1168.6</ele>
        <time>2022-08-05T14:29:48Z</time>
      </trkpt>
      <trkpt lat="44.67047" lon="2.89202">
        <ele>1169</ele>
        <time>2022-08-05T14:29:53Z</time>
      </trkpt>
      <trkpt lat="44.67046" lon="2.89192">
        <ele>1169.4</ele>
        <time>2022-08-05T14:30:00Z</time>
      </trkpt>
      <trkpt lat="44.67045" lon="2.89179">
        <ele>1169.9</ele>
        <time>2022-08-05T14:30:08Z</time>
      </trkpt>
      <trkpt lat="44.67045" lon="2.89176">
        <ele>1170</ele>
        <time>2022-08-05T14:30:10Z</time>
      </trkpt>
      <trkpt lat="44.67045" lon="2.89163">
        <ele>1170.5</ele>
        <time>2022-08-05T14:30:20Z</time>
      </trkpt>
      <trkpt lat="44.67046" lon="2.89152">
        <ele>1170.7</ele>
        <time>2022-08-05T14:30:27Z</time>
      </trkpt>
      <trkpt lat="44.67047" lon="2.89136">
        <ele>1170.9</ele>
        <time>2022-08-05T14:30:37Z</time>
      </trkpt>
      <trkpt lat="44.67048" lon="2.89133">
        <ele>1170.8</ele>
        <time>2022-08-05T14:30:39Z</time>
      </trkpt>
      <trkpt lat="44.67048" lon="2.89128">
        <ele>1170.6</ele>
        <time>2022-08-05T14:30:45Z</time>
      </trkpt>
      <trkpt lat="44.67047" lon="2.89128">
        <ele>1170.6</ele>
        <time>2022-08-05T14:30:46Z</time>
      </trkpt>
      <trkpt lat="44.67049" lon="2.8913">
        <ele>1170.7</ele>
        <time>2022-08-05T14:30:55Z</time>
      </trkpt>
      <trkpt lat="44.67049" lon="2.8913">
        <ele>1170.7</ele>
        <time>2022-08-05T14:31:00Z</time>
      </trkpt>
      <trkpt lat="44.67046" lon="2.89122">
        <ele>1170.4</ele>
        <time>2022-08-05T14:31:06Z</time>
      </trkpt>
      <trkpt lat="44.67044" lon="2.89113">
        <ele>1170.1</ele>
        <time>2022-08-05T14:31:12Z</time>
      </trkpt>
      <trkpt lat="44.67042" lon="2.89105">
        <ele>1169.8</ele>
        <time>2022-08-05T14:31:19Z</time>
      </trkpt>
      <trkpt lat="44.67041" lon="2.89095">
        <ele>1169.4</ele>
        <time>2022-08-05T14:31:25Z</time>
      </trkpt>
      <trkpt lat="44.6704" lon="2.89088">
        <ele>1169.2</ele>
        <time>2022-08-05T14:31:29Z</time>
      </trkpt>
      <trkpt lat="44.67038" lon="2.89074">
        <ele>1168.5</ele>
        <time>2022-08-05T14:31:37Z</time>
      </trkpt>
      <trkpt lat="44.67038" lon="2.89068">
        <ele>1168.3</ele>
        <time>2022-08-05T14:31:40Z</time>
      </trkpt>
      <trkpt lat="44.67036" lon="2.89055">
        <ele>1167.7</ele>
        <time>2022-08-05T14:31:48Z</time>
      </trkpt>
      <trkpt lat="44.67035" lon="2.89048">
        <ele>1167.5</ele>
        <time>2022-08-05T14:31:52Z</time>
      </trkpt>
      <trkpt lat="44.67035" lon="2.89036">
        <ele>1167.1</ele>
        <time>2022-08-05T14:31:59Z</time>
      </trkpt>
      <trkpt lat="44.67034" lon="2.89016">
        <ele>1166.3</ele>
        <time>2022-08-05T14:32:12Z</time>
      </trkpt>
      <trkpt lat="44.67034" lon="2.89016">
        <ele>1166.3</ele>
        <time>2022-08-05T14:32:13Z</time>
      </trkpt>
      <trkpt lat="44.67034" lon="2.89016">
        <ele>1166.3</ele>
        <time>2022-08-05T14:32:14Z</time>
      </trkpt>
      <trkpt lat="44.67034" lon="2.89017">
        <ele>1166.4</ele>
        <time>2022-08-05T14:32:17Z</time>
      </trkpt>
      <trkpt lat="44.67035" lon="2.89016">
        <ele>1166.3</ele>
        <time>2022-08-05T14:32:19Z</time>
      </trkpt>
      <trkpt lat="44.67034" lon="2.89005">
        <ele>1166</ele>
        <time>2022-08-05T14:32:25Z</time>
      </trkpt>
      <trkpt lat="44.67032" lon="2.88989">
        <ele>1165.4</ele>
        <time>2022-08-05T14:32:35Z</time>
      </trkpt>
      <trkpt lat="44.67032" lon="2.88979">
        <ele>1165.1</ele>
        <time>2022-08-05T14:32:40Z</time>
      </trkpt>
      <trkpt lat="44.67032" lon="2.8897">
        <ele>1164.7</ele>
        <time>2022-08-05T14:32:45Z</time>
      </trkpt>
      <trkpt lat="44.67033" lon="2.88959">
        <ele>1164.3</ele>
        <time>2022-08-05T14:32:51Z</time>
      </trkpt>
      <trkpt lat="44.67033" lon="2.88951">
        <ele>1164</ele>
        <time>2022-08-05T14:32:56Z</time>
      </trkpt>
      <trkpt lat="44.67031" lon="2.88929">
        <ele>1163.2</ele>
        <time>2022-08-05T14:33:08Z</time>
      </trkpt>
      <trkpt lat="44.67031" lon="2.88926">
        <ele>1163.1</ele>
        <time>2022-08-05T14:33:10Z</time>
      </trkpt>
      <trkpt lat="44.6703" lon="2.88911">
        <ele>1162.4</ele>
        <time>2022-08-05T14:33:19Z</time>
      </trkpt>
      <trkpt lat="44.67028" lon="2.88893">
        <ele>1161.3</ele>
        <time>2022-08-05T14:33:30Z</time>
      </trkpt>
      <trkpt lat="44.67028" lon="2.88876">
        <ele>1159.7</ele>
        <time>2022-08-05T14:33:40Z</time>
      </trkpt>
      <trkpt lat="44.67027" lon="2.88875">
        <ele>1159.5</ele>
        <time>2022-08-05T14:33:41Z</time>
      </trkpt>
      <trkpt lat="44.67026" lon="2.8886">
        <ele>1158</ele>
        <time>2022-08-05T14:33:50Z</time>
      </trkpt>
      <trkpt lat="44.67026" lon="2.88854">
        <ele>1157.4</ele>
        <time>2022-08-05T14:33:54Z</time>
      </trkpt>
      <trkpt lat="44.67025" lon="2.88851">
        <ele>1157.1</ele>
        <time>2022-08-05T14:33:56Z</time>
      </trkpt>
      <trkpt lat="44.67024" lon="2.8884">
        <ele>1155.9</ele>
        <time>2022-08-05T14:34:04Z</time>
      </trkpt>
      <trkpt lat="44.67024" lon="2.88838">
        <ele>1155.8</ele>
        <time>2022-08-05T14:34:05Z</time>
      </trkpt>
      <trkpt lat="44.67024" lon="2.88828">
        <ele>1154.7</ele>
        <time>2022-08-05T14:34:12Z</time>
      </trkpt>
      <trkpt lat="44.67024" lon="2.88827">
        <ele>1154.5</ele>
        <time>2022-08-05T14:34:13Z</time>
      </trkpt>
      <trkpt lat="44.67025" lon="2.88816">
        <ele>1153.3</ele>
        <time>2022-08-05T14:34:21Z</time>
      </trkpt>
      <trkpt lat="44.67025" lon="2.88812">
        <ele>1152.8</ele>
        <time>2022-08-05T14:34:24Z</time>
      </trkpt>
      <trkpt lat="44.67024" lon="2.88804">
        <ele>1151.9</ele>
        <time>2022-08-05T14:34:30Z</time>
      </trkpt>
      <trkpt lat="44.67023" lon="2.88795">
        <ele>1150.7</ele>
        <time>2022-08-05T14:34:36Z</time>
      </trkpt>
      <trkpt lat="44.67022" lon="2.88788">
        <ele>1149.7</ele>
        <time>2022-08-05T14:34:41Z</time>
      </trkpt>
      <trkpt lat="44.67022" lon="2.88787">
        <ele>1149.5</ele>
        <time>2022-08-05T14:34:42Z</time>
      </trkpt>
      <trkpt lat="44.67021" lon="2.88777">
        <ele>1148.1</ele>
        <time>2022-08-05T14:34:49Z</time>
      </trkpt>
      <trkpt lat="44.67021" lon="2.88769">
        <ele>1147.2</ele>
        <time>2022-08-05T14:34:54Z</time>
      </trkpt>
      <trkpt lat="44.6702" lon="2.88763">
        <ele>1146.5</ele>
        <time>2022-08-05T14:34:58Z</time>
      </trkpt>
      <trkpt lat="44.6702" lon="2.88757">
        <ele>1145.8</ele>
        <time>2022-08-05T14:35:02Z</time>
      </trkpt>
      <trkpt lat="44.67021" lon="2.88753">
        <ele>1145.4</ele>
        <time>2022-08-05T14:35:05Z</time>
      </trkpt>
      <trkpt lat="44.67022" lon="2.88744">
        <ele>1144.1</ele>
        <time>2022-08-05T14:35:11Z</time>
      </trkpt>
      <trkpt lat="44.67023" lon="2.8874">
        <ele>1143.5</ele>
        <time>2022-08-05T14:35:14Z</time>
      </trkpt>
      <trkpt lat="44.67022" lon="2.88736">
        <ele>1142.8</ele>
        <time>2022-08-05T14:35:17Z</time>
      </trkpt>
      <trkpt lat="44.6702" lon="2.88731">
        <ele>1142.1</ele>
        <time>2022-08-05T14:35:20Z</time>
      </trkpt>
      <trkpt lat="44.67021" lon="2.88724">
        <ele>1140.9</ele>
        <time>2022-08-05T14:35:24Z</time>
      </trkpt>
      <trkpt lat="44.67021" lon="2.88717">
        <ele>1140.3</ele>
        <time>2022-08-05T14:35:28Z</time>
      </trkpt>
      <trkpt lat="44.67021" lon="2.88712">
        <ele>1139.9</ele>
        <time>2022-08-05T14:35:31Z</time>
      </trkpt>
      <trkpt lat="44.67021" lon="2.887">
        <ele>1139</ele>
        <time>2022-08-05T14:35:38Z</time>
      </trkpt>
      <trkpt lat="44.67021" lon="2.88699">
        <ele>1138.9</ele>
        <time>2022-08-05T14:35:39Z</time>
      </trkpt>
      <trkpt lat="44.67021" lon="2.88683">
        <ele>1137.8</ele>
        <time>2022-08-05T14:35:48Z</time>
      </trkpt>
      <trkpt lat="44.6702" lon="2.88678">
        <ele>1137.4</ele>
        <time>2022-08-05T14:35:51Z</time>
      </trkpt>
      <trkpt lat="44.6702" lon="2.88666">
        <ele>1136.7</ele>
        <time>2022-08-05T14:35:58Z</time>
      </trkpt>
      <trkpt lat="44.6702" lon="2.8866">
        <ele>1136.5</ele>
        <time>2022-08-05T14:36:01Z</time>
      </trkpt>
      <trkpt lat="44.6702" lon="2.88637">
        <ele>1135.9</ele>
        <time>2022-08-05T14:36:13Z</time>
      </trkpt>
      <trkpt lat="44.6702" lon="2.88635">
        <ele>1135.9</ele>
        <time>2022-08-05T14:36:14Z</time>
      </trkpt>
      <trkpt lat="44.6702" lon="2.88618">
        <ele>1135.3</ele>
        <time>2022-08-05T14:36:23Z</time>
      </trkpt>
      <trkpt lat="44.67021" lon="2.88609">
        <ele>1134.9</ele>
        <time>2022-08-05T14:36:28Z</time>
      </trkpt>
      <trkpt lat="44.67021" lon="2.88594">
        <ele>1133.8</ele>
        <time>2022-08-05T14:36:36Z</time>
      </trkpt>
      <trkpt lat="44.67021" lon="2.88586">
        <ele>1133.2</ele>
        <time>2022-08-05T14:36:40Z</time>
      </trkpt>
      <trkpt lat="44.67021" lon="2.88579">
        <ele>1132.7</ele>
        <time>2022-08-05T14:36:45Z</time>
      </trkpt>
      <trkpt lat="44.67021" lon="2.88577">
        <ele>1132.5</ele>
        <time>2022-08-05T14:36:47Z</time>
      </trkpt>
      <trkpt lat="44.67021" lon="2.88564">
        <ele>1131.6</ele>
        <time>2022-08-05T14:36:55Z</time>
      </trkpt>
      <trkpt lat="44.67021" lon="2.88559">
        <ele>1131.2</ele>
        <time>2022-08-05T14:36:58Z</time>
      </trkpt>
      <trkpt lat="44.67021" lon="2.88542">
        <ele>1129.6</ele>
        <time>2022-08-05T14:37:09Z</time>
      </trkpt>
      <trkpt lat="44.67021" lon="2.8854">
        <ele>1129.5</ele>
        <time>2022-08-05T14:37:10Z</time>
      </trkpt>
      <trkpt lat="44.67021" lon="2.88539">
        <ele>1129.4</ele>
        <time>2022-08-05T14:37:13Z</time>
      </trkpt>
      <trkpt lat="44.67021" lon="2.88539">
        <ele>1129.3</ele>
        <time>2022-08-05T14:37:14Z</time>
      </trkpt>
      <trkpt lat="44.67021" lon="2.88532">
        <ele>1128.7</ele>
        <time>2022-08-05T14:37:19Z</time>
      </trkpt>
      <trkpt lat="44.67021" lon="2.88526">
        <ele>1128.1</ele>
        <time>2022-08-05T14:37:23Z</time>
      </trkpt>
      <trkpt lat="44.67022" lon="2.88516">
        <ele>1127.3</ele>
        <time>2022-08-05T14:37:29Z</time>
      </trkpt>
      <trkpt lat="44.67022" lon="2.88508">
        <ele>1126.6</ele>
        <time>2022-08-05T14:37:33Z</time>
      </trkpt>
      <trkpt lat="44.67022" lon="2.88503">
        <ele>1126.2</ele>
        <time>2022-08-05T14:37:37Z</time>
      </trkpt>
      <trkpt lat="44.67023" lon="2.88498">
        <ele>1125.8</ele>
        <time>2022-08-05T14:37:41Z</time>
      </trkpt>
      <trkpt lat="44.67022" lon="2.88496">
        <ele>1125.7</ele>
        <time>2022-08-05T14:37:45Z</time>
      </trkpt>
      <trkpt lat="44.67022" lon="2.88497">
        <ele>1125.8</ele>
        <time>2022-08-05T14:37:47Z</time>
      </trkpt>
      <trkpt lat="44.67024" lon="2.88499">
        <ele>1125.9</ele>
        <time>2022-08-05T14:37:56Z</time>
      </trkpt>
      <trkpt lat="44.67024" lon="2.88496">
        <ele>1125.7</ele>
        <time>2022-08-05T14:38:06Z</time>
      </trkpt>
      <trkpt lat="44.67025" lon="2.88491">
        <ele>1125.4</ele>
        <time>2022-08-05T14:38:08Z</time>
      </trkpt>
      <trkpt lat="44.67025" lon="2.88486">
        <ele>1125</ele>
        <time>2022-08-05T14:38:10Z</time>
      </trkpt>
      <trkpt lat="44.67027" lon="2.88474">
        <ele>1124.1</ele>
        <time>2022-08-05T14:38:16Z</time>
      </trkpt>
      <trkpt lat="44.67028" lon="2.88472">
        <ele>1124</ele>
        <time>2022-08-05T14:38:17Z</time>
      </trkpt>
      <trkpt lat="44.6703" lon="2.88468">
        <ele>1123.5</ele>
        <time>2022-08-05T14:38:20Z</time>
      </trkpt>
      <trkpt lat="44.67031" lon="2.88463">
        <ele>1123.1</ele>
        <time>2022-08-05T14:38:23Z</time>
      </trkpt>
      <trkpt lat="44.67031" lon="2.88457">
        <ele>1122.7</ele>
        <time>2022-08-05T14:38:26Z</time>
      </trkpt>
      <trkpt lat="44.67031" lon="2.88445">
        <ele>1121.9</ele>
        <time>2022-08-05T14:38:33Z</time>
      </trkpt>
      <trkpt lat="44.67031" lon="2.88429">
        <ele>1120.8</ele>
        <time>2022-08-05T14:38:42Z</time>
      </trkpt>
      <trkpt lat="44.6703" lon="2.88423">
        <ele>1120.4</ele>
        <time>2022-08-05T14:38:46Z</time>
      </trkpt>
      <trkpt lat="44.67028" lon="2.88415">
        <ele>1119.8</ele>
        <time>2022-08-05T14:38:51Z</time>
      </trkpt>
      <trkpt lat="44.67028" lon="2.88408">
        <ele>1119.4</ele>
        <time>2022-08-05T14:38:55Z</time>
      </trkpt>
      <trkpt lat="44.67028" lon="2.88402">
        <ele>1118.9</ele>
        <time>2022-08-05T14:38:59Z</time>
      </trkpt>
      <trkpt lat="44.67029" lon="2.88397">
        <ele>1118.6</ele>
        <time>2022-08-05T14:39:02Z</time>
      </trkpt>
      <trkpt lat="44.6703" lon="2.88395">
        <ele>1118.4</ele>
        <time>2022-08-05T14:39:04Z</time>
      </trkpt>
      <trkpt lat="44.67033" lon="2.88387">
        <ele>1117.9</ele>
        <time>2022-08-05T14:39:09Z</time>
      </trkpt>
      <trkpt lat="44.67034" lon="2.88385">
        <ele>1117.7</ele>
        <time>2022-08-05T14:39:11Z</time>
      </trkpt>
      <trkpt lat="44.67033" lon="2.88371">
        <ele>1116.7</ele>
        <time>2022-08-05T14:39:18Z</time>
      </trkpt>
      <trkpt lat="44.67033" lon="2.88357">
        <ele>1115.7</ele>
        <time>2022-08-05T14:39:26Z</time>
      </trkpt>
      <trkpt lat="44.67037" lon="2.88349">
        <ele>1115.1</ele>
        <time>2022-08-05T14:39:33Z</time>
      </trkpt>
      <trkpt lat="44.67037" lon="2.88345">
        <ele>1114.8</ele>
        <time>2022-08-05T14:39:36Z</time>
      </trkpt>
      <trkpt lat="44.67037" lon="2.88333">
        <ele>1114</ele>
        <time>2022-08-05T14:39:43Z</time>
      </trkpt>
      <trkpt lat="44.67038" lon="2.88326">
        <ele>1113.4</ele>
        <time>2022-08-05T14:39:48Z</time>
      </trkpt>
      <trkpt lat="44.67038" lon="2.8832">
        <ele>1112.9</ele>
        <time>2022-08-05T14:39:52Z</time>
      </trkpt>
      <trkpt lat="44.67038" lon="2.88312">
        <ele>1112.2</ele>
        <time>2022-08-05T14:39:57Z</time>
      </trkpt>
      <trkpt lat="44.67038" lon="2.88304">
        <ele>1111.5</ele>
        <time>2022-08-05T14:40:02Z</time>
      </trkpt>
      <trkpt lat="44.67038" lon="2.88301">
        <ele>1111.3</ele>
        <time>2022-08-05T14:40:04Z</time>
      </trkpt>
      <trkpt lat="44.67038" lon="2.8829">
        <ele>1110.5</ele>
        <time>2022-08-05T14:40:11Z</time>
      </trkpt>
      <trkpt lat="44.67039" lon="2.88285">
        <ele>1110.2</ele>
        <time>2022-08-05T14:40:14Z</time>
      </trkpt>
      <trkpt lat="44.67038" lon="2.88279">
        <ele>1109.7</ele>
        <time>2022-08-05T14:40:18Z</time>
      </trkpt>
      <trkpt lat="44.67038" lon="2.8827">
        <ele>1109</ele>
        <time>2022-08-05T14:40:24Z</time>
      </trkpt>
      <trkpt lat="44.67038" lon="2.88268">
        <ele>1108.9</ele>
        <time>2022-08-05T14:40:25Z</time>
      </trkpt>
      <trkpt lat="44.67038" lon="2.88264">
        <ele>1108.7</ele>
        <time>2022-08-05T14:40:27Z</time>
      </trkpt>
      <trkpt lat="44.67037" lon="2.88258">
        <ele>1108.3</ele>
        <time>2022-08-05T14:40:30Z</time>
      </trkpt>
      <trkpt lat="44.67037" lon="2.88248">
        <ele>1107.5</ele>
        <time>2022-08-05T14:40:36Z</time>
      </trkpt>
      <trkpt lat="44.67037" lon="2.88247">
        <ele>1107.4</ele>
        <time>2022-08-05T14:40:37Z</time>
      </trkpt>
      <trkpt lat="44.67037" lon="2.88244">
        <ele>1107.2</ele>
        <time>2022-08-05T14:40:39Z</time>
      </trkpt>
      <trkpt lat="44.67036" lon="2.88229">
        <ele>1106.2</ele>
        <time>2022-08-05T14:40:48Z</time>
      </trkpt>
      <trkpt lat="44.67034" lon="2.88212">
        <ele>1105.4</ele>
        <time>2022-08-05T14:40:57Z</time>
      </trkpt>
      <trkpt lat="44.67033" lon="2.88193">
        <ele>1104.7</ele>
        <time>2022-08-05T14:41:08Z</time>
      </trkpt>
      <trkpt lat="44.67033" lon="2.88191">
        <ele>1104.7</ele>
        <time>2022-08-05T14:41:09Z</time>
      </trkpt>
      <trkpt lat="44.67034" lon="2.88178">
        <ele>1104.2</ele>
        <time>2022-08-05T14:41:18Z</time>
      </trkpt>
      <trkpt lat="44.67033" lon="2.88166">
        <ele>1103.8</ele>
        <time>2022-08-05T14:41:25Z</time>
      </trkpt>
      <trkpt lat="44.67033" lon="2.8816">
        <ele>1103.6</ele>
        <time>2022-08-05T14:41:28Z</time>
      </trkpt>
      <trkpt lat="44.67031" lon="2.88139">
        <ele>1102.9</ele>
        <time>2022-08-05T14:41:40Z</time>
      </trkpt>
      <trkpt lat="44.67031" lon="2.88131">
        <ele>1102.6</ele>
        <time>2022-08-05T14:41:44Z</time>
      </trkpt>
      <trkpt lat="44.67031" lon="2.8812">
        <ele>1102.1</ele>
        <time>2022-08-05T14:41:50Z</time>
      </trkpt>
      <trkpt lat="44.67031" lon="2.88101">
        <ele>1101.4</ele>
        <time>2022-08-05T14:42:01Z</time>
      </trkpt>
      <trkpt lat="44.67031" lon="2.88097">
        <ele>1101.2</ele>
        <time>2022-08-05T14:42:03Z</time>
      </trkpt>
      <trkpt lat="44.67032" lon="2.88095">
        <ele>1101.2</ele>
        <time>2022-08-05T14:42:04Z</time>
      </trkpt>
      <trkpt lat="44.67031" lon="2.88079">
        <ele>1100.5</ele>
        <time>2022-08-05T14:42:14Z</time>
      </trkpt>
      <trkpt lat="44.67031" lon="2.88067">
        <ele>1099.6</ele>
        <time>2022-08-05T14:42:21Z</time>
      </trkpt>
      <trkpt lat="44.6703" lon="2.88059">
        <ele>1099.1</ele>
        <time>2022-08-05T14:42:26Z</time>
      </trkpt>
      <trkpt lat="44.6703" lon="2.88056">
        <ele>1098.9</ele>
        <time>2022-08-05T14:42:31Z</time>
      </trkpt>
      <trkpt lat="44.6703" lon="2.88056">
        <ele>1098.9</ele>
        <time>2022-08-05T14:42:33Z</time>
      </trkpt>
      <trkpt lat="44.67028" lon="2.8805">
        <ele>1098.8</ele>
        <time>2022-08-05T14:42:39Z</time>
      </trkpt>
      <trkpt lat="44.67027" lon="2.88047">
        <ele>1098.6</ele>
        <time>2022-08-05T14:42:45Z</time>
      </trkpt>
      <trkpt lat="44.67027" lon="2.88045">
        <ele>1098.5</ele>
        <time>2022-08-05T14:42:46Z</time>
      </trkpt>
      <trkpt lat="44.67024" lon="2.88034">
        <ele>1097.9</ele>
        <time>2022-08-05T14:42:53Z</time>
      </trkpt>
      <trkpt lat="44.67022" lon="2.88024">
        <ele>1097.5</ele>
        <time>2022-08-05T14:42:59Z</time>
      </trkpt>
      <trkpt lat="44.67021" lon="2.88018">
        <ele>1097.2</ele>
        <time>2022-08-05T14:43:03Z</time>
      </trkpt>
      <trkpt lat="44.67017" lon="2.88001">
        <ele>1096.6</ele>
        <time>2022-08-05T14:43:13Z</time>
      </trkpt>
      <trkpt lat="44.67013" lon="2.87985">
        <ele>1096.5</ele>
        <time>2022-08-05T14:43:22Z</time>
      </trkpt>
      <trkpt lat="44.67012" lon="2.87979">
        <ele>1096.5</ele>
        <time>2022-08-05T14:43:26Z</time>
      </trkpt>
      <trkpt lat="44.6701" lon="2.87967">
        <ele>1096.6</ele>
        <time>2022-08-05T14:43:33Z</time>
      </trkpt>
      <trkpt lat="44.67008" lon="2.87951">
        <ele>1096.7</ele>
        <time>2022-08-05T14:43:42Z</time>
      </trkpt>
      <trkpt lat="44.67006" lon="2.87936">
        <ele>1096.5</ele>
        <time>2022-08-05T14:43:51Z</time>
      </trkpt>
      <trkpt lat="44.67006" lon="2.87923">
        <ele>1096</ele>
        <time>2022-08-05T14:43:59Z</time>
      </trkpt>
      <trkpt lat="44.67005" lon="2.8792">
        <ele>1095.9</ele>
        <time>2022-08-05T14:44:01Z</time>
      </trkpt>
      <trkpt lat="44.67" lon="2.87901">
        <ele>1096</ele>
        <time>2022-08-05T14:44:13Z</time>
      </trkpt>
      <trkpt lat="44.66997" lon="2.87882">
        <ele>1095.7</ele>
        <time>2022-08-05T14:44:24Z</time>
      </trkpt>
      <trkpt lat="44.66994" lon="2.87865">
        <ele>1095.1</ele>
        <time>2022-08-05T14:44:34Z</time>
      </trkpt>
      <trkpt lat="44.66991" lon="2.87843">
        <ele>1094.3</ele>
        <time>2022-08-05T14:44:46Z</time>
      </trkpt>
      <trkpt lat="44.6699" lon="2.87839">
        <ele>1094.2</ele>
        <time>2022-08-05T14:44:49Z</time>
      </trkpt>
      <trkpt lat="44.66989" lon="2.87831">
        <ele>1093.9</ele>
        <time>2022-08-05T14:44:54Z</time>
      </trkpt>
      <trkpt lat="44.66986" lon="2.87816">
        <ele>1093.1</ele>
        <time>2022-08-05T14:45:05Z</time>
      </trkpt>
      <trkpt lat="44.66986" lon="2.87815">
        <ele>1093</ele>
        <time>2022-08-05T14:45:06Z</time>
      </trkpt>
      <trkpt lat="44.66984" lon="2.87804">
        <ele>1092.5</ele>
        <time>2022-08-05T14:45:13Z</time>
      </trkpt>
      <trkpt lat="44.66984" lon="2.87801">
        <ele>1092.3</ele>
        <time>2022-08-05T14:45:15Z</time>
      </trkpt>
      <trkpt lat="44.66981" lon="2.87782">
        <ele>1091.3</ele>
        <time>2022-08-05T14:45:27Z</time>
      </trkpt>
      <trkpt lat="44.66979" lon="2.87771">
        <ele>1090.5</ele>
        <time>2022-08-05T14:45:35Z</time>
      </trkpt>
      <trkpt lat="44.66977" lon="2.87764">
        <ele>1090</ele>
        <time>2022-08-05T14:45:39Z</time>
      </trkpt>
      <trkpt lat="44.66975" lon="2.87749">
        <ele>1088.9</ele>
        <time>2022-08-05T14:45:49Z</time>
      </trkpt>
      <trkpt lat="44.66972" lon="2.87737">
        <ele>1088</ele>
        <time>2022-08-05T14:45:57Z</time>
      </trkpt>
      <trkpt lat="44.66972" lon="2.87735">
        <ele>1087.9</ele>
        <time>2022-08-05T14:45:58Z</time>
      </trkpt>
      <trkpt lat="44.66967" lon="2.87717">
        <ele>1086.7</ele>
        <time>2022-08-05T14:46:09Z</time>
      </trkpt>
      <trkpt lat="44.66966" lon="2.87698">
        <ele>1086.1</ele>
        <time>2022-08-05T14:46:21Z</time>
      </trkpt>
      <trkpt lat="44.66964" lon="2.87682">
        <ele>1085.7</ele>
        <time>2022-08-05T14:46:32Z</time>
      </trkpt>
      <trkpt lat="44.66964" lon="2.87679">
        <ele>1085.6</ele>
        <time>2022-08-05T14:46:34Z</time>
      </trkpt>
      <trkpt lat="44.66965" lon="2.87678">
        <ele>1085.6</ele>
        <time>2022-08-05T14:46:37Z</time>
      </trkpt>
      <trkpt lat="44.66965" lon="2.87678">
        <ele>1085.6</ele>
        <time>2022-08-05T14:46:38Z</time>
      </trkpt>
      <trkpt lat="44.66965" lon="2.87677">
        <ele>1085.6</ele>
        <time>2022-08-05T14:46:39Z</time>
      </trkpt>
      <trkpt lat="44.66967" lon="2.87681">
        <ele>1085.6</ele>
        <time>2022-08-05T14:46:48Z</time>
      </trkpt>
      <trkpt lat="44.66968" lon="2.87683">
        <ele>1085.7</ele>
        <time>2022-08-05T14:46:55Z</time>
      </trkpt>
      <trkpt lat="44.66967" lon="2.87679">
        <ele>1085.5</ele>
        <time>2022-08-05T14:47:10Z</time>
      </trkpt>
      <trkpt lat="44.66967" lon="2.87674">
        <ele>1085.4</ele>
        <time>2022-08-05T14:47:20Z</time>
      </trkpt>
      <trkpt lat="44.66965" lon="2.87674">
        <ele>1085.5</ele>
        <time>2022-08-05T14:49:02Z</time>
      </trkpt>
      <trkpt lat="44.66965" lon="2.87673">
        <ele>1085.4</ele>
        <time>2022-08-05T14:49:34Z</time>
      </trkpt>
      <trkpt lat="44.66964" lon="2.87672">
        <ele>1085.4</ele>
        <time>2022-08-05T14:50:27Z</time>
      </trkpt>
      <trkpt lat="44.66964" lon="2.87672">
        <ele>1085.4</ele>
        <time>2022-08-05T14:51:15Z</time>
      </trkpt>
      <trkpt lat="44.66964" lon="2.87672">
        <ele>1085.4</ele>
        <time>2022-08-05T14:51:27Z</time>
      </trkpt>
      <trkpt lat="44.66964" lon="2.87672">
        <ele>1085.4</ele>
        <time>2022-08-05T14:51:42Z</time>
      </trkpt>
      <trkpt lat="44.66965" lon="2.87673">
        <ele>1085.4</ele>
        <time>2022-08-05T14:54:21Z</time>
      </trkpt>
      <trkpt lat="44.66962" lon="2.87663">
        <ele>1085.4</ele>
        <time>2022-08-05T14:55:45Z</time>
      </trkpt>
      <trkpt lat="44.66961" lon="2.87654">
        <ele>1085.4</ele>
        <time>2022-08-05T14:55:49Z</time>
      </trkpt>
      <trkpt lat="44.66958" lon="2.87647">
        <ele>1085.5</ele>
        <time>2022-08-05T14:55:53Z</time>
      </trkpt>
      <trkpt lat="44.66954" lon="2.87623">
        <ele>1084.9</ele>
        <time>2022-08-05T14:56:08Z</time>
      </trkpt>
      <trkpt lat="44.66952" lon="2.876">
        <ele>1084.1</ele>
        <time>2022-08-05T14:56:22Z</time>
      </trkpt>
      <trkpt lat="44.6695" lon="2.87578">
        <ele>1083.2</ele>
        <time>2022-08-05T14:56:36Z</time>
      </trkpt>
      <trkpt lat="44.66949" lon="2.87574">
        <ele>1083</ele>
        <time>2022-08-05T14:56:38Z</time>
      </trkpt>
      <trkpt lat="44.66948" lon="2.87555">
        <ele>1081.8</ele>
        <time>2022-08-05T14:56:49Z</time>
      </trkpt>
      <trkpt lat="44.66948" lon="2.87554">
        <ele>1081.6</ele>
        <time>2022-08-05T14:56:50Z</time>
      </trkpt>
      <trkpt lat="44.66948" lon="2.8754">
        <ele>1080.6</ele>
        <time>2022-08-05T14:56:59Z</time>
      </trkpt>
      <trkpt lat="44.66948" lon="2.87538">
        <ele>1080.5</ele>
        <time>2022-08-05T14:57:00Z</time>
      </trkpt>
      <trkpt lat="44.66947" lon="2.87531">
        <ele>1080.1</ele>
        <time>2022-08-05T14:57:04Z</time>
      </trkpt>
      <trkpt lat="44.66947" lon="2.87523">
        <ele>1079.5</ele>
        <time>2022-08-05T14:57:09Z</time>
      </trkpt>
      <trkpt lat="44.66947" lon="2.87522">
        <ele>1079.4</ele>
        <time>2022-08-05T14:57:10Z</time>
      </trkpt>
      <trkpt lat="44.66946" lon="2.87506">
        <ele>1078.3</ele>
        <time>2022-08-05T14:57:20Z</time>
      </trkpt>
      <trkpt lat="44.66946" lon="2.87504">
        <ele>1078.1</ele>
        <time>2022-08-05T14:57:21Z</time>
      </trkpt>
      <trkpt lat="44.66948" lon="2.87494">
        <ele>1077.3</ele>
        <time>2022-08-05T14:57:28Z</time>
      </trkpt>
      <trkpt lat="44.66948" lon="2.87492">
        <ele>1077.2</ele>
        <time>2022-08-05T14:57:29Z</time>
      </trkpt>
      <trkpt lat="44.66945" lon="2.87478">
        <ele>1076.4</ele>
        <time>2022-08-05T14:57:37Z</time>
      </trkpt>
      <trkpt lat="44.66944" lon="2.87473">
        <ele>1076.1</ele>
        <time>2022-08-05T14:57:40Z</time>
      </trkpt>
      <trkpt lat="44.66942" lon="2.8746">
        <ele>1075.4</ele>
        <time>2022-08-05T14:57:48Z</time>
      </trkpt>
      <trkpt lat="44.66941" lon="2.87456">
        <ele>1075.2</ele>
        <time>2022-08-05T14:57:51Z</time>
      </trkpt>
      <trkpt lat="44.66939" lon="2.87445">
        <ele>1074.6</ele>
        <time>2022-08-05T14:57:57Z</time>
      </trkpt>
      <trkpt lat="44.66937" lon="2.87433">
        <ele>1074.1</ele>
        <time>2022-08-05T14:58:04Z</time>
      </trkpt>
      <trkpt lat="44.66936" lon="2.87422">
        <ele>1073.6</ele>
        <time>2022-08-05T14:58:11Z</time>
      </trkpt>
      <trkpt lat="44.66935" lon="2.87415">
        <ele>1073.2</ele>
        <time>2022-08-05T14:58:15Z</time>
      </trkpt>
      <trkpt lat="44.66933" lon="2.87405">
        <ele>1072.5</ele>
        <time>2022-08-05T14:58:21Z</time>
      </trkpt>
      <trkpt lat="44.66933" lon="2.87404">
        <ele>1072.4</ele>
        <time>2022-08-05T14:58:22Z</time>
      </trkpt>
      <trkpt lat="44.66929" lon="2.87386">
        <ele>1071.3</ele>
        <time>2022-08-05T14:58:32Z</time>
      </trkpt>
      <trkpt lat="44.66929" lon="2.87384">
        <ele>1071.2</ele>
        <time>2022-08-05T14:58:33Z</time>
      </trkpt>
      <trkpt lat="44.66925" lon="2.87371">
        <ele>1070.4</ele>
        <time>2022-08-05T14:58:41Z</time>
      </trkpt>
      <trkpt lat="44.66919" lon="2.87357">
        <ele>1070</ele>
        <time>2022-08-05T14:58:50Z</time>
      </trkpt>
      <trkpt lat="44.66916" lon="2.87342">
        <ele>1069.9</ele>
        <time>2022-08-05T14:58:59Z</time>
      </trkpt>
      <trkpt lat="44.66913" lon="2.87324">
        <ele>1069.4</ele>
        <time>2022-08-05T14:59:09Z</time>
      </trkpt>
      <trkpt lat="44.66908" lon="2.87308">
        <ele>1068.8</ele>
        <time>2022-08-05T14:59:19Z</time>
      </trkpt>
      <trkpt lat="44.66905" lon="2.87292">
        <ele>1068.3</ele>
        <time>2022-08-05T14:59:29Z</time>
      </trkpt>
      <trkpt lat="44.66902" lon="2.87278">
        <ele>1068</ele>
        <time>2022-08-05T14:59:37Z</time>
      </trkpt>
      <trkpt lat="44.669" lon="2.87271">
        <ele>1068.2</ele>
        <time>2022-08-05T14:59:42Z</time>
      </trkpt>
      <trkpt lat="44.66894" lon="2.87246">
        <ele>1068.8</ele>
        <time>2022-08-05T14:59:57Z</time>
      </trkpt>
      <trkpt lat="44.66894" lon="2.87242">
        <ele>1068.8</ele>
        <time>2022-08-05T14:59:59Z</time>
      </trkpt>
      <trkpt lat="44.66889" lon="2.87227">
        <ele>1069</ele>
        <time>2022-08-05T15:00:08Z</time>
      </trkpt>
      <trkpt lat="44.66888" lon="2.87221">
        <ele>1069</ele>
        <time>2022-08-05T15:00:12Z</time>
      </trkpt>
      <trkpt lat="44.66885" lon="2.87206">
        <ele>1069.1</ele>
        <time>2022-08-05T15:00:20Z</time>
      </trkpt>
      <trkpt lat="44.66884" lon="2.87193">
        <ele>1069.2</ele>
        <time>2022-08-05T15:00:28Z</time>
      </trkpt>
      <trkpt lat="44.66884" lon="2.87168">
        <ele>1070.1</ele>
        <time>2022-08-05T15:00:43Z</time>
      </trkpt>
      <trkpt lat="44.66883" lon="2.87162">
        <ele>1070.4</ele>
        <time>2022-08-05T15:00:47Z</time>
      </trkpt>
      <trkpt lat="44.66882" lon="2.87154">
        <ele>1070.7</ele>
        <time>2022-08-05T15:00:54Z</time>
      </trkpt>
      <trkpt lat="44.66884" lon="2.87143">
        <ele>1071</ele>
        <time>2022-08-05T15:01:02Z</time>
      </trkpt>
      <trkpt lat="44.66884" lon="2.87142">
        <ele>1071.1</ele>
        <time>2022-08-05T15:01:03Z</time>
      </trkpt>
      <trkpt lat="44.66887" lon="2.87137">
        <ele>1071.1</ele>
        <time>2022-08-05T15:01:10Z</time>
      </trkpt>
      <trkpt lat="44.66889" lon="2.87132">
        <ele>1071.2</ele>
        <time>2022-08-05T15:01:17Z</time>
      </trkpt>
      <trkpt lat="44.66895" lon="2.87117">
        <ele>1071.6</ele>
        <time>2022-08-05T15:01:27Z</time>
      </trkpt>
      <trkpt lat="44.669" lon="2.87103">
        <ele>1071.9</ele>
        <time>2022-08-05T15:01:37Z</time>
      </trkpt>
      <trkpt lat="44.66903" lon="2.87095">
        <ele>1072.1</ele>
        <time>2022-08-05T15:01:42Z</time>
      </trkpt>
      <trkpt lat="44.66904" lon="2.87092">
        <ele>1072.1</ele>
        <time>2022-08-05T15:01:44Z</time>
      </trkpt>
      <trkpt lat="44.66905" lon="2.87091">
        <ele>1072.2</ele>
        <time>2022-08-05T15:01:45Z</time>
      </trkpt>
      <trkpt lat="44.6691" lon="2.87078">
        <ele>1072.5</ele>
        <time>2022-08-05T15:01:54Z</time>
      </trkpt>
      <trkpt lat="44.66916" lon="2.87063">
        <ele>1072.8</ele>
        <time>2022-08-05T15:02:04Z</time>
      </trkpt>
      <trkpt lat="44.66919" lon="2.87057">
        <ele>1072.8</ele>
        <time>2022-08-05T15:02:09Z</time>
      </trkpt>
      <trkpt lat="44.66922" lon="2.87053">
        <ele>1073</ele>
        <time>2022-08-05T15:02:12Z</time>
      </trkpt>
      <trkpt lat="44.66928" lon="2.87037">
        <ele>1073.7</ele>
        <time>2022-08-05T15:02:23Z</time>
      </trkpt>
      <trkpt lat="44.66928" lon="2.87035">
        <ele>1073.7</ele>
        <time>2022-08-05T15:02:24Z</time>
      </trkpt>
      <trkpt lat="44.66932" lon="2.87029">
        <ele>1073.8</ele>
        <time>2022-08-05T15:02:29Z</time>
      </trkpt>
      <trkpt lat="44.66934" lon="2.87022">
        <ele>1074.1</ele>
        <time>2022-08-05T15:02:33Z</time>
      </trkpt>
      <trkpt lat="44.66935" lon="2.87015">
        <ele>1074.6</ele>
        <time>2022-08-05T15:02:37Z</time>
      </trkpt>
      <trkpt lat="44.66938" lon="2.87005">
        <ele>1075.1</ele>
        <time>2022-08-05T15:02:44Z</time>
      </trkpt>
      <trkpt lat="44.6694" lon="2.87001">
        <ele>1075.2</ele>
        <time>2022-08-05T15:02:47Z</time>
      </trkpt>
      <trkpt lat="44.66944" lon="2.86987">
        <ele>1076.4</ele>
        <time>2022-08-05T15:02:56Z</time>
      </trkpt>
      <trkpt lat="44.66947" lon="2.86983">
        <ele>1076.7</ele>
        <time>2022-08-05T15:02:59Z</time>
      </trkpt>
      <trkpt lat="44.66949" lon="2.8698">
        <ele>1076.9</ele>
        <time>2022-08-05T15:03:02Z</time>
      </trkpt>
      <trkpt lat="44.66953" lon="2.86972">
        <ele>1077.4</ele>
        <time>2022-08-05T15:03:09Z</time>
      </trkpt>
      <trkpt lat="44.66955" lon="2.8697">
        <ele>1077.4</ele>
        <time>2022-08-05T15:03:11Z</time>
      </trkpt>
      <trkpt lat="44.66957" lon="2.86967">
        <ele>1077.6</ele>
        <time>2022-08-05T15:03:14Z</time>
      </trkpt>
      <trkpt lat="44.66958" lon="2.86964">
        <ele>1077.8</ele>
        <time>2022-08-05T15:03:16Z</time>
      </trkpt>
      <trkpt lat="44.66963" lon="2.86955">
        <ele>1078.4</ele>
        <time>2022-08-05T15:03:24Z</time>
      </trkpt>
      <trkpt lat="44.66964" lon="2.86952">
        <ele>1078.6</ele>
        <time>2022-08-05T15:03:26Z</time>
      </trkpt>
      <trkpt lat="44.66965" lon="2.8695">
        <ele>1078.7</ele>
        <time>2022-08-05T15:03:29Z</time>
      </trkpt>
      <trkpt lat="44.66965" lon="2.8695">
        <ele>1078.7</ele>
        <time>2022-08-05T15:03:31Z</time>
      </trkpt>
      <trkpt lat="44.66964" lon="2.8695">
        <ele>1078.8</ele>
        <time>2022-08-05T15:03:42Z</time>
      </trkpt>
      <trkpt lat="44.66968" lon="2.86942">
        <ele>1079.3</ele>
        <time>2022-08-05T15:03:54Z</time>
      </trkpt>
      <trkpt lat="44.66974" lon="2.86924">
        <ele>1080.3</ele>
        <time>2022-08-05T15:04:05Z</time>
      </trkpt>
      <trkpt lat="44.66975" lon="2.86923">
        <ele>1080.4</ele>
        <time>2022-08-05T15:04:06Z</time>
      </trkpt>
      <trkpt lat="44.66978" lon="2.8691">
        <ele>1080.9</ele>
        <time>2022-08-05T15:04:15Z</time>
      </trkpt>
      <trkpt lat="44.66981" lon="2.86901">
        <ele>1080.9</ele>
        <time>2022-08-05T15:04:22Z</time>
      </trkpt>
      <trkpt lat="44.66981" lon="2.86895">
        <ele>1081.1</ele>
        <time>2022-08-05T15:04:25Z</time>
      </trkpt>
      <trkpt lat="44.66982" lon="2.86893">
        <ele>1081.2</ele>
        <time>2022-08-05T15:04:26Z</time>
      </trkpt>
      <trkpt lat="44.66984" lon="2.86878">
        <ele>1081.5</ele>
        <time>2022-08-05T15:04:36Z</time>
      </trkpt>
      <trkpt lat="44.66985" lon="2.86867">
        <ele>1081.9</ele>
        <time>2022-08-05T15:04:43Z</time>
      </trkpt>
      <trkpt lat="44.66985" lon="2.86859">
        <ele>1082.2</ele>
        <time>2022-08-05T15:04:48Z</time>
      </trkpt>
      <trkpt lat="44.66985" lon="2.8684">
        <ele>1082.9</ele>
        <time>2022-08-05T15:04:59Z</time>
      </trkpt>
      <trkpt lat="44.66981" lon="2.86822">
        <ele>1083.7</ele>
        <time>2022-08-05T15:05:11Z</time>
      </trkpt>
      <trkpt lat="44.66979" lon="2.86806">
        <ele>1084.3</ele>
        <time>2022-08-05T15:05:21Z</time>
      </trkpt>
      <trkpt lat="44.66978" lon="2.86805">
        <ele>1084.4</ele>
        <time>2022-08-05T15:05:22Z</time>
      </trkpt>
      <trkpt lat="44.66978" lon="2.86802">
        <ele>1084.5</ele>
        <time>2022-08-05T15:05:24Z</time>
      </trkpt>
      <trkpt lat="44.66976" lon="2.8679">
        <ele>1085.2</ele>
        <time>2022-08-05T15:05:31Z</time>
      </trkpt>
      <trkpt lat="44.66975" lon="2.86783">
        <ele>1085.5</ele>
        <time>2022-08-05T15:05:35Z</time>
      </trkpt>
      <trkpt lat="44.66973" lon="2.86774">
        <ele>1085.9</ele>
        <time>2022-08-05T15:05:41Z</time>
      </trkpt>
      <trkpt lat="44.66971" lon="2.86763">
        <ele>1086.2</ele>
        <time>2022-08-05T15:05:48Z</time>
      </trkpt>
      <trkpt lat="44.66968" lon="2.86753">
        <ele>1086.6</ele>
        <time>2022-08-05T15:05:54Z</time>
      </trkpt>
      <trkpt lat="44.66965" lon="2.86743">
        <ele>1087.1</ele>
        <time>2022-08-05T15:06:00Z</time>
      </trkpt>
      <trkpt lat="44.66964" lon="2.86738">
        <ele>1087.3</ele>
        <time>2022-08-05T15:06:04Z</time>
      </trkpt>
      <trkpt lat="44.66965" lon="2.86739">
        <ele>1087.1</ele>
        <time>2022-08-05T15:06:06Z</time>
      </trkpt>
      <trkpt lat="44.66967" lon="2.86743">
        <ele>1086.9</ele>
        <time>2022-08-05T15:06:09Z</time>
      </trkpt>
      <trkpt lat="44.66968" lon="2.86749">
        <ele>1086.6</ele>
        <time>2022-08-05T15:06:13Z</time>
      </trkpt>
      <trkpt lat="44.66973" lon="2.86762">
        <ele>1086</ele>
        <time>2022-08-05T15:06:21Z</time>
      </trkpt>
      <trkpt lat="44.66974" lon="2.86776">
        <ele>1085.8</ele>
        <time>2022-08-05T15:06:29Z</time>
      </trkpt>
      <trkpt lat="44.66975" lon="2.86786">
        <ele>1085.3</ele>
        <time>2022-08-05T15:06:39Z</time>
      </trkpt>
      <trkpt lat="44.66976" lon="2.86787">
        <ele>1085.3</ele>
        <time>2022-08-05T15:06:41Z</time>
      </trkpt>
      <trkpt lat="44.66977" lon="2.86787">
        <ele>1085.2</ele>
        <time>2022-08-05T15:06:48Z</time>
      </trkpt>
      <trkpt lat="44.66976" lon="2.86787">
        <ele>1085.2</ele>
        <time>2022-08-05T15:07:00Z</time>
      </trkpt>
      <trkpt lat="44.66976" lon="2.86787">
        <ele>1085.2</ele>
        <time>2022-08-05T15:07:03Z</time>
      </trkpt>
      <trkpt lat="44.66975" lon="2.86783">
        <ele>1085.5</ele>
        <time>2022-08-05T15:08:03Z</time>
      </trkpt>
      <trkpt lat="44.66974" lon="2.86779">
        <ele>1085.8</ele>
        <time>2022-08-05T15:08:05Z</time>
      </trkpt>
      <trkpt lat="44.66974" lon="2.86777">
        <ele>1085.8</ele>
        <time>2022-08-05T15:08:06Z</time>
      </trkpt>
      <trkpt lat="44.66971" lon="2.86764">
        <ele>1086.2</ele>
        <time>2022-08-05T15:08:12Z</time>
      </trkpt>
      <trkpt lat="44.6697" lon="2.8676">
        <ele>1086.3</ele>
        <time>2022-08-05T15:08:16Z</time>
      </trkpt>
      <trkpt lat="44.6697" lon="2.86761">
        <ele>1086.3</ele>
        <time>2022-08-05T15:08:18Z</time>
      </trkpt>
      <trkpt lat="44.6697" lon="2.86762">
        <ele>1086.3</ele>
        <time>2022-08-05T15:08:26Z</time>
      </trkpt>
      <trkpt lat="44.6697" lon="2.86762">
        <ele>1086.3</ele>
        <time>2022-08-05T15:08:39Z</time>
      </trkpt>
      <trkpt lat="44.66969" lon="2.86758">
        <ele>1086.4</ele>
        <time>2022-08-05T15:10:15Z</time>
      </trkpt>
      <trkpt lat="44.66966" lon="2.86742">
        <ele>1087</ele>
        <time>2022-08-05T15:10:23Z</time>
      </trkpt>
      <trkpt lat="44.66964" lon="2.86739">
        <ele>1087.3</ele>
        <time>2022-08-05T15:10:25Z</time>
      </trkpt>
      <trkpt lat="44.66963" lon="2.8673">
        <ele>1087.5</ele>
        <time>2022-08-05T15:10:31Z</time>
      </trkpt>
      <trkpt lat="44.66961" lon="2.86716">
        <ele>1088</ele>
        <time>2022-08-05T15:10:40Z</time>
      </trkpt>
      <trkpt lat="44.66961" lon="2.86713">
        <ele>1088.1</ele>
        <time>2022-08-05T15:10:42Z</time>
      </trkpt>
      <trkpt lat="44.66957" lon="2.86696">
        <ele>1088.7</ele>
        <time>2022-08-05T15:10:53Z</time>
      </trkpt>
      <trkpt lat="44.66954" lon="2.86679">
        <ele>1089</ele>
        <time>2022-08-05T15:11:04Z</time>
      </trkpt>
      <trkpt lat="44.6695" lon="2.86661">
        <ele>1089.1</ele>
        <time>2022-08-05T15:11:15Z</time>
      </trkpt>
      <trkpt lat="44.66947" lon="2.86654">
        <ele>1089.1</ele>
        <time>2022-08-05T15:11:20Z</time>
      </trkpt>
      <trkpt lat="44.66946" lon="2.86645">
        <ele>1089</ele>
        <time>2022-08-05T15:11:26Z</time>
      </trkpt>
      <trkpt lat="44.66943" lon="2.86631">
        <ele>1089.3</ele>
        <time>2022-08-05T15:11:35Z</time>
      </trkpt>
      <trkpt lat="44.66938" lon="2.86612">
        <ele>1090.2</ele>
        <time>2022-08-05T15:11:48Z</time>
      </trkpt>
      <trkpt lat="44.66934" lon="2.866">
        <ele>1090.5</ele>
        <time>2022-08-05T15:11:55Z</time>
      </trkpt>
      <trkpt lat="44.66932" lon="2.86597">
        <ele>1090.7</ele>
        <time>2022-08-05T15:11:58Z</time>
      </trkpt>
      <trkpt lat="44.66928" lon="2.86585">
        <ele>1091.1</ele>
        <time>2022-08-05T15:12:06Z</time>
      </trkpt>
      <trkpt lat="44.66924" lon="2.86571">
        <ele>1091.2</ele>
        <time>2022-08-05T15:12:15Z</time>
      </trkpt>
      <trkpt lat="44.66923" lon="2.86564">
        <ele>1091.3</ele>
        <time>2022-08-05T15:12:19Z</time>
      </trkpt>
      <trkpt lat="44.66921" lon="2.86557">
        <ele>1091.3</ele>
        <time>2022-08-05T15:12:23Z</time>
      </trkpt>
      <trkpt lat="44.66917" lon="2.86544">
        <ele>1091.5</ele>
        <time>2022-08-05T15:12:31Z</time>
      </trkpt>
      <trkpt lat="44.66914" lon="2.86531">
        <ele>1091.7</ele>
        <time>2022-08-05T15:12:39Z</time>
      </trkpt>
      <trkpt lat="44.66912" lon="2.86524">
        <ele>1091.7</ele>
        <time>2022-08-05T15:12:43Z</time>
      </trkpt>
      <trkpt lat="44.66907" lon="2.86507">
        <ele>1092</ele>
        <time>2022-08-05T15:12:54Z</time>
      </trkpt>
      <trkpt lat="44.66903" lon="2.86493">
        <ele>1092.2</ele>
        <time>2022-08-05T15:13:04Z</time>
      </trkpt>
      <trkpt lat="44.66899" lon="2.86477">
        <ele>1092.4</ele>
        <time>2022-08-05T15:13:14Z</time>
      </trkpt>
      <trkpt lat="44.66894" lon="2.86461">
        <ele>1092.3</ele>
        <time>2022-08-05T15:13:23Z</time>
      </trkpt>
      <trkpt lat="44.6689" lon="2.86449">
        <ele>1092.2</ele>
        <time>2022-08-05T15:13:31Z</time>
      </trkpt>
      <trkpt lat="44.66887" lon="2.86442">
        <ele>1092.3</ele>
        <time>2022-08-05T15:13:36Z</time>
      </trkpt>
      <trkpt lat="44.66884" lon="2.86435">
        <ele>1092.9</ele>
        <time>2022-08-05T15:13:42Z</time>
      </trkpt>
      <trkpt lat="44.66876" lon="2.8642">
        <ele>1093.9</ele>
        <time>2022-08-05T15:13:53Z</time>
      </trkpt>
      <trkpt lat="44.66869" lon="2.86403">
        <ele>1093.9</ele>
        <time>2022-08-05T15:14:04Z</time>
      </trkpt>
      <trkpt lat="44.66863" lon="2.8639">
        <ele>1093.8</ele>
        <time>2022-08-05T15:14:14Z</time>
      </trkpt>
      <trkpt lat="44.66859" lon="2.8638">
        <ele>1094</ele>
        <time>2022-08-05T15:14:21Z</time>
      </trkpt>
      <trkpt lat="44.66852" lon="2.86369">
        <ele>1094.6</ele>
        <time>2022-08-05T15:14:30Z</time>
      </trkpt>
      <trkpt lat="44.66848" lon="2.86359">
        <ele>1094.8</ele>
        <time>2022-08-05T15:14:37Z</time>
      </trkpt>
      <trkpt lat="44.66843" lon="2.86349">
        <ele>1094.9</ele>
        <time>2022-08-05T15:14:45Z</time>
      </trkpt>
      <trkpt lat="44.6684" lon="2.86343">
        <ele>1094.9</ele>
        <time>2022-08-05T15:14:50Z</time>
      </trkpt>
      <trkpt lat="44.66835" lon="2.86331">
        <ele>1094.8</ele>
        <time>2022-08-05T15:14:58Z</time>
      </trkpt>
      <trkpt lat="44.66832" lon="2.86316">
        <ele>1094.7</ele>
        <time>2022-08-05T15:15:07Z</time>
      </trkpt>
      <trkpt lat="44.66829" lon="2.86307">
        <ele>1094.6</ele>
        <time>2022-08-05T15:15:16Z</time>
      </trkpt>
      <trkpt lat="44.66829" lon="2.86306">
        <ele>1094.6</ele>
        <time>2022-08-05T15:15:27Z</time>
      </trkpt>
      <trkpt lat="44.66825" lon="2.86299">
        <ele>1094.9</ele>
        <time>2022-08-05T15:15:36Z</time>
      </trkpt>
      <trkpt lat="44.66818" lon="2.86281">
        <ele>1095.3</ele>
        <time>2022-08-05T15:15:47Z</time>
      </trkpt>
      <trkpt lat="44.6681" lon="2.86258">
        <ele>1094.9</ele>
        <time>2022-08-05T15:16:02Z</time>
      </trkpt>
      <trkpt lat="44.66801" lon="2.86239">
        <ele>1094.9</ele>
        <time>2022-08-05T15:16:14Z</time>
      </trkpt>
      <trkpt lat="44.66794" lon="2.86223">
        <ele>1095.1</ele>
        <time>2022-08-05T15:16:24Z</time>
      </trkpt>
      <trkpt lat="44.66794" lon="2.86222">
        <ele>1095.1</ele>
        <time>2022-08-05T15:16:25Z</time>
      </trkpt>
      <trkpt lat="44.6679" lon="2.86211">
        <ele>1095.2</ele>
        <time>2022-08-05T15:16:32Z</time>
      </trkpt>
      <trkpt lat="44.66784" lon="2.86195">
        <ele>1095.2</ele>
        <time>2022-08-05T15:16:42Z</time>
      </trkpt>
      <trkpt lat="44.6678" lon="2.86184">
        <ele>1095.3</ele>
        <time>2022-08-05T15:16:50Z</time>
      </trkpt>
      <trkpt lat="44.66778" lon="2.86179">
        <ele>1095.4</ele>
        <time>2022-08-05T15:16:53Z</time>
      </trkpt>
      <trkpt lat="44.66776" lon="2.86173">
        <ele>1095.6</ele>
        <time>2022-08-05T15:16:57Z</time>
      </trkpt>
      <trkpt lat="44.66772" lon="2.86162">
        <ele>1095.9</ele>
        <time>2022-08-05T15:17:04Z</time>
      </trkpt>
      <trkpt lat="44.66771" lon="2.8616">
        <ele>1096.1</ele>
        <time>2022-08-05T15:17:06Z</time>
      </trkpt>
      <trkpt lat="44.6677" lon="2.86158">
        <ele>1096.2</ele>
        <time>2022-08-05T15:17:07Z</time>
      </trkpt>
      <trkpt lat="44.66766" lon="2.86151">
        <ele>1096.5</ele>
        <time>2022-08-05T15:17:12Z</time>
      </trkpt>
      <trkpt lat="44.66762" lon="2.8614">
        <ele>1096.9</ele>
        <time>2022-08-05T15:17:19Z</time>
      </trkpt>
      <trkpt lat="44.66757" lon="2.86127">
        <ele>1097.2</ele>
        <time>2022-08-05T15:17:27Z</time>
      </trkpt>
      <trkpt lat="44.66752" lon="2.86113">
        <ele>1097.7</ele>
        <time>2022-08-05T15:17:35Z</time>
      </trkpt>
      <trkpt lat="44.66752" lon="2.86112">
        <ele>1097.7</ele>
        <time>2022-08-05T15:17:36Z</time>
      </trkpt>
      <trkpt lat="44.66749" lon="2.86099">
        <ele>1097.8</ele>
        <time>2022-08-05T15:17:44Z</time>
      </trkpt>
      <trkpt lat="44.66745" lon="2.86087">
        <ele>1098.1</ele>
        <time>2022-08-05T15:17:52Z</time>
      </trkpt>
      <trkpt lat="44.66744" lon="2.86082">
        <ele>1098.1</ele>
        <time>2022-08-05T15:17:55Z</time>
      </trkpt>
      <trkpt lat="44.66739" lon="2.86056">
        <ele>1098.6</ele>
        <time>2022-08-05T15:18:10Z</time>
      </trkpt>
      <trkpt lat="44.66737" lon="2.86039">
        <ele>1098.6</ele>
        <time>2022-08-05T15:18:20Z</time>
      </trkpt>
      <trkpt lat="44.66734" lon="2.86022">
        <ele>1098.8</ele>
        <time>2022-08-05T15:18:30Z</time>
      </trkpt>
      <trkpt lat="44.66733" lon="2.86012">
        <ele>1099.1</ele>
        <time>2022-08-05T15:18:36Z</time>
      </trkpt>
      <trkpt lat="44.66731" lon="2.86004">
        <ele>1099.3</ele>
        <time>2022-08-05T15:18:41Z</time>
      </trkpt>
      <trkpt lat="44.66729" lon="2.85981">
        <ele>1099.9</ele>
        <time>2022-08-05T15:18:54Z</time>
      </trkpt>
      <trkpt lat="44.66727" lon="2.85969">
        <ele>1100.3</ele>
        <time>2022-08-05T15:19:01Z</time>
      </trkpt>
      <trkpt lat="44.66726" lon="2.85962">
        <ele>1100.5</ele>
        <time>2022-08-05T15:19:05Z</time>
      </trkpt>
      <trkpt lat="44.66726" lon="2.85941">
        <ele>1101</ele>
        <time>2022-08-05T15:19:17Z</time>
      </trkpt>
      <trkpt lat="44.66727" lon="2.85938">
        <ele>1101.2</ele>
        <time>2022-08-05T15:19:19Z</time>
      </trkpt>
      <trkpt lat="44.66727" lon="2.85936">
        <ele>1101.4</ele>
        <time>2022-08-05T15:19:20Z</time>
      </trkpt>
      <trkpt lat="44.66729" lon="2.85922">
        <ele>1102.7</ele>
        <time>2022-08-05T15:19:29Z</time>
      </trkpt>
      <trkpt lat="44.66733" lon="2.85904">
        <ele>1103.5</ele>
        <time>2022-08-05T15:19:40Z</time>
      </trkpt>
      <trkpt lat="44.66735" lon="2.85897">
        <ele>1103.6</ele>
        <time>2022-08-05T15:19:44Z</time>
      </trkpt>
      <trkpt lat="44.66738" lon="2.85889">
        <ele>1103.9</ele>
        <time>2022-08-05T15:19:49Z</time>
      </trkpt>
      <trkpt lat="44.6674" lon="2.85886">
        <ele>1103.8</ele>
        <time>2022-08-05T15:19:52Z</time>
      </trkpt>
      <trkpt lat="44.66743" lon="2.85886">
        <ele>1103.6</ele>
        <time>2022-08-05T15:19:55Z</time>
      </trkpt>
      <trkpt lat="44.66742" lon="2.85886">
        <ele>1103.6</ele>
        <time>2022-08-05T15:19:57Z</time>
      </trkpt>
      <trkpt lat="44.66742" lon="2.85886">
        <ele>1103.6</ele>
        <time>2022-08-05T15:19:59Z</time>
      </trkpt>
      <trkpt lat="44.66742" lon="2.85886">
        <ele>1103.6</ele>
        <time>2022-08-05T15:20:00Z</time>
      </trkpt>
      <trkpt lat="44.66743" lon="2.85886">
        <ele>1103.6</ele>
        <time>2022-08-05T15:20:02Z</time>
      </trkpt>
      <trkpt lat="44.66745" lon="2.85884">
        <ele>1103.5</ele>
        <time>2022-08-05T15:20:07Z</time>
      </trkpt>
      <trkpt lat="44.66746" lon="2.85884">
        <ele>1103.4</ele>
        <time>2022-08-05T15:20:16Z</time>
      </trkpt>
      <trkpt lat="44.66746" lon="2.85886">
        <ele>1103.4</ele>
        <time>2022-08-05T15:22:01Z</time>
      </trkpt>
      <trkpt lat="44.66746" lon="2.85886">
        <ele>1103.4</ele>
        <time>2022-08-05T15:22:11Z</time>
      </trkpt>
      <trkpt lat="44.66754" lon="2.85882">
        <ele>1102.9</ele>
        <time>2022-08-05T15:22:38Z</time>
      </trkpt>
      <trkpt lat="44.66764" lon="2.85871">
        <ele>1102.5</ele>
        <time>2022-08-05T15:22:47Z</time>
      </trkpt>
      <trkpt lat="44.66771" lon="2.85857">
        <ele>1102.5</ele>
        <time>2022-08-05T15:22:57Z</time>
      </trkpt>
      <trkpt lat="44.66772" lon="2.85856">
        <ele>1102.5</ele>
        <time>2022-08-05T15:22:58Z</time>
      </trkpt>
      <trkpt lat="44.66773" lon="2.85852">
        <ele>1102.3</ele>
        <time>2022-08-05T15:23:01Z</time>
      </trkpt>
      <trkpt lat="44.66778" lon="2.85842">
        <ele>1101.9</ele>
        <time>2022-08-05T15:23:08Z</time>
      </trkpt>
      <trkpt lat="44.66786" lon="2.85826">
        <ele>1101.6</ele>
        <time>2022-08-05T15:23:20Z</time>
      </trkpt>
      <trkpt lat="44.66797" lon="2.85805">
        <ele>1101.6</ele>
        <time>2022-08-05T15:23:35Z</time>
      </trkpt>
      <trkpt lat="44.66799" lon="2.85802">
        <ele>1101.6</ele>
        <time>2022-08-05T15:23:37Z</time>
      </trkpt>
      <trkpt lat="44.66799" lon="2.85801">
        <ele>1101.6</ele>
        <time>2022-08-05T15:23:38Z</time>
      </trkpt>
      <trkpt lat="44.66806" lon="2.85787">
        <ele>1101.6</ele>
        <time>2022-08-05T15:23:48Z</time>
      </trkpt>
      <trkpt lat="44.66814" lon="2.85772">
        <ele>1101.5</ele>
        <time>2022-08-05T15:23:59Z</time>
      </trkpt>
      <trkpt lat="44.66816" lon="2.85769">
        <ele>1101.4</ele>
        <time>2022-08-05T15:24:01Z</time>
      </trkpt>
      <trkpt lat="44.66824" lon="2.85757">
        <ele>1101.2</ele>
        <time>2022-08-05T15:24:11Z</time>
      </trkpt>
      <trkpt lat="44.66833" lon="2.85742">
        <ele>1101</ele>
        <time>2022-08-05T15:24:23Z</time>
      </trkpt>
      <trkpt lat="44.66842" lon="2.85729">
        <ele>1100.7</ele>
        <time>2022-08-05T15:24:34Z</time>
      </trkpt>
      <trkpt lat="44.6685" lon="2.85716">
        <ele>1100.2</ele>
        <time>2022-08-05T15:24:44Z</time>
      </trkpt>
      <trkpt lat="44.66855" lon="2.85706">
        <ele>1099.6</ele>
        <time>2022-08-05T15:24:51Z</time>
      </trkpt>
      <trkpt lat="44.66859" lon="2.85701">
        <ele>1099.3</ele>
        <time>2022-08-05T15:24:55Z</time>
      </trkpt>
      <trkpt lat="44.66862" lon="2.85697">
        <ele>1099.1</ele>
        <time>2022-08-05T15:24:59Z</time>
      </trkpt>
      <trkpt lat="44.66864" lon="2.85695">
        <ele>1099</ele>
        <time>2022-08-05T15:25:01Z</time>
      </trkpt>
      <trkpt lat="44.66865" lon="2.85693">
        <ele>1099</ele>
        <time>2022-08-05T15:25:02Z</time>
      </trkpt>
      <trkpt lat="44.66869" lon="2.85684">
        <ele>1098.9</ele>
        <time>2022-08-05T15:25:08Z</time>
      </trkpt>
      <trkpt lat="44.66874" lon="2.85676">
        <ele>1098.7</ele>
        <time>2022-08-05T15:25:13Z</time>
      </trkpt>
      <trkpt lat="44.66876" lon="2.8567">
        <ele>1098.5</ele>
        <time>2022-08-05T15:25:17Z</time>
      </trkpt>
      <trkpt lat="44.66877" lon="2.85665">
        <ele>1098.3</ele>
        <time>2022-08-05T15:25:20Z</time>
      </trkpt>
      <trkpt lat="44.66881" lon="2.85651">
        <ele>1097.6</ele>
        <time>2022-08-05T15:25:28Z</time>
      </trkpt>
      <trkpt lat="44.66885" lon="2.85636">
        <ele>1096.8</ele>
        <time>2022-08-05T15:25:37Z</time>
      </trkpt>
      <trkpt lat="44.66886" lon="2.85629">
        <ele>1096.3</ele>
        <time>2022-08-05T15:25:41Z</time>
      </trkpt>
      <trkpt lat="44.66889" lon="2.8562">
        <ele>1095.6</ele>
        <time>2022-08-05T15:25:47Z</time>
      </trkpt>
      <trkpt lat="44.66891" lon="2.85609">
        <ele>1094.8</ele>
        <time>2022-08-05T15:25:53Z</time>
      </trkpt>
      <trkpt lat="44.66893" lon="2.85605">
        <ele>1094.5</ele>
        <time>2022-08-05T15:25:56Z</time>
      </trkpt>
      <trkpt lat="44.66896" lon="2.85597">
        <ele>1093.7</ele>
        <time>2022-08-05T15:26:02Z</time>
      </trkpt>
      <trkpt lat="44.66899" lon="2.85591">
        <ele>1093.2</ele>
        <time>2022-08-05T15:26:06Z</time>
      </trkpt>
      <trkpt lat="44.66904" lon="2.85581">
        <ele>1092.3</ele>
        <time>2022-08-05T15:26:13Z</time>
      </trkpt>
      <trkpt lat="44.66905" lon="2.8558">
        <ele>1092.2</ele>
        <time>2022-08-05T15:26:14Z</time>
      </trkpt>
      <trkpt lat="44.66911" lon="2.85569">
        <ele>1091.2</ele>
        <time>2022-08-05T15:26:22Z</time>
      </trkpt>
      <trkpt lat="44.66915" lon="2.85564">
        <ele>1090.7</ele>
        <time>2022-08-05T15:26:26Z</time>
      </trkpt>
      <trkpt lat="44.66923" lon="2.85555">
        <ele>1090</ele>
        <time>2022-08-05T15:26:34Z</time>
      </trkpt>
      <trkpt lat="44.66923" lon="2.85554">
        <ele>1089.9</ele>
        <time>2022-08-05T15:26:35Z</time>
      </trkpt>
      <trkpt lat="44.6693" lon="2.85543">
        <ele>1088.9</ele>
        <time>2022-08-05T15:26:43Z</time>
      </trkpt>
      <trkpt lat="44.66931" lon="2.85542">
        <ele>1088.8</ele>
        <time>2022-08-05T15:26:44Z</time>
      </trkpt>
      <trkpt lat="44.66934" lon="2.85535">
        <ele>1088.1</ele>
        <time>2022-08-05T15:26:48Z</time>
      </trkpt>
      <trkpt lat="44.66936" lon="2.85528">
        <ele>1087.3</ele>
        <time>2022-08-05T15:26:53Z</time>
      </trkpt>
      <trkpt lat="44.66938" lon="2.85526">
        <ele>1087</ele>
        <time>2022-08-05T15:26:55Z</time>
      </trkpt>
      <trkpt lat="44.66941" lon="2.85516">
        <ele>1085.8</ele>
        <time>2022-08-05T15:27:01Z</time>
      </trkpt>
      <trkpt lat="44.66941" lon="2.85515">
        <ele>1085.6</ele>
        <time>2022-08-05T15:27:02Z</time>
      </trkpt>
      <trkpt lat="44.66942" lon="2.85513">
        <ele>1085.4</ele>
        <time>2022-08-05T15:27:03Z</time>
      </trkpt>
      <trkpt lat="44.66944" lon="2.85505">
        <ele>1084.6</ele>
        <time>2022-08-05T15:27:08Z</time>
      </trkpt>
      <trkpt lat="44.66947" lon="2.85498">
        <ele>1083.9</ele>
        <time>2022-08-05T15:27:13Z</time>
      </trkpt>
      <trkpt lat="44.66947" lon="2.85496">
        <ele>1083.7</ele>
        <time>2022-08-05T15:27:14Z</time>
      </trkpt>
      <trkpt lat="44.6695" lon="2.85486">
        <ele>1082.7</ele>
        <time>2022-08-05T15:27:20Z</time>
      </trkpt>
      <trkpt lat="44.66952" lon="2.85481">
        <ele>1082.2</ele>
        <time>2022-08-05T15:27:23Z</time>
      </trkpt>
      <trkpt lat="44.66957" lon="2.85468">
        <ele>1080.9</ele>
        <time>2022-08-05T15:27:32Z</time>
      </trkpt>
      <trkpt lat="44.66962" lon="2.85458">
        <ele>1079.9</ele>
        <time>2022-08-05T15:27:39Z</time>
      </trkpt>
      <trkpt lat="44.66964" lon="2.85451">
        <ele>1079.2</ele>
        <time>2022-08-05T15:27:44Z</time>
      </trkpt>
      <trkpt lat="44.66966" lon="2.85445">
        <ele>1078.6</ele>
        <time>2022-08-05T15:27:47Z</time>
      </trkpt>
      <trkpt lat="44.66971" lon="2.85438">
        <ele>1078.1</ele>
        <time>2022-08-05T15:27:52Z</time>
      </trkpt>
      <trkpt lat="44.66977" lon="2.85425">
        <ele>1077.4</ele>
        <time>2022-08-05T15:28:00Z</time>
      </trkpt>
      <trkpt lat="44.66978" lon="2.85424">
        <ele>1077.4</ele>
        <time>2022-08-05T15:28:01Z</time>
      </trkpt>
      <trkpt lat="44.66986" lon="2.85407">
        <ele>1076.4</ele>
        <time>2022-08-05T15:28:12Z</time>
      </trkpt>
      <trkpt lat="44.66986" lon="2.85406">
        <ele>1076.3</ele>
        <time>2022-08-05T15:28:13Z</time>
      </trkpt>
      <trkpt lat="44.66992" lon="2.85392">
        <ele>1075.5</ele>
        <time>2022-08-05T15:28:21Z</time>
      </trkpt>
      <trkpt lat="44.66995" lon="2.85382">
        <ele>1074.9</ele>
        <time>2022-08-05T15:28:27Z</time>
      </trkpt>
      <trkpt lat="44.66997" lon="2.85376">
        <ele>1074.7</ele>
        <time>2022-08-05T15:28:31Z</time>
      </trkpt>
      <trkpt lat="44.67003" lon="2.85359">
        <ele>1074.2</ele>
        <time>2022-08-05T15:28:41Z</time>
      </trkpt>
      <trkpt lat="44.67009" lon="2.85346">
        <ele>1073.8</ele>
        <time>2022-08-05T15:28:50Z</time>
      </trkpt>
      <trkpt lat="44.6701" lon="2.85343">
        <ele>1073.7</ele>
        <time>2022-08-05T15:28:52Z</time>
      </trkpt>
      <trkpt lat="44.67018" lon="2.85328">
        <ele>1073.4</ele>
        <time>2022-08-05T15:29:03Z</time>
      </trkpt>
      <trkpt lat="44.67019" lon="2.85327">
        <ele>1073.3</ele>
        <time>2022-08-05T15:29:04Z</time>
      </trkpt>
      <trkpt lat="44.67025" lon="2.85314">
        <ele>1072.6</ele>
        <time>2022-08-05T15:29:13Z</time>
      </trkpt>
      <trkpt lat="44.67033" lon="2.85298">
        <ele>1071.5</ele>
        <time>2022-08-05T15:29:24Z</time>
      </trkpt>
      <trkpt lat="44.67034" lon="2.85295">
        <ele>1071.3</ele>
        <time>2022-08-05T15:29:26Z</time>
      </trkpt>
      <trkpt lat="44.67043" lon="2.8528">
        <ele>1070.3</ele>
        <time>2022-08-05T15:29:37Z</time>
      </trkpt>
      <trkpt lat="44.6705" lon="2.85266">
        <ele>1069.7</ele>
        <time>2022-08-05T15:29:47Z</time>
      </trkpt>
      <trkpt lat="44.67053" lon="2.85259">
        <ele>1069.4</ele>
        <time>2022-08-05T15:29:51Z</time>
      </trkpt>
      <trkpt lat="44.67054" lon="2.85256">
        <ele>1069.3</ele>
        <time>2022-08-05T15:29:53Z</time>
      </trkpt>
      <trkpt lat="44.67056" lon="2.85253">
        <ele>1069.2</ele>
        <time>2022-08-05T15:29:55Z</time>
      </trkpt>
      <trkpt lat="44.67061" lon="2.85243">
        <ele>1068.7</ele>
        <time>2022-08-05T15:30:01Z</time>
      </trkpt>
      <trkpt lat="44.67063" lon="2.85241">
        <ele>1068.6</ele>
        <time>2022-08-05T15:30:03Z</time>
      </trkpt>
      <trkpt lat="44.67071" lon="2.85227">
        <ele>1068.1</ele>
        <time>2022-08-05T15:30:13Z</time>
      </trkpt>
      <trkpt lat="44.67074" lon="2.85223">
        <ele>1068.1</ele>
        <time>2022-08-05T15:30:17Z</time>
      </trkpt>
      <trkpt lat="44.67078" lon="2.85215">
        <ele>1067.9</ele>
        <time>2022-08-05T15:30:22Z</time>
      </trkpt>
      <trkpt lat="44.67079" lon="2.85214">
        <ele>1067.9</ele>
        <time>2022-08-05T15:30:23Z</time>
      </trkpt>
      <trkpt lat="44.67084" lon="2.85207">
        <ele>1067.9</ele>
        <time>2022-08-05T15:30:29Z</time>
      </trkpt>
      <trkpt lat="44.67085" lon="2.85204">
        <ele>1067.8</ele>
        <time>2022-08-05T15:30:31Z</time>
      </trkpt>
      <trkpt lat="44.67095" lon="2.85191">
        <ele>1067.1</ele>
        <time>2022-08-05T15:30:41Z</time>
      </trkpt>
      <trkpt lat="44.67099" lon="2.85187">
        <ele>1066.9</ele>
        <time>2022-08-05T15:30:45Z</time>
      </trkpt>
      <trkpt lat="44.67105" lon="2.85181">
        <ele>1066.7</ele>
        <time>2022-08-05T15:30:51Z</time>
      </trkpt>
      <trkpt lat="44.67112" lon="2.85173">
        <ele>1066.5</ele>
        <time>2022-08-05T15:30:58Z</time>
      </trkpt>
      <trkpt lat="44.67121" lon="2.85162">
        <ele>1066</ele>
        <time>2022-08-05T15:31:07Z</time>
      </trkpt>
      <trkpt lat="44.67131" lon="2.85153">
        <ele>1065.7</ele>
        <time>2022-08-05T15:31:16Z</time>
      </trkpt>
      <trkpt lat="44.67142" lon="2.85147">
        <ele>1065.5</ele>
        <time>2022-08-05T15:31:26Z</time>
      </trkpt>
      <trkpt lat="44.6715" lon="2.85144">
        <ele>1065</ele>
        <time>2022-08-05T15:31:32Z</time>
      </trkpt>
      <trkpt lat="44.67152" lon="2.85143">
        <ele>1064.8</ele>
        <time>2022-08-05T15:31:34Z</time>
      </trkpt>
      <trkpt lat="44.67163" lon="2.85137">
        <ele>1063.9</ele>
        <time>2022-08-05T15:31:43Z</time>
      </trkpt>
      <trkpt lat="44.67167" lon="2.85133">
        <ele>1063.3</ele>
        <time>2022-08-05T15:31:48Z</time>
      </trkpt>
      <trkpt lat="44.67172" lon="2.85129">
        <ele>1062.8</ele>
        <time>2022-08-05T15:31:52Z</time>
      </trkpt>
      <trkpt lat="44.67174" lon="2.85128">
        <ele>1062.5</ele>
        <time>2022-08-05T15:31:54Z</time>
      </trkpt>
      <trkpt lat="44.67179" lon="2.85121">
        <ele>1061.6</ele>
        <time>2022-08-05T15:32:00Z</time>
      </trkpt>
      <trkpt lat="44.67183" lon="2.85117">
        <ele>1061</ele>
        <time>2022-08-05T15:32:04Z</time>
      </trkpt>
      <trkpt lat="44.67186" lon="2.85115">
        <ele>1060.7</ele>
        <time>2022-08-05T15:32:07Z</time>
      </trkpt>
      <trkpt lat="44.6719" lon="2.85112">
        <ele>1060.2</ele>
        <time>2022-08-05T15:32:11Z</time>
      </trkpt>
      <trkpt lat="44.67196" lon="2.85104">
        <ele>1059.2</ele>
        <time>2022-08-05T15:32:18Z</time>
      </trkpt>
      <trkpt lat="44.67198" lon="2.85102">
        <ele>1059.1</ele>
        <time>2022-08-05T15:32:20Z</time>
      </trkpt>
      <trkpt lat="44.67205" lon="2.85097">
        <ele>1058.6</ele>
        <time>2022-08-05T15:32:27Z</time>
      </trkpt>
      <trkpt lat="44.67211" lon="2.85093">
        <ele>1058.2</ele>
        <time>2022-08-05T15:32:32Z</time>
      </trkpt>
      <trkpt lat="44.67212" lon="2.85092">
        <ele>1058.1</ele>
        <time>2022-08-05T15:32:33Z</time>
      </trkpt>
      <trkpt lat="44.67223" lon="2.85084">
        <ele>1057.2</ele>
        <time>2022-08-05T15:32:42Z</time>
      </trkpt>
      <trkpt lat="44.67226" lon="2.85082">
        <ele>1057.1</ele>
        <time>2022-08-05T15:32:45Z</time>
      </trkpt>
      <trkpt lat="44.67229" lon="2.85079">
        <ele>1056.9</ele>
        <time>2022-08-05T15:32:48Z</time>
      </trkpt>
      <trkpt lat="44.67231" lon="2.85077">
        <ele>1056.8</ele>
        <time>2022-08-05T15:32:49Z</time>
      </trkpt>
      <trkpt lat="44.67231" lon="2.85076">
        <ele>1056.6</ele>
        <time>2022-08-05T15:32:50Z</time>
      </trkpt>
      <trkpt lat="44.67236" lon="2.85069">
        <ele>1055.9</ele>
        <time>2022-08-05T15:32:55Z</time>
      </trkpt>
      <trkpt lat="44.67239" lon="2.85067">
        <ele>1055.8</ele>
        <time>2022-08-05T15:32:57Z</time>
      </trkpt>
      <trkpt lat="44.67241" lon="2.85065">
        <ele>1055.5</ele>
        <time>2022-08-05T15:32:59Z</time>
      </trkpt>
      <trkpt lat="44.67243" lon="2.85062">
        <ele>1055.1</ele>
        <time>2022-08-05T15:33:01Z</time>
      </trkpt>
      <trkpt lat="44.67251" lon="2.85053">
        <ele>1054</ele>
        <time>2022-08-05T15:33:10Z</time>
      </trkpt>
      <trkpt lat="44.67256" lon="2.85048">
        <ele>1054.1</ele>
        <time>2022-08-05T15:33:14Z</time>
      </trkpt>
      <trkpt lat="44.6726" lon="2.85046">
        <ele>1054.3</ele>
        <time>2022-08-05T15:33:17Z</time>
      </trkpt>
      <trkpt lat="44.67263" lon="2.85042">
        <ele>1054.2</ele>
        <time>2022-08-05T15:33:20Z</time>
      </trkpt>
      <trkpt lat="44.67265" lon="2.8504">
        <ele>1054.1</ele>
        <time>2022-08-05T15:33:22Z</time>
      </trkpt>
      <trkpt lat="44.67266" lon="2.85039">
        <ele>1054</ele>
        <time>2022-08-05T15:33:23Z</time>
      </trkpt>
      <trkpt lat="44.6727" lon="2.85034">
        <ele>1053.6</ele>
        <time>2022-08-05T15:33:28Z</time>
      </trkpt>
      <trkpt lat="44.67271" lon="2.85032">
        <ele>1053.4</ele>
        <time>2022-08-05T15:33:30Z</time>
      </trkpt>
      <trkpt lat="44.67272" lon="2.8503">
        <ele>1053.1</ele>
        <time>2022-08-05T15:33:32Z</time>
      </trkpt>
      <trkpt lat="44.67279" lon="2.85023">
        <ele>1052.3</ele>
        <time>2022-08-05T15:33:38Z</time>
      </trkpt>
      <trkpt lat="44.67286" lon="2.85015">
        <ele>1051.7</ele>
        <time>2022-08-05T15:33:45Z</time>
      </trkpt>
      <trkpt lat="44.67291" lon="2.8501">
        <ele>1051</ele>
        <time>2022-08-05T15:33:50Z</time>
      </trkpt>
      <trkpt lat="44.67293" lon="2.85006">
        <ele>1050.6</ele>
        <time>2022-08-05T15:33:53Z</time>
      </trkpt>
      <trkpt lat="44.67299" lon="2.84999">
        <ele>1049.5</ele>
        <time>2022-08-05T15:33:59Z</time>
      </trkpt>
      <trkpt lat="44.67302" lon="2.84996">
        <ele>1049.2</ele>
        <time>2022-08-05T15:34:05Z</time>
      </trkpt>
      <trkpt lat="44.67304" lon="2.84995">
        <ele>1049.2</ele>
        <time>2022-08-05T15:34:09Z</time>
      </trkpt>
      <trkpt lat="44.67306" lon="2.84995">
        <ele>1049.2</ele>
        <time>2022-08-05T15:34:10Z</time>
      </trkpt>
      <trkpt lat="44.67315" lon="2.84995">
        <ele>1049.7</ele>
        <time>2022-08-05T15:34:17Z</time>
      </trkpt>
      <trkpt lat="44.67328" lon="2.84997">
        <ele>1050.5</ele>
        <time>2022-08-05T15:34:27Z</time>
      </trkpt>
      <trkpt lat="44.67345" lon="2.85001">
        <ele>1050.6</ele>
        <time>2022-08-05T15:34:40Z</time>
      </trkpt>
      <trkpt lat="44.67348" lon="2.85001">
        <ele>1050.5</ele>
        <time>2022-08-05T15:34:42Z</time>
      </trkpt>
      <trkpt lat="44.67355" lon="2.85005">
        <ele>1050.4</ele>
        <time>2022-08-05T15:34:48Z</time>
      </trkpt>
      <trkpt lat="44.67367" lon="2.85011">
        <ele>1049.6</ele>
        <time>2022-08-05T15:34:58Z</time>
      </trkpt>
      <trkpt lat="44.67374" lon="2.85016">
        <ele>1049.3</ele>
        <time>2022-08-05T15:35:04Z</time>
      </trkpt>
      <trkpt lat="44.67378" lon="2.85019">
        <ele>1049.2</ele>
        <time>2022-08-05T15:35:07Z</time>
      </trkpt>
      <trkpt lat="44.67392" lon="2.85029">
        <ele>1048.7</ele>
        <time>2022-08-05T15:35:18Z</time>
      </trkpt>
      <trkpt lat="44.67407" lon="2.85042">
        <ele>1046.8</ele>
        <time>2022-08-05T15:35:32Z</time>
      </trkpt>
      <trkpt lat="44.67417" lon="2.8505">
        <ele>1046.2</ele>
        <time>2022-08-05T15:35:40Z</time>
      </trkpt>
      <trkpt lat="44.67418" lon="2.85051">
        <ele>1046.1</ele>
        <time>2022-08-05T15:35:41Z</time>
      </trkpt>
      <trkpt lat="44.67419" lon="2.85052">
        <ele>1046.1</ele>
        <time>2022-08-05T15:35:42Z</time>
      </trkpt>
      <trkpt lat="44.67425" lon="2.85056">
        <ele>1045.7</ele>
        <time>2022-08-05T15:35:47Z</time>
      </trkpt>
      <trkpt lat="44.67435" lon="2.85065">
        <ele>1044.9</ele>
        <time>2022-08-05T15:35:56Z</time>
      </trkpt>
      <trkpt lat="44.67444" lon="2.85074">
        <ele>1044.3</ele>
        <time>2022-08-05T15:36:05Z</time>
      </trkpt>
      <trkpt lat="44.6745" lon="2.85077">
        <ele>1044</ele>
        <time>2022-08-05T15:36:09Z</time>
      </trkpt>
      <trkpt lat="44.67458" lon="2.85086">
        <ele>1043.5</ele>
        <time>2022-08-05T15:36:17Z</time>
      </trkpt>
      <trkpt lat="44.67459" lon="2.85088">
        <ele>1043.4</ele>
        <time>2022-08-05T15:36:18Z</time>
      </trkpt>
      <trkpt lat="44.6746" lon="2.8509">
        <ele>1043.3</ele>
        <time>2022-08-05T15:36:20Z</time>
      </trkpt>
      <trkpt lat="44.67465" lon="2.85096">
        <ele>1042.9</ele>
        <time>2022-08-05T15:36:26Z</time>
      </trkpt>
      <trkpt lat="44.67472" lon="2.851">
        <ele>1042.4</ele>
        <time>2022-08-05T15:36:32Z</time>
      </trkpt>
      <trkpt lat="44.67478" lon="2.85103">
        <ele>1041.9</ele>
        <time>2022-08-05T15:36:38Z</time>
      </trkpt>
      <trkpt lat="44.67485" lon="2.85111">
        <ele>1041.1</ele>
        <time>2022-08-05T15:36:46Z</time>
      </trkpt>
      <trkpt lat="44.67487" lon="2.85112">
        <ele>1041</ele>
        <time>2022-08-05T15:36:47Z</time>
      </trkpt>
      <trkpt lat="44.67496" lon="2.8512">
        <ele>1040.5</ele>
        <time>2022-08-05T15:36:56Z</time>
      </trkpt>
      <trkpt lat="44.67498" lon="2.85121">
        <ele>1040.5</ele>
        <time>2022-08-05T15:36:57Z</time>
      </trkpt>
      <trkpt lat="44.6751" lon="2.85129">
        <ele>1040</ele>
        <time>2022-08-05T15:37:07Z</time>
      </trkpt>
      <trkpt lat="44.67513" lon="2.85132">
        <ele>1039.8</ele>
        <time>2022-08-05T15:37:10Z</time>
      </trkpt>
      <trkpt lat="44.67521" lon="2.85142">
        <ele>1039.5</ele>
        <time>2022-08-05T15:37:20Z</time>
      </trkpt>
      <trkpt lat="44.67525" lon="2.85146">
        <ele>1039.2</ele>
        <time>2022-08-05T15:37:25Z</time>
      </trkpt>
      <trkpt lat="44.6753" lon="2.85152">
        <ele>1038.8</ele>
        <time>2022-08-05T15:37:30Z</time>
      </trkpt>
      <trkpt lat="44.67533" lon="2.85155">
        <ele>1038.6</ele>
        <time>2022-08-05T15:37:33Z</time>
      </trkpt>
      <trkpt lat="44.67534" lon="2.85157">
        <ele>1038.6</ele>
        <time>2022-08-05T15:37:36Z</time>
      </trkpt>
      <trkpt lat="44.67534" lon="2.85157">
        <ele>1038.5</ele>
        <time>2022-08-05T15:37:37Z</time>
      </trkpt>
      <trkpt lat="44.67537" lon="2.85161">
        <ele>1038.3</ele>
        <time>2022-08-05T15:37:41Z</time>
      </trkpt>
      <trkpt lat="44.67541" lon="2.85164">
        <ele>1038.1</ele>
        <time>2022-08-05T15:37:44Z</time>
      </trkpt>
      <trkpt lat="44.67548" lon="2.85171">
        <ele>1037.4</ele>
        <time>2022-08-05T15:37:51Z</time>
      </trkpt>
      <trkpt lat="44.67551" lon="2.85174">
        <ele>1037.1</ele>
        <time>2022-08-05T15:37:54Z</time>
      </trkpt>
      <trkpt lat="44.6756" lon="2.85186">
        <ele>1036.1</ele>
        <time>2022-08-05T15:38:04Z</time>
      </trkpt>
      <trkpt lat="44.67561" lon="2.85187">
        <ele>1036</ele>
        <time>2022-08-05T15:38:05Z</time>
      </trkpt>
      <trkpt lat="44.67571" lon="2.85201">
        <ele>1035.3</ele>
        <time>2022-08-05T15:38:16Z</time>
      </trkpt>
      <trkpt lat="44.67578" lon="2.8521">
        <ele>1034.7</ele>
        <time>2022-08-05T15:38:23Z</time>
      </trkpt>
      <trkpt lat="44.67582" lon="2.85217">
        <ele>1034.3</ele>
        <time>2022-08-05T15:38:28Z</time>
      </trkpt>
      <trkpt lat="44.67588" lon="2.85226">
        <ele>1033.8</ele>
        <time>2022-08-05T15:38:35Z</time>
      </trkpt>
      <trkpt lat="44.67593" lon="2.85232">
        <ele>1033.5</ele>
        <time>2022-08-05T15:38:40Z</time>
      </trkpt>
      <trkpt lat="44.67601" lon="2.85247">
        <ele>1032.8</ele>
        <time>2022-08-05T15:38:49Z</time>
      </trkpt>
      <trkpt lat="44.67602" lon="2.85254">
        <ele>1032.4</ele>
        <time>2022-08-05T15:38:53Z</time>
      </trkpt>
      <trkpt lat="44.67603" lon="2.8526">
        <ele>1032</ele>
        <time>2022-08-05T15:38:56Z</time>
      </trkpt>
      <trkpt lat="44.676" lon="2.85272">
        <ele>1031.5</ele>
        <time>2022-08-05T15:39:04Z</time>
      </trkpt>
      <trkpt lat="44.676" lon="2.85274">
        <ele>1031.5</ele>
        <time>2022-08-05T15:39:05Z</time>
      </trkpt>
      <trkpt lat="44.67594" lon="2.85286">
        <ele>1031.3</ele>
        <time>2022-08-05T15:39:14Z</time>
      </trkpt>
      <trkpt lat="44.67593" lon="2.85292">
        <ele>1031</ele>
        <time>2022-08-05T15:39:17Z</time>
      </trkpt>
      <trkpt lat="44.6759" lon="2.85301">
        <ele>1030.6</ele>
        <time>2022-08-05T15:39:22Z</time>
      </trkpt>
      <trkpt lat="44.67589" lon="2.85307">
        <ele>1030.3</ele>
        <time>2022-08-05T15:39:26Z</time>
      </trkpt>
      <trkpt lat="44.67587" lon="2.8531">
        <ele>1030.3</ele>
        <time>2022-08-05T15:39:28Z</time>
      </trkpt>
      <trkpt lat="44.67581" lon="2.85329">
        <ele>1029.5</ele>
        <time>2022-08-05T15:39:39Z</time>
      </trkpt>
      <trkpt lat="44.6758" lon="2.85333">
        <ele>1029.4</ele>
        <time>2022-08-05T15:39:41Z</time>
      </trkpt>
      <trkpt lat="44.67577" lon="2.85345">
        <ele>1028.5</ele>
        <time>2022-08-05T15:39:48Z</time>
      </trkpt>
      <trkpt lat="44.67574" lon="2.85355">
        <ele>1027.8</ele>
        <time>2022-08-05T15:39:54Z</time>
      </trkpt>
      <trkpt lat="44.67572" lon="2.85359">
        <ele>1027.5</ele>
        <time>2022-08-05T15:39:57Z</time>
      </trkpt>
      <trkpt lat="44.67569" lon="2.85365">
        <ele>1027.2</ele>
        <time>2022-08-05T15:40:02Z</time>
      </trkpt>
      <trkpt lat="44.67567" lon="2.85365">
        <ele>1027.3</ele>
        <time>2022-08-05T15:40:04Z</time>
      </trkpt>
      <trkpt lat="44.67567" lon="2.85365">
        <ele>1027.3</ele>
        <time>2022-08-05T15:40:06Z</time>
      </trkpt>
      <trkpt lat="44.67567" lon="2.85365">
        <ele>1027.4</ele>
        <time>2022-08-05T15:40:08Z</time>
      </trkpt>
      <trkpt lat="44.67567" lon="2.85365">
        <ele>1027.4</ele>
        <time>2022-08-05T15:40:09Z</time>
      </trkpt>
      <trkpt lat="44.67566" lon="2.85365">
        <ele>1027.5</ele>
        <time>2022-08-05T15:40:11Z</time>
      </trkpt>
      <trkpt lat="44.67564" lon="2.85368">
        <ele>1027.4</ele>
        <time>2022-08-05T15:40:15Z</time>
      </trkpt>
      <trkpt lat="44.67561" lon="2.8538">
        <ele>1026.5</ele>
        <time>2022-08-05T15:40:22Z</time>
      </trkpt>
      <trkpt lat="44.6756" lon="2.85381">
        <ele>1026.4</ele>
        <time>2022-08-05T15:40:23Z</time>
      </trkpt>
      <trkpt lat="44.67558" lon="2.85397">
        <ele>1025.6</ele>
        <time>2022-08-05T15:40:32Z</time>
      </trkpt>
      <trkpt lat="44.67558" lon="2.854">
        <ele>1025.5</ele>
        <time>2022-08-05T15:40:34Z</time>
      </trkpt>
      <trkpt lat="44.67559" lon="2.85407">
        <ele>1025.2</ele>
        <time>2022-08-05T15:40:38Z</time>
      </trkpt>
      <trkpt lat="44.67559" lon="2.85412">
        <ele>1025</ele>
        <time>2022-08-05T15:40:41Z</time>
      </trkpt>
      <trkpt lat="44.67561" lon="2.85423">
        <ele>1024.9</ele>
        <time>2022-08-05T15:40:47Z</time>
      </trkpt>
      <trkpt lat="44.67565" lon="2.85435">
        <ele>1025.4</ele>
        <time>2022-08-05T15:40:55Z</time>
      </trkpt>
      <trkpt lat="44.67569" lon="2.85448">
        <ele>1026.1</ele>
        <time>2022-08-05T15:41:04Z</time>
      </trkpt>
      <trkpt lat="44.67571" lon="2.85455">
        <ele>1026.7</ele>
        <time>2022-08-05T15:41:09Z</time>
      </trkpt>
      <trkpt lat="44.67575" lon="2.85461">
        <ele>1027.4</ele>
        <time>2022-08-05T15:41:13Z</time>
      </trkpt>
      <trkpt lat="44.67579" lon="2.85471">
        <ele>1028.5</ele>
        <time>2022-08-05T15:41:20Z</time>
      </trkpt>
      <trkpt lat="44.6758" lon="2.85473">
        <ele>1028.6</ele>
        <time>2022-08-05T15:41:21Z</time>
      </trkpt>
      <trkpt lat="44.67586" lon="2.85482">
        <ele>1029.3</ele>
        <time>2022-08-05T15:41:29Z</time>
      </trkpt>
      <trkpt lat="44.67588" lon="2.85485">
        <ele>1029.4</ele>
        <time>2022-08-05T15:41:31Z</time>
      </trkpt>
      <trkpt lat="44.67589" lon="2.85486">
        <ele>1029.5</ele>
        <time>2022-08-05T15:41:32Z</time>
      </trkpt>
      <trkpt lat="44.67592" lon="2.85487">
        <ele>1029.8</ele>
        <time>2022-08-05T15:41:35Z</time>
      </trkpt>
      <trkpt lat="44.67598" lon="2.85491">
        <ele>1030.4</ele>
        <time>2022-08-05T15:41:41Z</time>
      </trkpt>
      <trkpt lat="44.67605" lon="2.85494">
        <ele>1031.2</ele>
        <time>2022-08-05T15:41:48Z</time>
      </trkpt>
      <trkpt lat="44.67613" lon="2.85495">
        <ele>1031.9</ele>
        <time>2022-08-05T15:41:54Z</time>
      </trkpt>
      <trkpt lat="44.67617" lon="2.85495">
        <ele>1032.2</ele>
        <time>2022-08-05T15:41:58Z</time>
      </trkpt>
      <trkpt lat="44.67619" lon="2.85495">
        <ele>1032.4</ele>
        <time>2022-08-05T15:42:00Z</time>
      </trkpt>
      <trkpt lat="44.67622" lon="2.85495">
        <ele>1032.6</ele>
        <time>2022-08-05T15:42:03Z</time>
      </trkpt>
      <trkpt lat="44.67624" lon="2.85495">
        <ele>1032.8</ele>
        <time>2022-08-05T15:42:05Z</time>
      </trkpt>
      <trkpt lat="44.67631" lon="2.85496">
        <ele>1033.3</ele>
        <time>2022-08-05T15:42:13Z</time>
      </trkpt>
      <trkpt lat="44.67636" lon="2.85496">
        <ele>1033.6</ele>
        <time>2022-08-05T15:42:17Z</time>
      </trkpt>
      <trkpt lat="44.67636" lon="2.85496">
        <ele>1033.7</ele>
        <time>2022-08-05T15:42:20Z</time>
      </trkpt>
      <trkpt lat="44.67636" lon="2.85496">
        <ele>1033.7</ele>
        <time>2022-08-05T15:42:22Z</time>
      </trkpt>
      <trkpt lat="44.67636" lon="2.85497">
        <ele>1033.7</ele>
        <time>2022-08-05T15:42:28Z</time>
      </trkpt>
      <trkpt lat="44.67642" lon="2.85494">
        <ele>1034</ele>
        <time>2022-08-05T15:42:36Z</time>
      </trkpt>
      <trkpt lat="44.67651" lon="2.85489">
        <ele>1034.5</ele>
        <time>2022-08-05T15:42:42Z</time>
      </trkpt>
      <trkpt lat="44.67652" lon="2.85489">
        <ele>1034.6</ele>
        <time>2022-08-05T15:42:44Z</time>
      </trkpt>
      <trkpt lat="44.67659" lon="2.85487">
        <ele>1035</ele>
        <time>2022-08-05T15:42:49Z</time>
      </trkpt>
      <trkpt lat="44.67659" lon="2.85487">
        <ele>1035</ele>
        <time>2022-08-05T15:42:50Z</time>
      </trkpt>
      <trkpt lat="44.6766" lon="2.85488">
        <ele>1035.1</ele>
        <time>2022-08-05T15:42:52Z</time>
      </trkpt>
      <trkpt lat="44.6766" lon="2.85488">
        <ele>1035.1</ele>
        <time>2022-08-05T15:42:54Z</time>
      </trkpt>
      <trkpt lat="44.6766" lon="2.85488">
        <ele>1035.1</ele>
        <time>2022-08-05T15:43:00Z</time>
      </trkpt>
      <trkpt lat="44.67667" lon="2.85486">
        <ele>1035.6</ele>
        <time>2022-08-05T15:43:18Z</time>
      </trkpt>
      <trkpt lat="44.67678" lon="2.85483">
        <ele>1036.2</ele>
        <time>2022-08-05T15:43:26Z</time>
      </trkpt>
      <trkpt lat="44.67686" lon="2.85479">
        <ele>1036.6</ele>
        <time>2022-08-05T15:43:35Z</time>
      </trkpt>
      <trkpt lat="44.67689" lon="2.8548">
        <ele>1036.9</ele>
        <time>2022-08-05T15:43:37Z</time>
      </trkpt>
      <trkpt lat="44.67692" lon="2.8548">
        <ele>1037.1</ele>
        <time>2022-08-05T15:43:39Z</time>
      </trkpt>
      <trkpt lat="44.67697" lon="2.85478">
        <ele>1037.4</ele>
        <time>2022-08-05T15:43:44Z</time>
      </trkpt>
      <trkpt lat="44.67704" lon="2.85476">
        <ele>1037.9</ele>
        <time>2022-08-05T15:43:51Z</time>
      </trkpt>
      <trkpt lat="44.67705" lon="2.85477">
        <ele>1037.9</ele>
        <time>2022-08-05T15:43:53Z</time>
      </trkpt>
      <trkpt lat="44.67705" lon="2.85477">
        <ele>1038</ele>
        <time>2022-08-05T15:43:54Z</time>
      </trkpt>
      <trkpt lat="44.67705" lon="2.85476">
        <ele>1037.9</ele>
        <time>2022-08-05T15:44:01Z</time>
      </trkpt>
      <trkpt lat="44.67711" lon="2.85475">
        <ele>1038.3</ele>
        <time>2022-08-05T15:44:08Z</time>
      </trkpt>
      <trkpt lat="44.67717" lon="2.85473">
        <ele>1038.6</ele>
        <time>2022-08-05T15:44:14Z</time>
      </trkpt>
      <trkpt lat="44.67719" lon="2.85472">
        <ele>1038.8</ele>
        <time>2022-08-05T15:44:16Z</time>
      </trkpt>
      <trkpt lat="44.67721" lon="2.85471">
        <ele>1038.9</ele>
        <time>2022-08-05T15:44:21Z</time>
      </trkpt>
      <trkpt lat="44.6772" lon="2.85471">
        <ele>1038.9</ele>
        <time>2022-08-05T15:44:22Z</time>
      </trkpt>
      <trkpt lat="44.67726" lon="2.8547">
        <ele>1039.3</ele>
        <time>2022-08-05T15:44:31Z</time>
      </trkpt>
      <trkpt lat="44.67738" lon="2.85472">
        <ele>1040.2</ele>
        <time>2022-08-05T15:44:41Z</time>
      </trkpt>
      <trkpt lat="44.6775" lon="2.85473">
        <ele>1041</ele>
        <time>2022-08-05T15:44:50Z</time>
      </trkpt>
      <trkpt lat="44.6776" lon="2.85475">
        <ele>1041.2</ele>
        <time>2022-08-05T15:44:58Z</time>
      </trkpt>
      <trkpt lat="44.67767" lon="2.85476">
        <ele>1041.5</ele>
        <time>2022-08-05T15:45:04Z</time>
      </trkpt>
      <trkpt lat="44.67774" lon="2.85474">
        <ele>1041.8</ele>
        <time>2022-08-05T15:45:09Z</time>
      </trkpt>
      <trkpt lat="44.67782" lon="2.85467">
        <ele>1042</ele>
        <time>2022-08-05T15:45:17Z</time>
      </trkpt>
      <trkpt lat="44.67785" lon="2.85461">
        <ele>1042.1</ele>
        <time>2022-08-05T15:45:21Z</time>
      </trkpt>
      <trkpt lat="44.67789" lon="2.85453">
        <ele>1042.3</ele>
        <time>2022-08-05T15:45:27Z</time>
      </trkpt>
      <trkpt lat="44.67791" lon="2.85451">
        <ele>1042.4</ele>
        <time>2022-08-05T15:45:29Z</time>
      </trkpt>
      <trkpt lat="44.67799" lon="2.85441">
        <ele>1042.9</ele>
        <time>2022-08-05T15:45:37Z</time>
      </trkpt>
      <trkpt lat="44.67801" lon="2.85439">
        <ele>1043</ele>
        <time>2022-08-05T15:45:39Z</time>
      </trkpt>
      <trkpt lat="44.67807" lon="2.8543">
        <ele>1043.6</ele>
        <time>2022-08-05T15:45:46Z</time>
      </trkpt>
      <trkpt lat="44.67813" lon="2.85423">
        <ele>1044</ele>
        <time>2022-08-05T15:45:52Z</time>
      </trkpt>
      <trkpt lat="44.67815" lon="2.85421">
        <ele>1044.2</ele>
        <time>2022-08-05T15:45:54Z</time>
      </trkpt>
      <trkpt lat="44.67823" lon="2.85407">
        <ele>1044.8</ele>
        <time>2022-08-05T15:46:04Z</time>
      </trkpt>
      <trkpt lat="44.6783" lon="2.85395">
        <ele>1045.6</ele>
        <time>2022-08-05T15:46:14Z</time>
      </trkpt>
      <trkpt lat="44.67831" lon="2.85394">
        <ele>1045.7</ele>
        <time>2022-08-05T15:46:15Z</time>
      </trkpt>
      <trkpt lat="44.67839" lon="2.85381">
        <ele>1045.8</ele>
        <time>2022-08-05T15:46:24Z</time>
      </trkpt>
      <trkpt lat="44.67848" lon="2.85369">
        <ele>1045.7</ele>
        <time>2022-08-05T15:46:34Z</time>
      </trkpt>
      <trkpt lat="44.67857" lon="2.85356">
        <ele>1045.9</ele>
        <time>2022-08-05T15:46:44Z</time>
      </trkpt>
      <trkpt lat="44.67865" lon="2.85344">
        <ele>1046.1</ele>
        <time>2022-08-05T15:46:53Z</time>
      </trkpt>
      <trkpt lat="44.67872" lon="2.85333">
        <ele>1046.4</ele>
        <time>2022-08-05T15:47:01Z</time>
      </trkpt>
      <trkpt lat="44.67879" lon="2.8532">
        <ele>1046.2</ele>
        <time>2022-08-05T15:47:10Z</time>
      </trkpt>
      <trkpt lat="44.67881" lon="2.85317">
        <ele>1046.1</ele>
        <time>2022-08-05T15:47:12Z</time>
      </trkpt>
      <trkpt lat="44.67888" lon="2.85307">
        <ele>1046</ele>
        <time>2022-08-05T15:47:20Z</time>
      </trkpt>
      <trkpt lat="44.67896" lon="2.85295">
        <ele>1045.9</ele>
        <time>2022-08-05T15:47:29Z</time>
      </trkpt>
      <trkpt lat="44.67901" lon="2.85288">
        <ele>1045.8</ele>
        <time>2022-08-05T15:47:34Z</time>
      </trkpt>
      <trkpt lat="44.67906" lon="2.8528">
        <ele>1045.7</ele>
        <time>2022-08-05T15:47:40Z</time>
      </trkpt>
      <trkpt lat="44.67919" lon="2.85261">
        <ele>1044.9</ele>
        <time>2022-08-05T15:47:54Z</time>
      </trkpt>
      <trkpt lat="44.67925" lon="2.85252">
        <ele>1044.4</ele>
        <time>2022-08-05T15:48:01Z</time>
      </trkpt>
      <trkpt lat="44.6793" lon="2.85244">
        <ele>1044.3</ele>
        <time>2022-08-05T15:48:07Z</time>
      </trkpt>
      <trkpt lat="44.67935" lon="2.85236">
        <ele>1044.2</ele>
        <time>2022-08-05T15:48:13Z</time>
      </trkpt>
      <trkpt lat="44.67938" lon="2.85231">
        <ele>1044.1</ele>
        <time>2022-08-05T15:48:17Z</time>
      </trkpt>
      <trkpt lat="44.6795" lon="2.85217">
        <ele>1043.6</ele>
        <time>2022-08-05T15:48:28Z</time>
      </trkpt>
      <trkpt lat="44.67958" lon="2.85209">
        <ele>1043</ele>
        <time>2022-08-05T15:48:37Z</time>
      </trkpt>
      <trkpt lat="44.6796" lon="2.85209">
        <ele>1043</ele>
        <time>2022-08-05T15:48:44Z</time>
      </trkpt>
      <trkpt lat="44.67961" lon="2.85209">
        <ele>1043.1</ele>
        <time>2022-08-05T15:48:52Z</time>
      </trkpt>
      <trkpt lat="44.67961" lon="2.85209">
        <ele>1043.1</ele>
        <time>2022-08-05T15:48:55Z</time>
      </trkpt>
      <trkpt lat="44.67961" lon="2.8521">
        <ele>1043.1</ele>
        <time>2022-08-05T15:49:17Z</time>
      </trkpt>
      <trkpt lat="44.67961" lon="2.8521">
        <ele>1043.1</ele>
        <time>2022-08-05T15:49:19Z</time>
      </trkpt>
      <trkpt lat="44.67961" lon="2.8522">
        <ele>1043.8</ele>
        <time>2022-08-05T15:49:40Z</time>
      </trkpt>
      <trkpt lat="44.67961" lon="2.85223">
        <ele>1044</ele>
        <time>2022-08-05T15:49:41Z</time>
      </trkpt>
      <trkpt lat="44.67962" lon="2.85241">
        <ele>1044.7</ele>
        <time>2022-08-05T15:49:51Z</time>
      </trkpt>
      <trkpt lat="44.67963" lon="2.85243">
        <ele>1044.7</ele>
        <time>2022-08-05T15:49:52Z</time>
      </trkpt>
      <trkpt lat="44.67964" lon="2.85256">
        <ele>1045.3</ele>
        <time>2022-08-05T15:50:00Z</time>
      </trkpt>
      <trkpt lat="44.67964" lon="2.85262">
        <ele>1045.7</ele>
        <time>2022-08-05T15:50:04Z</time>
      </trkpt>
      <trkpt lat="44.67963" lon="2.85267">
        <ele>1046</ele>
        <time>2022-08-05T15:50:08Z</time>
      </trkpt>
      <trkpt lat="44.67963" lon="2.85268">
        <ele>1046.1</ele>
        <time>2022-08-05T15:50:10Z</time>
      </trkpt>
      <trkpt lat="44.67963" lon="2.85268">
        <ele>1046.1</ele>
        <time>2022-08-05T15:50:11Z</time>
      </trkpt>
      <trkpt lat="44.67963" lon="2.85264">
        <ele>1045.9</ele>
        <time>2022-08-05T15:50:15Z</time>
      </trkpt>
      <trkpt lat="44.67964" lon="2.85268">
        <ele>1046.1</ele>
        <time>2022-08-05T15:50:18Z</time>
      </trkpt>
      <trkpt lat="44.67964" lon="2.8527">
        <ele>1046.2</ele>
        <time>2022-08-05T15:50:19Z</time>
      </trkpt>
      <trkpt lat="44.67964" lon="2.85272">
        <ele>1046.3</ele>
        <time>2022-08-05T15:50:20Z</time>
      </trkpt>
      <trkpt lat="44.67964" lon="2.85284">
        <ele>1047</ele>
        <time>2022-08-05T15:50:28Z</time>
      </trkpt>
      <trkpt lat="44.67965" lon="2.85295">
        <ele>1047.4</ele>
        <time>2022-08-05T15:50:35Z</time>
      </trkpt>
      <trkpt lat="44.67965" lon="2.85297">
        <ele>1047.4</ele>
        <time>2022-08-05T15:50:36Z</time>
      </trkpt>
      <trkpt lat="44.67968" lon="2.85308">
        <ele>1047.9</ele>
        <time>2022-08-05T15:50:44Z</time>
      </trkpt>
      <trkpt lat="44.67972" lon="2.85315">
        <ele>1048.3</ele>
        <time>2022-08-05T15:50:50Z</time>
      </trkpt>
      <trkpt lat="44.67972" lon="2.85315">
        <ele>1048.3</ele>
        <time>2022-08-05T15:50:52Z</time>
      </trkpt>
      <trkpt lat="44.67972" lon="2.85315">
        <ele>1048.3</ele>
        <time>2022-08-05T15:50:57Z</time>
      </trkpt>
      <trkpt lat="44.67975" lon="2.85319">
        <ele>1048.4</ele>
        <time>2022-08-05T15:51:05Z</time>
      </trkpt>
      <trkpt lat="44.67984" lon="2.85331">
        <ele>1048.5</ele>
        <time>2022-08-05T15:51:15Z</time>
      </trkpt>
      <trkpt lat="44.67994" lon="2.85342">
        <ele>1048.5</ele>
        <time>2022-08-05T15:51:26Z</time>
      </trkpt>
      <trkpt lat="44.68" lon="2.85351">
        <ele>1048.6</ele>
        <time>2022-08-05T15:51:33Z</time>
      </trkpt>
      <trkpt lat="44.68003" lon="2.85354">
        <ele>1048.7</ele>
        <time>2022-08-05T15:51:35Z</time>
      </trkpt>
      <trkpt lat="44.68008" lon="2.85366">
        <ele>1048.8</ele>
        <time>2022-08-05T15:51:43Z</time>
      </trkpt>
      <trkpt lat="44.68012" lon="2.85375">
        <ele>1048.8</ele>
        <time>2022-08-05T15:51:49Z</time>
      </trkpt>
      <trkpt lat="44.68015" lon="2.85379">
        <ele>1048.8</ele>
        <time>2022-08-05T15:51:52Z</time>
      </trkpt>
      <trkpt lat="44.68025" lon="2.85393">
        <ele>1049.1</ele>
        <time>2022-08-05T15:52:04Z</time>
      </trkpt>
      <trkpt lat="44.68035" lon="2.85401">
        <ele>1049.3</ele>
        <time>2022-08-05T15:52:13Z</time>
      </trkpt>
      <trkpt lat="44.68047" lon="2.8541">
        <ele>1049.6</ele>
        <time>2022-08-05T15:52:24Z</time>
      </trkpt>
      <trkpt lat="44.68052" lon="2.85414">
        <ele>1049.8</ele>
        <time>2022-08-05T15:52:28Z</time>
      </trkpt>
      <trkpt lat="44.68057" lon="2.85422">
        <ele>1049.8</ele>
        <time>2022-08-05T15:52:35Z</time>
      </trkpt>
      <trkpt lat="44.68062" lon="2.85434">
        <ele>1048.8</ele>
        <time>2022-08-05T15:52:43Z</time>
      </trkpt>
      <trkpt lat="44.68066" lon="2.85443">
        <ele>1048.1</ele>
        <time>2022-08-05T15:52:50Z</time>
      </trkpt>
      <trkpt lat="44.68067" lon="2.85445">
        <ele>1047.9</ele>
        <time>2022-08-05T15:52:52Z</time>
      </trkpt>
      <trkpt lat="44.68073" lon="2.85453">
        <ele>1047.2</ele>
        <time>2022-08-05T15:52:59Z</time>
      </trkpt>
      <trkpt lat="44.68077" lon="2.85456">
        <ele>1046.7</ele>
        <time>2022-08-05T15:53:03Z</time>
      </trkpt>
      <trkpt lat="44.68078" lon="2.85457">
        <ele>1046.6</ele>
        <time>2022-08-05T15:53:06Z</time>
      </trkpt>
      <trkpt lat="44.68078" lon="2.85457">
        <ele>1046.7</ele>
        <time>2022-08-05T15:53:09Z</time>
      </trkpt>
      <trkpt lat="44.68082" lon="2.85457">
        <ele>1046.1</ele>
        <time>2022-08-05T15:53:24Z</time>
      </trkpt>
      <trkpt lat="44.68085" lon="2.85458">
        <ele>1045.8</ele>
        <time>2022-08-05T15:53:26Z</time>
      </trkpt>
      <trkpt lat="44.68094" lon="2.85458">
        <ele>1044.6</ele>
        <time>2022-08-05T15:53:33Z</time>
      </trkpt>
      <trkpt lat="44.68095" lon="2.85457">
        <ele>1044.5</ele>
        <time>2022-08-05T15:53:34Z</time>
      </trkpt>
      <trkpt lat="44.68106" lon="2.85454">
        <ele>1043</ele>
        <time>2022-08-05T15:53:43Z</time>
      </trkpt>
      <trkpt lat="44.6811" lon="2.85453">
        <ele>1042.4</ele>
        <time>2022-08-05T15:53:47Z</time>
      </trkpt>
      <trkpt lat="44.68111" lon="2.85453">
        <ele>1042.4</ele>
        <time>2022-08-05T15:53:50Z</time>
      </trkpt>
      <trkpt lat="44.68111" lon="2.85453">
        <ele>1042.4</ele>
        <time>2022-08-05T15:53:51Z</time>
      </trkpt>
      <trkpt lat="44.68115" lon="2.85453">
        <ele>1042.1</ele>
        <time>2022-08-05T15:54:06Z</time>
      </trkpt>
      <trkpt lat="44.68119" lon="2.85453">
        <ele>1042</ele>
        <time>2022-08-05T15:54:08Z</time>
      </trkpt>
      <trkpt lat="44.68128" lon="2.8545">
        <ele>1041.5</ele>
        <time>2022-08-05T15:54:15Z</time>
      </trkpt>
      <trkpt lat="44.68134" lon="2.8545">
        <ele>1041.2</ele>
        <time>2022-08-05T15:54:19Z</time>
      </trkpt>
      <trkpt lat="44.68139" lon="2.85448">
        <ele>1041</ele>
        <time>2022-08-05T15:54:23Z</time>
      </trkpt>
      <trkpt lat="44.68149" lon="2.85448">
        <ele>1040.7</ele>
        <time>2022-08-05T15:54:31Z</time>
      </trkpt>
      <trkpt lat="44.68156" lon="2.85456">
        <ele>1040.6</ele>
        <time>2022-08-05T15:54:39Z</time>
      </trkpt>
      <trkpt lat="44.68158" lon="2.8546">
        <ele>1040.7</ele>
        <time>2022-08-05T15:54:41Z</time>
      </trkpt>
      <trkpt lat="44.68344" lon="2.85374">
        <ele>1036.5</ele>
        <time>2022-08-06T07:46:28Z</time>
      </trkpt>
      <trkpt lat="44.68344" lon="2.85366">
        <ele>1035.9</ele>
        <time>2022-08-06T07:46:33Z</time>
      </trkpt>
      <trkpt lat="44.68346" lon="2.85369">
        <ele>1036.1</ele>
        <time>2022-08-06T07:46:35Z</time>
      </trkpt>
      <trkpt lat="44.68346" lon="2.85373">
        <ele>1036.3</ele>
        <time>2022-08-06T07:46:36Z</time>
      </trkpt>
      <trkpt lat="44.68349" lon="2.85367">
        <ele>1035.8</ele>
        <time>2022-08-06T07:46:38Z</time>
      </trkpt>
      <trkpt lat="44.68348" lon="2.85362">
        <ele>1035.5</ele>
        <time>2022-08-06T07:46:40Z</time>
      </trkpt>
      <trkpt lat="44.68348" lon="2.85369">
        <ele>1036</ele>
        <time>2022-08-06T07:46:42Z</time>
      </trkpt>
      <trkpt lat="44.6835" lon="2.85366">
        <ele>1035.7</ele>
        <time>2022-08-06T07:46:43Z</time>
      </trkpt>
      <trkpt lat="44.68354" lon="2.85369">
        <ele>1035.8</ele>
        <time>2022-08-06T07:46:44Z</time>
      </trkpt>
      <trkpt lat="44.68366" lon="2.85363">
        <ele>1034.9</ele>
        <time>2022-08-06T07:46:46Z</time>
      </trkpt>
      <trkpt lat="44.68387" lon="2.85355">
        <ele>1033.5</ele>
        <time>2022-08-06T07:46:51Z</time>
      </trkpt>
      <trkpt lat="44.68387" lon="2.85349">
        <ele>1032.8</ele>
        <time>2022-08-06T07:46:53Z</time>
      </trkpt>
      <trkpt lat="44.68396" lon="2.8535">
        <ele>1032.7</ele>
        <time>2022-08-06T07:46:55Z</time>
      </trkpt>
      <trkpt lat="44.68407" lon="2.85352">
        <ele>1032.8</ele>
        <time>2022-08-06T07:46:57Z</time>
      </trkpt>
      <trkpt lat="44.68425" lon="2.8536">
        <ele>1034.5</ele>
        <time>2022-08-06T07:47:03Z</time>
      </trkpt>
      <trkpt lat="44.68424" lon="2.85356">
        <ele>1033.9</ele>
        <time>2022-08-06T07:47:06Z</time>
      </trkpt>
      <trkpt lat="44.68432" lon="2.85356">
        <ele>1034.4</ele>
        <time>2022-08-06T07:47:09Z</time>
      </trkpt>
      <trkpt lat="44.68431" lon="2.85353">
        <ele>1034</ele>
        <time>2022-08-06T07:47:10Z</time>
      </trkpt>
      <trkpt lat="44.68439" lon="2.85354">
        <ele>1034.8</ele>
        <time>2022-08-06T07:47:13Z</time>
      </trkpt>
      <trkpt lat="44.68444" lon="2.85352">
        <ele>1035</ele>
        <time>2022-08-06T07:47:16Z</time>
      </trkpt>
      <trkpt lat="44.68449" lon="2.8535">
        <ele>1034.8</ele>
        <time>2022-08-06T07:47:19Z</time>
      </trkpt>
      <trkpt lat="44.68451" lon="2.8535">
        <ele>1034.8</ele>
        <time>2022-08-06T07:47:20Z</time>
      </trkpt>
      <trkpt lat="44.68454" lon="2.85348">
        <ele>1034.5</ele>
        <time>2022-08-06T07:47:24Z</time>
      </trkpt>
      <trkpt lat="44.68462" lon="2.85345">
        <ele>1034.4</ele>
        <time>2022-08-06T07:47:29Z</time>
      </trkpt>
      <trkpt lat="44.68462" lon="2.85344">
        <ele>1034.3</ele>
        <time>2022-08-06T07:47:30Z</time>
      </trkpt>
      <trkpt lat="44.6846" lon="2.85339">
        <ele>1034</ele>
        <time>2022-08-06T07:47:32Z</time>
      </trkpt>
      <trkpt lat="44.6846" lon="2.8533">
        <ele>1033</ele>
        <time>2022-08-06T07:47:38Z</time>
      </trkpt>
      <trkpt lat="44.68461" lon="2.85317">
        <ele>1030.4</ele>
        <time>2022-08-06T07:47:45Z</time>
      </trkpt>
      <trkpt lat="44.68462" lon="2.85316">
        <ele>1030.3</ele>
        <time>2022-08-06T07:47:46Z</time>
      </trkpt>
      <trkpt lat="44.68444" lon="2.85293">
        <ele>1023.5</ele>
        <time>2022-08-06T07:47:56Z</time>
      </trkpt>
      <trkpt lat="44.68423" lon="2.85285">
        <ele>1021.9</ele>
        <time>2022-08-06T07:47:58Z</time>
      </trkpt>
      <trkpt lat="44.6841" lon="2.85276">
        <ele>1021</ele>
        <time>2022-08-06T07:48:00Z</time>
      </trkpt>
      <trkpt lat="44.68402" lon="2.85267">
        <ele>1020</ele>
        <time>2022-08-06T07:48:04Z</time>
      </trkpt>
      <trkpt lat="44.68401" lon="2.85266">
        <ele>1019.9</ele>
        <time>2022-08-06T07:48:05Z</time>
      </trkpt>
      <trkpt lat="44.68397" lon="2.85257">
        <ele>1018.8</ele>
        <time>2022-08-06T07:48:09Z</time>
      </trkpt>
      <trkpt lat="44.68366" lon="2.85238">
        <ele>1017.2</ele>
        <time>2022-08-06T07:48:15Z</time>
      </trkpt>
      <trkpt lat="44.68359" lon="2.85234">
        <ele>1016.9</ele>
        <time>2022-08-06T07:48:17Z</time>
      </trkpt>
      <trkpt lat="44.68357" lon="2.85232">
        <ele>1016.9</ele>
        <time>2022-08-06T07:48:18Z</time>
      </trkpt>
      <trkpt lat="44.68345" lon="2.85215">
        <ele>1016.1</ele>
        <time>2022-08-06T07:48:27Z</time>
      </trkpt>
      <trkpt lat="44.68341" lon="2.85211">
        <ele>1015.9</ele>
        <time>2022-08-06T07:48:29Z</time>
      </trkpt>
      <trkpt lat="44.68331" lon="2.85191">
        <ele>1015</ele>
        <time>2022-08-06T07:48:36Z</time>
      </trkpt>
      <trkpt lat="44.68328" lon="2.85184">
        <ele>1014.8</ele>
        <time>2022-08-06T07:48:40Z</time>
      </trkpt>
      <trkpt lat="44.68324" lon="2.85176">
        <ele>1014.7</ele>
        <time>2022-08-06T07:48:45Z</time>
      </trkpt>
      <trkpt lat="44.68319" lon="2.85163">
        <ele>1014.3</ele>
        <time>2022-08-06T07:48:54Z</time>
      </trkpt>
      <trkpt lat="44.68319" lon="2.85146">
        <ele>1013.4</ele>
        <time>2022-08-06T07:49:03Z</time>
      </trkpt>
      <trkpt lat="44.6832" lon="2.85145">
        <ele>1013.3</ele>
        <time>2022-08-06T07:49:04Z</time>
      </trkpt>
      <trkpt lat="44.68322" lon="2.8514">
        <ele>1012.9</ele>
        <time>2022-08-06T07:49:07Z</time>
      </trkpt>
      <trkpt lat="44.68325" lon="2.85135">
        <ele>1012.6</ele>
        <time>2022-08-06T07:49:10Z</time>
      </trkpt>
      <trkpt lat="44.68326" lon="2.85134">
        <ele>1012.5</ele>
        <time>2022-08-06T07:49:11Z</time>
      </trkpt>
      <trkpt lat="44.68328" lon="2.8512">
        <ele>1012.3</ele>
        <time>2022-08-06T07:49:20Z</time>
      </trkpt>
      <trkpt lat="44.68325" lon="2.85102">
        <ele>1012</ele>
        <time>2022-08-06T07:49:30Z</time>
      </trkpt>
      <trkpt lat="44.68322" lon="2.85093">
        <ele>1011.8</ele>
        <time>2022-08-06T07:49:36Z</time>
      </trkpt>
      <trkpt lat="44.68321" lon="2.85087">
        <ele>1011.6</ele>
        <time>2022-08-06T07:49:40Z</time>
      </trkpt>
      <trkpt lat="44.68323" lon="2.85067">
        <ele>1011.1</ele>
        <time>2022-08-06T07:49:49Z</time>
      </trkpt>
      <trkpt lat="44.68331" lon="2.85043">
        <ele>1011</ele>
        <time>2022-08-06T07:50:01Z</time>
      </trkpt>
      <trkpt lat="44.68332" lon="2.85041">
        <ele>1011</ele>
        <time>2022-08-06T07:50:03Z</time>
      </trkpt>
      <trkpt lat="44.68335" lon="2.85031">
        <ele>1010.9</ele>
        <time>2022-08-06T07:50:10Z</time>
      </trkpt>
      <trkpt lat="44.68339" lon="2.85015">
        <ele>1010.9</ele>
        <time>2022-08-06T07:50:20Z</time>
      </trkpt>
      <trkpt lat="44.6834" lon="2.85013">
        <ele>1010.9</ele>
        <time>2022-08-06T07:50:21Z</time>
      </trkpt>
      <trkpt lat="44.68344" lon="2.85004">
        <ele>1011</ele>
        <time>2022-08-06T07:50:27Z</time>
      </trkpt>
      <trkpt lat="44.68349" lon="2.84988">
        <ele>1011</ele>
        <time>2022-08-06T07:50:37Z</time>
      </trkpt>
      <trkpt lat="44.68353" lon="2.84971">
        <ele>1011</ele>
        <time>2022-08-06T07:50:46Z</time>
      </trkpt>
      <trkpt lat="44.68357" lon="2.84956">
        <ele>1011</ele>
        <time>2022-08-06T07:50:57Z</time>
      </trkpt>
      <trkpt lat="44.68362" lon="2.84944">
        <ele>1011</ele>
        <time>2022-08-06T07:51:06Z</time>
      </trkpt>
      <trkpt lat="44.68367" lon="2.84935">
        <ele>1010.7</ele>
        <time>2022-08-06T07:51:13Z</time>
      </trkpt>
      <trkpt lat="44.68368" lon="2.8493">
        <ele>1010.6</ele>
        <time>2022-08-06T07:51:16Z</time>
      </trkpt>
      <trkpt lat="44.6837" lon="2.84924">
        <ele>1010.6</ele>
        <time>2022-08-06T07:51:20Z</time>
      </trkpt>
      <trkpt lat="44.68376" lon="2.84907">
        <ele>1010.7</ele>
        <time>2022-08-06T07:51:29Z</time>
      </trkpt>
      <trkpt lat="44.68379" lon="2.84892">
        <ele>1010.9</ele>
        <time>2022-08-06T07:51:38Z</time>
      </trkpt>
      <trkpt lat="44.68379" lon="2.8489">
        <ele>1011</ele>
        <time>2022-08-06T07:51:39Z</time>
      </trkpt>
      <trkpt lat="44.6838" lon="2.84888">
        <ele>1011</ele>
        <time>2022-08-06T07:51:40Z</time>
      </trkpt>
      <trkpt lat="44.68382" lon="2.84883">
        <ele>1011</ele>
        <time>2022-08-06T07:51:44Z</time>
      </trkpt>
      <trkpt lat="44.68387" lon="2.84871">
        <ele>1011</ele>
        <time>2022-08-06T07:51:52Z</time>
      </trkpt>
      <trkpt lat="44.6839" lon="2.84862">
        <ele>1011</ele>
        <time>2022-08-06T07:51:58Z</time>
      </trkpt>
      <trkpt lat="44.6839" lon="2.84858">
        <ele>1010.9</ele>
        <time>2022-08-06T07:52:00Z</time>
      </trkpt>
      <trkpt lat="44.68396" lon="2.84843">
        <ele>1010.3</ele>
        <time>2022-08-06T07:52:08Z</time>
      </trkpt>
      <trkpt lat="44.68399" lon="2.84835">
        <ele>1010</ele>
        <time>2022-08-06T07:52:13Z</time>
      </trkpt>
      <trkpt lat="44.68401" lon="2.8483">
        <ele>1009.9</ele>
        <time>2022-08-06T07:52:17Z</time>
      </trkpt>
      <trkpt lat="44.68402" lon="2.84828">
        <ele>1009.9</ele>
        <time>2022-08-06T07:52:18Z</time>
      </trkpt>
      <trkpt lat="44.68407" lon="2.8481">
        <ele>1009.4</ele>
        <time>2022-08-06T07:52:29Z</time>
      </trkpt>
      <trkpt lat="44.6841" lon="2.84804">
        <ele>1009.2</ele>
        <time>2022-08-06T07:52:34Z</time>
      </trkpt>
      <trkpt lat="44.68411" lon="2.84803">
        <ele>1009.1</ele>
        <time>2022-08-06T07:52:35Z</time>
      </trkpt>
      <trkpt lat="44.68412" lon="2.84795">
        <ele>1008.9</ele>
        <time>2022-08-06T07:52:39Z</time>
      </trkpt>
      <trkpt lat="44.68414" lon="2.84784">
        <ele>1008.4</ele>
        <time>2022-08-06T07:52:44Z</time>
      </trkpt>
      <trkpt lat="44.68417" lon="2.84769">
        <ele>1008</ele>
        <time>2022-08-06T07:52:53Z</time>
      </trkpt>
      <trkpt lat="44.68419" lon="2.84763">
        <ele>1007.9</ele>
        <time>2022-08-06T07:52:57Z</time>
      </trkpt>
      <trkpt lat="44.68421" lon="2.84757">
        <ele>1007.8</ele>
        <time>2022-08-06T07:53:00Z</time>
      </trkpt>
      <trkpt lat="44.68423" lon="2.84754">
        <ele>1007.8</ele>
        <time>2022-08-06T07:53:02Z</time>
      </trkpt>
      <trkpt lat="44.68424" lon="2.84752">
        <ele>1007.7</ele>
        <time>2022-08-06T07:53:05Z</time>
      </trkpt>
      <trkpt lat="44.68424" lon="2.84753">
        <ele>1007.7</ele>
        <time>2022-08-06T07:53:06Z</time>
      </trkpt>
      <trkpt lat="44.68422" lon="2.84752">
        <ele>1007.8</ele>
        <time>2022-08-06T07:53:09Z</time>
      </trkpt>
      <trkpt lat="44.68423" lon="2.84749">
        <ele>1007.7</ele>
        <time>2022-08-06T07:53:11Z</time>
      </trkpt>
      <trkpt lat="44.68427" lon="2.84743">
        <ele>1007.2</ele>
        <time>2022-08-06T07:53:16Z</time>
      </trkpt>
      <trkpt lat="44.6843" lon="2.84728">
        <ele>1006.3</ele>
        <time>2022-08-06T07:53:25Z</time>
      </trkpt>
      <trkpt lat="44.6843" lon="2.84726">
        <ele>1006.2</ele>
        <time>2022-08-06T07:53:26Z</time>
      </trkpt>
      <trkpt lat="44.6843" lon="2.84725">
        <ele>1006.2</ele>
        <time>2022-08-06T07:53:28Z</time>
      </trkpt>
      <trkpt lat="44.6843" lon="2.84722">
        <ele>1006</ele>
        <time>2022-08-06T07:53:30Z</time>
      </trkpt>
      <trkpt lat="44.6843" lon="2.8472">
        <ele>1006</ele>
        <time>2022-08-06T07:53:31Z</time>
      </trkpt>
      <trkpt lat="44.68434" lon="2.84709">
        <ele>1005.8</ele>
        <time>2022-08-06T07:53:37Z</time>
      </trkpt>
      <trkpt lat="44.68437" lon="2.84703">
        <ele>1005.8</ele>
        <time>2022-08-06T07:53:43Z</time>
      </trkpt>
      <trkpt lat="44.68437" lon="2.84703">
        <ele>1005.8</ele>
        <time>2022-08-06T07:53:44Z</time>
      </trkpt>
      <trkpt lat="44.68441" lon="2.84698">
        <ele>1005.9</ele>
        <time>2022-08-06T07:53:50Z</time>
      </trkpt>
      <trkpt lat="44.68448" lon="2.84694">
        <ele>1006</ele>
        <time>2022-08-06T07:53:56Z</time>
      </trkpt>
      <trkpt lat="44.68457" lon="2.84692">
        <ele>1006.1</ele>
        <time>2022-08-06T07:54:03Z</time>
      </trkpt>
      <trkpt lat="44.68459" lon="2.8469">
        <ele>1006.1</ele>
        <time>2022-08-06T07:54:04Z</time>
      </trkpt>
      <trkpt lat="44.68464" lon="2.84687">
        <ele>1006.1</ele>
        <time>2022-08-06T07:54:08Z</time>
      </trkpt>
      <trkpt lat="44.68475" lon="2.84686">
        <ele>1005.9</ele>
        <time>2022-08-06T07:54:16Z</time>
      </trkpt>
      <trkpt lat="44.68483" lon="2.84688">
        <ele>1005.7</ele>
        <time>2022-08-06T07:54:23Z</time>
      </trkpt>
      <trkpt lat="44.68485" lon="2.84687">
        <ele>1005.7</ele>
        <time>2022-08-06T07:54:25Z</time>
      </trkpt>
      <trkpt lat="44.68487" lon="2.84686">
        <ele>1005.6</ele>
        <time>2022-08-06T07:54:27Z</time>
      </trkpt>
      <trkpt lat="44.68489" lon="2.84688">
        <ele>1005.6</ele>
        <time>2022-08-06T07:54:29Z</time>
      </trkpt>
      <trkpt lat="44.68494" lon="2.84692">
        <ele>1005.3</ele>
        <time>2022-08-06T07:54:34Z</time>
      </trkpt>
      <trkpt lat="44.68494" lon="2.84692">
        <ele>1005.3</ele>
        <time>2022-08-06T07:54:35Z</time>
      </trkpt>
      <trkpt lat="44.68496" lon="2.84694">
        <ele>1005.1</ele>
        <time>2022-08-06T07:54:38Z</time>
      </trkpt>
      <trkpt lat="44.68502" lon="2.84701">
        <ele>1004.9</ele>
        <time>2022-08-06T07:54:42Z</time>
      </trkpt>
      <trkpt lat="44.68513" lon="2.84718">
        <ele>1004.5</ele>
        <time>2022-08-06T07:54:52Z</time>
      </trkpt>
      <trkpt lat="44.68518" lon="2.84738">
        <ele>1004.3</ele>
        <time>2022-08-06T07:55:00Z</time>
      </trkpt>
      <trkpt lat="44.68519" lon="2.8474">
        <ele>1004.3</ele>
        <time>2022-08-06T07:55:01Z</time>
      </trkpt>
      <trkpt lat="44.68524" lon="2.84752">
        <ele>1004.1</ele>
        <time>2022-08-06T07:55:09Z</time>
      </trkpt>
      <trkpt lat="44.68528" lon="2.84762">
        <ele>1004</ele>
        <time>2022-08-06T07:55:15Z</time>
      </trkpt>
      <trkpt lat="44.68529" lon="2.84765">
        <ele>1004</ele>
        <time>2022-08-06T07:55:17Z</time>
      </trkpt>
      <trkpt lat="44.68535" lon="2.84782">
        <ele>1003.8</ele>
        <time>2022-08-06T07:55:27Z</time>
      </trkpt>
      <trkpt lat="44.68535" lon="2.84785">
        <ele>1003.7</ele>
        <time>2022-08-06T07:55:29Z</time>
      </trkpt>
      <trkpt lat="44.68538" lon="2.84792">
        <ele>1003.6</ele>
        <time>2022-08-06T07:55:33Z</time>
      </trkpt>
      <trkpt lat="44.68539" lon="2.84796">
        <ele>1003.6</ele>
        <time>2022-08-06T07:55:36Z</time>
      </trkpt>
      <trkpt lat="44.6854" lon="2.84798">
        <ele>1003.6</ele>
        <time>2022-08-06T07:55:37Z</time>
      </trkpt>
      <trkpt lat="44.68541" lon="2.84802">
        <ele>1003.5</ele>
        <time>2022-08-06T07:55:40Z</time>
      </trkpt>
      <trkpt lat="44.68542" lon="2.84804">
        <ele>1003.5</ele>
        <time>2022-08-06T07:55:41Z</time>
      </trkpt>
      <trkpt lat="44.68544" lon="2.8481">
        <ele>1003.4</ele>
        <time>2022-08-06T07:55:45Z</time>
      </trkpt>
      <trkpt lat="44.68548" lon="2.84816">
        <ele>1003.3</ele>
        <time>2022-08-06T07:55:49Z</time>
      </trkpt>
      <trkpt lat="44.68549" lon="2.84822">
        <ele>1003.2</ele>
        <time>2022-08-06T07:55:53Z</time>
      </trkpt>
      <trkpt lat="44.68552" lon="2.84825">
        <ele>1003.1</ele>
        <time>2022-08-06T07:55:55Z</time>
      </trkpt>
      <trkpt lat="44.68554" lon="2.8483">
        <ele>1003.1</ele>
        <time>2022-08-06T07:55:58Z</time>
      </trkpt>
      <trkpt lat="44.68554" lon="2.84836">
        <ele>1003.1</ele>
        <time>2022-08-06T07:56:02Z</time>
      </trkpt>
      <trkpt lat="44.68554" lon="2.84841">
        <ele>1003.1</ele>
        <time>2022-08-06T07:56:04Z</time>
      </trkpt>
      <trkpt lat="44.6856" lon="2.84861">
        <ele>1002.7</ele>
        <time>2022-08-06T07:56:16Z</time>
      </trkpt>
      <trkpt lat="44.68566" lon="2.84875">
        <ele>1002.3</ele>
        <time>2022-08-06T07:56:24Z</time>
      </trkpt>
      <trkpt lat="44.68568" lon="2.84879">
        <ele>1002.1</ele>
        <time>2022-08-06T07:56:27Z</time>
      </trkpt>
      <trkpt lat="44.6857" lon="2.84885">
        <ele>1002</ele>
        <time>2022-08-06T07:56:31Z</time>
      </trkpt>
      <trkpt lat="44.6857" lon="2.84886">
        <ele>1001.9</ele>
        <time>2022-08-06T07:56:32Z</time>
      </trkpt>
      <trkpt lat="44.68574" lon="2.84893">
        <ele>1001.8</ele>
        <time>2022-08-06T07:56:37Z</time>
      </trkpt>
      <trkpt lat="44.68579" lon="2.84915">
        <ele>1002.2</ele>
        <time>2022-08-06T07:56:50Z</time>
      </trkpt>
      <trkpt lat="44.68586" lon="2.8493">
        <ele>1001.7</ele>
        <time>2022-08-06T07:57:00Z</time>
      </trkpt>
      <trkpt lat="44.68586" lon="2.84932">
        <ele>1001.7</ele>
        <time>2022-08-06T07:57:01Z</time>
      </trkpt>
      <trkpt lat="44.68589" lon="2.84941">
        <ele>1001.5</ele>
        <time>2022-08-06T07:57:07Z</time>
      </trkpt>
      <trkpt lat="44.68599" lon="2.84958">
        <ele>1001.5</ele>
        <time>2022-08-06T07:57:18Z</time>
      </trkpt>
      <trkpt lat="44.68606" lon="2.84972">
        <ele>1001</ele>
        <time>2022-08-06T07:57:28Z</time>
      </trkpt>
      <trkpt lat="44.68608" lon="2.84986">
        <ele>1002</ele>
        <time>2022-08-06T07:57:37Z</time>
      </trkpt>
      <trkpt lat="44.68609" lon="2.84989">
        <ele>1002.1</ele>
        <time>2022-08-06T07:57:39Z</time>
      </trkpt>
      <trkpt lat="44.6861" lon="2.84991">
        <ele>1002.2</ele>
        <time>2022-08-06T07:57:40Z</time>
      </trkpt>
      <trkpt lat="44.68612" lon="2.84999">
        <ele>1002.7</ele>
        <time>2022-08-06T07:57:45Z</time>
      </trkpt>
      <trkpt lat="44.68616" lon="2.85009">
        <ele>1002.4</ele>
        <time>2022-08-06T07:57:52Z</time>
      </trkpt>
      <trkpt lat="44.68617" lon="2.85012">
        <ele>1002.4</ele>
        <time>2022-08-06T07:57:54Z</time>
      </trkpt>
      <trkpt lat="44.68622" lon="2.85025">
        <ele>1001.3</ele>
        <time>2022-08-06T07:58:02Z</time>
      </trkpt>
      <trkpt lat="44.68623" lon="2.85027">
        <ele>1001.2</ele>
        <time>2022-08-06T07:58:03Z</time>
      </trkpt>
      <trkpt lat="44.6863" lon="2.85044">
        <ele>997.7</ele>
        <time>2022-08-06T07:58:13Z</time>
      </trkpt>
      <trkpt lat="44.68632" lon="2.85049">
        <ele>996.9</ele>
        <time>2022-08-06T07:58:16Z</time>
      </trkpt>
      <trkpt lat="44.68635" lon="2.85061">
        <ele>995.5</ele>
        <time>2022-08-06T07:58:23Z</time>
      </trkpt>
      <trkpt lat="44.68635" lon="2.85062">
        <ele>995.5</ele>
        <time>2022-08-06T07:58:24Z</time>
      </trkpt>
      <trkpt lat="44.68632" lon="2.85079">
        <ele>995.1</ele>
        <time>2022-08-06T07:58:33Z</time>
      </trkpt>
      <trkpt lat="44.68629" lon="2.85092">
        <ele>994.6</ele>
        <time>2022-08-06T07:58:42Z</time>
      </trkpt>
      <trkpt lat="44.68628" lon="2.85105">
        <ele>994</ele>
        <time>2022-08-06T07:58:49Z</time>
      </trkpt>
      <trkpt lat="44.68628" lon="2.85112">
        <ele>993.5</ele>
        <time>2022-08-06T07:58:53Z</time>
      </trkpt>
      <trkpt lat="44.68625" lon="2.85123">
        <ele>993.8</ele>
        <time>2022-08-06T07:58:59Z</time>
      </trkpt>
      <trkpt lat="44.68625" lon="2.85138">
        <ele>993.5</ele>
        <time>2022-08-06T07:59:07Z</time>
      </trkpt>
      <trkpt lat="44.68625" lon="2.85143">
        <ele>993.8</ele>
        <time>2022-08-06T07:59:10Z</time>
      </trkpt>
      <trkpt lat="44.68627" lon="2.85151">
        <ele>993.8</ele>
        <time>2022-08-06T07:59:14Z</time>
      </trkpt>
      <trkpt lat="44.6863" lon="2.85163">
        <ele>993.8</ele>
        <time>2022-08-06T07:59:22Z</time>
      </trkpt>
      <trkpt lat="44.68632" lon="2.85169">
        <ele>993.6</ele>
        <time>2022-08-06T07:59:25Z</time>
      </trkpt>
      <trkpt lat="44.68633" lon="2.85172">
        <ele>993.5</ele>
        <time>2022-08-06T07:59:28Z</time>
      </trkpt>
      <trkpt lat="44.68632" lon="2.85173">
        <ele>993.7</ele>
        <time>2022-08-06T07:59:30Z</time>
      </trkpt>
      <trkpt lat="44.68632" lon="2.85173">
        <ele>993.9</ele>
        <time>2022-08-06T07:59:32Z</time>
      </trkpt>
      <trkpt lat="44.68631" lon="2.85173">
        <ele>994.1</ele>
        <time>2022-08-06T07:59:34Z</time>
      </trkpt>
      <trkpt lat="44.68631" lon="2.85174">
        <ele>994.1</ele>
        <time>2022-08-06T07:59:39Z</time>
      </trkpt>
      <trkpt lat="44.68631" lon="2.85174">
        <ele>994.2</ele>
        <time>2022-08-06T07:59:40Z</time>
      </trkpt>
      <trkpt lat="44.68633" lon="2.85182">
        <ele>994.2</ele>
        <time>2022-08-06T08:00:01Z</time>
      </trkpt>
      <trkpt lat="44.6864" lon="2.85196">
        <ele>993.9</ele>
        <time>2022-08-06T08:00:09Z</time>
      </trkpt>
      <trkpt lat="44.68647" lon="2.85213">
        <ele>993.9</ele>
        <time>2022-08-06T08:00:21Z</time>
      </trkpt>
      <trkpt lat="44.6865" lon="2.85223">
        <ele>994</ele>
        <time>2022-08-06T08:00:27Z</time>
      </trkpt>
      <trkpt lat="44.68652" lon="2.85231">
        <ele>994.7</ele>
        <time>2022-08-06T08:00:32Z</time>
      </trkpt>
      <trkpt lat="44.68655" lon="2.85238">
        <ele>995.1</ele>
        <time>2022-08-06T08:00:36Z</time>
      </trkpt>
      <trkpt lat="44.68659" lon="2.8525">
        <ele>995.3</ele>
        <time>2022-08-06T08:00:43Z</time>
      </trkpt>
      <trkpt lat="44.68659" lon="2.85251">
        <ele>995.3</ele>
        <time>2022-08-06T08:00:44Z</time>
      </trkpt>
      <trkpt lat="44.6866" lon="2.85258">
        <ele>995.5</ele>
        <time>2022-08-06T08:00:48Z</time>
      </trkpt>
      <trkpt lat="44.68661" lon="2.85261">
        <ele>995.5</ele>
        <time>2022-08-06T08:00:50Z</time>
      </trkpt>
      <trkpt lat="44.68661" lon="2.85263">
        <ele>995.5</ele>
        <time>2022-08-06T08:00:51Z</time>
      </trkpt>
      <trkpt lat="44.68662" lon="2.85266">
        <ele>995.5</ele>
        <time>2022-08-06T08:00:53Z</time>
      </trkpt>
      <trkpt lat="44.68664" lon="2.8527">
        <ele>995.3</ele>
        <time>2022-08-06T08:00:56Z</time>
      </trkpt>
      <trkpt lat="44.68667" lon="2.85283">
        <ele>995.4</ele>
        <time>2022-08-06T08:01:04Z</time>
      </trkpt>
      <trkpt lat="44.6867" lon="2.85294">
        <ele>995.4</ele>
        <time>2022-08-06T08:01:11Z</time>
      </trkpt>
      <trkpt lat="44.6867" lon="2.85295">
        <ele>995.4</ele>
        <time>2022-08-06T08:01:12Z</time>
      </trkpt>
      <trkpt lat="44.6867" lon="2.85297">
        <ele>995.5</ele>
        <time>2022-08-06T08:01:13Z</time>
      </trkpt>
      <trkpt lat="44.68673" lon="2.85311">
        <ele>995.2</ele>
        <time>2022-08-06T08:01:22Z</time>
      </trkpt>
      <trkpt lat="44.68674" lon="2.85314">
        <ele>995.3</ele>
        <time>2022-08-06T08:01:24Z</time>
      </trkpt>
      <trkpt lat="44.68676" lon="2.8532">
        <ele>995</ele>
        <time>2022-08-06T08:01:28Z</time>
      </trkpt>
      <trkpt lat="44.68679" lon="2.85337">
        <ele>994.7</ele>
        <time>2022-08-06T08:01:37Z</time>
      </trkpt>
      <trkpt lat="44.6868" lon="2.8535">
        <ele>994.7</ele>
        <time>2022-08-06T08:01:45Z</time>
      </trkpt>
      <trkpt lat="44.68682" lon="2.85365">
        <ele>994.8</ele>
        <time>2022-08-06T08:01:54Z</time>
      </trkpt>
      <trkpt lat="44.68684" lon="2.85378">
        <ele>994.5</ele>
        <time>2022-08-06T08:02:01Z</time>
      </trkpt>
      <trkpt lat="44.68684" lon="2.85394">
        <ele>994.8</ele>
        <time>2022-08-06T08:02:11Z</time>
      </trkpt>
      <trkpt lat="44.68684" lon="2.85399">
        <ele>994.9</ele>
        <time>2022-08-06T08:02:14Z</time>
      </trkpt>
      <trkpt lat="44.68686" lon="2.85407">
        <ele>994.7</ele>
        <time>2022-08-06T08:02:18Z</time>
      </trkpt>
      <trkpt lat="44.68691" lon="2.85423">
        <ele>994.2</ele>
        <time>2022-08-06T08:02:27Z</time>
      </trkpt>
      <trkpt lat="44.68694" lon="2.85436">
        <ele>994.4</ele>
        <time>2022-08-06T08:02:35Z</time>
      </trkpt>
      <trkpt lat="44.68694" lon="2.85437">
        <ele>994.5</ele>
        <time>2022-08-06T08:02:36Z</time>
      </trkpt>
      <trkpt lat="44.68696" lon="2.85443">
        <ele>994.4</ele>
        <time>2022-08-06T08:02:39Z</time>
      </trkpt>
      <trkpt lat="44.68699" lon="2.85449">
        <ele>994.1</ele>
        <time>2022-08-06T08:02:43Z</time>
      </trkpt>
      <trkpt lat="44.687" lon="2.85452">
        <ele>994.1</ele>
        <time>2022-08-06T08:02:45Z</time>
      </trkpt>
      <trkpt lat="44.68702" lon="2.8546">
        <ele>994.1</ele>
        <time>2022-08-06T08:02:50Z</time>
      </trkpt>
      <trkpt lat="44.68703" lon="2.85463">
        <ele>994</ele>
        <time>2022-08-06T08:02:52Z</time>
      </trkpt>
      <trkpt lat="44.68709" lon="2.85476">
        <ele>992.9</ele>
        <time>2022-08-06T08:03:00Z</time>
      </trkpt>
      <trkpt lat="44.68714" lon="2.85493">
        <ele>992.3</ele>
        <time>2022-08-06T08:03:09Z</time>
      </trkpt>
      <trkpt lat="44.68716" lon="2.85507">
        <ele>991.9</ele>
        <time>2022-08-06T08:03:17Z</time>
      </trkpt>
      <trkpt lat="44.68717" lon="2.85521">
        <ele>991.9</ele>
        <time>2022-08-06T08:03:25Z</time>
      </trkpt>
      <trkpt lat="44.68717" lon="2.85523">
        <ele>992</ele>
        <time>2022-08-06T08:03:26Z</time>
      </trkpt>
      <trkpt lat="44.6872" lon="2.85533">
        <ele>991.2</ele>
        <time>2022-08-06T08:03:32Z</time>
      </trkpt>
      <trkpt lat="44.6872" lon="2.8554">
        <ele>990.8</ele>
        <time>2022-08-06T08:03:35Z</time>
      </trkpt>
      <trkpt lat="44.68721" lon="2.85548">
        <ele>990</ele>
        <time>2022-08-06T08:03:39Z</time>
      </trkpt>
      <trkpt lat="44.68722" lon="2.85561">
        <ele>988.9</ele>
        <time>2022-08-06T08:03:47Z</time>
      </trkpt>
      <trkpt lat="44.68722" lon="2.85565">
        <ele>988.7</ele>
        <time>2022-08-06T08:03:49Z</time>
      </trkpt>
      <trkpt lat="44.68723" lon="2.85575">
        <ele>988.1</ele>
        <time>2022-08-06T08:03:55Z</time>
      </trkpt>
      <trkpt lat="44.68724" lon="2.85582">
        <ele>987.8</ele>
        <time>2022-08-06T08:03:58Z</time>
      </trkpt>
      <trkpt lat="44.68725" lon="2.85593">
        <ele>987.7</ele>
        <time>2022-08-06T08:04:04Z</time>
      </trkpt>
      <trkpt lat="44.68724" lon="2.85601">
        <ele>987.7</ele>
        <time>2022-08-06T08:04:08Z</time>
      </trkpt>
      <trkpt lat="44.68724" lon="2.85612">
        <ele>987.7</ele>
        <time>2022-08-06T08:04:14Z</time>
      </trkpt>
      <trkpt lat="44.68726" lon="2.85629">
        <ele>987.6</ele>
        <time>2022-08-06T08:04:24Z</time>
      </trkpt>
      <trkpt lat="44.6873" lon="2.85649">
        <ele>988.1</ele>
        <time>2022-08-06T08:04:34Z</time>
      </trkpt>
      <trkpt lat="44.68735" lon="2.85664">
        <ele>988.5</ele>
        <time>2022-08-06T08:04:43Z</time>
      </trkpt>
      <trkpt lat="44.68743" lon="2.85676">
        <ele>987.8</ele>
        <time>2022-08-06T08:04:52Z</time>
      </trkpt>
      <trkpt lat="44.68754" lon="2.85689">
        <ele>986.9</ele>
        <time>2022-08-06T08:05:03Z</time>
      </trkpt>
      <trkpt lat="44.68761" lon="2.85701">
        <ele>986.9</ele>
        <time>2022-08-06T08:05:12Z</time>
      </trkpt>
      <trkpt lat="44.68763" lon="2.85704">
        <ele>987</ele>
        <time>2022-08-06T08:05:15Z</time>
      </trkpt>
      <trkpt lat="44.68771" lon="2.85714">
        <ele>987.5</ele>
        <time>2022-08-06T08:05:23Z</time>
      </trkpt>
      <trkpt lat="44.68777" lon="2.85725">
        <ele>988</ele>
        <time>2022-08-06T08:05:32Z</time>
      </trkpt>
      <trkpt lat="44.68784" lon="2.85741">
        <ele>988.1</ele>
        <time>2022-08-06T08:05:42Z</time>
      </trkpt>
      <trkpt lat="44.68785" lon="2.85744">
        <ele>988.1</ele>
        <time>2022-08-06T08:05:44Z</time>
      </trkpt>
      <trkpt lat="44.68786" lon="2.85749">
        <ele>988.3</ele>
        <time>2022-08-06T08:05:47Z</time>
      </trkpt>
      <trkpt lat="44.68786" lon="2.85751">
        <ele>988.3</ele>
        <time>2022-08-06T08:05:48Z</time>
      </trkpt>
      <trkpt lat="44.68786" lon="2.85756">
        <ele>988.5</ele>
        <time>2022-08-06T08:05:51Z</time>
      </trkpt>
      <trkpt lat="44.68789" lon="2.8576">
        <ele>988.7</ele>
        <time>2022-08-06T08:05:54Z</time>
      </trkpt>
      <trkpt lat="44.68789" lon="2.85761">
        <ele>988.8</ele>
        <time>2022-08-06T08:05:55Z</time>
      </trkpt>
      <trkpt lat="44.68792" lon="2.85768">
        <ele>989.1</ele>
        <time>2022-08-06T08:05:59Z</time>
      </trkpt>
      <trkpt lat="44.68793" lon="2.8577">
        <ele>989.3</ele>
        <time>2022-08-06T08:06:00Z</time>
      </trkpt>
      <trkpt lat="44.68794" lon="2.85772">
        <ele>989.4</ele>
        <time>2022-08-06T08:06:01Z</time>
      </trkpt>
      <trkpt lat="44.68799" lon="2.85779">
        <ele>989.8</ele>
        <time>2022-08-06T08:06:07Z</time>
      </trkpt>
      <trkpt lat="44.68801" lon="2.85783">
        <ele>990.2</ele>
        <time>2022-08-06T08:06:10Z</time>
      </trkpt>
      <trkpt lat="44.68804" lon="2.85785">
        <ele>990.4</ele>
        <time>2022-08-06T08:06:12Z</time>
      </trkpt>
      <trkpt lat="44.68805" lon="2.85786">
        <ele>990.5</ele>
        <time>2022-08-06T08:06:13Z</time>
      </trkpt>
      <trkpt lat="44.68807" lon="2.85787">
        <ele>990.7</ele>
        <time>2022-08-06T08:06:14Z</time>
      </trkpt>
      <trkpt lat="44.68816" lon="2.85794">
        <ele>991.3</ele>
        <time>2022-08-06T08:06:23Z</time>
      </trkpt>
      <trkpt lat="44.68816" lon="2.85795">
        <ele>991.4</ele>
        <time>2022-08-06T08:06:24Z</time>
      </trkpt>
      <trkpt lat="44.6882" lon="2.85798">
        <ele>991.6</ele>
        <time>2022-08-06T08:06:27Z</time>
      </trkpt>
      <trkpt lat="44.68823" lon="2.858">
        <ele>991.7</ele>
        <time>2022-08-06T08:06:30Z</time>
      </trkpt>
      <trkpt lat="44.68829" lon="2.85809">
        <ele>992.1</ele>
        <time>2022-08-06T08:06:38Z</time>
      </trkpt>
      <trkpt lat="44.68829" lon="2.8581">
        <ele>992.2</ele>
        <time>2022-08-06T08:06:39Z</time>
      </trkpt>
      <trkpt lat="44.68836" lon="2.85821">
        <ele>992.4</ele>
        <time>2022-08-06T08:06:47Z</time>
      </trkpt>
      <trkpt lat="44.68839" lon="2.85837">
        <ele>992.7</ele>
        <time>2022-08-06T08:06:56Z</time>
      </trkpt>
      <trkpt lat="44.6884" lon="2.8584">
        <ele>992.6</ele>
        <time>2022-08-06T08:06:58Z</time>
      </trkpt>
      <trkpt lat="44.6884" lon="2.85842">
        <ele>992.7</ele>
        <time>2022-08-06T08:07:01Z</time>
      </trkpt>
      <trkpt lat="44.68841" lon="2.85845">
        <ele>992.7</ele>
        <time>2022-08-06T08:07:03Z</time>
      </trkpt>
      <trkpt lat="44.68846" lon="2.8586">
        <ele>993</ele>
        <time>2022-08-06T08:07:12Z</time>
      </trkpt>
      <trkpt lat="44.68851" lon="2.85872">
        <ele>993.6</ele>
        <time>2022-08-06T08:07:22Z</time>
      </trkpt>
      <trkpt lat="44.68858" lon="2.85886">
        <ele>994.7</ele>
        <time>2022-08-06T08:07:33Z</time>
      </trkpt>
      <trkpt lat="44.68861" lon="2.85892">
        <ele>995.3</ele>
        <time>2022-08-06T08:07:38Z</time>
      </trkpt>
      <trkpt lat="44.68862" lon="2.85897">
        <ele>995.8</ele>
        <time>2022-08-06T08:07:42Z</time>
      </trkpt>
      <trkpt lat="44.68865" lon="2.859">
        <ele>996</ele>
        <time>2022-08-06T08:07:46Z</time>
      </trkpt>
      <trkpt lat="44.6887" lon="2.85906">
        <ele>996.4</ele>
        <time>2022-08-06T08:07:51Z</time>
      </trkpt>
      <trkpt lat="44.68873" lon="2.85909">
        <ele>996.6</ele>
        <time>2022-08-06T08:07:54Z</time>
      </trkpt>
      <trkpt lat="44.68873" lon="2.8591">
        <ele>996.7</ele>
        <time>2022-08-06T08:07:55Z</time>
      </trkpt>
      <trkpt lat="44.68875" lon="2.85911">
        <ele>996.8</ele>
        <time>2022-08-06T08:07:58Z</time>
      </trkpt>
      <trkpt lat="44.68877" lon="2.85915">
        <ele>997.2</ele>
        <time>2022-08-06T08:08:01Z</time>
      </trkpt>
      <trkpt lat="44.6888" lon="2.85919">
        <ele>997.8</ele>
        <time>2022-08-06T08:08:04Z</time>
      </trkpt>
      <trkpt lat="44.68881" lon="2.8592">
        <ele>997.9</ele>
        <time>2022-08-06T08:08:05Z</time>
      </trkpt>
      <trkpt lat="44.68882" lon="2.85926">
        <ele>999.3</ele>
        <time>2022-08-06T08:08:12Z</time>
      </trkpt>
      <trkpt lat="44.68884" lon="2.85929">
        <ele>999.7</ele>
        <time>2022-08-06T08:08:15Z</time>
      </trkpt>
      <trkpt lat="44.68885" lon="2.8593">
        <ele>1000</ele>
        <time>2022-08-06T08:08:16Z</time>
      </trkpt>
      <trkpt lat="44.68887" lon="2.85934">
        <ele>1000.8</ele>
        <time>2022-08-06T08:08:18Z</time>
      </trkpt>
      <trkpt lat="44.6889" lon="2.85941">
        <ele>1001.9</ele>
        <time>2022-08-06T08:08:24Z</time>
      </trkpt>
      <trkpt lat="44.68893" lon="2.85945">
        <ele>1002.2</ele>
        <time>2022-08-06T08:08:28Z</time>
      </trkpt>
      <trkpt lat="44.68893" lon="2.85945">
        <ele>1002.3</ele>
        <time>2022-08-06T08:08:30Z</time>
      </trkpt>
      <trkpt lat="44.68893" lon="2.85945">
        <ele>1002.3</ele>
        <time>2022-08-06T08:08:31Z</time>
      </trkpt>
      <trkpt lat="44.68895" lon="2.85948">
        <ele>1002.1</ele>
        <time>2022-08-06T08:08:35Z</time>
      </trkpt>
      <trkpt lat="44.68898" lon="2.8595">
        <ele>1002</ele>
        <time>2022-08-06T08:08:37Z</time>
      </trkpt>
      <trkpt lat="44.68899" lon="2.85952">
        <ele>1002</ele>
        <time>2022-08-06T08:08:38Z</time>
      </trkpt>
      <trkpt lat="44.689" lon="2.85953">
        <ele>1002.1</ele>
        <time>2022-08-06T08:08:39Z</time>
      </trkpt>
      <trkpt lat="44.68903" lon="2.85956">
        <ele>1002</ele>
        <time>2022-08-06T08:08:43Z</time>
      </trkpt>
      <trkpt lat="44.68905" lon="2.85958">
        <ele>1002.2</ele>
        <time>2022-08-06T08:08:45Z</time>
      </trkpt>
      <trkpt lat="44.68906" lon="2.8596">
        <ele>1002.3</ele>
        <time>2022-08-06T08:08:46Z</time>
      </trkpt>
      <trkpt lat="44.68909" lon="2.85963">
        <ele>1002.7</ele>
        <time>2022-08-06T08:08:50Z</time>
      </trkpt>
      <trkpt lat="44.68911" lon="2.85969">
        <ele>1003.7</ele>
        <time>2022-08-06T08:08:55Z</time>
      </trkpt>
      <trkpt lat="44.68912" lon="2.8597">
        <ele>1003.8</ele>
        <time>2022-08-06T08:08:56Z</time>
      </trkpt>
      <trkpt lat="44.68913" lon="2.85971">
        <ele>1003.9</ele>
        <time>2022-08-06T08:08:57Z</time>
      </trkpt>
      <trkpt lat="44.68913" lon="2.85972">
        <ele>1004.1</ele>
        <time>2022-08-06T08:08:58Z</time>
      </trkpt>
      <trkpt lat="44.68917" lon="2.85976">
        <ele>1004.6</ele>
        <time>2022-08-06T08:09:04Z</time>
      </trkpt>
      <trkpt lat="44.6892" lon="2.85977">
        <ele>1004.2</ele>
        <time>2022-08-06T08:09:07Z</time>
      </trkpt>
      <trkpt lat="44.68921" lon="2.85982">
        <ele>1004.9</ele>
        <time>2022-08-06T08:09:14Z</time>
      </trkpt>
      <trkpt lat="44.68926" lon="2.85987">
        <ele>1004.9</ele>
        <time>2022-08-06T08:09:21Z</time>
      </trkpt>
      <trkpt lat="44.68928" lon="2.85993">
        <ele>1005.3</ele>
        <time>2022-08-06T08:09:26Z</time>
      </trkpt>
      <trkpt lat="44.68929" lon="2.85995">
        <ele>1005.6</ele>
        <time>2022-08-06T08:09:27Z</time>
      </trkpt>
      <trkpt lat="44.6893" lon="2.85999">
        <ele>1006</ele>
        <time>2022-08-06T08:09:29Z</time>
      </trkpt>
      <trkpt lat="44.68932" lon="2.86006">
        <ele>1006</ele>
        <time>2022-08-06T08:09:34Z</time>
      </trkpt>
      <trkpt lat="44.68932" lon="2.8601">
        <ele>1006.1</ele>
        <time>2022-08-06T08:09:37Z</time>
      </trkpt>
      <trkpt lat="44.68932" lon="2.86011">
        <ele>1006.2</ele>
        <time>2022-08-06T08:09:39Z</time>
      </trkpt>
      <trkpt lat="44.68933" lon="2.86012">
        <ele>1006.1</ele>
        <time>2022-08-06T08:09:40Z</time>
      </trkpt>
      <trkpt lat="44.68933" lon="2.86013">
        <ele>1006.1</ele>
        <time>2022-08-06T08:09:41Z</time>
      </trkpt>
      <trkpt lat="44.68933" lon="2.86018">
        <ele>1006.4</ele>
        <time>2022-08-06T08:09:45Z</time>
      </trkpt>
      <trkpt lat="44.68932" lon="2.8602">
        <ele>1006.6</ele>
        <time>2022-08-06T08:09:46Z</time>
      </trkpt>
      <trkpt lat="44.68932" lon="2.86024">
        <ele>1006.9</ele>
        <time>2022-08-06T08:09:49Z</time>
      </trkpt>
      <trkpt lat="44.68932" lon="2.86029">
        <ele>1007.2</ele>
        <time>2022-08-06T08:09:53Z</time>
      </trkpt>
      <trkpt lat="44.6893" lon="2.8604">
        <ele>1008.5</ele>
        <time>2022-08-06T08:10:01Z</time>
      </trkpt>
      <trkpt lat="44.6893" lon="2.8604">
        <ele>1008.6</ele>
        <time>2022-08-06T08:10:02Z</time>
      </trkpt>
      <trkpt lat="44.68929" lon="2.86044">
        <ele>1009.1</ele>
        <time>2022-08-06T08:10:06Z</time>
      </trkpt>
      <trkpt lat="44.68929" lon="2.86045">
        <ele>1009.2</ele>
        <time>2022-08-06T08:10:07Z</time>
      </trkpt>
      <trkpt lat="44.68927" lon="2.86053">
        <ele>1010.2</ele>
        <time>2022-08-06T08:10:12Z</time>
      </trkpt>
      <trkpt lat="44.68925" lon="2.86062">
        <ele>1011</ele>
        <time>2022-08-06T08:10:18Z</time>
      </trkpt>
      <trkpt lat="44.68925" lon="2.86063">
        <ele>1011</ele>
        <time>2022-08-06T08:10:19Z</time>
      </trkpt>
      <trkpt lat="44.68925" lon="2.86066">
        <ele>1011.1</ele>
        <time>2022-08-06T08:10:21Z</time>
      </trkpt>
      <trkpt lat="44.68924" lon="2.86075">
        <ele>1011.5</ele>
        <time>2022-08-06T08:10:27Z</time>
      </trkpt>
      <trkpt lat="44.68923" lon="2.86085">
        <ele>1012</ele>
        <time>2022-08-06T08:10:34Z</time>
      </trkpt>
      <trkpt lat="44.68923" lon="2.86087">
        <ele>1012.1</ele>
        <time>2022-08-06T08:10:35Z</time>
      </trkpt>
      <trkpt lat="44.68923" lon="2.86088">
        <ele>1012.3</ele>
        <time>2022-08-06T08:10:36Z</time>
      </trkpt>
      <trkpt lat="44.68922" lon="2.86091">
        <ele>1012.6</ele>
        <time>2022-08-06T08:10:38Z</time>
      </trkpt>
      <trkpt lat="44.68921" lon="2.86094">
        <ele>1012.9</ele>
        <time>2022-08-06T08:10:40Z</time>
      </trkpt>
      <trkpt lat="44.68921" lon="2.86098">
        <ele>1013.3</ele>
        <time>2022-08-06T08:10:43Z</time>
      </trkpt>
      <trkpt lat="44.68921" lon="2.86099">
        <ele>1013.4</ele>
        <time>2022-08-06T08:10:44Z</time>
      </trkpt>
      <trkpt lat="44.68921" lon="2.86103">
        <ele>1013.7</ele>
        <time>2022-08-06T08:10:47Z</time>
      </trkpt>
      <trkpt lat="44.6892" lon="2.8611">
        <ele>1014.3</ele>
        <time>2022-08-06T08:10:54Z</time>
      </trkpt>
      <trkpt lat="44.6892" lon="2.86112">
        <ele>1014.4</ele>
        <time>2022-08-06T08:10:56Z</time>
      </trkpt>
      <trkpt lat="44.6892" lon="2.86117">
        <ele>1014.7</ele>
        <time>2022-08-06T08:10:59Z</time>
      </trkpt>
      <trkpt lat="44.6892" lon="2.86119">
        <ele>1014.8</ele>
        <time>2022-08-06T08:11:00Z</time>
      </trkpt>
      <trkpt lat="44.68919" lon="2.86129">
        <ele>1015.4</ele>
        <time>2022-08-06T08:11:07Z</time>
      </trkpt>
      <trkpt lat="44.68918" lon="2.86131">
        <ele>1015.5</ele>
        <time>2022-08-06T08:11:09Z</time>
      </trkpt>
      <trkpt lat="44.68917" lon="2.86131">
        <ele>1015.7</ele>
        <time>2022-08-06T08:11:10Z</time>
      </trkpt>
      <trkpt lat="44.68916" lon="2.86132">
        <ele>1015.8</ele>
        <time>2022-08-06T08:11:12Z</time>
      </trkpt>
      <trkpt lat="44.68916" lon="2.86142">
        <ele>1016.2</ele>
        <time>2022-08-06T08:11:18Z</time>
      </trkpt>
      <trkpt lat="44.68916" lon="2.86147">
        <ele>1016.4</ele>
        <time>2022-08-06T08:11:21Z</time>
      </trkpt>
      <trkpt lat="44.68916" lon="2.86158">
        <ele>1016.8</ele>
        <time>2022-08-06T08:11:28Z</time>
      </trkpt>
      <trkpt lat="44.68916" lon="2.86167">
        <ele>1017.2</ele>
        <time>2022-08-06T08:11:34Z</time>
      </trkpt>
      <trkpt lat="44.68915" lon="2.86179">
        <ele>1017.7</ele>
        <time>2022-08-06T08:11:42Z</time>
      </trkpt>
      <trkpt lat="44.68915" lon="2.86182">
        <ele>1017.8</ele>
        <time>2022-08-06T08:11:44Z</time>
      </trkpt>
      <trkpt lat="44.68915" lon="2.86186">
        <ele>1017.9</ele>
        <time>2022-08-06T08:11:46Z</time>
      </trkpt>
      <trkpt lat="44.68916" lon="2.86194">
        <ele>1018.1</ele>
        <time>2022-08-06T08:11:51Z</time>
      </trkpt>
      <trkpt lat="44.68916" lon="2.86198">
        <ele>1018.3</ele>
        <time>2022-08-06T08:11:54Z</time>
      </trkpt>
      <trkpt lat="44.68916" lon="2.8621">
        <ele>1018.7</ele>
        <time>2022-08-06T08:12:01Z</time>
      </trkpt>
      <trkpt lat="44.68916" lon="2.86217">
        <ele>1018.9</ele>
        <time>2022-08-06T08:12:05Z</time>
      </trkpt>
      <trkpt lat="44.68917" lon="2.86231">
        <ele>1019.9</ele>
        <time>2022-08-06T08:12:14Z</time>
      </trkpt>
      <trkpt lat="44.68917" lon="2.86233">
        <ele>1020</ele>
        <time>2022-08-06T08:12:15Z</time>
      </trkpt>
      <trkpt lat="44.6892" lon="2.86242">
        <ele>1020.6</ele>
        <time>2022-08-06T08:12:22Z</time>
      </trkpt>
      <trkpt lat="44.6892" lon="2.86244">
        <ele>1020.8</ele>
        <time>2022-08-06T08:12:24Z</time>
      </trkpt>
      <trkpt lat="44.68921" lon="2.86245">
        <ele>1020.9</ele>
        <time>2022-08-06T08:12:26Z</time>
      </trkpt>
      <trkpt lat="44.6892" lon="2.86246">
        <ele>1021</ele>
        <time>2022-08-06T08:12:28Z</time>
      </trkpt>
      <trkpt lat="44.6892" lon="2.86246">
        <ele>1021</ele>
        <time>2022-08-06T08:12:30Z</time>
      </trkpt>
      <trkpt lat="44.68923" lon="2.8625">
        <ele>1020.8</ele>
        <time>2022-08-06T08:12:36Z</time>
      </trkpt>
      <trkpt lat="44.6893" lon="2.86259">
        <ele>1020.3</ele>
        <time>2022-08-06T08:12:44Z</time>
      </trkpt>
      <trkpt lat="44.68933" lon="2.86262">
        <ele>1020.1</ele>
        <time>2022-08-06T08:12:47Z</time>
      </trkpt>
      <trkpt lat="44.6894" lon="2.86267">
        <ele>1019.5</ele>
        <time>2022-08-06T08:12:54Z</time>
      </trkpt>
      <trkpt lat="44.68943" lon="2.8627">
        <ele>1019.3</ele>
        <time>2022-08-06T08:12:57Z</time>
      </trkpt>
      <trkpt lat="44.68947" lon="2.86274">
        <ele>1019.4</ele>
        <time>2022-08-06T08:13:01Z</time>
      </trkpt>
      <trkpt lat="44.68952" lon="2.8628">
        <ele>1019.3</ele>
        <time>2022-08-06T08:13:07Z</time>
      </trkpt>
      <trkpt lat="44.6896" lon="2.86289">
        <ele>1019</ele>
        <time>2022-08-06T08:13:15Z</time>
      </trkpt>
      <trkpt lat="44.68969" lon="2.86298">
        <ele>1018.7</ele>
        <time>2022-08-06T08:13:24Z</time>
      </trkpt>
      <trkpt lat="44.68971" lon="2.863">
        <ele>1018.7</ele>
        <time>2022-08-06T08:13:27Z</time>
      </trkpt>
      <trkpt lat="44.68973" lon="2.86303">
        <ele>1018.8</ele>
        <time>2022-08-06T08:13:30Z</time>
      </trkpt>
      <trkpt lat="44.68974" lon="2.86304">
        <ele>1018.8</ele>
        <time>2022-08-06T08:13:31Z</time>
      </trkpt>
      <trkpt lat="44.68984" lon="2.86312">
        <ele>1019</ele>
        <time>2022-08-06T08:13:41Z</time>
      </trkpt>
      <trkpt lat="44.68985" lon="2.86313">
        <ele>1019</ele>
        <time>2022-08-06T08:13:42Z</time>
      </trkpt>
      <trkpt lat="44.68992" lon="2.86317">
        <ele>1019.1</ele>
        <time>2022-08-06T08:13:47Z</time>
      </trkpt>
      <trkpt lat="44.68998" lon="2.86321">
        <ele>1019.2</ele>
        <time>2022-08-06T08:13:52Z</time>
      </trkpt>
      <trkpt lat="44.69002" lon="2.86323">
        <ele>1019.2</ele>
        <time>2022-08-06T08:13:56Z</time>
      </trkpt>
      <trkpt lat="44.69012" lon="2.86331">
        <ele>1019.4</ele>
        <time>2022-08-06T08:14:05Z</time>
      </trkpt>
      <trkpt lat="44.69022" lon="2.86339">
        <ele>1019.6</ele>
        <time>2022-08-06T08:14:14Z</time>
      </trkpt>
      <trkpt lat="44.69029" lon="2.86344">
        <ele>1019.7</ele>
        <time>2022-08-06T08:14:20Z</time>
      </trkpt>
      <trkpt lat="44.69032" lon="2.86346">
        <ele>1019.8</ele>
        <time>2022-08-06T08:14:23Z</time>
      </trkpt>
      <trkpt lat="44.69035" lon="2.86347">
        <ele>1019.7</ele>
        <time>2022-08-06T08:14:26Z</time>
      </trkpt>
      <trkpt lat="44.69041" lon="2.8635">
        <ele>1019.8</ele>
        <time>2022-08-06T08:14:31Z</time>
      </trkpt>
      <trkpt lat="44.69053" lon="2.86357">
        <ele>1020.4</ele>
        <time>2022-08-06T08:14:41Z</time>
      </trkpt>
      <trkpt lat="44.69054" lon="2.86357">
        <ele>1020.5</ele>
        <time>2022-08-06T08:14:42Z</time>
      </trkpt>
      <trkpt lat="44.69054" lon="2.86358">
        <ele>1020.6</ele>
        <time>2022-08-06T08:14:43Z</time>
      </trkpt>
      <trkpt lat="44.69056" lon="2.86361">
        <ele>1020.9</ele>
        <time>2022-08-06T08:14:45Z</time>
      </trkpt>
      <trkpt lat="44.69066" lon="2.86374">
        <ele>1020.8</ele>
        <time>2022-08-06T08:14:55Z</time>
      </trkpt>
      <trkpt lat="44.69067" lon="2.86379">
        <ele>1021</ele>
        <time>2022-08-06T08:14:59Z</time>
      </trkpt>
      <trkpt lat="44.69069" lon="2.86381">
        <ele>1020.9</ele>
        <time>2022-08-06T08:15:01Z</time>
      </trkpt>
      <trkpt lat="44.69073" lon="2.86385">
        <ele>1020.9</ele>
        <time>2022-08-06T08:15:05Z</time>
      </trkpt>
      <trkpt lat="44.69076" lon="2.8639">
        <ele>1020.9</ele>
        <time>2022-08-06T08:15:09Z</time>
      </trkpt>
      <trkpt lat="44.69077" lon="2.86394">
        <ele>1021.1</ele>
        <time>2022-08-06T08:15:12Z</time>
      </trkpt>
      <trkpt lat="44.6908" lon="2.86397">
        <ele>1021.2</ele>
        <time>2022-08-06T08:15:15Z</time>
      </trkpt>
      <trkpt lat="44.6908" lon="2.86398">
        <ele>1021.2</ele>
        <time>2022-08-06T08:15:16Z</time>
      </trkpt>
      <trkpt lat="44.69086" lon="2.86406">
        <ele>1021.4</ele>
        <time>2022-08-06T08:15:23Z</time>
      </trkpt>
      <trkpt lat="44.69094" lon="2.86416">
        <ele>1021.1</ele>
        <time>2022-08-06T08:15:32Z</time>
      </trkpt>
      <trkpt lat="44.69098" lon="2.8643">
        <ele>1020.8</ele>
        <time>2022-08-06T08:15:40Z</time>
      </trkpt>
      <trkpt lat="44.69103" lon="2.86443">
        <ele>1020.8</ele>
        <time>2022-08-06T08:15:48Z</time>
      </trkpt>
      <trkpt lat="44.69103" lon="2.86444">
        <ele>1020.9</ele>
        <time>2022-08-06T08:15:49Z</time>
      </trkpt>
      <trkpt lat="44.69103" lon="2.86453">
        <ele>1021.4</ele>
        <time>2022-08-06T08:15:54Z</time>
      </trkpt>
      <trkpt lat="44.69107" lon="2.86461">
        <ele>1021.6</ele>
        <time>2022-08-06T08:15:59Z</time>
      </trkpt>
      <trkpt lat="44.69108" lon="2.86463">
        <ele>1021.6</ele>
        <time>2022-08-06T08:16:01Z</time>
      </trkpt>
      <trkpt lat="44.69112" lon="2.86473">
        <ele>1021.9</ele>
        <time>2022-08-06T08:16:08Z</time>
      </trkpt>
      <trkpt lat="44.69118" lon="2.86487">
        <ele>1021.8</ele>
        <time>2022-08-06T08:16:17Z</time>
      </trkpt>
      <trkpt lat="44.69128" lon="2.865">
        <ele>1021.8</ele>
        <time>2022-08-06T08:16:27Z</time>
      </trkpt>
      <trkpt lat="44.69138" lon="2.86509">
        <ele>1022</ele>
        <time>2022-08-06T08:16:36Z</time>
      </trkpt>
      <trkpt lat="44.69145" lon="2.86516">
        <ele>1022.8</ele>
        <time>2022-08-06T08:16:44Z</time>
      </trkpt>
      <trkpt lat="44.69152" lon="2.86525">
        <ele>1023.7</ele>
        <time>2022-08-06T08:16:52Z</time>
      </trkpt>
      <trkpt lat="44.69152" lon="2.86527">
        <ele>1023.9</ele>
        <time>2022-08-06T08:16:54Z</time>
      </trkpt>
      <trkpt lat="44.69154" lon="2.86529">
        <ele>1024.1</ele>
        <time>2022-08-06T08:16:56Z</time>
      </trkpt>
      <trkpt lat="44.69157" lon="2.86531">
        <ele>1024.3</ele>
        <time>2022-08-06T08:17:01Z</time>
      </trkpt>
      <trkpt lat="44.69157" lon="2.86532">
        <ele>1024.4</ele>
        <time>2022-08-06T08:17:03Z</time>
      </trkpt>
      <trkpt lat="44.69159" lon="2.86534">
        <ele>1024.6</ele>
        <time>2022-08-06T08:17:05Z</time>
      </trkpt>
      <trkpt lat="44.69159" lon="2.86535">
        <ele>1024.7</ele>
        <time>2022-08-06T08:17:06Z</time>
      </trkpt>
      <trkpt lat="44.69161" lon="2.86542">
        <ele>1025.5</ele>
        <time>2022-08-06T08:17:12Z</time>
      </trkpt>
      <trkpt lat="44.69162" lon="2.86543">
        <ele>1025.6</ele>
        <time>2022-08-06T08:17:13Z</time>
      </trkpt>
      <trkpt lat="44.69166" lon="2.86549">
        <ele>1026.3</ele>
        <time>2022-08-06T08:17:18Z</time>
      </trkpt>
      <trkpt lat="44.69166" lon="2.8655">
        <ele>1026.4</ele>
        <time>2022-08-06T08:17:19Z</time>
      </trkpt>
      <trkpt lat="44.69168" lon="2.86553">
        <ele>1026.7</ele>
        <time>2022-08-06T08:17:21Z</time>
      </trkpt>
      <trkpt lat="44.69174" lon="2.8656">
        <ele>1027.1</ele>
        <time>2022-08-06T08:17:27Z</time>
      </trkpt>
      <trkpt lat="44.69175" lon="2.86562">
        <ele>1027.3</ele>
        <time>2022-08-06T08:17:29Z</time>
      </trkpt>
      <trkpt lat="44.69182" lon="2.86568">
        <ele>1027.8</ele>
        <time>2022-08-06T08:17:38Z</time>
      </trkpt>
      <trkpt lat="44.69187" lon="2.86571">
        <ele>1028.2</ele>
        <time>2022-08-06T08:17:44Z</time>
      </trkpt>
      <trkpt lat="44.69195" lon="2.86577">
        <ele>1029.1</ele>
        <time>2022-08-06T08:17:52Z</time>
      </trkpt>
      <trkpt lat="44.69197" lon="2.86578">
        <ele>1029.1</ele>
        <time>2022-08-06T08:17:54Z</time>
      </trkpt>
      <trkpt lat="44.69204" lon="2.86582">
        <ele>1029.2</ele>
        <time>2022-08-06T08:18:01Z</time>
      </trkpt>
      <trkpt lat="44.69205" lon="2.86584">
        <ele>1029.3</ele>
        <time>2022-08-06T08:18:03Z</time>
      </trkpt>
      <trkpt lat="44.69207" lon="2.86586">
        <ele>1029.4</ele>
        <time>2022-08-06T08:18:07Z</time>
      </trkpt>
      <trkpt lat="44.69208" lon="2.86587">
        <ele>1029.3</ele>
        <time>2022-08-06T08:18:08Z</time>
      </trkpt>
      <trkpt lat="44.6921" lon="2.86588">
        <ele>1029.3</ele>
        <time>2022-08-06T08:18:10Z</time>
      </trkpt>
      <trkpt lat="44.69214" lon="2.8659">
        <ele>1029.3</ele>
        <time>2022-08-06T08:18:14Z</time>
      </trkpt>
      <trkpt lat="44.69224" lon="2.866">
        <ele>1029.6</ele>
        <time>2022-08-06T08:18:24Z</time>
      </trkpt>
      <trkpt lat="44.69226" lon="2.86602">
        <ele>1029.5</ele>
        <time>2022-08-06T08:18:26Z</time>
      </trkpt>
      <trkpt lat="44.6923" lon="2.86605">
        <ele>1029.6</ele>
        <time>2022-08-06T08:18:29Z</time>
      </trkpt>
      <trkpt lat="44.69232" lon="2.86606">
        <ele>1029.4</ele>
        <time>2022-08-06T08:18:31Z</time>
      </trkpt>
      <trkpt lat="44.6924" lon="2.8661">
        <ele>1028.9</ele>
        <time>2022-08-06T08:18:39Z</time>
      </trkpt>
      <trkpt lat="44.69249" lon="2.86615">
        <ele>1028.7</ele>
        <time>2022-08-06T08:18:47Z</time>
      </trkpt>
      <trkpt lat="44.69251" lon="2.86617">
        <ele>1028.7</ele>
        <time>2022-08-06T08:18:50Z</time>
      </trkpt>
      <trkpt lat="44.69251" lon="2.86618">
        <ele>1029</ele>
        <time>2022-08-06T08:18:52Z</time>
      </trkpt>
      <trkpt lat="44.69255" lon="2.86623">
        <ele>1029.4</ele>
        <time>2022-08-06T08:18:57Z</time>
      </trkpt>
      <trkpt lat="44.69256" lon="2.86624">
        <ele>1029.4</ele>
        <time>2022-08-06T08:18:58Z</time>
      </trkpt>
      <trkpt lat="44.69263" lon="2.86629">
        <ele>1029.5</ele>
        <time>2022-08-06T08:19:05Z</time>
      </trkpt>
      <trkpt lat="44.69273" lon="2.86635">
        <ele>1029.8</ele>
        <time>2022-08-06T08:19:14Z</time>
      </trkpt>
      <trkpt lat="44.69288" lon="2.86643">
        <ele>1030.5</ele>
        <time>2022-08-06T08:19:25Z</time>
      </trkpt>
      <trkpt lat="44.6929" lon="2.86644">
        <ele>1030.7</ele>
        <time>2022-08-06T08:19:27Z</time>
      </trkpt>
      <trkpt lat="44.6929" lon="2.86643">
        <ele>1030.4</ele>
        <time>2022-08-06T08:19:29Z</time>
      </trkpt>
      <trkpt lat="44.69291" lon="2.86643">
        <ele>1030.4</ele>
        <time>2022-08-06T08:19:30Z</time>
      </trkpt>
      <trkpt lat="44.69292" lon="2.86642">
        <ele>1030.3</ele>
        <time>2022-08-06T08:19:35Z</time>
      </trkpt>
      <trkpt lat="44.69291" lon="2.86642">
        <ele>1030.2</ele>
        <time>2022-08-06T08:19:36Z</time>
      </trkpt>
      <trkpt lat="44.6929" lon="2.86642">
        <ele>1030.2</ele>
        <time>2022-08-06T08:19:42Z</time>
      </trkpt>
      <trkpt lat="44.6929" lon="2.86641">
        <ele>1030</ele>
        <time>2022-08-06T08:19:47Z</time>
      </trkpt>
      <trkpt lat="44.69294" lon="2.86644">
        <ele>1030.7</ele>
        <time>2022-08-06T08:19:57Z</time>
      </trkpt>
      <trkpt lat="44.69302" lon="2.86647">
        <ele>1031.1</ele>
        <time>2022-08-06T08:20:03Z</time>
      </trkpt>
      <trkpt lat="44.69306" lon="2.86646">
        <ele>1030.7</ele>
        <time>2022-08-06T08:20:07Z</time>
      </trkpt>
      <trkpt lat="44.69307" lon="2.86645">
        <ele>1030.6</ele>
        <time>2022-08-06T08:20:08Z</time>
      </trkpt>
      <trkpt lat="44.69316" lon="2.86645">
        <ele>1031.3</ele>
        <time>2022-08-06T08:20:14Z</time>
      </trkpt>
      <trkpt lat="44.69321" lon="2.86644">
        <ele>1031.5</ele>
        <time>2022-08-06T08:20:18Z</time>
      </trkpt>
      <trkpt lat="44.69324" lon="2.86643">
        <ele>1031.4</ele>
        <time>2022-08-06T08:20:20Z</time>
      </trkpt>
      <trkpt lat="44.6933" lon="2.86636">
        <ele>1030.3</ele>
        <time>2022-08-06T08:20:25Z</time>
      </trkpt>
      <trkpt lat="44.69332" lon="2.86635">
        <ele>1030.1</ele>
        <time>2022-08-06T08:20:26Z</time>
      </trkpt>
      <trkpt lat="44.69341" lon="2.86628">
        <ele>1030.1</ele>
        <time>2022-08-06T08:20:33Z</time>
      </trkpt>
      <trkpt lat="44.69345" lon="2.86624">
        <ele>1029.9</ele>
        <time>2022-08-06T08:20:37Z</time>
      </trkpt>
      <trkpt lat="44.69348" lon="2.86622">
        <ele>1030</ele>
        <time>2022-08-06T08:20:40Z</time>
      </trkpt>
      <trkpt lat="44.6935" lon="2.8662">
        <ele>1029.9</ele>
        <time>2022-08-06T08:20:42Z</time>
      </trkpt>
      <trkpt lat="44.69353" lon="2.86616">
        <ele>1029.8</ele>
        <time>2022-08-06T08:20:46Z</time>
      </trkpt>
      <trkpt lat="44.69359" lon="2.86611">
        <ele>1029.7</ele>
        <time>2022-08-06T08:20:50Z</time>
      </trkpt>
      <trkpt lat="44.69362" lon="2.8661">
        <ele>1029.9</ele>
        <time>2022-08-06T08:20:53Z</time>
      </trkpt>
      <trkpt lat="44.69363" lon="2.86608">
        <ele>1029.8</ele>
        <time>2022-08-06T08:20:54Z</time>
      </trkpt>
      <trkpt lat="44.69372" lon="2.86603">
        <ele>1029.8</ele>
        <time>2022-08-06T08:21:00Z</time>
      </trkpt>
      <trkpt lat="44.69384" lon="2.86601">
        <ele>1030.3</ele>
        <time>2022-08-06T08:21:09Z</time>
      </trkpt>
      <trkpt lat="44.69398" lon="2.86598">
        <ele>1030.5</ele>
        <time>2022-08-06T08:21:17Z</time>
      </trkpt>
      <trkpt lat="44.69409" lon="2.86599">
        <ele>1031.1</ele>
        <time>2022-08-06T08:21:26Z</time>
      </trkpt>
      <trkpt lat="44.69418" lon="2.86596">
        <ele>1030.7</ele>
        <time>2022-08-06T08:21:33Z</time>
      </trkpt>
      <trkpt lat="44.6943" lon="2.86594">
        <ele>1030.2</ele>
        <time>2022-08-06T08:21:42Z</time>
      </trkpt>
      <trkpt lat="44.69441" lon="2.86595">
        <ele>1030.1</ele>
        <time>2022-08-06T08:21:50Z</time>
      </trkpt>
      <trkpt lat="44.69456" lon="2.86597">
        <ele>1030.5</ele>
        <time>2022-08-06T08:22:00Z</time>
      </trkpt>
      <trkpt lat="44.69467" lon="2.86597">
        <ele>1030.5</ele>
        <time>2022-08-06T08:22:08Z</time>
      </trkpt>
      <trkpt lat="44.69476" lon="2.86599">
        <ele>1030.5</ele>
        <time>2022-08-06T08:22:15Z</time>
      </trkpt>
      <trkpt lat="44.69481" lon="2.866">
        <ele>1030.4</ele>
        <time>2022-08-06T08:22:18Z</time>
      </trkpt>
      <trkpt lat="44.69483" lon="2.86602">
        <ele>1030.7</ele>
        <time>2022-08-06T08:22:19Z</time>
      </trkpt>
      <trkpt lat="44.69485" lon="2.86604">
        <ele>1030.8</ele>
        <time>2022-08-06T08:22:21Z</time>
      </trkpt>
      <trkpt lat="44.69493" lon="2.86609">
        <ele>1031.2</ele>
        <time>2022-08-06T08:22:29Z</time>
      </trkpt>
      <trkpt lat="44.69502" lon="2.86616">
        <ele>1031.3</ele>
        <time>2022-08-06T08:22:37Z</time>
      </trkpt>
      <trkpt lat="44.69513" lon="2.86624">
        <ele>1031.2</ele>
        <time>2022-08-06T08:22:47Z</time>
      </trkpt>
      <trkpt lat="44.6952" lon="2.86628">
        <ele>1031.1</ele>
        <time>2022-08-06T08:22:54Z</time>
      </trkpt>
      <trkpt lat="44.69521" lon="2.86628">
        <ele>1031</ele>
        <time>2022-08-06T08:22:55Z</time>
      </trkpt>
      <trkpt lat="44.69528" lon="2.86627">
        <ele>1030.3</ele>
        <time>2022-08-06T08:23:03Z</time>
      </trkpt>
      <trkpt lat="44.69529" lon="2.86627">
        <ele>1030.2</ele>
        <time>2022-08-06T08:23:04Z</time>
      </trkpt>
      <trkpt lat="44.69536" lon="2.86627">
        <ele>1029.5</ele>
        <time>2022-08-06T08:23:11Z</time>
      </trkpt>
      <trkpt lat="44.69538" lon="2.86626">
        <ele>1029.2</ele>
        <time>2022-08-06T08:23:13Z</time>
      </trkpt>
      <trkpt lat="44.69548" lon="2.86628">
        <ele>1028.6</ele>
        <time>2022-08-06T08:23:21Z</time>
      </trkpt>
      <trkpt lat="44.69559" lon="2.86629">
        <ele>1027.7</ele>
        <time>2022-08-06T08:23:28Z</time>
      </trkpt>
      <trkpt lat="44.69561" lon="2.86629">
        <ele>1027.6</ele>
        <time>2022-08-06T08:23:30Z</time>
      </trkpt>
      <trkpt lat="44.69561" lon="2.86628">
        <ele>1027.6</ele>
        <time>2022-08-06T08:23:31Z</time>
      </trkpt>
      <trkpt lat="44.69562" lon="2.86627">
        <ele>1027.4</ele>
        <time>2022-08-06T08:23:34Z</time>
      </trkpt>
      <trkpt lat="44.69564" lon="2.86625">
        <ele>1027</ele>
        <time>2022-08-06T08:23:38Z</time>
      </trkpt>
      <trkpt lat="44.69577" lon="2.86623">
        <ele>1026.2</ele>
        <time>2022-08-06T08:23:46Z</time>
      </trkpt>
      <trkpt lat="44.69579" lon="2.86624">
        <ele>1026.1</ele>
        <time>2022-08-06T08:23:47Z</time>
      </trkpt>
      <trkpt lat="44.69588" lon="2.86627">
        <ele>1026.1</ele>
        <time>2022-08-06T08:23:55Z</time>
      </trkpt>
      <trkpt lat="44.69595" lon="2.86629">
        <ele>1026.2</ele>
        <time>2022-08-06T08:24:01Z</time>
      </trkpt>
      <trkpt lat="44.69607" lon="2.86637">
        <ele>1026.8</ele>
        <time>2022-08-06T08:24:10Z</time>
      </trkpt>
      <trkpt lat="44.69608" lon="2.86638">
        <ele>1026.9</ele>
        <time>2022-08-06T08:24:13Z</time>
      </trkpt>
      <trkpt lat="44.69611" lon="2.86639">
        <ele>1027</ele>
        <time>2022-08-06T08:24:15Z</time>
      </trkpt>
      <trkpt lat="44.69612" lon="2.8664">
        <ele>1027.1</ele>
        <time>2022-08-06T08:24:16Z</time>
      </trkpt>
      <trkpt lat="44.6962" lon="2.86642">
        <ele>1027.5</ele>
        <time>2022-08-06T08:24:24Z</time>
      </trkpt>
      <trkpt lat="44.69621" lon="2.86643">
        <ele>1027.7</ele>
        <time>2022-08-06T08:24:27Z</time>
      </trkpt>
      <trkpt lat="44.69623" lon="2.86646">
        <ele>1027.9</ele>
        <time>2022-08-06T08:24:32Z</time>
      </trkpt>
      <trkpt lat="44.69623" lon="2.86647">
        <ele>1028</ele>
        <time>2022-08-06T08:24:33Z</time>
      </trkpt>
      <trkpt lat="44.69628" lon="2.8665">
        <ele>1028.4</ele>
        <time>2022-08-06T08:24:40Z</time>
      </trkpt>
      <trkpt lat="44.6963" lon="2.86651">
        <ele>1028.6</ele>
        <time>2022-08-06T08:24:42Z</time>
      </trkpt>
      <trkpt lat="44.69633" lon="2.86654">
        <ele>1028.9</ele>
        <time>2022-08-06T08:24:46Z</time>
      </trkpt>
      <trkpt lat="44.69638" lon="2.86662">
        <ele>1029.7</ele>
        <time>2022-08-06T08:24:52Z</time>
      </trkpt>
      <trkpt lat="44.69638" lon="2.86664">
        <ele>1029.7</ele>
        <time>2022-08-06T08:24:53Z</time>
      </trkpt>
      <trkpt lat="44.69641" lon="2.86667">
        <ele>1029.9</ele>
        <time>2022-08-06T08:24:56Z</time>
      </trkpt>
      <trkpt lat="44.69646" lon="2.8667">
        <ele>1030</ele>
        <time>2022-08-06T08:25:00Z</time>
      </trkpt>
      <trkpt lat="44.69653" lon="2.86679">
        <ele>1030.6</ele>
        <time>2022-08-06T08:25:07Z</time>
      </trkpt>
      <trkpt lat="44.69657" lon="2.86681">
        <ele>1030.7</ele>
        <time>2022-08-06T08:25:09Z</time>
      </trkpt>
      <trkpt lat="44.69662" lon="2.86686">
        <ele>1031.1</ele>
        <time>2022-08-06T08:25:15Z</time>
      </trkpt>
      <trkpt lat="44.69665" lon="2.86687">
        <ele>1031.2</ele>
        <time>2022-08-06T08:25:17Z</time>
      </trkpt>
      <trkpt lat="44.6967" lon="2.86692">
        <ele>1031.9</ele>
        <time>2022-08-06T08:25:23Z</time>
      </trkpt>
      <trkpt lat="44.69672" lon="2.86694">
        <ele>1032.2</ele>
        <time>2022-08-06T08:25:25Z</time>
      </trkpt>
      <trkpt lat="44.69676" lon="2.86699">
        <ele>1032.7</ele>
        <time>2022-08-06T08:25:29Z</time>
      </trkpt>
      <trkpt lat="44.69678" lon="2.86701">
        <ele>1033</ele>
        <time>2022-08-06T08:25:31Z</time>
      </trkpt>
      <trkpt lat="44.69681" lon="2.86707">
        <ele>1033.6</ele>
        <time>2022-08-06T08:25:36Z</time>
      </trkpt>
      <trkpt lat="44.69683" lon="2.86712">
        <ele>1034.3</ele>
        <time>2022-08-06T08:25:40Z</time>
      </trkpt>
      <trkpt lat="44.69687" lon="2.86718">
        <ele>1035.1</ele>
        <time>2022-08-06T08:25:44Z</time>
      </trkpt>
      <trkpt lat="44.69688" lon="2.86721">
        <ele>1035.4</ele>
        <time>2022-08-06T08:25:46Z</time>
      </trkpt>
      <trkpt lat="44.69689" lon="2.86722">
        <ele>1035.5</ele>
        <time>2022-08-06T08:25:47Z</time>
      </trkpt>
      <trkpt lat="44.6969" lon="2.86723">
        <ele>1035.7</ele>
        <time>2022-08-06T08:25:48Z</time>
      </trkpt>
      <trkpt lat="44.69697" lon="2.86729">
        <ele>1036.7</ele>
        <time>2022-08-06T08:25:55Z</time>
      </trkpt>
      <trkpt lat="44.69698" lon="2.8673">
        <ele>1036.9</ele>
        <time>2022-08-06T08:25:57Z</time>
      </trkpt>
      <trkpt lat="44.69699" lon="2.8673">
        <ele>1037</ele>
        <time>2022-08-06T08:25:59Z</time>
      </trkpt>
      <trkpt lat="44.697" lon="2.86729">
        <ele>1037</ele>
        <time>2022-08-06T08:26:01Z</time>
      </trkpt>
      <trkpt lat="44.697" lon="2.8673">
        <ele>1037</ele>
        <time>2022-08-06T08:26:02Z</time>
      </trkpt>
      <trkpt lat="44.697" lon="2.8673">
        <ele>1037.1</ele>
        <time>2022-08-06T08:26:05Z</time>
      </trkpt>
      <trkpt lat="44.69701" lon="2.86731">
        <ele>1037.3</ele>
        <time>2022-08-06T08:26:07Z</time>
      </trkpt>
      <trkpt lat="44.69707" lon="2.86735">
        <ele>1038.1</ele>
        <time>2022-08-06T08:26:14Z</time>
      </trkpt>
      <trkpt lat="44.6971" lon="2.86737">
        <ele>1038.5</ele>
        <time>2022-08-06T08:26:18Z</time>
      </trkpt>
      <trkpt lat="44.69714" lon="2.86738">
        <ele>1038.9</ele>
        <time>2022-08-06T08:26:21Z</time>
      </trkpt>
      <trkpt lat="44.69718" lon="2.86741">
        <ele>1039.3</ele>
        <time>2022-08-06T08:26:24Z</time>
      </trkpt>
      <trkpt lat="44.69718" lon="2.86744">
        <ele>1039.5</ele>
        <time>2022-08-06T08:26:27Z</time>
      </trkpt>
      <trkpt lat="44.69718" lon="2.86745">
        <ele>1039.5</ele>
        <time>2022-08-06T08:26:29Z</time>
      </trkpt>
      <trkpt lat="44.69718" lon="2.86744">
        <ele>1039.5</ele>
        <time>2022-08-06T08:26:33Z</time>
      </trkpt>
      <trkpt lat="44.69721" lon="2.86741">
        <ele>1039.6</ele>
        <time>2022-08-06T08:26:39Z</time>
      </trkpt>
      <trkpt lat="44.69731" lon="2.86744">
        <ele>1040.6</ele>
        <time>2022-08-06T08:26:47Z</time>
      </trkpt>
      <trkpt lat="44.69733" lon="2.86745">
        <ele>1040.9</ele>
        <time>2022-08-06T08:26:49Z</time>
      </trkpt>
      <trkpt lat="44.69742" lon="2.86743">
        <ele>1041.7</ele>
        <time>2022-08-06T08:26:54Z</time>
      </trkpt>
      <trkpt lat="44.69743" lon="2.86742">
        <ele>1041.7</ele>
        <time>2022-08-06T08:26:55Z</time>
      </trkpt>
      <trkpt lat="44.69746" lon="2.8674">
        <ele>1041.9</ele>
        <time>2022-08-06T08:26:58Z</time>
      </trkpt>
      <trkpt lat="44.69747" lon="2.86737">
        <ele>1041.8</ele>
        <time>2022-08-06T08:27:00Z</time>
      </trkpt>
      <trkpt lat="44.69748" lon="2.86737">
        <ele>1041.9</ele>
        <time>2022-08-06T08:27:01Z</time>
      </trkpt>
      <trkpt lat="44.69753" lon="2.86736">
        <ele>1042.2</ele>
        <time>2022-08-06T08:27:05Z</time>
      </trkpt>
      <trkpt lat="44.69757" lon="2.86737">
        <ele>1042.4</ele>
        <time>2022-08-06T08:27:08Z</time>
      </trkpt>
      <trkpt lat="44.69759" lon="2.86741">
        <ele>1042.8</ele>
        <time>2022-08-06T08:27:12Z</time>
      </trkpt>
      <trkpt lat="44.69764" lon="2.86747">
        <ele>1043.7</ele>
        <time>2022-08-06T08:27:17Z</time>
      </trkpt>
      <trkpt lat="44.69766" lon="2.86756">
        <ele>1045.1</ele>
        <time>2022-08-06T08:27:23Z</time>
      </trkpt>
      <trkpt lat="44.69766" lon="2.86759">
        <ele>1045.5</ele>
        <time>2022-08-06T08:27:25Z</time>
      </trkpt>
      <trkpt lat="44.69767" lon="2.86762">
        <ele>1045.9</ele>
        <time>2022-08-06T08:27:27Z</time>
      </trkpt>
      <trkpt lat="44.69768" lon="2.86765">
        <ele>1046.4</ele>
        <time>2022-08-06T08:27:30Z</time>
      </trkpt>
      <trkpt lat="44.69769" lon="2.86771">
        <ele>1047.3</ele>
        <time>2022-08-06T08:27:33Z</time>
      </trkpt>
      <trkpt lat="44.69769" lon="2.86772">
        <ele>1047.6</ele>
        <time>2022-08-06T08:27:34Z</time>
      </trkpt>
      <trkpt lat="44.69772" lon="2.86778">
        <ele>1048.5</ele>
        <time>2022-08-06T08:27:38Z</time>
      </trkpt>
      <trkpt lat="44.69773" lon="2.86783">
        <ele>1049.4</ele>
        <time>2022-08-06T08:27:42Z</time>
      </trkpt>
      <trkpt lat="44.69773" lon="2.86785">
        <ele>1049.6</ele>
        <time>2022-08-06T08:27:43Z</time>
      </trkpt>
      <trkpt lat="44.69776" lon="2.86789">
        <ele>1050.5</ele>
        <time>2022-08-06T08:27:48Z</time>
      </trkpt>
      <trkpt lat="44.69777" lon="2.86792">
        <ele>1051</ele>
        <time>2022-08-06T08:27:51Z</time>
      </trkpt>
      <trkpt lat="44.69778" lon="2.86799">
        <ele>1052.1</ele>
        <time>2022-08-06T08:27:57Z</time>
      </trkpt>
      <trkpt lat="44.69779" lon="2.86801">
        <ele>1052.3</ele>
        <time>2022-08-06T08:27:58Z</time>
      </trkpt>
      <trkpt lat="44.6978" lon="2.86803">
        <ele>1052.6</ele>
        <time>2022-08-06T08:28:00Z</time>
      </trkpt>
      <trkpt lat="44.69781" lon="2.86805">
        <ele>1052.9</ele>
        <time>2022-08-06T08:28:03Z</time>
      </trkpt>
      <trkpt lat="44.69781" lon="2.86804">
        <ele>1052.8</ele>
        <time>2022-08-06T08:28:04Z</time>
      </trkpt>
      <trkpt lat="44.69781" lon="2.86804">
        <ele>1052.8</ele>
        <time>2022-08-06T08:28:05Z</time>
      </trkpt>
      <trkpt lat="44.69777" lon="2.86804">
        <ele>1052.6</ele>
        <time>2022-08-06T08:28:19Z</time>
      </trkpt>
      <trkpt lat="44.69777" lon="2.86804">
        <ele>1052.7</ele>
        <time>2022-08-06T08:28:24Z</time>
      </trkpt>
      <trkpt lat="44.6978" lon="2.86807">
        <ele>1053.1</ele>
        <time>2022-08-06T08:28:27Z</time>
      </trkpt>
      <trkpt lat="44.69788" lon="2.86815">
        <ele>1053.7</ele>
        <time>2022-08-06T08:28:33Z</time>
      </trkpt>
      <trkpt lat="44.69789" lon="2.86816">
        <ele>1053.7</ele>
        <time>2022-08-06T08:28:35Z</time>
      </trkpt>
      <trkpt lat="44.69793" lon="2.8682">
        <ele>1054</ele>
        <time>2022-08-06T08:28:40Z</time>
      </trkpt>
      <trkpt lat="44.69794" lon="2.8682">
        <ele>1054.1</ele>
        <time>2022-08-06T08:28:41Z</time>
      </trkpt>
      <trkpt lat="44.69798" lon="2.86828">
        <ele>1054.6</ele>
        <time>2022-08-06T08:28:48Z</time>
      </trkpt>
      <trkpt lat="44.69799" lon="2.86829">
        <ele>1054.7</ele>
        <time>2022-08-06T08:28:49Z</time>
      </trkpt>
      <trkpt lat="44.69806" lon="2.86836">
        <ele>1055.3</ele>
        <time>2022-08-06T08:28:58Z</time>
      </trkpt>
      <trkpt lat="44.69806" lon="2.86837">
        <ele>1055.4</ele>
        <time>2022-08-06T08:28:59Z</time>
      </trkpt>
      <trkpt lat="44.69806" lon="2.86837">
        <ele>1055.5</ele>
        <time>2022-08-06T08:29:02Z</time>
      </trkpt>
      <trkpt lat="44.69805" lon="2.86836">
        <ele>1055.3</ele>
        <time>2022-08-06T08:29:04Z</time>
      </trkpt>
      <trkpt lat="44.69809" lon="2.86838">
        <ele>1055.6</ele>
        <time>2022-08-06T08:30:26Z</time>
      </trkpt>
      <trkpt lat="44.69809" lon="2.86839">
        <ele>1055.7</ele>
        <time>2022-08-06T08:31:03Z</time>
      </trkpt>
      <trkpt lat="44.69812" lon="2.86841">
        <ele>1056</ele>
        <time>2022-08-06T08:31:42Z</time>
      </trkpt>
      <trkpt lat="44.69814" lon="2.86846">
        <ele>1056.5</ele>
        <time>2022-08-06T08:31:47Z</time>
      </trkpt>
      <trkpt lat="44.69819" lon="2.86854">
        <ele>1057.3</ele>
        <time>2022-08-06T08:31:54Z</time>
      </trkpt>
      <trkpt lat="44.69826" lon="2.8686">
        <ele>1057.9</ele>
        <time>2022-08-06T08:32:02Z</time>
      </trkpt>
      <trkpt lat="44.69829" lon="2.86863">
        <ele>1058.1</ele>
        <time>2022-08-06T08:32:05Z</time>
      </trkpt>
      <trkpt lat="44.69832" lon="2.86867">
        <ele>1058.6</ele>
        <time>2022-08-06T08:32:10Z</time>
      </trkpt>
      <trkpt lat="44.69838" lon="2.86872">
        <ele>1059.2</ele>
        <time>2022-08-06T08:32:19Z</time>
      </trkpt>
      <trkpt lat="44.69838" lon="2.86872">
        <ele>1059.2</ele>
        <time>2022-08-06T08:32:20Z</time>
      </trkpt>
      <trkpt lat="44.69838" lon="2.86872">
        <ele>1059.2</ele>
        <time>2022-08-06T08:32:27Z</time>
      </trkpt>
      <trkpt lat="44.69837" lon="2.86872">
        <ele>1059.1</ele>
        <time>2022-08-06T08:32:39Z</time>
      </trkpt>
      <trkpt lat="44.69842" lon="2.86873">
        <ele>1059.3</ele>
        <time>2022-08-06T08:33:06Z</time>
      </trkpt>
      <trkpt lat="44.69852" lon="2.86886">
        <ele>1060.6</ele>
        <time>2022-08-06T08:35:19Z</time>
      </trkpt>
      <trkpt lat="44.69859" lon="2.8689">
        <ele>1061.2</ele>
        <time>2022-08-06T08:35:27Z</time>
      </trkpt>
      <trkpt lat="44.69861" lon="2.86893">
        <ele>1061.4</ele>
        <time>2022-08-06T08:35:30Z</time>
      </trkpt>
      <trkpt lat="44.69863" lon="2.86895">
        <ele>1061.6</ele>
        <time>2022-08-06T08:35:35Z</time>
      </trkpt>
      <trkpt lat="44.69863" lon="2.86896">
        <ele>1061.6</ele>
        <time>2022-08-06T08:35:48Z</time>
      </trkpt>
      <trkpt lat="44.69865" lon="2.86896">
        <ele>1061.5</ele>
        <time>2022-08-06T08:36:15Z</time>
      </trkpt>
      <trkpt lat="44.69867" lon="2.86902">
        <ele>1062.1</ele>
        <time>2022-08-06T08:37:07Z</time>
      </trkpt>
      <trkpt lat="44.69867" lon="2.86902">
        <ele>1062.1</ele>
        <time>2022-08-06T08:37:47Z</time>
      </trkpt>
      <trkpt lat="44.69867" lon="2.86903">
        <ele>1062.1</ele>
        <time>2022-08-06T08:37:53Z</time>
      </trkpt>
      <trkpt lat="44.69867" lon="2.86903">
        <ele>1062.1</ele>
        <time>2022-08-06T08:37:58Z</time>
      </trkpt>
      <trkpt lat="44.69868" lon="2.86903">
        <ele>1062.1</ele>
        <time>2022-08-06T08:38:04Z</time>
      </trkpt>
      <trkpt lat="44.69869" lon="2.86906">
        <ele>1062.4</ele>
        <time>2022-08-06T08:38:10Z</time>
      </trkpt>
      <trkpt lat="44.69868" lon="2.86904">
        <ele>1062.2</ele>
        <time>2022-08-06T08:38:15Z</time>
      </trkpt>
      <trkpt lat="44.69864" lon="2.869">
        <ele>1062</ele>
        <time>2022-08-06T08:38:22Z</time>
      </trkpt>
      <trkpt lat="44.69864" lon="2.869">
        <ele>1062</ele>
        <time>2022-08-06T08:38:25Z</time>
      </trkpt>
      <trkpt lat="44.69864" lon="2.869">
        <ele>1062</ele>
        <time>2022-08-06T08:38:31Z</time>
      </trkpt>
      <trkpt lat="44.69867" lon="2.86905">
        <ele>1062.5</ele>
        <time>2022-08-06T08:38:40Z</time>
      </trkpt>
      <trkpt lat="44.6987" lon="2.86906">
        <ele>1062.4</ele>
        <time>2022-08-06T08:38:42Z</time>
      </trkpt>
      <trkpt lat="44.69871" lon="2.86907">
        <ele>1062.4</ele>
        <time>2022-08-06T08:38:43Z</time>
      </trkpt>
      <trkpt lat="44.69874" lon="2.86909">
        <ele>1062.6</ele>
        <time>2022-08-06T08:38:45Z</time>
      </trkpt>
      <trkpt lat="44.69877" lon="2.86915">
        <ele>1063.2</ele>
        <time>2022-08-06T08:38:51Z</time>
      </trkpt>
      <trkpt lat="44.69878" lon="2.86915">
        <ele>1063.2</ele>
        <time>2022-08-06T08:38:52Z</time>
      </trkpt>
      <trkpt lat="44.69878" lon="2.86915">
        <ele>1063.1</ele>
        <time>2022-08-06T08:38:59Z</time>
      </trkpt>
      <trkpt lat="44.69878" lon="2.86915">
        <ele>1063.2</ele>
        <time>2022-08-06T08:39:21Z</time>
      </trkpt>
      <trkpt lat="44.69879" lon="2.86916">
        <ele>1063.2</ele>
        <time>2022-08-06T08:39:30Z</time>
      </trkpt>
      <trkpt lat="44.69879" lon="2.86924">
        <ele>1064.3</ele>
        <time>2022-08-06T08:39:47Z</time>
      </trkpt>
      <trkpt lat="44.69879" lon="2.86926">
        <ele>1064.6</ele>
        <time>2022-08-06T08:39:48Z</time>
      </trkpt>
      <trkpt lat="44.69879" lon="2.86937">
        <ele>1066.1</ele>
        <time>2022-08-06T08:39:53Z</time>
      </trkpt>
      <trkpt lat="44.6988" lon="2.86941">
        <ele>1066.6</ele>
        <time>2022-08-06T08:39:56Z</time>
      </trkpt>
      <trkpt lat="44.6988" lon="2.86942">
        <ele>1066.7</ele>
        <time>2022-08-06T08:39:57Z</time>
      </trkpt>
      <trkpt lat="44.69882" lon="2.86949">
        <ele>1067.5</ele>
        <time>2022-08-06T08:40:02Z</time>
      </trkpt>
      <trkpt lat="44.69884" lon="2.86955">
        <ele>1068.1</ele>
        <time>2022-08-06T08:40:07Z</time>
      </trkpt>
      <trkpt lat="44.69885" lon="2.86957">
        <ele>1068.3</ele>
        <time>2022-08-06T08:40:09Z</time>
      </trkpt>
      <trkpt lat="44.69884" lon="2.86959">
        <ele>1068.5</ele>
        <time>2022-08-06T08:40:11Z</time>
      </trkpt>
      <trkpt lat="44.6988" lon="2.86962">
        <ele>1068.9</ele>
        <time>2022-08-06T08:40:15Z</time>
      </trkpt>
      <trkpt lat="44.69879" lon="2.86963">
        <ele>1069</ele>
        <time>2022-08-06T08:40:17Z</time>
      </trkpt>
      <trkpt lat="44.69877" lon="2.86969">
        <ele>1069.7</ele>
        <time>2022-08-06T08:40:22Z</time>
      </trkpt>
      <trkpt lat="44.69875" lon="2.86971">
        <ele>1069.9</ele>
        <time>2022-08-06T08:40:24Z</time>
      </trkpt>
      <trkpt lat="44.69873" lon="2.86973">
        <ele>1070.1</ele>
        <time>2022-08-06T08:40:26Z</time>
      </trkpt>
      <trkpt lat="44.6987" lon="2.86979">
        <ele>1070.7</ele>
        <time>2022-08-06T08:40:31Z</time>
      </trkpt>
      <trkpt lat="44.69867" lon="2.86981">
        <ele>1071</ele>
        <time>2022-08-06T08:40:34Z</time>
      </trkpt>
      <trkpt lat="44.69864" lon="2.86986">
        <ele>1071.5</ele>
        <time>2022-08-06T08:40:39Z</time>
      </trkpt>
      <trkpt lat="44.69863" lon="2.86988">
        <ele>1071.7</ele>
        <time>2022-08-06T08:40:42Z</time>
      </trkpt>
      <trkpt lat="44.69861" lon="2.86991">
        <ele>1072</ele>
        <time>2022-08-06T08:40:45Z</time>
      </trkpt>
      <trkpt lat="44.6986" lon="2.86993">
        <ele>1072.1</ele>
        <time>2022-08-06T08:40:47Z</time>
      </trkpt>
      <trkpt lat="44.69856" lon="2.86999">
        <ele>1072.5</ele>
        <time>2022-08-06T08:40:53Z</time>
      </trkpt>
      <trkpt lat="44.69855" lon="2.87001">
        <ele>1072.8</ele>
        <time>2022-08-06T08:40:55Z</time>
      </trkpt>
      <trkpt lat="44.69853" lon="2.87004">
        <ele>1073.1</ele>
        <time>2022-08-06T08:40:58Z</time>
      </trkpt>
      <trkpt lat="44.69852" lon="2.87005">
        <ele>1073.2</ele>
        <time>2022-08-06T08:40:59Z</time>
      </trkpt>
      <trkpt lat="44.69849" lon="2.87012">
        <ele>1074</ele>
        <time>2022-08-06T08:41:06Z</time>
      </trkpt>
      <trkpt lat="44.69848" lon="2.8702">
        <ele>1075.2</ele>
        <time>2022-08-06T08:41:13Z</time>
      </trkpt>
      <trkpt lat="44.69848" lon="2.8702">
        <ele>1075.3</ele>
        <time>2022-08-06T08:41:15Z</time>
      </trkpt>
      <trkpt lat="44.69848" lon="2.87021">
        <ele>1075.4</ele>
        <time>2022-08-06T08:41:18Z</time>
      </trkpt>
      <trkpt lat="44.69847" lon="2.8702">
        <ele>1075.2</ele>
        <time>2022-08-06T08:41:26Z</time>
      </trkpt>
      <trkpt lat="44.69844" lon="2.87028">
        <ele>1076.2</ele>
        <time>2022-08-06T08:41:45Z</time>
      </trkpt>
      <trkpt lat="44.69843" lon="2.87032">
        <ele>1076.7</ele>
        <time>2022-08-06T08:41:47Z</time>
      </trkpt>
      <trkpt lat="44.69841" lon="2.87036">
        <ele>1077.1</ele>
        <time>2022-08-06T08:41:50Z</time>
      </trkpt>
      <trkpt lat="44.69838" lon="2.87041">
        <ele>1077.4</ele>
        <time>2022-08-06T08:41:54Z</time>
      </trkpt>
      <trkpt lat="44.69833" lon="2.87051">
        <ele>1078.2</ele>
        <time>2022-08-06T08:42:02Z</time>
      </trkpt>
      <trkpt lat="44.69832" lon="2.87052">
        <ele>1078.3</ele>
        <time>2022-08-06T08:42:03Z</time>
      </trkpt>
      <trkpt lat="44.69832" lon="2.87053">
        <ele>1078.5</ele>
        <time>2022-08-06T08:42:04Z</time>
      </trkpt>
      <trkpt lat="44.6983" lon="2.87059">
        <ele>1079.1</ele>
        <time>2022-08-06T08:42:08Z</time>
      </trkpt>
      <trkpt lat="44.69829" lon="2.87064">
        <ele>1079.7</ele>
        <time>2022-08-06T08:42:11Z</time>
      </trkpt>
      <trkpt lat="44.69826" lon="2.87067">
        <ele>1079.7</ele>
        <time>2022-08-06T08:42:13Z</time>
      </trkpt>
      <trkpt lat="44.69824" lon="2.87068">
        <ele>1079.6</ele>
        <time>2022-08-06T08:42:15Z</time>
      </trkpt>
      <trkpt lat="44.69822" lon="2.87071">
        <ele>1079.8</ele>
        <time>2022-08-06T08:42:18Z</time>
      </trkpt>
      <trkpt lat="44.69822" lon="2.87073">
        <ele>1080</ele>
        <time>2022-08-06T08:42:19Z</time>
      </trkpt>
      <trkpt lat="44.69822" lon="2.87079">
        <ele>1080.7</ele>
        <time>2022-08-06T08:42:23Z</time>
      </trkpt>
      <trkpt lat="44.69821" lon="2.87081">
        <ele>1080.9</ele>
        <time>2022-08-06T08:42:25Z</time>
      </trkpt>
      <trkpt lat="44.69817" lon="2.87086">
        <ele>1081</ele>
        <time>2022-08-06T08:42:29Z</time>
      </trkpt>
      <trkpt lat="44.69815" lon="2.87092">
        <ele>1081.2</ele>
        <time>2022-08-06T08:42:34Z</time>
      </trkpt>
      <trkpt lat="44.69815" lon="2.87098">
        <ele>1081.9</ele>
        <time>2022-08-06T08:42:38Z</time>
      </trkpt>
      <trkpt lat="44.69815" lon="2.87099">
        <ele>1082.1</ele>
        <time>2022-08-06T08:42:39Z</time>
      </trkpt>
      <trkpt lat="44.69815" lon="2.87102">
        <ele>1082.3</ele>
        <time>2022-08-06T08:42:41Z</time>
      </trkpt>
      <trkpt lat="44.69814" lon="2.87104">
        <ele>1082.5</ele>
        <time>2022-08-06T08:42:43Z</time>
      </trkpt>
      <trkpt lat="44.69811" lon="2.87115">
        <ele>1083.1</ele>
        <time>2022-08-06T08:42:51Z</time>
      </trkpt>
      <trkpt lat="44.6981" lon="2.87117">
        <ele>1083.1</ele>
        <time>2022-08-06T08:42:53Z</time>
      </trkpt>
      <trkpt lat="44.69807" lon="2.87125">
        <ele>1083.2</ele>
        <time>2022-08-06T08:42:59Z</time>
      </trkpt>
      <trkpt lat="44.69806" lon="2.87128">
        <ele>1083.3</ele>
        <time>2022-08-06T08:43:01Z</time>
      </trkpt>
      <trkpt lat="44.69804" lon="2.87143">
        <ele>1084.1</ele>
        <time>2022-08-06T08:43:11Z</time>
      </trkpt>
      <trkpt lat="44.69803" lon="2.87147">
        <ele>1084.5</ele>
        <time>2022-08-06T08:43:14Z</time>
      </trkpt>
      <trkpt lat="44.69804" lon="2.87152">
        <ele>1085.1</ele>
        <time>2022-08-06T08:43:17Z</time>
      </trkpt>
      <trkpt lat="44.69804" lon="2.87153">
        <ele>1085.3</ele>
        <time>2022-08-06T08:43:18Z</time>
      </trkpt>
      <trkpt lat="44.69804" lon="2.87159">
        <ele>1086</ele>
        <time>2022-08-06T08:43:22Z</time>
      </trkpt>
      <trkpt lat="44.69805" lon="2.87165">
        <ele>1086.7</ele>
        <time>2022-08-06T08:43:26Z</time>
      </trkpt>
      <trkpt lat="44.69805" lon="2.87169">
        <ele>1087</ele>
        <time>2022-08-06T08:43:29Z</time>
      </trkpt>
      <trkpt lat="44.69805" lon="2.87172">
        <ele>1087.1</ele>
        <time>2022-08-06T08:43:31Z</time>
      </trkpt>
      <trkpt lat="44.69804" lon="2.87174">
        <ele>1087.1</ele>
        <time>2022-08-06T08:43:32Z</time>
      </trkpt>
      <trkpt lat="44.69804" lon="2.87185">
        <ele>1087.5</ele>
        <time>2022-08-06T08:43:39Z</time>
      </trkpt>
      <trkpt lat="44.69804" lon="2.87191">
        <ele>1087.7</ele>
        <time>2022-08-06T08:43:43Z</time>
      </trkpt>
      <trkpt lat="44.69803" lon="2.87204">
        <ele>1088.5</ele>
        <time>2022-08-06T08:43:52Z</time>
      </trkpt>
      <trkpt lat="44.69802" lon="2.87222">
        <ele>1089.7</ele>
        <time>2022-08-06T08:44:04Z</time>
      </trkpt>
      <trkpt lat="44.69802" lon="2.87229">
        <ele>1090</ele>
        <time>2022-08-06T08:44:08Z</time>
      </trkpt>
      <trkpt lat="44.69801" lon="2.87241">
        <ele>1090.4</ele>
        <time>2022-08-06T08:44:16Z</time>
      </trkpt>
      <trkpt lat="44.698" lon="2.8725">
        <ele>1090.8</ele>
        <time>2022-08-06T08:44:22Z</time>
      </trkpt>
      <trkpt lat="44.69801" lon="2.87258">
        <ele>1091.4</ele>
        <time>2022-08-06T08:44:27Z</time>
      </trkpt>
      <trkpt lat="44.69801" lon="2.8727">
        <ele>1092.1</ele>
        <time>2022-08-06T08:44:35Z</time>
      </trkpt>
      <trkpt lat="44.69801" lon="2.87273">
        <ele>1092.3</ele>
        <time>2022-08-06T08:44:37Z</time>
      </trkpt>
      <trkpt lat="44.69802" lon="2.87284">
        <ele>1093</ele>
        <time>2022-08-06T08:44:45Z</time>
      </trkpt>
      <trkpt lat="44.69803" lon="2.87292">
        <ele>1093.4</ele>
        <time>2022-08-06T08:44:50Z</time>
      </trkpt>
      <trkpt lat="44.69803" lon="2.87295">
        <ele>1093.5</ele>
        <time>2022-08-06T08:44:52Z</time>
      </trkpt>
      <trkpt lat="44.69805" lon="2.87301">
        <ele>1093.8</ele>
        <time>2022-08-06T08:44:56Z</time>
      </trkpt>
      <trkpt lat="44.69805" lon="2.87306">
        <ele>1094</ele>
        <time>2022-08-06T08:44:59Z</time>
      </trkpt>
      <trkpt lat="44.69807" lon="2.87319">
        <ele>1095</ele>
        <time>2022-08-06T08:45:08Z</time>
      </trkpt>
      <trkpt lat="44.69807" lon="2.8732">
        <ele>1095.1</ele>
        <time>2022-08-06T08:45:09Z</time>
      </trkpt>
      <trkpt lat="44.69808" lon="2.87328">
        <ele>1095.7</ele>
        <time>2022-08-06T08:45:14Z</time>
      </trkpt>
      <trkpt lat="44.6981" lon="2.87338">
        <ele>1096.2</ele>
        <time>2022-08-06T08:45:21Z</time>
      </trkpt>
      <trkpt lat="44.6981" lon="2.8734">
        <ele>1096.2</ele>
        <time>2022-08-06T08:45:22Z</time>
      </trkpt>
      <trkpt lat="44.69812" lon="2.8735">
        <ele>1096.6</ele>
        <time>2022-08-06T08:45:29Z</time>
      </trkpt>
      <trkpt lat="44.69817" lon="2.87363">
        <ele>1097</ele>
        <time>2022-08-06T08:45:37Z</time>
      </trkpt>
      <trkpt lat="44.6982" lon="2.87374">
        <ele>1097.2</ele>
        <time>2022-08-06T08:45:45Z</time>
      </trkpt>
      <trkpt lat="44.69821" lon="2.87376">
        <ele>1097.3</ele>
        <time>2022-08-06T08:45:46Z</time>
      </trkpt>
      <trkpt lat="44.69821" lon="2.87377">
        <ele>1097.3</ele>
        <time>2022-08-06T08:45:47Z</time>
      </trkpt>
      <trkpt lat="44.69822" lon="2.87382">
        <ele>1097.4</ele>
        <time>2022-08-06T08:45:50Z</time>
      </trkpt>
      <trkpt lat="44.69826" lon="2.87394">
        <ele>1097.8</ele>
        <time>2022-08-06T08:45:59Z</time>
      </trkpt>
      <trkpt lat="44.69827" lon="2.87397">
        <ele>1097.8</ele>
        <time>2022-08-06T08:46:01Z</time>
      </trkpt>
      <trkpt lat="44.69829" lon="2.87404">
        <ele>1097.9</ele>
        <time>2022-08-06T08:46:06Z</time>
      </trkpt>
      <trkpt lat="44.69834" lon="2.87418">
        <ele>1098.1</ele>
        <time>2022-08-06T08:46:16Z</time>
      </trkpt>
      <trkpt lat="44.69835" lon="2.8742">
        <ele>1098.2</ele>
        <time>2022-08-06T08:46:18Z</time>
      </trkpt>
      <trkpt lat="44.69835" lon="2.87425">
        <ele>1098.4</ele>
        <time>2022-08-06T08:46:21Z</time>
      </trkpt>
      <trkpt lat="44.69836" lon="2.87427">
        <ele>1098.4</ele>
        <time>2022-08-06T08:46:22Z</time>
      </trkpt>
      <trkpt lat="44.69836" lon="2.87428">
        <ele>1098.5</ele>
        <time>2022-08-06T08:46:23Z</time>
      </trkpt>
      <trkpt lat="44.69837" lon="2.87436">
        <ele>1098.8</ele>
        <time>2022-08-06T08:46:28Z</time>
      </trkpt>
      <trkpt lat="44.69839" lon="2.87445">
        <ele>1099.2</ele>
        <time>2022-08-06T08:46:34Z</time>
      </trkpt>
      <trkpt lat="44.69839" lon="2.87448">
        <ele>1099.3</ele>
        <time>2022-08-06T08:46:36Z</time>
      </trkpt>
      <trkpt lat="44.69839" lon="2.87461">
        <ele>1099.8</ele>
        <time>2022-08-06T08:46:45Z</time>
      </trkpt>
      <trkpt lat="44.69839" lon="2.87463">
        <ele>1099.9</ele>
        <time>2022-08-06T08:46:47Z</time>
      </trkpt>
      <trkpt lat="44.69839" lon="2.87472">
        <ele>1100.2</ele>
        <time>2022-08-06T08:46:53Z</time>
      </trkpt>
      <trkpt lat="44.6984" lon="2.87477">
        <ele>1100.4</ele>
        <time>2022-08-06T08:46:56Z</time>
      </trkpt>
      <trkpt lat="44.6984" lon="2.87491">
        <ele>1100.9</ele>
        <time>2022-08-06T08:47:04Z</time>
      </trkpt>
      <trkpt lat="44.6984" lon="2.87492">
        <ele>1101</ele>
        <time>2022-08-06T08:47:05Z</time>
      </trkpt>
      <trkpt lat="44.69837" lon="2.8751">
        <ele>1101.5</ele>
        <time>2022-08-06T08:47:16Z</time>
      </trkpt>
      <trkpt lat="44.69836" lon="2.87518">
        <ele>1101.8</ele>
        <time>2022-08-06T08:47:21Z</time>
      </trkpt>
      <trkpt lat="44.69836" lon="2.87525">
        <ele>1102.1</ele>
        <time>2022-08-06T08:47:25Z</time>
      </trkpt>
      <trkpt lat="44.69837" lon="2.87533">
        <ele>1102.4</ele>
        <time>2022-08-06T08:47:30Z</time>
      </trkpt>
      <trkpt lat="44.69837" lon="2.87539">
        <ele>1102.6</ele>
        <time>2022-08-06T08:47:33Z</time>
      </trkpt>
      <trkpt lat="44.69837" lon="2.8754">
        <ele>1102.7</ele>
        <time>2022-08-06T08:47:34Z</time>
      </trkpt>
      <trkpt lat="44.69838" lon="2.87548">
        <ele>1102.9</ele>
        <time>2022-08-06T08:47:39Z</time>
      </trkpt>
      <trkpt lat="44.6984" lon="2.87553">
        <ele>1103.2</ele>
        <time>2022-08-06T08:47:42Z</time>
      </trkpt>
      <trkpt lat="44.69841" lon="2.8756">
        <ele>1103.4</ele>
        <time>2022-08-06T08:47:47Z</time>
      </trkpt>
      <trkpt lat="44.69841" lon="2.87564">
        <ele>1103.5</ele>
        <time>2022-08-06T08:47:49Z</time>
      </trkpt>
      <trkpt lat="44.69842" lon="2.8757">
        <ele>1103.7</ele>
        <time>2022-08-06T08:47:53Z</time>
      </trkpt>
      <trkpt lat="44.69842" lon="2.87582">
        <ele>1104</ele>
        <time>2022-08-06T08:48:01Z</time>
      </trkpt>
      <trkpt lat="44.69842" lon="2.87587">
        <ele>1104.1</ele>
        <time>2022-08-06T08:48:04Z</time>
      </trkpt>
      <trkpt lat="44.69842" lon="2.87594">
        <ele>1104.3</ele>
        <time>2022-08-06T08:48:08Z</time>
      </trkpt>
      <trkpt lat="44.69841" lon="2.87599">
        <ele>1104.4</ele>
        <time>2022-08-06T08:48:11Z</time>
      </trkpt>
      <trkpt lat="44.69841" lon="2.87611">
        <ele>1104.7</ele>
        <time>2022-08-06T08:48:19Z</time>
      </trkpt>
      <trkpt lat="44.69842" lon="2.87615">
        <ele>1104.8</ele>
        <time>2022-08-06T08:48:22Z</time>
      </trkpt>
      <trkpt lat="44.6984" lon="2.87625">
        <ele>1105.3</ele>
        <time>2022-08-06T08:48:28Z</time>
      </trkpt>
      <trkpt lat="44.69837" lon="2.87641">
        <ele>1105.9</ele>
        <time>2022-08-06T08:48:38Z</time>
      </trkpt>
      <trkpt lat="44.69837" lon="2.87643">
        <ele>1106</ele>
        <time>2022-08-06T08:48:39Z</time>
      </trkpt>
      <trkpt lat="44.69835" lon="2.87655">
        <ele>1106.5</ele>
        <time>2022-08-06T08:48:47Z</time>
      </trkpt>
      <trkpt lat="44.69834" lon="2.87666">
        <ele>1107</ele>
        <time>2022-08-06T08:48:55Z</time>
      </trkpt>
      <trkpt lat="44.69832" lon="2.87671">
        <ele>1107.3</ele>
        <time>2022-08-06T08:48:58Z</time>
      </trkpt>
      <trkpt lat="44.69832" lon="2.87673">
        <ele>1107.5</ele>
        <time>2022-08-06T08:49:00Z</time>
      </trkpt>
      <trkpt lat="44.69831" lon="2.87677">
        <ele>1107.7</ele>
        <time>2022-08-06T08:49:02Z</time>
      </trkpt>
      <trkpt lat="44.69828" lon="2.87686">
        <ele>1108.4</ele>
        <time>2022-08-06T08:49:08Z</time>
      </trkpt>
      <trkpt lat="44.69828" lon="2.8769">
        <ele>1108.7</ele>
        <time>2022-08-06T08:49:11Z</time>
      </trkpt>
      <trkpt lat="44.69827" lon="2.87691">
        <ele>1108.8</ele>
        <time>2022-08-06T08:49:12Z</time>
      </trkpt>
      <trkpt lat="44.69826" lon="2.87694">
        <ele>1109</ele>
        <time>2022-08-06T08:49:14Z</time>
      </trkpt>
      <trkpt lat="44.69825" lon="2.87699">
        <ele>1109.3</ele>
        <time>2022-08-06T08:49:17Z</time>
      </trkpt>
      <trkpt lat="44.69825" lon="2.877">
        <ele>1109.4</ele>
        <time>2022-08-06T08:49:18Z</time>
      </trkpt>
      <trkpt lat="44.69823" lon="2.87707">
        <ele>1109.9</ele>
        <time>2022-08-06T08:49:23Z</time>
      </trkpt>
      <trkpt lat="44.69821" lon="2.87717">
        <ele>1110.6</ele>
        <time>2022-08-06T08:49:30Z</time>
      </trkpt>
      <trkpt lat="44.6982" lon="2.8772">
        <ele>1110.8</ele>
        <time>2022-08-06T08:49:32Z</time>
      </trkpt>
      <trkpt lat="44.69817" lon="2.87733">
        <ele>1111.8</ele>
        <time>2022-08-06T08:49:40Z</time>
      </trkpt>
      <trkpt lat="44.69817" lon="2.87735">
        <ele>1111.9</ele>
        <time>2022-08-06T08:49:42Z</time>
      </trkpt>
      <trkpt lat="44.69813" lon="2.8775">
        <ele>1113</ele>
        <time>2022-08-06T08:49:52Z</time>
      </trkpt>
      <trkpt lat="44.69812" lon="2.87754">
        <ele>1113.2</ele>
        <time>2022-08-06T08:49:54Z</time>
      </trkpt>
      <trkpt lat="44.69811" lon="2.87764">
        <ele>1113.7</ele>
        <time>2022-08-06T08:50:01Z</time>
      </trkpt>
      <trkpt lat="44.69809" lon="2.87773">
        <ele>1114.1</ele>
        <time>2022-08-06T08:50:07Z</time>
      </trkpt>
      <trkpt lat="44.69809" lon="2.87778">
        <ele>1114.2</ele>
        <time>2022-08-06T08:50:10Z</time>
      </trkpt>
      <trkpt lat="44.69808" lon="2.8779">
        <ele>1115.9</ele>
        <time>2022-08-06T08:50:18Z</time>
      </trkpt>
      <trkpt lat="44.69806" lon="2.87797">
        <ele>1116.8</ele>
        <time>2022-08-06T08:50:23Z</time>
      </trkpt>
      <trkpt lat="44.69805" lon="2.87802">
        <ele>1117.5</ele>
        <time>2022-08-06T08:50:26Z</time>
      </trkpt>
      <trkpt lat="44.69804" lon="2.87803">
        <ele>1117.7</ele>
        <time>2022-08-06T08:50:27Z</time>
      </trkpt>
      <trkpt lat="44.69804" lon="2.87807">
        <ele>1118.4</ele>
        <time>2022-08-06T08:50:30Z</time>
      </trkpt>
      <trkpt lat="44.69801" lon="2.87819">
        <ele>1120.2</ele>
        <time>2022-08-06T08:50:39Z</time>
      </trkpt>
      <trkpt lat="44.698" lon="2.87823">
        <ele>1120.8</ele>
        <time>2022-08-06T08:50:42Z</time>
      </trkpt>
      <trkpt lat="44.69799" lon="2.87829">
        <ele>1121.7</ele>
        <time>2022-08-06T08:50:47Z</time>
      </trkpt>
      <trkpt lat="44.69798" lon="2.87833">
        <ele>1122.2</ele>
        <time>2022-08-06T08:50:50Z</time>
      </trkpt>
      <trkpt lat="44.69797" lon="2.87839">
        <ele>1123.4</ele>
        <time>2022-08-06T08:50:55Z</time>
      </trkpt>
      <trkpt lat="44.69796" lon="2.87842">
        <ele>1123.9</ele>
        <time>2022-08-06T08:50:57Z</time>
      </trkpt>
      <trkpt lat="44.69795" lon="2.87848">
        <ele>1124.9</ele>
        <time>2022-08-06T08:51:02Z</time>
      </trkpt>
      <trkpt lat="44.69794" lon="2.87853">
        <ele>1125.7</ele>
        <time>2022-08-06T08:51:07Z</time>
      </trkpt>
      <trkpt lat="44.69793" lon="2.87858">
        <ele>1126.6</ele>
        <time>2022-08-06T08:51:12Z</time>
      </trkpt>
      <trkpt lat="44.69792" lon="2.87862">
        <ele>1127.1</ele>
        <time>2022-08-06T08:51:15Z</time>
      </trkpt>
      <trkpt lat="44.69791" lon="2.87864">
        <ele>1127.3</ele>
        <time>2022-08-06T08:51:16Z</time>
      </trkpt>
      <trkpt lat="44.69789" lon="2.87868">
        <ele>1127.7</ele>
        <time>2022-08-06T08:51:20Z</time>
      </trkpt>
      <trkpt lat="44.69788" lon="2.8787">
        <ele>1127.9</ele>
        <time>2022-08-06T08:51:22Z</time>
      </trkpt>
      <trkpt lat="44.69786" lon="2.87873">
        <ele>1128.1</ele>
        <time>2022-08-06T08:51:25Z</time>
      </trkpt>
      <trkpt lat="44.69781" lon="2.87879">
        <ele>1128.7</ele>
        <time>2022-08-06T08:51:32Z</time>
      </trkpt>
      <trkpt lat="44.69781" lon="2.87885">
        <ele>1129.5</ele>
        <time>2022-08-06T08:51:37Z</time>
      </trkpt>
      <trkpt lat="44.69781" lon="2.87886">
        <ele>1129.7</ele>
        <time>2022-08-06T08:51:38Z</time>
      </trkpt>
      <trkpt lat="44.69781" lon="2.87891">
        <ele>1130.4</ele>
        <time>2022-08-06T08:51:43Z</time>
      </trkpt>
      <trkpt lat="44.69782" lon="2.87892">
        <ele>1130.6</ele>
        <time>2022-08-06T08:51:44Z</time>
      </trkpt>
      <trkpt lat="44.69783" lon="2.87893">
        <ele>1130.7</ele>
        <time>2022-08-06T08:51:45Z</time>
      </trkpt>
      <trkpt lat="44.69787" lon="2.87897">
        <ele>1131.4</ele>
        <time>2022-08-06T08:51:50Z</time>
      </trkpt>
      <trkpt lat="44.69788" lon="2.87898">
        <ele>1131.6</ele>
        <time>2022-08-06T08:51:52Z</time>
      </trkpt>
      <trkpt lat="44.6979" lon="2.879">
        <ele>1131.8</ele>
        <time>2022-08-06T08:51:55Z</time>
      </trkpt>
      <trkpt lat="44.69791" lon="2.879">
        <ele>1131.9</ele>
        <time>2022-08-06T08:51:57Z</time>
      </trkpt>
      <trkpt lat="44.69793" lon="2.87901">
        <ele>1132.1</ele>
        <time>2022-08-06T08:51:59Z</time>
      </trkpt>
      <trkpt lat="44.69794" lon="2.87902">
        <ele>1132.2</ele>
        <time>2022-08-06T08:52:00Z</time>
      </trkpt>
      <trkpt lat="44.69795" lon="2.87902">
        <ele>1132.2</ele>
        <time>2022-08-06T08:52:02Z</time>
      </trkpt>
      <trkpt lat="44.69797" lon="2.87904">
        <ele>1132.5</ele>
        <time>2022-08-06T08:52:05Z</time>
      </trkpt>
      <trkpt lat="44.69797" lon="2.87905">
        <ele>1132.6</ele>
        <time>2022-08-06T08:52:06Z</time>
      </trkpt>
      <trkpt lat="44.69797" lon="2.87907">
        <ele>1132.8</ele>
        <time>2022-08-06T08:52:08Z</time>
      </trkpt>
      <trkpt lat="44.69798" lon="2.87907">
        <ele>1132.9</ele>
        <time>2022-08-06T08:52:09Z</time>
      </trkpt>
      <trkpt lat="44.69798" lon="2.87908">
        <ele>1133</ele>
        <time>2022-08-06T08:52:11Z</time>
      </trkpt>
      <trkpt lat="44.69797" lon="2.87909">
        <ele>1133</ele>
        <time>2022-08-06T08:52:15Z</time>
      </trkpt>
      <trkpt lat="44.69793" lon="2.87908">
        <ele>1132.9</ele>
        <time>2022-08-06T08:53:35Z</time>
      </trkpt>
      <trkpt lat="44.69787" lon="2.87911">
        <ele>1133.2</ele>
        <time>2022-08-06T08:56:00Z</time>
      </trkpt>
      <trkpt lat="44.69773" lon="2.87907">
        <ele>1133.5</ele>
        <time>2022-08-06T08:56:10Z</time>
      </trkpt>
      <trkpt lat="44.69764" lon="2.879">
        <ele>1133.7</ele>
        <time>2022-08-06T08:56:19Z</time>
      </trkpt>
      <trkpt lat="44.69755" lon="2.8789">
        <ele>1133.4</ele>
        <time>2022-08-06T08:56:29Z</time>
      </trkpt>
      <trkpt lat="44.69742" lon="2.87882">
        <ele>1133.1</ele>
        <time>2022-08-06T08:56:40Z</time>
      </trkpt>
      <trkpt lat="44.69731" lon="2.87874">
        <ele>1132.3</ele>
        <time>2022-08-06T08:56:50Z</time>
      </trkpt>
      <trkpt lat="44.69721" lon="2.87869">
        <ele>1132.2</ele>
        <time>2022-08-06T08:56:59Z</time>
      </trkpt>
      <trkpt lat="44.69709" lon="2.87862">
        <ele>1131.6</ele>
        <time>2022-08-06T08:57:10Z</time>
      </trkpt>
      <trkpt lat="44.69697" lon="2.87859">
        <ele>1131.3</ele>
        <time>2022-08-06T08:57:20Z</time>
      </trkpt>
      <trkpt lat="44.69697" lon="2.87859">
        <ele>1131.5</ele>
        <time>2022-08-06T08:57:21Z</time>
      </trkpt>
      <trkpt lat="44.69698" lon="2.8786">
        <ele>1131.6</ele>
        <time>2022-08-06T08:57:24Z</time>
      </trkpt>
      <trkpt lat="44.69699" lon="2.8786">
        <ele>1131.6</ele>
        <time>2022-08-06T08:57:26Z</time>
      </trkpt>
      <trkpt lat="44.69699" lon="2.8786">
        <ele>1131.5</ele>
        <time>2022-08-06T08:57:30Z</time>
      </trkpt>
      <trkpt lat="44.69701" lon="2.8786">
        <ele>1131.5</ele>
        <time>2022-08-06T08:57:37Z</time>
      </trkpt>
      <trkpt lat="44.69695" lon="2.87857">
        <ele>1131.1</ele>
        <time>2022-08-06T08:57:46Z</time>
      </trkpt>
      <trkpt lat="44.69679" lon="2.87849">
        <ele>1129.7</ele>
        <time>2022-08-06T08:57:55Z</time>
      </trkpt>
      <trkpt lat="44.69666" lon="2.87845">
        <ele>1129.1</ele>
        <time>2022-08-06T08:58:04Z</time>
      </trkpt>
      <trkpt lat="44.69657" lon="2.87842">
        <ele>1128.8</ele>
        <time>2022-08-06T08:58:11Z</time>
      </trkpt>
      <trkpt lat="44.69654" lon="2.87842">
        <ele>1128.8</ele>
        <time>2022-08-06T08:58:13Z</time>
      </trkpt>
      <trkpt lat="44.69653" lon="2.87841">
        <ele>1128.7</ele>
        <time>2022-08-06T08:58:14Z</time>
      </trkpt>
      <trkpt lat="44.69646" lon="2.87837">
        <ele>1128.3</ele>
        <time>2022-08-06T08:58:20Z</time>
      </trkpt>
      <trkpt lat="44.69644" lon="2.87835">
        <ele>1128.1</ele>
        <time>2022-08-06T08:58:22Z</time>
      </trkpt>
      <trkpt lat="44.69636" lon="2.87834">
        <ele>1128.1</ele>
        <time>2022-08-06T08:58:29Z</time>
      </trkpt>
      <trkpt lat="44.69621" lon="2.87826">
        <ele>1126.4</ele>
        <time>2022-08-06T08:58:41Z</time>
      </trkpt>
      <trkpt lat="44.6961" lon="2.87821">
        <ele>1125.4</ele>
        <time>2022-08-06T08:58:50Z</time>
      </trkpt>
      <trkpt lat="44.69608" lon="2.8782">
        <ele>1125.4</ele>
        <time>2022-08-06T08:58:52Z</time>
      </trkpt>
      <trkpt lat="44.69603" lon="2.87818">
        <ele>1125.1</ele>
        <time>2022-08-06T08:58:56Z</time>
      </trkpt>
      <trkpt lat="44.6959" lon="2.87812">
        <ele>1125.2</ele>
        <time>2022-08-06T08:59:07Z</time>
      </trkpt>
      <trkpt lat="44.69581" lon="2.87807">
        <ele>1125.3</ele>
        <time>2022-08-06T08:59:15Z</time>
      </trkpt>
      <trkpt lat="44.69571" lon="2.878">
        <ele>1124.3</ele>
        <time>2022-08-06T08:59:24Z</time>
      </trkpt>
      <trkpt lat="44.69567" lon="2.87798">
        <ele>1124.1</ele>
        <time>2022-08-06T08:59:28Z</time>
      </trkpt>
      <trkpt lat="44.69566" lon="2.87797">
        <ele>1124</ele>
        <time>2022-08-06T08:59:29Z</time>
      </trkpt>
      <trkpt lat="44.69565" lon="2.87797">
        <ele>1124</ele>
        <time>2022-08-06T08:59:30Z</time>
      </trkpt>
      <trkpt lat="44.69553" lon="2.87789">
        <ele>1123.1</ele>
        <time>2022-08-06T08:59:40Z</time>
      </trkpt>
      <trkpt lat="44.69546" lon="2.87782">
        <ele>1122.3</ele>
        <time>2022-08-06T08:59:47Z</time>
      </trkpt>
      <trkpt lat="44.69544" lon="2.8778">
        <ele>1122.2</ele>
        <time>2022-08-06T08:59:50Z</time>
      </trkpt>
      <trkpt lat="44.69535" lon="2.87773">
        <ele>1121.8</ele>
        <time>2022-08-06T08:59:58Z</time>
      </trkpt>
      <trkpt lat="44.69534" lon="2.87773">
        <ele>1121.8</ele>
        <time>2022-08-06T08:59:59Z</time>
      </trkpt>
      <trkpt lat="44.69526" lon="2.87767">
        <ele>1121.5</ele>
        <time>2022-08-06T09:00:06Z</time>
      </trkpt>
      <trkpt lat="44.69523" lon="2.87765">
        <ele>1121.3</ele>
        <time>2022-08-06T09:00:08Z</time>
      </trkpt>
      <trkpt lat="44.69511" lon="2.87758">
        <ele>1121</ele>
        <time>2022-08-06T09:00:19Z</time>
      </trkpt>
      <trkpt lat="44.695" lon="2.87755">
        <ele>1121.3</ele>
        <time>2022-08-06T09:00:28Z</time>
      </trkpt>
      <trkpt lat="44.69498" lon="2.87761">
        <ele>1121.8</ele>
        <time>2022-08-06T09:00:34Z</time>
      </trkpt>
      <trkpt lat="44.69501" lon="2.87774">
        <ele>1122.7</ele>
        <time>2022-08-06T09:00:43Z</time>
      </trkpt>
      <trkpt lat="44.69503" lon="2.8778">
        <ele>1123.1</ele>
        <time>2022-08-06T09:00:47Z</time>
      </trkpt>
      <trkpt lat="44.69504" lon="2.87784">
        <ele>1123.5</ele>
        <time>2022-08-06T09:00:50Z</time>
      </trkpt>
      <trkpt lat="44.69504" lon="2.87786">
        <ele>1123.6</ele>
        <time>2022-08-06T09:00:51Z</time>
      </trkpt>
      <trkpt lat="44.69507" lon="2.87795">
        <ele>1124.4</ele>
        <time>2022-08-06T09:00:57Z</time>
      </trkpt>
      <trkpt lat="44.69508" lon="2.87798">
        <ele>1124.7</ele>
        <time>2022-08-06T09:01:00Z</time>
      </trkpt>
      <trkpt lat="44.69508" lon="2.87802">
        <ele>1125</ele>
        <time>2022-08-06T09:01:03Z</time>
      </trkpt>
      <trkpt lat="44.69509" lon="2.87806">
        <ele>1125.4</ele>
        <time>2022-08-06T09:01:06Z</time>
      </trkpt>
      <trkpt lat="44.69511" lon="2.87816">
        <ele>1126.3</ele>
        <time>2022-08-06T09:01:13Z</time>
      </trkpt>
      <trkpt lat="44.69511" lon="2.87817">
        <ele>1126.4</ele>
        <time>2022-08-06T09:01:14Z</time>
      </trkpt>
      <trkpt lat="44.69511" lon="2.87828">
        <ele>1127.4</ele>
        <time>2022-08-06T09:01:22Z</time>
      </trkpt>
      <trkpt lat="44.69511" lon="2.8783">
        <ele>1127.5</ele>
        <time>2022-08-06T09:01:25Z</time>
      </trkpt>
      <trkpt lat="44.69511" lon="2.87831">
        <ele>1127.6</ele>
        <time>2022-08-06T09:01:27Z</time>
      </trkpt>
      <trkpt lat="44.69511" lon="2.87831">
        <ele>1127.6</ele>
        <time>2022-08-06T09:01:28Z</time>
      </trkpt>
      <trkpt lat="44.69512" lon="2.87838">
        <ele>1128.3</ele>
        <time>2022-08-06T09:01:33Z</time>
      </trkpt>
      <trkpt lat="44.69511" lon="2.87841">
        <ele>1128.6</ele>
        <time>2022-08-06T09:01:35Z</time>
      </trkpt>
      <trkpt lat="44.69511" lon="2.87846">
        <ele>1129.2</ele>
        <time>2022-08-06T09:01:39Z</time>
      </trkpt>
      <trkpt lat="44.69511" lon="2.87851">
        <ele>1129.8</ele>
        <time>2022-08-06T09:01:43Z</time>
      </trkpt>
      <trkpt lat="44.69511" lon="2.87858">
        <ele>1130.4</ele>
        <time>2022-08-06T09:01:48Z</time>
      </trkpt>
      <trkpt lat="44.69511" lon="2.87865">
        <ele>1131.2</ele>
        <time>2022-08-06T09:01:53Z</time>
      </trkpt>
      <trkpt lat="44.69511" lon="2.87866">
        <ele>1131.3</ele>
        <time>2022-08-06T09:01:55Z</time>
      </trkpt>
      <trkpt lat="44.69509" lon="2.87865">
        <ele>1131.1</ele>
        <time>2022-08-06T09:01:58Z</time>
      </trkpt>
      <trkpt lat="44.6951" lon="2.87871">
        <ele>1131.7</ele>
        <time>2022-08-06T09:02:05Z</time>
      </trkpt>
      <trkpt lat="44.6951" lon="2.87877">
        <ele>1132.4</ele>
        <time>2022-08-06T09:02:10Z</time>
      </trkpt>
      <trkpt lat="44.6951" lon="2.87879">
        <ele>1132.6</ele>
        <time>2022-08-06T09:02:11Z</time>
      </trkpt>
      <trkpt lat="44.69511" lon="2.87887">
        <ele>1133.6</ele>
        <time>2022-08-06T09:02:17Z</time>
      </trkpt>
      <trkpt lat="44.69512" lon="2.8789">
        <ele>1133.9</ele>
        <time>2022-08-06T09:02:19Z</time>
      </trkpt>
      <trkpt lat="44.69512" lon="2.87898">
        <ele>1134.5</ele>
        <time>2022-08-06T09:02:25Z</time>
      </trkpt>
      <trkpt lat="44.69513" lon="2.87905">
        <ele>1135.1</ele>
        <time>2022-08-06T09:02:29Z</time>
      </trkpt>
      <trkpt lat="44.69514" lon="2.87913">
        <ele>1135.7</ele>
        <time>2022-08-06T09:02:35Z</time>
      </trkpt>
      <trkpt lat="44.69514" lon="2.87915">
        <ele>1135.9</ele>
        <time>2022-08-06T09:02:37Z</time>
      </trkpt>
      <trkpt lat="44.69514" lon="2.87917">
        <ele>1136</ele>
        <time>2022-08-06T09:02:38Z</time>
      </trkpt>
      <trkpt lat="44.69516" lon="2.87925">
        <ele>1136.9</ele>
        <time>2022-08-06T09:02:44Z</time>
      </trkpt>
      <trkpt lat="44.69516" lon="2.87932">
        <ele>1137.6</ele>
        <time>2022-08-06T09:02:49Z</time>
      </trkpt>
      <trkpt lat="44.69518" lon="2.87941">
        <ele>1138.5</ele>
        <time>2022-08-06T09:02:55Z</time>
      </trkpt>
      <trkpt lat="44.69519" lon="2.87946">
        <ele>1139.1</ele>
        <time>2022-08-06T09:02:59Z</time>
      </trkpt>
      <trkpt lat="44.6952" lon="2.87954">
        <ele>1139.5</ele>
        <time>2022-08-06T09:03:04Z</time>
      </trkpt>
      <trkpt lat="44.6952" lon="2.8796">
        <ele>1139.9</ele>
        <time>2022-08-06T09:03:08Z</time>
      </trkpt>
      <trkpt lat="44.69521" lon="2.87972">
        <ele>1140.5</ele>
        <time>2022-08-06T09:03:16Z</time>
      </trkpt>
      <trkpt lat="44.69521" lon="2.87976">
        <ele>1140.8</ele>
        <time>2022-08-06T09:03:19Z</time>
      </trkpt>
      <trkpt lat="44.69522" lon="2.87986">
        <ele>1141.5</ele>
        <time>2022-08-06T09:03:26Z</time>
      </trkpt>
      <trkpt lat="44.69522" lon="2.87989">
        <ele>1141.7</ele>
        <time>2022-08-06T09:03:28Z</time>
      </trkpt>
      <trkpt lat="44.69524" lon="2.87998">
        <ele>1142.4</ele>
        <time>2022-08-06T09:03:34Z</time>
      </trkpt>
      <trkpt lat="44.69524" lon="2.87999">
        <ele>1142.6</ele>
        <time>2022-08-06T09:03:35Z</time>
      </trkpt>
      <trkpt lat="44.69527" lon="2.8801">
        <ele>1144</ele>
        <time>2022-08-06T09:03:44Z</time>
      </trkpt>
      <trkpt lat="44.69529" lon="2.88018">
        <ele>1145.1</ele>
        <time>2022-08-06T09:03:50Z</time>
      </trkpt>
      <trkpt lat="44.6953" lon="2.8802">
        <ele>1145.4</ele>
        <time>2022-08-06T09:03:52Z</time>
      </trkpt>
      <trkpt lat="44.6953" lon="2.88022">
        <ele>1145.7</ele>
        <time>2022-08-06T09:03:54Z</time>
      </trkpt>
      <trkpt lat="44.69531" lon="2.88023">
        <ele>1145.8</ele>
        <time>2022-08-06T09:03:55Z</time>
      </trkpt>
      <trkpt lat="44.69533" lon="2.88028">
        <ele>1146.5</ele>
        <time>2022-08-06T09:03:58Z</time>
      </trkpt>
      <trkpt lat="44.69534" lon="2.88035">
        <ele>1147.5</ele>
        <time>2022-08-06T09:04:04Z</time>
      </trkpt>
      <trkpt lat="44.69537" lon="2.88048">
        <ele>1149.2</ele>
        <time>2022-08-06T09:04:14Z</time>
      </trkpt>
      <trkpt lat="44.69538" lon="2.88051">
        <ele>1149.6</ele>
        <time>2022-08-06T09:04:16Z</time>
      </trkpt>
      <trkpt lat="44.6954" lon="2.88059">
        <ele>1150.5</ele>
        <time>2022-08-06T09:04:22Z</time>
      </trkpt>
      <trkpt lat="44.6954" lon="2.88064">
        <ele>1150.9</ele>
        <time>2022-08-06T09:04:25Z</time>
      </trkpt>
      <trkpt lat="44.69541" lon="2.88073">
        <ele>1151.6</ele>
        <time>2022-08-06T09:04:32Z</time>
      </trkpt>
      <trkpt lat="44.69541" lon="2.88074">
        <ele>1151.6</ele>
        <time>2022-08-06T09:04:34Z</time>
      </trkpt>
      <trkpt lat="44.69541" lon="2.88074">
        <ele>1151.7</ele>
        <time>2022-08-06T09:04:35Z</time>
      </trkpt>
      <trkpt lat="44.69541" lon="2.88075">
        <ele>1151.9</ele>
        <time>2022-08-06T09:04:41Z</time>
      </trkpt>
      <trkpt lat="44.69542" lon="2.88074">
        <ele>1151.8</ele>
        <time>2022-08-06T09:04:55Z</time>
      </trkpt>
      <trkpt lat="44.69542" lon="2.88074">
        <ele>1151.8</ele>
        <time>2022-08-06T09:04:59Z</time>
      </trkpt>
      <trkpt lat="44.69541" lon="2.88074">
        <ele>1151.8</ele>
        <time>2022-08-06T09:05:01Z</time>
      </trkpt>
      <trkpt lat="44.69541" lon="2.8808">
        <ele>1152.2</ele>
        <time>2022-08-06T09:05:35Z</time>
      </trkpt>
      <trkpt lat="44.69543" lon="2.88091">
        <ele>1153.5</ele>
        <time>2022-08-06T09:05:40Z</time>
      </trkpt>
      <trkpt lat="44.69544" lon="2.88096">
        <ele>1154</ele>
        <time>2022-08-06T09:05:42Z</time>
      </trkpt>
      <trkpt lat="44.69547" lon="2.88107">
        <ele>1155.4</ele>
        <time>2022-08-06T09:05:48Z</time>
      </trkpt>
      <trkpt lat="44.69549" lon="2.88111">
        <ele>1156</ele>
        <time>2022-08-06T09:05:52Z</time>
      </trkpt>
      <trkpt lat="44.6955" lon="2.88118">
        <ele>1156.5</ele>
        <time>2022-08-06T09:05:57Z</time>
      </trkpt>
      <trkpt lat="44.69553" lon="2.88123">
        <ele>1157</ele>
        <time>2022-08-06T09:06:01Z</time>
      </trkpt>
      <trkpt lat="44.69553" lon="2.88126">
        <ele>1157.2</ele>
        <time>2022-08-06T09:06:03Z</time>
      </trkpt>
      <trkpt lat="44.69556" lon="2.88131">
        <ele>1157.8</ele>
        <time>2022-08-06T09:06:08Z</time>
      </trkpt>
      <trkpt lat="44.69557" lon="2.88133">
        <ele>1157.9</ele>
        <time>2022-08-06T09:06:10Z</time>
      </trkpt>
      <trkpt lat="44.69558" lon="2.88135">
        <ele>1158.1</ele>
        <time>2022-08-06T09:06:11Z</time>
      </trkpt>
      <trkpt lat="44.69562" lon="2.88145">
        <ele>1159.2</ele>
        <time>2022-08-06T09:06:19Z</time>
      </trkpt>
      <trkpt lat="44.69568" lon="2.88157">
        <ele>1160.6</ele>
        <time>2022-08-06T09:06:28Z</time>
      </trkpt>
      <trkpt lat="44.69572" lon="2.88166">
        <ele>1161.7</ele>
        <time>2022-08-06T09:06:34Z</time>
      </trkpt>
      <trkpt lat="44.69575" lon="2.88173">
        <ele>1162.5</ele>
        <time>2022-08-06T09:06:39Z</time>
      </trkpt>
      <trkpt lat="44.69577" lon="2.88178">
        <ele>1163.2</ele>
        <time>2022-08-06T09:06:43Z</time>
      </trkpt>
      <trkpt lat="44.69579" lon="2.88182">
        <ele>1163.6</ele>
        <time>2022-08-06T09:06:46Z</time>
      </trkpt>
      <trkpt lat="44.69581" lon="2.88188">
        <ele>1164.3</ele>
        <time>2022-08-06T09:06:50Z</time>
      </trkpt>
      <trkpt lat="44.69585" lon="2.882">
        <ele>1165.5</ele>
        <time>2022-08-06T09:06:58Z</time>
      </trkpt>
      <trkpt lat="44.69586" lon="2.88202">
        <ele>1165.7</ele>
        <time>2022-08-06T09:07:00Z</time>
      </trkpt>
      <trkpt lat="44.69587" lon="2.88207">
        <ele>1166.2</ele>
        <time>2022-08-06T09:07:03Z</time>
      </trkpt>
      <trkpt lat="44.69591" lon="2.88217">
        <ele>1167.1</ele>
        <time>2022-08-06T09:07:10Z</time>
      </trkpt>
      <trkpt lat="44.69595" lon="2.88228">
        <ele>1168.1</ele>
        <time>2022-08-06T09:07:18Z</time>
      </trkpt>
      <trkpt lat="44.69595" lon="2.88231">
        <ele>1168.2</ele>
        <time>2022-08-06T09:07:20Z</time>
      </trkpt>
      <trkpt lat="44.69599" lon="2.88239">
        <ele>1168.7</ele>
        <time>2022-08-06T09:07:26Z</time>
      </trkpt>
      <trkpt lat="44.69599" lon="2.8824">
        <ele>1168.8</ele>
        <time>2022-08-06T09:07:27Z</time>
      </trkpt>
      <trkpt lat="44.696" lon="2.88242">
        <ele>1168.9</ele>
        <time>2022-08-06T09:07:29Z</time>
      </trkpt>
      <trkpt lat="44.69603" lon="2.88248">
        <ele>1169.4</ele>
        <time>2022-08-06T09:07:34Z</time>
      </trkpt>
      <trkpt lat="44.6961" lon="2.88258">
        <ele>1170.5</ele>
        <time>2022-08-06T09:07:42Z</time>
      </trkpt>
      <trkpt lat="44.69612" lon="2.8826">
        <ele>1170.8</ele>
        <time>2022-08-06T09:07:44Z</time>
      </trkpt>
      <trkpt lat="44.69615" lon="2.88265">
        <ele>1171.4</ele>
        <time>2022-08-06T09:07:48Z</time>
      </trkpt>
      <trkpt lat="44.69618" lon="2.88267">
        <ele>1171.8</ele>
        <time>2022-08-06T09:07:51Z</time>
      </trkpt>
      <trkpt lat="44.69624" lon="2.88273">
        <ele>1172.6</ele>
        <time>2022-08-06T09:07:57Z</time>
      </trkpt>
      <trkpt lat="44.69632" lon="2.8828">
        <ele>1173.6</ele>
        <time>2022-08-06T09:08:05Z</time>
      </trkpt>
      <trkpt lat="44.69636" lon="2.88284">
        <ele>1174.3</ele>
        <time>2022-08-06T09:08:09Z</time>
      </trkpt>
      <trkpt lat="44.69639" lon="2.88288">
        <ele>1175.1</ele>
        <time>2022-08-06T09:08:13Z</time>
      </trkpt>
      <trkpt lat="44.69646" lon="2.88294">
        <ele>1176.3</ele>
        <time>2022-08-06T09:08:20Z</time>
      </trkpt>
      <trkpt lat="44.69649" lon="2.88296">
        <ele>1176.9</ele>
        <time>2022-08-06T09:08:23Z</time>
      </trkpt>
      <trkpt lat="44.69652" lon="2.883">
        <ele>1177.4</ele>
        <time>2022-08-06T09:08:26Z</time>
      </trkpt>
      <trkpt lat="44.69658" lon="2.88306">
        <ele>1178.4</ele>
        <time>2022-08-06T09:08:32Z</time>
      </trkpt>
      <trkpt lat="44.6966" lon="2.88308">
        <ele>1178.6</ele>
        <time>2022-08-06T09:08:34Z</time>
      </trkpt>
      <trkpt lat="44.69667" lon="2.88315">
        <ele>1179.7</ele>
        <time>2022-08-06T09:08:42Z</time>
      </trkpt>
      <trkpt lat="44.69672" lon="2.88319">
        <ele>1180.4</ele>
        <time>2022-08-06T09:08:46Z</time>
      </trkpt>
      <trkpt lat="44.69679" lon="2.88325">
        <ele>1181.3</ele>
        <time>2022-08-06T09:08:53Z</time>
      </trkpt>
      <trkpt lat="44.69688" lon="2.88334">
        <ele>1182.6</ele>
        <time>2022-08-06T09:09:02Z</time>
      </trkpt>
      <trkpt lat="44.69691" lon="2.88337">
        <ele>1183</ele>
        <time>2022-08-06T09:09:05Z</time>
      </trkpt>
      <trkpt lat="44.69695" lon="2.88342">
        <ele>1183.7</ele>
        <time>2022-08-06T09:09:10Z</time>
      </trkpt>
      <trkpt lat="44.69698" lon="2.88345">
        <ele>1184.1</ele>
        <time>2022-08-06T09:09:13Z</time>
      </trkpt>
      <trkpt lat="44.69701" lon="2.88348">
        <ele>1184.5</ele>
        <time>2022-08-06T09:09:16Z</time>
      </trkpt>
      <trkpt lat="44.69705" lon="2.88353">
        <ele>1185.1</ele>
        <time>2022-08-06T09:09:21Z</time>
      </trkpt>
      <trkpt lat="44.69706" lon="2.88355">
        <ele>1185.3</ele>
        <time>2022-08-06T09:09:23Z</time>
      </trkpt>
      <trkpt lat="44.69713" lon="2.88362">
        <ele>1186.4</ele>
        <time>2022-08-06T09:09:31Z</time>
      </trkpt>
      <trkpt lat="44.69714" lon="2.88363">
        <ele>1186.6</ele>
        <time>2022-08-06T09:09:32Z</time>
      </trkpt>
      <trkpt lat="44.69718" lon="2.88369">
        <ele>1187.5</ele>
        <time>2022-08-06T09:09:37Z</time>
      </trkpt>
      <trkpt lat="44.69721" lon="2.88373">
        <ele>1188.2</ele>
        <time>2022-08-06T09:09:41Z</time>
      </trkpt>
      <trkpt lat="44.69722" lon="2.88376">
        <ele>1188.6</ele>
        <time>2022-08-06T09:09:43Z</time>
      </trkpt>
      <trkpt lat="44.69728" lon="2.88382">
        <ele>1189.7</ele>
        <time>2022-08-06T09:09:49Z</time>
      </trkpt>
      <trkpt lat="44.69728" lon="2.88384">
        <ele>1189.9</ele>
        <time>2022-08-06T09:09:50Z</time>
      </trkpt>
      <trkpt lat="44.69733" lon="2.88391">
        <ele>1191</ele>
        <time>2022-08-06T09:09:56Z</time>
      </trkpt>
      <trkpt lat="44.69736" lon="2.88398">
        <ele>1191.8</ele>
        <time>2022-08-06T09:10:01Z</time>
      </trkpt>
      <trkpt lat="44.69737" lon="2.88401">
        <ele>1192.1</ele>
        <time>2022-08-06T09:10:03Z</time>
      </trkpt>
      <trkpt lat="44.6974" lon="2.88413">
        <ele>1193.4</ele>
        <time>2022-08-06T09:10:11Z</time>
      </trkpt>
      <trkpt lat="44.69741" lon="2.88415">
        <ele>1193.5</ele>
        <time>2022-08-06T09:10:12Z</time>
      </trkpt>
      <trkpt lat="44.69742" lon="2.88428">
        <ele>1194.1</ele>
        <time>2022-08-06T09:10:20Z</time>
      </trkpt>
      <trkpt lat="44.69742" lon="2.88429">
        <ele>1194.1</ele>
        <time>2022-08-06T09:10:21Z</time>
      </trkpt>
      <trkpt lat="44.69742" lon="2.8843">
        <ele>1194.2</ele>
        <time>2022-08-06T09:10:24Z</time>
      </trkpt>
      <trkpt lat="44.69742" lon="2.8843">
        <ele>1194.2</ele>
        <time>2022-08-06T09:10:26Z</time>
      </trkpt>
      <trkpt lat="44.69742" lon="2.8843">
        <ele>1194.2</ele>
        <time>2022-08-06T09:10:29Z</time>
      </trkpt>
      <trkpt lat="44.69742" lon="2.88429">
        <ele>1194.2</ele>
        <time>2022-08-06T09:10:32Z</time>
      </trkpt>
      <trkpt lat="44.69741" lon="2.88428">
        <ele>1194.1</ele>
        <time>2022-08-06T09:10:41Z</time>
      </trkpt>
      <trkpt lat="44.69741" lon="2.88428">
        <ele>1194.1</ele>
        <time>2022-08-06T09:10:54Z</time>
      </trkpt>
      <trkpt lat="44.69741" lon="2.88428">
        <ele>1194.1</ele>
        <time>2022-08-06T09:11:02Z</time>
      </trkpt>
      <trkpt lat="44.69741" lon="2.88428">
        <ele>1194.1</ele>
        <time>2022-08-06T09:11:27Z</time>
      </trkpt>
      <trkpt lat="44.69743" lon="2.88437">
        <ele>1194.4</ele>
        <time>2022-08-06T09:11:47Z</time>
      </trkpt>
      <trkpt lat="44.69747" lon="2.88448">
        <ele>1195</ele>
        <time>2022-08-06T09:11:54Z</time>
      </trkpt>
      <trkpt lat="44.69751" lon="2.88454">
        <ele>1195.4</ele>
        <time>2022-08-06T09:12:00Z</time>
      </trkpt>
      <trkpt lat="44.69751" lon="2.88456">
        <ele>1195.4</ele>
        <time>2022-08-06T09:12:01Z</time>
      </trkpt>
      <trkpt lat="44.69755" lon="2.88465">
        <ele>1195.9</ele>
        <time>2022-08-06T09:12:09Z</time>
      </trkpt>
      <trkpt lat="44.69756" lon="2.88467">
        <ele>1196</ele>
        <time>2022-08-06T09:12:12Z</time>
      </trkpt>
      <trkpt lat="44.69757" lon="2.8847">
        <ele>1196.2</ele>
        <time>2022-08-06T09:12:14Z</time>
      </trkpt>
      <trkpt lat="44.69761" lon="2.88483">
        <ele>1196.8</ele>
        <time>2022-08-06T09:12:23Z</time>
      </trkpt>
      <trkpt lat="44.69763" lon="2.88493">
        <ele>1197.2</ele>
        <time>2022-08-06T09:12:30Z</time>
      </trkpt>
      <trkpt lat="44.69766" lon="2.88501">
        <ele>1197.6</ele>
        <time>2022-08-06T09:12:37Z</time>
      </trkpt>
      <trkpt lat="44.69767" lon="2.88506">
        <ele>1197.8</ele>
        <time>2022-08-06T09:12:41Z</time>
      </trkpt>
      <trkpt lat="44.6977" lon="2.88512">
        <ele>1198.2</ele>
        <time>2022-08-06T09:12:47Z</time>
      </trkpt>
      <trkpt lat="44.69774" lon="2.88523">
        <ele>1198.7</ele>
        <time>2022-08-06T09:12:55Z</time>
      </trkpt>
      <trkpt lat="44.69776" lon="2.88531">
        <ele>1199.1</ele>
        <time>2022-08-06T09:13:00Z</time>
      </trkpt>
      <trkpt lat="44.69778" lon="2.88536">
        <ele>1199.6</ele>
        <time>2022-08-06T09:13:04Z</time>
      </trkpt>
      <trkpt lat="44.69784" lon="2.88545">
        <ele>1200.5</ele>
        <time>2022-08-06T09:13:12Z</time>
      </trkpt>
      <trkpt lat="44.69785" lon="2.88547">
        <ele>1200.6</ele>
        <time>2022-08-06T09:13:13Z</time>
      </trkpt>
      <trkpt lat="44.6979" lon="2.88559">
        <ele>1201.4</ele>
        <time>2022-08-06T09:13:21Z</time>
      </trkpt>
      <trkpt lat="44.69791" lon="2.8856">
        <ele>1201.5</ele>
        <time>2022-08-06T09:13:22Z</time>
      </trkpt>
      <trkpt lat="44.69795" lon="2.88574">
        <ele>1201.6</ele>
        <time>2022-08-06T09:13:32Z</time>
      </trkpt>
      <trkpt lat="44.69798" lon="2.88587">
        <ele>1201.7</ele>
        <time>2022-08-06T09:13:40Z</time>
      </trkpt>
      <trkpt lat="44.69803" lon="2.88602">
        <ele>1201.8</ele>
        <time>2022-08-06T09:13:51Z</time>
      </trkpt>
      <trkpt lat="44.69808" lon="2.8862">
        <ele>1201.8</ele>
        <time>2022-08-06T09:14:02Z</time>
      </trkpt>
      <trkpt lat="44.69812" lon="2.88629">
        <ele>1201.7</ele>
        <time>2022-08-06T09:14:09Z</time>
      </trkpt>
      <trkpt lat="44.69818" lon="2.88643">
        <ele>1201.8</ele>
        <time>2022-08-06T09:14:19Z</time>
      </trkpt>
      <trkpt lat="44.69825" lon="2.88657">
        <ele>1201.8</ele>
        <time>2022-08-06T09:14:28Z</time>
      </trkpt>
      <trkpt lat="44.6983" lon="2.88669">
        <ele>1201.6</ele>
        <time>2022-08-06T09:14:36Z</time>
      </trkpt>
      <trkpt lat="44.69838" lon="2.88686">
        <ele>1201.9</ele>
        <time>2022-08-06T09:14:47Z</time>
      </trkpt>
      <trkpt lat="44.69844" lon="2.887">
        <ele>1202.3</ele>
        <time>2022-08-06T09:14:57Z</time>
      </trkpt>
      <trkpt lat="44.69849" lon="2.88714">
        <ele>1202.5</ele>
        <time>2022-08-06T09:15:06Z</time>
      </trkpt>
      <trkpt lat="44.69855" lon="2.88727">
        <ele>1202.7</ele>
        <time>2022-08-06T09:15:15Z</time>
      </trkpt>
      <trkpt lat="44.69856" lon="2.8873">
        <ele>1202.8</ele>
        <time>2022-08-06T09:15:17Z</time>
      </trkpt>
      <trkpt lat="44.69858" lon="2.88732">
        <ele>1202.8</ele>
        <time>2022-08-06T09:15:19Z</time>
      </trkpt>
      <trkpt lat="44.6986" lon="2.88737">
        <ele>1202.8</ele>
        <time>2022-08-06T09:15:22Z</time>
      </trkpt>
      <trkpt lat="44.69863" lon="2.88748">
        <ele>1202.5</ele>
        <time>2022-08-06T09:15:30Z</time>
      </trkpt>
      <trkpt lat="44.69868" lon="2.88763">
        <ele>1202.7</ele>
        <time>2022-08-06T09:15:39Z</time>
      </trkpt>
      <trkpt lat="44.69873" lon="2.88778">
        <ele>1202.7</ele>
        <time>2022-08-06T09:15:48Z</time>
      </trkpt>
      <trkpt lat="44.69874" lon="2.8878">
        <ele>1202.7</ele>
        <time>2022-08-06T09:15:49Z</time>
      </trkpt>
      <trkpt lat="44.69875" lon="2.88789">
        <ele>1202.6</ele>
        <time>2022-08-06T09:15:55Z</time>
      </trkpt>
      <trkpt lat="44.69875" lon="2.88791">
        <ele>1202.5</ele>
        <time>2022-08-06T09:15:56Z</time>
      </trkpt>
      <trkpt lat="44.69876" lon="2.888">
        <ele>1202.4</ele>
        <time>2022-08-06T09:16:01Z</time>
      </trkpt>
      <trkpt lat="44.69878" lon="2.88815">
        <ele>1202.5</ele>
        <time>2022-08-06T09:16:10Z</time>
      </trkpt>
      <trkpt lat="44.6988" lon="2.88827">
        <ele>1202.6</ele>
        <time>2022-08-06T09:16:17Z</time>
      </trkpt>
      <trkpt lat="44.69881" lon="2.88843">
        <ele>1202.6</ele>
        <time>2022-08-06T09:16:26Z</time>
      </trkpt>
      <trkpt lat="44.69883" lon="2.88856">
        <ele>1202.5</ele>
        <time>2022-08-06T09:16:34Z</time>
      </trkpt>
      <trkpt lat="44.69885" lon="2.88872">
        <ele>1202.6</ele>
        <time>2022-08-06T09:16:44Z</time>
      </trkpt>
      <trkpt lat="44.69889" lon="2.88886">
        <ele>1203</ele>
        <time>2022-08-06T09:16:52Z</time>
      </trkpt>
      <trkpt lat="44.69891" lon="2.88899">
        <ele>1203</ele>
        <time>2022-08-06T09:17:00Z</time>
      </trkpt>
      <trkpt lat="44.69894" lon="2.88912">
        <ele>1203</ele>
        <time>2022-08-06T09:17:08Z</time>
      </trkpt>
      <trkpt lat="44.699" lon="2.88928">
        <ele>1203.6</ele>
        <time>2022-08-06T09:17:18Z</time>
      </trkpt>
      <trkpt lat="44.69904" lon="2.8894">
        <ele>1204.2</ele>
        <time>2022-08-06T09:17:26Z</time>
      </trkpt>
      <trkpt lat="44.69908" lon="2.88956">
        <ele>1204.5</ele>
        <time>2022-08-06T09:17:36Z</time>
      </trkpt>
      <trkpt lat="44.69911" lon="2.88973">
        <ele>1204.4</ele>
        <time>2022-08-06T09:17:46Z</time>
      </trkpt>
      <trkpt lat="44.69914" lon="2.88979">
        <ele>1204.7</ele>
        <time>2022-08-06T09:17:50Z</time>
      </trkpt>
      <trkpt lat="44.69916" lon="2.88986">
        <ele>1204.9</ele>
        <time>2022-08-06T09:17:56Z</time>
      </trkpt>
      <trkpt lat="44.69916" lon="2.88987">
        <ele>1204.9</ele>
        <time>2022-08-06T09:17:57Z</time>
      </trkpt>
      <trkpt lat="44.69917" lon="2.88989">
        <ele>1205</ele>
        <time>2022-08-06T09:18:00Z</time>
      </trkpt>
      <trkpt lat="44.69918" lon="2.88994">
        <ele>1205.1</ele>
        <time>2022-08-06T09:18:03Z</time>
      </trkpt>
      <trkpt lat="44.6992" lon="2.89007">
        <ele>1205.1</ele>
        <time>2022-08-06T09:18:11Z</time>
      </trkpt>
      <trkpt lat="44.69922" lon="2.89015">
        <ele>1205.1</ele>
        <time>2022-08-06T09:18:16Z</time>
      </trkpt>
      <trkpt lat="44.69923" lon="2.89019">
        <ele>1205.1</ele>
        <time>2022-08-06T09:18:18Z</time>
      </trkpt>
      <trkpt lat="44.69925" lon="2.89032">
        <ele>1205.1</ele>
        <time>2022-08-06T09:18:26Z</time>
      </trkpt>
      <trkpt lat="44.69926" lon="2.89042">
        <ele>1205.2</ele>
        <time>2022-08-06T09:18:32Z</time>
      </trkpt>
      <trkpt lat="44.6993" lon="2.89056">
        <ele>1205.4</ele>
        <time>2022-08-06T09:18:41Z</time>
      </trkpt>
      <trkpt lat="44.69932" lon="2.89069">
        <ele>1205.7</ele>
        <time>2022-08-06T09:18:49Z</time>
      </trkpt>
      <trkpt lat="44.69934" lon="2.89074">
        <ele>1205.8</ele>
        <time>2022-08-06T09:18:52Z</time>
      </trkpt>
      <trkpt lat="44.69936" lon="2.89085">
        <ele>1206.1</ele>
        <time>2022-08-06T09:18:59Z</time>
      </trkpt>
      <trkpt lat="44.6994" lon="2.89103">
        <ele>1205.8</ele>
        <time>2022-08-06T09:19:09Z</time>
      </trkpt>
      <trkpt lat="44.69944" lon="2.89122">
        <ele>1205.5</ele>
        <time>2022-08-06T09:19:20Z</time>
      </trkpt>
      <trkpt lat="44.69945" lon="2.89128">
        <ele>1205.4</ele>
        <time>2022-08-06T09:19:24Z</time>
      </trkpt>
      <trkpt lat="44.69946" lon="2.89133">
        <ele>1205.5</ele>
        <time>2022-08-06T09:19:27Z</time>
      </trkpt>
      <trkpt lat="44.69949" lon="2.8915">
        <ele>1205.7</ele>
        <time>2022-08-06T09:19:37Z</time>
      </trkpt>
      <trkpt lat="44.69952" lon="2.8916">
        <ele>1206</ele>
        <time>2022-08-06T09:19:43Z</time>
      </trkpt>
      <trkpt lat="44.69954" lon="2.89172">
        <ele>1206.3</ele>
        <time>2022-08-06T09:19:50Z</time>
      </trkpt>
      <trkpt lat="44.69957" lon="2.8918">
        <ele>1206.6</ele>
        <time>2022-08-06T09:19:55Z</time>
      </trkpt>
      <trkpt lat="44.69958" lon="2.89185">
        <ele>1206.7</ele>
        <time>2022-08-06T09:19:58Z</time>
      </trkpt>
      <trkpt lat="44.69959" lon="2.89195">
        <ele>1206.6</ele>
        <time>2022-08-06T09:20:04Z</time>
      </trkpt>
      <trkpt lat="44.6996" lon="2.89197">
        <ele>1206.6</ele>
        <time>2022-08-06T09:20:05Z</time>
      </trkpt>
      <trkpt lat="44.69963" lon="2.89209">
        <ele>1207</ele>
        <time>2022-08-06T09:20:13Z</time>
      </trkpt>
      <trkpt lat="44.69968" lon="2.89225">
        <ele>1207.5</ele>
        <time>2022-08-06T09:20:22Z</time>
      </trkpt>
      <trkpt lat="44.69968" lon="2.89228">
        <ele>1207.6</ele>
        <time>2022-08-06T09:20:24Z</time>
      </trkpt>
      <trkpt lat="44.69972" lon="2.89243">
        <ele>1208</ele>
        <time>2022-08-06T09:20:33Z</time>
      </trkpt>
      <trkpt lat="44.69975" lon="2.89258">
        <ele>1208</ele>
        <time>2022-08-06T09:20:42Z</time>
      </trkpt>
      <trkpt lat="44.69978" lon="2.89272">
        <ele>1207.9</ele>
        <time>2022-08-06T09:20:50Z</time>
      </trkpt>
      <trkpt lat="44.69982" lon="2.89289">
        <ele>1208</ele>
        <time>2022-08-06T09:21:00Z</time>
      </trkpt>
      <trkpt lat="44.69982" lon="2.89294">
        <ele>1208.1</ele>
        <time>2022-08-06T09:21:03Z</time>
      </trkpt>
      <trkpt lat="44.69984" lon="2.89299">
        <ele>1208.2</ele>
        <time>2022-08-06T09:21:06Z</time>
      </trkpt>
      <trkpt lat="44.69983" lon="2.893">
        <ele>1208.2</ele>
        <time>2022-08-06T09:21:08Z</time>
      </trkpt>
      <trkpt lat="44.69983" lon="2.893">
        <ele>1208.2</ele>
        <time>2022-08-06T09:21:09Z</time>
      </trkpt>
      <trkpt lat="44.69983" lon="2.89299">
        <ele>1208.2</ele>
        <time>2022-08-06T09:21:11Z</time>
      </trkpt>
      <trkpt lat="44.69984" lon="2.89307">
        <ele>1208.3</ele>
        <time>2022-08-06T09:21:17Z</time>
      </trkpt>
      <trkpt lat="44.69986" lon="2.8932">
        <ele>1208.3</ele>
        <time>2022-08-06T09:21:24Z</time>
      </trkpt>
      <trkpt lat="44.6999" lon="2.89337">
        <ele>1208.2</ele>
        <time>2022-08-06T09:21:34Z</time>
      </trkpt>
      <trkpt lat="44.69994" lon="2.89353">
        <ele>1208.4</ele>
        <time>2022-08-06T09:21:43Z</time>
      </trkpt>
      <trkpt lat="44.69995" lon="2.89359">
        <ele>1208.5</ele>
        <time>2022-08-06T09:21:47Z</time>
      </trkpt>
      <trkpt lat="44.69997" lon="2.89368">
        <ele>1208.7</ele>
        <time>2022-08-06T09:21:52Z</time>
      </trkpt>
      <trkpt lat="44.70001" lon="2.89381">
        <ele>1209.1</ele>
        <time>2022-08-06T09:22:00Z</time>
      </trkpt>
      <trkpt lat="44.70002" lon="2.89389">
        <ele>1209.2</ele>
        <time>2022-08-06T09:22:05Z</time>
      </trkpt>
      <trkpt lat="44.70003" lon="2.89396">
        <ele>1209.3</ele>
        <time>2022-08-06T09:22:09Z</time>
      </trkpt>
      <trkpt lat="44.70007" lon="2.89413">
        <ele>1209.5</ele>
        <time>2022-08-06T09:22:19Z</time>
      </trkpt>
      <trkpt lat="44.7001" lon="2.8943">
        <ele>1209.4</ele>
        <time>2022-08-06T09:22:30Z</time>
      </trkpt>
      <trkpt lat="44.70012" lon="2.8944">
        <ele>1209.3</ele>
        <time>2022-08-06T09:22:37Z</time>
      </trkpt>
      <trkpt lat="44.70014" lon="2.89453">
        <ele>1209.5</ele>
        <time>2022-08-06T09:22:45Z</time>
      </trkpt>
      <trkpt lat="44.70017" lon="2.89468">
        <ele>1209.9</ele>
        <time>2022-08-06T09:22:54Z</time>
      </trkpt>
      <trkpt lat="44.70018" lon="2.89472">
        <ele>1209.9</ele>
        <time>2022-08-06T09:22:56Z</time>
      </trkpt>
      <trkpt lat="44.70021" lon="2.89487">
        <ele>1210.4</ele>
        <time>2022-08-06T09:23:05Z</time>
      </trkpt>
      <trkpt lat="44.70021" lon="2.89492">
        <ele>1210.5</ele>
        <time>2022-08-06T09:23:08Z</time>
      </trkpt>
      <trkpt lat="44.70023" lon="2.89502">
        <ele>1210.6</ele>
        <time>2022-08-06T09:23:14Z</time>
      </trkpt>
      <trkpt lat="44.70027" lon="2.89523">
        <ele>1210.9</ele>
        <time>2022-08-06T09:23:26Z</time>
      </trkpt>
      <trkpt lat="44.70027" lon="2.89539">
        <ele>1211</ele>
        <time>2022-08-06T09:23:35Z</time>
      </trkpt>
      <trkpt lat="44.70026" lon="2.89556">
        <ele>1210.9</ele>
        <time>2022-08-06T09:23:45Z</time>
      </trkpt>
      <trkpt lat="44.70025" lon="2.89564">
        <ele>1210.6</ele>
        <time>2022-08-06T09:23:51Z</time>
      </trkpt>
      <trkpt lat="44.70025" lon="2.89566">
        <ele>1210.5</ele>
        <time>2022-08-06T09:23:53Z</time>
      </trkpt>
      <trkpt lat="44.70019" lon="2.89584">
        <ele>1210</ele>
        <time>2022-08-06T09:24:05Z</time>
      </trkpt>
      <trkpt lat="44.70012" lon="2.89599">
        <ele>1210.2</ele>
        <time>2022-08-06T09:24:16Z</time>
      </trkpt>
      <trkpt lat="44.70003" lon="2.89616">
        <ele>1210.3</ele>
        <time>2022-08-06T09:24:28Z</time>
      </trkpt>
      <trkpt lat="44.69999" lon="2.89622">
        <ele>1210.4</ele>
        <time>2022-08-06T09:24:33Z</time>
      </trkpt>
      <trkpt lat="44.69997" lon="2.89621">
        <ele>1210.3</ele>
        <time>2022-08-06T09:24:35Z</time>
      </trkpt>
      <trkpt lat="44.69994" lon="2.89619">
        <ele>1210.2</ele>
        <time>2022-08-06T09:24:38Z</time>
      </trkpt>
      <trkpt lat="44.69994" lon="2.89619">
        <ele>1210.2</ele>
        <time>2022-08-06T09:24:40Z</time>
      </trkpt>
      <trkpt lat="44.69994" lon="2.89619">
        <ele>1210.2</ele>
        <time>2022-08-06T09:24:41Z</time>
      </trkpt>
      <trkpt lat="44.69993" lon="2.89627">
        <ele>1210.4</ele>
        <time>2022-08-06T09:24:52Z</time>
      </trkpt>
      <trkpt lat="44.69993" lon="2.89629">
        <ele>1210.5</ele>
        <time>2022-08-06T09:24:53Z</time>
      </trkpt>
      <trkpt lat="44.69992" lon="2.89637">
        <ele>1210.6</ele>
        <time>2022-08-06T09:24:58Z</time>
      </trkpt>
      <trkpt lat="44.69985" lon="2.89648">
        <ele>1210.8</ele>
        <time>2022-08-06T09:25:07Z</time>
      </trkpt>
      <trkpt lat="44.69977" lon="2.89662">
        <ele>1211</ele>
        <time>2022-08-06T09:25:17Z</time>
      </trkpt>
      <trkpt lat="44.69975" lon="2.89668">
        <ele>1211.2</ele>
        <time>2022-08-06T09:25:21Z</time>
      </trkpt>
      <trkpt lat="44.69972" lon="2.89675">
        <ele>1211.5</ele>
        <time>2022-08-06T09:25:26Z</time>
      </trkpt>
      <trkpt lat="44.69969" lon="2.8968">
        <ele>1211.8</ele>
        <time>2022-08-06T09:25:30Z</time>
      </trkpt>
      <trkpt lat="44.69968" lon="2.89686">
        <ele>1212.1</ele>
        <time>2022-08-06T09:25:34Z</time>
      </trkpt>
      <trkpt lat="44.69967" lon="2.89691">
        <ele>1212.3</ele>
        <time>2022-08-06T09:25:37Z</time>
      </trkpt>
      <trkpt lat="44.6996" lon="2.89709">
        <ele>1213.1</ele>
        <time>2022-08-06T09:25:49Z</time>
      </trkpt>
      <trkpt lat="44.69955" lon="2.8972">
        <ele>1213.6</ele>
        <time>2022-08-06T09:25:58Z</time>
      </trkpt>
      <trkpt lat="44.69953" lon="2.89724">
        <ele>1213.7</ele>
        <time>2022-08-06T09:26:01Z</time>
      </trkpt>
      <trkpt lat="44.69952" lon="2.89729">
        <ele>1214</ele>
        <time>2022-08-06T09:26:04Z</time>
      </trkpt>
      <trkpt lat="44.69949" lon="2.89734">
        <ele>1214.2</ele>
        <time>2022-08-06T09:26:08Z</time>
      </trkpt>
      <trkpt lat="44.69948" lon="2.89737">
        <ele>1214.3</ele>
        <time>2022-08-06T09:26:10Z</time>
      </trkpt>
      <trkpt lat="44.69943" lon="2.89749">
        <ele>1214.8</ele>
        <time>2022-08-06T09:26:18Z</time>
      </trkpt>
      <trkpt lat="44.69938" lon="2.89764">
        <ele>1215.4</ele>
        <time>2022-08-06T09:26:28Z</time>
      </trkpt>
      <trkpt lat="44.69934" lon="2.89779">
        <ele>1215.9</ele>
        <time>2022-08-06T09:26:38Z</time>
      </trkpt>
      <trkpt lat="44.69934" lon="2.8978">
        <ele>1216</ele>
        <time>2022-08-06T09:26:39Z</time>
      </trkpt>
      <trkpt lat="44.69932" lon="2.89785">
        <ele>1216.2</ele>
        <time>2022-08-06T09:26:42Z</time>
      </trkpt>
      <trkpt lat="44.6993" lon="2.89796">
        <ele>1216.7</ele>
        <time>2022-08-06T09:26:49Z</time>
      </trkpt>
      <trkpt lat="44.69928" lon="2.89804">
        <ele>1217.1</ele>
        <time>2022-08-06T09:26:54Z</time>
      </trkpt>
      <trkpt lat="44.69926" lon="2.89811">
        <ele>1217.4</ele>
        <time>2022-08-06T09:26:58Z</time>
      </trkpt>
      <trkpt lat="44.69923" lon="2.8982">
        <ele>1217.7</ele>
        <time>2022-08-06T09:27:03Z</time>
      </trkpt>
      <trkpt lat="44.69918" lon="2.89838">
        <ele>1218.5</ele>
        <time>2022-08-06T09:27:14Z</time>
      </trkpt>
      <trkpt lat="44.69915" lon="2.8985">
        <ele>1219</ele>
        <time>2022-08-06T09:27:22Z</time>
      </trkpt>
      <trkpt lat="44.69913" lon="2.89856">
        <ele>1219.2</ele>
        <time>2022-08-06T09:27:26Z</time>
      </trkpt>
      <trkpt lat="44.69911" lon="2.89863">
        <ele>1219.3</ele>
        <time>2022-08-06T09:27:30Z</time>
      </trkpt>
      <trkpt lat="44.69907" lon="2.89875">
        <ele>1219.5</ele>
        <time>2022-08-06T09:27:38Z</time>
      </trkpt>
      <trkpt lat="44.69904" lon="2.89888">
        <ele>1219.6</ele>
        <time>2022-08-06T09:27:46Z</time>
      </trkpt>
      <trkpt lat="44.69903" lon="2.8989">
        <ele>1219.6</ele>
        <time>2022-08-06T09:27:49Z</time>
      </trkpt>
      <trkpt lat="44.69903" lon="2.8989">
        <ele>1219.5</ele>
        <time>2022-08-06T09:27:50Z</time>
      </trkpt>
      <trkpt lat="44.69903" lon="2.8989">
        <ele>1219.5</ele>
        <time>2022-08-06T09:27:52Z</time>
      </trkpt>
      <trkpt lat="44.69904" lon="2.8989">
        <ele>1219.7</ele>
        <time>2022-08-06T09:28:00Z</time>
      </trkpt>
      <trkpt lat="44.69903" lon="2.89892">
        <ele>1219.7</ele>
        <time>2022-08-06T09:28:13Z</time>
      </trkpt>
      <trkpt lat="44.69902" lon="2.89897">
        <ele>1219.8</ele>
        <time>2022-08-06T09:28:15Z</time>
      </trkpt>
      <trkpt lat="44.69901" lon="2.89907">
        <ele>1220.1</ele>
        <time>2022-08-06T09:28:22Z</time>
      </trkpt>
      <trkpt lat="44.69902" lon="2.89907">
        <ele>1220.2</ele>
        <time>2022-08-06T09:28:25Z</time>
      </trkpt>
      <trkpt lat="44.699" lon="2.89911">
        <ele>1220.2</ele>
        <time>2022-08-06T09:28:33Z</time>
      </trkpt>
      <trkpt lat="44.69899" lon="2.89915">
        <ele>1220.2</ele>
        <time>2022-08-06T09:28:35Z</time>
      </trkpt>
      <trkpt lat="44.69896" lon="2.89925">
        <ele>1220.1</ele>
        <time>2022-08-06T09:28:41Z</time>
      </trkpt>
      <trkpt lat="44.69893" lon="2.8994">
        <ele>1220.4</ele>
        <time>2022-08-06T09:28:50Z</time>
      </trkpt>
      <trkpt lat="44.69891" lon="2.89947">
        <ele>1220.6</ele>
        <time>2022-08-06T09:28:54Z</time>
      </trkpt>
      <trkpt lat="44.6989" lon="2.89951">
        <ele>1220.7</ele>
        <time>2022-08-06T09:28:56Z</time>
      </trkpt>
      <trkpt lat="44.6989" lon="2.89952">
        <ele>1220.7</ele>
        <time>2022-08-06T09:28:57Z</time>
      </trkpt>
      <trkpt lat="44.69889" lon="2.89955">
        <ele>1220.8</ele>
        <time>2022-08-06T09:28:59Z</time>
      </trkpt>
      <trkpt lat="44.69886" lon="2.89963">
        <ele>1220.9</ele>
        <time>2022-08-06T09:29:04Z</time>
      </trkpt>
      <trkpt lat="44.69884" lon="2.89974">
        <ele>1221.2</ele>
        <time>2022-08-06T09:29:11Z</time>
      </trkpt>
      <trkpt lat="44.69881" lon="2.8999">
        <ele>1221.2</ele>
        <time>2022-08-06T09:29:22Z</time>
      </trkpt>
      <trkpt lat="44.69881" lon="2.89992">
        <ele>1221.2</ele>
        <time>2022-08-06T09:29:23Z</time>
      </trkpt>
      <trkpt lat="44.69877" lon="2.90009">
        <ele>1220.9</ele>
        <time>2022-08-06T09:29:33Z</time>
      </trkpt>
      <trkpt lat="44.69874" lon="2.90023">
        <ele>1220.8</ele>
        <time>2022-08-06T09:29:42Z</time>
      </trkpt>
      <trkpt lat="44.6987" lon="2.90039">
        <ele>1221.6</ele>
        <time>2022-08-06T09:29:53Z</time>
      </trkpt>
      <trkpt lat="44.69867" lon="2.9005">
        <ele>1222.2</ele>
        <time>2022-08-06T09:30:00Z</time>
      </trkpt>
      <trkpt lat="44.69867" lon="2.90052">
        <ele>1222.4</ele>
        <time>2022-08-06T09:30:02Z</time>
      </trkpt>
      <trkpt lat="44.69865" lon="2.90064">
        <ele>1222.8</ele>
        <time>2022-08-06T09:30:10Z</time>
      </trkpt>
      <trkpt lat="44.6986" lon="2.90081">
        <ele>1222.9</ele>
        <time>2022-08-06T09:30:20Z</time>
      </trkpt>
      <trkpt lat="44.69857" lon="2.90092">
        <ele>1223.3</ele>
        <time>2022-08-06T09:30:27Z</time>
      </trkpt>
      <trkpt lat="44.69854" lon="2.90103">
        <ele>1223.7</ele>
        <time>2022-08-06T09:30:34Z</time>
      </trkpt>
      <trkpt lat="44.69848" lon="2.90122">
        <ele>1224.3</ele>
        <time>2022-08-06T09:30:46Z</time>
      </trkpt>
      <trkpt lat="44.69846" lon="2.90129">
        <ele>1224.6</ele>
        <time>2022-08-06T09:30:53Z</time>
      </trkpt>
      <trkpt lat="44.69842" lon="2.9014">
        <ele>1225</ele>
        <time>2022-08-06T09:31:01Z</time>
      </trkpt>
      <trkpt lat="44.69837" lon="2.90153">
        <ele>1224.9</ele>
        <time>2022-08-06T09:31:10Z</time>
      </trkpt>
      <trkpt lat="44.69834" lon="2.90158">
        <ele>1224.8</ele>
        <time>2022-08-06T09:31:14Z</time>
      </trkpt>
      <trkpt lat="44.69832" lon="2.90162">
        <ele>1224.7</ele>
        <time>2022-08-06T09:31:17Z</time>
      </trkpt>
      <trkpt lat="44.69826" lon="2.90175">
        <ele>1224.5</ele>
        <time>2022-08-06T09:31:26Z</time>
      </trkpt>
      <trkpt lat="44.69825" lon="2.90181">
        <ele>1224.4</ele>
        <time>2022-08-06T09:31:30Z</time>
      </trkpt>
      <trkpt lat="44.69823" lon="2.90183">
        <ele>1224.3</ele>
        <time>2022-08-06T09:31:33Z</time>
      </trkpt>
      <trkpt lat="44.69821" lon="2.90186">
        <ele>1224.1</ele>
        <time>2022-08-06T09:31:36Z</time>
      </trkpt>
      <trkpt lat="44.69817" lon="2.90195">
        <ele>1223.7</ele>
        <time>2022-08-06T09:31:42Z</time>
      </trkpt>
      <trkpt lat="44.69809" lon="2.9021">
        <ele>1222.7</ele>
        <time>2022-08-06T09:31:53Z</time>
      </trkpt>
      <trkpt lat="44.69807" lon="2.90214">
        <ele>1222.2</ele>
        <time>2022-08-06T09:31:56Z</time>
      </trkpt>
      <trkpt lat="44.69801" lon="2.90227">
        <ele>1221.7</ele>
        <time>2022-08-06T09:32:05Z</time>
      </trkpt>
      <trkpt lat="44.69799" lon="2.9024">
        <ele>1222.1</ele>
        <time>2022-08-06T09:32:15Z</time>
      </trkpt>
      <trkpt lat="44.69799" lon="2.90241">
        <ele>1222.1</ele>
        <time>2022-08-06T09:32:17Z</time>
      </trkpt>
      <trkpt lat="44.69799" lon="2.90242">
        <ele>1222.2</ele>
        <time>2022-08-06T09:32:21Z</time>
      </trkpt>
      <trkpt lat="44.69799" lon="2.90247">
        <ele>1222.4</ele>
        <time>2022-08-06T09:32:26Z</time>
      </trkpt>
      <trkpt lat="44.69799" lon="2.9025">
        <ele>1222.5</ele>
        <time>2022-08-06T09:32:30Z</time>
      </trkpt>
      <trkpt lat="44.69798" lon="2.90262">
        <ele>1222.3</ele>
        <time>2022-08-06T09:32:38Z</time>
      </trkpt>
      <trkpt lat="44.69796" lon="2.90279">
        <ele>1222</ele>
        <time>2022-08-06T09:32:48Z</time>
      </trkpt>
      <trkpt lat="44.69796" lon="2.90297">
        <ele>1221.5</ele>
        <time>2022-08-06T09:32:59Z</time>
      </trkpt>
      <trkpt lat="44.69793" lon="2.90319">
        <ele>1221.4</ele>
        <time>2022-08-06T09:33:12Z</time>
      </trkpt>
      <trkpt lat="44.69788" lon="2.90333">
        <ele>1221.7</ele>
        <time>2022-08-06T09:33:22Z</time>
      </trkpt>
      <trkpt lat="44.69779" lon="2.90346">
        <ele>1220.6</ele>
        <time>2022-08-06T09:33:33Z</time>
      </trkpt>
      <trkpt lat="44.69769" lon="2.90353">
        <ele>1219.9</ele>
        <time>2022-08-06T09:33:42Z</time>
      </trkpt>
      <trkpt lat="44.69768" lon="2.90354">
        <ele>1219.8</ele>
        <time>2022-08-06T09:33:43Z</time>
      </trkpt>
      <trkpt lat="44.69768" lon="2.90354">
        <ele>1219.8</ele>
        <time>2022-08-06T09:33:44Z</time>
      </trkpt>
      <trkpt lat="44.6976" lon="2.90358">
        <ele>1219.4</ele>
        <time>2022-08-06T09:33:53Z</time>
      </trkpt>
      <trkpt lat="44.6976" lon="2.90358">
        <ele>1219.4</ele>
        <time>2022-08-06T09:33:54Z</time>
      </trkpt>
      <trkpt lat="44.69758" lon="2.90362">
        <ele>1219.3</ele>
        <time>2022-08-06T09:34:11Z</time>
      </trkpt>
      <trkpt lat="44.69752" lon="2.9037">
        <ele>1219.4</ele>
        <time>2022-08-06T09:34:17Z</time>
      </trkpt>
      <trkpt lat="44.6975" lon="2.90373">
        <ele>1219.4</ele>
        <time>2022-08-06T09:34:19Z</time>
      </trkpt>
      <trkpt lat="44.69746" lon="2.90379">
        <ele>1219.2</ele>
        <time>2022-08-06T09:34:24Z</time>
      </trkpt>
      <trkpt lat="44.69743" lon="2.90382">
        <ele>1219</ele>
        <time>2022-08-06T09:34:27Z</time>
      </trkpt>
      <trkpt lat="44.69741" lon="2.90382">
        <ele>1218.8</ele>
        <time>2022-08-06T09:34:31Z</time>
      </trkpt>
      <trkpt lat="44.6974" lon="2.90382">
        <ele>1218.7</ele>
        <time>2022-08-06T09:34:33Z</time>
      </trkpt>
      <trkpt lat="44.6974" lon="2.90382">
        <ele>1218.7</ele>
        <time>2022-08-06T09:34:35Z</time>
      </trkpt>
      <trkpt lat="44.6974" lon="2.90382">
        <ele>1218.7</ele>
        <time>2022-08-06T09:34:39Z</time>
      </trkpt>
      <trkpt lat="44.6974" lon="2.90382">
        <ele>1218.7</ele>
        <time>2022-08-06T09:34:43Z</time>
      </trkpt>
      <trkpt lat="44.69738" lon="2.9039">
        <ele>1218.7</ele>
        <time>2022-08-06T09:34:54Z</time>
      </trkpt>
      <trkpt lat="44.69736" lon="2.90393">
        <ele>1218.7</ele>
        <time>2022-08-06T09:34:57Z</time>
      </trkpt>
      <trkpt lat="44.69736" lon="2.90394">
        <ele>1218.7</ele>
        <time>2022-08-06T09:35:01Z</time>
      </trkpt>
      <trkpt lat="44.69735" lon="2.90398">
        <ele>1218.8</ele>
        <time>2022-08-06T09:35:14Z</time>
      </trkpt>
      <trkpt lat="44.69733" lon="2.90403">
        <ele>1218.8</ele>
        <time>2022-08-06T09:35:18Z</time>
      </trkpt>
      <trkpt lat="44.69733" lon="2.90404">
        <ele>1218.8</ele>
        <time>2022-08-06T09:35:21Z</time>
      </trkpt>
      <trkpt lat="44.69732" lon="2.90403">
        <ele>1218.7</ele>
        <time>2022-08-06T09:35:37Z</time>
      </trkpt>
      <trkpt lat="44.69732" lon="2.90403">
        <ele>1218.7</ele>
        <time>2022-08-06T09:35:40Z</time>
      </trkpt>
      <trkpt lat="44.69732" lon="2.90414">
        <ele>1219.3</ele>
        <time>2022-08-06T09:35:46Z</time>
      </trkpt>
      <trkpt lat="44.69731" lon="2.90436">
        <ele>1220</ele>
        <time>2022-08-06T09:35:57Z</time>
      </trkpt>
      <trkpt lat="44.69725" lon="2.90456">
        <ele>1220.2</ele>
        <time>2022-08-06T09:36:10Z</time>
      </trkpt>
      <trkpt lat="44.69717" lon="2.9047">
        <ele>1219.7</ele>
        <time>2022-08-06T09:36:21Z</time>
      </trkpt>
      <trkpt lat="44.69716" lon="2.90471">
        <ele>1219.6</ele>
        <time>2022-08-06T09:36:22Z</time>
      </trkpt>
      <trkpt lat="44.69707" lon="2.90493">
        <ele>1219.5</ele>
        <time>2022-08-06T09:36:37Z</time>
      </trkpt>
      <trkpt lat="44.69702" lon="2.90508">
        <ele>1219.7</ele>
        <time>2022-08-06T09:36:47Z</time>
      </trkpt>
      <trkpt lat="44.69701" lon="2.90511">
        <ele>1219.7</ele>
        <time>2022-08-06T09:36:52Z</time>
      </trkpt>
      <trkpt lat="44.697" lon="2.90512">
        <ele>1219.7</ele>
        <time>2022-08-06T09:36:53Z</time>
      </trkpt>
      <trkpt lat="44.697" lon="2.90514">
        <ele>1219.8</ele>
        <time>2022-08-06T09:36:54Z</time>
      </trkpt>
      <trkpt lat="44.69697" lon="2.90525">
        <ele>1220.3</ele>
        <time>2022-08-06T09:37:00Z</time>
      </trkpt>
      <trkpt lat="44.6969" lon="2.90537">
        <ele>1220.7</ele>
        <time>2022-08-06T09:37:09Z</time>
      </trkpt>
      <trkpt lat="44.69688" lon="2.90538">
        <ele>1220.7</ele>
        <time>2022-08-06T09:37:11Z</time>
      </trkpt>
      <trkpt lat="44.69683" lon="2.90539">
        <ele>1220.6</ele>
        <time>2022-08-06T09:37:16Z</time>
      </trkpt>
      <trkpt lat="44.69683" lon="2.90538">
        <ele>1220.5</ele>
        <time>2022-08-06T09:37:23Z</time>
      </trkpt>
      <trkpt lat="44.69678" lon="2.90541">
        <ele>1220.5</ele>
        <time>2022-08-06T09:37:30Z</time>
      </trkpt>
      <trkpt lat="44.6967" lon="2.90544">
        <ele>1220.5</ele>
        <time>2022-08-06T09:37:37Z</time>
      </trkpt>
      <trkpt lat="44.69658" lon="2.90545">
        <ele>1220.1</ele>
        <time>2022-08-06T09:37:46Z</time>
      </trkpt>
      <trkpt lat="44.69654" lon="2.90546">
        <ele>1220.1</ele>
        <time>2022-08-06T09:37:49Z</time>
      </trkpt>
      <trkpt lat="44.6965" lon="2.90546">
        <ele>1220</ele>
        <time>2022-08-06T09:37:53Z</time>
      </trkpt>
      <trkpt lat="44.69647" lon="2.90546">
        <ele>1219.9</ele>
        <time>2022-08-06T09:37:55Z</time>
      </trkpt>
      <trkpt lat="44.69646" lon="2.90547">
        <ele>1219.9</ele>
        <time>2022-08-06T09:37:56Z</time>
      </trkpt>
      <trkpt lat="44.69638" lon="2.9055">
        <ele>1220.2</ele>
        <time>2022-08-06T09:38:02Z</time>
      </trkpt>
      <trkpt lat="44.69626" lon="2.90557">
        <ele>1220.7</ele>
        <time>2022-08-06T09:38:13Z</time>
      </trkpt>
      <trkpt lat="44.69625" lon="2.90557">
        <ele>1220.7</ele>
        <time>2022-08-06T09:38:14Z</time>
      </trkpt>
      <trkpt lat="44.69624" lon="2.90559">
        <ele>1220.8</ele>
        <time>2022-08-06T09:38:15Z</time>
      </trkpt>
      <trkpt lat="44.6962" lon="2.90562">
        <ele>1221.1</ele>
        <time>2022-08-06T09:38:18Z</time>
      </trkpt>
      <trkpt lat="44.69618" lon="2.90563">
        <ele>1221</ele>
        <time>2022-08-06T09:38:20Z</time>
      </trkpt>
      <trkpt lat="44.6961" lon="2.90567">
        <ele>1221.2</ele>
        <time>2022-08-06T09:38:27Z</time>
      </trkpt>
      <trkpt lat="44.69601" lon="2.90572">
        <ele>1221.3</ele>
        <time>2022-08-06T09:38:34Z</time>
      </trkpt>
      <trkpt lat="44.69592" lon="2.90577">
        <ele>1221.5</ele>
        <time>2022-08-06T09:38:42Z</time>
      </trkpt>
      <trkpt lat="44.69592" lon="2.90579">
        <ele>1221.8</ele>
        <time>2022-08-06T09:38:43Z</time>
      </trkpt>
      <trkpt lat="44.69586" lon="2.90582">
        <ele>1221.9</ele>
        <time>2022-08-06T09:38:48Z</time>
      </trkpt>
      <trkpt lat="44.69582" lon="2.90583">
        <ele>1221.9</ele>
        <time>2022-08-06T09:38:51Z</time>
      </trkpt>
      <trkpt lat="44.69581" lon="2.90584">
        <ele>1222</ele>
        <time>2022-08-06T09:38:52Z</time>
      </trkpt>
      <trkpt lat="44.69579" lon="2.90587">
        <ele>1222.1</ele>
        <time>2022-08-06T09:38:55Z</time>
      </trkpt>
      <trkpt lat="44.69571" lon="2.90593">
        <ele>1222.2</ele>
        <time>2022-08-06T09:39:03Z</time>
      </trkpt>
      <trkpt lat="44.6957" lon="2.90594">
        <ele>1222.2</ele>
        <time>2022-08-06T09:39:05Z</time>
      </trkpt>
      <trkpt lat="44.69565" lon="2.906">
        <ele>1222.5</ele>
        <time>2022-08-06T09:39:11Z</time>
      </trkpt>
      <trkpt lat="44.69564" lon="2.90601">
        <ele>1222.5</ele>
        <time>2022-08-06T09:39:12Z</time>
      </trkpt>
      <trkpt lat="44.69555" lon="2.90608">
        <ele>1222.7</ele>
        <time>2022-08-06T09:39:20Z</time>
      </trkpt>
      <trkpt lat="44.69554" lon="2.9061">
        <ele>1222.8</ele>
        <time>2022-08-06T09:39:22Z</time>
      </trkpt>
      <trkpt lat="44.6955" lon="2.90613">
        <ele>1222.9</ele>
        <time>2022-08-06T09:39:26Z</time>
      </trkpt>
      <trkpt lat="44.69543" lon="2.90621">
        <ele>1223.3</ele>
        <time>2022-08-06T09:39:33Z</time>
      </trkpt>
      <trkpt lat="44.6954" lon="2.90624">
        <ele>1223.4</ele>
        <time>2022-08-06T09:39:36Z</time>
      </trkpt>
      <trkpt lat="44.69529" lon="2.90631">
        <ele>1223.2</ele>
        <time>2022-08-06T09:39:45Z</time>
      </trkpt>
      <trkpt lat="44.69525" lon="2.90635">
        <ele>1223.3</ele>
        <time>2022-08-06T09:39:49Z</time>
      </trkpt>
      <trkpt lat="44.69519" lon="2.9064">
        <ele>1223.2</ele>
        <time>2022-08-06T09:39:55Z</time>
      </trkpt>
      <trkpt lat="44.69516" lon="2.90642">
        <ele>1223.1</ele>
        <time>2022-08-06T09:39:57Z</time>
      </trkpt>
      <trkpt lat="44.69515" lon="2.90644">
        <ele>1223.2</ele>
        <time>2022-08-06T09:39:58Z</time>
      </trkpt>
      <trkpt lat="44.69513" lon="2.90646">
        <ele>1223.2</ele>
        <time>2022-08-06T09:40:00Z</time>
      </trkpt>
      <trkpt lat="44.69507" lon="2.90653">
        <ele>1223.2</ele>
        <time>2022-08-06T09:40:07Z</time>
      </trkpt>
      <trkpt lat="44.69505" lon="2.90658">
        <ele>1223.6</ele>
        <time>2022-08-06T09:40:11Z</time>
      </trkpt>
      <trkpt lat="44.69502" lon="2.90662">
        <ele>1223.7</ele>
        <time>2022-08-06T09:40:14Z</time>
      </trkpt>
      <trkpt lat="44.69494" lon="2.9067">
        <ele>1223.8</ele>
        <time>2022-08-06T09:40:22Z</time>
      </trkpt>
      <trkpt lat="44.69488" lon="2.9068">
        <ele>1224.4</ele>
        <time>2022-08-06T09:40:30Z</time>
      </trkpt>
      <trkpt lat="44.69485" lon="2.90684">
        <ele>1224.5</ele>
        <time>2022-08-06T09:40:33Z</time>
      </trkpt>
      <trkpt lat="44.6948" lon="2.90692">
        <ele>1224.8</ele>
        <time>2022-08-06T09:40:39Z</time>
      </trkpt>
      <trkpt lat="44.69477" lon="2.90698">
        <ele>1225</ele>
        <time>2022-08-06T09:40:43Z</time>
      </trkpt>
      <trkpt lat="44.69476" lon="2.90699">
        <ele>1225</ele>
        <time>2022-08-06T09:40:44Z</time>
      </trkpt>
      <trkpt lat="44.69474" lon="2.90701">
        <ele>1225</ele>
        <time>2022-08-06T09:40:46Z</time>
      </trkpt>
      <trkpt lat="44.69471" lon="2.90705">
        <ele>1225</ele>
        <time>2022-08-06T09:40:52Z</time>
      </trkpt>
      <trkpt lat="44.69471" lon="2.90705">
        <ele>1225</ele>
        <time>2022-08-06T09:40:53Z</time>
      </trkpt>
      <trkpt lat="44.69468" lon="2.90711">
        <ele>1225.3</ele>
        <time>2022-08-06T09:40:59Z</time>
      </trkpt>
      <trkpt lat="44.69463" lon="2.90719">
        <ele>1225.6</ele>
        <time>2022-08-06T09:41:05Z</time>
      </trkpt>
      <trkpt lat="44.69462" lon="2.90721">
        <ele>1225.7</ele>
        <time>2022-08-06T09:41:07Z</time>
      </trkpt>
      <trkpt lat="44.69454" lon="2.90732">
        <ele>1226.3</ele>
        <time>2022-08-06T09:41:16Z</time>
      </trkpt>
      <trkpt lat="44.69453" lon="2.90733">
        <ele>1226.3</ele>
        <time>2022-08-06T09:41:17Z</time>
      </trkpt>
      <trkpt lat="44.6945" lon="2.90738">
        <ele>1226.3</ele>
        <time>2022-08-06T09:41:21Z</time>
      </trkpt>
      <trkpt lat="44.69449" lon="2.90739">
        <ele>1226.3</ele>
        <time>2022-08-06T09:41:22Z</time>
      </trkpt>
      <trkpt lat="44.69444" lon="2.90741">
        <ele>1226</ele>
        <time>2022-08-06T09:41:26Z</time>
      </trkpt>
      <trkpt lat="44.6944" lon="2.90746">
        <ele>1226.3</ele>
        <time>2022-08-06T09:41:30Z</time>
      </trkpt>
      <trkpt lat="44.69439" lon="2.90747">
        <ele>1226.3</ele>
        <time>2022-08-06T09:41:31Z</time>
      </trkpt>
      <trkpt lat="44.69437" lon="2.90749">
        <ele>1226.3</ele>
        <time>2022-08-06T09:41:34Z</time>
      </trkpt>
      <trkpt lat="44.69436" lon="2.9075">
        <ele>1226.3</ele>
        <time>2022-08-06T09:41:36Z</time>
      </trkpt>
      <trkpt lat="44.69436" lon="2.90751">
        <ele>1226.4</ele>
        <time>2022-08-06T09:41:38Z</time>
      </trkpt>
      <trkpt lat="44.69435" lon="2.90752">
        <ele>1226.6</ele>
        <time>2022-08-06T09:41:39Z</time>
      </trkpt>
      <trkpt lat="44.69433" lon="2.90753">
        <ele>1226.6</ele>
        <time>2022-08-06T09:41:41Z</time>
      </trkpt>
      <trkpt lat="44.69423" lon="2.90759">
        <ele>1226.5</ele>
        <time>2022-08-06T09:41:48Z</time>
      </trkpt>
      <trkpt lat="44.69417" lon="2.90765">
        <ele>1226.6</ele>
        <time>2022-08-06T09:41:54Z</time>
      </trkpt>
      <trkpt lat="44.6941" lon="2.90772">
        <ele>1227.1</ele>
        <time>2022-08-06T09:42:03Z</time>
      </trkpt>
      <trkpt lat="44.69404" lon="2.90777">
        <ele>1227.5</ele>
        <time>2022-08-06T09:42:09Z</time>
      </trkpt>
      <trkpt lat="44.69401" lon="2.90779">
        <ele>1227.5</ele>
        <time>2022-08-06T09:42:12Z</time>
      </trkpt>
      <trkpt lat="44.69393" lon="2.90783">
        <ele>1227.6</ele>
        <time>2022-08-06T09:42:19Z</time>
      </trkpt>
      <trkpt lat="44.69393" lon="2.90784">
        <ele>1227.6</ele>
        <time>2022-08-06T09:42:20Z</time>
      </trkpt>
      <trkpt lat="44.69393" lon="2.90785">
        <ele>1227.7</ele>
        <time>2022-08-06T09:42:22Z</time>
      </trkpt>
      <trkpt lat="44.69392" lon="2.90785">
        <ele>1227.7</ele>
        <time>2022-08-06T09:42:23Z</time>
      </trkpt>
      <trkpt lat="44.69392" lon="2.90786">
        <ele>1227.7</ele>
        <time>2022-08-06T09:42:24Z</time>
      </trkpt>
      <trkpt lat="44.69389" lon="2.90788">
        <ele>1227.8</ele>
        <time>2022-08-06T09:42:27Z</time>
      </trkpt>
      <trkpt lat="44.69385" lon="2.90792">
        <ele>1227.7</ele>
        <time>2022-08-06T09:42:31Z</time>
      </trkpt>
      <trkpt lat="44.69384" lon="2.90792">
        <ele>1227.6</ele>
        <time>2022-08-06T09:42:32Z</time>
      </trkpt>
      <trkpt lat="44.69378" lon="2.90796">
        <ele>1227.5</ele>
        <time>2022-08-06T09:42:37Z</time>
      </trkpt>
      <trkpt lat="44.69375" lon="2.90798">
        <ele>1227.5</ele>
        <time>2022-08-06T09:42:41Z</time>
      </trkpt>
      <trkpt lat="44.69376" lon="2.90798">
        <ele>1227.5</ele>
        <time>2022-08-06T09:42:43Z</time>
      </trkpt>
      <trkpt lat="44.69376" lon="2.90798">
        <ele>1227.5</ele>
        <time>2022-08-06T09:42:44Z</time>
      </trkpt>
      <trkpt lat="44.69377" lon="2.90798">
        <ele>1227.6</ele>
        <time>2022-08-06T09:42:45Z</time>
      </trkpt>
      <trkpt lat="44.69377" lon="2.90798">
        <ele>1227.6</ele>
        <time>2022-08-06T09:42:46Z</time>
      </trkpt>
      <trkpt lat="44.69376" lon="2.90799">
        <ele>1227.6</ele>
        <time>2022-08-06T09:42:48Z</time>
      </trkpt>
      <trkpt lat="44.69374" lon="2.908">
        <ele>1227.6</ele>
        <time>2022-08-06T09:42:49Z</time>
      </trkpt>
      <trkpt lat="44.69363" lon="2.90805">
        <ele>1227.1</ele>
        <time>2022-08-06T09:42:56Z</time>
      </trkpt>
      <trkpt lat="44.6935" lon="2.90807">
        <ele>1227.5</ele>
        <time>2022-08-06T09:43:05Z</time>
      </trkpt>
      <trkpt lat="44.69339" lon="2.90805">
        <ele>1227.8</ele>
        <time>2022-08-06T09:43:14Z</time>
      </trkpt>
      <trkpt lat="44.69328" lon="2.90802">
        <ele>1228</ele>
        <time>2022-08-06T09:43:23Z</time>
      </trkpt>
      <trkpt lat="44.69316" lon="2.908">
        <ele>1228.4</ele>
        <time>2022-08-06T09:43:32Z</time>
      </trkpt>
      <trkpt lat="44.69308" lon="2.90796">
        <ele>1228.5</ele>
        <time>2022-08-06T09:43:40Z</time>
      </trkpt>
      <trkpt lat="44.69299" lon="2.90788">
        <ele>1229.8</ele>
        <time>2022-08-06T09:43:49Z</time>
      </trkpt>
      <trkpt lat="44.69292" lon="2.90777">
        <ele>1230.9</ele>
        <time>2022-08-06T09:43:59Z</time>
      </trkpt>
      <trkpt lat="44.69292" lon="2.90773">
        <ele>1230.7</ele>
        <time>2022-08-06T09:44:04Z</time>
      </trkpt>
      <trkpt lat="44.69292" lon="2.90773">
        <ele>1230.7</ele>
        <time>2022-08-06T09:44:05Z</time>
      </trkpt>
      <trkpt lat="44.69291" lon="2.90769">
        <ele>1230.7</ele>
        <time>2022-08-06T09:44:16Z</time>
      </trkpt>
      <trkpt lat="44.69286" lon="2.90761">
        <ele>1231.5</ele>
        <time>2022-08-06T09:44:24Z</time>
      </trkpt>
      <trkpt lat="44.69284" lon="2.90755">
        <ele>1231.8</ele>
        <time>2022-08-06T09:44:28Z</time>
      </trkpt>
      <trkpt lat="44.69282" lon="2.90749">
        <ele>1232</ele>
        <time>2022-08-06T09:44:32Z</time>
      </trkpt>
      <trkpt lat="44.69277" lon="2.90738">
        <ele>1232.2</ele>
        <time>2022-08-06T09:44:40Z</time>
      </trkpt>
      <trkpt lat="44.69274" lon="2.9073">
        <ele>1232.3</ele>
        <time>2022-08-06T09:44:46Z</time>
      </trkpt>
      <trkpt lat="44.69273" lon="2.90725">
        <ele>1232.2</ele>
        <time>2022-08-06T09:44:49Z</time>
      </trkpt>
      <trkpt lat="44.69269" lon="2.90712">
        <ele>1232.9</ele>
        <time>2022-08-06T09:44:58Z</time>
      </trkpt>
      <trkpt lat="44.69268" lon="2.9071">
        <ele>1233.1</ele>
        <time>2022-08-06T09:45:00Z</time>
      </trkpt>
      <trkpt lat="44.69266" lon="2.90703">
        <ele>1233.5</ele>
        <time>2022-08-06T09:45:05Z</time>
      </trkpt>
      <trkpt lat="44.69265" lon="2.90699">
        <ele>1233.8</ele>
        <time>2022-08-06T09:45:08Z</time>
      </trkpt>
      <trkpt lat="44.69263" lon="2.90694">
        <ele>1234.1</ele>
        <time>2022-08-06T09:45:11Z</time>
      </trkpt>
      <trkpt lat="44.69259" lon="2.90688">
        <ele>1234.6</ele>
        <time>2022-08-06T09:45:16Z</time>
      </trkpt>
      <trkpt lat="44.69258" lon="2.90685">
        <ele>1234.6</ele>
        <time>2022-08-06T09:45:19Z</time>
      </trkpt>
      <trkpt lat="44.69251" lon="2.90678">
        <ele>1235.7</ele>
        <time>2022-08-06T09:45:27Z</time>
      </trkpt>
      <trkpt lat="44.69241" lon="2.90671">
        <ele>1235.9</ele>
        <time>2022-08-06T09:45:37Z</time>
      </trkpt>
      <trkpt lat="44.69238" lon="2.90669">
        <ele>1236</ele>
        <time>2022-08-06T09:45:40Z</time>
      </trkpt>
      <trkpt lat="44.69231" lon="2.90667">
        <ele>1236.4</ele>
        <time>2022-08-06T09:45:46Z</time>
      </trkpt>
      <trkpt lat="44.69224" lon="2.90669">
        <ele>1237</ele>
        <time>2022-08-06T09:45:53Z</time>
      </trkpt>
      <trkpt lat="44.69221" lon="2.9067">
        <ele>1237.1</ele>
        <time>2022-08-06T09:45:55Z</time>
      </trkpt>
      <trkpt lat="44.69211" lon="2.90675">
        <ele>1237.4</ele>
        <time>2022-08-06T09:46:05Z</time>
      </trkpt>
      <trkpt lat="44.69201" lon="2.90678">
        <ele>1237.7</ele>
        <time>2022-08-06T09:46:14Z</time>
      </trkpt>
      <trkpt lat="44.69201" lon="2.90679">
        <ele>1237.8</ele>
        <time>2022-08-06T09:46:15Z</time>
      </trkpt>
      <trkpt lat="44.69197" lon="2.9068">
        <ele>1237.9</ele>
        <time>2022-08-06T09:46:18Z</time>
      </trkpt>
      <trkpt lat="44.69194" lon="2.90681">
        <ele>1238</ele>
        <time>2022-08-06T09:46:20Z</time>
      </trkpt>
      <trkpt lat="44.69192" lon="2.90681">
        <ele>1238</ele>
        <time>2022-08-06T09:46:24Z</time>
      </trkpt>
      <trkpt lat="44.69191" lon="2.90682">
        <ele>1238</ele>
        <time>2022-08-06T09:46:26Z</time>
      </trkpt>
      <trkpt lat="44.69185" lon="2.90686">
        <ele>1238.2</ele>
        <time>2022-08-06T09:46:32Z</time>
      </trkpt>
      <trkpt lat="44.69179" lon="2.90694">
        <ele>1238.9</ele>
        <time>2022-08-06T09:46:40Z</time>
      </trkpt>
      <trkpt lat="44.69168" lon="2.90707">
        <ele>1239.9</ele>
        <time>2022-08-06T09:46:52Z</time>
      </trkpt>
      <trkpt lat="44.69164" lon="2.90709">
        <ele>1239.9</ele>
        <time>2022-08-06T09:46:56Z</time>
      </trkpt>
      <trkpt lat="44.69162" lon="2.90713">
        <ele>1240</ele>
        <time>2022-08-06T09:46:59Z</time>
      </trkpt>
      <trkpt lat="44.69157" lon="2.90719">
        <ele>1240.3</ele>
        <time>2022-08-06T09:47:05Z</time>
      </trkpt>
      <trkpt lat="44.69156" lon="2.9072">
        <ele>1240.4</ele>
        <time>2022-08-06T09:47:06Z</time>
      </trkpt>
      <trkpt lat="44.69155" lon="2.90721">
        <ele>1240.5</ele>
        <time>2022-08-06T09:47:10Z</time>
      </trkpt>
      <trkpt lat="44.69155" lon="2.90721">
        <ele>1240.5</ele>
        <time>2022-08-06T09:47:11Z</time>
      </trkpt>
      <trkpt lat="44.69151" lon="2.90726">
        <ele>1240.9</ele>
        <time>2022-08-06T09:47:16Z</time>
      </trkpt>
      <trkpt lat="44.69142" lon="2.90737">
        <ele>1241.7</ele>
        <time>2022-08-06T09:47:26Z</time>
      </trkpt>
      <trkpt lat="44.69141" lon="2.90739">
        <ele>1241.9</ele>
        <time>2022-08-06T09:47:29Z</time>
      </trkpt>
      <trkpt lat="44.69139" lon="2.90744">
        <ele>1242.3</ele>
        <time>2022-08-06T09:47:32Z</time>
      </trkpt>
      <trkpt lat="44.69135" lon="2.90747">
        <ele>1242.4</ele>
        <time>2022-08-06T09:47:36Z</time>
      </trkpt>
      <trkpt lat="44.69132" lon="2.90751">
        <ele>1242.6</ele>
        <time>2022-08-06T09:47:40Z</time>
      </trkpt>
      <trkpt lat="44.69128" lon="2.90762">
        <ele>1243.4</ele>
        <time>2022-08-06T09:47:47Z</time>
      </trkpt>
      <trkpt lat="44.69127" lon="2.90765">
        <ele>1243.7</ele>
        <time>2022-08-06T09:47:49Z</time>
      </trkpt>
      <trkpt lat="44.69122" lon="2.90778">
        <ele>1244.8</ele>
        <time>2022-08-06T09:47:59Z</time>
      </trkpt>
      <trkpt lat="44.69122" lon="2.90779">
        <ele>1244.9</ele>
        <time>2022-08-06T09:48:00Z</time>
      </trkpt>
      <trkpt lat="44.6912" lon="2.90784">
        <ele>1245.1</ele>
        <time>2022-08-06T09:48:03Z</time>
      </trkpt>
      <trkpt lat="44.69118" lon="2.90788">
        <ele>1245.3</ele>
        <time>2022-08-06T09:48:06Z</time>
      </trkpt>
      <trkpt lat="44.69117" lon="2.90793">
        <ele>1245.7</ele>
        <time>2022-08-06T09:48:10Z</time>
      </trkpt>
      <trkpt lat="44.69118" lon="2.90793">
        <ele>1245.7</ele>
        <time>2022-08-06T09:48:12Z</time>
      </trkpt>
      <trkpt lat="44.69117" lon="2.90797">
        <ele>1245.9</ele>
        <time>2022-08-06T09:48:16Z</time>
      </trkpt>
      <trkpt lat="44.69117" lon="2.908">
        <ele>1246.2</ele>
        <time>2022-08-06T09:48:18Z</time>
      </trkpt>
      <trkpt lat="44.69116" lon="2.90807">
        <ele>1246.6</ele>
        <time>2022-08-06T09:48:22Z</time>
      </trkpt>
      <trkpt lat="44.69115" lon="2.90813">
        <ele>1246.7</ele>
        <time>2022-08-06T09:48:26Z</time>
      </trkpt>
      <trkpt lat="44.69113" lon="2.90826">
        <ele>1247</ele>
        <time>2022-08-06T09:48:34Z</time>
      </trkpt>
      <trkpt lat="44.6911" lon="2.90832">
        <ele>1246.9</ele>
        <time>2022-08-06T09:48:38Z</time>
      </trkpt>
      <trkpt lat="44.69107" lon="2.90837">
        <ele>1247.2</ele>
        <time>2022-08-06T09:48:42Z</time>
      </trkpt>
      <trkpt lat="44.69107" lon="2.90838">
        <ele>1247.3</ele>
        <time>2022-08-06T09:48:43Z</time>
      </trkpt>
      <trkpt lat="44.69104" lon="2.90848">
        <ele>1247.9</ele>
        <time>2022-08-06T09:48:50Z</time>
      </trkpt>
      <trkpt lat="44.69103" lon="2.90852">
        <ele>1248.1</ele>
        <time>2022-08-06T09:48:53Z</time>
      </trkpt>
      <trkpt lat="44.691" lon="2.90856">
        <ele>1248.3</ele>
        <time>2022-08-06T09:48:56Z</time>
      </trkpt>
      <trkpt lat="44.69094" lon="2.90863">
        <ele>1248.5</ele>
        <time>2022-08-06T09:49:03Z</time>
      </trkpt>
      <trkpt lat="44.69092" lon="2.90866">
        <ele>1248.6</ele>
        <time>2022-08-06T09:49:05Z</time>
      </trkpt>
      <trkpt lat="44.69087" lon="2.90871">
        <ele>1248.8</ele>
        <time>2022-08-06T09:49:10Z</time>
      </trkpt>
      <trkpt lat="44.69084" lon="2.90874">
        <ele>1248.9</ele>
        <time>2022-08-06T09:49:13Z</time>
      </trkpt>
      <trkpt lat="44.69075" lon="2.90879">
        <ele>1249.3</ele>
        <time>2022-08-06T09:49:21Z</time>
      </trkpt>
      <trkpt lat="44.6907" lon="2.90883">
        <ele>1249.6</ele>
        <time>2022-08-06T09:49:26Z</time>
      </trkpt>
      <trkpt lat="44.69068" lon="2.90886">
        <ele>1249.8</ele>
        <time>2022-08-06T09:49:29Z</time>
      </trkpt>
      <trkpt lat="44.69065" lon="2.90888">
        <ele>1249.9</ele>
        <time>2022-08-06T09:49:32Z</time>
      </trkpt>
      <trkpt lat="44.69061" lon="2.90892">
        <ele>1250.2</ele>
        <time>2022-08-06T09:49:36Z</time>
      </trkpt>
      <trkpt lat="44.69057" lon="2.90895">
        <ele>1250.5</ele>
        <time>2022-08-06T09:49:40Z</time>
      </trkpt>
      <trkpt lat="44.69055" lon="2.90897">
        <ele>1250.6</ele>
        <time>2022-08-06T09:49:42Z</time>
      </trkpt>
      <trkpt lat="44.69046" lon="2.9091">
        <ele>1251.1</ele>
        <time>2022-08-06T09:49:53Z</time>
      </trkpt>
      <trkpt lat="44.69045" lon="2.90911">
        <ele>1251.2</ele>
        <time>2022-08-06T09:49:54Z</time>
      </trkpt>
      <trkpt lat="44.69042" lon="2.90919">
        <ele>1251.7</ele>
        <time>2022-08-06T09:50:00Z</time>
      </trkpt>
      <trkpt lat="44.6904" lon="2.90922">
        <ele>1251.9</ele>
        <time>2022-08-06T09:50:02Z</time>
      </trkpt>
      <trkpt lat="44.69036" lon="2.90925">
        <ele>1252</ele>
        <time>2022-08-06T09:50:06Z</time>
      </trkpt>
      <trkpt lat="44.69035" lon="2.90927">
        <ele>1252.1</ele>
        <time>2022-08-06T09:50:08Z</time>
      </trkpt>
      <trkpt lat="44.69031" lon="2.90933">
        <ele>1252.4</ele>
        <time>2022-08-06T09:50:13Z</time>
      </trkpt>
      <trkpt lat="44.69029" lon="2.90936">
        <ele>1252.5</ele>
        <time>2022-08-06T09:50:15Z</time>
      </trkpt>
      <trkpt lat="44.69023" lon="2.90944">
        <ele>1252.5</ele>
        <time>2022-08-06T09:50:22Z</time>
      </trkpt>
      <trkpt lat="44.69019" lon="2.90951">
        <ele>1252.8</ele>
        <time>2022-08-06T09:50:27Z</time>
      </trkpt>
      <trkpt lat="44.69018" lon="2.90954">
        <ele>1252.9</ele>
        <time>2022-08-06T09:50:29Z</time>
      </trkpt>
      <trkpt lat="44.69014" lon="2.9096">
        <ele>1253.2</ele>
        <time>2022-08-06T09:50:34Z</time>
      </trkpt>
      <trkpt lat="44.69013" lon="2.90962">
        <ele>1253.3</ele>
        <time>2022-08-06T09:50:36Z</time>
      </trkpt>
      <trkpt lat="44.69012" lon="2.90969">
        <ele>1253.9</ele>
        <time>2022-08-06T09:50:40Z</time>
      </trkpt>
      <trkpt lat="44.69011" lon="2.90974">
        <ele>1254.2</ele>
        <time>2022-08-06T09:50:43Z</time>
      </trkpt>
      <trkpt lat="44.69006" lon="2.90986">
        <ele>1254.3</ele>
        <time>2022-08-06T09:50:52Z</time>
      </trkpt>
      <trkpt lat="44.69001" lon="2.90997">
        <ele>1254.1</ele>
        <time>2022-08-06T09:51:00Z</time>
      </trkpt>
      <trkpt lat="44.69" lon="2.91009">
        <ele>1254.9</ele>
        <time>2022-08-06T09:51:07Z</time>
      </trkpt>
      <trkpt lat="44.68997" lon="2.91019">
        <ele>1255.5</ele>
        <time>2022-08-06T09:51:14Z</time>
      </trkpt>
      <trkpt lat="44.68993" lon="2.91032">
        <ele>1255.9</ele>
        <time>2022-08-06T09:51:22Z</time>
      </trkpt>
      <trkpt lat="44.68988" lon="2.91046">
        <ele>1256.1</ele>
        <time>2022-08-06T09:51:31Z</time>
      </trkpt>
      <trkpt lat="44.68988" lon="2.91047">
        <ele>1256.1</ele>
        <time>2022-08-06T09:51:32Z</time>
      </trkpt>
      <trkpt lat="44.68984" lon="2.91062">
        <ele>1256.5</ele>
        <time>2022-08-06T09:51:41Z</time>
      </trkpt>
      <trkpt lat="44.68981" lon="2.91075">
        <ele>1256.7</ele>
        <time>2022-08-06T09:51:49Z</time>
      </trkpt>
      <trkpt lat="44.68978" lon="2.91087">
        <ele>1257</ele>
        <time>2022-08-06T09:51:57Z</time>
      </trkpt>
      <trkpt lat="44.68976" lon="2.91098">
        <ele>1257.1</ele>
        <time>2022-08-06T09:52:04Z</time>
      </trkpt>
      <trkpt lat="44.68976" lon="2.911">
        <ele>1257.2</ele>
        <time>2022-08-06T09:52:05Z</time>
      </trkpt>
      <trkpt lat="44.68975" lon="2.91113">
        <ele>1257.8</ele>
        <time>2022-08-06T09:52:13Z</time>
      </trkpt>
      <trkpt lat="44.68974" lon="2.91126">
        <ele>1258</ele>
        <time>2022-08-06T09:52:22Z</time>
      </trkpt>
      <trkpt lat="44.68974" lon="2.91126">
        <ele>1258</ele>
        <time>2022-08-06T09:52:23Z</time>
      </trkpt>
      <trkpt lat="44.68972" lon="2.91128">
        <ele>1257.4</ele>
        <time>2022-08-06T09:52:30Z</time>
      </trkpt>
      <trkpt lat="44.68972" lon="2.91137">
        <ele>1257.9</ele>
        <time>2022-08-06T09:52:37Z</time>
      </trkpt>
      <trkpt lat="44.68972" lon="2.91152">
        <ele>1258.4</ele>
        <time>2022-08-06T09:52:45Z</time>
      </trkpt>
      <trkpt lat="44.68972" lon="2.91163">
        <ele>1258.7</ele>
        <time>2022-08-06T09:52:52Z</time>
      </trkpt>
      <trkpt lat="44.68972" lon="2.91168">
        <ele>1259</ele>
        <time>2022-08-06T09:52:55Z</time>
      </trkpt>
      <trkpt lat="44.68973" lon="2.91174">
        <ele>1259.2</ele>
        <time>2022-08-06T09:52:58Z</time>
      </trkpt>
      <trkpt lat="44.68974" lon="2.91185">
        <ele>1259.3</ele>
        <time>2022-08-06T09:53:04Z</time>
      </trkpt>
      <trkpt lat="44.68974" lon="2.91196">
        <ele>1259.3</ele>
        <time>2022-08-06T09:53:11Z</time>
      </trkpt>
      <trkpt lat="44.68975" lon="2.912">
        <ele>1259.4</ele>
        <time>2022-08-06T09:53:14Z</time>
      </trkpt>
      <trkpt lat="44.68975" lon="2.91203">
        <ele>1259.3</ele>
        <time>2022-08-06T09:53:16Z</time>
      </trkpt>
      <trkpt lat="44.68974" lon="2.91204">
        <ele>1259</ele>
        <time>2022-08-06T09:53:19Z</time>
      </trkpt>
      <trkpt lat="44.68974" lon="2.91204">
        <ele>1259</ele>
        <time>2022-08-06T09:53:20Z</time>
      </trkpt>
      <trkpt lat="44.68976" lon="2.91213">
        <ele>1259.2</ele>
        <time>2022-08-06T09:53:27Z</time>
      </trkpt>
      <trkpt lat="44.68979" lon="2.91224">
        <ele>1259.3</ele>
        <time>2022-08-06T09:53:34Z</time>
      </trkpt>
      <trkpt lat="44.68981" lon="2.91238">
        <ele>1259.4</ele>
        <time>2022-08-06T09:53:42Z</time>
      </trkpt>
      <trkpt lat="44.68984" lon="2.91248">
        <ele>1259.7</ele>
        <time>2022-08-06T09:53:48Z</time>
      </trkpt>
      <trkpt lat="44.68987" lon="2.91255">
        <ele>1259.9</ele>
        <time>2022-08-06T09:53:52Z</time>
      </trkpt>
      <trkpt lat="44.6899" lon="2.91262">
        <ele>1260.2</ele>
        <time>2022-08-06T09:53:57Z</time>
      </trkpt>
      <trkpt lat="44.68992" lon="2.91265">
        <ele>1260.5</ele>
        <time>2022-08-06T09:54:00Z</time>
      </trkpt>
      <trkpt lat="44.68992" lon="2.91266">
        <ele>1260.5</ele>
        <time>2022-08-06T09:54:01Z</time>
      </trkpt>
      <trkpt lat="44.68995" lon="2.91275">
        <ele>1260.8</ele>
        <time>2022-08-06T09:54:08Z</time>
      </trkpt>
      <trkpt lat="44.68995" lon="2.91276">
        <ele>1260.9</ele>
        <time>2022-08-06T09:54:09Z</time>
      </trkpt>
      <trkpt lat="44.69" lon="2.91285">
        <ele>1261.5</ele>
        <time>2022-08-06T09:54:16Z</time>
      </trkpt>
      <trkpt lat="44.69004" lon="2.913">
        <ele>1261.2</ele>
        <time>2022-08-06T09:54:26Z</time>
      </trkpt>
      <trkpt lat="44.69005" lon="2.91304">
        <ele>1261.1</ele>
        <time>2022-08-06T09:54:29Z</time>
      </trkpt>
      <trkpt lat="44.69009" lon="2.91314">
        <ele>1261.6</ele>
        <time>2022-08-06T09:54:35Z</time>
      </trkpt>
      <trkpt lat="44.69013" lon="2.91327">
        <ele>1262</ele>
        <time>2022-08-06T09:54:43Z</time>
      </trkpt>
      <trkpt lat="44.69014" lon="2.91329">
        <ele>1262.1</ele>
        <time>2022-08-06T09:54:45Z</time>
      </trkpt>
      <trkpt lat="44.69019" lon="2.91342">
        <ele>1262.5</ele>
        <time>2022-08-06T09:54:53Z</time>
      </trkpt>
      <trkpt lat="44.69024" lon="2.91351">
        <ele>1262.9</ele>
        <time>2022-08-06T09:54:59Z</time>
      </trkpt>
      <trkpt lat="44.69025" lon="2.91353">
        <ele>1262.9</ele>
        <time>2022-08-06T09:55:00Z</time>
      </trkpt>
      <trkpt lat="44.69025" lon="2.91354">
        <ele>1262.8</ele>
        <time>2022-08-06T09:55:01Z</time>
      </trkpt>
      <trkpt lat="44.69026" lon="2.91357">
        <ele>1262.8</ele>
        <time>2022-08-06T09:55:03Z</time>
      </trkpt>
      <trkpt lat="44.69027" lon="2.91362">
        <ele>1262.8</ele>
        <time>2022-08-06T09:55:06Z</time>
      </trkpt>
      <trkpt lat="44.69028" lon="2.91363">
        <ele>1262.9</ele>
        <time>2022-08-06T09:55:07Z</time>
      </trkpt>
      <trkpt lat="44.6903" lon="2.9137">
        <ele>1263</ele>
        <time>2022-08-06T09:55:12Z</time>
      </trkpt>
      <trkpt lat="44.69032" lon="2.91387">
        <ele>1262.9</ele>
        <time>2022-08-06T09:55:22Z</time>
      </trkpt>
      <trkpt lat="44.69035" lon="2.914">
        <ele>1263.3</ele>
        <time>2022-08-06T09:55:30Z</time>
      </trkpt>
      <trkpt lat="44.69036" lon="2.91412">
        <ele>1263.5</ele>
        <time>2022-08-06T09:55:36Z</time>
      </trkpt>
      <trkpt lat="44.69036" lon="2.91413">
        <ele>1263.5</ele>
        <time>2022-08-06T09:55:37Z</time>
      </trkpt>
      <trkpt lat="44.69036" lon="2.91426">
        <ele>1263.5</ele>
        <time>2022-08-06T09:55:45Z</time>
      </trkpt>
      <trkpt lat="44.69036" lon="2.91428">
        <ele>1263.5</ele>
        <time>2022-08-06T09:55:46Z</time>
      </trkpt>
      <trkpt lat="44.69035" lon="2.91434">
        <ele>1263.3</ele>
        <time>2022-08-06T09:55:50Z</time>
      </trkpt>
      <trkpt lat="44.69036" lon="2.91448">
        <ele>1263.6</ele>
        <time>2022-08-06T09:55:58Z</time>
      </trkpt>
      <trkpt lat="44.69035" lon="2.91457">
        <ele>1263.4</ele>
        <time>2022-08-06T09:56:03Z</time>
      </trkpt>
      <trkpt lat="44.69035" lon="2.91459">
        <ele>1263.4</ele>
        <time>2022-08-06T09:56:04Z</time>
      </trkpt>
      <trkpt lat="44.69035" lon="2.91461">
        <ele>1263.5</ele>
        <time>2022-08-06T09:56:05Z</time>
      </trkpt>
      <trkpt lat="44.69036" lon="2.91473">
        <ele>1263.8</ele>
        <time>2022-08-06T09:56:12Z</time>
      </trkpt>
      <trkpt lat="44.69036" lon="2.91483">
        <ele>1263.8</ele>
        <time>2022-08-06T09:56:18Z</time>
      </trkpt>
      <trkpt lat="44.69036" lon="2.91488">
        <ele>1263.8</ele>
        <time>2022-08-06T09:56:21Z</time>
      </trkpt>
      <trkpt lat="44.69037" lon="2.91491">
        <ele>1263.9</ele>
        <time>2022-08-06T09:56:23Z</time>
      </trkpt>
      <trkpt lat="44.69037" lon="2.91498">
        <ele>1264.1</ele>
        <time>2022-08-06T09:56:27Z</time>
      </trkpt>
      <trkpt lat="44.69036" lon="2.91506">
        <ele>1263.8</ele>
        <time>2022-08-06T09:56:33Z</time>
      </trkpt>
      <trkpt lat="44.69036" lon="2.91508">
        <ele>1263.8</ele>
        <time>2022-08-06T09:56:34Z</time>
      </trkpt>
      <trkpt lat="44.69036" lon="2.91523">
        <ele>1263.7</ele>
        <time>2022-08-06T09:56:42Z</time>
      </trkpt>
      <trkpt lat="44.69035" lon="2.91525">
        <ele>1263.5</ele>
        <time>2022-08-06T09:56:44Z</time>
      </trkpt>
      <trkpt lat="44.69035" lon="2.91533">
        <ele>1263.7</ele>
        <time>2022-08-06T09:56:48Z</time>
      </trkpt>
      <trkpt lat="44.69034" lon="2.91547">
        <ele>1263.9</ele>
        <time>2022-08-06T09:56:56Z</time>
      </trkpt>
      <trkpt lat="44.69033" lon="2.91563">
        <ele>1264.1</ele>
        <time>2022-08-06T09:57:05Z</time>
      </trkpt>
      <trkpt lat="44.69033" lon="2.91565">
        <ele>1264.1</ele>
        <time>2022-08-06T09:57:06Z</time>
      </trkpt>
      <trkpt lat="44.69033" lon="2.9158">
        <ele>1264.1</ele>
        <time>2022-08-06T09:57:14Z</time>
      </trkpt>
      <trkpt lat="44.69033" lon="2.91594">
        <ele>1264.5</ele>
        <time>2022-08-06T09:57:22Z</time>
      </trkpt>
      <trkpt lat="44.69033" lon="2.91603">
        <ele>1264.8</ele>
        <time>2022-08-06T09:57:27Z</time>
      </trkpt>
      <trkpt lat="44.69033" lon="2.91609">
        <ele>1265.1</ele>
        <time>2022-08-06T09:57:30Z</time>
      </trkpt>
      <trkpt lat="44.69034" lon="2.91612">
        <ele>1265.3</ele>
        <time>2022-08-06T09:57:32Z</time>
      </trkpt>
      <trkpt lat="44.69035" lon="2.91618">
        <ele>1265.7</ele>
        <time>2022-08-06T09:57:35Z</time>
      </trkpt>
      <trkpt lat="44.69035" lon="2.91619">
        <ele>1265.7</ele>
        <time>2022-08-06T09:57:36Z</time>
      </trkpt>
      <trkpt lat="44.69034" lon="2.91633">
        <ele>1266</ele>
        <time>2022-08-06T09:57:44Z</time>
      </trkpt>
      <trkpt lat="44.69034" lon="2.91638">
        <ele>1266.1</ele>
        <time>2022-08-06T09:57:47Z</time>
      </trkpt>
      <trkpt lat="44.69035" lon="2.91646">
        <ele>1266.4</ele>
        <time>2022-08-06T09:57:52Z</time>
      </trkpt>
      <trkpt lat="44.69036" lon="2.91661">
        <ele>1266.7</ele>
        <time>2022-08-06T09:58:01Z</time>
      </trkpt>
      <trkpt lat="44.69036" lon="2.91676">
        <ele>1267</ele>
        <time>2022-08-06T09:58:09Z</time>
      </trkpt>
      <trkpt lat="44.69036" lon="2.91679">
        <ele>1267</ele>
        <time>2022-08-06T09:58:11Z</time>
      </trkpt>
      <trkpt lat="44.69036" lon="2.91681">
        <ele>1267</ele>
        <time>2022-08-06T09:58:12Z</time>
      </trkpt>
      <trkpt lat="44.69037" lon="2.91687">
        <ele>1267.4</ele>
        <time>2022-08-06T09:58:16Z</time>
      </trkpt>
      <trkpt lat="44.69037" lon="2.91696">
        <ele>1267.6</ele>
        <time>2022-08-06T09:58:21Z</time>
      </trkpt>
      <trkpt lat="44.69037" lon="2.91698">
        <ele>1267.7</ele>
        <time>2022-08-06T09:58:23Z</time>
      </trkpt>
      <trkpt lat="44.69039" lon="2.91712">
        <ele>1268.6</ele>
        <time>2022-08-06T09:58:30Z</time>
      </trkpt>
      <trkpt lat="44.69038" lon="2.91714">
        <ele>1268.6</ele>
        <time>2022-08-06T09:58:31Z</time>
      </trkpt>
      <trkpt lat="44.69038" lon="2.91721">
        <ele>1268.8</ele>
        <time>2022-08-06T09:58:36Z</time>
      </trkpt>
      <trkpt lat="44.69038" lon="2.91723">
        <ele>1268.9</ele>
        <time>2022-08-06T09:58:37Z</time>
      </trkpt>
      <trkpt lat="44.69038" lon="2.91734">
        <ele>1269.1</ele>
        <time>2022-08-06T09:58:43Z</time>
      </trkpt>
      <trkpt lat="44.69038" lon="2.91736">
        <ele>1269.1</ele>
        <time>2022-08-06T09:58:44Z</time>
      </trkpt>
      <trkpt lat="44.69038" lon="2.91747">
        <ele>1269.5</ele>
        <time>2022-08-06T09:58:50Z</time>
      </trkpt>
      <trkpt lat="44.69039" lon="2.9175">
        <ele>1269.8</ele>
        <time>2022-08-06T09:58:52Z</time>
      </trkpt>
      <trkpt lat="44.69039" lon="2.91762">
        <ele>1270.2</ele>
        <time>2022-08-06T09:58:59Z</time>
      </trkpt>
      <trkpt lat="44.6904" lon="2.91764">
        <ele>1270.2</ele>
        <time>2022-08-06T09:59:00Z</time>
      </trkpt>
      <trkpt lat="44.6904" lon="2.91768">
        <ele>1270.3</ele>
        <time>2022-08-06T09:59:02Z</time>
      </trkpt>
      <trkpt lat="44.6904" lon="2.91771">
        <ele>1270.5</ele>
        <time>2022-08-06T09:59:04Z</time>
      </trkpt>
      <trkpt lat="44.69041" lon="2.91772">
        <ele>1270.6</ele>
        <time>2022-08-06T09:59:05Z</time>
      </trkpt>
      <trkpt lat="44.6904" lon="2.91772">
        <ele>1270.6</ele>
        <time>2022-08-06T09:59:07Z</time>
      </trkpt>
      <trkpt lat="44.69037" lon="2.91769">
        <ele>1269.8</ele>
        <time>2022-08-06T09:59:10Z</time>
      </trkpt>
      <trkpt lat="44.69036" lon="2.9177">
        <ele>1269.6</ele>
        <time>2022-08-06T09:59:19Z</time>
      </trkpt>
      <trkpt lat="44.69037" lon="2.9178">
        <ele>1270</ele>
        <time>2022-08-06T09:59:33Z</time>
      </trkpt>
      <trkpt lat="44.6904" lon="2.91796">
        <ele>1270.5</ele>
        <time>2022-08-06T09:59:41Z</time>
      </trkpt>
      <trkpt lat="44.6904" lon="2.91798">
        <ele>1270.6</ele>
        <time>2022-08-06T09:59:43Z</time>
      </trkpt>
      <trkpt lat="44.6904" lon="2.91807">
        <ele>1270.6</ele>
        <time>2022-08-06T09:59:48Z</time>
      </trkpt>
      <trkpt lat="44.69039" lon="2.9181">
        <ele>1270.6</ele>
        <time>2022-08-06T09:59:50Z</time>
      </trkpt>
      <trkpt lat="44.6904" lon="2.91816">
        <ele>1270.8</ele>
        <time>2022-08-06T09:59:54Z</time>
      </trkpt>
      <trkpt lat="44.69039" lon="2.91828">
        <ele>1270.8</ele>
        <time>2022-08-06T10:00:02Z</time>
      </trkpt>
      <trkpt lat="44.69038" lon="2.91832">
        <ele>1270.9</ele>
        <time>2022-08-06T10:00:03Z</time>
      </trkpt>
      <trkpt lat="44.69038" lon="2.9184">
        <ele>1271.1</ele>
        <time>2022-08-06T10:00:08Z</time>
      </trkpt>
      <trkpt lat="44.69038" lon="2.91841">
        <ele>1271.2</ele>
        <time>2022-08-06T10:00:09Z</time>
      </trkpt>
      <trkpt lat="44.69038" lon="2.91849">
        <ele>1271.7</ele>
        <time>2022-08-06T10:00:14Z</time>
      </trkpt>
      <trkpt lat="44.69039" lon="2.91865">
        <ele>1272.6</ele>
        <time>2022-08-06T10:00:23Z</time>
      </trkpt>
      <trkpt lat="44.69039" lon="2.91868">
        <ele>1272.7</ele>
        <time>2022-08-06T10:00:25Z</time>
      </trkpt>
      <trkpt lat="44.6904" lon="2.91873">
        <ele>1273</ele>
        <time>2022-08-06T10:00:28Z</time>
      </trkpt>
      <trkpt lat="44.69039" lon="2.91875">
        <ele>1273</ele>
        <time>2022-08-06T10:00:29Z</time>
      </trkpt>
      <trkpt lat="44.69039" lon="2.91875">
        <ele>1272.8</ele>
        <time>2022-08-06T10:00:31Z</time>
      </trkpt>
      <trkpt lat="44.69039" lon="2.9188">
        <ele>1273</ele>
        <time>2022-08-06T10:00:34Z</time>
      </trkpt>
      <trkpt lat="44.69038" lon="2.91881">
        <ele>1273</ele>
        <time>2022-08-06T10:00:35Z</time>
      </trkpt>
      <trkpt lat="44.69038" lon="2.91889">
        <ele>1273.1</ele>
        <time>2022-08-06T10:00:40Z</time>
      </trkpt>
      <trkpt lat="44.69038" lon="2.919">
        <ele>1273.3</ele>
        <time>2022-08-06T10:00:47Z</time>
      </trkpt>
      <trkpt lat="44.69038" lon="2.91904">
        <ele>1273.3</ele>
        <time>2022-08-06T10:00:49Z</time>
      </trkpt>
      <trkpt lat="44.69039" lon="2.91912">
        <ele>1273.4</ele>
        <time>2022-08-06T10:00:54Z</time>
      </trkpt>
      <trkpt lat="44.69039" lon="2.91915">
        <ele>1273.5</ele>
        <time>2022-08-06T10:00:56Z</time>
      </trkpt>
      <trkpt lat="44.6904" lon="2.91918">
        <ele>1273.6</ele>
        <time>2022-08-06T10:00:58Z</time>
      </trkpt>
      <trkpt lat="44.69041" lon="2.9192">
        <ele>1273.7</ele>
        <time>2022-08-06T10:00:59Z</time>
      </trkpt>
      <trkpt lat="44.69041" lon="2.91927">
        <ele>1273.8</ele>
        <time>2022-08-06T10:01:03Z</time>
      </trkpt>
      <trkpt lat="44.69042" lon="2.9193">
        <ele>1274</ele>
        <time>2022-08-06T10:01:05Z</time>
      </trkpt>
      <trkpt lat="44.69042" lon="2.91936">
        <ele>1274.1</ele>
        <time>2022-08-06T10:01:09Z</time>
      </trkpt>
      <trkpt lat="44.69042" lon="2.91944">
        <ele>1274.1</ele>
        <time>2022-08-06T10:01:14Z</time>
      </trkpt>
      <trkpt lat="44.69043" lon="2.91949">
        <ele>1274.4</ele>
        <time>2022-08-06T10:01:17Z</time>
      </trkpt>
      <trkpt lat="44.69043" lon="2.91959">
        <ele>1274.8</ele>
        <time>2022-08-06T10:01:23Z</time>
      </trkpt>
      <trkpt lat="44.69043" lon="2.91965">
        <ele>1275</ele>
        <time>2022-08-06T10:01:27Z</time>
      </trkpt>
      <trkpt lat="44.69044" lon="2.91969">
        <ele>1275.4</ele>
        <time>2022-08-06T10:01:30Z</time>
      </trkpt>
      <trkpt lat="44.69045" lon="2.91974">
        <ele>1275.7</ele>
        <time>2022-08-06T10:01:33Z</time>
      </trkpt>
      <trkpt lat="44.69045" lon="2.91979">
        <ele>1275.9</ele>
        <time>2022-08-06T10:01:36Z</time>
      </trkpt>
      <trkpt lat="44.69047" lon="2.91992">
        <ele>1276.3</ele>
        <time>2022-08-06T10:01:45Z</time>
      </trkpt>
      <trkpt lat="44.69049" lon="2.92">
        <ele>1276.7</ele>
        <time>2022-08-06T10:01:50Z</time>
      </trkpt>
      <trkpt lat="44.69049" lon="2.92002">
        <ele>1276.8</ele>
        <time>2022-08-06T10:01:51Z</time>
      </trkpt>
      <trkpt lat="44.69049" lon="2.92006">
        <ele>1276.7</ele>
        <time>2022-08-06T10:01:53Z</time>
      </trkpt>
      <trkpt lat="44.69049" lon="2.92008">
        <ele>1276.6</ele>
        <time>2022-08-06T10:01:54Z</time>
      </trkpt>
      <trkpt lat="44.69049" lon="2.92011">
        <ele>1276.5</ele>
        <time>2022-08-06T10:01:56Z</time>
      </trkpt>
      <trkpt lat="44.69049" lon="2.92013">
        <ele>1276.4</ele>
        <time>2022-08-06T10:01:58Z</time>
      </trkpt>
      <trkpt lat="44.6905" lon="2.92022">
        <ele>1276.4</ele>
        <time>2022-08-06T10:02:04Z</time>
      </trkpt>
      <trkpt lat="44.69051" lon="2.92024">
        <ele>1276.5</ele>
        <time>2022-08-06T10:02:06Z</time>
      </trkpt>
      <trkpt lat="44.69052" lon="2.92029">
        <ele>1276.5</ele>
        <time>2022-08-06T10:02:09Z</time>
      </trkpt>
      <trkpt lat="44.69053" lon="2.92036">
        <ele>1276.7</ele>
        <time>2022-08-06T10:02:13Z</time>
      </trkpt>
      <trkpt lat="44.69056" lon="2.92042">
        <ele>1277</ele>
        <time>2022-08-06T10:02:18Z</time>
      </trkpt>
      <trkpt lat="44.69056" lon="2.92044">
        <ele>1277</ele>
        <time>2022-08-06T10:02:19Z</time>
      </trkpt>
      <trkpt lat="44.69056" lon="2.92045">
        <ele>1277.1</ele>
        <time>2022-08-06T10:02:20Z</time>
      </trkpt>
      <trkpt lat="44.69057" lon="2.92058">
        <ele>1277.3</ele>
        <time>2022-08-06T10:02:29Z</time>
      </trkpt>
      <trkpt lat="44.69058" lon="2.92065">
        <ele>1277.6</ele>
        <time>2022-08-06T10:02:34Z</time>
      </trkpt>
      <trkpt lat="44.69059" lon="2.92071">
        <ele>1278</ele>
        <time>2022-08-06T10:02:37Z</time>
      </trkpt>
      <trkpt lat="44.69059" lon="2.92074">
        <ele>1278</ele>
        <time>2022-08-06T10:02:39Z</time>
      </trkpt>
      <trkpt lat="44.69059" lon="2.92083">
        <ele>1278.3</ele>
        <time>2022-08-06T10:02:45Z</time>
      </trkpt>
      <trkpt lat="44.69059" lon="2.92085">
        <ele>1278.4</ele>
        <time>2022-08-06T10:02:46Z</time>
      </trkpt>
      <trkpt lat="44.6906" lon="2.92093">
        <ele>1278.8</ele>
        <time>2022-08-06T10:02:52Z</time>
      </trkpt>
      <trkpt lat="44.69059" lon="2.92098">
        <ele>1278.9</ele>
        <time>2022-08-06T10:02:55Z</time>
      </trkpt>
      <trkpt lat="44.69059" lon="2.92105">
        <ele>1279.1</ele>
        <time>2022-08-06T10:02:59Z</time>
      </trkpt>
      <trkpt lat="44.69061" lon="2.9211">
        <ele>1279.3</ele>
        <time>2022-08-06T10:03:02Z</time>
      </trkpt>
      <trkpt lat="44.69063" lon="2.92122">
        <ele>1279.9</ele>
        <time>2022-08-06T10:03:10Z</time>
      </trkpt>
      <trkpt lat="44.69062" lon="2.92132">
        <ele>1280.2</ele>
        <time>2022-08-06T10:03:16Z</time>
      </trkpt>
      <trkpt lat="44.69062" lon="2.92133">
        <ele>1280.3</ele>
        <time>2022-08-06T10:03:17Z</time>
      </trkpt>
      <trkpt lat="44.69063" lon="2.92143">
        <ele>1280.7</ele>
        <time>2022-08-06T10:03:24Z</time>
      </trkpt>
      <trkpt lat="44.69064" lon="2.92145">
        <ele>1280.9</ele>
        <time>2022-08-06T10:03:26Z</time>
      </trkpt>
      <trkpt lat="44.69064" lon="2.92153">
        <ele>1281.3</ele>
        <time>2022-08-06T10:03:31Z</time>
      </trkpt>
      <trkpt lat="44.69064" lon="2.92157">
        <ele>1281.4</ele>
        <time>2022-08-06T10:03:34Z</time>
      </trkpt>
      <trkpt lat="44.69065" lon="2.92167">
        <ele>1282</ele>
        <time>2022-08-06T10:03:41Z</time>
      </trkpt>
      <trkpt lat="44.69066" lon="2.92169">
        <ele>1282.1</ele>
        <time>2022-08-06T10:03:42Z</time>
      </trkpt>
      <trkpt lat="44.69067" lon="2.92175">
        <ele>1282.5</ele>
        <time>2022-08-06T10:03:46Z</time>
      </trkpt>
      <trkpt lat="44.69067" lon="2.92177">
        <ele>1282.6</ele>
        <time>2022-08-06T10:03:47Z</time>
      </trkpt>
      <trkpt lat="44.69069" lon="2.92185">
        <ele>1283</ele>
        <time>2022-08-06T10:03:52Z</time>
      </trkpt>
      <trkpt lat="44.69071" lon="2.92189">
        <ele>1283.4</ele>
        <time>2022-08-06T10:03:55Z</time>
      </trkpt>
      <trkpt lat="44.69073" lon="2.92194">
        <ele>1283.8</ele>
        <time>2022-08-06T10:03:58Z</time>
      </trkpt>
      <trkpt lat="44.69073" lon="2.92197">
        <ele>1283.9</ele>
        <time>2022-08-06T10:04:00Z</time>
      </trkpt>
      <trkpt lat="44.69074" lon="2.92202">
        <ele>1284</ele>
        <time>2022-08-06T10:04:04Z</time>
      </trkpt>
      <trkpt lat="44.69074" lon="2.92202">
        <ele>1284.1</ele>
        <time>2022-08-06T10:04:06Z</time>
      </trkpt>
      <trkpt lat="44.69075" lon="2.92204">
        <ele>1284.2</ele>
        <time>2022-08-06T10:04:09Z</time>
      </trkpt>
      <trkpt lat="44.69076" lon="2.92206">
        <ele>1284.3</ele>
        <time>2022-08-06T10:04:10Z</time>
      </trkpt>
      <trkpt lat="44.69075" lon="2.92208">
        <ele>1284.3</ele>
        <time>2022-08-06T10:04:11Z</time>
      </trkpt>
      <trkpt lat="44.69076" lon="2.92213">
        <ele>1284.4</ele>
        <time>2022-08-06T10:04:14Z</time>
      </trkpt>
      <trkpt lat="44.69077" lon="2.92218">
        <ele>1284.5</ele>
        <time>2022-08-06T10:04:17Z</time>
      </trkpt>
      <trkpt lat="44.69081" lon="2.9223">
        <ele>1284.9</ele>
        <time>2022-08-06T10:04:25Z</time>
      </trkpt>
      <trkpt lat="44.69084" lon="2.92236">
        <ele>1285</ele>
        <time>2022-08-06T10:04:30Z</time>
      </trkpt>
      <trkpt lat="44.69084" lon="2.92241">
        <ele>1285.1</ele>
        <time>2022-08-06T10:04:33Z</time>
      </trkpt>
      <trkpt lat="44.69085" lon="2.92242">
        <ele>1285.1</ele>
        <time>2022-08-06T10:04:34Z</time>
      </trkpt>
      <trkpt lat="44.69091" lon="2.92256">
        <ele>1286.1</ele>
        <time>2022-08-06T10:04:43Z</time>
      </trkpt>
      <trkpt lat="44.69093" lon="2.9226">
        <ele>1286.5</ele>
        <time>2022-08-06T10:04:47Z</time>
      </trkpt>
      <trkpt lat="44.69096" lon="2.92266">
        <ele>1286.9</ele>
        <time>2022-08-06T10:04:51Z</time>
      </trkpt>
      <trkpt lat="44.69099" lon="2.92279">
        <ele>1287.7</ele>
        <time>2022-08-06T10:05:00Z</time>
      </trkpt>
      <trkpt lat="44.69099" lon="2.9228">
        <ele>1287.7</ele>
        <time>2022-08-06T10:05:01Z</time>
      </trkpt>
      <trkpt lat="44.691" lon="2.92291">
        <ele>1288</ele>
        <time>2022-08-06T10:05:08Z</time>
      </trkpt>
      <trkpt lat="44.69103" lon="2.92305">
        <ele>1288.4</ele>
        <time>2022-08-06T10:05:17Z</time>
      </trkpt>
      <trkpt lat="44.69103" lon="2.92318">
        <ele>1288.8</ele>
        <time>2022-08-06T10:05:25Z</time>
      </trkpt>
      <trkpt lat="44.69102" lon="2.9232">
        <ele>1288.9</ele>
        <time>2022-08-06T10:05:26Z</time>
      </trkpt>
      <trkpt lat="44.69101" lon="2.92321">
        <ele>1288.9</ele>
        <time>2022-08-06T10:05:27Z</time>
      </trkpt>
      <trkpt lat="44.691" lon="2.92329">
        <ele>1289</ele>
        <time>2022-08-06T10:05:31Z</time>
      </trkpt>
      <trkpt lat="44.69098" lon="2.92343">
        <ele>1289.6</ele>
        <time>2022-08-06T10:05:39Z</time>
      </trkpt>
      <trkpt lat="44.69094" lon="2.92352">
        <ele>1289.7</ele>
        <time>2022-08-06T10:05:46Z</time>
      </trkpt>
      <trkpt lat="44.69093" lon="2.92354">
        <ele>1289.7</ele>
        <time>2022-08-06T10:05:47Z</time>
      </trkpt>
      <trkpt lat="44.6909" lon="2.9236">
        <ele>1289.7</ele>
        <time>2022-08-06T10:05:52Z</time>
      </trkpt>
      <trkpt lat="44.69087" lon="2.92365">
        <ele>1289.7</ele>
        <time>2022-08-06T10:05:56Z</time>
      </trkpt>
      <trkpt lat="44.69086" lon="2.92369">
        <ele>1289.9</ele>
        <time>2022-08-06T10:05:58Z</time>
      </trkpt>
      <trkpt lat="44.69086" lon="2.92371">
        <ele>1289.9</ele>
        <time>2022-08-06T10:05:59Z</time>
      </trkpt>
      <trkpt lat="44.69085" lon="2.92381">
        <ele>1290.6</ele>
        <time>2022-08-06T10:06:05Z</time>
      </trkpt>
      <trkpt lat="44.69085" lon="2.92382">
        <ele>1290.7</ele>
        <time>2022-08-06T10:06:06Z</time>
      </trkpt>
      <trkpt lat="44.69081" lon="2.92394">
        <ele>1291.2</ele>
        <time>2022-08-06T10:06:13Z</time>
      </trkpt>
      <trkpt lat="44.69076" lon="2.92404">
        <ele>1291.7</ele>
        <time>2022-08-06T10:06:20Z</time>
      </trkpt>
      <trkpt lat="44.69076" lon="2.92405">
        <ele>1291.7</ele>
        <time>2022-08-06T10:06:21Z</time>
      </trkpt>
      <trkpt lat="44.69072" lon="2.92415">
        <ele>1292.1</ele>
        <time>2022-08-06T10:06:28Z</time>
      </trkpt>
      <trkpt lat="44.6907" lon="2.92424">
        <ele>1292.4</ele>
        <time>2022-08-06T10:06:33Z</time>
      </trkpt>
      <trkpt lat="44.69068" lon="2.92425">
        <ele>1292.4</ele>
        <time>2022-08-06T10:06:35Z</time>
      </trkpt>
      <trkpt lat="44.69066" lon="2.9243">
        <ele>1292.6</ele>
        <time>2022-08-06T10:06:39Z</time>
      </trkpt>
      <trkpt lat="44.69066" lon="2.92431">
        <ele>1292.6</ele>
        <time>2022-08-06T10:06:40Z</time>
      </trkpt>
      <trkpt lat="44.69065" lon="2.92432">
        <ele>1292.6</ele>
        <time>2022-08-06T10:06:43Z</time>
      </trkpt>
      <trkpt lat="44.69065" lon="2.92432">
        <ele>1292.6</ele>
        <time>2022-08-06T10:06:45Z</time>
      </trkpt>
      <trkpt lat="44.69063" lon="2.92437">
        <ele>1292.8</ele>
        <time>2022-08-06T10:06:50Z</time>
      </trkpt>
      <trkpt lat="44.69062" lon="2.9244">
        <ele>1293</ele>
        <time>2022-08-06T10:06:52Z</time>
      </trkpt>
      <trkpt lat="44.6906" lon="2.92444">
        <ele>1293.1</ele>
        <time>2022-08-06T10:06:55Z</time>
      </trkpt>
      <trkpt lat="44.69059" lon="2.92445">
        <ele>1293.2</ele>
        <time>2022-08-06T10:06:56Z</time>
      </trkpt>
      <trkpt lat="44.69057" lon="2.92447">
        <ele>1293.3</ele>
        <time>2022-08-06T10:06:58Z</time>
      </trkpt>
      <trkpt lat="44.69054" lon="2.92451">
        <ele>1293.7</ele>
        <time>2022-08-06T10:07:02Z</time>
      </trkpt>
      <trkpt lat="44.69048" lon="2.92458">
        <ele>1294.3</ele>
        <time>2022-08-06T10:07:08Z</time>
      </trkpt>
      <trkpt lat="44.69046" lon="2.92462">
        <ele>1294.6</ele>
        <time>2022-08-06T10:07:11Z</time>
      </trkpt>
      <trkpt lat="44.69043" lon="2.92464">
        <ele>1294.8</ele>
        <time>2022-08-06T10:07:13Z</time>
      </trkpt>
      <trkpt lat="44.6904" lon="2.92468">
        <ele>1295</ele>
        <time>2022-08-06T10:07:17Z</time>
      </trkpt>
      <trkpt lat="44.69039" lon="2.92469">
        <ele>1295.1</ele>
        <time>2022-08-06T10:07:18Z</time>
      </trkpt>
      <trkpt lat="44.69035" lon="2.92475">
        <ele>1295.6</ele>
        <time>2022-08-06T10:07:23Z</time>
      </trkpt>
      <trkpt lat="44.69035" lon="2.92479">
        <ele>1295.9</ele>
        <time>2022-08-06T10:07:25Z</time>
      </trkpt>
      <trkpt lat="44.69033" lon="2.92481">
        <ele>1296.2</ele>
        <time>2022-08-06T10:07:27Z</time>
      </trkpt>
      <trkpt lat="44.69031" lon="2.92485">
        <ele>1296.5</ele>
        <time>2022-08-06T10:07:30Z</time>
      </trkpt>
      <trkpt lat="44.6903" lon="2.92486">
        <ele>1296.6</ele>
        <time>2022-08-06T10:07:31Z</time>
      </trkpt>
      <trkpt lat="44.69024" lon="2.92495">
        <ele>1297.2</ele>
        <time>2022-08-06T10:07:39Z</time>
      </trkpt>
      <trkpt lat="44.69022" lon="2.92496">
        <ele>1297.3</ele>
        <time>2022-08-06T10:07:41Z</time>
      </trkpt>
      <trkpt lat="44.69021" lon="2.92497">
        <ele>1297.3</ele>
        <time>2022-08-06T10:07:45Z</time>
      </trkpt>
      <trkpt lat="44.69019" lon="2.92501">
        <ele>1297.5</ele>
        <time>2022-08-06T10:07:49Z</time>
      </trkpt>
      <trkpt lat="44.69017" lon="2.92503">
        <ele>1297.6</ele>
        <time>2022-08-06T10:07:51Z</time>
      </trkpt>
      <trkpt lat="44.69014" lon="2.92508">
        <ele>1297.7</ele>
        <time>2022-08-06T10:07:55Z</time>
      </trkpt>
      <trkpt lat="44.69012" lon="2.92511">
        <ele>1297.9</ele>
        <time>2022-08-06T10:07:58Z</time>
      </trkpt>
      <trkpt lat="44.69012" lon="2.92513">
        <ele>1298</ele>
        <time>2022-08-06T10:08:02Z</time>
      </trkpt>
      <trkpt lat="44.69011" lon="2.92511">
        <ele>1297.8</ele>
        <time>2022-08-06T10:08:05Z</time>
      </trkpt>
      <trkpt lat="44.69011" lon="2.92508">
        <ele>1297.5</ele>
        <time>2022-08-06T10:08:12Z</time>
      </trkpt>
      <trkpt lat="44.69011" lon="2.92512">
        <ele>1297.8</ele>
        <time>2022-08-06T10:08:19Z</time>
      </trkpt>
      <trkpt lat="44.69011" lon="2.92511">
        <ele>1297.8</ele>
        <time>2022-08-06T10:08:24Z</time>
      </trkpt>
      <trkpt lat="44.69012" lon="2.92512">
        <ele>1298</ele>
        <time>2022-08-06T10:08:29Z</time>
      </trkpt>
      <trkpt lat="44.69012" lon="2.92513">
        <ele>1298</ele>
        <time>2022-08-06T10:08:46Z</time>
      </trkpt>
      <trkpt lat="44.69012" lon="2.92513">
        <ele>1298</ele>
        <time>2022-08-06T10:08:57Z</time>
      </trkpt>
      <trkpt lat="44.69012" lon="2.92511">
        <ele>1297.8</ele>
        <time>2022-08-06T10:10:16Z</time>
      </trkpt>
      <trkpt lat="44.69011" lon="2.92511">
        <ele>1297.8</ele>
        <time>2022-08-06T10:10:24Z</time>
      </trkpt>
      <trkpt lat="44.69011" lon="2.92511">
        <ele>1297.8</ele>
        <time>2022-08-06T10:10:26Z</time>
      </trkpt>
      <trkpt lat="44.69016" lon="2.92511">
        <ele>1298.2</ele>
        <time>2022-08-06T10:11:35Z</time>
      </trkpt>
      <trkpt lat="44.69015" lon="2.9251">
        <ele>1298</ele>
        <time>2022-08-06T10:13:26Z</time>
      </trkpt>
      <trkpt lat="44.69014" lon="2.9251">
        <ele>1297.9</ele>
        <time>2022-08-06T10:14:18Z</time>
      </trkpt>
      <trkpt lat="44.69011" lon="2.92516">
        <ele>1298.1</ele>
        <time>2022-08-06T10:14:26Z</time>
      </trkpt>
      <trkpt lat="44.69007" lon="2.92522">
        <ele>1298.3</ele>
        <time>2022-08-06T10:14:29Z</time>
      </trkpt>
      <trkpt lat="44.68999" lon="2.92535">
        <ele>1299.1</ele>
        <time>2022-08-06T10:14:36Z</time>
      </trkpt>
      <trkpt lat="44.68998" lon="2.92536">
        <ele>1299.2</ele>
        <time>2022-08-06T10:14:37Z</time>
      </trkpt>
      <trkpt lat="44.68993" lon="2.92543">
        <ele>1299.9</ele>
        <time>2022-08-06T10:14:45Z</time>
      </trkpt>
      <trkpt lat="44.68991" lon="2.92545">
        <ele>1300.1</ele>
        <time>2022-08-06T10:14:47Z</time>
      </trkpt>
      <trkpt lat="44.68991" lon="2.92547">
        <ele>1300.3</ele>
        <time>2022-08-06T10:14:48Z</time>
      </trkpt>
      <trkpt lat="44.68983" lon="2.92558">
        <ele>1300.9</ele>
        <time>2022-08-06T10:14:59Z</time>
      </trkpt>
      <trkpt lat="44.68981" lon="2.92561">
        <ele>1301</ele>
        <time>2022-08-06T10:15:02Z</time>
      </trkpt>
      <trkpt lat="44.68979" lon="2.92563">
        <ele>1301</ele>
        <time>2022-08-06T10:15:04Z</time>
      </trkpt>
      <trkpt lat="44.68978" lon="2.92567">
        <ele>1301.2</ele>
        <time>2022-08-06T10:15:07Z</time>
      </trkpt>
      <trkpt lat="44.68977" lon="2.92569">
        <ele>1301.3</ele>
        <time>2022-08-06T10:15:12Z</time>
      </trkpt>
      <trkpt lat="44.68975" lon="2.92571">
        <ele>1301.3</ele>
        <time>2022-08-06T10:15:14Z</time>
      </trkpt>
      <trkpt lat="44.68974" lon="2.92572">
        <ele>1301.3</ele>
        <time>2022-08-06T10:15:15Z</time>
      </trkpt>
      <trkpt lat="44.6897" lon="2.92577">
        <ele>1301.5</ele>
        <time>2022-08-06T10:15:21Z</time>
      </trkpt>
      <trkpt lat="44.6897" lon="2.92578">
        <ele>1301.5</ele>
        <time>2022-08-06T10:15:22Z</time>
      </trkpt>
      <trkpt lat="44.68968" lon="2.92579">
        <ele>1301.6</ele>
        <time>2022-08-06T10:15:23Z</time>
      </trkpt>
      <trkpt lat="44.68963" lon="2.92584">
        <ele>1301.7</ele>
        <time>2022-08-06T10:15:29Z</time>
      </trkpt>
      <trkpt lat="44.68958" lon="2.92587">
        <ele>1301.7</ele>
        <time>2022-08-06T10:15:33Z</time>
      </trkpt>
      <trkpt lat="44.68957" lon="2.92589">
        <ele>1301.8</ele>
        <time>2022-08-06T10:15:35Z</time>
      </trkpt>
      <trkpt lat="44.68956" lon="2.92592">
        <ele>1302</ele>
        <time>2022-08-06T10:15:37Z</time>
      </trkpt>
      <trkpt lat="44.68951" lon="2.92601">
        <ele>1302.5</ele>
        <time>2022-08-06T10:15:45Z</time>
      </trkpt>
      <trkpt lat="44.68942" lon="2.92609">
        <ele>1302.9</ele>
        <time>2022-08-06T10:15:54Z</time>
      </trkpt>
      <trkpt lat="44.68942" lon="2.9261">
        <ele>1302.9</ele>
        <time>2022-08-06T10:15:55Z</time>
      </trkpt>
      <trkpt lat="44.68941" lon="2.92611">
        <ele>1303</ele>
        <time>2022-08-06T10:15:56Z</time>
      </trkpt>
      <trkpt lat="44.68934" lon="2.92617">
        <ele>1303.6</ele>
        <time>2022-08-06T10:16:03Z</time>
      </trkpt>
      <trkpt lat="44.68925" lon="2.92624">
        <ele>1304</ele>
        <time>2022-08-06T10:16:12Z</time>
      </trkpt>
      <trkpt lat="44.68919" lon="2.92623">
        <ele>1303.9</ele>
        <time>2022-08-06T10:16:17Z</time>
      </trkpt>
      <trkpt lat="44.68916" lon="2.92623">
        <ele>1303.8</ele>
        <time>2022-08-06T10:16:19Z</time>
      </trkpt>
      <trkpt lat="44.68914" lon="2.92622">
        <ele>1303.9</ele>
        <time>2022-08-06T10:16:21Z</time>
      </trkpt>
      <trkpt lat="44.68906" lon="2.92621">
        <ele>1304.1</ele>
        <time>2022-08-06T10:16:27Z</time>
      </trkpt>
      <trkpt lat="44.68895" lon="2.92621">
        <ele>1304.5</ele>
        <time>2022-08-06T10:16:36Z</time>
      </trkpt>
      <trkpt lat="44.68893" lon="2.92621">
        <ele>1304.6</ele>
        <time>2022-08-06T10:16:37Z</time>
      </trkpt>
      <trkpt lat="44.68886" lon="2.92619">
        <ele>1304.8</ele>
        <time>2022-08-06T10:16:43Z</time>
      </trkpt>
      <trkpt lat="44.68876" lon="2.92617">
        <ele>1305.3</ele>
        <time>2022-08-06T10:16:51Z</time>
      </trkpt>
      <trkpt lat="44.68871" lon="2.92616">
        <ele>1305.6</ele>
        <time>2022-08-06T10:16:56Z</time>
      </trkpt>
      <trkpt lat="44.68867" lon="2.92616">
        <ele>1305.8</ele>
        <time>2022-08-06T10:16:59Z</time>
      </trkpt>
      <trkpt lat="44.68859" lon="2.92612">
        <ele>1306.1</ele>
        <time>2022-08-06T10:17:06Z</time>
      </trkpt>
      <trkpt lat="44.68851" lon="2.92609">
        <ele>1306.3</ele>
        <time>2022-08-06T10:17:13Z</time>
      </trkpt>
      <trkpt lat="44.6885" lon="2.92609">
        <ele>1306.3</ele>
        <time>2022-08-06T10:17:14Z</time>
      </trkpt>
      <trkpt lat="44.68843" lon="2.92605">
        <ele>1306.4</ele>
        <time>2022-08-06T10:17:20Z</time>
      </trkpt>
      <trkpt lat="44.68836" lon="2.92601">
        <ele>1306.5</ele>
        <time>2022-08-06T10:17:26Z</time>
      </trkpt>
      <trkpt lat="44.68826" lon="2.92599">
        <ele>1306.7</ele>
        <time>2022-08-06T10:17:34Z</time>
      </trkpt>
      <trkpt lat="44.68825" lon="2.92598">
        <ele>1306.7</ele>
        <time>2022-08-06T10:17:36Z</time>
      </trkpt>
      <trkpt lat="44.6882" lon="2.92596">
        <ele>1306.7</ele>
        <time>2022-08-06T10:17:40Z</time>
      </trkpt>
      <trkpt lat="44.68819" lon="2.92595">
        <ele>1306.7</ele>
        <time>2022-08-06T10:17:44Z</time>
      </trkpt>
      <trkpt lat="44.68818" lon="2.92595">
        <ele>1306.7</ele>
        <time>2022-08-06T10:17:47Z</time>
      </trkpt>
      <trkpt lat="44.6882" lon="2.92595">
        <ele>1306.7</ele>
        <time>2022-08-06T10:17:50Z</time>
      </trkpt>
      <trkpt lat="44.68823" lon="2.92606">
        <ele>1306.9</ele>
        <time>2022-08-06T10:17:58Z</time>
      </trkpt>
      <trkpt lat="44.68827" lon="2.92618">
        <ele>1307.2</ele>
        <time>2022-08-06T10:18:06Z</time>
      </trkpt>
      <trkpt lat="44.68829" lon="2.92624">
        <ele>1307.4</ele>
        <time>2022-08-06T10:18:11Z</time>
      </trkpt>
      <trkpt lat="44.68829" lon="2.92628">
        <ele>1307.5</ele>
        <time>2022-08-06T10:18:15Z</time>
      </trkpt>
      <trkpt lat="44.68828" lon="2.92629">
        <ele>1307.5</ele>
        <time>2022-08-06T10:18:18Z</time>
      </trkpt>
      <trkpt lat="44.68824" lon="2.92629">
        <ele>1307.4</ele>
        <time>2022-08-06T10:19:14Z</time>
      </trkpt>
      <trkpt lat="44.68824" lon="2.92629">
        <ele>1307.4</ele>
        <time>2022-08-06T10:19:17Z</time>
      </trkpt>
      <trkpt lat="44.68824" lon="2.92627">
        <ele>1307.4</ele>
        <time>2022-08-06T10:19:40Z</time>
      </trkpt>
      <trkpt lat="44.68824" lon="2.92622">
        <ele>1307.3</ele>
        <time>2022-08-06T10:20:17Z</time>
      </trkpt>
      <trkpt lat="44.68824" lon="2.92621">
        <ele>1307.2</ele>
        <time>2022-08-06T10:20:24Z</time>
      </trkpt>
      <trkpt lat="44.68824" lon="2.92625">
        <ele>1307.3</ele>
        <time>2022-08-06T10:21:12Z</time>
      </trkpt>
      <trkpt lat="44.68826" lon="2.92628">
        <ele>1307.4</ele>
        <time>2022-08-06T10:21:42Z</time>
      </trkpt>
      <trkpt lat="44.68826" lon="2.92628">
        <ele>1307.4</ele>
        <time>2022-08-06T10:22:02Z</time>
      </trkpt>
      <trkpt lat="44.68826" lon="2.92628">
        <ele>1307.4</ele>
        <time>2022-08-06T10:22:04Z</time>
      </trkpt>
      <trkpt lat="44.68827" lon="2.92628">
        <ele>1307.4</ele>
        <time>2022-08-06T10:22:30Z</time>
      </trkpt>
      <trkpt lat="44.68826" lon="2.92628">
        <ele>1307.4</ele>
        <time>2022-08-06T10:23:02Z</time>
      </trkpt>
      <trkpt lat="44.68826" lon="2.92627">
        <ele>1307.4</ele>
        <time>2022-08-06T10:23:26Z</time>
      </trkpt>
      <trkpt lat="44.68826" lon="2.92627">
        <ele>1307.4</ele>
        <time>2022-08-06T10:24:00Z</time>
      </trkpt>
      <trkpt lat="44.68826" lon="2.92627">
        <ele>1307.4</ele>
        <time>2022-08-06T10:24:29Z</time>
      </trkpt>
      <trkpt lat="44.68829" lon="2.92635">
        <ele>1307.7</ele>
        <time>2022-08-06T10:24:53Z</time>
      </trkpt>
      <trkpt lat="44.6883" lon="2.92639">
        <ele>1307.9</ele>
        <time>2022-08-06T10:24:55Z</time>
      </trkpt>
      <trkpt lat="44.6883" lon="2.92642">
        <ele>1308</ele>
        <time>2022-08-06T10:24:57Z</time>
      </trkpt>
      <trkpt lat="44.68831" lon="2.92646">
        <ele>1308.2</ele>
        <time>2022-08-06T10:24:59Z</time>
      </trkpt>
      <trkpt lat="44.68832" lon="2.92647">
        <ele>1308.2</ele>
        <time>2022-08-06T10:25:00Z</time>
      </trkpt>
      <trkpt lat="44.68834" lon="2.92655">
        <ele>1308.6</ele>
        <time>2022-08-06T10:25:05Z</time>
      </trkpt>
      <trkpt lat="44.68835" lon="2.92657">
        <ele>1308.6</ele>
        <time>2022-08-06T10:25:06Z</time>
      </trkpt>
      <trkpt lat="44.6884" lon="2.92667">
        <ele>1309</ele>
        <time>2022-08-06T10:25:12Z</time>
      </trkpt>
      <trkpt lat="44.68846" lon="2.92675">
        <ele>1309.3</ele>
        <time>2022-08-06T10:25:19Z</time>
      </trkpt>
      <trkpt lat="44.68847" lon="2.92676">
        <ele>1309.3</ele>
        <time>2022-08-06T10:25:20Z</time>
      </trkpt>
      <trkpt lat="44.68851" lon="2.9268">
        <ele>1309.5</ele>
        <time>2022-08-06T10:25:26Z</time>
      </trkpt>
      <trkpt lat="44.68856" lon="2.92682">
        <ele>1309.5</ele>
        <time>2022-08-06T10:25:33Z</time>
      </trkpt>
      <trkpt lat="44.68857" lon="2.92682">
        <ele>1309.6</ele>
        <time>2022-08-06T10:25:34Z</time>
      </trkpt>
      <trkpt lat="44.68858" lon="2.92682">
        <ele>1309.6</ele>
        <time>2022-08-06T10:25:36Z</time>
      </trkpt>
      <trkpt lat="44.68861" lon="2.92681">
        <ele>1309.5</ele>
        <time>2022-08-06T10:25:38Z</time>
      </trkpt>
      <trkpt lat="44.68868" lon="2.92684">
        <ele>1309.4</ele>
        <time>2022-08-06T10:25:44Z</time>
      </trkpt>
      <trkpt lat="44.68875" lon="2.92685">
        <ele>1309.2</ele>
        <time>2022-08-06T10:25:49Z</time>
      </trkpt>
      <trkpt lat="44.68877" lon="2.92685">
        <ele>1309.1</ele>
        <time>2022-08-06T10:25:51Z</time>
      </trkpt>
      <trkpt lat="44.68886" lon="2.92687">
        <ele>1308.8</ele>
        <time>2022-08-06T10:25:58Z</time>
      </trkpt>
      <trkpt lat="44.68887" lon="2.92689">
        <ele>1308.9</ele>
        <time>2022-08-06T10:26:01Z</time>
      </trkpt>
      <trkpt lat="44.68888" lon="2.9269">
        <ele>1308.9</ele>
        <time>2022-08-06T10:26:02Z</time>
      </trkpt>
      <trkpt lat="44.68889" lon="2.92689">
        <ele>1308.8</ele>
        <time>2022-08-06T10:26:04Z</time>
      </trkpt>
      <trkpt lat="44.68893" lon="2.92689">
        <ele>1308.8</ele>
        <time>2022-08-06T10:26:09Z</time>
      </trkpt>
      <trkpt lat="44.68904" lon="2.92694">
        <ele>1309</ele>
        <time>2022-08-06T10:26:17Z</time>
      </trkpt>
      <trkpt lat="44.68912" lon="2.92694">
        <ele>1309</ele>
        <time>2022-08-06T10:26:23Z</time>
      </trkpt>
      <trkpt lat="44.68916" lon="2.92695">
        <ele>1309</ele>
        <time>2022-08-06T10:26:27Z</time>
      </trkpt>
      <trkpt lat="44.68928" lon="2.92696">
        <ele>1309</ele>
        <time>2022-08-06T10:26:36Z</time>
      </trkpt>
      <trkpt lat="44.68934" lon="2.92696">
        <ele>1309.1</ele>
        <time>2022-08-06T10:26:41Z</time>
      </trkpt>
      <trkpt lat="44.68938" lon="2.92697">
        <ele>1309.1</ele>
        <time>2022-08-06T10:26:44Z</time>
      </trkpt>
      <trkpt lat="44.6895" lon="2.92698">
        <ele>1309.1</ele>
        <time>2022-08-06T10:26:54Z</time>
      </trkpt>
      <trkpt lat="44.68958" lon="2.92701">
        <ele>1309.1</ele>
        <time>2022-08-06T10:27:01Z</time>
      </trkpt>
      <trkpt lat="44.68966" lon="2.92705">
        <ele>1309.1</ele>
        <time>2022-08-06T10:27:07Z</time>
      </trkpt>
      <trkpt lat="44.68968" lon="2.92707">
        <ele>1309.1</ele>
        <time>2022-08-06T10:27:09Z</time>
      </trkpt>
      <trkpt lat="44.68977" lon="2.92712">
        <ele>1309</ele>
        <time>2022-08-06T10:27:15Z</time>
      </trkpt>
      <trkpt lat="44.6898" lon="2.92715">
        <ele>1309</ele>
        <time>2022-08-06T10:27:18Z</time>
      </trkpt>
      <trkpt lat="44.68983" lon="2.92717">
        <ele>1309</ele>
        <time>2022-08-06T10:27:20Z</time>
      </trkpt>
      <trkpt lat="44.68993" lon="2.92725">
        <ele>1309</ele>
        <time>2022-08-06T10:27:28Z</time>
      </trkpt>
      <trkpt lat="44.69004" lon="2.92734">
        <ele>1309.3</ele>
        <time>2022-08-06T10:27:37Z</time>
      </trkpt>
      <trkpt lat="44.69005" lon="2.92735">
        <ele>1309.4</ele>
        <time>2022-08-06T10:27:38Z</time>
      </trkpt>
      <trkpt lat="44.69005" lon="2.92737">
        <ele>1309.5</ele>
        <time>2022-08-06T10:27:40Z</time>
      </trkpt>
      <trkpt lat="44.69005" lon="2.92738">
        <ele>1309.5</ele>
        <time>2022-08-06T10:27:41Z</time>
      </trkpt>
      <trkpt lat="44.69005" lon="2.92739">
        <ele>1309.4</ele>
        <time>2022-08-06T10:27:42Z</time>
      </trkpt>
      <trkpt lat="44.69002" lon="2.92742">
        <ele>1309.2</ele>
        <time>2022-08-06T10:27:45Z</time>
      </trkpt>
      <trkpt lat="44.69001" lon="2.92745">
        <ele>1309.1</ele>
        <time>2022-08-06T10:27:47Z</time>
      </trkpt>
      <trkpt lat="44.69001" lon="2.92755">
        <ele>1309.4</ele>
        <time>2022-08-06T10:27:52Z</time>
      </trkpt>
      <trkpt lat="44.68999" lon="2.92767">
        <ele>1310.2</ele>
        <time>2022-08-06T10:27:59Z</time>
      </trkpt>
      <trkpt lat="44.68999" lon="2.92769">
        <ele>1310.3</ele>
        <time>2022-08-06T10:28:00Z</time>
      </trkpt>
      <trkpt lat="44.68996" lon="2.9278">
        <ele>1310.7</ele>
        <time>2022-08-06T10:28:07Z</time>
      </trkpt>
      <trkpt lat="44.68992" lon="2.92793">
        <ele>1310.4</ele>
        <time>2022-08-06T10:28:16Z</time>
      </trkpt>
      <trkpt lat="44.68987" lon="2.92805">
        <ele>1310.1</ele>
        <time>2022-08-06T10:28:24Z</time>
      </trkpt>
      <trkpt lat="44.68985" lon="2.92817">
        <ele>1310.1</ele>
        <time>2022-08-06T10:28:31Z</time>
      </trkpt>
      <trkpt lat="44.68981" lon="2.92827">
        <ele>1309.9</ele>
        <time>2022-08-06T10:28:38Z</time>
      </trkpt>
      <trkpt lat="44.68976" lon="2.92834">
        <ele>1309.4</ele>
        <time>2022-08-06T10:28:44Z</time>
      </trkpt>
      <trkpt lat="44.68975" lon="2.92835">
        <ele>1309.4</ele>
        <time>2022-08-06T10:28:45Z</time>
      </trkpt>
      <trkpt lat="44.68974" lon="2.9284">
        <ele>1309.6</ele>
        <time>2022-08-06T10:28:48Z</time>
      </trkpt>
      <trkpt lat="44.68973" lon="2.92842">
        <ele>1309.7</ele>
        <time>2022-08-06T10:28:50Z</time>
      </trkpt>
      <trkpt lat="44.68973" lon="2.92843">
        <ele>1309.8</ele>
        <time>2022-08-06T10:28:51Z</time>
      </trkpt>
      <trkpt lat="44.6897" lon="2.9285">
        <ele>1310.2</ele>
        <time>2022-08-06T10:28:55Z</time>
      </trkpt>
      <trkpt lat="44.68968" lon="2.92854">
        <ele>1310.5</ele>
        <time>2022-08-06T10:28:58Z</time>
      </trkpt>
      <trkpt lat="44.68967" lon="2.92857">
        <ele>1310.7</ele>
        <time>2022-08-06T10:29:00Z</time>
      </trkpt>
      <trkpt lat="44.68966" lon="2.9286">
        <ele>1310.9</ele>
        <time>2022-08-06T10:29:03Z</time>
      </trkpt>
      <trkpt lat="44.68966" lon="2.92861">
        <ele>1311</ele>
        <time>2022-08-06T10:29:04Z</time>
      </trkpt>
      <trkpt lat="44.68966" lon="2.92866">
        <ele>1311.3</ele>
        <time>2022-08-06T10:29:07Z</time>
      </trkpt>
      <trkpt lat="44.68965" lon="2.92867">
        <ele>1311.4</ele>
        <time>2022-08-06T10:29:08Z</time>
      </trkpt>
      <trkpt lat="44.68965" lon="2.9287">
        <ele>1311.7</ele>
        <time>2022-08-06T10:29:10Z</time>
      </trkpt>
      <trkpt lat="44.68963" lon="2.92877">
        <ele>1312.1</ele>
        <time>2022-08-06T10:29:13Z</time>
      </trkpt>
      <trkpt lat="44.68959" lon="2.92877">
        <ele>1312.1</ele>
        <time>2022-08-06T10:29:16Z</time>
      </trkpt>
      <trkpt lat="44.68958" lon="2.92878">
        <ele>1312.2</ele>
        <time>2022-08-06T10:29:17Z</time>
      </trkpt>
      <trkpt lat="44.68957" lon="2.92879">
        <ele>1312.3</ele>
        <time>2022-08-06T10:29:19Z</time>
      </trkpt>
      <trkpt lat="44.68955" lon="2.9288">
        <ele>1312.4</ele>
        <time>2022-08-06T10:29:21Z</time>
      </trkpt>
      <trkpt lat="44.68954" lon="2.92882">
        <ele>1312.5</ele>
        <time>2022-08-06T10:29:22Z</time>
      </trkpt>
      <trkpt lat="44.68953" lon="2.92882">
        <ele>1312.5</ele>
        <time>2022-08-06T10:29:23Z</time>
      </trkpt>
      <trkpt lat="44.68951" lon="2.92889">
        <ele>1313</ele>
        <time>2022-08-06T10:29:29Z</time>
      </trkpt>
      <trkpt lat="44.6895" lon="2.9289">
        <ele>1313</ele>
        <time>2022-08-06T10:29:30Z</time>
      </trkpt>
      <trkpt lat="44.68943" lon="2.92895">
        <ele>1313.4</ele>
        <time>2022-08-06T10:29:35Z</time>
      </trkpt>
      <trkpt lat="44.6894" lon="2.92895">
        <ele>1313.3</ele>
        <time>2022-08-06T10:29:37Z</time>
      </trkpt>
      <trkpt lat="44.68936" lon="2.92897">
        <ele>1313.4</ele>
        <time>2022-08-06T10:29:39Z</time>
      </trkpt>
      <trkpt lat="44.68933" lon="2.92897">
        <ele>1313.3</ele>
        <time>2022-08-06T10:29:42Z</time>
      </trkpt>
      <trkpt lat="44.68933" lon="2.92898">
        <ele>1313.4</ele>
        <time>2022-08-06T10:29:43Z</time>
      </trkpt>
      <trkpt lat="44.68932" lon="2.92901">
        <ele>1313.5</ele>
        <time>2022-08-06T10:29:46Z</time>
      </trkpt>
      <trkpt lat="44.68931" lon="2.92901">
        <ele>1313.5</ele>
        <time>2022-08-06T10:29:47Z</time>
      </trkpt>
      <trkpt lat="44.68926" lon="2.92907">
        <ele>1313.4</ele>
        <time>2022-08-06T10:29:52Z</time>
      </trkpt>
      <trkpt lat="44.68926" lon="2.9291">
        <ele>1313.5</ele>
        <time>2022-08-06T10:29:54Z</time>
      </trkpt>
      <trkpt lat="44.68925" lon="2.92913">
        <ele>1313.5</ele>
        <time>2022-08-06T10:29:56Z</time>
      </trkpt>
      <trkpt lat="44.68923" lon="2.92915">
        <ele>1313.5</ele>
        <time>2022-08-06T10:29:58Z</time>
      </trkpt>
      <trkpt lat="44.68922" lon="2.92918">
        <ele>1313.4</ele>
        <time>2022-08-06T10:30:00Z</time>
      </trkpt>
      <trkpt lat="44.68921" lon="2.92923">
        <ele>1313.3</ele>
        <time>2022-08-06T10:30:03Z</time>
      </trkpt>
      <trkpt lat="44.68921" lon="2.92926">
        <ele>1313.3</ele>
        <time>2022-08-06T10:30:05Z</time>
      </trkpt>
      <trkpt lat="44.68921" lon="2.92928">
        <ele>1313.3</ele>
        <time>2022-08-06T10:30:07Z</time>
      </trkpt>
      <trkpt lat="44.6892" lon="2.9293">
        <ele>1313.3</ele>
        <time>2022-08-06T10:30:09Z</time>
      </trkpt>
      <trkpt lat="44.68921" lon="2.92937">
        <ele>1313.3</ele>
        <time>2022-08-06T10:30:15Z</time>
      </trkpt>
      <trkpt lat="44.68922" lon="2.92942">
        <ele>1313.4</ele>
        <time>2022-08-06T10:30:18Z</time>
      </trkpt>
      <trkpt lat="44.68925" lon="2.92949">
        <ele>1313.9</ele>
        <time>2022-08-06T10:30:23Z</time>
      </trkpt>
      <trkpt lat="44.68928" lon="2.92958">
        <ele>1314.8</ele>
        <time>2022-08-06T10:30:28Z</time>
      </trkpt>
      <trkpt lat="44.68929" lon="2.92958">
        <ele>1314.8</ele>
        <time>2022-08-06T10:30:29Z</time>
      </trkpt>
      <trkpt lat="44.68928" lon="2.92959">
        <ele>1314.9</ele>
        <time>2022-08-06T10:30:30Z</time>
      </trkpt>
      <trkpt lat="44.68928" lon="2.9296">
        <ele>1314.9</ele>
        <time>2022-08-06T10:30:31Z</time>
      </trkpt>
      <trkpt lat="44.68928" lon="2.92966">
        <ele>1315.4</ele>
        <time>2022-08-06T10:30:35Z</time>
      </trkpt>
      <trkpt lat="44.68928" lon="2.92966">
        <ele>1315.4</ele>
        <time>2022-08-06T10:30:36Z</time>
      </trkpt>
      <trkpt lat="44.68927" lon="2.92969">
        <ele>1315.5</ele>
        <time>2022-08-06T10:30:37Z</time>
      </trkpt>
      <trkpt lat="44.68926" lon="2.92975">
        <ele>1315.9</ele>
        <time>2022-08-06T10:30:41Z</time>
      </trkpt>
      <trkpt lat="44.68924" lon="2.92979">
        <ele>1316.3</ele>
        <time>2022-08-06T10:30:44Z</time>
      </trkpt>
      <trkpt lat="44.6892" lon="2.92985">
        <ele>1316.6</ele>
        <time>2022-08-06T10:30:48Z</time>
      </trkpt>
      <trkpt lat="44.68919" lon="2.92988">
        <ele>1316.9</ele>
        <time>2022-08-06T10:30:51Z</time>
      </trkpt>
      <trkpt lat="44.68918" lon="2.92991">
        <ele>1317.1</ele>
        <time>2022-08-06T10:30:53Z</time>
      </trkpt>
      <trkpt lat="44.68914" lon="2.92996">
        <ele>1317.6</ele>
        <time>2022-08-06T10:30:56Z</time>
      </trkpt>
      <trkpt lat="44.68911" lon="2.92997">
        <ele>1317.7</ele>
        <time>2022-08-06T10:30:58Z</time>
      </trkpt>
      <trkpt lat="44.68904" lon="2.93003">
        <ele>1318.4</ele>
        <time>2022-08-06T10:31:05Z</time>
      </trkpt>
      <trkpt lat="44.68901" lon="2.93006">
        <ele>1318.7</ele>
        <time>2022-08-06T10:31:07Z</time>
      </trkpt>
      <trkpt lat="44.68895" lon="2.93006">
        <ele>1318.6</ele>
        <time>2022-08-06T10:31:11Z</time>
      </trkpt>
      <trkpt lat="44.68894" lon="2.93007">
        <ele>1318.7</ele>
        <time>2022-08-06T10:31:12Z</time>
      </trkpt>
      <trkpt lat="44.6889" lon="2.93011">
        <ele>1319.2</ele>
        <time>2022-08-06T10:31:16Z</time>
      </trkpt>
      <trkpt lat="44.68889" lon="2.93012">
        <ele>1319.2</ele>
        <time>2022-08-06T10:31:17Z</time>
      </trkpt>
      <trkpt lat="44.68888" lon="2.93012">
        <ele>1319.3</ele>
        <time>2022-08-06T10:31:18Z</time>
      </trkpt>
      <trkpt lat="44.68885" lon="2.93014">
        <ele>1319.7</ele>
        <time>2022-08-06T10:31:21Z</time>
      </trkpt>
      <trkpt lat="44.68884" lon="2.93015">
        <ele>1319.9</ele>
        <time>2022-08-06T10:31:22Z</time>
      </trkpt>
      <trkpt lat="44.68881" lon="2.93016">
        <ele>1320.2</ele>
        <time>2022-08-06T10:31:25Z</time>
      </trkpt>
      <trkpt lat="44.68878" lon="2.93016">
        <ele>1320.2</ele>
        <time>2022-08-06T10:31:30Z</time>
      </trkpt>
      <trkpt lat="44.68878" lon="2.93015">
        <ele>1320.3</ele>
        <time>2022-08-06T10:31:32Z</time>
      </trkpt>
      <trkpt lat="44.6887" lon="2.93019">
        <ele>1320.9</ele>
        <time>2022-08-06T10:31:39Z</time>
      </trkpt>
      <trkpt lat="44.68866" lon="2.9302">
        <ele>1321.2</ele>
        <time>2022-08-06T10:31:42Z</time>
      </trkpt>
      <trkpt lat="44.68861" lon="2.93022">
        <ele>1321.6</ele>
        <time>2022-08-06T10:31:46Z</time>
      </trkpt>
      <trkpt lat="44.6886" lon="2.93022">
        <ele>1321.6</ele>
        <time>2022-08-06T10:31:47Z</time>
      </trkpt>
      <trkpt lat="44.68856" lon="2.93022">
        <ele>1321.8</ele>
        <time>2022-08-06T10:31:51Z</time>
      </trkpt>
      <trkpt lat="44.68854" lon="2.93022">
        <ele>1321.9</ele>
        <time>2022-08-06T10:31:53Z</time>
      </trkpt>
      <trkpt lat="44.68852" lon="2.93023">
        <ele>1322</ele>
        <time>2022-08-06T10:31:55Z</time>
      </trkpt>
      <trkpt lat="44.6885" lon="2.93021">
        <ele>1322</ele>
        <time>2022-08-06T10:32:00Z</time>
      </trkpt>
      <trkpt lat="44.6885" lon="2.9302">
        <ele>1322</ele>
        <time>2022-08-06T10:32:01Z</time>
      </trkpt>
      <trkpt lat="44.68849" lon="2.9302">
        <ele>1322</ele>
        <time>2022-08-06T10:32:02Z</time>
      </trkpt>
      <trkpt lat="44.68849" lon="2.93022">
        <ele>1322.1</ele>
        <time>2022-08-06T10:32:03Z</time>
      </trkpt>
      <trkpt lat="44.68849" lon="2.93023">
        <ele>1322.2</ele>
        <time>2022-08-06T10:32:04Z</time>
      </trkpt>
      <trkpt lat="44.68847" lon="2.93023">
        <ele>1322.3</ele>
        <time>2022-08-06T10:32:06Z</time>
      </trkpt>
      <trkpt lat="44.68847" lon="2.93022">
        <ele>1322.2</ele>
        <time>2022-08-06T10:32:07Z</time>
      </trkpt>
      <trkpt lat="44.68847" lon="2.9302">
        <ele>1322.1</ele>
        <time>2022-08-06T10:32:13Z</time>
      </trkpt>
      <trkpt lat="44.68843" lon="2.93022">
        <ele>1322.4</ele>
        <time>2022-08-06T10:32:21Z</time>
      </trkpt>
      <trkpt lat="44.68837" lon="2.93022">
        <ele>1322.6</ele>
        <time>2022-08-06T10:32:27Z</time>
      </trkpt>
      <trkpt lat="44.68833" lon="2.93021">
        <ele>1322.7</ele>
        <time>2022-08-06T10:32:30Z</time>
      </trkpt>
      <trkpt lat="44.68827" lon="2.93021">
        <ele>1322.8</ele>
        <time>2022-08-06T10:32:35Z</time>
      </trkpt>
      <trkpt lat="44.68819" lon="2.93028">
        <ele>1323</ele>
        <time>2022-08-06T10:32:44Z</time>
      </trkpt>
      <trkpt lat="44.68819" lon="2.93029">
        <ele>1323</ele>
        <time>2022-08-06T10:32:45Z</time>
      </trkpt>
      <trkpt lat="44.68818" lon="2.9303">
        <ele>1323.1</ele>
        <time>2022-08-06T10:32:46Z</time>
      </trkpt>
      <trkpt lat="44.68811" lon="2.93035">
        <ele>1323.3</ele>
        <time>2022-08-06T10:32:52Z</time>
      </trkpt>
      <trkpt lat="44.68805" lon="2.93044">
        <ele>1323.6</ele>
        <time>2022-08-06T10:32:59Z</time>
      </trkpt>
      <trkpt lat="44.68804" lon="2.93045">
        <ele>1323.6</ele>
        <time>2022-08-06T10:33:01Z</time>
      </trkpt>
      <trkpt lat="44.68804" lon="2.93048">
        <ele>1323.7</ele>
        <time>2022-08-06T10:33:05Z</time>
      </trkpt>
      <trkpt lat="44.68803" lon="2.93049">
        <ele>1323.8</ele>
        <time>2022-08-06T10:33:06Z</time>
      </trkpt>
      <trkpt lat="44.68803" lon="2.93051">
        <ele>1323.8</ele>
        <time>2022-08-06T10:33:07Z</time>
      </trkpt>
      <trkpt lat="44.688" lon="2.93055">
        <ele>1324</ele>
        <time>2022-08-06T10:33:11Z</time>
      </trkpt>
      <trkpt lat="44.68799" lon="2.93056">
        <ele>1324</ele>
        <time>2022-08-06T10:33:12Z</time>
      </trkpt>
      <trkpt lat="44.68798" lon="2.93057">
        <ele>1324.1</ele>
        <time>2022-08-06T10:33:14Z</time>
      </trkpt>
      <trkpt lat="44.68793" lon="2.93061">
        <ele>1324.3</ele>
        <time>2022-08-06T10:33:19Z</time>
      </trkpt>
      <trkpt lat="44.6879" lon="2.93065">
        <ele>1324.5</ele>
        <time>2022-08-06T10:33:23Z</time>
      </trkpt>
      <trkpt lat="44.68787" lon="2.93068">
        <ele>1324.6</ele>
        <time>2022-08-06T10:33:26Z</time>
      </trkpt>
      <trkpt lat="44.68786" lon="2.93069">
        <ele>1324.6</ele>
        <time>2022-08-06T10:33:28Z</time>
      </trkpt>
      <trkpt lat="44.68784" lon="2.93074">
        <ele>1324.8</ele>
        <time>2022-08-06T10:33:32Z</time>
      </trkpt>
      <trkpt lat="44.68783" lon="2.93075">
        <ele>1324.9</ele>
        <time>2022-08-06T10:33:33Z</time>
      </trkpt>
      <trkpt lat="44.68779" lon="2.93082">
        <ele>1325</ele>
        <time>2022-08-06T10:33:38Z</time>
      </trkpt>
      <trkpt lat="44.68778" lon="2.9309">
        <ele>1325</ele>
        <time>2022-08-06T10:33:42Z</time>
      </trkpt>
      <trkpt lat="44.68778" lon="2.93091">
        <ele>1325</ele>
        <time>2022-08-06T10:33:44Z</time>
      </trkpt>
      <trkpt lat="44.68774" lon="2.93102">
        <ele>1325.3</ele>
        <time>2022-08-06T10:33:50Z</time>
      </trkpt>
      <trkpt lat="44.6877" lon="2.93112">
        <ele>1325.6</ele>
        <time>2022-08-06T10:33:57Z</time>
      </trkpt>
      <trkpt lat="44.68763" lon="2.93117">
        <ele>1326.3</ele>
        <time>2022-08-06T10:34:02Z</time>
      </trkpt>
      <trkpt lat="44.68762" lon="2.93119">
        <ele>1326.4</ele>
        <time>2022-08-06T10:34:03Z</time>
      </trkpt>
      <trkpt lat="44.68761" lon="2.93121">
        <ele>1326.5</ele>
        <time>2022-08-06T10:34:04Z</time>
      </trkpt>
      <trkpt lat="44.68759" lon="2.93127">
        <ele>1326.7</ele>
        <time>2022-08-06T10:34:08Z</time>
      </trkpt>
      <trkpt lat="44.68759" lon="2.93137">
        <ele>1327</ele>
        <time>2022-08-06T10:34:14Z</time>
      </trkpt>
      <trkpt lat="44.6876" lon="2.9314">
        <ele>1327.1</ele>
        <time>2022-08-06T10:34:16Z</time>
      </trkpt>
      <trkpt lat="44.68761" lon="2.93151">
        <ele>1327.9</ele>
        <time>2022-08-06T10:34:23Z</time>
      </trkpt>
      <trkpt lat="44.68764" lon="2.9316">
        <ele>1328.5</ele>
        <time>2022-08-06T10:34:29Z</time>
      </trkpt>
      <trkpt lat="44.68764" lon="2.93162">
        <ele>1328.7</ele>
        <time>2022-08-06T10:34:31Z</time>
      </trkpt>
      <trkpt lat="44.68765" lon="2.93162">
        <ele>1328.7</ele>
        <time>2022-08-06T10:34:32Z</time>
      </trkpt>
      <trkpt lat="44.68767" lon="2.93163">
        <ele>1328.7</ele>
        <time>2022-08-06T10:34:34Z</time>
      </trkpt>
      <trkpt lat="44.68768" lon="2.93165">
        <ele>1328.9</ele>
        <time>2022-08-06T10:34:36Z</time>
      </trkpt>
      <trkpt lat="44.68769" lon="2.93167">
        <ele>1329</ele>
        <time>2022-08-06T10:34:38Z</time>
      </trkpt>
      <trkpt lat="44.68771" lon="2.9317">
        <ele>1329.1</ele>
        <time>2022-08-06T10:34:40Z</time>
      </trkpt>
      <trkpt lat="44.68773" lon="2.93173">
        <ele>1329.2</ele>
        <time>2022-08-06T10:34:43Z</time>
      </trkpt>
      <trkpt lat="44.68775" lon="2.93174">
        <ele>1329.3</ele>
        <time>2022-08-06T10:34:44Z</time>
      </trkpt>
      <trkpt lat="44.68777" lon="2.93175">
        <ele>1329.3</ele>
        <time>2022-08-06T10:34:48Z</time>
      </trkpt>
      <trkpt lat="44.68777" lon="2.93176">
        <ele>1329.3</ele>
        <time>2022-08-06T10:34:49Z</time>
      </trkpt>
      <trkpt lat="44.68779" lon="2.93176">
        <ele>1329.5</ele>
        <time>2022-08-06T10:34:52Z</time>
      </trkpt>
      <trkpt lat="44.6878" lon="2.93176">
        <ele>1329.6</ele>
        <time>2022-08-06T10:34:55Z</time>
      </trkpt>
      <trkpt lat="44.68781" lon="2.93176">
        <ele>1329.6</ele>
        <time>2022-08-06T10:35:01Z</time>
      </trkpt>
      <trkpt lat="44.68787" lon="2.93182">
        <ele>1330.4</ele>
        <time>2022-08-06T10:35:07Z</time>
      </trkpt>
      <trkpt lat="44.68788" lon="2.93183">
        <ele>1330.5</ele>
        <time>2022-08-06T10:35:08Z</time>
      </trkpt>
      <trkpt lat="44.68796" lon="2.93191">
        <ele>1331.3</ele>
        <time>2022-08-06T10:35:14Z</time>
      </trkpt>
      <trkpt lat="44.68799" lon="2.93195">
        <ele>1331.5</ele>
        <time>2022-08-06T10:35:16Z</time>
      </trkpt>
      <trkpt lat="44.68803" lon="2.93203">
        <ele>1331.6</ele>
        <time>2022-08-06T10:35:20Z</time>
      </trkpt>
      <trkpt lat="44.68805" lon="2.93208">
        <ele>1331.5</ele>
        <time>2022-08-06T10:35:24Z</time>
      </trkpt>
      <trkpt lat="44.68805" lon="2.93215">
        <ele>1331.3</ele>
        <time>2022-08-06T10:35:28Z</time>
      </trkpt>
      <trkpt lat="44.68806" lon="2.93221">
        <ele>1331.1</ele>
        <time>2022-08-06T10:35:32Z</time>
      </trkpt>
      <trkpt lat="44.68809" lon="2.93225">
        <ele>1331.2</ele>
        <time>2022-08-06T10:35:35Z</time>
      </trkpt>
      <trkpt lat="44.68811" lon="2.93226">
        <ele>1331.3</ele>
        <time>2022-08-06T10:35:36Z</time>
      </trkpt>
      <trkpt lat="44.68813" lon="2.93228">
        <ele>1331.5</ele>
        <time>2022-08-06T10:35:38Z</time>
      </trkpt>
      <trkpt lat="44.68815" lon="2.93229">
        <ele>1331.6</ele>
        <time>2022-08-06T10:35:41Z</time>
      </trkpt>
      <trkpt lat="44.68815" lon="2.93229">
        <ele>1331.6</ele>
        <time>2022-08-06T10:35:42Z</time>
      </trkpt>
      <trkpt lat="44.68814" lon="2.93231">
        <ele>1331.5</ele>
        <time>2022-08-06T10:35:46Z</time>
      </trkpt>
      <trkpt lat="44.68812" lon="2.93234">
        <ele>1331.3</ele>
        <time>2022-08-06T10:35:54Z</time>
      </trkpt>
      <trkpt lat="44.68811" lon="2.93233">
        <ele>1331.3</ele>
        <time>2022-08-06T10:36:14Z</time>
      </trkpt>
      <trkpt lat="44.68822" lon="2.93238">
        <ele>1331.8</ele>
        <time>2022-08-06T10:36:42Z</time>
      </trkpt>
      <trkpt lat="44.68826" lon="2.93239">
        <ele>1332</ele>
        <time>2022-08-06T10:36:44Z</time>
      </trkpt>
      <trkpt lat="44.68835" lon="2.93246">
        <ele>1332.2</ele>
        <time>2022-08-06T10:36:49Z</time>
      </trkpt>
      <trkpt lat="44.6884" lon="2.93247">
        <ele>1332.3</ele>
        <time>2022-08-06T10:36:54Z</time>
      </trkpt>
      <trkpt lat="44.68842" lon="2.93247">
        <ele>1332.4</ele>
        <time>2022-08-06T10:36:56Z</time>
      </trkpt>
      <trkpt lat="44.68844" lon="2.93247">
        <ele>1332.5</ele>
        <time>2022-08-06T10:36:57Z</time>
      </trkpt>
      <trkpt lat="44.68847" lon="2.93248">
        <ele>1332.5</ele>
        <time>2022-08-06T10:37:01Z</time>
      </trkpt>
      <trkpt lat="44.6885" lon="2.93249">
        <ele>1332.6</ele>
        <time>2022-08-06T10:37:04Z</time>
      </trkpt>
      <trkpt lat="44.68854" lon="2.9325">
        <ele>1332.7</ele>
        <time>2022-08-06T10:37:09Z</time>
      </trkpt>
      <trkpt lat="44.68858" lon="2.93252">
        <ele>1332.9</ele>
        <time>2022-08-06T10:37:12Z</time>
      </trkpt>
      <trkpt lat="44.68861" lon="2.93253">
        <ele>1333.1</ele>
        <time>2022-08-06T10:37:14Z</time>
      </trkpt>
      <trkpt lat="44.68863" lon="2.93254">
        <ele>1333.3</ele>
        <time>2022-08-06T10:37:16Z</time>
      </trkpt>
      <trkpt lat="44.68865" lon="2.93255">
        <ele>1333.4</ele>
        <time>2022-08-06T10:37:18Z</time>
      </trkpt>
      <trkpt lat="44.68866" lon="2.93256">
        <ele>1333.6</ele>
        <time>2022-08-06T10:37:19Z</time>
      </trkpt>
      <trkpt lat="44.68869" lon="2.9326">
        <ele>1333.8</ele>
        <time>2022-08-06T10:37:21Z</time>
      </trkpt>
      <trkpt lat="44.68874" lon="2.93262">
        <ele>1334.2</ele>
        <time>2022-08-06T10:37:25Z</time>
      </trkpt>
      <trkpt lat="44.6888" lon="2.93262">
        <ele>1334.5</ele>
        <time>2022-08-06T10:37:30Z</time>
      </trkpt>
      <trkpt lat="44.68882" lon="2.93259">
        <ele>1334.6</ele>
        <time>2022-08-06T10:37:33Z</time>
      </trkpt>
      <trkpt lat="44.68886" lon="2.93257">
        <ele>1334.8</ele>
        <time>2022-08-06T10:37:36Z</time>
      </trkpt>
      <trkpt lat="44.68894" lon="2.93258">
        <ele>1335.9</ele>
        <time>2022-08-06T10:37:43Z</time>
      </trkpt>
      <trkpt lat="44.68898" lon="2.93257">
        <ele>1336.6</ele>
        <time>2022-08-06T10:37:47Z</time>
      </trkpt>
      <trkpt lat="44.68899" lon="2.93255">
        <ele>1336.8</ele>
        <time>2022-08-06T10:37:49Z</time>
      </trkpt>
      <trkpt lat="44.68901" lon="2.93252">
        <ele>1337.1</ele>
        <time>2022-08-06T10:37:52Z</time>
      </trkpt>
      <trkpt lat="44.68905" lon="2.9325">
        <ele>1337.8</ele>
        <time>2022-08-06T10:37:56Z</time>
      </trkpt>
      <trkpt lat="44.68906" lon="2.9325">
        <ele>1338.1</ele>
        <time>2022-08-06T10:37:58Z</time>
      </trkpt>
      <trkpt lat="44.68913" lon="2.93252">
        <ele>1339.2</ele>
        <time>2022-08-06T10:38:04Z</time>
      </trkpt>
      <trkpt lat="44.68918" lon="2.93255">
        <ele>1339.9</ele>
        <time>2022-08-06T10:38:09Z</time>
      </trkpt>
      <trkpt lat="44.6892" lon="2.93257">
        <ele>1340</ele>
        <time>2022-08-06T10:38:10Z</time>
      </trkpt>
      <trkpt lat="44.68923" lon="2.93259">
        <ele>1340.2</ele>
        <time>2022-08-06T10:38:13Z</time>
      </trkpt>
      <trkpt lat="44.68924" lon="2.9326">
        <ele>1340.3</ele>
        <time>2022-08-06T10:38:14Z</time>
      </trkpt>
      <trkpt lat="44.68933" lon="2.93269">
        <ele>1340.9</ele>
        <time>2022-08-06T10:38:22Z</time>
      </trkpt>
      <trkpt lat="44.68935" lon="2.9327">
        <ele>1341</ele>
        <time>2022-08-06T10:38:24Z</time>
      </trkpt>
      <trkpt lat="44.68935" lon="2.93271">
        <ele>1341.1</ele>
        <time>2022-08-06T10:38:26Z</time>
      </trkpt>
      <trkpt lat="44.68935" lon="2.93272">
        <ele>1341.1</ele>
        <time>2022-08-06T10:38:27Z</time>
      </trkpt>
      <trkpt lat="44.68936" lon="2.93272">
        <ele>1341.1</ele>
        <time>2022-08-06T10:38:30Z</time>
      </trkpt>
      <trkpt lat="44.68936" lon="2.93272">
        <ele>1341.2</ele>
        <time>2022-08-06T10:38:31Z</time>
      </trkpt>
      <trkpt lat="44.68938" lon="2.93274">
        <ele>1341.3</ele>
        <time>2022-08-06T10:38:33Z</time>
      </trkpt>
      <trkpt lat="44.68939" lon="2.93273">
        <ele>1341.4</ele>
        <time>2022-08-06T10:38:39Z</time>
      </trkpt>
      <trkpt lat="44.6894" lon="2.93274">
        <ele>1341.5</ele>
        <time>2022-08-06T10:38:46Z</time>
      </trkpt>
      <trkpt lat="44.68945" lon="2.93277">
        <ele>1342</ele>
        <time>2022-08-06T10:38:54Z</time>
      </trkpt>
      <trkpt lat="44.68948" lon="2.93279">
        <ele>1341.2</ele>
        <time>2022-08-06T10:39:40Z</time>
      </trkpt>
      <trkpt lat="44.68954" lon="2.93276">
        <ele>1340.3</ele>
        <time>2022-08-06T10:40:06Z</time>
      </trkpt>
      <trkpt lat="44.68956" lon="2.93275">
        <ele>1340</ele>
        <time>2022-08-06T10:40:08Z</time>
      </trkpt>
      <trkpt lat="44.68958" lon="2.93273">
        <ele>1339.6</ele>
        <time>2022-08-06T10:40:10Z</time>
      </trkpt>
      <trkpt lat="44.68961" lon="2.93272">
        <ele>1339.1</ele>
        <time>2022-08-06T10:40:14Z</time>
      </trkpt>
      <trkpt lat="44.68964" lon="2.93268">
        <ele>1338.8</ele>
        <time>2022-08-06T10:40:19Z</time>
      </trkpt>
      <trkpt lat="44.68964" lon="2.93267">
        <ele>1338.7</ele>
        <time>2022-08-06T10:40:20Z</time>
      </trkpt>
      <trkpt lat="44.68968" lon="2.93265">
        <ele>1338.1</ele>
        <time>2022-08-06T10:40:26Z</time>
      </trkpt>
      <trkpt lat="44.68969" lon="2.93264">
        <ele>1338.1</ele>
        <time>2022-08-06T10:40:28Z</time>
      </trkpt>
      <trkpt lat="44.6897" lon="2.93265">
        <ele>1337.9</ele>
        <time>2022-08-06T10:40:33Z</time>
      </trkpt>
      <trkpt lat="44.68971" lon="2.93266">
        <ele>1337.6</ele>
        <time>2022-08-06T10:40:39Z</time>
      </trkpt>
      <trkpt lat="44.68973" lon="2.93265">
        <ele>1337.3</ele>
        <time>2022-08-06T10:40:40Z</time>
      </trkpt>
      <trkpt lat="44.68978" lon="2.93264">
        <ele>1336.4</ele>
        <time>2022-08-06T10:40:45Z</time>
      </trkpt>
      <trkpt lat="44.68981" lon="2.93264">
        <ele>1336</ele>
        <time>2022-08-06T10:40:48Z</time>
      </trkpt>
      <trkpt lat="44.68984" lon="2.93265">
        <ele>1335.4</ele>
        <time>2022-08-06T10:40:52Z</time>
      </trkpt>
      <trkpt lat="44.68986" lon="2.93265">
        <ele>1335</ele>
        <time>2022-08-06T10:40:54Z</time>
      </trkpt>
      <trkpt lat="44.68991" lon="2.93266">
        <ele>1334.1</ele>
        <time>2022-08-06T10:40:59Z</time>
      </trkpt>
      <trkpt lat="44.68994" lon="2.93268">
        <ele>1333.7</ele>
        <time>2022-08-06T10:41:01Z</time>
      </trkpt>
      <trkpt lat="44.68997" lon="2.93268">
        <ele>1333.2</ele>
        <time>2022-08-06T10:41:03Z</time>
      </trkpt>
      <trkpt lat="44.68998" lon="2.93268">
        <ele>1333</ele>
        <time>2022-08-06T10:41:06Z</time>
      </trkpt>
      <trkpt lat="44.69" lon="2.93268">
        <ele>1332.7</ele>
        <time>2022-08-06T10:41:08Z</time>
      </trkpt>
      <trkpt lat="44.69003" lon="2.93269">
        <ele>1332.3</ele>
        <time>2022-08-06T10:41:11Z</time>
      </trkpt>
      <trkpt lat="44.69004" lon="2.9327">
        <ele>1332</ele>
        <time>2022-08-06T10:41:13Z</time>
      </trkpt>
      <trkpt lat="44.69005" lon="2.9327">
        <ele>1331.8</ele>
        <time>2022-08-06T10:41:15Z</time>
      </trkpt>
      <trkpt lat="44.69006" lon="2.93269">
        <ele>1331.7</ele>
        <time>2022-08-06T10:41:16Z</time>
      </trkpt>
      <trkpt lat="44.69008" lon="2.93268">
        <ele>1331.5</ele>
        <time>2022-08-06T10:41:18Z</time>
      </trkpt>
      <trkpt lat="44.69009" lon="2.93268">
        <ele>1331.2</ele>
        <time>2022-08-06T10:41:19Z</time>
      </trkpt>
      <trkpt lat="44.69013" lon="2.9327">
        <ele>1330.6</ele>
        <time>2022-08-06T10:41:23Z</time>
      </trkpt>
      <trkpt lat="44.69016" lon="2.93271">
        <ele>1330.2</ele>
        <time>2022-08-06T10:41:26Z</time>
      </trkpt>
      <trkpt lat="44.69018" lon="2.93271">
        <ele>1329.8</ele>
        <time>2022-08-06T10:41:28Z</time>
      </trkpt>
      <trkpt lat="44.69021" lon="2.9327">
        <ele>1329.4</ele>
        <time>2022-08-06T10:41:30Z</time>
      </trkpt>
      <trkpt lat="44.69022" lon="2.9327">
        <ele>1329.2</ele>
        <time>2022-08-06T10:41:31Z</time>
      </trkpt>
      <trkpt lat="44.69024" lon="2.93271">
        <ele>1328.9</ele>
        <time>2022-08-06T10:41:32Z</time>
      </trkpt>
      <trkpt lat="44.69024" lon="2.93271">
        <ele>1328.8</ele>
        <time>2022-08-06T10:41:33Z</time>
      </trkpt>
      <trkpt lat="44.69025" lon="2.93272">
        <ele>1328.6</ele>
        <time>2022-08-06T10:41:38Z</time>
      </trkpt>
      <trkpt lat="44.69026" lon="2.93272">
        <ele>1328.6</ele>
        <time>2022-08-06T10:41:39Z</time>
      </trkpt>
      <trkpt lat="44.69026" lon="2.93272">
        <ele>1328.5</ele>
        <time>2022-08-06T10:41:40Z</time>
      </trkpt>
      <trkpt lat="44.69026" lon="2.9327">
        <ele>1328.5</ele>
        <time>2022-08-06T10:41:42Z</time>
      </trkpt>
      <trkpt lat="44.69026" lon="2.9327">
        <ele>1328.6</ele>
        <time>2022-08-06T10:41:44Z</time>
      </trkpt>
      <trkpt lat="44.69026" lon="2.9327">
        <ele>1328.6</ele>
        <time>2022-08-06T10:41:45Z</time>
      </trkpt>
      <trkpt lat="44.69027" lon="2.93271">
        <ele>1328.4</ele>
        <time>2022-08-06T10:41:48Z</time>
      </trkpt>
      <trkpt lat="44.69027" lon="2.9327">
        <ele>1328.5</ele>
        <time>2022-08-06T10:41:55Z</time>
      </trkpt>
      <trkpt lat="44.69032" lon="2.93268">
        <ele>1328.2</ele>
        <time>2022-08-06T10:42:02Z</time>
      </trkpt>
      <trkpt lat="44.69034" lon="2.93268">
        <ele>1328.1</ele>
        <time>2022-08-06T10:42:03Z</time>
      </trkpt>
      <trkpt lat="44.69044" lon="2.93268">
        <ele>1327.8</ele>
        <time>2022-08-06T10:42:10Z</time>
      </trkpt>
      <trkpt lat="44.69053" lon="2.93267">
        <ele>1327.5</ele>
        <time>2022-08-06T10:42:18Z</time>
      </trkpt>
      <trkpt lat="44.69063" lon="2.93265">
        <ele>1326.7</ele>
        <time>2022-08-06T10:42:27Z</time>
      </trkpt>
      <trkpt lat="44.69072" lon="2.93264">
        <ele>1325.7</ele>
        <time>2022-08-06T10:42:35Z</time>
      </trkpt>
      <trkpt lat="44.69075" lon="2.93263">
        <ele>1325.4</ele>
        <time>2022-08-06T10:42:38Z</time>
      </trkpt>
      <trkpt lat="44.69075" lon="2.93262">
        <ele>1325.3</ele>
        <time>2022-08-06T10:42:39Z</time>
      </trkpt>
      <trkpt lat="44.69077" lon="2.93261">
        <ele>1325.2</ele>
        <time>2022-08-06T10:42:41Z</time>
      </trkpt>
      <trkpt lat="44.69079" lon="2.93258">
        <ele>1324.9</ele>
        <time>2022-08-06T10:42:44Z</time>
      </trkpt>
      <trkpt lat="44.69081" lon="2.93257">
        <ele>1324.6</ele>
        <time>2022-08-06T10:42:46Z</time>
      </trkpt>
      <trkpt lat="44.69087" lon="2.93253">
        <ele>1323.8</ele>
        <time>2022-08-06T10:42:52Z</time>
      </trkpt>
      <trkpt lat="44.69092" lon="2.93249">
        <ele>1323.1</ele>
        <time>2022-08-06T10:42:58Z</time>
      </trkpt>
      <trkpt lat="44.69095" lon="2.93247">
        <ele>1322.8</ele>
        <time>2022-08-06T10:43:01Z</time>
      </trkpt>
      <trkpt lat="44.69097" lon="2.93246">
        <ele>1322.5</ele>
        <time>2022-08-06T10:43:04Z</time>
      </trkpt>
      <trkpt lat="44.691" lon="2.93246">
        <ele>1322.2</ele>
        <time>2022-08-06T10:43:08Z</time>
      </trkpt>
      <trkpt lat="44.69107" lon="2.93247">
        <ele>1321.4</ele>
        <time>2022-08-06T10:43:14Z</time>
      </trkpt>
      <trkpt lat="44.69114" lon="2.93247">
        <ele>1320.9</ele>
        <time>2022-08-06T10:43:18Z</time>
      </trkpt>
      <trkpt lat="44.6912" lon="2.93248">
        <ele>1320.7</ele>
        <time>2022-08-06T10:43:23Z</time>
      </trkpt>
      <trkpt lat="44.69131" lon="2.93251">
        <ele>1320.3</ele>
        <time>2022-08-06T10:43:32Z</time>
      </trkpt>
      <trkpt lat="44.69143" lon="2.93256">
        <ele>1319.6</ele>
        <time>2022-08-06T10:43:42Z</time>
      </trkpt>
      <trkpt lat="44.69151" lon="2.93257">
        <ele>1319.3</ele>
        <time>2022-08-06T10:43:49Z</time>
      </trkpt>
      <trkpt lat="44.69162" lon="2.93258">
        <ele>1318.9</ele>
        <time>2022-08-06T10:43:58Z</time>
      </trkpt>
      <trkpt lat="44.6917" lon="2.93259">
        <ele>1318.4</ele>
        <time>2022-08-06T10:44:04Z</time>
      </trkpt>
      <trkpt lat="44.69174" lon="2.93258">
        <ele>1317.9</ele>
        <time>2022-08-06T10:44:08Z</time>
      </trkpt>
      <trkpt lat="44.69182" lon="2.93259">
        <ele>1317.2</ele>
        <time>2022-08-06T10:44:15Z</time>
      </trkpt>
      <trkpt lat="44.69188" lon="2.93258">
        <ele>1316.6</ele>
        <time>2022-08-06T10:44:20Z</time>
      </trkpt>
      <trkpt lat="44.69192" lon="2.93259">
        <ele>1316.2</ele>
        <time>2022-08-06T10:44:24Z</time>
      </trkpt>
      <trkpt lat="44.69199" lon="2.93259">
        <ele>1315.5</ele>
        <time>2022-08-06T10:44:31Z</time>
      </trkpt>
      <trkpt lat="44.69207" lon="2.93257">
        <ele>1314.7</ele>
        <time>2022-08-06T10:44:38Z</time>
      </trkpt>
      <trkpt lat="44.69208" lon="2.93257">
        <ele>1314.6</ele>
        <time>2022-08-06T10:44:39Z</time>
      </trkpt>
      <trkpt lat="44.6922" lon="2.93255">
        <ele>1313.4</ele>
        <time>2022-08-06T10:44:49Z</time>
      </trkpt>
      <trkpt lat="44.69221" lon="2.93255">
        <ele>1313.3</ele>
        <time>2022-08-06T10:44:50Z</time>
      </trkpt>
      <trkpt lat="44.69229" lon="2.93254">
        <ele>1312.9</ele>
        <time>2022-08-06T10:44:58Z</time>
      </trkpt>
      <trkpt lat="44.69239" lon="2.93254">
        <ele>1312.5</ele>
        <time>2022-08-06T10:45:07Z</time>
      </trkpt>
      <trkpt lat="44.69241" lon="2.93254">
        <ele>1312.4</ele>
        <time>2022-08-06T10:45:09Z</time>
      </trkpt>
      <trkpt lat="44.69249" lon="2.93253">
        <ele>1312.1</ele>
        <time>2022-08-06T10:45:16Z</time>
      </trkpt>
      <trkpt lat="44.69255" lon="2.93251">
        <ele>1311.6</ele>
        <time>2022-08-06T10:45:21Z</time>
      </trkpt>
      <trkpt lat="44.69261" lon="2.93252">
        <ele>1311.2</ele>
        <time>2022-08-06T10:45:26Z</time>
      </trkpt>
      <trkpt lat="44.6927" lon="2.93252">
        <ele>1310.6</ele>
        <time>2022-08-06T10:45:33Z</time>
      </trkpt>
      <trkpt lat="44.69274" lon="2.93251">
        <ele>1310.3</ele>
        <time>2022-08-06T10:45:36Z</time>
      </trkpt>
      <trkpt lat="44.69286" lon="2.9325">
        <ele>1309.7</ele>
        <time>2022-08-06T10:45:45Z</time>
      </trkpt>
      <trkpt lat="44.69298" lon="2.93249">
        <ele>1309.3</ele>
        <time>2022-08-06T10:45:55Z</time>
      </trkpt>
      <trkpt lat="44.6931" lon="2.93249">
        <ele>1308.7</ele>
        <time>2022-08-06T10:46:04Z</time>
      </trkpt>
      <trkpt lat="44.69312" lon="2.93249">
        <ele>1308.5</ele>
        <time>2022-08-06T10:46:06Z</time>
      </trkpt>
      <trkpt lat="44.69323" lon="2.93249">
        <ele>1307.7</ele>
        <time>2022-08-06T10:46:15Z</time>
      </trkpt>
      <trkpt lat="44.69333" lon="2.93248">
        <ele>1307.1</ele>
        <time>2022-08-06T10:46:23Z</time>
      </trkpt>
      <trkpt lat="44.69346" lon="2.93246">
        <ele>1307.1</ele>
        <time>2022-08-06T10:46:34Z</time>
      </trkpt>
      <trkpt lat="44.69356" lon="2.93246">
        <ele>1307</ele>
        <time>2022-08-06T10:46:42Z</time>
      </trkpt>
      <trkpt lat="44.6937" lon="2.93246">
        <ele>1306.7</ele>
        <time>2022-08-06T10:46:54Z</time>
      </trkpt>
      <trkpt lat="44.69388" lon="2.93245">
        <ele>1306</ele>
        <time>2022-08-06T10:47:07Z</time>
      </trkpt>
      <trkpt lat="44.69397" lon="2.93245">
        <ele>1305.8</ele>
        <time>2022-08-06T10:47:15Z</time>
      </trkpt>
      <trkpt lat="44.69408" lon="2.93243">
        <ele>1305.5</ele>
        <time>2022-08-06T10:47:24Z</time>
      </trkpt>
      <trkpt lat="44.69418" lon="2.93243">
        <ele>1305.2</ele>
        <time>2022-08-06T10:47:33Z</time>
      </trkpt>
      <trkpt lat="44.69429" lon="2.93243">
        <ele>1304.8</ele>
        <time>2022-08-06T10:47:41Z</time>
      </trkpt>
      <trkpt lat="44.69434" lon="2.93244">
        <ele>1304.6</ele>
        <time>2022-08-06T10:47:45Z</time>
      </trkpt>
      <trkpt lat="44.69447" lon="2.93246">
        <ele>1304.1</ele>
        <time>2022-08-06T10:47:56Z</time>
      </trkpt>
      <trkpt lat="44.69457" lon="2.93246">
        <ele>1304.1</ele>
        <time>2022-08-06T10:48:04Z</time>
      </trkpt>
      <trkpt lat="44.69462" lon="2.93247">
        <ele>1304</ele>
        <time>2022-08-06T10:48:09Z</time>
      </trkpt>
      <trkpt lat="44.69466" lon="2.93246">
        <ele>1304</ele>
        <time>2022-08-06T10:48:12Z</time>
      </trkpt>
      <trkpt lat="44.69471" lon="2.93245">
        <ele>1304</ele>
        <time>2022-08-06T10:48:17Z</time>
      </trkpt>
      <trkpt lat="44.69477" lon="2.93245">
        <ele>1303.8</ele>
        <time>2022-08-06T10:48:23Z</time>
      </trkpt>
      <trkpt lat="44.69489" lon="2.93244">
        <ele>1303.4</ele>
        <time>2022-08-06T10:48:32Z</time>
      </trkpt>
      <trkpt lat="44.69501" lon="2.93242">
        <ele>1303</ele>
        <time>2022-08-06T10:48:42Z</time>
      </trkpt>
      <trkpt lat="44.69512" lon="2.93239">
        <ele>1303.2</ele>
        <time>2022-08-06T10:48:51Z</time>
      </trkpt>
      <trkpt lat="44.69524" lon="2.93239">
        <ele>1303.5</ele>
        <time>2022-08-06T10:49:01Z</time>
      </trkpt>
      <trkpt lat="44.69535" lon="2.93238">
        <ele>1303.8</ele>
        <time>2022-08-06T10:49:10Z</time>
      </trkpt>
      <trkpt lat="44.69543" lon="2.9324">
        <ele>1304.2</ele>
        <time>2022-08-06T10:49:17Z</time>
      </trkpt>
      <trkpt lat="44.69551" lon="2.9324">
        <ele>1304.4</ele>
        <time>2022-08-06T10:49:23Z</time>
      </trkpt>
      <trkpt lat="44.69552" lon="2.9324">
        <ele>1304.5</ele>
        <time>2022-08-06T10:49:24Z</time>
      </trkpt>
      <trkpt lat="44.69561" lon="2.9324">
        <ele>1304.7</ele>
        <time>2022-08-06T10:49:32Z</time>
      </trkpt>
      <trkpt lat="44.69575" lon="2.93242">
        <ele>1304.9</ele>
        <time>2022-08-06T10:49:43Z</time>
      </trkpt>
      <trkpt lat="44.69587" lon="2.93242">
        <ele>1305</ele>
        <time>2022-08-06T10:49:53Z</time>
      </trkpt>
      <trkpt lat="44.69597" lon="2.93242">
        <ele>1305</ele>
        <time>2022-08-06T10:50:01Z</time>
      </trkpt>
      <trkpt lat="44.69607" lon="2.93242">
        <ele>1305</ele>
        <time>2022-08-06T10:50:09Z</time>
      </trkpt>
      <trkpt lat="44.6962" lon="2.93243">
        <ele>1305.6</ele>
        <time>2022-08-06T10:50:21Z</time>
      </trkpt>
      <trkpt lat="44.6962" lon="2.93243">
        <ele>1305.7</ele>
        <time>2022-08-06T10:50:23Z</time>
      </trkpt>
      <trkpt lat="44.69621" lon="2.93243">
        <ele>1305.7</ele>
        <time>2022-08-06T10:50:26Z</time>
      </trkpt>
      <trkpt lat="44.69625" lon="2.93242">
        <ele>1306</ele>
        <time>2022-08-06T10:50:34Z</time>
      </trkpt>
      <trkpt lat="44.69635" lon="2.93242">
        <ele>1306.7</ele>
        <time>2022-08-06T10:50:43Z</time>
      </trkpt>
      <trkpt lat="44.69638" lon="2.93241">
        <ele>1306.9</ele>
        <time>2022-08-06T10:50:46Z</time>
      </trkpt>
      <trkpt lat="44.69646" lon="2.93242">
        <ele>1307.3</ele>
        <time>2022-08-06T10:50:52Z</time>
      </trkpt>
      <trkpt lat="44.69658" lon="2.93242">
        <ele>1307.7</ele>
        <time>2022-08-06T10:51:02Z</time>
      </trkpt>
      <trkpt lat="44.69664" lon="2.93245">
        <ele>1307.9</ele>
        <time>2022-08-06T10:51:07Z</time>
      </trkpt>
      <trkpt lat="44.69666" lon="2.93248">
        <ele>1308</ele>
        <time>2022-08-06T10:51:11Z</time>
      </trkpt>
      <trkpt lat="44.69667" lon="2.93249">
        <ele>1308.1</ele>
        <time>2022-08-06T10:51:14Z</time>
      </trkpt>
      <trkpt lat="44.69668" lon="2.93249">
        <ele>1308.1</ele>
        <time>2022-08-06T10:51:16Z</time>
      </trkpt>
      <trkpt lat="44.69668" lon="2.9325">
        <ele>1308.1</ele>
        <time>2022-08-06T10:51:23Z</time>
      </trkpt>
      <trkpt lat="44.69666" lon="2.9325">
        <ele>1308</ele>
        <time>2022-08-06T10:51:33Z</time>
      </trkpt>
      <trkpt lat="44.69666" lon="2.9325">
        <ele>1308</ele>
        <time>2022-08-06T10:51:36Z</time>
      </trkpt>
      <trkpt lat="44.69669" lon="2.93257">
        <ele>1308.5</ele>
        <time>2022-08-06T10:51:41Z</time>
      </trkpt>
      <trkpt lat="44.69674" lon="2.93274">
        <ele>1309.6</ele>
        <time>2022-08-06T10:51:50Z</time>
      </trkpt>
      <trkpt lat="44.69674" lon="2.93275">
        <ele>1309.7</ele>
        <time>2022-08-06T10:51:51Z</time>
      </trkpt>
      <trkpt lat="44.69676" lon="2.93285">
        <ele>1310.2</ele>
        <time>2022-08-06T10:51:58Z</time>
      </trkpt>
      <trkpt lat="44.69677" lon="2.93288">
        <ele>1310.3</ele>
        <time>2022-08-06T10:52:00Z</time>
      </trkpt>
      <trkpt lat="44.69679" lon="2.93295">
        <ele>1310.7</ele>
        <time>2022-08-06T10:52:06Z</time>
      </trkpt>
      <trkpt lat="44.69682" lon="2.93303">
        <ele>1311</ele>
        <time>2022-08-06T10:52:12Z</time>
      </trkpt>
      <trkpt lat="44.69683" lon="2.93308">
        <ele>1311.3</ele>
        <time>2022-08-06T10:52:15Z</time>
      </trkpt>
      <trkpt lat="44.69687" lon="2.93319">
        <ele>1311.7</ele>
        <time>2022-08-06T10:52:22Z</time>
      </trkpt>
      <trkpt lat="44.69688" lon="2.93322">
        <ele>1311.8</ele>
        <time>2022-08-06T10:52:24Z</time>
      </trkpt>
      <trkpt lat="44.69692" lon="2.9334">
        <ele>1312</ele>
        <time>2022-08-06T10:52:35Z</time>
      </trkpt>
      <trkpt lat="44.69696" lon="2.93359">
        <ele>1312.1</ele>
        <time>2022-08-06T10:52:46Z</time>
      </trkpt>
      <trkpt lat="44.697" lon="2.93373">
        <ele>1312.6</ele>
        <time>2022-08-06T10:52:55Z</time>
      </trkpt>
      <trkpt lat="44.69704" lon="2.93388">
        <ele>1313</ele>
        <time>2022-08-06T10:53:05Z</time>
      </trkpt>
      <trkpt lat="44.69704" lon="2.93388">
        <ele>1313</ele>
        <time>2022-08-06T10:53:07Z</time>
      </trkpt>
      <trkpt lat="44.69703" lon="2.93389">
        <ele>1312.9</ele>
        <time>2022-08-06T10:53:11Z</time>
      </trkpt>
      <trkpt lat="44.69704" lon="2.93392">
        <ele>1313</ele>
        <time>2022-08-06T10:53:20Z</time>
      </trkpt>
      <trkpt lat="44.69706" lon="2.93405">
        <ele>1313.3</ele>
        <time>2022-08-06T10:53:28Z</time>
      </trkpt>
      <trkpt lat="44.69711" lon="2.9342">
        <ele>1313.9</ele>
        <time>2022-08-06T10:53:37Z</time>
      </trkpt>
      <trkpt lat="44.69712" lon="2.93423">
        <ele>1314.2</ele>
        <time>2022-08-06T10:53:40Z</time>
      </trkpt>
      <trkpt lat="44.69714" lon="2.9343">
        <ele>1314.7</ele>
        <time>2022-08-06T10:53:45Z</time>
      </trkpt>
      <trkpt lat="44.69715" lon="2.93436">
        <ele>1315.1</ele>
        <time>2022-08-06T10:53:51Z</time>
      </trkpt>
      <trkpt lat="44.69716" lon="2.93438">
        <ele>1315.2</ele>
        <time>2022-08-06T10:53:52Z</time>
      </trkpt>
      <trkpt lat="44.69718" lon="2.93447">
        <ele>1315.7</ele>
        <time>2022-08-06T10:54:00Z</time>
      </trkpt>
      <trkpt lat="44.69718" lon="2.93448">
        <ele>1315.8</ele>
        <time>2022-08-06T10:54:01Z</time>
      </trkpt>
      <trkpt lat="44.69722" lon="2.93457">
        <ele>1316.4</ele>
        <time>2022-08-06T10:54:09Z</time>
      </trkpt>
      <trkpt lat="44.69722" lon="2.93459">
        <ele>1316.5</ele>
        <time>2022-08-06T10:54:11Z</time>
      </trkpt>
      <trkpt lat="44.69725" lon="2.93471">
        <ele>1317.5</ele>
        <time>2022-08-06T10:54:21Z</time>
      </trkpt>
      <trkpt lat="44.69728" lon="2.93484">
        <ele>1318.5</ele>
        <time>2022-08-06T10:54:31Z</time>
      </trkpt>
      <trkpt lat="44.69731" lon="2.93492">
        <ele>1319.2</ele>
        <time>2022-08-06T10:54:37Z</time>
      </trkpt>
      <trkpt lat="44.69734" lon="2.93497">
        <ele>1319.9</ele>
        <time>2022-08-06T10:54:42Z</time>
      </trkpt>
      <trkpt lat="44.69735" lon="2.93502">
        <ele>1320.4</ele>
        <time>2022-08-06T10:54:47Z</time>
      </trkpt>
      <trkpt lat="44.69736" lon="2.93507">
        <ele>1321</ele>
        <time>2022-08-06T10:54:51Z</time>
      </trkpt>
      <trkpt lat="44.69737" lon="2.93515">
        <ele>1321.7</ele>
        <time>2022-08-06T10:54:58Z</time>
      </trkpt>
      <trkpt lat="44.69738" lon="2.9352">
        <ele>1322.2</ele>
        <time>2022-08-06T10:55:02Z</time>
      </trkpt>
      <trkpt lat="44.69739" lon="2.93521">
        <ele>1322.3</ele>
        <time>2022-08-06T10:55:03Z</time>
      </trkpt>
      <trkpt lat="44.69741" lon="2.93531">
        <ele>1322.9</ele>
        <time>2022-08-06T10:55:11Z</time>
      </trkpt>
      <trkpt lat="44.69746" lon="2.93545">
        <ele>1323</ele>
        <time>2022-08-06T10:55:22Z</time>
      </trkpt>
      <trkpt lat="44.69753" lon="2.9356">
        <ele>1323.1</ele>
        <time>2022-08-06T10:55:33Z</time>
      </trkpt>
      <trkpt lat="44.69758" lon="2.93573">
        <ele>1323.3</ele>
        <time>2022-08-06T10:55:43Z</time>
      </trkpt>
      <trkpt lat="44.69759" lon="2.93574">
        <ele>1323.3</ele>
        <time>2022-08-06T10:55:44Z</time>
      </trkpt>
      <trkpt lat="44.69765" lon="2.93584">
        <ele>1323.6</ele>
        <time>2022-08-06T10:55:53Z</time>
      </trkpt>
      <trkpt lat="44.6977" lon="2.93596">
        <ele>1324</ele>
        <time>2022-08-06T10:56:02Z</time>
      </trkpt>
      <trkpt lat="44.69775" lon="2.9361">
        <ele>1323.9</ele>
        <time>2022-08-06T10:56:12Z</time>
      </trkpt>
      <trkpt lat="44.69779" lon="2.93619">
        <ele>1324.1</ele>
        <time>2022-08-06T10:56:19Z</time>
      </trkpt>
      <trkpt lat="44.69784" lon="2.93634">
        <ele>1324.3</ele>
        <time>2022-08-06T10:56:30Z</time>
      </trkpt>
      <trkpt lat="44.69791" lon="2.93653">
        <ele>1324</ele>
        <time>2022-08-06T10:56:43Z</time>
      </trkpt>
      <trkpt lat="44.69796" lon="2.93664">
        <ele>1323.8</ele>
        <time>2022-08-06T10:56:51Z</time>
      </trkpt>
      <trkpt lat="44.69803" lon="2.93678">
        <ele>1323.5</ele>
        <time>2022-08-06T10:57:01Z</time>
      </trkpt>
      <trkpt lat="44.69811" lon="2.93691">
        <ele>1323.3</ele>
        <time>2022-08-06T10:57:11Z</time>
      </trkpt>
      <trkpt lat="44.69816" lon="2.93702">
        <ele>1323</ele>
        <time>2022-08-06T10:57:19Z</time>
      </trkpt>
      <trkpt lat="44.69817" lon="2.93704">
        <ele>1322.9</ele>
        <time>2022-08-06T10:57:21Z</time>
      </trkpt>
      <trkpt lat="44.69825" lon="2.93718">
        <ele>1322.6</ele>
        <time>2022-08-06T10:57:31Z</time>
      </trkpt>
      <trkpt lat="44.69834" lon="2.93735">
        <ele>1322.1</ele>
        <time>2022-08-06T10:57:43Z</time>
      </trkpt>
      <trkpt lat="44.69843" lon="2.93749">
        <ele>1321.4</ele>
        <time>2022-08-06T10:57:55Z</time>
      </trkpt>
      <trkpt lat="44.69849" lon="2.93765">
        <ele>1321</ele>
        <time>2022-08-06T10:58:07Z</time>
      </trkpt>
      <trkpt lat="44.69856" lon="2.93779">
        <ele>1320.7</ele>
        <time>2022-08-06T10:58:17Z</time>
      </trkpt>
      <trkpt lat="44.69861" lon="2.93793">
        <ele>1319.9</ele>
        <time>2022-08-06T10:58:26Z</time>
      </trkpt>
      <trkpt lat="44.69866" lon="2.93803">
        <ele>1319.4</ele>
        <time>2022-08-06T10:58:33Z</time>
      </trkpt>
      <trkpt lat="44.69871" lon="2.93811">
        <ele>1319.2</ele>
        <time>2022-08-06T10:58:39Z</time>
      </trkpt>
      <trkpt lat="44.69878" lon="2.93823">
        <ele>1319</ele>
        <time>2022-08-06T10:58:48Z</time>
      </trkpt>
      <trkpt lat="44.69889" lon="2.93845">
        <ele>1318.6</ele>
        <time>2022-08-06T10:59:03Z</time>
      </trkpt>
      <trkpt lat="44.69897" lon="2.93858">
        <ele>1318.4</ele>
        <time>2022-08-06T10:59:13Z</time>
      </trkpt>
      <trkpt lat="44.69904" lon="2.93874">
        <ele>1317.9</ele>
        <time>2022-08-06T10:59:24Z</time>
      </trkpt>
      <trkpt lat="44.69909" lon="2.93889">
        <ele>1317.4</ele>
        <time>2022-08-06T10:59:34Z</time>
      </trkpt>
      <trkpt lat="44.69915" lon="2.93904">
        <ele>1317.3</ele>
        <time>2022-08-06T10:59:45Z</time>
      </trkpt>
      <trkpt lat="44.69916" lon="2.93905">
        <ele>1317.4</ele>
        <time>2022-08-06T10:59:46Z</time>
      </trkpt>
      <trkpt lat="44.69923" lon="2.9392">
        <ele>1317</ele>
        <time>2022-08-06T10:59:56Z</time>
      </trkpt>
      <trkpt lat="44.69928" lon="2.93933">
        <ele>1316.5</ele>
        <time>2022-08-06T11:00:06Z</time>
      </trkpt>
      <trkpt lat="44.69933" lon="2.93943">
        <ele>1316.3</ele>
        <time>2022-08-06T11:00:14Z</time>
      </trkpt>
      <trkpt lat="44.69934" lon="2.93945">
        <ele>1316.2</ele>
        <time>2022-08-06T11:00:15Z</time>
      </trkpt>
      <trkpt lat="44.69941" lon="2.93965">
        <ele>1316</ele>
        <time>2022-08-06T11:00:29Z</time>
      </trkpt>
      <trkpt lat="44.69945" lon="2.93983">
        <ele>1315.6</ele>
        <time>2022-08-06T11:00:41Z</time>
      </trkpt>
      <trkpt lat="44.69948" lon="2.93996">
        <ele>1315.3</ele>
        <time>2022-08-06T11:00:49Z</time>
      </trkpt>
      <trkpt lat="44.69951" lon="2.94004">
        <ele>1315.2</ele>
        <time>2022-08-06T11:00:54Z</time>
      </trkpt>
      <trkpt lat="44.69957" lon="2.94022">
        <ele>1315.1</ele>
        <time>2022-08-06T11:01:05Z</time>
      </trkpt>
      <trkpt lat="44.69957" lon="2.94025">
        <ele>1315</ele>
        <time>2022-08-06T11:01:07Z</time>
      </trkpt>
      <trkpt lat="44.69959" lon="2.94034">
        <ele>1314.9</ele>
        <time>2022-08-06T11:01:13Z</time>
      </trkpt>
      <trkpt lat="44.69961" lon="2.94056">
        <ele>1314.6</ele>
        <time>2022-08-06T11:01:27Z</time>
      </trkpt>
      <trkpt lat="44.69962" lon="2.94061">
        <ele>1314.4</ele>
        <time>2022-08-06T11:01:30Z</time>
      </trkpt>
      <trkpt lat="44.69962" lon="2.94069">
        <ele>1314</ele>
        <time>2022-08-06T11:01:35Z</time>
      </trkpt>
      <trkpt lat="44.69964" lon="2.94083">
        <ele>1313.4</ele>
        <time>2022-08-06T11:01:44Z</time>
      </trkpt>
      <trkpt lat="44.69964" lon="2.94094">
        <ele>1312.6</ele>
        <time>2022-08-06T11:01:51Z</time>
      </trkpt>
      <trkpt lat="44.69965" lon="2.94102">
        <ele>1312.2</ele>
        <time>2022-08-06T11:01:55Z</time>
      </trkpt>
      <trkpt lat="44.69965" lon="2.94119">
        <ele>1311.4</ele>
        <time>2022-08-06T11:02:06Z</time>
      </trkpt>
      <trkpt lat="44.69964" lon="2.94125">
        <ele>1311.2</ele>
        <time>2022-08-06T11:02:10Z</time>
      </trkpt>
      <trkpt lat="44.69963" lon="2.94127">
        <ele>1311.2</ele>
        <time>2022-08-06T11:02:12Z</time>
      </trkpt>
      <trkpt lat="44.69963" lon="2.94127">
        <ele>1311.1</ele>
        <time>2022-08-06T11:02:14Z</time>
      </trkpt>
      <trkpt lat="44.69963" lon="2.94126">
        <ele>1311.1</ele>
        <time>2022-08-06T11:02:21Z</time>
      </trkpt>
      <trkpt lat="44.69963" lon="2.94129">
        <ele>1311.1</ele>
        <time>2022-08-06T11:02:36Z</time>
      </trkpt>
      <trkpt lat="44.69963" lon="2.94147">
        <ele>1311</ele>
        <time>2022-08-06T11:02:45Z</time>
      </trkpt>
      <trkpt lat="44.69962" lon="2.94166">
        <ele>1310.8</ele>
        <time>2022-08-06T11:02:57Z</time>
      </trkpt>
      <trkpt lat="44.69958" lon="2.94175">
        <ele>1310.4</ele>
        <time>2022-08-06T11:03:06Z</time>
      </trkpt>
      <trkpt lat="44.69958" lon="2.94175">
        <ele>1310.5</ele>
        <time>2022-08-06T11:03:07Z</time>
      </trkpt>
      <trkpt lat="44.69957" lon="2.94176">
        <ele>1310.3</ele>
        <time>2022-08-06T11:03:15Z</time>
      </trkpt>
      <trkpt lat="44.69957" lon="2.94176">
        <ele>1310.3</ele>
        <time>2022-08-06T11:03:19Z</time>
      </trkpt>
      <trkpt lat="44.69957" lon="2.94176">
        <ele>1310.3</ele>
        <time>2022-08-06T11:03:28Z</time>
      </trkpt>
      <trkpt lat="44.69956" lon="2.94176">
        <ele>1310.3</ele>
        <time>2022-08-06T11:03:43Z</time>
      </trkpt>
      <trkpt lat="44.69956" lon="2.94177">
        <ele>1310.3</ele>
        <time>2022-08-06T11:03:57Z</time>
      </trkpt>
      <trkpt lat="44.69958" lon="2.94174">
        <ele>1310.5</ele>
        <time>2022-08-06T11:04:39Z</time>
      </trkpt>
      <trkpt lat="44.69958" lon="2.94174">
        <ele>1310.5</ele>
        <time>2022-08-06T11:04:49Z</time>
      </trkpt>
      <trkpt lat="44.69957" lon="2.94177">
        <ele>1310.3</ele>
        <time>2022-08-06T11:05:30Z</time>
      </trkpt>
      <trkpt lat="44.69956" lon="2.94183">
        <ele>1310.3</ele>
        <time>2022-08-06T11:05:46Z</time>
      </trkpt>
      <trkpt lat="44.69957" lon="2.94196">
        <ele>1310.3</ele>
        <time>2022-08-06T11:05:54Z</time>
      </trkpt>
      <trkpt lat="44.69954" lon="2.94209">
        <ele>1309.7</ele>
        <time>2022-08-06T11:06:02Z</time>
      </trkpt>
      <trkpt lat="44.69951" lon="2.94223">
        <ele>1308.9</ele>
        <time>2022-08-06T11:06:11Z</time>
      </trkpt>
      <trkpt lat="44.69949" lon="2.94241">
        <ele>1308.6</ele>
        <time>2022-08-06T11:06:21Z</time>
      </trkpt>
      <trkpt lat="44.69949" lon="2.94242">
        <ele>1308.6</ele>
        <time>2022-08-06T11:06:22Z</time>
      </trkpt>
      <trkpt lat="44.69945" lon="2.94267">
        <ele>1308</ele>
        <time>2022-08-06T11:06:37Z</time>
      </trkpt>
      <trkpt lat="44.69943" lon="2.94278">
        <ele>1307.8</ele>
        <time>2022-08-06T11:06:43Z</time>
      </trkpt>
      <trkpt lat="44.69941" lon="2.94289">
        <ele>1307.6</ele>
        <time>2022-08-06T11:06:50Z</time>
      </trkpt>
      <trkpt lat="44.6994" lon="2.94292">
        <ele>1307.6</ele>
        <time>2022-08-06T11:06:52Z</time>
      </trkpt>
      <trkpt lat="44.69937" lon="2.94303">
        <ele>1307.5</ele>
        <time>2022-08-06T11:06:58Z</time>
      </trkpt>
      <trkpt lat="44.69934" lon="2.94324">
        <ele>1307.3</ele>
        <time>2022-08-06T11:07:11Z</time>
      </trkpt>
      <trkpt lat="44.69929" lon="2.94349">
        <ele>1306.9</ele>
        <time>2022-08-06T11:07:26Z</time>
      </trkpt>
      <trkpt lat="44.69929" lon="2.94351">
        <ele>1306.9</ele>
        <time>2022-08-06T11:07:27Z</time>
      </trkpt>
      <trkpt lat="44.69924" lon="2.94372">
        <ele>1306.5</ele>
        <time>2022-08-06T11:07:39Z</time>
      </trkpt>
      <trkpt lat="44.69918" lon="2.94392">
        <ele>1306.1</ele>
        <time>2022-08-06T11:07:51Z</time>
      </trkpt>
      <trkpt lat="44.69913" lon="2.94405">
        <ele>1305.6</ele>
        <time>2022-08-06T11:08:00Z</time>
      </trkpt>
      <trkpt lat="44.69911" lon="2.9441">
        <ele>1305.3</ele>
        <time>2022-08-06T11:08:04Z</time>
      </trkpt>
      <trkpt lat="44.69903" lon="2.94425">
        <ele>1304.5</ele>
        <time>2022-08-06T11:08:14Z</time>
      </trkpt>
      <trkpt lat="44.69891" lon="2.9444">
        <ele>1303.2</ele>
        <time>2022-08-06T11:08:27Z</time>
      </trkpt>
      <trkpt lat="44.69879" lon="2.94445">
        <ele>1301.9</ele>
        <time>2022-08-06T11:08:38Z</time>
      </trkpt>
      <trkpt lat="44.69867" lon="2.94447">
        <ele>1300.7</ele>
        <time>2022-08-06T11:08:48Z</time>
      </trkpt>
      <trkpt lat="44.69864" lon="2.94449">
        <ele>1300.3</ele>
        <time>2022-08-06T11:08:50Z</time>
      </trkpt>
      <trkpt lat="44.6986" lon="2.94449">
        <ele>1299.9</ele>
        <time>2022-08-06T11:08:54Z</time>
      </trkpt>
      <trkpt lat="44.69858" lon="2.94449">
        <ele>1299.6</ele>
        <time>2022-08-06T11:08:56Z</time>
      </trkpt>
      <trkpt lat="44.69857" lon="2.94449">
        <ele>1299.5</ele>
        <time>2022-08-06T11:08:57Z</time>
      </trkpt>
      <trkpt lat="44.69856" lon="2.94449">
        <ele>1299.4</ele>
        <time>2022-08-06T11:08:58Z</time>
      </trkpt>
      <trkpt lat="44.69848" lon="2.94451">
        <ele>1298.6</ele>
        <time>2022-08-06T11:09:05Z</time>
      </trkpt>
      <trkpt lat="44.69847" lon="2.94452">
        <ele>1298.4</ele>
        <time>2022-08-06T11:09:06Z</time>
      </trkpt>
      <trkpt lat="44.69844" lon="2.94452">
        <ele>1298.1</ele>
        <time>2022-08-06T11:09:11Z</time>
      </trkpt>
      <trkpt lat="44.69844" lon="2.94453">
        <ele>1298.1</ele>
        <time>2022-08-06T11:09:12Z</time>
      </trkpt>
      <trkpt lat="44.69844" lon="2.94455">
        <ele>1298.1</ele>
        <time>2022-08-06T11:09:14Z</time>
      </trkpt>
      <trkpt lat="44.69842" lon="2.9446">
        <ele>1298</ele>
        <time>2022-08-06T11:09:17Z</time>
      </trkpt>
      <trkpt lat="44.6984" lon="2.9448">
        <ele>1297.8</ele>
        <time>2022-08-06T11:09:29Z</time>
      </trkpt>
      <trkpt lat="44.69838" lon="2.945">
        <ele>1297.5</ele>
        <time>2022-08-06T11:09:41Z</time>
      </trkpt>
      <trkpt lat="44.69837" lon="2.94508">
        <ele>1297.7</ele>
        <time>2022-08-06T11:09:48Z</time>
      </trkpt>
      <trkpt lat="44.69837" lon="2.94508">
        <ele>1297.7</ele>
        <time>2022-08-06T11:09:49Z</time>
      </trkpt>
      <trkpt lat="44.69836" lon="2.94512">
        <ele>1297.7</ele>
        <time>2022-08-06T11:09:52Z</time>
      </trkpt>
      <trkpt lat="44.69837" lon="2.94517">
        <ele>1298</ele>
        <time>2022-08-06T11:09:55Z</time>
      </trkpt>
      <trkpt lat="44.69834" lon="2.94537">
        <ele>1298.1</ele>
        <time>2022-08-06T11:10:06Z</time>
      </trkpt>
      <trkpt lat="44.69832" lon="2.94559">
        <ele>1297.9</ele>
        <time>2022-08-06T11:10:19Z</time>
      </trkpt>
      <trkpt lat="44.69832" lon="2.9457">
        <ele>1297.8</ele>
        <time>2022-08-06T11:10:25Z</time>
      </trkpt>
      <trkpt lat="44.69832" lon="2.94571">
        <ele>1297.8</ele>
        <time>2022-08-06T11:10:26Z</time>
      </trkpt>
      <trkpt lat="44.69831" lon="2.9458">
        <ele>1297.6</ele>
        <time>2022-08-06T11:10:31Z</time>
      </trkpt>
      <trkpt lat="44.69827" lon="2.94601">
        <ele>1296.6</ele>
        <time>2022-08-06T11:10:43Z</time>
      </trkpt>
      <trkpt lat="44.69825" lon="2.94622">
        <ele>1295.7</ele>
        <time>2022-08-06T11:10:55Z</time>
      </trkpt>
      <trkpt lat="44.69823" lon="2.94644">
        <ele>1294.7</ele>
        <time>2022-08-06T11:11:07Z</time>
      </trkpt>
      <trkpt lat="44.69823" lon="2.94648">
        <ele>1294.6</ele>
        <time>2022-08-06T11:11:09Z</time>
      </trkpt>
      <trkpt lat="44.69822" lon="2.94656">
        <ele>1294.2</ele>
        <time>2022-08-06T11:11:14Z</time>
      </trkpt>
      <trkpt lat="44.69821" lon="2.94669">
        <ele>1293.6</ele>
        <time>2022-08-06T11:11:21Z</time>
      </trkpt>
      <trkpt lat="44.69817" lon="2.94687">
        <ele>1293</ele>
        <time>2022-08-06T11:11:32Z</time>
      </trkpt>
      <trkpt lat="44.69817" lon="2.94688">
        <ele>1292.9</ele>
        <time>2022-08-06T11:11:33Z</time>
      </trkpt>
      <trkpt lat="44.69817" lon="2.94689">
        <ele>1292.9</ele>
        <time>2022-08-06T11:11:36Z</time>
      </trkpt>
      <trkpt lat="44.69817" lon="2.94688">
        <ele>1292.9</ele>
        <time>2022-08-06T11:11:37Z</time>
      </trkpt>
      <trkpt lat="44.69817" lon="2.94688">
        <ele>1292.9</ele>
        <time>2022-08-06T11:11:38Z</time>
      </trkpt>
      <trkpt lat="44.69817" lon="2.94688">
        <ele>1292.9</ele>
        <time>2022-08-06T11:11:40Z</time>
      </trkpt>
      <trkpt lat="44.69816" lon="2.9469">
        <ele>1292.8</ele>
        <time>2022-08-06T11:11:44Z</time>
      </trkpt>
      <trkpt lat="44.69817" lon="2.94697">
        <ele>1292.7</ele>
        <time>2022-08-06T11:11:51Z</time>
      </trkpt>
      <trkpt lat="44.69815" lon="2.94706">
        <ele>1292.3</ele>
        <time>2022-08-06T11:11:57Z</time>
      </trkpt>
      <trkpt lat="44.69814" lon="2.94706">
        <ele>1292.2</ele>
        <time>2022-08-06T11:12:03Z</time>
      </trkpt>
      <trkpt lat="44.69815" lon="2.94706">
        <ele>1292.3</ele>
        <time>2022-08-06T11:12:14Z</time>
      </trkpt>
      <trkpt lat="44.69815" lon="2.94707">
        <ele>1292.2</ele>
        <time>2022-08-06T11:12:20Z</time>
      </trkpt>
      <trkpt lat="44.69814" lon="2.9471">
        <ele>1292.1</ele>
        <time>2022-08-06T11:12:26Z</time>
      </trkpt>
      <trkpt lat="44.69812" lon="2.94713">
        <ele>1292</ele>
        <time>2022-08-06T11:12:32Z</time>
      </trkpt>
      <trkpt lat="44.69812" lon="2.94713">
        <ele>1292</ele>
        <time>2022-08-06T11:12:34Z</time>
      </trkpt>
      <trkpt lat="44.69811" lon="2.94713">
        <ele>1292</ele>
        <time>2022-08-06T11:12:39Z</time>
      </trkpt>
      <trkpt lat="44.69812" lon="2.94712">
        <ele>1292</ele>
        <time>2022-08-06T11:12:46Z</time>
      </trkpt>
      <trkpt lat="44.69812" lon="2.94712">
        <ele>1292</ele>
        <time>2022-08-06T11:12:47Z</time>
      </trkpt>
      <trkpt lat="44.69813" lon="2.9472">
        <ele>1291.8</ele>
        <time>2022-08-06T11:12:54Z</time>
      </trkpt>
      <trkpt lat="44.69811" lon="2.94725">
        <ele>1291.9</ele>
        <time>2022-08-06T11:12:57Z</time>
      </trkpt>
      <trkpt lat="44.69808" lon="2.9473">
        <ele>1292.2</ele>
        <time>2022-08-06T11:13:01Z</time>
      </trkpt>
      <trkpt lat="44.69802" lon="2.9474">
        <ele>1292.7</ele>
        <time>2022-08-06T11:13:08Z</time>
      </trkpt>
      <trkpt lat="44.69801" lon="2.94743">
        <ele>1292.8</ele>
        <time>2022-08-06T11:13:11Z</time>
      </trkpt>
      <trkpt lat="44.69791" lon="2.94764">
        <ele>1294</ele>
        <time>2022-08-06T11:13:25Z</time>
      </trkpt>
      <trkpt lat="44.69788" lon="2.9477">
        <ele>1294.4</ele>
        <time>2022-08-06T11:13:29Z</time>
      </trkpt>
      <trkpt lat="44.69784" lon="2.94779">
        <ele>1295.1</ele>
        <time>2022-08-06T11:13:35Z</time>
      </trkpt>
      <trkpt lat="44.69779" lon="2.94789">
        <ele>1295.9</ele>
        <time>2022-08-06T11:13:43Z</time>
      </trkpt>
      <trkpt lat="44.69778" lon="2.94792">
        <ele>1296</ele>
        <time>2022-08-06T11:13:46Z</time>
      </trkpt>
      <trkpt lat="44.69777" lon="2.94795">
        <ele>1296.2</ele>
        <time>2022-08-06T11:13:48Z</time>
      </trkpt>
      <trkpt lat="44.69776" lon="2.94796">
        <ele>1296.3</ele>
        <time>2022-08-06T11:13:49Z</time>
      </trkpt>
      <trkpt lat="44.69773" lon="2.94806">
        <ele>1296.9</ele>
        <time>2022-08-06T11:13:55Z</time>
      </trkpt>
      <trkpt lat="44.6977" lon="2.94816">
        <ele>1297.4</ele>
        <time>2022-08-06T11:14:01Z</time>
      </trkpt>
      <trkpt lat="44.69769" lon="2.94832">
        <ele>1298.2</ele>
        <time>2022-08-06T11:14:10Z</time>
      </trkpt>
      <trkpt lat="44.69769" lon="2.94837">
        <ele>1298.3</ele>
        <time>2022-08-06T11:14:13Z</time>
      </trkpt>
      <trkpt lat="44.6977" lon="2.94861">
        <ele>1298.5</ele>
        <time>2022-08-06T11:14:27Z</time>
      </trkpt>
      <trkpt lat="44.69771" lon="2.94878">
        <ele>1297.6</ele>
        <time>2022-08-06T11:14:37Z</time>
      </trkpt>
      <trkpt lat="44.69773" lon="2.94903">
        <ele>1296</ele>
        <time>2022-08-06T11:14:51Z</time>
      </trkpt>
      <trkpt lat="44.69773" lon="2.94907">
        <ele>1295.7</ele>
        <time>2022-08-06T11:14:53Z</time>
      </trkpt>
      <trkpt lat="44.69773" lon="2.94918">
        <ele>1295</ele>
        <time>2022-08-06T11:15:00Z</time>
      </trkpt>
      <trkpt lat="44.69768" lon="2.94922">
        <ele>1294.9</ele>
        <time>2022-08-06T11:15:05Z</time>
      </trkpt>
      <trkpt lat="44.69766" lon="2.94922">
        <ele>1294.9</ele>
        <time>2022-08-06T11:15:07Z</time>
      </trkpt>
      <trkpt lat="44.69763" lon="2.94931">
        <ele>1294.7</ele>
        <time>2022-08-06T11:15:13Z</time>
      </trkpt>
      <trkpt lat="44.69763" lon="2.94945">
        <ele>1294.4</ele>
        <time>2022-08-06T11:15:21Z</time>
      </trkpt>
      <trkpt lat="44.69763" lon="2.94948">
        <ele>1294.2</ele>
        <time>2022-08-06T11:15:23Z</time>
      </trkpt>
      <trkpt lat="44.69763" lon="2.94965">
        <ele>1293</ele>
        <time>2022-08-06T11:15:33Z</time>
      </trkpt>
      <trkpt lat="44.6976" lon="2.9498">
        <ele>1291.7</ele>
        <time>2022-08-06T11:15:42Z</time>
      </trkpt>
      <trkpt lat="44.69759" lon="2.94985">
        <ele>1291.2</ele>
        <time>2022-08-06T11:15:45Z</time>
      </trkpt>
      <trkpt lat="44.69757" lon="2.94995">
        <ele>1290.4</ele>
        <time>2022-08-06T11:15:52Z</time>
      </trkpt>
      <trkpt lat="44.69754" lon="2.94996">
        <ele>1290.3</ele>
        <time>2022-08-06T11:15:57Z</time>
      </trkpt>
      <trkpt lat="44.69753" lon="2.94996">
        <ele>1290.3</ele>
        <time>2022-08-06T11:16:01Z</time>
      </trkpt>
      <trkpt lat="44.69753" lon="2.94996">
        <ele>1290.3</ele>
        <time>2022-08-06T11:16:04Z</time>
      </trkpt>
      <trkpt lat="44.69753" lon="2.94996">
        <ele>1290.3</ele>
        <time>2022-08-06T11:16:05Z</time>
      </trkpt>
      <trkpt lat="44.69753" lon="2.94996">
        <ele>1290.3</ele>
        <time>2022-08-06T11:16:11Z</time>
      </trkpt>
      <trkpt lat="44.69754" lon="2.94998">
        <ele>1290.2</ele>
        <time>2022-08-06T11:16:17Z</time>
      </trkpt>
      <trkpt lat="44.69755" lon="2.95002">
        <ele>1289.9</ele>
        <time>2022-08-06T11:16:19Z</time>
      </trkpt>
      <trkpt lat="44.69755" lon="2.95019">
        <ele>1289.3</ele>
        <time>2022-08-06T11:16:29Z</time>
      </trkpt>
      <trkpt lat="44.69751" lon="2.95034">
        <ele>1288.8</ele>
        <time>2022-08-06T11:16:38Z</time>
      </trkpt>
      <trkpt lat="44.69744" lon="2.9505">
        <ele>1288</ele>
        <time>2022-08-06T11:16:49Z</time>
      </trkpt>
      <trkpt lat="44.69739" lon="2.95063">
        <ele>1287.6</ele>
        <time>2022-08-06T11:16:58Z</time>
      </trkpt>
      <trkpt lat="44.69735" lon="2.95077">
        <ele>1287.5</ele>
        <time>2022-08-06T11:17:07Z</time>
      </trkpt>
      <trkpt lat="44.69735" lon="2.95081">
        <ele>1287.4</ele>
        <time>2022-08-06T11:17:09Z</time>
      </trkpt>
      <trkpt lat="44.69729" lon="2.95102">
        <ele>1287.4</ele>
        <time>2022-08-06T11:17:22Z</time>
      </trkpt>
      <trkpt lat="44.69724" lon="2.95115">
        <ele>1287</ele>
        <time>2022-08-06T11:17:30Z</time>
      </trkpt>
      <trkpt lat="44.69721" lon="2.95123">
        <ele>1286.5</ele>
        <time>2022-08-06T11:17:35Z</time>
      </trkpt>
      <trkpt lat="44.69714" lon="2.95146">
        <ele>1285.5</ele>
        <time>2022-08-06T11:17:49Z</time>
      </trkpt>
      <trkpt lat="44.69712" lon="2.95155">
        <ele>1285.3</ele>
        <time>2022-08-06T11:17:55Z</time>
      </trkpt>
      <trkpt lat="44.69711" lon="2.95161">
        <ele>1285.1</ele>
        <time>2022-08-06T11:17:59Z</time>
      </trkpt>
      <trkpt lat="44.69704" lon="2.95178">
        <ele>1285.4</ele>
        <time>2022-08-06T11:18:11Z</time>
      </trkpt>
      <trkpt lat="44.69699" lon="2.9519">
        <ele>1285.8</ele>
        <time>2022-08-06T11:18:19Z</time>
      </trkpt>
      <trkpt lat="44.69698" lon="2.95191">
        <ele>1285.9</ele>
        <time>2022-08-06T11:18:20Z</time>
      </trkpt>
      <trkpt lat="44.69697" lon="2.95193">
        <ele>1285.9</ele>
        <time>2022-08-06T11:18:21Z</time>
      </trkpt>
      <trkpt lat="44.69695" lon="2.95201">
        <ele>1286.4</ele>
        <time>2022-08-06T11:18:26Z</time>
      </trkpt>
      <trkpt lat="44.69692" lon="2.95207">
        <ele>1286.8</ele>
        <time>2022-08-06T11:18:31Z</time>
      </trkpt>
      <trkpt lat="44.69688" lon="2.95223">
        <ele>1287.6</ele>
        <time>2022-08-06T11:18:42Z</time>
      </trkpt>
      <trkpt lat="44.69687" lon="2.95224">
        <ele>1287.6</ele>
        <time>2022-08-06T11:18:47Z</time>
      </trkpt>
      <trkpt lat="44.69686" lon="2.95224">
        <ele>1287.5</ele>
        <time>2022-08-06T11:18:55Z</time>
      </trkpt>
      <trkpt lat="44.69685" lon="2.95228">
        <ele>1287.7</ele>
        <time>2022-08-06T11:19:05Z</time>
      </trkpt>
      <trkpt lat="44.69683" lon="2.95246">
        <ele>1288.5</ele>
        <time>2022-08-06T11:19:14Z</time>
      </trkpt>
      <trkpt lat="44.69679" lon="2.95263">
        <ele>1288.8</ele>
        <time>2022-08-06T11:19:25Z</time>
      </trkpt>
      <trkpt lat="44.69677" lon="2.95278">
        <ele>1289.1</ele>
        <time>2022-08-06T11:19:34Z</time>
      </trkpt>
      <trkpt lat="44.69677" lon="2.95287">
        <ele>1289</ele>
        <time>2022-08-06T11:19:40Z</time>
      </trkpt>
      <trkpt lat="44.69677" lon="2.9529">
        <ele>1288.9</ele>
        <time>2022-08-06T11:19:42Z</time>
      </trkpt>
      <trkpt lat="44.69677" lon="2.95291">
        <ele>1289</ele>
        <time>2022-08-06T11:19:43Z</time>
      </trkpt>
      <trkpt lat="44.69678" lon="2.95292">
        <ele>1289</ele>
        <time>2022-08-06T11:19:49Z</time>
      </trkpt>
      <trkpt lat="44.69677" lon="2.95291">
        <ele>1289</ele>
        <time>2022-08-06T11:19:55Z</time>
      </trkpt>
      <trkpt lat="44.69677" lon="2.95291">
        <ele>1289</ele>
        <time>2022-08-06T11:20:01Z</time>
      </trkpt>
      <trkpt lat="44.69676" lon="2.95292">
        <ele>1288.8</ele>
        <time>2022-08-06T11:20:30Z</time>
      </trkpt>
      <trkpt lat="44.69675" lon="2.95293">
        <ele>1288.8</ele>
        <time>2022-08-06T11:20:40Z</time>
      </trkpt>
      <trkpt lat="44.69674" lon="2.95301">
        <ele>1288.5</ele>
        <time>2022-08-06T11:20:49Z</time>
      </trkpt>
      <trkpt lat="44.6967" lon="2.95318">
        <ele>1287.9</ele>
        <time>2022-08-06T11:20:57Z</time>
      </trkpt>
      <trkpt lat="44.69666" lon="2.95337">
        <ele>1287.1</ele>
        <time>2022-08-06T11:21:09Z</time>
      </trkpt>
      <trkpt lat="44.69663" lon="2.95357">
        <ele>1287.3</ele>
        <time>2022-08-06T11:21:21Z</time>
      </trkpt>
      <trkpt lat="44.69662" lon="2.9537">
        <ele>1287.3</ele>
        <time>2022-08-06T11:21:29Z</time>
      </trkpt>
      <trkpt lat="44.69661" lon="2.95383">
        <ele>1287.2</ele>
        <time>2022-08-06T11:21:36Z</time>
      </trkpt>
      <trkpt lat="44.69661" lon="2.95388">
        <ele>1287.2</ele>
        <time>2022-08-06T11:21:39Z</time>
      </trkpt>
      <trkpt lat="44.69659" lon="2.95406">
        <ele>1286.4</ele>
        <time>2022-08-06T11:21:50Z</time>
      </trkpt>
      <trkpt lat="44.69657" lon="2.95427">
        <ele>1286</ele>
        <time>2022-08-06T11:22:03Z</time>
      </trkpt>
      <trkpt lat="44.69657" lon="2.95441">
        <ele>1286</ele>
        <time>2022-08-06T11:22:12Z</time>
      </trkpt>
      <trkpt lat="44.69657" lon="2.95454">
        <ele>1285.8</ele>
        <time>2022-08-06T11:22:20Z</time>
      </trkpt>
      <trkpt lat="44.69656" lon="2.95468">
        <ele>1285.5</ele>
        <time>2022-08-06T11:22:31Z</time>
      </trkpt>
      <trkpt lat="44.69656" lon="2.95468">
        <ele>1285.5</ele>
        <time>2022-08-06T11:22:32Z</time>
      </trkpt>
      <trkpt lat="44.69655" lon="2.95468">
        <ele>1285.4</ele>
        <time>2022-08-06T11:22:40Z</time>
      </trkpt>
      <trkpt lat="44.69655" lon="2.95468">
        <ele>1285.4</ele>
        <time>2022-08-06T11:22:44Z</time>
      </trkpt>
      <trkpt lat="44.69655" lon="2.95468">
        <ele>1285.4</ele>
        <time>2022-08-06T11:22:59Z</time>
      </trkpt>
      <trkpt lat="44.69654" lon="2.95475">
        <ele>1285.1</ele>
        <time>2022-08-06T11:23:07Z</time>
      </trkpt>
      <trkpt lat="44.69654" lon="2.95495">
        <ele>1285.1</ele>
        <time>2022-08-06T11:23:16Z</time>
      </trkpt>
      <trkpt lat="44.69654" lon="2.95508">
        <ele>1284.8</ele>
        <time>2022-08-06T11:23:23Z</time>
      </trkpt>
      <trkpt lat="44.69654" lon="2.95514">
        <ele>1284.7</ele>
        <time>2022-08-06T11:23:26Z</time>
      </trkpt>
      <trkpt lat="44.69655" lon="2.9553">
        <ele>1284.3</ele>
        <time>2022-08-06T11:23:35Z</time>
      </trkpt>
      <trkpt lat="44.69659" lon="2.9555">
        <ele>1284.2</ele>
        <time>2022-08-06T11:23:46Z</time>
      </trkpt>
      <trkpt lat="44.6966" lon="2.9556">
        <ele>1283.9</ele>
        <time>2022-08-06T11:23:52Z</time>
      </trkpt>
      <trkpt lat="44.69661" lon="2.95567">
        <ele>1283.7</ele>
        <time>2022-08-06T11:23:56Z</time>
      </trkpt>
      <trkpt lat="44.69663" lon="2.95582">
        <ele>1283.5</ele>
        <time>2022-08-06T11:24:06Z</time>
      </trkpt>
      <trkpt lat="44.69664" lon="2.95585">
        <ele>1283.5</ele>
        <time>2022-08-06T11:24:08Z</time>
      </trkpt>
      <trkpt lat="44.69664" lon="2.95603">
        <ele>1283</ele>
        <time>2022-08-06T11:24:18Z</time>
      </trkpt>
      <trkpt lat="44.69665" lon="2.95609">
        <ele>1282.9</ele>
        <time>2022-08-06T11:24:22Z</time>
      </trkpt>
      <trkpt lat="44.69667" lon="2.95621">
        <ele>1282.7</ele>
        <time>2022-08-06T11:24:29Z</time>
      </trkpt>
      <trkpt lat="44.69668" lon="2.95623">
        <ele>1282.7</ele>
        <time>2022-08-06T11:24:30Z</time>
      </trkpt>
      <trkpt lat="44.69672" lon="2.95638">
        <ele>1282.2</ele>
        <time>2022-08-06T11:24:40Z</time>
      </trkpt>
      <trkpt lat="44.69672" lon="2.95642">
        <ele>1282</ele>
        <time>2022-08-06T11:24:45Z</time>
      </trkpt>
      <trkpt lat="44.69672" lon="2.95642">
        <ele>1282</ele>
        <time>2022-08-06T11:24:47Z</time>
      </trkpt>
      <trkpt lat="44.69676" lon="2.95649">
        <ele>1281.7</ele>
        <time>2022-08-06T11:24:53Z</time>
      </trkpt>
      <trkpt lat="44.69677" lon="2.95661">
        <ele>1281.1</ele>
        <time>2022-08-06T11:25:00Z</time>
      </trkpt>
      <trkpt lat="44.69677" lon="2.95672">
        <ele>1280.4</ele>
        <time>2022-08-06T11:25:06Z</time>
      </trkpt>
      <trkpt lat="44.69677" lon="2.95675">
        <ele>1280.1</ele>
        <time>2022-08-06T11:25:08Z</time>
      </trkpt>
      <trkpt lat="44.69679" lon="2.95692">
        <ele>1279</ele>
        <time>2022-08-06T11:25:19Z</time>
      </trkpt>
      <trkpt lat="44.69679" lon="2.95693">
        <ele>1278.9</ele>
        <time>2022-08-06T11:25:20Z</time>
      </trkpt>
      <trkpt lat="44.69679" lon="2.95696">
        <ele>1278.6</ele>
        <time>2022-08-06T11:25:25Z</time>
      </trkpt>
      <trkpt lat="44.69679" lon="2.95696">
        <ele>1278.7</ele>
        <time>2022-08-06T11:25:26Z</time>
      </trkpt>
      <trkpt lat="44.69681" lon="2.95702">
        <ele>1278.6</ele>
        <time>2022-08-06T11:25:32Z</time>
      </trkpt>
      <trkpt lat="44.69681" lon="2.95703">
        <ele>1278.6</ele>
        <time>2022-08-06T11:25:33Z</time>
      </trkpt>
      <trkpt lat="44.69681" lon="2.95705">
        <ele>1278.5</ele>
        <time>2022-08-06T11:25:40Z</time>
      </trkpt>
      <trkpt lat="44.69682" lon="2.95705">
        <ele>1278.6</ele>
        <time>2022-08-06T11:25:55Z</time>
      </trkpt>
      <trkpt lat="44.69682" lon="2.95705">
        <ele>1278.6</ele>
        <time>2022-08-06T11:25:56Z</time>
      </trkpt>
      <trkpt lat="44.69683" lon="2.95707">
        <ele>1278.6</ele>
        <time>2022-08-06T11:26:03Z</time>
      </trkpt>
      <trkpt lat="44.69684" lon="2.95712">
        <ele>1278.5</ele>
        <time>2022-08-06T11:26:12Z</time>
      </trkpt>
      <trkpt lat="44.69688" lon="2.95725">
        <ele>1278</ele>
        <time>2022-08-06T11:26:20Z</time>
      </trkpt>
      <trkpt lat="44.69695" lon="2.95745">
        <ele>1276.7</ele>
        <time>2022-08-06T11:26:33Z</time>
      </trkpt>
      <trkpt lat="44.697" lon="2.9576">
        <ele>1276.3</ele>
        <time>2022-08-06T11:26:43Z</time>
      </trkpt>
      <trkpt lat="44.69702" lon="2.95771">
        <ele>1275.9</ele>
        <time>2022-08-06T11:26:51Z</time>
      </trkpt>
      <trkpt lat="44.69703" lon="2.95779">
        <ele>1275.6</ele>
        <time>2022-08-06T11:26:56Z</time>
      </trkpt>
      <trkpt lat="44.69704" lon="2.95779">
        <ele>1275.6</ele>
        <time>2022-08-06T11:26:58Z</time>
      </trkpt>
      <trkpt lat="44.69706" lon="2.95781">
        <ele>1275.6</ele>
        <time>2022-08-06T11:27:02Z</time>
      </trkpt>
      <trkpt lat="44.69706" lon="2.95784">
        <ele>1275.4</ele>
        <time>2022-08-06T11:27:04Z</time>
      </trkpt>
      <trkpt lat="44.69709" lon="2.9579">
        <ele>1275.2</ele>
        <time>2022-08-06T11:27:10Z</time>
      </trkpt>
      <trkpt lat="44.69711" lon="2.95796">
        <ele>1274.9</ele>
        <time>2022-08-06T11:27:14Z</time>
      </trkpt>
      <trkpt lat="44.69713" lon="2.95801">
        <ele>1274.6</ele>
        <time>2022-08-06T11:27:18Z</time>
      </trkpt>
      <trkpt lat="44.6972" lon="2.95815">
        <ele>1274.2</ele>
        <time>2022-08-06T11:27:28Z</time>
      </trkpt>
      <trkpt lat="44.69722" lon="2.95818">
        <ele>1274.1</ele>
        <time>2022-08-06T11:27:30Z</time>
      </trkpt>
      <trkpt lat="44.69726" lon="2.95826">
        <ele>1273.9</ele>
        <time>2022-08-06T11:27:36Z</time>
      </trkpt>
      <trkpt lat="44.69732" lon="2.95842">
        <ele>1272.9</ele>
        <time>2022-08-06T11:27:47Z</time>
      </trkpt>
      <trkpt lat="44.69732" lon="2.95844">
        <ele>1272.9</ele>
        <time>2022-08-06T11:27:48Z</time>
      </trkpt>
      <trkpt lat="44.69734" lon="2.95848">
        <ele>1272.5</ele>
        <time>2022-08-06T11:27:51Z</time>
      </trkpt>
      <trkpt lat="44.69736" lon="2.95854">
        <ele>1272.1</ele>
        <time>2022-08-06T11:27:55Z</time>
      </trkpt>
      <trkpt lat="44.69741" lon="2.95863">
        <ele>1271.5</ele>
        <time>2022-08-06T11:28:02Z</time>
      </trkpt>
      <trkpt lat="44.69742" lon="2.95866">
        <ele>1271.1</ele>
        <time>2022-08-06T11:28:04Z</time>
      </trkpt>
      <trkpt lat="44.69744" lon="2.95873">
        <ele>1270.5</ele>
        <time>2022-08-06T11:28:09Z</time>
      </trkpt>
      <trkpt lat="44.69752" lon="2.95884">
        <ele>1269.9</ele>
        <time>2022-08-06T11:28:19Z</time>
      </trkpt>
      <trkpt lat="44.69752" lon="2.95884">
        <ele>1269.9</ele>
        <time>2022-08-06T11:28:20Z</time>
      </trkpt>
      <trkpt lat="44.69752" lon="2.95884">
        <ele>1269.8</ele>
        <time>2022-08-06T11:28:21Z</time>
      </trkpt>
      <trkpt lat="44.69751" lon="2.95884">
        <ele>1269.7</ele>
        <time>2022-08-06T11:28:23Z</time>
      </trkpt>
      <trkpt lat="44.69753" lon="2.95887">
        <ele>1269.6</ele>
        <time>2022-08-06T11:28:27Z</time>
      </trkpt>
      <trkpt lat="44.69757" lon="2.95896">
        <ele>1269</ele>
        <time>2022-08-06T11:28:34Z</time>
      </trkpt>
      <trkpt lat="44.69765" lon="2.95907">
        <ele>1268.5</ele>
        <time>2022-08-06T11:28:44Z</time>
      </trkpt>
      <trkpt lat="44.69766" lon="2.95908">
        <ele>1268.5</ele>
        <time>2022-08-06T11:28:45Z</time>
      </trkpt>
      <trkpt lat="44.69769" lon="2.95914">
        <ele>1268.1</ele>
        <time>2022-08-06T11:28:50Z</time>
      </trkpt>
      <trkpt lat="44.6977" lon="2.95914">
        <ele>1268.2</ele>
        <time>2022-08-06T11:28:52Z</time>
      </trkpt>
      <trkpt lat="44.69771" lon="2.95915">
        <ele>1268.3</ele>
        <time>2022-08-06T11:28:54Z</time>
      </trkpt>
      <trkpt lat="44.69772" lon="2.95916">
        <ele>1268.3</ele>
        <time>2022-08-06T11:28:55Z</time>
      </trkpt>
      <trkpt lat="44.69777" lon="2.95924">
        <ele>1267.8</ele>
        <time>2022-08-06T11:29:01Z</time>
      </trkpt>
      <trkpt lat="44.69783" lon="2.95934">
        <ele>1267.2</ele>
        <time>2022-08-06T11:29:09Z</time>
      </trkpt>
      <trkpt lat="44.69789" lon="2.95942">
        <ele>1266.6</ele>
        <time>2022-08-06T11:29:16Z</time>
      </trkpt>
      <trkpt lat="44.69791" lon="2.95945">
        <ele>1266.4</ele>
        <time>2022-08-06T11:29:18Z</time>
      </trkpt>
      <trkpt lat="44.69794" lon="2.95951">
        <ele>1266</ele>
        <time>2022-08-06T11:29:24Z</time>
      </trkpt>
      <trkpt lat="44.69795" lon="2.95952">
        <ele>1266</ele>
        <time>2022-08-06T11:29:25Z</time>
      </trkpt>
      <trkpt lat="44.69798" lon="2.95961">
        <ele>1265.2</ele>
        <time>2022-08-06T11:29:33Z</time>
      </trkpt>
      <trkpt lat="44.69798" lon="2.95961">
        <ele>1265.1</ele>
        <time>2022-08-06T11:29:34Z</time>
      </trkpt>
      <trkpt lat="44.69798" lon="2.95963">
        <ele>1264.9</ele>
        <time>2022-08-06T11:29:36Z</time>
      </trkpt>
      <trkpt lat="44.69798" lon="2.95962">
        <ele>1265</ele>
        <time>2022-08-06T11:29:41Z</time>
      </trkpt>
      <trkpt lat="44.69798" lon="2.95962">
        <ele>1265</ele>
        <time>2022-08-06T11:29:45Z</time>
      </trkpt>
      <trkpt lat="44.69798" lon="2.95963">
        <ele>1264.9</ele>
        <time>2022-08-06T11:29:49Z</time>
      </trkpt>
      <trkpt lat="44.69798" lon="2.95963">
        <ele>1264.9</ele>
        <time>2022-08-06T11:29:58Z</time>
      </trkpt>
      <trkpt lat="44.69803" lon="2.95968">
        <ele>1264.5</ele>
        <time>2022-08-06T11:30:02Z</time>
      </trkpt>
      <trkpt lat="44.69806" lon="2.9597">
        <ele>1264.4</ele>
        <time>2022-08-06T11:30:04Z</time>
      </trkpt>
      <trkpt lat="44.69812" lon="2.95974">
        <ele>1264.3</ele>
        <time>2022-08-06T11:30:08Z</time>
      </trkpt>
      <trkpt lat="44.69815" lon="2.9598">
        <ele>1263.9</ele>
        <time>2022-08-06T11:30:14Z</time>
      </trkpt>
      <trkpt lat="44.69819" lon="2.95989">
        <ele>1263.2</ele>
        <time>2022-08-06T11:30:22Z</time>
      </trkpt>
      <trkpt lat="44.69827" lon="2.96">
        <ele>1262.6</ele>
        <time>2022-08-06T11:30:31Z</time>
      </trkpt>
      <trkpt lat="44.69836" lon="2.96013">
        <ele>1262.1</ele>
        <time>2022-08-06T11:30:43Z</time>
      </trkpt>
      <trkpt lat="44.6984" lon="2.96019">
        <ele>1261.9</ele>
        <time>2022-08-06T11:30:48Z</time>
      </trkpt>
      <trkpt lat="44.69841" lon="2.96022">
        <ele>1261.7</ele>
        <time>2022-08-06T11:30:50Z</time>
      </trkpt>
      <trkpt lat="44.69842" lon="2.96024">
        <ele>1261.6</ele>
        <time>2022-08-06T11:30:52Z</time>
      </trkpt>
      <trkpt lat="44.69848" lon="2.96034">
        <ele>1261.2</ele>
        <time>2022-08-06T11:30:59Z</time>
      </trkpt>
      <trkpt lat="44.69854" lon="2.96046">
        <ele>1260.9</ele>
        <time>2022-08-06T11:31:08Z</time>
      </trkpt>
      <trkpt lat="44.69863" lon="2.96061">
        <ele>1260.9</ele>
        <time>2022-08-06T11:31:19Z</time>
      </trkpt>
      <trkpt lat="44.6987" lon="2.9607">
        <ele>1261.1</ele>
        <time>2022-08-06T11:31:28Z</time>
      </trkpt>
      <trkpt lat="44.69874" lon="2.9608">
        <ele>1261</ele>
        <time>2022-08-06T11:31:35Z</time>
      </trkpt>
      <trkpt lat="44.69875" lon="2.96081">
        <ele>1261.1</ele>
        <time>2022-08-06T11:31:38Z</time>
      </trkpt>
      <trkpt lat="44.69875" lon="2.96081">
        <ele>1261.1</ele>
        <time>2022-08-06T11:31:40Z</time>
      </trkpt>
      <trkpt lat="44.69876" lon="2.96082">
        <ele>1261.1</ele>
        <time>2022-08-06T11:31:41Z</time>
      </trkpt>
      <trkpt lat="44.69876" lon="2.96083">
        <ele>1261.1</ele>
        <time>2022-08-06T11:31:42Z</time>
      </trkpt>
      <trkpt lat="44.69881" lon="2.9609">
        <ele>1260.9</ele>
        <time>2022-08-06T11:31:48Z</time>
      </trkpt>
      <trkpt lat="44.69879" lon="2.96088">
        <ele>1260.9</ele>
        <time>2022-08-06T11:31:51Z</time>
      </trkpt>
      <trkpt lat="44.69879" lon="2.96085">
        <ele>1261.1</ele>
        <time>2022-08-06T11:31:57Z</time>
      </trkpt>
      <trkpt lat="44.6988" lon="2.96085">
        <ele>1261.2</ele>
        <time>2022-08-06T11:32:00Z</time>
      </trkpt>
      <trkpt lat="44.6988" lon="2.96085">
        <ele>1261.2</ele>
        <time>2022-08-06T11:32:12Z</time>
      </trkpt>
      <trkpt lat="44.6988" lon="2.96085">
        <ele>1261.2</ele>
        <time>2022-08-06T11:32:15Z</time>
      </trkpt>
      <trkpt lat="44.69885" lon="2.96089">
        <ele>1261.1</ele>
        <time>2022-08-06T11:32:34Z</time>
      </trkpt>
      <trkpt lat="44.69887" lon="2.96092">
        <ele>1260.9</ele>
        <time>2022-08-06T11:32:36Z</time>
      </trkpt>
      <trkpt lat="44.69893" lon="2.96103">
        <ele>1260.1</ele>
        <time>2022-08-06T11:32:42Z</time>
      </trkpt>
      <trkpt lat="44.69896" lon="2.96109">
        <ele>1259.7</ele>
        <time>2022-08-06T11:32:46Z</time>
      </trkpt>
      <trkpt lat="44.69899" lon="2.96114">
        <ele>1259.6</ele>
        <time>2022-08-06T11:32:50Z</time>
      </trkpt>
      <trkpt lat="44.69906" lon="2.96131">
        <ele>1259.3</ele>
        <time>2022-08-06T11:33:02Z</time>
      </trkpt>
      <trkpt lat="44.69914" lon="2.96147">
        <ele>1259</ele>
        <time>2022-08-06T11:33:13Z</time>
      </trkpt>
      <trkpt lat="44.69921" lon="2.96159">
        <ele>1259.4</ele>
        <time>2022-08-06T11:33:22Z</time>
      </trkpt>
      <trkpt lat="44.69924" lon="2.96163">
        <ele>1259.5</ele>
        <time>2022-08-06T11:33:28Z</time>
      </trkpt>
      <trkpt lat="44.69923" lon="2.96163">
        <ele>1259.5</ele>
        <time>2022-08-06T11:33:29Z</time>
      </trkpt>
      <trkpt lat="44.69926" lon="2.96169">
        <ele>1259.5</ele>
        <time>2022-08-06T11:33:36Z</time>
      </trkpt>
      <trkpt lat="44.69932" lon="2.9618">
        <ele>1259.2</ele>
        <time>2022-08-06T11:33:44Z</time>
      </trkpt>
      <trkpt lat="44.6994" lon="2.96192">
        <ele>1258.8</ele>
        <time>2022-08-06T11:33:52Z</time>
      </trkpt>
      <trkpt lat="44.69942" lon="2.96196">
        <ele>1258.7</ele>
        <time>2022-08-06T11:33:55Z</time>
      </trkpt>
      <trkpt lat="44.69949" lon="2.96211">
        <ele>1258.2</ele>
        <time>2022-08-06T11:34:07Z</time>
      </trkpt>
      <trkpt lat="44.69956" lon="2.96222">
        <ele>1257.8</ele>
        <time>2022-08-06T11:34:16Z</time>
      </trkpt>
      <trkpt lat="44.69956" lon="2.96223">
        <ele>1257.7</ele>
        <time>2022-08-06T11:34:17Z</time>
      </trkpt>
      <trkpt lat="44.69958" lon="2.96226">
        <ele>1257.7</ele>
        <time>2022-08-06T11:34:19Z</time>
      </trkpt>
      <trkpt lat="44.6996" lon="2.96231">
        <ele>1257.5</ele>
        <time>2022-08-06T11:34:24Z</time>
      </trkpt>
      <trkpt lat="44.69965" lon="2.9624">
        <ele>1256.9</ele>
        <time>2022-08-06T11:34:33Z</time>
      </trkpt>
      <trkpt lat="44.69965" lon="2.96241">
        <ele>1256.8</ele>
        <time>2022-08-06T11:34:34Z</time>
      </trkpt>
      <trkpt lat="44.69972" lon="2.96254">
        <ele>1255.9</ele>
        <time>2022-08-06T11:34:44Z</time>
      </trkpt>
      <trkpt lat="44.69976" lon="2.9626">
        <ele>1256</ele>
        <time>2022-08-06T11:34:50Z</time>
      </trkpt>
      <trkpt lat="44.69979" lon="2.96263">
        <ele>1256.1</ele>
        <time>2022-08-06T11:34:53Z</time>
      </trkpt>
      <trkpt lat="44.69985" lon="2.96268">
        <ele>1256</ele>
        <time>2022-08-06T11:34:59Z</time>
      </trkpt>
      <trkpt lat="44.69987" lon="2.96272">
        <ele>1255.6</ele>
        <time>2022-08-06T11:35:02Z</time>
      </trkpt>
      <trkpt lat="44.69991" lon="2.96282">
        <ele>1254.8</ele>
        <time>2022-08-06T11:35:09Z</time>
      </trkpt>
      <trkpt lat="44.69995" lon="2.96288">
        <ele>1254.6</ele>
        <time>2022-08-06T11:35:14Z</time>
      </trkpt>
      <trkpt lat="44.69998" lon="2.96294">
        <ele>1254.4</ele>
        <time>2022-08-06T11:35:19Z</time>
      </trkpt>
      <trkpt lat="44.70005" lon="2.96306">
        <ele>1254</ele>
        <time>2022-08-06T11:35:29Z</time>
      </trkpt>
      <trkpt lat="44.70007" lon="2.9631">
        <ele>1253.8</ele>
        <time>2022-08-06T11:35:32Z</time>
      </trkpt>
      <trkpt lat="44.70011" lon="2.96317">
        <ele>1253.4</ele>
        <time>2022-08-06T11:35:40Z</time>
      </trkpt>
      <trkpt lat="44.70011" lon="2.96317">
        <ele>1253.4</ele>
        <time>2022-08-06T11:35:41Z</time>
      </trkpt>
      <trkpt lat="44.70011" lon="2.96317">
        <ele>1253.4</ele>
        <time>2022-08-06T11:35:43Z</time>
      </trkpt>
      <trkpt lat="44.70012" lon="2.96317">
        <ele>1253.4</ele>
        <time>2022-08-06T11:35:44Z</time>
      </trkpt>
      <trkpt lat="44.70014" lon="2.9632">
        <ele>1253.2</ele>
        <time>2022-08-06T11:35:47Z</time>
      </trkpt>
      <trkpt lat="44.70018" lon="2.96329">
        <ele>1252.6</ele>
        <time>2022-08-06T11:35:54Z</time>
      </trkpt>
      <trkpt lat="44.70019" lon="2.96332">
        <ele>1252.4</ele>
        <time>2022-08-06T11:35:56Z</time>
      </trkpt>
      <trkpt lat="44.70024" lon="2.96337">
        <ele>1252</ele>
        <time>2022-08-06T11:36:01Z</time>
      </trkpt>
      <trkpt lat="44.70028" lon="2.96341">
        <ele>1251.7</ele>
        <time>2022-08-06T11:36:05Z</time>
      </trkpt>
      <trkpt lat="44.70034" lon="2.96351">
        <ele>1251.5</ele>
        <time>2022-08-06T11:36:13Z</time>
      </trkpt>
      <trkpt lat="44.70037" lon="2.96357">
        <ele>1251.4</ele>
        <time>2022-08-06T11:36:17Z</time>
      </trkpt>
      <trkpt lat="44.7004" lon="2.96363">
        <ele>1251.4</ele>
        <time>2022-08-06T11:36:22Z</time>
      </trkpt>
      <trkpt lat="44.70049" lon="2.96377">
        <ele>1251.2</ele>
        <time>2022-08-06T11:36:33Z</time>
      </trkpt>
      <trkpt lat="44.70059" lon="2.96392">
        <ele>1250.8</ele>
        <time>2022-08-06T11:36:46Z</time>
      </trkpt>
      <trkpt lat="44.70061" lon="2.96396">
        <ele>1250.5</ele>
        <time>2022-08-06T11:36:49Z</time>
      </trkpt>
      <trkpt lat="44.70066" lon="2.96404">
        <ele>1250.1</ele>
        <time>2022-08-06T11:36:55Z</time>
      </trkpt>
      <trkpt lat="44.70072" lon="2.96414">
        <ele>1249.7</ele>
        <time>2022-08-06T11:37:03Z</time>
      </trkpt>
      <trkpt lat="44.70077" lon="2.96425">
        <ele>1249.4</ele>
        <time>2022-08-06T11:37:11Z</time>
      </trkpt>
      <trkpt lat="44.70082" lon="2.96431">
        <ele>1249.4</ele>
        <time>2022-08-06T11:37:16Z</time>
      </trkpt>
      <trkpt lat="44.70093" lon="2.96448">
        <ele>1248.8</ele>
        <time>2022-08-06T11:37:30Z</time>
      </trkpt>
      <trkpt lat="44.70101" lon="2.96461">
        <ele>1248.2</ele>
        <time>2022-08-06T11:37:40Z</time>
      </trkpt>
      <trkpt lat="44.70107" lon="2.9647">
        <ele>1247.9</ele>
        <time>2022-08-06T11:37:48Z</time>
      </trkpt>
      <trkpt lat="44.70109" lon="2.96474">
        <ele>1247.9</ele>
        <time>2022-08-06T11:37:51Z</time>
      </trkpt>
      <trkpt lat="44.70113" lon="2.96486">
        <ele>1248</ele>
        <time>2022-08-06T11:37:59Z</time>
      </trkpt>
      <trkpt lat="44.70118" lon="2.96501">
        <ele>1248</ele>
        <time>2022-08-06T11:38:09Z</time>
      </trkpt>
      <trkpt lat="44.70119" lon="2.96504">
        <ele>1247.9</ele>
        <time>2022-08-06T11:38:11Z</time>
      </trkpt>
      <trkpt lat="44.70124" lon="2.96518">
        <ele>1247.4</ele>
        <time>2022-08-06T11:38:21Z</time>
      </trkpt>
      <trkpt lat="44.7013" lon="2.96532">
        <ele>1246.8</ele>
        <time>2022-08-06T11:38:31Z</time>
      </trkpt>
      <trkpt lat="44.70132" lon="2.96541">
        <ele>1246.5</ele>
        <time>2022-08-06T11:38:39Z</time>
      </trkpt>
      <trkpt lat="44.70132" lon="2.96541">
        <ele>1246.5</ele>
        <time>2022-08-06T11:38:40Z</time>
      </trkpt>
      <trkpt lat="44.70131" lon="2.96541">
        <ele>1246.5</ele>
        <time>2022-08-06T11:38:48Z</time>
      </trkpt>
      <trkpt lat="44.70131" lon="2.96541">
        <ele>1246.5</ele>
        <time>2022-08-06T11:38:49Z</time>
      </trkpt>
      <trkpt lat="44.70131" lon="2.96541">
        <ele>1246.5</ele>
        <time>2022-08-06T11:38:59Z</time>
      </trkpt>
      <trkpt lat="44.70132" lon="2.96539">
        <ele>1246.6</ele>
        <time>2022-08-06T11:39:17Z</time>
      </trkpt>
      <trkpt lat="44.70132" lon="2.96538">
        <ele>1246.6</ele>
        <time>2022-08-06T11:39:37Z</time>
      </trkpt>
      <trkpt lat="44.70132" lon="2.9654">
        <ele>1246.6</ele>
        <time>2022-08-06T11:40:05Z</time>
      </trkpt>
      <trkpt lat="44.70133" lon="2.96546">
        <ele>1246.3</ele>
        <time>2022-08-06T11:40:27Z</time>
      </trkpt>
      <trkpt lat="44.70132" lon="2.96549">
        <ele>1246.2</ele>
        <time>2022-08-06T11:40:36Z</time>
      </trkpt>
      <trkpt lat="44.70136" lon="2.96557">
        <ele>1245.9</ele>
        <time>2022-08-06T11:40:44Z</time>
      </trkpt>
      <trkpt lat="44.70137" lon="2.96569">
        <ele>1245.6</ele>
        <time>2022-08-06T11:40:55Z</time>
      </trkpt>
      <trkpt lat="44.70136" lon="2.96565">
        <ele>1245.7</ele>
        <time>2022-08-06T11:41:01Z</time>
      </trkpt>
      <trkpt lat="44.70136" lon="2.96564">
        <ele>1245.7</ele>
        <time>2022-08-06T11:41:03Z</time>
      </trkpt>
      <trkpt lat="44.70136" lon="2.96564">
        <ele>1245.7</ele>
        <time>2022-08-06T11:41:09Z</time>
      </trkpt>
      <trkpt lat="44.70136" lon="2.96566">
        <ele>1245.7</ele>
        <time>2022-08-06T11:41:41Z</time>
      </trkpt>
      <trkpt lat="44.70138" lon="2.9657">
        <ele>1245.5</ele>
        <time>2022-08-06T11:41:52Z</time>
      </trkpt>
      <trkpt lat="44.70141" lon="2.96574">
        <ele>1245.3</ele>
        <time>2022-08-06T11:41:54Z</time>
      </trkpt>
      <trkpt lat="44.70147" lon="2.96581">
        <ele>1244.9</ele>
        <time>2022-08-06T11:42:03Z</time>
      </trkpt>
      <trkpt lat="44.70146" lon="2.96582">
        <ele>1244.8</ele>
        <time>2022-08-06T11:42:11Z</time>
      </trkpt>
      <trkpt lat="44.70147" lon="2.96584">
        <ele>1244.7</ele>
        <time>2022-08-06T11:42:25Z</time>
      </trkpt>
      <trkpt lat="44.70155" lon="2.96594">
        <ele>1244.3</ele>
        <time>2022-08-06T11:42:32Z</time>
      </trkpt>
      <trkpt lat="44.70162" lon="2.96609">
        <ele>1244</ele>
        <time>2022-08-06T11:42:42Z</time>
      </trkpt>
      <trkpt lat="44.70166" lon="2.96619">
        <ele>1244.3</ele>
        <time>2022-08-06T11:42:50Z</time>
      </trkpt>
      <trkpt lat="44.70166" lon="2.9662">
        <ele>1244.3</ele>
        <time>2022-08-06T11:42:51Z</time>
      </trkpt>
      <trkpt lat="44.70166" lon="2.9662">
        <ele>1244.3</ele>
        <time>2022-08-06T11:42:53Z</time>
      </trkpt>
      <trkpt lat="44.70166" lon="2.96621">
        <ele>1244.3</ele>
        <time>2022-08-06T11:42:54Z</time>
      </trkpt>
      <trkpt lat="44.70166" lon="2.96621">
        <ele>1244.4</ele>
        <time>2022-08-06T11:42:55Z</time>
      </trkpt>
      <trkpt lat="44.70167" lon="2.96623">
        <ele>1244.4</ele>
        <time>2022-08-06T11:42:57Z</time>
      </trkpt>
      <trkpt lat="44.70169" lon="2.96631">
        <ele>1244.5</ele>
        <time>2022-08-06T11:43:02Z</time>
      </trkpt>
      <trkpt lat="44.70173" lon="2.96647">
        <ele>1244.3</ele>
        <time>2022-08-06T11:43:12Z</time>
      </trkpt>
      <trkpt lat="44.70176" lon="2.96656">
        <ele>1244.2</ele>
        <time>2022-08-06T11:43:19Z</time>
      </trkpt>
      <trkpt lat="44.70176" lon="2.96658">
        <ele>1244.2</ele>
        <time>2022-08-06T11:43:21Z</time>
      </trkpt>
      <trkpt lat="44.70182" lon="2.96676">
        <ele>1243.9</ele>
        <time>2022-08-06T11:43:33Z</time>
      </trkpt>
      <trkpt lat="44.70187" lon="2.96692">
        <ele>1244</ele>
        <time>2022-08-06T11:43:43Z</time>
      </trkpt>
      <trkpt lat="44.70191" lon="2.96703">
        <ele>1243.7</ele>
        <time>2022-08-06T11:43:51Z</time>
      </trkpt>
      <trkpt lat="44.70192" lon="2.96705">
        <ele>1243.6</ele>
        <time>2022-08-06T11:43:52Z</time>
      </trkpt>
      <trkpt lat="44.70195" lon="2.96714">
        <ele>1243.3</ele>
        <time>2022-08-06T11:43:58Z</time>
      </trkpt>
      <trkpt lat="44.702" lon="2.96731">
        <ele>1242.7</ele>
        <time>2022-08-06T11:44:10Z</time>
      </trkpt>
      <trkpt lat="44.702" lon="2.96732">
        <ele>1242.7</ele>
        <time>2022-08-06T11:44:11Z</time>
      </trkpt>
      <trkpt lat="44.70201" lon="2.96732">
        <ele>1242.7</ele>
        <time>2022-08-06T11:44:14Z</time>
      </trkpt>
      <trkpt lat="44.702" lon="2.96731">
        <ele>1242.7</ele>
        <time>2022-08-06T11:44:16Z</time>
      </trkpt>
      <trkpt lat="44.702" lon="2.96732">
        <ele>1242.7</ele>
        <time>2022-08-06T11:44:18Z</time>
      </trkpt>
      <trkpt lat="44.70202" lon="2.96735">
        <ele>1242.5</ele>
        <time>2022-08-06T11:44:21Z</time>
      </trkpt>
      <trkpt lat="44.70205" lon="2.96751">
        <ele>1242</ele>
        <time>2022-08-06T11:44:31Z</time>
      </trkpt>
      <trkpt lat="44.70211" lon="2.9677">
        <ele>1241.3</ele>
        <time>2022-08-06T11:44:43Z</time>
      </trkpt>
      <trkpt lat="44.70212" lon="2.96774">
        <ele>1241.1</ele>
        <time>2022-08-06T11:44:46Z</time>
      </trkpt>
      <trkpt lat="44.70214" lon="2.96781">
        <ele>1240.8</ele>
        <time>2022-08-06T11:44:51Z</time>
      </trkpt>
      <trkpt lat="44.70217" lon="2.96787">
        <ele>1240.6</ele>
        <time>2022-08-06T11:44:55Z</time>
      </trkpt>
      <trkpt lat="44.7022" lon="2.96794">
        <ele>1240.4</ele>
        <time>2022-08-06T11:45:00Z</time>
      </trkpt>
      <trkpt lat="44.70226" lon="2.96808">
        <ele>1239.8</ele>
        <time>2022-08-06T11:45:10Z</time>
      </trkpt>
      <trkpt lat="44.7023" lon="2.9682">
        <ele>1238.8</ele>
        <time>2022-08-06T11:45:18Z</time>
      </trkpt>
      <trkpt lat="44.70232" lon="2.96828">
        <ele>1238.2</ele>
        <time>2022-08-06T11:45:23Z</time>
      </trkpt>
      <trkpt lat="44.70234" lon="2.96834">
        <ele>1237.8</ele>
        <time>2022-08-06T11:45:27Z</time>
      </trkpt>
      <trkpt lat="44.70238" lon="2.96844">
        <ele>1237.5</ele>
        <time>2022-08-06T11:45:34Z</time>
      </trkpt>
      <trkpt lat="44.70239" lon="2.96849">
        <ele>1237.3</ele>
        <time>2022-08-06T11:45:37Z</time>
      </trkpt>
      <trkpt lat="44.70242" lon="2.9686">
        <ele>1236.8</ele>
        <time>2022-08-06T11:45:44Z</time>
      </trkpt>
      <trkpt lat="44.70248" lon="2.96874">
        <ele>1236</ele>
        <time>2022-08-06T11:45:53Z</time>
      </trkpt>
      <trkpt lat="44.7025" lon="2.96888">
        <ele>1235</ele>
        <time>2022-08-06T11:46:02Z</time>
      </trkpt>
      <trkpt lat="44.70251" lon="2.96905">
        <ele>1234.5</ele>
        <time>2022-08-06T11:46:12Z</time>
      </trkpt>
      <trkpt lat="44.70251" lon="2.96909">
        <ele>1234.3</ele>
        <time>2022-08-06T11:46:14Z</time>
      </trkpt>
      <trkpt lat="44.7025" lon="2.96922">
        <ele>1233.6</ele>
        <time>2022-08-06T11:46:22Z</time>
      </trkpt>
      <trkpt lat="44.7025" lon="2.96928">
        <ele>1233.2</ele>
        <time>2022-08-06T11:46:26Z</time>
      </trkpt>
      <trkpt lat="44.70252" lon="2.96941">
        <ele>1232.4</ele>
        <time>2022-08-06T11:46:34Z</time>
      </trkpt>
      <trkpt lat="44.70252" lon="2.96948">
        <ele>1231.8</ele>
        <time>2022-08-06T11:46:39Z</time>
      </trkpt>
      <trkpt lat="44.70252" lon="2.96956">
        <ele>1231</ele>
        <time>2022-08-06T11:46:44Z</time>
      </trkpt>
      <trkpt lat="44.70252" lon="2.96957">
        <ele>1230.8</ele>
        <time>2022-08-06T11:46:45Z</time>
      </trkpt>
      <trkpt lat="44.70252" lon="2.96956">
        <ele>1230.9</ele>
        <time>2022-08-06T11:46:49Z</time>
      </trkpt>
      <trkpt lat="44.70252" lon="2.96954">
        <ele>1231.1</ele>
        <time>2022-08-06T11:46:51Z</time>
      </trkpt>
      <trkpt lat="44.70252" lon="2.96954">
        <ele>1231.1</ele>
        <time>2022-08-06T11:46:56Z</time>
      </trkpt>
      <trkpt lat="44.70252" lon="2.96954">
        <ele>1231.1</ele>
        <time>2022-08-06T11:46:58Z</time>
      </trkpt>
      <trkpt lat="44.70252" lon="2.96954">
        <ele>1231.1</ele>
        <time>2022-08-06T11:47:07Z</time>
      </trkpt>
      <trkpt lat="44.70252" lon="2.96953">
        <ele>1231.2</ele>
        <time>2022-08-06T11:47:19Z</time>
      </trkpt>
      <trkpt lat="44.70251" lon="2.96958">
        <ele>1230.7</ele>
        <time>2022-08-06T11:47:26Z</time>
      </trkpt>
      <trkpt lat="44.70251" lon="2.96962">
        <ele>1230.2</ele>
        <time>2022-08-06T11:47:28Z</time>
      </trkpt>
      <trkpt lat="44.7025" lon="2.96976">
        <ele>1228.8</ele>
        <time>2022-08-06T11:47:35Z</time>
      </trkpt>
      <trkpt lat="44.70249" lon="2.96982">
        <ele>1228.2</ele>
        <time>2022-08-06T11:47:39Z</time>
      </trkpt>
      <trkpt lat="44.70248" lon="2.97">
        <ele>1226.8</ele>
        <time>2022-08-06T11:47:50Z</time>
      </trkpt>
      <trkpt lat="44.70246" lon="2.97007">
        <ele>1226.2</ele>
        <time>2022-08-06T11:47:54Z</time>
      </trkpt>
      <trkpt lat="44.70243" lon="2.97017">
        <ele>1225.4</ele>
        <time>2022-08-06T11:48:00Z</time>
      </trkpt>
      <trkpt lat="44.70239" lon="2.97031">
        <ele>1224.6</ele>
        <time>2022-08-06T11:48:09Z</time>
      </trkpt>
      <trkpt lat="44.70239" lon="2.97032">
        <ele>1224.6</ele>
        <time>2022-08-06T11:48:10Z</time>
      </trkpt>
      <trkpt lat="44.70233" lon="2.97049">
        <ele>1224.4</ele>
        <time>2022-08-06T11:48:21Z</time>
      </trkpt>
      <trkpt lat="44.70229" lon="2.97064">
        <ele>1223.9</ele>
        <time>2022-08-06T11:48:34Z</time>
      </trkpt>
      <trkpt lat="44.70229" lon="2.97064">
        <ele>1223.9</ele>
        <time>2022-08-06T11:48:36Z</time>
      </trkpt>
      <trkpt lat="44.70228" lon="2.97066">
        <ele>1223.8</ele>
        <time>2022-08-06T11:48:40Z</time>
      </trkpt>
      <trkpt lat="44.70224" lon="2.97074">
        <ele>1223.4</ele>
        <time>2022-08-06T11:48:47Z</time>
      </trkpt>
      <trkpt lat="44.70224" lon="2.97079">
        <ele>1223.2</ele>
        <time>2022-08-06T11:48:50Z</time>
      </trkpt>
      <trkpt lat="44.70221" lon="2.97085">
        <ele>1222.9</ele>
        <time>2022-08-06T11:48:55Z</time>
      </trkpt>
      <trkpt lat="44.7022" lon="2.97087">
        <ele>1222.8</ele>
        <time>2022-08-06T11:48:58Z</time>
      </trkpt>
      <trkpt lat="44.7022" lon="2.97087">
        <ele>1222.8</ele>
        <time>2022-08-06T11:48:59Z</time>
      </trkpt>
      <trkpt lat="44.7022" lon="2.97087">
        <ele>1222.8</ele>
        <time>2022-08-06T11:49:00Z</time>
      </trkpt>
      <trkpt lat="44.7022" lon="2.97088">
        <ele>1222.8</ele>
        <time>2022-08-06T11:49:06Z</time>
      </trkpt>
      <trkpt lat="44.70218" lon="2.97093">
        <ele>1222.5</ele>
        <time>2022-08-06T11:49:11Z</time>
      </trkpt>
      <trkpt lat="44.70217" lon="2.97095">
        <ele>1222.5</ele>
        <time>2022-08-06T11:49:12Z</time>
      </trkpt>
      <trkpt lat="44.70213" lon="2.97102">
        <ele>1222.2</ele>
        <time>2022-08-06T11:49:19Z</time>
      </trkpt>
      <trkpt lat="44.70211" lon="2.9712">
        <ele>1221.9</ele>
        <time>2022-08-06T11:49:31Z</time>
      </trkpt>
      <trkpt lat="44.70209" lon="2.97136">
        <ele>1221.6</ele>
        <time>2022-08-06T11:49:41Z</time>
      </trkpt>
      <trkpt lat="44.70208" lon="2.97155">
        <ele>1221.2</ele>
        <time>2022-08-06T11:49:52Z</time>
      </trkpt>
      <trkpt lat="44.70205" lon="2.97169">
        <ele>1221.1</ele>
        <time>2022-08-06T11:50:02Z</time>
      </trkpt>
      <trkpt lat="44.70206" lon="2.9717">
        <ele>1221.1</ele>
        <time>2022-08-06T11:50:04Z</time>
      </trkpt>
      <trkpt lat="44.70206" lon="2.9717">
        <ele>1221.1</ele>
        <time>2022-08-06T11:50:05Z</time>
      </trkpt>
      <trkpt lat="44.70205" lon="2.9717">
        <ele>1221.1</ele>
        <time>2022-08-06T11:50:07Z</time>
      </trkpt>
      <trkpt lat="44.70206" lon="2.9717">
        <ele>1221.1</ele>
        <time>2022-08-06T11:50:19Z</time>
      </trkpt>
      <trkpt lat="44.70205" lon="2.97179">
        <ele>1221.4</ele>
        <time>2022-08-06T11:50:28Z</time>
      </trkpt>
      <trkpt lat="44.70205" lon="2.97195">
        <ele>1221.9</ele>
        <time>2022-08-06T11:50:37Z</time>
      </trkpt>
      <trkpt lat="44.70204" lon="2.97198">
        <ele>1222.2</ele>
        <time>2022-08-06T11:50:39Z</time>
      </trkpt>
      <trkpt lat="44.70202" lon="2.97215">
        <ele>1223.5</ele>
        <time>2022-08-06T11:50:50Z</time>
      </trkpt>
      <trkpt lat="44.70201" lon="2.97232">
        <ele>1224.4</ele>
        <time>2022-08-06T11:51:00Z</time>
      </trkpt>
      <trkpt lat="44.70201" lon="2.97233">
        <ele>1224.4</ele>
        <time>2022-08-06T11:51:01Z</time>
      </trkpt>
      <trkpt lat="44.70202" lon="2.97247">
        <ele>1224.9</ele>
        <time>2022-08-06T11:51:10Z</time>
      </trkpt>
      <trkpt lat="44.70202" lon="2.9725">
        <ele>1225</ele>
        <time>2022-08-06T11:51:12Z</time>
      </trkpt>
      <trkpt lat="44.702" lon="2.97262">
        <ele>1225.3</ele>
        <time>2022-08-06T11:51:19Z</time>
      </trkpt>
      <trkpt lat="44.70198" lon="2.97283">
        <ele>1225.8</ele>
        <time>2022-08-06T11:51:31Z</time>
      </trkpt>
      <trkpt lat="44.70196" lon="2.97295">
        <ele>1226</ele>
        <time>2022-08-06T11:51:41Z</time>
      </trkpt>
      <trkpt lat="44.70196" lon="2.97295">
        <ele>1226</ele>
        <time>2022-08-06T11:51:44Z</time>
      </trkpt>
      <trkpt lat="44.70196" lon="2.97298">
        <ele>1226</ele>
        <time>2022-08-06T11:51:47Z</time>
      </trkpt>
      <trkpt lat="44.70194" lon="2.97305">
        <ele>1226</ele>
        <time>2022-08-06T11:51:52Z</time>
      </trkpt>
      <trkpt lat="44.70194" lon="2.97307">
        <ele>1225.9</ele>
        <time>2022-08-06T11:51:54Z</time>
      </trkpt>
      <trkpt lat="44.70193" lon="2.97309">
        <ele>1225.9</ele>
        <time>2022-08-06T11:51:57Z</time>
      </trkpt>
      <trkpt lat="44.70193" lon="2.97308">
        <ele>1225.9</ele>
        <time>2022-08-06T11:51:59Z</time>
      </trkpt>
      <trkpt lat="44.70193" lon="2.97311">
        <ele>1225.9</ele>
        <time>2022-08-06T11:52:04Z</time>
      </trkpt>
      <trkpt lat="44.70193" lon="2.97314">
        <ele>1225.8</ele>
        <time>2022-08-06T11:52:07Z</time>
      </trkpt>
      <trkpt lat="44.70192" lon="2.97321">
        <ele>1225.6</ele>
        <time>2022-08-06T11:52:13Z</time>
      </trkpt>
      <trkpt lat="44.70191" lon="2.97323">
        <ele>1225.6</ele>
        <time>2022-08-06T11:52:20Z</time>
      </trkpt>
      <trkpt lat="44.70191" lon="2.97323">
        <ele>1225.5</ele>
        <time>2022-08-06T11:52:25Z</time>
      </trkpt>
      <trkpt lat="44.70191" lon="2.97323">
        <ele>1225.5</ele>
        <time>2022-08-06T11:52:46Z</time>
      </trkpt>
      <trkpt lat="44.70191" lon="2.97323">
        <ele>1225.5</ele>
        <time>2022-08-06T11:52:47Z</time>
      </trkpt>
      <trkpt lat="44.70191" lon="2.97323">
        <ele>1225.5</ele>
        <time>2022-08-06T11:52:49Z</time>
      </trkpt>
      <trkpt lat="44.70189" lon="2.9733">
        <ele>1225.2</ele>
        <time>2022-08-06T11:52:54Z</time>
      </trkpt>
      <trkpt lat="44.70187" lon="2.97338">
        <ele>1224.5</ele>
        <time>2022-08-06T11:52:58Z</time>
      </trkpt>
      <trkpt lat="44.70185" lon="2.97349">
        <ele>1223.6</ele>
        <time>2022-08-06T11:53:04Z</time>
      </trkpt>
      <trkpt lat="44.70184" lon="2.97363">
        <ele>1222.6</ele>
        <time>2022-08-06T11:53:12Z</time>
      </trkpt>
      <trkpt lat="44.70183" lon="2.9737">
        <ele>1221.9</ele>
        <time>2022-08-06T11:53:16Z</time>
      </trkpt>
      <trkpt lat="44.70182" lon="2.97378">
        <ele>1221.3</ele>
        <time>2022-08-06T11:53:21Z</time>
      </trkpt>
      <trkpt lat="44.70182" lon="2.97386">
        <ele>1220.7</ele>
        <time>2022-08-06T11:53:28Z</time>
      </trkpt>
      <trkpt lat="44.70183" lon="2.97387">
        <ele>1220.7</ele>
        <time>2022-08-06T11:53:29Z</time>
      </trkpt>
      <trkpt lat="44.70181" lon="2.97397">
        <ele>1219.6</ele>
        <time>2022-08-06T11:53:36Z</time>
      </trkpt>
      <trkpt lat="44.7018" lon="2.974">
        <ele>1219.4</ele>
        <time>2022-08-06T11:53:38Z</time>
      </trkpt>
      <trkpt lat="44.7018" lon="2.97404">
        <ele>1219.1</ele>
        <time>2022-08-06T11:53:41Z</time>
      </trkpt>
      <trkpt lat="44.70179" lon="2.9741">
        <ele>1218.5</ele>
        <time>2022-08-06T11:53:45Z</time>
      </trkpt>
      <trkpt lat="44.70178" lon="2.97419">
        <ele>1217.8</ele>
        <time>2022-08-06T11:53:51Z</time>
      </trkpt>
      <trkpt lat="44.70177" lon="2.97437">
        <ele>1217.3</ele>
        <time>2022-08-06T11:54:01Z</time>
      </trkpt>
      <trkpt lat="44.70176" lon="2.9744">
        <ele>1217.1</ele>
        <time>2022-08-06T11:54:03Z</time>
      </trkpt>
      <trkpt lat="44.70173" lon="2.97458">
        <ele>1216.9</ele>
        <time>2022-08-06T11:54:14Z</time>
      </trkpt>
      <trkpt lat="44.70171" lon="2.97461">
        <ele>1216.7</ele>
        <time>2022-08-06T11:54:16Z</time>
      </trkpt>
      <trkpt lat="44.70166" lon="2.97471">
        <ele>1215.9</ele>
        <time>2022-08-06T11:54:24Z</time>
      </trkpt>
      <trkpt lat="44.70166" lon="2.97473">
        <ele>1215.9</ele>
        <time>2022-08-06T11:54:25Z</time>
      </trkpt>
      <trkpt lat="44.70164" lon="2.97477">
        <ele>1215.6</ele>
        <time>2022-08-06T11:54:28Z</time>
      </trkpt>
      <trkpt lat="44.70156" lon="2.97492">
        <ele>1214.7</ele>
        <time>2022-08-06T11:54:40Z</time>
      </trkpt>
      <trkpt lat="44.70149" lon="2.97498">
        <ele>1214.1</ele>
        <time>2022-08-06T11:54:47Z</time>
      </trkpt>
      <trkpt lat="44.70148" lon="2.975">
        <ele>1213.9</ele>
        <time>2022-08-06T11:54:49Z</time>
      </trkpt>
      <trkpt lat="44.70139" lon="2.9751">
        <ele>1213.3</ele>
        <time>2022-08-06T11:55:00Z</time>
      </trkpt>
      <trkpt lat="44.70134" lon="2.97517">
        <ele>1213</ele>
        <time>2022-08-06T11:55:06Z</time>
      </trkpt>
      <trkpt lat="44.70131" lon="2.97522">
        <ele>1212.8</ele>
        <time>2022-08-06T11:55:11Z</time>
      </trkpt>
      <trkpt lat="44.70127" lon="2.97527">
        <ele>1212.7</ele>
        <time>2022-08-06T11:55:16Z</time>
      </trkpt>
      <trkpt lat="44.7012" lon="2.97535">
        <ele>1212</ele>
        <time>2022-08-06T11:55:24Z</time>
      </trkpt>
      <trkpt lat="44.70116" lon="2.97539">
        <ele>1211.6</ele>
        <time>2022-08-06T11:55:28Z</time>
      </trkpt>
      <trkpt lat="44.70111" lon="2.97544">
        <ele>1211</ele>
        <time>2022-08-06T11:55:34Z</time>
      </trkpt>
      <trkpt lat="44.70108" lon="2.97548">
        <ele>1210.8</ele>
        <time>2022-08-06T11:55:38Z</time>
      </trkpt>
      <trkpt lat="44.70104" lon="2.97552">
        <ele>1210.4</ele>
        <time>2022-08-06T11:55:43Z</time>
      </trkpt>
      <trkpt lat="44.70103" lon="2.97553">
        <ele>1210.4</ele>
        <time>2022-08-06T11:55:44Z</time>
      </trkpt>
      <trkpt lat="44.70092" lon="2.97559">
        <ele>1209.6</ele>
        <time>2022-08-06T11:55:55Z</time>
      </trkpt>
      <trkpt lat="44.70086" lon="2.97557">
        <ele>1209.2</ele>
        <time>2022-08-06T11:56:01Z</time>
      </trkpt>
      <trkpt lat="44.70083" lon="2.97557">
        <ele>1209</ele>
        <time>2022-08-06T11:56:03Z</time>
      </trkpt>
      <trkpt lat="44.70071" lon="2.97554">
        <ele>1208</ele>
        <time>2022-08-06T11:56:15Z</time>
      </trkpt>
      <trkpt lat="44.70069" lon="2.97553">
        <ele>1207.8</ele>
        <time>2022-08-06T11:56:17Z</time>
      </trkpt>
      <trkpt lat="44.70067" lon="2.97552">
        <ele>1207.7</ele>
        <time>2022-08-06T11:56:19Z</time>
      </trkpt>
      <trkpt lat="44.70062" lon="2.9755">
        <ele>1207.2</ele>
        <time>2022-08-06T11:56:24Z</time>
      </trkpt>
      <trkpt lat="44.70053" lon="2.97544">
        <ele>1206.2</ele>
        <time>2022-08-06T11:56:33Z</time>
      </trkpt>
      <trkpt lat="44.70051" lon="2.97543">
        <ele>1205.9</ele>
        <time>2022-08-06T11:56:35Z</time>
      </trkpt>
      <trkpt lat="44.70038" lon="2.97533">
        <ele>1204.2</ele>
        <time>2022-08-06T11:56:47Z</time>
      </trkpt>
      <trkpt lat="44.70035" lon="2.97528">
        <ele>1203.8</ele>
        <time>2022-08-06T11:56:52Z</time>
      </trkpt>
      <trkpt lat="44.70035" lon="2.97527">
        <ele>1203.8</ele>
        <time>2022-08-06T11:56:53Z</time>
      </trkpt>
      <trkpt lat="44.70035" lon="2.97529">
        <ele>1203.8</ele>
        <time>2022-08-06T11:56:55Z</time>
      </trkpt>
      <trkpt lat="44.70035" lon="2.97542">
        <ele>1204</ele>
        <time>2022-08-06T11:57:03Z</time>
      </trkpt>
      <trkpt lat="44.70035" lon="2.97558">
        <ele>1204</ele>
        <time>2022-08-06T11:57:13Z</time>
      </trkpt>
      <trkpt lat="44.70035" lon="2.97563">
        <ele>1203.9</ele>
        <time>2022-08-06T11:57:16Z</time>
      </trkpt>
      <trkpt lat="44.70033" lon="2.97574">
        <ele>1203.7</ele>
        <time>2022-08-06T11:57:22Z</time>
      </trkpt>
      <trkpt lat="44.70033" lon="2.9758">
        <ele>1203.6</ele>
        <time>2022-08-06T11:57:26Z</time>
      </trkpt>
      <trkpt lat="44.70031" lon="2.9759">
        <ele>1203.2</ele>
        <time>2022-08-06T11:57:32Z</time>
      </trkpt>
      <trkpt lat="44.70029" lon="2.97599">
        <ele>1202.6</ele>
        <time>2022-08-06T11:57:38Z</time>
      </trkpt>
      <trkpt lat="44.70028" lon="2.97602">
        <ele>1202.4</ele>
        <time>2022-08-06T11:57:41Z</time>
      </trkpt>
      <trkpt lat="44.70028" lon="2.97605">
        <ele>1202.3</ele>
        <time>2022-08-06T11:57:42Z</time>
      </trkpt>
      <trkpt lat="44.70028" lon="2.97611">
        <ele>1202.1</ele>
        <time>2022-08-06T11:57:47Z</time>
      </trkpt>
      <trkpt lat="44.70029" lon="2.97623">
        <ele>1201.4</ele>
        <time>2022-08-06T11:57:54Z</time>
      </trkpt>
      <trkpt lat="44.70029" lon="2.97628">
        <ele>1201</ele>
        <time>2022-08-06T11:57:58Z</time>
      </trkpt>
      <trkpt lat="44.7003" lon="2.97633">
        <ele>1200.8</ele>
        <time>2022-08-06T11:58:02Z</time>
      </trkpt>
      <trkpt lat="44.70031" lon="2.97638">
        <ele>1200.7</ele>
        <time>2022-08-06T11:58:06Z</time>
      </trkpt>
      <trkpt lat="44.70033" lon="2.97647">
        <ele>1200</ele>
        <time>2022-08-06T11:58:12Z</time>
      </trkpt>
      <trkpt lat="44.70034" lon="2.97657">
        <ele>1199.1</ele>
        <time>2022-08-06T11:58:20Z</time>
      </trkpt>
      <trkpt lat="44.70035" lon="2.97658">
        <ele>1199.2</ele>
        <time>2022-08-06T11:58:22Z</time>
      </trkpt>
      <trkpt lat="44.70035" lon="2.97658">
        <ele>1199.3</ele>
        <time>2022-08-06T11:58:24Z</time>
      </trkpt>
      <trkpt lat="44.70035" lon="2.97658">
        <ele>1199.3</ele>
        <time>2022-08-06T11:58:27Z</time>
      </trkpt>
      <trkpt lat="44.70034" lon="2.97657">
        <ele>1199.2</ele>
        <time>2022-08-06T11:58:33Z</time>
      </trkpt>
      <trkpt lat="44.70034" lon="2.97657">
        <ele>1199.2</ele>
        <time>2022-08-06T11:58:34Z</time>
      </trkpt>
      <trkpt lat="44.70034" lon="2.97658">
        <ele>1199.1</ele>
        <time>2022-08-06T11:58:45Z</time>
      </trkpt>
      <trkpt lat="44.70036" lon="2.97668">
        <ele>1198.4</ele>
        <time>2022-08-06T11:58:56Z</time>
      </trkpt>
      <trkpt lat="44.70037" lon="2.97683">
        <ele>1197.2</ele>
        <time>2022-08-06T11:59:03Z</time>
      </trkpt>
      <trkpt lat="44.70037" lon="2.97684">
        <ele>1197</ele>
        <time>2022-08-06T11:59:04Z</time>
      </trkpt>
      <trkpt lat="44.70039" lon="2.97697">
        <ele>1196</ele>
        <time>2022-08-06T11:59:12Z</time>
      </trkpt>
      <trkpt lat="44.70041" lon="2.97704">
        <ele>1195.5</ele>
        <time>2022-08-06T11:59:17Z</time>
      </trkpt>
      <trkpt lat="44.70042" lon="2.97712">
        <ele>1195</ele>
        <time>2022-08-06T11:59:22Z</time>
      </trkpt>
      <trkpt lat="44.70043" lon="2.97727">
        <ele>1193.7</ele>
        <time>2022-08-06T11:59:32Z</time>
      </trkpt>
      <trkpt lat="44.70043" lon="2.97729">
        <ele>1193.6</ele>
        <time>2022-08-06T11:59:33Z</time>
      </trkpt>
      <trkpt lat="44.70044" lon="2.97744">
        <ele>1192.4</ele>
        <time>2022-08-06T11:59:43Z</time>
      </trkpt>
      <trkpt lat="44.70044" lon="2.97745">
        <ele>1192.3</ele>
        <time>2022-08-06T11:59:44Z</time>
      </trkpt>
      <trkpt lat="44.70044" lon="2.97757">
        <ele>1191.3</ele>
        <time>2022-08-06T11:59:52Z</time>
      </trkpt>
      <trkpt lat="44.70044" lon="2.97762">
        <ele>1190.9</ele>
        <time>2022-08-06T11:59:55Z</time>
      </trkpt>
      <trkpt lat="44.70045" lon="2.97765">
        <ele>1190.7</ele>
        <time>2022-08-06T11:59:57Z</time>
      </trkpt>
      <trkpt lat="44.70046" lon="2.97772">
        <ele>1190.2</ele>
        <time>2022-08-06T12:00:03Z</time>
      </trkpt>
      <trkpt lat="44.70046" lon="2.97773">
        <ele>1190.1</ele>
        <time>2022-08-06T12:00:04Z</time>
      </trkpt>
      <trkpt lat="44.70047" lon="2.97777">
        <ele>1189.8</ele>
        <time>2022-08-06T12:00:08Z</time>
      </trkpt>
      <trkpt lat="44.70047" lon="2.97782">
        <ele>1189.5</ele>
        <time>2022-08-06T12:00:11Z</time>
      </trkpt>
      <trkpt lat="44.70047" lon="2.97785">
        <ele>1189.2</ele>
        <time>2022-08-06T12:00:13Z</time>
      </trkpt>
      <trkpt lat="44.70048" lon="2.97795">
        <ele>1188.4</ele>
        <time>2022-08-06T12:00:22Z</time>
      </trkpt>
      <trkpt lat="44.70048" lon="2.97795">
        <ele>1188.4</ele>
        <time>2022-08-06T12:00:23Z</time>
      </trkpt>
      <trkpt lat="44.70047" lon="2.97794">
        <ele>1188.4</ele>
        <time>2022-08-06T12:00:29Z</time>
      </trkpt>
      <trkpt lat="44.70047" lon="2.97794">
        <ele>1188.3</ele>
        <time>2022-08-06T12:00:38Z</time>
      </trkpt>
      <trkpt lat="44.70047" lon="2.97794">
        <ele>1188.4</ele>
        <time>2022-08-06T12:00:40Z</time>
      </trkpt>
      <trkpt lat="44.70046" lon="2.97802">
        <ele>1187.7</ele>
        <time>2022-08-06T12:01:23Z</time>
      </trkpt>
      <trkpt lat="44.70048" lon="2.97812">
        <ele>1187.1</ele>
        <time>2022-08-06T12:01:58Z</time>
      </trkpt>
      <trkpt lat="44.70052" lon="2.97836">
        <ele>1185.8</ele>
        <time>2022-08-06T12:02:11Z</time>
      </trkpt>
      <trkpt lat="44.70052" lon="2.97842">
        <ele>1185.5</ele>
        <time>2022-08-06T12:02:15Z</time>
      </trkpt>
      <trkpt lat="44.70052" lon="2.97842">
        <ele>1185.4</ele>
        <time>2022-08-06T12:02:18Z</time>
      </trkpt>
      <trkpt lat="44.70053" lon="2.97848">
        <ele>1185</ele>
        <time>2022-08-06T12:02:23Z</time>
      </trkpt>
      <trkpt lat="44.70053" lon="2.9785">
        <ele>1184.9</ele>
        <time>2022-08-06T12:02:24Z</time>
      </trkpt>
      <trkpt lat="44.70053" lon="2.97858">
        <ele>1184.3</ele>
        <time>2022-08-06T12:02:28Z</time>
      </trkpt>
      <trkpt lat="44.70053" lon="2.9787">
        <ele>1183.8</ele>
        <time>2022-08-06T12:02:35Z</time>
      </trkpt>
      <trkpt lat="44.7005" lon="2.97891">
        <ele>1183.3</ele>
        <time>2022-08-06T12:02:47Z</time>
      </trkpt>
      <trkpt lat="44.70048" lon="2.9791">
        <ele>1182.4</ele>
        <time>2022-08-06T12:02:58Z</time>
      </trkpt>
      <trkpt lat="44.70048" lon="2.9792">
        <ele>1181.8</ele>
        <time>2022-08-06T12:03:04Z</time>
      </trkpt>
      <trkpt lat="44.70047" lon="2.97928">
        <ele>1181.5</ele>
        <time>2022-08-06T12:03:09Z</time>
      </trkpt>
      <trkpt lat="44.70047" lon="2.97936">
        <ele>1181.1</ele>
        <time>2022-08-06T12:03:14Z</time>
      </trkpt>
      <trkpt lat="44.70047" lon="2.97949">
        <ele>1180.5</ele>
        <time>2022-08-06T12:03:21Z</time>
      </trkpt>
      <trkpt lat="44.70048" lon="2.97959">
        <ele>1180.2</ele>
        <time>2022-08-06T12:03:27Z</time>
      </trkpt>
      <trkpt lat="44.70052" lon="2.97966">
        <ele>1180.1</ele>
        <time>2022-08-06T12:03:31Z</time>
      </trkpt>
      <trkpt lat="44.70054" lon="2.9798">
        <ele>1179.7</ele>
        <time>2022-08-06T12:03:38Z</time>
      </trkpt>
      <trkpt lat="44.70054" lon="2.97982">
        <ele>1179.6</ele>
        <time>2022-08-06T12:03:39Z</time>
      </trkpt>
      <trkpt lat="44.70054" lon="2.97984">
        <ele>1179.6</ele>
        <time>2022-08-06T12:03:40Z</time>
      </trkpt>
      <trkpt lat="44.70055" lon="2.98002">
        <ele>1179</ele>
        <time>2022-08-06T12:03:50Z</time>
      </trkpt>
      <trkpt lat="44.70055" lon="2.98021">
        <ele>1179</ele>
        <time>2022-08-06T12:04:00Z</time>
      </trkpt>
      <trkpt lat="44.70056" lon="2.98041">
        <ele>1178.5</ele>
        <time>2022-08-06T12:04:11Z</time>
      </trkpt>
      <trkpt lat="44.70057" lon="2.98057">
        <ele>1178.1</ele>
        <time>2022-08-06T12:04:20Z</time>
      </trkpt>
      <trkpt lat="44.70057" lon="2.9806">
        <ele>1178</ele>
        <time>2022-08-06T12:04:22Z</time>
      </trkpt>
      <trkpt lat="44.70058" lon="2.98074">
        <ele>1177.5</ele>
        <time>2022-08-06T12:04:29Z</time>
      </trkpt>
      <trkpt lat="44.70059" lon="2.98084">
        <ele>1177.1</ele>
        <time>2022-08-06T12:04:35Z</time>
      </trkpt>
      <trkpt lat="44.70061" lon="2.98099">
        <ele>1176.6</ele>
        <time>2022-08-06T12:04:44Z</time>
      </trkpt>
      <trkpt lat="44.70063" lon="2.98122">
        <ele>1175.9</ele>
        <time>2022-08-06T12:04:57Z</time>
      </trkpt>
      <trkpt lat="44.70063" lon="2.98124">
        <ele>1175.8</ele>
        <time>2022-08-06T12:04:58Z</time>
      </trkpt>
      <trkpt lat="44.70065" lon="2.98136">
        <ele>1175.5</ele>
        <time>2022-08-06T12:05:05Z</time>
      </trkpt>
      <trkpt lat="44.70067" lon="2.98153">
        <ele>1175.6</ele>
        <time>2022-08-06T12:05:15Z</time>
      </trkpt>
      <trkpt lat="44.70069" lon="2.9816">
        <ele>1175.8</ele>
        <time>2022-08-06T12:05:19Z</time>
      </trkpt>
      <trkpt lat="44.7007" lon="2.98178">
        <ele>1175.7</ele>
        <time>2022-08-06T12:05:29Z</time>
      </trkpt>
      <trkpt lat="44.70074" lon="2.98196">
        <ele>1175.2</ele>
        <time>2022-08-06T12:05:41Z</time>
      </trkpt>
      <trkpt lat="44.70075" lon="2.98205">
        <ele>1174.8</ele>
        <time>2022-08-06T12:05:46Z</time>
      </trkpt>
      <trkpt lat="44.70077" lon="2.98215">
        <ele>1174.2</ele>
        <time>2022-08-06T12:05:52Z</time>
      </trkpt>
      <trkpt lat="44.7008" lon="2.98233">
        <ele>1173.4</ele>
        <time>2022-08-06T12:06:03Z</time>
      </trkpt>
      <trkpt lat="44.7008" lon="2.98249">
        <ele>1172.8</ele>
        <time>2022-08-06T12:06:14Z</time>
      </trkpt>
      <trkpt lat="44.70077" lon="2.98263">
        <ele>1171.3</ele>
        <time>2022-08-06T12:06:25Z</time>
      </trkpt>
      <trkpt lat="44.70077" lon="2.98264">
        <ele>1171.3</ele>
        <time>2022-08-06T12:06:26Z</time>
      </trkpt>
      <trkpt lat="44.70077" lon="2.98265">
        <ele>1171.1</ele>
        <time>2022-08-06T12:06:28Z</time>
      </trkpt>
      <trkpt lat="44.70076" lon="2.98267">
        <ele>1171</ele>
        <time>2022-08-06T12:06:30Z</time>
      </trkpt>
      <trkpt lat="44.70075" lon="2.98268">
        <ele>1170.8</ele>
        <time>2022-08-06T12:06:32Z</time>
      </trkpt>
      <trkpt lat="44.70074" lon="2.98269">
        <ele>1170.8</ele>
        <time>2022-08-06T12:06:39Z</time>
      </trkpt>
      <trkpt lat="44.70074" lon="2.98272">
        <ele>1170.5</ele>
        <time>2022-08-06T12:06:47Z</time>
      </trkpt>
      <trkpt lat="44.70072" lon="2.98272">
        <ele>1170.5</ele>
        <time>2022-08-06T12:06:50Z</time>
      </trkpt>
      <trkpt lat="44.70069" lon="2.98275">
        <ele>1170.2</ele>
        <time>2022-08-06T12:06:53Z</time>
      </trkpt>
      <trkpt lat="44.70065" lon="2.98284">
        <ele>1170.4</ele>
        <time>2022-08-06T12:07:00Z</time>
      </trkpt>
      <trkpt lat="44.70059" lon="2.98296">
        <ele>1171.7</ele>
        <time>2022-08-06T12:07:11Z</time>
      </trkpt>
      <trkpt lat="44.70059" lon="2.98296">
        <ele>1171.7</ele>
        <time>2022-08-06T12:07:12Z</time>
      </trkpt>
      <trkpt lat="44.70057" lon="2.98296">
        <ele>1171.8</ele>
        <time>2022-08-06T12:07:20Z</time>
      </trkpt>
      <trkpt lat="44.7006" lon="2.98298">
        <ele>1171.8</ele>
        <time>2022-08-06T12:07:24Z</time>
      </trkpt>
      <trkpt lat="44.70062" lon="2.983">
        <ele>1171.8</ele>
        <time>2022-08-06T12:07:27Z</time>
      </trkpt>
      <trkpt lat="44.70065" lon="2.98297">
        <ele>1171.4</ele>
        <time>2022-08-06T12:07:32Z</time>
      </trkpt>
      <trkpt lat="44.70066" lon="2.98296">
        <ele>1171.2</ele>
        <time>2022-08-06T12:07:39Z</time>
      </trkpt>
      <trkpt lat="44.70062" lon="2.98301">
        <ele>1171.9</ele>
        <time>2022-08-06T12:07:47Z</time>
      </trkpt>
      <trkpt lat="44.70055" lon="2.98316">
        <ele>1173</ele>
        <time>2022-08-06T12:07:57Z</time>
      </trkpt>
      <trkpt lat="44.70053" lon="2.98324">
        <ele>1173</ele>
        <time>2022-08-06T12:08:01Z</time>
      </trkpt>
      <trkpt lat="44.70048" lon="2.98335">
        <ele>1173.1</ele>
        <time>2022-08-06T12:08:09Z</time>
      </trkpt>
      <trkpt lat="44.70042" lon="2.98352">
        <ele>1174</ele>
        <time>2022-08-06T12:08:19Z</time>
      </trkpt>
      <trkpt lat="44.7004" lon="2.98358">
        <ele>1174.4</ele>
        <time>2022-08-06T12:08:23Z</time>
      </trkpt>
      <trkpt lat="44.70037" lon="2.98364">
        <ele>1174.9</ele>
        <time>2022-08-06T12:08:27Z</time>
      </trkpt>
      <trkpt lat="44.70032" lon="2.98376">
        <ele>1176.1</ele>
        <time>2022-08-06T12:08:35Z</time>
      </trkpt>
      <trkpt lat="44.70029" lon="2.98384">
        <ele>1176.7</ele>
        <time>2022-08-06T12:08:40Z</time>
      </trkpt>
      <trkpt lat="44.70024" lon="2.98395">
        <ele>1177.3</ele>
        <time>2022-08-06T12:08:47Z</time>
      </trkpt>
      <trkpt lat="44.70023" lon="2.98398">
        <ele>1177.5</ele>
        <time>2022-08-06T12:08:49Z</time>
      </trkpt>
      <trkpt lat="44.70019" lon="2.98412">
        <ele>1178.3</ele>
        <time>2022-08-06T12:08:58Z</time>
      </trkpt>
      <trkpt lat="44.70019" lon="2.98414">
        <ele>1178.4</ele>
        <time>2022-08-06T12:08:59Z</time>
      </trkpt>
      <trkpt lat="44.70015" lon="2.98429">
        <ele>1179.4</ele>
        <time>2022-08-06T12:09:08Z</time>
      </trkpt>
      <trkpt lat="44.70013" lon="2.98438">
        <ele>1180</ele>
        <time>2022-08-06T12:09:13Z</time>
      </trkpt>
      <trkpt lat="44.70011" lon="2.98456">
        <ele>1181.2</ele>
        <time>2022-08-06T12:09:23Z</time>
      </trkpt>
      <trkpt lat="44.7001" lon="2.98467">
        <ele>1182</ele>
        <time>2022-08-06T12:09:30Z</time>
      </trkpt>
      <trkpt lat="44.7001" lon="2.98469">
        <ele>1182.1</ele>
        <time>2022-08-06T12:09:31Z</time>
      </trkpt>
      <trkpt lat="44.70009" lon="2.98478">
        <ele>1182.5</ele>
        <time>2022-08-06T12:09:38Z</time>
      </trkpt>
      <trkpt lat="44.70009" lon="2.98478">
        <ele>1182.5</ele>
        <time>2022-08-06T12:09:40Z</time>
      </trkpt>
      <trkpt lat="44.70009" lon="2.98478">
        <ele>1182.5</ele>
        <time>2022-08-06T12:09:42Z</time>
      </trkpt>
      <trkpt lat="44.70009" lon="2.98478">
        <ele>1182.5</ele>
        <time>2022-08-06T12:09:43Z</time>
      </trkpt>
      <trkpt lat="44.70009" lon="2.98477">
        <ele>1182.5</ele>
        <time>2022-08-06T12:09:52Z</time>
      </trkpt>
      <trkpt lat="44.70008" lon="2.98487">
        <ele>1182.8</ele>
        <time>2022-08-06T12:10:06Z</time>
      </trkpt>
      <trkpt lat="44.70007" lon="2.98501">
        <ele>1183.3</ele>
        <time>2022-08-06T12:10:12Z</time>
      </trkpt>
      <trkpt lat="44.70007" lon="2.98512">
        <ele>1184.3</ele>
        <time>2022-08-06T12:10:18Z</time>
      </trkpt>
      <trkpt lat="44.70007" lon="2.98514">
        <ele>1184.5</ele>
        <time>2022-08-06T12:10:19Z</time>
      </trkpt>
      <trkpt lat="44.70007" lon="2.98524">
        <ele>1185.4</ele>
        <time>2022-08-06T12:10:24Z</time>
      </trkpt>
      <trkpt lat="44.70006" lon="2.98533">
        <ele>1186</ele>
        <time>2022-08-06T12:10:29Z</time>
      </trkpt>
      <trkpt lat="44.70006" lon="2.98533">
        <ele>1186</ele>
        <time>2022-08-06T12:10:30Z</time>
      </trkpt>
      <trkpt lat="44.70005" lon="2.98547">
        <ele>1186.6</ele>
        <time>2022-08-06T12:10:36Z</time>
      </trkpt>
      <trkpt lat="44.70005" lon="2.98554">
        <ele>1186.9</ele>
        <time>2022-08-06T12:10:40Z</time>
      </trkpt>
      <trkpt lat="44.70005" lon="2.98555">
        <ele>1187</ele>
        <time>2022-08-06T12:10:41Z</time>
      </trkpt>
      <trkpt lat="44.70004" lon="2.98563">
        <ele>1187.6</ele>
        <time>2022-08-06T12:10:45Z</time>
      </trkpt>
      <trkpt lat="44.70003" lon="2.98567">
        <ele>1187.9</ele>
        <time>2022-08-06T12:10:47Z</time>
      </trkpt>
      <trkpt lat="44.70003" lon="2.98578">
        <ele>1188.7</ele>
        <time>2022-08-06T12:10:53Z</time>
      </trkpt>
      <trkpt lat="44.70002" lon="2.98585">
        <ele>1189.2</ele>
        <time>2022-08-06T12:10:57Z</time>
      </trkpt>
      <trkpt lat="44.70001" lon="2.98597">
        <ele>1190</ele>
        <time>2022-08-06T12:11:03Z</time>
      </trkpt>
      <trkpt lat="44.70001" lon="2.98609">
        <ele>1190.9</ele>
        <time>2022-08-06T12:11:10Z</time>
      </trkpt>
      <trkpt lat="44.7" lon="2.98611">
        <ele>1191</ele>
        <time>2022-08-06T12:11:11Z</time>
      </trkpt>
      <trkpt lat="44.69998" lon="2.98626">
        <ele>1192.2</ele>
        <time>2022-08-06T12:11:20Z</time>
      </trkpt>
      <trkpt lat="44.69998" lon="2.98632">
        <ele>1192.6</ele>
        <time>2022-08-06T12:11:23Z</time>
      </trkpt>
      <trkpt lat="44.69998" lon="2.98634">
        <ele>1192.7</ele>
        <time>2022-08-06T12:11:24Z</time>
      </trkpt>
      <trkpt lat="44.69996" lon="2.98648">
        <ele>1193.7</ele>
        <time>2022-08-06T12:11:32Z</time>
      </trkpt>
      <trkpt lat="44.69996" lon="2.9865">
        <ele>1193.9</ele>
        <time>2022-08-06T12:11:33Z</time>
      </trkpt>
      <trkpt lat="44.69995" lon="2.98671">
        <ele>1195.2</ele>
        <time>2022-08-06T12:11:45Z</time>
      </trkpt>
      <trkpt lat="44.69995" lon="2.98676">
        <ele>1195.3</ele>
        <time>2022-08-06T12:11:50Z</time>
      </trkpt>
      <trkpt lat="44.69995" lon="2.98676">
        <ele>1195.3</ele>
        <time>2022-08-06T12:11:51Z</time>
      </trkpt>
      <trkpt lat="44.69995" lon="2.98676">
        <ele>1195.3</ele>
        <time>2022-08-06T12:11:52Z</time>
      </trkpt>
      <trkpt lat="44.69996" lon="2.98676">
        <ele>1195.4</ele>
        <time>2022-08-06T12:11:53Z</time>
      </trkpt>
      <trkpt lat="44.69995" lon="2.98681">
        <ele>1195.5</ele>
        <time>2022-08-06T12:11:59Z</time>
      </trkpt>
      <trkpt lat="44.69994" lon="2.98697">
        <ele>1196</ele>
        <time>2022-08-06T12:12:08Z</time>
      </trkpt>
      <trkpt lat="44.69994" lon="2.98713">
        <ele>1196.1</ele>
        <time>2022-08-06T12:12:17Z</time>
      </trkpt>
      <trkpt lat="44.69994" lon="2.98715">
        <ele>1196.2</ele>
        <time>2022-08-06T12:12:18Z</time>
      </trkpt>
      <trkpt lat="44.69994" lon="2.98716">
        <ele>1196.2</ele>
        <time>2022-08-06T12:12:19Z</time>
      </trkpt>
      <trkpt lat="44.69994" lon="2.98726">
        <ele>1196.2</ele>
        <time>2022-08-06T12:12:25Z</time>
      </trkpt>
      <trkpt lat="44.69995" lon="2.98731">
        <ele>1196.2</ele>
        <time>2022-08-06T12:12:29Z</time>
      </trkpt>
      <trkpt lat="44.69998" lon="2.98742">
        <ele>1196.1</ele>
        <time>2022-08-06T12:12:37Z</time>
      </trkpt>
      <trkpt lat="44.69998" lon="2.98746">
        <ele>1196.1</ele>
        <time>2022-08-06T12:12:39Z</time>
      </trkpt>
      <trkpt lat="44.69997" lon="2.9876">
        <ele>1195.7</ele>
        <time>2022-08-06T12:12:47Z</time>
      </trkpt>
      <trkpt lat="44.69998" lon="2.98765">
        <ele>1195.5</ele>
        <time>2022-08-06T12:12:50Z</time>
      </trkpt>
      <trkpt lat="44.69999" lon="2.98779">
        <ele>1195</ele>
        <time>2022-08-06T12:12:58Z</time>
      </trkpt>
      <trkpt lat="44.69999" lon="2.98782">
        <ele>1194.9</ele>
        <time>2022-08-06T12:13:00Z</time>
      </trkpt>
      <trkpt lat="44.69999" lon="2.98787">
        <ele>1194.7</ele>
        <time>2022-08-06T12:13:03Z</time>
      </trkpt>
      <trkpt lat="44.7" lon="2.98791">
        <ele>1194.5</ele>
        <time>2022-08-06T12:13:06Z</time>
      </trkpt>
      <trkpt lat="44.70002" lon="2.98804">
        <ele>1193.9</ele>
        <time>2022-08-06T12:13:14Z</time>
      </trkpt>
      <trkpt lat="44.70003" lon="2.98823">
        <ele>1193.1</ele>
        <time>2022-08-06T12:13:25Z</time>
      </trkpt>
      <trkpt lat="44.70004" lon="2.98824">
        <ele>1193</ele>
        <time>2022-08-06T12:13:26Z</time>
      </trkpt>
      <trkpt lat="44.70005" lon="2.98838">
        <ele>1192.3</ele>
        <time>2022-08-06T12:13:34Z</time>
      </trkpt>
      <trkpt lat="44.70008" lon="2.98859">
        <ele>1191.3</ele>
        <time>2022-08-06T12:13:46Z</time>
      </trkpt>
      <trkpt lat="44.70008" lon="2.98873">
        <ele>1190.8</ele>
        <time>2022-08-06T12:13:55Z</time>
      </trkpt>
      <trkpt lat="44.70008" lon="2.98876">
        <ele>1190.8</ele>
        <time>2022-08-06T12:13:57Z</time>
      </trkpt>
      <trkpt lat="44.70007" lon="2.98883">
        <ele>1190.7</ele>
        <time>2022-08-06T12:14:02Z</time>
      </trkpt>
      <trkpt lat="44.70005" lon="2.98893">
        <ele>1190.3</ele>
        <time>2022-08-06T12:14:07Z</time>
      </trkpt>
      <trkpt lat="44.70004" lon="2.98896">
        <ele>1190.2</ele>
        <time>2022-08-06T12:14:09Z</time>
      </trkpt>
      <trkpt lat="44.70002" lon="2.98907">
        <ele>1189.6</ele>
        <time>2022-08-06T12:14:15Z</time>
      </trkpt>
      <trkpt lat="44.70001" lon="2.9891">
        <ele>1189.4</ele>
        <time>2022-08-06T12:14:17Z</time>
      </trkpt>
      <trkpt lat="44.69998" lon="2.98916">
        <ele>1189.1</ele>
        <time>2022-08-06T12:14:21Z</time>
      </trkpt>
      <trkpt lat="44.69996" lon="2.98926">
        <ele>1188.5</ele>
        <time>2022-08-06T12:14:27Z</time>
      </trkpt>
      <trkpt lat="44.69988" lon="2.9894">
        <ele>1187.8</ele>
        <time>2022-08-06T12:14:37Z</time>
      </trkpt>
      <trkpt lat="44.69981" lon="2.98949">
        <ele>1187.4</ele>
        <time>2022-08-06T12:14:44Z</time>
      </trkpt>
      <trkpt lat="44.69978" lon="2.98954">
        <ele>1187.1</ele>
        <time>2022-08-06T12:14:48Z</time>
      </trkpt>
      <trkpt lat="44.69964" lon="2.98972">
        <ele>1186.6</ele>
        <time>2022-08-06T12:15:02Z</time>
      </trkpt>
      <trkpt lat="44.69964" lon="2.98973">
        <ele>1186.6</ele>
        <time>2022-08-06T12:15:03Z</time>
      </trkpt>
      <trkpt lat="44.69954" lon="2.98986">
        <ele>1186.4</ele>
        <time>2022-08-06T12:15:14Z</time>
      </trkpt>
      <trkpt lat="44.69952" lon="2.98988">
        <ele>1186.3</ele>
        <time>2022-08-06T12:15:16Z</time>
      </trkpt>
      <trkpt lat="44.6994" lon="2.99002">
        <ele>1185.9</ele>
        <time>2022-08-06T12:15:28Z</time>
      </trkpt>
      <trkpt lat="44.69933" lon="2.99012">
        <ele>1185.3</ele>
        <time>2022-08-06T12:15:35Z</time>
      </trkpt>
      <trkpt lat="44.69932" lon="2.99013">
        <ele>1185.2</ele>
        <time>2022-08-06T12:15:36Z</time>
      </trkpt>
      <trkpt lat="44.69924" lon="2.99027">
        <ele>1184.6</ele>
        <time>2022-08-06T12:15:46Z</time>
      </trkpt>
      <trkpt lat="44.69914" lon="2.9904">
        <ele>1183.9</ele>
        <time>2022-08-06T12:15:57Z</time>
      </trkpt>
      <trkpt lat="44.69913" lon="2.99042">
        <ele>1183.8</ele>
        <time>2022-08-06T12:16:02Z</time>
      </trkpt>
      <trkpt lat="44.69912" lon="2.99039">
        <ele>1184.1</ele>
        <time>2022-08-06T12:16:04Z</time>
      </trkpt>
      <trkpt lat="44.69912" lon="2.99038">
        <ele>1184.2</ele>
        <time>2022-08-06T12:16:05Z</time>
      </trkpt>
      <trkpt lat="44.69914" lon="2.99026">
        <ele>1185.3</ele>
        <time>2022-08-06T12:16:13Z</time>
      </trkpt>
      <trkpt lat="44.69915" lon="2.99024">
        <ele>1185.4</ele>
        <time>2022-08-06T12:16:16Z</time>
      </trkpt>
      <trkpt lat="44.69915" lon="2.99024">
        <ele>1185.4</ele>
        <time>2022-08-06T12:16:17Z</time>
      </trkpt>
      <trkpt lat="44.69915" lon="2.99024">
        <ele>1185.3</ele>
        <time>2022-08-06T12:16:19Z</time>
      </trkpt>
      <trkpt lat="44.69915" lon="2.99024">
        <ele>1185.4</ele>
        <time>2022-08-06T12:16:29Z</time>
      </trkpt>
      <trkpt lat="44.69915" lon="2.99024">
        <ele>1185.4</ele>
        <time>2022-08-06T12:16:30Z</time>
      </trkpt>
      <trkpt lat="44.69915" lon="2.99024">
        <ele>1185.4</ele>
        <time>2022-08-06T12:16:38Z</time>
      </trkpt>
      <trkpt lat="44.69915" lon="2.99024">
        <ele>1185.4</ele>
        <time>2022-08-06T12:16:44Z</time>
      </trkpt>
      <trkpt lat="44.69915" lon="2.99021">
        <ele>1185.6</ele>
        <time>2022-08-06T12:16:54Z</time>
      </trkpt>
      <trkpt lat="44.69913" lon="2.99024">
        <ele>1185.5</ele>
        <time>2022-08-06T12:17:02Z</time>
      </trkpt>
      <trkpt lat="44.69911" lon="2.99026">
        <ele>1185.5</ele>
        <time>2022-08-06T12:17:04Z</time>
      </trkpt>
      <trkpt lat="44.69906" lon="2.99035">
        <ele>1185.1</ele>
        <time>2022-08-06T12:17:10Z</time>
      </trkpt>
      <trkpt lat="44.69901" lon="2.99041">
        <ele>1184.6</ele>
        <time>2022-08-06T12:17:15Z</time>
      </trkpt>
      <trkpt lat="44.69897" lon="2.99049">
        <ele>1184.1</ele>
        <time>2022-08-06T12:17:21Z</time>
      </trkpt>
      <trkpt lat="44.69891" lon="2.9906">
        <ele>1183.6</ele>
        <time>2022-08-06T12:17:28Z</time>
      </trkpt>
      <trkpt lat="44.69889" lon="2.99063">
        <ele>1183.5</ele>
        <time>2022-08-06T12:17:31Z</time>
      </trkpt>
      <trkpt lat="44.69889" lon="2.99067">
        <ele>1183.2</ele>
        <time>2022-08-06T12:17:34Z</time>
      </trkpt>
      <trkpt lat="44.69885" lon="2.99081">
        <ele>1182.6</ele>
        <time>2022-08-06T12:17:42Z</time>
      </trkpt>
      <trkpt lat="44.69883" lon="2.99085">
        <ele>1182.6</ele>
        <time>2022-08-06T12:17:45Z</time>
      </trkpt>
      <trkpt lat="44.69871" lon="2.99101">
        <ele>1182.3</ele>
        <time>2022-08-06T12:17:58Z</time>
      </trkpt>
      <trkpt lat="44.69863" lon="2.99113">
        <ele>1181.7</ele>
        <time>2022-08-06T12:18:08Z</time>
      </trkpt>
      <trkpt lat="44.69852" lon="2.99126">
        <ele>1180.6</ele>
        <time>2022-08-06T12:18:19Z</time>
      </trkpt>
      <trkpt lat="44.69843" lon="2.99133">
        <ele>1180.2</ele>
        <time>2022-08-06T12:18:27Z</time>
      </trkpt>
      <trkpt lat="44.69837" lon="2.99137">
        <ele>1180.1</ele>
        <time>2022-08-06T12:18:32Z</time>
      </trkpt>
      <trkpt lat="44.69832" lon="2.9914">
        <ele>1179.9</ele>
        <time>2022-08-06T12:18:36Z</time>
      </trkpt>
      <trkpt lat="44.69826" lon="2.99144">
        <ele>1179.3</ele>
        <time>2022-08-06T12:18:42Z</time>
      </trkpt>
      <trkpt lat="44.69825" lon="2.99145">
        <ele>1179.3</ele>
        <time>2022-08-06T12:18:43Z</time>
      </trkpt>
      <trkpt lat="44.69821" lon="2.99146">
        <ele>1179.2</ele>
        <time>2022-08-06T12:18:46Z</time>
      </trkpt>
      <trkpt lat="44.6981" lon="2.9915">
        <ele>1179.1</ele>
        <time>2022-08-06T12:18:55Z</time>
      </trkpt>
      <trkpt lat="44.69799" lon="2.99159">
        <ele>1178.7</ele>
        <time>2022-08-06T12:19:05Z</time>
      </trkpt>
      <trkpt lat="44.69792" lon="2.99169">
        <ele>1178.3</ele>
        <time>2022-08-06T12:19:13Z</time>
      </trkpt>
      <trkpt lat="44.69789" lon="2.99173">
        <ele>1178.1</ele>
        <time>2022-08-06T12:19:16Z</time>
      </trkpt>
      <trkpt lat="44.69785" lon="2.99183">
        <ele>1177.5</ele>
        <time>2022-08-06T12:19:23Z</time>
      </trkpt>
      <trkpt lat="44.6978" lon="2.99197">
        <ele>1176.9</ele>
        <time>2022-08-06T12:19:32Z</time>
      </trkpt>
      <trkpt lat="44.69778" lon="2.9921">
        <ele>1177</ele>
        <time>2022-08-06T12:19:40Z</time>
      </trkpt>
      <trkpt lat="44.69777" lon="2.99213">
        <ele>1177</ele>
        <time>2022-08-06T12:19:42Z</time>
      </trkpt>
      <trkpt lat="44.69778" lon="2.99222">
        <ele>1177</ele>
        <time>2022-08-06T12:19:47Z</time>
      </trkpt>
      <trkpt lat="44.69778" lon="2.99229">
        <ele>1177</ele>
        <time>2022-08-06T12:19:51Z</time>
      </trkpt>
      <trkpt lat="44.69775" lon="2.99236">
        <ele>1177.1</ele>
        <time>2022-08-06T12:19:56Z</time>
      </trkpt>
      <trkpt lat="44.69772" lon="2.99241">
        <ele>1177.2</ele>
        <time>2022-08-06T12:20:00Z</time>
      </trkpt>
      <trkpt lat="44.69768" lon="2.99247">
        <ele>1177.3</ele>
        <time>2022-08-06T12:20:04Z</time>
      </trkpt>
      <trkpt lat="44.69766" lon="2.99249">
        <ele>1177.4</ele>
        <time>2022-08-06T12:20:07Z</time>
      </trkpt>
      <trkpt lat="44.69761" lon="2.99251">
        <ele>1177.6</ele>
        <time>2022-08-06T12:20:11Z</time>
      </trkpt>
      <trkpt lat="44.69756" lon="2.9925">
        <ele>1177.8</ele>
        <time>2022-08-06T12:20:15Z</time>
      </trkpt>
      <trkpt lat="44.6974" lon="2.9925">
        <ele>1178.4</ele>
        <time>2022-08-06T12:20:28Z</time>
      </trkpt>
      <trkpt lat="44.69739" lon="2.9925">
        <ele>1178.4</ele>
        <time>2022-08-06T12:20:31Z</time>
      </trkpt>
      <trkpt lat="44.69739" lon="2.99251">
        <ele>1178.4</ele>
        <time>2022-08-06T12:20:33Z</time>
      </trkpt>
      <trkpt lat="44.69733" lon="2.99254">
        <ele>1178.6</ele>
        <time>2022-08-06T12:20:39Z</time>
      </trkpt>
      <trkpt lat="44.69728" lon="2.99257">
        <ele>1178.8</ele>
        <time>2022-08-06T12:20:47Z</time>
      </trkpt>
      <trkpt lat="44.69726" lon="2.99264">
        <ele>1178.9</ele>
        <time>2022-08-06T12:20:57Z</time>
      </trkpt>
      <trkpt lat="44.69721" lon="2.99277">
        <ele>1179</ele>
        <time>2022-08-06T12:21:06Z</time>
      </trkpt>
      <trkpt lat="44.69721" lon="2.99279">
        <ele>1179.1</ele>
        <time>2022-08-06T12:21:09Z</time>
      </trkpt>
      <trkpt lat="44.6972" lon="2.9928">
        <ele>1179.2</ele>
        <time>2022-08-06T12:21:12Z</time>
      </trkpt>
      <trkpt lat="44.69718" lon="2.99287">
        <ele>1179.5</ele>
        <time>2022-08-06T12:21:17Z</time>
      </trkpt>
      <trkpt lat="44.69715" lon="2.99296">
        <ele>1179.9</ele>
        <time>2022-08-06T12:21:23Z</time>
      </trkpt>
      <trkpt lat="44.69713" lon="2.99302">
        <ele>1180.2</ele>
        <time>2022-08-06T12:21:27Z</time>
      </trkpt>
      <trkpt lat="44.69709" lon="2.99317">
        <ele>1180.9</ele>
        <time>2022-08-06T12:21:37Z</time>
      </trkpt>
      <trkpt lat="44.69701" lon="2.99339">
        <ele>1182.2</ele>
        <time>2022-08-06T12:21:51Z</time>
      </trkpt>
      <trkpt lat="44.69697" lon="2.99348">
        <ele>1182.9</ele>
        <time>2022-08-06T12:21:57Z</time>
      </trkpt>
      <trkpt lat="44.69695" lon="2.99352">
        <ele>1183.3</ele>
        <time>2022-08-06T12:22:02Z</time>
      </trkpt>
      <trkpt lat="44.69695" lon="2.99353">
        <ele>1183.4</ele>
        <time>2022-08-06T12:22:04Z</time>
      </trkpt>
      <trkpt lat="44.69695" lon="2.99353">
        <ele>1183.4</ele>
        <time>2022-08-06T12:22:05Z</time>
      </trkpt>
      <trkpt lat="44.69692" lon="2.99359">
        <ele>1184</ele>
        <time>2022-08-06T12:22:11Z</time>
      </trkpt>
      <trkpt lat="44.69686" lon="2.99372">
        <ele>1184.7</ele>
        <time>2022-08-06T12:22:20Z</time>
      </trkpt>
      <trkpt lat="44.69684" lon="2.99377">
        <ele>1184.9</ele>
        <time>2022-08-06T12:22:23Z</time>
      </trkpt>
      <trkpt lat="44.69677" lon="2.99392">
        <ele>1185.6</ele>
        <time>2022-08-06T12:22:34Z</time>
      </trkpt>
      <trkpt lat="44.69674" lon="2.99397">
        <ele>1185.7</ele>
        <time>2022-08-06T12:22:38Z</time>
      </trkpt>
      <trkpt lat="44.69669" lon="2.99405">
        <ele>1185.9</ele>
        <time>2022-08-06T12:22:47Z</time>
      </trkpt>
      <trkpt lat="44.69669" lon="2.99406">
        <ele>1185.9</ele>
        <time>2022-08-06T12:22:57Z</time>
      </trkpt>
      <trkpt lat="44.69669" lon="2.99406">
        <ele>1185.9</ele>
        <time>2022-08-06T12:23:03Z</time>
      </trkpt>
      <trkpt lat="44.69666" lon="2.99415">
        <ele>1186</ele>
        <time>2022-08-06T12:23:10Z</time>
      </trkpt>
      <trkpt lat="44.69661" lon="2.99425">
        <ele>1186.1</ele>
        <time>2022-08-06T12:23:19Z</time>
      </trkpt>
      <trkpt lat="44.69661" lon="2.99425">
        <ele>1186.1</ele>
        <time>2022-08-06T12:23:20Z</time>
      </trkpt>
      <trkpt lat="44.69658" lon="2.99431">
        <ele>1186.2</ele>
        <time>2022-08-06T12:23:26Z</time>
      </trkpt>
      <trkpt lat="44.69654" lon="2.9944">
        <ele>1186.4</ele>
        <time>2022-08-06T12:23:34Z</time>
      </trkpt>
      <trkpt lat="44.69652" lon="2.99448">
        <ele>1186.6</ele>
        <time>2022-08-06T12:23:40Z</time>
      </trkpt>
      <trkpt lat="44.69651" lon="2.99455">
        <ele>1186.7</ele>
        <time>2022-08-06T12:23:45Z</time>
      </trkpt>
      <trkpt lat="44.69648" lon="2.99461">
        <ele>1186.9</ele>
        <time>2022-08-06T12:23:49Z</time>
      </trkpt>
      <trkpt lat="44.69645" lon="2.99468">
        <ele>1187</ele>
        <time>2022-08-06T12:23:58Z</time>
      </trkpt>
      <trkpt lat="44.69645" lon="2.99468">
        <ele>1187</ele>
        <time>2022-08-06T12:23:59Z</time>
      </trkpt>
      <trkpt lat="44.69645" lon="2.99471">
        <ele>1187</ele>
        <time>2022-08-06T12:24:08Z</time>
      </trkpt>
      <trkpt lat="44.69645" lon="2.99474">
        <ele>1187</ele>
        <time>2022-08-06T12:24:10Z</time>
      </trkpt>
      <trkpt lat="44.69645" lon="2.99484">
        <ele>1187</ele>
        <time>2022-08-06T12:24:15Z</time>
      </trkpt>
      <trkpt lat="44.69644" lon="2.99491">
        <ele>1187</ele>
        <time>2022-08-06T12:24:19Z</time>
      </trkpt>
      <trkpt lat="44.69643" lon="2.99508">
        <ele>1186.8</ele>
        <time>2022-08-06T12:24:30Z</time>
      </trkpt>
      <trkpt lat="44.69644" lon="2.99528">
        <ele>1186.2</ele>
        <time>2022-08-06T12:24:41Z</time>
      </trkpt>
      <trkpt lat="44.69644" lon="2.99543">
        <ele>1185.7</ele>
        <time>2022-08-06T12:24:50Z</time>
      </trkpt>
      <trkpt lat="44.69644" lon="2.99546">
        <ele>1185.5</ele>
        <time>2022-08-06T12:24:52Z</time>
      </trkpt>
      <trkpt lat="44.69646" lon="2.99566">
        <ele>1184.9</ele>
        <time>2022-08-06T12:25:04Z</time>
      </trkpt>
      <trkpt lat="44.69646" lon="2.99568">
        <ele>1184.8</ele>
        <time>2022-08-06T12:25:05Z</time>
      </trkpt>
      <trkpt lat="44.69646" lon="2.99585">
        <ele>1184.2</ele>
        <time>2022-08-06T12:25:15Z</time>
      </trkpt>
      <trkpt lat="44.69646" lon="2.99591">
        <ele>1184</ele>
        <time>2022-08-06T12:25:19Z</time>
      </trkpt>
      <trkpt lat="44.69646" lon="2.99604">
        <ele>1183.5</ele>
        <time>2022-08-06T12:25:28Z</time>
      </trkpt>
      <trkpt lat="44.69646" lon="2.99606">
        <ele>1183.5</ele>
        <time>2022-08-06T12:25:29Z</time>
      </trkpt>
      <trkpt lat="44.69646" lon="2.99626">
        <ele>1182.7</ele>
        <time>2022-08-06T12:25:41Z</time>
      </trkpt>
      <trkpt lat="44.69646" lon="2.99632">
        <ele>1182.5</ele>
        <time>2022-08-06T12:25:45Z</time>
      </trkpt>
      <trkpt lat="44.69646" lon="2.99634">
        <ele>1182.4</ele>
        <time>2022-08-06T12:25:49Z</time>
      </trkpt>
      <trkpt lat="44.69646" lon="2.99634">
        <ele>1182.4</ele>
        <time>2022-08-06T12:25:52Z</time>
      </trkpt>
      <trkpt lat="44.69646" lon="2.99639">
        <ele>1182.2</ele>
        <time>2022-08-06T12:25:57Z</time>
      </trkpt>
      <trkpt lat="44.69645" lon="2.99654">
        <ele>1181.7</ele>
        <time>2022-08-06T12:26:05Z</time>
      </trkpt>
      <trkpt lat="44.69645" lon="2.99656">
        <ele>1181.6</ele>
        <time>2022-08-06T12:26:06Z</time>
      </trkpt>
      <trkpt lat="44.69644" lon="2.99676">
        <ele>1180.6</ele>
        <time>2022-08-06T12:26:18Z</time>
      </trkpt>
      <trkpt lat="44.69644" lon="2.99683">
        <ele>1180.1</ele>
        <time>2022-08-06T12:26:22Z</time>
      </trkpt>
      <trkpt lat="44.69641" lon="2.99703">
        <ele>1178.8</ele>
        <time>2022-08-06T12:26:34Z</time>
      </trkpt>
      <trkpt lat="44.6964" lon="2.99706">
        <ele>1178.7</ele>
        <time>2022-08-06T12:26:36Z</time>
      </trkpt>
      <trkpt lat="44.69639" lon="2.99722">
        <ele>1178</ele>
        <time>2022-08-06T12:26:45Z</time>
      </trkpt>
      <trkpt lat="44.69638" lon="2.99725">
        <ele>1177.9</ele>
        <time>2022-08-06T12:26:47Z</time>
      </trkpt>
      <trkpt lat="44.69634" lon="2.99738">
        <ele>1176.9</ele>
        <time>2022-08-06T12:26:55Z</time>
      </trkpt>
      <trkpt lat="44.69634" lon="2.99743">
        <ele>1176.7</ele>
        <time>2022-08-06T12:26:58Z</time>
      </trkpt>
      <trkpt lat="44.69632" lon="2.99757">
        <ele>1176</ele>
        <time>2022-08-06T12:27:06Z</time>
      </trkpt>
      <trkpt lat="44.69632" lon="2.99769">
        <ele>1175.5</ele>
        <time>2022-08-06T12:27:13Z</time>
      </trkpt>
      <trkpt lat="44.69631" lon="2.99776">
        <ele>1175.2</ele>
        <time>2022-08-06T12:27:17Z</time>
      </trkpt>
      <trkpt lat="44.69631" lon="2.99778">
        <ele>1175.1</ele>
        <time>2022-08-06T12:27:18Z</time>
      </trkpt>
      <trkpt lat="44.69629" lon="2.99794">
        <ele>1174.2</ele>
        <time>2022-08-06T12:27:27Z</time>
      </trkpt>
      <trkpt lat="44.69629" lon="2.99813">
        <ele>1173.1</ele>
        <time>2022-08-06T12:27:38Z</time>
      </trkpt>
      <trkpt lat="44.69629" lon="2.99824">
        <ele>1172.2</ele>
        <time>2022-08-06T12:27:45Z</time>
      </trkpt>
      <trkpt lat="44.69629" lon="2.99828">
        <ele>1171.9</ele>
        <time>2022-08-06T12:27:47Z</time>
      </trkpt>
      <trkpt lat="44.69629" lon="2.99843">
        <ele>1170.7</ele>
        <time>2022-08-06T12:27:56Z</time>
      </trkpt>
      <trkpt lat="44.6963" lon="2.99854">
        <ele>1169.9</ele>
        <time>2022-08-06T12:28:03Z</time>
      </trkpt>
      <trkpt lat="44.69629" lon="2.99857">
        <ele>1169.6</ele>
        <time>2022-08-06T12:28:05Z</time>
      </trkpt>
      <trkpt lat="44.69629" lon="2.99859">
        <ele>1169.4</ele>
        <time>2022-08-06T12:28:06Z</time>
      </trkpt>
      <trkpt lat="44.69627" lon="2.99874">
        <ele>1168</ele>
        <time>2022-08-06T12:28:15Z</time>
      </trkpt>
      <trkpt lat="44.69625" lon="2.99882">
        <ele>1167.4</ele>
        <time>2022-08-06T12:28:20Z</time>
      </trkpt>
      <trkpt lat="44.69625" lon="2.99886">
        <ele>1167.2</ele>
        <time>2022-08-06T12:28:24Z</time>
      </trkpt>
      <trkpt lat="44.69625" lon="2.99888">
        <ele>1167.1</ele>
        <time>2022-08-06T12:28:26Z</time>
      </trkpt>
      <trkpt lat="44.69625" lon="2.9989">
        <ele>1167</ele>
        <time>2022-08-06T12:28:27Z</time>
      </trkpt>
      <trkpt lat="44.69623" lon="2.99897">
        <ele>1166.1</ele>
        <time>2022-08-06T12:28:32Z</time>
      </trkpt>
      <trkpt lat="44.69621" lon="2.99904">
        <ele>1165.4</ele>
        <time>2022-08-06T12:28:36Z</time>
      </trkpt>
      <trkpt lat="44.6962" lon="2.99906">
        <ele>1165.1</ele>
        <time>2022-08-06T12:28:38Z</time>
      </trkpt>
      <trkpt lat="44.6962" lon="2.99906">
        <ele>1165</ele>
        <time>2022-08-06T12:28:40Z</time>
      </trkpt>
      <trkpt lat="44.6962" lon="2.99906">
        <ele>1165</ele>
        <time>2022-08-06T12:28:41Z</time>
      </trkpt>
      <trkpt lat="44.69619" lon="2.99911">
        <ele>1164.5</ele>
        <time>2022-08-06T12:28:47Z</time>
      </trkpt>
      <trkpt lat="44.69617" lon="2.99917">
        <ele>1163.9</ele>
        <time>2022-08-06T12:28:51Z</time>
      </trkpt>
      <trkpt lat="44.69616" lon="2.99923">
        <ele>1163.6</ele>
        <time>2022-08-06T12:28:54Z</time>
      </trkpt>
      <trkpt lat="44.69615" lon="2.99935">
        <ele>1163.3</ele>
        <time>2022-08-06T12:29:01Z</time>
      </trkpt>
      <trkpt lat="44.69613" lon="2.99941">
        <ele>1163.2</ele>
        <time>2022-08-06T12:29:05Z</time>
      </trkpt>
      <trkpt lat="44.69607" lon="2.99946">
        <ele>1162.3</ele>
        <time>2022-08-06T12:29:12Z</time>
      </trkpt>
      <trkpt lat="44.69605" lon="2.99947">
        <ele>1161.9</ele>
        <time>2022-08-06T12:29:14Z</time>
      </trkpt>
      <trkpt lat="44.69602" lon="2.99948">
        <ele>1161.5</ele>
        <time>2022-08-06T12:29:17Z</time>
      </trkpt>
      <trkpt lat="44.69601" lon="2.99949">
        <ele>1161.3</ele>
        <time>2022-08-06T12:29:19Z</time>
      </trkpt>
      <trkpt lat="44.69601" lon="2.99949">
        <ele>1161.3</ele>
        <time>2022-08-06T12:29:20Z</time>
      </trkpt>
      <trkpt lat="44.69601" lon="2.99948">
        <ele>1161.3</ele>
        <time>2022-08-06T12:29:24Z</time>
      </trkpt>
      <trkpt lat="44.69602" lon="2.99949">
        <ele>1161.4</ele>
        <time>2022-08-06T12:29:26Z</time>
      </trkpt>
      <trkpt lat="44.69604" lon="2.99949">
        <ele>1161.7</ele>
        <time>2022-08-06T12:29:32Z</time>
      </trkpt>
      <trkpt lat="44.69604" lon="2.9995">
        <ele>1161.7</ele>
        <time>2022-08-06T12:29:39Z</time>
      </trkpt>
      <trkpt lat="44.69603" lon="2.9995">
        <ele>1161.6</ele>
        <time>2022-08-06T12:29:56Z</time>
      </trkpt>
      <trkpt lat="44.69608" lon="2.99977">
        <ele>1160.2</ele>
        <time>2022-08-06T14:06:46Z</time>
      </trkpt>
      <trkpt lat="44.69613" lon="2.99956">
        <ele>1162.3</ele>
        <time>2022-08-06T14:06:48Z</time>
      </trkpt>
      <trkpt lat="44.69617" lon="2.99949">
        <ele>1163.2</ele>
        <time>2022-08-06T14:06:51Z</time>
      </trkpt>
      <trkpt lat="44.69617" lon="2.99954">
        <ele>1162.8</ele>
        <time>2022-08-06T14:06:54Z</time>
      </trkpt>
      <trkpt lat="44.69617" lon="2.99954">
        <ele>1162.8</ele>
        <time>2022-08-06T14:06:55Z</time>
      </trkpt>
      <trkpt lat="44.69617" lon="2.99952">
        <ele>1162.9</ele>
        <time>2022-08-06T14:06:57Z</time>
      </trkpt>
      <trkpt lat="44.69615" lon="2.99955">
        <ele>1162.5</ele>
        <time>2022-08-06T14:07:03Z</time>
      </trkpt>
      <trkpt lat="44.69613" lon="2.99968">
        <ele>1161.5</ele>
        <time>2022-08-06T14:07:13Z</time>
      </trkpt>
      <trkpt lat="44.69612" lon="2.99978">
        <ele>1160.7</ele>
        <time>2022-08-06T14:07:21Z</time>
      </trkpt>
      <trkpt lat="44.69612" lon="2.9998">
        <ele>1160.5</ele>
        <time>2022-08-06T14:07:23Z</time>
      </trkpt>
      <trkpt lat="44.69611" lon="2.99984">
        <ele>1160.1</ele>
        <time>2022-08-06T14:07:26Z</time>
      </trkpt>
      <trkpt lat="44.69609" lon="2.99993">
        <ele>1159.1</ele>
        <time>2022-08-06T14:07:33Z</time>
      </trkpt>
      <trkpt lat="44.69609" lon="2.99994">
        <ele>1159</ele>
        <time>2022-08-06T14:07:34Z</time>
      </trkpt>
      <trkpt lat="44.69608" lon="2.99994">
        <ele>1158.9</ele>
        <time>2022-08-06T14:07:36Z</time>
      </trkpt>
      <trkpt lat="44.69609" lon="2.99996">
        <ele>1158.9</ele>
        <time>2022-08-06T14:07:38Z</time>
      </trkpt>
      <trkpt lat="44.69609" lon="3.00007">
        <ele>1157.2</ele>
        <time>2022-08-06T14:07:48Z</time>
      </trkpt>
      <trkpt lat="44.69609" lon="3.00009">
        <ele>1156.8</ele>
        <time>2022-08-06T14:07:50Z</time>
      </trkpt>
      <trkpt lat="44.69609" lon="3.0001">
        <ele>1156.7</ele>
        <time>2022-08-06T14:07:51Z</time>
      </trkpt>
      <trkpt lat="44.6961" lon="3.00012">
        <ele>1156.6</ele>
        <time>2022-08-06T14:07:53Z</time>
      </trkpt>
      <trkpt lat="44.6961" lon="3.00015">
        <ele>1156</ele>
        <time>2022-08-06T14:08:00Z</time>
      </trkpt>
      <trkpt lat="44.69609" lon="3.00013">
        <ele>1156.1</ele>
        <time>2022-08-06T14:08:10Z</time>
      </trkpt>
      <trkpt lat="44.69609" lon="3.00013">
        <ele>1156.1</ele>
        <time>2022-08-06T14:08:11Z</time>
      </trkpt>
      <trkpt lat="44.6961" lon="3.0002">
        <ele>1155.2</ele>
        <time>2022-08-06T14:08:18Z</time>
      </trkpt>
      <trkpt lat="44.69612" lon="3.00025">
        <ele>1154.7</ele>
        <time>2022-08-06T14:08:21Z</time>
      </trkpt>
      <trkpt lat="44.69613" lon="3.00028">
        <ele>1154.4</ele>
        <time>2022-08-06T14:08:23Z</time>
      </trkpt>
      <trkpt lat="44.69615" lon="3.00031">
        <ele>1154.4</ele>
        <time>2022-08-06T14:08:25Z</time>
      </trkpt>
      <trkpt lat="44.69615" lon="3.00032">
        <ele>1154.4</ele>
        <time>2022-08-06T14:08:26Z</time>
      </trkpt>
      <trkpt lat="44.69617" lon="3.00035">
        <ele>1154.3</ele>
        <time>2022-08-06T14:08:29Z</time>
      </trkpt>
      <trkpt lat="44.69618" lon="3.00037">
        <ele>1154.2</ele>
        <time>2022-08-06T14:08:30Z</time>
      </trkpt>
      <trkpt lat="44.69618" lon="3.00038">
        <ele>1154</ele>
        <time>2022-08-06T14:08:31Z</time>
      </trkpt>
      <trkpt lat="44.69619" lon="3.00043">
        <ele>1153.6</ele>
        <time>2022-08-06T14:08:35Z</time>
      </trkpt>
      <trkpt lat="44.69622" lon="3.00049">
        <ele>1153.1</ele>
        <time>2022-08-06T14:08:40Z</time>
      </trkpt>
      <trkpt lat="44.69625" lon="3.00055">
        <ele>1152.6</ele>
        <time>2022-08-06T14:08:45Z</time>
      </trkpt>
      <trkpt lat="44.69629" lon="3.00062">
        <ele>1151.3</ele>
        <time>2022-08-06T14:08:52Z</time>
      </trkpt>
      <trkpt lat="44.69631" lon="3.00065">
        <ele>1150.8</ele>
        <time>2022-08-06T14:08:56Z</time>
      </trkpt>
      <trkpt lat="44.69633" lon="3.00069">
        <ele>1150.1</ele>
        <time>2022-08-06T14:08:59Z</time>
      </trkpt>
      <trkpt lat="44.69633" lon="3.00071">
        <ele>1149.4</ele>
        <time>2022-08-06T14:09:02Z</time>
      </trkpt>
      <trkpt lat="44.69633" lon="3.00072">
        <ele>1149.3</ele>
        <time>2022-08-06T14:09:04Z</time>
      </trkpt>
      <trkpt lat="44.69633" lon="3.00072">
        <ele>1149.3</ele>
        <time>2022-08-06T14:09:05Z</time>
      </trkpt>
      <trkpt lat="44.69633" lon="3.00071">
        <ele>1149.4</ele>
        <time>2022-08-06T14:09:06Z</time>
      </trkpt>
      <trkpt lat="44.69635" lon="3.00071">
        <ele>1149.7</ele>
        <time>2022-08-06T14:09:08Z</time>
      </trkpt>
      <trkpt lat="44.69637" lon="3.00073">
        <ele>1149.8</ele>
        <time>2022-08-06T14:09:11Z</time>
      </trkpt>
      <trkpt lat="44.69638" lon="3.00074">
        <ele>1149.7</ele>
        <time>2022-08-06T14:09:13Z</time>
      </trkpt>
      <trkpt lat="44.6964" lon="3.00075">
        <ele>1149.4</ele>
        <time>2022-08-06T14:09:16Z</time>
      </trkpt>
      <trkpt lat="44.69641" lon="3.00076">
        <ele>1149.3</ele>
        <time>2022-08-06T14:09:17Z</time>
      </trkpt>
      <trkpt lat="44.69642" lon="3.00076">
        <ele>1149.2</ele>
        <time>2022-08-06T14:09:18Z</time>
      </trkpt>
      <trkpt lat="44.69648" lon="3.00081">
        <ele>1148</ele>
        <time>2022-08-06T14:09:25Z</time>
      </trkpt>
      <trkpt lat="44.69648" lon="3.00082">
        <ele>1147.8</ele>
        <time>2022-08-06T14:09:26Z</time>
      </trkpt>
      <trkpt lat="44.69657" lon="3.00083">
        <ele>1147.9</ele>
        <time>2022-08-06T14:09:32Z</time>
      </trkpt>
      <trkpt lat="44.69659" lon="3.00083">
        <ele>1148</ele>
        <time>2022-08-06T14:09:33Z</time>
      </trkpt>
      <trkpt lat="44.69665" lon="3.00084">
        <ele>1147.8</ele>
        <time>2022-08-06T14:09:40Z</time>
      </trkpt>
      <trkpt lat="44.69666" lon="3.00084">
        <ele>1147.8</ele>
        <time>2022-08-06T14:09:41Z</time>
      </trkpt>
      <trkpt lat="44.69669" lon="3.00086">
        <ele>1147.6</ele>
        <time>2022-08-06T14:09:45Z</time>
      </trkpt>
      <trkpt lat="44.69672" lon="3.00087">
        <ele>1147.7</ele>
        <time>2022-08-06T14:09:49Z</time>
      </trkpt>
      <trkpt lat="44.69672" lon="3.0009">
        <ele>1147</ele>
        <time>2022-08-06T14:09:53Z</time>
      </trkpt>
      <trkpt lat="44.69674" lon="3.00093">
        <ele>1146.1</ele>
        <time>2022-08-06T14:09:58Z</time>
      </trkpt>
      <trkpt lat="44.69678" lon="3.00097">
        <ele>1145.1</ele>
        <time>2022-08-06T14:10:04Z</time>
      </trkpt>
      <trkpt lat="44.6968" lon="3.00098">
        <ele>1144.6</ele>
        <time>2022-08-06T14:10:06Z</time>
      </trkpt>
      <trkpt lat="44.69683" lon="3.00103">
        <ele>1142.8</ele>
        <time>2022-08-06T14:10:11Z</time>
      </trkpt>
      <trkpt lat="44.69684" lon="3.00105">
        <ele>1142.3</ele>
        <time>2022-08-06T14:10:13Z</time>
      </trkpt>
      <trkpt lat="44.69687" lon="3.00107">
        <ele>1141.2</ele>
        <time>2022-08-06T14:10:17Z</time>
      </trkpt>
      <trkpt lat="44.69688" lon="3.00109">
        <ele>1140.4</ele>
        <time>2022-08-06T14:10:19Z</time>
      </trkpt>
      <trkpt lat="44.69691" lon="3.00112">
        <ele>1139.1</ele>
        <time>2022-08-06T14:10:22Z</time>
      </trkpt>
      <trkpt lat="44.69695" lon="3.0011">
        <ele>1139.6</ele>
        <time>2022-08-06T14:10:25Z</time>
      </trkpt>
      <trkpt lat="44.69697" lon="3.00113">
        <ele>1138.9</ele>
        <time>2022-08-06T14:10:28Z</time>
      </trkpt>
      <trkpt lat="44.69699" lon="3.00114">
        <ele>1138.9</ele>
        <time>2022-08-06T14:10:30Z</time>
      </trkpt>
      <trkpt lat="44.697" lon="3.00114">
        <ele>1139</ele>
        <time>2022-08-06T14:10:31Z</time>
      </trkpt>
      <trkpt lat="44.69703" lon="3.00115">
        <ele>1139.2</ele>
        <time>2022-08-06T14:10:34Z</time>
      </trkpt>
      <trkpt lat="44.69704" lon="3.00115">
        <ele>1139.1</ele>
        <time>2022-08-06T14:10:35Z</time>
      </trkpt>
      <trkpt lat="44.69706" lon="3.00116">
        <ele>1139.1</ele>
        <time>2022-08-06T14:10:37Z</time>
      </trkpt>
      <trkpt lat="44.69707" lon="3.00117">
        <ele>1139</ele>
        <time>2022-08-06T14:10:38Z</time>
      </trkpt>
      <trkpt lat="44.69708" lon="3.00118">
        <ele>1138.8</ele>
        <time>2022-08-06T14:10:40Z</time>
      </trkpt>
      <trkpt lat="44.6971" lon="3.00122">
        <ele>1137.9</ele>
        <time>2022-08-06T14:10:44Z</time>
      </trkpt>
      <trkpt lat="44.69713" lon="3.00124">
        <ele>1137.4</ele>
        <time>2022-08-06T14:10:47Z</time>
      </trkpt>
      <trkpt lat="44.69715" lon="3.00127">
        <ele>1136.8</ele>
        <time>2022-08-06T14:10:51Z</time>
      </trkpt>
      <trkpt lat="44.6972" lon="3.0013">
        <ele>1136.1</ele>
        <time>2022-08-06T14:10:57Z</time>
      </trkpt>
      <trkpt lat="44.69722" lon="3.00133">
        <ele>1135.3</ele>
        <time>2022-08-06T14:11:01Z</time>
      </trkpt>
      <trkpt lat="44.69722" lon="3.00133">
        <ele>1135.1</ele>
        <time>2022-08-06T14:11:04Z</time>
      </trkpt>
      <trkpt lat="44.69724" lon="3.00134">
        <ele>1135</ele>
        <time>2022-08-06T14:11:07Z</time>
      </trkpt>
      <trkpt lat="44.69726" lon="3.00134">
        <ele>1135</ele>
        <time>2022-08-06T14:11:09Z</time>
      </trkpt>
      <trkpt lat="44.69726" lon="3.00135">
        <ele>1134.7</ele>
        <time>2022-08-06T14:11:10Z</time>
      </trkpt>
      <trkpt lat="44.69727" lon="3.00136">
        <ele>1134.5</ele>
        <time>2022-08-06T14:11:11Z</time>
      </trkpt>
      <trkpt lat="44.69729" lon="3.00143">
        <ele>1132</ele>
        <time>2022-08-06T14:11:16Z</time>
      </trkpt>
      <trkpt lat="44.69731" lon="3.00145">
        <ele>1131.4</ele>
        <time>2022-08-06T14:11:18Z</time>
      </trkpt>
      <trkpt lat="44.69731" lon="3.00146">
        <ele>1130.9</ele>
        <time>2022-08-06T14:11:22Z</time>
      </trkpt>
      <trkpt lat="44.69732" lon="3.00146">
        <ele>1131.2</ele>
        <time>2022-08-06T14:11:23Z</time>
      </trkpt>
      <trkpt lat="44.69734" lon="3.00143">
        <ele>1132.5</ele>
        <time>2022-08-06T14:11:28Z</time>
      </trkpt>
      <trkpt lat="44.69736" lon="3.00145">
        <ele>1131.9</ele>
        <time>2022-08-06T14:11:30Z</time>
      </trkpt>
      <trkpt lat="44.6974" lon="3.0015">
        <ele>1130.4</ele>
        <time>2022-08-06T14:11:36Z</time>
      </trkpt>
      <trkpt lat="44.69741" lon="3.00151">
        <ele>1130.2</ele>
        <time>2022-08-06T14:11:37Z</time>
      </trkpt>
      <trkpt lat="44.69745" lon="3.00154">
        <ele>1129.5</ele>
        <time>2022-08-06T14:11:41Z</time>
      </trkpt>
      <trkpt lat="44.69745" lon="3.00155">
        <ele>1129.2</ele>
        <time>2022-08-06T14:11:42Z</time>
      </trkpt>
      <trkpt lat="44.69747" lon="3.00157">
        <ele>1128.6</ele>
        <time>2022-08-06T14:11:44Z</time>
      </trkpt>
      <trkpt lat="44.6975" lon="3.00162">
        <ele>1127.4</ele>
        <time>2022-08-06T14:11:49Z</time>
      </trkpt>
      <trkpt lat="44.69753" lon="3.00165">
        <ele>1126.5</ele>
        <time>2022-08-06T14:11:51Z</time>
      </trkpt>
      <trkpt lat="44.69756" lon="3.00169">
        <ele>1125.3</ele>
        <time>2022-08-06T14:11:55Z</time>
      </trkpt>
      <trkpt lat="44.69757" lon="3.0017">
        <ele>1125.1</ele>
        <time>2022-08-06T14:11:56Z</time>
      </trkpt>
      <trkpt lat="44.69757" lon="3.00171">
        <ele>1124.9</ele>
        <time>2022-08-06T14:11:57Z</time>
      </trkpt>
      <trkpt lat="44.69759" lon="3.00177">
        <ele>1124</ele>
        <time>2022-08-06T14:12:02Z</time>
      </trkpt>
      <trkpt lat="44.6976" lon="3.00178">
        <ele>1123.8</ele>
        <time>2022-08-06T14:12:03Z</time>
      </trkpt>
      <trkpt lat="44.69762" lon="3.0018">
        <ele>1123.5</ele>
        <time>2022-08-06T14:12:05Z</time>
      </trkpt>
      <trkpt lat="44.69761" lon="3.00181">
        <ele>1123.4</ele>
        <time>2022-08-06T14:12:07Z</time>
      </trkpt>
      <trkpt lat="44.69761" lon="3.00181">
        <ele>1123.4</ele>
        <time>2022-08-06T14:12:11Z</time>
      </trkpt>
      <trkpt lat="44.69761" lon="3.0018">
        <ele>1123.5</ele>
        <time>2022-08-06T14:12:18Z</time>
      </trkpt>
      <trkpt lat="44.69761" lon="3.00179">
        <ele>1123.6</ele>
        <time>2022-08-06T14:12:25Z</time>
      </trkpt>
      <trkpt lat="44.69761" lon="3.00178">
        <ele>1123.7</ele>
        <time>2022-08-06T14:12:31Z</time>
      </trkpt>
      <trkpt lat="44.69761" lon="3.00178">
        <ele>1123.7</ele>
        <time>2022-08-06T14:12:33Z</time>
      </trkpt>
      <trkpt lat="44.69761" lon="3.00178">
        <ele>1123.7</ele>
        <time>2022-08-06T14:12:45Z</time>
      </trkpt>
      <trkpt lat="44.69763" lon="3.00184">
        <ele>1122.8</ele>
        <time>2022-08-06T14:13:04Z</time>
      </trkpt>
      <trkpt lat="44.69769" lon="3.002">
        <ele>1121</ele>
        <time>2022-08-06T14:13:13Z</time>
      </trkpt>
      <trkpt lat="44.69768" lon="3.00208">
        <ele>1120.7</ele>
        <time>2022-08-06T14:13:18Z</time>
      </trkpt>
      <trkpt lat="44.69771" lon="3.00212">
        <ele>1120.5</ele>
        <time>2022-08-06T14:13:23Z</time>
      </trkpt>
      <trkpt lat="44.69772" lon="3.00212">
        <ele>1120.5</ele>
        <time>2022-08-06T14:13:26Z</time>
      </trkpt>
      <trkpt lat="44.69773" lon="3.00214">
        <ele>1120.3</ele>
        <time>2022-08-06T14:13:32Z</time>
      </trkpt>
      <trkpt lat="44.69772" lon="3.00223">
        <ele>1120</ele>
        <time>2022-08-06T14:13:40Z</time>
      </trkpt>
      <trkpt lat="44.69774" lon="3.00227">
        <ele>1119.8</ele>
        <time>2022-08-06T14:13:47Z</time>
      </trkpt>
      <trkpt lat="44.69774" lon="3.00228">
        <ele>1119.7</ele>
        <time>2022-08-06T14:13:48Z</time>
      </trkpt>
      <trkpt lat="44.69774" lon="3.00232">
        <ele>1119.5</ele>
        <time>2022-08-06T14:13:54Z</time>
      </trkpt>
      <trkpt lat="44.69773" lon="3.00236">
        <ele>1119.3</ele>
        <time>2022-08-06T14:13:57Z</time>
      </trkpt>
      <trkpt lat="44.69775" lon="3.00241">
        <ele>1119.2</ele>
        <time>2022-08-06T14:14:01Z</time>
      </trkpt>
      <trkpt lat="44.69779" lon="3.00246">
        <ele>1119.1</ele>
        <time>2022-08-06T14:14:07Z</time>
      </trkpt>
      <trkpt lat="44.69779" lon="3.00248">
        <ele>1119</ele>
        <time>2022-08-06T14:14:08Z</time>
      </trkpt>
      <trkpt lat="44.69778" lon="3.00259">
        <ele>1119</ele>
        <time>2022-08-06T14:14:14Z</time>
      </trkpt>
      <trkpt lat="44.69777" lon="3.0026">
        <ele>1119</ele>
        <time>2022-08-06T14:14:15Z</time>
      </trkpt>
      <trkpt lat="44.69777" lon="3.00261">
        <ele>1119</ele>
        <time>2022-08-06T14:14:16Z</time>
      </trkpt>
      <trkpt lat="44.69777" lon="3.00264">
        <ele>1119</ele>
        <time>2022-08-06T14:14:19Z</time>
      </trkpt>
      <trkpt lat="44.69777" lon="3.00267">
        <ele>1119</ele>
        <time>2022-08-06T14:14:21Z</time>
      </trkpt>
      <trkpt lat="44.69776" lon="3.00269">
        <ele>1119</ele>
        <time>2022-08-06T14:14:22Z</time>
      </trkpt>
      <trkpt lat="44.69773" lon="3.00274">
        <ele>1119</ele>
        <time>2022-08-06T14:14:26Z</time>
      </trkpt>
      <trkpt lat="44.69771" lon="3.00277">
        <ele>1119</ele>
        <time>2022-08-06T14:14:28Z</time>
      </trkpt>
      <trkpt lat="44.69766" lon="3.00284">
        <ele>1119.1</ele>
        <time>2022-08-06T14:14:35Z</time>
      </trkpt>
      <trkpt lat="44.69764" lon="3.00286">
        <ele>1119.1</ele>
        <time>2022-08-06T14:14:38Z</time>
      </trkpt>
      <trkpt lat="44.69763" lon="3.00287">
        <ele>1119.2</ele>
        <time>2022-08-06T14:14:40Z</time>
      </trkpt>
      <trkpt lat="44.69762" lon="3.00288">
        <ele>1119.2</ele>
        <time>2022-08-06T14:14:42Z</time>
      </trkpt>
      <trkpt lat="44.69761" lon="3.00289">
        <ele>1119.2</ele>
        <time>2022-08-06T14:14:44Z</time>
      </trkpt>
      <trkpt lat="44.69758" lon="3.00291">
        <ele>1119.1</ele>
        <time>2022-08-06T14:14:49Z</time>
      </trkpt>
      <trkpt lat="44.69757" lon="3.00292">
        <ele>1119.1</ele>
        <time>2022-08-06T14:14:51Z</time>
      </trkpt>
      <trkpt lat="44.69757" lon="3.00294">
        <ele>1119.1</ele>
        <time>2022-08-06T14:14:54Z</time>
      </trkpt>
      <trkpt lat="44.69757" lon="3.00295">
        <ele>1119.1</ele>
        <time>2022-08-06T14:14:57Z</time>
      </trkpt>
      <trkpt lat="44.69757" lon="3.00298">
        <ele>1119.2</ele>
        <time>2022-08-06T14:15:01Z</time>
      </trkpt>
      <trkpt lat="44.69753" lon="3.00302">
        <ele>1119.1</ele>
        <time>2022-08-06T14:15:06Z</time>
      </trkpt>
      <trkpt lat="44.6975" lon="3.00304">
        <ele>1119</ele>
        <time>2022-08-06T14:15:09Z</time>
      </trkpt>
      <trkpt lat="44.69744" lon="3.00305">
        <ele>1119</ele>
        <time>2022-08-06T14:15:14Z</time>
      </trkpt>
      <trkpt lat="44.6974" lon="3.00305">
        <ele>1119</ele>
        <time>2022-08-06T14:15:19Z</time>
      </trkpt>
      <trkpt lat="44.6974" lon="3.00306">
        <ele>1119</ele>
        <time>2022-08-06T14:15:20Z</time>
      </trkpt>
      <trkpt lat="44.69739" lon="3.00307">
        <ele>1119</ele>
        <time>2022-08-06T14:15:22Z</time>
      </trkpt>
      <trkpt lat="44.6974" lon="3.00306">
        <ele>1119</ele>
        <time>2022-08-06T14:15:25Z</time>
      </trkpt>
      <trkpt lat="44.69741" lon="3.00305">
        <ele>1119</ele>
        <time>2022-08-06T14:15:26Z</time>
      </trkpt>
      <trkpt lat="44.6974" lon="3.00306">
        <ele>1119</ele>
        <time>2022-08-06T14:15:28Z</time>
      </trkpt>
      <trkpt lat="44.69743" lon="3.00303">
        <ele>1119</ele>
        <time>2022-08-06T14:15:32Z</time>
      </trkpt>
      <trkpt lat="44.69747" lon="3.00299">
        <ele>1119</ele>
        <time>2022-08-06T14:15:39Z</time>
      </trkpt>
      <trkpt lat="44.69749" lon="3.00299">
        <ele>1119</ele>
        <time>2022-08-06T14:15:40Z</time>
      </trkpt>
      <trkpt lat="44.69753" lon="3.00296">
        <ele>1119.1</ele>
        <time>2022-08-06T14:15:45Z</time>
      </trkpt>
      <trkpt lat="44.69754" lon="3.00297">
        <ele>1119.1</ele>
        <time>2022-08-06T14:15:49Z</time>
      </trkpt>
      <trkpt lat="44.69748" lon="3.00303">
        <ele>1119</ele>
        <time>2022-08-06T14:15:56Z</time>
      </trkpt>
      <trkpt lat="44.69748" lon="3.00304">
        <ele>1119</ele>
        <time>2022-08-06T14:15:58Z</time>
      </trkpt>
      <trkpt lat="44.69742" lon="3.00305">
        <ele>1119</ele>
        <time>2022-08-06T14:16:03Z</time>
      </trkpt>
      <trkpt lat="44.69743" lon="3.00308">
        <ele>1119</ele>
        <time>2022-08-06T14:16:11Z</time>
      </trkpt>
      <trkpt lat="44.69741" lon="3.00309">
        <ele>1119</ele>
        <time>2022-08-06T14:16:14Z</time>
      </trkpt>
      <trkpt lat="44.6974" lon="3.00309">
        <ele>1119</ele>
        <time>2022-08-06T14:16:16Z</time>
      </trkpt>
      <trkpt lat="44.69732" lon="3.00309">
        <ele>1119.1</ele>
        <time>2022-08-06T14:16:23Z</time>
      </trkpt>
      <trkpt lat="44.69727" lon="3.0031">
        <ele>1119.1</ele>
        <time>2022-08-06T14:16:26Z</time>
      </trkpt>
      <trkpt lat="44.69722" lon="3.00308">
        <ele>1119.1</ele>
        <time>2022-08-06T14:16:31Z</time>
      </trkpt>
      <trkpt lat="44.69715" lon="3.00305">
        <ele>1119.3</ele>
        <time>2022-08-06T14:16:40Z</time>
      </trkpt>
      <trkpt lat="44.69715" lon="3.00305">
        <ele>1119.3</ele>
        <time>2022-08-06T14:16:41Z</time>
      </trkpt>
      <trkpt lat="44.69714" lon="3.00305">
        <ele>1119.3</ele>
        <time>2022-08-06T14:16:42Z</time>
      </trkpt>
      <trkpt lat="44.69711" lon="3.00303">
        <ele>1119.3</ele>
        <time>2022-08-06T14:16:47Z</time>
      </trkpt>
      <trkpt lat="44.69708" lon="3.00298">
        <ele>1119.1</ele>
        <time>2022-08-06T14:16:52Z</time>
      </trkpt>
      <trkpt lat="44.69707" lon="3.00297">
        <ele>1119.1</ele>
        <time>2022-08-06T14:16:54Z</time>
      </trkpt>
      <trkpt lat="44.69695" lon="3.0029">
        <ele>1118.8</ele>
        <time>2022-08-06T14:17:01Z</time>
      </trkpt>
      <trkpt lat="44.69686" lon="3.00282">
        <ele>1118.1</ele>
        <time>2022-08-06T14:17:10Z</time>
      </trkpt>
      <trkpt lat="44.69682" lon="3.0028">
        <ele>1117.7</ele>
        <time>2022-08-06T14:17:13Z</time>
      </trkpt>
      <trkpt lat="44.69676" lon="3.00276">
        <ele>1117.3</ele>
        <time>2022-08-06T14:17:19Z</time>
      </trkpt>
      <trkpt lat="44.69673" lon="3.00275">
        <ele>1117.1</ele>
        <time>2022-08-06T14:17:22Z</time>
      </trkpt>
      <trkpt lat="44.6967" lon="3.00269">
        <ele>1116.8</ele>
        <time>2022-08-06T14:17:27Z</time>
      </trkpt>
      <trkpt lat="44.69666" lon="3.00267">
        <ele>1116.6</ele>
        <time>2022-08-06T14:17:31Z</time>
      </trkpt>
      <trkpt lat="44.69661" lon="3.00265">
        <ele>1116.5</ele>
        <time>2022-08-06T14:17:36Z</time>
      </trkpt>
      <trkpt lat="44.69658" lon="3.00263">
        <ele>1116.4</ele>
        <time>2022-08-06T14:17:38Z</time>
      </trkpt>
      <trkpt lat="44.69656" lon="3.00262">
        <ele>1116.3</ele>
        <time>2022-08-06T14:17:41Z</time>
      </trkpt>
      <trkpt lat="44.69656" lon="3.00261">
        <ele>1116.3</ele>
        <time>2022-08-06T14:17:43Z</time>
      </trkpt>
      <trkpt lat="44.69656" lon="3.00261">
        <ele>1116.3</ele>
        <time>2022-08-06T14:17:44Z</time>
      </trkpt>
      <trkpt lat="44.69653" lon="3.00257">
        <ele>1116</ele>
        <time>2022-08-06T14:17:52Z</time>
      </trkpt>
      <trkpt lat="44.69651" lon="3.00255">
        <ele>1115.8</ele>
        <time>2022-08-06T14:17:54Z</time>
      </trkpt>
      <trkpt lat="44.69645" lon="3.00249">
        <ele>1115.2</ele>
        <time>2022-08-06T14:18:01Z</time>
      </trkpt>
      <trkpt lat="44.69643" lon="3.00245">
        <ele>1115.1</ele>
        <time>2022-08-06T14:18:08Z</time>
      </trkpt>
      <trkpt lat="44.69644" lon="3.00243">
        <ele>1115.1</ele>
        <time>2022-08-06T14:18:18Z</time>
      </trkpt>
      <trkpt lat="44.69639" lon="3.00242">
        <ele>1115</ele>
        <time>2022-08-06T14:18:33Z</time>
      </trkpt>
      <trkpt lat="44.69635" lon="3.00241">
        <ele>1115.2</ele>
        <time>2022-08-06T14:18:38Z</time>
      </trkpt>
      <trkpt lat="44.69633" lon="3.0024">
        <ele>1115.3</ele>
        <time>2022-08-06T14:18:40Z</time>
      </trkpt>
      <trkpt lat="44.69626" lon="3.00239">
        <ele>1115.6</ele>
        <time>2022-08-06T14:18:45Z</time>
      </trkpt>
      <trkpt lat="44.69615" lon="3.00234">
        <ele>1115.7</ele>
        <time>2022-08-06T14:18:56Z</time>
      </trkpt>
      <trkpt lat="44.69607" lon="3.00229">
        <ele>1115.6</ele>
        <time>2022-08-06T14:19:05Z</time>
      </trkpt>
      <trkpt lat="44.696" lon="3.00226">
        <ele>1115.3</ele>
        <time>2022-08-06T14:19:12Z</time>
      </trkpt>
      <trkpt lat="44.69598" lon="3.00222">
        <ele>1115</ele>
        <time>2022-08-06T14:19:16Z</time>
      </trkpt>
      <trkpt lat="44.69597" lon="3.00221">
        <ele>1115</ele>
        <time>2022-08-06T14:19:17Z</time>
      </trkpt>
      <trkpt lat="44.69596" lon="3.00221">
        <ele>1115</ele>
        <time>2022-08-06T14:19:18Z</time>
      </trkpt>
      <trkpt lat="44.69587" lon="3.00216">
        <ele>1114.8</ele>
        <time>2022-08-06T14:19:27Z</time>
      </trkpt>
      <trkpt lat="44.6958" lon="3.00212">
        <ele>1114.8</ele>
        <time>2022-08-06T14:19:34Z</time>
      </trkpt>
      <trkpt lat="44.69579" lon="3.00209">
        <ele>1114.7</ele>
        <time>2022-08-06T14:19:36Z</time>
      </trkpt>
      <trkpt lat="44.69577" lon="3.00206">
        <ele>1114.6</ele>
        <time>2022-08-06T14:19:39Z</time>
      </trkpt>
      <trkpt lat="44.69572" lon="3.00194">
        <ele>1114</ele>
        <time>2022-08-06T14:19:46Z</time>
      </trkpt>
      <trkpt lat="44.6957" lon="3.00191">
        <ele>1114</ele>
        <time>2022-08-06T14:19:49Z</time>
      </trkpt>
      <trkpt lat="44.69566" lon="3.0019">
        <ele>1114</ele>
        <time>2022-08-06T14:19:53Z</time>
      </trkpt>
      <trkpt lat="44.69563" lon="3.00179">
        <ele>1114</ele>
        <time>2022-08-06T14:20:00Z</time>
      </trkpt>
      <trkpt lat="44.69561" lon="3.00172">
        <ele>1114</ele>
        <time>2022-08-06T14:20:05Z</time>
      </trkpt>
      <trkpt lat="44.69559" lon="3.00171">
        <ele>1114</ele>
        <time>2022-08-06T14:20:07Z</time>
      </trkpt>
      <trkpt lat="44.69559" lon="3.0017">
        <ele>1114</ele>
        <time>2022-08-06T14:20:08Z</time>
      </trkpt>
      <trkpt lat="44.69555" lon="3.00165">
        <ele>1113.9</ele>
        <time>2022-08-06T14:20:14Z</time>
      </trkpt>
      <trkpt lat="44.69554" lon="3.00163">
        <ele>1113.9</ele>
        <time>2022-08-06T14:20:15Z</time>
      </trkpt>
      <trkpt lat="44.69554" lon="3.0016">
        <ele>1113.8</ele>
        <time>2022-08-06T14:20:17Z</time>
      </trkpt>
      <trkpt lat="44.69552" lon="3.00156">
        <ele>1113.6</ele>
        <time>2022-08-06T14:20:20Z</time>
      </trkpt>
      <trkpt lat="44.6955" lon="3.00153">
        <ele>1113.4</ele>
        <time>2022-08-06T14:20:24Z</time>
      </trkpt>
      <trkpt lat="44.6955" lon="3.00151">
        <ele>1113.4</ele>
        <time>2022-08-06T14:20:26Z</time>
      </trkpt>
      <trkpt lat="44.6955" lon="3.0015">
        <ele>1113.3</ele>
        <time>2022-08-06T14:20:28Z</time>
      </trkpt>
      <trkpt lat="44.69551" lon="3.00149">
        <ele>1113.5</ele>
        <time>2022-08-06T14:20:35Z</time>
      </trkpt>
      <trkpt lat="44.69545" lon="3.00141">
        <ele>1112.9</ele>
        <time>2022-08-06T14:20:42Z</time>
      </trkpt>
      <trkpt lat="44.69537" lon="3.00127">
        <ele>1113.9</ele>
        <time>2022-08-06T14:20:53Z</time>
      </trkpt>
      <trkpt lat="44.69529" lon="3.00119">
        <ele>1114.1</ele>
        <time>2022-08-06T14:21:02Z</time>
      </trkpt>
      <trkpt lat="44.69519" lon="3.00109">
        <ele>1113.9</ele>
        <time>2022-08-06T14:21:13Z</time>
      </trkpt>
      <trkpt lat="44.69509" lon="3.00098">
        <ele>1114.4</ele>
        <time>2022-08-06T14:21:24Z</time>
      </trkpt>
      <trkpt lat="44.69508" lon="3.00097">
        <ele>1114.5</ele>
        <time>2022-08-06T14:21:25Z</time>
      </trkpt>
      <trkpt lat="44.69508" lon="3.00095">
        <ele>1114.9</ele>
        <time>2022-08-06T14:21:27Z</time>
      </trkpt>
      <trkpt lat="44.69507" lon="3.00094">
        <ele>1114.9</ele>
        <time>2022-08-06T14:21:29Z</time>
      </trkpt>
      <trkpt lat="44.69497" lon="3.00085">
        <ele>1115</ele>
        <time>2022-08-06T14:21:38Z</time>
      </trkpt>
      <trkpt lat="44.69488" lon="3.00077">
        <ele>1115.4</ele>
        <time>2022-08-06T14:21:47Z</time>
      </trkpt>
      <trkpt lat="44.69481" lon="3.00069">
        <ele>1115.6</ele>
        <time>2022-08-06T14:21:55Z</time>
      </trkpt>
      <trkpt lat="44.6947" lon="3.00063">
        <ele>1114.8</ele>
        <time>2022-08-06T14:22:04Z</time>
      </trkpt>
      <trkpt lat="44.6946" lon="3.00051">
        <ele>1116.3</ele>
        <time>2022-08-06T14:22:15Z</time>
      </trkpt>
      <trkpt lat="44.69453" lon="3.00046">
        <ele>1116.9</ele>
        <time>2022-08-06T14:22:22Z</time>
      </trkpt>
      <trkpt lat="44.6945" lon="3.00045">
        <ele>1116.7</ele>
        <time>2022-08-06T14:22:24Z</time>
      </trkpt>
      <trkpt lat="44.69446" lon="3.00043">
        <ele>1116.8</ele>
        <time>2022-08-06T14:22:28Z</time>
      </trkpt>
      <trkpt lat="44.69438" lon="3.00037">
        <ele>1118.2</ele>
        <time>2022-08-06T14:22:36Z</time>
      </trkpt>
      <trkpt lat="44.6943" lon="3.00032">
        <ele>1119.2</ele>
        <time>2022-08-06T14:22:43Z</time>
      </trkpt>
      <trkpt lat="44.69429" lon="3.00029">
        <ele>1119.8</ele>
        <time>2022-08-06T14:22:45Z</time>
      </trkpt>
      <trkpt lat="44.69426" lon="3.00028">
        <ele>1120</ele>
        <time>2022-08-06T14:22:47Z</time>
      </trkpt>
      <trkpt lat="44.69421" lon="3.00024">
        <ele>1120</ele>
        <time>2022-08-06T14:22:52Z</time>
      </trkpt>
      <trkpt lat="44.69413" lon="3.00015">
        <ele>1120.3</ele>
        <time>2022-08-06T14:23:01Z</time>
      </trkpt>
      <trkpt lat="44.69405" lon="3.00007">
        <ele>1120.5</ele>
        <time>2022-08-06T14:23:09Z</time>
      </trkpt>
      <trkpt lat="44.69403" lon="3.00005">
        <ele>1120.6</ele>
        <time>2022-08-06T14:23:11Z</time>
      </trkpt>
      <trkpt lat="44.69395" lon="2.99996">
        <ele>1121.2</ele>
        <time>2022-08-06T14:23:20Z</time>
      </trkpt>
      <trkpt lat="44.69392" lon="2.99992">
        <ele>1121.4</ele>
        <time>2022-08-06T14:23:24Z</time>
      </trkpt>
      <trkpt lat="44.69391" lon="2.99991">
        <ele>1121.5</ele>
        <time>2022-08-06T14:23:28Z</time>
      </trkpt>
      <trkpt lat="44.69391" lon="2.99991">
        <ele>1121.5</ele>
        <time>2022-08-06T14:23:36Z</time>
      </trkpt>
      <trkpt lat="44.69385" lon="2.99986">
        <ele>1122.1</ele>
        <time>2022-08-06T14:23:54Z</time>
      </trkpt>
      <trkpt lat="44.69373" lon="2.99976">
        <ele>1124.4</ele>
        <time>2022-08-06T14:24:04Z</time>
      </trkpt>
      <trkpt lat="44.69367" lon="2.9997">
        <ele>1125.7</ele>
        <time>2022-08-06T14:24:11Z</time>
      </trkpt>
      <trkpt lat="44.69363" lon="2.99967">
        <ele>1126.1</ele>
        <time>2022-08-06T14:24:16Z</time>
      </trkpt>
      <trkpt lat="44.69362" lon="2.99966">
        <ele>1126.2</ele>
        <time>2022-08-06T14:24:18Z</time>
      </trkpt>
      <trkpt lat="44.69362" lon="2.99967">
        <ele>1126.2</ele>
        <time>2022-08-06T14:24:20Z</time>
      </trkpt>
      <trkpt lat="44.69355" lon="2.99964">
        <ele>1127</ele>
        <time>2022-08-06T14:24:26Z</time>
      </trkpt>
      <trkpt lat="44.6935" lon="2.99962">
        <ele>1127.6</ele>
        <time>2022-08-06T14:24:31Z</time>
      </trkpt>
      <trkpt lat="44.69343" lon="2.99958">
        <ele>1128.5</ele>
        <time>2022-08-06T14:24:37Z</time>
      </trkpt>
      <trkpt lat="44.69337" lon="2.99955">
        <ele>1129.2</ele>
        <time>2022-08-06T14:24:42Z</time>
      </trkpt>
      <trkpt lat="44.69333" lon="2.99953">
        <ele>1129.6</ele>
        <time>2022-08-06T14:24:46Z</time>
      </trkpt>
      <trkpt lat="44.69323" lon="2.99951">
        <ele>1129.3</ele>
        <time>2022-08-06T14:24:54Z</time>
      </trkpt>
      <trkpt lat="44.69321" lon="2.9995">
        <ele>1129.3</ele>
        <time>2022-08-06T14:24:56Z</time>
      </trkpt>
      <trkpt lat="44.69312" lon="2.99948">
        <ele>1129</ele>
        <time>2022-08-06T14:25:04Z</time>
      </trkpt>
      <trkpt lat="44.69302" lon="2.99945">
        <ele>1129.2</ele>
        <time>2022-08-06T14:25:13Z</time>
      </trkpt>
      <trkpt lat="44.6929" lon="2.99942">
        <ele>1130.1</ele>
        <time>2022-08-06T14:25:23Z</time>
      </trkpt>
      <trkpt lat="44.69286" lon="2.9994">
        <ele>1130.5</ele>
        <time>2022-08-06T14:25:27Z</time>
      </trkpt>
      <trkpt lat="44.69276" lon="2.99937">
        <ele>1131.1</ele>
        <time>2022-08-06T14:25:36Z</time>
      </trkpt>
      <trkpt lat="44.69262" lon="2.99938">
        <ele>1131.7</ele>
        <time>2022-08-06T14:25:48Z</time>
      </trkpt>
      <trkpt lat="44.69257" lon="2.99936">
        <ele>1132</ele>
        <time>2022-08-06T14:25:53Z</time>
      </trkpt>
      <trkpt lat="44.69252" lon="2.99933">
        <ele>1132.3</ele>
        <time>2022-08-06T14:25:59Z</time>
      </trkpt>
      <trkpt lat="44.69244" lon="2.99926">
        <ele>1133</ele>
        <time>2022-08-06T14:26:07Z</time>
      </trkpt>
      <trkpt lat="44.69242" lon="2.99923">
        <ele>1133.3</ele>
        <time>2022-08-06T14:26:11Z</time>
      </trkpt>
      <trkpt lat="44.69242" lon="2.99922">
        <ele>1133.3</ele>
        <time>2022-08-06T14:26:14Z</time>
      </trkpt>
      <trkpt lat="44.69243" lon="2.9992">
        <ele>1133.3</ele>
        <time>2022-08-06T14:26:28Z</time>
      </trkpt>
      <trkpt lat="44.69238" lon="2.99926">
        <ele>1133.4</ele>
        <time>2022-08-06T14:26:40Z</time>
      </trkpt>
      <trkpt lat="44.69226" lon="2.99929">
        <ele>1133.9</ele>
        <time>2022-08-06T14:26:49Z</time>
      </trkpt>
      <trkpt lat="44.69216" lon="2.99926">
        <ele>1134.3</ele>
        <time>2022-08-06T14:26:58Z</time>
      </trkpt>
      <trkpt lat="44.69207" lon="2.99924">
        <ele>1134.5</ele>
        <time>2022-08-06T14:27:05Z</time>
      </trkpt>
      <trkpt lat="44.69205" lon="2.99923">
        <ele>1134.5</ele>
        <time>2022-08-06T14:27:07Z</time>
      </trkpt>
      <trkpt lat="44.69193" lon="2.99922">
        <ele>1134.6</ele>
        <time>2022-08-06T14:27:16Z</time>
      </trkpt>
      <trkpt lat="44.69186" lon="2.99919">
        <ele>1134.7</ele>
        <time>2022-08-06T14:27:22Z</time>
      </trkpt>
      <trkpt lat="44.69184" lon="2.99919">
        <ele>1134.8</ele>
        <time>2022-08-06T14:27:24Z</time>
      </trkpt>
      <trkpt lat="44.69173" lon="2.99916">
        <ele>1135.2</ele>
        <time>2022-08-06T14:27:34Z</time>
      </trkpt>
      <trkpt lat="44.69172" lon="2.99915">
        <ele>1135.3</ele>
        <time>2022-08-06T14:27:35Z</time>
      </trkpt>
      <trkpt lat="44.6916" lon="2.99912">
        <ele>1136.2</ele>
        <time>2022-08-06T14:27:45Z</time>
      </trkpt>
      <trkpt lat="44.69158" lon="2.99911">
        <ele>1136.4</ele>
        <time>2022-08-06T14:27:47Z</time>
      </trkpt>
      <trkpt lat="44.69144" lon="2.99908">
        <ele>1137.2</ele>
        <time>2022-08-06T14:27:58Z</time>
      </trkpt>
      <trkpt lat="44.69133" lon="2.99907">
        <ele>1137.7</ele>
        <time>2022-08-06T14:28:07Z</time>
      </trkpt>
      <trkpt lat="44.6912" lon="2.99905">
        <ele>1138.7</ele>
        <time>2022-08-06T14:28:19Z</time>
      </trkpt>
      <trkpt lat="44.69107" lon="2.99904">
        <ele>1139.6</ele>
        <time>2022-08-06T14:28:30Z</time>
      </trkpt>
      <trkpt lat="44.69098" lon="2.99903">
        <ele>1140.2</ele>
        <time>2022-08-06T14:28:38Z</time>
      </trkpt>
      <trkpt lat="44.69087" lon="2.99902">
        <ele>1140.9</ele>
        <time>2022-08-06T14:28:47Z</time>
      </trkpt>
      <trkpt lat="44.69082" lon="2.999">
        <ele>1141.2</ele>
        <time>2022-08-06T14:28:51Z</time>
      </trkpt>
      <trkpt lat="44.69079" lon="2.999">
        <ele>1141.3</ele>
        <time>2022-08-06T14:28:54Z</time>
      </trkpt>
      <trkpt lat="44.69071" lon="2.99899">
        <ele>1141.7</ele>
        <time>2022-08-06T14:29:02Z</time>
      </trkpt>
      <trkpt lat="44.69062" lon="2.99899">
        <ele>1142.1</ele>
        <time>2022-08-06T14:29:10Z</time>
      </trkpt>
      <trkpt lat="44.69048" lon="2.99898">
        <ele>1142.6</ele>
        <time>2022-08-06T14:29:22Z</time>
      </trkpt>
      <trkpt lat="44.69044" lon="2.99898">
        <ele>1142.8</ele>
        <time>2022-08-06T14:29:25Z</time>
      </trkpt>
      <trkpt lat="44.69036" lon="2.99896">
        <ele>1143.2</ele>
        <time>2022-08-06T14:29:33Z</time>
      </trkpt>
      <trkpt lat="44.69026" lon="2.99895">
        <ele>1143.6</ele>
        <time>2022-08-06T14:29:42Z</time>
      </trkpt>
      <trkpt lat="44.69015" lon="2.99891">
        <ele>1143.8</ele>
        <time>2022-08-06T14:29:51Z</time>
      </trkpt>
      <trkpt lat="44.69009" lon="2.9989">
        <ele>1143.9</ele>
        <time>2022-08-06T14:29:57Z</time>
      </trkpt>
      <trkpt lat="44.69009" lon="2.99889">
        <ele>1144</ele>
        <time>2022-08-06T14:29:58Z</time>
      </trkpt>
      <trkpt lat="44.69009" lon="2.99889">
        <ele>1144</ele>
        <time>2022-08-06T14:29:59Z</time>
      </trkpt>
      <trkpt lat="44.69009" lon="2.99891">
        <ele>1143.9</ele>
        <time>2022-08-06T14:30:03Z</time>
      </trkpt>
      <trkpt lat="44.69008" lon="2.99891">
        <ele>1143.8</ele>
        <time>2022-08-06T14:30:08Z</time>
      </trkpt>
      <trkpt lat="44.69001" lon="2.99891">
        <ele>1143.8</ele>
        <time>2022-08-06T14:30:13Z</time>
      </trkpt>
      <trkpt lat="44.68996" lon="2.99889">
        <ele>1144.1</ele>
        <time>2022-08-06T14:30:17Z</time>
      </trkpt>
      <trkpt lat="44.68991" lon="2.99889">
        <ele>1144.3</ele>
        <time>2022-08-06T14:30:21Z</time>
      </trkpt>
      <trkpt lat="44.68989" lon="2.99889">
        <ele>1144.4</ele>
        <time>2022-08-06T14:30:23Z</time>
      </trkpt>
      <trkpt lat="44.68988" lon="2.99888">
        <ele>1144.6</ele>
        <time>2022-08-06T14:30:24Z</time>
      </trkpt>
      <trkpt lat="44.68987" lon="2.99888">
        <ele>1144.7</ele>
        <time>2022-08-06T14:30:25Z</time>
      </trkpt>
      <trkpt lat="44.6898" lon="2.99887">
        <ele>1145.1</ele>
        <time>2022-08-06T14:30:31Z</time>
      </trkpt>
      <trkpt lat="44.68977" lon="2.99888">
        <ele>1145.1</ele>
        <time>2022-08-06T14:30:33Z</time>
      </trkpt>
      <trkpt lat="44.68964" lon="2.99888">
        <ele>1145.9</ele>
        <time>2022-08-06T14:30:44Z</time>
      </trkpt>
      <trkpt lat="44.68962" lon="2.99888">
        <ele>1146</ele>
        <time>2022-08-06T14:30:45Z</time>
      </trkpt>
      <trkpt lat="44.68956" lon="2.99886">
        <ele>1147</ele>
        <time>2022-08-06T14:30:50Z</time>
      </trkpt>
      <trkpt lat="44.68951" lon="2.99886">
        <ele>1147.5</ele>
        <time>2022-08-06T14:30:54Z</time>
      </trkpt>
      <trkpt lat="44.68942" lon="2.99886">
        <ele>1148.1</ele>
        <time>2022-08-06T14:31:01Z</time>
      </trkpt>
      <trkpt lat="44.68941" lon="2.99886">
        <ele>1148.2</ele>
        <time>2022-08-06T14:31:02Z</time>
      </trkpt>
      <trkpt lat="44.68933" lon="2.99887">
        <ele>1148.6</ele>
        <time>2022-08-06T14:31:09Z</time>
      </trkpt>
      <trkpt lat="44.68927" lon="2.99888">
        <ele>1148.5</ele>
        <time>2022-08-06T14:31:15Z</time>
      </trkpt>
      <trkpt lat="44.68915" lon="2.99889">
        <ele>1149.1</ele>
        <time>2022-08-06T14:31:25Z</time>
      </trkpt>
      <trkpt lat="44.68901" lon="2.99888">
        <ele>1149.4</ele>
        <time>2022-08-06T14:31:36Z</time>
      </trkpt>
      <trkpt lat="44.68896" lon="2.99886">
        <ele>1149.8</ele>
        <time>2022-08-06T14:31:41Z</time>
      </trkpt>
      <trkpt lat="44.6889" lon="2.99886">
        <ele>1149.8</ele>
        <time>2022-08-06T14:31:45Z</time>
      </trkpt>
      <trkpt lat="44.68879" lon="2.99885">
        <ele>1149</ele>
        <time>2022-08-06T14:31:53Z</time>
      </trkpt>
      <trkpt lat="44.68878" lon="2.99886">
        <ele>1148.6</ele>
        <time>2022-08-06T14:31:54Z</time>
      </trkpt>
      <trkpt lat="44.68873" lon="2.99884">
        <ele>1148.5</ele>
        <time>2022-08-06T14:31:59Z</time>
      </trkpt>
      <trkpt lat="44.68868" lon="2.99883">
        <ele>1148.2</ele>
        <time>2022-08-06T14:32:03Z</time>
      </trkpt>
      <trkpt lat="44.68867" lon="2.99882">
        <ele>1148.2</ele>
        <time>2022-08-06T14:32:04Z</time>
      </trkpt>
      <trkpt lat="44.6886" lon="2.9988">
        <ele>1147.8</ele>
        <time>2022-08-06T14:32:10Z</time>
      </trkpt>
      <trkpt lat="44.6885" lon="2.99876">
        <ele>1147.8</ele>
        <time>2022-08-06T14:32:19Z</time>
      </trkpt>
      <trkpt lat="44.68843" lon="2.99872">
        <ele>1147.9</ele>
        <time>2022-08-06T14:32:26Z</time>
      </trkpt>
      <trkpt lat="44.68842" lon="2.99872">
        <ele>1147.8</ele>
        <time>2022-08-06T14:32:27Z</time>
      </trkpt>
      <trkpt lat="44.68839" lon="2.99871">
        <ele>1147.8</ele>
        <time>2022-08-06T14:32:29Z</time>
      </trkpt>
      <trkpt lat="44.68836" lon="2.9987">
        <ele>1147.6</ele>
        <time>2022-08-06T14:32:32Z</time>
      </trkpt>
      <trkpt lat="44.68826" lon="2.99867">
        <ele>1147.4</ele>
        <time>2022-08-06T14:32:40Z</time>
      </trkpt>
      <trkpt lat="44.68824" lon="2.99867">
        <ele>1147.1</ele>
        <time>2022-08-06T14:32:44Z</time>
      </trkpt>
      <trkpt lat="44.68824" lon="2.99866">
        <ele>1147.2</ele>
        <time>2022-08-06T14:32:46Z</time>
      </trkpt>
      <trkpt lat="44.68824" lon="2.99866">
        <ele>1147.3</ele>
        <time>2022-08-06T14:32:47Z</time>
      </trkpt>
      <trkpt lat="44.68824" lon="2.99866">
        <ele>1147.3</ele>
        <time>2022-08-06T14:32:49Z</time>
      </trkpt>
      <trkpt lat="44.6882" lon="2.99865">
        <ele>1147</ele>
        <time>2022-08-06T14:32:54Z</time>
      </trkpt>
      <trkpt lat="44.68812" lon="2.99862">
        <ele>1146.6</ele>
        <time>2022-08-06T14:33:03Z</time>
      </trkpt>
      <trkpt lat="44.68816" lon="2.99863">
        <ele>1146.9</ele>
        <time>2022-08-06T14:33:08Z</time>
      </trkpt>
      <trkpt lat="44.68824" lon="2.99867">
        <ele>1147</ele>
        <time>2022-08-06T14:33:14Z</time>
      </trkpt>
      <trkpt lat="44.68824" lon="2.99868">
        <ele>1146.8</ele>
        <time>2022-08-06T14:33:15Z</time>
      </trkpt>
      <trkpt lat="44.68826" lon="2.99873">
        <ele>1146.3</ele>
        <time>2022-08-06T14:33:20Z</time>
      </trkpt>
      <trkpt lat="44.68825" lon="2.99876">
        <ele>1145.8</ele>
        <time>2022-08-06T14:33:24Z</time>
      </trkpt>
      <trkpt lat="44.68825" lon="2.99877">
        <ele>1145.6</ele>
        <time>2022-08-06T14:33:26Z</time>
      </trkpt>
      <trkpt lat="44.68825" lon="2.99879">
        <ele>1145.3</ele>
        <time>2022-08-06T14:33:28Z</time>
      </trkpt>
      <trkpt lat="44.68825" lon="2.9988">
        <ele>1145.1</ele>
        <time>2022-08-06T14:33:29Z</time>
      </trkpt>
      <trkpt lat="44.68825" lon="2.99887">
        <ele>1143.9</ele>
        <time>2022-08-06T14:33:34Z</time>
      </trkpt>
      <trkpt lat="44.68816" lon="2.9989">
        <ele>1143.3</ele>
        <time>2022-08-06T14:33:40Z</time>
      </trkpt>
      <trkpt lat="44.68811" lon="2.99889">
        <ele>1143.2</ele>
        <time>2022-08-06T14:33:44Z</time>
      </trkpt>
      <trkpt lat="44.68732" lon="2.99882">
        <ele>1144</ele>
        <time>2022-08-07T07:35:04Z</time>
      </trkpt>
      <trkpt lat="44.6874" lon="2.9989">
        <ele>1144</ele>
        <time>2022-08-07T07:35:06Z</time>
      </trkpt>
      <trkpt lat="44.68736" lon="2.99883">
        <ele>1144</ele>
        <time>2022-08-07T07:35:08Z</time>
      </trkpt>
      <trkpt lat="44.68736" lon="2.99887">
        <ele>1144</ele>
        <time>2022-08-07T07:35:11Z</time>
      </trkpt>
      <trkpt lat="44.68738" lon="2.9989">
        <ele>1143.9</ele>
        <time>2022-08-07T07:35:13Z</time>
      </trkpt>
      <trkpt lat="44.68738" lon="2.99897">
        <ele>1143.6</ele>
        <time>2022-08-07T07:35:16Z</time>
      </trkpt>
      <trkpt lat="44.68734" lon="2.99914">
        <ele>1142.6</ele>
        <time>2022-08-07T07:35:27Z</time>
      </trkpt>
      <trkpt lat="44.68733" lon="2.99917">
        <ele>1142.4</ele>
        <time>2022-08-07T07:35:29Z</time>
      </trkpt>
      <trkpt lat="44.68729" lon="2.9992">
        <ele>1141.9</ele>
        <time>2022-08-07T07:35:36Z</time>
      </trkpt>
      <trkpt lat="44.68729" lon="2.99921">
        <ele>1141.9</ele>
        <time>2022-08-07T07:35:37Z</time>
      </trkpt>
      <trkpt lat="44.68727" lon="2.9992">
        <ele>1141.9</ele>
        <time>2022-08-07T07:35:42Z</time>
      </trkpt>
      <trkpt lat="44.68724" lon="2.9992">
        <ele>1141.8</ele>
        <time>2022-08-07T07:35:46Z</time>
      </trkpt>
      <trkpt lat="44.68723" lon="2.9992">
        <ele>1141.7</ele>
        <time>2022-08-07T07:35:48Z</time>
      </trkpt>
      <trkpt lat="44.6872" lon="2.99923">
        <ele>1141.1</ele>
        <time>2022-08-07T07:35:51Z</time>
      </trkpt>
      <trkpt lat="44.68712" lon="2.99926">
        <ele>1139.6</ele>
        <time>2022-08-07T07:35:58Z</time>
      </trkpt>
      <trkpt lat="44.68705" lon="2.9993">
        <ele>1138.1</ele>
        <time>2022-08-07T07:36:06Z</time>
      </trkpt>
      <trkpt lat="44.68705" lon="2.99931">
        <ele>1138</ele>
        <time>2022-08-07T07:36:07Z</time>
      </trkpt>
      <trkpt lat="44.68701" lon="2.99934">
        <ele>1136.9</ele>
        <time>2022-08-07T07:36:11Z</time>
      </trkpt>
      <trkpt lat="44.687" lon="2.99937">
        <ele>1136.3</ele>
        <time>2022-08-07T07:36:13Z</time>
      </trkpt>
      <trkpt lat="44.68699" lon="2.99939">
        <ele>1135.9</ele>
        <time>2022-08-07T07:36:16Z</time>
      </trkpt>
      <trkpt lat="44.687" lon="2.99939">
        <ele>1135.9</ele>
        <time>2022-08-07T07:36:19Z</time>
      </trkpt>
      <trkpt lat="44.68703" lon="2.9994">
        <ele>1136.3</ele>
        <time>2022-08-07T07:36:25Z</time>
      </trkpt>
      <trkpt lat="44.68703" lon="2.9994">
        <ele>1136.2</ele>
        <time>2022-08-07T07:36:35Z</time>
      </trkpt>
      <trkpt lat="44.68706" lon="2.99949">
        <ele>1134.9</ele>
        <time>2022-08-07T07:36:44Z</time>
      </trkpt>
      <trkpt lat="44.6871" lon="2.99964">
        <ele>1132.2</ele>
        <time>2022-08-07T07:36:52Z</time>
      </trkpt>
      <trkpt lat="44.68715" lon="2.99971">
        <ele>1131.3</ele>
        <time>2022-08-07T07:37:02Z</time>
      </trkpt>
      <trkpt lat="44.68718" lon="2.99975">
        <ele>1130.7</ele>
        <time>2022-08-07T07:37:06Z</time>
      </trkpt>
      <trkpt lat="44.68719" lon="2.99975">
        <ele>1130.8</ele>
        <time>2022-08-07T07:37:07Z</time>
      </trkpt>
      <trkpt lat="44.68721" lon="2.99976">
        <ele>1130.6</ele>
        <time>2022-08-07T07:37:09Z</time>
      </trkpt>
      <trkpt lat="44.68724" lon="2.9998">
        <ele>1129.8</ele>
        <time>2022-08-07T07:37:12Z</time>
      </trkpt>
      <trkpt lat="44.68729" lon="2.99983">
        <ele>1129.4</ele>
        <time>2022-08-07T07:37:17Z</time>
      </trkpt>
      <trkpt lat="44.68733" lon="2.99987">
        <ele>1128.7</ele>
        <time>2022-08-07T07:37:21Z</time>
      </trkpt>
      <trkpt lat="44.68737" lon="2.99991">
        <ele>1128.2</ele>
        <time>2022-08-07T07:37:25Z</time>
      </trkpt>
      <trkpt lat="44.68745" lon="2.99999">
        <ele>1127.3</ele>
        <time>2022-08-07T07:37:33Z</time>
      </trkpt>
      <trkpt lat="44.6875" lon="3.00005">
        <ele>1127.1</ele>
        <time>2022-08-07T07:37:39Z</time>
      </trkpt>
      <trkpt lat="44.68756" lon="3.0001">
        <ele>1126.4</ele>
        <time>2022-08-07T07:37:44Z</time>
      </trkpt>
      <trkpt lat="44.68764" lon="3.00019">
        <ele>1125.5</ele>
        <time>2022-08-07T07:37:52Z</time>
      </trkpt>
      <trkpt lat="44.68765" lon="3.00019">
        <ele>1125.4</ele>
        <time>2022-08-07T07:37:53Z</time>
      </trkpt>
      <trkpt lat="44.68772" lon="3.00024">
        <ele>1125.1</ele>
        <time>2022-08-07T07:37:59Z</time>
      </trkpt>
      <trkpt lat="44.68778" lon="3.0003">
        <ele>1124.6</ele>
        <time>2022-08-07T07:38:06Z</time>
      </trkpt>
      <trkpt lat="44.6878" lon="3.00032">
        <ele>1124.1</ele>
        <time>2022-08-07T07:38:08Z</time>
      </trkpt>
      <trkpt lat="44.68788" lon="3.00038">
        <ele>1122.5</ele>
        <time>2022-08-07T07:38:15Z</time>
      </trkpt>
      <trkpt lat="44.68789" lon="3.00039">
        <ele>1122.2</ele>
        <time>2022-08-07T07:38:16Z</time>
      </trkpt>
      <trkpt lat="44.68789" lon="3.0004">
        <ele>1122</ele>
        <time>2022-08-07T07:38:17Z</time>
      </trkpt>
      <trkpt lat="44.68794" lon="3.00044">
        <ele>1120.9</ele>
        <time>2022-08-07T07:38:22Z</time>
      </trkpt>
      <trkpt lat="44.68797" lon="3.00045">
        <ele>1120.6</ele>
        <time>2022-08-07T07:38:24Z</time>
      </trkpt>
      <trkpt lat="44.68802" lon="3.00048">
        <ele>1119.7</ele>
        <time>2022-08-07T07:38:29Z</time>
      </trkpt>
      <trkpt lat="44.68809" lon="3.00049">
        <ele>1119.1</ele>
        <time>2022-08-07T07:38:35Z</time>
      </trkpt>
      <trkpt lat="44.6881" lon="3.00049">
        <ele>1118.9</ele>
        <time>2022-08-07T07:38:36Z</time>
      </trkpt>
      <trkpt lat="44.68818" lon="3.00048">
        <ele>1117.9</ele>
        <time>2022-08-07T07:38:42Z</time>
      </trkpt>
      <trkpt lat="44.68823" lon="3.00048">
        <ele>1117.3</ele>
        <time>2022-08-07T07:38:47Z</time>
      </trkpt>
      <trkpt lat="44.68825" lon="3.00047">
        <ele>1117.2</ele>
        <time>2022-08-07T07:38:48Z</time>
      </trkpt>
      <trkpt lat="44.68834" lon="3.00045">
        <ele>1116.5</ele>
        <time>2022-08-07T07:38:56Z</time>
      </trkpt>
      <trkpt lat="44.68841" lon="3.00044">
        <ele>1115.8</ele>
        <time>2022-08-07T07:39:02Z</time>
      </trkpt>
      <trkpt lat="44.68849" lon="3.00041">
        <ele>1115.3</ele>
        <time>2022-08-07T07:39:09Z</time>
      </trkpt>
      <trkpt lat="44.68853" lon="3.00041">
        <ele>1114.8</ele>
        <time>2022-08-07T07:39:12Z</time>
      </trkpt>
      <trkpt lat="44.68859" lon="3.00039">
        <ele>1114.4</ele>
        <time>2022-08-07T07:39:17Z</time>
      </trkpt>
      <trkpt lat="44.6886" lon="3.00039">
        <ele>1114.1</ele>
        <time>2022-08-07T07:39:18Z</time>
      </trkpt>
      <trkpt lat="44.68873" lon="3.00042">
        <ele>1113.3</ele>
        <time>2022-08-07T07:39:28Z</time>
      </trkpt>
      <trkpt lat="44.68885" lon="3.00046">
        <ele>1111.8</ele>
        <time>2022-08-07T07:39:38Z</time>
      </trkpt>
      <trkpt lat="44.68888" lon="3.00047">
        <ele>1111.6</ele>
        <time>2022-08-07T07:39:40Z</time>
      </trkpt>
      <trkpt lat="44.68895" lon="3.00051">
        <ele>1110.8</ele>
        <time>2022-08-07T07:39:46Z</time>
      </trkpt>
      <trkpt lat="44.68899" lon="3.00052">
        <ele>1110.6</ele>
        <time>2022-08-07T07:39:50Z</time>
      </trkpt>
      <trkpt lat="44.68907" lon="3.00057">
        <ele>1110</ele>
        <time>2022-08-07T07:39:57Z</time>
      </trkpt>
      <trkpt lat="44.68914" lon="3.00061">
        <ele>1109.6</ele>
        <time>2022-08-07T07:40:03Z</time>
      </trkpt>
      <trkpt lat="44.68919" lon="3.00064">
        <ele>1109.2</ele>
        <time>2022-08-07T07:40:07Z</time>
      </trkpt>
      <trkpt lat="44.68924" lon="3.00068">
        <ele>1108.1</ele>
        <time>2022-08-07T07:40:12Z</time>
      </trkpt>
      <trkpt lat="44.68928" lon="3.0007">
        <ele>1107.6</ele>
        <time>2022-08-07T07:40:15Z</time>
      </trkpt>
      <trkpt lat="44.6893" lon="3.00073">
        <ele>1106.9</ele>
        <time>2022-08-07T07:40:18Z</time>
      </trkpt>
      <trkpt lat="44.68935" lon="3.00076">
        <ele>1106.1</ele>
        <time>2022-08-07T07:40:22Z</time>
      </trkpt>
      <trkpt lat="44.68939" lon="3.00077">
        <ele>1105.8</ele>
        <time>2022-08-07T07:40:25Z</time>
      </trkpt>
      <trkpt lat="44.68944" lon="3.00081">
        <ele>1104.7</ele>
        <time>2022-08-07T07:40:30Z</time>
      </trkpt>
      <trkpt lat="44.68953" lon="3.00085">
        <ele>1103.8</ele>
        <time>2022-08-07T07:40:37Z</time>
      </trkpt>
      <trkpt lat="44.68955" lon="3.00085">
        <ele>1103.7</ele>
        <time>2022-08-07T07:40:39Z</time>
      </trkpt>
      <trkpt lat="44.6897" lon="3.00091">
        <ele>1103.1</ele>
        <time>2022-08-07T07:40:51Z</time>
      </trkpt>
      <trkpt lat="44.68972" lon="3.00092">
        <ele>1103</ele>
        <time>2022-08-07T07:40:52Z</time>
      </trkpt>
      <trkpt lat="44.6898" lon="3.00094">
        <ele>1102.6</ele>
        <time>2022-08-07T07:40:58Z</time>
      </trkpt>
      <trkpt lat="44.68985" lon="3.00096">
        <ele>1102.2</ele>
        <time>2022-08-07T07:41:02Z</time>
      </trkpt>
      <trkpt lat="44.68991" lon="3.00098">
        <ele>1101.7</ele>
        <time>2022-08-07T07:41:07Z</time>
      </trkpt>
      <trkpt lat="44.69003" lon="3.00101">
        <ele>1100.9</ele>
        <time>2022-08-07T07:41:16Z</time>
      </trkpt>
      <trkpt lat="44.69011" lon="3.00102">
        <ele>1100.4</ele>
        <time>2022-08-07T07:41:23Z</time>
      </trkpt>
      <trkpt lat="44.69012" lon="3.00102">
        <ele>1100.4</ele>
        <time>2022-08-07T07:41:24Z</time>
      </trkpt>
      <trkpt lat="44.69028" lon="3.00108">
        <ele>1099.2</ele>
        <time>2022-08-07T07:41:37Z</time>
      </trkpt>
      <trkpt lat="44.69033" lon="3.0011">
        <ele>1098.9</ele>
        <time>2022-08-07T07:41:41Z</time>
      </trkpt>
      <trkpt lat="44.69039" lon="3.00115">
        <ele>1098.4</ele>
        <time>2022-08-07T07:41:47Z</time>
      </trkpt>
      <trkpt lat="44.69052" lon="3.00122">
        <ele>1098</ele>
        <time>2022-08-07T07:41:58Z</time>
      </trkpt>
      <trkpt lat="44.69054" lon="3.00123">
        <ele>1098</ele>
        <time>2022-08-07T07:42:00Z</time>
      </trkpt>
      <trkpt lat="44.6907" lon="3.00136">
        <ele>1098.1</ele>
        <time>2022-08-07T07:42:14Z</time>
      </trkpt>
      <trkpt lat="44.69075" lon="3.0014">
        <ele>1098</ele>
        <time>2022-08-07T07:42:18Z</time>
      </trkpt>
      <trkpt lat="44.69083" lon="3.00148">
        <ele>1097.7</ele>
        <time>2022-08-07T07:42:26Z</time>
      </trkpt>
      <trkpt lat="44.69085" lon="3.00151">
        <ele>1097.6</ele>
        <time>2022-08-07T07:42:28Z</time>
      </trkpt>
      <trkpt lat="44.69096" lon="3.00166">
        <ele>1097.1</ele>
        <time>2022-08-07T07:42:40Z</time>
      </trkpt>
      <trkpt lat="44.69108" lon="3.00176">
        <ele>1096.3</ele>
        <time>2022-08-07T07:42:50Z</time>
      </trkpt>
      <trkpt lat="44.69109" lon="3.00177">
        <ele>1096.3</ele>
        <time>2022-08-07T07:42:51Z</time>
      </trkpt>
      <trkpt lat="44.6912" lon="3.00185">
        <ele>1095.3</ele>
        <time>2022-08-07T07:43:01Z</time>
      </trkpt>
      <trkpt lat="44.69122" lon="3.00187">
        <ele>1095</ele>
        <time>2022-08-07T07:43:03Z</time>
      </trkpt>
      <trkpt lat="44.69132" lon="3.00193">
        <ele>1094.3</ele>
        <time>2022-08-07T07:43:11Z</time>
      </trkpt>
      <trkpt lat="44.69143" lon="3.00197">
        <ele>1093.8</ele>
        <time>2022-08-07T07:43:21Z</time>
      </trkpt>
      <trkpt lat="44.69153" lon="3.00201">
        <ele>1093.2</ele>
        <time>2022-08-07T07:43:29Z</time>
      </trkpt>
      <trkpt lat="44.69162" lon="3.00203">
        <ele>1092.6</ele>
        <time>2022-08-07T07:43:37Z</time>
      </trkpt>
      <trkpt lat="44.69165" lon="3.00204">
        <ele>1092.4</ele>
        <time>2022-08-07T07:43:39Z</time>
      </trkpt>
      <trkpt lat="44.69177" lon="3.00205">
        <ele>1091.8</ele>
        <time>2022-08-07T07:43:48Z</time>
      </trkpt>
      <trkpt lat="44.69183" lon="3.00206">
        <ele>1091.6</ele>
        <time>2022-08-07T07:43:53Z</time>
      </trkpt>
      <trkpt lat="44.69193" lon="3.00206">
        <ele>1091.2</ele>
        <time>2022-08-07T07:44:01Z</time>
      </trkpt>
      <trkpt lat="44.69207" lon="3.00211">
        <ele>1090.6</ele>
        <time>2022-08-07T07:44:12Z</time>
      </trkpt>
      <trkpt lat="44.69214" lon="3.00217">
        <ele>1090.2</ele>
        <time>2022-08-07T07:44:19Z</time>
      </trkpt>
      <trkpt lat="44.69214" lon="3.00218">
        <ele>1090.2</ele>
        <time>2022-08-07T07:44:20Z</time>
      </trkpt>
      <trkpt lat="44.69218" lon="3.00221">
        <ele>1090.1</ele>
        <time>2022-08-07T07:44:23Z</time>
      </trkpt>
      <trkpt lat="44.69224" lon="3.00226">
        <ele>1089.9</ele>
        <time>2022-08-07T07:44:29Z</time>
      </trkpt>
      <trkpt lat="44.69236" lon="3.00239">
        <ele>1089.4</ele>
        <time>2022-08-07T07:44:41Z</time>
      </trkpt>
      <trkpt lat="44.69241" lon="3.00243">
        <ele>1089.3</ele>
        <time>2022-08-07T07:44:46Z</time>
      </trkpt>
      <trkpt lat="44.69245" lon="3.00246">
        <ele>1089.2</ele>
        <time>2022-08-07T07:44:50Z</time>
      </trkpt>
      <trkpt lat="44.69259" lon="3.00252">
        <ele>1089.2</ele>
        <time>2022-08-07T07:45:01Z</time>
      </trkpt>
      <trkpt lat="44.69272" lon="3.00254">
        <ele>1089.5</ele>
        <time>2022-08-07T07:45:11Z</time>
      </trkpt>
      <trkpt lat="44.69282" lon="3.00255">
        <ele>1089.6</ele>
        <time>2022-08-07T07:45:20Z</time>
      </trkpt>
      <trkpt lat="44.69294" lon="3.0026">
        <ele>1089.6</ele>
        <time>2022-08-07T07:45:31Z</time>
      </trkpt>
      <trkpt lat="44.693" lon="3.0026">
        <ele>1089.8</ele>
        <time>2022-08-07T07:45:36Z</time>
      </trkpt>
      <trkpt lat="44.69305" lon="3.00261">
        <ele>1090</ele>
        <time>2022-08-07T07:45:40Z</time>
      </trkpt>
      <trkpt lat="44.69308" lon="3.00261">
        <ele>1090.5</ele>
        <time>2022-08-07T07:45:44Z</time>
      </trkpt>
      <trkpt lat="44.69308" lon="3.00261">
        <ele>1090.3</ele>
        <time>2022-08-07T07:45:47Z</time>
      </trkpt>
      <trkpt lat="44.69305" lon="3.00261">
        <ele>1090</ele>
        <time>2022-08-07T07:45:53Z</time>
      </trkpt>
      <trkpt lat="44.69306" lon="3.00261">
        <ele>1090</ele>
        <time>2022-08-07T07:46:12Z</time>
      </trkpt>
      <trkpt lat="44.69306" lon="3.00261">
        <ele>1090</ele>
        <time>2022-08-07T07:46:17Z</time>
      </trkpt>
      <trkpt lat="44.69312" lon="3.00259">
        <ele>1091</ele>
        <time>2022-08-07T07:46:27Z</time>
      </trkpt>
      <trkpt lat="44.69313" lon="3.0026">
        <ele>1091.3</ele>
        <time>2022-08-07T07:46:28Z</time>
      </trkpt>
      <trkpt lat="44.69316" lon="3.00259">
        <ele>1091.8</ele>
        <time>2022-08-07T07:46:29Z</time>
      </trkpt>
      <trkpt lat="44.69324" lon="3.00259">
        <ele>1093</ele>
        <time>2022-08-07T07:46:35Z</time>
      </trkpt>
      <trkpt lat="44.69325" lon="3.00259">
        <ele>1093.2</ele>
        <time>2022-08-07T07:46:36Z</time>
      </trkpt>
      <trkpt lat="44.69334" lon="3.0026">
        <ele>1094.7</ele>
        <time>2022-08-07T07:46:45Z</time>
      </trkpt>
      <trkpt lat="44.69335" lon="3.00261">
        <ele>1094.8</ele>
        <time>2022-08-07T07:46:46Z</time>
      </trkpt>
      <trkpt lat="44.6934" lon="3.00259">
        <ele>1095.4</ele>
        <time>2022-08-07T07:46:51Z</time>
      </trkpt>
      <trkpt lat="44.69345" lon="3.00259">
        <ele>1095.9</ele>
        <time>2022-08-07T07:46:55Z</time>
      </trkpt>
      <trkpt lat="44.69347" lon="3.0026">
        <ele>1096.1</ele>
        <time>2022-08-07T07:46:58Z</time>
      </trkpt>
      <trkpt lat="44.69348" lon="3.0026">
        <ele>1096.2</ele>
        <time>2022-08-07T07:46:59Z</time>
      </trkpt>
      <trkpt lat="44.6935" lon="3.0026">
        <ele>1096.4</ele>
        <time>2022-08-07T07:47:01Z</time>
      </trkpt>
      <trkpt lat="44.69351" lon="3.0026">
        <ele>1096.6</ele>
        <time>2022-08-07T07:47:04Z</time>
      </trkpt>
      <trkpt lat="44.69359" lon="3.00255">
        <ele>1097.6</ele>
        <time>2022-08-07T07:47:10Z</time>
      </trkpt>
      <trkpt lat="44.6936" lon="3.00255">
        <ele>1097.7</ele>
        <time>2022-08-07T07:47:11Z</time>
      </trkpt>
      <trkpt lat="44.69363" lon="3.00256">
        <ele>1097.9</ele>
        <time>2022-08-07T07:47:14Z</time>
      </trkpt>
      <trkpt lat="44.69364" lon="3.00259">
        <ele>1097.9</ele>
        <time>2022-08-07T07:47:16Z</time>
      </trkpt>
      <trkpt lat="44.69373" lon="3.00278">
        <ele>1097</ele>
        <time>2022-08-07T07:47:29Z</time>
      </trkpt>
      <trkpt lat="44.69375" lon="3.00282">
        <ele>1096.5</ele>
        <time>2022-08-07T07:47:32Z</time>
      </trkpt>
      <trkpt lat="44.69379" lon="3.00287">
        <ele>1095.9</ele>
        <time>2022-08-07T07:47:36Z</time>
      </trkpt>
      <trkpt lat="44.69382" lon="3.00289">
        <ele>1095.6</ele>
        <time>2022-08-07T07:47:40Z</time>
      </trkpt>
      <trkpt lat="44.69382" lon="3.0029">
        <ele>1095.6</ele>
        <time>2022-08-07T07:47:42Z</time>
      </trkpt>
      <trkpt lat="44.69386" lon="3.00293">
        <ele>1095.3</ele>
        <time>2022-08-07T07:47:49Z</time>
      </trkpt>
      <trkpt lat="44.69389" lon="3.00294">
        <ele>1095.2</ele>
        <time>2022-08-07T07:47:55Z</time>
      </trkpt>
      <trkpt lat="44.69388" lon="3.00295">
        <ele>1095.1</ele>
        <time>2022-08-07T07:48:07Z</time>
      </trkpt>
      <trkpt lat="44.69391" lon="3.00297">
        <ele>1095.4</ele>
        <time>2022-08-07T07:48:15Z</time>
      </trkpt>
      <trkpt lat="44.69393" lon="3.00298">
        <ele>1095.4</ele>
        <time>2022-08-07T07:48:17Z</time>
      </trkpt>
      <trkpt lat="44.69393" lon="3.00296">
        <ele>1095.6</ele>
        <time>2022-08-07T07:48:25Z</time>
      </trkpt>
      <trkpt lat="44.69393" lon="3.00296">
        <ele>1095.7</ele>
        <time>2022-08-07T07:48:30Z</time>
      </trkpt>
      <trkpt lat="44.69393" lon="3.00296">
        <ele>1095.7</ele>
        <time>2022-08-07T07:48:46Z</time>
      </trkpt>
      <trkpt lat="44.694" lon="3.00302">
        <ele>1095.7</ele>
        <time>2022-08-07T07:49:09Z</time>
      </trkpt>
      <trkpt lat="44.69408" lon="3.0031">
        <ele>1094.6</ele>
        <time>2022-08-07T07:49:17Z</time>
      </trkpt>
      <trkpt lat="44.69413" lon="3.00314">
        <ele>1093.4</ele>
        <time>2022-08-07T07:49:21Z</time>
      </trkpt>
      <trkpt lat="44.69416" lon="3.00317">
        <ele>1092.6</ele>
        <time>2022-08-07T07:49:23Z</time>
      </trkpt>
      <trkpt lat="44.69418" lon="3.00319">
        <ele>1092.6</ele>
        <time>2022-08-07T07:49:25Z</time>
      </trkpt>
      <trkpt lat="44.69422" lon="3.00322">
        <ele>1092.5</ele>
        <time>2022-08-07T07:49:29Z</time>
      </trkpt>
      <trkpt lat="44.69429" lon="3.0033">
        <ele>1091.4</ele>
        <time>2022-08-07T07:49:36Z</time>
      </trkpt>
      <trkpt lat="44.6943" lon="3.00331">
        <ele>1091.3</ele>
        <time>2022-08-07T07:49:37Z</time>
      </trkpt>
      <trkpt lat="44.69435" lon="3.00335">
        <ele>1091.1</ele>
        <time>2022-08-07T07:49:42Z</time>
      </trkpt>
      <trkpt lat="44.69439" lon="3.00339">
        <ele>1090.9</ele>
        <time>2022-08-07T07:49:46Z</time>
      </trkpt>
      <trkpt lat="44.69443" lon="3.00343">
        <ele>1090.4</ele>
        <time>2022-08-07T07:49:50Z</time>
      </trkpt>
      <trkpt lat="44.69446" lon="3.00348">
        <ele>1089.6</ele>
        <time>2022-08-07T07:49:54Z</time>
      </trkpt>
      <trkpt lat="44.69453" lon="3.00355">
        <ele>1088.3</ele>
        <time>2022-08-07T07:50:01Z</time>
      </trkpt>
      <trkpt lat="44.69455" lon="3.00357">
        <ele>1088</ele>
        <time>2022-08-07T07:50:04Z</time>
      </trkpt>
      <trkpt lat="44.69461" lon="3.00362">
        <ele>1087.2</ele>
        <time>2022-08-07T07:50:08Z</time>
      </trkpt>
      <trkpt lat="44.69469" lon="3.00367">
        <ele>1086.8</ele>
        <time>2022-08-07T07:50:15Z</time>
      </trkpt>
      <trkpt lat="44.69473" lon="3.0037">
        <ele>1086.4</ele>
        <time>2022-08-07T07:50:18Z</time>
      </trkpt>
      <trkpt lat="44.69485" lon="3.00379">
        <ele>1085.6</ele>
        <time>2022-08-07T07:50:29Z</time>
      </trkpt>
      <trkpt lat="44.69487" lon="3.0038">
        <ele>1085.6</ele>
        <time>2022-08-07T07:50:30Z</time>
      </trkpt>
      <trkpt lat="44.69498" lon="3.00389">
        <ele>1084.8</ele>
        <time>2022-08-07T07:50:40Z</time>
      </trkpt>
      <trkpt lat="44.695" lon="3.00391">
        <ele>1084.8</ele>
        <time>2022-08-07T07:50:42Z</time>
      </trkpt>
      <trkpt lat="44.69507" lon="3.00398">
        <ele>1085.1</ele>
        <time>2022-08-07T07:50:49Z</time>
      </trkpt>
      <trkpt lat="44.69511" lon="3.00403">
        <ele>1085</ele>
        <time>2022-08-07T07:50:53Z</time>
      </trkpt>
      <trkpt lat="44.69519" lon="3.00409">
        <ele>1085.6</ele>
        <time>2022-08-07T07:51:01Z</time>
      </trkpt>
      <trkpt lat="44.6952" lon="3.00411">
        <ele>1085.3</ele>
        <time>2022-08-07T07:51:02Z</time>
      </trkpt>
      <trkpt lat="44.69523" lon="3.00417">
        <ele>1085</ele>
        <time>2022-08-07T07:51:06Z</time>
      </trkpt>
      <trkpt lat="44.69525" lon="3.00419">
        <ele>1084.9</ele>
        <time>2022-08-07T07:51:08Z</time>
      </trkpt>
      <trkpt lat="44.69531" lon="3.00429">
        <ele>1084</ele>
        <time>2022-08-07T07:51:16Z</time>
      </trkpt>
      <trkpt lat="44.69535" lon="3.00435">
        <ele>1083.6</ele>
        <time>2022-08-07T07:51:20Z</time>
      </trkpt>
      <trkpt lat="44.69541" lon="3.00444">
        <ele>1082.5</ele>
        <time>2022-08-07T07:51:27Z</time>
      </trkpt>
      <trkpt lat="44.69546" lon="3.00454">
        <ele>1081.5</ele>
        <time>2022-08-07T07:51:34Z</time>
      </trkpt>
      <trkpt lat="44.6955" lon="3.0046">
        <ele>1080.9</ele>
        <time>2022-08-07T07:51:38Z</time>
      </trkpt>
      <trkpt lat="44.69555" lon="3.00469">
        <ele>1079.7</ele>
        <time>2022-08-07T07:51:45Z</time>
      </trkpt>
      <trkpt lat="44.69557" lon="3.00473">
        <ele>1079.2</ele>
        <time>2022-08-07T07:51:48Z</time>
      </trkpt>
      <trkpt lat="44.69565" lon="3.00485">
        <ele>1079</ele>
        <time>2022-08-07T07:51:57Z</time>
      </trkpt>
      <trkpt lat="44.69571" lon="3.00493">
        <ele>1078.5</ele>
        <time>2022-08-07T07:52:04Z</time>
      </trkpt>
      <trkpt lat="44.69576" lon="3.00502">
        <ele>1077.7</ele>
        <time>2022-08-07T07:52:10Z</time>
      </trkpt>
      <trkpt lat="44.69578" lon="3.00504">
        <ele>1077.6</ele>
        <time>2022-08-07T07:52:12Z</time>
      </trkpt>
      <trkpt lat="44.69578" lon="3.00505">
        <ele>1077.6</ele>
        <time>2022-08-07T07:52:14Z</time>
      </trkpt>
      <trkpt lat="44.69578" lon="3.00506">
        <ele>1077.6</ele>
        <time>2022-08-07T07:52:15Z</time>
      </trkpt>
      <trkpt lat="44.69585" lon="3.00517">
        <ele>1077.4</ele>
        <time>2022-08-07T07:52:24Z</time>
      </trkpt>
      <trkpt lat="44.69589" lon="3.00524">
        <ele>1077.2</ele>
        <time>2022-08-07T07:52:29Z</time>
      </trkpt>
      <trkpt lat="44.69592" lon="3.00529">
        <ele>1076.9</ele>
        <time>2022-08-07T07:52:32Z</time>
      </trkpt>
      <trkpt lat="44.69604" lon="3.00549">
        <ele>1075.5</ele>
        <time>2022-08-07T07:52:46Z</time>
      </trkpt>
      <trkpt lat="44.69604" lon="3.0055">
        <ele>1075.4</ele>
        <time>2022-08-07T07:52:47Z</time>
      </trkpt>
      <trkpt lat="44.69606" lon="3.00554">
        <ele>1075.1</ele>
        <time>2022-08-07T07:52:50Z</time>
      </trkpt>
      <trkpt lat="44.69613" lon="3.00565">
        <ele>1075.1</ele>
        <time>2022-08-07T07:52:58Z</time>
      </trkpt>
      <trkpt lat="44.69624" lon="3.00583">
        <ele>1075</ele>
        <time>2022-08-07T07:53:12Z</time>
      </trkpt>
      <trkpt lat="44.69635" lon="3.006">
        <ele>1075.4</ele>
        <time>2022-08-07T07:53:24Z</time>
      </trkpt>
      <trkpt lat="44.69636" lon="3.00602">
        <ele>1075.5</ele>
        <time>2022-08-07T07:53:26Z</time>
      </trkpt>
      <trkpt lat="44.6964" lon="3.00609">
        <ele>1076</ele>
        <time>2022-08-07T07:53:31Z</time>
      </trkpt>
      <trkpt lat="44.69646" lon="3.00621">
        <ele>1076.2</ele>
        <time>2022-08-07T07:53:39Z</time>
      </trkpt>
      <trkpt lat="44.69651" lon="3.00638">
        <ele>1075.9</ele>
        <time>2022-08-07T07:53:50Z</time>
      </trkpt>
      <trkpt lat="44.69656" lon="3.00654">
        <ele>1075.7</ele>
        <time>2022-08-07T07:54:00Z</time>
      </trkpt>
      <trkpt lat="44.69656" lon="3.00655">
        <ele>1075.7</ele>
        <time>2022-08-07T07:54:01Z</time>
      </trkpt>
      <trkpt lat="44.69657" lon="3.00658">
        <ele>1075.6</ele>
        <time>2022-08-07T07:54:05Z</time>
      </trkpt>
      <trkpt lat="44.69657" lon="3.00657">
        <ele>1075.6</ele>
        <time>2022-08-07T07:54:07Z</time>
      </trkpt>
      <trkpt lat="44.69655" lon="3.00654">
        <ele>1075.6</ele>
        <time>2022-08-07T07:54:15Z</time>
      </trkpt>
      <trkpt lat="44.69655" lon="3.00654">
        <ele>1075.6</ele>
        <time>2022-08-07T07:54:29Z</time>
      </trkpt>
      <trkpt lat="44.69654" lon="3.00649">
        <ele>1075.8</ele>
        <time>2022-08-07T07:57:13Z</time>
      </trkpt>
      <trkpt lat="44.69656" lon="3.00656">
        <ele>1075.6</ele>
        <time>2022-08-07T07:57:23Z</time>
      </trkpt>
      <trkpt lat="44.69661" lon="3.00672">
        <ele>1075.3</ele>
        <time>2022-08-07T07:57:30Z</time>
      </trkpt>
      <trkpt lat="44.69662" lon="3.00686">
        <ele>1074.4</ele>
        <time>2022-08-07T07:57:39Z</time>
      </trkpt>
      <trkpt lat="44.69666" lon="3.00703">
        <ele>1073.7</ele>
        <time>2022-08-07T07:57:49Z</time>
      </trkpt>
      <trkpt lat="44.69673" lon="3.0072">
        <ele>1073.3</ele>
        <time>2022-08-07T07:58:01Z</time>
      </trkpt>
      <trkpt lat="44.69677" lon="3.00734">
        <ele>1072.6</ele>
        <time>2022-08-07T07:58:10Z</time>
      </trkpt>
      <trkpt lat="44.69681" lon="3.00749">
        <ele>1071.5</ele>
        <time>2022-08-07T07:58:21Z</time>
      </trkpt>
      <trkpt lat="44.69684" lon="3.00758">
        <ele>1071.4</ele>
        <time>2022-08-07T07:58:29Z</time>
      </trkpt>
      <trkpt lat="44.69688" lon="3.00766">
        <ele>1071.5</ele>
        <time>2022-08-07T07:58:37Z</time>
      </trkpt>
      <trkpt lat="44.69688" lon="3.00765">
        <ele>1071.5</ele>
        <time>2022-08-07T07:58:38Z</time>
      </trkpt>
      <trkpt lat="44.69688" lon="3.00765">
        <ele>1071.5</ele>
        <time>2022-08-07T07:58:39Z</time>
      </trkpt>
      <trkpt lat="44.69687" lon="3.00766">
        <ele>1071.5</ele>
        <time>2022-08-07T07:58:45Z</time>
      </trkpt>
      <trkpt lat="44.69691" lon="3.00774">
        <ele>1071.8</ele>
        <time>2022-08-07T07:59:05Z</time>
      </trkpt>
      <trkpt lat="44.69697" lon="3.00791">
        <ele>1072.8</ele>
        <time>2022-08-07T07:59:16Z</time>
      </trkpt>
      <trkpt lat="44.69703" lon="3.00809">
        <ele>1073.8</ele>
        <time>2022-08-07T07:59:27Z</time>
      </trkpt>
      <trkpt lat="44.69704" lon="3.00815">
        <ele>1074</ele>
        <time>2022-08-07T07:59:32Z</time>
      </trkpt>
      <trkpt lat="44.69704" lon="3.00815">
        <ele>1074</ele>
        <time>2022-08-07T07:59:33Z</time>
      </trkpt>
      <trkpt lat="44.69707" lon="3.00822">
        <ele>1074.2</ele>
        <time>2022-08-07T07:59:40Z</time>
      </trkpt>
      <trkpt lat="44.6971" lon="3.00835">
        <ele>1074.5</ele>
        <time>2022-08-07T07:59:48Z</time>
      </trkpt>
      <trkpt lat="44.69711" lon="3.00841">
        <ele>1074.7</ele>
        <time>2022-08-07T07:59:52Z</time>
      </trkpt>
      <trkpt lat="44.69713" lon="3.00847">
        <ele>1074.8</ele>
        <time>2022-08-07T07:59:56Z</time>
      </trkpt>
      <trkpt lat="44.69717" lon="3.00861">
        <ele>1075.2</ele>
        <time>2022-08-07T08:00:04Z</time>
      </trkpt>
      <trkpt lat="44.69717" lon="3.00863">
        <ele>1075.3</ele>
        <time>2022-08-07T08:00:05Z</time>
      </trkpt>
      <trkpt lat="44.69717" lon="3.00864">
        <ele>1075.3</ele>
        <time>2022-08-07T08:00:06Z</time>
      </trkpt>
      <trkpt lat="44.69721" lon="3.00883">
        <ele>1075.8</ele>
        <time>2022-08-07T08:00:17Z</time>
      </trkpt>
      <trkpt lat="44.69722" lon="3.00901">
        <ele>1076.9</ele>
        <time>2022-08-07T08:00:28Z</time>
      </trkpt>
      <trkpt lat="44.69724" lon="3.00916">
        <ele>1077.8</ele>
        <time>2022-08-07T08:00:37Z</time>
      </trkpt>
      <trkpt lat="44.69724" lon="3.00921">
        <ele>1078</ele>
        <time>2022-08-07T08:00:40Z</time>
      </trkpt>
      <trkpt lat="44.69725" lon="3.00933">
        <ele>1078.3</ele>
        <time>2022-08-07T08:00:47Z</time>
      </trkpt>
      <trkpt lat="44.69727" lon="3.00941">
        <ele>1078.5</ele>
        <time>2022-08-07T08:00:52Z</time>
      </trkpt>
      <trkpt lat="44.69727" lon="3.00944">
        <ele>1078.7</ele>
        <time>2022-08-07T08:00:54Z</time>
      </trkpt>
      <trkpt lat="44.69728" lon="3.00957">
        <ele>1079.5</ele>
        <time>2022-08-07T08:01:02Z</time>
      </trkpt>
      <trkpt lat="44.69728" lon="3.00961">
        <ele>1079.7</ele>
        <time>2022-08-07T08:01:04Z</time>
      </trkpt>
      <trkpt lat="44.69731" lon="3.00972">
        <ele>1080.4</ele>
        <time>2022-08-07T08:01:11Z</time>
      </trkpt>
      <trkpt lat="44.69731" lon="3.00983">
        <ele>1081</ele>
        <time>2022-08-07T08:01:19Z</time>
      </trkpt>
      <trkpt lat="44.69731" lon="3.0098">
        <ele>1080.8</ele>
        <time>2022-08-07T08:01:22Z</time>
      </trkpt>
      <trkpt lat="44.69731" lon="3.0098">
        <ele>1080.8</ele>
        <time>2022-08-07T08:01:23Z</time>
      </trkpt>
      <trkpt lat="44.69731" lon="3.00982">
        <ele>1080.9</ele>
        <time>2022-08-07T08:01:26Z</time>
      </trkpt>
      <trkpt lat="44.69731" lon="3.00984">
        <ele>1081</ele>
        <time>2022-08-07T08:01:27Z</time>
      </trkpt>
      <trkpt lat="44.69731" lon="3.00985">
        <ele>1081.1</ele>
        <time>2022-08-07T08:01:28Z</time>
      </trkpt>
      <trkpt lat="44.69732" lon="3.00993">
        <ele>1081.6</ele>
        <time>2022-08-07T08:01:33Z</time>
      </trkpt>
      <trkpt lat="44.69732" lon="3.00996">
        <ele>1081.7</ele>
        <time>2022-08-07T08:01:34Z</time>
      </trkpt>
      <trkpt lat="44.69735" lon="3.01013">
        <ele>1082.5</ele>
        <time>2022-08-07T08:01:45Z</time>
      </trkpt>
      <trkpt lat="44.69735" lon="3.01017">
        <ele>1082.6</ele>
        <time>2022-08-07T08:01:47Z</time>
      </trkpt>
      <trkpt lat="44.69737" lon="3.01033">
        <ele>1083.4</ele>
        <time>2022-08-07T08:01:57Z</time>
      </trkpt>
      <trkpt lat="44.69738" lon="3.01038">
        <ele>1083.7</ele>
        <time>2022-08-07T08:02:00Z</time>
      </trkpt>
      <trkpt lat="44.69739" lon="3.01049">
        <ele>1084.5</ele>
        <time>2022-08-07T08:02:07Z</time>
      </trkpt>
      <trkpt lat="44.6974" lon="3.01054">
        <ele>1084.9</ele>
        <time>2022-08-07T08:02:10Z</time>
      </trkpt>
      <trkpt lat="44.6974" lon="3.01056">
        <ele>1085</ele>
        <time>2022-08-07T08:02:11Z</time>
      </trkpt>
      <trkpt lat="44.69741" lon="3.01066">
        <ele>1085.4</ele>
        <time>2022-08-07T08:02:17Z</time>
      </trkpt>
      <trkpt lat="44.69742" lon="3.01074">
        <ele>1085.6</ele>
        <time>2022-08-07T08:02:22Z</time>
      </trkpt>
      <trkpt lat="44.69743" lon="3.0108">
        <ele>1085.9</ele>
        <time>2022-08-07T08:02:26Z</time>
      </trkpt>
      <trkpt lat="44.69746" lon="3.01099">
        <ele>1087.1</ele>
        <time>2022-08-07T08:02:37Z</time>
      </trkpt>
      <trkpt lat="44.69746" lon="3.01107">
        <ele>1087.7</ele>
        <time>2022-08-07T08:02:42Z</time>
      </trkpt>
      <trkpt lat="44.69745" lon="3.0111">
        <ele>1087.9</ele>
        <time>2022-08-07T08:02:44Z</time>
      </trkpt>
      <trkpt lat="44.69744" lon="3.01119">
        <ele>1088.3</ele>
        <time>2022-08-07T08:02:50Z</time>
      </trkpt>
      <trkpt lat="44.69745" lon="3.01121">
        <ele>1088.3</ele>
        <time>2022-08-07T08:02:51Z</time>
      </trkpt>
      <trkpt lat="44.69747" lon="3.01137">
        <ele>1088.9</ele>
        <time>2022-08-07T08:03:01Z</time>
      </trkpt>
      <trkpt lat="44.69747" lon="3.01144">
        <ele>1089.3</ele>
        <time>2022-08-07T08:03:05Z</time>
      </trkpt>
      <trkpt lat="44.69746" lon="3.0115">
        <ele>1089.7</ele>
        <time>2022-08-07T08:03:09Z</time>
      </trkpt>
      <trkpt lat="44.69746" lon="3.01151">
        <ele>1089.8</ele>
        <time>2022-08-07T08:03:10Z</time>
      </trkpt>
      <trkpt lat="44.69746" lon="3.01154">
        <ele>1090</ele>
        <time>2022-08-07T08:03:12Z</time>
      </trkpt>
      <trkpt lat="44.69746" lon="3.01157">
        <ele>1090.1</ele>
        <time>2022-08-07T08:03:14Z</time>
      </trkpt>
      <trkpt lat="44.69746" lon="3.01162">
        <ele>1090.4</ele>
        <time>2022-08-07T08:03:17Z</time>
      </trkpt>
      <trkpt lat="44.69747" lon="3.01174">
        <ele>1090.8</ele>
        <time>2022-08-07T08:03:26Z</time>
      </trkpt>
      <trkpt lat="44.69749" lon="3.01192">
        <ele>1090.9</ele>
        <time>2022-08-07T08:03:37Z</time>
      </trkpt>
      <trkpt lat="44.6975" lon="3.01197">
        <ele>1091</ele>
        <time>2022-08-07T08:03:41Z</time>
      </trkpt>
      <trkpt lat="44.6975" lon="3.01198">
        <ele>1091</ele>
        <time>2022-08-07T08:03:43Z</time>
      </trkpt>
      <trkpt lat="44.69749" lon="3.01195">
        <ele>1090.9</ele>
        <time>2022-08-07T08:03:46Z</time>
      </trkpt>
      <trkpt lat="44.69749" lon="3.0119">
        <ele>1090.9</ele>
        <time>2022-08-07T08:03:49Z</time>
      </trkpt>
      <trkpt lat="44.69746" lon="3.01171">
        <ele>1090.7</ele>
        <time>2022-08-07T08:04:00Z</time>
      </trkpt>
      <trkpt lat="44.69746" lon="3.01157">
        <ele>1090.1</ele>
        <time>2022-08-07T08:04:09Z</time>
      </trkpt>
      <trkpt lat="44.69746" lon="3.01157">
        <ele>1090.1</ele>
        <time>2022-08-07T08:04:10Z</time>
      </trkpt>
      <trkpt lat="44.69745" lon="3.01157">
        <ele>1090.1</ele>
        <time>2022-08-07T08:04:12Z</time>
      </trkpt>
      <trkpt lat="44.69745" lon="3.01157">
        <ele>1090.1</ele>
        <time>2022-08-07T08:04:13Z</time>
      </trkpt>
      <trkpt lat="44.69747" lon="3.01154">
        <ele>1089.9</ele>
        <time>2022-08-07T08:04:16Z</time>
      </trkpt>
      <trkpt lat="44.69747" lon="3.01153">
        <ele>1089.9</ele>
        <time>2022-08-07T08:04:17Z</time>
      </trkpt>
      <trkpt lat="44.6975" lon="3.01154">
        <ele>1090.1</ele>
        <time>2022-08-07T08:04:22Z</time>
      </trkpt>
      <trkpt lat="44.6975" lon="3.01155">
        <ele>1090.1</ele>
        <time>2022-08-07T08:04:24Z</time>
      </trkpt>
      <trkpt lat="44.6975" lon="3.01155">
        <ele>1090.2</ele>
        <time>2022-08-07T08:04:25Z</time>
      </trkpt>
      <trkpt lat="44.6975" lon="3.01155">
        <ele>1090.1</ele>
        <time>2022-08-07T08:04:32Z</time>
      </trkpt>
      <trkpt lat="44.6975" lon="3.01155">
        <ele>1090.1</ele>
        <time>2022-08-07T08:04:40Z</time>
      </trkpt>
      <trkpt lat="44.69748" lon="3.01165">
        <ele>1090.7</ele>
        <time>2022-08-07T08:04:55Z</time>
      </trkpt>
      <trkpt lat="44.69748" lon="3.0119">
        <ele>1090.8</ele>
        <time>2022-08-07T08:05:08Z</time>
      </trkpt>
      <trkpt lat="44.69748" lon="3.01192">
        <ele>1090.8</ele>
        <time>2022-08-07T08:05:09Z</time>
      </trkpt>
      <trkpt lat="44.69749" lon="3.01213">
        <ele>1090.9</ele>
        <time>2022-08-07T08:05:21Z</time>
      </trkpt>
      <trkpt lat="44.6975" lon="3.01234">
        <ele>1091</ele>
        <time>2022-08-07T08:05:33Z</time>
      </trkpt>
      <trkpt lat="44.69752" lon="3.01247">
        <ele>1091.1</ele>
        <time>2022-08-07T08:05:40Z</time>
      </trkpt>
      <trkpt lat="44.69753" lon="3.01261">
        <ele>1091.1</ele>
        <time>2022-08-07T08:05:48Z</time>
      </trkpt>
      <trkpt lat="44.69753" lon="3.01265">
        <ele>1091.1</ele>
        <time>2022-08-07T08:05:50Z</time>
      </trkpt>
      <trkpt lat="44.69753" lon="3.01272">
        <ele>1091.1</ele>
        <time>2022-08-07T08:05:55Z</time>
      </trkpt>
      <trkpt lat="44.69754" lon="3.01276">
        <ele>1091.1</ele>
        <time>2022-08-07T08:05:57Z</time>
      </trkpt>
      <trkpt lat="44.69755" lon="3.01286">
        <ele>1091.2</ele>
        <time>2022-08-07T08:06:03Z</time>
      </trkpt>
      <trkpt lat="44.69756" lon="3.01298">
        <ele>1091.4</ele>
        <time>2022-08-07T08:06:11Z</time>
      </trkpt>
      <trkpt lat="44.69756" lon="3.013">
        <ele>1091.4</ele>
        <time>2022-08-07T08:06:12Z</time>
      </trkpt>
      <trkpt lat="44.69756" lon="3.01307">
        <ele>1091.5</ele>
        <time>2022-08-07T08:06:17Z</time>
      </trkpt>
      <trkpt lat="44.69756" lon="3.01307">
        <ele>1091.5</ele>
        <time>2022-08-07T08:06:18Z</time>
      </trkpt>
      <trkpt lat="44.69755" lon="3.01311">
        <ele>1091.6</ele>
        <time>2022-08-07T08:06:22Z</time>
      </trkpt>
      <trkpt lat="44.69757" lon="3.01316">
        <ele>1091.8</ele>
        <time>2022-08-07T08:06:25Z</time>
      </trkpt>
      <trkpt lat="44.69758" lon="3.01335">
        <ele>1092.5</ele>
        <time>2022-08-07T08:06:36Z</time>
      </trkpt>
      <trkpt lat="44.69757" lon="3.01347">
        <ele>1092.5</ele>
        <time>2022-08-07T08:06:43Z</time>
      </trkpt>
      <trkpt lat="44.69757" lon="3.01354">
        <ele>1092.5</ele>
        <time>2022-08-07T08:06:47Z</time>
      </trkpt>
      <trkpt lat="44.69755" lon="3.0136">
        <ele>1092.4</ele>
        <time>2022-08-07T08:06:51Z</time>
      </trkpt>
      <trkpt lat="44.69753" lon="3.01372">
        <ele>1092.6</ele>
        <time>2022-08-07T08:06:58Z</time>
      </trkpt>
      <trkpt lat="44.69749" lon="3.01386">
        <ele>1092.9</ele>
        <time>2022-08-07T08:07:07Z</time>
      </trkpt>
      <trkpt lat="44.69744" lon="3.01401">
        <ele>1093.1</ele>
        <time>2022-08-07T08:07:16Z</time>
      </trkpt>
      <trkpt lat="44.69738" lon="3.01418">
        <ele>1093.5</ele>
        <time>2022-08-07T08:07:27Z</time>
      </trkpt>
      <trkpt lat="44.69736" lon="3.01426">
        <ele>1093.7</ele>
        <time>2022-08-07T08:07:32Z</time>
      </trkpt>
      <trkpt lat="44.69734" lon="3.01433">
        <ele>1093.8</ele>
        <time>2022-08-07T08:07:37Z</time>
      </trkpt>
      <trkpt lat="44.6973" lon="3.01448">
        <ele>1094.2</ele>
        <time>2022-08-07T08:07:47Z</time>
      </trkpt>
      <trkpt lat="44.6973" lon="3.01452">
        <ele>1094.4</ele>
        <time>2022-08-07T08:07:49Z</time>
      </trkpt>
      <trkpt lat="44.69726" lon="3.01468">
        <ele>1095.5</ele>
        <time>2022-08-07T08:08:00Z</time>
      </trkpt>
      <trkpt lat="44.69722" lon="3.01481">
        <ele>1096</ele>
        <time>2022-08-07T08:08:08Z</time>
      </trkpt>
      <trkpt lat="44.69722" lon="3.01483">
        <ele>1096</ele>
        <time>2022-08-07T08:08:09Z</time>
      </trkpt>
      <trkpt lat="44.69721" lon="3.01485">
        <ele>1096.1</ele>
        <time>2022-08-07T08:08:10Z</time>
      </trkpt>
      <trkpt lat="44.69719" lon="3.01494">
        <ele>1096.2</ele>
        <time>2022-08-07T08:08:16Z</time>
      </trkpt>
      <trkpt lat="44.69717" lon="3.01502">
        <ele>1096.5</ele>
        <time>2022-08-07T08:08:22Z</time>
      </trkpt>
      <trkpt lat="44.69713" lon="3.01518">
        <ele>1097.8</ele>
        <time>2022-08-07T08:08:32Z</time>
      </trkpt>
      <trkpt lat="44.69712" lon="3.0152">
        <ele>1097.9</ele>
        <time>2022-08-07T08:08:33Z</time>
      </trkpt>
      <trkpt lat="44.69712" lon="3.01524">
        <ele>1098.2</ele>
        <time>2022-08-07T08:08:36Z</time>
      </trkpt>
      <trkpt lat="44.69711" lon="3.01529">
        <ele>1098.5</ele>
        <time>2022-08-07T08:08:39Z</time>
      </trkpt>
      <trkpt lat="44.69707" lon="3.01538">
        <ele>1099.1</ele>
        <time>2022-08-07T08:08:45Z</time>
      </trkpt>
      <trkpt lat="44.69706" lon="3.01543">
        <ele>1099.5</ele>
        <time>2022-08-07T08:08:49Z</time>
      </trkpt>
      <trkpt lat="44.69703" lon="3.01556">
        <ele>1100.4</ele>
        <time>2022-08-07T08:08:58Z</time>
      </trkpt>
      <trkpt lat="44.69703" lon="3.01557">
        <ele>1100.5</ele>
        <time>2022-08-07T08:08:59Z</time>
      </trkpt>
      <trkpt lat="44.69703" lon="3.01557">
        <ele>1100.5</ele>
        <time>2022-08-07T08:09:00Z</time>
      </trkpt>
      <trkpt lat="44.69703" lon="3.01557">
        <ele>1100.5</ele>
        <time>2022-08-07T08:09:04Z</time>
      </trkpt>
      <trkpt lat="44.69702" lon="3.01563">
        <ele>1100.8</ele>
        <time>2022-08-07T08:09:12Z</time>
      </trkpt>
      <trkpt lat="44.69699" lon="3.01572">
        <ele>1101.3</ele>
        <time>2022-08-07T08:09:19Z</time>
      </trkpt>
      <trkpt lat="44.69697" lon="3.01579">
        <ele>1101.7</ele>
        <time>2022-08-07T08:09:25Z</time>
      </trkpt>
      <trkpt lat="44.69695" lon="3.01592">
        <ele>1102.9</ele>
        <time>2022-08-07T08:09:33Z</time>
      </trkpt>
      <trkpt lat="44.69694" lon="3.01595">
        <ele>1103.3</ele>
        <time>2022-08-07T08:09:35Z</time>
      </trkpt>
      <trkpt lat="44.69693" lon="3.01604">
        <ele>1104.3</ele>
        <time>2022-08-07T08:09:42Z</time>
      </trkpt>
      <trkpt lat="44.69693" lon="3.01605">
        <ele>1104.5</ele>
        <time>2022-08-07T08:09:43Z</time>
      </trkpt>
      <trkpt lat="44.69692" lon="3.01616">
        <ele>1105.6</ele>
        <time>2022-08-07T08:09:51Z</time>
      </trkpt>
      <trkpt lat="44.69691" lon="3.01618">
        <ele>1105.8</ele>
        <time>2022-08-07T08:09:53Z</time>
      </trkpt>
      <trkpt lat="44.6969" lon="3.01622">
        <ele>1106.2</ele>
        <time>2022-08-07T08:09:56Z</time>
      </trkpt>
      <trkpt lat="44.69688" lon="3.01629">
        <ele>1107.1</ele>
        <time>2022-08-07T08:10:02Z</time>
      </trkpt>
      <trkpt lat="44.69688" lon="3.0163">
        <ele>1107.2</ele>
        <time>2022-08-07T08:10:03Z</time>
      </trkpt>
      <trkpt lat="44.69686" lon="3.01637">
        <ele>1108.1</ele>
        <time>2022-08-07T08:10:09Z</time>
      </trkpt>
      <trkpt lat="44.69685" lon="3.01642">
        <ele>1108.9</ele>
        <time>2022-08-07T08:10:16Z</time>
      </trkpt>
      <trkpt lat="44.69686" lon="3.01643">
        <ele>1108.9</ele>
        <time>2022-08-07T08:10:34Z</time>
      </trkpt>
      <trkpt lat="44.69685" lon="3.01652">
        <ele>1110.4</ele>
        <time>2022-08-07T08:10:39Z</time>
      </trkpt>
      <trkpt lat="44.69684" lon="3.01654">
        <ele>1110.8</ele>
        <time>2022-08-07T08:10:40Z</time>
      </trkpt>
      <trkpt lat="44.69684" lon="3.01656">
        <ele>1111.2</ele>
        <time>2022-08-07T08:10:41Z</time>
      </trkpt>
      <trkpt lat="44.69682" lon="3.01668">
        <ele>1113.4</ele>
        <time>2022-08-07T08:10:49Z</time>
      </trkpt>
      <trkpt lat="44.69678" lon="3.0168">
        <ele>1115.1</ele>
        <time>2022-08-07T08:10:57Z</time>
      </trkpt>
      <trkpt lat="44.69678" lon="3.01682">
        <ele>1115.3</ele>
        <time>2022-08-07T08:10:58Z</time>
      </trkpt>
      <trkpt lat="44.69678" lon="3.01682">
        <ele>1115.4</ele>
        <time>2022-08-07T08:11:00Z</time>
      </trkpt>
      <trkpt lat="44.69677" lon="3.01682">
        <ele>1115.6</ele>
        <time>2022-08-07T08:11:06Z</time>
      </trkpt>
      <trkpt lat="44.69676" lon="3.01691">
        <ele>1116.7</ele>
        <time>2022-08-07T08:11:13Z</time>
      </trkpt>
      <trkpt lat="44.69675" lon="3.01693">
        <ele>1117</ele>
        <time>2022-08-07T08:11:14Z</time>
      </trkpt>
      <trkpt lat="44.6967" lon="3.01708">
        <ele>1118.3</ele>
        <time>2022-08-07T08:11:25Z</time>
      </trkpt>
      <trkpt lat="44.6967" lon="3.01709">
        <ele>1118.4</ele>
        <time>2022-08-07T08:11:26Z</time>
      </trkpt>
      <trkpt lat="44.69667" lon="3.0172">
        <ele>1119</ele>
        <time>2022-08-07T08:11:34Z</time>
      </trkpt>
      <trkpt lat="44.69666" lon="3.01721">
        <ele>1119.1</ele>
        <time>2022-08-07T08:11:35Z</time>
      </trkpt>
      <trkpt lat="44.69666" lon="3.01722">
        <ele>1119.2</ele>
        <time>2022-08-07T08:11:36Z</time>
      </trkpt>
      <trkpt lat="44.69662" lon="3.01731">
        <ele>1119.9</ele>
        <time>2022-08-07T08:11:43Z</time>
      </trkpt>
      <trkpt lat="44.69661" lon="3.01733">
        <ele>1120.1</ele>
        <time>2022-08-07T08:11:46Z</time>
      </trkpt>
      <trkpt lat="44.69655" lon="3.01741">
        <ele>1121</ele>
        <time>2022-08-07T08:11:54Z</time>
      </trkpt>
      <trkpt lat="44.69652" lon="3.01745">
        <ele>1121.7</ele>
        <time>2022-08-07T08:11:58Z</time>
      </trkpt>
      <trkpt lat="44.69645" lon="3.01753">
        <ele>1122.7</ele>
        <time>2022-08-07T08:12:06Z</time>
      </trkpt>
      <trkpt lat="44.69644" lon="3.01754">
        <ele>1122.8</ele>
        <time>2022-08-07T08:12:07Z</time>
      </trkpt>
      <trkpt lat="44.69639" lon="3.0176">
        <ele>1123</ele>
        <time>2022-08-07T08:12:13Z</time>
      </trkpt>
      <trkpt lat="44.6963" lon="3.0177">
        <ele>1123</ele>
        <time>2022-08-07T08:12:23Z</time>
      </trkpt>
      <trkpt lat="44.69629" lon="3.01771">
        <ele>1123</ele>
        <time>2022-08-07T08:12:26Z</time>
      </trkpt>
      <trkpt lat="44.69629" lon="3.01771">
        <ele>1123.1</ele>
        <time>2022-08-07T08:12:27Z</time>
      </trkpt>
      <trkpt lat="44.69629" lon="3.01771">
        <ele>1123.1</ele>
        <time>2022-08-07T08:12:28Z</time>
      </trkpt>
      <trkpt lat="44.69629" lon="3.0177">
        <ele>1123.1</ele>
        <time>2022-08-07T08:12:30Z</time>
      </trkpt>
      <trkpt lat="44.6963" lon="3.0177">
        <ele>1123.1</ele>
        <time>2022-08-07T08:12:31Z</time>
      </trkpt>
      <trkpt lat="44.6963" lon="3.01769">
        <ele>1123.1</ele>
        <time>2022-08-07T08:12:36Z</time>
      </trkpt>
      <trkpt lat="44.69628" lon="3.01773">
        <ele>1123.1</ele>
        <time>2022-08-07T08:12:46Z</time>
      </trkpt>
      <trkpt lat="44.69622" lon="3.0178">
        <ele>1123.5</ele>
        <time>2022-08-07T08:12:53Z</time>
      </trkpt>
      <trkpt lat="44.69615" lon="3.01793">
        <ele>1124.5</ele>
        <time>2022-08-07T08:13:03Z</time>
      </trkpt>
      <trkpt lat="44.69608" lon="3.01807">
        <ele>1125.3</ele>
        <time>2022-08-07T08:13:13Z</time>
      </trkpt>
      <trkpt lat="44.69602" lon="3.01817">
        <ele>1125.9</ele>
        <time>2022-08-07T08:13:20Z</time>
      </trkpt>
      <trkpt lat="44.69599" lon="3.01826">
        <ele>1126.5</ele>
        <time>2022-08-07T08:13:26Z</time>
      </trkpt>
      <trkpt lat="44.69598" lon="3.01828">
        <ele>1126.7</ele>
        <time>2022-08-07T08:13:28Z</time>
      </trkpt>
      <trkpt lat="44.69594" lon="3.01839">
        <ele>1127.8</ele>
        <time>2022-08-07T08:13:36Z</time>
      </trkpt>
      <trkpt lat="44.69591" lon="3.01845">
        <ele>1128.4</ele>
        <time>2022-08-07T08:13:40Z</time>
      </trkpt>
      <trkpt lat="44.69591" lon="3.01846">
        <ele>1128.5</ele>
        <time>2022-08-07T08:13:41Z</time>
      </trkpt>
      <trkpt lat="44.69587" lon="3.01856">
        <ele>1129.4</ele>
        <time>2022-08-07T08:13:49Z</time>
      </trkpt>
      <trkpt lat="44.69585" lon="3.01859">
        <ele>1129.7</ele>
        <time>2022-08-07T08:13:51Z</time>
      </trkpt>
      <trkpt lat="44.69584" lon="3.01861">
        <ele>1129.9</ele>
        <time>2022-08-07T08:13:53Z</time>
      </trkpt>
      <trkpt lat="44.69581" lon="3.01868">
        <ele>1130.5</ele>
        <time>2022-08-07T08:13:59Z</time>
      </trkpt>
      <trkpt lat="44.69578" lon="3.01874">
        <ele>1130.9</ele>
        <time>2022-08-07T08:14:05Z</time>
      </trkpt>
      <trkpt lat="44.69578" lon="3.01873">
        <ele>1130.9</ele>
        <time>2022-08-07T08:14:07Z</time>
      </trkpt>
      <trkpt lat="44.69577" lon="3.01876">
        <ele>1131.1</ele>
        <time>2022-08-07T08:14:16Z</time>
      </trkpt>
      <trkpt lat="44.69574" lon="3.01885">
        <ele>1131.6</ele>
        <time>2022-08-07T08:14:23Z</time>
      </trkpt>
      <trkpt lat="44.69574" lon="3.01885">
        <ele>1131.6</ele>
        <time>2022-08-07T08:14:24Z</time>
      </trkpt>
      <trkpt lat="44.69574" lon="3.01885">
        <ele>1131.6</ele>
        <time>2022-08-07T08:14:25Z</time>
      </trkpt>
      <trkpt lat="44.69571" lon="3.01893">
        <ele>1131.9</ele>
        <time>2022-08-07T08:14:33Z</time>
      </trkpt>
      <trkpt lat="44.69567" lon="3.01898">
        <ele>1132</ele>
        <time>2022-08-07T08:14:40Z</time>
      </trkpt>
      <trkpt lat="44.69564" lon="3.01904">
        <ele>1132</ele>
        <time>2022-08-07T08:14:46Z</time>
      </trkpt>
      <trkpt lat="44.69558" lon="3.01916">
        <ele>1132</ele>
        <time>2022-08-07T08:14:54Z</time>
      </trkpt>
      <trkpt lat="44.69551" lon="3.01929">
        <ele>1131.6</ele>
        <time>2022-08-07T08:15:04Z</time>
      </trkpt>
      <trkpt lat="44.69545" lon="3.01937">
        <ele>1131.1</ele>
        <time>2022-08-07T08:15:11Z</time>
      </trkpt>
      <trkpt lat="44.69542" lon="3.01941">
        <ele>1130.8</ele>
        <time>2022-08-07T08:15:15Z</time>
      </trkpt>
      <trkpt lat="44.69538" lon="3.01944">
        <ele>1130.4</ele>
        <time>2022-08-07T08:15:19Z</time>
      </trkpt>
      <trkpt lat="44.69532" lon="3.01949">
        <ele>1129.5</ele>
        <time>2022-08-07T08:15:26Z</time>
      </trkpt>
      <trkpt lat="44.69532" lon="3.0195">
        <ele>1129.3</ele>
        <time>2022-08-07T08:15:27Z</time>
      </trkpt>
      <trkpt lat="44.69531" lon="3.01951">
        <ele>1129.2</ele>
        <time>2022-08-07T08:15:28Z</time>
      </trkpt>
      <trkpt lat="44.6953" lon="3.01951">
        <ele>1129.2</ele>
        <time>2022-08-07T08:15:30Z</time>
      </trkpt>
      <trkpt lat="44.69529" lon="3.01951">
        <ele>1129.1</ele>
        <time>2022-08-07T08:15:32Z</time>
      </trkpt>
      <trkpt lat="44.69526" lon="3.01953">
        <ele>1128.8</ele>
        <time>2022-08-07T08:15:35Z</time>
      </trkpt>
      <trkpt lat="44.69523" lon="3.01954">
        <ele>1128.6</ele>
        <time>2022-08-07T08:15:39Z</time>
      </trkpt>
      <trkpt lat="44.69521" lon="3.01955">
        <ele>1128.6</ele>
        <time>2022-08-07T08:15:42Z</time>
      </trkpt>
      <trkpt lat="44.69514" lon="3.01958">
        <ele>1128.3</ele>
        <time>2022-08-07T08:15:47Z</time>
      </trkpt>
      <trkpt lat="44.69508" lon="3.01963">
        <ele>1127.8</ele>
        <time>2022-08-07T08:15:53Z</time>
      </trkpt>
      <trkpt lat="44.69506" lon="3.01967">
        <ele>1127.4</ele>
        <time>2022-08-07T08:15:56Z</time>
      </trkpt>
      <trkpt lat="44.69498" lon="3.01982">
        <ele>1126.6</ele>
        <time>2022-08-07T08:16:06Z</time>
      </trkpt>
      <trkpt lat="44.69497" lon="3.01983">
        <ele>1126.6</ele>
        <time>2022-08-07T08:16:08Z</time>
      </trkpt>
      <trkpt lat="44.69496" lon="3.01986">
        <ele>1126.7</ele>
        <time>2022-08-07T08:16:12Z</time>
      </trkpt>
      <trkpt lat="44.69494" lon="3.01998">
        <ele>1126.5</ele>
        <time>2022-08-07T08:16:19Z</time>
      </trkpt>
      <trkpt lat="44.69491" lon="3.02008">
        <ele>1126.8</ele>
        <time>2022-08-07T08:16:25Z</time>
      </trkpt>
      <trkpt lat="44.69489" lon="3.02012">
        <ele>1127.1</ele>
        <time>2022-08-07T08:16:28Z</time>
      </trkpt>
      <trkpt lat="44.69487" lon="3.02026">
        <ele>1127.4</ele>
        <time>2022-08-07T08:16:36Z</time>
      </trkpt>
      <trkpt lat="44.69486" lon="3.02028">
        <ele>1127.5</ele>
        <time>2022-08-07T08:16:37Z</time>
      </trkpt>
      <trkpt lat="44.69481" lon="3.02044">
        <ele>1128.2</ele>
        <time>2022-08-07T08:16:47Z</time>
      </trkpt>
      <trkpt lat="44.69478" lon="3.02057">
        <ele>1128.4</ele>
        <time>2022-08-07T08:16:55Z</time>
      </trkpt>
      <trkpt lat="44.69475" lon="3.02074">
        <ele>1127.5</ele>
        <time>2022-08-07T08:17:05Z</time>
      </trkpt>
      <trkpt lat="44.69471" lon="3.02089">
        <ele>1127</ele>
        <time>2022-08-07T08:17:14Z</time>
      </trkpt>
      <trkpt lat="44.6947" lon="3.02091">
        <ele>1127</ele>
        <time>2022-08-07T08:17:15Z</time>
      </trkpt>
      <trkpt lat="44.69466" lon="3.02111">
        <ele>1126.9</ele>
        <time>2022-08-07T08:17:28Z</time>
      </trkpt>
      <trkpt lat="44.69458" lon="3.02124">
        <ele>1127.2</ele>
        <time>2022-08-07T08:17:37Z</time>
      </trkpt>
      <trkpt lat="44.69449" lon="3.02133">
        <ele>1128.1</ele>
        <time>2022-08-07T08:17:46Z</time>
      </trkpt>
      <trkpt lat="44.69442" lon="3.02141">
        <ele>1128.3</ele>
        <time>2022-08-07T08:17:54Z</time>
      </trkpt>
      <trkpt lat="44.69441" lon="3.02142">
        <ele>1128.6</ele>
        <time>2022-08-07T08:17:55Z</time>
      </trkpt>
      <trkpt lat="44.69436" lon="3.02146">
        <ele>1129.2</ele>
        <time>2022-08-07T08:18:00Z</time>
      </trkpt>
      <trkpt lat="44.69425" lon="3.02158">
        <ele>1129.9</ele>
        <time>2022-08-07T08:18:12Z</time>
      </trkpt>
      <trkpt lat="44.69415" lon="3.02169">
        <ele>1129.8</ele>
        <time>2022-08-07T08:18:23Z</time>
      </trkpt>
      <trkpt lat="44.69414" lon="3.0217">
        <ele>1129.8</ele>
        <time>2022-08-07T08:18:26Z</time>
      </trkpt>
      <trkpt lat="44.69414" lon="3.0217">
        <ele>1129.8</ele>
        <time>2022-08-07T08:18:29Z</time>
      </trkpt>
      <trkpt lat="44.69409" lon="3.02174">
        <ele>1129.7</ele>
        <time>2022-08-07T08:18:36Z</time>
      </trkpt>
      <trkpt lat="44.69408" lon="3.02175">
        <ele>1129.7</ele>
        <time>2022-08-07T08:18:37Z</time>
      </trkpt>
      <trkpt lat="44.694" lon="3.02179">
        <ele>1129.6</ele>
        <time>2022-08-07T08:18:44Z</time>
      </trkpt>
      <trkpt lat="44.69398" lon="3.02181">
        <ele>1129.4</ele>
        <time>2022-08-07T08:18:46Z</time>
      </trkpt>
      <trkpt lat="44.69397" lon="3.02183">
        <ele>1129.2</ele>
        <time>2022-08-07T08:18:48Z</time>
      </trkpt>
      <trkpt lat="44.69388" lon="3.02189">
        <ele>1128.7</ele>
        <time>2022-08-07T08:18:56Z</time>
      </trkpt>
      <trkpt lat="44.69385" lon="3.02191">
        <ele>1128.3</ele>
        <time>2022-08-07T08:18:58Z</time>
      </trkpt>
      <trkpt lat="44.69378" lon="3.02196">
        <ele>1126.9</ele>
        <time>2022-08-07T08:19:05Z</time>
      </trkpt>
      <trkpt lat="44.69377" lon="3.02197">
        <ele>1126.4</ele>
        <time>2022-08-07T08:19:07Z</time>
      </trkpt>
      <trkpt lat="44.69372" lon="3.022">
        <ele>1125.5</ele>
        <time>2022-08-07T08:19:11Z</time>
      </trkpt>
      <trkpt lat="44.6937" lon="3.022">
        <ele>1125.2</ele>
        <time>2022-08-07T08:19:13Z</time>
      </trkpt>
      <trkpt lat="44.69365" lon="3.02204">
        <ele>1124</ele>
        <time>2022-08-07T08:19:18Z</time>
      </trkpt>
      <trkpt lat="44.69364" lon="3.02205">
        <ele>1123.9</ele>
        <time>2022-08-07T08:19:19Z</time>
      </trkpt>
      <trkpt lat="44.69358" lon="3.02208">
        <ele>1123.1</ele>
        <time>2022-08-07T08:19:25Z</time>
      </trkpt>
      <trkpt lat="44.69357" lon="3.02209">
        <ele>1122.9</ele>
        <time>2022-08-07T08:19:26Z</time>
      </trkpt>
      <trkpt lat="44.69351" lon="3.02213">
        <ele>1121.9</ele>
        <time>2022-08-07T08:19:33Z</time>
      </trkpt>
      <trkpt lat="44.6935" lon="3.02213">
        <ele>1121.7</ele>
        <time>2022-08-07T08:19:34Z</time>
      </trkpt>
      <trkpt lat="44.69342" lon="3.02216">
        <ele>1120.7</ele>
        <time>2022-08-07T08:19:40Z</time>
      </trkpt>
      <trkpt lat="44.69338" lon="3.02219">
        <ele>1119.9</ele>
        <time>2022-08-07T08:19:44Z</time>
      </trkpt>
      <trkpt lat="44.69331" lon="3.02225">
        <ele>1118.7</ele>
        <time>2022-08-07T08:19:50Z</time>
      </trkpt>
      <trkpt lat="44.69328" lon="3.02225">
        <ele>1118.6</ele>
        <time>2022-08-07T08:19:52Z</time>
      </trkpt>
      <trkpt lat="44.6932" lon="3.02229">
        <ele>1118.1</ele>
        <time>2022-08-07T08:19:59Z</time>
      </trkpt>
      <trkpt lat="44.69319" lon="3.0223">
        <ele>1118.1</ele>
        <time>2022-08-07T08:20:00Z</time>
      </trkpt>
      <trkpt lat="44.6931" lon="3.02239">
        <ele>1117.1</ele>
        <time>2022-08-07T08:20:09Z</time>
      </trkpt>
      <trkpt lat="44.69308" lon="3.02242">
        <ele>1116.9</ele>
        <time>2022-08-07T08:20:11Z</time>
      </trkpt>
      <trkpt lat="44.69306" lon="3.02244">
        <ele>1116.7</ele>
        <time>2022-08-07T08:20:13Z</time>
      </trkpt>
      <trkpt lat="44.693" lon="3.02248">
        <ele>1116.2</ele>
        <time>2022-08-07T08:20:18Z</time>
      </trkpt>
      <trkpt lat="44.69293" lon="3.02261">
        <ele>1115.6</ele>
        <time>2022-08-07T08:20:27Z</time>
      </trkpt>
      <trkpt lat="44.69289" lon="3.02266">
        <ele>1115.6</ele>
        <time>2022-08-07T08:20:33Z</time>
      </trkpt>
      <trkpt lat="44.69288" lon="3.02268">
        <ele>1115.5</ele>
        <time>2022-08-07T08:20:35Z</time>
      </trkpt>
      <trkpt lat="44.69284" lon="3.02272">
        <ele>1115.7</ele>
        <time>2022-08-07T08:20:39Z</time>
      </trkpt>
      <trkpt lat="44.69282" lon="3.02273">
        <ele>1115.8</ele>
        <time>2022-08-07T08:20:42Z</time>
      </trkpt>
      <trkpt lat="44.69282" lon="3.02273">
        <ele>1115.8</ele>
        <time>2022-08-07T08:20:43Z</time>
      </trkpt>
      <trkpt lat="44.69282" lon="3.02273">
        <ele>1115.8</ele>
        <time>2022-08-07T08:20:44Z</time>
      </trkpt>
      <trkpt lat="44.69279" lon="3.02273">
        <ele>1115.9</ele>
        <time>2022-08-07T08:20:47Z</time>
      </trkpt>
      <trkpt lat="44.69278" lon="3.02272">
        <ele>1116</ele>
        <time>2022-08-07T08:20:50Z</time>
      </trkpt>
      <trkpt lat="44.69281" lon="3.02268">
        <ele>1115.9</ele>
        <time>2022-08-07T08:20:59Z</time>
      </trkpt>
      <trkpt lat="44.6928" lon="3.02275">
        <ele>1115.9</ele>
        <time>2022-08-07T08:21:05Z</time>
      </trkpt>
      <trkpt lat="44.69279" lon="3.02278">
        <ele>1115.9</ele>
        <time>2022-08-07T08:21:07Z</time>
      </trkpt>
      <trkpt lat="44.69278" lon="3.02282">
        <ele>1116</ele>
        <time>2022-08-07T08:21:10Z</time>
      </trkpt>
      <trkpt lat="44.69278" lon="3.02283">
        <ele>1116</ele>
        <time>2022-08-07T08:21:11Z</time>
      </trkpt>
      <trkpt lat="44.69276" lon="3.02283">
        <ele>1116</ele>
        <time>2022-08-07T08:21:15Z</time>
      </trkpt>
      <trkpt lat="44.6928" lon="3.02287">
        <ele>1115.8</ele>
        <time>2022-08-07T08:21:23Z</time>
      </trkpt>
      <trkpt lat="44.69278" lon="3.02304">
        <ele>1116</ele>
        <time>2022-08-07T08:21:31Z</time>
      </trkpt>
      <trkpt lat="44.69273" lon="3.02324">
        <ele>1115.3</ele>
        <time>2022-08-07T08:21:43Z</time>
      </trkpt>
      <trkpt lat="44.69271" lon="3.0233">
        <ele>1115.1</ele>
        <time>2022-08-07T08:21:48Z</time>
      </trkpt>
      <trkpt lat="44.69271" lon="3.02332">
        <ele>1115</ele>
        <time>2022-08-07T08:21:52Z</time>
      </trkpt>
      <trkpt lat="44.69267" lon="3.02338">
        <ele>1115.1</ele>
        <time>2022-08-07T08:22:02Z</time>
      </trkpt>
      <trkpt lat="44.69267" lon="3.02339">
        <ele>1115.1</ele>
        <time>2022-08-07T08:22:03Z</time>
      </trkpt>
      <trkpt lat="44.69267" lon="3.02338">
        <ele>1115.1</ele>
        <time>2022-08-07T08:22:07Z</time>
      </trkpt>
      <trkpt lat="44.69262" lon="3.02343">
        <ele>1115.1</ele>
        <time>2022-08-07T08:22:13Z</time>
      </trkpt>
      <trkpt lat="44.69256" lon="3.02354">
        <ele>1115.2</ele>
        <time>2022-08-07T08:22:21Z</time>
      </trkpt>
      <trkpt lat="44.69251" lon="3.02361">
        <ele>1115</ele>
        <time>2022-08-07T08:22:28Z</time>
      </trkpt>
      <trkpt lat="44.69249" lon="3.02362">
        <ele>1114.9</ele>
        <time>2022-08-07T08:22:29Z</time>
      </trkpt>
      <trkpt lat="44.69247" lon="3.02364">
        <ele>1114.7</ele>
        <time>2022-08-07T08:22:31Z</time>
      </trkpt>
      <trkpt lat="44.69242" lon="3.0237">
        <ele>1113.9</ele>
        <time>2022-08-07T08:22:36Z</time>
      </trkpt>
      <trkpt lat="44.69237" lon="3.02376">
        <ele>1113.1</ele>
        <time>2022-08-07T08:22:42Z</time>
      </trkpt>
      <trkpt lat="44.69234" lon="3.02383">
        <ele>1112.3</ele>
        <time>2022-08-07T08:22:47Z</time>
      </trkpt>
      <trkpt lat="44.69232" lon="3.02389">
        <ele>1111.7</ele>
        <time>2022-08-07T08:22:51Z</time>
      </trkpt>
      <trkpt lat="44.69231" lon="3.02393">
        <ele>1111.3</ele>
        <time>2022-08-07T08:22:54Z</time>
      </trkpt>
      <trkpt lat="44.69232" lon="3.02395">
        <ele>1111.2</ele>
        <time>2022-08-07T08:22:56Z</time>
      </trkpt>
      <trkpt lat="44.69232" lon="3.02396">
        <ele>1111.2</ele>
        <time>2022-08-07T08:22:57Z</time>
      </trkpt>
      <trkpt lat="44.69232" lon="3.02396">
        <ele>1111.2</ele>
        <time>2022-08-07T08:22:59Z</time>
      </trkpt>
      <trkpt lat="44.69232" lon="3.02397">
        <ele>1111</ele>
        <time>2022-08-07T08:23:01Z</time>
      </trkpt>
      <trkpt lat="44.69232" lon="3.02399">
        <ele>1110.9</ele>
        <time>2022-08-07T08:23:02Z</time>
      </trkpt>
      <trkpt lat="44.69231" lon="3.02409">
        <ele>1110</ele>
        <time>2022-08-07T08:23:08Z</time>
      </trkpt>
      <trkpt lat="44.6923" lon="3.02418">
        <ele>1109</ele>
        <time>2022-08-07T08:23:14Z</time>
      </trkpt>
      <trkpt lat="44.6923" lon="3.02421">
        <ele>1108.7</ele>
        <time>2022-08-07T08:23:16Z</time>
      </trkpt>
      <trkpt lat="44.6923" lon="3.02422">
        <ele>1108.6</ele>
        <time>2022-08-07T08:23:17Z</time>
      </trkpt>
      <trkpt lat="44.6923" lon="3.02426">
        <ele>1108.3</ele>
        <time>2022-08-07T08:23:19Z</time>
      </trkpt>
      <trkpt lat="44.69231" lon="3.02432">
        <ele>1107.9</ele>
        <time>2022-08-07T08:23:23Z</time>
      </trkpt>
      <trkpt lat="44.69231" lon="3.02436">
        <ele>1107.5</ele>
        <time>2022-08-07T08:23:25Z</time>
      </trkpt>
      <trkpt lat="44.69232" lon="3.02446">
        <ele>1106.6</ele>
        <time>2022-08-07T08:23:33Z</time>
      </trkpt>
      <trkpt lat="44.69232" lon="3.02446">
        <ele>1106.6</ele>
        <time>2022-08-07T08:23:34Z</time>
      </trkpt>
      <trkpt lat="44.69231" lon="3.02447">
        <ele>1106.5</ele>
        <time>2022-08-07T08:23:38Z</time>
      </trkpt>
      <trkpt lat="44.69233" lon="3.02448">
        <ele>1106.5</ele>
        <time>2022-08-07T08:23:43Z</time>
      </trkpt>
      <trkpt lat="44.69232" lon="3.02455">
        <ele>1105.9</ele>
        <time>2022-08-07T08:23:50Z</time>
      </trkpt>
      <trkpt lat="44.69227" lon="3.02454">
        <ele>1105.6</ele>
        <time>2022-08-07T08:23:55Z</time>
      </trkpt>
      <trkpt lat="44.69228" lon="3.02453">
        <ele>1105.7</ele>
        <time>2022-08-07T08:24:02Z</time>
      </trkpt>
      <trkpt lat="44.69227" lon="3.02453">
        <ele>1105.7</ele>
        <time>2022-08-07T08:24:08Z</time>
      </trkpt>
      <trkpt lat="44.69227" lon="3.02453">
        <ele>1105.7</ele>
        <time>2022-08-07T08:24:34Z</time>
      </trkpt>
      <trkpt lat="44.69227" lon="3.02453">
        <ele>1105.8</ele>
        <time>2022-08-07T08:24:40Z</time>
      </trkpt>
      <trkpt lat="44.69228" lon="3.02454">
        <ele>1105.7</ele>
        <time>2022-08-07T08:25:14Z</time>
      </trkpt>
      <trkpt lat="44.69228" lon="3.02454">
        <ele>1105.7</ele>
        <time>2022-08-07T08:25:29Z</time>
      </trkpt>
      <trkpt lat="44.6923" lon="3.0246">
        <ele>1105.4</ele>
        <time>2022-08-07T08:25:32Z</time>
      </trkpt>
      <trkpt lat="44.69238" lon="3.02475">
        <ele>1104.8</ele>
        <time>2022-08-07T08:25:42Z</time>
      </trkpt>
      <trkpt lat="44.6924" lon="3.0248">
        <ele>1104.2</ele>
        <time>2022-08-07T08:25:46Z</time>
      </trkpt>
      <trkpt lat="44.6924" lon="3.02487">
        <ele>1103.3</ele>
        <time>2022-08-07T08:25:50Z</time>
      </trkpt>
      <trkpt lat="44.69239" lon="3.02486">
        <ele>1103.3</ele>
        <time>2022-08-07T08:25:51Z</time>
      </trkpt>
      <trkpt lat="44.69241" lon="3.02487">
        <ele>1103.2</ele>
        <time>2022-08-07T08:25:53Z</time>
      </trkpt>
      <trkpt lat="44.69242" lon="3.02487">
        <ele>1103.2</ele>
        <time>2022-08-07T08:25:54Z</time>
      </trkpt>
      <trkpt lat="44.69239" lon="3.02493">
        <ele>1102.4</ele>
        <time>2022-08-07T08:25:59Z</time>
      </trkpt>
      <trkpt lat="44.69237" lon="3.02497">
        <ele>1101.9</ele>
        <time>2022-08-07T08:26:02Z</time>
      </trkpt>
      <trkpt lat="44.69231" lon="3.02503">
        <ele>1100.9</ele>
        <time>2022-08-07T08:26:08Z</time>
      </trkpt>
      <trkpt lat="44.6923" lon="3.02506">
        <ele>1100.4</ele>
        <time>2022-08-07T08:26:10Z</time>
      </trkpt>
      <trkpt lat="44.69222" lon="3.02513">
        <ele>1098.8</ele>
        <time>2022-08-07T08:26:18Z</time>
      </trkpt>
      <trkpt lat="44.69221" lon="3.02513">
        <ele>1098.5</ele>
        <time>2022-08-07T08:26:19Z</time>
      </trkpt>
      <trkpt lat="44.69214" lon="3.02516">
        <ele>1096.9</ele>
        <time>2022-08-07T08:26:26Z</time>
      </trkpt>
      <trkpt lat="44.69211" lon="3.02516">
        <ele>1096.6</ele>
        <time>2022-08-07T08:26:28Z</time>
      </trkpt>
      <trkpt lat="44.69203" lon="3.02515">
        <ele>1095.9</ele>
        <time>2022-08-07T08:26:35Z</time>
      </trkpt>
      <trkpt lat="44.692" lon="3.02515">
        <ele>1095.3</ele>
        <time>2022-08-07T08:26:38Z</time>
      </trkpt>
      <trkpt lat="44.69192" lon="3.02511">
        <ele>1095.1</ele>
        <time>2022-08-07T08:26:45Z</time>
      </trkpt>
      <trkpt lat="44.6919" lon="3.02511">
        <ele>1094.3</ele>
        <time>2022-08-07T08:26:48Z</time>
      </trkpt>
      <trkpt lat="44.69188" lon="3.02509">
        <ele>1094.2</ele>
        <time>2022-08-07T08:26:50Z</time>
      </trkpt>
      <trkpt lat="44.69187" lon="3.02508">
        <ele>1094.2</ele>
        <time>2022-08-07T08:26:51Z</time>
      </trkpt>
      <trkpt lat="44.69184" lon="3.02507">
        <ele>1093.7</ele>
        <time>2022-08-07T08:26:55Z</time>
      </trkpt>
      <trkpt lat="44.69183" lon="3.02507">
        <ele>1093.5</ele>
        <time>2022-08-07T08:26:56Z</time>
      </trkpt>
      <trkpt lat="44.69179" lon="3.02506">
        <ele>1092.2</ele>
        <time>2022-08-07T08:27:01Z</time>
      </trkpt>
      <trkpt lat="44.69175" lon="3.02505">
        <ele>1091</ele>
        <time>2022-08-07T08:27:05Z</time>
      </trkpt>
      <trkpt lat="44.69172" lon="3.02504">
        <ele>1090.3</ele>
        <time>2022-08-07T08:27:08Z</time>
      </trkpt>
      <trkpt lat="44.69169" lon="3.02505">
        <ele>1089.2</ele>
        <time>2022-08-07T08:27:11Z</time>
      </trkpt>
      <trkpt lat="44.69167" lon="3.02504">
        <ele>1088.3</ele>
        <time>2022-08-07T08:27:14Z</time>
      </trkpt>
      <trkpt lat="44.69165" lon="3.02506">
        <ele>1087.7</ele>
        <time>2022-08-07T08:27:16Z</time>
      </trkpt>
      <trkpt lat="44.69161" lon="3.02509">
        <ele>1086.3</ele>
        <time>2022-08-07T08:27:19Z</time>
      </trkpt>
      <trkpt lat="44.69154" lon="3.02511">
        <ele>1084.6</ele>
        <time>2022-08-07T08:27:24Z</time>
      </trkpt>
      <trkpt lat="44.69151" lon="3.02512">
        <ele>1083.6</ele>
        <time>2022-08-07T08:27:27Z</time>
      </trkpt>
      <trkpt lat="44.69146" lon="3.02514">
        <ele>1082.1</ele>
        <time>2022-08-07T08:27:31Z</time>
      </trkpt>
      <trkpt lat="44.69143" lon="3.02512">
        <ele>1081.7</ele>
        <time>2022-08-07T08:27:34Z</time>
      </trkpt>
      <trkpt lat="44.69142" lon="3.02512">
        <ele>1081.6</ele>
        <time>2022-08-07T08:27:35Z</time>
      </trkpt>
      <trkpt lat="44.69137" lon="3.02513">
        <ele>1080.4</ele>
        <time>2022-08-07T08:27:41Z</time>
      </trkpt>
      <trkpt lat="44.69136" lon="3.02514">
        <ele>1080.2</ele>
        <time>2022-08-07T08:27:42Z</time>
      </trkpt>
      <trkpt lat="44.69135" lon="3.02515">
        <ele>1079.9</ele>
        <time>2022-08-07T08:27:43Z</time>
      </trkpt>
      <trkpt lat="44.69133" lon="3.02517">
        <ele>1079.5</ele>
        <time>2022-08-07T08:27:45Z</time>
      </trkpt>
      <trkpt lat="44.69129" lon="3.02525">
        <ele>1077.7</ele>
        <time>2022-08-07T08:27:51Z</time>
      </trkpt>
      <trkpt lat="44.69129" lon="3.02526">
        <ele>1077.5</ele>
        <time>2022-08-07T08:27:52Z</time>
      </trkpt>
      <trkpt lat="44.69126" lon="3.02532">
        <ele>1076.6</ele>
        <time>2022-08-07T08:27:56Z</time>
      </trkpt>
      <trkpt lat="44.69119" lon="3.02542">
        <ele>1075.6</ele>
        <time>2022-08-07T08:28:05Z</time>
      </trkpt>
      <trkpt lat="44.69116" lon="3.02544">
        <ele>1075.4</ele>
        <time>2022-08-07T08:28:07Z</time>
      </trkpt>
      <trkpt lat="44.69114" lon="3.02546">
        <ele>1075.3</ele>
        <time>2022-08-07T08:28:09Z</time>
      </trkpt>
      <trkpt lat="44.69107" lon="3.02553">
        <ele>1075</ele>
        <time>2022-08-07T08:28:15Z</time>
      </trkpt>
      <trkpt lat="44.69101" lon="3.02558">
        <ele>1074.4</ele>
        <time>2022-08-07T08:28:22Z</time>
      </trkpt>
      <trkpt lat="44.69098" lon="3.02562">
        <ele>1074</ele>
        <time>2022-08-07T08:28:25Z</time>
      </trkpt>
      <trkpt lat="44.69089" lon="3.02574">
        <ele>1073.3</ele>
        <time>2022-08-07T08:28:35Z</time>
      </trkpt>
      <trkpt lat="44.69087" lon="3.02576">
        <ele>1073.2</ele>
        <time>2022-08-07T08:28:37Z</time>
      </trkpt>
      <trkpt lat="44.69073" lon="3.02583">
        <ele>1073.4</ele>
        <time>2022-08-07T08:28:48Z</time>
      </trkpt>
      <trkpt lat="44.69053" lon="3.02586">
        <ele>1073.8</ele>
        <time>2022-08-07T08:29:02Z</time>
      </trkpt>
      <trkpt lat="44.69041" lon="3.0259">
        <ele>1073.2</ele>
        <time>2022-08-07T08:29:13Z</time>
      </trkpt>
      <trkpt lat="44.69027" lon="3.02597">
        <ele>1072.6</ele>
        <time>2022-08-07T08:29:25Z</time>
      </trkpt>
      <trkpt lat="44.69016" lon="3.02609">
        <ele>1072.4</ele>
        <time>2022-08-07T08:29:36Z</time>
      </trkpt>
      <trkpt lat="44.69014" lon="3.02611">
        <ele>1072.5</ele>
        <time>2022-08-07T08:29:38Z</time>
      </trkpt>
      <trkpt lat="44.69006" lon="3.02623">
        <ele>1072.3</ele>
        <time>2022-08-07T08:29:48Z</time>
      </trkpt>
      <trkpt lat="44.68996" lon="3.02634">
        <ele>1071.2</ele>
        <time>2022-08-07T08:29:57Z</time>
      </trkpt>
      <trkpt lat="44.68995" lon="3.02635">
        <ele>1071</ele>
        <time>2022-08-07T08:29:58Z</time>
      </trkpt>
      <trkpt lat="44.68984" lon="3.0264">
        <ele>1069.1</ele>
        <time>2022-08-07T08:30:07Z</time>
      </trkpt>
      <trkpt lat="44.68981" lon="3.02644">
        <ele>1068.3</ele>
        <time>2022-08-07T08:30:10Z</time>
      </trkpt>
      <trkpt lat="44.68969" lon="3.02656">
        <ele>1066.9</ele>
        <time>2022-08-07T08:30:21Z</time>
      </trkpt>
      <trkpt lat="44.68965" lon="3.02664">
        <ele>1066.4</ele>
        <time>2022-08-07T08:30:28Z</time>
      </trkpt>
      <trkpt lat="44.68964" lon="3.02671">
        <ele>1066.3</ele>
        <time>2022-08-07T08:30:32Z</time>
      </trkpt>
      <trkpt lat="44.68962" lon="3.02682">
        <ele>1066.2</ele>
        <time>2022-08-07T08:30:39Z</time>
      </trkpt>
      <trkpt lat="44.6896" lon="3.02686">
        <ele>1066.1</ele>
        <time>2022-08-07T08:30:42Z</time>
      </trkpt>
      <trkpt lat="44.68954" lon="3.02699">
        <ele>1066.1</ele>
        <time>2022-08-07T08:30:52Z</time>
      </trkpt>
      <trkpt lat="44.68953" lon="3.027">
        <ele>1066.1</ele>
        <time>2022-08-07T08:30:53Z</time>
      </trkpt>
      <trkpt lat="44.68954" lon="3.027">
        <ele>1066.1</ele>
        <time>2022-08-07T08:30:57Z</time>
      </trkpt>
      <trkpt lat="44.68952" lon="3.02708">
        <ele>1066.2</ele>
        <time>2022-08-07T08:31:03Z</time>
      </trkpt>
      <trkpt lat="44.68949" lon="3.02723">
        <ele>1066.7</ele>
        <time>2022-08-07T08:31:12Z</time>
      </trkpt>
      <trkpt lat="44.68948" lon="3.02742">
        <ele>1067.5</ele>
        <time>2022-08-07T08:31:23Z</time>
      </trkpt>
      <trkpt lat="44.68943" lon="3.02759">
        <ele>1068.5</ele>
        <time>2022-08-07T08:31:34Z</time>
      </trkpt>
      <trkpt lat="44.6894" lon="3.02769">
        <ele>1069.2</ele>
        <time>2022-08-07T08:31:41Z</time>
      </trkpt>
      <trkpt lat="44.68938" lon="3.02778">
        <ele>1069.7</ele>
        <time>2022-08-07T08:31:46Z</time>
      </trkpt>
      <trkpt lat="44.68941" lon="3.02793">
        <ele>1071.5</ele>
        <time>2022-08-07T08:31:57Z</time>
      </trkpt>
      <trkpt lat="44.68942" lon="3.02794">
        <ele>1071.6</ele>
        <time>2022-08-07T08:31:58Z</time>
      </trkpt>
      <trkpt lat="44.68946" lon="3.02804">
        <ele>1072.7</ele>
        <time>2022-08-07T08:32:06Z</time>
      </trkpt>
      <trkpt lat="44.68946" lon="3.02805">
        <ele>1072.8</ele>
        <time>2022-08-07T08:32:07Z</time>
      </trkpt>
      <trkpt lat="44.68949" lon="3.02809">
        <ele>1073.4</ele>
        <time>2022-08-07T08:32:11Z</time>
      </trkpt>
      <trkpt lat="44.68952" lon="3.02816">
        <ele>1074.6</ele>
        <time>2022-08-07T08:32:17Z</time>
      </trkpt>
      <trkpt lat="44.68952" lon="3.02817">
        <ele>1074.8</ele>
        <time>2022-08-07T08:32:18Z</time>
      </trkpt>
      <trkpt lat="44.68953" lon="3.02818">
        <ele>1075</ele>
        <time>2022-08-07T08:32:19Z</time>
      </trkpt>
      <trkpt lat="44.68956" lon="3.02825">
        <ele>1076.3</ele>
        <time>2022-08-07T08:32:25Z</time>
      </trkpt>
      <trkpt lat="44.68957" lon="3.02827">
        <ele>1076.7</ele>
        <time>2022-08-07T08:32:26Z</time>
      </trkpt>
      <trkpt lat="44.68958" lon="3.02831">
        <ele>1077.4</ele>
        <time>2022-08-07T08:32:30Z</time>
      </trkpt>
      <trkpt lat="44.68961" lon="3.02838">
        <ele>1078.3</ele>
        <time>2022-08-07T08:32:36Z</time>
      </trkpt>
      <trkpt lat="44.68962" lon="3.0285">
        <ele>1079.1</ele>
        <time>2022-08-07T08:32:44Z</time>
      </trkpt>
      <trkpt lat="44.68962" lon="3.02851">
        <ele>1079.2</ele>
        <time>2022-08-07T08:32:45Z</time>
      </trkpt>
      <trkpt lat="44.68961" lon="3.02858">
        <ele>1079.9</ele>
        <time>2022-08-07T08:32:50Z</time>
      </trkpt>
      <trkpt lat="44.6896" lon="3.0287">
        <ele>1080.9</ele>
        <time>2022-08-07T08:32:58Z</time>
      </trkpt>
      <trkpt lat="44.68959" lon="3.02876">
        <ele>1081.5</ele>
        <time>2022-08-07T08:33:03Z</time>
      </trkpt>
      <trkpt lat="44.68959" lon="3.02887">
        <ele>1082.3</ele>
        <time>2022-08-07T08:33:10Z</time>
      </trkpt>
      <trkpt lat="44.68959" lon="3.0289">
        <ele>1082.4</ele>
        <time>2022-08-07T08:33:12Z</time>
      </trkpt>
      <trkpt lat="44.68961" lon="3.02905">
        <ele>1082.4</ele>
        <time>2022-08-07T08:33:22Z</time>
      </trkpt>
      <trkpt lat="44.68963" lon="3.02918">
        <ele>1082.4</ele>
        <time>2022-08-07T08:33:30Z</time>
      </trkpt>
      <trkpt lat="44.68963" lon="3.02921">
        <ele>1082.8</ele>
        <time>2022-08-07T08:33:32Z</time>
      </trkpt>
      <trkpt lat="44.68967" lon="3.02938">
        <ele>1084.1</ele>
        <time>2022-08-07T08:33:43Z</time>
      </trkpt>
      <trkpt lat="44.68967" lon="3.0294">
        <ele>1084.3</ele>
        <time>2022-08-07T08:33:45Z</time>
      </trkpt>
      <trkpt lat="44.68968" lon="3.0295">
        <ele>1085.2</ele>
        <time>2022-08-07T08:33:52Z</time>
      </trkpt>
      <trkpt lat="44.68968" lon="3.02953">
        <ele>1085.5</ele>
        <time>2022-08-07T08:33:54Z</time>
      </trkpt>
      <trkpt lat="44.68968" lon="3.0296">
        <ele>1086.2</ele>
        <time>2022-08-07T08:33:59Z</time>
      </trkpt>
      <trkpt lat="44.68967" lon="3.02966">
        <ele>1086.9</ele>
        <time>2022-08-07T08:34:03Z</time>
      </trkpt>
      <trkpt lat="44.68966" lon="3.02975">
        <ele>1087.8</ele>
        <time>2022-08-07T08:34:09Z</time>
      </trkpt>
      <trkpt lat="44.68964" lon="3.0298">
        <ele>1088.1</ele>
        <time>2022-08-07T08:34:13Z</time>
      </trkpt>
      <trkpt lat="44.68959" lon="3.02991">
        <ele>1089.1</ele>
        <time>2022-08-07T08:34:22Z</time>
      </trkpt>
      <trkpt lat="44.68958" lon="3.02994">
        <ele>1089.3</ele>
        <time>2022-08-07T08:34:25Z</time>
      </trkpt>
      <trkpt lat="44.68957" lon="3.02994">
        <ele>1089.5</ele>
        <time>2022-08-07T08:34:36Z</time>
      </trkpt>
      <trkpt lat="44.68957" lon="3.02993">
        <ele>1089.5</ele>
        <time>2022-08-07T08:34:46Z</time>
      </trkpt>
      <trkpt lat="44.68957" lon="3.02994">
        <ele>1089.5</ele>
        <time>2022-08-07T08:34:59Z</time>
      </trkpt>
      <trkpt lat="44.68953" lon="3.02998">
        <ele>1090</ele>
        <time>2022-08-07T08:35:15Z</time>
      </trkpt>
      <trkpt lat="44.68948" lon="3.03006">
        <ele>1090.4</ele>
        <time>2022-08-07T08:35:20Z</time>
      </trkpt>
      <trkpt lat="44.68947" lon="3.03009">
        <ele>1090.4</ele>
        <time>2022-08-07T08:35:22Z</time>
      </trkpt>
      <trkpt lat="44.68946" lon="3.03011">
        <ele>1090.5</ele>
        <time>2022-08-07T08:35:24Z</time>
      </trkpt>
      <trkpt lat="44.68937" lon="3.03018">
        <ele>1091.2</ele>
        <time>2022-08-07T08:35:34Z</time>
      </trkpt>
      <trkpt lat="44.68934" lon="3.03021">
        <ele>1091.4</ele>
        <time>2022-08-07T08:35:39Z</time>
      </trkpt>
      <trkpt lat="44.68932" lon="3.03022">
        <ele>1091.6</ele>
        <time>2022-08-07T08:35:41Z</time>
      </trkpt>
      <trkpt lat="44.68924" lon="3.03031">
        <ele>1091.9</ele>
        <time>2022-08-07T08:35:50Z</time>
      </trkpt>
      <trkpt lat="44.68918" lon="3.03048">
        <ele>1091.3</ele>
        <time>2022-08-07T08:36:05Z</time>
      </trkpt>
      <trkpt lat="44.68917" lon="3.03052">
        <ele>1091.1</ele>
        <time>2022-08-07T08:36:12Z</time>
      </trkpt>
      <trkpt lat="44.68917" lon="3.03052">
        <ele>1091.2</ele>
        <time>2022-08-07T08:36:13Z</time>
      </trkpt>
      <trkpt lat="44.68913" lon="3.03058">
        <ele>1091.5</ele>
        <time>2022-08-07T08:36:19Z</time>
      </trkpt>
      <trkpt lat="44.68909" lon="3.03067">
        <ele>1091.7</ele>
        <time>2022-08-07T08:36:26Z</time>
      </trkpt>
      <trkpt lat="44.68904" lon="3.0308">
        <ele>1092.4</ele>
        <time>2022-08-07T08:36:35Z</time>
      </trkpt>
      <trkpt lat="44.68902" lon="3.0309">
        <ele>1092.7</ele>
        <time>2022-08-07T08:36:43Z</time>
      </trkpt>
      <trkpt lat="44.68902" lon="3.03091">
        <ele>1092.7</ele>
        <time>2022-08-07T08:36:44Z</time>
      </trkpt>
      <trkpt lat="44.68903" lon="3.03092">
        <ele>1092.5</ele>
        <time>2022-08-07T08:36:47Z</time>
      </trkpt>
      <trkpt lat="44.68902" lon="3.03094">
        <ele>1092.6</ele>
        <time>2022-08-07T08:36:48Z</time>
      </trkpt>
      <trkpt lat="44.68903" lon="3.031">
        <ele>1092.6</ele>
        <time>2022-08-07T08:36:52Z</time>
      </trkpt>
      <trkpt lat="44.68903" lon="3.0311">
        <ele>1092.4</ele>
        <time>2022-08-07T08:36:58Z</time>
      </trkpt>
      <trkpt lat="44.68904" lon="3.03119">
        <ele>1092.6</ele>
        <time>2022-08-07T08:37:02Z</time>
      </trkpt>
      <trkpt lat="44.68902" lon="3.03123">
        <ele>1093</ele>
        <time>2022-08-07T08:37:06Z</time>
      </trkpt>
      <trkpt lat="44.68901" lon="3.0313">
        <ele>1093.4</ele>
        <time>2022-08-07T08:37:10Z</time>
      </trkpt>
      <trkpt lat="44.68895" lon="3.0314">
        <ele>1094.9</ele>
        <time>2022-08-07T08:37:19Z</time>
      </trkpt>
      <trkpt lat="44.68894" lon="3.03142">
        <ele>1095.1</ele>
        <time>2022-08-07T08:37:21Z</time>
      </trkpt>
      <trkpt lat="44.68891" lon="3.03147">
        <ele>1095.4</ele>
        <time>2022-08-07T08:37:25Z</time>
      </trkpt>
      <trkpt lat="44.6889" lon="3.03149">
        <ele>1095.6</ele>
        <time>2022-08-07T08:37:27Z</time>
      </trkpt>
      <trkpt lat="44.68885" lon="3.03155">
        <ele>1096.1</ele>
        <time>2022-08-07T08:37:33Z</time>
      </trkpt>
      <trkpt lat="44.68882" lon="3.03158">
        <ele>1096.4</ele>
        <time>2022-08-07T08:37:36Z</time>
      </trkpt>
      <trkpt lat="44.68877" lon="3.03162">
        <ele>1096.9</ele>
        <time>2022-08-07T08:37:41Z</time>
      </trkpt>
      <trkpt lat="44.68875" lon="3.03165">
        <ele>1097.1</ele>
        <time>2022-08-07T08:37:44Z</time>
      </trkpt>
      <trkpt lat="44.68874" lon="3.03166">
        <ele>1097.2</ele>
        <time>2022-08-07T08:37:45Z</time>
      </trkpt>
      <trkpt lat="44.6887" lon="3.03168">
        <ele>1097.7</ele>
        <time>2022-08-07T08:37:49Z</time>
      </trkpt>
      <trkpt lat="44.68866" lon="3.0317">
        <ele>1098.2</ele>
        <time>2022-08-07T08:37:52Z</time>
      </trkpt>
      <trkpt lat="44.68864" lon="3.0317">
        <ele>1098.4</ele>
        <time>2022-08-07T08:37:54Z</time>
      </trkpt>
      <trkpt lat="44.68863" lon="3.03171">
        <ele>1098.7</ele>
        <time>2022-08-07T08:37:56Z</time>
      </trkpt>
      <trkpt lat="44.68858" lon="3.03173">
        <ele>1099.2</ele>
        <time>2022-08-07T08:38:00Z</time>
      </trkpt>
      <trkpt lat="44.6885" lon="3.03181">
        <ele>1100.1</ele>
        <time>2022-08-07T08:38:09Z</time>
      </trkpt>
      <trkpt lat="44.68849" lon="3.03182">
        <ele>1100.2</ele>
        <time>2022-08-07T08:38:10Z</time>
      </trkpt>
      <trkpt lat="44.68848" lon="3.03183">
        <ele>1100.2</ele>
        <time>2022-08-07T08:38:13Z</time>
      </trkpt>
      <trkpt lat="44.68849" lon="3.03183">
        <ele>1100.2</ele>
        <time>2022-08-07T08:38:15Z</time>
      </trkpt>
      <trkpt lat="44.68848" lon="3.03185">
        <ele>1100.2</ele>
        <time>2022-08-07T08:38:18Z</time>
      </trkpt>
      <trkpt lat="44.68845" lon="3.03189">
        <ele>1100.5</ele>
        <time>2022-08-07T08:38:21Z</time>
      </trkpt>
      <trkpt lat="44.68836" lon="3.03203">
        <ele>1101.9</ele>
        <time>2022-08-07T08:38:32Z</time>
      </trkpt>
      <trkpt lat="44.68834" lon="3.03207">
        <ele>1102.4</ele>
        <time>2022-08-07T08:38:36Z</time>
      </trkpt>
      <trkpt lat="44.68829" lon="3.03216">
        <ele>1102.9</ele>
        <time>2022-08-07T08:38:43Z</time>
      </trkpt>
      <trkpt lat="44.68824" lon="3.03227">
        <ele>1103.7</ele>
        <time>2022-08-07T08:38:52Z</time>
      </trkpt>
      <trkpt lat="44.68824" lon="3.0323">
        <ele>1103.9</ele>
        <time>2022-08-07T08:38:54Z</time>
      </trkpt>
      <trkpt lat="44.68821" lon="3.03241">
        <ele>1104.8</ele>
        <time>2022-08-07T08:39:03Z</time>
      </trkpt>
      <trkpt lat="44.68821" lon="3.03242">
        <ele>1104.9</ele>
        <time>2022-08-07T08:39:04Z</time>
      </trkpt>
      <trkpt lat="44.68819" lon="3.03254">
        <ele>1105.8</ele>
        <time>2022-08-07T08:39:13Z</time>
      </trkpt>
      <trkpt lat="44.68819" lon="3.03256">
        <ele>1105.8</ele>
        <time>2022-08-07T08:39:14Z</time>
      </trkpt>
      <trkpt lat="44.68817" lon="3.03258">
        <ele>1106</ele>
        <time>2022-08-07T08:39:19Z</time>
      </trkpt>
      <trkpt lat="44.68818" lon="3.03261">
        <ele>1106.1</ele>
        <time>2022-08-07T08:39:22Z</time>
      </trkpt>
      <trkpt lat="44.68818" lon="3.03264">
        <ele>1106.3</ele>
        <time>2022-08-07T08:39:24Z</time>
      </trkpt>
      <trkpt lat="44.68817" lon="3.03278">
        <ele>1107</ele>
        <time>2022-08-07T08:39:33Z</time>
      </trkpt>
      <trkpt lat="44.68816" lon="3.03284">
        <ele>1107.1</ele>
        <time>2022-08-07T08:39:37Z</time>
      </trkpt>
      <trkpt lat="44.68816" lon="3.0329">
        <ele>1107.2</ele>
        <time>2022-08-07T08:39:41Z</time>
      </trkpt>
      <trkpt lat="44.68817" lon="3.03294">
        <ele>1107.2</ele>
        <time>2022-08-07T08:39:44Z</time>
      </trkpt>
      <trkpt lat="44.68818" lon="3.03297">
        <ele>1107.3</ele>
        <time>2022-08-07T08:39:46Z</time>
      </trkpt>
      <trkpt lat="44.68823" lon="3.03302">
        <ele>1107.5</ele>
        <time>2022-08-07T08:39:52Z</time>
      </trkpt>
      <trkpt lat="44.68835" lon="3.03307">
        <ele>1107.9</ele>
        <time>2022-08-07T08:40:03Z</time>
      </trkpt>
      <trkpt lat="44.68846" lon="3.03312">
        <ele>1107.7</ele>
        <time>2022-08-07T08:40:13Z</time>
      </trkpt>
      <trkpt lat="44.68848" lon="3.03313">
        <ele>1107.6</ele>
        <time>2022-08-07T08:40:15Z</time>
      </trkpt>
      <trkpt lat="44.68854" lon="3.03314">
        <ele>1107.6</ele>
        <time>2022-08-07T08:40:22Z</time>
      </trkpt>
      <trkpt lat="44.68856" lon="3.03313">
        <ele>1107.7</ele>
        <time>2022-08-07T08:40:26Z</time>
      </trkpt>
      <trkpt lat="44.68855" lon="3.03312">
        <ele>1107.7</ele>
        <time>2022-08-07T08:40:28Z</time>
      </trkpt>
      <trkpt lat="44.68854" lon="3.0331">
        <ele>1107.8</ele>
        <time>2022-08-07T08:40:31Z</time>
      </trkpt>
      <trkpt lat="44.68853" lon="3.0331">
        <ele>1107.8</ele>
        <time>2022-08-07T08:40:35Z</time>
      </trkpt>
      <trkpt lat="44.68856" lon="3.03309">
        <ele>1107.8</ele>
        <time>2022-08-07T08:40:45Z</time>
      </trkpt>
      <trkpt lat="44.68857" lon="3.03307">
        <ele>1107.9</ele>
        <time>2022-08-07T08:40:53Z</time>
      </trkpt>
      <trkpt lat="44.68862" lon="3.03303">
        <ele>1107.9</ele>
        <time>2022-08-07T08:41:07Z</time>
      </trkpt>
      <trkpt lat="44.68866" lon="3.03297">
        <ele>1107.6</ele>
        <time>2022-08-07T08:41:11Z</time>
      </trkpt>
      <trkpt lat="44.68868" lon="3.03291">
        <ele>1107.2</ele>
        <time>2022-08-07T08:41:15Z</time>
      </trkpt>
      <trkpt lat="44.68868" lon="3.03294">
        <ele>1107.4</ele>
        <time>2022-08-07T08:41:20Z</time>
      </trkpt>
      <trkpt lat="44.68862" lon="3.03306">
        <ele>1108</ele>
        <time>2022-08-07T08:41:28Z</time>
      </trkpt>
      <trkpt lat="44.6886" lon="3.03307">
        <ele>1107.9</ele>
        <time>2022-08-07T08:41:35Z</time>
      </trkpt>
      <trkpt lat="44.6886" lon="3.03307">
        <ele>1107.9</ele>
        <time>2022-08-07T08:41:45Z</time>
      </trkpt>
      <trkpt lat="44.68866" lon="3.03313">
        <ele>1107.8</ele>
        <time>2022-08-07T08:41:54Z</time>
      </trkpt>
      <trkpt lat="44.68873" lon="3.03316">
        <ele>1107.8</ele>
        <time>2022-08-07T08:42:00Z</time>
      </trkpt>
      <trkpt lat="44.68875" lon="3.03318">
        <ele>1107.8</ele>
        <time>2022-08-07T08:42:05Z</time>
      </trkpt>
      <trkpt lat="44.68877" lon="3.03319">
        <ele>1107.8</ele>
        <time>2022-08-07T08:42:11Z</time>
      </trkpt>
      <trkpt lat="44.68887" lon="3.03325">
        <ele>1107.9</ele>
        <time>2022-08-07T08:42:19Z</time>
      </trkpt>
      <trkpt lat="44.68894" lon="3.03333">
        <ele>1107.8</ele>
        <time>2022-08-07T08:42:28Z</time>
      </trkpt>
      <trkpt lat="44.68896" lon="3.03334">
        <ele>1107.7</ele>
        <time>2022-08-07T08:42:29Z</time>
      </trkpt>
      <trkpt lat="44.68902" lon="3.03335">
        <ele>1107.5</ele>
        <time>2022-08-07T08:42:35Z</time>
      </trkpt>
      <trkpt lat="44.68905" lon="3.03337">
        <ele>1107.4</ele>
        <time>2022-08-07T08:42:37Z</time>
      </trkpt>
      <trkpt lat="44.68914" lon="3.03346">
        <ele>1107.1</ele>
        <time>2022-08-07T08:42:46Z</time>
      </trkpt>
      <trkpt lat="44.68916" lon="3.03349">
        <ele>1107</ele>
        <time>2022-08-07T08:42:49Z</time>
      </trkpt>
      <trkpt lat="44.68918" lon="3.0335">
        <ele>1107</ele>
        <time>2022-08-07T08:42:51Z</time>
      </trkpt>
      <trkpt lat="44.68919" lon="3.03352">
        <ele>1107</ele>
        <time>2022-08-07T08:42:52Z</time>
      </trkpt>
      <trkpt lat="44.68921" lon="3.03354">
        <ele>1107</ele>
        <time>2022-08-07T08:42:54Z</time>
      </trkpt>
      <trkpt lat="44.68928" lon="3.03357">
        <ele>1106.9</ele>
        <time>2022-08-07T08:43:00Z</time>
      </trkpt>
      <trkpt lat="44.68939" lon="3.03361">
        <ele>1107</ele>
        <time>2022-08-07T08:43:10Z</time>
      </trkpt>
      <trkpt lat="44.68946" lon="3.03363">
        <ele>1106.9</ele>
        <time>2022-08-07T08:43:17Z</time>
      </trkpt>
      <trkpt lat="44.68948" lon="3.03363">
        <ele>1106.9</ele>
        <time>2022-08-07T08:43:19Z</time>
      </trkpt>
      <trkpt lat="44.68953" lon="3.03365">
        <ele>1106.7</ele>
        <time>2022-08-07T08:43:24Z</time>
      </trkpt>
      <trkpt lat="44.68954" lon="3.03366">
        <ele>1106.7</ele>
        <time>2022-08-07T08:43:27Z</time>
      </trkpt>
      <trkpt lat="44.68957" lon="3.03368">
        <ele>1106.7</ele>
        <time>2022-08-07T08:43:30Z</time>
      </trkpt>
      <trkpt lat="44.68959" lon="3.0337">
        <ele>1106.6</ele>
        <time>2022-08-07T08:43:32Z</time>
      </trkpt>
      <trkpt lat="44.6896" lon="3.0337">
        <ele>1106.6</ele>
        <time>2022-08-07T08:43:33Z</time>
      </trkpt>
      <trkpt lat="44.68972" lon="3.03374">
        <ele>1106.5</ele>
        <time>2022-08-07T08:43:41Z</time>
      </trkpt>
      <trkpt lat="44.68985" lon="3.03379">
        <ele>1106.5</ele>
        <time>2022-08-07T08:43:55Z</time>
      </trkpt>
      <trkpt lat="44.6899" lon="3.03381">
        <ele>1106.5</ele>
        <time>2022-08-07T08:44:01Z</time>
      </trkpt>
      <trkpt lat="44.68991" lon="3.03381">
        <ele>1106.5</ele>
        <time>2022-08-07T08:44:02Z</time>
      </trkpt>
      <trkpt lat="44.68994" lon="3.03384">
        <ele>1106.7</ele>
        <time>2022-08-07T08:44:11Z</time>
      </trkpt>
      <trkpt lat="44.69005" lon="3.03388">
        <ele>1106.8</ele>
        <time>2022-08-07T08:44:21Z</time>
      </trkpt>
      <trkpt lat="44.69012" lon="3.03391">
        <ele>1106.5</ele>
        <time>2022-08-07T08:44:29Z</time>
      </trkpt>
      <trkpt lat="44.69011" lon="3.0339">
        <ele>1106.5</ele>
        <time>2022-08-07T08:44:31Z</time>
      </trkpt>
      <trkpt lat="44.69013" lon="3.03392">
        <ele>1106.4</ele>
        <time>2022-08-07T08:44:41Z</time>
      </trkpt>
      <trkpt lat="44.69016" lon="3.03397">
        <ele>1106.1</ele>
        <time>2022-08-07T08:44:50Z</time>
      </trkpt>
      <trkpt lat="44.69016" lon="3.034">
        <ele>1106</ele>
        <time>2022-08-07T08:45:06Z</time>
      </trkpt>
      <trkpt lat="44.69017" lon="3.03404">
        <ele>1105.9</ele>
        <time>2022-08-07T08:45:08Z</time>
      </trkpt>
      <trkpt lat="44.69019" lon="3.03414">
        <ele>1105.4</ele>
        <time>2022-08-07T08:45:14Z</time>
      </trkpt>
      <trkpt lat="44.69021" lon="3.03415">
        <ele>1105.3</ele>
        <time>2022-08-07T08:45:15Z</time>
      </trkpt>
      <trkpt lat="44.69021" lon="3.03415">
        <ele>1105.3</ele>
        <time>2022-08-07T08:45:16Z</time>
      </trkpt>
      <trkpt lat="44.69019" lon="3.03417">
        <ele>1105.3</ele>
        <time>2022-08-07T08:45:21Z</time>
      </trkpt>
      <trkpt lat="44.69019" lon="3.03417">
        <ele>1105.3</ele>
        <time>2022-08-07T08:45:28Z</time>
      </trkpt>
      <trkpt lat="44.69025" lon="3.03422">
        <ele>1104.5</ele>
        <time>2022-08-07T08:45:34Z</time>
      </trkpt>
      <trkpt lat="44.69026" lon="3.03423">
        <ele>1104.4</ele>
        <time>2022-08-07T08:45:36Z</time>
      </trkpt>
      <trkpt lat="44.69026" lon="3.03423">
        <ele>1104.4</ele>
        <time>2022-08-07T08:45:37Z</time>
      </trkpt>
      <trkpt lat="44.69028" lon="3.03423">
        <ele>1104.3</ele>
        <time>2022-08-07T08:45:40Z</time>
      </trkpt>
      <trkpt lat="44.69032" lon="3.03427">
        <ele>1103.7</ele>
        <time>2022-08-07T08:45:46Z</time>
      </trkpt>
      <trkpt lat="44.69035" lon="3.0343">
        <ele>1103.4</ele>
        <time>2022-08-07T08:45:49Z</time>
      </trkpt>
      <trkpt lat="44.69042" lon="3.03435">
        <ele>1102.5</ele>
        <time>2022-08-07T08:45:57Z</time>
      </trkpt>
      <trkpt lat="44.69045" lon="3.03437">
        <ele>1102.2</ele>
        <time>2022-08-07T08:46:01Z</time>
      </trkpt>
      <trkpt lat="44.69048" lon="3.0344">
        <ele>1101.7</ele>
        <time>2022-08-07T08:46:06Z</time>
      </trkpt>
      <trkpt lat="44.6905" lon="3.03441">
        <ele>1101.6</ele>
        <time>2022-08-07T08:46:08Z</time>
      </trkpt>
      <trkpt lat="44.69051" lon="3.03441">
        <ele>1101.5</ele>
        <time>2022-08-07T08:46:10Z</time>
      </trkpt>
      <trkpt lat="44.69053" lon="3.03442">
        <ele>1101.4</ele>
        <time>2022-08-07T08:46:12Z</time>
      </trkpt>
      <trkpt lat="44.69056" lon="3.03445">
        <ele>1100.9</ele>
        <time>2022-08-07T08:46:16Z</time>
      </trkpt>
      <trkpt lat="44.6906" lon="3.03448">
        <ele>1100.2</ele>
        <time>2022-08-07T08:46:20Z</time>
      </trkpt>
      <trkpt lat="44.69068" lon="3.03453">
        <ele>1098.7</ele>
        <time>2022-08-07T08:46:28Z</time>
      </trkpt>
      <trkpt lat="44.6907" lon="3.03453">
        <ele>1098.5</ele>
        <time>2022-08-07T08:46:30Z</time>
      </trkpt>
      <trkpt lat="44.69072" lon="3.03452">
        <ele>1098.4</ele>
        <time>2022-08-07T08:46:31Z</time>
      </trkpt>
      <trkpt lat="44.69075" lon="3.0345">
        <ele>1098.3</ele>
        <time>2022-08-07T08:46:35Z</time>
      </trkpt>
      <trkpt lat="44.69081" lon="3.03443">
        <ele>1098.4</ele>
        <time>2022-08-07T08:46:42Z</time>
      </trkpt>
      <trkpt lat="44.69084" lon="3.03438">
        <ele>1098.4</ele>
        <time>2022-08-07T08:46:46Z</time>
      </trkpt>
      <trkpt lat="44.69087" lon="3.03431">
        <ele>1098.5</ele>
        <time>2022-08-07T08:46:51Z</time>
      </trkpt>
      <trkpt lat="44.69093" lon="3.03422">
        <ele>1098.2</ele>
        <time>2022-08-07T08:47:00Z</time>
      </trkpt>
      <trkpt lat="44.69095" lon="3.03422">
        <ele>1098</ele>
        <time>2022-08-07T08:47:01Z</time>
      </trkpt>
      <trkpt lat="44.69096" lon="3.03421">
        <ele>1097.9</ele>
        <time>2022-08-07T08:47:02Z</time>
      </trkpt>
      <trkpt lat="44.69099" lon="3.03416">
        <ele>1097.7</ele>
        <time>2022-08-07T08:47:06Z</time>
      </trkpt>
      <trkpt lat="44.691" lon="3.03414">
        <ele>1097.5</ele>
        <time>2022-08-07T08:47:08Z</time>
      </trkpt>
      <trkpt lat="44.691" lon="3.03414">
        <ele>1097.5</ele>
        <time>2022-08-07T08:47:09Z</time>
      </trkpt>
      <trkpt lat="44.69102" lon="3.03413">
        <ele>1097.3</ele>
        <time>2022-08-07T08:47:10Z</time>
      </trkpt>
      <trkpt lat="44.69105" lon="3.03413">
        <ele>1096.7</ele>
        <time>2022-08-07T08:47:15Z</time>
      </trkpt>
      <trkpt lat="44.69108" lon="3.03413">
        <ele>1096.3</ele>
        <time>2022-08-07T08:47:18Z</time>
      </trkpt>
      <trkpt lat="44.69111" lon="3.03412">
        <ele>1095.8</ele>
        <time>2022-08-07T08:47:22Z</time>
      </trkpt>
      <trkpt lat="44.69113" lon="3.03413">
        <ele>1095.6</ele>
        <time>2022-08-07T08:47:24Z</time>
      </trkpt>
      <trkpt lat="44.69117" lon="3.03419">
        <ele>1095.2</ele>
        <time>2022-08-07T08:47:29Z</time>
      </trkpt>
      <trkpt lat="44.69118" lon="3.03421">
        <ele>1094.9</ele>
        <time>2022-08-07T08:47:30Z</time>
      </trkpt>
      <trkpt lat="44.69118" lon="3.03421">
        <ele>1094.9</ele>
        <time>2022-08-07T08:47:31Z</time>
      </trkpt>
      <trkpt lat="44.69123" lon="3.03429">
        <ele>1094</ele>
        <time>2022-08-07T08:47:38Z</time>
      </trkpt>
      <trkpt lat="44.69124" lon="3.03431">
        <ele>1093.8</ele>
        <time>2022-08-07T08:47:40Z</time>
      </trkpt>
      <trkpt lat="44.69127" lon="3.03435">
        <ele>1093.5</ele>
        <time>2022-08-07T08:47:44Z</time>
      </trkpt>
      <trkpt lat="44.69129" lon="3.03441">
        <ele>1093.1</ele>
        <time>2022-08-07T08:47:50Z</time>
      </trkpt>
      <trkpt lat="44.6913" lon="3.03442">
        <ele>1093</ele>
        <time>2022-08-07T08:47:51Z</time>
      </trkpt>
      <trkpt lat="44.69136" lon="3.0345">
        <ele>1091.8</ele>
        <time>2022-08-07T08:48:00Z</time>
      </trkpt>
      <trkpt lat="44.69141" lon="3.03449">
        <ele>1091.2</ele>
        <time>2022-08-07T08:48:05Z</time>
      </trkpt>
      <trkpt lat="44.69144" lon="3.03447">
        <ele>1091</ele>
        <time>2022-08-07T08:48:08Z</time>
      </trkpt>
      <trkpt lat="44.69144" lon="3.03446">
        <ele>1091.1</ele>
        <time>2022-08-07T08:48:09Z</time>
      </trkpt>
      <trkpt lat="44.69151" lon="3.03442">
        <ele>1090.2</ele>
        <time>2022-08-07T08:48:17Z</time>
      </trkpt>
      <trkpt lat="44.69152" lon="3.03442">
        <ele>1090.2</ele>
        <time>2022-08-07T08:48:18Z</time>
      </trkpt>
      <trkpt lat="44.69154" lon="3.03442">
        <ele>1089.8</ele>
        <time>2022-08-07T08:48:21Z</time>
      </trkpt>
      <trkpt lat="44.6916" lon="3.03442">
        <ele>1089</ele>
        <time>2022-08-07T08:48:26Z</time>
      </trkpt>
      <trkpt lat="44.69166" lon="3.03442">
        <ele>1088.2</ele>
        <time>2022-08-07T08:48:31Z</time>
      </trkpt>
      <trkpt lat="44.69171" lon="3.03444">
        <ele>1087.5</ele>
        <time>2022-08-07T08:48:37Z</time>
      </trkpt>
      <trkpt lat="44.69173" lon="3.03446">
        <ele>1087.2</ele>
        <time>2022-08-07T08:48:38Z</time>
      </trkpt>
      <trkpt lat="44.69179" lon="3.03451">
        <ele>1086.4</ele>
        <time>2022-08-07T08:48:46Z</time>
      </trkpt>
      <trkpt lat="44.6918" lon="3.03453">
        <ele>1086.2</ele>
        <time>2022-08-07T08:48:48Z</time>
      </trkpt>
      <trkpt lat="44.69187" lon="3.03467">
        <ele>1085.7</ele>
        <time>2022-08-07T08:48:57Z</time>
      </trkpt>
      <trkpt lat="44.69188" lon="3.03468">
        <ele>1085.8</ele>
        <time>2022-08-07T08:48:58Z</time>
      </trkpt>
      <trkpt lat="44.69189" lon="3.03471">
        <ele>1085.8</ele>
        <time>2022-08-07T08:49:00Z</time>
      </trkpt>
      <trkpt lat="44.69188" lon="3.03476">
        <ele>1085.2</ele>
        <time>2022-08-07T08:49:05Z</time>
      </trkpt>
      <trkpt lat="44.69186" lon="3.03481">
        <ele>1084.5</ele>
        <time>2022-08-07T08:49:08Z</time>
      </trkpt>
      <trkpt lat="44.69185" lon="3.03483">
        <ele>1084.3</ele>
        <time>2022-08-07T08:49:11Z</time>
      </trkpt>
      <trkpt lat="44.69185" lon="3.03485">
        <ele>1084</ele>
        <time>2022-08-07T08:49:13Z</time>
      </trkpt>
      <trkpt lat="44.69185" lon="3.03487">
        <ele>1083.7</ele>
        <time>2022-08-07T08:49:14Z</time>
      </trkpt>
      <trkpt lat="44.69186" lon="3.03489">
        <ele>1083.4</ele>
        <time>2022-08-07T08:49:17Z</time>
      </trkpt>
      <trkpt lat="44.69187" lon="3.03492">
        <ele>1083.1</ele>
        <time>2022-08-07T08:49:20Z</time>
      </trkpt>
      <trkpt lat="44.69192" lon="3.035">
        <ele>1082.1</ele>
        <time>2022-08-07T08:49:27Z</time>
      </trkpt>
      <trkpt lat="44.69193" lon="3.03501">
        <ele>1081.8</ele>
        <time>2022-08-07T08:49:28Z</time>
      </trkpt>
      <trkpt lat="44.69194" lon="3.03502">
        <ele>1081.7</ele>
        <time>2022-08-07T08:49:30Z</time>
      </trkpt>
      <trkpt lat="44.692" lon="3.03506">
        <ele>1080.8</ele>
        <time>2022-08-07T08:49:37Z</time>
      </trkpt>
      <trkpt lat="44.69204" lon="3.03508">
        <ele>1080.3</ele>
        <time>2022-08-07T08:49:42Z</time>
      </trkpt>
      <trkpt lat="44.69207" lon="3.03509">
        <ele>1079.9</ele>
        <time>2022-08-07T08:49:45Z</time>
      </trkpt>
      <trkpt lat="44.69212" lon="3.03511">
        <ele>1079.4</ele>
        <time>2022-08-07T08:49:50Z</time>
      </trkpt>
      <trkpt lat="44.69217" lon="3.03512">
        <ele>1079.1</ele>
        <time>2022-08-07T08:49:57Z</time>
      </trkpt>
      <trkpt lat="44.69217" lon="3.03511">
        <ele>1079.1</ele>
        <time>2022-08-07T08:49:58Z</time>
      </trkpt>
      <trkpt lat="44.6922" lon="3.03508">
        <ele>1079.3</ele>
        <time>2022-08-07T08:50:01Z</time>
      </trkpt>
      <trkpt lat="44.69224" lon="3.03506">
        <ele>1079.3</ele>
        <time>2022-08-07T08:50:05Z</time>
      </trkpt>
      <trkpt lat="44.69229" lon="3.03503">
        <ele>1079.2</ele>
        <time>2022-08-07T08:50:11Z</time>
      </trkpt>
      <trkpt lat="44.69232" lon="3.03504">
        <ele>1078.9</ele>
        <time>2022-08-07T08:50:14Z</time>
      </trkpt>
      <trkpt lat="44.69233" lon="3.03505">
        <ele>1078.7</ele>
        <time>2022-08-07T08:50:20Z</time>
      </trkpt>
      <trkpt lat="44.69232" lon="3.03501">
        <ele>1079.2</ele>
        <time>2022-08-07T08:50:25Z</time>
      </trkpt>
      <trkpt lat="44.69234" lon="3.03502">
        <ele>1079</ele>
        <time>2022-08-07T08:50:32Z</time>
      </trkpt>
      <trkpt lat="44.69237" lon="3.03502">
        <ele>1078.8</ele>
        <time>2022-08-07T08:50:40Z</time>
      </trkpt>
      <trkpt lat="44.69242" lon="3.03502">
        <ele>1078.4</ele>
        <time>2022-08-07T08:50:44Z</time>
      </trkpt>
      <trkpt lat="44.69258" lon="3.03504">
        <ele>1077.3</ele>
        <time>2022-08-07T08:50:54Z</time>
      </trkpt>
      <trkpt lat="44.69258" lon="3.03504">
        <ele>1077.3</ele>
        <time>2022-08-07T08:50:55Z</time>
      </trkpt>
      <trkpt lat="44.69266" lon="3.03509">
        <ele>1076.3</ele>
        <time>2022-08-07T08:51:02Z</time>
      </trkpt>
      <trkpt lat="44.69272" lon="3.03513">
        <ele>1075.4</ele>
        <time>2022-08-07T08:51:09Z</time>
      </trkpt>
      <trkpt lat="44.69276" lon="3.03515">
        <ele>1075</ele>
        <time>2022-08-07T08:51:12Z</time>
      </trkpt>
      <trkpt lat="44.69277" lon="3.03514">
        <ele>1075</ele>
        <time>2022-08-07T08:51:14Z</time>
      </trkpt>
      <trkpt lat="44.6928" lon="3.03513">
        <ele>1074.8</ele>
        <time>2022-08-07T08:51:17Z</time>
      </trkpt>
      <trkpt lat="44.6928" lon="3.03514">
        <ele>1074.6</ele>
        <time>2022-08-07T08:51:18Z</time>
      </trkpt>
      <trkpt lat="44.69282" lon="3.03514">
        <ele>1074.4</ele>
        <time>2022-08-07T08:51:19Z</time>
      </trkpt>
      <trkpt lat="44.69285" lon="3.03515">
        <ele>1073.8</ele>
        <time>2022-08-07T08:51:24Z</time>
      </trkpt>
      <trkpt lat="44.69286" lon="3.03515">
        <ele>1073.7</ele>
        <time>2022-08-07T08:51:25Z</time>
      </trkpt>
      <trkpt lat="44.69285" lon="3.03516">
        <ele>1073.6</ele>
        <time>2022-08-07T08:51:29Z</time>
      </trkpt>
      <trkpt lat="44.69286" lon="3.03519">
        <ele>1073.3</ele>
        <time>2022-08-07T08:51:38Z</time>
      </trkpt>
      <trkpt lat="44.69291" lon="3.03518">
        <ele>1072.7</ele>
        <time>2022-08-07T08:51:41Z</time>
      </trkpt>
      <trkpt lat="44.69295" lon="3.03519">
        <ele>1072</ele>
        <time>2022-08-07T08:51:45Z</time>
      </trkpt>
      <trkpt lat="44.69297" lon="3.03521">
        <ele>1071.6</ele>
        <time>2022-08-07T08:51:50Z</time>
      </trkpt>
      <trkpt lat="44.69297" lon="3.03521">
        <ele>1071.6</ele>
        <time>2022-08-07T08:51:51Z</time>
      </trkpt>
      <trkpt lat="44.69297" lon="3.03522">
        <ele>1071.6</ele>
        <time>2022-08-07T08:52:01Z</time>
      </trkpt>
      <trkpt lat="44.69297" lon="3.03522">
        <ele>1071.6</ele>
        <time>2022-08-07T08:52:11Z</time>
      </trkpt>
      <trkpt lat="44.69302" lon="3.03527">
        <ele>1070.5</ele>
        <time>2022-08-07T08:52:26Z</time>
      </trkpt>
      <trkpt lat="44.69303" lon="3.03527">
        <ele>1070.3</ele>
        <time>2022-08-07T08:52:28Z</time>
      </trkpt>
      <trkpt lat="44.69305" lon="3.03528">
        <ele>1070.1</ele>
        <time>2022-08-07T08:52:33Z</time>
      </trkpt>
      <trkpt lat="44.69305" lon="3.03528">
        <ele>1070</ele>
        <time>2022-08-07T08:52:37Z</time>
      </trkpt>
      <trkpt lat="44.69305" lon="3.03527">
        <ele>1070.2</ele>
        <time>2022-08-07T08:52:39Z</time>
      </trkpt>
      <trkpt lat="44.69306" lon="3.03527">
        <ele>1070</ele>
        <time>2022-08-07T08:52:47Z</time>
      </trkpt>
      <trkpt lat="44.69305" lon="3.03525">
        <ele>1070.3</ele>
        <time>2022-08-07T08:53:09Z</time>
      </trkpt>
      <trkpt lat="44.69305" lon="3.03523">
        <ele>1070.4</ele>
        <time>2022-08-07T08:54:00Z</time>
      </trkpt>
      <trkpt lat="44.69307" lon="3.03519">
        <ele>1070.4</ele>
        <time>2022-08-07T08:55:00Z</time>
      </trkpt>
      <trkpt lat="44.69314" lon="3.0352">
        <ele>1069.4</ele>
        <time>2022-08-07T08:55:06Z</time>
      </trkpt>
      <trkpt lat="44.69317" lon="3.0352">
        <ele>1069.2</ele>
        <time>2022-08-07T08:55:09Z</time>
      </trkpt>
      <trkpt lat="44.69323" lon="3.03519">
        <ele>1068.3</ele>
        <time>2022-08-07T08:55:14Z</time>
      </trkpt>
      <trkpt lat="44.69328" lon="3.03518">
        <ele>1067.7</ele>
        <time>2022-08-07T08:55:17Z</time>
      </trkpt>
      <trkpt lat="44.69336" lon="3.03514">
        <ele>1067</ele>
        <time>2022-08-07T08:55:26Z</time>
      </trkpt>
      <trkpt lat="44.69336" lon="3.03514">
        <ele>1067</ele>
        <time>2022-08-07T08:55:27Z</time>
      </trkpt>
      <trkpt lat="44.69337" lon="3.03513">
        <ele>1066.9</ele>
        <time>2022-08-07T08:55:28Z</time>
      </trkpt>
      <trkpt lat="44.6934" lon="3.03516">
        <ele>1066.9</ele>
        <time>2022-08-07T08:55:32Z</time>
      </trkpt>
      <trkpt lat="44.69341" lon="3.03517">
        <ele>1066.8</ele>
        <time>2022-08-07T08:55:34Z</time>
      </trkpt>
      <trkpt lat="44.6935" lon="3.03517">
        <ele>1066.6</ele>
        <time>2022-08-07T08:55:40Z</time>
      </trkpt>
      <trkpt lat="44.6935" lon="3.03517">
        <ele>1066.6</ele>
        <time>2022-08-07T08:55:41Z</time>
      </trkpt>
      <trkpt lat="44.69353" lon="3.03517">
        <ele>1066.6</ele>
        <time>2022-08-07T08:55:45Z</time>
      </trkpt>
      <trkpt lat="44.69352" lon="3.03518">
        <ele>1066.6</ele>
        <time>2022-08-07T08:55:47Z</time>
      </trkpt>
      <trkpt lat="44.69352" lon="3.03518">
        <ele>1066.6</ele>
        <time>2022-08-07T08:55:50Z</time>
      </trkpt>
      <trkpt lat="44.69355" lon="3.03513">
        <ele>1066.6</ele>
        <time>2022-08-07T08:55:55Z</time>
      </trkpt>
      <trkpt lat="44.69365" lon="3.03503">
        <ele>1066.5</ele>
        <time>2022-08-07T08:56:03Z</time>
      </trkpt>
      <trkpt lat="44.69374" lon="3.03498">
        <ele>1065.7</ele>
        <time>2022-08-07T08:56:11Z</time>
      </trkpt>
      <trkpt lat="44.69375" lon="3.03499">
        <ele>1065.5</ele>
        <time>2022-08-07T08:56:12Z</time>
      </trkpt>
      <trkpt lat="44.69378" lon="3.03498">
        <ele>1065.2</ele>
        <time>2022-08-07T08:56:13Z</time>
      </trkpt>
      <trkpt lat="44.69381" lon="3.03497">
        <ele>1064.9</ele>
        <time>2022-08-07T08:56:15Z</time>
      </trkpt>
      <trkpt lat="44.69382" lon="3.03497">
        <ele>1064.7</ele>
        <time>2022-08-07T08:56:17Z</time>
      </trkpt>
      <trkpt lat="44.694" lon="3.03507">
        <ele>1063.6</ele>
        <time>2022-08-07T08:56:28Z</time>
      </trkpt>
      <trkpt lat="44.69405" lon="3.0351">
        <ele>1063.5</ele>
        <time>2022-08-07T08:56:32Z</time>
      </trkpt>
      <trkpt lat="44.69413" lon="3.03516">
        <ele>1063.5</ele>
        <time>2022-08-07T08:56:40Z</time>
      </trkpt>
      <trkpt lat="44.69429" lon="3.03523">
        <ele>1066.1</ele>
        <time>2022-08-07T08:56:51Z</time>
      </trkpt>
      <trkpt lat="44.69434" lon="3.03522">
        <ele>1066.9</ele>
        <time>2022-08-07T08:56:56Z</time>
      </trkpt>
      <trkpt lat="44.69437" lon="3.0352">
        <ele>1067.4</ele>
        <time>2022-08-07T08:56:59Z</time>
      </trkpt>
      <trkpt lat="44.69439" lon="3.03519">
        <ele>1067.7</ele>
        <time>2022-08-07T08:57:05Z</time>
      </trkpt>
      <trkpt lat="44.69438" lon="3.03519">
        <ele>1067.6</ele>
        <time>2022-08-07T08:57:17Z</time>
      </trkpt>
      <trkpt lat="44.69445" lon="3.03515">
        <ele>1068.6</ele>
        <time>2022-08-07T08:57:23Z</time>
      </trkpt>
      <trkpt lat="44.69452" lon="3.03515">
        <ele>1069</ele>
        <time>2022-08-07T08:57:30Z</time>
      </trkpt>
      <trkpt lat="44.69453" lon="3.03516">
        <ele>1069.1</ele>
        <time>2022-08-07T08:57:34Z</time>
      </trkpt>
      <trkpt lat="44.69452" lon="3.03515">
        <ele>1069</ele>
        <time>2022-08-07T08:57:35Z</time>
      </trkpt>
      <trkpt lat="44.69448" lon="3.03509">
        <ele>1068.5</ele>
        <time>2022-08-07T08:57:42Z</time>
      </trkpt>
      <trkpt lat="44.69441" lon="3.03512">
        <ele>1067.7</ele>
        <time>2022-08-07T08:57:48Z</time>
      </trkpt>
      <trkpt lat="44.69441" lon="3.03512">
        <ele>1067.8</ele>
        <time>2022-08-07T08:57:50Z</time>
      </trkpt>
      <trkpt lat="44.69443" lon="3.03511">
        <ele>1068.1</ele>
        <time>2022-08-07T08:57:53Z</time>
      </trkpt>
      <trkpt lat="44.69445" lon="3.03512">
        <ele>1068.5</ele>
        <time>2022-08-07T08:57:57Z</time>
      </trkpt>
      <trkpt lat="44.6945" lon="3.03515">
        <ele>1068.9</ele>
        <time>2022-08-07T08:58:07Z</time>
      </trkpt>
      <trkpt lat="44.69452" lon="3.03518">
        <ele>1069.2</ele>
        <time>2022-08-07T08:58:14Z</time>
      </trkpt>
      <trkpt lat="44.69446" lon="3.03516">
        <ele>1068.7</ele>
        <time>2022-08-07T08:58:24Z</time>
      </trkpt>
      <trkpt lat="44.69435" lon="3.03513">
        <ele>1066.7</ele>
        <time>2022-08-07T08:58:34Z</time>
      </trkpt>
      <trkpt lat="44.69433" lon="3.03512">
        <ele>1066.4</ele>
        <time>2022-08-07T08:58:37Z</time>
      </trkpt>
      <trkpt lat="44.69433" lon="3.03511">
        <ele>1066.3</ele>
        <time>2022-08-07T08:58:40Z</time>
      </trkpt>
      <trkpt lat="44.69432" lon="3.03513">
        <ele>1066.2</ele>
        <time>2022-08-07T08:58:49Z</time>
      </trkpt>
      <trkpt lat="44.69432" lon="3.03513">
        <ele>1066.2</ele>
        <time>2022-08-07T08:59:06Z</time>
      </trkpt>
      <trkpt lat="44.69433" lon="3.03509">
        <ele>1066.2</ele>
        <time>2022-08-07T08:59:26Z</time>
      </trkpt>
      <trkpt lat="44.69433" lon="3.03509">
        <ele>1066.2</ele>
        <time>2022-08-07T08:59:27Z</time>
      </trkpt>
      <trkpt lat="44.69433" lon="3.0351">
        <ele>1066.2</ele>
        <time>2022-08-07T08:59:35Z</time>
      </trkpt>
      <trkpt lat="44.69434" lon="3.03511">
        <ele>1066.5</ele>
        <time>2022-08-07T09:00:17Z</time>
      </trkpt>
      <trkpt lat="44.69434" lon="3.03511">
        <ele>1066.5</ele>
        <time>2022-08-07T09:00:20Z</time>
      </trkpt>
      <trkpt lat="44.69434" lon="3.0351">
        <ele>1066.5</ele>
        <time>2022-08-07T09:00:47Z</time>
      </trkpt>
      <trkpt lat="44.69433" lon="3.03509">
        <ele>1066.3</ele>
        <time>2022-08-07T09:01:02Z</time>
      </trkpt>
      <trkpt lat="44.69433" lon="3.0351">
        <ele>1066.4</ele>
        <time>2022-08-07T09:01:34Z</time>
      </trkpt>
      <trkpt lat="44.69438" lon="3.03515">
        <ele>1067.3</ele>
        <time>2022-08-07T09:02:13Z</time>
      </trkpt>
      <trkpt lat="44.6944" lon="3.03518">
        <ele>1067.8</ele>
        <time>2022-08-07T09:02:21Z</time>
      </trkpt>
      <trkpt lat="44.69439" lon="3.03517">
        <ele>1067.7</ele>
        <time>2022-08-07T09:02:27Z</time>
      </trkpt>
      <trkpt lat="44.6944" lon="3.03522">
        <ele>1068.1</ele>
        <time>2022-08-07T09:02:35Z</time>
      </trkpt>
      <trkpt lat="44.69446" lon="3.03532">
        <ele>1069.8</ele>
        <time>2022-08-07T09:02:42Z</time>
      </trkpt>
      <trkpt lat="44.69452" lon="3.03535">
        <ele>1071</ele>
        <time>2022-08-07T09:02:48Z</time>
      </trkpt>
      <trkpt lat="44.69454" lon="3.03537">
        <ele>1071.4</ele>
        <time>2022-08-07T09:02:50Z</time>
      </trkpt>
      <trkpt lat="44.69457" lon="3.03539">
        <ele>1072.2</ele>
        <time>2022-08-07T09:02:54Z</time>
      </trkpt>
      <trkpt lat="44.69457" lon="3.0354">
        <ele>1072.2</ele>
        <time>2022-08-07T09:02:55Z</time>
      </trkpt>
      <trkpt lat="44.69457" lon="3.0354">
        <ele>1072.4</ele>
        <time>2022-08-07T09:02:57Z</time>
      </trkpt>
      <trkpt lat="44.69465" lon="3.03537">
        <ele>1072.8</ele>
        <time>2022-08-07T09:03:05Z</time>
      </trkpt>
      <trkpt lat="44.69466" lon="3.03538">
        <ele>1073</ele>
        <time>2022-08-07T09:03:06Z</time>
      </trkpt>
      <trkpt lat="44.69467" lon="3.03539">
        <ele>1073.4</ele>
        <time>2022-08-07T09:03:08Z</time>
      </trkpt>
      <trkpt lat="44.69468" lon="3.03542">
        <ele>1073.9</ele>
        <time>2022-08-07T09:03:12Z</time>
      </trkpt>
      <trkpt lat="44.69468" lon="3.03543">
        <ele>1074.1</ele>
        <time>2022-08-07T09:03:14Z</time>
      </trkpt>
      <trkpt lat="44.69466" lon="3.03545">
        <ele>1074.2</ele>
        <time>2022-08-07T09:03:16Z</time>
      </trkpt>
      <trkpt lat="44.69464" lon="3.03547">
        <ele>1074.4</ele>
        <time>2022-08-07T09:03:18Z</time>
      </trkpt>
      <trkpt lat="44.69456" lon="3.03556">
        <ele>1074.7</ele>
        <time>2022-08-07T09:03:28Z</time>
      </trkpt>
      <trkpt lat="44.69453" lon="3.0356">
        <ele>1074.9</ele>
        <time>2022-08-07T09:03:32Z</time>
      </trkpt>
      <trkpt lat="44.69446" lon="3.03569">
        <ele>1075.1</ele>
        <time>2022-08-07T09:03:41Z</time>
      </trkpt>
      <trkpt lat="44.69444" lon="3.03573">
        <ele>1075.4</ele>
        <time>2022-08-07T09:03:44Z</time>
      </trkpt>
      <trkpt lat="44.69443" lon="3.03574">
        <ele>1075.5</ele>
        <time>2022-08-07T09:03:45Z</time>
      </trkpt>
      <trkpt lat="44.69438" lon="3.03582">
        <ele>1075.7</ele>
        <time>2022-08-07T09:03:52Z</time>
      </trkpt>
      <trkpt lat="44.69435" lon="3.03589">
        <ele>1076</ele>
        <time>2022-08-07T09:03:59Z</time>
      </trkpt>
      <trkpt lat="44.6943" lon="3.03597">
        <ele>1076.4</ele>
        <time>2022-08-07T09:04:06Z</time>
      </trkpt>
      <trkpt lat="44.69429" lon="3.03598">
        <ele>1076.2</ele>
        <time>2022-08-07T09:04:08Z</time>
      </trkpt>
      <trkpt lat="44.69428" lon="3.03599">
        <ele>1076.3</ele>
        <time>2022-08-07T09:04:11Z</time>
      </trkpt>
      <trkpt lat="44.69428" lon="3.036">
        <ele>1076.4</ele>
        <time>2022-08-07T09:04:14Z</time>
      </trkpt>
      <trkpt lat="44.69426" lon="3.03601">
        <ele>1076.3</ele>
        <time>2022-08-07T09:04:20Z</time>
      </trkpt>
      <trkpt lat="44.69427" lon="3.03601">
        <ele>1076.4</ele>
        <time>2022-08-07T09:04:24Z</time>
      </trkpt>
      <trkpt lat="44.69427" lon="3.03601">
        <ele>1076.4</ele>
        <time>2022-08-07T09:04:28Z</time>
      </trkpt>
      <trkpt lat="44.69424" lon="3.03611">
        <ele>1077.2</ele>
        <time>2022-08-07T09:04:36Z</time>
      </trkpt>
      <trkpt lat="44.69417" lon="3.0363">
        <ele>1078.1</ele>
        <time>2022-08-07T09:04:47Z</time>
      </trkpt>
      <trkpt lat="44.69411" lon="3.03646">
        <ele>1078.5</ele>
        <time>2022-08-07T09:04:58Z</time>
      </trkpt>
      <trkpt lat="44.6941" lon="3.03649">
        <ele>1078.7</ele>
        <time>2022-08-07T09:05:00Z</time>
      </trkpt>
      <trkpt lat="44.69409" lon="3.0365">
        <ele>1078.7</ele>
        <time>2022-08-07T09:05:02Z</time>
      </trkpt>
      <trkpt lat="44.69404" lon="3.03661">
        <ele>1079.2</ele>
        <time>2022-08-07T09:05:11Z</time>
      </trkpt>
      <trkpt lat="44.69397" lon="3.03675">
        <ele>1079.7</ele>
        <time>2022-08-07T09:05:22Z</time>
      </trkpt>
      <trkpt lat="44.6939" lon="3.03689">
        <ele>1080.3</ele>
        <time>2022-08-07T09:05:33Z</time>
      </trkpt>
      <trkpt lat="44.69388" lon="3.03693">
        <ele>1080.3</ele>
        <time>2022-08-07T09:05:36Z</time>
      </trkpt>
      <trkpt lat="44.69387" lon="3.03694">
        <ele>1080.5</ele>
        <time>2022-08-07T09:05:37Z</time>
      </trkpt>
      <trkpt lat="44.69385" lon="3.03699">
        <ele>1081.1</ele>
        <time>2022-08-07T09:05:41Z</time>
      </trkpt>
      <trkpt lat="44.69373" lon="3.03715">
        <ele>1082.3</ele>
        <time>2022-08-07T09:05:55Z</time>
      </trkpt>
      <trkpt lat="44.69366" lon="3.03724">
        <ele>1082.5</ele>
        <time>2022-08-07T09:06:05Z</time>
      </trkpt>
      <trkpt lat="44.6936" lon="3.0373">
        <ele>1082.3</ele>
        <time>2022-08-07T09:06:11Z</time>
      </trkpt>
      <trkpt lat="44.6936" lon="3.03731">
        <ele>1082.4</ele>
        <time>2022-08-07T09:06:13Z</time>
      </trkpt>
      <trkpt lat="44.69357" lon="3.03735">
        <ele>1082.6</ele>
        <time>2022-08-07T09:06:16Z</time>
      </trkpt>
      <trkpt lat="44.69351" lon="3.03741">
        <ele>1082.6</ele>
        <time>2022-08-07T09:06:23Z</time>
      </trkpt>
      <trkpt lat="44.69342" lon="3.03752">
        <ele>1082.8</ele>
        <time>2022-08-07T09:06:34Z</time>
      </trkpt>
      <trkpt lat="44.69332" lon="3.03764">
        <ele>1083.3</ele>
        <time>2022-08-07T09:06:45Z</time>
      </trkpt>
      <trkpt lat="44.69331" lon="3.03767">
        <ele>1083.4</ele>
        <time>2022-08-07T09:06:47Z</time>
      </trkpt>
      <trkpt lat="44.6933" lon="3.03768">
        <ele>1083.4</ele>
        <time>2022-08-07T09:06:48Z</time>
      </trkpt>
      <trkpt lat="44.69324" lon="3.03776">
        <ele>1083.3</ele>
        <time>2022-08-07T09:06:55Z</time>
      </trkpt>
      <trkpt lat="44.69318" lon="3.03784">
        <ele>1083.4</ele>
        <time>2022-08-07T09:07:02Z</time>
      </trkpt>
      <trkpt lat="44.69315" lon="3.03787">
        <ele>1083.2</ele>
        <time>2022-08-07T09:07:06Z</time>
      </trkpt>
      <trkpt lat="44.69306" lon="3.03798">
        <ele>1083.6</ele>
        <time>2022-08-07T09:07:16Z</time>
      </trkpt>
      <trkpt lat="44.69299" lon="3.03806">
        <ele>1084.6</ele>
        <time>2022-08-07T09:07:24Z</time>
      </trkpt>
      <trkpt lat="44.69294" lon="3.03811">
        <ele>1085</ele>
        <time>2022-08-07T09:07:30Z</time>
      </trkpt>
      <trkpt lat="44.6928" lon="3.03822">
        <ele>1085.6</ele>
        <time>2022-08-07T09:07:43Z</time>
      </trkpt>
      <trkpt lat="44.69277" lon="3.03826">
        <ele>1085.8</ele>
        <time>2022-08-07T09:07:46Z</time>
      </trkpt>
      <trkpt lat="44.6927" lon="3.03835">
        <ele>1086.1</ele>
        <time>2022-08-07T09:07:54Z</time>
      </trkpt>
      <trkpt lat="44.69261" lon="3.03854">
        <ele>1086.8</ele>
        <time>2022-08-07T09:08:08Z</time>
      </trkpt>
      <trkpt lat="44.69259" lon="3.03858">
        <ele>1087</ele>
        <time>2022-08-07T09:08:11Z</time>
      </trkpt>
      <trkpt lat="44.69256" lon="3.0387">
        <ele>1087.4</ele>
        <time>2022-08-07T09:08:20Z</time>
      </trkpt>
      <trkpt lat="44.69256" lon="3.03876">
        <ele>1087.9</ele>
        <time>2022-08-07T09:08:24Z</time>
      </trkpt>
      <trkpt lat="44.69254" lon="3.03886">
        <ele>1088.3</ele>
        <time>2022-08-07T09:08:30Z</time>
      </trkpt>
      <trkpt lat="44.69249" lon="3.03902">
        <ele>1089.3</ele>
        <time>2022-08-07T09:08:41Z</time>
      </trkpt>
      <trkpt lat="44.69247" lon="3.03912">
        <ele>1090.1</ele>
        <time>2022-08-07T09:08:47Z</time>
      </trkpt>
      <trkpt lat="44.69246" lon="3.03916">
        <ele>1090.4</ele>
        <time>2022-08-07T09:08:51Z</time>
      </trkpt>
      <trkpt lat="44.69246" lon="3.03917">
        <ele>1090.5</ele>
        <time>2022-08-07T09:08:53Z</time>
      </trkpt>
      <trkpt lat="44.69245" lon="3.03918">
        <ele>1090.5</ele>
        <time>2022-08-07T09:08:55Z</time>
      </trkpt>
      <trkpt lat="44.69246" lon="3.03922">
        <ele>1090.8</ele>
        <time>2022-08-07T09:08:59Z</time>
      </trkpt>
      <trkpt lat="44.69246" lon="3.03927">
        <ele>1091</ele>
        <time>2022-08-07T09:09:03Z</time>
      </trkpt>
      <trkpt lat="44.69245" lon="3.03928">
        <ele>1090.9</ele>
        <time>2022-08-07T09:09:05Z</time>
      </trkpt>
      <trkpt lat="44.69248" lon="3.03938">
        <ele>1091.6</ele>
        <time>2022-08-07T09:09:12Z</time>
      </trkpt>
      <trkpt lat="44.69255" lon="3.03948">
        <ele>1092.4</ele>
        <time>2022-08-07T09:09:20Z</time>
      </trkpt>
      <trkpt lat="44.69261" lon="3.03957">
        <ele>1093.1</ele>
        <time>2022-08-07T09:09:28Z</time>
      </trkpt>
      <trkpt lat="44.69263" lon="3.03958">
        <ele>1093.2</ele>
        <time>2022-08-07T09:09:30Z</time>
      </trkpt>
      <trkpt lat="44.69267" lon="3.03961">
        <ele>1093.5</ele>
        <time>2022-08-07T09:09:37Z</time>
      </trkpt>
      <trkpt lat="44.69274" lon="3.03966">
        <ele>1093.8</ele>
        <time>2022-08-07T09:09:45Z</time>
      </trkpt>
      <trkpt lat="44.69276" lon="3.03967">
        <ele>1093.9</ele>
        <time>2022-08-07T09:09:46Z</time>
      </trkpt>
      <trkpt lat="44.69285" lon="3.03976">
        <ele>1095.3</ele>
        <time>2022-08-07T09:09:55Z</time>
      </trkpt>
      <trkpt lat="44.69286" lon="3.03978">
        <ele>1095.6</ele>
        <time>2022-08-07T09:09:57Z</time>
      </trkpt>
      <trkpt lat="44.69292" lon="3.03991">
        <ele>1096.6</ele>
        <time>2022-08-07T09:10:06Z</time>
      </trkpt>
      <trkpt lat="44.69296" lon="3.03999">
        <ele>1097</ele>
        <time>2022-08-07T09:10:12Z</time>
      </trkpt>
      <trkpt lat="44.69296" lon="3.04001">
        <ele>1097</ele>
        <time>2022-08-07T09:10:13Z</time>
      </trkpt>
      <trkpt lat="44.69298" lon="3.0401">
        <ele>1097.2</ele>
        <time>2022-08-07T09:10:19Z</time>
      </trkpt>
      <trkpt lat="44.693" lon="3.04014">
        <ele>1097.4</ele>
        <time>2022-08-07T09:10:22Z</time>
      </trkpt>
      <trkpt lat="44.69302" lon="3.04025">
        <ele>1097.6</ele>
        <time>2022-08-07T09:10:29Z</time>
      </trkpt>
      <trkpt lat="44.69303" lon="3.04031">
        <ele>1097.8</ele>
        <time>2022-08-07T09:10:33Z</time>
      </trkpt>
      <trkpt lat="44.69304" lon="3.0404">
        <ele>1098.2</ele>
        <time>2022-08-07T09:10:39Z</time>
      </trkpt>
      <trkpt lat="44.69304" lon="3.04043">
        <ele>1098.4</ele>
        <time>2022-08-07T09:10:41Z</time>
      </trkpt>
      <trkpt lat="44.69308" lon="3.04059">
        <ele>1099.2</ele>
        <time>2022-08-07T09:10:51Z</time>
      </trkpt>
      <trkpt lat="44.69308" lon="3.04071">
        <ele>1099.2</ele>
        <time>2022-08-07T09:10:59Z</time>
      </trkpt>
      <trkpt lat="44.69308" lon="3.04077">
        <ele>1099.2</ele>
        <time>2022-08-07T09:11:02Z</time>
      </trkpt>
      <trkpt lat="44.69308" lon="3.04089">
        <ele>1099.3</ele>
        <time>2022-08-07T09:11:09Z</time>
      </trkpt>
      <trkpt lat="44.69306" lon="3.04105">
        <ele>1099.8</ele>
        <time>2022-08-07T09:11:19Z</time>
      </trkpt>
      <trkpt lat="44.69306" lon="3.04114">
        <ele>1100.1</ele>
        <time>2022-08-07T09:11:25Z</time>
      </trkpt>
      <trkpt lat="44.69306" lon="3.04117">
        <ele>1100.3</ele>
        <time>2022-08-07T09:11:27Z</time>
      </trkpt>
      <trkpt lat="44.69304" lon="3.04135">
        <ele>1100.7</ele>
        <time>2022-08-07T09:11:38Z</time>
      </trkpt>
      <trkpt lat="44.69302" lon="3.04148">
        <ele>1101.1</ele>
        <time>2022-08-07T09:11:47Z</time>
      </trkpt>
      <trkpt lat="44.69301" lon="3.04156">
        <ele>1101.3</ele>
        <time>2022-08-07T09:11:52Z</time>
      </trkpt>
      <trkpt lat="44.693" lon="3.04164">
        <ele>1101.5</ele>
        <time>2022-08-07T09:11:57Z</time>
      </trkpt>
      <trkpt lat="44.69298" lon="3.04174">
        <ele>1102.2</ele>
        <time>2022-08-07T09:12:04Z</time>
      </trkpt>
      <trkpt lat="44.69297" lon="3.04176">
        <ele>1102.3</ele>
        <time>2022-08-07T09:12:05Z</time>
      </trkpt>
      <trkpt lat="44.69296" lon="3.04177">
        <ele>1102.4</ele>
        <time>2022-08-07T09:12:06Z</time>
      </trkpt>
      <trkpt lat="44.69295" lon="3.0418">
        <ele>1102.6</ele>
        <time>2022-08-07T09:12:08Z</time>
      </trkpt>
      <trkpt lat="44.69293" lon="3.04187">
        <ele>1103.2</ele>
        <time>2022-08-07T09:12:13Z</time>
      </trkpt>
      <trkpt lat="44.69285" lon="3.04198">
        <ele>1104</ele>
        <time>2022-08-07T09:12:24Z</time>
      </trkpt>
      <trkpt lat="44.69283" lon="3.042">
        <ele>1104.2</ele>
        <time>2022-08-07T09:12:25Z</time>
      </trkpt>
      <trkpt lat="44.69271" lon="3.04214">
        <ele>1105.5</ele>
        <time>2022-08-07T09:12:38Z</time>
      </trkpt>
      <trkpt lat="44.69269" lon="3.04216">
        <ele>1105.6</ele>
        <time>2022-08-07T09:12:40Z</time>
      </trkpt>
      <trkpt lat="44.69262" lon="3.04219">
        <ele>1105.8</ele>
        <time>2022-08-07T09:12:47Z</time>
      </trkpt>
      <trkpt lat="44.69249" lon="3.04227">
        <ele>1106.7</ele>
        <time>2022-08-07T09:12:59Z</time>
      </trkpt>
      <trkpt lat="44.6924" lon="3.04231">
        <ele>1106.9</ele>
        <time>2022-08-07T09:13:08Z</time>
      </trkpt>
      <trkpt lat="44.69235" lon="3.04234">
        <ele>1107.1</ele>
        <time>2022-08-07T09:13:12Z</time>
      </trkpt>
      <trkpt lat="44.6923" lon="3.04238">
        <ele>1107.4</ele>
        <time>2022-08-07T09:13:18Z</time>
      </trkpt>
      <trkpt lat="44.69215" lon="3.04245">
        <ele>1108.3</ele>
        <time>2022-08-07T09:13:31Z</time>
      </trkpt>
      <trkpt lat="44.69213" lon="3.04246">
        <ele>1108.5</ele>
        <time>2022-08-07T09:13:33Z</time>
      </trkpt>
      <trkpt lat="44.69203" lon="3.04249">
        <ele>1109.5</ele>
        <time>2022-08-07T09:13:42Z</time>
      </trkpt>
      <trkpt lat="44.69197" lon="3.04249">
        <ele>1109.8</ele>
        <time>2022-08-07T09:13:48Z</time>
      </trkpt>
      <trkpt lat="44.69194" lon="3.04249">
        <ele>1109.9</ele>
        <time>2022-08-07T09:13:51Z</time>
      </trkpt>
      <trkpt lat="44.69185" lon="3.04251">
        <ele>1110.5</ele>
        <time>2022-08-07T09:14:00Z</time>
      </trkpt>
      <trkpt lat="44.69181" lon="3.04252">
        <ele>1110.8</ele>
        <time>2022-08-07T09:14:02Z</time>
      </trkpt>
      <trkpt lat="44.69173" lon="3.04254">
        <ele>1111.4</ele>
        <time>2022-08-07T09:14:10Z</time>
      </trkpt>
      <trkpt lat="44.69162" lon="3.04256">
        <ele>1112</ele>
        <time>2022-08-07T09:14:19Z</time>
      </trkpt>
      <trkpt lat="44.6916" lon="3.04257">
        <ele>1112.3</ele>
        <time>2022-08-07T09:14:21Z</time>
      </trkpt>
      <trkpt lat="44.69145" lon="3.04261">
        <ele>1113.3</ele>
        <time>2022-08-07T09:14:34Z</time>
      </trkpt>
      <trkpt lat="44.69132" lon="3.04263">
        <ele>1113.7</ele>
        <time>2022-08-07T09:14:46Z</time>
      </trkpt>
      <trkpt lat="44.69127" lon="3.04264">
        <ele>1113.8</ele>
        <time>2022-08-07T09:14:50Z</time>
      </trkpt>
      <trkpt lat="44.69124" lon="3.04266">
        <ele>1113.9</ele>
        <time>2022-08-07T09:14:55Z</time>
      </trkpt>
      <trkpt lat="44.69123" lon="3.04266">
        <ele>1114</ele>
        <time>2022-08-07T09:14:56Z</time>
      </trkpt>
      <trkpt lat="44.69122" lon="3.04266">
        <ele>1114</ele>
        <time>2022-08-07T09:14:57Z</time>
      </trkpt>
      <trkpt lat="44.6912" lon="3.04268">
        <ele>1114.2</ele>
        <time>2022-08-07T09:15:02Z</time>
      </trkpt>
      <trkpt lat="44.69117" lon="3.0427">
        <ele>1114.3</ele>
        <time>2022-08-07T09:15:05Z</time>
      </trkpt>
      <trkpt lat="44.69115" lon="3.04271">
        <ele>1114.4</ele>
        <time>2022-08-07T09:15:10Z</time>
      </trkpt>
      <trkpt lat="44.69112" lon="3.04275">
        <ele>1114.8</ele>
        <time>2022-08-07T09:15:22Z</time>
      </trkpt>
      <trkpt lat="44.69107" lon="3.04282">
        <ele>1115.4</ele>
        <time>2022-08-07T09:15:29Z</time>
      </trkpt>
      <trkpt lat="44.69104" lon="3.04286">
        <ele>1115.7</ele>
        <time>2022-08-07T09:15:32Z</time>
      </trkpt>
      <trkpt lat="44.69096" lon="3.04301">
        <ele>1117.1</ele>
        <time>2022-08-07T09:15:44Z</time>
      </trkpt>
      <trkpt lat="44.69095" lon="3.04302">
        <ele>1117.2</ele>
        <time>2022-08-07T09:15:45Z</time>
      </trkpt>
      <trkpt lat="44.69094" lon="3.04304">
        <ele>1117.4</ele>
        <time>2022-08-07T09:15:46Z</time>
      </trkpt>
      <trkpt lat="44.69091" lon="3.04315">
        <ele>1117.8</ele>
        <time>2022-08-07T09:15:54Z</time>
      </trkpt>
      <trkpt lat="44.69091" lon="3.04318">
        <ele>1117.8</ele>
        <time>2022-08-07T09:15:57Z</time>
      </trkpt>
      <trkpt lat="44.69091" lon="3.04318">
        <ele>1117.9</ele>
        <time>2022-08-07T09:15:58Z</time>
      </trkpt>
      <trkpt lat="44.69091" lon="3.04318">
        <ele>1117.9</ele>
        <time>2022-08-07T09:16:00Z</time>
      </trkpt>
      <trkpt lat="44.69092" lon="3.04326">
        <ele>1117.9</ele>
        <time>2022-08-07T09:16:07Z</time>
      </trkpt>
      <trkpt lat="44.69092" lon="3.04342">
        <ele>1118.3</ele>
        <time>2022-08-07T09:16:17Z</time>
      </trkpt>
      <trkpt lat="44.69092" lon="3.04342">
        <ele>1118.3</ele>
        <time>2022-08-07T09:16:18Z</time>
      </trkpt>
      <trkpt lat="44.69091" lon="3.04342">
        <ele>1118.3</ele>
        <time>2022-08-07T09:16:20Z</time>
      </trkpt>
      <trkpt lat="44.69091" lon="3.04343">
        <ele>1118.3</ele>
        <time>2022-08-07T09:16:21Z</time>
      </trkpt>
      <trkpt lat="44.69092" lon="3.04343">
        <ele>1118.3</ele>
        <time>2022-08-07T09:16:22Z</time>
      </trkpt>
      <trkpt lat="44.69093" lon="3.04351">
        <ele>1118.6</ele>
        <time>2022-08-07T09:16:27Z</time>
      </trkpt>
      <trkpt lat="44.69096" lon="3.04366">
        <ele>1119.2</ele>
        <time>2022-08-07T09:16:36Z</time>
      </trkpt>
      <trkpt lat="44.69097" lon="3.04374">
        <ele>1119.7</ele>
        <time>2022-08-07T09:16:41Z</time>
      </trkpt>
      <trkpt lat="44.69097" lon="3.04378">
        <ele>1119.9</ele>
        <time>2022-08-07T09:16:44Z</time>
      </trkpt>
      <trkpt lat="44.69101" lon="3.044">
        <ele>1120.5</ele>
        <time>2022-08-07T09:16:58Z</time>
      </trkpt>
      <trkpt lat="44.69101" lon="3.04408">
        <ele>1120.4</ele>
        <time>2022-08-07T09:17:03Z</time>
      </trkpt>
      <trkpt lat="44.69102" lon="3.04416">
        <ele>1120.3</ele>
        <time>2022-08-07T09:17:08Z</time>
      </trkpt>
      <trkpt lat="44.69104" lon="3.04433">
        <ele>1120.8</ele>
        <time>2022-08-07T09:17:19Z</time>
      </trkpt>
      <trkpt lat="44.69106" lon="3.04451">
        <ele>1121.3</ele>
        <time>2022-08-07T09:17:31Z</time>
      </trkpt>
      <trkpt lat="44.69108" lon="3.04472">
        <ele>1122</ele>
        <time>2022-08-07T09:17:44Z</time>
      </trkpt>
      <trkpt lat="44.6911" lon="3.04489">
        <ele>1122.6</ele>
        <time>2022-08-07T09:17:55Z</time>
      </trkpt>
      <trkpt lat="44.69112" lon="3.04505">
        <ele>1123</ele>
        <time>2022-08-07T09:18:05Z</time>
      </trkpt>
      <trkpt lat="44.69114" lon="3.04525">
        <ele>1123.1</ele>
        <time>2022-08-07T09:18:18Z</time>
      </trkpt>
      <trkpt lat="44.69115" lon="3.04531">
        <ele>1123.1</ele>
        <time>2022-08-07T09:18:23Z</time>
      </trkpt>
      <trkpt lat="44.69115" lon="3.04533">
        <ele>1123.2</ele>
        <time>2022-08-07T09:18:25Z</time>
      </trkpt>
      <trkpt lat="44.69117" lon="3.04552">
        <ele>1123.4</ele>
        <time>2022-08-07T09:18:36Z</time>
      </trkpt>
      <trkpt lat="44.69119" lon="3.04578">
        <ele>1124.2</ele>
        <time>2022-08-07T09:18:52Z</time>
      </trkpt>
      <trkpt lat="44.69121" lon="3.04594">
        <ele>1124.7</ele>
        <time>2022-08-07T09:19:02Z</time>
      </trkpt>
      <trkpt lat="44.69125" lon="3.04619">
        <ele>1125.8</ele>
        <time>2022-08-07T09:19:18Z</time>
      </trkpt>
      <trkpt lat="44.69126" lon="3.04621">
        <ele>1125.9</ele>
        <time>2022-08-07T09:19:23Z</time>
      </trkpt>
      <trkpt lat="44.69125" lon="3.04621">
        <ele>1125.9</ele>
        <time>2022-08-07T09:19:24Z</time>
      </trkpt>
      <trkpt lat="44.69125" lon="3.04625">
        <ele>1126</ele>
        <time>2022-08-07T09:19:31Z</time>
      </trkpt>
      <trkpt lat="44.69125" lon="3.04626">
        <ele>1126</ele>
        <time>2022-08-07T09:19:36Z</time>
      </trkpt>
      <trkpt lat="44.69125" lon="3.04626">
        <ele>1126</ele>
        <time>2022-08-07T09:19:42Z</time>
      </trkpt>
      <trkpt lat="44.69125" lon="3.04626">
        <ele>1126</ele>
        <time>2022-08-07T09:19:57Z</time>
      </trkpt>
      <trkpt lat="44.69125" lon="3.04626">
        <ele>1126</ele>
        <time>2022-08-07T09:20:28Z</time>
      </trkpt>
      <trkpt lat="44.69126" lon="3.04635">
        <ele>1126.4</ele>
        <time>2022-08-07T09:20:35Z</time>
      </trkpt>
      <trkpt lat="44.69129" lon="3.04655">
        <ele>1127</ele>
        <time>2022-08-07T09:20:46Z</time>
      </trkpt>
      <trkpt lat="44.69131" lon="3.04679">
        <ele>1128.2</ele>
        <time>2022-08-07T09:20:59Z</time>
      </trkpt>
      <trkpt lat="44.69131" lon="3.04681">
        <ele>1128.3</ele>
        <time>2022-08-07T09:21:00Z</time>
      </trkpt>
      <trkpt lat="44.69132" lon="3.04695">
        <ele>1129.3</ele>
        <time>2022-08-07T09:21:09Z</time>
      </trkpt>
      <trkpt lat="44.69134" lon="3.04712">
        <ele>1130.2</ele>
        <time>2022-08-07T09:21:19Z</time>
      </trkpt>
      <trkpt lat="44.69135" lon="3.04718">
        <ele>1130.5</ele>
        <time>2022-08-07T09:21:23Z</time>
      </trkpt>
      <trkpt lat="44.69137" lon="3.04734">
        <ele>1131.7</ele>
        <time>2022-08-07T09:21:34Z</time>
      </trkpt>
      <trkpt lat="44.69138" lon="3.04745">
        <ele>1132.6</ele>
        <time>2022-08-07T09:21:40Z</time>
      </trkpt>
      <trkpt lat="44.6914" lon="3.04754">
        <ele>1133.1</ele>
        <time>2022-08-07T09:21:47Z</time>
      </trkpt>
      <trkpt lat="44.69142" lon="3.04764">
        <ele>1133.5</ele>
        <time>2022-08-07T09:21:54Z</time>
      </trkpt>
      <trkpt lat="44.69143" lon="3.04769">
        <ele>1133.7</ele>
        <time>2022-08-07T09:21:57Z</time>
      </trkpt>
      <trkpt lat="44.69148" lon="3.04789">
        <ele>1134.7</ele>
        <time>2022-08-07T09:22:09Z</time>
      </trkpt>
      <trkpt lat="44.6915" lon="3.04793">
        <ele>1134.9</ele>
        <time>2022-08-07T09:22:12Z</time>
      </trkpt>
      <trkpt lat="44.69151" lon="3.04797">
        <ele>1135.2</ele>
        <time>2022-08-07T09:22:15Z</time>
      </trkpt>
      <trkpt lat="44.69152" lon="3.048">
        <ele>1135.4</ele>
        <time>2022-08-07T09:22:17Z</time>
      </trkpt>
      <trkpt lat="44.6916" lon="3.04817">
        <ele>1136.2</ele>
        <time>2022-08-07T09:22:30Z</time>
      </trkpt>
      <trkpt lat="44.69165" lon="3.04826">
        <ele>1136.3</ele>
        <time>2022-08-07T09:22:37Z</time>
      </trkpt>
      <trkpt lat="44.69166" lon="3.04829">
        <ele>1136.3</ele>
        <time>2022-08-07T09:22:39Z</time>
      </trkpt>
      <trkpt lat="44.6917" lon="3.04837">
        <ele>1136.4</ele>
        <time>2022-08-07T09:22:45Z</time>
      </trkpt>
      <trkpt lat="44.69171" lon="3.04838">
        <ele>1136.4</ele>
        <time>2022-08-07T09:22:46Z</time>
      </trkpt>
      <trkpt lat="44.6918" lon="3.04853">
        <ele>1137.5</ele>
        <time>2022-08-07T09:22:58Z</time>
      </trkpt>
      <trkpt lat="44.6918" lon="3.04854">
        <ele>1137.6</ele>
        <time>2022-08-07T09:22:59Z</time>
      </trkpt>
      <trkpt lat="44.69187" lon="3.04865">
        <ele>1138.7</ele>
        <time>2022-08-07T09:23:07Z</time>
      </trkpt>
      <trkpt lat="44.69195" lon="3.04881">
        <ele>1140</ele>
        <time>2022-08-07T09:23:19Z</time>
      </trkpt>
      <trkpt lat="44.69195" lon="3.04882">
        <ele>1140.1</ele>
        <time>2022-08-07T09:23:20Z</time>
      </trkpt>
      <trkpt lat="44.69199" lon="3.04893">
        <ele>1140.5</ele>
        <time>2022-08-07T09:23:29Z</time>
      </trkpt>
      <trkpt lat="44.69198" lon="3.04892">
        <ele>1140.5</ele>
        <time>2022-08-07T09:23:30Z</time>
      </trkpt>
      <trkpt lat="44.69201" lon="3.04898">
        <ele>1140.8</ele>
        <time>2022-08-07T09:23:36Z</time>
      </trkpt>
      <trkpt lat="44.69201" lon="3.04899">
        <ele>1140.9</ele>
        <time>2022-08-07T09:23:37Z</time>
      </trkpt>
      <trkpt lat="44.69204" lon="3.04909">
        <ele>1141.2</ele>
        <time>2022-08-07T09:23:43Z</time>
      </trkpt>
      <trkpt lat="44.69206" lon="3.0492">
        <ele>1141.5</ele>
        <time>2022-08-07T09:23:50Z</time>
      </trkpt>
      <trkpt lat="44.69206" lon="3.04923">
        <ele>1141.6</ele>
        <time>2022-08-07T09:23:52Z</time>
      </trkpt>
      <trkpt lat="44.69209" lon="3.04939">
        <ele>1141.9</ele>
        <time>2022-08-07T09:24:02Z</time>
      </trkpt>
      <trkpt lat="44.69209" lon="3.0494">
        <ele>1141.9</ele>
        <time>2022-08-07T09:24:03Z</time>
      </trkpt>
      <trkpt lat="44.69212" lon="3.04958">
        <ele>1142.7</ele>
        <time>2022-08-07T09:24:14Z</time>
      </trkpt>
      <trkpt lat="44.69215" lon="3.04972">
        <ele>1143.3</ele>
        <time>2022-08-07T09:24:23Z</time>
      </trkpt>
      <trkpt lat="44.69217" lon="3.04983">
        <ele>1144</ele>
        <time>2022-08-07T09:24:30Z</time>
      </trkpt>
      <trkpt lat="44.69219" lon="3.04996">
        <ele>1144.8</ele>
        <time>2022-08-07T09:24:38Z</time>
      </trkpt>
      <trkpt lat="44.69219" lon="3.04999">
        <ele>1145</ele>
        <time>2022-08-07T09:24:40Z</time>
      </trkpt>
      <trkpt lat="44.69222" lon="3.05009">
        <ele>1145.6</ele>
        <time>2022-08-07T09:24:47Z</time>
      </trkpt>
      <trkpt lat="44.69223" lon="3.05012">
        <ele>1145.8</ele>
        <time>2022-08-07T09:24:50Z</time>
      </trkpt>
      <trkpt lat="44.69226" lon="3.05022">
        <ele>1146.3</ele>
        <time>2022-08-07T09:24:56Z</time>
      </trkpt>
      <trkpt lat="44.6923" lon="3.05032">
        <ele>1146.7</ele>
        <time>2022-08-07T09:25:03Z</time>
      </trkpt>
      <trkpt lat="44.69233" lon="3.05042">
        <ele>1147.3</ele>
        <time>2022-08-07T09:25:10Z</time>
      </trkpt>
      <trkpt lat="44.69233" lon="3.05045">
        <ele>1147.5</ele>
        <time>2022-08-07T09:25:12Z</time>
      </trkpt>
      <trkpt lat="44.69236" lon="3.0506">
        <ele>1148.1</ele>
        <time>2022-08-07T09:25:21Z</time>
      </trkpt>
      <trkpt lat="44.69236" lon="3.05066">
        <ele>1148.4</ele>
        <time>2022-08-07T09:25:25Z</time>
      </trkpt>
      <trkpt lat="44.69235" lon="3.05071">
        <ele>1148.6</ele>
        <time>2022-08-07T09:25:28Z</time>
      </trkpt>
      <trkpt lat="44.69235" lon="3.05072">
        <ele>1148.7</ele>
        <time>2022-08-07T09:25:29Z</time>
      </trkpt>
      <trkpt lat="44.69232" lon="3.05091">
        <ele>1149.3</ele>
        <time>2022-08-07T09:25:41Z</time>
      </trkpt>
      <trkpt lat="44.69228" lon="3.05109">
        <ele>1149.6</ele>
        <time>2022-08-07T09:25:53Z</time>
      </trkpt>
      <trkpt lat="44.69227" lon="3.05127">
        <ele>1149.1</ele>
        <time>2022-08-07T09:26:04Z</time>
      </trkpt>
      <trkpt lat="44.69225" lon="3.05146">
        <ele>1148.8</ele>
        <time>2022-08-07T09:26:16Z</time>
      </trkpt>
      <trkpt lat="44.69225" lon="3.05155">
        <ele>1148.8</ele>
        <time>2022-08-07T09:26:25Z</time>
      </trkpt>
      <trkpt lat="44.69225" lon="3.05155">
        <ele>1148.8</ele>
        <time>2022-08-07T09:26:26Z</time>
      </trkpt>
      <trkpt lat="44.69224" lon="3.05155">
        <ele>1148.9</ele>
        <time>2022-08-07T09:26:44Z</time>
      </trkpt>
      <trkpt lat="44.6922" lon="3.05158">
        <ele>1149.1</ele>
        <time>2022-08-07T09:27:13Z</time>
      </trkpt>
      <trkpt lat="44.69214" lon="3.05175">
        <ele>1149.9</ele>
        <time>2022-08-07T09:27:22Z</time>
      </trkpt>
      <trkpt lat="44.69213" lon="3.05187">
        <ele>1150.8</ele>
        <time>2022-08-07T09:27:31Z</time>
      </trkpt>
      <trkpt lat="44.69214" lon="3.05198">
        <ele>1151.6</ele>
        <time>2022-08-07T09:27:39Z</time>
      </trkpt>
      <trkpt lat="44.69214" lon="3.05199">
        <ele>1151.8</ele>
        <time>2022-08-07T09:27:40Z</time>
      </trkpt>
      <trkpt lat="44.69217" lon="3.05208">
        <ele>1152.5</ele>
        <time>2022-08-07T09:27:47Z</time>
      </trkpt>
      <trkpt lat="44.69218" lon="3.05209">
        <ele>1152.7</ele>
        <time>2022-08-07T09:27:48Z</time>
      </trkpt>
      <trkpt lat="44.69219" lon="3.05219">
        <ele>1153.7</ele>
        <time>2022-08-07T09:27:56Z</time>
      </trkpt>
      <trkpt lat="44.6922" lon="3.05222">
        <ele>1154</ele>
        <time>2022-08-07T09:27:59Z</time>
      </trkpt>
      <trkpt lat="44.6922" lon="3.05228">
        <ele>1155</ele>
        <time>2022-08-07T09:28:03Z</time>
      </trkpt>
      <trkpt lat="44.69221" lon="3.05234">
        <ele>1156.1</ele>
        <time>2022-08-07T09:28:09Z</time>
      </trkpt>
      <trkpt lat="44.69221" lon="3.05235">
        <ele>1156.3</ele>
        <time>2022-08-07T09:28:10Z</time>
      </trkpt>
      <trkpt lat="44.69223" lon="3.05242">
        <ele>1157.5</ele>
        <time>2022-08-07T09:28:16Z</time>
      </trkpt>
      <trkpt lat="44.69224" lon="3.05246">
        <ele>1158.2</ele>
        <time>2022-08-07T09:28:19Z</time>
      </trkpt>
      <trkpt lat="44.69224" lon="3.05251">
        <ele>1159</ele>
        <time>2022-08-07T09:28:23Z</time>
      </trkpt>
      <trkpt lat="44.69223" lon="3.05254">
        <ele>1159.4</ele>
        <time>2022-08-07T09:28:27Z</time>
      </trkpt>
      <trkpt lat="44.69223" lon="3.05254">
        <ele>1159.4</ele>
        <time>2022-08-07T09:28:29Z</time>
      </trkpt>
      <trkpt lat="44.69223" lon="3.05254">
        <ele>1159.4</ele>
        <time>2022-08-07T09:28:32Z</time>
      </trkpt>
      <trkpt lat="44.69223" lon="3.05254">
        <ele>1159.4</ele>
        <time>2022-08-07T09:28:37Z</time>
      </trkpt>
      <trkpt lat="44.69223" lon="3.05254">
        <ele>1159.4</ele>
        <time>2022-08-07T09:28:43Z</time>
      </trkpt>
      <trkpt lat="44.69222" lon="3.05261">
        <ele>1160.2</ele>
        <time>2022-08-07T09:28:52Z</time>
      </trkpt>
      <trkpt lat="44.69221" lon="3.05263">
        <ele>1160.4</ele>
        <time>2022-08-07T09:28:53Z</time>
      </trkpt>
      <trkpt lat="44.6922" lon="3.05269">
        <ele>1160.9</ele>
        <time>2022-08-07T09:28:56Z</time>
      </trkpt>
      <trkpt lat="44.69219" lon="3.05274">
        <ele>1161.5</ele>
        <time>2022-08-07T09:29:00Z</time>
      </trkpt>
      <trkpt lat="44.69219" lon="3.05275">
        <ele>1161.6</ele>
        <time>2022-08-07T09:29:01Z</time>
      </trkpt>
      <trkpt lat="44.69219" lon="3.05281">
        <ele>1162</ele>
        <time>2022-08-07T09:29:05Z</time>
      </trkpt>
      <trkpt lat="44.69219" lon="3.05282">
        <ele>1162.1</ele>
        <time>2022-08-07T09:29:06Z</time>
      </trkpt>
      <trkpt lat="44.69221" lon="3.05286">
        <ele>1162.2</ele>
        <time>2022-08-07T09:29:09Z</time>
      </trkpt>
      <trkpt lat="44.69227" lon="3.05296">
        <ele>1162.6</ele>
        <time>2022-08-07T09:29:19Z</time>
      </trkpt>
      <trkpt lat="44.69228" lon="3.05298">
        <ele>1162.7</ele>
        <time>2022-08-07T09:29:20Z</time>
      </trkpt>
      <trkpt lat="44.69229" lon="3.05303">
        <ele>1162.9</ele>
        <time>2022-08-07T09:29:24Z</time>
      </trkpt>
      <trkpt lat="44.69229" lon="3.05308">
        <ele>1163.2</ele>
        <time>2022-08-07T09:29:29Z</time>
      </trkpt>
      <trkpt lat="44.69229" lon="3.05308">
        <ele>1163.2</ele>
        <time>2022-08-07T09:29:32Z</time>
      </trkpt>
      <trkpt lat="44.69229" lon="3.0531">
        <ele>1163.3</ele>
        <time>2022-08-07T09:29:36Z</time>
      </trkpt>
      <trkpt lat="44.69227" lon="3.05319">
        <ele>1164</ele>
        <time>2022-08-07T09:29:42Z</time>
      </trkpt>
      <trkpt lat="44.69229" lon="3.05328">
        <ele>1164.6</ele>
        <time>2022-08-07T09:29:51Z</time>
      </trkpt>
      <trkpt lat="44.69228" lon="3.05327">
        <ele>1164.6</ele>
        <time>2022-08-07T09:30:00Z</time>
      </trkpt>
      <trkpt lat="44.69228" lon="3.05332">
        <ele>1164.9</ele>
        <time>2022-08-07T09:30:08Z</time>
      </trkpt>
      <trkpt lat="44.69228" lon="3.05331">
        <ele>1164.8</ele>
        <time>2022-08-07T09:30:22Z</time>
      </trkpt>
      <trkpt lat="44.6923" lon="3.05341">
        <ele>1165</ele>
        <time>2022-08-07T09:31:11Z</time>
      </trkpt>
      <trkpt lat="44.6923" lon="3.05365">
        <ele>1164.7</ele>
        <time>2022-08-07T09:31:23Z</time>
      </trkpt>
      <trkpt lat="44.69226" lon="3.05385">
        <ele>1163.3</ele>
        <time>2022-08-07T09:31:34Z</time>
      </trkpt>
      <trkpt lat="44.69226" lon="3.05386">
        <ele>1163.2</ele>
        <time>2022-08-07T09:31:35Z</time>
      </trkpt>
      <trkpt lat="44.69225" lon="3.054">
        <ele>1162.2</ele>
        <time>2022-08-07T09:31:44Z</time>
      </trkpt>
      <trkpt lat="44.69227" lon="3.05404">
        <ele>1162</ele>
        <time>2022-08-07T09:31:46Z</time>
      </trkpt>
      <trkpt lat="44.69235" lon="3.05416">
        <ele>1161.5</ele>
        <time>2022-08-07T09:31:55Z</time>
      </trkpt>
      <trkpt lat="44.69237" lon="3.05419">
        <ele>1161.4</ele>
        <time>2022-08-07T09:31:58Z</time>
      </trkpt>
      <trkpt lat="44.69243" lon="3.05429">
        <ele>1160.9</ele>
        <time>2022-08-07T09:32:05Z</time>
      </trkpt>
      <trkpt lat="44.69248" lon="3.05432">
        <ele>1160.8</ele>
        <time>2022-08-07T09:32:09Z</time>
      </trkpt>
      <trkpt lat="44.69251" lon="3.05436">
        <ele>1160.7</ele>
        <time>2022-08-07T09:32:14Z</time>
      </trkpt>
      <trkpt lat="44.69262" lon="3.05442">
        <ele>1160.6</ele>
        <time>2022-08-07T09:32:22Z</time>
      </trkpt>
      <trkpt lat="44.69268" lon="3.05447">
        <ele>1160.6</ele>
        <time>2022-08-07T09:32:29Z</time>
      </trkpt>
      <trkpt lat="44.69269" lon="3.05448">
        <ele>1160.6</ele>
        <time>2022-08-07T09:32:31Z</time>
      </trkpt>
      <trkpt lat="44.69276" lon="3.05452">
        <ele>1160.7</ele>
        <time>2022-08-07T09:32:40Z</time>
      </trkpt>
      <trkpt lat="44.69276" lon="3.05453">
        <ele>1160.6</ele>
        <time>2022-08-07T09:32:43Z</time>
      </trkpt>
      <trkpt lat="44.69276" lon="3.05453">
        <ele>1160.6</ele>
        <time>2022-08-07T09:32:44Z</time>
      </trkpt>
      <trkpt lat="44.69277" lon="3.05453">
        <ele>1160.7</ele>
        <time>2022-08-07T09:32:46Z</time>
      </trkpt>
      <trkpt lat="44.69283" lon="3.05454">
        <ele>1160.9</ele>
        <time>2022-08-07T09:32:53Z</time>
      </trkpt>
      <trkpt lat="44.69285" lon="3.05452">
        <ele>1161</ele>
        <time>2022-08-07T09:32:59Z</time>
      </trkpt>
      <trkpt lat="44.69285" lon="3.05452">
        <ele>1161</ele>
        <time>2022-08-07T09:33:07Z</time>
      </trkpt>
      <trkpt lat="44.69286" lon="3.05452">
        <ele>1161</ele>
        <time>2022-08-07T09:33:35Z</time>
      </trkpt>
      <trkpt lat="44.69286" lon="3.05453">
        <ele>1161</ele>
        <time>2022-08-07T09:34:24Z</time>
      </trkpt>
      <trkpt lat="44.69291" lon="3.05453">
        <ele>1161.1</ele>
        <time>2022-08-07T09:34:42Z</time>
      </trkpt>
      <trkpt lat="44.69302" lon="3.05461">
        <ele>1161.3</ele>
        <time>2022-08-07T09:34:51Z</time>
      </trkpt>
      <trkpt lat="44.69311" lon="3.05465">
        <ele>1161.4</ele>
        <time>2022-08-07T09:35:00Z</time>
      </trkpt>
      <trkpt lat="44.69312" lon="3.05465">
        <ele>1161.4</ele>
        <time>2022-08-07T09:35:01Z</time>
      </trkpt>
      <trkpt lat="44.69316" lon="3.05464">
        <ele>1161.5</ele>
        <time>2022-08-07T09:35:04Z</time>
      </trkpt>
      <trkpt lat="44.69325" lon="3.05463">
        <ele>1161.8</ele>
        <time>2022-08-07T09:35:12Z</time>
      </trkpt>
      <trkpt lat="44.69327" lon="3.05462">
        <ele>1161.9</ele>
        <time>2022-08-07T09:35:14Z</time>
      </trkpt>
      <trkpt lat="44.69333" lon="3.05459">
        <ele>1162</ele>
        <time>2022-08-07T09:35:19Z</time>
      </trkpt>
      <trkpt lat="44.69336" lon="3.05459">
        <ele>1162</ele>
        <time>2022-08-07T09:35:23Z</time>
      </trkpt>
      <trkpt lat="44.69337" lon="3.05459">
        <ele>1162</ele>
        <time>2022-08-07T09:35:25Z</time>
      </trkpt>
      <trkpt lat="44.69337" lon="3.05458">
        <ele>1162</ele>
        <time>2022-08-07T09:35:26Z</time>
      </trkpt>
      <trkpt lat="44.69338" lon="3.05458">
        <ele>1162</ele>
        <time>2022-08-07T09:35:28Z</time>
      </trkpt>
      <trkpt lat="44.69339" lon="3.05458">
        <ele>1162</ele>
        <time>2022-08-07T09:35:29Z</time>
      </trkpt>
      <trkpt lat="44.69341" lon="3.05457">
        <ele>1162</ele>
        <time>2022-08-07T09:35:31Z</time>
      </trkpt>
      <trkpt lat="44.69343" lon="3.05457">
        <ele>1162</ele>
        <time>2022-08-07T09:35:32Z</time>
      </trkpt>
      <trkpt lat="44.69351" lon="3.05455">
        <ele>1162</ele>
        <time>2022-08-07T09:35:40Z</time>
      </trkpt>
      <trkpt lat="44.69363" lon="3.05448">
        <ele>1162</ele>
        <time>2022-08-07T09:35:50Z</time>
      </trkpt>
      <trkpt lat="44.69373" lon="3.05443">
        <ele>1162</ele>
        <time>2022-08-07T09:36:00Z</time>
      </trkpt>
      <trkpt lat="44.69382" lon="3.0544">
        <ele>1161.9</ele>
        <time>2022-08-07T09:36:07Z</time>
      </trkpt>
      <trkpt lat="44.69388" lon="3.05439">
        <ele>1161.8</ele>
        <time>2022-08-07T09:36:12Z</time>
      </trkpt>
      <trkpt lat="44.69404" lon="3.05437">
        <ele>1161.3</ele>
        <time>2022-08-07T09:36:25Z</time>
      </trkpt>
      <trkpt lat="44.69418" lon="3.05431">
        <ele>1160.9</ele>
        <time>2022-08-07T09:36:37Z</time>
      </trkpt>
      <trkpt lat="44.69421" lon="3.05429">
        <ele>1160.8</ele>
        <time>2022-08-07T09:36:40Z</time>
      </trkpt>
      <trkpt lat="44.6943" lon="3.05423">
        <ele>1160.2</ele>
        <time>2022-08-07T09:36:48Z</time>
      </trkpt>
      <trkpt lat="44.69434" lon="3.0542">
        <ele>1159.9</ele>
        <time>2022-08-07T09:36:53Z</time>
      </trkpt>
      <trkpt lat="44.69437" lon="3.05419">
        <ele>1159.6</ele>
        <time>2022-08-07T09:36:55Z</time>
      </trkpt>
      <trkpt lat="44.6944" lon="3.05419">
        <ele>1159.4</ele>
        <time>2022-08-07T09:36:57Z</time>
      </trkpt>
      <trkpt lat="44.69451" lon="3.05421">
        <ele>1158.9</ele>
        <time>2022-08-07T09:37:06Z</time>
      </trkpt>
      <trkpt lat="44.69454" lon="3.05421">
        <ele>1158.8</ele>
        <time>2022-08-07T09:37:09Z</time>
      </trkpt>
      <trkpt lat="44.69465" lon="3.05423">
        <ele>1158.5</ele>
        <time>2022-08-07T09:37:18Z</time>
      </trkpt>
      <trkpt lat="44.69478" lon="3.05425">
        <ele>1158.1</ele>
        <time>2022-08-07T09:37:28Z</time>
      </trkpt>
      <trkpt lat="44.69491" lon="3.05428">
        <ele>1157.8</ele>
        <time>2022-08-07T09:37:38Z</time>
      </trkpt>
      <trkpt lat="44.69503" lon="3.05432">
        <ele>1157.3</ele>
        <time>2022-08-07T09:37:48Z</time>
      </trkpt>
      <trkpt lat="44.69516" lon="3.05437">
        <ele>1156.6</ele>
        <time>2022-08-07T09:37:59Z</time>
      </trkpt>
      <trkpt lat="44.69519" lon="3.05438">
        <ele>1156.4</ele>
        <time>2022-08-07T09:38:02Z</time>
      </trkpt>
      <trkpt lat="44.69531" lon="3.05443">
        <ele>1155.7</ele>
        <time>2022-08-07T09:38:13Z</time>
      </trkpt>
      <trkpt lat="44.69538" lon="3.05447">
        <ele>1155.3</ele>
        <time>2022-08-07T09:38:19Z</time>
      </trkpt>
      <trkpt lat="44.69543" lon="3.0545">
        <ele>1155</ele>
        <time>2022-08-07T09:38:23Z</time>
      </trkpt>
      <trkpt lat="44.69551" lon="3.05454">
        <ele>1154.4</ele>
        <time>2022-08-07T09:38:30Z</time>
      </trkpt>
      <trkpt lat="44.69552" lon="3.05453">
        <ele>1154.3</ele>
        <time>2022-08-07T09:38:32Z</time>
      </trkpt>
      <trkpt lat="44.69552" lon="3.05449">
        <ele>1154.3</ele>
        <time>2022-08-07T09:38:37Z</time>
      </trkpt>
      <trkpt lat="44.69552" lon="3.0545">
        <ele>1154.3</ele>
        <time>2022-08-07T09:38:39Z</time>
      </trkpt>
      <trkpt lat="44.69552" lon="3.0545">
        <ele>1154.3</ele>
        <time>2022-08-07T09:38:40Z</time>
      </trkpt>
      <trkpt lat="44.69553" lon="3.0545">
        <ele>1154.2</ele>
        <time>2022-08-07T09:38:50Z</time>
      </trkpt>
      <trkpt lat="44.69557" lon="3.05451">
        <ele>1154</ele>
        <time>2022-08-07T09:39:05Z</time>
      </trkpt>
      <trkpt lat="44.69571" lon="3.05455">
        <ele>1153.4</ele>
        <time>2022-08-07T09:39:12Z</time>
      </trkpt>
      <trkpt lat="44.6959" lon="3.05457">
        <ele>1152.6</ele>
        <time>2022-08-07T09:39:26Z</time>
      </trkpt>
      <trkpt lat="44.69591" lon="3.05457">
        <ele>1152.6</ele>
        <time>2022-08-07T09:39:27Z</time>
      </trkpt>
      <trkpt lat="44.69595" lon="3.05457">
        <ele>1152.4</ele>
        <time>2022-08-07T09:39:30Z</time>
      </trkpt>
      <trkpt lat="44.69602" lon="3.05458">
        <ele>1152</ele>
        <time>2022-08-07T09:39:37Z</time>
      </trkpt>
      <trkpt lat="44.69608" lon="3.05459">
        <ele>1151.7</ele>
        <time>2022-08-07T09:39:40Z</time>
      </trkpt>
      <trkpt lat="44.69616" lon="3.0546">
        <ele>1151.5</ele>
        <time>2022-08-07T09:39:47Z</time>
      </trkpt>
      <trkpt lat="44.69627" lon="3.05461">
        <ele>1151.5</ele>
        <time>2022-08-07T09:39:56Z</time>
      </trkpt>
      <trkpt lat="44.69632" lon="3.05463">
        <ele>1151.4</ele>
        <time>2022-08-07T09:40:00Z</time>
      </trkpt>
      <trkpt lat="44.69637" lon="3.05463">
        <ele>1151.4</ele>
        <time>2022-08-07T09:40:04Z</time>
      </trkpt>
      <trkpt lat="44.69652" lon="3.05465">
        <ele>1150.8</ele>
        <time>2022-08-07T09:40:17Z</time>
      </trkpt>
      <trkpt lat="44.69656" lon="3.05465">
        <ele>1150.6</ele>
        <time>2022-08-07T09:40:20Z</time>
      </trkpt>
      <trkpt lat="44.69663" lon="3.05466">
        <ele>1150.3</ele>
        <time>2022-08-07T09:40:26Z</time>
      </trkpt>
      <trkpt lat="44.69673" lon="3.05468">
        <ele>1149.9</ele>
        <time>2022-08-07T09:40:36Z</time>
      </trkpt>
      <trkpt lat="44.69674" lon="3.05468">
        <ele>1149.9</ele>
        <time>2022-08-07T09:40:37Z</time>
      </trkpt>
      <trkpt lat="44.69677" lon="3.05467">
        <ele>1149.8</ele>
        <time>2022-08-07T09:40:40Z</time>
      </trkpt>
      <trkpt lat="44.69681" lon="3.05467">
        <ele>1149.7</ele>
        <time>2022-08-07T09:40:43Z</time>
      </trkpt>
      <trkpt lat="44.69688" lon="3.05467">
        <ele>1149.4</ele>
        <time>2022-08-07T09:40:50Z</time>
      </trkpt>
      <trkpt lat="44.69697" lon="3.05466">
        <ele>1149.1</ele>
        <time>2022-08-07T09:40:56Z</time>
      </trkpt>
      <trkpt lat="44.69698" lon="3.05466">
        <ele>1149.1</ele>
        <time>2022-08-07T09:40:57Z</time>
      </trkpt>
      <trkpt lat="44.69712" lon="3.05465">
        <ele>1148.6</ele>
        <time>2022-08-07T09:41:09Z</time>
      </trkpt>
      <trkpt lat="44.69722" lon="3.05465">
        <ele>1148.3</ele>
        <time>2022-08-07T09:41:17Z</time>
      </trkpt>
      <trkpt lat="44.69731" lon="3.05464">
        <ele>1148.2</ele>
        <time>2022-08-07T09:41:24Z</time>
      </trkpt>
      <trkpt lat="44.69735" lon="3.05465">
        <ele>1148.1</ele>
        <time>2022-08-07T09:41:27Z</time>
      </trkpt>
      <trkpt lat="44.69747" lon="3.05463">
        <ele>1148</ele>
        <time>2022-08-07T09:41:37Z</time>
      </trkpt>
      <trkpt lat="44.69757" lon="3.05462">
        <ele>1147.7</ele>
        <time>2022-08-07T09:41:46Z</time>
      </trkpt>
      <trkpt lat="44.69762" lon="3.0546">
        <ele>1147.6</ele>
        <time>2022-08-07T09:41:50Z</time>
      </trkpt>
      <trkpt lat="44.69772" lon="3.05458">
        <ele>1147.2</ele>
        <time>2022-08-07T09:41:58Z</time>
      </trkpt>
      <trkpt lat="44.69781" lon="3.05453">
        <ele>1147</ele>
        <time>2022-08-07T09:42:06Z</time>
      </trkpt>
      <trkpt lat="44.69791" lon="3.0545">
        <ele>1146.9</ele>
        <time>2022-08-07T09:42:15Z</time>
      </trkpt>
      <trkpt lat="44.69792" lon="3.0545">
        <ele>1146.9</ele>
        <time>2022-08-07T09:42:16Z</time>
      </trkpt>
      <trkpt lat="44.69805" lon="3.0545">
        <ele>1146.8</ele>
        <time>2022-08-07T09:42:27Z</time>
      </trkpt>
      <trkpt lat="44.69806" lon="3.05451">
        <ele>1146.8</ele>
        <time>2022-08-07T09:42:28Z</time>
      </trkpt>
      <trkpt lat="44.69818" lon="3.05451">
        <ele>1146.3</ele>
        <time>2022-08-07T09:42:38Z</time>
      </trkpt>
      <trkpt lat="44.69829" lon="3.05454">
        <ele>1145.8</ele>
        <time>2022-08-07T09:42:48Z</time>
      </trkpt>
      <trkpt lat="44.69831" lon="3.05456">
        <ele>1145.7</ele>
        <time>2022-08-07T09:42:50Z</time>
      </trkpt>
      <trkpt lat="44.6984" lon="3.05457">
        <ele>1145.4</ele>
        <time>2022-08-07T09:42:57Z</time>
      </trkpt>
      <trkpt lat="44.69853" lon="3.05461">
        <ele>1145.1</ele>
        <time>2022-08-07T09:43:08Z</time>
      </trkpt>
      <trkpt lat="44.69861" lon="3.05463">
        <ele>1145</ele>
        <time>2022-08-07T09:43:14Z</time>
      </trkpt>
      <trkpt lat="44.69865" lon="3.05465">
        <ele>1144.9</ele>
        <time>2022-08-07T09:43:17Z</time>
      </trkpt>
      <trkpt lat="44.69875" lon="3.05469">
        <ele>1144.5</ele>
        <time>2022-08-07T09:43:26Z</time>
      </trkpt>
      <trkpt lat="44.69887" lon="3.05473">
        <ele>1144</ele>
        <time>2022-08-07T09:43:36Z</time>
      </trkpt>
      <trkpt lat="44.69889" lon="3.05474">
        <ele>1143.9</ele>
        <time>2022-08-07T09:43:38Z</time>
      </trkpt>
      <trkpt lat="44.69898" lon="3.05478">
        <ele>1143.7</ele>
        <time>2022-08-07T09:43:46Z</time>
      </trkpt>
      <trkpt lat="44.69908" lon="3.05481">
        <ele>1143.5</ele>
        <time>2022-08-07T09:43:54Z</time>
      </trkpt>
      <trkpt lat="44.6992" lon="3.05485">
        <ele>1143</ele>
        <time>2022-08-07T09:44:04Z</time>
      </trkpt>
      <trkpt lat="44.69928" lon="3.05487">
        <ele>1142.7</ele>
        <time>2022-08-07T09:44:10Z</time>
      </trkpt>
      <trkpt lat="44.69931" lon="3.05488">
        <ele>1142.6</ele>
        <time>2022-08-07T09:44:13Z</time>
      </trkpt>
      <trkpt lat="44.69941" lon="3.05491">
        <ele>1142.4</ele>
        <time>2022-08-07T09:44:22Z</time>
      </trkpt>
      <trkpt lat="44.69947" lon="3.05493">
        <ele>1142.3</ele>
        <time>2022-08-07T09:44:30Z</time>
      </trkpt>
      <trkpt lat="44.69948" lon="3.05494">
        <ele>1142.2</ele>
        <time>2022-08-07T09:44:32Z</time>
      </trkpt>
      <trkpt lat="44.69948" lon="3.05494">
        <ele>1142.2</ele>
        <time>2022-08-07T09:44:35Z</time>
      </trkpt>
      <trkpt lat="44.69947" lon="3.05496">
        <ele>1142.2</ele>
        <time>2022-08-07T09:44:43Z</time>
      </trkpt>
      <trkpt lat="44.69948" lon="3.05496">
        <ele>1142.2</ele>
        <time>2022-08-07T09:44:56Z</time>
      </trkpt>
      <trkpt lat="44.69948" lon="3.05496">
        <ele>1142.2</ele>
        <time>2022-08-07T09:45:03Z</time>
      </trkpt>
      <trkpt lat="44.69954" lon="3.05493">
        <ele>1142.2</ele>
        <time>2022-08-07T09:45:09Z</time>
      </trkpt>
      <trkpt lat="44.69967" lon="3.05493">
        <ele>1142.3</ele>
        <time>2022-08-07T09:45:17Z</time>
      </trkpt>
      <trkpt lat="44.69981" lon="3.05492">
        <ele>1142.3</ele>
        <time>2022-08-07T09:45:28Z</time>
      </trkpt>
      <trkpt lat="44.69992" lon="3.05494">
        <ele>1142.2</ele>
        <time>2022-08-07T09:45:37Z</time>
      </trkpt>
      <trkpt lat="44.69995" lon="3.05495">
        <ele>1142.2</ele>
        <time>2022-08-07T09:45:39Z</time>
      </trkpt>
      <trkpt lat="44.70006" lon="3.05504">
        <ele>1141.4</ele>
        <time>2022-08-07T09:45:51Z</time>
      </trkpt>
      <trkpt lat="44.70006" lon="3.05505">
        <ele>1141.3</ele>
        <time>2022-08-07T09:45:53Z</time>
      </trkpt>
      <trkpt lat="44.70006" lon="3.05505">
        <ele>1141.3</ele>
        <time>2022-08-07T09:45:55Z</time>
      </trkpt>
      <trkpt lat="44.70006" lon="3.05504">
        <ele>1141.4</ele>
        <time>2022-08-07T09:45:56Z</time>
      </trkpt>
      <trkpt lat="44.70008" lon="3.055">
        <ele>1141.7</ele>
        <time>2022-08-07T09:46:01Z</time>
      </trkpt>
      <trkpt lat="44.70008" lon="3.05499">
        <ele>1141.7</ele>
        <time>2022-08-07T09:46:07Z</time>
      </trkpt>
      <trkpt lat="44.70008" lon="3.055">
        <ele>1141.7</ele>
        <time>2022-08-07T09:46:54Z</time>
      </trkpt>
      <trkpt lat="44.70006" lon="3.05499">
        <ele>1141.8</ele>
        <time>2022-08-07T09:47:36Z</time>
      </trkpt>
      <trkpt lat="44.70008" lon="3.05501">
        <ele>1141.6</ele>
        <time>2022-08-07T09:49:13Z</time>
      </trkpt>
      <trkpt lat="44.70008" lon="3.05501">
        <ele>1141.6</ele>
        <time>2022-08-07T09:49:20Z</time>
      </trkpt>
      <trkpt lat="44.70008" lon="3.05501">
        <ele>1141.6</ele>
        <time>2022-08-07T09:50:42Z</time>
      </trkpt>
      <trkpt lat="44.70008" lon="3.05501">
        <ele>1141.6</ele>
        <time>2022-08-07T09:50:57Z</time>
      </trkpt>
      <trkpt lat="44.70008" lon="3.05501">
        <ele>1141.6</ele>
        <time>2022-08-07T09:51:47Z</time>
      </trkpt>
      <trkpt lat="44.70019" lon="3.05505">
        <ele>1140.9</ele>
        <time>2022-08-07T09:52:10Z</time>
      </trkpt>
      <trkpt lat="44.70036" lon="3.05508">
        <ele>1140.1</ele>
        <time>2022-08-07T09:52:18Z</time>
      </trkpt>
      <trkpt lat="44.70051" lon="3.05509">
        <ele>1139.5</ele>
        <time>2022-08-07T09:52:30Z</time>
      </trkpt>
      <trkpt lat="44.70065" lon="3.05509">
        <ele>1139.3</ele>
        <time>2022-08-07T09:52:42Z</time>
      </trkpt>
      <trkpt lat="44.70069" lon="3.05509">
        <ele>1139.4</ele>
        <time>2022-08-07T09:52:45Z</time>
      </trkpt>
      <trkpt lat="44.70083" lon="3.05504">
        <ele>1139.7</ele>
        <time>2022-08-07T09:52:57Z</time>
      </trkpt>
      <trkpt lat="44.70094" lon="3.05498">
        <ele>1139.2</ele>
        <time>2022-08-07T09:53:07Z</time>
      </trkpt>
      <trkpt lat="44.70105" lon="3.05487">
        <ele>1138.4</ele>
        <time>2022-08-07T09:53:18Z</time>
      </trkpt>
      <trkpt lat="44.7011" lon="3.0548">
        <ele>1138.1</ele>
        <time>2022-08-07T09:53:26Z</time>
      </trkpt>
      <trkpt lat="44.7011" lon="3.0548">
        <ele>1138.1</ele>
        <time>2022-08-07T09:53:27Z</time>
      </trkpt>
      <trkpt lat="44.70112" lon="3.05476">
        <ele>1137.9</ele>
        <time>2022-08-07T09:53:31Z</time>
      </trkpt>
      <trkpt lat="44.70114" lon="3.05474">
        <ele>1137.8</ele>
        <time>2022-08-07T09:53:33Z</time>
      </trkpt>
      <trkpt lat="44.70118" lon="3.0547">
        <ele>1137.5</ele>
        <time>2022-08-07T09:53:39Z</time>
      </trkpt>
      <trkpt lat="44.70118" lon="3.0547">
        <ele>1137.5</ele>
        <time>2022-08-07T09:53:40Z</time>
      </trkpt>
      <trkpt lat="44.70124" lon="3.05467">
        <ele>1137.1</ele>
        <time>2022-08-07T09:53:47Z</time>
      </trkpt>
      <trkpt lat="44.70126" lon="3.05465">
        <ele>1136.9</ele>
        <time>2022-08-07T09:53:49Z</time>
      </trkpt>
      <trkpt lat="44.70129" lon="3.05464">
        <ele>1136.7</ele>
        <time>2022-08-07T09:53:51Z</time>
      </trkpt>
      <trkpt lat="44.70135" lon="3.05462">
        <ele>1136.3</ele>
        <time>2022-08-07T09:53:56Z</time>
      </trkpt>
      <trkpt lat="44.70148" lon="3.05462">
        <ele>1136.3</ele>
        <time>2022-08-07T09:54:08Z</time>
      </trkpt>
      <trkpt lat="44.70164" lon="3.05469">
        <ele>1136.9</ele>
        <time>2022-08-07T09:54:21Z</time>
      </trkpt>
      <trkpt lat="44.70174" lon="3.05476">
        <ele>1137.7</ele>
        <time>2022-08-07T09:54:30Z</time>
      </trkpt>
      <trkpt lat="44.70177" lon="3.05479">
        <ele>1138</ele>
        <time>2022-08-07T09:54:34Z</time>
      </trkpt>
      <trkpt lat="44.70185" lon="3.05487">
        <ele>1138.6</ele>
        <time>2022-08-07T09:54:43Z</time>
      </trkpt>
      <trkpt lat="44.70194" lon="3.05496">
        <ele>1139.1</ele>
        <time>2022-08-07T09:54:53Z</time>
      </trkpt>
      <trkpt lat="44.70195" lon="3.05497">
        <ele>1139.1</ele>
        <time>2022-08-07T09:54:54Z</time>
      </trkpt>
      <trkpt lat="44.70205" lon="3.05503">
        <ele>1139.8</ele>
        <time>2022-08-07T09:55:05Z</time>
      </trkpt>
      <trkpt lat="44.7021" lon="3.05506">
        <ele>1140.1</ele>
        <time>2022-08-07T09:55:09Z</time>
      </trkpt>
      <trkpt lat="44.70217" lon="3.05511">
        <ele>1140.6</ele>
        <time>2022-08-07T09:55:17Z</time>
      </trkpt>
      <trkpt lat="44.70223" lon="3.05515">
        <ele>1141</ele>
        <time>2022-08-07T09:55:23Z</time>
      </trkpt>
      <trkpt lat="44.70231" lon="3.0552">
        <ele>1141.4</ele>
        <time>2022-08-07T09:55:31Z</time>
      </trkpt>
      <trkpt lat="44.70243" lon="3.05524">
        <ele>1141.9</ele>
        <time>2022-08-07T09:55:42Z</time>
      </trkpt>
      <trkpt lat="44.70247" lon="3.05525">
        <ele>1142</ele>
        <time>2022-08-07T09:55:45Z</time>
      </trkpt>
      <trkpt lat="44.70259" lon="3.05527">
        <ele>1142.7</ele>
        <time>2022-08-07T09:55:56Z</time>
      </trkpt>
      <trkpt lat="44.70261" lon="3.05528">
        <ele>1142.8</ele>
        <time>2022-08-07T09:55:58Z</time>
      </trkpt>
      <trkpt lat="44.70272" lon="3.0553">
        <ele>1143.5</ele>
        <time>2022-08-07T09:56:07Z</time>
      </trkpt>
      <trkpt lat="44.70285" lon="3.05531">
        <ele>1144.4</ele>
        <time>2022-08-07T09:56:18Z</time>
      </trkpt>
      <trkpt lat="44.70289" lon="3.05531">
        <ele>1144.7</ele>
        <time>2022-08-07T09:56:22Z</time>
      </trkpt>
      <trkpt lat="44.70294" lon="3.05532">
        <ele>1145</ele>
        <time>2022-08-07T09:56:27Z</time>
      </trkpt>
      <trkpt lat="44.70303" lon="3.05532">
        <ele>1145.7</ele>
        <time>2022-08-07T09:56:35Z</time>
      </trkpt>
      <trkpt lat="44.70314" lon="3.05532">
        <ele>1146.2</ele>
        <time>2022-08-07T09:56:44Z</time>
      </trkpt>
      <trkpt lat="44.70314" lon="3.05532">
        <ele>1146.2</ele>
        <time>2022-08-07T09:56:45Z</time>
      </trkpt>
      <trkpt lat="44.70325" lon="3.05529">
        <ele>1146.7</ele>
        <time>2022-08-07T09:56:54Z</time>
      </trkpt>
      <trkpt lat="44.70336" lon="3.05527">
        <ele>1147.1</ele>
        <time>2022-08-07T09:57:03Z</time>
      </trkpt>
      <trkpt lat="44.70343" lon="3.05525">
        <ele>1147.4</ele>
        <time>2022-08-07T09:57:08Z</time>
      </trkpt>
      <trkpt lat="44.70348" lon="3.05522">
        <ele>1147.7</ele>
        <time>2022-08-07T09:57:13Z</time>
      </trkpt>
      <trkpt lat="44.70359" lon="3.05518">
        <ele>1148.3</ele>
        <time>2022-08-07T09:57:24Z</time>
      </trkpt>
      <trkpt lat="44.70377" lon="3.05512">
        <ele>1149.2</ele>
        <time>2022-08-07T09:57:38Z</time>
      </trkpt>
      <trkpt lat="44.70377" lon="3.05512">
        <ele>1149.2</ele>
        <time>2022-08-07T09:57:39Z</time>
      </trkpt>
      <trkpt lat="44.70383" lon="3.0551">
        <ele>1149.4</ele>
        <time>2022-08-07T09:57:43Z</time>
      </trkpt>
      <trkpt lat="44.70394" lon="3.05506">
        <ele>1150.1</ele>
        <time>2022-08-07T09:57:54Z</time>
      </trkpt>
      <trkpt lat="44.70395" lon="3.05505">
        <ele>1150.2</ele>
        <time>2022-08-07T09:57:55Z</time>
      </trkpt>
      <trkpt lat="44.70399" lon="3.05505">
        <ele>1150.5</ele>
        <time>2022-08-07T09:58:01Z</time>
      </trkpt>
      <trkpt lat="44.70399" lon="3.05505">
        <ele>1150.5</ele>
        <time>2022-08-07T09:58:02Z</time>
      </trkpt>
      <trkpt lat="44.70398" lon="3.05505">
        <ele>1150.4</ele>
        <time>2022-08-07T09:58:04Z</time>
      </trkpt>
      <trkpt lat="44.70397" lon="3.05506">
        <ele>1150.3</ele>
        <time>2022-08-07T09:58:06Z</time>
      </trkpt>
      <trkpt lat="44.70392" lon="3.05507">
        <ele>1149.9</ele>
        <time>2022-08-07T09:58:13Z</time>
      </trkpt>
      <trkpt lat="44.70391" lon="3.05508">
        <ele>1149.9</ele>
        <time>2022-08-07T09:58:22Z</time>
      </trkpt>
      <trkpt lat="44.70397" lon="3.05505">
        <ele>1150.3</ele>
        <time>2022-08-07T09:58:52Z</time>
      </trkpt>
      <trkpt lat="44.70404" lon="3.05502">
        <ele>1151</ele>
        <time>2022-08-07T09:58:57Z</time>
      </trkpt>
      <trkpt lat="44.70413" lon="3.05499">
        <ele>1151.8</ele>
        <time>2022-08-07T09:59:05Z</time>
      </trkpt>
      <trkpt lat="44.7042" lon="3.05496">
        <ele>1152.1</ele>
        <time>2022-08-07T09:59:12Z</time>
      </trkpt>
      <trkpt lat="44.70423" lon="3.05496">
        <ele>1152.2</ele>
        <time>2022-08-07T09:59:14Z</time>
      </trkpt>
      <trkpt lat="44.70433" lon="3.05491">
        <ele>1152.3</ele>
        <time>2022-08-07T09:59:23Z</time>
      </trkpt>
      <trkpt lat="44.70441" lon="3.05486">
        <ele>1152.5</ele>
        <time>2022-08-07T09:59:31Z</time>
      </trkpt>
      <trkpt lat="44.70449" lon="3.0548">
        <ele>1152.8</ele>
        <time>2022-08-07T09:59:40Z</time>
      </trkpt>
      <trkpt lat="44.70463" lon="3.05483">
        <ele>1153.1</ele>
        <time>2022-08-07T09:59:52Z</time>
      </trkpt>
      <trkpt lat="44.70469" lon="3.05487">
        <ele>1153.4</ele>
        <time>2022-08-07T09:59:59Z</time>
      </trkpt>
      <trkpt lat="44.70471" lon="3.0549">
        <ele>1153.6</ele>
        <time>2022-08-07T10:00:02Z</time>
      </trkpt>
      <trkpt lat="44.70483" lon="3.05498">
        <ele>1154</ele>
        <time>2022-08-07T10:00:13Z</time>
      </trkpt>
      <trkpt lat="44.70497" lon="3.05512">
        <ele>1154</ele>
        <time>2022-08-07T10:00:26Z</time>
      </trkpt>
      <trkpt lat="44.70506" lon="3.0552">
        <ele>1154.2</ele>
        <time>2022-08-07T10:00:35Z</time>
      </trkpt>
      <trkpt lat="44.7051" lon="3.05524">
        <ele>1154.3</ele>
        <time>2022-08-07T10:00:39Z</time>
      </trkpt>
      <trkpt lat="44.70519" lon="3.05531">
        <ele>1154.4</ele>
        <time>2022-08-07T10:00:47Z</time>
      </trkpt>
      <trkpt lat="44.70532" lon="3.05543">
        <ele>1154.1</ele>
        <time>2022-08-07T10:01:00Z</time>
      </trkpt>
      <trkpt lat="44.70543" lon="3.05552">
        <ele>1154.2</ele>
        <time>2022-08-07T10:01:10Z</time>
      </trkpt>
      <trkpt lat="44.70555" lon="3.05563">
        <ele>1154.7</ele>
        <time>2022-08-07T10:01:22Z</time>
      </trkpt>
      <trkpt lat="44.70566" lon="3.05576">
        <ele>1155.3</ele>
        <time>2022-08-07T10:01:34Z</time>
      </trkpt>
      <trkpt lat="44.70567" lon="3.05579">
        <ele>1155.4</ele>
        <time>2022-08-07T10:01:37Z</time>
      </trkpt>
      <trkpt lat="44.70574" lon="3.05588">
        <ele>1156</ele>
        <time>2022-08-07T10:01:44Z</time>
      </trkpt>
      <trkpt lat="44.70579" lon="3.05593">
        <ele>1156.5</ele>
        <time>2022-08-07T10:01:50Z</time>
      </trkpt>
      <trkpt lat="44.70583" lon="3.05595">
        <ele>1157</ele>
        <time>2022-08-07T10:01:54Z</time>
      </trkpt>
      <trkpt lat="44.70584" lon="3.05595">
        <ele>1157</ele>
        <time>2022-08-07T10:01:55Z</time>
      </trkpt>
      <trkpt lat="44.70585" lon="3.05596">
        <ele>1157.1</ele>
        <time>2022-08-07T10:01:57Z</time>
      </trkpt>
      <trkpt lat="44.70586" lon="3.05597">
        <ele>1157.2</ele>
        <time>2022-08-07T10:01:59Z</time>
      </trkpt>
      <trkpt lat="44.70592" lon="3.056">
        <ele>1157.6</ele>
        <time>2022-08-07T10:02:03Z</time>
      </trkpt>
      <trkpt lat="44.70596" lon="3.05604">
        <ele>1157.9</ele>
        <time>2022-08-07T10:02:08Z</time>
      </trkpt>
      <trkpt lat="44.70599" lon="3.05606">
        <ele>1158.1</ele>
        <time>2022-08-07T10:02:11Z</time>
      </trkpt>
      <trkpt lat="44.70605" lon="3.05612">
        <ele>1158.5</ele>
        <time>2022-08-07T10:02:17Z</time>
      </trkpt>
      <trkpt lat="44.70615" lon="3.05618">
        <ele>1158.9</ele>
        <time>2022-08-07T10:02:25Z</time>
      </trkpt>
      <trkpt lat="44.70616" lon="3.0562">
        <ele>1158.9</ele>
        <time>2022-08-07T10:02:27Z</time>
      </trkpt>
      <trkpt lat="44.70628" lon="3.05629">
        <ele>1159</ele>
        <time>2022-08-07T10:02:38Z</time>
      </trkpt>
      <trkpt lat="44.70637" lon="3.05636">
        <ele>1159</ele>
        <time>2022-08-07T10:02:46Z</time>
      </trkpt>
      <trkpt lat="44.70646" lon="3.05644">
        <ele>1159</ele>
        <time>2022-08-07T10:02:55Z</time>
      </trkpt>
      <trkpt lat="44.7066" lon="3.05657">
        <ele>1159</ele>
        <time>2022-08-07T10:03:09Z</time>
      </trkpt>
      <trkpt lat="44.70672" lon="3.05666">
        <ele>1159</ele>
        <time>2022-08-07T10:03:20Z</time>
      </trkpt>
      <trkpt lat="44.70686" lon="3.05677">
        <ele>1158.6</ele>
        <time>2022-08-07T10:03:33Z</time>
      </trkpt>
      <trkpt lat="44.70698" lon="3.05686">
        <ele>1158.4</ele>
        <time>2022-08-07T10:03:43Z</time>
      </trkpt>
      <trkpt lat="44.70712" lon="3.05698">
        <ele>1158.5</ele>
        <time>2022-08-07T10:03:55Z</time>
      </trkpt>
      <trkpt lat="44.70725" lon="3.05708">
        <ele>1158.6</ele>
        <time>2022-08-07T10:04:07Z</time>
      </trkpt>
      <trkpt lat="44.70726" lon="3.05709">
        <ele>1158.6</ele>
        <time>2022-08-07T10:04:08Z</time>
      </trkpt>
      <trkpt lat="44.7074" lon="3.0572">
        <ele>1158.7</ele>
        <time>2022-08-07T10:04:21Z</time>
      </trkpt>
      <trkpt lat="44.70755" lon="3.05732">
        <ele>1159.2</ele>
        <time>2022-08-07T10:04:34Z</time>
      </trkpt>
      <trkpt lat="44.70767" lon="3.05741">
        <ele>1159.6</ele>
        <time>2022-08-07T10:04:44Z</time>
      </trkpt>
      <trkpt lat="44.70772" lon="3.05746">
        <ele>1159.8</ele>
        <time>2022-08-07T10:04:50Z</time>
      </trkpt>
      <trkpt lat="44.70782" lon="3.05753">
        <ele>1160</ele>
        <time>2022-08-07T10:04:58Z</time>
      </trkpt>
      <trkpt lat="44.70786" lon="3.05757">
        <ele>1160</ele>
        <time>2022-08-07T10:05:02Z</time>
      </trkpt>
      <trkpt lat="44.70798" lon="3.05771">
        <ele>1160</ele>
        <time>2022-08-07T10:05:15Z</time>
      </trkpt>
      <trkpt lat="44.70797" lon="3.05783">
        <ele>1160</ele>
        <time>2022-08-07T10:05:22Z</time>
      </trkpt>
      <trkpt lat="44.70791" lon="3.05809">
        <ele>1160</ele>
        <time>2022-08-07T10:05:37Z</time>
      </trkpt>
      <trkpt lat="44.70787" lon="3.0583">
        <ele>1160</ele>
        <time>2022-08-07T10:05:49Z</time>
      </trkpt>
      <trkpt lat="44.70787" lon="3.05845">
        <ele>1160.1</ele>
        <time>2022-08-07T10:05:58Z</time>
      </trkpt>
      <trkpt lat="44.70794" lon="3.05854">
        <ele>1160.4</ele>
        <time>2022-08-07T10:06:06Z</time>
      </trkpt>
      <trkpt lat="44.7081" lon="3.05869">
        <ele>1160.9</ele>
        <time>2022-08-07T10:06:22Z</time>
      </trkpt>
      <trkpt lat="44.70811" lon="3.0587">
        <ele>1160.9</ele>
        <time>2022-08-07T10:06:23Z</time>
      </trkpt>
      <trkpt lat="44.70817" lon="3.05873">
        <ele>1161.1</ele>
        <time>2022-08-07T10:06:28Z</time>
      </trkpt>
      <trkpt lat="44.70828" lon="3.05878">
        <ele>1161.7</ele>
        <time>2022-08-07T10:06:38Z</time>
      </trkpt>
      <trkpt lat="44.70833" lon="3.0588">
        <ele>1162</ele>
        <time>2022-08-07T10:06:42Z</time>
      </trkpt>
      <trkpt lat="44.70841" lon="3.05886">
        <ele>1163.1</ele>
        <time>2022-08-07T10:06:50Z</time>
      </trkpt>
      <trkpt lat="44.70845" lon="3.0589">
        <ele>1163.7</ele>
        <time>2022-08-07T10:06:54Z</time>
      </trkpt>
      <trkpt lat="44.70853" lon="3.05901">
        <ele>1164.1</ele>
        <time>2022-08-07T10:07:04Z</time>
      </trkpt>
      <trkpt lat="44.7086" lon="3.05912">
        <ele>1164.2</ele>
        <time>2022-08-07T10:07:13Z</time>
      </trkpt>
      <trkpt lat="44.70864" lon="3.05917">
        <ele>1164.3</ele>
        <time>2022-08-07T10:07:17Z</time>
      </trkpt>
      <trkpt lat="44.70868" lon="3.05922">
        <ele>1164.3</ele>
        <time>2022-08-07T10:07:22Z</time>
      </trkpt>
      <trkpt lat="44.70877" lon="3.0593">
        <ele>1164.4</ele>
        <time>2022-08-07T10:07:30Z</time>
      </trkpt>
      <trkpt lat="44.70882" lon="3.05937">
        <ele>1164.2</ele>
        <time>2022-08-07T10:07:36Z</time>
      </trkpt>
      <trkpt lat="44.70894" lon="3.05949">
        <ele>1164.2</ele>
        <time>2022-08-07T10:07:48Z</time>
      </trkpt>
      <trkpt lat="44.70906" lon="3.05958">
        <ele>1164.4</ele>
        <time>2022-08-07T10:07:59Z</time>
      </trkpt>
      <trkpt lat="44.70921" lon="3.05969">
        <ele>1164.7</ele>
        <time>2022-08-07T10:08:12Z</time>
      </trkpt>
      <trkpt lat="44.70936" lon="3.05978">
        <ele>1165.9</ele>
        <time>2022-08-07T10:08:25Z</time>
      </trkpt>
      <trkpt lat="44.70947" lon="3.05983">
        <ele>1166.6</ele>
        <time>2022-08-07T10:08:35Z</time>
      </trkpt>
      <trkpt lat="44.70948" lon="3.05984">
        <ele>1166.6</ele>
        <time>2022-08-07T10:08:36Z</time>
      </trkpt>
      <trkpt lat="44.70962" lon="3.05987">
        <ele>1166.8</ele>
        <time>2022-08-07T10:08:48Z</time>
      </trkpt>
      <trkpt lat="44.70969" lon="3.05989">
        <ele>1166.9</ele>
        <time>2022-08-07T10:08:54Z</time>
      </trkpt>
      <trkpt lat="44.70975" lon="3.0599">
        <ele>1167.2</ele>
        <time>2022-08-07T10:08:59Z</time>
      </trkpt>
      <trkpt lat="44.70986" lon="3.05993">
        <ele>1167.9</ele>
        <time>2022-08-07T10:09:08Z</time>
      </trkpt>
      <trkpt lat="44.70991" lon="3.05994">
        <ele>1168.2</ele>
        <time>2022-08-07T10:09:12Z</time>
      </trkpt>
      <trkpt lat="44.70997" lon="3.05996">
        <ele>1168.6</ele>
        <time>2022-08-07T10:09:17Z</time>
      </trkpt>
      <trkpt lat="44.71014" lon="3.06003">
        <ele>1168.9</ele>
        <time>2022-08-07T10:09:31Z</time>
      </trkpt>
      <trkpt lat="44.71025" lon="3.06005">
        <ele>1168.8</ele>
        <time>2022-08-07T10:09:40Z</time>
      </trkpt>
      <trkpt lat="44.71045" lon="3.06004">
        <ele>1168.3</ele>
        <time>2022-08-07T10:09:55Z</time>
      </trkpt>
      <trkpt lat="44.71056" lon="3.06003">
        <ele>1167.9</ele>
        <time>2022-08-07T10:10:05Z</time>
      </trkpt>
      <trkpt lat="44.71072" lon="3.06004">
        <ele>1167.8</ele>
        <time>2022-08-07T10:10:16Z</time>
      </trkpt>
      <trkpt lat="44.71085" lon="3.06006">
        <ele>1167.8</ele>
        <time>2022-08-07T10:10:27Z</time>
      </trkpt>
      <trkpt lat="44.71101" lon="3.0601">
        <ele>1167.9</ele>
        <time>2022-08-07T10:10:40Z</time>
      </trkpt>
      <trkpt lat="44.71118" lon="3.06015">
        <ele>1168.1</ele>
        <time>2022-08-07T10:10:53Z</time>
      </trkpt>
      <trkpt lat="44.71127" lon="3.06019">
        <ele>1168.2</ele>
        <time>2022-08-07T10:11:00Z</time>
      </trkpt>
      <trkpt lat="44.71132" lon="3.06021">
        <ele>1168.2</ele>
        <time>2022-08-07T10:11:04Z</time>
      </trkpt>
      <trkpt lat="44.71134" lon="3.06021">
        <ele>1168.2</ele>
        <time>2022-08-07T10:11:05Z</time>
      </trkpt>
      <trkpt lat="44.7115" lon="3.06032">
        <ele>1167.6</ele>
        <time>2022-08-07T10:11:19Z</time>
      </trkpt>
      <trkpt lat="44.71164" lon="3.06042">
        <ele>1167.1</ele>
        <time>2022-08-07T10:11:33Z</time>
      </trkpt>
      <trkpt lat="44.71164" lon="3.06042">
        <ele>1167.1</ele>
        <time>2022-08-07T10:11:34Z</time>
      </trkpt>
      <trkpt lat="44.71164" lon="3.06041">
        <ele>1167.1</ele>
        <time>2022-08-07T10:11:38Z</time>
      </trkpt>
      <trkpt lat="44.71164" lon="3.06041">
        <ele>1167.1</ele>
        <time>2022-08-07T10:11:46Z</time>
      </trkpt>
      <trkpt lat="44.71168" lon="3.06044">
        <ele>1166.9</ele>
        <time>2022-08-07T10:11:58Z</time>
      </trkpt>
      <trkpt lat="44.7117" lon="3.06047">
        <ele>1166.9</ele>
        <time>2022-08-07T10:12:06Z</time>
      </trkpt>
      <trkpt lat="44.71171" lon="3.06047">
        <ele>1166.8</ele>
        <time>2022-08-07T10:12:13Z</time>
      </trkpt>
      <trkpt lat="44.71177" lon="3.06052">
        <ele>1166.6</ele>
        <time>2022-08-07T10:12:24Z</time>
      </trkpt>
      <trkpt lat="44.7119" lon="3.06062">
        <ele>1166.1</ele>
        <time>2022-08-07T10:12:36Z</time>
      </trkpt>
      <trkpt lat="44.71192" lon="3.06064">
        <ele>1166.1</ele>
        <time>2022-08-07T10:12:37Z</time>
      </trkpt>
      <trkpt lat="44.71204" lon="3.06075">
        <ele>1166.2</ele>
        <time>2022-08-07T10:12:48Z</time>
      </trkpt>
      <trkpt lat="44.71212" lon="3.06082">
        <ele>1166.6</ele>
        <time>2022-08-07T10:12:56Z</time>
      </trkpt>
      <trkpt lat="44.71224" lon="3.06092">
        <ele>1167</ele>
        <time>2022-08-07T10:13:07Z</time>
      </trkpt>
      <trkpt lat="44.71226" lon="3.06094">
        <ele>1167.1</ele>
        <time>2022-08-07T10:13:09Z</time>
      </trkpt>
      <trkpt lat="44.7123" lon="3.06098">
        <ele>1167.3</ele>
        <time>2022-08-07T10:13:13Z</time>
      </trkpt>
      <trkpt lat="44.71235" lon="3.06105">
        <ele>1167.5</ele>
        <time>2022-08-07T10:13:20Z</time>
      </trkpt>
      <trkpt lat="44.71236" lon="3.06105">
        <ele>1167.5</ele>
        <time>2022-08-07T10:13:21Z</time>
      </trkpt>
      <trkpt lat="44.71236" lon="3.06105">
        <ele>1167.5</ele>
        <time>2022-08-07T10:13:22Z</time>
      </trkpt>
      <trkpt lat="44.71236" lon="3.06105">
        <ele>1167.5</ele>
        <time>2022-08-07T10:13:29Z</time>
      </trkpt>
      <trkpt lat="44.71234" lon="3.06103">
        <ele>1167.4</ele>
        <time>2022-08-07T10:13:35Z</time>
      </trkpt>
      <trkpt lat="44.71238" lon="3.06109">
        <ele>1167.6</ele>
        <time>2022-08-07T10:13:51Z</time>
      </trkpt>
      <trkpt lat="44.71242" lon="3.06113">
        <ele>1167.7</ele>
        <time>2022-08-07T10:13:55Z</time>
      </trkpt>
      <trkpt lat="44.71242" lon="3.06114">
        <ele>1167.7</ele>
        <time>2022-08-07T10:13:58Z</time>
      </trkpt>
      <trkpt lat="44.71247" lon="3.06119">
        <ele>1167.9</ele>
        <time>2022-08-07T10:14:06Z</time>
      </trkpt>
      <trkpt lat="44.71254" lon="3.06127">
        <ele>1168.3</ele>
        <time>2022-08-07T10:14:14Z</time>
      </trkpt>
      <trkpt lat="44.71259" lon="3.06133">
        <ele>1168.6</ele>
        <time>2022-08-07T10:14:19Z</time>
      </trkpt>
      <trkpt lat="44.7127" lon="3.06144">
        <ele>1169.3</ele>
        <time>2022-08-07T10:14:30Z</time>
      </trkpt>
      <trkpt lat="44.71283" lon="3.06154">
        <ele>1169.6</ele>
        <time>2022-08-07T10:14:42Z</time>
      </trkpt>
      <trkpt lat="44.71285" lon="3.06155">
        <ele>1169.7</ele>
        <time>2022-08-07T10:14:43Z</time>
      </trkpt>
      <trkpt lat="44.71293" lon="3.06163">
        <ele>1169.7</ele>
        <time>2022-08-07T10:14:52Z</time>
      </trkpt>
      <trkpt lat="44.71306" lon="3.06174">
        <ele>1170</ele>
        <time>2022-08-07T10:15:04Z</time>
      </trkpt>
      <trkpt lat="44.71315" lon="3.06181">
        <ele>1170</ele>
        <time>2022-08-07T10:15:13Z</time>
      </trkpt>
      <trkpt lat="44.7133" lon="3.06192">
        <ele>1170</ele>
        <time>2022-08-07T10:15:25Z</time>
      </trkpt>
      <trkpt lat="44.7134" lon="3.06199">
        <ele>1170.4</ele>
        <time>2022-08-07T10:15:34Z</time>
      </trkpt>
      <trkpt lat="44.7135" lon="3.06197">
        <ele>1170.6</ele>
        <time>2022-08-07T10:15:42Z</time>
      </trkpt>
      <trkpt lat="44.71351" lon="3.06195">
        <ele>1170.7</ele>
        <time>2022-08-07T10:15:44Z</time>
      </trkpt>
      <trkpt lat="44.7136" lon="3.06189">
        <ele>1170.8</ele>
        <time>2022-08-07T10:15:52Z</time>
      </trkpt>
      <trkpt lat="44.71372" lon="3.06178">
        <ele>1170.4</ele>
        <time>2022-08-07T10:16:03Z</time>
      </trkpt>
      <trkpt lat="44.71381" lon="3.0617">
        <ele>1170.1</ele>
        <time>2022-08-07T10:16:12Z</time>
      </trkpt>
      <trkpt lat="44.71391" lon="3.06158">
        <ele>1170.1</ele>
        <time>2022-08-07T10:16:23Z</time>
      </trkpt>
      <trkpt lat="44.71398" lon="3.06147">
        <ele>1170.3</ele>
        <time>2022-08-07T10:16:32Z</time>
      </trkpt>
      <trkpt lat="44.71406" lon="3.06136">
        <ele>1170.5</ele>
        <time>2022-08-07T10:16:41Z</time>
      </trkpt>
      <trkpt lat="44.71415" lon="3.0612">
        <ele>1170.3</ele>
        <time>2022-08-07T10:16:54Z</time>
      </trkpt>
      <trkpt lat="44.71422" lon="3.06108">
        <ele>1170.4</ele>
        <time>2022-08-07T10:17:03Z</time>
      </trkpt>
      <trkpt lat="44.71423" lon="3.06107">
        <ele>1170.5</ele>
        <time>2022-08-07T10:17:04Z</time>
      </trkpt>
      <trkpt lat="44.71432" lon="3.0609">
        <ele>1170.7</ele>
        <time>2022-08-07T10:17:16Z</time>
      </trkpt>
      <trkpt lat="44.71441" lon="3.06079">
        <ele>1170.7</ele>
        <time>2022-08-07T10:17:26Z</time>
      </trkpt>
      <trkpt lat="44.71451" lon="3.0607">
        <ele>1170.4</ele>
        <time>2022-08-07T10:17:35Z</time>
      </trkpt>
      <trkpt lat="44.71463" lon="3.06067">
        <ele>1170</ele>
        <time>2022-08-07T10:17:45Z</time>
      </trkpt>
      <trkpt lat="44.71478" lon="3.06077">
        <ele>1170.4</ele>
        <time>2022-08-07T10:17:59Z</time>
      </trkpt>
      <trkpt lat="44.71494" lon="3.06086">
        <ele>1170.4</ele>
        <time>2022-08-07T10:18:13Z</time>
      </trkpt>
      <trkpt lat="44.71507" lon="3.06094">
        <ele>1170.3</ele>
        <time>2022-08-07T10:18:25Z</time>
      </trkpt>
      <trkpt lat="44.71508" lon="3.06095">
        <ele>1170.3</ele>
        <time>2022-08-07T10:18:28Z</time>
      </trkpt>
      <trkpt lat="44.7151" lon="3.06095">
        <ele>1170.2</ele>
        <time>2022-08-07T10:18:30Z</time>
      </trkpt>
      <trkpt lat="44.71511" lon="3.06096">
        <ele>1170.1</ele>
        <time>2022-08-07T10:18:31Z</time>
      </trkpt>
      <trkpt lat="44.7152" lon="3.06099">
        <ele>1169.7</ele>
        <time>2022-08-07T10:18:39Z</time>
      </trkpt>
      <trkpt lat="44.71531" lon="3.06105">
        <ele>1169.4</ele>
        <time>2022-08-07T10:18:49Z</time>
      </trkpt>
      <trkpt lat="44.71545" lon="3.06116">
        <ele>1169</ele>
        <time>2022-08-07T10:19:02Z</time>
      </trkpt>
      <trkpt lat="44.7156" lon="3.06125">
        <ele>1168.8</ele>
        <time>2022-08-07T10:19:15Z</time>
      </trkpt>
      <trkpt lat="44.71572" lon="3.06132">
        <ele>1168.9</ele>
        <time>2022-08-07T10:19:26Z</time>
      </trkpt>
      <trkpt lat="44.71588" lon="3.0614">
        <ele>1168.8</ele>
        <time>2022-08-07T10:19:39Z</time>
      </trkpt>
      <trkpt lat="44.71601" lon="3.06146">
        <ele>1168.4</ele>
        <time>2022-08-07T10:19:50Z</time>
      </trkpt>
      <trkpt lat="44.71609" lon="3.06147">
        <ele>1168</ele>
        <time>2022-08-07T10:19:58Z</time>
      </trkpt>
      <trkpt lat="44.71622" lon="3.06153">
        <ele>1167.9</ele>
        <time>2022-08-07T10:20:08Z</time>
      </trkpt>
      <trkpt lat="44.71632" lon="3.06163">
        <ele>1168.2</ele>
        <time>2022-08-07T10:20:18Z</time>
      </trkpt>
      <trkpt lat="44.71643" lon="3.06175">
        <ele>1168.4</ele>
        <time>2022-08-07T10:20:29Z</time>
      </trkpt>
      <trkpt lat="44.71655" lon="3.06184">
        <ele>1168.3</ele>
        <time>2022-08-07T10:20:40Z</time>
      </trkpt>
      <trkpt lat="44.71669" lon="3.0619">
        <ele>1167.8</ele>
        <time>2022-08-07T10:20:51Z</time>
      </trkpt>
      <trkpt lat="44.71679" lon="3.06195">
        <ele>1167.6</ele>
        <time>2022-08-07T10:21:00Z</time>
      </trkpt>
      <trkpt lat="44.71692" lon="3.06206">
        <ele>1167.5</ele>
        <time>2022-08-07T10:21:12Z</time>
      </trkpt>
      <trkpt lat="44.71704" lon="3.06215">
        <ele>1167.7</ele>
        <time>2022-08-07T10:21:23Z</time>
      </trkpt>
      <trkpt lat="44.71718" lon="3.06225">
        <ele>1168</ele>
        <time>2022-08-07T10:21:35Z</time>
      </trkpt>
      <trkpt lat="44.71732" lon="3.06236">
        <ele>1168</ele>
        <time>2022-08-07T10:21:48Z</time>
      </trkpt>
      <trkpt lat="44.71746" lon="3.06244">
        <ele>1168</ele>
        <time>2022-08-07T10:22:00Z</time>
      </trkpt>
      <trkpt lat="44.71759" lon="3.0625">
        <ele>1168</ele>
        <time>2022-08-07T10:22:11Z</time>
      </trkpt>
      <trkpt lat="44.71775" lon="3.06257">
        <ele>1167.8</ele>
        <time>2022-08-07T10:22:24Z</time>
      </trkpt>
      <trkpt lat="44.71781" lon="3.06258">
        <ele>1167.7</ele>
        <time>2022-08-07T10:22:30Z</time>
      </trkpt>
      <trkpt lat="44.71782" lon="3.06259">
        <ele>1167.6</ele>
        <time>2022-08-07T10:22:31Z</time>
      </trkpt>
      <trkpt lat="44.71799" lon="3.06267">
        <ele>1166.9</ele>
        <time>2022-08-07T10:22:45Z</time>
      </trkpt>
      <trkpt lat="44.718" lon="3.06268">
        <ele>1166.8</ele>
        <time>2022-08-07T10:22:46Z</time>
      </trkpt>
      <trkpt lat="44.7181" lon="3.06272">
        <ele>1166.5</ele>
        <time>2022-08-07T10:22:54Z</time>
      </trkpt>
      <trkpt lat="44.71818" lon="3.06275">
        <ele>1166.3</ele>
        <time>2022-08-07T10:23:01Z</time>
      </trkpt>
      <trkpt lat="44.71833" lon="3.0628">
        <ele>1165.9</ele>
        <time>2022-08-07T10:23:13Z</time>
      </trkpt>
      <trkpt lat="44.71845" lon="3.06284">
        <ele>1165.8</ele>
        <time>2022-08-07T10:23:23Z</time>
      </trkpt>
      <trkpt lat="44.71862" lon="3.06289">
        <ele>1165.6</ele>
        <time>2022-08-07T10:23:36Z</time>
      </trkpt>
      <trkpt lat="44.71875" lon="3.06294">
        <ele>1165.9</ele>
        <time>2022-08-07T10:23:46Z</time>
      </trkpt>
      <trkpt lat="44.71892" lon="3.063">
        <ele>1166.2</ele>
        <time>2022-08-07T10:24:00Z</time>
      </trkpt>
      <trkpt lat="44.71895" lon="3.06301">
        <ele>1166.2</ele>
        <time>2022-08-07T10:24:02Z</time>
      </trkpt>
      <trkpt lat="44.71913" lon="3.06307">
        <ele>1165.9</ele>
        <time>2022-08-07T10:24:17Z</time>
      </trkpt>
      <trkpt lat="44.71916" lon="3.06307">
        <ele>1165.9</ele>
        <time>2022-08-07T10:24:19Z</time>
      </trkpt>
      <trkpt lat="44.71931" lon="3.06311">
        <ele>1165.7</ele>
        <time>2022-08-07T10:24:32Z</time>
      </trkpt>
      <trkpt lat="44.71931" lon="3.06311">
        <ele>1165.7</ele>
        <time>2022-08-07T10:24:34Z</time>
      </trkpt>
      <trkpt lat="44.71933" lon="3.06311">
        <ele>1165.7</ele>
        <time>2022-08-07T10:24:37Z</time>
      </trkpt>
      <trkpt lat="44.71935" lon="3.06311">
        <ele>1165.7</ele>
        <time>2022-08-07T10:24:39Z</time>
      </trkpt>
      <trkpt lat="44.71943" lon="3.06311">
        <ele>1165.6</ele>
        <time>2022-08-07T10:24:45Z</time>
      </trkpt>
      <trkpt lat="44.7195" lon="3.06311">
        <ele>1165.4</ele>
        <time>2022-08-07T10:24:53Z</time>
      </trkpt>
      <trkpt lat="44.7195" lon="3.06311">
        <ele>1165.4</ele>
        <time>2022-08-07T10:24:54Z</time>
      </trkpt>
      <trkpt lat="44.7195" lon="3.06311">
        <ele>1165.4</ele>
        <time>2022-08-07T10:24:55Z</time>
      </trkpt>
      <trkpt lat="44.7195" lon="3.06311">
        <ele>1165.4</ele>
        <time>2022-08-07T10:24:57Z</time>
      </trkpt>
      <trkpt lat="44.71952" lon="3.06311">
        <ele>1165.4</ele>
        <time>2022-08-07T10:25:02Z</time>
      </trkpt>
      <trkpt lat="44.71956" lon="3.06313">
        <ele>1165</ele>
        <time>2022-08-07T10:25:13Z</time>
      </trkpt>
      <trkpt lat="44.71968" lon="3.06319">
        <ele>1164.2</ele>
        <time>2022-08-07T10:25:21Z</time>
      </trkpt>
      <trkpt lat="44.71981" lon="3.06325">
        <ele>1163.6</ele>
        <time>2022-08-07T10:25:33Z</time>
      </trkpt>
      <trkpt lat="44.71985" lon="3.06326">
        <ele>1163.5</ele>
        <time>2022-08-07T10:25:37Z</time>
      </trkpt>
      <trkpt lat="44.71994" lon="3.06329">
        <ele>1163.3</ele>
        <time>2022-08-07T10:25:44Z</time>
      </trkpt>
      <trkpt lat="44.72004" lon="3.06333">
        <ele>1162.9</ele>
        <time>2022-08-07T10:25:53Z</time>
      </trkpt>
      <trkpt lat="44.72006" lon="3.06334">
        <ele>1162.8</ele>
        <time>2022-08-07T10:25:55Z</time>
      </trkpt>
      <trkpt lat="44.72015" lon="3.06339">
        <ele>1162.2</ele>
        <time>2022-08-07T10:26:03Z</time>
      </trkpt>
      <trkpt lat="44.7203" lon="3.06341">
        <ele>1161.6</ele>
        <time>2022-08-07T10:26:16Z</time>
      </trkpt>
      <trkpt lat="44.72037" lon="3.06344">
        <ele>1161.3</ele>
        <time>2022-08-07T10:26:22Z</time>
      </trkpt>
      <trkpt lat="44.72043" lon="3.06346">
        <ele>1161</ele>
        <time>2022-08-07T10:26:26Z</time>
      </trkpt>
      <trkpt lat="44.72051" lon="3.06349">
        <ele>1160.6</ele>
        <time>2022-08-07T10:26:33Z</time>
      </trkpt>
      <trkpt lat="44.72057" lon="3.0635">
        <ele>1160.4</ele>
        <time>2022-08-07T10:26:37Z</time>
      </trkpt>
      <trkpt lat="44.72068" lon="3.06352">
        <ele>1160</ele>
        <time>2022-08-07T10:26:47Z</time>
      </trkpt>
      <trkpt lat="44.72082" lon="3.06355">
        <ele>1159.5</ele>
        <time>2022-08-07T10:26:58Z</time>
      </trkpt>
      <trkpt lat="44.72091" lon="3.0636">
        <ele>1159.1</ele>
        <time>2022-08-07T10:27:07Z</time>
      </trkpt>
      <trkpt lat="44.72106" lon="3.06368">
        <ele>1158.8</ele>
        <time>2022-08-07T10:27:21Z</time>
      </trkpt>
      <trkpt lat="44.72118" lon="3.06372">
        <ele>1158.4</ele>
        <time>2022-08-07T10:27:31Z</time>
      </trkpt>
      <trkpt lat="44.72125" lon="3.06375">
        <ele>1158</ele>
        <time>2022-08-07T10:27:37Z</time>
      </trkpt>
      <trkpt lat="44.72135" lon="3.06382">
        <ele>1157.4</ele>
        <time>2022-08-07T10:27:47Z</time>
      </trkpt>
      <trkpt lat="44.72138" lon="3.06387">
        <ele>1157.1</ele>
        <time>2022-08-07T10:27:52Z</time>
      </trkpt>
      <trkpt lat="44.72146" lon="3.06393">
        <ele>1156.7</ele>
        <time>2022-08-07T10:27:59Z</time>
      </trkpt>
      <trkpt lat="44.72152" lon="3.06397">
        <ele>1156.4</ele>
        <time>2022-08-07T10:28:04Z</time>
      </trkpt>
      <trkpt lat="44.72157" lon="3.064">
        <ele>1156.1</ele>
        <time>2022-08-07T10:28:09Z</time>
      </trkpt>
      <trkpt lat="44.72165" lon="3.06405">
        <ele>1155.5</ele>
        <time>2022-08-07T10:28:19Z</time>
      </trkpt>
      <trkpt lat="44.72173" lon="3.06407">
        <ele>1154.9</ele>
        <time>2022-08-07T10:28:27Z</time>
      </trkpt>
      <trkpt lat="44.72173" lon="3.06407">
        <ele>1154.9</ele>
        <time>2022-08-07T10:28:28Z</time>
      </trkpt>
      <trkpt lat="44.72174" lon="3.06407">
        <ele>1154.8</ele>
        <time>2022-08-07T10:28:30Z</time>
      </trkpt>
      <trkpt lat="44.72174" lon="3.06407">
        <ele>1154.8</ele>
        <time>2022-08-07T10:28:31Z</time>
      </trkpt>
      <trkpt lat="44.72175" lon="3.06407">
        <ele>1154.7</ele>
        <time>2022-08-07T10:28:33Z</time>
      </trkpt>
      <trkpt lat="44.72174" lon="3.06407">
        <ele>1154.8</ele>
        <time>2022-08-07T10:28:38Z</time>
      </trkpt>
      <trkpt lat="44.72177" lon="3.064">
        <ele>1154.8</ele>
        <time>2022-08-07T10:28:43Z</time>
      </trkpt>
      <trkpt lat="44.72183" lon="3.06389">
        <ele>1154.8</ele>
        <time>2022-08-07T10:28:51Z</time>
      </trkpt>
      <trkpt lat="44.72191" lon="3.06373">
        <ele>1154.9</ele>
        <time>2022-08-07T10:29:02Z</time>
      </trkpt>
      <trkpt lat="44.72198" lon="3.06362">
        <ele>1154.8</ele>
        <time>2022-08-07T10:29:11Z</time>
      </trkpt>
      <trkpt lat="44.72208" lon="3.06345">
        <ele>1156</ele>
        <time>2022-08-07T10:29:24Z</time>
      </trkpt>
      <trkpt lat="44.72213" lon="3.06336">
        <ele>1156.5</ele>
        <time>2022-08-07T10:29:31Z</time>
      </trkpt>
      <trkpt lat="44.72213" lon="3.06336">
        <ele>1156.5</ele>
        <time>2022-08-07T10:29:33Z</time>
      </trkpt>
      <trkpt lat="44.72214" lon="3.06335">
        <ele>1156.5</ele>
        <time>2022-08-07T10:29:35Z</time>
      </trkpt>
      <trkpt lat="44.72217" lon="3.0633">
        <ele>1156.6</ele>
        <time>2022-08-07T10:29:39Z</time>
      </trkpt>
      <trkpt lat="44.72218" lon="3.06329">
        <ele>1156.6</ele>
        <time>2022-08-07T10:29:42Z</time>
      </trkpt>
      <trkpt lat="44.72219" lon="3.06327">
        <ele>1156.6</ele>
        <time>2022-08-07T10:29:44Z</time>
      </trkpt>
      <trkpt lat="44.7222" lon="3.06326">
        <ele>1156.7</ele>
        <time>2022-08-07T10:29:45Z</time>
      </trkpt>
      <trkpt lat="44.72227" lon="3.06315">
        <ele>1156.9</ele>
        <time>2022-08-07T10:29:54Z</time>
      </trkpt>
      <trkpt lat="44.72235" lon="3.06305">
        <ele>1156.6</ele>
        <time>2022-08-07T10:30:03Z</time>
      </trkpt>
      <trkpt lat="44.72243" lon="3.06299">
        <ele>1156.6</ele>
        <time>2022-08-07T10:30:10Z</time>
      </trkpt>
      <trkpt lat="44.72247" lon="3.06296">
        <ele>1156.7</ele>
        <time>2022-08-07T10:30:14Z</time>
      </trkpt>
      <trkpt lat="44.72258" lon="3.06293">
        <ele>1156.4</ele>
        <time>2022-08-07T10:30:23Z</time>
      </trkpt>
      <trkpt lat="44.72274" lon="3.06293">
        <ele>1155.6</ele>
        <time>2022-08-07T10:30:36Z</time>
      </trkpt>
      <trkpt lat="44.72289" lon="3.06291">
        <ele>1155.1</ele>
        <time>2022-08-07T10:30:48Z</time>
      </trkpt>
      <trkpt lat="44.72293" lon="3.06291">
        <ele>1155</ele>
        <time>2022-08-07T10:30:51Z</time>
      </trkpt>
      <trkpt lat="44.72305" lon="3.06291">
        <ele>1154.5</ele>
        <time>2022-08-07T10:31:00Z</time>
      </trkpt>
      <trkpt lat="44.72319" lon="3.06291">
        <ele>1153.6</ele>
        <time>2022-08-07T10:31:11Z</time>
      </trkpt>
      <trkpt lat="44.7232" lon="3.06291">
        <ele>1153.5</ele>
        <time>2022-08-07T10:31:13Z</time>
      </trkpt>
      <trkpt lat="44.72331" lon="3.06288">
        <ele>1153.1</ele>
        <time>2022-08-07T10:31:23Z</time>
      </trkpt>
      <trkpt lat="44.72333" lon="3.06287">
        <ele>1153</ele>
        <time>2022-08-07T10:31:25Z</time>
      </trkpt>
      <trkpt lat="44.72338" lon="3.06284">
        <ele>1153</ele>
        <time>2022-08-07T10:31:29Z</time>
      </trkpt>
      <trkpt lat="44.72347" lon="3.0628">
        <ele>1152.8</ele>
        <time>2022-08-07T10:31:36Z</time>
      </trkpt>
      <trkpt lat="44.72354" lon="3.06277">
        <ele>1152.5</ele>
        <time>2022-08-07T10:31:42Z</time>
      </trkpt>
      <trkpt lat="44.7236" lon="3.06275">
        <ele>1152.2</ele>
        <time>2022-08-07T10:31:46Z</time>
      </trkpt>
      <trkpt lat="44.72372" lon="3.06272">
        <ele>1151.5</ele>
        <time>2022-08-07T10:31:57Z</time>
      </trkpt>
      <trkpt lat="44.72382" lon="3.0627">
        <ele>1151</ele>
        <time>2022-08-07T10:32:04Z</time>
      </trkpt>
      <trkpt lat="44.72388" lon="3.06268">
        <ele>1150.8</ele>
        <time>2022-08-07T10:32:09Z</time>
      </trkpt>
      <trkpt lat="44.72396" lon="3.06264">
        <ele>1150.5</ele>
        <time>2022-08-07T10:32:16Z</time>
      </trkpt>
      <trkpt lat="44.72398" lon="3.06264">
        <ele>1150.3</ele>
        <time>2022-08-07T10:32:18Z</time>
      </trkpt>
      <trkpt lat="44.7241" lon="3.06263">
        <ele>1149.6</ele>
        <time>2022-08-07T10:32:27Z</time>
      </trkpt>
      <trkpt lat="44.72421" lon="3.06262">
        <ele>1148.9</ele>
        <time>2022-08-07T10:32:36Z</time>
      </trkpt>
      <trkpt lat="44.72426" lon="3.06261">
        <ele>1148.6</ele>
        <time>2022-08-07T10:32:40Z</time>
      </trkpt>
      <trkpt lat="44.72434" lon="3.06258">
        <ele>1148.2</ele>
        <time>2022-08-07T10:32:47Z</time>
      </trkpt>
      <trkpt lat="44.72435" lon="3.06258">
        <ele>1148.1</ele>
        <time>2022-08-07T10:32:49Z</time>
      </trkpt>
      <trkpt lat="44.72452" lon="3.06252">
        <ele>1147.1</ele>
        <time>2022-08-07T10:33:02Z</time>
      </trkpt>
      <trkpt lat="44.72461" lon="3.06246">
        <ele>1146.5</ele>
        <time>2022-08-07T10:33:10Z</time>
      </trkpt>
      <trkpt lat="44.72467" lon="3.06241">
        <ele>1146.2</ele>
        <time>2022-08-07T10:33:15Z</time>
      </trkpt>
      <trkpt lat="44.72476" lon="3.06237">
        <ele>1145.6</ele>
        <time>2022-08-07T10:33:23Z</time>
      </trkpt>
      <trkpt lat="44.72483" lon="3.06236">
        <ele>1145.3</ele>
        <time>2022-08-07T10:33:30Z</time>
      </trkpt>
      <trkpt lat="44.72483" lon="3.06236">
        <ele>1145.2</ele>
        <time>2022-08-07T10:33:31Z</time>
      </trkpt>
      <trkpt lat="44.72483" lon="3.06236">
        <ele>1145.2</ele>
        <time>2022-08-07T10:33:32Z</time>
      </trkpt>
      <trkpt lat="44.72485" lon="3.06237">
        <ele>1145.1</ele>
        <time>2022-08-07T10:33:35Z</time>
      </trkpt>
      <trkpt lat="44.72486" lon="3.06238">
        <ele>1145</ele>
        <time>2022-08-07T10:33:36Z</time>
      </trkpt>
      <trkpt lat="44.72488" lon="3.06239">
        <ele>1144.8</ele>
        <time>2022-08-07T10:33:38Z</time>
      </trkpt>
      <trkpt lat="44.72495" lon="3.06244">
        <ele>1144.2</ele>
        <time>2022-08-07T10:33:45Z</time>
      </trkpt>
      <trkpt lat="44.72495" lon="3.06245">
        <ele>1144.2</ele>
        <time>2022-08-07T10:33:47Z</time>
      </trkpt>
      <trkpt lat="44.72497" lon="3.06244">
        <ele>1144.2</ele>
        <time>2022-08-07T10:33:55Z</time>
      </trkpt>
      <trkpt lat="44.725" lon="3.0625">
        <ele>1144</ele>
        <time>2022-08-07T10:34:11Z</time>
      </trkpt>
      <trkpt lat="44.72511" lon="3.06268">
        <ele>1144.1</ele>
        <time>2022-08-07T10:34:22Z</time>
      </trkpt>
      <trkpt lat="44.72523" lon="3.06276">
        <ele>1144.7</ele>
        <time>2022-08-07T10:34:32Z</time>
      </trkpt>
      <trkpt lat="44.72534" lon="3.06276">
        <ele>1145.9</ele>
        <time>2022-08-07T10:34:42Z</time>
      </trkpt>
      <trkpt lat="44.72541" lon="3.06273">
        <ele>1146.9</ele>
        <time>2022-08-07T10:34:48Z</time>
      </trkpt>
      <trkpt lat="44.72544" lon="3.06269">
        <ele>1147</ele>
        <time>2022-08-07T10:34:51Z</time>
      </trkpt>
      <trkpt lat="44.72549" lon="3.06262">
        <ele>1147.2</ele>
        <time>2022-08-07T10:34:57Z</time>
      </trkpt>
      <trkpt lat="44.72553" lon="3.06259">
        <ele>1147.6</ele>
        <time>2022-08-07T10:35:01Z</time>
      </trkpt>
      <trkpt lat="44.72563" lon="3.06246">
        <ele>1148.4</ele>
        <time>2022-08-07T10:35:12Z</time>
      </trkpt>
      <trkpt lat="44.7257" lon="3.06239">
        <ele>1149.3</ele>
        <time>2022-08-07T10:35:19Z</time>
      </trkpt>
      <trkpt lat="44.72575" lon="3.06233">
        <ele>1150</ele>
        <time>2022-08-07T10:35:25Z</time>
      </trkpt>
      <trkpt lat="44.72579" lon="3.06228">
        <ele>1150.4</ele>
        <time>2022-08-07T10:35:30Z</time>
      </trkpt>
      <trkpt lat="44.72583" lon="3.06226">
        <ele>1151.1</ele>
        <time>2022-08-07T10:35:34Z</time>
      </trkpt>
      <trkpt lat="44.72584" lon="3.06224">
        <ele>1151.2</ele>
        <time>2022-08-07T10:35:36Z</time>
      </trkpt>
      <trkpt lat="44.72589" lon="3.06221">
        <ele>1151.3</ele>
        <time>2022-08-07T10:35:41Z</time>
      </trkpt>
      <trkpt lat="44.7259" lon="3.06221">
        <ele>1151.4</ele>
        <time>2022-08-07T10:35:42Z</time>
      </trkpt>
      <trkpt lat="44.72593" lon="3.06223">
        <ele>1151.7</ele>
        <time>2022-08-07T10:35:46Z</time>
      </trkpt>
      <trkpt lat="44.72593" lon="3.06224">
        <ele>1151.7</ele>
        <time>2022-08-07T10:35:48Z</time>
      </trkpt>
      <trkpt lat="44.72593" lon="3.06224">
        <ele>1151.7</ele>
        <time>2022-08-07T10:35:50Z</time>
      </trkpt>
      <trkpt lat="44.72596" lon="3.06225">
        <ele>1152.1</ele>
        <time>2022-08-07T10:35:56Z</time>
      </trkpt>
      <trkpt lat="44.72598" lon="3.06229">
        <ele>1152.4</ele>
        <time>2022-08-07T10:35:59Z</time>
      </trkpt>
      <trkpt lat="44.72598" lon="3.06235">
        <ele>1152.7</ele>
        <time>2022-08-07T10:36:03Z</time>
      </trkpt>
      <trkpt lat="44.72597" lon="3.06239">
        <ele>1152.8</ele>
        <time>2022-08-07T10:36:06Z</time>
      </trkpt>
      <trkpt lat="44.72595" lon="3.0624">
        <ele>1152.9</ele>
        <time>2022-08-07T10:36:10Z</time>
      </trkpt>
      <trkpt lat="44.72596" lon="3.0624">
        <ele>1152.9</ele>
        <time>2022-08-07T10:36:11Z</time>
      </trkpt>
      <trkpt lat="44.72601" lon="3.06242">
        <ele>1153.2</ele>
        <time>2022-08-07T10:36:16Z</time>
      </trkpt>
      <trkpt lat="44.72608" lon="3.06244">
        <ele>1153.6</ele>
        <time>2022-08-07T10:36:22Z</time>
      </trkpt>
      <trkpt lat="44.72613" lon="3.06249">
        <ele>1154</ele>
        <time>2022-08-07T10:36:28Z</time>
      </trkpt>
      <trkpt lat="44.72616" lon="3.06252">
        <ele>1154</ele>
        <time>2022-08-07T10:36:31Z</time>
      </trkpt>
      <trkpt lat="44.72618" lon="3.06253">
        <ele>1154</ele>
        <time>2022-08-07T10:36:33Z</time>
      </trkpt>
      <trkpt lat="44.72617" lon="3.06254">
        <ele>1154</ele>
        <time>2022-08-07T10:36:38Z</time>
      </trkpt>
      <trkpt lat="44.72619" lon="3.06255">
        <ele>1154</ele>
        <time>2022-08-07T10:36:46Z</time>
      </trkpt>
      <trkpt lat="44.72624" lon="3.06263">
        <ele>1153.8</ele>
        <time>2022-08-07T10:36:53Z</time>
      </trkpt>
      <trkpt lat="44.72631" lon="3.06272">
        <ele>1153.4</ele>
        <time>2022-08-07T10:37:00Z</time>
      </trkpt>
      <trkpt lat="44.72631" lon="3.06273">
        <ele>1153.4</ele>
        <time>2022-08-07T10:37:01Z</time>
      </trkpt>
      <trkpt lat="44.72633" lon="3.06275">
        <ele>1153.3</ele>
        <time>2022-08-07T10:37:03Z</time>
      </trkpt>
      <trkpt lat="44.72635" lon="3.06279">
        <ele>1153.3</ele>
        <time>2022-08-07T10:37:06Z</time>
      </trkpt>
      <trkpt lat="44.72637" lon="3.06282">
        <ele>1153.5</ele>
        <time>2022-08-07T10:37:09Z</time>
      </trkpt>
      <trkpt lat="44.72639" lon="3.06284">
        <ele>1153.6</ele>
        <time>2022-08-07T10:37:11Z</time>
      </trkpt>
      <trkpt lat="44.7264" lon="3.06284">
        <ele>1153.6</ele>
        <time>2022-08-07T10:37:12Z</time>
      </trkpt>
      <trkpt lat="44.72649" lon="3.06285">
        <ele>1153.3</ele>
        <time>2022-08-07T10:37:19Z</time>
      </trkpt>
      <trkpt lat="44.7265" lon="3.06285">
        <ele>1153.2</ele>
        <time>2022-08-07T10:37:21Z</time>
      </trkpt>
      <trkpt lat="44.72665" lon="3.06286">
        <ele>1152.7</ele>
        <time>2022-08-07T10:37:31Z</time>
      </trkpt>
      <trkpt lat="44.72675" lon="3.06288">
        <ele>1152.1</ele>
        <time>2022-08-07T10:37:39Z</time>
      </trkpt>
      <trkpt lat="44.72679" lon="3.06289">
        <ele>1151.9</ele>
        <time>2022-08-07T10:37:43Z</time>
      </trkpt>
      <trkpt lat="44.72683" lon="3.06289">
        <ele>1151.6</ele>
        <time>2022-08-07T10:37:47Z</time>
      </trkpt>
      <trkpt lat="44.72685" lon="3.06289">
        <ele>1151.5</ele>
        <time>2022-08-07T10:37:49Z</time>
      </trkpt>
      <trkpt lat="44.72693" lon="3.06291">
        <ele>1151</ele>
        <time>2022-08-07T10:37:55Z</time>
      </trkpt>
      <trkpt lat="44.72697" lon="3.06293">
        <ele>1150.8</ele>
        <time>2022-08-07T10:37:58Z</time>
      </trkpt>
      <trkpt lat="44.72707" lon="3.06298">
        <ele>1150</ele>
        <time>2022-08-07T10:38:06Z</time>
      </trkpt>
      <trkpt lat="44.72724" lon="3.06305">
        <ele>1148.7</ele>
        <time>2022-08-07T10:38:18Z</time>
      </trkpt>
      <trkpt lat="44.72727" lon="3.06306">
        <ele>1148.5</ele>
        <time>2022-08-07T10:38:20Z</time>
      </trkpt>
      <trkpt lat="44.72735" lon="3.06313">
        <ele>1148.8</ele>
        <time>2022-08-07T10:38:28Z</time>
      </trkpt>
      <trkpt lat="44.72744" lon="3.0632">
        <ele>1148.8</ele>
        <time>2022-08-07T10:38:37Z</time>
      </trkpt>
      <trkpt lat="44.72746" lon="3.0632">
        <ele>1148.8</ele>
        <time>2022-08-07T10:38:38Z</time>
      </trkpt>
      <trkpt lat="44.7275" lon="3.06324">
        <ele>1149.1</ele>
        <time>2022-08-07T10:38:42Z</time>
      </trkpt>
      <trkpt lat="44.72762" lon="3.06334">
        <ele>1149.3</ele>
        <time>2022-08-07T10:38:53Z</time>
      </trkpt>
      <trkpt lat="44.72774" lon="3.06344">
        <ele>1149.7</ele>
        <time>2022-08-07T10:39:03Z</time>
      </trkpt>
      <trkpt lat="44.72778" lon="3.06347">
        <ele>1149.9</ele>
        <time>2022-08-07T10:39:07Z</time>
      </trkpt>
      <trkpt lat="44.72781" lon="3.0635">
        <ele>1150.2</ele>
        <time>2022-08-07T10:39:10Z</time>
      </trkpt>
      <trkpt lat="44.72788" lon="3.06357">
        <ele>1150.7</ele>
        <time>2022-08-07T10:39:17Z</time>
      </trkpt>
      <trkpt lat="44.72792" lon="3.06361">
        <ele>1151</ele>
        <time>2022-08-07T10:39:21Z</time>
      </trkpt>
      <trkpt lat="44.728" lon="3.06372">
        <ele>1151.3</ele>
        <time>2022-08-07T10:39:30Z</time>
      </trkpt>
      <trkpt lat="44.72802" lon="3.06374">
        <ele>1151.4</ele>
        <time>2022-08-07T10:39:32Z</time>
      </trkpt>
      <trkpt lat="44.72805" lon="3.06379">
        <ele>1151.6</ele>
        <time>2022-08-07T10:39:36Z</time>
      </trkpt>
      <trkpt lat="44.72809" lon="3.06384">
        <ele>1151.9</ele>
        <time>2022-08-07T10:39:41Z</time>
      </trkpt>
      <trkpt lat="44.72817" lon="3.06396">
        <ele>1152.2</ele>
        <time>2022-08-07T10:39:51Z</time>
      </trkpt>
      <trkpt lat="44.72828" lon="3.06408">
        <ele>1152.3</ele>
        <time>2022-08-07T10:40:02Z</time>
      </trkpt>
      <trkpt lat="44.7284" lon="3.06425">
        <ele>1152.7</ele>
        <time>2022-08-07T10:40:16Z</time>
      </trkpt>
      <trkpt lat="44.72849" lon="3.06437">
        <ele>1152.7</ele>
        <time>2022-08-07T10:40:26Z</time>
      </trkpt>
      <trkpt lat="44.72857" lon="3.06452">
        <ele>1152.9</ele>
        <time>2022-08-07T10:40:37Z</time>
      </trkpt>
      <trkpt lat="44.72865" lon="3.06472">
        <ele>1153.4</ele>
        <time>2022-08-07T10:40:51Z</time>
      </trkpt>
      <trkpt lat="44.72866" lon="3.06475">
        <ele>1153.4</ele>
        <time>2022-08-07T10:40:53Z</time>
      </trkpt>
      <trkpt lat="44.7287" lon="3.06488">
        <ele>1153.5</ele>
        <time>2022-08-07T10:41:01Z</time>
      </trkpt>
      <trkpt lat="44.72874" lon="3.065">
        <ele>1154</ele>
        <time>2022-08-07T10:41:10Z</time>
      </trkpt>
      <trkpt lat="44.72877" lon="3.06506">
        <ele>1154.4</ele>
        <time>2022-08-07T10:41:13Z</time>
      </trkpt>
      <trkpt lat="44.72886" lon="3.06518">
        <ele>1155.3</ele>
        <time>2022-08-07T10:41:23Z</time>
      </trkpt>
      <trkpt lat="44.72898" lon="3.06528">
        <ele>1156.3</ele>
        <time>2022-08-07T10:41:35Z</time>
      </trkpt>
      <trkpt lat="44.729" lon="3.06529">
        <ele>1156.5</ele>
        <time>2022-08-07T10:41:37Z</time>
      </trkpt>
      <trkpt lat="44.72906" lon="3.06536">
        <ele>1157.3</ele>
        <time>2022-08-07T10:41:44Z</time>
      </trkpt>
      <trkpt lat="44.72906" lon="3.06537">
        <ele>1157.4</ele>
        <time>2022-08-07T10:41:45Z</time>
      </trkpt>
      <trkpt lat="44.7291" lon="3.06543">
        <ele>1158</ele>
        <time>2022-08-07T10:41:50Z</time>
      </trkpt>
      <trkpt lat="44.72915" lon="3.06549">
        <ele>1158.5</ele>
        <time>2022-08-07T10:41:56Z</time>
      </trkpt>
      <trkpt lat="44.72921" lon="3.06557">
        <ele>1158.8</ele>
        <time>2022-08-07T10:42:03Z</time>
      </trkpt>
      <trkpt lat="44.72925" lon="3.06564">
        <ele>1158.7</ele>
        <time>2022-08-07T10:42:08Z</time>
      </trkpt>
      <trkpt lat="44.72934" lon="3.06584">
        <ele>1158.8</ele>
        <time>2022-08-07T10:42:23Z</time>
      </trkpt>
      <trkpt lat="44.72944" lon="3.06604">
        <ele>1158.8</ele>
        <time>2022-08-07T10:42:37Z</time>
      </trkpt>
      <trkpt lat="44.72953" lon="3.06624">
        <ele>1158.6</ele>
        <time>2022-08-07T10:42:51Z</time>
      </trkpt>
      <trkpt lat="44.72961" lon="3.06633">
        <ele>1158.5</ele>
        <time>2022-08-07T10:43:01Z</time>
      </trkpt>
      <trkpt lat="44.72969" lon="3.06644">
        <ele>1158.4</ele>
        <time>2022-08-07T10:43:10Z</time>
      </trkpt>
      <trkpt lat="44.72984" lon="3.06662">
        <ele>1158.3</ele>
        <time>2022-08-07T10:43:25Z</time>
      </trkpt>
      <trkpt lat="44.73" lon="3.06671">
        <ele>1158.3</ele>
        <time>2022-08-07T10:43:39Z</time>
      </trkpt>
      <trkpt lat="44.73015" lon="3.06682">
        <ele>1158</ele>
        <time>2022-08-07T10:43:52Z</time>
      </trkpt>
      <trkpt lat="44.73022" lon="3.06691">
        <ele>1158.2</ele>
        <time>2022-08-07T10:44:02Z</time>
      </trkpt>
      <trkpt lat="44.73022" lon="3.06691">
        <ele>1158.2</ele>
        <time>2022-08-07T10:44:03Z</time>
      </trkpt>
      <trkpt lat="44.73022" lon="3.06691">
        <ele>1158.2</ele>
        <time>2022-08-07T10:44:05Z</time>
      </trkpt>
      <trkpt lat="44.73022" lon="3.06691">
        <ele>1158.2</ele>
        <time>2022-08-07T10:44:10Z</time>
      </trkpt>
      <trkpt lat="44.73027" lon="3.06695">
        <ele>1158.1</ele>
        <time>2022-08-07T10:44:29Z</time>
      </trkpt>
      <trkpt lat="44.73037" lon="3.06701">
        <ele>1158.5</ele>
        <time>2022-08-07T10:44:37Z</time>
      </trkpt>
      <trkpt lat="44.73046" lon="3.06704">
        <ele>1158.7</ele>
        <time>2022-08-07T10:44:43Z</time>
      </trkpt>
      <trkpt lat="44.7306" lon="3.0671">
        <ele>1158.9</ele>
        <time>2022-08-07T10:44:55Z</time>
      </trkpt>
      <trkpt lat="44.73075" lon="3.06715">
        <ele>1158.6</ele>
        <time>2022-08-07T10:45:06Z</time>
      </trkpt>
      <trkpt lat="44.73088" lon="3.06721">
        <ele>1158.5</ele>
        <time>2022-08-07T10:45:17Z</time>
      </trkpt>
      <trkpt lat="44.731" lon="3.06727">
        <ele>1158.1</ele>
        <time>2022-08-07T10:45:28Z</time>
      </trkpt>
      <trkpt lat="44.73117" lon="3.06736">
        <ele>1157.5</ele>
        <time>2022-08-07T10:45:42Z</time>
      </trkpt>
      <trkpt lat="44.73127" lon="3.06743">
        <ele>1157.2</ele>
        <time>2022-08-07T10:45:52Z</time>
      </trkpt>
      <trkpt lat="44.73144" lon="3.06753">
        <ele>1156.6</ele>
        <time>2022-08-07T10:46:06Z</time>
      </trkpt>
      <trkpt lat="44.73146" lon="3.06755">
        <ele>1156.4</ele>
        <time>2022-08-07T10:46:08Z</time>
      </trkpt>
      <trkpt lat="44.73151" lon="3.06757">
        <ele>1156.1</ele>
        <time>2022-08-07T10:46:15Z</time>
      </trkpt>
      <trkpt lat="44.73152" lon="3.06758">
        <ele>1155.9</ele>
        <time>2022-08-07T10:46:16Z</time>
      </trkpt>
      <trkpt lat="44.73155" lon="3.06759">
        <ele>1155.8</ele>
        <time>2022-08-07T10:46:19Z</time>
      </trkpt>
      <trkpt lat="44.7316" lon="3.06765">
        <ele>1155.7</ele>
        <time>2022-08-07T10:46:24Z</time>
      </trkpt>
      <trkpt lat="44.73163" lon="3.06768">
        <ele>1155.6</ele>
        <time>2022-08-07T10:46:27Z</time>
      </trkpt>
      <trkpt lat="44.73171" lon="3.0678">
        <ele>1155.4</ele>
        <time>2022-08-07T10:46:36Z</time>
      </trkpt>
      <trkpt lat="44.73178" lon="3.06788">
        <ele>1154.6</ele>
        <time>2022-08-07T10:46:44Z</time>
      </trkpt>
      <trkpt lat="44.7318" lon="3.0679">
        <ele>1154.3</ele>
        <time>2022-08-07T10:46:46Z</time>
      </trkpt>
      <trkpt lat="44.73188" lon="3.06793">
        <ele>1153.4</ele>
        <time>2022-08-07T10:46:53Z</time>
      </trkpt>
      <trkpt lat="44.73193" lon="3.06795">
        <ele>1152.8</ele>
        <time>2022-08-07T10:46:57Z</time>
      </trkpt>
      <trkpt lat="44.73197" lon="3.06797">
        <ele>1152.6</ele>
        <time>2022-08-07T10:47:00Z</time>
      </trkpt>
      <trkpt lat="44.7321" lon="3.06803">
        <ele>1152.3</ele>
        <time>2022-08-07T10:47:11Z</time>
      </trkpt>
      <trkpt lat="44.7322" lon="3.06809">
        <ele>1152.1</ele>
        <time>2022-08-07T10:47:21Z</time>
      </trkpt>
      <trkpt lat="44.7323" lon="3.06816">
        <ele>1151.4</ele>
        <time>2022-08-07T10:47:30Z</time>
      </trkpt>
      <trkpt lat="44.73231" lon="3.06816">
        <ele>1151.3</ele>
        <time>2022-08-07T10:47:31Z</time>
      </trkpt>
      <trkpt lat="44.73242" lon="3.06826">
        <ele>1150.6</ele>
        <time>2022-08-07T10:47:41Z</time>
      </trkpt>
      <trkpt lat="44.73251" lon="3.06833">
        <ele>1150</ele>
        <time>2022-08-07T10:47:48Z</time>
      </trkpt>
      <trkpt lat="44.73257" lon="3.06839">
        <ele>1149.9</ele>
        <time>2022-08-07T10:47:54Z</time>
      </trkpt>
      <trkpt lat="44.73271" lon="3.06847">
        <ele>1149.7</ele>
        <time>2022-08-07T10:48:05Z</time>
      </trkpt>
      <trkpt lat="44.73283" lon="3.06852">
        <ele>1149.5</ele>
        <time>2022-08-07T10:48:15Z</time>
      </trkpt>
      <trkpt lat="44.7329" lon="3.06854">
        <ele>1149.3</ele>
        <time>2022-08-07T10:48:20Z</time>
      </trkpt>
      <trkpt lat="44.73296" lon="3.06858">
        <ele>1149.2</ele>
        <time>2022-08-07T10:48:26Z</time>
      </trkpt>
      <trkpt lat="44.7331" lon="3.06865">
        <ele>1149.2</ele>
        <time>2022-08-07T10:48:37Z</time>
      </trkpt>
      <trkpt lat="44.7332" lon="3.06872">
        <ele>1149.6</ele>
        <time>2022-08-07T10:48:46Z</time>
      </trkpt>
      <trkpt lat="44.73334" lon="3.0688">
        <ele>1150.4</ele>
        <time>2022-08-07T10:48:58Z</time>
      </trkpt>
      <trkpt lat="44.73339" lon="3.06884">
        <ele>1150.8</ele>
        <time>2022-08-07T10:49:03Z</time>
      </trkpt>
      <trkpt lat="44.73349" lon="3.06889">
        <ele>1151.6</ele>
        <time>2022-08-07T10:49:12Z</time>
      </trkpt>
      <trkpt lat="44.73353" lon="3.06892">
        <ele>1152.1</ele>
        <time>2022-08-07T10:49:16Z</time>
      </trkpt>
      <trkpt lat="44.73356" lon="3.06894">
        <ele>1152.4</ele>
        <time>2022-08-07T10:49:19Z</time>
      </trkpt>
      <trkpt lat="44.73356" lon="3.06895">
        <ele>1152.5</ele>
        <time>2022-08-07T10:49:20Z</time>
      </trkpt>
      <trkpt lat="44.73366" lon="3.06899">
        <ele>1153.2</ele>
        <time>2022-08-07T10:49:29Z</time>
      </trkpt>
      <trkpt lat="44.7337" lon="3.06902">
        <ele>1153.5</ele>
        <time>2022-08-07T10:49:33Z</time>
      </trkpt>
      <trkpt lat="44.7337" lon="3.06902">
        <ele>1153.6</ele>
        <time>2022-08-07T10:49:35Z</time>
      </trkpt>
      <trkpt lat="44.7337" lon="3.06903">
        <ele>1153.6</ele>
        <time>2022-08-07T10:49:36Z</time>
      </trkpt>
      <trkpt lat="44.73371" lon="3.06903">
        <ele>1153.7</ele>
        <time>2022-08-07T10:49:37Z</time>
      </trkpt>
      <trkpt lat="44.73372" lon="3.06903">
        <ele>1153.7</ele>
        <time>2022-08-07T10:49:39Z</time>
      </trkpt>
      <trkpt lat="44.73375" lon="3.06904">
        <ele>1153.9</ele>
        <time>2022-08-07T10:49:42Z</time>
      </trkpt>
      <trkpt lat="44.73376" lon="3.06905">
        <ele>1154</ele>
        <time>2022-08-07T10:49:43Z</time>
      </trkpt>
      <trkpt lat="44.73385" lon="3.06909">
        <ele>1154.8</ele>
        <time>2022-08-07T10:49:51Z</time>
      </trkpt>
      <trkpt lat="44.73394" lon="3.06912">
        <ele>1155.3</ele>
        <time>2022-08-07T10:49:59Z</time>
      </trkpt>
      <trkpt lat="44.73395" lon="3.06912">
        <ele>1155.3</ele>
        <time>2022-08-07T10:50:00Z</time>
      </trkpt>
      <trkpt lat="44.73405" lon="3.06914">
        <ele>1155.5</ele>
        <time>2022-08-07T10:50:09Z</time>
      </trkpt>
      <trkpt lat="44.73417" lon="3.06915">
        <ele>1155.7</ele>
        <time>2022-08-07T10:50:19Z</time>
      </trkpt>
      <trkpt lat="44.73429" lon="3.06916">
        <ele>1156.3</ele>
        <time>2022-08-07T10:50:29Z</time>
      </trkpt>
      <trkpt lat="44.7343" lon="3.06916">
        <ele>1156.3</ele>
        <time>2022-08-07T10:50:30Z</time>
      </trkpt>
      <trkpt lat="44.73445" lon="3.06916">
        <ele>1156.9</ele>
        <time>2022-08-07T10:50:42Z</time>
      </trkpt>
      <trkpt lat="44.73448" lon="3.06915">
        <ele>1156.9</ele>
        <time>2022-08-07T10:50:45Z</time>
      </trkpt>
      <trkpt lat="44.73461" lon="3.06915">
        <ele>1157.3</ele>
        <time>2022-08-07T10:50:56Z</time>
      </trkpt>
      <trkpt lat="44.73472" lon="3.06914">
        <ele>1157.7</ele>
        <time>2022-08-07T10:51:05Z</time>
      </trkpt>
      <trkpt lat="44.73486" lon="3.06915">
        <ele>1157.7</ele>
        <time>2022-08-07T10:51:17Z</time>
      </trkpt>
      <trkpt lat="44.735" lon="3.06919">
        <ele>1158</ele>
        <time>2022-08-07T10:51:29Z</time>
      </trkpt>
      <trkpt lat="44.73507" lon="3.06928">
        <ele>1157.3</ele>
        <time>2022-08-07T10:51:37Z</time>
      </trkpt>
      <trkpt lat="44.73509" lon="3.06941">
        <ele>1157.4</ele>
        <time>2022-08-07T10:51:45Z</time>
      </trkpt>
      <trkpt lat="44.73504" lon="3.06957">
        <ele>1158</ele>
        <time>2022-08-07T10:51:55Z</time>
      </trkpt>
      <trkpt lat="44.73501" lon="3.06976">
        <ele>1157.8</ele>
        <time>2022-08-07T10:52:06Z</time>
      </trkpt>
      <trkpt lat="44.735" lon="3.06982">
        <ele>1157.7</ele>
        <time>2022-08-07T10:52:13Z</time>
      </trkpt>
      <trkpt lat="44.735" lon="3.06982">
        <ele>1157.7</ele>
        <time>2022-08-07T10:52:14Z</time>
      </trkpt>
      <trkpt lat="44.735" lon="3.06983">
        <ele>1157.6</ele>
        <time>2022-08-07T10:52:15Z</time>
      </trkpt>
      <trkpt lat="44.735" lon="3.06983">
        <ele>1157.6</ele>
        <time>2022-08-07T10:52:17Z</time>
      </trkpt>
      <trkpt lat="44.735" lon="3.06983">
        <ele>1157.6</ele>
        <time>2022-08-07T10:52:20Z</time>
      </trkpt>
      <trkpt lat="44.735" lon="3.06992">
        <ele>1157.3</ele>
        <time>2022-08-07T10:52:36Z</time>
      </trkpt>
      <trkpt lat="44.735" lon="3.07009">
        <ele>1156.3</ele>
        <time>2022-08-07T10:52:43Z</time>
      </trkpt>
      <trkpt lat="44.73501" lon="3.07022">
        <ele>1155.5</ele>
        <time>2022-08-07T10:52:50Z</time>
      </trkpt>
      <trkpt lat="44.73506" lon="3.07035">
        <ele>1155.6</ele>
        <time>2022-08-07T10:52:59Z</time>
      </trkpt>
      <trkpt lat="44.73515" lon="3.07039">
        <ele>1156.3</ele>
        <time>2022-08-07T10:53:07Z</time>
      </trkpt>
      <trkpt lat="44.73521" lon="3.07039">
        <ele>1156.6</ele>
        <time>2022-08-07T10:53:13Z</time>
      </trkpt>
      <trkpt lat="44.73527" lon="3.07038">
        <ele>1157</ele>
        <time>2022-08-07T10:53:18Z</time>
      </trkpt>
      <trkpt lat="44.73535" lon="3.07038">
        <ele>1157.2</ele>
        <time>2022-08-07T10:53:26Z</time>
      </trkpt>
      <trkpt lat="44.73535" lon="3.07038">
        <ele>1157.2</ele>
        <time>2022-08-07T10:53:27Z</time>
      </trkpt>
      <trkpt lat="44.73536" lon="3.07038">
        <ele>1157.2</ele>
        <time>2022-08-07T10:53:28Z</time>
      </trkpt>
      <trkpt lat="44.73538" lon="3.07038">
        <ele>1157.3</ele>
        <time>2022-08-07T10:53:30Z</time>
      </trkpt>
      <trkpt lat="44.73544" lon="3.07038">
        <ele>1157.4</ele>
        <time>2022-08-07T10:53:35Z</time>
      </trkpt>
      <trkpt lat="44.73558" lon="3.07036">
        <ele>1158</ele>
        <time>2022-08-07T10:53:47Z</time>
      </trkpt>
      <trkpt lat="44.7357" lon="3.07034">
        <ele>1159.3</ele>
        <time>2022-08-07T10:53:57Z</time>
      </trkpt>
      <trkpt lat="44.73577" lon="3.07034">
        <ele>1160.1</ele>
        <time>2022-08-07T10:54:04Z</time>
      </trkpt>
      <trkpt lat="44.73583" lon="3.07033">
        <ele>1160.7</ele>
        <time>2022-08-07T10:54:10Z</time>
      </trkpt>
      <trkpt lat="44.73585" lon="3.07033">
        <ele>1160.9</ele>
        <time>2022-08-07T10:54:11Z</time>
      </trkpt>
      <trkpt lat="44.73592" lon="3.07033">
        <ele>1162.2</ele>
        <time>2022-08-07T10:54:18Z</time>
      </trkpt>
      <trkpt lat="44.73595" lon="3.07032">
        <ele>1162.7</ele>
        <time>2022-08-07T10:54:21Z</time>
      </trkpt>
      <trkpt lat="44.73598" lon="3.07031">
        <ele>1163</ele>
        <time>2022-08-07T10:54:24Z</time>
      </trkpt>
      <trkpt lat="44.73607" lon="3.07032">
        <ele>1164.6</ele>
        <time>2022-08-07T10:54:33Z</time>
      </trkpt>
      <trkpt lat="44.73616" lon="3.07032">
        <ele>1166</ele>
        <time>2022-08-07T10:54:43Z</time>
      </trkpt>
      <trkpt lat="44.73629" lon="3.0703">
        <ele>1167.1</ele>
        <time>2022-08-07T10:54:54Z</time>
      </trkpt>
      <trkpt lat="44.7363" lon="3.07029">
        <ele>1167.2</ele>
        <time>2022-08-07T10:54:55Z</time>
      </trkpt>
      <trkpt lat="44.73639" lon="3.07028">
        <ele>1168</ele>
        <time>2022-08-07T10:55:03Z</time>
      </trkpt>
      <trkpt lat="44.73643" lon="3.07027">
        <ele>1168.4</ele>
        <time>2022-08-07T10:55:06Z</time>
      </trkpt>
      <trkpt lat="44.73651" lon="3.07026">
        <ele>1169.1</ele>
        <time>2022-08-07T10:55:14Z</time>
      </trkpt>
      <trkpt lat="44.73653" lon="3.07026">
        <ele>1169.3</ele>
        <time>2022-08-07T10:55:16Z</time>
      </trkpt>
      <trkpt lat="44.73662" lon="3.07027">
        <ele>1170.3</ele>
        <time>2022-08-07T10:55:25Z</time>
      </trkpt>
      <trkpt lat="44.73663" lon="3.07026">
        <ele>1170.4</ele>
        <time>2022-08-07T10:55:26Z</time>
      </trkpt>
      <trkpt lat="44.73672" lon="3.07026">
        <ele>1171.4</ele>
        <time>2022-08-07T10:55:34Z</time>
      </trkpt>
      <trkpt lat="44.73681" lon="3.07026">
        <ele>1172.3</ele>
        <time>2022-08-07T10:55:42Z</time>
      </trkpt>
      <trkpt lat="44.73689" lon="3.07026">
        <ele>1173.1</ele>
        <time>2022-08-07T10:55:49Z</time>
      </trkpt>
      <trkpt lat="44.73692" lon="3.07025">
        <ele>1173.3</ele>
        <time>2022-08-07T10:55:52Z</time>
      </trkpt>
      <trkpt lat="44.73697" lon="3.07024">
        <ele>1173.8</ele>
        <time>2022-08-07T10:55:57Z</time>
      </trkpt>
      <trkpt lat="44.73704" lon="3.07023">
        <ele>1174.7</ele>
        <time>2022-08-07T10:56:04Z</time>
      </trkpt>
      <trkpt lat="44.73705" lon="3.07023">
        <ele>1174.7</ele>
        <time>2022-08-07T10:56:05Z</time>
      </trkpt>
      <trkpt lat="44.73712" lon="3.07022">
        <ele>1175.6</ele>
        <time>2022-08-07T10:56:12Z</time>
      </trkpt>
      <trkpt lat="44.73714" lon="3.07022">
        <ele>1175.8</ele>
        <time>2022-08-07T10:56:14Z</time>
      </trkpt>
      <trkpt lat="44.73718" lon="3.07022">
        <ele>1176.5</ele>
        <time>2022-08-07T10:56:19Z</time>
      </trkpt>
      <trkpt lat="44.73723" lon="3.07022">
        <ele>1177</ele>
        <time>2022-08-07T10:56:23Z</time>
      </trkpt>
      <trkpt lat="44.73731" lon="3.07022">
        <ele>1177.6</ele>
        <time>2022-08-07T10:56:30Z</time>
      </trkpt>
      <trkpt lat="44.73735" lon="3.07022">
        <ele>1177.8</ele>
        <time>2022-08-07T10:56:34Z</time>
      </trkpt>
      <trkpt lat="44.73741" lon="3.07022">
        <ele>1178.3</ele>
        <time>2022-08-07T10:56:39Z</time>
      </trkpt>
      <trkpt lat="44.73745" lon="3.07022">
        <ele>1178.6</ele>
        <time>2022-08-07T10:56:43Z</time>
      </trkpt>
      <trkpt lat="44.73754" lon="3.07021">
        <ele>1178.9</ele>
        <time>2022-08-07T10:56:51Z</time>
      </trkpt>
      <trkpt lat="44.73755" lon="3.07021">
        <ele>1178.9</ele>
        <time>2022-08-07T10:56:53Z</time>
      </trkpt>
      <trkpt lat="44.73755" lon="3.07021">
        <ele>1179</ele>
        <time>2022-08-07T10:56:54Z</time>
      </trkpt>
      <trkpt lat="44.73755" lon="3.07021">
        <ele>1179</ele>
        <time>2022-08-07T10:56:55Z</time>
      </trkpt>
      <trkpt lat="44.73755" lon="3.07021">
        <ele>1179</ele>
        <time>2022-08-07T10:56:56Z</time>
      </trkpt>
      <trkpt lat="44.73758" lon="3.0702">
        <ele>1178.9</ele>
        <time>2022-08-07T10:57:13Z</time>
      </trkpt>
      <trkpt lat="44.73765" lon="3.07021">
        <ele>1179.3</ele>
        <time>2022-08-07T10:57:17Z</time>
      </trkpt>
      <trkpt lat="44.73773" lon="3.07022">
        <ele>1179.8</ele>
        <time>2022-08-07T10:57:24Z</time>
      </trkpt>
      <trkpt lat="44.73774" lon="3.07022">
        <ele>1179.8</ele>
        <time>2022-08-07T10:57:27Z</time>
      </trkpt>
      <trkpt lat="44.73775" lon="3.07022">
        <ele>1179.8</ele>
        <time>2022-08-07T10:57:28Z</time>
      </trkpt>
      <trkpt lat="44.73777" lon="3.07021">
        <ele>1179.7</ele>
        <time>2022-08-07T10:57:30Z</time>
      </trkpt>
      <trkpt lat="44.73785" lon="3.07019">
        <ele>1179.3</ele>
        <time>2022-08-07T10:57:41Z</time>
      </trkpt>
      <trkpt lat="44.73785" lon="3.07019">
        <ele>1179.2</ele>
        <time>2022-08-07T10:57:47Z</time>
      </trkpt>
      <trkpt lat="44.73785" lon="3.07018">
        <ele>1179.1</ele>
        <time>2022-08-07T10:57:59Z</time>
      </trkpt>
      <trkpt lat="44.73784" lon="3.07018">
        <ele>1179.1</ele>
        <time>2022-08-07T10:58:59Z</time>
      </trkpt>
      <trkpt lat="44.73784" lon="3.07018">
        <ele>1179.1</ele>
        <time>2022-08-07T10:59:51Z</time>
      </trkpt>
      <trkpt lat="44.73784" lon="3.07016">
        <ele>1178.8</ele>
        <time>2022-08-07T11:00:32Z</time>
      </trkpt>
      <trkpt lat="44.73789" lon="3.07017">
        <ele>1178.8</ele>
        <time>2022-08-07T11:00:39Z</time>
      </trkpt>
      <trkpt lat="44.73803" lon="3.07018">
        <ele>1178.6</ele>
        <time>2022-08-07T11:00:50Z</time>
      </trkpt>
      <trkpt lat="44.73815" lon="3.07017">
        <ele>1178</ele>
        <time>2022-08-07T11:01:01Z</time>
      </trkpt>
      <trkpt lat="44.73826" lon="3.07016">
        <ele>1177.4</ele>
        <time>2022-08-07T11:01:10Z</time>
      </trkpt>
      <trkpt lat="44.73833" lon="3.07015">
        <ele>1177.1</ele>
        <time>2022-08-07T11:01:15Z</time>
      </trkpt>
      <trkpt lat="44.73842" lon="3.07014">
        <ele>1176.9</ele>
        <time>2022-08-07T11:01:21Z</time>
      </trkpt>
      <trkpt lat="44.73857" lon="3.07014">
        <ele>1176.5</ele>
        <time>2022-08-07T11:01:34Z</time>
      </trkpt>
      <trkpt lat="44.73868" lon="3.07013">
        <ele>1176.5</ele>
        <time>2022-08-07T11:01:43Z</time>
      </trkpt>
      <trkpt lat="44.73882" lon="3.07013">
        <ele>1176.8</ele>
        <time>2022-08-07T11:01:55Z</time>
      </trkpt>
      <trkpt lat="44.73896" lon="3.07013">
        <ele>1177.1</ele>
        <time>2022-08-07T11:02:07Z</time>
      </trkpt>
      <trkpt lat="44.73911" lon="3.07014">
        <ele>1177.8</ele>
        <time>2022-08-07T11:02:19Z</time>
      </trkpt>
      <trkpt lat="44.73925" lon="3.07012">
        <ele>1178.2</ele>
        <time>2022-08-07T11:02:31Z</time>
      </trkpt>
      <trkpt lat="44.73937" lon="3.07012">
        <ele>1178.6</ele>
        <time>2022-08-07T11:02:41Z</time>
      </trkpt>
      <trkpt lat="44.73938" lon="3.07012">
        <ele>1178.6</ele>
        <time>2022-08-07T11:02:42Z</time>
      </trkpt>
      <trkpt lat="44.73949" lon="3.0701">
        <ele>1178.9</ele>
        <time>2022-08-07T11:02:51Z</time>
      </trkpt>
      <trkpt lat="44.73962" lon="3.0701">
        <ele>1179.3</ele>
        <time>2022-08-07T11:03:02Z</time>
      </trkpt>
      <trkpt lat="44.73975" lon="3.07008">
        <ele>1179.7</ele>
        <time>2022-08-07T11:03:14Z</time>
      </trkpt>
      <trkpt lat="44.73978" lon="3.07008">
        <ele>1179.8</ele>
        <time>2022-08-07T11:03:16Z</time>
      </trkpt>
      <trkpt lat="44.73988" lon="3.07006">
        <ele>1180</ele>
        <time>2022-08-07T11:03:25Z</time>
      </trkpt>
      <trkpt lat="44.73993" lon="3.07005">
        <ele>1180.1</ele>
        <time>2022-08-07T11:03:29Z</time>
      </trkpt>
      <trkpt lat="44.74001" lon="3.07004">
        <ele>1180.3</ele>
        <time>2022-08-07T11:03:36Z</time>
      </trkpt>
      <trkpt lat="44.74015" lon="3.07003">
        <ele>1180.7</ele>
        <time>2022-08-07T11:03:48Z</time>
      </trkpt>
      <trkpt lat="44.74021" lon="3.07003">
        <ele>1180.9</ele>
        <time>2022-08-07T11:03:53Z</time>
      </trkpt>
      <trkpt lat="44.74023" lon="3.07003">
        <ele>1181</ele>
        <time>2022-08-07T11:03:55Z</time>
      </trkpt>
      <trkpt lat="44.74033" lon="3.07004">
        <ele>1181.1</ele>
        <time>2022-08-07T11:04:02Z</time>
      </trkpt>
      <trkpt lat="44.74043" lon="3.07002">
        <ele>1181.1</ele>
        <time>2022-08-07T11:04:10Z</time>
      </trkpt>
      <trkpt lat="44.74057" lon="3.07001">
        <ele>1181</ele>
        <time>2022-08-07T11:04:22Z</time>
      </trkpt>
      <trkpt lat="44.74071" lon="3.07">
        <ele>1181</ele>
        <time>2022-08-07T11:04:33Z</time>
      </trkpt>
      <trkpt lat="44.74082" lon="3.06998">
        <ele>1180.8</ele>
        <time>2022-08-07T11:04:42Z</time>
      </trkpt>
      <trkpt lat="44.74098" lon="3.06997">
        <ele>1180.2</ele>
        <time>2022-08-07T11:04:55Z</time>
      </trkpt>
      <trkpt lat="44.74111" lon="3.06996">
        <ele>1179.7</ele>
        <time>2022-08-07T11:05:06Z</time>
      </trkpt>
      <trkpt lat="44.74122" lon="3.06995">
        <ele>1179.3</ele>
        <time>2022-08-07T11:05:14Z</time>
      </trkpt>
      <trkpt lat="44.74125" lon="3.06995">
        <ele>1179.2</ele>
        <time>2022-08-07T11:05:16Z</time>
      </trkpt>
      <trkpt lat="44.74128" lon="3.06996">
        <ele>1179.1</ele>
        <time>2022-08-07T11:05:18Z</time>
      </trkpt>
      <trkpt lat="44.74135" lon="3.06995">
        <ele>1178.8</ele>
        <time>2022-08-07T11:05:24Z</time>
      </trkpt>
      <trkpt lat="44.7415" lon="3.06994">
        <ele>1178.6</ele>
        <time>2022-08-07T11:05:36Z</time>
      </trkpt>
      <trkpt lat="44.74164" lon="3.06992">
        <ele>1178.4</ele>
        <time>2022-08-07T11:05:47Z</time>
      </trkpt>
      <trkpt lat="44.74174" lon="3.06991">
        <ele>1178.4</ele>
        <time>2022-08-07T11:05:54Z</time>
      </trkpt>
      <trkpt lat="44.74186" lon="3.0699">
        <ele>1178.3</ele>
        <time>2022-08-07T11:06:04Z</time>
      </trkpt>
      <trkpt lat="44.74198" lon="3.06986">
        <ele>1178</ele>
        <time>2022-08-07T11:06:14Z</time>
      </trkpt>
      <trkpt lat="44.7421" lon="3.0698">
        <ele>1177.6</ele>
        <time>2022-08-07T11:06:24Z</time>
      </trkpt>
      <trkpt lat="44.74224" lon="3.06974">
        <ele>1177.1</ele>
        <time>2022-08-07T11:06:35Z</time>
      </trkpt>
      <trkpt lat="44.7423" lon="3.06968">
        <ele>1176.4</ele>
        <time>2022-08-07T11:06:42Z</time>
      </trkpt>
      <trkpt lat="44.74232" lon="3.06967">
        <ele>1176.2</ele>
        <time>2022-08-07T11:06:44Z</time>
      </trkpt>
      <trkpt lat="44.74245" lon="3.06962">
        <ele>1175.4</ele>
        <time>2022-08-07T11:06:55Z</time>
      </trkpt>
      <trkpt lat="44.74253" lon="3.06958">
        <ele>1174.9</ele>
        <time>2022-08-07T11:07:02Z</time>
      </trkpt>
      <trkpt lat="44.74255" lon="3.06958">
        <ele>1174.8</ele>
        <time>2022-08-07T11:07:04Z</time>
      </trkpt>
      <trkpt lat="44.74263" lon="3.06955">
        <ele>1174.3</ele>
        <time>2022-08-07T11:07:11Z</time>
      </trkpt>
      <trkpt lat="44.74269" lon="3.06951">
        <ele>1173.8</ele>
        <time>2022-08-07T11:07:16Z</time>
      </trkpt>
      <trkpt lat="44.74278" lon="3.06946">
        <ele>1173.1</ele>
        <time>2022-08-07T11:07:24Z</time>
      </trkpt>
      <trkpt lat="44.74286" lon="3.0694">
        <ele>1172.5</ele>
        <time>2022-08-07T11:07:31Z</time>
      </trkpt>
      <trkpt lat="44.74287" lon="3.06939">
        <ele>1172.3</ele>
        <time>2022-08-07T11:07:32Z</time>
      </trkpt>
      <trkpt lat="44.74291" lon="3.06937">
        <ele>1172.1</ele>
        <time>2022-08-07T11:07:35Z</time>
      </trkpt>
      <trkpt lat="44.74301" lon="3.06929">
        <ele>1171.2</ele>
        <time>2022-08-07T11:07:44Z</time>
      </trkpt>
      <trkpt lat="44.74307" lon="3.06924">
        <ele>1170.9</ele>
        <time>2022-08-07T11:07:50Z</time>
      </trkpt>
      <trkpt lat="44.7431" lon="3.06922">
        <ele>1170.7</ele>
        <time>2022-08-07T11:07:53Z</time>
      </trkpt>
      <trkpt lat="44.74312" lon="3.06921">
        <ele>1170.7</ele>
        <time>2022-08-07T11:07:55Z</time>
      </trkpt>
      <trkpt lat="44.74313" lon="3.06921">
        <ele>1170.7</ele>
        <time>2022-08-07T11:07:58Z</time>
      </trkpt>
      <trkpt lat="44.74316" lon="3.06918">
        <ele>1170.5</ele>
        <time>2022-08-07T11:08:10Z</time>
      </trkpt>
      <trkpt lat="44.74323" lon="3.06914">
        <ele>1170.3</ele>
        <time>2022-08-07T11:08:18Z</time>
      </trkpt>
      <trkpt lat="44.74325" lon="3.06911">
        <ele>1170.1</ele>
        <time>2022-08-07T11:08:30Z</time>
      </trkpt>
      <trkpt lat="44.74334" lon="3.06904">
        <ele>1169.8</ele>
        <time>2022-08-07T11:08:38Z</time>
      </trkpt>
      <trkpt lat="44.74349" lon="3.06891">
        <ele>1170</ele>
        <time>2022-08-07T11:08:51Z</time>
      </trkpt>
      <trkpt lat="44.74361" lon="3.06883">
        <ele>1170.1</ele>
        <time>2022-08-07T11:09:01Z</time>
      </trkpt>
      <trkpt lat="44.74374" lon="3.06877">
        <ele>1170.3</ele>
        <time>2022-08-07T11:09:11Z</time>
      </trkpt>
      <trkpt lat="44.74384" lon="3.06873">
        <ele>1170.8</ele>
        <time>2022-08-07T11:09:20Z</time>
      </trkpt>
      <trkpt lat="44.74397" lon="3.0687">
        <ele>1171.4</ele>
        <time>2022-08-07T11:09:30Z</time>
      </trkpt>
      <trkpt lat="44.74411" lon="3.06865">
        <ele>1171.9</ele>
        <time>2022-08-07T11:09:41Z</time>
      </trkpt>
      <trkpt lat="44.74419" lon="3.06861">
        <ele>1172</ele>
        <time>2022-08-07T11:09:48Z</time>
      </trkpt>
      <trkpt lat="44.74431" lon="3.06854">
        <ele>1172</ele>
        <time>2022-08-07T11:09:58Z</time>
      </trkpt>
      <trkpt lat="44.74439" lon="3.06845">
        <ele>1172</ele>
        <time>2022-08-07T11:10:07Z</time>
      </trkpt>
      <trkpt lat="44.74443" lon="3.06841">
        <ele>1172.1</ele>
        <time>2022-08-07T11:10:10Z</time>
      </trkpt>
      <trkpt lat="44.74449" lon="3.06833">
        <ele>1172.3</ele>
        <time>2022-08-07T11:10:17Z</time>
      </trkpt>
      <trkpt lat="44.74458" lon="3.06823">
        <ele>1172.2</ele>
        <time>2022-08-07T11:10:25Z</time>
      </trkpt>
      <trkpt lat="44.74466" lon="3.06812">
        <ele>1172</ele>
        <time>2022-08-07T11:10:34Z</time>
      </trkpt>
      <trkpt lat="44.74475" lon="3.06801">
        <ele>1172</ele>
        <time>2022-08-07T11:10:43Z</time>
      </trkpt>
      <trkpt lat="44.74487" lon="3.06785">
        <ele>1171.8</ele>
        <time>2022-08-07T11:10:55Z</time>
      </trkpt>
      <trkpt lat="44.74496" lon="3.06775">
        <ele>1171.5</ele>
        <time>2022-08-07T11:11:04Z</time>
      </trkpt>
      <trkpt lat="44.74507" lon="3.06767">
        <ele>1171.3</ele>
        <time>2022-08-07T11:11:14Z</time>
      </trkpt>
      <trkpt lat="44.74518" lon="3.06757">
        <ele>1171.1</ele>
        <time>2022-08-07T11:11:25Z</time>
      </trkpt>
      <trkpt lat="44.74529" lon="3.06746">
        <ele>1170.6</ele>
        <time>2022-08-07T11:11:34Z</time>
      </trkpt>
      <trkpt lat="44.74537" lon="3.06737">
        <ele>1169.9</ele>
        <time>2022-08-07T11:11:42Z</time>
      </trkpt>
      <trkpt lat="44.74544" lon="3.06729">
        <ele>1169.3</ele>
        <time>2022-08-07T11:11:49Z</time>
      </trkpt>
      <trkpt lat="44.74549" lon="3.06724">
        <ele>1169</ele>
        <time>2022-08-07T11:11:53Z</time>
      </trkpt>
      <trkpt lat="44.74564" lon="3.06714">
        <ele>1168.3</ele>
        <time>2022-08-07T11:12:06Z</time>
      </trkpt>
      <trkpt lat="44.74569" lon="3.06711">
        <ele>1168.3</ele>
        <time>2022-08-07T11:12:10Z</time>
      </trkpt>
      <trkpt lat="44.74581" lon="3.06707">
        <ele>1168.3</ele>
        <time>2022-08-07T11:12:20Z</time>
      </trkpt>
      <trkpt lat="44.74596" lon="3.06704">
        <ele>1168.5</ele>
        <time>2022-08-07T11:12:31Z</time>
      </trkpt>
      <trkpt lat="44.74609" lon="3.067">
        <ele>1168.6</ele>
        <time>2022-08-07T11:12:41Z</time>
      </trkpt>
      <trkpt lat="44.74623" lon="3.06697">
        <ele>1168.2</ele>
        <time>2022-08-07T11:12:52Z</time>
      </trkpt>
      <trkpt lat="44.74638" lon="3.06692">
        <ele>1167.8</ele>
        <time>2022-08-07T11:13:04Z</time>
      </trkpt>
      <trkpt lat="44.7465" lon="3.0669">
        <ele>1167.2</ele>
        <time>2022-08-07T11:13:13Z</time>
      </trkpt>
      <trkpt lat="44.74657" lon="3.0669">
        <ele>1167</ele>
        <time>2022-08-07T11:13:19Z</time>
      </trkpt>
      <trkpt lat="44.74657" lon="3.0669">
        <ele>1167</ele>
        <time>2022-08-07T11:13:20Z</time>
      </trkpt>
      <trkpt lat="44.74657" lon="3.0669">
        <ele>1166.9</ele>
        <time>2022-08-07T11:13:21Z</time>
      </trkpt>
      <trkpt lat="44.74657" lon="3.06689">
        <ele>1166.9</ele>
        <time>2022-08-07T11:13:23Z</time>
      </trkpt>
      <trkpt lat="44.74657" lon="3.06688">
        <ele>1166.8</ele>
        <time>2022-08-07T11:13:30Z</time>
      </trkpt>
      <trkpt lat="44.74658" lon="3.06687">
        <ele>1166.7</ele>
        <time>2022-08-07T11:13:57Z</time>
      </trkpt>
      <trkpt lat="44.74662" lon="3.06685">
        <ele>1166.5</ele>
        <time>2022-08-07T11:14:00Z</time>
      </trkpt>
      <trkpt lat="44.74664" lon="3.06685">
        <ele>1166.3</ele>
        <time>2022-08-07T11:14:08Z</time>
      </trkpt>
      <trkpt lat="44.74668" lon="3.0668">
        <ele>1165.9</ele>
        <time>2022-08-07T11:14:30Z</time>
      </trkpt>
      <trkpt lat="44.74677" lon="3.06669">
        <ele>1164.4</ele>
        <time>2022-08-07T11:14:39Z</time>
      </trkpt>
      <trkpt lat="44.74678" lon="3.06667">
        <ele>1164.2</ele>
        <time>2022-08-07T11:14:41Z</time>
      </trkpt>
      <trkpt lat="44.74684" lon="3.0666">
        <ele>1163.2</ele>
        <time>2022-08-07T11:14:48Z</time>
      </trkpt>
      <trkpt lat="44.74684" lon="3.0666">
        <ele>1163.2</ele>
        <time>2022-08-07T11:14:49Z</time>
      </trkpt>
      <trkpt lat="44.74691" lon="3.0665">
        <ele>1161.9</ele>
        <time>2022-08-07T11:14:59Z</time>
      </trkpt>
      <trkpt lat="44.747" lon="3.06634">
        <ele>1160.5</ele>
        <time>2022-08-07T11:15:13Z</time>
      </trkpt>
      <trkpt lat="44.74708" lon="3.06622">
        <ele>1159.3</ele>
        <time>2022-08-07T11:15:24Z</time>
      </trkpt>
      <trkpt lat="44.7471" lon="3.06616">
        <ele>1158.8</ele>
        <time>2022-08-07T11:15:29Z</time>
      </trkpt>
      <trkpt lat="44.74713" lon="3.06612">
        <ele>1158.4</ele>
        <time>2022-08-07T11:15:34Z</time>
      </trkpt>
      <trkpt lat="44.74718" lon="3.06603">
        <ele>1157.6</ele>
        <time>2022-08-07T11:15:41Z</time>
      </trkpt>
      <trkpt lat="44.74722" lon="3.06599">
        <ele>1157.2</ele>
        <time>2022-08-07T11:15:45Z</time>
      </trkpt>
      <trkpt lat="44.74724" lon="3.06597">
        <ele>1156.9</ele>
        <time>2022-08-07T11:15:47Z</time>
      </trkpt>
      <trkpt lat="44.7473" lon="3.0659">
        <ele>1155.9</ele>
        <time>2022-08-07T11:15:55Z</time>
      </trkpt>
      <trkpt lat="44.74735" lon="3.06585">
        <ele>1155.2</ele>
        <time>2022-08-07T11:16:00Z</time>
      </trkpt>
      <trkpt lat="44.74739" lon="3.0658">
        <ele>1154.5</ele>
        <time>2022-08-07T11:16:05Z</time>
      </trkpt>
      <trkpt lat="44.74744" lon="3.06577">
        <ele>1154</ele>
        <time>2022-08-07T11:16:09Z</time>
      </trkpt>
      <trkpt lat="44.74749" lon="3.06573">
        <ele>1153.3</ele>
        <time>2022-08-07T11:16:14Z</time>
      </trkpt>
      <trkpt lat="44.74753" lon="3.06571">
        <ele>1152.9</ele>
        <time>2022-08-07T11:16:17Z</time>
      </trkpt>
      <trkpt lat="44.74762" lon="3.06568">
        <ele>1151.8</ele>
        <time>2022-08-07T11:16:25Z</time>
      </trkpt>
      <trkpt lat="44.74762" lon="3.06568">
        <ele>1151.8</ele>
        <time>2022-08-07T11:16:26Z</time>
      </trkpt>
      <trkpt lat="44.74771" lon="3.06568">
        <ele>1151</ele>
        <time>2022-08-07T11:16:33Z</time>
      </trkpt>
      <trkpt lat="44.74776" lon="3.06569">
        <ele>1150.7</ele>
        <time>2022-08-07T11:16:37Z</time>
      </trkpt>
      <trkpt lat="44.74783" lon="3.06573">
        <ele>1150.1</ele>
        <time>2022-08-07T11:16:43Z</time>
      </trkpt>
      <trkpt lat="44.74788" lon="3.06579">
        <ele>1149.7</ele>
        <time>2022-08-07T11:16:48Z</time>
      </trkpt>
      <trkpt lat="44.74791" lon="3.06583">
        <ele>1149.6</ele>
        <time>2022-08-07T11:16:51Z</time>
      </trkpt>
      <trkpt lat="44.74792" lon="3.06588">
        <ele>1149.7</ele>
        <time>2022-08-07T11:16:55Z</time>
      </trkpt>
      <trkpt lat="44.74797" lon="3.06593">
        <ele>1149.4</ele>
        <time>2022-08-07T11:16:59Z</time>
      </trkpt>
      <trkpt lat="44.74802" lon="3.06598">
        <ele>1149</ele>
        <time>2022-08-07T11:17:04Z</time>
      </trkpt>
      <trkpt lat="44.74808" lon="3.06606">
        <ele>1148.7</ele>
        <time>2022-08-07T11:17:11Z</time>
      </trkpt>
      <trkpt lat="44.74812" lon="3.06609">
        <ele>1148.7</ele>
        <time>2022-08-07T11:17:14Z</time>
      </trkpt>
      <trkpt lat="44.74819" lon="3.06614">
        <ele>1148.8</ele>
        <time>2022-08-07T11:17:21Z</time>
      </trkpt>
      <trkpt lat="44.74828" lon="3.06619">
        <ele>1148.8</ele>
        <time>2022-08-07T11:17:29Z</time>
      </trkpt>
      <trkpt lat="44.74836" lon="3.06624">
        <ele>1148.8</ele>
        <time>2022-08-07T11:17:36Z</time>
      </trkpt>
      <trkpt lat="44.74845" lon="3.06629">
        <ele>1149.1</ele>
        <time>2022-08-07T11:17:46Z</time>
      </trkpt>
      <trkpt lat="44.7486" lon="3.06636">
        <ele>1149.7</ele>
        <time>2022-08-07T11:17:58Z</time>
      </trkpt>
      <trkpt lat="44.7487" lon="3.06643">
        <ele>1150.4</ele>
        <time>2022-08-07T11:18:08Z</time>
      </trkpt>
      <trkpt lat="44.74875" lon="3.06645">
        <ele>1150.7</ele>
        <time>2022-08-07T11:18:12Z</time>
      </trkpt>
      <trkpt lat="44.74877" lon="3.06646">
        <ele>1150.9</ele>
        <time>2022-08-07T11:18:14Z</time>
      </trkpt>
      <trkpt lat="44.74884" lon="3.06651">
        <ele>1151.7</ele>
        <time>2022-08-07T11:18:21Z</time>
      </trkpt>
      <trkpt lat="44.74892" lon="3.06656">
        <ele>1152.4</ele>
        <time>2022-08-07T11:18:28Z</time>
      </trkpt>
      <trkpt lat="44.74893" lon="3.06656">
        <ele>1152.5</ele>
        <time>2022-08-07T11:18:29Z</time>
      </trkpt>
      <trkpt lat="44.74898" lon="3.0666">
        <ele>1153</ele>
        <time>2022-08-07T11:18:34Z</time>
      </trkpt>
      <trkpt lat="44.74906" lon="3.06664">
        <ele>1153.5</ele>
        <time>2022-08-07T11:18:41Z</time>
      </trkpt>
      <trkpt lat="44.74909" lon="3.06664">
        <ele>1153.6</ele>
        <time>2022-08-07T11:18:43Z</time>
      </trkpt>
      <trkpt lat="44.74921" lon="3.06668">
        <ele>1154</ele>
        <time>2022-08-07T11:18:53Z</time>
      </trkpt>
      <trkpt lat="44.74926" lon="3.0667">
        <ele>1154</ele>
        <time>2022-08-07T11:18:57Z</time>
      </trkpt>
      <trkpt lat="44.74935" lon="3.06673">
        <ele>1154.3</ele>
        <time>2022-08-07T11:19:04Z</time>
      </trkpt>
      <trkpt lat="44.74938" lon="3.06674">
        <ele>1154.4</ele>
        <time>2022-08-07T11:19:07Z</time>
      </trkpt>
      <trkpt lat="44.74944" lon="3.06678">
        <ele>1155.1</ele>
        <time>2022-08-07T11:19:13Z</time>
      </trkpt>
      <trkpt lat="44.74957" lon="3.06684">
        <ele>1154.5</ele>
        <time>2022-08-07T11:19:23Z</time>
      </trkpt>
      <trkpt lat="44.74964" lon="3.06689">
        <ele>1154.4</ele>
        <time>2022-08-07T11:19:29Z</time>
      </trkpt>
      <trkpt lat="44.74968" lon="3.06693">
        <ele>1154.4</ele>
        <time>2022-08-07T11:19:33Z</time>
      </trkpt>
      <trkpt lat="44.74974" lon="3.067">
        <ele>1154.4</ele>
        <time>2022-08-07T11:19:41Z</time>
      </trkpt>
      <trkpt lat="44.74984" lon="3.0671">
        <ele>1154.4</ele>
        <time>2022-08-07T11:19:51Z</time>
      </trkpt>
      <trkpt lat="44.74988" lon="3.06714">
        <ele>1154.3</ele>
        <time>2022-08-07T11:19:55Z</time>
      </trkpt>
      <trkpt lat="44.74992" lon="3.0672">
        <ele>1154.1</ele>
        <time>2022-08-07T11:20:00Z</time>
      </trkpt>
      <trkpt lat="44.75001" lon="3.0673">
        <ele>1153.6</ele>
        <time>2022-08-07T11:20:10Z</time>
      </trkpt>
      <trkpt lat="44.75011" lon="3.06741">
        <ele>1152.9</ele>
        <time>2022-08-07T11:20:20Z</time>
      </trkpt>
      <trkpt lat="44.75018" lon="3.06749">
        <ele>1152.6</ele>
        <time>2022-08-07T11:20:28Z</time>
      </trkpt>
      <trkpt lat="44.7502" lon="3.06753">
        <ele>1152.8</ele>
        <time>2022-08-07T11:20:31Z</time>
      </trkpt>
      <trkpt lat="44.75023" lon="3.06758">
        <ele>1153</ele>
        <time>2022-08-07T11:20:35Z</time>
      </trkpt>
      <trkpt lat="44.75027" lon="3.06763">
        <ele>1153</ele>
        <time>2022-08-07T11:20:39Z</time>
      </trkpt>
      <trkpt lat="44.75033" lon="3.0677">
        <ele>1152.7</ele>
        <time>2022-08-07T11:20:45Z</time>
      </trkpt>
      <trkpt lat="44.75041" lon="3.0678">
        <ele>1152.4</ele>
        <time>2022-08-07T11:20:54Z</time>
      </trkpt>
      <trkpt lat="44.75049" lon="3.06791">
        <ele>1152.2</ele>
        <time>2022-08-07T11:21:02Z</time>
      </trkpt>
      <trkpt lat="44.75049" lon="3.06792">
        <ele>1152.1</ele>
        <time>2022-08-07T11:21:03Z</time>
      </trkpt>
      <trkpt lat="44.75054" lon="3.06798">
        <ele>1151.6</ele>
        <time>2022-08-07T11:21:08Z</time>
      </trkpt>
      <trkpt lat="44.75055" lon="3.068">
        <ele>1151.6</ele>
        <time>2022-08-07T11:21:10Z</time>
      </trkpt>
      <trkpt lat="44.75056" lon="3.06803">
        <ele>1151.6</ele>
        <time>2022-08-07T11:21:12Z</time>
      </trkpt>
      <trkpt lat="44.75057" lon="3.06804">
        <ele>1151.6</ele>
        <time>2022-08-07T11:21:13Z</time>
      </trkpt>
      <trkpt lat="44.75065" lon="3.06813">
        <ele>1151.9</ele>
        <time>2022-08-07T11:21:21Z</time>
      </trkpt>
      <trkpt lat="44.75066" lon="3.06814">
        <ele>1152</ele>
        <time>2022-08-07T11:21:22Z</time>
      </trkpt>
      <trkpt lat="44.75072" lon="3.06819">
        <ele>1151.8</ele>
        <time>2022-08-07T11:21:27Z</time>
      </trkpt>
      <trkpt lat="44.75076" lon="3.06828">
        <ele>1152.1</ele>
        <time>2022-08-07T11:21:34Z</time>
      </trkpt>
      <trkpt lat="44.75076" lon="3.0684">
        <ele>1153.5</ele>
        <time>2022-08-07T11:21:41Z</time>
      </trkpt>
      <trkpt lat="44.75076" lon="3.06842">
        <ele>1153.7</ele>
        <time>2022-08-07T11:21:43Z</time>
      </trkpt>
      <trkpt lat="44.75076" lon="3.06842">
        <ele>1153.7</ele>
        <time>2022-08-07T11:21:45Z</time>
      </trkpt>
      <trkpt lat="44.75076" lon="3.06843">
        <ele>1153.7</ele>
        <time>2022-08-07T11:21:46Z</time>
      </trkpt>
      <trkpt lat="44.75076" lon="3.06844">
        <ele>1153.8</ele>
        <time>2022-08-07T11:21:47Z</time>
      </trkpt>
      <trkpt lat="44.75077" lon="3.06847">
        <ele>1153.8</ele>
        <time>2022-08-07T11:21:50Z</time>
      </trkpt>
      <trkpt lat="44.75077" lon="3.06848">
        <ele>1153.9</ele>
        <time>2022-08-07T11:21:53Z</time>
      </trkpt>
      <trkpt lat="44.75077" lon="3.0685">
        <ele>1153.9</ele>
        <time>2022-08-07T11:21:54Z</time>
      </trkpt>
      <trkpt lat="44.75082" lon="3.06856">
        <ele>1153.2</ele>
        <time>2022-08-07T11:22:01Z</time>
      </trkpt>
      <trkpt lat="44.75082" lon="3.06861">
        <ele>1153.6</ele>
        <time>2022-08-07T11:22:06Z</time>
      </trkpt>
      <trkpt lat="44.75082" lon="3.06861">
        <ele>1153.6</ele>
        <time>2022-08-07T11:22:07Z</time>
      </trkpt>
      <trkpt lat="44.75081" lon="3.06862">
        <ele>1153.9</ele>
        <time>2022-08-07T11:22:16Z</time>
      </trkpt>
      <trkpt lat="44.75082" lon="3.06862">
        <ele>1153.5</ele>
        <time>2022-08-07T11:22:23Z</time>
      </trkpt>
      <trkpt lat="44.75084" lon="3.06872">
        <ele>1154.1</ele>
        <time>2022-08-07T11:22:57Z</time>
      </trkpt>
      <trkpt lat="44.75084" lon="3.06882">
        <ele>1155.2</ele>
        <time>2022-08-07T11:23:02Z</time>
      </trkpt>
      <trkpt lat="44.75087" lon="3.06892">
        <ele>1155.8</ele>
        <time>2022-08-07T11:23:09Z</time>
      </trkpt>
      <trkpt lat="44.75087" lon="3.06893">
        <ele>1155.9</ele>
        <time>2022-08-07T11:23:10Z</time>
      </trkpt>
      <trkpt lat="44.75087" lon="3.06894">
        <ele>1156</ele>
        <time>2022-08-07T11:23:11Z</time>
      </trkpt>
      <trkpt lat="44.75088" lon="3.06896">
        <ele>1156.1</ele>
        <time>2022-08-07T11:23:14Z</time>
      </trkpt>
      <trkpt lat="44.75089" lon="3.069">
        <ele>1156.1</ele>
        <time>2022-08-07T11:23:19Z</time>
      </trkpt>
      <trkpt lat="44.7509" lon="3.06901">
        <ele>1156.1</ele>
        <time>2022-08-07T11:23:22Z</time>
      </trkpt>
      <trkpt lat="44.75094" lon="3.06903">
        <ele>1155.7</ele>
        <time>2022-08-07T11:23:29Z</time>
      </trkpt>
      <trkpt lat="44.751" lon="3.06912">
        <ele>1155.2</ele>
        <time>2022-08-07T11:23:37Z</time>
      </trkpt>
      <trkpt lat="44.75104" lon="3.0692">
        <ele>1154.8</ele>
        <time>2022-08-07T11:23:43Z</time>
      </trkpt>
      <trkpt lat="44.75106" lon="3.06923">
        <ele>1154.5</ele>
        <time>2022-08-07T11:23:46Z</time>
      </trkpt>
      <trkpt lat="44.75109" lon="3.06933">
        <ele>1154.1</ele>
        <time>2022-08-07T11:23:53Z</time>
      </trkpt>
      <trkpt lat="44.7511" lon="3.06938">
        <ele>1154</ele>
        <time>2022-08-07T11:23:58Z</time>
      </trkpt>
      <trkpt lat="44.75111" lon="3.06938">
        <ele>1153.9</ele>
        <time>2022-08-07T11:24:01Z</time>
      </trkpt>
      <trkpt lat="44.75111" lon="3.06938">
        <ele>1153.8</ele>
        <time>2022-08-07T11:24:07Z</time>
      </trkpt>
      <trkpt lat="44.75116" lon="3.06946">
        <ele>1153.2</ele>
        <time>2022-08-07T11:24:15Z</time>
      </trkpt>
      <trkpt lat="44.75123" lon="3.06956">
        <ele>1152.1</ele>
        <time>2022-08-07T11:24:24Z</time>
      </trkpt>
      <trkpt lat="44.75125" lon="3.06959">
        <ele>1151.8</ele>
        <time>2022-08-07T11:24:26Z</time>
      </trkpt>
      <trkpt lat="44.7513" lon="3.06965">
        <ele>1151.2</ele>
        <time>2022-08-07T11:24:32Z</time>
      </trkpt>
      <trkpt lat="44.75134" lon="3.06971">
        <ele>1150.7</ele>
        <time>2022-08-07T11:24:37Z</time>
      </trkpt>
      <trkpt lat="44.75135" lon="3.06974">
        <ele>1150.6</ele>
        <time>2022-08-07T11:24:39Z</time>
      </trkpt>
      <trkpt lat="44.75139" lon="3.06978">
        <ele>1150.2</ele>
        <time>2022-08-07T11:24:43Z</time>
      </trkpt>
      <trkpt lat="44.75142" lon="3.06983">
        <ele>1149.8</ele>
        <time>2022-08-07T11:24:47Z</time>
      </trkpt>
      <trkpt lat="44.75147" lon="3.06988">
        <ele>1148.9</ele>
        <time>2022-08-07T11:24:52Z</time>
      </trkpt>
      <trkpt lat="44.7515" lon="3.06989">
        <ele>1148.4</ele>
        <time>2022-08-07T11:24:54Z</time>
      </trkpt>
      <trkpt lat="44.75154" lon="3.06993">
        <ele>1147.6</ele>
        <time>2022-08-07T11:24:58Z</time>
      </trkpt>
      <trkpt lat="44.7516" lon="3.06999">
        <ele>1146.5</ele>
        <time>2022-08-07T11:25:04Z</time>
      </trkpt>
      <trkpt lat="44.75163" lon="3.07003">
        <ele>1146</ele>
        <time>2022-08-07T11:25:07Z</time>
      </trkpt>
      <trkpt lat="44.75166" lon="3.07009">
        <ele>1145.4</ele>
        <time>2022-08-07T11:25:12Z</time>
      </trkpt>
      <trkpt lat="44.75168" lon="3.0701">
        <ele>1145.1</ele>
        <time>2022-08-07T11:25:14Z</time>
      </trkpt>
      <trkpt lat="44.75172" lon="3.07014">
        <ele>1144.8</ele>
        <time>2022-08-07T11:25:19Z</time>
      </trkpt>
      <trkpt lat="44.75175" lon="3.07016">
        <ele>1144.4</ele>
        <time>2022-08-07T11:25:21Z</time>
      </trkpt>
      <trkpt lat="44.75178" lon="3.07018">
        <ele>1144</ele>
        <time>2022-08-07T11:25:24Z</time>
      </trkpt>
      <trkpt lat="44.75182" lon="3.07021">
        <ele>1143.5</ele>
        <time>2022-08-07T11:25:28Z</time>
      </trkpt>
      <trkpt lat="44.75183" lon="3.07022">
        <ele>1143.4</ele>
        <time>2022-08-07T11:25:29Z</time>
      </trkpt>
      <trkpt lat="44.75187" lon="3.07024">
        <ele>1142.9</ele>
        <time>2022-08-07T11:25:33Z</time>
      </trkpt>
      <trkpt lat="44.75198" lon="3.07028">
        <ele>1141.6</ele>
        <time>2022-08-07T11:25:42Z</time>
      </trkpt>
      <trkpt lat="44.752" lon="3.07028">
        <ele>1141.4</ele>
        <time>2022-08-07T11:25:44Z</time>
      </trkpt>
      <trkpt lat="44.7521" lon="3.07031">
        <ele>1140.3</ele>
        <time>2022-08-07T11:25:52Z</time>
      </trkpt>
      <trkpt lat="44.75217" lon="3.07033">
        <ele>1139.6</ele>
        <time>2022-08-07T11:25:58Z</time>
      </trkpt>
      <trkpt lat="44.75221" lon="3.07034">
        <ele>1139.2</ele>
        <time>2022-08-07T11:26:02Z</time>
      </trkpt>
      <trkpt lat="44.75228" lon="3.07033">
        <ele>1138.4</ele>
        <time>2022-08-07T11:26:08Z</time>
      </trkpt>
      <trkpt lat="44.75237" lon="3.07034">
        <ele>1137.4</ele>
        <time>2022-08-07T11:26:16Z</time>
      </trkpt>
      <trkpt lat="44.75239" lon="3.07035">
        <ele>1137.2</ele>
        <time>2022-08-07T11:26:18Z</time>
      </trkpt>
      <trkpt lat="44.75251" lon="3.07036">
        <ele>1135.9</ele>
        <time>2022-08-07T11:26:28Z</time>
      </trkpt>
      <trkpt lat="44.75254" lon="3.07036">
        <ele>1135.6</ele>
        <time>2022-08-07T11:26:31Z</time>
      </trkpt>
      <trkpt lat="44.75262" lon="3.07036">
        <ele>1134.7</ele>
        <time>2022-08-07T11:26:38Z</time>
      </trkpt>
      <trkpt lat="44.75264" lon="3.07037">
        <ele>1134.5</ele>
        <time>2022-08-07T11:26:40Z</time>
      </trkpt>
      <trkpt lat="44.75271" lon="3.07037">
        <ele>1133.7</ele>
        <time>2022-08-07T11:26:46Z</time>
      </trkpt>
      <trkpt lat="44.75274" lon="3.07037">
        <ele>1133.5</ele>
        <time>2022-08-07T11:26:49Z</time>
      </trkpt>
      <trkpt lat="44.7528" lon="3.07037">
        <ele>1132.7</ele>
        <time>2022-08-07T11:26:54Z</time>
      </trkpt>
      <trkpt lat="44.75285" lon="3.07037">
        <ele>1132.1</ele>
        <time>2022-08-07T11:26:57Z</time>
      </trkpt>
      <trkpt lat="44.75288" lon="3.07038">
        <ele>1131.6</ele>
        <time>2022-08-07T11:27:00Z</time>
      </trkpt>
      <trkpt lat="44.753" lon="3.07039">
        <ele>1130.2</ele>
        <time>2022-08-07T11:27:09Z</time>
      </trkpt>
      <trkpt lat="44.75305" lon="3.07042">
        <ele>1129.5</ele>
        <time>2022-08-07T11:27:14Z</time>
      </trkpt>
      <trkpt lat="44.75312" lon="3.07043">
        <ele>1129.2</ele>
        <time>2022-08-07T11:27:20Z</time>
      </trkpt>
      <trkpt lat="44.75316" lon="3.07044">
        <ele>1129</ele>
        <time>2022-08-07T11:27:23Z</time>
      </trkpt>
      <trkpt lat="44.75329" lon="3.0705">
        <ele>1128.3</ele>
        <time>2022-08-07T11:27:34Z</time>
      </trkpt>
      <trkpt lat="44.75339" lon="3.07055">
        <ele>1127.8</ele>
        <time>2022-08-07T11:27:42Z</time>
      </trkpt>
      <trkpt lat="44.7534" lon="3.07056">
        <ele>1127.8</ele>
        <time>2022-08-07T11:27:43Z</time>
      </trkpt>
      <trkpt lat="44.75346" lon="3.07061">
        <ele>1127.4</ele>
        <time>2022-08-07T11:27:50Z</time>
      </trkpt>
      <trkpt lat="44.7536" lon="3.07068">
        <ele>1127</ele>
        <time>2022-08-07T11:28:01Z</time>
      </trkpt>
      <trkpt lat="44.75373" lon="3.07069">
        <ele>1126.8</ele>
        <time>2022-08-07T11:28:13Z</time>
      </trkpt>
      <trkpt lat="44.75383" lon="3.0707">
        <ele>1126.6</ele>
        <time>2022-08-07T11:28:20Z</time>
      </trkpt>
      <trkpt lat="44.75389" lon="3.07069">
        <ele>1126.5</ele>
        <time>2022-08-07T11:28:26Z</time>
      </trkpt>
      <trkpt lat="44.75399" lon="3.07067">
        <ele>1126.4</ele>
        <time>2022-08-07T11:28:36Z</time>
      </trkpt>
      <trkpt lat="44.75412" lon="3.07066">
        <ele>1126.4</ele>
        <time>2022-08-07T11:28:47Z</time>
      </trkpt>
      <trkpt lat="44.75423" lon="3.07066">
        <ele>1126.4</ele>
        <time>2022-08-07T11:28:57Z</time>
      </trkpt>
      <trkpt lat="44.75441" lon="3.07073">
        <ele>1126.6</ele>
        <time>2022-08-07T11:29:12Z</time>
      </trkpt>
      <trkpt lat="44.75442" lon="3.07074">
        <ele>1126.7</ele>
        <time>2022-08-07T11:29:13Z</time>
      </trkpt>
      <trkpt lat="44.75449" lon="3.0708">
        <ele>1127</ele>
        <time>2022-08-07T11:29:22Z</time>
      </trkpt>
      <trkpt lat="44.75456" lon="3.07093">
        <ele>1127.5</ele>
        <time>2022-08-07T11:29:32Z</time>
      </trkpt>
      <trkpt lat="44.75457" lon="3.071">
        <ele>1127.7</ele>
        <time>2022-08-07T11:29:37Z</time>
      </trkpt>
      <trkpt lat="44.75456" lon="3.07101">
        <ele>1127.7</ele>
        <time>2022-08-07T11:29:38Z</time>
      </trkpt>
      <trkpt lat="44.75455" lon="3.07104">
        <ele>1127.7</ele>
        <time>2022-08-07T11:29:40Z</time>
      </trkpt>
      <trkpt lat="44.75452" lon="3.07108">
        <ele>1127.5</ele>
        <time>2022-08-07T11:29:44Z</time>
      </trkpt>
      <trkpt lat="44.7545" lon="3.07109">
        <ele>1127.4</ele>
        <time>2022-08-07T11:29:48Z</time>
      </trkpt>
      <trkpt lat="44.75448" lon="3.07105">
        <ele>1127.2</ele>
        <time>2022-08-07T11:29:53Z</time>
      </trkpt>
      <trkpt lat="44.75446" lon="3.07102">
        <ele>1127.1</ele>
        <time>2022-08-07T11:29:55Z</time>
      </trkpt>
      <trkpt lat="44.75447" lon="3.07099">
        <ele>1127.1</ele>
        <time>2022-08-07T11:29:57Z</time>
      </trkpt>
      <trkpt lat="44.75448" lon="3.07095">
        <ele>1127.2</ele>
        <time>2022-08-07T11:30:00Z</time>
      </trkpt>
      <trkpt lat="44.75449" lon="3.07095">
        <ele>1127.2</ele>
        <time>2022-08-07T11:30:03Z</time>
      </trkpt>
      <trkpt lat="44.7544" lon="3.07092">
        <ele>1127</ele>
        <time>2022-08-07T11:30:27Z</time>
      </trkpt>
      <trkpt lat="44.75445" lon="3.07089">
        <ele>1127</ele>
        <time>2022-08-07T11:30:32Z</time>
      </trkpt>
      <trkpt lat="44.75447" lon="3.07089">
        <ele>1127.1</ele>
        <time>2022-08-07T11:30:39Z</time>
      </trkpt>
      <trkpt lat="44.7545" lon="3.07086">
        <ele>1127.2</ele>
        <time>2022-08-07T11:30:45Z</time>
      </trkpt>
      <trkpt lat="44.7545" lon="3.07089">
        <ele>1127.2</ele>
        <time>2022-08-07T11:30:51Z</time>
      </trkpt>
      <trkpt lat="44.75444" lon="3.07099">
        <ele>1127</ele>
        <time>2022-08-07T11:30:58Z</time>
      </trkpt>
      <trkpt lat="44.75442" lon="3.07108">
        <ele>1127</ele>
        <time>2022-08-07T11:31:05Z</time>
      </trkpt>
      <trkpt lat="44.75442" lon="3.07108">
        <ele>1127</ele>
        <time>2022-08-07T11:31:06Z</time>
      </trkpt>
      <trkpt lat="44.75441" lon="3.07108">
        <ele>1127</ele>
        <time>2022-08-07T11:31:07Z</time>
      </trkpt>
      <trkpt lat="44.75444" lon="3.07111">
        <ele>1127</ele>
        <time>2022-08-07T11:31:17Z</time>
      </trkpt>
      <trkpt lat="44.75447" lon="3.07122">
        <ele>1126.7</ele>
        <time>2022-08-07T11:31:25Z</time>
      </trkpt>
      <trkpt lat="44.75448" lon="3.07123">
        <ele>1126.7</ele>
        <time>2022-08-07T11:31:30Z</time>
      </trkpt>
      <trkpt lat="44.75448" lon="3.07122">
        <ele>1126.7</ele>
        <time>2022-08-07T11:31:36Z</time>
      </trkpt>
      <trkpt lat="44.75447" lon="3.07122">
        <ele>1126.7</ele>
        <time>2022-08-07T11:31:42Z</time>
      </trkpt>
      <trkpt lat="44.75447" lon="3.07122">
        <ele>1126.7</ele>
        <time>2022-08-07T11:31:47Z</time>
      </trkpt>
      <trkpt lat="44.7545" lon="3.07113">
        <ele>1127.3</ele>
        <time>2022-08-07T11:32:11Z</time>
      </trkpt>
      <trkpt lat="44.75449" lon="3.0711">
        <ele>1127.3</ele>
        <time>2022-08-07T11:32:16Z</time>
      </trkpt>
      <trkpt lat="44.75453" lon="3.07106">
        <ele>1127.6</ele>
        <time>2022-08-07T11:32:25Z</time>
      </trkpt>
      <trkpt lat="44.75458" lon="3.07107">
        <ele>1127.9</ele>
        <time>2022-08-07T11:32:31Z</time>
      </trkpt>
      <trkpt lat="44.75458" lon="3.07107">
        <ele>1127.9</ele>
        <time>2022-08-07T11:32:33Z</time>
      </trkpt>
      <trkpt lat="44.75461" lon="3.07107">
        <ele>1128.1</ele>
        <time>2022-08-07T11:32:39Z</time>
      </trkpt>
      <trkpt lat="44.75462" lon="3.0711">
        <ele>1128.3</ele>
        <time>2022-08-07T11:32:45Z</time>
      </trkpt>
      <trkpt lat="44.75462" lon="3.07113">
        <ele>1128.1</ele>
        <time>2022-08-07T11:32:51Z</time>
      </trkpt>
      <trkpt lat="44.75458" lon="3.07137">
        <ele>1126.2</ele>
        <time>2022-08-07T11:36:17Z</time>
      </trkpt>
      <trkpt lat="44.75464" lon="3.07115">
        <ele>1128.1</ele>
        <time>2022-08-07T11:36:30Z</time>
      </trkpt>
      <trkpt lat="44.75464" lon="3.07111">
        <ele>1128.4</ele>
        <time>2022-08-07T11:36:41Z</time>
      </trkpt>
      <trkpt lat="44.75464" lon="3.07111">
        <ele>1128.4</ele>
        <time>2022-08-07T11:36:47Z</time>
      </trkpt>
      <trkpt lat="44.75464" lon="3.07111">
        <ele>1128.4</ele>
        <time>2022-08-07T11:36:48Z</time>
      </trkpt>
      <trkpt lat="44.75465" lon="3.07111">
        <ele>1128.4</ele>
        <time>2022-08-07T11:36:57Z</time>
      </trkpt>
      <trkpt lat="44.75464" lon="3.07113">
        <ele>1128.3</ele>
        <time>2022-08-07T11:37:18Z</time>
      </trkpt>
      <trkpt lat="44.75467" lon="3.07112">
        <ele>1128.5</ele>
        <time>2022-08-07T11:38:04Z</time>
      </trkpt>
      <trkpt lat="44.75464" lon="3.07113">
        <ele>1128.2</ele>
        <time>2022-08-07T11:39:08Z</time>
      </trkpt>
      <trkpt lat="44.75468" lon="3.07127">
        <ele>1127.2</ele>
        <time>2022-08-07T11:39:42Z</time>
      </trkpt>
      <trkpt lat="44.75469" lon="3.0713">
        <ele>1126.9</ele>
        <time>2022-08-07T11:39:46Z</time>
      </trkpt>
      <trkpt lat="44.7547" lon="3.0713">
        <ele>1126.9</ele>
        <time>2022-08-07T11:39:49Z</time>
      </trkpt>
      <trkpt lat="44.75475" lon="3.07127">
        <ele>1127.3</ele>
        <time>2022-08-07T11:39:56Z</time>
      </trkpt>
      <trkpt lat="44.75475" lon="3.07127">
        <ele>1127.3</ele>
        <time>2022-08-07T11:39:59Z</time>
      </trkpt>
      <trkpt lat="44.75474" lon="3.07129">
        <ele>1127.1</ele>
        <time>2022-08-07T11:40:03Z</time>
      </trkpt>
      <trkpt lat="44.7547" lon="3.0713">
        <ele>1126.9</ele>
        <time>2022-08-07T11:40:09Z</time>
      </trkpt>
      <trkpt lat="44.75471" lon="3.07131">
        <ele>1126.8</ele>
        <time>2022-08-07T11:40:11Z</time>
      </trkpt>
      <trkpt lat="44.75472" lon="3.07133">
        <ele>1126.6</ele>
        <time>2022-08-07T11:40:13Z</time>
      </trkpt>
      <trkpt lat="44.75471" lon="3.07138">
        <ele>1126.1</ele>
        <time>2022-08-07T11:40:20Z</time>
      </trkpt>
      <trkpt lat="44.75468" lon="3.07137">
        <ele>1126.2</ele>
        <time>2022-08-07T11:40:32Z</time>
      </trkpt>
      <trkpt lat="44.75466" lon="3.07126">
        <ele>1127.2</ele>
        <time>2022-08-07T11:40:41Z</time>
      </trkpt>
      <trkpt lat="44.75464" lon="3.07117">
        <ele>1127.9</ele>
        <time>2022-08-07T11:40:49Z</time>
      </trkpt>
      <trkpt lat="44.75463" lon="3.07116">
        <ele>1128</ele>
        <time>2022-08-07T11:40:51Z</time>
      </trkpt>
      <trkpt lat="44.75464" lon="3.07113">
        <ele>1128.2</ele>
        <time>2022-08-07T11:40:54Z</time>
      </trkpt>
      <trkpt lat="44.75464" lon="3.07113">
        <ele>1128.3</ele>
        <time>2022-08-07T11:40:57Z</time>
      </trkpt>
      <trkpt lat="44.75464" lon="3.0711">
        <ele>1128.4</ele>
        <time>2022-08-07T11:41:04Z</time>
      </trkpt>
      <trkpt lat="44.75463" lon="3.07111">
        <ele>1128.3</ele>
        <time>2022-08-07T11:41:11Z</time>
      </trkpt>
      <trkpt lat="44.75463" lon="3.07111">
        <ele>1128.3</ele>
        <time>2022-08-07T11:41:13Z</time>
      </trkpt>
      <trkpt lat="44.75463" lon="3.0711">
        <ele>1128.3</ele>
        <time>2022-08-07T11:41:21Z</time>
      </trkpt>
      <trkpt lat="44.75463" lon="3.07101">
        <ele>1128.1</ele>
        <time>2022-08-07T11:42:33Z</time>
      </trkpt>
      <trkpt lat="44.75464" lon="3.07096">
        <ele>1128</ele>
        <time>2022-08-07T11:42:36Z</time>
      </trkpt>
      <trkpt lat="44.75465" lon="3.07094">
        <ele>1128</ele>
        <time>2022-08-07T11:42:37Z</time>
      </trkpt>
      <trkpt lat="44.75465" lon="3.07091">
        <ele>1128</ele>
        <time>2022-08-07T11:42:39Z</time>
      </trkpt>
      <trkpt lat="44.75465" lon="3.07089">
        <ele>1127.9</ele>
        <time>2022-08-07T11:42:40Z</time>
      </trkpt>
      <trkpt lat="44.75463" lon="3.07075">
        <ele>1127.4</ele>
        <time>2022-08-07T11:42:51Z</time>
      </trkpt>
      <trkpt lat="44.75465" lon="3.07071">
        <ele>1127.3</ele>
        <time>2022-08-07T11:42:54Z</time>
      </trkpt>
      <trkpt lat="44.75469" lon="3.07065">
        <ele>1127.2</ele>
        <time>2022-08-07T11:42:59Z</time>
      </trkpt>
      <trkpt lat="44.75471" lon="3.0706">
        <ele>1127.1</ele>
        <time>2022-08-07T11:43:06Z</time>
      </trkpt>
      <trkpt lat="44.75472" lon="3.07059">
        <ele>1127.1</ele>
        <time>2022-08-07T11:43:08Z</time>
      </trkpt>
      <trkpt lat="44.75473" lon="3.07056">
        <ele>1127.1</ele>
        <time>2022-08-07T11:43:10Z</time>
      </trkpt>
      <trkpt lat="44.75476" lon="3.07055">
        <ele>1127.4</ele>
        <time>2022-08-07T11:43:13Z</time>
      </trkpt>
      <trkpt lat="44.75481" lon="3.0705">
        <ele>1127.4</ele>
        <time>2022-08-07T11:43:21Z</time>
      </trkpt>
      <trkpt lat="44.75481" lon="3.0705">
        <ele>1127.4</ele>
        <time>2022-08-07T11:43:22Z</time>
      </trkpt>
      <trkpt lat="44.75484" lon="3.07044">
        <ele>1127.1</ele>
        <time>2022-08-07T11:43:29Z</time>
      </trkpt>
      <trkpt lat="44.75489" lon="3.07039">
        <ele>1126.9</ele>
        <time>2022-08-07T11:43:37Z</time>
      </trkpt>
      <trkpt lat="44.7549" lon="3.07036">
        <ele>1126.6</ele>
        <time>2022-08-07T11:43:44Z</time>
      </trkpt>
      <trkpt lat="44.75491" lon="3.07033">
        <ele>1126.3</ele>
        <time>2022-08-07T11:43:46Z</time>
      </trkpt>
      <trkpt lat="44.75496" lon="3.07031">
        <ele>1126.2</ele>
        <time>2022-08-07T11:43:50Z</time>
      </trkpt>
      <trkpt lat="44.75505" lon="3.07017">
        <ele>1125.9</ele>
        <time>2022-08-07T11:44:01Z</time>
      </trkpt>
      <trkpt lat="44.75509" lon="3.07011">
        <ele>1125.6</ele>
        <time>2022-08-07T11:44:06Z</time>
      </trkpt>
      <trkpt lat="44.75511" lon="3.07004">
        <ele>1124.7</ele>
        <time>2022-08-07T11:44:11Z</time>
      </trkpt>
      <trkpt lat="44.75516" lon="3.06997">
        <ele>1123.7</ele>
        <time>2022-08-07T11:44:18Z</time>
      </trkpt>
      <trkpt lat="44.75517" lon="3.06995">
        <ele>1123.6</ele>
        <time>2022-08-07T11:44:19Z</time>
      </trkpt>
      <trkpt lat="44.7552" lon="3.06993">
        <ele>1123.4</ele>
        <time>2022-08-07T11:44:24Z</time>
      </trkpt>
      <trkpt lat="44.75521" lon="3.06992">
        <ele>1123.2</ele>
        <time>2022-08-07T11:44:25Z</time>
      </trkpt>
      <trkpt lat="44.75526" lon="3.06991">
        <ele>1123</ele>
        <time>2022-08-07T11:44:32Z</time>
      </trkpt>
      <trkpt lat="44.75526" lon="3.06992">
        <ele>1123.1</ele>
        <time>2022-08-07T11:44:33Z</time>
      </trkpt>
      <trkpt lat="44.75527" lon="3.06992">
        <ele>1123.2</ele>
        <time>2022-08-07T11:44:34Z</time>
      </trkpt>
      <trkpt lat="44.75527" lon="3.06991">
        <ele>1123.1</ele>
        <time>2022-08-07T11:44:36Z</time>
      </trkpt>
      <trkpt lat="44.75531" lon="3.06988">
        <ele>1122.8</ele>
        <time>2022-08-07T11:44:40Z</time>
      </trkpt>
      <trkpt lat="44.75532" lon="3.06987">
        <ele>1122.7</ele>
        <time>2022-08-07T11:44:41Z</time>
      </trkpt>
      <trkpt lat="44.75538" lon="3.06984">
        <ele>1122.3</ele>
        <time>2022-08-07T11:44:48Z</time>
      </trkpt>
      <trkpt lat="44.7554" lon="3.06984">
        <ele>1122.4</ele>
        <time>2022-08-07T11:44:49Z</time>
      </trkpt>
      <trkpt lat="44.75541" lon="3.06985">
        <ele>1122.6</ele>
        <time>2022-08-07T11:44:52Z</time>
      </trkpt>
      <trkpt lat="44.7554" lon="3.06988">
        <ele>1123</ele>
        <time>2022-08-07T11:45:01Z</time>
      </trkpt>
      <trkpt lat="44.75538" lon="3.06983">
        <ele>1122.2</ele>
        <time>2022-08-07T11:45:14Z</time>
      </trkpt>
      <trkpt lat="44.75537" lon="3.0698">
        <ele>1121.8</ele>
        <time>2022-08-07T11:45:20Z</time>
      </trkpt>
      <trkpt lat="44.75538" lon="3.06979">
        <ele>1121.6</ele>
        <time>2022-08-07T11:45:29Z</time>
      </trkpt>
      <trkpt lat="44.75535" lon="3.06981">
        <ele>1121.9</ele>
        <time>2022-08-07T11:45:36Z</time>
      </trkpt>
      <trkpt lat="44.75535" lon="3.06979">
        <ele>1121.6</ele>
        <time>2022-08-07T11:45:42Z</time>
      </trkpt>
      <trkpt lat="44.75534" lon="3.0697">
        <ele>1120.7</ele>
        <time>2022-08-07T11:46:04Z</time>
      </trkpt>
      <trkpt lat="44.75534" lon="3.06968">
        <ele>1120.7</ele>
        <time>2022-08-07T11:46:05Z</time>
      </trkpt>
      <trkpt lat="44.75534" lon="3.06964">
        <ele>1120.6</ele>
        <time>2022-08-07T11:46:07Z</time>
      </trkpt>
      <trkpt lat="44.75534" lon="3.06958">
        <ele>1120.6</ele>
        <time>2022-08-07T11:46:10Z</time>
      </trkpt>
      <trkpt lat="44.75534" lon="3.06943">
        <ele>1120.3</ele>
        <time>2022-08-07T11:46:19Z</time>
      </trkpt>
      <trkpt lat="44.75537" lon="3.06931">
        <ele>1120.2</ele>
        <time>2022-08-07T11:46:26Z</time>
      </trkpt>
      <trkpt lat="44.75537" lon="3.0693">
        <ele>1120.2</ele>
        <time>2022-08-07T11:46:27Z</time>
      </trkpt>
      <trkpt lat="44.75539" lon="3.06924">
        <ele>1119.9</ele>
        <time>2022-08-07T11:46:30Z</time>
      </trkpt>
      <trkpt lat="44.75541" lon="3.06916">
        <ele>1119.6</ele>
        <time>2022-08-07T11:46:35Z</time>
      </trkpt>
      <trkpt lat="44.75542" lon="3.06912">
        <ele>1119.7</ele>
        <time>2022-08-07T11:46:37Z</time>
      </trkpt>
      <trkpt lat="44.75544" lon="3.06906">
        <ele>1119.7</ele>
        <time>2022-08-07T11:46:41Z</time>
      </trkpt>
      <trkpt lat="44.75547" lon="3.069">
        <ele>1119.3</ele>
        <time>2022-08-07T11:46:46Z</time>
      </trkpt>
      <trkpt lat="44.75548" lon="3.06897">
        <ele>1119.3</ele>
        <time>2022-08-07T11:46:48Z</time>
      </trkpt>
      <trkpt lat="44.75552" lon="3.06887">
        <ele>1118.7</ele>
        <time>2022-08-07T11:46:55Z</time>
      </trkpt>
      <trkpt lat="44.75553" lon="3.06886">
        <ele>1118.6</ele>
        <time>2022-08-07T11:46:57Z</time>
      </trkpt>
      <trkpt lat="44.75556" lon="3.06877">
        <ele>1118</ele>
        <time>2022-08-07T11:47:03Z</time>
      </trkpt>
      <trkpt lat="44.7556" lon="3.06863">
        <ele>1117.4</ele>
        <time>2022-08-07T11:47:11Z</time>
      </trkpt>
      <trkpt lat="44.7556" lon="3.06862">
        <ele>1117.3</ele>
        <time>2022-08-07T11:47:12Z</time>
      </trkpt>
      <trkpt lat="44.75564" lon="3.06853">
        <ele>1116.7</ele>
        <time>2022-08-07T11:47:18Z</time>
      </trkpt>
      <trkpt lat="44.75566" lon="3.0685">
        <ele>1116.5</ele>
        <time>2022-08-07T11:47:20Z</time>
      </trkpt>
      <trkpt lat="44.7557" lon="3.06845">
        <ele>1115.9</ele>
        <time>2022-08-07T11:47:24Z</time>
      </trkpt>
      <trkpt lat="44.75571" lon="3.06843">
        <ele>1115.8</ele>
        <time>2022-08-07T11:47:25Z</time>
      </trkpt>
      <trkpt lat="44.7557" lon="3.06841">
        <ele>1115.9</ele>
        <time>2022-08-07T11:47:27Z</time>
      </trkpt>
      <trkpt lat="44.7557" lon="3.06838">
        <ele>1116</ele>
        <time>2022-08-07T11:47:29Z</time>
      </trkpt>
      <trkpt lat="44.75569" lon="3.06836">
        <ele>1116</ele>
        <time>2022-08-07T11:47:30Z</time>
      </trkpt>
      <trkpt lat="44.75566" lon="3.06828">
        <ele>1116.1</ele>
        <time>2022-08-07T11:47:35Z</time>
      </trkpt>
      <trkpt lat="44.75566" lon="3.06826">
        <ele>1116.1</ele>
        <time>2022-08-07T11:47:37Z</time>
      </trkpt>
      <trkpt lat="44.75562" lon="3.06817">
        <ele>1116.2</ele>
        <time>2022-08-07T11:47:42Z</time>
      </trkpt>
      <trkpt lat="44.75561" lon="3.06812">
        <ele>1116.2</ele>
        <time>2022-08-07T11:47:45Z</time>
      </trkpt>
      <trkpt lat="44.75558" lon="3.06806">
        <ele>1116.5</ele>
        <time>2022-08-07T11:47:49Z</time>
      </trkpt>
      <trkpt lat="44.75555" lon="3.0679">
        <ele>1116.5</ele>
        <time>2022-08-07T11:47:58Z</time>
      </trkpt>
      <trkpt lat="44.75552" lon="3.06783">
        <ele>1116.6</ele>
        <time>2022-08-07T11:48:04Z</time>
      </trkpt>
      <trkpt lat="44.75551" lon="3.06783">
        <ele>1116.7</ele>
        <time>2022-08-07T11:48:06Z</time>
      </trkpt>
      <trkpt lat="44.75546" lon="3.06779">
        <ele>1117.1</ele>
        <time>2022-08-07T11:48:13Z</time>
      </trkpt>
      <trkpt lat="44.75546" lon="3.06779">
        <ele>1117.1</ele>
        <time>2022-08-07T11:48:14Z</time>
      </trkpt>
      <trkpt lat="44.75545" lon="3.06779">
        <ele>1117.2</ele>
        <time>2022-08-07T11:48:15Z</time>
      </trkpt>
      <trkpt lat="44.75545" lon="3.06779">
        <ele>1117.2</ele>
        <time>2022-08-07T11:48:16Z</time>
      </trkpt>
      <trkpt lat="44.75545" lon="3.06779">
        <ele>1117.2</ele>
        <time>2022-08-07T11:48:18Z</time>
      </trkpt>
      <trkpt lat="44.75545" lon="3.06779">
        <ele>1117.2</ele>
        <time>2022-08-07T11:48:19Z</time>
      </trkpt>
      <trkpt lat="44.75543" lon="3.06775">
        <ele>1117</ele>
        <time>2022-08-07T11:48:24Z</time>
      </trkpt>
      <trkpt lat="44.7554" lon="3.06765">
        <ele>1116.4</ele>
        <time>2022-08-07T11:48:30Z</time>
      </trkpt>
      <trkpt lat="44.75539" lon="3.06761">
        <ele>1116.1</ele>
        <time>2022-08-07T11:48:32Z</time>
      </trkpt>
      <trkpt lat="44.75537" lon="3.06754">
        <ele>1115.7</ele>
        <time>2022-08-07T11:48:36Z</time>
      </trkpt>
      <trkpt lat="44.75536" lon="3.0675">
        <ele>1115.6</ele>
        <time>2022-08-07T11:48:39Z</time>
      </trkpt>
      <trkpt lat="44.75535" lon="3.06744">
        <ele>1115.3</ele>
        <time>2022-08-07T11:48:43Z</time>
      </trkpt>
      <trkpt lat="44.75535" lon="3.06742">
        <ele>1115</ele>
        <time>2022-08-07T11:48:45Z</time>
      </trkpt>
      <trkpt lat="44.75535" lon="3.0674">
        <ele>1114.9</ele>
        <time>2022-08-07T11:48:46Z</time>
      </trkpt>
      <trkpt lat="44.75534" lon="3.06731">
        <ele>1114.3</ele>
        <time>2022-08-07T11:48:50Z</time>
      </trkpt>
      <trkpt lat="44.75533" lon="3.06722">
        <ele>1113.9</ele>
        <time>2022-08-07T11:48:54Z</time>
      </trkpt>
      <trkpt lat="44.75534" lon="3.06712">
        <ele>1113.6</ele>
        <time>2022-08-07T11:48:59Z</time>
      </trkpt>
      <trkpt lat="44.75537" lon="3.06699">
        <ele>1112.8</ele>
        <time>2022-08-07T11:49:07Z</time>
      </trkpt>
      <trkpt lat="44.7554" lon="3.06686">
        <ele>1112</ele>
        <time>2022-08-07T11:49:15Z</time>
      </trkpt>
      <trkpt lat="44.75539" lon="3.06672">
        <ele>1112.4</ele>
        <time>2022-08-07T11:49:23Z</time>
      </trkpt>
      <trkpt lat="44.75539" lon="3.06667">
        <ele>1112.4</ele>
        <time>2022-08-07T11:49:26Z</time>
      </trkpt>
      <trkpt lat="44.75538" lon="3.06655">
        <ele>1112.6</ele>
        <time>2022-08-07T11:49:33Z</time>
      </trkpt>
      <trkpt lat="44.75538" lon="3.0664">
        <ele>1112.7</ele>
        <time>2022-08-07T11:49:42Z</time>
      </trkpt>
      <trkpt lat="44.75537" lon="3.06634">
        <ele>1112.6</ele>
        <time>2022-08-07T11:49:47Z</time>
      </trkpt>
      <trkpt lat="44.75533" lon="3.06626">
        <ele>1113</ele>
        <time>2022-08-07T11:49:53Z</time>
      </trkpt>
      <trkpt lat="44.75531" lon="3.06621">
        <ele>1113.2</ele>
        <time>2022-08-07T11:49:57Z</time>
      </trkpt>
      <trkpt lat="44.75529" lon="3.06617">
        <ele>1113.4</ele>
        <time>2022-08-07T11:50:00Z</time>
      </trkpt>
      <trkpt lat="44.7552" lon="3.06605">
        <ele>1112.9</ele>
        <time>2022-08-07T11:50:09Z</time>
      </trkpt>
      <trkpt lat="44.75515" lon="3.06594">
        <ele>1112</ele>
        <time>2022-08-07T11:50:18Z</time>
      </trkpt>
      <trkpt lat="44.75514" lon="3.06592">
        <ele>1111.8</ele>
        <time>2022-08-07T11:50:20Z</time>
      </trkpt>
      <trkpt lat="44.75508" lon="3.06587">
        <ele>1112</ele>
        <time>2022-08-07T11:50:26Z</time>
      </trkpt>
      <trkpt lat="44.75505" lon="3.06578">
        <ele>1111</ele>
        <time>2022-08-07T11:50:33Z</time>
      </trkpt>
      <trkpt lat="44.75505" lon="3.06576">
        <ele>1110.5</ele>
        <time>2022-08-07T11:50:35Z</time>
      </trkpt>
      <trkpt lat="44.755" lon="3.06564">
        <ele>1108.7</ele>
        <time>2022-08-07T11:50:44Z</time>
      </trkpt>
      <trkpt lat="44.755" lon="3.06563">
        <ele>1108.5</ele>
        <time>2022-08-07T11:50:45Z</time>
      </trkpt>
      <trkpt lat="44.75497" lon="3.06553">
        <ele>1106.9</ele>
        <time>2022-08-07T11:50:52Z</time>
      </trkpt>
      <trkpt lat="44.75495" lon="3.0655">
        <ele>1106.5</ele>
        <time>2022-08-07T11:50:55Z</time>
      </trkpt>
      <trkpt lat="44.75492" lon="3.06546">
        <ele>1106.1</ele>
        <time>2022-08-07T11:51:00Z</time>
      </trkpt>
      <trkpt lat="44.75488" lon="3.06542">
        <ele>1105.6</ele>
        <time>2022-08-07T11:51:04Z</time>
      </trkpt>
      <trkpt lat="44.75486" lon="3.0654">
        <ele>1105.3</ele>
        <time>2022-08-07T11:51:07Z</time>
      </trkpt>
      <trkpt lat="44.75485" lon="3.06539">
        <ele>1105.2</ele>
        <time>2022-08-07T11:51:08Z</time>
      </trkpt>
      <trkpt lat="44.75482" lon="3.06536">
        <ele>1104.8</ele>
        <time>2022-08-07T11:51:13Z</time>
      </trkpt>
      <trkpt lat="44.75477" lon="3.06529">
        <ele>1103.8</ele>
        <time>2022-08-07T11:51:19Z</time>
      </trkpt>
      <trkpt lat="44.75476" lon="3.06528">
        <ele>1103.7</ele>
        <time>2022-08-07T11:51:21Z</time>
      </trkpt>
      <trkpt lat="44.75474" lon="3.06526">
        <ele>1103.3</ele>
        <time>2022-08-07T11:51:26Z</time>
      </trkpt>
      <trkpt lat="44.75473" lon="3.06525">
        <ele>1103.2</ele>
        <time>2022-08-07T11:51:27Z</time>
      </trkpt>
      <trkpt lat="44.75471" lon="3.0652">
        <ele>1102.4</ele>
        <time>2022-08-07T11:51:31Z</time>
      </trkpt>
      <trkpt lat="44.75471" lon="3.06519">
        <ele>1102.3</ele>
        <time>2022-08-07T11:51:32Z</time>
      </trkpt>
      <trkpt lat="44.75469" lon="3.06516">
        <ele>1101.9</ele>
        <time>2022-08-07T11:51:35Z</time>
      </trkpt>
      <trkpt lat="44.75468" lon="3.06511">
        <ele>1100.9</ele>
        <time>2022-08-07T11:51:40Z</time>
      </trkpt>
      <trkpt lat="44.75466" lon="3.06508">
        <ele>1100.3</ele>
        <time>2022-08-07T11:51:43Z</time>
      </trkpt>
      <trkpt lat="44.75462" lon="3.06503">
        <ele>1099.4</ele>
        <time>2022-08-07T11:51:49Z</time>
      </trkpt>
      <trkpt lat="44.75461" lon="3.06501">
        <ele>1099</ele>
        <time>2022-08-07T11:51:51Z</time>
      </trkpt>
      <trkpt lat="44.7546" lon="3.06493">
        <ele>1097.4</ele>
        <time>2022-08-07T11:51:56Z</time>
      </trkpt>
      <trkpt lat="44.75459" lon="3.06491">
        <ele>1097.2</ele>
        <time>2022-08-07T11:51:57Z</time>
      </trkpt>
      <trkpt lat="44.75457" lon="3.06487">
        <ele>1096.5</ele>
        <time>2022-08-07T11:52:01Z</time>
      </trkpt>
      <trkpt lat="44.75456" lon="3.06484">
        <ele>1096</ele>
        <time>2022-08-07T11:52:04Z</time>
      </trkpt>
      <trkpt lat="44.75455" lon="3.06482">
        <ele>1095.8</ele>
        <time>2022-08-07T11:52:06Z</time>
      </trkpt>
      <trkpt lat="44.7545" lon="3.06474">
        <ele>1094.7</ele>
        <time>2022-08-07T11:52:14Z</time>
      </trkpt>
      <trkpt lat="44.7545" lon="3.06473">
        <ele>1094.6</ele>
        <time>2022-08-07T11:52:15Z</time>
      </trkpt>
      <trkpt lat="44.75443" lon="3.06465">
        <ele>1093.4</ele>
        <time>2022-08-07T11:52:23Z</time>
      </trkpt>
      <trkpt lat="44.75437" lon="3.06457">
        <ele>1092</ele>
        <time>2022-08-07T11:52:31Z</time>
      </trkpt>
      <trkpt lat="44.75435" lon="3.06455">
        <ele>1091.6</ele>
        <time>2022-08-07T11:52:33Z</time>
      </trkpt>
      <trkpt lat="44.75432" lon="3.06451">
        <ele>1091.1</ele>
        <time>2022-08-07T11:52:37Z</time>
      </trkpt>
      <trkpt lat="44.75427" lon="3.06446">
        <ele>1090.4</ele>
        <time>2022-08-07T11:52:44Z</time>
      </trkpt>
      <trkpt lat="44.7542" lon="3.06438">
        <ele>1089</ele>
        <time>2022-08-07T11:52:54Z</time>
      </trkpt>
      <trkpt lat="44.75419" lon="3.06437">
        <ele>1089</ele>
        <time>2022-08-07T11:52:55Z</time>
      </trkpt>
      <trkpt lat="44.75414" lon="3.06433">
        <ele>1088.1</ele>
        <time>2022-08-07T11:53:01Z</time>
      </trkpt>
      <trkpt lat="44.75409" lon="3.06428">
        <ele>1087.3</ele>
        <time>2022-08-07T11:53:07Z</time>
      </trkpt>
      <trkpt lat="44.75408" lon="3.06428">
        <ele>1087.2</ele>
        <time>2022-08-07T11:53:08Z</time>
      </trkpt>
      <trkpt lat="44.75407" lon="3.06427">
        <ele>1087.1</ele>
        <time>2022-08-07T11:53:10Z</time>
      </trkpt>
      <trkpt lat="44.754" lon="3.06419">
        <ele>1085.6</ele>
        <time>2022-08-07T11:53:18Z</time>
      </trkpt>
      <trkpt lat="44.75399" lon="3.06418">
        <ele>1085.5</ele>
        <time>2022-08-07T11:53:19Z</time>
      </trkpt>
      <trkpt lat="44.75397" lon="3.0641">
        <ele>1084.4</ele>
        <time>2022-08-07T11:53:25Z</time>
      </trkpt>
      <trkpt lat="44.75396" lon="3.06407">
        <ele>1084</ele>
        <time>2022-08-07T11:53:27Z</time>
      </trkpt>
      <trkpt lat="44.75393" lon="3.06394">
        <ele>1082.3</ele>
        <time>2022-08-07T11:53:36Z</time>
      </trkpt>
      <trkpt lat="44.75391" lon="3.06391">
        <ele>1082.1</ele>
        <time>2022-08-07T11:53:38Z</time>
      </trkpt>
      <trkpt lat="44.75389" lon="3.06385">
        <ele>1081.4</ele>
        <time>2022-08-07T11:53:43Z</time>
      </trkpt>
      <trkpt lat="44.75387" lon="3.06378">
        <ele>1080.6</ele>
        <time>2022-08-07T11:53:47Z</time>
      </trkpt>
      <trkpt lat="44.75387" lon="3.06374">
        <ele>1080</ele>
        <time>2022-08-07T11:53:50Z</time>
      </trkpt>
      <trkpt lat="44.75386" lon="3.06373">
        <ele>1079.8</ele>
        <time>2022-08-07T11:53:51Z</time>
      </trkpt>
      <trkpt lat="44.75386" lon="3.0637">
        <ele>1079.4</ele>
        <time>2022-08-07T11:53:53Z</time>
      </trkpt>
      <trkpt lat="44.75385" lon="3.06367">
        <ele>1079.1</ele>
        <time>2022-08-07T11:53:56Z</time>
      </trkpt>
      <trkpt lat="44.75383" lon="3.06363">
        <ele>1078.5</ele>
        <time>2022-08-07T11:54:00Z</time>
      </trkpt>
      <trkpt lat="44.75377" lon="3.06352">
        <ele>1077.8</ele>
        <time>2022-08-07T11:54:09Z</time>
      </trkpt>
      <trkpt lat="44.75376" lon="3.06345">
        <ele>1077.3</ele>
        <time>2022-08-07T11:54:14Z</time>
      </trkpt>
      <trkpt lat="44.75374" lon="3.0634">
        <ele>1077</ele>
        <time>2022-08-07T11:54:17Z</time>
      </trkpt>
      <trkpt lat="44.75369" lon="3.06328">
        <ele>1076.2</ele>
        <time>2022-08-07T11:54:25Z</time>
      </trkpt>
      <trkpt lat="44.75365" lon="3.0632">
        <ele>1075.7</ele>
        <time>2022-08-07T11:54:32Z</time>
      </trkpt>
      <trkpt lat="44.7536" lon="3.06313">
        <ele>1075.6</ele>
        <time>2022-08-07T11:54:39Z</time>
      </trkpt>
      <trkpt lat="44.75354" lon="3.06302">
        <ele>1075.3</ele>
        <time>2022-08-07T11:54:47Z</time>
      </trkpt>
      <trkpt lat="44.75354" lon="3.06299">
        <ele>1075.1</ele>
        <time>2022-08-07T11:54:49Z</time>
      </trkpt>
      <trkpt lat="44.75353" lon="3.06297">
        <ele>1075.1</ele>
        <time>2022-08-07T11:54:50Z</time>
      </trkpt>
      <trkpt lat="44.75352" lon="3.06296">
        <ele>1075.1</ele>
        <time>2022-08-07T11:54:51Z</time>
      </trkpt>
      <trkpt lat="44.75351" lon="3.06292">
        <ele>1074.9</ele>
        <time>2022-08-07T11:54:53Z</time>
      </trkpt>
      <trkpt lat="44.75351" lon="3.06288">
        <ele>1074.7</ele>
        <time>2022-08-07T11:54:55Z</time>
      </trkpt>
      <trkpt lat="44.75349" lon="3.06281">
        <ele>1074.5</ele>
        <time>2022-08-07T11:55:00Z</time>
      </trkpt>
      <trkpt lat="44.75349" lon="3.06279">
        <ele>1074.4</ele>
        <time>2022-08-07T11:55:01Z</time>
      </trkpt>
      <trkpt lat="44.75346" lon="3.06266">
        <ele>1075</ele>
        <time>2022-08-07T11:55:10Z</time>
      </trkpt>
      <trkpt lat="44.75346" lon="3.06261">
        <ele>1075.2</ele>
        <time>2022-08-07T11:55:12Z</time>
      </trkpt>
      <trkpt lat="44.75347" lon="3.06255">
        <ele>1075.3</ele>
        <time>2022-08-07T11:55:16Z</time>
      </trkpt>
      <trkpt lat="44.75352" lon="3.06248">
        <ele>1075.1</ele>
        <time>2022-08-07T11:55:22Z</time>
      </trkpt>
      <trkpt lat="44.75353" lon="3.06246">
        <ele>1075.2</ele>
        <time>2022-08-07T11:55:23Z</time>
      </trkpt>
      <trkpt lat="44.75354" lon="3.06243">
        <ele>1075.4</ele>
        <time>2022-08-07T11:55:25Z</time>
      </trkpt>
      <trkpt lat="44.75359" lon="3.06235">
        <ele>1075.4</ele>
        <time>2022-08-07T11:55:32Z</time>
      </trkpt>
      <trkpt lat="44.75361" lon="3.06233">
        <ele>1075.2</ele>
        <time>2022-08-07T11:55:35Z</time>
      </trkpt>
      <trkpt lat="44.75363" lon="3.0623">
        <ele>1075.2</ele>
        <time>2022-08-07T11:55:37Z</time>
      </trkpt>
      <trkpt lat="44.75363" lon="3.06227">
        <ele>1075.3</ele>
        <time>2022-08-07T11:55:38Z</time>
      </trkpt>
      <trkpt lat="44.75365" lon="3.06225">
        <ele>1075.2</ele>
        <time>2022-08-07T11:55:40Z</time>
      </trkpt>
      <trkpt lat="44.75369" lon="3.0622">
        <ele>1074.8</ele>
        <time>2022-08-07T11:55:44Z</time>
      </trkpt>
      <trkpt lat="44.75375" lon="3.06215">
        <ele>1074.4</ele>
        <time>2022-08-07T11:55:49Z</time>
      </trkpt>
      <trkpt lat="44.75379" lon="3.06211">
        <ele>1074.4</ele>
        <time>2022-08-07T11:55:53Z</time>
      </trkpt>
      <trkpt lat="44.75379" lon="3.06208">
        <ele>1074.6</ele>
        <time>2022-08-07T11:55:55Z</time>
      </trkpt>
      <trkpt lat="44.7538" lon="3.06207">
        <ele>1074.7</ele>
        <time>2022-08-07T11:55:58Z</time>
      </trkpt>
      <trkpt lat="44.75386" lon="3.06201">
        <ele>1074.6</ele>
        <time>2022-08-07T11:56:04Z</time>
      </trkpt>
      <trkpt lat="44.75389" lon="3.06197">
        <ele>1074.5</ele>
        <time>2022-08-07T11:56:08Z</time>
      </trkpt>
      <trkpt lat="44.75392" lon="3.06195">
        <ele>1074.2</ele>
        <time>2022-08-07T11:56:11Z</time>
      </trkpt>
      <trkpt lat="44.75398" lon="3.06188">
        <ele>1073.7</ele>
        <time>2022-08-07T11:56:17Z</time>
      </trkpt>
      <trkpt lat="44.75402" lon="3.06186">
        <ele>1073.3</ele>
        <time>2022-08-07T11:56:21Z</time>
      </trkpt>
      <trkpt lat="44.75405" lon="3.06183">
        <ele>1073.3</ele>
        <time>2022-08-07T11:56:24Z</time>
      </trkpt>
      <trkpt lat="44.75405" lon="3.06182">
        <ele>1073.4</ele>
        <time>2022-08-07T11:56:25Z</time>
      </trkpt>
      <trkpt lat="44.75407" lon="3.0618">
        <ele>1073.5</ele>
        <time>2022-08-07T11:56:27Z</time>
      </trkpt>
      <trkpt lat="44.75413" lon="3.06177">
        <ele>1073.3</ele>
        <time>2022-08-07T11:56:31Z</time>
      </trkpt>
      <trkpt lat="44.75421" lon="3.06173">
        <ele>1072.9</ele>
        <time>2022-08-07T11:56:39Z</time>
      </trkpt>
      <trkpt lat="44.75428" lon="3.06169">
        <ele>1072.3</ele>
        <time>2022-08-07T11:56:45Z</time>
      </trkpt>
      <trkpt lat="44.75434" lon="3.06161">
        <ele>1072.1</ele>
        <time>2022-08-07T11:56:53Z</time>
      </trkpt>
      <trkpt lat="44.75436" lon="3.06159">
        <ele>1072.1</ele>
        <time>2022-08-07T11:56:54Z</time>
      </trkpt>
      <trkpt lat="44.75443" lon="3.06155">
        <ele>1071.3</ele>
        <time>2022-08-07T11:57:00Z</time>
      </trkpt>
      <trkpt lat="44.75449" lon="3.06149">
        <ele>1071.4</ele>
        <time>2022-08-07T11:57:06Z</time>
      </trkpt>
      <trkpt lat="44.75453" lon="3.06144">
        <ele>1071.5</ele>
        <time>2022-08-07T11:57:10Z</time>
      </trkpt>
      <trkpt lat="44.75454" lon="3.06143">
        <ele>1071.6</ele>
        <time>2022-08-07T11:57:11Z</time>
      </trkpt>
      <trkpt lat="44.75461" lon="3.06134">
        <ele>1071.7</ele>
        <time>2022-08-07T11:57:18Z</time>
      </trkpt>
      <trkpt lat="44.75466" lon="3.06125">
        <ele>1072.4</ele>
        <time>2022-08-07T11:57:25Z</time>
      </trkpt>
      <trkpt lat="44.75467" lon="3.06124">
        <ele>1072.4</ele>
        <time>2022-08-07T11:57:26Z</time>
      </trkpt>
      <trkpt lat="44.75474" lon="3.06114">
        <ele>1073.2</ele>
        <time>2022-08-07T11:57:34Z</time>
      </trkpt>
      <trkpt lat="44.75478" lon="3.06109">
        <ele>1073</ele>
        <time>2022-08-07T11:57:39Z</time>
      </trkpt>
      <trkpt lat="44.75479" lon="3.06106">
        <ele>1072.8</ele>
        <time>2022-08-07T11:57:41Z</time>
      </trkpt>
      <trkpt lat="44.75486" lon="3.06091">
        <ele>1072.2</ele>
        <time>2022-08-07T11:57:52Z</time>
      </trkpt>
      <trkpt lat="44.75487" lon="3.06088">
        <ele>1072.1</ele>
        <time>2022-08-07T11:57:54Z</time>
      </trkpt>
      <trkpt lat="44.75492" lon="3.06081">
        <ele>1071.8</ele>
        <time>2022-08-07T11:58:00Z</time>
      </trkpt>
      <trkpt lat="44.75493" lon="3.06078">
        <ele>1072</ele>
        <time>2022-08-07T11:58:02Z</time>
      </trkpt>
      <trkpt lat="44.75496" lon="3.0607">
        <ele>1072.5</ele>
        <time>2022-08-07T11:58:07Z</time>
      </trkpt>
      <trkpt lat="44.75496" lon="3.06068">
        <ele>1072.7</ele>
        <time>2022-08-07T11:58:08Z</time>
      </trkpt>
      <trkpt lat="44.75497" lon="3.06064">
        <ele>1073.2</ele>
        <time>2022-08-07T11:58:11Z</time>
      </trkpt>
      <trkpt lat="44.75499" lon="3.06059">
        <ele>1073.6</ele>
        <time>2022-08-07T11:58:14Z</time>
      </trkpt>
      <trkpt lat="44.75503" lon="3.06053">
        <ele>1073.6</ele>
        <time>2022-08-07T11:58:20Z</time>
      </trkpt>
      <trkpt lat="44.75506" lon="3.06046">
        <ele>1073.4</ele>
        <time>2022-08-07T11:58:24Z</time>
      </trkpt>
      <trkpt lat="44.75507" lon="3.06042">
        <ele>1073.3</ele>
        <time>2022-08-07T11:58:27Z</time>
      </trkpt>
      <trkpt lat="44.75511" lon="3.06035">
        <ele>1073.1</ele>
        <time>2022-08-07T11:58:34Z</time>
      </trkpt>
      <trkpt lat="44.75511" lon="3.06029">
        <ele>1073.3</ele>
        <time>2022-08-07T11:58:38Z</time>
      </trkpt>
      <trkpt lat="44.75513" lon="3.06027">
        <ele>1073.2</ele>
        <time>2022-08-07T11:58:40Z</time>
      </trkpt>
      <trkpt lat="44.75517" lon="3.06014">
        <ele>1072.8</ele>
        <time>2022-08-07T11:58:49Z</time>
      </trkpt>
      <trkpt lat="44.75517" lon="3.06001">
        <ele>1073</ele>
        <time>2022-08-07T11:58:57Z</time>
      </trkpt>
      <trkpt lat="44.75513" lon="3.05984">
        <ele>1074.3</ele>
        <time>2022-08-07T11:59:08Z</time>
      </trkpt>
      <trkpt lat="44.75511" lon="3.05978">
        <ele>1074.7</ele>
        <time>2022-08-07T11:59:12Z</time>
      </trkpt>
      <trkpt lat="44.75509" lon="3.05971">
        <ele>1075.5</ele>
        <time>2022-08-07T11:59:17Z</time>
      </trkpt>
      <trkpt lat="44.75507" lon="3.05959">
        <ele>1075.9</ele>
        <time>2022-08-07T11:59:26Z</time>
      </trkpt>
      <trkpt lat="44.75504" lon="3.0595">
        <ele>1076.4</ele>
        <time>2022-08-07T11:59:31Z</time>
      </trkpt>
      <trkpt lat="44.75502" lon="3.05946">
        <ele>1076.7</ele>
        <time>2022-08-07T11:59:34Z</time>
      </trkpt>
      <trkpt lat="44.75501" lon="3.0594">
        <ele>1076.8</ele>
        <time>2022-08-07T11:59:39Z</time>
      </trkpt>
      <trkpt lat="44.75499" lon="3.05936">
        <ele>1076.9</ele>
        <time>2022-08-07T11:59:43Z</time>
      </trkpt>
      <trkpt lat="44.75497" lon="3.0593">
        <ele>1077</ele>
        <time>2022-08-07T11:59:47Z</time>
      </trkpt>
      <trkpt lat="44.75496" lon="3.05926">
        <ele>1077</ele>
        <time>2022-08-07T11:59:51Z</time>
      </trkpt>
      <trkpt lat="44.75494" lon="3.05917">
        <ele>1077.1</ele>
        <time>2022-08-07T11:59:56Z</time>
      </trkpt>
      <trkpt lat="44.7549" lon="3.05906">
        <ele>1077.7</ele>
        <time>2022-08-07T12:00:04Z</time>
      </trkpt>
      <trkpt lat="44.75486" lon="3.05887">
        <ele>1077.9</ele>
        <time>2022-08-07T12:00:17Z</time>
      </trkpt>
      <trkpt lat="44.75479" lon="3.05875">
        <ele>1077.5</ele>
        <time>2022-08-07T12:00:27Z</time>
      </trkpt>
      <trkpt lat="44.75473" lon="3.05865">
        <ele>1077.3</ele>
        <time>2022-08-07T12:00:36Z</time>
      </trkpt>
      <trkpt lat="44.75474" lon="3.05864">
        <ele>1077.1</ele>
        <time>2022-08-07T12:00:37Z</time>
      </trkpt>
      <trkpt lat="44.75475" lon="3.05864">
        <ele>1076.9</ele>
        <time>2022-08-07T12:00:38Z</time>
      </trkpt>
      <trkpt lat="44.7548" lon="3.05863">
        <ele>1076.1</ele>
        <time>2022-08-07T12:00:43Z</time>
      </trkpt>
      <trkpt lat="44.75483" lon="3.05865">
        <ele>1075.8</ele>
        <time>2022-08-07T12:00:46Z</time>
      </trkpt>
      <trkpt lat="44.75487" lon="3.05869">
        <ele>1075.6</ele>
        <time>2022-08-07T12:00:50Z</time>
      </trkpt>
      <trkpt lat="44.75497" lon="3.05876">
        <ele>1075.1</ele>
        <time>2022-08-07T12:00:59Z</time>
      </trkpt>
      <trkpt lat="44.75509" lon="3.05883">
        <ele>1074.7</ele>
        <time>2022-08-07T12:01:10Z</time>
      </trkpt>
      <trkpt lat="44.7551" lon="3.05883">
        <ele>1074.7</ele>
        <time>2022-08-07T12:01:11Z</time>
      </trkpt>
      <trkpt lat="44.75523" lon="3.05894">
        <ele>1074.3</ele>
        <time>2022-08-07T12:01:23Z</time>
      </trkpt>
      <trkpt lat="44.75525" lon="3.05896">
        <ele>1074.2</ele>
        <time>2022-08-07T12:01:25Z</time>
      </trkpt>
      <trkpt lat="44.75532" lon="3.05904">
        <ele>1073.4</ele>
        <time>2022-08-07T12:01:32Z</time>
      </trkpt>
      <trkpt lat="44.7554" lon="3.05915">
        <ele>1072.2</ele>
        <time>2022-08-07T12:01:42Z</time>
      </trkpt>
      <trkpt lat="44.75542" lon="3.05918">
        <ele>1071.9</ele>
        <time>2022-08-07T12:01:44Z</time>
      </trkpt>
      <trkpt lat="44.75548" lon="3.05925">
        <ele>1070.8</ele>
        <time>2022-08-07T12:01:51Z</time>
      </trkpt>
      <trkpt lat="44.75554" lon="3.05931">
        <ele>1069.7</ele>
        <time>2022-08-07T12:01:57Z</time>
      </trkpt>
      <trkpt lat="44.75557" lon="3.05936">
        <ele>1069.2</ele>
        <time>2022-08-07T12:02:01Z</time>
      </trkpt>
      <trkpt lat="44.75561" lon="3.05943">
        <ele>1068.7</ele>
        <time>2022-08-07T12:02:07Z</time>
      </trkpt>
      <trkpt lat="44.75563" lon="3.05945">
        <ele>1068.4</ele>
        <time>2022-08-07T12:02:09Z</time>
      </trkpt>
      <trkpt lat="44.7557" lon="3.05955">
        <ele>1067.4</ele>
        <time>2022-08-07T12:02:18Z</time>
      </trkpt>
      <trkpt lat="44.7557" lon="3.05956">
        <ele>1067.3</ele>
        <time>2022-08-07T12:02:19Z</time>
      </trkpt>
      <trkpt lat="44.75581" lon="3.05966">
        <ele>1066.3</ele>
        <time>2022-08-07T12:02:29Z</time>
      </trkpt>
      <trkpt lat="44.75585" lon="3.05969">
        <ele>1066.3</ele>
        <time>2022-08-07T12:02:33Z</time>
      </trkpt>
      <trkpt lat="44.75593" lon="3.05977">
        <ele>1066.2</ele>
        <time>2022-08-07T12:02:41Z</time>
      </trkpt>
      <trkpt lat="44.75596" lon="3.05981">
        <ele>1065.9</ele>
        <time>2022-08-07T12:02:45Z</time>
      </trkpt>
      <trkpt lat="44.75597" lon="3.05983">
        <ele>1065.8</ele>
        <time>2022-08-07T12:02:46Z</time>
      </trkpt>
      <trkpt lat="44.75598" lon="3.05992">
        <ele>1065</ele>
        <time>2022-08-07T12:02:51Z</time>
      </trkpt>
      <trkpt lat="44.75599" lon="3.05996">
        <ele>1064.6</ele>
        <time>2022-08-07T12:02:54Z</time>
      </trkpt>
      <trkpt lat="44.756" lon="3.06">
        <ele>1064.2</ele>
        <time>2022-08-07T12:02:57Z</time>
      </trkpt>
      <trkpt lat="44.756" lon="3.06">
        <ele>1064.1</ele>
        <time>2022-08-07T12:03:00Z</time>
      </trkpt>
      <trkpt lat="44.756" lon="3.06">
        <ele>1064.1</ele>
        <time>2022-08-07T12:03:02Z</time>
      </trkpt>
      <trkpt lat="44.75599" lon="3.06">
        <ele>1064.1</ele>
        <time>2022-08-07T12:03:04Z</time>
      </trkpt>
      <trkpt lat="44.75602" lon="3.06004">
        <ele>1063.8</ele>
        <time>2022-08-07T12:03:08Z</time>
      </trkpt>
      <trkpt lat="44.75607" lon="3.06013">
        <ele>1063.3</ele>
        <time>2022-08-07T12:03:15Z</time>
      </trkpt>
      <trkpt lat="44.75616" lon="3.06022">
        <ele>1062.2</ele>
        <time>2022-08-07T12:03:25Z</time>
      </trkpt>
      <trkpt lat="44.75617" lon="3.06023">
        <ele>1062.1</ele>
        <time>2022-08-07T12:03:26Z</time>
      </trkpt>
      <trkpt lat="44.75629" lon="3.06026">
        <ele>1060.9</ele>
        <time>2022-08-07T12:03:37Z</time>
      </trkpt>
      <trkpt lat="44.75632" lon="3.06026">
        <ele>1060.7</ele>
        <time>2022-08-07T12:03:39Z</time>
      </trkpt>
      <trkpt lat="44.75641" lon="3.06026">
        <ele>1060</ele>
        <time>2022-08-07T12:03:47Z</time>
      </trkpt>
      <trkpt lat="44.75648" lon="3.06026">
        <ele>1059.5</ele>
        <time>2022-08-07T12:03:52Z</time>
      </trkpt>
      <trkpt lat="44.75656" lon="3.06029">
        <ele>1058.5</ele>
        <time>2022-08-07T12:03:59Z</time>
      </trkpt>
      <trkpt lat="44.75668" lon="3.06029">
        <ele>1057.6</ele>
        <time>2022-08-07T12:04:08Z</time>
      </trkpt>
      <trkpt lat="44.75672" lon="3.06029">
        <ele>1057.3</ele>
        <time>2022-08-07T12:04:11Z</time>
      </trkpt>
      <trkpt lat="44.75684" lon="3.0603">
        <ele>1056.4</ele>
        <time>2022-08-07T12:04:21Z</time>
      </trkpt>
      <trkpt lat="44.75685" lon="3.0603">
        <ele>1056.3</ele>
        <time>2022-08-07T12:04:22Z</time>
      </trkpt>
      <trkpt lat="44.7569" lon="3.0603">
        <ele>1055.9</ele>
        <time>2022-08-07T12:04:26Z</time>
      </trkpt>
      <trkpt lat="44.75697" lon="3.06029">
        <ele>1055.5</ele>
        <time>2022-08-07T12:04:33Z</time>
      </trkpt>
      <trkpt lat="44.75702" lon="3.06028">
        <ele>1054.9</ele>
        <time>2022-08-07T12:04:37Z</time>
      </trkpt>
      <trkpt lat="44.7571" lon="3.06025">
        <ele>1054.1</ele>
        <time>2022-08-07T12:04:44Z</time>
      </trkpt>
      <trkpt lat="44.75712" lon="3.06024">
        <ele>1054</ele>
        <time>2022-08-07T12:04:46Z</time>
      </trkpt>
      <trkpt lat="44.75719" lon="3.06021">
        <ele>1053.3</ele>
        <time>2022-08-07T12:04:52Z</time>
      </trkpt>
      <trkpt lat="44.7572" lon="3.0602">
        <ele>1053.3</ele>
        <time>2022-08-07T12:04:53Z</time>
      </trkpt>
      <trkpt lat="44.75726" lon="3.06017">
        <ele>1052.7</ele>
        <time>2022-08-07T12:04:59Z</time>
      </trkpt>
      <trkpt lat="44.75729" lon="3.06015">
        <ele>1052.3</ele>
        <time>2022-08-07T12:05:03Z</time>
      </trkpt>
      <trkpt lat="44.75729" lon="3.06015">
        <ele>1052.4</ele>
        <time>2022-08-07T12:05:05Z</time>
      </trkpt>
      <trkpt lat="44.75729" lon="3.06015">
        <ele>1052.4</ele>
        <time>2022-08-07T12:05:07Z</time>
      </trkpt>
      <trkpt lat="44.7573" lon="3.06014">
        <ele>1052.4</ele>
        <time>2022-08-07T12:05:08Z</time>
      </trkpt>
      <trkpt lat="44.75737" lon="3.06012">
        <ele>1051.6</ele>
        <time>2022-08-07T12:05:14Z</time>
      </trkpt>
      <trkpt lat="44.7574" lon="3.06011">
        <ele>1051.3</ele>
        <time>2022-08-07T12:05:16Z</time>
      </trkpt>
      <trkpt lat="44.75748" lon="3.06009">
        <ele>1050.3</ele>
        <time>2022-08-07T12:05:24Z</time>
      </trkpt>
      <trkpt lat="44.75753" lon="3.06007">
        <ele>1050</ele>
        <time>2022-08-07T12:05:28Z</time>
      </trkpt>
      <trkpt lat="44.75762" lon="3.06004">
        <ele>1049.4</ele>
        <time>2022-08-07T12:05:35Z</time>
      </trkpt>
      <trkpt lat="44.75768" lon="3.06004">
        <ele>1048.8</ele>
        <time>2022-08-07T12:05:40Z</time>
      </trkpt>
      <trkpt lat="44.75778" lon="3.06008">
        <ele>1047.7</ele>
        <time>2022-08-07T12:05:49Z</time>
      </trkpt>
      <trkpt lat="44.75793" lon="3.06021">
        <ele>1047</ele>
        <time>2022-08-07T12:06:02Z</time>
      </trkpt>
      <trkpt lat="44.75799" lon="3.0603">
        <ele>1047.1</ele>
        <time>2022-08-07T12:06:09Z</time>
      </trkpt>
      <trkpt lat="44.758" lon="3.06031">
        <ele>1047.1</ele>
        <time>2022-08-07T12:06:10Z</time>
      </trkpt>
      <trkpt lat="44.75805" lon="3.0604">
        <ele>1047.4</ele>
        <time>2022-08-07T12:06:17Z</time>
      </trkpt>
      <trkpt lat="44.75805" lon="3.06041">
        <ele>1047.5</ele>
        <time>2022-08-07T12:06:18Z</time>
      </trkpt>
      <trkpt lat="44.7581" lon="3.06048">
        <ele>1048</ele>
        <time>2022-08-07T12:06:24Z</time>
      </trkpt>
      <trkpt lat="44.7581" lon="3.06048">
        <ele>1048</ele>
        <time>2022-08-07T12:06:25Z</time>
      </trkpt>
      <trkpt lat="44.7581" lon="3.06052">
        <ele>1048.1</ele>
        <time>2022-08-07T12:06:26Z</time>
      </trkpt>
      <trkpt lat="44.7581" lon="3.06053">
        <ele>1048.2</ele>
        <time>2022-08-07T12:06:27Z</time>
      </trkpt>
      <trkpt lat="44.75816" lon="3.06061">
        <ele>1049.3</ele>
        <time>2022-08-07T12:06:34Z</time>
      </trkpt>
      <trkpt lat="44.75817" lon="3.06064">
        <ele>1049.8</ele>
        <time>2022-08-07T12:06:37Z</time>
      </trkpt>
      <trkpt lat="44.75818" lon="3.06066">
        <ele>1050</ele>
        <time>2022-08-07T12:06:39Z</time>
      </trkpt>
      <trkpt lat="44.75818" lon="3.06066">
        <ele>1050</ele>
        <time>2022-08-07T12:06:41Z</time>
      </trkpt>
      <trkpt lat="44.75818" lon="3.06066">
        <ele>1050</ele>
        <time>2022-08-07T12:06:42Z</time>
      </trkpt>
      <trkpt lat="44.75819" lon="3.06067">
        <ele>1050.1</ele>
        <time>2022-08-07T12:06:44Z</time>
      </trkpt>
      <trkpt lat="44.75821" lon="3.06068">
        <ele>1050.5</ele>
        <time>2022-08-07T12:06:46Z</time>
      </trkpt>
      <trkpt lat="44.75822" lon="3.06069">
        <ele>1050.7</ele>
        <time>2022-08-07T12:06:47Z</time>
      </trkpt>
      <trkpt lat="44.75828" lon="3.0607">
        <ele>1051.5</ele>
        <time>2022-08-07T12:06:52Z</time>
      </trkpt>
      <trkpt lat="44.75832" lon="3.06071">
        <ele>1052.1</ele>
        <time>2022-08-07T12:06:55Z</time>
      </trkpt>
      <trkpt lat="44.75833" lon="3.06072">
        <ele>1052.3</ele>
        <time>2022-08-07T12:06:57Z</time>
      </trkpt>
      <trkpt lat="44.7584" lon="3.06074">
        <ele>1053.4</ele>
        <time>2022-08-07T12:07:04Z</time>
      </trkpt>
      <trkpt lat="44.75845" lon="3.06075">
        <ele>1053.9</ele>
        <time>2022-08-07T12:07:08Z</time>
      </trkpt>
      <trkpt lat="44.75848" lon="3.06075">
        <ele>1054.3</ele>
        <time>2022-08-07T12:07:11Z</time>
      </trkpt>
      <trkpt lat="44.75855" lon="3.06076">
        <ele>1055.1</ele>
        <time>2022-08-07T12:07:18Z</time>
      </trkpt>
      <trkpt lat="44.75858" lon="3.06076">
        <ele>1055.3</ele>
        <time>2022-08-07T12:07:20Z</time>
      </trkpt>
      <trkpt lat="44.75864" lon="3.06076">
        <ele>1055.8</ele>
        <time>2022-08-07T12:07:28Z</time>
      </trkpt>
      <trkpt lat="44.75865" lon="3.06076">
        <ele>1055.8</ele>
        <time>2022-08-07T12:07:30Z</time>
      </trkpt>
      <trkpt lat="44.75866" lon="3.06076">
        <ele>1055.8</ele>
        <time>2022-08-07T12:07:31Z</time>
      </trkpt>
      <trkpt lat="44.75877" lon="3.06077">
        <ele>1056.4</ele>
        <time>2022-08-07T12:07:40Z</time>
      </trkpt>
      <trkpt lat="44.75878" lon="3.06077">
        <ele>1056.5</ele>
        <time>2022-08-07T12:07:41Z</time>
      </trkpt>
      <trkpt lat="44.75885" lon="3.06078">
        <ele>1056.9</ele>
        <time>2022-08-07T12:07:49Z</time>
      </trkpt>
      <trkpt lat="44.75892" lon="3.06079">
        <ele>1057.3</ele>
        <time>2022-08-07T12:07:56Z</time>
      </trkpt>
      <trkpt lat="44.75898" lon="3.06081">
        <ele>1057.9</ele>
        <time>2022-08-07T12:08:01Z</time>
      </trkpt>
      <trkpt lat="44.75908" lon="3.06082">
        <ele>1058.4</ele>
        <time>2022-08-07T12:08:09Z</time>
      </trkpt>
      <trkpt lat="44.75919" lon="3.06083">
        <ele>1059</ele>
        <time>2022-08-07T12:08:20Z</time>
      </trkpt>
      <trkpt lat="44.75926" lon="3.06083">
        <ele>1059.3</ele>
        <time>2022-08-07T12:08:26Z</time>
      </trkpt>
      <trkpt lat="44.7593" lon="3.06083">
        <ele>1059.4</ele>
        <time>2022-08-07T12:08:29Z</time>
      </trkpt>
      <trkpt lat="44.7594" lon="3.06086">
        <ele>1060.5</ele>
        <time>2022-08-07T12:08:39Z</time>
      </trkpt>
      <trkpt lat="44.75953" lon="3.06087">
        <ele>1061.1</ele>
        <time>2022-08-07T12:08:52Z</time>
      </trkpt>
      <trkpt lat="44.75954" lon="3.06087">
        <ele>1061.2</ele>
        <time>2022-08-07T12:08:54Z</time>
      </trkpt>
      <trkpt lat="44.75954" lon="3.06088">
        <ele>1061.3</ele>
        <time>2022-08-07T12:08:56Z</time>
      </trkpt>
      <trkpt lat="44.75955" lon="3.06088">
        <ele>1061.4</ele>
        <time>2022-08-07T12:08:58Z</time>
      </trkpt>
      <trkpt lat="44.75964" lon="3.06093">
        <ele>1062.5</ele>
        <time>2022-08-07T12:09:07Z</time>
      </trkpt>
      <trkpt lat="44.75969" lon="3.06095">
        <ele>1063</ele>
        <time>2022-08-07T12:09:11Z</time>
      </trkpt>
      <trkpt lat="44.7598" lon="3.06099">
        <ele>1063.6</ele>
        <time>2022-08-07T12:09:21Z</time>
      </trkpt>
      <trkpt lat="44.75989" lon="3.06102">
        <ele>1064</ele>
        <time>2022-08-07T12:09:30Z</time>
      </trkpt>
      <trkpt lat="44.75989" lon="3.06102">
        <ele>1064</ele>
        <time>2022-08-07T12:09:31Z</time>
      </trkpt>
      <trkpt lat="44.76002" lon="3.06103">
        <ele>1063.9</ele>
        <time>2022-08-07T12:09:42Z</time>
      </trkpt>
      <trkpt lat="44.76012" lon="3.06101">
        <ele>1063.7</ele>
        <time>2022-08-07T12:09:52Z</time>
      </trkpt>
      <trkpt lat="44.76018" lon="3.06102">
        <ele>1063.9</ele>
        <time>2022-08-07T12:09:59Z</time>
      </trkpt>
      <trkpt lat="44.76018" lon="3.06103">
        <ele>1064</ele>
        <time>2022-08-07T12:10:00Z</time>
      </trkpt>
      <trkpt lat="44.76017" lon="3.06109">
        <ele>1064.7</ele>
        <time>2022-08-07T12:10:07Z</time>
      </trkpt>
      <trkpt lat="44.76017" lon="3.06108">
        <ele>1064.6</ele>
        <time>2022-08-07T12:10:09Z</time>
      </trkpt>
      <trkpt lat="44.76018" lon="3.06106">
        <ele>1064.4</ele>
        <time>2022-08-07T12:10:12Z</time>
      </trkpt>
      <trkpt lat="44.76019" lon="3.06104">
        <ele>1064.1</ele>
        <time>2022-08-07T12:10:13Z</time>
      </trkpt>
      <trkpt lat="44.76019" lon="3.06103">
        <ele>1064</ele>
        <time>2022-08-07T12:10:14Z</time>
      </trkpt>
      <trkpt lat="44.76022" lon="3.06097">
        <ele>1063.3</ele>
        <time>2022-08-07T12:10:20Z</time>
      </trkpt>
      <trkpt lat="44.76024" lon="3.06096">
        <ele>1063.3</ele>
        <time>2022-08-07T12:10:24Z</time>
      </trkpt>
      <trkpt lat="44.76027" lon="3.06097">
        <ele>1063.4</ele>
        <time>2022-08-07T12:10:27Z</time>
      </trkpt>
      <trkpt lat="44.76028" lon="3.06097">
        <ele>1063.5</ele>
        <time>2022-08-07T12:10:29Z</time>
      </trkpt>
      <trkpt lat="44.76028" lon="3.06098">
        <ele>1063.6</ele>
        <time>2022-08-07T12:10:33Z</time>
      </trkpt>
      <trkpt lat="44.76033" lon="3.061">
        <ele>1064.1</ele>
        <time>2022-08-07T12:10:39Z</time>
      </trkpt>
      <trkpt lat="44.76032" lon="3.06102">
        <ele>1064.2</ele>
        <time>2022-08-07T12:10:46Z</time>
      </trkpt>
      <trkpt lat="44.76032" lon="3.06102">
        <ele>1064.2</ele>
        <time>2022-08-07T12:10:49Z</time>
      </trkpt>
      <trkpt lat="44.76031" lon="3.06097">
        <ele>1063.6</ele>
        <time>2022-08-07T12:10:55Z</time>
      </trkpt>
      <trkpt lat="44.76037" lon="3.06091">
        <ele>1063.3</ele>
        <time>2022-08-07T12:11:01Z</time>
      </trkpt>
      <trkpt lat="44.76038" lon="3.06086">
        <ele>1062.9</ele>
        <time>2022-08-07T12:11:06Z</time>
      </trkpt>
      <trkpt lat="44.76039" lon="3.06075">
        <ele>1062.9</ele>
        <time>2022-08-07T12:11:13Z</time>
      </trkpt>
      <trkpt lat="44.76044" lon="3.06065">
        <ele>1063.6</ele>
        <time>2022-08-07T12:11:23Z</time>
      </trkpt>
      <trkpt lat="44.76045" lon="3.06066">
        <ele>1063.8</ele>
        <time>2022-08-07T12:11:31Z</time>
      </trkpt>
      <trkpt lat="44.76046" lon="3.06063">
        <ele>1063.9</ele>
        <time>2022-08-07T12:11:38Z</time>
      </trkpt>
      <trkpt lat="44.76048" lon="3.06058">
        <ele>1064.5</ele>
        <time>2022-08-07T12:11:45Z</time>
      </trkpt>
      <trkpt lat="44.76047" lon="3.06052">
        <ele>1064.9</ele>
        <time>2022-08-07T12:11:52Z</time>
      </trkpt>
      <trkpt lat="44.76046" lon="3.06051">
        <ele>1064.8</ele>
        <time>2022-08-07T12:11:53Z</time>
      </trkpt>
      <trkpt lat="44.76045" lon="3.0605">
        <ele>1064.7</ele>
        <time>2022-08-07T12:11:55Z</time>
      </trkpt>
      <trkpt lat="44.76043" lon="3.06048">
        <ele>1064.5</ele>
        <time>2022-08-07T12:11:59Z</time>
      </trkpt>
      <trkpt lat="44.76042" lon="3.06046">
        <ele>1064.7</ele>
        <time>2022-08-07T12:12:01Z</time>
      </trkpt>
      <trkpt lat="44.76042" lon="3.06044">
        <ele>1064.8</ele>
        <time>2022-08-07T12:12:03Z</time>
      </trkpt>
      <trkpt lat="44.76041" lon="3.06042">
        <ele>1064.9</ele>
        <time>2022-08-07T12:12:04Z</time>
      </trkpt>
      <trkpt lat="44.76042" lon="3.06041">
        <ele>1065.1</ele>
        <time>2022-08-07T12:12:09Z</time>
      </trkpt>
      <trkpt lat="44.7604" lon="3.06037">
        <ele>1065</ele>
        <time>2022-08-07T12:12:20Z</time>
      </trkpt>
      <trkpt lat="44.76038" lon="3.06034">
        <ele>1065</ele>
        <time>2022-08-07T12:12:22Z</time>
      </trkpt>
      <trkpt lat="44.76034" lon="3.06023">
        <ele>1064.3</ele>
        <time>2022-08-07T12:12:31Z</time>
      </trkpt>
      <trkpt lat="44.76034" lon="3.06022">
        <ele>1064.2</ele>
        <time>2022-08-07T12:12:32Z</time>
      </trkpt>
      <trkpt lat="44.76033" lon="3.06015">
        <ele>1063.9</ele>
        <time>2022-08-07T12:12:36Z</time>
      </trkpt>
      <trkpt lat="44.76033" lon="3.06011">
        <ele>1063.6</ele>
        <time>2022-08-07T12:12:39Z</time>
      </trkpt>
      <trkpt lat="44.76032" lon="3.06003">
        <ele>1063.2</ele>
        <time>2022-08-07T12:12:44Z</time>
      </trkpt>
      <trkpt lat="44.76031" lon="3.05995">
        <ele>1062.1</ele>
        <time>2022-08-07T12:12:50Z</time>
      </trkpt>
      <trkpt lat="44.76031" lon="3.05994">
        <ele>1062</ele>
        <time>2022-08-07T12:12:51Z</time>
      </trkpt>
      <trkpt lat="44.76034" lon="3.05983">
        <ele>1061.2</ele>
        <time>2022-08-07T12:12:59Z</time>
      </trkpt>
      <trkpt lat="44.76036" lon="3.05979">
        <ele>1061.2</ele>
        <time>2022-08-07T12:13:02Z</time>
      </trkpt>
      <trkpt lat="44.76044" lon="3.05964">
        <ele>1061.1</ele>
        <time>2022-08-07T12:13:13Z</time>
      </trkpt>
      <trkpt lat="44.76045" lon="3.05961">
        <ele>1060.9</ele>
        <time>2022-08-07T12:13:15Z</time>
      </trkpt>
      <trkpt lat="44.76046" lon="3.0596">
        <ele>1060.9</ele>
        <time>2022-08-07T12:13:16Z</time>
      </trkpt>
      <trkpt lat="44.76051" lon="3.05944">
        <ele>1060.1</ele>
        <time>2022-08-07T12:13:26Z</time>
      </trkpt>
      <trkpt lat="44.76057" lon="3.05931">
        <ele>1059.4</ele>
        <time>2022-08-07T12:13:35Z</time>
      </trkpt>
      <trkpt lat="44.76064" lon="3.05919">
        <ele>1059.3</ele>
        <time>2022-08-07T12:13:46Z</time>
      </trkpt>
      <trkpt lat="44.76064" lon="3.05919">
        <ele>1059.3</ele>
        <time>2022-08-07T12:13:47Z</time>
      </trkpt>
      <trkpt lat="44.76064" lon="3.0592">
        <ele>1059.6</ele>
        <time>2022-08-07T12:13:51Z</time>
      </trkpt>
      <trkpt lat="44.76064" lon="3.0592">
        <ele>1059.6</ele>
        <time>2022-08-07T12:13:54Z</time>
      </trkpt>
      <trkpt lat="44.76065" lon="3.0592">
        <ele>1059.7</ele>
        <time>2022-08-07T12:14:06Z</time>
      </trkpt>
      <trkpt lat="44.76066" lon="3.05919">
        <ele>1059.8</ele>
        <time>2022-08-07T12:14:10Z</time>
      </trkpt>
      <trkpt lat="44.76066" lon="3.05919">
        <ele>1059.8</ele>
        <time>2022-08-07T12:14:11Z</time>
      </trkpt>
      <trkpt lat="44.76067" lon="3.05917">
        <ele>1059.9</ele>
        <time>2022-08-07T12:14:21Z</time>
      </trkpt>
      <trkpt lat="44.76069" lon="3.05912">
        <ele>1059.8</ele>
        <time>2022-08-07T12:14:30Z</time>
      </trkpt>
      <trkpt lat="44.76075" lon="3.05901">
        <ele>1059.6</ele>
        <time>2022-08-07T12:14:37Z</time>
      </trkpt>
      <trkpt lat="44.76083" lon="3.05891">
        <ele>1060.3</ele>
        <time>2022-08-07T12:14:46Z</time>
      </trkpt>
      <trkpt lat="44.76094" lon="3.05875">
        <ele>1060.8</ele>
        <time>2022-08-07T12:14:59Z</time>
      </trkpt>
      <trkpt lat="44.76104" lon="3.05859">
        <ele>1061</ele>
        <time>2022-08-07T12:15:10Z</time>
      </trkpt>
      <trkpt lat="44.76116" lon="3.05844">
        <ele>1060.4</ele>
        <time>2022-08-07T12:15:23Z</time>
      </trkpt>
      <trkpt lat="44.76128" lon="3.05834">
        <ele>1060</ele>
        <time>2022-08-07T12:15:34Z</time>
      </trkpt>
      <trkpt lat="44.76138" lon="3.05831">
        <ele>1060.6</ele>
        <time>2022-08-07T12:15:44Z</time>
      </trkpt>
      <trkpt lat="44.7614" lon="3.0583">
        <ele>1060.5</ele>
        <time>2022-08-07T12:15:49Z</time>
      </trkpt>
      <trkpt lat="44.7614" lon="3.0583">
        <ele>1060.5</ele>
        <time>2022-08-07T12:15:50Z</time>
      </trkpt>
      <trkpt lat="44.7614" lon="3.0583">
        <ele>1060.4</ele>
        <time>2022-08-07T12:15:52Z</time>
      </trkpt>
      <trkpt lat="44.76141" lon="3.0583">
        <ele>1060.4</ele>
        <time>2022-08-07T12:15:58Z</time>
      </trkpt>
      <trkpt lat="44.76141" lon="3.0583">
        <ele>1060.4</ele>
        <time>2022-08-07T12:16:15Z</time>
      </trkpt>
      <trkpt lat="44.76147" lon="3.0583">
        <ele>1059.9</ele>
        <time>2022-08-07T12:16:20Z</time>
      </trkpt>
      <trkpt lat="44.76165" lon="3.05831">
        <ele>1058.9</ele>
        <time>2022-08-07T12:16:32Z</time>
      </trkpt>
      <trkpt lat="44.76165" lon="3.05831">
        <ele>1058.9</ele>
        <time>2022-08-07T12:16:33Z</time>
      </trkpt>
      <trkpt lat="44.7618" lon="3.05837">
        <ele>1058.6</ele>
        <time>2022-08-07T12:16:45Z</time>
      </trkpt>
      <trkpt lat="44.76195" lon="3.05842">
        <ele>1058.2</ele>
        <time>2022-08-07T12:16:58Z</time>
      </trkpt>
      <trkpt lat="44.76204" lon="3.05843">
        <ele>1057.7</ele>
        <time>2022-08-07T12:17:05Z</time>
      </trkpt>
      <trkpt lat="44.7621" lon="3.05843">
        <ele>1057.2</ele>
        <time>2022-08-07T12:17:10Z</time>
      </trkpt>
      <trkpt lat="44.76222" lon="3.05842">
        <ele>1056.3</ele>
        <time>2022-08-07T12:17:20Z</time>
      </trkpt>
      <trkpt lat="44.76225" lon="3.05842">
        <ele>1056.1</ele>
        <time>2022-08-07T12:17:22Z</time>
      </trkpt>
      <trkpt lat="44.76238" lon="3.05844">
        <ele>1055.4</ele>
        <time>2022-08-07T12:17:32Z</time>
      </trkpt>
      <trkpt lat="44.7625" lon="3.05846">
        <ele>1054.8</ele>
        <time>2022-08-07T12:17:42Z</time>
      </trkpt>
      <trkpt lat="44.76253" lon="3.05846">
        <ele>1054.6</ele>
        <time>2022-08-07T12:17:44Z</time>
      </trkpt>
      <trkpt lat="44.76258" lon="3.05847">
        <ele>1054.4</ele>
        <time>2022-08-07T12:17:49Z</time>
      </trkpt>
      <trkpt lat="44.76271" lon="3.05849">
        <ele>1053.7</ele>
        <time>2022-08-07T12:17:59Z</time>
      </trkpt>
      <trkpt lat="44.76282" lon="3.05853">
        <ele>1053</ele>
        <time>2022-08-07T12:18:10Z</time>
      </trkpt>
      <trkpt lat="44.76283" lon="3.05853">
        <ele>1052.9</ele>
        <time>2022-08-07T12:18:11Z</time>
      </trkpt>
      <trkpt lat="44.76294" lon="3.05855">
        <ele>1051.3</ele>
        <time>2022-08-07T12:18:21Z</time>
      </trkpt>
      <trkpt lat="44.76295" lon="3.05855">
        <ele>1051.2</ele>
        <time>2022-08-07T12:18:22Z</time>
      </trkpt>
      <trkpt lat="44.76302" lon="3.05853">
        <ele>1049.8</ele>
        <time>2022-08-07T12:18:29Z</time>
      </trkpt>
      <trkpt lat="44.76305" lon="3.05854">
        <ele>1049.3</ele>
        <time>2022-08-07T12:18:32Z</time>
      </trkpt>
      <trkpt lat="44.76307" lon="3.05853">
        <ele>1048.7</ele>
        <time>2022-08-07T12:18:35Z</time>
      </trkpt>
      <trkpt lat="44.76313" lon="3.05851">
        <ele>1047.3</ele>
        <time>2022-08-07T12:18:42Z</time>
      </trkpt>
      <trkpt lat="44.76315" lon="3.05849">
        <ele>1046.7</ele>
        <time>2022-08-07T12:18:45Z</time>
      </trkpt>
      <trkpt lat="44.76323" lon="3.05842">
        <ele>1044.8</ele>
        <time>2022-08-07T12:18:54Z</time>
      </trkpt>
      <trkpt lat="44.76324" lon="3.05842">
        <ele>1044.6</ele>
        <time>2022-08-07T12:18:55Z</time>
      </trkpt>
      <trkpt lat="44.76329" lon="3.05837">
        <ele>1043.7</ele>
        <time>2022-08-07T12:19:01Z</time>
      </trkpt>
      <trkpt lat="44.76333" lon="3.05832">
        <ele>1043</ele>
        <time>2022-08-07T12:19:07Z</time>
      </trkpt>
      <trkpt lat="44.76334" lon="3.05831">
        <ele>1042.8</ele>
        <time>2022-08-07T12:19:08Z</time>
      </trkpt>
      <trkpt lat="44.76338" lon="3.05828">
        <ele>1041.9</ele>
        <time>2022-08-07T12:19:13Z</time>
      </trkpt>
      <trkpt lat="44.76343" lon="3.05824">
        <ele>1041</ele>
        <time>2022-08-07T12:19:19Z</time>
      </trkpt>
      <trkpt lat="44.76345" lon="3.05823">
        <ele>1040.7</ele>
        <time>2022-08-07T12:19:21Z</time>
      </trkpt>
      <trkpt lat="44.76353" lon="3.0582">
        <ele>1039.3</ele>
        <time>2022-08-07T12:19:29Z</time>
      </trkpt>
      <trkpt lat="44.76359" lon="3.05819">
        <ele>1038.4</ele>
        <time>2022-08-07T12:19:34Z</time>
      </trkpt>
      <trkpt lat="44.76359" lon="3.05818">
        <ele>1038.3</ele>
        <time>2022-08-07T12:19:35Z</time>
      </trkpt>
      <trkpt lat="44.76367" lon="3.05818">
        <ele>1037.5</ele>
        <time>2022-08-07T12:19:42Z</time>
      </trkpt>
      <trkpt lat="44.76368" lon="3.05818">
        <ele>1037.4</ele>
        <time>2022-08-07T12:19:43Z</time>
      </trkpt>
      <trkpt lat="44.76379" lon="3.05817">
        <ele>1036.5</ele>
        <time>2022-08-07T12:19:52Z</time>
      </trkpt>
      <trkpt lat="44.76383" lon="3.05815">
        <ele>1036.2</ele>
        <time>2022-08-07T12:19:56Z</time>
      </trkpt>
      <trkpt lat="44.76389" lon="3.05812">
        <ele>1035.7</ele>
        <time>2022-08-07T12:20:02Z</time>
      </trkpt>
      <trkpt lat="44.76396" lon="3.05805">
        <ele>1034.5</ele>
        <time>2022-08-07T12:20:09Z</time>
      </trkpt>
      <trkpt lat="44.764" lon="3.05799">
        <ele>1033.5</ele>
        <time>2022-08-07T12:20:14Z</time>
      </trkpt>
      <trkpt lat="44.76405" lon="3.05783">
        <ele>1032</ele>
        <time>2022-08-07T12:20:25Z</time>
      </trkpt>
      <trkpt lat="44.76403" lon="3.0577">
        <ele>1032.6</ele>
        <time>2022-08-07T12:20:34Z</time>
      </trkpt>
      <trkpt lat="44.76402" lon="3.05768">
        <ele>1032.7</ele>
        <time>2022-08-07T12:20:35Z</time>
      </trkpt>
      <trkpt lat="44.76397" lon="3.05752">
        <ele>1033.6</ele>
        <time>2022-08-07T12:20:46Z</time>
      </trkpt>
      <trkpt lat="44.76393" lon="3.05742">
        <ele>1033.8</ele>
        <time>2022-08-07T12:20:53Z</time>
      </trkpt>
      <trkpt lat="44.76393" lon="3.05741">
        <ele>1033.7</ele>
        <time>2022-08-07T12:20:54Z</time>
      </trkpt>
      <trkpt lat="44.76388" lon="3.05727">
        <ele>1033.4</ele>
        <time>2022-08-07T12:21:03Z</time>
      </trkpt>
      <trkpt lat="44.76387" lon="3.05713">
        <ele>1033</ele>
        <time>2022-08-07T12:21:11Z</time>
      </trkpt>
      <trkpt lat="44.76387" lon="3.05711">
        <ele>1033</ele>
        <time>2022-08-07T12:21:12Z</time>
      </trkpt>
      <trkpt lat="44.76389" lon="3.05695">
        <ele>1032</ele>
        <time>2022-08-07T12:21:22Z</time>
      </trkpt>
      <trkpt lat="44.76392" lon="3.05683">
        <ele>1031.6</ele>
        <time>2022-08-07T12:21:30Z</time>
      </trkpt>
      <trkpt lat="44.76393" lon="3.05679">
        <ele>1031.4</ele>
        <time>2022-08-07T12:21:33Z</time>
      </trkpt>
      <trkpt lat="44.76394" lon="3.05665">
        <ele>1031.3</ele>
        <time>2022-08-07T12:21:42Z</time>
      </trkpt>
      <trkpt lat="44.76395" lon="3.05647">
        <ele>1031.1</ele>
        <time>2022-08-07T12:21:52Z</time>
      </trkpt>
      <trkpt lat="44.76394" lon="3.05629">
        <ele>1031.3</ele>
        <time>2022-08-07T12:22:03Z</time>
      </trkpt>
      <trkpt lat="44.76394" lon="3.05628">
        <ele>1031.2</ele>
        <time>2022-08-07T12:22:04Z</time>
      </trkpt>
      <trkpt lat="44.76396" lon="3.05616">
        <ele>1031.2</ele>
        <time>2022-08-07T12:22:12Z</time>
      </trkpt>
      <trkpt lat="44.76397" lon="3.05615">
        <ele>1031</ele>
        <time>2022-08-07T12:22:13Z</time>
      </trkpt>
      <trkpt lat="44.76398" lon="3.05612">
        <ele>1030.7</ele>
        <time>2022-08-07T12:22:15Z</time>
      </trkpt>
      <trkpt lat="44.76399" lon="3.05606">
        <ele>1030.9</ele>
        <time>2022-08-07T12:22:19Z</time>
      </trkpt>
      <trkpt lat="44.76399" lon="3.05605">
        <ele>1030.9</ele>
        <time>2022-08-07T12:22:20Z</time>
      </trkpt>
      <trkpt lat="44.764" lon="3.05602">
        <ele>1031</ele>
        <time>2022-08-07T12:22:23Z</time>
      </trkpt>
      <trkpt lat="44.764" lon="3.05599">
        <ele>1031.1</ele>
        <time>2022-08-07T12:22:25Z</time>
      </trkpt>
      <trkpt lat="44.76401" lon="3.05597">
        <ele>1031</ele>
        <time>2022-08-07T12:22:27Z</time>
      </trkpt>
      <trkpt lat="44.76404" lon="3.0559">
        <ele>1030.7</ele>
        <time>2022-08-07T12:22:34Z</time>
      </trkpt>
      <trkpt lat="44.76409" lon="3.05581">
        <ele>1029.7</ele>
        <time>2022-08-07T12:22:41Z</time>
      </trkpt>
      <trkpt lat="44.7641" lon="3.0558">
        <ele>1029.5</ele>
        <time>2022-08-07T12:22:42Z</time>
      </trkpt>
      <trkpt lat="44.76414" lon="3.05571">
        <ele>1028.9</ele>
        <time>2022-08-07T12:22:49Z</time>
      </trkpt>
      <trkpt lat="44.76417" lon="3.05565">
        <ele>1028.4</ele>
        <time>2022-08-07T12:22:55Z</time>
      </trkpt>
      <trkpt lat="44.76419" lon="3.05563">
        <ele>1028</ele>
        <time>2022-08-07T12:22:57Z</time>
      </trkpt>
      <trkpt lat="44.76423" lon="3.05558">
        <ele>1027.5</ele>
        <time>2022-08-07T12:23:02Z</time>
      </trkpt>
      <trkpt lat="44.76424" lon="3.05555">
        <ele>1027.3</ele>
        <time>2022-08-07T12:23:04Z</time>
      </trkpt>
      <trkpt lat="44.76434" lon="3.05546">
        <ele>1025.7</ele>
        <time>2022-08-07T12:23:13Z</time>
      </trkpt>
      <trkpt lat="44.76439" lon="3.0554">
        <ele>1024.7</ele>
        <time>2022-08-07T12:23:19Z</time>
      </trkpt>
      <trkpt lat="44.76442" lon="3.05538">
        <ele>1024.1</ele>
        <time>2022-08-07T12:23:22Z</time>
      </trkpt>
      <trkpt lat="44.76443" lon="3.05537">
        <ele>1024</ele>
        <time>2022-08-07T12:23:23Z</time>
      </trkpt>
      <trkpt lat="44.76453" lon="3.05529">
        <ele>1023.7</ele>
        <time>2022-08-07T12:23:32Z</time>
      </trkpt>
      <trkpt lat="44.76461" lon="3.0552">
        <ele>1023.3</ele>
        <time>2022-08-07T12:23:41Z</time>
      </trkpt>
      <trkpt lat="44.76461" lon="3.05519">
        <ele>1023.2</ele>
        <time>2022-08-07T12:23:43Z</time>
      </trkpt>
      <trkpt lat="44.76461" lon="3.0552">
        <ele>1023.2</ele>
        <time>2022-08-07T12:23:44Z</time>
      </trkpt>
      <trkpt lat="44.76461" lon="3.0552">
        <ele>1023.3</ele>
        <time>2022-08-07T12:23:46Z</time>
      </trkpt>
      <trkpt lat="44.76461" lon="3.0552">
        <ele>1023.3</ele>
        <time>2022-08-07T12:23:47Z</time>
      </trkpt>
      <trkpt lat="44.76461" lon="3.05521">
        <ele>1023.3</ele>
        <time>2022-08-07T12:23:48Z</time>
      </trkpt>
      <trkpt lat="44.76464" lon="3.05518">
        <ele>1023.1</ele>
        <time>2022-08-07T12:23:56Z</time>
      </trkpt>
      <trkpt lat="44.76468" lon="3.05515">
        <ele>1022.8</ele>
        <time>2022-08-07T12:24:03Z</time>
      </trkpt>
      <trkpt lat="44.7647" lon="3.05515">
        <ele>1022.7</ele>
        <time>2022-08-07T12:24:11Z</time>
      </trkpt>
      <trkpt lat="44.76473" lon="3.05513">
        <ele>1022.5</ele>
        <time>2022-08-07T12:24:17Z</time>
      </trkpt>
      <trkpt lat="44.7648" lon="3.05517">
        <ele>1023</ele>
        <time>2022-08-07T12:24:23Z</time>
      </trkpt>
      <trkpt lat="44.76489" lon="3.0552">
        <ele>1023.5</ele>
        <time>2022-08-07T12:24:33Z</time>
      </trkpt>
      <trkpt lat="44.76492" lon="3.05523">
        <ele>1023.6</ele>
        <time>2022-08-07T12:24:40Z</time>
      </trkpt>
      <trkpt lat="44.76492" lon="3.05523">
        <ele>1023.7</ele>
        <time>2022-08-07T12:24:46Z</time>
      </trkpt>
      <trkpt lat="44.76496" lon="3.05526">
        <ele>1023.8</ele>
        <time>2022-08-07T12:24:55Z</time>
      </trkpt>
      <trkpt lat="44.76496" lon="3.05526">
        <ele>1023.8</ele>
        <time>2022-08-07T12:25:07Z</time>
      </trkpt>
      <trkpt lat="44.765" lon="3.05529">
        <ele>1024.1</ele>
        <time>2022-08-07T12:26:32Z</time>
      </trkpt>
      <trkpt lat="44.76507" lon="3.05529">
        <ele>1025.5</ele>
        <time>2022-08-07T12:26:37Z</time>
      </trkpt>
      <trkpt lat="44.7651" lon="3.05527">
        <ele>1026</ele>
        <time>2022-08-07T12:26:40Z</time>
      </trkpt>
      <trkpt lat="44.76511" lon="3.05525">
        <ele>1026.4</ele>
        <time>2022-08-07T12:26:42Z</time>
      </trkpt>
      <trkpt lat="44.76513" lon="3.05523">
        <ele>1026.6</ele>
        <time>2022-08-07T12:26:44Z</time>
      </trkpt>
      <trkpt lat="44.76514" lon="3.05518">
        <ele>1026.7</ele>
        <time>2022-08-07T12:26:47Z</time>
      </trkpt>
      <trkpt lat="44.76515" lon="3.05516">
        <ele>1026.8</ele>
        <time>2022-08-07T12:26:49Z</time>
      </trkpt>
      <trkpt lat="44.7652" lon="3.05515">
        <ele>1027.7</ele>
        <time>2022-08-07T12:26:54Z</time>
      </trkpt>
      <trkpt lat="44.76522" lon="3.05514">
        <ele>1028</ele>
        <time>2022-08-07T12:26:56Z</time>
      </trkpt>
      <trkpt lat="44.76531" lon="3.05512">
        <ele>1029.2</ele>
        <time>2022-08-07T12:27:03Z</time>
      </trkpt>
      <trkpt lat="44.7654" lon="3.05509">
        <ele>1030.1</ele>
        <time>2022-08-07T12:27:11Z</time>
      </trkpt>
      <trkpt lat="44.76544" lon="3.05508">
        <ele>1030.5</ele>
        <time>2022-08-07T12:27:15Z</time>
      </trkpt>
      <trkpt lat="44.76553" lon="3.05503">
        <ele>1031</ele>
        <time>2022-08-07T12:27:23Z</time>
      </trkpt>
      <trkpt lat="44.76556" lon="3.05501">
        <ele>1031.1</ele>
        <time>2022-08-07T12:27:26Z</time>
      </trkpt>
      <trkpt lat="44.76565" lon="3.05495">
        <ele>1032.7</ele>
        <time>2022-08-07T12:27:36Z</time>
      </trkpt>
      <trkpt lat="44.76566" lon="3.05494">
        <ele>1032.8</ele>
        <time>2022-08-07T12:27:37Z</time>
      </trkpt>
      <trkpt lat="44.76573" lon="3.05489">
        <ele>1033.7</ele>
        <time>2022-08-07T12:27:44Z</time>
      </trkpt>
      <trkpt lat="44.76579" lon="3.05486">
        <ele>1034.4</ele>
        <time>2022-08-07T12:27:50Z</time>
      </trkpt>
      <trkpt lat="44.76582" lon="3.05485">
        <ele>1034.6</ele>
        <time>2022-08-07T12:27:53Z</time>
      </trkpt>
      <trkpt lat="44.76587" lon="3.05484">
        <ele>1035.2</ele>
        <time>2022-08-07T12:27:58Z</time>
      </trkpt>
      <trkpt lat="44.76591" lon="3.05482">
        <ele>1035.7</ele>
        <time>2022-08-07T12:28:03Z</time>
      </trkpt>
      <trkpt lat="44.766" lon="3.05482">
        <ele>1036.9</ele>
        <time>2022-08-07T12:28:11Z</time>
      </trkpt>
      <trkpt lat="44.76607" lon="3.05483">
        <ele>1038.2</ele>
        <time>2022-08-07T12:28:18Z</time>
      </trkpt>
      <trkpt lat="44.76609" lon="3.05482">
        <ele>1038.5</ele>
        <time>2022-08-07T12:28:20Z</time>
      </trkpt>
      <trkpt lat="44.76611" lon="3.05481">
        <ele>1038.5</ele>
        <time>2022-08-07T12:28:26Z</time>
      </trkpt>
      <trkpt lat="44.76611" lon="3.0548">
        <ele>1038.5</ele>
        <time>2022-08-07T12:28:27Z</time>
      </trkpt>
      <trkpt lat="44.76611" lon="3.0548">
        <ele>1038.4</ele>
        <time>2022-08-07T12:28:30Z</time>
      </trkpt>
      <trkpt lat="44.76613" lon="3.05477">
        <ele>1038</ele>
        <time>2022-08-07T12:28:39Z</time>
      </trkpt>
      <trkpt lat="44.76617" lon="3.05467">
        <ele>1036.9</ele>
        <time>2022-08-07T12:28:47Z</time>
      </trkpt>
      <trkpt lat="44.76622" lon="3.05459">
        <ele>1036.5</ele>
        <time>2022-08-07T12:28:53Z</time>
      </trkpt>
      <trkpt lat="44.76625" lon="3.05454">
        <ele>1036.3</ele>
        <time>2022-08-07T12:28:57Z</time>
      </trkpt>
      <trkpt lat="44.76633" lon="3.05441">
        <ele>1036</ele>
        <time>2022-08-07T12:29:08Z</time>
      </trkpt>
      <trkpt lat="44.76637" lon="3.05435">
        <ele>1035.8</ele>
        <time>2022-08-07T12:29:13Z</time>
      </trkpt>
      <trkpt lat="44.76642" lon="3.05425">
        <ele>1035.1</ele>
        <time>2022-08-07T12:29:20Z</time>
      </trkpt>
      <trkpt lat="44.76644" lon="3.05417">
        <ele>1034.4</ele>
        <time>2022-08-07T12:29:25Z</time>
      </trkpt>
      <trkpt lat="44.76642" lon="3.05409">
        <ele>1034.5</ele>
        <time>2022-08-07T12:29:30Z</time>
      </trkpt>
      <trkpt lat="44.76637" lon="3.05393">
        <ele>1034.7</ele>
        <time>2022-08-07T12:29:40Z</time>
      </trkpt>
      <trkpt lat="44.76635" lon="3.05382">
        <ele>1034.8</ele>
        <time>2022-08-07T12:29:48Z</time>
      </trkpt>
      <trkpt lat="44.76635" lon="3.05382">
        <ele>1034.8</ele>
        <time>2022-08-07T12:29:50Z</time>
      </trkpt>
      <trkpt lat="44.76637" lon="3.05388">
        <ele>1034.9</ele>
        <time>2022-08-07T12:29:59Z</time>
      </trkpt>
      <trkpt lat="44.76638" lon="3.0539">
        <ele>1034.8</ele>
        <time>2022-08-07T12:30:07Z</time>
      </trkpt>
      <trkpt lat="44.76638" lon="3.0539">
        <ele>1034.8</ele>
        <time>2022-08-07T12:30:23Z</time>
      </trkpt>
      <trkpt lat="44.76638" lon="3.0539">
        <ele>1034.8</ele>
        <time>2022-08-07T12:30:27Z</time>
      </trkpt>
      <trkpt lat="44.76635" lon="3.05384">
        <ele>1034.7</ele>
        <time>2022-08-07T12:30:44Z</time>
      </trkpt>
      <trkpt lat="44.7663" lon="3.05364">
        <ele>1034.6</ele>
        <time>2022-08-07T12:30:54Z</time>
      </trkpt>
      <trkpt lat="44.76626" lon="3.05352">
        <ele>1034.3</ele>
        <time>2022-08-07T12:31:02Z</time>
      </trkpt>
      <trkpt lat="44.76623" lon="3.05341">
        <ele>1034.1</ele>
        <time>2022-08-07T12:31:09Z</time>
      </trkpt>
      <trkpt lat="44.76621" lon="3.05328">
        <ele>1033.8</ele>
        <time>2022-08-07T12:31:18Z</time>
      </trkpt>
      <trkpt lat="44.7662" lon="3.05326">
        <ele>1033.7</ele>
        <time>2022-08-07T12:31:19Z</time>
      </trkpt>
      <trkpt lat="44.7662" lon="3.05321">
        <ele>1033.7</ele>
        <time>2022-08-07T12:31:22Z</time>
      </trkpt>
      <trkpt lat="44.76618" lon="3.05314">
        <ele>1033.5</ele>
        <time>2022-08-07T12:31:26Z</time>
      </trkpt>
      <trkpt lat="44.76618" lon="3.05311">
        <ele>1033.4</ele>
        <time>2022-08-07T12:31:28Z</time>
      </trkpt>
      <trkpt lat="44.76617" lon="3.05301">
        <ele>1033.3</ele>
        <time>2022-08-07T12:31:34Z</time>
      </trkpt>
      <trkpt lat="44.76618" lon="3.05296">
        <ele>1033.3</ele>
        <time>2022-08-07T12:31:37Z</time>
      </trkpt>
      <trkpt lat="44.76618" lon="3.05285">
        <ele>1033.3</ele>
        <time>2022-08-07T12:31:43Z</time>
      </trkpt>
      <trkpt lat="44.7662" lon="3.05271">
        <ele>1032.9</ele>
        <time>2022-08-07T12:31:52Z</time>
      </trkpt>
      <trkpt lat="44.76621" lon="3.05266">
        <ele>1032.7</ele>
        <time>2022-08-07T12:31:56Z</time>
      </trkpt>
      <trkpt lat="44.76621" lon="3.05265">
        <ele>1032.7</ele>
        <time>2022-08-07T12:31:57Z</time>
      </trkpt>
      <trkpt lat="44.76621" lon="3.05262">
        <ele>1032.4</ele>
        <time>2022-08-07T12:32:00Z</time>
      </trkpt>
      <trkpt lat="44.76621" lon="3.05261">
        <ele>1032.2</ele>
        <time>2022-08-07T12:32:02Z</time>
      </trkpt>
      <trkpt lat="44.76621" lon="3.05254">
        <ele>1031.7</ele>
        <time>2022-08-07T12:32:05Z</time>
      </trkpt>
      <trkpt lat="44.76621" lon="3.05244">
        <ele>1031.4</ele>
        <time>2022-08-07T12:32:11Z</time>
      </trkpt>
      <trkpt lat="44.7662" lon="3.05243">
        <ele>1031.2</ele>
        <time>2022-08-07T12:32:12Z</time>
      </trkpt>
      <trkpt lat="44.76617" lon="3.05237">
        <ele>1030.7</ele>
        <time>2022-08-07T12:32:17Z</time>
      </trkpt>
      <trkpt lat="44.76615" lon="3.05235">
        <ele>1030.5</ele>
        <time>2022-08-07T12:32:19Z</time>
      </trkpt>
      <trkpt lat="44.76608" lon="3.05225">
        <ele>1030.3</ele>
        <time>2022-08-07T12:32:28Z</time>
      </trkpt>
      <trkpt lat="44.76607" lon="3.05223">
        <ele>1030.4</ele>
        <time>2022-08-07T12:32:29Z</time>
      </trkpt>
      <trkpt lat="44.76596" lon="3.05204">
        <ele>1030.9</ele>
        <time>2022-08-07T12:32:43Z</time>
      </trkpt>
      <trkpt lat="44.76592" lon="3.05199">
        <ele>1030.9</ele>
        <time>2022-08-07T12:32:47Z</time>
      </trkpt>
      <trkpt lat="44.76589" lon="3.05194">
        <ele>1030.8</ele>
        <time>2022-08-07T12:32:51Z</time>
      </trkpt>
      <trkpt lat="44.76582" lon="3.05182">
        <ele>1030.2</ele>
        <time>2022-08-07T12:33:00Z</time>
      </trkpt>
      <trkpt lat="44.7658" lon="3.05179">
        <ele>1030.2</ele>
        <time>2022-08-07T12:33:03Z</time>
      </trkpt>
      <trkpt lat="44.7657" lon="3.05162">
        <ele>1029.8</ele>
        <time>2022-08-07T12:33:15Z</time>
      </trkpt>
      <trkpt lat="44.76565" lon="3.05147">
        <ele>1028.9</ele>
        <time>2022-08-07T12:33:25Z</time>
      </trkpt>
      <trkpt lat="44.76572" lon="3.05139">
        <ele>1028.6</ele>
        <time>2022-08-07T12:33:32Z</time>
      </trkpt>
      <trkpt lat="44.76578" lon="3.05136">
        <ele>1028.8</ele>
        <time>2022-08-07T12:33:37Z</time>
      </trkpt>
      <trkpt lat="44.76581" lon="3.05134">
        <ele>1028.9</ele>
        <time>2022-08-07T12:33:40Z</time>
      </trkpt>
      <trkpt lat="44.76595" lon="3.05125">
        <ele>1029.2</ele>
        <time>2022-08-07T12:33:52Z</time>
      </trkpt>
      <trkpt lat="44.76606" lon="3.05116">
        <ele>1029.1</ele>
        <time>2022-08-07T12:34:03Z</time>
      </trkpt>
      <trkpt lat="44.76618" lon="3.05105">
        <ele>1029</ele>
        <time>2022-08-07T12:34:16Z</time>
      </trkpt>
      <trkpt lat="44.76628" lon="3.05099">
        <ele>1029</ele>
        <time>2022-08-07T12:34:24Z</time>
      </trkpt>
      <trkpt lat="44.7664" lon="3.05093">
        <ele>1028.9</ele>
        <time>2022-08-07T12:34:34Z</time>
      </trkpt>
      <trkpt lat="44.76647" lon="3.05089">
        <ele>1028.5</ele>
        <time>2022-08-07T12:34:40Z</time>
      </trkpt>
      <trkpt lat="44.76648" lon="3.05088">
        <ele>1028.4</ele>
        <time>2022-08-07T12:34:41Z</time>
      </trkpt>
      <trkpt lat="44.76656" lon="3.05078">
        <ele>1027.9</ele>
        <time>2022-08-07T12:34:50Z</time>
      </trkpt>
      <trkpt lat="44.76665" lon="3.05065">
        <ele>1027.8</ele>
        <time>2022-08-07T12:35:00Z</time>
      </trkpt>
      <trkpt lat="44.76673" lon="3.05054">
        <ele>1027.7</ele>
        <time>2022-08-07T12:35:09Z</time>
      </trkpt>
      <trkpt lat="44.76675" lon="3.05052">
        <ele>1027.8</ele>
        <time>2022-08-07T12:35:11Z</time>
      </trkpt>
      <trkpt lat="44.76686" lon="3.05042">
        <ele>1028.1</ele>
        <time>2022-08-07T12:35:22Z</time>
      </trkpt>
      <trkpt lat="44.76695" lon="3.05036">
        <ele>1028.1</ele>
        <time>2022-08-07T12:35:30Z</time>
      </trkpt>
      <trkpt lat="44.76704" lon="3.05027">
        <ele>1028.1</ele>
        <time>2022-08-07T12:35:39Z</time>
      </trkpt>
      <trkpt lat="44.7671" lon="3.05023">
        <ele>1028</ele>
        <time>2022-08-07T12:35:46Z</time>
      </trkpt>
      <trkpt lat="44.76724" lon="3.05016">
        <ele>1027.7</ele>
        <time>2022-08-07T12:35:57Z</time>
      </trkpt>
      <trkpt lat="44.76726" lon="3.05015">
        <ele>1027.7</ele>
        <time>2022-08-07T12:35:59Z</time>
      </trkpt>
      <trkpt lat="44.7673" lon="3.05014">
        <ele>1027.6</ele>
        <time>2022-08-07T12:36:02Z</time>
      </trkpt>
      <trkpt lat="44.7673" lon="3.05014">
        <ele>1027.6</ele>
        <time>2022-08-07T12:36:03Z</time>
      </trkpt>
      <trkpt lat="44.76732" lon="3.05014">
        <ele>1027.5</ele>
        <time>2022-08-07T12:36:04Z</time>
      </trkpt>
      <trkpt lat="44.7674" lon="3.05012">
        <ele>1027.3</ele>
        <time>2022-08-07T12:36:10Z</time>
      </trkpt>
      <trkpt lat="44.76751" lon="3.05007">
        <ele>1027.1</ele>
        <time>2022-08-07T12:36:20Z</time>
      </trkpt>
      <trkpt lat="44.76761" lon="3.05003">
        <ele>1026.7</ele>
        <time>2022-08-07T12:36:28Z</time>
      </trkpt>
      <trkpt lat="44.76767" lon="3.04998">
        <ele>1026.2</ele>
        <time>2022-08-07T12:36:34Z</time>
      </trkpt>
      <trkpt lat="44.76769" lon="3.04997">
        <ele>1026.1</ele>
        <time>2022-08-07T12:36:36Z</time>
      </trkpt>
      <trkpt lat="44.76776" lon="3.04986">
        <ele>1025.8</ele>
        <time>2022-08-07T12:36:45Z</time>
      </trkpt>
      <trkpt lat="44.7678" lon="3.0498">
        <ele>1025.9</ele>
        <time>2022-08-07T12:36:50Z</time>
      </trkpt>
      <trkpt lat="44.76784" lon="3.04973">
        <ele>1026.7</ele>
        <time>2022-08-07T12:36:55Z</time>
      </trkpt>
      <trkpt lat="44.76791" lon="3.0496">
        <ele>1026.4</ele>
        <time>2022-08-07T12:37:05Z</time>
      </trkpt>
      <trkpt lat="44.76798" lon="3.04952">
        <ele>1025.5</ele>
        <time>2022-08-07T12:37:13Z</time>
      </trkpt>
      <trkpt lat="44.768" lon="3.04949">
        <ele>1025.1</ele>
        <time>2022-08-07T12:37:15Z</time>
      </trkpt>
      <trkpt lat="44.76807" lon="3.04939">
        <ele>1023.8</ele>
        <time>2022-08-07T12:37:24Z</time>
      </trkpt>
      <trkpt lat="44.76808" lon="3.04938">
        <ele>1023.8</ele>
        <time>2022-08-07T12:37:25Z</time>
      </trkpt>
      <trkpt lat="44.7682" lon="3.0492">
        <ele>1022.3</ele>
        <time>2022-08-07T12:37:39Z</time>
      </trkpt>
      <trkpt lat="44.76823" lon="3.04914">
        <ele>1021.7</ele>
        <time>2022-08-07T12:37:43Z</time>
      </trkpt>
      <trkpt lat="44.76828" lon="3.04907">
        <ele>1021.1</ele>
        <time>2022-08-07T12:37:49Z</time>
      </trkpt>
      <trkpt lat="44.7683" lon="3.04903">
        <ele>1020.8</ele>
        <time>2022-08-07T12:37:52Z</time>
      </trkpt>
      <trkpt lat="44.76839" lon="3.04883">
        <ele>1020.1</ele>
        <time>2022-08-07T12:38:05Z</time>
      </trkpt>
      <trkpt lat="44.76846" lon="3.04867">
        <ele>1019.7</ele>
        <time>2022-08-07T12:38:16Z</time>
      </trkpt>
      <trkpt lat="44.76851" lon="3.04846">
        <ele>1019.5</ele>
        <time>2022-08-07T12:38:28Z</time>
      </trkpt>
      <trkpt lat="44.76856" lon="3.04832">
        <ele>1018.8</ele>
        <time>2022-08-07T12:38:37Z</time>
      </trkpt>
      <trkpt lat="44.76859" lon="3.04825">
        <ele>1018.9</ele>
        <time>2022-08-07T12:38:41Z</time>
      </trkpt>
      <trkpt lat="44.76861" lon="3.0482">
        <ele>1018.9</ele>
        <time>2022-08-07T12:38:45Z</time>
      </trkpt>
      <trkpt lat="44.76863" lon="3.04816">
        <ele>1019</ele>
        <time>2022-08-07T12:38:48Z</time>
      </trkpt>
      <trkpt lat="44.76864" lon="3.04813">
        <ele>1019</ele>
        <time>2022-08-07T12:38:50Z</time>
      </trkpt>
      <trkpt lat="44.76866" lon="3.04809">
        <ele>1018.9</ele>
        <time>2022-08-07T12:38:53Z</time>
      </trkpt>
      <trkpt lat="44.76871" lon="3.04794">
        <ele>1019.1</ele>
        <time>2022-08-07T12:39:02Z</time>
      </trkpt>
      <trkpt lat="44.76877" lon="3.04783">
        <ele>1018.7</ele>
        <time>2022-08-07T12:39:10Z</time>
      </trkpt>
      <trkpt lat="44.76882" lon="3.04776">
        <ele>1017.8</ele>
        <time>2022-08-07T12:39:16Z</time>
      </trkpt>
      <trkpt lat="44.76884" lon="3.04774">
        <ele>1017.6</ele>
        <time>2022-08-07T12:39:18Z</time>
      </trkpt>
      <trkpt lat="44.76885" lon="3.04772">
        <ele>1017.5</ele>
        <time>2022-08-07T12:39:19Z</time>
      </trkpt>
      <trkpt lat="44.76891" lon="3.04758">
        <ele>1017.8</ele>
        <time>2022-08-07T12:39:28Z</time>
      </trkpt>
      <trkpt lat="44.76896" lon="3.04746">
        <ele>1017.3</ele>
        <time>2022-08-07T12:39:37Z</time>
      </trkpt>
      <trkpt lat="44.76901" lon="3.04738">
        <ele>1016.3</ele>
        <time>2022-08-07T12:39:44Z</time>
      </trkpt>
      <trkpt lat="44.76903" lon="3.04734">
        <ele>1015.8</ele>
        <time>2022-08-07T12:39:46Z</time>
      </trkpt>
      <trkpt lat="44.7691" lon="3.04728">
        <ele>1013.9</ele>
        <time>2022-08-07T12:39:53Z</time>
      </trkpt>
      <trkpt lat="44.76911" lon="3.04725">
        <ele>1013.5</ele>
        <time>2022-08-07T12:39:55Z</time>
      </trkpt>
      <trkpt lat="44.76915" lon="3.0472">
        <ele>1012.7</ele>
        <time>2022-08-07T12:39:59Z</time>
      </trkpt>
      <trkpt lat="44.76918" lon="3.04716">
        <ele>1012.1</ele>
        <time>2022-08-07T12:40:03Z</time>
      </trkpt>
      <trkpt lat="44.7692" lon="3.04712">
        <ele>1012</ele>
        <time>2022-08-07T12:40:06Z</time>
      </trkpt>
      <trkpt lat="44.76923" lon="3.04707">
        <ele>1011.9</ele>
        <time>2022-08-07T12:40:10Z</time>
      </trkpt>
      <trkpt lat="44.76923" lon="3.04706">
        <ele>1011.8</ele>
        <time>2022-08-07T12:40:11Z</time>
      </trkpt>
      <trkpt lat="44.76925" lon="3.04703">
        <ele>1011.7</ele>
        <time>2022-08-07T12:40:13Z</time>
      </trkpt>
      <trkpt lat="44.76929" lon="3.04695">
        <ele>1011.2</ele>
        <time>2022-08-07T12:40:19Z</time>
      </trkpt>
      <trkpt lat="44.76936" lon="3.04685">
        <ele>1009.8</ele>
        <time>2022-08-07T12:40:27Z</time>
      </trkpt>
      <trkpt lat="44.76936" lon="3.04683">
        <ele>1009.7</ele>
        <time>2022-08-07T12:40:28Z</time>
      </trkpt>
      <trkpt lat="44.7694" lon="3.04671">
        <ele>1008.7</ele>
        <time>2022-08-07T12:40:35Z</time>
      </trkpt>
      <trkpt lat="44.7694" lon="3.04668">
        <ele>1008.5</ele>
        <time>2022-08-07T12:40:37Z</time>
      </trkpt>
      <trkpt lat="44.76941" lon="3.04654">
        <ele>1007.9</ele>
        <time>2022-08-07T12:40:45Z</time>
      </trkpt>
      <trkpt lat="44.76943" lon="3.04652">
        <ele>1007.6</ele>
        <time>2022-08-07T12:40:47Z</time>
      </trkpt>
      <trkpt lat="44.76947" lon="3.04652">
        <ele>1007.4</ele>
        <time>2022-08-07T12:40:50Z</time>
      </trkpt>
      <trkpt lat="44.7696" lon="3.04655">
        <ele>1007.4</ele>
        <time>2022-08-07T12:41:00Z</time>
      </trkpt>
      <trkpt lat="44.76971" lon="3.04657">
        <ele>1007.3</ele>
        <time>2022-08-07T12:41:09Z</time>
      </trkpt>
      <trkpt lat="44.76974" lon="3.04657">
        <ele>1007.3</ele>
        <time>2022-08-07T12:41:12Z</time>
      </trkpt>
      <trkpt lat="44.76977" lon="3.04657">
        <ele>1007.3</ele>
        <time>2022-08-07T12:41:16Z</time>
      </trkpt>
      <trkpt lat="44.7698" lon="3.04656">
        <ele>1007.2</ele>
        <time>2022-08-07T12:41:19Z</time>
      </trkpt>
      <trkpt lat="44.76991" lon="3.04654">
        <ele>1007.1</ele>
        <time>2022-08-07T12:41:27Z</time>
      </trkpt>
      <trkpt lat="44.77002" lon="3.0465">
        <ele>1006.9</ele>
        <time>2022-08-07T12:41:36Z</time>
      </trkpt>
      <trkpt lat="44.77009" lon="3.04646">
        <ele>1006.9</ele>
        <time>2022-08-07T12:41:44Z</time>
      </trkpt>
      <trkpt lat="44.77011" lon="3.04645">
        <ele>1007</ele>
        <time>2022-08-07T12:41:51Z</time>
      </trkpt>
      <trkpt lat="44.77015" lon="3.04644">
        <ele>1006.9</ele>
        <time>2022-08-07T12:41:54Z</time>
      </trkpt>
      <trkpt lat="44.77022" lon="3.04642">
        <ele>1007.1</ele>
        <time>2022-08-07T12:41:59Z</time>
      </trkpt>
      <trkpt lat="44.77032" lon="3.04638">
        <ele>1007.1</ele>
        <time>2022-08-07T12:42:07Z</time>
      </trkpt>
      <trkpt lat="44.77048" lon="3.04631">
        <ele>1007.1</ele>
        <time>2022-08-07T12:42:19Z</time>
      </trkpt>
      <trkpt lat="44.7705" lon="3.04629">
        <ele>1007.1</ele>
        <time>2022-08-07T12:42:21Z</time>
      </trkpt>
      <trkpt lat="44.77054" lon="3.04627">
        <ele>1007.1</ele>
        <time>2022-08-07T12:42:24Z</time>
      </trkpt>
      <trkpt lat="44.77064" lon="3.04622">
        <ele>1007.1</ele>
        <time>2022-08-07T12:42:33Z</time>
      </trkpt>
      <trkpt lat="44.77078" lon="3.04617">
        <ele>1007.2</ele>
        <time>2022-08-07T12:42:44Z</time>
      </trkpt>
      <trkpt lat="44.77082" lon="3.04615">
        <ele>1007.2</ele>
        <time>2022-08-07T12:42:47Z</time>
      </trkpt>
      <trkpt lat="44.77095" lon="3.04608">
        <ele>1007.2</ele>
        <time>2022-08-07T12:42:58Z</time>
      </trkpt>
      <trkpt lat="44.7711" lon="3.04602">
        <ele>1007</ele>
        <time>2022-08-07T12:43:10Z</time>
      </trkpt>
      <trkpt lat="44.77123" lon="3.04597">
        <ele>1007</ele>
        <time>2022-08-07T12:43:19Z</time>
      </trkpt>
      <trkpt lat="44.77138" lon="3.0459">
        <ele>1007</ele>
        <time>2022-08-07T12:43:32Z</time>
      </trkpt>
      <trkpt lat="44.7715" lon="3.04586">
        <ele>1006.8</ele>
        <time>2022-08-07T12:43:42Z</time>
      </trkpt>
      <trkpt lat="44.77152" lon="3.04586">
        <ele>1006.8</ele>
        <time>2022-08-07T12:43:43Z</time>
      </trkpt>
      <trkpt lat="44.77154" lon="3.04584">
        <ele>1006.7</ele>
        <time>2022-08-07T12:43:46Z</time>
      </trkpt>
    </trkseg>
  </trk>
</gpx>